<?xml version="1.0" encoding="UTF-8" standalone="no" ?>
<gpx xmlns="http://www.topografix.com/GPX/1/1" xmlns:xsi="http://www.w3.org/2001/XMLSchema-instance" xsi:schemaLocation="http://www.topografix.com/GPX/1/1 http://www.topografix.com/GPX/1/1/gpx.xsd" version="1.1" creator="VisuGPX - https://www.visugpx.com">
  <metadata>
    <name>GR10 de Planes à Banyuls</name>
  </metadata>
  <trk>
    <name><![CDATA[Enregistrement du 23/09/24]]></name>
    <trkseg>
      <trkpt lat="42.50603" lon="2.12107">
        <ele>1555</ele>
        <time>2024-09-15T14:14:45Z</time>
      </trkpt>
      <trkpt lat="42.50602" lon="2.12106">
        <ele>1552</ele>
        <time>2024-09-15T14:14:48Z</time>
      </trkpt>
      <trkpt lat="42.506" lon="2.12106">
        <ele>1558</ele>
        <time>2024-09-15T14:14:50Z</time>
      </trkpt>
      <trkpt lat="42.50597" lon="2.12104">
        <ele>1557</ele>
        <time>2024-09-15T14:14:52Z</time>
      </trkpt>
      <trkpt lat="42.50595" lon="2.12101">
        <ele>1558</ele>
        <time>2024-09-15T14:14:55Z</time>
      </trkpt>
      <trkpt lat="42.50592" lon="2.12099">
        <ele>1557</ele>
        <time>2024-09-15T14:14:58Z</time>
      </trkpt>
      <trkpt lat="42.5059" lon="2.12095">
        <ele>1556</ele>
        <time>2024-09-15T14:15:01Z</time>
      </trkpt>
      <trkpt lat="42.50588" lon="2.12092">
        <ele>1556</ele>
        <time>2024-09-15T14:15:03Z</time>
      </trkpt>
      <trkpt lat="42.50586" lon="2.12088">
        <ele>1556</ele>
        <time>2024-09-15T14:15:05Z</time>
      </trkpt>
      <trkpt lat="42.50584" lon="2.12085">
        <ele>1555</ele>
        <time>2024-09-15T14:15:08Z</time>
      </trkpt>
      <trkpt lat="42.50583" lon="2.12082">
        <ele>1555</ele>
        <time>2024-09-15T14:15:09Z</time>
      </trkpt>
      <trkpt lat="42.50582" lon="2.12078">
        <ele>1555</ele>
        <time>2024-09-15T14:15:11Z</time>
      </trkpt>
      <trkpt lat="42.50581" lon="2.12075">
        <ele>1554</ele>
        <time>2024-09-15T14:15:14Z</time>
      </trkpt>
      <trkpt lat="42.50579" lon="2.12071">
        <ele>1554</ele>
        <time>2024-09-15T14:15:16Z</time>
      </trkpt>
      <trkpt lat="42.50578" lon="2.12067">
        <ele>1554</ele>
        <time>2024-09-15T14:15:19Z</time>
      </trkpt>
      <trkpt lat="42.50577" lon="2.12064">
        <ele>1555</ele>
        <time>2024-09-15T14:15:21Z</time>
      </trkpt>
      <trkpt lat="42.50576" lon="2.1206">
        <ele>1555</ele>
        <time>2024-09-15T14:15:24Z</time>
      </trkpt>
      <trkpt lat="42.50574" lon="2.12056">
        <ele>1555</ele>
        <time>2024-09-15T14:15:27Z</time>
      </trkpt>
      <trkpt lat="42.50573" lon="2.12052">
        <ele>1555</ele>
        <time>2024-09-15T14:15:30Z</time>
      </trkpt>
      <trkpt lat="42.50572" lon="2.12048">
        <ele>1554</ele>
        <time>2024-09-15T14:15:32Z</time>
      </trkpt>
      <trkpt lat="42.50571" lon="2.12045">
        <ele>1554</ele>
        <time>2024-09-15T14:15:34Z</time>
      </trkpt>
      <trkpt lat="42.50569" lon="2.1204">
        <ele>1554</ele>
        <time>2024-09-15T14:15:37Z</time>
      </trkpt>
      <trkpt lat="42.50568" lon="2.12036">
        <ele>1554</ele>
        <time>2024-09-15T14:15:40Z</time>
      </trkpt>
      <trkpt lat="42.50567" lon="2.12031">
        <ele>1552</ele>
        <time>2024-09-15T14:15:43Z</time>
      </trkpt>
      <trkpt lat="42.50565" lon="2.12027">
        <ele>1552</ele>
        <time>2024-09-15T14:15:45Z</time>
      </trkpt>
      <trkpt lat="42.50564" lon="2.12022">
        <ele>1550</ele>
        <time>2024-09-15T14:15:48Z</time>
      </trkpt>
      <trkpt lat="42.50564" lon="2.12017">
        <ele>1549</ele>
        <time>2024-09-15T14:15:51Z</time>
      </trkpt>
      <trkpt lat="42.50564" lon="2.12012">
        <ele>1547</ele>
        <time>2024-09-15T14:15:54Z</time>
      </trkpt>
      <trkpt lat="42.50562" lon="2.12009">
        <ele>1547</ele>
        <time>2024-09-15T14:15:56Z</time>
      </trkpt>
      <trkpt lat="42.5056" lon="2.12006">
        <ele>1548</ele>
        <time>2024-09-15T14:15:58Z</time>
      </trkpt>
      <trkpt lat="42.50559" lon="2.12002">
        <ele>1547</ele>
        <time>2024-09-15T14:16:01Z</time>
      </trkpt>
      <trkpt lat="42.50558" lon="2.11999">
        <ele>1546</ele>
        <time>2024-09-15T14:16:03Z</time>
      </trkpt>
      <trkpt lat="42.50557" lon="2.11995">
        <ele>1546</ele>
        <time>2024-09-15T14:16:05Z</time>
      </trkpt>
      <trkpt lat="42.50555" lon="2.11992">
        <ele>1546</ele>
        <time>2024-09-15T14:16:09Z</time>
      </trkpt>
      <trkpt lat="42.50554" lon="2.11989">
        <ele>1545</ele>
        <time>2024-09-15T14:16:11Z</time>
      </trkpt>
      <trkpt lat="42.50553" lon="2.11985">
        <ele>1545</ele>
        <time>2024-09-15T14:16:14Z</time>
      </trkpt>
      <trkpt lat="42.50552" lon="2.1198">
        <ele>1543</ele>
        <time>2024-09-15T14:16:17Z</time>
      </trkpt>
      <trkpt lat="42.5055" lon="2.11977">
        <ele>1542</ele>
        <time>2024-09-15T14:16:19Z</time>
      </trkpt>
      <trkpt lat="42.50549" lon="2.11972">
        <ele>1542</ele>
        <time>2024-09-15T14:16:22Z</time>
      </trkpt>
      <trkpt lat="42.50548" lon="2.11968">
        <ele>1544</ele>
        <time>2024-09-15T14:16:25Z</time>
      </trkpt>
      <trkpt lat="42.50547" lon="2.11964">
        <ele>1542</ele>
        <time>2024-09-15T14:16:29Z</time>
      </trkpt>
      <trkpt lat="42.50546" lon="2.1196">
        <ele>1541</ele>
        <time>2024-09-15T14:16:32Z</time>
      </trkpt>
      <trkpt lat="42.50545" lon="2.11956">
        <ele>1540</ele>
        <time>2024-09-15T14:16:34Z</time>
      </trkpt>
      <trkpt lat="42.50544" lon="2.11952">
        <ele>1540</ele>
        <time>2024-09-15T14:16:36Z</time>
      </trkpt>
      <trkpt lat="42.50542" lon="2.11949">
        <ele>1540</ele>
        <time>2024-09-15T14:16:39Z</time>
      </trkpt>
      <trkpt lat="42.50541" lon="2.11945">
        <ele>1539</ele>
        <time>2024-09-15T14:16:42Z</time>
      </trkpt>
      <trkpt lat="42.50541" lon="2.11941">
        <ele>1541</ele>
        <time>2024-09-15T14:16:44Z</time>
      </trkpt>
      <trkpt lat="42.5054" lon="2.11937">
        <ele>1540</ele>
        <time>2024-09-15T14:16:47Z</time>
      </trkpt>
      <trkpt lat="42.50538" lon="2.11933">
        <ele>1540</ele>
        <time>2024-09-15T14:16:50Z</time>
      </trkpt>
      <trkpt lat="42.50535" lon="2.1193">
        <ele>1539</ele>
        <time>2024-09-15T14:16:53Z</time>
      </trkpt>
      <trkpt lat="42.50532" lon="2.11929">
        <ele>1539</ele>
        <time>2024-09-15T14:16:56Z</time>
      </trkpt>
      <trkpt lat="42.50529" lon="2.11928">
        <ele>1537</ele>
        <time>2024-09-15T14:16:59Z</time>
      </trkpt>
      <trkpt lat="42.50525" lon="2.11929">
        <ele>1537</ele>
        <time>2024-09-15T14:17:02Z</time>
      </trkpt>
      <trkpt lat="42.50521" lon="2.1193">
        <ele>1537</ele>
        <time>2024-09-15T14:17:05Z</time>
      </trkpt>
      <trkpt lat="42.50518" lon="2.1193">
        <ele>1536</ele>
        <time>2024-09-15T14:17:08Z</time>
      </trkpt>
      <trkpt lat="42.50514" lon="2.11931">
        <ele>1535</ele>
        <time>2024-09-15T14:17:11Z</time>
      </trkpt>
      <trkpt lat="42.50511" lon="2.11932">
        <ele>1535</ele>
        <time>2024-09-15T14:17:15Z</time>
      </trkpt>
      <trkpt lat="42.50507" lon="2.11932">
        <ele>1535</ele>
        <time>2024-09-15T14:17:17Z</time>
      </trkpt>
      <trkpt lat="42.50504" lon="2.11933">
        <ele>1535</ele>
        <time>2024-09-15T14:17:19Z</time>
      </trkpt>
      <trkpt lat="42.505" lon="2.11933">
        <ele>1536</ele>
        <time>2024-09-15T14:17:22Z</time>
      </trkpt>
      <trkpt lat="42.50497" lon="2.11934">
        <ele>1535</ele>
        <time>2024-09-15T14:17:25Z</time>
      </trkpt>
      <trkpt lat="42.50493" lon="2.11935">
        <ele>1535</ele>
        <time>2024-09-15T14:17:28Z</time>
      </trkpt>
      <trkpt lat="42.5049" lon="2.11937">
        <ele>1534</ele>
        <time>2024-09-15T14:17:31Z</time>
      </trkpt>
      <trkpt lat="42.50488" lon="2.11938">
        <ele>1533</ele>
        <time>2024-09-15T14:17:33Z</time>
      </trkpt>
      <trkpt lat="42.50484" lon="2.11939">
        <ele>1533</ele>
        <time>2024-09-15T14:17:36Z</time>
      </trkpt>
      <trkpt lat="42.50482" lon="2.11941">
        <ele>1533</ele>
        <time>2024-09-15T14:17:38Z</time>
      </trkpt>
      <trkpt lat="42.50478" lon="2.11943">
        <ele>1533</ele>
        <time>2024-09-15T14:17:41Z</time>
      </trkpt>
      <trkpt lat="42.50475" lon="2.11942">
        <ele>1533</ele>
        <time>2024-09-15T14:17:43Z</time>
      </trkpt>
      <trkpt lat="42.50471" lon="2.11943">
        <ele>1533</ele>
        <time>2024-09-15T14:17:46Z</time>
      </trkpt>
      <trkpt lat="42.50468" lon="2.11944">
        <ele>1534</ele>
        <time>2024-09-15T14:17:48Z</time>
      </trkpt>
      <trkpt lat="42.50465" lon="2.11945">
        <ele>1533</ele>
        <time>2024-09-15T14:17:50Z</time>
      </trkpt>
      <trkpt lat="42.50462" lon="2.11946">
        <ele>1533</ele>
        <time>2024-09-15T14:17:52Z</time>
      </trkpt>
      <trkpt lat="42.50459" lon="2.11947">
        <ele>1533</ele>
        <time>2024-09-15T14:17:54Z</time>
      </trkpt>
      <trkpt lat="42.50457" lon="2.11948">
        <ele>1533</ele>
        <time>2024-09-15T14:17:56Z</time>
      </trkpt>
      <trkpt lat="42.50454" lon="2.1195">
        <ele>1532</ele>
        <time>2024-09-15T14:17:58Z</time>
      </trkpt>
      <trkpt lat="42.50451" lon="2.11951">
        <ele>1532</ele>
        <time>2024-09-15T14:18:00Z</time>
      </trkpt>
      <trkpt lat="42.50449" lon="2.11952">
        <ele>1531</ele>
        <time>2024-09-15T14:18:02Z</time>
      </trkpt>
      <trkpt lat="42.50446" lon="2.11953">
        <ele>1532</ele>
        <time>2024-09-15T14:18:04Z</time>
      </trkpt>
      <trkpt lat="42.50444" lon="2.11956">
        <ele>1532</ele>
        <time>2024-09-15T14:18:06Z</time>
      </trkpt>
      <trkpt lat="42.50442" lon="2.11958">
        <ele>1532</ele>
        <time>2024-09-15T14:18:08Z</time>
      </trkpt>
      <trkpt lat="42.50439" lon="2.11959">
        <ele>1531</ele>
        <time>2024-09-15T14:18:10Z</time>
      </trkpt>
      <trkpt lat="42.50436" lon="2.1196">
        <ele>1530</ele>
        <time>2024-09-15T14:18:12Z</time>
      </trkpt>
      <trkpt lat="42.50433" lon="2.11959">
        <ele>1530</ele>
        <time>2024-09-15T14:18:15Z</time>
      </trkpt>
      <trkpt lat="42.5043" lon="2.11957">
        <ele>1529</ele>
        <time>2024-09-15T14:18:17Z</time>
      </trkpt>
      <trkpt lat="42.50428" lon="2.11954">
        <ele>1528</ele>
        <time>2024-09-15T14:18:19Z</time>
      </trkpt>
      <trkpt lat="42.50426" lon="2.1195">
        <ele>1529</ele>
        <time>2024-09-15T14:18:21Z</time>
      </trkpt>
      <trkpt lat="42.50425" lon="2.11947">
        <ele>1528</ele>
        <time>2024-09-15T14:18:23Z</time>
      </trkpt>
      <trkpt lat="42.50423" lon="2.11943">
        <ele>1530</ele>
        <time>2024-09-15T14:18:25Z</time>
      </trkpt>
      <trkpt lat="42.50421" lon="2.11939">
        <ele>1530</ele>
        <time>2024-09-15T14:18:28Z</time>
      </trkpt>
      <trkpt lat="42.50418" lon="2.11936">
        <ele>1529</ele>
        <time>2024-09-15T14:18:31Z</time>
      </trkpt>
      <trkpt lat="42.50415" lon="2.11932">
        <ele>1528</ele>
        <time>2024-09-15T14:18:35Z</time>
      </trkpt>
      <trkpt lat="42.50413" lon="2.11929">
        <ele>1527</ele>
        <time>2024-09-15T14:18:38Z</time>
      </trkpt>
      <trkpt lat="42.5041" lon="2.11926">
        <ele>1527</ele>
        <time>2024-09-15T14:18:41Z</time>
      </trkpt>
      <trkpt lat="42.50406" lon="2.11923">
        <ele>1526</ele>
        <time>2024-09-15T14:18:44Z</time>
      </trkpt>
      <trkpt lat="42.50403" lon="2.1192">
        <ele>1523</ele>
        <time>2024-09-15T14:18:47Z</time>
      </trkpt>
      <trkpt lat="42.504" lon="2.11918">
        <ele>1523</ele>
        <time>2024-09-15T14:18:49Z</time>
      </trkpt>
      <trkpt lat="42.50397" lon="2.11916">
        <ele>1524</ele>
        <time>2024-09-15T14:18:52Z</time>
      </trkpt>
      <trkpt lat="42.50394" lon="2.11913">
        <ele>1523</ele>
        <time>2024-09-15T14:18:54Z</time>
      </trkpt>
      <trkpt lat="42.50392" lon="2.11911">
        <ele>1524</ele>
        <time>2024-09-15T14:18:56Z</time>
      </trkpt>
      <trkpt lat="42.50389" lon="2.11909">
        <ele>1524</ele>
        <time>2024-09-15T14:18:58Z</time>
      </trkpt>
      <trkpt lat="42.50386" lon="2.1191">
        <ele>1524</ele>
        <time>2024-09-15T14:19:00Z</time>
      </trkpt>
      <trkpt lat="42.50384" lon="2.11911">
        <ele>1524</ele>
        <time>2024-09-15T14:19:02Z</time>
      </trkpt>
      <trkpt lat="42.5038" lon="2.11912">
        <ele>1524</ele>
        <time>2024-09-15T14:19:05Z</time>
      </trkpt>
      <trkpt lat="42.50378" lon="2.11916">
        <ele>1524</ele>
        <time>2024-09-15T14:19:07Z</time>
      </trkpt>
      <trkpt lat="42.50376" lon="2.11919">
        <ele>1524</ele>
        <time>2024-09-15T14:19:09Z</time>
      </trkpt>
      <trkpt lat="42.50374" lon="2.11923">
        <ele>1523</ele>
        <time>2024-09-15T14:19:11Z</time>
      </trkpt>
      <trkpt lat="42.50373" lon="2.11927">
        <ele>1524</ele>
        <time>2024-09-15T14:19:13Z</time>
      </trkpt>
      <trkpt lat="42.50371" lon="2.1193">
        <ele>1523</ele>
        <time>2024-09-15T14:19:15Z</time>
      </trkpt>
      <trkpt lat="42.50368" lon="2.11934">
        <ele>1523</ele>
        <time>2024-09-15T14:19:18Z</time>
      </trkpt>
      <trkpt lat="42.50366" lon="2.11938">
        <ele>1521</ele>
        <time>2024-09-15T14:19:21Z</time>
      </trkpt>
      <trkpt lat="42.50364" lon="2.11942">
        <ele>1519</ele>
        <time>2024-09-15T14:19:23Z</time>
      </trkpt>
      <trkpt lat="42.50362" lon="2.11945">
        <ele>1520</ele>
        <time>2024-09-15T14:19:25Z</time>
      </trkpt>
      <trkpt lat="42.5036" lon="2.11948">
        <ele>1520</ele>
        <time>2024-09-15T14:19:28Z</time>
      </trkpt>
      <trkpt lat="42.50357" lon="2.11953">
        <ele>1521</ele>
        <time>2024-09-15T14:19:31Z</time>
      </trkpt>
      <trkpt lat="42.50354" lon="2.11955">
        <ele>1520</ele>
        <time>2024-09-15T14:19:34Z</time>
      </trkpt>
      <trkpt lat="42.50353" lon="2.11959">
        <ele>1521</ele>
        <time>2024-09-15T14:19:36Z</time>
      </trkpt>
      <trkpt lat="42.50352" lon="2.11964">
        <ele>1520</ele>
        <time>2024-09-15T14:19:38Z</time>
      </trkpt>
      <trkpt lat="42.50351" lon="2.11968">
        <ele>1520</ele>
        <time>2024-09-15T14:19:40Z</time>
      </trkpt>
      <trkpt lat="42.5035" lon="2.11972">
        <ele>1520</ele>
        <time>2024-09-15T14:19:43Z</time>
      </trkpt>
      <trkpt lat="42.50348" lon="2.11974">
        <ele>1518</ele>
        <time>2024-09-15T14:19:45Z</time>
      </trkpt>
      <trkpt lat="42.50345" lon="2.11976">
        <ele>1518</ele>
        <time>2024-09-15T14:19:48Z</time>
      </trkpt>
      <trkpt lat="42.50342" lon="2.11976">
        <ele>1517</ele>
        <time>2024-09-15T14:19:50Z</time>
      </trkpt>
      <trkpt lat="42.50339" lon="2.11974">
        <ele>1515</ele>
        <time>2024-09-15T14:19:53Z</time>
      </trkpt>
      <trkpt lat="42.50336" lon="2.11972">
        <ele>1515</ele>
        <time>2024-09-15T14:19:56Z</time>
      </trkpt>
      <trkpt lat="42.50333" lon="2.11973">
        <ele>1514</ele>
        <time>2024-09-15T14:20:00Z</time>
      </trkpt>
      <trkpt lat="42.50331" lon="2.11976">
        <ele>1512</ele>
        <time>2024-09-15T14:20:03Z</time>
      </trkpt>
      <trkpt lat="42.5033" lon="2.11979">
        <ele>1511</ele>
        <time>2024-09-15T14:20:06Z</time>
      </trkpt>
      <trkpt lat="42.50328" lon="2.11982">
        <ele>1511</ele>
        <time>2024-09-15T14:20:09Z</time>
      </trkpt>
      <trkpt lat="42.50326" lon="2.11987">
        <ele>1510</ele>
        <time>2024-09-15T14:20:13Z</time>
      </trkpt>
      <trkpt lat="42.50324" lon="2.1199">
        <ele>1509</ele>
        <time>2024-09-15T14:20:16Z</time>
      </trkpt>
      <trkpt lat="42.50322" lon="2.11994">
        <ele>1508</ele>
        <time>2024-09-15T14:20:19Z</time>
      </trkpt>
      <trkpt lat="42.5032" lon="2.11998">
        <ele>1507</ele>
        <time>2024-09-15T14:20:22Z</time>
      </trkpt>
      <trkpt lat="42.50318" lon="2.12002">
        <ele>1506</ele>
        <time>2024-09-15T14:20:25Z</time>
      </trkpt>
      <trkpt lat="42.50316" lon="2.12006">
        <ele>1506</ele>
        <time>2024-09-15T14:20:28Z</time>
      </trkpt>
      <trkpt lat="42.50314" lon="2.12009">
        <ele>1505</ele>
        <time>2024-09-15T14:20:31Z</time>
      </trkpt>
      <trkpt lat="42.50313" lon="2.12012">
        <ele>1505</ele>
        <time>2024-09-15T14:20:34Z</time>
      </trkpt>
      <trkpt lat="42.50311" lon="2.12016">
        <ele>1504</ele>
        <time>2024-09-15T14:20:37Z</time>
      </trkpt>
      <trkpt lat="42.50309" lon="2.12019">
        <ele>1503</ele>
        <time>2024-09-15T14:20:41Z</time>
      </trkpt>
      <trkpt lat="42.50306" lon="2.12022">
        <ele>1503</ele>
        <time>2024-09-15T14:20:44Z</time>
      </trkpt>
      <trkpt lat="42.50304" lon="2.12027">
        <ele>1503</ele>
        <time>2024-09-15T14:20:47Z</time>
      </trkpt>
      <trkpt lat="42.50302" lon="2.12029">
        <ele>1503</ele>
        <time>2024-09-15T14:20:50Z</time>
      </trkpt>
      <trkpt lat="42.50299" lon="2.12031">
        <ele>1502</ele>
        <time>2024-09-15T14:20:53Z</time>
      </trkpt>
      <trkpt lat="42.50295" lon="2.12031">
        <ele>1502</ele>
        <time>2024-09-15T14:20:56Z</time>
      </trkpt>
      <trkpt lat="42.50292" lon="2.1203">
        <ele>1500</ele>
        <time>2024-09-15T14:21:01Z</time>
      </trkpt>
      <trkpt lat="42.50289" lon="2.1203">
        <ele>1499</ele>
        <time>2024-09-15T14:21:04Z</time>
      </trkpt>
      <trkpt lat="42.50286" lon="2.1203">
        <ele>1497</ele>
        <time>2024-09-15T14:21:09Z</time>
      </trkpt>
      <trkpt lat="42.50283" lon="2.12029">
        <ele>1497</ele>
        <time>2024-09-15T14:21:12Z</time>
      </trkpt>
      <trkpt lat="42.5028" lon="2.12028">
        <ele>1497</ele>
        <time>2024-09-15T14:21:14Z</time>
      </trkpt>
      <trkpt lat="42.50277" lon="2.12028">
        <ele>1497</ele>
        <time>2024-09-15T14:21:16Z</time>
      </trkpt>
      <trkpt lat="42.50274" lon="2.12028">
        <ele>1496</ele>
        <time>2024-09-15T14:21:19Z</time>
      </trkpt>
      <trkpt lat="42.50271" lon="2.12028">
        <ele>1496</ele>
        <time>2024-09-15T14:21:22Z</time>
      </trkpt>
      <trkpt lat="42.50267" lon="2.12028">
        <ele>1496</ele>
        <time>2024-09-15T14:21:25Z</time>
      </trkpt>
      <trkpt lat="42.50264" lon="2.12028">
        <ele>1494</ele>
        <time>2024-09-15T14:21:28Z</time>
      </trkpt>
      <trkpt lat="42.50261" lon="2.12027">
        <ele>1494</ele>
        <time>2024-09-15T14:21:29Z</time>
      </trkpt>
      <trkpt lat="42.50258" lon="2.12027">
        <ele>1492</ele>
        <time>2024-09-15T14:21:32Z</time>
      </trkpt>
      <trkpt lat="42.50254" lon="2.12027">
        <ele>1493</ele>
        <time>2024-09-15T14:21:35Z</time>
      </trkpt>
      <trkpt lat="42.5025" lon="2.12026">
        <ele>1491</ele>
        <time>2024-09-15T14:21:38Z</time>
      </trkpt>
      <trkpt lat="42.50247" lon="2.12026">
        <ele>1491</ele>
        <time>2024-09-15T14:21:40Z</time>
      </trkpt>
      <trkpt lat="42.50244" lon="2.12025">
        <ele>1491</ele>
        <time>2024-09-15T14:21:43Z</time>
      </trkpt>
      <trkpt lat="42.5024" lon="2.12025">
        <ele>1490</ele>
        <time>2024-09-15T14:21:46Z</time>
      </trkpt>
      <trkpt lat="42.50237" lon="2.12026">
        <ele>1490</ele>
        <time>2024-09-15T14:21:49Z</time>
      </trkpt>
      <trkpt lat="42.50233" lon="2.12027">
        <ele>1489</ele>
        <time>2024-09-15T14:21:52Z</time>
      </trkpt>
      <trkpt lat="42.5023" lon="2.12029">
        <ele>1489</ele>
        <time>2024-09-15T14:21:55Z</time>
      </trkpt>
      <trkpt lat="42.50227" lon="2.12031">
        <ele>1489</ele>
        <time>2024-09-15T14:21:58Z</time>
      </trkpt>
      <trkpt lat="42.50224" lon="2.12034">
        <ele>1489</ele>
        <time>2024-09-15T14:22:01Z</time>
      </trkpt>
      <trkpt lat="42.50221" lon="2.12037">
        <ele>1489</ele>
        <time>2024-09-15T14:22:05Z</time>
      </trkpt>
      <trkpt lat="42.50219" lon="2.12039">
        <ele>1487</ele>
        <time>2024-09-15T14:22:08Z</time>
      </trkpt>
      <trkpt lat="42.50217" lon="2.12043">
        <ele>1487</ele>
        <time>2024-09-15T14:22:10Z</time>
      </trkpt>
      <trkpt lat="42.50214" lon="2.12045">
        <ele>1486</ele>
        <time>2024-09-15T14:22:13Z</time>
      </trkpt>
      <trkpt lat="42.50213" lon="2.12048">
        <ele>1485</ele>
        <time>2024-09-15T14:22:15Z</time>
      </trkpt>
      <trkpt lat="42.50211" lon="2.12051">
        <ele>1484</ele>
        <time>2024-09-15T14:22:17Z</time>
      </trkpt>
      <trkpt lat="42.50209" lon="2.12054">
        <ele>1484</ele>
        <time>2024-09-15T14:22:20Z</time>
      </trkpt>
      <trkpt lat="42.50207" lon="2.12055">
        <ele>1483</ele>
        <time>2024-09-15T14:22:22Z</time>
      </trkpt>
      <trkpt lat="42.50205" lon="2.12058">
        <ele>1483</ele>
        <time>2024-09-15T14:22:24Z</time>
      </trkpt>
      <trkpt lat="42.50202" lon="2.12059">
        <ele>1483</ele>
        <time>2024-09-15T14:22:27Z</time>
      </trkpt>
      <trkpt lat="42.50199" lon="2.12059">
        <ele>1482</ele>
        <time>2024-09-15T14:22:30Z</time>
      </trkpt>
      <trkpt lat="42.50198" lon="2.12055">
        <ele>1481</ele>
        <time>2024-09-15T14:22:36Z</time>
      </trkpt>
      <trkpt lat="42.50197" lon="2.12051">
        <ele>1480</ele>
        <time>2024-09-15T14:22:39Z</time>
      </trkpt>
      <trkpt lat="42.50197" lon="2.12047">
        <ele>1480</ele>
        <time>2024-09-15T14:22:42Z</time>
      </trkpt>
      <trkpt lat="42.50197" lon="2.12042">
        <ele>1481</ele>
        <time>2024-09-15T14:22:45Z</time>
      </trkpt>
      <trkpt lat="42.50196" lon="2.12037">
        <ele>1480</ele>
        <time>2024-09-15T14:22:49Z</time>
      </trkpt>
      <trkpt lat="42.50196" lon="2.12033">
        <ele>1479</ele>
        <time>2024-09-15T14:22:52Z</time>
      </trkpt>
      <trkpt lat="42.50196" lon="2.12028">
        <ele>1479</ele>
        <time>2024-09-15T14:22:55Z</time>
      </trkpt>
      <trkpt lat="42.50196" lon="2.12024">
        <ele>1479</ele>
        <time>2024-09-15T14:22:58Z</time>
      </trkpt>
      <trkpt lat="42.50195" lon="2.1202">
        <ele>1480</ele>
        <time>2024-09-15T14:23:00Z</time>
      </trkpt>
      <trkpt lat="42.50194" lon="2.12015">
        <ele>1478</ele>
        <time>2024-09-15T14:23:03Z</time>
      </trkpt>
      <trkpt lat="42.50193" lon="2.12011">
        <ele>1478</ele>
        <time>2024-09-15T14:23:06Z</time>
      </trkpt>
      <trkpt lat="42.50192" lon="2.12007">
        <ele>1478</ele>
        <time>2024-09-15T14:23:09Z</time>
      </trkpt>
      <trkpt lat="42.50191" lon="2.12003">
        <ele>1478</ele>
        <time>2024-09-15T14:23:11Z</time>
      </trkpt>
      <trkpt lat="42.5019" lon="2.11998">
        <ele>1478</ele>
        <time>2024-09-15T14:23:14Z</time>
      </trkpt>
      <trkpt lat="42.50188" lon="2.11994">
        <ele>1478</ele>
        <time>2024-09-15T14:23:17Z</time>
      </trkpt>
      <trkpt lat="42.50186" lon="2.1199">
        <ele>1479</ele>
        <time>2024-09-15T14:23:19Z</time>
      </trkpt>
      <trkpt lat="42.50184" lon="2.11987">
        <ele>1480</ele>
        <time>2024-09-15T14:23:21Z</time>
      </trkpt>
      <trkpt lat="42.50183" lon="2.11984">
        <ele>1479</ele>
        <time>2024-09-15T14:23:23Z</time>
      </trkpt>
      <trkpt lat="42.50181" lon="2.1198">
        <ele>1479</ele>
        <time>2024-09-15T14:23:26Z</time>
      </trkpt>
      <trkpt lat="42.50179" lon="2.11976">
        <ele>1479</ele>
        <time>2024-09-15T14:23:29Z</time>
      </trkpt>
      <trkpt lat="42.50177" lon="2.11972">
        <ele>1479</ele>
        <time>2024-09-15T14:23:31Z</time>
      </trkpt>
      <trkpt lat="42.50175" lon="2.11968">
        <ele>1478</ele>
        <time>2024-09-15T14:23:34Z</time>
      </trkpt>
      <trkpt lat="42.50173" lon="2.11965">
        <ele>1478</ele>
        <time>2024-09-15T14:23:35Z</time>
      </trkpt>
      <trkpt lat="42.50171" lon="2.11961">
        <ele>1477</ele>
        <time>2024-09-15T14:23:38Z</time>
      </trkpt>
      <trkpt lat="42.50169" lon="2.11957">
        <ele>1477</ele>
        <time>2024-09-15T14:23:40Z</time>
      </trkpt>
      <trkpt lat="42.50167" lon="2.11953">
        <ele>1477</ele>
        <time>2024-09-15T14:23:43Z</time>
      </trkpt>
      <trkpt lat="42.50165" lon="2.1195">
        <ele>1477</ele>
        <time>2024-09-15T14:23:45Z</time>
      </trkpt>
      <trkpt lat="42.50163" lon="2.11947">
        <ele>1477</ele>
        <time>2024-09-15T14:23:47Z</time>
      </trkpt>
      <trkpt lat="42.50161" lon="2.11943">
        <ele>1476</ele>
        <time>2024-09-15T14:23:50Z</time>
      </trkpt>
      <trkpt lat="42.5016" lon="2.11938">
        <ele>1475</ele>
        <time>2024-09-15T14:23:53Z</time>
      </trkpt>
      <trkpt lat="42.5016" lon="2.11933">
        <ele>1475</ele>
        <time>2024-09-15T14:23:56Z</time>
      </trkpt>
      <trkpt lat="42.50159" lon="2.11929">
        <ele>1474</ele>
        <time>2024-09-15T14:23:58Z</time>
      </trkpt>
      <trkpt lat="42.50158" lon="2.11925">
        <ele>1473</ele>
        <time>2024-09-15T14:24:01Z</time>
      </trkpt>
      <trkpt lat="42.50158" lon="2.1192">
        <ele>1474</ele>
        <time>2024-09-15T14:24:03Z</time>
      </trkpt>
      <trkpt lat="42.50158" lon="2.11916">
        <ele>1474</ele>
        <time>2024-09-15T14:24:06Z</time>
      </trkpt>
      <trkpt lat="42.50158" lon="2.11911">
        <ele>1473</ele>
        <time>2024-09-15T14:24:08Z</time>
      </trkpt>
      <trkpt lat="42.50157" lon="2.11907">
        <ele>1473</ele>
        <time>2024-09-15T14:24:11Z</time>
      </trkpt>
      <trkpt lat="42.50157" lon="2.11902">
        <ele>1473</ele>
        <time>2024-09-15T14:24:14Z</time>
      </trkpt>
      <trkpt lat="42.50156" lon="2.11897">
        <ele>1473</ele>
        <time>2024-09-15T14:24:17Z</time>
      </trkpt>
      <trkpt lat="42.50155" lon="2.11894">
        <ele>1473</ele>
        <time>2024-09-15T14:24:20Z</time>
      </trkpt>
      <trkpt lat="42.50152" lon="2.11893">
        <ele>1472</ele>
        <time>2024-09-15T14:24:23Z</time>
      </trkpt>
      <trkpt lat="42.50149" lon="2.11893">
        <ele>1472</ele>
        <time>2024-09-15T14:24:25Z</time>
      </trkpt>
      <trkpt lat="42.50146" lon="2.11894">
        <ele>1472</ele>
        <time>2024-09-15T14:24:27Z</time>
      </trkpt>
      <trkpt lat="42.50143" lon="2.11896">
        <ele>1472</ele>
        <time>2024-09-15T14:24:30Z</time>
      </trkpt>
      <trkpt lat="42.50139" lon="2.11898">
        <ele>1472</ele>
        <time>2024-09-15T14:24:33Z</time>
      </trkpt>
      <trkpt lat="42.50136" lon="2.119">
        <ele>1472</ele>
        <time>2024-09-15T14:24:35Z</time>
      </trkpt>
      <trkpt lat="42.50133" lon="2.11901">
        <ele>1473</ele>
        <time>2024-09-15T14:24:37Z</time>
      </trkpt>
      <trkpt lat="42.5013" lon="2.11902">
        <ele>1473</ele>
        <time>2024-09-15T14:24:39Z</time>
      </trkpt>
      <trkpt lat="42.50127" lon="2.11903">
        <ele>1473</ele>
        <time>2024-09-15T14:24:42Z</time>
      </trkpt>
      <trkpt lat="42.50123" lon="2.11904">
        <ele>1473</ele>
        <time>2024-09-15T14:24:45Z</time>
      </trkpt>
      <trkpt lat="42.50119" lon="2.11906">
        <ele>1473</ele>
        <time>2024-09-15T14:24:48Z</time>
      </trkpt>
      <trkpt lat="42.50117" lon="2.11909">
        <ele>1472</ele>
        <time>2024-09-15T14:24:50Z</time>
      </trkpt>
      <trkpt lat="42.50117" lon="2.11912">
        <ele>1471</ele>
        <time>2024-09-15T14:24:56Z</time>
      </trkpt>
      <trkpt lat="42.50115" lon="2.11914">
        <ele>1472</ele>
        <time>2024-09-15T14:25:00Z</time>
      </trkpt>
      <trkpt lat="42.50112" lon="2.11914">
        <ele>1472</ele>
        <time>2024-09-15T14:25:02Z</time>
      </trkpt>
      <trkpt lat="42.50109" lon="2.11915">
        <ele>1471</ele>
        <time>2024-09-15T14:25:05Z</time>
      </trkpt>
      <trkpt lat="42.50106" lon="2.11915">
        <ele>1472</ele>
        <time>2024-09-15T14:25:08Z</time>
      </trkpt>
      <trkpt lat="42.50103" lon="2.11916">
        <ele>1472</ele>
        <time>2024-09-15T14:25:11Z</time>
      </trkpt>
      <trkpt lat="42.50101" lon="2.11918">
        <ele>1472</ele>
        <time>2024-09-15T14:25:17Z</time>
      </trkpt>
      <trkpt lat="42.50098" lon="2.11919">
        <ele>1473</ele>
        <time>2024-09-15T14:25:21Z</time>
      </trkpt>
      <trkpt lat="42.50095" lon="2.11922">
        <ele>1474</ele>
        <time>2024-09-15T14:25:26Z</time>
      </trkpt>
      <trkpt lat="42.50094" lon="2.11925">
        <ele>1474</ele>
        <time>2024-09-15T14:25:28Z</time>
      </trkpt>
      <trkpt lat="42.50092" lon="2.11929">
        <ele>1474</ele>
        <time>2024-09-15T14:25:33Z</time>
      </trkpt>
      <trkpt lat="42.50091" lon="2.11933">
        <ele>1475</ele>
        <time>2024-09-15T14:25:39Z</time>
      </trkpt>
      <trkpt lat="42.50089" lon="2.11938">
        <ele>1476</ele>
        <time>2024-09-15T14:25:41Z</time>
      </trkpt>
      <trkpt lat="42.50087" lon="2.11941">
        <ele>1477</ele>
        <time>2024-09-15T14:25:46Z</time>
      </trkpt>
      <trkpt lat="42.50086" lon="2.11945">
        <ele>1477</ele>
        <time>2024-09-15T14:25:49Z</time>
      </trkpt>
      <trkpt lat="42.50084" lon="2.11948">
        <ele>1478</ele>
        <time>2024-09-15T14:25:52Z</time>
      </trkpt>
      <trkpt lat="42.50082" lon="2.1195">
        <ele>1479</ele>
        <time>2024-09-15T14:25:54Z</time>
      </trkpt>
      <trkpt lat="42.50079" lon="2.11952">
        <ele>1479</ele>
        <time>2024-09-15T14:25:58Z</time>
      </trkpt>
      <trkpt lat="42.50076" lon="2.11955">
        <ele>1480</ele>
        <time>2024-09-15T14:26:02Z</time>
      </trkpt>
      <trkpt lat="42.50074" lon="2.11957">
        <ele>1481</ele>
        <time>2024-09-15T14:26:06Z</time>
      </trkpt>
      <trkpt lat="42.50073" lon="2.11961">
        <ele>1480</ele>
        <time>2024-09-15T14:26:10Z</time>
      </trkpt>
      <trkpt lat="42.5007" lon="2.11964">
        <ele>1480</ele>
        <time>2024-09-15T14:26:12Z</time>
      </trkpt>
      <trkpt lat="42.50069" lon="2.11968">
        <ele>1481</ele>
        <time>2024-09-15T14:26:15Z</time>
      </trkpt>
      <trkpt lat="42.50067" lon="2.11971">
        <ele>1481</ele>
        <time>2024-09-15T14:26:18Z</time>
      </trkpt>
      <trkpt lat="42.50065" lon="2.11974">
        <ele>1481</ele>
        <time>2024-09-15T14:26:21Z</time>
      </trkpt>
      <trkpt lat="42.50064" lon="2.11977">
        <ele>1481</ele>
        <time>2024-09-15T14:26:23Z</time>
      </trkpt>
      <trkpt lat="42.50063" lon="2.1198">
        <ele>1482</ele>
        <time>2024-09-15T14:26:26Z</time>
      </trkpt>
      <trkpt lat="42.50061" lon="2.11983">
        <ele>1482</ele>
        <time>2024-09-15T14:26:28Z</time>
      </trkpt>
      <trkpt lat="42.5006" lon="2.11986">
        <ele>1482</ele>
        <time>2024-09-15T14:26:32Z</time>
      </trkpt>
      <trkpt lat="42.50058" lon="2.1199">
        <ele>1481</ele>
        <time>2024-09-15T14:26:35Z</time>
      </trkpt>
      <trkpt lat="42.50057" lon="2.11994">
        <ele>1482</ele>
        <time>2024-09-15T14:26:38Z</time>
      </trkpt>
      <trkpt lat="42.50055" lon="2.11998">
        <ele>1482</ele>
        <time>2024-09-15T14:26:43Z</time>
      </trkpt>
      <trkpt lat="42.50055" lon="2.12003">
        <ele>1483</ele>
        <time>2024-09-15T14:26:48Z</time>
      </trkpt>
      <trkpt lat="42.50053" lon="2.12006">
        <ele>1483</ele>
        <time>2024-09-15T14:26:50Z</time>
      </trkpt>
      <trkpt lat="42.50052" lon="2.1201">
        <ele>1485</ele>
        <time>2024-09-15T14:26:54Z</time>
      </trkpt>
      <trkpt lat="42.50051" lon="2.12014">
        <ele>1485</ele>
        <time>2024-09-15T14:26:59Z</time>
      </trkpt>
      <trkpt lat="42.50049" lon="2.12017">
        <ele>1486</ele>
        <time>2024-09-15T14:27:02Z</time>
      </trkpt>
      <trkpt lat="42.50048" lon="2.12021">
        <ele>1486</ele>
        <time>2024-09-15T14:27:04Z</time>
      </trkpt>
      <trkpt lat="42.50045" lon="2.12024">
        <ele>1487</ele>
        <time>2024-09-15T14:27:07Z</time>
      </trkpt>
      <trkpt lat="42.50044" lon="2.12029">
        <ele>1487</ele>
        <time>2024-09-15T14:27:09Z</time>
      </trkpt>
      <trkpt lat="42.50042" lon="2.12034">
        <ele>1488</ele>
        <time>2024-09-15T14:27:15Z</time>
      </trkpt>
      <trkpt lat="42.50042" lon="2.12039">
        <ele>1488</ele>
        <time>2024-09-15T14:27:20Z</time>
      </trkpt>
      <trkpt lat="42.50042" lon="2.12043">
        <ele>1489</ele>
        <time>2024-09-15T14:27:23Z</time>
      </trkpt>
      <trkpt lat="42.50041" lon="2.12048">
        <ele>1491</ele>
        <time>2024-09-15T14:27:28Z</time>
      </trkpt>
      <trkpt lat="42.5004" lon="2.12052">
        <ele>1492</ele>
        <time>2024-09-15T14:27:31Z</time>
      </trkpt>
      <trkpt lat="42.5004" lon="2.12056">
        <ele>1491</ele>
        <time>2024-09-15T14:27:34Z</time>
      </trkpt>
      <trkpt lat="42.5004" lon="2.12061">
        <ele>1491</ele>
        <time>2024-09-15T14:27:38Z</time>
      </trkpt>
      <trkpt lat="42.5004" lon="2.12065">
        <ele>1492</ele>
        <time>2024-09-15T14:27:41Z</time>
      </trkpt>
      <trkpt lat="42.50041" lon="2.12069">
        <ele>1492</ele>
        <time>2024-09-15T14:27:42Z</time>
      </trkpt>
      <trkpt lat="42.50041" lon="2.12073">
        <ele>1493</ele>
        <time>2024-09-15T14:27:46Z</time>
      </trkpt>
      <trkpt lat="42.5004" lon="2.12077">
        <ele>1493</ele>
        <time>2024-09-15T14:27:49Z</time>
      </trkpt>
      <trkpt lat="42.5004" lon="2.12082">
        <ele>1493</ele>
        <time>2024-09-15T14:27:52Z</time>
      </trkpt>
      <trkpt lat="42.50039" lon="2.12086">
        <ele>1493</ele>
        <time>2024-09-15T14:27:56Z</time>
      </trkpt>
      <trkpt lat="42.50037" lon="2.1209">
        <ele>1493</ele>
        <time>2024-09-15T14:28:00Z</time>
      </trkpt>
      <trkpt lat="42.50036" lon="2.12094">
        <ele>1494</ele>
        <time>2024-09-15T14:28:04Z</time>
      </trkpt>
      <trkpt lat="42.50035" lon="2.12098">
        <ele>1495</ele>
        <time>2024-09-15T14:28:07Z</time>
      </trkpt>
      <trkpt lat="42.50033" lon="2.12102">
        <ele>1494</ele>
        <time>2024-09-15T14:28:11Z</time>
      </trkpt>
      <trkpt lat="42.50031" lon="2.12105">
        <ele>1494</ele>
        <time>2024-09-15T14:28:14Z</time>
      </trkpt>
      <trkpt lat="42.50029" lon="2.12108">
        <ele>1493</ele>
        <time>2024-09-15T14:28:17Z</time>
      </trkpt>
      <trkpt lat="42.50027" lon="2.12111">
        <ele>1495</ele>
        <time>2024-09-15T14:28:21Z</time>
      </trkpt>
      <trkpt lat="42.50025" lon="2.12114">
        <ele>1496</ele>
        <time>2024-09-15T14:28:26Z</time>
      </trkpt>
      <trkpt lat="42.50022" lon="2.12116">
        <ele>1497</ele>
        <time>2024-09-15T14:28:30Z</time>
      </trkpt>
      <trkpt lat="42.50021" lon="2.1212">
        <ele>1498</ele>
        <time>2024-09-15T14:28:34Z</time>
      </trkpt>
      <trkpt lat="42.50019" lon="2.12123">
        <ele>1498</ele>
        <time>2024-09-15T14:28:36Z</time>
      </trkpt>
      <trkpt lat="42.50017" lon="2.12126">
        <ele>1500</ele>
        <time>2024-09-15T14:28:40Z</time>
      </trkpt>
      <trkpt lat="42.50014" lon="2.12129">
        <ele>1501</ele>
        <time>2024-09-15T14:28:44Z</time>
      </trkpt>
      <trkpt lat="42.50012" lon="2.12132">
        <ele>1501</ele>
        <time>2024-09-15T14:28:48Z</time>
      </trkpt>
      <trkpt lat="42.50009" lon="2.12136">
        <ele>1502</ele>
        <time>2024-09-15T14:28:52Z</time>
      </trkpt>
      <trkpt lat="42.50007" lon="2.12139">
        <ele>1501</ele>
        <time>2024-09-15T14:28:56Z</time>
      </trkpt>
      <trkpt lat="42.50003" lon="2.12142">
        <ele>1502</ele>
        <time>2024-09-15T14:28:58Z</time>
      </trkpt>
      <trkpt lat="42.50003" lon="2.12146">
        <ele>1502</ele>
        <time>2024-09-15T14:29:02Z</time>
      </trkpt>
      <trkpt lat="42.50003" lon="2.1215">
        <ele>1502</ele>
        <time>2024-09-15T14:29:05Z</time>
      </trkpt>
      <trkpt lat="42.50004" lon="2.12154">
        <ele>1502</ele>
        <time>2024-09-15T14:29:07Z</time>
      </trkpt>
      <trkpt lat="42.50006" lon="2.12158">
        <ele>1502</ele>
        <time>2024-09-15T14:29:09Z</time>
      </trkpt>
      <trkpt lat="42.50008" lon="2.12162">
        <ele>1502</ele>
        <time>2024-09-15T14:29:11Z</time>
      </trkpt>
      <trkpt lat="42.5001" lon="2.12165">
        <ele>1503</ele>
        <time>2024-09-15T14:29:13Z</time>
      </trkpt>
      <trkpt lat="42.50011" lon="2.12168">
        <ele>1504</ele>
        <time>2024-09-15T14:29:16Z</time>
      </trkpt>
      <trkpt lat="42.50013" lon="2.12171">
        <ele>1503</ele>
        <time>2024-09-15T14:29:18Z</time>
      </trkpt>
      <trkpt lat="42.50014" lon="2.12175">
        <ele>1504</ele>
        <time>2024-09-15T14:29:22Z</time>
      </trkpt>
      <trkpt lat="42.50018" lon="2.12178">
        <ele>1505</ele>
        <time>2024-09-15T14:29:27Z</time>
      </trkpt>
      <trkpt lat="42.5002" lon="2.12182">
        <ele>1505</ele>
        <time>2024-09-15T14:29:31Z</time>
      </trkpt>
      <trkpt lat="42.50022" lon="2.12185">
        <ele>1506</ele>
        <time>2024-09-15T14:29:35Z</time>
      </trkpt>
      <trkpt lat="42.50024" lon="2.12188">
        <ele>1507</ele>
        <time>2024-09-15T14:29:39Z</time>
      </trkpt>
      <trkpt lat="42.50027" lon="2.12193">
        <ele>1507</ele>
        <time>2024-09-15T14:29:43Z</time>
      </trkpt>
      <trkpt lat="42.50029" lon="2.12197">
        <ele>1508</ele>
        <time>2024-09-15T14:29:48Z</time>
      </trkpt>
      <trkpt lat="42.50031" lon="2.122">
        <ele>1507</ele>
        <time>2024-09-15T14:29:50Z</time>
      </trkpt>
      <trkpt lat="42.50034" lon="2.12204">
        <ele>1506</ele>
        <time>2024-09-15T14:29:53Z</time>
      </trkpt>
      <trkpt lat="42.50036" lon="2.12207">
        <ele>1507</ele>
        <time>2024-09-15T14:29:56Z</time>
      </trkpt>
      <trkpt lat="42.50038" lon="2.1221">
        <ele>1506</ele>
        <time>2024-09-15T14:29:59Z</time>
      </trkpt>
      <trkpt lat="42.5004" lon="2.12214">
        <ele>1506</ele>
        <time>2024-09-15T14:30:02Z</time>
      </trkpt>
      <trkpt lat="42.50042" lon="2.12217">
        <ele>1506</ele>
        <time>2024-09-15T14:30:05Z</time>
      </trkpt>
      <trkpt lat="42.50044" lon="2.12221">
        <ele>1506</ele>
        <time>2024-09-15T14:30:08Z</time>
      </trkpt>
      <trkpt lat="42.50046" lon="2.12224">
        <ele>1506</ele>
        <time>2024-09-15T14:30:11Z</time>
      </trkpt>
      <trkpt lat="42.50046" lon="2.12227">
        <ele>1507</ele>
        <time>2024-09-15T14:30:13Z</time>
      </trkpt>
      <trkpt lat="42.50048" lon="2.1223">
        <ele>1507</ele>
        <time>2024-09-15T14:30:16Z</time>
      </trkpt>
      <trkpt lat="42.5005" lon="2.12233">
        <ele>1506</ele>
        <time>2024-09-15T14:30:19Z</time>
      </trkpt>
      <trkpt lat="42.50052" lon="2.12237">
        <ele>1507</ele>
        <time>2024-09-15T14:30:23Z</time>
      </trkpt>
      <trkpt lat="42.50054" lon="2.12241">
        <ele>1507</ele>
        <time>2024-09-15T14:30:26Z</time>
      </trkpt>
      <trkpt lat="42.50055" lon="2.12244">
        <ele>1507</ele>
        <time>2024-09-15T14:30:29Z</time>
      </trkpt>
      <trkpt lat="42.50055" lon="2.12249">
        <ele>1507</ele>
        <time>2024-09-15T14:30:33Z</time>
      </trkpt>
      <trkpt lat="42.50054" lon="2.12253">
        <ele>1507</ele>
        <time>2024-09-15T14:30:36Z</time>
      </trkpt>
      <trkpt lat="42.50053" lon="2.12256">
        <ele>1508</ele>
        <time>2024-09-15T14:30:38Z</time>
      </trkpt>
      <trkpt lat="42.50052" lon="2.1226">
        <ele>1509</ele>
        <time>2024-09-15T14:30:42Z</time>
      </trkpt>
      <trkpt lat="42.5005" lon="2.12263">
        <ele>1509</ele>
        <time>2024-09-15T14:30:45Z</time>
      </trkpt>
      <trkpt lat="42.50048" lon="2.12267">
        <ele>1510</ele>
        <time>2024-09-15T14:30:48Z</time>
      </trkpt>
      <trkpt lat="42.50046" lon="2.1227">
        <ele>1511</ele>
        <time>2024-09-15T14:30:52Z</time>
      </trkpt>
      <trkpt lat="42.50044" lon="2.12274">
        <ele>1511</ele>
        <time>2024-09-15T14:30:57Z</time>
      </trkpt>
      <trkpt lat="42.50042" lon="2.12278">
        <ele>1512</ele>
        <time>2024-09-15T14:31:01Z</time>
      </trkpt>
      <trkpt lat="42.5004" lon="2.12281">
        <ele>1512</ele>
        <time>2024-09-15T14:31:04Z</time>
      </trkpt>
      <trkpt lat="42.5004" lon="2.12286">
        <ele>1513</ele>
        <time>2024-09-15T14:31:08Z</time>
      </trkpt>
      <trkpt lat="42.5004" lon="2.1229">
        <ele>1512</ele>
        <time>2024-09-15T14:31:11Z</time>
      </trkpt>
      <trkpt lat="42.50041" lon="2.12294">
        <ele>1512</ele>
        <time>2024-09-15T14:31:14Z</time>
      </trkpt>
      <trkpt lat="42.5004" lon="2.12297">
        <ele>1514</ele>
        <time>2024-09-15T14:31:19Z</time>
      </trkpt>
      <trkpt lat="42.50038" lon="2.12301">
        <ele>1515</ele>
        <time>2024-09-15T14:31:22Z</time>
      </trkpt>
      <trkpt lat="42.50037" lon="2.12304">
        <ele>1516</ele>
        <time>2024-09-15T14:31:25Z</time>
      </trkpt>
      <trkpt lat="42.50035" lon="2.12308">
        <ele>1516</ele>
        <time>2024-09-15T14:31:28Z</time>
      </trkpt>
      <trkpt lat="42.50034" lon="2.12312">
        <ele>1517</ele>
        <time>2024-09-15T14:31:31Z</time>
      </trkpt>
      <trkpt lat="42.50033" lon="2.12316">
        <ele>1517</ele>
        <time>2024-09-15T14:31:34Z</time>
      </trkpt>
      <trkpt lat="42.50032" lon="2.1232">
        <ele>1517</ele>
        <time>2024-09-15T14:31:37Z</time>
      </trkpt>
      <trkpt lat="42.50031" lon="2.12324">
        <ele>1517</ele>
        <time>2024-09-15T14:31:40Z</time>
      </trkpt>
      <trkpt lat="42.5003" lon="2.12328">
        <ele>1517</ele>
        <time>2024-09-15T14:31:43Z</time>
      </trkpt>
      <trkpt lat="42.5003" lon="2.12332">
        <ele>1517</ele>
        <time>2024-09-15T14:31:46Z</time>
      </trkpt>
      <trkpt lat="42.50028" lon="2.12336">
        <ele>1518</ele>
        <time>2024-09-15T14:31:49Z</time>
      </trkpt>
      <trkpt lat="42.50027" lon="2.12339">
        <ele>1518</ele>
        <time>2024-09-15T14:31:51Z</time>
      </trkpt>
      <trkpt lat="42.50026" lon="2.12343">
        <ele>1518</ele>
        <time>2024-09-15T14:31:54Z</time>
      </trkpt>
      <trkpt lat="42.50025" lon="2.12347">
        <ele>1518</ele>
        <time>2024-09-15T14:31:57Z</time>
      </trkpt>
      <trkpt lat="42.50023" lon="2.12351">
        <ele>1519</ele>
        <time>2024-09-15T14:32:00Z</time>
      </trkpt>
      <trkpt lat="42.50023" lon="2.12356">
        <ele>1520</ele>
        <time>2024-09-15T14:32:03Z</time>
      </trkpt>
      <trkpt lat="42.50022" lon="2.1236">
        <ele>1520</ele>
        <time>2024-09-15T14:32:06Z</time>
      </trkpt>
      <trkpt lat="42.50021" lon="2.12364">
        <ele>1520</ele>
        <time>2024-09-15T14:32:09Z</time>
      </trkpt>
      <trkpt lat="42.50019" lon="2.12368">
        <ele>1520</ele>
        <time>2024-09-15T14:32:12Z</time>
      </trkpt>
      <trkpt lat="42.50018" lon="2.12371">
        <ele>1520</ele>
        <time>2024-09-15T14:32:14Z</time>
      </trkpt>
      <trkpt lat="42.50017" lon="2.12375">
        <ele>1520</ele>
        <time>2024-09-15T14:32:16Z</time>
      </trkpt>
      <trkpt lat="42.50015" lon="2.12378">
        <ele>1520</ele>
        <time>2024-09-15T14:32:19Z</time>
      </trkpt>
      <trkpt lat="42.50014" lon="2.12382">
        <ele>1521</ele>
        <time>2024-09-15T14:32:22Z</time>
      </trkpt>
      <trkpt lat="42.50012" lon="2.12385">
        <ele>1521</ele>
        <time>2024-09-15T14:32:25Z</time>
      </trkpt>
      <trkpt lat="42.50011" lon="2.12389">
        <ele>1521</ele>
        <time>2024-09-15T14:32:27Z</time>
      </trkpt>
      <trkpt lat="42.5001" lon="2.12392">
        <ele>1521</ele>
        <time>2024-09-15T14:32:30Z</time>
      </trkpt>
      <trkpt lat="42.50008" lon="2.12395">
        <ele>1521</ele>
        <time>2024-09-15T14:32:33Z</time>
      </trkpt>
      <trkpt lat="42.50007" lon="2.12399">
        <ele>1521</ele>
        <time>2024-09-15T14:32:35Z</time>
      </trkpt>
      <trkpt lat="42.50005" lon="2.12402">
        <ele>1521</ele>
        <time>2024-09-15T14:32:38Z</time>
      </trkpt>
      <trkpt lat="42.50004" lon="2.12406">
        <ele>1522</ele>
        <time>2024-09-15T14:32:41Z</time>
      </trkpt>
      <trkpt lat="42.50002" lon="2.1241">
        <ele>1522</ele>
        <time>2024-09-15T14:32:44Z</time>
      </trkpt>
      <trkpt lat="42.5" lon="2.12414">
        <ele>1522</ele>
        <time>2024-09-15T14:32:47Z</time>
      </trkpt>
      <trkpt lat="42.49998" lon="2.12418">
        <ele>1522</ele>
        <time>2024-09-15T14:32:50Z</time>
      </trkpt>
      <trkpt lat="42.49996" lon="2.12421">
        <ele>1522</ele>
        <time>2024-09-15T14:32:53Z</time>
      </trkpt>
      <trkpt lat="42.49995" lon="2.12424">
        <ele>1522</ele>
        <time>2024-09-15T14:32:55Z</time>
      </trkpt>
      <trkpt lat="42.49994" lon="2.12428">
        <ele>1522</ele>
        <time>2024-09-15T14:32:58Z</time>
      </trkpt>
      <trkpt lat="42.49992" lon="2.12431">
        <ele>1522</ele>
        <time>2024-09-15T14:33:00Z</time>
      </trkpt>
      <trkpt lat="42.4999" lon="2.12435">
        <ele>1522</ele>
        <time>2024-09-15T14:33:03Z</time>
      </trkpt>
      <trkpt lat="42.49989" lon="2.12439">
        <ele>1522</ele>
        <time>2024-09-15T14:33:06Z</time>
      </trkpt>
      <trkpt lat="42.49988" lon="2.12443">
        <ele>1522</ele>
        <time>2024-09-15T14:33:09Z</time>
      </trkpt>
      <trkpt lat="42.49986" lon="2.12446">
        <ele>1523</ele>
        <time>2024-09-15T14:33:11Z</time>
      </trkpt>
      <trkpt lat="42.49984" lon="2.12449">
        <ele>1523</ele>
        <time>2024-09-15T14:33:14Z</time>
      </trkpt>
      <trkpt lat="42.49982" lon="2.12453">
        <ele>1523</ele>
        <time>2024-09-15T14:33:18Z</time>
      </trkpt>
      <trkpt lat="42.4998" lon="2.12456">
        <ele>1522</ele>
        <time>2024-09-15T14:33:21Z</time>
      </trkpt>
      <trkpt lat="42.49978" lon="2.12459">
        <ele>1523</ele>
        <time>2024-09-15T14:33:23Z</time>
      </trkpt>
      <trkpt lat="42.49975" lon="2.12462">
        <ele>1523</ele>
        <time>2024-09-15T14:33:26Z</time>
      </trkpt>
      <trkpt lat="42.49973" lon="2.12465">
        <ele>1522</ele>
        <time>2024-09-15T14:33:29Z</time>
      </trkpt>
      <trkpt lat="42.49971" lon="2.12468">
        <ele>1523</ele>
        <time>2024-09-15T14:33:31Z</time>
      </trkpt>
      <trkpt lat="42.49968" lon="2.12471">
        <ele>1524</ele>
        <time>2024-09-15T14:33:33Z</time>
      </trkpt>
      <trkpt lat="42.49966" lon="2.12474">
        <ele>1522</ele>
        <time>2024-09-15T14:33:35Z</time>
      </trkpt>
      <trkpt lat="42.49964" lon="2.12477">
        <ele>1523</ele>
        <time>2024-09-15T14:33:38Z</time>
      </trkpt>
      <trkpt lat="42.49961" lon="2.1248">
        <ele>1521</ele>
        <time>2024-09-15T14:33:41Z</time>
      </trkpt>
      <trkpt lat="42.49959" lon="2.12484">
        <ele>1522</ele>
        <time>2024-09-15T14:33:44Z</time>
      </trkpt>
      <trkpt lat="42.49956" lon="2.12488">
        <ele>1523</ele>
        <time>2024-09-15T14:33:47Z</time>
      </trkpt>
      <trkpt lat="42.49953" lon="2.12491">
        <ele>1523</ele>
        <time>2024-09-15T14:33:50Z</time>
      </trkpt>
      <trkpt lat="42.49951" lon="2.12495">
        <ele>1523</ele>
        <time>2024-09-15T14:33:53Z</time>
      </trkpt>
      <trkpt lat="42.49948" lon="2.12499">
        <ele>1523</ele>
        <time>2024-09-15T14:33:56Z</time>
      </trkpt>
      <trkpt lat="42.49945" lon="2.12503">
        <ele>1523</ele>
        <time>2024-09-15T14:33:58Z</time>
      </trkpt>
      <trkpt lat="42.49942" lon="2.12506">
        <ele>1524</ele>
        <time>2024-09-15T14:34:01Z</time>
      </trkpt>
      <trkpt lat="42.4994" lon="2.12509">
        <ele>1524</ele>
        <time>2024-09-15T14:34:04Z</time>
      </trkpt>
      <trkpt lat="42.49937" lon="2.12513">
        <ele>1524</ele>
        <time>2024-09-15T14:34:07Z</time>
      </trkpt>
      <trkpt lat="42.49935" lon="2.12516">
        <ele>1524</ele>
        <time>2024-09-15T14:34:10Z</time>
      </trkpt>
      <trkpt lat="42.49932" lon="2.1252">
        <ele>1524</ele>
        <time>2024-09-15T14:34:13Z</time>
      </trkpt>
      <trkpt lat="42.4993" lon="2.12523">
        <ele>1524</ele>
        <time>2024-09-15T14:34:16Z</time>
      </trkpt>
      <trkpt lat="42.49927" lon="2.12526">
        <ele>1524</ele>
        <time>2024-09-15T14:34:18Z</time>
      </trkpt>
      <trkpt lat="42.49925" lon="2.1253">
        <ele>1524</ele>
        <time>2024-09-15T14:34:22Z</time>
      </trkpt>
      <trkpt lat="42.49922" lon="2.12533">
        <ele>1524</ele>
        <time>2024-09-15T14:34:25Z</time>
      </trkpt>
      <trkpt lat="42.4992" lon="2.12536">
        <ele>1524</ele>
        <time>2024-09-15T14:34:28Z</time>
      </trkpt>
      <trkpt lat="42.49917" lon="2.1254">
        <ele>1524</ele>
        <time>2024-09-15T14:34:31Z</time>
      </trkpt>
      <trkpt lat="42.49914" lon="2.12544">
        <ele>1525</ele>
        <time>2024-09-15T14:34:34Z</time>
      </trkpt>
      <trkpt lat="42.49912" lon="2.12547">
        <ele>1525</ele>
        <time>2024-09-15T14:34:37Z</time>
      </trkpt>
      <trkpt lat="42.49909" lon="2.1255">
        <ele>1525</ele>
        <time>2024-09-15T14:34:39Z</time>
      </trkpt>
      <trkpt lat="42.49907" lon="2.12553">
        <ele>1525</ele>
        <time>2024-09-15T14:34:42Z</time>
      </trkpt>
      <trkpt lat="42.49904" lon="2.12556">
        <ele>1525</ele>
        <time>2024-09-15T14:34:45Z</time>
      </trkpt>
      <trkpt lat="42.49902" lon="2.1256">
        <ele>1526</ele>
        <time>2024-09-15T14:34:48Z</time>
      </trkpt>
      <trkpt lat="42.499" lon="2.12564">
        <ele>1525</ele>
        <time>2024-09-15T14:34:51Z</time>
      </trkpt>
      <trkpt lat="42.49897" lon="2.12567">
        <ele>1525</ele>
        <time>2024-09-15T14:34:54Z</time>
      </trkpt>
      <trkpt lat="42.49895" lon="2.12571">
        <ele>1525</ele>
        <time>2024-09-15T14:34:57Z</time>
      </trkpt>
      <trkpt lat="42.49893" lon="2.12574">
        <ele>1526</ele>
        <time>2024-09-15T14:35:00Z</time>
      </trkpt>
      <trkpt lat="42.4989" lon="2.12577">
        <ele>1526</ele>
        <time>2024-09-15T14:35:04Z</time>
      </trkpt>
      <trkpt lat="42.49887" lon="2.12582">
        <ele>1526</ele>
        <time>2024-09-15T14:35:07Z</time>
      </trkpt>
      <trkpt lat="42.49885" lon="2.12586">
        <ele>1527</ele>
        <time>2024-09-15T14:35:10Z</time>
      </trkpt>
      <trkpt lat="42.49881" lon="2.12589">
        <ele>1526</ele>
        <time>2024-09-15T14:35:13Z</time>
      </trkpt>
      <trkpt lat="42.49878" lon="2.12592">
        <ele>1526</ele>
        <time>2024-09-15T14:35:16Z</time>
      </trkpt>
      <trkpt lat="42.49875" lon="2.12594">
        <ele>1526</ele>
        <time>2024-09-15T14:35:18Z</time>
      </trkpt>
      <trkpt lat="42.49872" lon="2.12597">
        <ele>1527</ele>
        <time>2024-09-15T14:35:21Z</time>
      </trkpt>
      <trkpt lat="42.49869" lon="2.12599">
        <ele>1527</ele>
        <time>2024-09-15T14:35:25Z</time>
      </trkpt>
      <trkpt lat="42.49866" lon="2.12601">
        <ele>1527</ele>
        <time>2024-09-15T14:35:28Z</time>
      </trkpt>
      <trkpt lat="42.49863" lon="2.12604">
        <ele>1527</ele>
        <time>2024-09-15T14:35:31Z</time>
      </trkpt>
      <trkpt lat="42.4986" lon="2.12606">
        <ele>1527</ele>
        <time>2024-09-15T14:35:33Z</time>
      </trkpt>
      <trkpt lat="42.49857" lon="2.12608">
        <ele>1526</ele>
        <time>2024-09-15T14:35:36Z</time>
      </trkpt>
      <trkpt lat="42.49854" lon="2.1261">
        <ele>1526</ele>
        <time>2024-09-15T14:35:39Z</time>
      </trkpt>
      <trkpt lat="42.49851" lon="2.12612">
        <ele>1526</ele>
        <time>2024-09-15T14:35:41Z</time>
      </trkpt>
      <trkpt lat="42.49848" lon="2.12614">
        <ele>1526</ele>
        <time>2024-09-15T14:35:44Z</time>
      </trkpt>
      <trkpt lat="42.49845" lon="2.12615">
        <ele>1526</ele>
        <time>2024-09-15T14:35:47Z</time>
      </trkpt>
      <trkpt lat="42.49842" lon="2.12618">
        <ele>1527</ele>
        <time>2024-09-15T14:35:50Z</time>
      </trkpt>
      <trkpt lat="42.49838" lon="2.1262">
        <ele>1527</ele>
        <time>2024-09-15T14:35:53Z</time>
      </trkpt>
      <trkpt lat="42.49834" lon="2.12622">
        <ele>1526</ele>
        <time>2024-09-15T14:35:56Z</time>
      </trkpt>
      <trkpt lat="42.49831" lon="2.12624">
        <ele>1526</ele>
        <time>2024-09-15T14:35:58Z</time>
      </trkpt>
      <trkpt lat="42.49828" lon="2.12626">
        <ele>1525</ele>
        <time>2024-09-15T14:36:00Z</time>
      </trkpt>
      <trkpt lat="42.49825" lon="2.12628">
        <ele>1525</ele>
        <time>2024-09-15T14:36:02Z</time>
      </trkpt>
      <trkpt lat="42.49823" lon="2.12629">
        <ele>1525</ele>
        <time>2024-09-15T14:36:04Z</time>
      </trkpt>
      <trkpt lat="42.49819" lon="2.12631">
        <ele>1525</ele>
        <time>2024-09-15T14:36:07Z</time>
      </trkpt>
      <trkpt lat="42.49816" lon="2.12633">
        <ele>1526</ele>
        <time>2024-09-15T14:36:09Z</time>
      </trkpt>
      <trkpt lat="42.49813" lon="2.12634">
        <ele>1525</ele>
        <time>2024-09-15T14:36:12Z</time>
      </trkpt>
      <trkpt lat="42.4981" lon="2.12636">
        <ele>1525</ele>
        <time>2024-09-15T14:36:14Z</time>
      </trkpt>
      <trkpt lat="42.49807" lon="2.12637">
        <ele>1525</ele>
        <time>2024-09-15T14:36:17Z</time>
      </trkpt>
      <trkpt lat="42.49804" lon="2.12639">
        <ele>1525</ele>
        <time>2024-09-15T14:36:19Z</time>
      </trkpt>
      <trkpt lat="42.49801" lon="2.1264">
        <ele>1525</ele>
        <time>2024-09-15T14:36:22Z</time>
      </trkpt>
      <trkpt lat="42.49797" lon="2.12641">
        <ele>1524</ele>
        <time>2024-09-15T14:36:25Z</time>
      </trkpt>
      <trkpt lat="42.49794" lon="2.12641">
        <ele>1525</ele>
        <time>2024-09-15T14:36:28Z</time>
      </trkpt>
      <trkpt lat="42.49791" lon="2.12642">
        <ele>1524</ele>
        <time>2024-09-15T14:36:31Z</time>
      </trkpt>
      <trkpt lat="42.49788" lon="2.12644">
        <ele>1524</ele>
        <time>2024-09-15T14:36:34Z</time>
      </trkpt>
      <trkpt lat="42.49784" lon="2.12646">
        <ele>1525</ele>
        <time>2024-09-15T14:36:37Z</time>
      </trkpt>
      <trkpt lat="42.49781" lon="2.12648">
        <ele>1524</ele>
        <time>2024-09-15T14:36:40Z</time>
      </trkpt>
      <trkpt lat="42.49778" lon="2.1265">
        <ele>1522</ele>
        <time>2024-09-15T14:36:45Z</time>
      </trkpt>
      <trkpt lat="42.49776" lon="2.12652">
        <ele>1521</ele>
        <time>2024-09-15T14:36:48Z</time>
      </trkpt>
      <trkpt lat="42.49773" lon="2.12654">
        <ele>1520</ele>
        <time>2024-09-15T14:36:52Z</time>
      </trkpt>
      <trkpt lat="42.49771" lon="2.12657">
        <ele>1519</ele>
        <time>2024-09-15T14:36:56Z</time>
      </trkpt>
      <trkpt lat="42.49768" lon="2.1266">
        <ele>1518</ele>
        <time>2024-09-15T14:36:59Z</time>
      </trkpt>
      <trkpt lat="42.49765" lon="2.12662">
        <ele>1517</ele>
        <time>2024-09-15T14:37:02Z</time>
      </trkpt>
      <trkpt lat="42.49763" lon="2.12664">
        <ele>1517</ele>
        <time>2024-09-15T14:37:05Z</time>
      </trkpt>
      <trkpt lat="42.4976" lon="2.12666">
        <ele>1516</ele>
        <time>2024-09-15T14:37:08Z</time>
      </trkpt>
      <trkpt lat="42.49758" lon="2.12669">
        <ele>1515</ele>
        <time>2024-09-15T14:37:11Z</time>
      </trkpt>
      <trkpt lat="42.49755" lon="2.12672">
        <ele>1514</ele>
        <time>2024-09-15T14:37:15Z</time>
      </trkpt>
      <trkpt lat="42.49753" lon="2.12675">
        <ele>1514</ele>
        <time>2024-09-15T14:37:18Z</time>
      </trkpt>
      <trkpt lat="42.4975" lon="2.12677">
        <ele>1514</ele>
        <time>2024-09-15T14:37:21Z</time>
      </trkpt>
      <trkpt lat="42.49748" lon="2.1268">
        <ele>1513</ele>
        <time>2024-09-15T14:37:24Z</time>
      </trkpt>
      <trkpt lat="42.49745" lon="2.12682">
        <ele>1512</ele>
        <time>2024-09-15T14:37:27Z</time>
      </trkpt>
      <trkpt lat="42.49742" lon="2.12684">
        <ele>1512</ele>
        <time>2024-09-15T14:37:31Z</time>
      </trkpt>
      <trkpt lat="42.49739" lon="2.12686">
        <ele>1512</ele>
        <time>2024-09-15T14:37:34Z</time>
      </trkpt>
      <trkpt lat="42.49736" lon="2.12689">
        <ele>1511</ele>
        <time>2024-09-15T14:37:38Z</time>
      </trkpt>
      <trkpt lat="42.49732" lon="2.12691">
        <ele>1510</ele>
        <time>2024-09-15T14:37:41Z</time>
      </trkpt>
      <trkpt lat="42.49729" lon="2.12692">
        <ele>1510</ele>
        <time>2024-09-15T14:37:44Z</time>
      </trkpt>
      <trkpt lat="42.49726" lon="2.12694">
        <ele>1508</ele>
        <time>2024-09-15T14:38:06Z</time>
      </trkpt>
      <trkpt lat="42.49724" lon="2.12697">
        <ele>1508</ele>
        <time>2024-09-15T14:38:27Z</time>
      </trkpt>
      <trkpt lat="42.49722" lon="2.12699">
        <ele>1507</ele>
        <time>2024-09-15T14:38:31Z</time>
      </trkpt>
      <trkpt lat="42.49718" lon="2.127">
        <ele>1506</ele>
        <time>2024-09-15T14:38:35Z</time>
      </trkpt>
      <trkpt lat="42.49715" lon="2.12701">
        <ele>1506</ele>
        <time>2024-09-15T14:38:39Z</time>
      </trkpt>
      <trkpt lat="42.49712" lon="2.12702">
        <ele>1505</ele>
        <time>2024-09-15T14:38:42Z</time>
      </trkpt>
      <trkpt lat="42.49709" lon="2.12703">
        <ele>1505</ele>
        <time>2024-09-15T14:38:45Z</time>
      </trkpt>
      <trkpt lat="42.49706" lon="2.12704">
        <ele>1504</ele>
        <time>2024-09-15T14:38:48Z</time>
      </trkpt>
      <trkpt lat="42.49703" lon="2.12705">
        <ele>1505</ele>
        <time>2024-09-15T14:38:51Z</time>
      </trkpt>
      <trkpt lat="42.497" lon="2.12706">
        <ele>1504</ele>
        <time>2024-09-15T14:38:54Z</time>
      </trkpt>
      <trkpt lat="42.49697" lon="2.12706">
        <ele>1503</ele>
        <time>2024-09-15T14:38:57Z</time>
      </trkpt>
      <trkpt lat="42.49694" lon="2.12708">
        <ele>1502</ele>
        <time>2024-09-15T14:38:59Z</time>
      </trkpt>
      <trkpt lat="42.49691" lon="2.12709">
        <ele>1502</ele>
        <time>2024-09-15T14:39:02Z</time>
      </trkpt>
      <trkpt lat="42.49687" lon="2.1271">
        <ele>1501</ele>
        <time>2024-09-15T14:39:05Z</time>
      </trkpt>
      <trkpt lat="42.49684" lon="2.12711">
        <ele>1501</ele>
        <time>2024-09-15T14:39:08Z</time>
      </trkpt>
      <trkpt lat="42.49681" lon="2.12713">
        <ele>1500</ele>
        <time>2024-09-15T14:39:11Z</time>
      </trkpt>
      <trkpt lat="42.49678" lon="2.12714">
        <ele>1500</ele>
        <time>2024-09-15T14:39:14Z</time>
      </trkpt>
      <trkpt lat="42.49675" lon="2.12716">
        <ele>1499</ele>
        <time>2024-09-15T14:39:17Z</time>
      </trkpt>
      <trkpt lat="42.49673" lon="2.12718">
        <ele>1498</ele>
        <time>2024-09-15T14:39:20Z</time>
      </trkpt>
      <trkpt lat="42.4967" lon="2.12719">
        <ele>1498</ele>
        <time>2024-09-15T14:39:24Z</time>
      </trkpt>
      <trkpt lat="42.49667" lon="2.12721">
        <ele>1497</ele>
        <time>2024-09-15T14:39:27Z</time>
      </trkpt>
      <trkpt lat="42.49664" lon="2.12722">
        <ele>1496</ele>
        <time>2024-09-15T14:39:30Z</time>
      </trkpt>
      <trkpt lat="42.49661" lon="2.12723">
        <ele>1498</ele>
        <time>2024-09-15T14:39:35Z</time>
      </trkpt>
      <trkpt lat="42.49657" lon="2.12724">
        <ele>1496</ele>
        <time>2024-09-15T14:39:42Z</time>
      </trkpt>
      <trkpt lat="42.49654" lon="2.12726">
        <ele>1496</ele>
        <time>2024-09-15T14:39:46Z</time>
      </trkpt>
      <trkpt lat="42.49652" lon="2.12727">
        <ele>1496</ele>
        <time>2024-09-15T14:39:51Z</time>
      </trkpt>
      <trkpt lat="42.49649" lon="2.12729">
        <ele>1495</ele>
        <time>2024-09-15T14:39:54Z</time>
      </trkpt>
      <trkpt lat="42.49646" lon="2.1273">
        <ele>1494</ele>
        <time>2024-09-15T14:39:58Z</time>
      </trkpt>
      <trkpt lat="42.49643" lon="2.12731">
        <ele>1493</ele>
        <time>2024-09-15T14:40:02Z</time>
      </trkpt>
      <trkpt lat="42.4964" lon="2.12733">
        <ele>1492</ele>
        <time>2024-09-15T14:40:06Z</time>
      </trkpt>
      <trkpt lat="42.49637" lon="2.12735">
        <ele>1492</ele>
        <time>2024-09-15T14:40:11Z</time>
      </trkpt>
      <trkpt lat="42.49634" lon="2.12737">
        <ele>1491</ele>
        <time>2024-09-15T14:40:17Z</time>
      </trkpt>
      <trkpt lat="42.49631" lon="2.12738">
        <ele>1491</ele>
        <time>2024-09-15T14:40:22Z</time>
      </trkpt>
      <trkpt lat="42.49628" lon="2.12739">
        <ele>1491</ele>
        <time>2024-09-15T14:40:27Z</time>
      </trkpt>
      <trkpt lat="42.49625" lon="2.1274">
        <ele>1491</ele>
        <time>2024-09-15T14:40:30Z</time>
      </trkpt>
      <trkpt lat="42.49622" lon="2.12742">
        <ele>1490</ele>
        <time>2024-09-15T14:40:33Z</time>
      </trkpt>
      <trkpt lat="42.4962" lon="2.12743">
        <ele>1490</ele>
        <time>2024-09-15T14:40:36Z</time>
      </trkpt>
      <trkpt lat="42.49616" lon="2.12745">
        <ele>1489</ele>
        <time>2024-09-15T14:40:39Z</time>
      </trkpt>
      <trkpt lat="42.49613" lon="2.12746">
        <ele>1489</ele>
        <time>2024-09-15T14:40:43Z</time>
      </trkpt>
      <trkpt lat="42.4961" lon="2.12748">
        <ele>1489</ele>
        <time>2024-09-15T14:40:47Z</time>
      </trkpt>
      <trkpt lat="42.49608" lon="2.1275">
        <ele>1489</ele>
        <time>2024-09-15T14:40:51Z</time>
      </trkpt>
      <trkpt lat="42.49604" lon="2.12752">
        <ele>1489</ele>
        <time>2024-09-15T14:40:55Z</time>
      </trkpt>
      <trkpt lat="42.49601" lon="2.12754">
        <ele>1489</ele>
        <time>2024-09-15T14:40:58Z</time>
      </trkpt>
      <trkpt lat="42.49598" lon="2.12756">
        <ele>1488</ele>
        <time>2024-09-15T14:41:01Z</time>
      </trkpt>
      <trkpt lat="42.49595" lon="2.12758">
        <ele>1487</ele>
        <time>2024-09-15T14:41:04Z</time>
      </trkpt>
      <trkpt lat="42.49592" lon="2.1276">
        <ele>1486</ele>
        <time>2024-09-15T14:41:06Z</time>
      </trkpt>
      <trkpt lat="42.49589" lon="2.12762">
        <ele>1485</ele>
        <time>2024-09-15T14:41:08Z</time>
      </trkpt>
      <trkpt lat="42.49586" lon="2.12764">
        <ele>1486</ele>
        <time>2024-09-15T14:41:10Z</time>
      </trkpt>
      <trkpt lat="42.49583" lon="2.12765">
        <ele>1486</ele>
        <time>2024-09-15T14:41:13Z</time>
      </trkpt>
      <trkpt lat="42.49579" lon="2.12766">
        <ele>1485</ele>
        <time>2024-09-15T14:41:16Z</time>
      </trkpt>
      <trkpt lat="42.49576" lon="2.12767">
        <ele>1485</ele>
        <time>2024-09-15T14:41:19Z</time>
      </trkpt>
      <trkpt lat="42.49572" lon="2.12767">
        <ele>1484</ele>
        <time>2024-09-15T14:41:23Z</time>
      </trkpt>
      <trkpt lat="42.49569" lon="2.12767">
        <ele>1483</ele>
        <time>2024-09-15T14:41:27Z</time>
      </trkpt>
      <trkpt lat="42.49566" lon="2.12767">
        <ele>1483</ele>
        <time>2024-09-15T14:41:30Z</time>
      </trkpt>
      <trkpt lat="42.49563" lon="2.12766">
        <ele>1482</ele>
        <time>2024-09-15T14:41:32Z</time>
      </trkpt>
      <trkpt lat="42.4956" lon="2.12765">
        <ele>1481</ele>
        <time>2024-09-15T14:41:35Z</time>
      </trkpt>
      <trkpt lat="42.49557" lon="2.12764">
        <ele>1480</ele>
        <time>2024-09-15T14:41:38Z</time>
      </trkpt>
      <trkpt lat="42.49553" lon="2.12763">
        <ele>1479</ele>
        <time>2024-09-15T14:41:42Z</time>
      </trkpt>
      <trkpt lat="42.4955" lon="2.12763">
        <ele>1479</ele>
        <time>2024-09-15T14:41:44Z</time>
      </trkpt>
      <trkpt lat="42.49548" lon="2.12762">
        <ele>1480</ele>
        <time>2024-09-15T14:41:46Z</time>
      </trkpt>
      <trkpt lat="42.49544" lon="2.12761">
        <ele>1481</ele>
        <time>2024-09-15T14:41:49Z</time>
      </trkpt>
      <trkpt lat="42.49541" lon="2.1276">
        <ele>1481</ele>
        <time>2024-09-15T14:41:51Z</time>
      </trkpt>
      <trkpt lat="42.49537" lon="2.12759">
        <ele>1480</ele>
        <time>2024-09-15T14:41:54Z</time>
      </trkpt>
      <trkpt lat="42.49534" lon="2.12758">
        <ele>1480</ele>
        <time>2024-09-15T14:41:57Z</time>
      </trkpt>
      <trkpt lat="42.49531" lon="2.12758">
        <ele>1482</ele>
        <time>2024-09-15T14:42:00Z</time>
      </trkpt>
      <trkpt lat="42.49528" lon="2.12757">
        <ele>1481</ele>
        <time>2024-09-15T14:42:02Z</time>
      </trkpt>
      <trkpt lat="42.49525" lon="2.12756">
        <ele>1482</ele>
        <time>2024-09-15T14:42:05Z</time>
      </trkpt>
      <trkpt lat="42.49522" lon="2.12756">
        <ele>1482</ele>
        <time>2024-09-15T14:42:09Z</time>
      </trkpt>
      <trkpt lat="42.49518" lon="2.12755">
        <ele>1480</ele>
        <time>2024-09-15T14:42:13Z</time>
      </trkpt>
      <trkpt lat="42.49514" lon="2.12754">
        <ele>1479</ele>
        <time>2024-09-15T14:42:16Z</time>
      </trkpt>
      <trkpt lat="42.49511" lon="2.12753">
        <ele>1477</ele>
        <time>2024-09-15T14:42:18Z</time>
      </trkpt>
      <trkpt lat="42.49508" lon="2.12752">
        <ele>1477</ele>
        <time>2024-09-15T14:42:20Z</time>
      </trkpt>
      <trkpt lat="42.49505" lon="2.12752">
        <ele>1475</ele>
        <time>2024-09-15T14:42:24Z</time>
      </trkpt>
      <trkpt lat="42.49502" lon="2.12751">
        <ele>1474</ele>
        <time>2024-09-15T14:42:28Z</time>
      </trkpt>
      <trkpt lat="42.49498" lon="2.1275">
        <ele>1473</ele>
        <time>2024-09-15T14:42:31Z</time>
      </trkpt>
      <trkpt lat="42.49495" lon="2.12749">
        <ele>1473</ele>
        <time>2024-09-15T14:42:34Z</time>
      </trkpt>
      <trkpt lat="42.49492" lon="2.12749">
        <ele>1472</ele>
        <time>2024-09-15T14:42:36Z</time>
      </trkpt>
      <trkpt lat="42.49489" lon="2.12748">
        <ele>1471</ele>
        <time>2024-09-15T14:42:39Z</time>
      </trkpt>
      <trkpt lat="42.49486" lon="2.12747">
        <ele>1470</ele>
        <time>2024-09-15T14:42:42Z</time>
      </trkpt>
      <trkpt lat="42.49483" lon="2.12746">
        <ele>1470</ele>
        <time>2024-09-15T14:42:44Z</time>
      </trkpt>
      <trkpt lat="42.49479" lon="2.12745">
        <ele>1469</ele>
        <time>2024-09-15T14:42:47Z</time>
      </trkpt>
      <trkpt lat="42.49476" lon="2.12746">
        <ele>1468</ele>
        <time>2024-09-15T14:42:49Z</time>
      </trkpt>
      <trkpt lat="42.49473" lon="2.12747">
        <ele>1468</ele>
        <time>2024-09-15T14:42:52Z</time>
      </trkpt>
      <trkpt lat="42.49469" lon="2.12746">
        <ele>1469</ele>
        <time>2024-09-15T14:42:54Z</time>
      </trkpt>
      <trkpt lat="42.49465" lon="2.12747">
        <ele>1470</ele>
        <time>2024-09-15T14:42:57Z</time>
      </trkpt>
      <trkpt lat="42.49462" lon="2.12749">
        <ele>1470</ele>
        <time>2024-09-15T14:42:59Z</time>
      </trkpt>
      <trkpt lat="42.4946" lon="2.12752">
        <ele>1471</ele>
        <time>2024-09-15T14:43:01Z</time>
      </trkpt>
      <trkpt lat="42.49458" lon="2.12756">
        <ele>1471</ele>
        <time>2024-09-15T14:43:03Z</time>
      </trkpt>
      <trkpt lat="42.49456" lon="2.12759">
        <ele>1471</ele>
        <time>2024-09-15T14:43:05Z</time>
      </trkpt>
      <trkpt lat="42.49455" lon="2.12763">
        <ele>1472</ele>
        <time>2024-09-15T14:43:08Z</time>
      </trkpt>
      <trkpt lat="42.49453" lon="2.12767">
        <ele>1472</ele>
        <time>2024-09-15T14:43:17Z</time>
      </trkpt>
      <trkpt lat="42.49451" lon="2.12771">
        <ele>1473</ele>
        <time>2024-09-15T14:43:46Z</time>
      </trkpt>
      <trkpt lat="42.49449" lon="2.12774">
        <ele>1473</ele>
        <time>2024-09-15T14:43:52Z</time>
      </trkpt>
      <trkpt lat="42.49447" lon="2.12778">
        <ele>1474</ele>
        <time>2024-09-15T14:43:58Z</time>
      </trkpt>
      <trkpt lat="42.49444" lon="2.12782">
        <ele>1475</ele>
        <time>2024-09-15T14:44:02Z</time>
      </trkpt>
      <trkpt lat="42.49442" lon="2.12785">
        <ele>1476</ele>
        <time>2024-09-15T14:44:06Z</time>
      </trkpt>
      <trkpt lat="42.49438" lon="2.12787">
        <ele>1477</ele>
        <time>2024-09-15T14:44:13Z</time>
      </trkpt>
      <trkpt lat="42.49435" lon="2.12788">
        <ele>1478</ele>
        <time>2024-09-15T14:44:20Z</time>
      </trkpt>
      <trkpt lat="42.49432" lon="2.1279">
        <ele>1479</ele>
        <time>2024-09-15T14:44:24Z</time>
      </trkpt>
      <trkpt lat="42.49429" lon="2.12792">
        <ele>1481</ele>
        <time>2024-09-15T14:44:33Z</time>
      </trkpt>
      <trkpt lat="42.49427" lon="2.12796">
        <ele>1482</ele>
        <time>2024-09-15T14:44:37Z</time>
      </trkpt>
      <trkpt lat="42.49425" lon="2.12796">
        <ele>1483</ele>
        <time>2024-09-15T14:44:48Z</time>
      </trkpt>
      <trkpt lat="42.49423" lon="2.12794">
        <ele>1484</ele>
        <time>2024-09-15T14:45:01Z</time>
      </trkpt>
      <trkpt lat="42.4942" lon="2.12792">
        <ele>1485</ele>
        <time>2024-09-15T14:45:04Z</time>
      </trkpt>
      <trkpt lat="42.4942" lon="2.12793">
        <ele>1485</ele>
        <time>2024-09-15T14:45:06Z</time>
      </trkpt>
      <trkpt lat="42.4942" lon="2.12796">
        <ele>1485</ele>
        <time>2024-09-15T14:45:10Z</time>
      </trkpt>
      <trkpt lat="42.49421" lon="2.128">
        <ele>1486</ele>
        <time>2024-09-15T14:45:15Z</time>
      </trkpt>
      <trkpt lat="42.49422" lon="2.12804">
        <ele>1487</ele>
        <time>2024-09-15T14:45:17Z</time>
      </trkpt>
      <trkpt lat="42.49423" lon="2.12808">
        <ele>1488</ele>
        <time>2024-09-15T14:45:21Z</time>
      </trkpt>
      <trkpt lat="42.49423" lon="2.12812">
        <ele>1488</ele>
        <time>2024-09-15T14:45:25Z</time>
      </trkpt>
      <trkpt lat="42.49424" lon="2.12816">
        <ele>1489</ele>
        <time>2024-09-15T14:45:28Z</time>
      </trkpt>
      <trkpt lat="42.49425" lon="2.1282">
        <ele>1489</ele>
        <time>2024-09-15T14:45:33Z</time>
      </trkpt>
      <trkpt lat="42.49427" lon="2.12825">
        <ele>1488</ele>
        <time>2024-09-15T14:45:37Z</time>
      </trkpt>
      <trkpt lat="42.49428" lon="2.12829">
        <ele>1489</ele>
        <time>2024-09-15T14:45:41Z</time>
      </trkpt>
      <trkpt lat="42.4943" lon="2.12833">
        <ele>1489</ele>
        <time>2024-09-15T14:45:45Z</time>
      </trkpt>
      <trkpt lat="42.49431" lon="2.12837">
        <ele>1490</ele>
        <time>2024-09-15T14:45:48Z</time>
      </trkpt>
      <trkpt lat="42.49432" lon="2.1284">
        <ele>1491</ele>
        <time>2024-09-15T14:45:53Z</time>
      </trkpt>
      <trkpt lat="42.49434" lon="2.12845">
        <ele>1492</ele>
        <time>2024-09-15T14:45:58Z</time>
      </trkpt>
      <trkpt lat="42.49435" lon="2.12849">
        <ele>1492</ele>
        <time>2024-09-15T14:46:02Z</time>
      </trkpt>
      <trkpt lat="42.49436" lon="2.12853">
        <ele>1493</ele>
        <time>2024-09-15T14:46:06Z</time>
      </trkpt>
      <trkpt lat="42.49437" lon="2.12857">
        <ele>1492</ele>
        <time>2024-09-15T14:46:09Z</time>
      </trkpt>
      <trkpt lat="42.49438" lon="2.12861">
        <ele>1492</ele>
        <time>2024-09-15T14:46:13Z</time>
      </trkpt>
      <trkpt lat="42.4944" lon="2.12865">
        <ele>1493</ele>
        <time>2024-09-15T14:46:18Z</time>
      </trkpt>
      <trkpt lat="42.49441" lon="2.12869">
        <ele>1493</ele>
        <time>2024-09-15T14:46:21Z</time>
      </trkpt>
      <trkpt lat="42.49443" lon="2.12874">
        <ele>1494</ele>
        <time>2024-09-15T14:46:25Z</time>
      </trkpt>
      <trkpt lat="42.49444" lon="2.12878">
        <ele>1494</ele>
        <time>2024-09-15T14:46:28Z</time>
      </trkpt>
      <trkpt lat="42.49445" lon="2.12882">
        <ele>1495</ele>
        <time>2024-09-15T14:46:30Z</time>
      </trkpt>
      <trkpt lat="42.49447" lon="2.12886">
        <ele>1495</ele>
        <time>2024-09-15T14:46:34Z</time>
      </trkpt>
      <trkpt lat="42.49448" lon="2.1289">
        <ele>1495</ele>
        <time>2024-09-15T14:46:36Z</time>
      </trkpt>
      <trkpt lat="42.49449" lon="2.12894">
        <ele>1495</ele>
        <time>2024-09-15T14:46:40Z</time>
      </trkpt>
      <trkpt lat="42.49449" lon="2.12898">
        <ele>1496</ele>
        <time>2024-09-15T14:46:44Z</time>
      </trkpt>
      <trkpt lat="42.49449" lon="2.12903">
        <ele>1497</ele>
        <time>2024-09-15T14:46:49Z</time>
      </trkpt>
      <trkpt lat="42.49449" lon="2.12907">
        <ele>1499</ele>
        <time>2024-09-15T14:46:53Z</time>
      </trkpt>
      <trkpt lat="42.49449" lon="2.12912">
        <ele>1500</ele>
        <time>2024-09-15T14:46:58Z</time>
      </trkpt>
      <trkpt lat="42.49449" lon="2.12916">
        <ele>1501</ele>
        <time>2024-09-15T14:47:03Z</time>
      </trkpt>
      <trkpt lat="42.49449" lon="2.1292">
        <ele>1502</ele>
        <time>2024-09-15T14:47:08Z</time>
      </trkpt>
      <trkpt lat="42.49448" lon="2.12924">
        <ele>1502</ele>
        <time>2024-09-15T14:47:13Z</time>
      </trkpt>
      <trkpt lat="42.49448" lon="2.12928">
        <ele>1503</ele>
        <time>2024-09-15T14:47:18Z</time>
      </trkpt>
      <trkpt lat="42.49447" lon="2.12932">
        <ele>1504</ele>
        <time>2024-09-15T14:47:23Z</time>
      </trkpt>
      <trkpt lat="42.49446" lon="2.12936">
        <ele>1506</ele>
        <time>2024-09-15T14:47:27Z</time>
      </trkpt>
      <trkpt lat="42.49445" lon="2.12941">
        <ele>1506</ele>
        <time>2024-09-15T14:47:31Z</time>
      </trkpt>
      <trkpt lat="42.49444" lon="2.12945">
        <ele>1506</ele>
        <time>2024-09-15T14:47:36Z</time>
      </trkpt>
      <trkpt lat="42.49443" lon="2.12949">
        <ele>1507</ele>
        <time>2024-09-15T14:47:41Z</time>
      </trkpt>
      <trkpt lat="42.49442" lon="2.12953">
        <ele>1508</ele>
        <time>2024-09-15T14:47:46Z</time>
      </trkpt>
      <trkpt lat="42.4944" lon="2.12956">
        <ele>1508</ele>
        <time>2024-09-15T14:47:50Z</time>
      </trkpt>
      <trkpt lat="42.49438" lon="2.1296">
        <ele>1508</ele>
        <time>2024-09-15T14:47:54Z</time>
      </trkpt>
      <trkpt lat="42.49436" lon="2.12963">
        <ele>1508</ele>
        <time>2024-09-15T14:47:58Z</time>
      </trkpt>
      <trkpt lat="42.49433" lon="2.12967">
        <ele>1509</ele>
        <time>2024-09-15T14:48:01Z</time>
      </trkpt>
      <trkpt lat="42.49431" lon="2.1297">
        <ele>1509</ele>
        <time>2024-09-15T14:48:04Z</time>
      </trkpt>
      <trkpt lat="42.49429" lon="2.12973">
        <ele>1510</ele>
        <time>2024-09-15T14:48:07Z</time>
      </trkpt>
      <trkpt lat="42.49427" lon="2.12977">
        <ele>1510</ele>
        <time>2024-09-15T14:48:11Z</time>
      </trkpt>
      <trkpt lat="42.49424" lon="2.12981">
        <ele>1510</ele>
        <time>2024-09-15T14:48:15Z</time>
      </trkpt>
      <trkpt lat="42.49421" lon="2.12984">
        <ele>1510</ele>
        <time>2024-09-15T14:48:19Z</time>
      </trkpt>
      <trkpt lat="42.49419" lon="2.12987">
        <ele>1510</ele>
        <time>2024-09-15T14:48:23Z</time>
      </trkpt>
      <trkpt lat="42.49417" lon="2.12991">
        <ele>1509</ele>
        <time>2024-09-15T14:48:29Z</time>
      </trkpt>
      <trkpt lat="42.49416" lon="2.12995">
        <ele>1509</ele>
        <time>2024-09-15T14:48:32Z</time>
      </trkpt>
      <trkpt lat="42.49415" lon="2.12999">
        <ele>1510</ele>
        <time>2024-09-15T14:48:34Z</time>
      </trkpt>
      <trkpt lat="42.49414" lon="2.13003">
        <ele>1510</ele>
        <time>2024-09-15T14:48:37Z</time>
      </trkpt>
      <trkpt lat="42.49413" lon="2.13008">
        <ele>1511</ele>
        <time>2024-09-15T14:48:41Z</time>
      </trkpt>
      <trkpt lat="42.49413" lon="2.13012">
        <ele>1512</ele>
        <time>2024-09-15T14:48:46Z</time>
      </trkpt>
      <trkpt lat="42.49413" lon="2.13016">
        <ele>1512</ele>
        <time>2024-09-15T14:48:49Z</time>
      </trkpt>
      <trkpt lat="42.49413" lon="2.13021">
        <ele>1512</ele>
        <time>2024-09-15T14:48:52Z</time>
      </trkpt>
      <trkpt lat="42.49413" lon="2.13025">
        <ele>1512</ele>
        <time>2024-09-15T14:48:54Z</time>
      </trkpt>
      <trkpt lat="42.49413" lon="2.13029">
        <ele>1513</ele>
        <time>2024-09-15T14:48:57Z</time>
      </trkpt>
      <trkpt lat="42.49414" lon="2.13033">
        <ele>1514</ele>
        <time>2024-09-15T14:49:00Z</time>
      </trkpt>
      <trkpt lat="42.49414" lon="2.13038">
        <ele>1514</ele>
        <time>2024-09-15T14:49:03Z</time>
      </trkpt>
      <trkpt lat="42.49415" lon="2.13042">
        <ele>1514</ele>
        <time>2024-09-15T14:49:06Z</time>
      </trkpt>
      <trkpt lat="42.49415" lon="2.13047">
        <ele>1515</ele>
        <time>2024-09-15T14:49:09Z</time>
      </trkpt>
      <trkpt lat="42.49415" lon="2.13051">
        <ele>1516</ele>
        <time>2024-09-15T14:49:12Z</time>
      </trkpt>
      <trkpt lat="42.49414" lon="2.13056">
        <ele>1515</ele>
        <time>2024-09-15T14:49:15Z</time>
      </trkpt>
      <trkpt lat="42.49413" lon="2.1306">
        <ele>1516</ele>
        <time>2024-09-15T14:49:18Z</time>
      </trkpt>
      <trkpt lat="42.49413" lon="2.13065">
        <ele>1515</ele>
        <time>2024-09-15T14:49:21Z</time>
      </trkpt>
      <trkpt lat="42.49412" lon="2.13069">
        <ele>1515</ele>
        <time>2024-09-15T14:49:23Z</time>
      </trkpt>
      <trkpt lat="42.49411" lon="2.13073">
        <ele>1515</ele>
        <time>2024-09-15T14:49:26Z</time>
      </trkpt>
      <trkpt lat="42.4941" lon="2.13077">
        <ele>1516</ele>
        <time>2024-09-15T14:49:28Z</time>
      </trkpt>
      <trkpt lat="42.49409" lon="2.13081">
        <ele>1515</ele>
        <time>2024-09-15T14:49:30Z</time>
      </trkpt>
      <trkpt lat="42.49408" lon="2.13085">
        <ele>1516</ele>
        <time>2024-09-15T14:49:33Z</time>
      </trkpt>
      <trkpt lat="42.49407" lon="2.13089">
        <ele>1515</ele>
        <time>2024-09-15T14:49:36Z</time>
      </trkpt>
      <trkpt lat="42.49406" lon="2.13093">
        <ele>1515</ele>
        <time>2024-09-15T14:49:39Z</time>
      </trkpt>
      <trkpt lat="42.49405" lon="2.13098">
        <ele>1515</ele>
        <time>2024-09-15T14:49:42Z</time>
      </trkpt>
      <trkpt lat="42.49404" lon="2.13102">
        <ele>1514</ele>
        <time>2024-09-15T14:49:45Z</time>
      </trkpt>
      <trkpt lat="42.49403" lon="2.13107">
        <ele>1514</ele>
        <time>2024-09-15T14:49:48Z</time>
      </trkpt>
      <trkpt lat="42.49402" lon="2.13111">
        <ele>1515</ele>
        <time>2024-09-15T14:49:50Z</time>
      </trkpt>
      <trkpt lat="42.49401" lon="2.13115">
        <ele>1516</ele>
        <time>2024-09-15T14:49:53Z</time>
      </trkpt>
      <trkpt lat="42.494" lon="2.13119">
        <ele>1515</ele>
        <time>2024-09-15T14:49:55Z</time>
      </trkpt>
      <trkpt lat="42.49399" lon="2.13123">
        <ele>1514</ele>
        <time>2024-09-15T14:49:58Z</time>
      </trkpt>
      <trkpt lat="42.49397" lon="2.13128">
        <ele>1515</ele>
        <time>2024-09-15T14:50:01Z</time>
      </trkpt>
      <trkpt lat="42.49396" lon="2.13132">
        <ele>1515</ele>
        <time>2024-09-15T14:50:05Z</time>
      </trkpt>
      <trkpt lat="42.49396" lon="2.13137">
        <ele>1515</ele>
        <time>2024-09-15T14:50:07Z</time>
      </trkpt>
      <trkpt lat="42.49395" lon="2.1314">
        <ele>1513</ele>
        <time>2024-09-15T14:50:10Z</time>
      </trkpt>
      <trkpt lat="42.49394" lon="2.13144">
        <ele>1514</ele>
        <time>2024-09-15T14:50:13Z</time>
      </trkpt>
      <trkpt lat="42.49392" lon="2.13148">
        <ele>1514</ele>
        <time>2024-09-15T14:50:17Z</time>
      </trkpt>
      <trkpt lat="42.4939" lon="2.13149">
        <ele>1514</ele>
        <time>2024-09-15T14:50:20Z</time>
      </trkpt>
      <trkpt lat="42.49386" lon="2.13148">
        <ele>1514</ele>
        <time>2024-09-15T14:50:21Z</time>
      </trkpt>
      <trkpt lat="42.49383" lon="2.13147">
        <ele>1515</ele>
        <time>2024-09-15T14:50:24Z</time>
      </trkpt>
      <trkpt lat="42.4938" lon="2.13146">
        <ele>1516</ele>
        <time>2024-09-15T14:50:27Z</time>
      </trkpt>
      <trkpt lat="42.49376" lon="2.13145">
        <ele>1516</ele>
        <time>2024-09-15T14:50:30Z</time>
      </trkpt>
      <trkpt lat="42.49374" lon="2.13143">
        <ele>1517</ele>
        <time>2024-09-15T14:50:33Z</time>
      </trkpt>
      <trkpt lat="42.49371" lon="2.13141">
        <ele>1517</ele>
        <time>2024-09-15T14:50:36Z</time>
      </trkpt>
      <trkpt lat="42.49368" lon="2.1314">
        <ele>1518</ele>
        <time>2024-09-15T14:50:40Z</time>
      </trkpt>
      <trkpt lat="42.49365" lon="2.13138">
        <ele>1518</ele>
        <time>2024-09-15T14:50:43Z</time>
      </trkpt>
      <trkpt lat="42.49363" lon="2.13136">
        <ele>1518</ele>
        <time>2024-09-15T14:50:45Z</time>
      </trkpt>
      <trkpt lat="42.4936" lon="2.13134">
        <ele>1519</ele>
        <time>2024-09-15T14:50:48Z</time>
      </trkpt>
      <trkpt lat="42.49358" lon="2.13132">
        <ele>1519</ele>
        <time>2024-09-15T14:50:51Z</time>
      </trkpt>
      <trkpt lat="42.49355" lon="2.1313">
        <ele>1520</ele>
        <time>2024-09-15T14:50:54Z</time>
      </trkpt>
      <trkpt lat="42.49353" lon="2.13128">
        <ele>1521</ele>
        <time>2024-09-15T14:50:56Z</time>
      </trkpt>
      <trkpt lat="42.4935" lon="2.13126">
        <ele>1521</ele>
        <time>2024-09-15T14:51:00Z</time>
      </trkpt>
      <trkpt lat="42.49347" lon="2.13123">
        <ele>1521</ele>
        <time>2024-09-15T14:51:03Z</time>
      </trkpt>
      <trkpt lat="42.49344" lon="2.13121">
        <ele>1521</ele>
        <time>2024-09-15T14:51:07Z</time>
      </trkpt>
      <trkpt lat="42.49341" lon="2.13119">
        <ele>1522</ele>
        <time>2024-09-15T14:51:10Z</time>
      </trkpt>
      <trkpt lat="42.49339" lon="2.13117">
        <ele>1523</ele>
        <time>2024-09-15T14:51:13Z</time>
      </trkpt>
      <trkpt lat="42.49336" lon="2.13115">
        <ele>1523</ele>
        <time>2024-09-15T14:51:16Z</time>
      </trkpt>
      <trkpt lat="42.49333" lon="2.13114">
        <ele>1524</ele>
        <time>2024-09-15T14:51:20Z</time>
      </trkpt>
      <trkpt lat="42.4933" lon="2.13112">
        <ele>1524</ele>
        <time>2024-09-15T14:51:24Z</time>
      </trkpt>
      <trkpt lat="42.49327" lon="2.13111">
        <ele>1524</ele>
        <time>2024-09-15T14:51:28Z</time>
      </trkpt>
      <trkpt lat="42.49324" lon="2.1311">
        <ele>1525</ele>
        <time>2024-09-15T14:51:32Z</time>
      </trkpt>
      <trkpt lat="42.49321" lon="2.1311">
        <ele>1526</ele>
        <time>2024-09-15T14:51:35Z</time>
      </trkpt>
      <trkpt lat="42.49318" lon="2.1311">
        <ele>1526</ele>
        <time>2024-09-15T14:51:38Z</time>
      </trkpt>
      <trkpt lat="42.49319" lon="2.1311">
        <ele>1525</ele>
        <time>2024-09-15T14:51:50Z</time>
      </trkpt>
      <trkpt lat="42.49322" lon="2.13111">
        <ele>1525</ele>
        <time>2024-09-15T14:51:53Z</time>
      </trkpt>
      <trkpt lat="42.49325" lon="2.13111">
        <ele>1524</ele>
        <time>2024-09-15T14:51:55Z</time>
      </trkpt>
      <trkpt lat="42.49328" lon="2.13112">
        <ele>1523</ele>
        <time>2024-09-15T14:51:57Z</time>
      </trkpt>
      <trkpt lat="42.49331" lon="2.13113">
        <ele>1523</ele>
        <time>2024-09-15T14:51:59Z</time>
      </trkpt>
      <trkpt lat="42.49334" lon="2.13114">
        <ele>1523</ele>
        <time>2024-09-15T14:52:01Z</time>
      </trkpt>
      <trkpt lat="42.49337" lon="2.13116">
        <ele>1522</ele>
        <time>2024-09-15T14:52:04Z</time>
      </trkpt>
      <trkpt lat="42.4934" lon="2.13118">
        <ele>1521</ele>
        <time>2024-09-15T14:52:07Z</time>
      </trkpt>
      <trkpt lat="42.49344" lon="2.13121">
        <ele>1520</ele>
        <time>2024-09-15T14:52:11Z</time>
      </trkpt>
      <trkpt lat="42.49347" lon="2.13123">
        <ele>1520</ele>
        <time>2024-09-15T14:52:14Z</time>
      </trkpt>
      <trkpt lat="42.4935" lon="2.13125">
        <ele>1520</ele>
        <time>2024-09-15T14:52:16Z</time>
      </trkpt>
      <trkpt lat="42.49352" lon="2.13128">
        <ele>1520</ele>
        <time>2024-09-15T14:52:18Z</time>
      </trkpt>
      <trkpt lat="42.49355" lon="2.1313">
        <ele>1519</ele>
        <time>2024-09-15T14:52:21Z</time>
      </trkpt>
      <trkpt lat="42.49357" lon="2.13133">
        <ele>1519</ele>
        <time>2024-09-15T14:52:23Z</time>
      </trkpt>
      <trkpt lat="42.4936" lon="2.13135">
        <ele>1518</ele>
        <time>2024-09-15T14:52:26Z</time>
      </trkpt>
      <trkpt lat="42.49363" lon="2.13138">
        <ele>1517</ele>
        <time>2024-09-15T14:52:29Z</time>
      </trkpt>
      <trkpt lat="42.49367" lon="2.1314">
        <ele>1516</ele>
        <time>2024-09-15T14:52:32Z</time>
      </trkpt>
      <trkpt lat="42.49369" lon="2.13142">
        <ele>1517</ele>
        <time>2024-09-15T14:52:34Z</time>
      </trkpt>
      <trkpt lat="42.49372" lon="2.13143">
        <ele>1517</ele>
        <time>2024-09-15T14:52:36Z</time>
      </trkpt>
      <trkpt lat="42.49375" lon="2.13145">
        <ele>1516</ele>
        <time>2024-09-15T14:52:39Z</time>
      </trkpt>
      <trkpt lat="42.49378" lon="2.13146">
        <ele>1516</ele>
        <time>2024-09-15T14:52:42Z</time>
      </trkpt>
      <trkpt lat="42.49382" lon="2.13148">
        <ele>1514</ele>
        <time>2024-09-15T14:52:57Z</time>
      </trkpt>
      <trkpt lat="42.49385" lon="2.13148">
        <ele>1514</ele>
        <time>2024-09-15T14:53:00Z</time>
      </trkpt>
      <trkpt lat="42.49388" lon="2.13148">
        <ele>1513</ele>
        <time>2024-09-15T14:53:02Z</time>
      </trkpt>
      <trkpt lat="42.4939" lon="2.13147">
        <ele>1514</ele>
        <time>2024-09-15T14:53:05Z</time>
      </trkpt>
      <trkpt lat="42.4939" lon="2.13149">
        <ele>1513</ele>
        <time>2024-09-15T14:53:17Z</time>
      </trkpt>
      <trkpt lat="42.49389" lon="2.13151">
        <ele>1512</ele>
        <time>2024-09-15T14:53:19Z</time>
      </trkpt>
      <trkpt lat="42.49388" lon="2.13155">
        <ele>1511</ele>
        <time>2024-09-15T14:53:21Z</time>
      </trkpt>
      <trkpt lat="42.49387" lon="2.13159">
        <ele>1512</ele>
        <time>2024-09-15T14:53:23Z</time>
      </trkpt>
      <trkpt lat="42.49386" lon="2.13166">
        <ele>1512</ele>
        <time>2024-09-15T14:53:25Z</time>
      </trkpt>
      <trkpt lat="42.49385" lon="2.13171">
        <ele>1512</ele>
        <time>2024-09-15T14:53:27Z</time>
      </trkpt>
      <trkpt lat="42.49383" lon="2.13174">
        <ele>1512</ele>
        <time>2024-09-15T14:53:29Z</time>
      </trkpt>
      <trkpt lat="42.49381" lon="2.13178">
        <ele>1513</ele>
        <time>2024-09-15T14:53:32Z</time>
      </trkpt>
      <trkpt lat="42.4938" lon="2.13182">
        <ele>1513</ele>
        <time>2024-09-15T14:53:35Z</time>
      </trkpt>
      <trkpt lat="42.49377" lon="2.13186">
        <ele>1512</ele>
        <time>2024-09-15T14:53:38Z</time>
      </trkpt>
      <trkpt lat="42.49374" lon="2.13189">
        <ele>1511</ele>
        <time>2024-09-15T14:53:41Z</time>
      </trkpt>
      <trkpt lat="42.49371" lon="2.13191">
        <ele>1510</ele>
        <time>2024-09-15T14:53:44Z</time>
      </trkpt>
      <trkpt lat="42.49368" lon="2.13193">
        <ele>1509</ele>
        <time>2024-09-15T14:53:47Z</time>
      </trkpt>
      <trkpt lat="42.49364" lon="2.13194">
        <ele>1509</ele>
        <time>2024-09-15T14:53:50Z</time>
      </trkpt>
      <trkpt lat="42.49361" lon="2.13196">
        <ele>1509</ele>
        <time>2024-09-15T14:53:53Z</time>
      </trkpt>
      <trkpt lat="42.49357" lon="2.13197">
        <ele>1510</ele>
        <time>2024-09-15T14:53:56Z</time>
      </trkpt>
      <trkpt lat="42.49354" lon="2.13199">
        <ele>1510</ele>
        <time>2024-09-15T14:53:59Z</time>
      </trkpt>
      <trkpt lat="42.4935" lon="2.132">
        <ele>1508</ele>
        <time>2024-09-15T14:54:02Z</time>
      </trkpt>
      <trkpt lat="42.49347" lon="2.13202">
        <ele>1508</ele>
        <time>2024-09-15T14:54:04Z</time>
      </trkpt>
      <trkpt lat="42.49344" lon="2.13203">
        <ele>1509</ele>
        <time>2024-09-15T14:54:07Z</time>
      </trkpt>
      <trkpt lat="42.49341" lon="2.13205">
        <ele>1509</ele>
        <time>2024-09-15T14:54:10Z</time>
      </trkpt>
      <trkpt lat="42.49337" lon="2.13207">
        <ele>1508</ele>
        <time>2024-09-15T14:54:13Z</time>
      </trkpt>
      <trkpt lat="42.49334" lon="2.13209">
        <ele>1509</ele>
        <time>2024-09-15T14:54:17Z</time>
      </trkpt>
      <trkpt lat="42.49332" lon="2.13213">
        <ele>1508</ele>
        <time>2024-09-15T14:54:19Z</time>
      </trkpt>
      <trkpt lat="42.49331" lon="2.13217">
        <ele>1507</ele>
        <time>2024-09-15T14:54:22Z</time>
      </trkpt>
      <trkpt lat="42.4933" lon="2.13222">
        <ele>1508</ele>
        <time>2024-09-15T14:54:25Z</time>
      </trkpt>
      <trkpt lat="42.49329" lon="2.13227">
        <ele>1507</ele>
        <time>2024-09-15T14:54:28Z</time>
      </trkpt>
      <trkpt lat="42.49328" lon="2.13232">
        <ele>1506</ele>
        <time>2024-09-15T14:54:31Z</time>
      </trkpt>
      <trkpt lat="42.49328" lon="2.13237">
        <ele>1507</ele>
        <time>2024-09-15T14:54:34Z</time>
      </trkpt>
      <trkpt lat="42.49327" lon="2.13242">
        <ele>1507</ele>
        <time>2024-09-15T14:54:37Z</time>
      </trkpt>
      <trkpt lat="42.49328" lon="2.13247">
        <ele>1508</ele>
        <time>2024-09-15T14:54:40Z</time>
      </trkpt>
      <trkpt lat="42.49328" lon="2.13251">
        <ele>1507</ele>
        <time>2024-09-15T14:54:43Z</time>
      </trkpt>
      <trkpt lat="42.49329" lon="2.13256">
        <ele>1507</ele>
        <time>2024-09-15T14:54:46Z</time>
      </trkpt>
      <trkpt lat="42.49331" lon="2.1326">
        <ele>1507</ele>
        <time>2024-09-15T14:54:49Z</time>
      </trkpt>
      <trkpt lat="42.49333" lon="2.13264">
        <ele>1507</ele>
        <time>2024-09-15T14:54:52Z</time>
      </trkpt>
      <trkpt lat="42.49335" lon="2.13267">
        <ele>1507</ele>
        <time>2024-09-15T14:54:54Z</time>
      </trkpt>
      <trkpt lat="42.49337" lon="2.13271">
        <ele>1507</ele>
        <time>2024-09-15T14:54:57Z</time>
      </trkpt>
      <trkpt lat="42.49339" lon="2.13275">
        <ele>1507</ele>
        <time>2024-09-15T14:55:00Z</time>
      </trkpt>
      <trkpt lat="42.4934" lon="2.13279">
        <ele>1507</ele>
        <time>2024-09-15T14:55:03Z</time>
      </trkpt>
      <trkpt lat="42.49342" lon="2.13283">
        <ele>1507</ele>
        <time>2024-09-15T14:55:06Z</time>
      </trkpt>
      <trkpt lat="42.49343" lon="2.13288">
        <ele>1507</ele>
        <time>2024-09-15T14:55:09Z</time>
      </trkpt>
      <trkpt lat="42.49345" lon="2.13291">
        <ele>1508</ele>
        <time>2024-09-15T14:55:12Z</time>
      </trkpt>
      <trkpt lat="42.49346" lon="2.13295">
        <ele>1509</ele>
        <time>2024-09-15T14:55:15Z</time>
      </trkpt>
      <trkpt lat="42.49348" lon="2.13299">
        <ele>1509</ele>
        <time>2024-09-15T14:55:18Z</time>
      </trkpt>
      <trkpt lat="42.49349" lon="2.13302">
        <ele>1510</ele>
        <time>2024-09-15T14:55:21Z</time>
      </trkpt>
      <trkpt lat="42.49352" lon="2.13306">
        <ele>1511</ele>
        <time>2024-09-15T14:55:25Z</time>
      </trkpt>
      <trkpt lat="42.49354" lon="2.13309">
        <ele>1512</ele>
        <time>2024-09-15T14:55:29Z</time>
      </trkpt>
      <trkpt lat="42.49356" lon="2.13312">
        <ele>1513</ele>
        <time>2024-09-15T14:55:32Z</time>
      </trkpt>
      <trkpt lat="42.49358" lon="2.13315">
        <ele>1514</ele>
        <time>2024-09-15T14:55:35Z</time>
      </trkpt>
      <trkpt lat="42.4936" lon="2.13318">
        <ele>1514</ele>
        <time>2024-09-15T14:55:38Z</time>
      </trkpt>
      <trkpt lat="42.49363" lon="2.1332">
        <ele>1515</ele>
        <time>2024-09-15T14:55:42Z</time>
      </trkpt>
      <trkpt lat="42.49366" lon="2.13321">
        <ele>1516</ele>
        <time>2024-09-15T14:55:46Z</time>
      </trkpt>
      <trkpt lat="42.49368" lon="2.13322">
        <ele>1516</ele>
        <time>2024-09-15T14:55:48Z</time>
      </trkpt>
      <trkpt lat="42.49371" lon="2.13324">
        <ele>1516</ele>
        <time>2024-09-15T14:55:52Z</time>
      </trkpt>
      <trkpt lat="42.49374" lon="2.13325">
        <ele>1517</ele>
        <time>2024-09-15T14:55:56Z</time>
      </trkpt>
      <trkpt lat="42.49378" lon="2.13325">
        <ele>1518</ele>
        <time>2024-09-15T14:56:01Z</time>
      </trkpt>
      <trkpt lat="42.49381" lon="2.13325">
        <ele>1518</ele>
        <time>2024-09-15T14:56:05Z</time>
      </trkpt>
      <trkpt lat="42.49384" lon="2.13324">
        <ele>1517</ele>
        <time>2024-09-15T14:56:10Z</time>
      </trkpt>
      <trkpt lat="42.49388" lon="2.13324">
        <ele>1519</ele>
        <time>2024-09-15T14:56:14Z</time>
      </trkpt>
      <trkpt lat="42.49391" lon="2.13323">
        <ele>1519</ele>
        <time>2024-09-15T14:56:17Z</time>
      </trkpt>
      <trkpt lat="42.49394" lon="2.13323">
        <ele>1520</ele>
        <time>2024-09-15T14:56:23Z</time>
      </trkpt>
      <trkpt lat="42.49397" lon="2.13323">
        <ele>1520</ele>
        <time>2024-09-15T14:56:27Z</time>
      </trkpt>
      <trkpt lat="42.49401" lon="2.13323">
        <ele>1521</ele>
        <time>2024-09-15T14:56:31Z</time>
      </trkpt>
      <trkpt lat="42.49403" lon="2.13326">
        <ele>1521</ele>
        <time>2024-09-15T14:56:33Z</time>
      </trkpt>
      <trkpt lat="42.49402" lon="2.13329">
        <ele>1522</ele>
        <time>2024-09-15T14:56:38Z</time>
      </trkpt>
      <trkpt lat="42.494" lon="2.13331">
        <ele>1522</ele>
        <time>2024-09-15T14:56:43Z</time>
      </trkpt>
      <trkpt lat="42.49398" lon="2.13334">
        <ele>1523</ele>
        <time>2024-09-15T14:56:48Z</time>
      </trkpt>
      <trkpt lat="42.49395" lon="2.13336">
        <ele>1524</ele>
        <time>2024-09-15T14:56:52Z</time>
      </trkpt>
      <trkpt lat="42.49393" lon="2.13338">
        <ele>1525</ele>
        <time>2024-09-15T14:56:55Z</time>
      </trkpt>
      <trkpt lat="42.4939" lon="2.1334">
        <ele>1525</ele>
        <time>2024-09-15T14:56:59Z</time>
      </trkpt>
      <trkpt lat="42.49387" lon="2.13342">
        <ele>1525</ele>
        <time>2024-09-15T14:57:02Z</time>
      </trkpt>
      <trkpt lat="42.49385" lon="2.13344">
        <ele>1525</ele>
        <time>2024-09-15T14:57:06Z</time>
      </trkpt>
      <trkpt lat="42.49382" lon="2.13347">
        <ele>1526</ele>
        <time>2024-09-15T14:57:10Z</time>
      </trkpt>
      <trkpt lat="42.4938" lon="2.13349">
        <ele>1527</ele>
        <time>2024-09-15T14:57:13Z</time>
      </trkpt>
      <trkpt lat="42.49377" lon="2.13352">
        <ele>1528</ele>
        <time>2024-09-15T14:57:17Z</time>
      </trkpt>
      <trkpt lat="42.49375" lon="2.13355">
        <ele>1528</ele>
        <time>2024-09-15T14:57:21Z</time>
      </trkpt>
      <trkpt lat="42.49373" lon="2.13358">
        <ele>1528</ele>
        <time>2024-09-15T14:57:25Z</time>
      </trkpt>
      <trkpt lat="42.4937" lon="2.13361">
        <ele>1528</ele>
        <time>2024-09-15T14:57:28Z</time>
      </trkpt>
      <trkpt lat="42.49368" lon="2.13364">
        <ele>1529</ele>
        <time>2024-09-15T14:57:31Z</time>
      </trkpt>
      <trkpt lat="42.49367" lon="2.13367">
        <ele>1530</ele>
        <time>2024-09-15T14:57:34Z</time>
      </trkpt>
      <trkpt lat="42.49366" lon="2.13371">
        <ele>1530</ele>
        <time>2024-09-15T14:57:37Z</time>
      </trkpt>
      <trkpt lat="42.49364" lon="2.13375">
        <ele>1531</ele>
        <time>2024-09-15T14:57:40Z</time>
      </trkpt>
      <trkpt lat="42.49363" lon="2.13379">
        <ele>1531</ele>
        <time>2024-09-15T14:57:43Z</time>
      </trkpt>
      <trkpt lat="42.49362" lon="2.13383">
        <ele>1532</ele>
        <time>2024-09-15T14:57:46Z</time>
      </trkpt>
      <trkpt lat="42.49361" lon="2.13387">
        <ele>1533</ele>
        <time>2024-09-15T14:57:49Z</time>
      </trkpt>
      <trkpt lat="42.49359" lon="2.13391">
        <ele>1533</ele>
        <time>2024-09-15T14:57:52Z</time>
      </trkpt>
      <trkpt lat="42.49358" lon="2.13395">
        <ele>1534</ele>
        <time>2024-09-15T14:57:55Z</time>
      </trkpt>
      <trkpt lat="42.49357" lon="2.13399">
        <ele>1534</ele>
        <time>2024-09-15T14:57:58Z</time>
      </trkpt>
      <trkpt lat="42.49355" lon="2.13403">
        <ele>1534</ele>
        <time>2024-09-15T14:58:01Z</time>
      </trkpt>
      <trkpt lat="42.49354" lon="2.13406">
        <ele>1534</ele>
        <time>2024-09-15T14:58:04Z</time>
      </trkpt>
      <trkpt lat="42.49353" lon="2.1341">
        <ele>1536</ele>
        <time>2024-09-15T14:58:07Z</time>
      </trkpt>
      <trkpt lat="42.49352" lon="2.13415">
        <ele>1535</ele>
        <time>2024-09-15T14:58:10Z</time>
      </trkpt>
      <trkpt lat="42.49352" lon="2.13419">
        <ele>1535</ele>
        <time>2024-09-15T14:58:13Z</time>
      </trkpt>
      <trkpt lat="42.49351" lon="2.13423">
        <ele>1535</ele>
        <time>2024-09-15T14:58:16Z</time>
      </trkpt>
      <trkpt lat="42.49349" lon="2.13427">
        <ele>1535</ele>
        <time>2024-09-15T14:58:19Z</time>
      </trkpt>
      <trkpt lat="42.49348" lon="2.1343">
        <ele>1535</ele>
        <time>2024-09-15T14:58:22Z</time>
      </trkpt>
      <trkpt lat="42.49346" lon="2.13434">
        <ele>1535</ele>
        <time>2024-09-15T14:58:25Z</time>
      </trkpt>
      <trkpt lat="42.49345" lon="2.13438">
        <ele>1534</ele>
        <time>2024-09-15T14:58:28Z</time>
      </trkpt>
      <trkpt lat="42.49343" lon="2.13441">
        <ele>1535</ele>
        <time>2024-09-15T14:58:31Z</time>
      </trkpt>
      <trkpt lat="42.49343" lon="2.13445">
        <ele>1535</ele>
        <time>2024-09-15T14:58:35Z</time>
      </trkpt>
      <trkpt lat="42.49341" lon="2.13449">
        <ele>1534</ele>
        <time>2024-09-15T14:58:53Z</time>
      </trkpt>
      <trkpt lat="42.4934" lon="2.13453">
        <ele>1533</ele>
        <time>2024-09-15T14:58:56Z</time>
      </trkpt>
      <trkpt lat="42.49341" lon="2.13459">
        <ele>1534</ele>
        <time>2024-09-15T14:58:59Z</time>
      </trkpt>
      <trkpt lat="42.49341" lon="2.13464">
        <ele>1534</ele>
        <time>2024-09-15T14:59:02Z</time>
      </trkpt>
      <trkpt lat="42.49341" lon="2.13468">
        <ele>1534</ele>
        <time>2024-09-15T14:59:03Z</time>
      </trkpt>
      <trkpt lat="42.49341" lon="2.13473">
        <ele>1534</ele>
        <time>2024-09-15T14:59:05Z</time>
      </trkpt>
      <trkpt lat="42.4934" lon="2.13477">
        <ele>1535</ele>
        <time>2024-09-15T14:59:07Z</time>
      </trkpt>
      <trkpt lat="42.4934" lon="2.1348">
        <ele>1535</ele>
        <time>2024-09-15T14:59:09Z</time>
      </trkpt>
      <trkpt lat="42.49339" lon="2.13484">
        <ele>1535</ele>
        <time>2024-09-15T14:59:11Z</time>
      </trkpt>
      <trkpt lat="42.49339" lon="2.13489">
        <ele>1533</ele>
        <time>2024-09-15T14:59:14Z</time>
      </trkpt>
      <trkpt lat="42.49339" lon="2.13494">
        <ele>1533</ele>
        <time>2024-09-15T14:59:17Z</time>
      </trkpt>
      <trkpt lat="42.49339" lon="2.13499">
        <ele>1533</ele>
        <time>2024-09-15T14:59:20Z</time>
      </trkpt>
      <trkpt lat="42.49339" lon="2.13505">
        <ele>1532</ele>
        <time>2024-09-15T14:59:23Z</time>
      </trkpt>
      <trkpt lat="42.49339" lon="2.1351">
        <ele>1531</ele>
        <time>2024-09-15T14:59:26Z</time>
      </trkpt>
      <trkpt lat="42.49339" lon="2.13514">
        <ele>1531</ele>
        <time>2024-09-15T14:59:28Z</time>
      </trkpt>
      <trkpt lat="42.49339" lon="2.13518">
        <ele>1531</ele>
        <time>2024-09-15T14:59:30Z</time>
      </trkpt>
      <trkpt lat="42.49339" lon="2.13523">
        <ele>1532</ele>
        <time>2024-09-15T14:59:33Z</time>
      </trkpt>
      <trkpt lat="42.49338" lon="2.13528">
        <ele>1531</ele>
        <time>2024-09-15T14:59:36Z</time>
      </trkpt>
      <trkpt lat="42.49338" lon="2.13533">
        <ele>1532</ele>
        <time>2024-09-15T14:59:39Z</time>
      </trkpt>
      <trkpt lat="42.49338" lon="2.13538">
        <ele>1532</ele>
        <time>2024-09-15T14:59:42Z</time>
      </trkpt>
      <trkpt lat="42.49338" lon="2.13543">
        <ele>1532</ele>
        <time>2024-09-15T14:59:45Z</time>
      </trkpt>
      <trkpt lat="42.49339" lon="2.13548">
        <ele>1532</ele>
        <time>2024-09-15T14:59:48Z</time>
      </trkpt>
      <trkpt lat="42.49339" lon="2.13553">
        <ele>1533</ele>
        <time>2024-09-15T14:59:51Z</time>
      </trkpt>
      <trkpt lat="42.4934" lon="2.13558">
        <ele>1533</ele>
        <time>2024-09-15T14:59:54Z</time>
      </trkpt>
      <trkpt lat="42.49341" lon="2.13563">
        <ele>1532</ele>
        <time>2024-09-15T14:59:57Z</time>
      </trkpt>
      <trkpt lat="42.49342" lon="2.13567">
        <ele>1531</ele>
        <time>2024-09-15T14:59:59Z</time>
      </trkpt>
      <trkpt lat="42.49344" lon="2.13572">
        <ele>1530</ele>
        <time>2024-09-15T15:00:02Z</time>
      </trkpt>
      <trkpt lat="42.49344" lon="2.13577">
        <ele>1530</ele>
        <time>2024-09-15T15:00:05Z</time>
      </trkpt>
      <trkpt lat="42.49342" lon="2.13578">
        <ele>1529</ele>
        <time>2024-09-15T15:00:10Z</time>
      </trkpt>
      <trkpt lat="42.49343" lon="2.13581">
        <ele>1527</ele>
        <time>2024-09-15T15:00:13Z</time>
      </trkpt>
      <trkpt lat="42.49345" lon="2.13583">
        <ele>1526</ele>
        <time>2024-09-15T15:00:16Z</time>
      </trkpt>
      <trkpt lat="42.49347" lon="2.13586">
        <ele>1527</ele>
        <time>2024-09-15T15:00:22Z</time>
      </trkpt>
      <trkpt lat="42.4935" lon="2.13587">
        <ele>1527</ele>
        <time>2024-09-15T15:00:25Z</time>
      </trkpt>
      <trkpt lat="42.49354" lon="2.13589">
        <ele>1527</ele>
        <time>2024-09-15T15:00:31Z</time>
      </trkpt>
      <trkpt lat="42.49357" lon="2.13592">
        <ele>1527</ele>
        <time>2024-09-15T15:00:35Z</time>
      </trkpt>
      <trkpt lat="42.49359" lon="2.13594">
        <ele>1527</ele>
        <time>2024-09-15T15:00:38Z</time>
      </trkpt>
      <trkpt lat="42.49362" lon="2.13597">
        <ele>1526</ele>
        <time>2024-09-15T15:00:48Z</time>
      </trkpt>
      <trkpt lat="42.49364" lon="2.136">
        <ele>1526</ele>
        <time>2024-09-15T15:00:51Z</time>
      </trkpt>
      <trkpt lat="42.49366" lon="2.13603">
        <ele>1525</ele>
        <time>2024-09-15T15:00:54Z</time>
      </trkpt>
      <trkpt lat="42.49368" lon="2.13607">
        <ele>1524</ele>
        <time>2024-09-15T15:00:57Z</time>
      </trkpt>
      <trkpt lat="42.4937" lon="2.13611">
        <ele>1524</ele>
        <time>2024-09-15T15:01:00Z</time>
      </trkpt>
      <trkpt lat="42.49371" lon="2.13615">
        <ele>1523</ele>
        <time>2024-09-15T15:01:03Z</time>
      </trkpt>
      <trkpt lat="42.49371" lon="2.1362">
        <ele>1523</ele>
        <time>2024-09-15T15:01:06Z</time>
      </trkpt>
      <trkpt lat="42.49371" lon="2.13625">
        <ele>1524</ele>
        <time>2024-09-15T15:01:08Z</time>
      </trkpt>
      <trkpt lat="42.49369" lon="2.13629">
        <ele>1525</ele>
        <time>2024-09-15T15:01:11Z</time>
      </trkpt>
      <trkpt lat="42.49367" lon="2.13632">
        <ele>1524</ele>
        <time>2024-09-15T15:01:13Z</time>
      </trkpt>
      <trkpt lat="42.49365" lon="2.13634">
        <ele>1522</ele>
        <time>2024-09-15T15:01:16Z</time>
      </trkpt>
      <trkpt lat="42.49362" lon="2.13635">
        <ele>1521</ele>
        <time>2024-09-15T15:01:19Z</time>
      </trkpt>
      <trkpt lat="42.49359" lon="2.13636">
        <ele>1523</ele>
        <time>2024-09-15T15:01:21Z</time>
      </trkpt>
      <trkpt lat="42.49355" lon="2.13637">
        <ele>1523</ele>
        <time>2024-09-15T15:01:24Z</time>
      </trkpt>
      <trkpt lat="42.49352" lon="2.13637">
        <ele>1524</ele>
        <time>2024-09-15T15:01:26Z</time>
      </trkpt>
      <trkpt lat="42.4935" lon="2.13636">
        <ele>1524</ele>
        <time>2024-09-15T15:01:28Z</time>
      </trkpt>
      <trkpt lat="42.49346" lon="2.13634">
        <ele>1523</ele>
        <time>2024-09-15T15:01:31Z</time>
      </trkpt>
      <trkpt lat="42.49343" lon="2.13632">
        <ele>1522</ele>
        <time>2024-09-15T15:01:34Z</time>
      </trkpt>
      <trkpt lat="42.49339" lon="2.13631">
        <ele>1522</ele>
        <time>2024-09-15T15:01:37Z</time>
      </trkpt>
      <trkpt lat="42.49337" lon="2.13629">
        <ele>1522</ele>
        <time>2024-09-15T15:01:39Z</time>
      </trkpt>
      <trkpt lat="42.49334" lon="2.13628">
        <ele>1521</ele>
        <time>2024-09-15T15:01:41Z</time>
      </trkpt>
      <trkpt lat="42.49331" lon="2.13626">
        <ele>1522</ele>
        <time>2024-09-15T15:01:43Z</time>
      </trkpt>
      <trkpt lat="42.49328" lon="2.13626">
        <ele>1523</ele>
        <time>2024-09-15T15:01:45Z</time>
      </trkpt>
      <trkpt lat="42.49325" lon="2.13625">
        <ele>1523</ele>
        <time>2024-09-15T15:01:47Z</time>
      </trkpt>
      <trkpt lat="42.49322" lon="2.13624">
        <ele>1523</ele>
        <time>2024-09-15T15:01:50Z</time>
      </trkpt>
      <trkpt lat="42.49319" lon="2.13625">
        <ele>1522</ele>
        <time>2024-09-15T15:01:53Z</time>
      </trkpt>
      <trkpt lat="42.49316" lon="2.13625">
        <ele>1523</ele>
        <time>2024-09-15T15:01:55Z</time>
      </trkpt>
      <trkpt lat="42.49313" lon="2.13626">
        <ele>1523</ele>
        <time>2024-09-15T15:01:57Z</time>
      </trkpt>
      <trkpt lat="42.49309" lon="2.13627">
        <ele>1521</ele>
        <time>2024-09-15T15:02:00Z</time>
      </trkpt>
      <trkpt lat="42.49306" lon="2.13628">
        <ele>1519</ele>
        <time>2024-09-15T15:02:03Z</time>
      </trkpt>
      <trkpt lat="42.49303" lon="2.1363">
        <ele>1521</ele>
        <time>2024-09-15T15:02:05Z</time>
      </trkpt>
      <trkpt lat="42.493" lon="2.13632">
        <ele>1521</ele>
        <time>2024-09-15T15:02:07Z</time>
      </trkpt>
      <trkpt lat="42.49298" lon="2.13633">
        <ele>1521</ele>
        <time>2024-09-15T15:02:09Z</time>
      </trkpt>
      <trkpt lat="42.49295" lon="2.13635">
        <ele>1520</ele>
        <time>2024-09-15T15:02:11Z</time>
      </trkpt>
      <trkpt lat="42.49292" lon="2.13636">
        <ele>1520</ele>
        <time>2024-09-15T15:02:13Z</time>
      </trkpt>
      <trkpt lat="42.4929" lon="2.13638">
        <ele>1521</ele>
        <time>2024-09-15T15:02:15Z</time>
      </trkpt>
      <trkpt lat="42.49288" lon="2.1364">
        <ele>1521</ele>
        <time>2024-09-15T15:02:17Z</time>
      </trkpt>
      <trkpt lat="42.49285" lon="2.13641">
        <ele>1521</ele>
        <time>2024-09-15T15:02:19Z</time>
      </trkpt>
      <trkpt lat="42.49282" lon="2.13642">
        <ele>1520</ele>
        <time>2024-09-15T15:02:21Z</time>
      </trkpt>
      <trkpt lat="42.49279" lon="2.13643">
        <ele>1521</ele>
        <time>2024-09-15T15:02:23Z</time>
      </trkpt>
      <trkpt lat="42.49277" lon="2.13645">
        <ele>1520</ele>
        <time>2024-09-15T15:02:26Z</time>
      </trkpt>
      <trkpt lat="42.49273" lon="2.13647">
        <ele>1520</ele>
        <time>2024-09-15T15:02:29Z</time>
      </trkpt>
      <trkpt lat="42.4927" lon="2.13649">
        <ele>1518</ele>
        <time>2024-09-15T15:02:32Z</time>
      </trkpt>
      <trkpt lat="42.49266" lon="2.13651">
        <ele>1517</ele>
        <time>2024-09-15T15:02:35Z</time>
      </trkpt>
      <trkpt lat="42.49263" lon="2.13652">
        <ele>1517</ele>
        <time>2024-09-15T15:02:38Z</time>
      </trkpt>
      <trkpt lat="42.49259" lon="2.13653">
        <ele>1516</ele>
        <time>2024-09-15T15:02:42Z</time>
      </trkpt>
      <trkpt lat="42.49256" lon="2.13654">
        <ele>1516</ele>
        <time>2024-09-15T15:02:45Z</time>
      </trkpt>
      <trkpt lat="42.49253" lon="2.13655">
        <ele>1516</ele>
        <time>2024-09-15T15:02:47Z</time>
      </trkpt>
      <trkpt lat="42.4925" lon="2.13657">
        <ele>1515</ele>
        <time>2024-09-15T15:02:52Z</time>
      </trkpt>
      <trkpt lat="42.49247" lon="2.13657">
        <ele>1514</ele>
        <time>2024-09-15T15:02:54Z</time>
      </trkpt>
      <trkpt lat="42.49244" lon="2.13659">
        <ele>1515</ele>
        <time>2024-09-15T15:02:56Z</time>
      </trkpt>
      <trkpt lat="42.4924" lon="2.1366">
        <ele>1514</ele>
        <time>2024-09-15T15:02:59Z</time>
      </trkpt>
      <trkpt lat="42.49237" lon="2.13661">
        <ele>1514</ele>
        <time>2024-09-15T15:03:01Z</time>
      </trkpt>
      <trkpt lat="42.49234" lon="2.13662">
        <ele>1512</ele>
        <time>2024-09-15T15:03:04Z</time>
      </trkpt>
      <trkpt lat="42.49231" lon="2.13663">
        <ele>1513</ele>
        <time>2024-09-15T15:03:06Z</time>
      </trkpt>
      <trkpt lat="42.49228" lon="2.13664">
        <ele>1512</ele>
        <time>2024-09-15T15:03:09Z</time>
      </trkpt>
      <trkpt lat="42.49225" lon="2.13666">
        <ele>1513</ele>
        <time>2024-09-15T15:03:11Z</time>
      </trkpt>
      <trkpt lat="42.49222" lon="2.13667">
        <ele>1513</ele>
        <time>2024-09-15T15:03:13Z</time>
      </trkpt>
      <trkpt lat="42.49219" lon="2.13669">
        <ele>1513</ele>
        <time>2024-09-15T15:03:15Z</time>
      </trkpt>
      <trkpt lat="42.49215" lon="2.13671">
        <ele>1513</ele>
        <time>2024-09-15T15:03:18Z</time>
      </trkpt>
      <trkpt lat="42.49212" lon="2.13672">
        <ele>1513</ele>
        <time>2024-09-15T15:03:20Z</time>
      </trkpt>
      <trkpt lat="42.49209" lon="2.13673">
        <ele>1512</ele>
        <time>2024-09-15T15:03:23Z</time>
      </trkpt>
      <trkpt lat="42.49205" lon="2.13675">
        <ele>1513</ele>
        <time>2024-09-15T15:03:26Z</time>
      </trkpt>
      <trkpt lat="42.49202" lon="2.13677">
        <ele>1513</ele>
        <time>2024-09-15T15:03:29Z</time>
      </trkpt>
      <trkpt lat="42.49199" lon="2.13679">
        <ele>1514</ele>
        <time>2024-09-15T15:03:31Z</time>
      </trkpt>
      <trkpt lat="42.49196" lon="2.1368">
        <ele>1514</ele>
        <time>2024-09-15T15:03:33Z</time>
      </trkpt>
      <trkpt lat="42.49194" lon="2.13683">
        <ele>1516</ele>
        <time>2024-09-15T15:03:35Z</time>
      </trkpt>
      <trkpt lat="42.49191" lon="2.13685">
        <ele>1514</ele>
        <time>2024-09-15T15:03:37Z</time>
      </trkpt>
      <trkpt lat="42.49189" lon="2.13688">
        <ele>1513</ele>
        <time>2024-09-15T15:03:39Z</time>
      </trkpt>
      <trkpt lat="42.49188" lon="2.13691">
        <ele>1513</ele>
        <time>2024-09-15T15:03:41Z</time>
      </trkpt>
      <trkpt lat="42.49186" lon="2.13694">
        <ele>1511</ele>
        <time>2024-09-15T15:03:43Z</time>
      </trkpt>
      <trkpt lat="42.49184" lon="2.13698">
        <ele>1512</ele>
        <time>2024-09-15T15:03:45Z</time>
      </trkpt>
      <trkpt lat="42.49183" lon="2.13701">
        <ele>1512</ele>
        <time>2024-09-15T15:03:47Z</time>
      </trkpt>
      <trkpt lat="42.49182" lon="2.13704">
        <ele>1512</ele>
        <time>2024-09-15T15:03:49Z</time>
      </trkpt>
      <trkpt lat="42.49181" lon="2.13709">
        <ele>1513</ele>
        <time>2024-09-15T15:03:52Z</time>
      </trkpt>
      <trkpt lat="42.49181" lon="2.13713">
        <ele>1513</ele>
        <time>2024-09-15T15:03:54Z</time>
      </trkpt>
      <trkpt lat="42.49181" lon="2.13718">
        <ele>1512</ele>
        <time>2024-09-15T15:03:57Z</time>
      </trkpt>
      <trkpt lat="42.49181" lon="2.13723">
        <ele>1512</ele>
        <time>2024-09-15T15:04:00Z</time>
      </trkpt>
      <trkpt lat="42.49182" lon="2.13728">
        <ele>1512</ele>
        <time>2024-09-15T15:04:03Z</time>
      </trkpt>
      <trkpt lat="42.49183" lon="2.13732">
        <ele>1511</ele>
        <time>2024-09-15T15:04:05Z</time>
      </trkpt>
      <trkpt lat="42.49185" lon="2.13736">
        <ele>1511</ele>
        <time>2024-09-15T15:04:07Z</time>
      </trkpt>
      <trkpt lat="42.49187" lon="2.13739">
        <ele>1509</ele>
        <time>2024-09-15T15:04:10Z</time>
      </trkpt>
      <trkpt lat="42.49189" lon="2.13743">
        <ele>1510</ele>
        <time>2024-09-15T15:04:13Z</time>
      </trkpt>
      <trkpt lat="42.49189" lon="2.13748">
        <ele>1509</ele>
        <time>2024-09-15T15:04:16Z</time>
      </trkpt>
      <trkpt lat="42.49191" lon="2.13753">
        <ele>1509</ele>
        <time>2024-09-15T15:04:19Z</time>
      </trkpt>
      <trkpt lat="42.49191" lon="2.13757">
        <ele>1511</ele>
        <time>2024-09-15T15:04:22Z</time>
      </trkpt>
      <trkpt lat="42.49192" lon="2.13761">
        <ele>1514</ele>
        <time>2024-09-15T15:04:25Z</time>
      </trkpt>
      <trkpt lat="42.49194" lon="2.13764">
        <ele>1513</ele>
        <time>2024-09-15T15:04:29Z</time>
      </trkpt>
      <trkpt lat="42.49195" lon="2.13768">
        <ele>1512</ele>
        <time>2024-09-15T15:04:33Z</time>
      </trkpt>
      <trkpt lat="42.49196" lon="2.13771">
        <ele>1512</ele>
        <time>2024-09-15T15:04:36Z</time>
      </trkpt>
      <trkpt lat="42.49195" lon="2.13775">
        <ele>1510</ele>
        <time>2024-09-15T15:04:39Z</time>
      </trkpt>
      <trkpt lat="42.49193" lon="2.13777">
        <ele>1512</ele>
        <time>2024-09-15T15:04:46Z</time>
      </trkpt>
      <trkpt lat="42.4919" lon="2.13777">
        <ele>1512</ele>
        <time>2024-09-15T15:04:49Z</time>
      </trkpt>
      <trkpt lat="42.49187" lon="2.13776">
        <ele>1514</ele>
        <time>2024-09-15T15:04:53Z</time>
      </trkpt>
      <trkpt lat="42.49184" lon="2.13776">
        <ele>1514</ele>
        <time>2024-09-15T15:04:56Z</time>
      </trkpt>
      <trkpt lat="42.49181" lon="2.13776">
        <ele>1515</ele>
        <time>2024-09-15T15:04:59Z</time>
      </trkpt>
      <trkpt lat="42.49178" lon="2.13777">
        <ele>1515</ele>
        <time>2024-09-15T15:05:03Z</time>
      </trkpt>
      <trkpt lat="42.49174" lon="2.13778">
        <ele>1516</ele>
        <time>2024-09-15T15:05:07Z</time>
      </trkpt>
      <trkpt lat="42.49171" lon="2.13779">
        <ele>1516</ele>
        <time>2024-09-15T15:05:10Z</time>
      </trkpt>
      <trkpt lat="42.49168" lon="2.1378">
        <ele>1516</ele>
        <time>2024-09-15T15:05:14Z</time>
      </trkpt>
      <trkpt lat="42.49165" lon="2.13781">
        <ele>1517</ele>
        <time>2024-09-15T15:05:18Z</time>
      </trkpt>
      <trkpt lat="42.49162" lon="2.13782">
        <ele>1517</ele>
        <time>2024-09-15T15:05:20Z</time>
      </trkpt>
      <trkpt lat="42.49159" lon="2.13784">
        <ele>1518</ele>
        <time>2024-09-15T15:05:24Z</time>
      </trkpt>
      <trkpt lat="42.49156" lon="2.13785">
        <ele>1519</ele>
        <time>2024-09-15T15:05:28Z</time>
      </trkpt>
      <trkpt lat="42.49152" lon="2.13787">
        <ele>1519</ele>
        <time>2024-09-15T15:05:31Z</time>
      </trkpt>
      <trkpt lat="42.49149" lon="2.13789">
        <ele>1519</ele>
        <time>2024-09-15T15:05:35Z</time>
      </trkpt>
      <trkpt lat="42.49146" lon="2.13791">
        <ele>1518</ele>
        <time>2024-09-15T15:05:39Z</time>
      </trkpt>
      <trkpt lat="42.49144" lon="2.13794">
        <ele>1519</ele>
        <time>2024-09-15T15:05:42Z</time>
      </trkpt>
      <trkpt lat="42.49141" lon="2.13797">
        <ele>1519</ele>
        <time>2024-09-15T15:05:45Z</time>
      </trkpt>
      <trkpt lat="42.49139" lon="2.138">
        <ele>1520</ele>
        <time>2024-09-15T15:05:48Z</time>
      </trkpt>
      <trkpt lat="42.49137" lon="2.13803">
        <ele>1521</ele>
        <time>2024-09-15T15:05:51Z</time>
      </trkpt>
      <trkpt lat="42.49135" lon="2.13805">
        <ele>1521</ele>
        <time>2024-09-15T15:05:54Z</time>
      </trkpt>
      <trkpt lat="42.49132" lon="2.13807">
        <ele>1522</ele>
        <time>2024-09-15T15:05:57Z</time>
      </trkpt>
      <trkpt lat="42.4913" lon="2.1381">
        <ele>1523</ele>
        <time>2024-09-15T15:06:00Z</time>
      </trkpt>
      <trkpt lat="42.49127" lon="2.13812">
        <ele>1523</ele>
        <time>2024-09-15T15:06:03Z</time>
      </trkpt>
      <trkpt lat="42.49125" lon="2.13814">
        <ele>1523</ele>
        <time>2024-09-15T15:06:06Z</time>
      </trkpt>
      <trkpt lat="42.49123" lon="2.13816">
        <ele>1524</ele>
        <time>2024-09-15T15:06:09Z</time>
      </trkpt>
      <trkpt lat="42.4912" lon="2.13818">
        <ele>1525</ele>
        <time>2024-09-15T15:06:12Z</time>
      </trkpt>
      <trkpt lat="42.49117" lon="2.1382">
        <ele>1525</ele>
        <time>2024-09-15T15:06:15Z</time>
      </trkpt>
      <trkpt lat="42.49115" lon="2.13822">
        <ele>1526</ele>
        <time>2024-09-15T15:06:18Z</time>
      </trkpt>
      <trkpt lat="42.49112" lon="2.13825">
        <ele>1527</ele>
        <time>2024-09-15T15:06:21Z</time>
      </trkpt>
      <trkpt lat="42.49109" lon="2.13827">
        <ele>1528</ele>
        <time>2024-09-15T15:06:25Z</time>
      </trkpt>
      <trkpt lat="42.49107" lon="2.1383">
        <ele>1528</ele>
        <time>2024-09-15T15:06:28Z</time>
      </trkpt>
      <trkpt lat="42.49104" lon="2.13833">
        <ele>1530</ele>
        <time>2024-09-15T15:06:31Z</time>
      </trkpt>
      <trkpt lat="42.49102" lon="2.13835">
        <ele>1530</ele>
        <time>2024-09-15T15:06:35Z</time>
      </trkpt>
      <trkpt lat="42.49099" lon="2.13834">
        <ele>1531</ele>
        <time>2024-09-15T15:06:45Z</time>
      </trkpt>
      <trkpt lat="42.491" lon="2.13832">
        <ele>1533</ele>
        <time>2024-09-15T15:06:57Z</time>
      </trkpt>
      <trkpt lat="42.491" lon="2.13834">
        <ele>1534</ele>
        <time>2024-09-15T15:06:59Z</time>
      </trkpt>
      <trkpt lat="42.49101" lon="2.13832">
        <ele>1535</ele>
        <time>2024-09-15T15:07:00Z</time>
      </trkpt>
      <trkpt lat="42.49102" lon="2.13829">
        <ele>1535</ele>
        <time>2024-09-15T15:07:05Z</time>
      </trkpt>
      <trkpt lat="42.49102" lon="2.1383">
        <ele>1534</ele>
        <time>2024-09-15T15:07:18Z</time>
      </trkpt>
      <trkpt lat="42.49103" lon="2.13829">
        <ele>1534</ele>
        <time>2024-09-15T15:07:37Z</time>
      </trkpt>
      <trkpt lat="42.49101" lon="2.13827">
        <ele>1535</ele>
        <time>2024-09-15T15:07:41Z</time>
      </trkpt>
      <trkpt lat="42.491" lon="2.13824">
        <ele>1535</ele>
        <time>2024-09-15T15:07:42Z</time>
      </trkpt>
      <trkpt lat="42.49098" lon="2.13823">
        <ele>1536</ele>
        <time>2024-09-15T15:07:44Z</time>
      </trkpt>
      <trkpt lat="42.49094" lon="2.13822">
        <ele>1536</ele>
        <time>2024-09-15T15:07:45Z</time>
      </trkpt>
      <trkpt lat="42.49092" lon="2.1382">
        <ele>1537</ele>
        <time>2024-09-15T15:07:46Z</time>
      </trkpt>
      <trkpt lat="42.49091" lon="2.13814">
        <ele>1536</ele>
        <time>2024-09-15T15:07:48Z</time>
      </trkpt>
      <trkpt lat="42.49092" lon="2.13811">
        <ele>1535</ele>
        <time>2024-09-15T15:07:51Z</time>
      </trkpt>
      <trkpt lat="42.49094" lon="2.13809">
        <ele>1535</ele>
        <time>2024-09-15T15:07:55Z</time>
      </trkpt>
      <trkpt lat="42.49097" lon="2.13809">
        <ele>1535</ele>
        <time>2024-09-15T15:07:59Z</time>
      </trkpt>
      <trkpt lat="42.49099" lon="2.13812">
        <ele>1533</ele>
        <time>2024-09-15T15:08:22Z</time>
      </trkpt>
      <trkpt lat="42.49098" lon="2.13814">
        <ele>1532</ele>
        <time>2024-09-15T15:08:34Z</time>
      </trkpt>
      <trkpt lat="42.491" lon="2.13812">
        <ele>1531</ele>
        <time>2024-09-15T15:09:10Z</time>
      </trkpt>
      <trkpt lat="42.49104" lon="2.13812">
        <ele>1531</ele>
        <time>2024-09-15T15:09:33Z</time>
      </trkpt>
      <trkpt lat="42.49104" lon="2.13814">
        <ele>1531</ele>
        <time>2024-09-15T15:09:39Z</time>
      </trkpt>
      <trkpt lat="42.49105" lon="2.13813">
        <ele>1531</ele>
        <time>2024-09-15T15:09:40Z</time>
      </trkpt>
      <trkpt lat="42.49103" lon="2.13813">
        <ele>1531</ele>
        <time>2024-09-15T15:09:41Z</time>
      </trkpt>
      <trkpt lat="42.49101" lon="2.13811">
        <ele>1532</ele>
        <time>2024-09-15T15:09:42Z</time>
      </trkpt>
      <trkpt lat="42.491" lon="2.13808">
        <ele>1532</ele>
        <time>2024-09-15T15:09:43Z</time>
      </trkpt>
      <trkpt lat="42.49098" lon="2.13805">
        <ele>1533</ele>
        <time>2024-09-15T15:09:45Z</time>
      </trkpt>
      <trkpt lat="42.49096" lon="2.13802">
        <ele>1534</ele>
        <time>2024-09-15T15:09:46Z</time>
      </trkpt>
      <trkpt lat="42.49095" lon="2.13803">
        <ele>1533</ele>
        <time>2024-09-15T15:10:01Z</time>
      </trkpt>
      <trkpt lat="42.49094" lon="2.13806">
        <ele>1534</ele>
        <time>2024-09-15T15:10:30Z</time>
      </trkpt>
      <trkpt lat="42.49094" lon="2.13804">
        <ele>1533</ele>
        <time>2024-09-15T15:10:37Z</time>
      </trkpt>
      <trkpt lat="42.49093" lon="2.13805">
        <ele>1530</ele>
        <time>2024-09-15T15:11:09Z</time>
      </trkpt>
      <trkpt lat="42.4909" lon="2.13805">
        <ele>1533</ele>
        <time>2024-09-15T15:11:12Z</time>
      </trkpt>
      <trkpt lat="42.49089" lon="2.13807">
        <ele>1535</ele>
        <time>2024-09-15T15:11:50Z</time>
      </trkpt>
      <trkpt lat="42.49089" lon="2.13811">
        <ele>1535</ele>
        <time>2024-09-15T15:11:59Z</time>
      </trkpt>
      <trkpt lat="42.49089" lon="2.13815">
        <ele>1534</ele>
        <time>2024-09-15T15:12:04Z</time>
      </trkpt>
      <trkpt lat="42.49091" lon="2.13818">
        <ele>1533</ele>
        <time>2024-09-15T15:12:08Z</time>
      </trkpt>
      <trkpt lat="42.49092" lon="2.13822">
        <ele>1532</ele>
        <time>2024-09-15T15:12:14Z</time>
      </trkpt>
      <trkpt lat="42.49093" lon="2.13827">
        <ele>1533</ele>
        <time>2024-09-15T15:12:17Z</time>
      </trkpt>
      <trkpt lat="42.49094" lon="2.13829">
        <ele>1533</ele>
        <time>2024-09-15T15:12:23Z</time>
      </trkpt>
      <trkpt lat="42.49097" lon="2.1383">
        <ele>1533</ele>
        <time>2024-09-15T15:12:25Z</time>
      </trkpt>
      <trkpt lat="42.49099" lon="2.1383">
        <ele>1534</ele>
        <time>2024-09-15T15:12:53Z</time>
      </trkpt>
      <trkpt lat="42.49101" lon="2.13828">
        <ele>1534</ele>
        <time>2024-09-15T15:12:58Z</time>
      </trkpt>
      <trkpt lat="42.491" lon="2.13828">
        <ele>1535</ele>
        <time>2024-09-15T15:13:08Z</time>
      </trkpt>
      <trkpt lat="42.49102" lon="2.13828">
        <ele>1535</ele>
        <time>2024-09-15T15:13:14Z</time>
      </trkpt>
      <trkpt lat="42.49093" lon="2.13803">
        <ele>1539</ele>
        <time>2024-09-15T15:59:32Z</time>
      </trkpt>
      <trkpt lat="42.49095" lon="2.13803">
        <ele>1535</ele>
        <time>2024-09-15T15:59:33Z</time>
      </trkpt>
      <trkpt lat="42.49097" lon="2.13805">
        <ele>1533</ele>
        <time>2024-09-15T15:59:36Z</time>
      </trkpt>
      <trkpt lat="42.49099" lon="2.13807">
        <ele>1530</ele>
        <time>2024-09-15T16:04:14Z</time>
      </trkpt>
      <trkpt lat="42.491" lon="2.13811">
        <ele>1530</ele>
        <time>2024-09-15T16:11:51Z</time>
      </trkpt>
      <trkpt lat="42.49099" lon="2.13807">
        <ele>1530</ele>
        <time>2024-09-15T16:11:53Z</time>
      </trkpt>
      <trkpt lat="42.49099" lon="2.13808">
        <ele>1530</ele>
        <time>2024-09-15T16:11:55Z</time>
      </trkpt>
      <trkpt lat="42.49097" lon="2.13808">
        <ele>1530</ele>
        <time>2024-09-15T16:11:57Z</time>
      </trkpt>
      <trkpt lat="42.49094" lon="2.13807">
        <ele>1532</ele>
        <time>2024-09-15T16:12:01Z</time>
      </trkpt>
      <trkpt lat="42.49092" lon="2.13808">
        <ele>1534</ele>
        <time>2024-09-15T16:12:04Z</time>
      </trkpt>
      <trkpt lat="42.4909" lon="2.13811">
        <ele>1534</ele>
        <time>2024-09-15T16:12:08Z</time>
      </trkpt>
      <trkpt lat="42.4909" lon="2.13815">
        <ele>1533</ele>
        <time>2024-09-15T16:12:13Z</time>
      </trkpt>
      <trkpt lat="42.49088" lon="2.13817">
        <ele>1533</ele>
        <time>2024-09-15T16:12:18Z</time>
      </trkpt>
      <trkpt lat="42.49088" lon="2.1382">
        <ele>1531</ele>
        <time>2024-09-15T16:12:22Z</time>
      </trkpt>
      <trkpt lat="42.49087" lon="2.13823">
        <ele>1532</ele>
        <time>2024-09-15T16:12:26Z</time>
      </trkpt>
      <trkpt lat="42.49088" lon="2.13823">
        <ele>1533</ele>
        <time>2024-09-15T16:12:38Z</time>
      </trkpt>
      <trkpt lat="42.4909" lon="2.13823">
        <ele>1533</ele>
        <time>2024-09-15T16:12:41Z</time>
      </trkpt>
      <trkpt lat="42.4909" lon="2.13825">
        <ele>1534</ele>
        <time>2024-09-15T16:12:46Z</time>
      </trkpt>
      <trkpt lat="42.49092" lon="2.13828">
        <ele>1533</ele>
        <time>2024-09-15T16:12:47Z</time>
      </trkpt>
      <trkpt lat="42.49093" lon="2.13833">
        <ele>1533</ele>
        <time>2024-09-15T16:12:51Z</time>
      </trkpt>
      <trkpt lat="42.49093" lon="2.13837">
        <ele>1532</ele>
        <time>2024-09-15T16:13:14Z</time>
      </trkpt>
      <trkpt lat="42.49093" lon="2.13836">
        <ele>1534</ele>
        <time>2024-09-15T16:17:41Z</time>
      </trkpt>
      <trkpt lat="42.49088" lon="2.1382">
        <ele>1537</ele>
        <time>2024-09-16T06:32:44Z</time>
      </trkpt>
      <trkpt lat="42.49092" lon="2.13823">
        <ele>1548</ele>
        <time>2024-09-16T06:33:52Z</time>
      </trkpt>
      <trkpt lat="42.4909" lon="2.13825">
        <ele>1536</ele>
        <time>2024-09-16T06:33:53Z</time>
      </trkpt>
      <trkpt lat="42.49088" lon="2.13827">
        <ele>1535</ele>
        <time>2024-09-16T06:33:54Z</time>
      </trkpt>
      <trkpt lat="42.49089" lon="2.13826">
        <ele>1538</ele>
        <time>2024-09-16T06:33:56Z</time>
      </trkpt>
      <trkpt lat="42.49091" lon="2.13827">
        <ele>1534</ele>
        <time>2024-09-16T06:34:11Z</time>
      </trkpt>
      <trkpt lat="42.49092" lon="2.13831">
        <ele>1532</ele>
        <time>2024-09-16T06:34:18Z</time>
      </trkpt>
      <trkpt lat="42.49094" lon="2.13835">
        <ele>1531</ele>
        <time>2024-09-16T06:34:21Z</time>
      </trkpt>
      <trkpt lat="42.491" lon="2.13836">
        <ele>1535</ele>
        <time>2024-09-16T06:34:25Z</time>
      </trkpt>
      <trkpt lat="42.49103" lon="2.1384">
        <ele>1535</ele>
        <time>2024-09-16T06:34:32Z</time>
      </trkpt>
      <trkpt lat="42.49104" lon="2.13844">
        <ele>1535</ele>
        <time>2024-09-16T06:34:35Z</time>
      </trkpt>
      <trkpt lat="42.49103" lon="2.13848">
        <ele>1535</ele>
        <time>2024-09-16T06:34:36Z</time>
      </trkpt>
      <trkpt lat="42.49103" lon="2.13852">
        <ele>1533</ele>
        <time>2024-09-16T06:34:39Z</time>
      </trkpt>
      <trkpt lat="42.49103" lon="2.13856">
        <ele>1532</ele>
        <time>2024-09-16T06:34:42Z</time>
      </trkpt>
      <trkpt lat="42.49102" lon="2.1386">
        <ele>1532</ele>
        <time>2024-09-16T06:34:45Z</time>
      </trkpt>
      <trkpt lat="42.49101" lon="2.13864">
        <ele>1531</ele>
        <time>2024-09-16T06:34:48Z</time>
      </trkpt>
      <trkpt lat="42.491" lon="2.13868">
        <ele>1531</ele>
        <time>2024-09-16T06:34:51Z</time>
      </trkpt>
      <trkpt lat="42.491" lon="2.13873">
        <ele>1531</ele>
        <time>2024-09-16T06:34:54Z</time>
      </trkpt>
      <trkpt lat="42.491" lon="2.13877">
        <ele>1531</ele>
        <time>2024-09-16T06:34:57Z</time>
      </trkpt>
      <trkpt lat="42.49101" lon="2.13881">
        <ele>1531</ele>
        <time>2024-09-16T06:35:03Z</time>
      </trkpt>
      <trkpt lat="42.49101" lon="2.13886">
        <ele>1532</ele>
        <time>2024-09-16T06:35:05Z</time>
      </trkpt>
      <trkpt lat="42.49102" lon="2.13886">
        <ele>1531</ele>
        <time>2024-09-16T06:35:09Z</time>
      </trkpt>
      <trkpt lat="42.49102" lon="2.13883">
        <ele>1530</ele>
        <time>2024-09-16T06:35:11Z</time>
      </trkpt>
      <trkpt lat="42.49102" lon="2.13879">
        <ele>1530</ele>
        <time>2024-09-16T06:35:14Z</time>
      </trkpt>
      <trkpt lat="42.49101" lon="2.13875">
        <ele>1529</ele>
        <time>2024-09-16T06:35:18Z</time>
      </trkpt>
      <trkpt lat="42.491" lon="2.13876">
        <ele>1530</ele>
        <time>2024-09-16T06:35:33Z</time>
      </trkpt>
      <trkpt lat="42.491" lon="2.1388">
        <ele>1531</ele>
        <time>2024-09-16T06:35:35Z</time>
      </trkpt>
      <trkpt lat="42.49099" lon="2.13884">
        <ele>1531</ele>
        <time>2024-09-16T06:35:37Z</time>
      </trkpt>
      <trkpt lat="42.49099" lon="2.13889">
        <ele>1531</ele>
        <time>2024-09-16T06:35:40Z</time>
      </trkpt>
      <trkpt lat="42.491" lon="2.13893">
        <ele>1532</ele>
        <time>2024-09-16T06:35:43Z</time>
      </trkpt>
      <trkpt lat="42.49101" lon="2.13897">
        <ele>1533</ele>
        <time>2024-09-16T06:35:46Z</time>
      </trkpt>
      <trkpt lat="42.49102" lon="2.13901">
        <ele>1533</ele>
        <time>2024-09-16T06:35:49Z</time>
      </trkpt>
      <trkpt lat="42.49103" lon="2.13906">
        <ele>1533</ele>
        <time>2024-09-16T06:35:55Z</time>
      </trkpt>
      <trkpt lat="42.49104" lon="2.1391">
        <ele>1532</ele>
        <time>2024-09-16T06:35:57Z</time>
      </trkpt>
      <trkpt lat="42.49105" lon="2.13915">
        <ele>1532</ele>
        <time>2024-09-16T06:36:00Z</time>
      </trkpt>
      <trkpt lat="42.49105" lon="2.13919">
        <ele>1532</ele>
        <time>2024-09-16T06:36:02Z</time>
      </trkpt>
      <trkpt lat="42.49106" lon="2.13924">
        <ele>1532</ele>
        <time>2024-09-16T06:36:06Z</time>
      </trkpt>
      <trkpt lat="42.49106" lon="2.1393">
        <ele>1533</ele>
        <time>2024-09-16T06:36:09Z</time>
      </trkpt>
      <trkpt lat="42.49107" lon="2.13934">
        <ele>1531</ele>
        <time>2024-09-16T06:36:31Z</time>
      </trkpt>
      <trkpt lat="42.49107" lon="2.13939">
        <ele>1531</ele>
        <time>2024-09-16T06:36:34Z</time>
      </trkpt>
      <trkpt lat="42.49107" lon="2.13944">
        <ele>1532</ele>
        <time>2024-09-16T06:36:37Z</time>
      </trkpt>
      <trkpt lat="42.49107" lon="2.13949">
        <ele>1531</ele>
        <time>2024-09-16T06:36:40Z</time>
      </trkpt>
      <trkpt lat="42.49107" lon="2.13954">
        <ele>1531</ele>
        <time>2024-09-16T06:36:41Z</time>
      </trkpt>
      <trkpt lat="42.49108" lon="2.13958">
        <ele>1531</ele>
        <time>2024-09-16T06:36:43Z</time>
      </trkpt>
      <trkpt lat="42.49108" lon="2.13963">
        <ele>1531</ele>
        <time>2024-09-16T06:36:47Z</time>
      </trkpt>
      <trkpt lat="42.49108" lon="2.13968">
        <ele>1531</ele>
        <time>2024-09-16T06:36:50Z</time>
      </trkpt>
      <trkpt lat="42.49108" lon="2.13973">
        <ele>1532</ele>
        <time>2024-09-16T06:36:54Z</time>
      </trkpt>
      <trkpt lat="42.49108" lon="2.13977">
        <ele>1531</ele>
        <time>2024-09-16T06:36:56Z</time>
      </trkpt>
      <trkpt lat="42.49109" lon="2.13982">
        <ele>1531</ele>
        <time>2024-09-16T06:36:59Z</time>
      </trkpt>
      <trkpt lat="42.49109" lon="2.13987">
        <ele>1532</ele>
        <time>2024-09-16T06:37:02Z</time>
      </trkpt>
      <trkpt lat="42.4911" lon="2.13992">
        <ele>1532</ele>
        <time>2024-09-16T06:37:04Z</time>
      </trkpt>
      <trkpt lat="42.4911" lon="2.13996">
        <ele>1533</ele>
        <time>2024-09-16T06:37:07Z</time>
      </trkpt>
      <trkpt lat="42.4911" lon="2.14001">
        <ele>1533</ele>
        <time>2024-09-16T06:37:09Z</time>
      </trkpt>
      <trkpt lat="42.49111" lon="2.14005">
        <ele>1534</ele>
        <time>2024-09-16T06:37:12Z</time>
      </trkpt>
      <trkpt lat="42.49112" lon="2.14009">
        <ele>1534</ele>
        <time>2024-09-16T06:37:15Z</time>
      </trkpt>
      <trkpt lat="42.49113" lon="2.14014">
        <ele>1535</ele>
        <time>2024-09-16T06:37:18Z</time>
      </trkpt>
      <trkpt lat="42.49113" lon="2.14019">
        <ele>1536</ele>
        <time>2024-09-16T06:37:21Z</time>
      </trkpt>
      <trkpt lat="42.49113" lon="2.14023">
        <ele>1536</ele>
        <time>2024-09-16T06:37:24Z</time>
      </trkpt>
      <trkpt lat="42.49114" lon="2.14027">
        <ele>1536</ele>
        <time>2024-09-16T06:37:26Z</time>
      </trkpt>
      <trkpt lat="42.49113" lon="2.14032">
        <ele>1537</ele>
        <time>2024-09-16T06:37:29Z</time>
      </trkpt>
      <trkpt lat="42.49113" lon="2.14036">
        <ele>1538</ele>
        <time>2024-09-16T06:37:32Z</time>
      </trkpt>
      <trkpt lat="42.49114" lon="2.1404">
        <ele>1539</ele>
        <time>2024-09-16T06:37:35Z</time>
      </trkpt>
      <trkpt lat="42.49114" lon="2.14045">
        <ele>1539</ele>
        <time>2024-09-16T06:37:38Z</time>
      </trkpt>
      <trkpt lat="42.49115" lon="2.14049">
        <ele>1539</ele>
        <time>2024-09-16T06:37:42Z</time>
      </trkpt>
      <trkpt lat="42.49115" lon="2.14054">
        <ele>1540</ele>
        <time>2024-09-16T06:37:45Z</time>
      </trkpt>
      <trkpt lat="42.49115" lon="2.14058">
        <ele>1540</ele>
        <time>2024-09-16T06:37:48Z</time>
      </trkpt>
      <trkpt lat="42.49115" lon="2.14063">
        <ele>1540</ele>
        <time>2024-09-16T06:37:51Z</time>
      </trkpt>
      <trkpt lat="42.49115" lon="2.14067">
        <ele>1541</ele>
        <time>2024-09-16T06:37:55Z</time>
      </trkpt>
      <trkpt lat="42.49114" lon="2.14071">
        <ele>1542</ele>
        <time>2024-09-16T06:37:58Z</time>
      </trkpt>
      <trkpt lat="42.49114" lon="2.14075">
        <ele>1542</ele>
        <time>2024-09-16T06:38:01Z</time>
      </trkpt>
      <trkpt lat="42.49113" lon="2.14079">
        <ele>1542</ele>
        <time>2024-09-16T06:38:04Z</time>
      </trkpt>
      <trkpt lat="42.49111" lon="2.14082">
        <ele>1543</ele>
        <time>2024-09-16T06:38:09Z</time>
      </trkpt>
      <trkpt lat="42.49111" lon="2.14086">
        <ele>1542</ele>
        <time>2024-09-16T06:38:13Z</time>
      </trkpt>
      <trkpt lat="42.4911" lon="2.1409">
        <ele>1542</ele>
        <time>2024-09-16T06:38:16Z</time>
      </trkpt>
      <trkpt lat="42.4911" lon="2.14095">
        <ele>1544</ele>
        <time>2024-09-16T06:38:19Z</time>
      </trkpt>
      <trkpt lat="42.4911" lon="2.14098">
        <ele>1544</ele>
        <time>2024-09-16T06:38:22Z</time>
      </trkpt>
      <trkpt lat="42.4911" lon="2.14102">
        <ele>1544</ele>
        <time>2024-09-16T06:38:25Z</time>
      </trkpt>
      <trkpt lat="42.49109" lon="2.14106">
        <ele>1545</ele>
        <time>2024-09-16T06:38:29Z</time>
      </trkpt>
      <trkpt lat="42.49108" lon="2.14109">
        <ele>1546</ele>
        <time>2024-09-16T06:38:32Z</time>
      </trkpt>
      <trkpt lat="42.49105" lon="2.1411">
        <ele>1546</ele>
        <time>2024-09-16T06:38:36Z</time>
      </trkpt>
      <trkpt lat="42.49102" lon="2.14111">
        <ele>1546</ele>
        <time>2024-09-16T06:38:41Z</time>
      </trkpt>
      <trkpt lat="42.491" lon="2.14112">
        <ele>1548</ele>
        <time>2024-09-16T06:38:49Z</time>
      </trkpt>
      <trkpt lat="42.49096" lon="2.14113">
        <ele>1548</ele>
        <time>2024-09-16T06:38:53Z</time>
      </trkpt>
      <trkpt lat="42.49093" lon="2.14114">
        <ele>1549</ele>
        <time>2024-09-16T06:38:57Z</time>
      </trkpt>
      <trkpt lat="42.4909" lon="2.14115">
        <ele>1550</ele>
        <time>2024-09-16T06:39:01Z</time>
      </trkpt>
      <trkpt lat="42.49086" lon="2.14115">
        <ele>1550</ele>
        <time>2024-09-16T06:39:05Z</time>
      </trkpt>
      <trkpt lat="42.49083" lon="2.14116">
        <ele>1550</ele>
        <time>2024-09-16T06:39:09Z</time>
      </trkpt>
      <trkpt lat="42.4908" lon="2.14116">
        <ele>1550</ele>
        <time>2024-09-16T06:39:12Z</time>
      </trkpt>
      <trkpt lat="42.49077" lon="2.14117">
        <ele>1551</ele>
        <time>2024-09-16T06:39:16Z</time>
      </trkpt>
      <trkpt lat="42.49074" lon="2.14118">
        <ele>1552</ele>
        <time>2024-09-16T06:39:20Z</time>
      </trkpt>
      <trkpt lat="42.49072" lon="2.1412">
        <ele>1554</ele>
        <time>2024-09-16T06:39:24Z</time>
      </trkpt>
      <trkpt lat="42.4907" lon="2.14124">
        <ele>1555</ele>
        <time>2024-09-16T06:39:29Z</time>
      </trkpt>
      <trkpt lat="42.49069" lon="2.14128">
        <ele>1555</ele>
        <time>2024-09-16T06:39:33Z</time>
      </trkpt>
      <trkpt lat="42.49069" lon="2.14132">
        <ele>1557</ele>
        <time>2024-09-16T06:39:37Z</time>
      </trkpt>
      <trkpt lat="42.4907" lon="2.14136">
        <ele>1557</ele>
        <time>2024-09-16T06:39:41Z</time>
      </trkpt>
      <trkpt lat="42.4907" lon="2.14141">
        <ele>1557</ele>
        <time>2024-09-16T06:39:46Z</time>
      </trkpt>
      <trkpt lat="42.4907" lon="2.14145">
        <ele>1557</ele>
        <time>2024-09-16T06:39:49Z</time>
      </trkpt>
      <trkpt lat="42.49071" lon="2.14149">
        <ele>1557</ele>
        <time>2024-09-16T06:39:52Z</time>
      </trkpt>
      <trkpt lat="42.49072" lon="2.14153">
        <ele>1559</ele>
        <time>2024-09-16T06:39:55Z</time>
      </trkpt>
      <trkpt lat="42.49073" lon="2.14157">
        <ele>1559</ele>
        <time>2024-09-16T06:39:58Z</time>
      </trkpt>
      <trkpt lat="42.49075" lon="2.14162">
        <ele>1560</ele>
        <time>2024-09-16T06:40:01Z</time>
      </trkpt>
      <trkpt lat="42.49076" lon="2.14166">
        <ele>1560</ele>
        <time>2024-09-16T06:40:04Z</time>
      </trkpt>
      <trkpt lat="42.49076" lon="2.1417">
        <ele>1560</ele>
        <time>2024-09-16T06:40:07Z</time>
      </trkpt>
      <trkpt lat="42.49076" lon="2.14175">
        <ele>1561</ele>
        <time>2024-09-16T06:40:11Z</time>
      </trkpt>
      <trkpt lat="42.49076" lon="2.14179">
        <ele>1561</ele>
        <time>2024-09-16T06:40:16Z</time>
      </trkpt>
      <trkpt lat="42.49077" lon="2.14182">
        <ele>1561</ele>
        <time>2024-09-16T06:40:18Z</time>
      </trkpt>
      <trkpt lat="42.49077" lon="2.14187">
        <ele>1560</ele>
        <time>2024-09-16T06:40:21Z</time>
      </trkpt>
      <trkpt lat="42.49078" lon="2.14191">
        <ele>1560</ele>
        <time>2024-09-16T06:40:24Z</time>
      </trkpt>
      <trkpt lat="42.49079" lon="2.14195">
        <ele>1559</ele>
        <time>2024-09-16T06:40:28Z</time>
      </trkpt>
      <trkpt lat="42.4908" lon="2.14199">
        <ele>1559</ele>
        <time>2024-09-16T06:40:30Z</time>
      </trkpt>
      <trkpt lat="42.49081" lon="2.14203">
        <ele>1559</ele>
        <time>2024-09-16T06:40:33Z</time>
      </trkpt>
      <trkpt lat="42.49082" lon="2.14207">
        <ele>1559</ele>
        <time>2024-09-16T06:40:35Z</time>
      </trkpt>
      <trkpt lat="42.49084" lon="2.14209">
        <ele>1559</ele>
        <time>2024-09-16T06:40:37Z</time>
      </trkpt>
      <trkpt lat="42.49086" lon="2.14212">
        <ele>1559</ele>
        <time>2024-09-16T06:40:39Z</time>
      </trkpt>
      <trkpt lat="42.49088" lon="2.14216">
        <ele>1559</ele>
        <time>2024-09-16T06:40:42Z</time>
      </trkpt>
      <trkpt lat="42.4909" lon="2.14219">
        <ele>1560</ele>
        <time>2024-09-16T06:40:45Z</time>
      </trkpt>
      <trkpt lat="42.49092" lon="2.14224">
        <ele>1559</ele>
        <time>2024-09-16T06:40:47Z</time>
      </trkpt>
      <trkpt lat="42.49093" lon="2.14228">
        <ele>1560</ele>
        <time>2024-09-16T06:40:50Z</time>
      </trkpt>
      <trkpt lat="42.49095" lon="2.14232">
        <ele>1560</ele>
        <time>2024-09-16T06:40:52Z</time>
      </trkpt>
      <trkpt lat="42.49096" lon="2.14236">
        <ele>1560</ele>
        <time>2024-09-16T06:40:55Z</time>
      </trkpt>
      <trkpt lat="42.49097" lon="2.1424">
        <ele>1561</ele>
        <time>2024-09-16T06:40:58Z</time>
      </trkpt>
      <trkpt lat="42.49099" lon="2.14244">
        <ele>1561</ele>
        <time>2024-09-16T06:41:01Z</time>
      </trkpt>
      <trkpt lat="42.491" lon="2.14249">
        <ele>1562</ele>
        <time>2024-09-16T06:41:04Z</time>
      </trkpt>
      <trkpt lat="42.49101" lon="2.14253">
        <ele>1561</ele>
        <time>2024-09-16T06:41:07Z</time>
      </trkpt>
      <trkpt lat="42.49103" lon="2.14257">
        <ele>1562</ele>
        <time>2024-09-16T06:41:09Z</time>
      </trkpt>
      <trkpt lat="42.49105" lon="2.1426">
        <ele>1561</ele>
        <time>2024-09-16T06:41:13Z</time>
      </trkpt>
      <trkpt lat="42.49107" lon="2.14264">
        <ele>1561</ele>
        <time>2024-09-16T06:41:16Z</time>
      </trkpt>
      <trkpt lat="42.49108" lon="2.14268">
        <ele>1562</ele>
        <time>2024-09-16T06:41:18Z</time>
      </trkpt>
      <trkpt lat="42.49111" lon="2.14272">
        <ele>1562</ele>
        <time>2024-09-16T06:41:21Z</time>
      </trkpt>
      <trkpt lat="42.49113" lon="2.14275">
        <ele>1563</ele>
        <time>2024-09-16T06:41:24Z</time>
      </trkpt>
      <trkpt lat="42.49115" lon="2.14279">
        <ele>1564</ele>
        <time>2024-09-16T06:41:27Z</time>
      </trkpt>
      <trkpt lat="42.49118" lon="2.14282">
        <ele>1564</ele>
        <time>2024-09-16T06:41:30Z</time>
      </trkpt>
      <trkpt lat="42.4912" lon="2.14286">
        <ele>1564</ele>
        <time>2024-09-16T06:41:33Z</time>
      </trkpt>
      <trkpt lat="42.49122" lon="2.14289">
        <ele>1564</ele>
        <time>2024-09-16T06:41:36Z</time>
      </trkpt>
      <trkpt lat="42.49125" lon="2.14292">
        <ele>1565</ele>
        <time>2024-09-16T06:41:39Z</time>
      </trkpt>
      <trkpt lat="42.49127" lon="2.14294">
        <ele>1564</ele>
        <time>2024-09-16T06:41:42Z</time>
      </trkpt>
      <trkpt lat="42.49129" lon="2.14298">
        <ele>1565</ele>
        <time>2024-09-16T06:41:45Z</time>
      </trkpt>
      <trkpt lat="42.49132" lon="2.14301">
        <ele>1566</ele>
        <time>2024-09-16T06:41:49Z</time>
      </trkpt>
      <trkpt lat="42.49134" lon="2.14304">
        <ele>1566</ele>
        <time>2024-09-16T06:41:52Z</time>
      </trkpt>
      <trkpt lat="42.49136" lon="2.14307">
        <ele>1567</ele>
        <time>2024-09-16T06:41:56Z</time>
      </trkpt>
      <trkpt lat="42.49138" lon="2.1431">
        <ele>1567</ele>
        <time>2024-09-16T06:42:00Z</time>
      </trkpt>
      <trkpt lat="42.4914" lon="2.14313">
        <ele>1569</ele>
        <time>2024-09-16T06:42:04Z</time>
      </trkpt>
      <trkpt lat="42.49143" lon="2.14315">
        <ele>1569</ele>
        <time>2024-09-16T06:42:08Z</time>
      </trkpt>
      <trkpt lat="42.49145" lon="2.14318">
        <ele>1571</ele>
        <time>2024-09-16T06:42:13Z</time>
      </trkpt>
      <trkpt lat="42.49147" lon="2.14321">
        <ele>1572</ele>
        <time>2024-09-16T06:42:18Z</time>
      </trkpt>
      <trkpt lat="42.49149" lon="2.14324">
        <ele>1571</ele>
        <time>2024-09-16T06:42:24Z</time>
      </trkpt>
      <trkpt lat="42.49151" lon="2.14327">
        <ele>1571</ele>
        <time>2024-09-16T06:42:28Z</time>
      </trkpt>
      <trkpt lat="42.49153" lon="2.1433">
        <ele>1571</ele>
        <time>2024-09-16T06:42:32Z</time>
      </trkpt>
      <trkpt lat="42.49156" lon="2.14333">
        <ele>1572</ele>
        <time>2024-09-16T06:42:36Z</time>
      </trkpt>
      <trkpt lat="42.49157" lon="2.14336">
        <ele>1572</ele>
        <time>2024-09-16T06:42:42Z</time>
      </trkpt>
      <trkpt lat="42.4916" lon="2.14339">
        <ele>1573</ele>
        <time>2024-09-16T06:42:46Z</time>
      </trkpt>
      <trkpt lat="42.49162" lon="2.14342">
        <ele>1573</ele>
        <time>2024-09-16T06:42:50Z</time>
      </trkpt>
      <trkpt lat="42.49164" lon="2.14345">
        <ele>1573</ele>
        <time>2024-09-16T06:42:54Z</time>
      </trkpt>
      <trkpt lat="42.49166" lon="2.14349">
        <ele>1574</ele>
        <time>2024-09-16T06:42:58Z</time>
      </trkpt>
      <trkpt lat="42.49168" lon="2.14352">
        <ele>1576</ele>
        <time>2024-09-16T06:43:02Z</time>
      </trkpt>
      <trkpt lat="42.49168" lon="2.14356">
        <ele>1575</ele>
        <time>2024-09-16T06:43:06Z</time>
      </trkpt>
      <trkpt lat="42.49167" lon="2.1436">
        <ele>1576</ele>
        <time>2024-09-16T06:43:10Z</time>
      </trkpt>
      <trkpt lat="42.49166" lon="2.14364">
        <ele>1577</ele>
        <time>2024-09-16T06:43:14Z</time>
      </trkpt>
      <trkpt lat="42.49165" lon="2.14368">
        <ele>1577</ele>
        <time>2024-09-16T06:43:17Z</time>
      </trkpt>
      <trkpt lat="42.49164" lon="2.14371">
        <ele>1578</ele>
        <time>2024-09-16T06:43:21Z</time>
      </trkpt>
      <trkpt lat="42.49161" lon="2.14374">
        <ele>1578</ele>
        <time>2024-09-16T06:43:24Z</time>
      </trkpt>
      <trkpt lat="42.49158" lon="2.14375">
        <ele>1578</ele>
        <time>2024-09-16T06:43:27Z</time>
      </trkpt>
      <trkpt lat="42.49156" lon="2.14376">
        <ele>1578</ele>
        <time>2024-09-16T06:43:30Z</time>
      </trkpt>
      <trkpt lat="42.49153" lon="2.14375">
        <ele>1578</ele>
        <time>2024-09-16T06:43:33Z</time>
      </trkpt>
      <trkpt lat="42.4915" lon="2.14374">
        <ele>1578</ele>
        <time>2024-09-16T06:43:36Z</time>
      </trkpt>
      <trkpt lat="42.49147" lon="2.14373">
        <ele>1579</ele>
        <time>2024-09-16T06:43:40Z</time>
      </trkpt>
      <trkpt lat="42.49144" lon="2.14373">
        <ele>1580</ele>
        <time>2024-09-16T06:43:43Z</time>
      </trkpt>
      <trkpt lat="42.49141" lon="2.14373">
        <ele>1580</ele>
        <time>2024-09-16T06:43:46Z</time>
      </trkpt>
      <trkpt lat="42.49138" lon="2.14373">
        <ele>1581</ele>
        <time>2024-09-16T06:43:49Z</time>
      </trkpt>
      <trkpt lat="42.49135" lon="2.14374">
        <ele>1580</ele>
        <time>2024-09-16T06:43:52Z</time>
      </trkpt>
      <trkpt lat="42.49132" lon="2.14376">
        <ele>1581</ele>
        <time>2024-09-16T06:43:56Z</time>
      </trkpt>
      <trkpt lat="42.4913" lon="2.14376">
        <ele>1581</ele>
        <time>2024-09-16T06:43:59Z</time>
      </trkpt>
      <trkpt lat="42.49127" lon="2.14375">
        <ele>1582</ele>
        <time>2024-09-16T06:44:03Z</time>
      </trkpt>
      <trkpt lat="42.49125" lon="2.14377">
        <ele>1582</ele>
        <time>2024-09-16T06:44:13Z</time>
      </trkpt>
      <trkpt lat="42.49122" lon="2.14379">
        <ele>1583</ele>
        <time>2024-09-16T06:44:15Z</time>
      </trkpt>
      <trkpt lat="42.49119" lon="2.1438">
        <ele>1584</ele>
        <time>2024-09-16T06:44:19Z</time>
      </trkpt>
      <trkpt lat="42.49116" lon="2.14381">
        <ele>1583</ele>
        <time>2024-09-16T06:44:23Z</time>
      </trkpt>
      <trkpt lat="42.49113" lon="2.1438">
        <ele>1583</ele>
        <time>2024-09-16T06:44:27Z</time>
      </trkpt>
      <trkpt lat="42.49111" lon="2.14378">
        <ele>1583</ele>
        <time>2024-09-16T06:44:31Z</time>
      </trkpt>
      <trkpt lat="42.49109" lon="2.14375">
        <ele>1585</ele>
        <time>2024-09-16T06:44:35Z</time>
      </trkpt>
      <trkpt lat="42.49106" lon="2.14375">
        <ele>1586</ele>
        <time>2024-09-16T06:44:39Z</time>
      </trkpt>
      <trkpt lat="42.49106" lon="2.14377">
        <ele>1587</ele>
        <time>2024-09-16T06:44:43Z</time>
      </trkpt>
      <trkpt lat="42.49104" lon="2.14381">
        <ele>1587</ele>
        <time>2024-09-16T06:44:47Z</time>
      </trkpt>
      <trkpt lat="42.49102" lon="2.14382">
        <ele>1588</ele>
        <time>2024-09-16T06:44:55Z</time>
      </trkpt>
      <trkpt lat="42.491" lon="2.14381">
        <ele>1589</ele>
        <time>2024-09-16T06:45:03Z</time>
      </trkpt>
      <trkpt lat="42.49097" lon="2.1438">
        <ele>1590</ele>
        <time>2024-09-16T06:45:09Z</time>
      </trkpt>
      <trkpt lat="42.49095" lon="2.14382">
        <ele>1591</ele>
        <time>2024-09-16T06:45:17Z</time>
      </trkpt>
      <trkpt lat="42.49094" lon="2.14385">
        <ele>1593</ele>
        <time>2024-09-16T06:45:23Z</time>
      </trkpt>
      <trkpt lat="42.49093" lon="2.14388">
        <ele>1594</ele>
        <time>2024-09-16T06:45:30Z</time>
      </trkpt>
      <trkpt lat="42.49092" lon="2.14392">
        <ele>1594</ele>
        <time>2024-09-16T06:45:35Z</time>
      </trkpt>
      <trkpt lat="42.49091" lon="2.14396">
        <ele>1595</ele>
        <time>2024-09-16T06:45:41Z</time>
      </trkpt>
      <trkpt lat="42.4909" lon="2.144">
        <ele>1595</ele>
        <time>2024-09-16T06:45:46Z</time>
      </trkpt>
      <trkpt lat="42.4909" lon="2.14404">
        <ele>1595</ele>
        <time>2024-09-16T06:45:50Z</time>
      </trkpt>
      <trkpt lat="42.49089" lon="2.14409">
        <ele>1595</ele>
        <time>2024-09-16T06:45:54Z</time>
      </trkpt>
      <trkpt lat="42.49089" lon="2.14413">
        <ele>1597</ele>
        <time>2024-09-16T06:45:58Z</time>
      </trkpt>
      <trkpt lat="42.49088" lon="2.14417">
        <ele>1598</ele>
        <time>2024-09-16T06:46:02Z</time>
      </trkpt>
      <trkpt lat="42.49087" lon="2.14421">
        <ele>1598</ele>
        <time>2024-09-16T06:46:07Z</time>
      </trkpt>
      <trkpt lat="42.49086" lon="2.14424">
        <ele>1598</ele>
        <time>2024-09-16T06:46:11Z</time>
      </trkpt>
      <trkpt lat="42.49084" lon="2.14428">
        <ele>1599</ele>
        <time>2024-09-16T06:46:16Z</time>
      </trkpt>
      <trkpt lat="42.49083" lon="2.14431">
        <ele>1600</ele>
        <time>2024-09-16T06:46:20Z</time>
      </trkpt>
      <trkpt lat="42.49081" lon="2.14435">
        <ele>1601</ele>
        <time>2024-09-16T06:46:26Z</time>
      </trkpt>
      <trkpt lat="42.4908" lon="2.14438">
        <ele>1602</ele>
        <time>2024-09-16T06:46:31Z</time>
      </trkpt>
      <trkpt lat="42.49078" lon="2.14442">
        <ele>1604</ele>
        <time>2024-09-16T06:46:37Z</time>
      </trkpt>
      <trkpt lat="42.49077" lon="2.14446">
        <ele>1604</ele>
        <time>2024-09-16T06:46:40Z</time>
      </trkpt>
      <trkpt lat="42.49075" lon="2.1445">
        <ele>1604</ele>
        <time>2024-09-16T06:46:46Z</time>
      </trkpt>
      <trkpt lat="42.49075" lon="2.14455">
        <ele>1607</ele>
        <time>2024-09-16T06:46:52Z</time>
      </trkpt>
      <trkpt lat="42.49073" lon="2.14458">
        <ele>1608</ele>
        <time>2024-09-16T06:46:57Z</time>
      </trkpt>
      <trkpt lat="42.49072" lon="2.14462">
        <ele>1608</ele>
        <time>2024-09-16T06:47:00Z</time>
      </trkpt>
      <trkpt lat="42.4907" lon="2.14465">
        <ele>1609</ele>
        <time>2024-09-16T06:47:04Z</time>
      </trkpt>
      <trkpt lat="42.49068" lon="2.14469">
        <ele>1609</ele>
        <time>2024-09-16T06:47:08Z</time>
      </trkpt>
      <trkpt lat="42.49065" lon="2.14471">
        <ele>1610</ele>
        <time>2024-09-16T06:47:11Z</time>
      </trkpt>
      <trkpt lat="42.49062" lon="2.14472">
        <ele>1609</ele>
        <time>2024-09-16T06:47:15Z</time>
      </trkpt>
      <trkpt lat="42.49061" lon="2.14474">
        <ele>1610</ele>
        <time>2024-09-16T06:47:19Z</time>
      </trkpt>
      <trkpt lat="42.49059" lon="2.14477">
        <ele>1611</ele>
        <time>2024-09-16T06:47:22Z</time>
      </trkpt>
      <trkpt lat="42.49057" lon="2.1448">
        <ele>1611</ele>
        <time>2024-09-16T06:47:26Z</time>
      </trkpt>
      <trkpt lat="42.49055" lon="2.14483">
        <ele>1612</ele>
        <time>2024-09-16T06:47:32Z</time>
      </trkpt>
      <trkpt lat="42.49053" lon="2.14486">
        <ele>1612</ele>
        <time>2024-09-16T06:47:37Z</time>
      </trkpt>
      <trkpt lat="42.4905" lon="2.14488">
        <ele>1613</ele>
        <time>2024-09-16T06:47:43Z</time>
      </trkpt>
      <trkpt lat="42.49048" lon="2.1449">
        <ele>1613</ele>
        <time>2024-09-16T06:47:48Z</time>
      </trkpt>
      <trkpt lat="42.49045" lon="2.14493">
        <ele>1614</ele>
        <time>2024-09-16T06:47:54Z</time>
      </trkpt>
      <trkpt lat="42.49042" lon="2.14494">
        <ele>1616</ele>
        <time>2024-09-16T06:48:00Z</time>
      </trkpt>
      <trkpt lat="42.4904" lon="2.14496">
        <ele>1616</ele>
        <time>2024-09-16T06:48:06Z</time>
      </trkpt>
      <trkpt lat="42.49038" lon="2.14499">
        <ele>1615</ele>
        <time>2024-09-16T06:48:12Z</time>
      </trkpt>
      <trkpt lat="42.49035" lon="2.14501">
        <ele>1617</ele>
        <time>2024-09-16T06:48:20Z</time>
      </trkpt>
      <trkpt lat="42.49032" lon="2.14503">
        <ele>1617</ele>
        <time>2024-09-16T06:48:24Z</time>
      </trkpt>
      <trkpt lat="42.49028" lon="2.14504">
        <ele>1617</ele>
        <time>2024-09-16T06:48:29Z</time>
      </trkpt>
      <trkpt lat="42.49026" lon="2.14505">
        <ele>1619</ele>
        <time>2024-09-16T06:48:35Z</time>
      </trkpt>
      <trkpt lat="42.49023" lon="2.14507">
        <ele>1620</ele>
        <time>2024-09-16T06:48:41Z</time>
      </trkpt>
      <trkpt lat="42.49019" lon="2.14509">
        <ele>1620</ele>
        <time>2024-09-16T06:48:46Z</time>
      </trkpt>
      <trkpt lat="42.49016" lon="2.14511">
        <ele>1622</ele>
        <time>2024-09-16T06:48:55Z</time>
      </trkpt>
      <trkpt lat="42.49014" lon="2.14514">
        <ele>1624</ele>
        <time>2024-09-16T06:49:00Z</time>
      </trkpt>
      <trkpt lat="42.49011" lon="2.14516">
        <ele>1624</ele>
        <time>2024-09-16T06:49:06Z</time>
      </trkpt>
      <trkpt lat="42.49009" lon="2.14518">
        <ele>1625</ele>
        <time>2024-09-16T06:49:11Z</time>
      </trkpt>
      <trkpt lat="42.49006" lon="2.1452">
        <ele>1626</ele>
        <time>2024-09-16T06:49:16Z</time>
      </trkpt>
      <trkpt lat="42.49003" lon="2.14521">
        <ele>1627</ele>
        <time>2024-09-16T06:49:20Z</time>
      </trkpt>
      <trkpt lat="42.49" lon="2.14522">
        <ele>1627</ele>
        <time>2024-09-16T06:49:27Z</time>
      </trkpt>
      <trkpt lat="42.48997" lon="2.14525">
        <ele>1627</ele>
        <time>2024-09-16T06:49:35Z</time>
      </trkpt>
      <trkpt lat="42.48994" lon="2.14527">
        <ele>1629</ele>
        <time>2024-09-16T06:49:41Z</time>
      </trkpt>
      <trkpt lat="42.48992" lon="2.14529">
        <ele>1630</ele>
        <time>2024-09-16T06:49:46Z</time>
      </trkpt>
      <trkpt lat="42.48989" lon="2.14531">
        <ele>1630</ele>
        <time>2024-09-16T06:49:51Z</time>
      </trkpt>
      <trkpt lat="42.48986" lon="2.14532">
        <ele>1631</ele>
        <time>2024-09-16T06:49:56Z</time>
      </trkpt>
      <trkpt lat="42.48983" lon="2.14532">
        <ele>1633</ele>
        <time>2024-09-16T06:50:00Z</time>
      </trkpt>
      <trkpt lat="42.4898" lon="2.14534">
        <ele>1634</ele>
        <time>2024-09-16T06:50:05Z</time>
      </trkpt>
      <trkpt lat="42.48977" lon="2.14535">
        <ele>1635</ele>
        <time>2024-09-16T06:50:12Z</time>
      </trkpt>
      <trkpt lat="42.48974" lon="2.14537">
        <ele>1635</ele>
        <time>2024-09-16T06:50:19Z</time>
      </trkpt>
      <trkpt lat="42.48971" lon="2.14539">
        <ele>1635</ele>
        <time>2024-09-16T06:50:25Z</time>
      </trkpt>
      <trkpt lat="42.48968" lon="2.14541">
        <ele>1635</ele>
        <time>2024-09-16T06:50:30Z</time>
      </trkpt>
      <trkpt lat="42.48965" lon="2.14543">
        <ele>1637</ele>
        <time>2024-09-16T06:50:37Z</time>
      </trkpt>
      <trkpt lat="42.48962" lon="2.14545">
        <ele>1638</ele>
        <time>2024-09-16T06:50:45Z</time>
      </trkpt>
      <trkpt lat="42.4896" lon="2.14547">
        <ele>1639</ele>
        <time>2024-09-16T06:50:50Z</time>
      </trkpt>
      <trkpt lat="42.48957" lon="2.14548">
        <ele>1639</ele>
        <time>2024-09-16T06:50:56Z</time>
      </trkpt>
      <trkpt lat="42.48954" lon="2.1455">
        <ele>1640</ele>
        <time>2024-09-16T06:51:00Z</time>
      </trkpt>
      <trkpt lat="42.48952" lon="2.14552">
        <ele>1642</ele>
        <time>2024-09-16T06:51:06Z</time>
      </trkpt>
      <trkpt lat="42.48949" lon="2.14554">
        <ele>1642</ele>
        <time>2024-09-16T06:51:11Z</time>
      </trkpt>
      <trkpt lat="42.48947" lon="2.14557">
        <ele>1643</ele>
        <time>2024-09-16T06:51:16Z</time>
      </trkpt>
      <trkpt lat="42.48944" lon="2.14559">
        <ele>1644</ele>
        <time>2024-09-16T06:51:22Z</time>
      </trkpt>
      <trkpt lat="42.48942" lon="2.14561">
        <ele>1644</ele>
        <time>2024-09-16T06:51:26Z</time>
      </trkpt>
      <trkpt lat="42.48939" lon="2.14562">
        <ele>1645</ele>
        <time>2024-09-16T06:51:31Z</time>
      </trkpt>
      <trkpt lat="42.48935" lon="2.14565">
        <ele>1645</ele>
        <time>2024-09-16T06:51:35Z</time>
      </trkpt>
      <trkpt lat="42.48933" lon="2.14568">
        <ele>1647</ele>
        <time>2024-09-16T06:51:41Z</time>
      </trkpt>
      <trkpt lat="42.4893" lon="2.14571">
        <ele>1647</ele>
        <time>2024-09-16T06:51:47Z</time>
      </trkpt>
      <trkpt lat="42.48928" lon="2.14575">
        <ele>1648</ele>
        <time>2024-09-16T06:51:54Z</time>
      </trkpt>
      <trkpt lat="42.48926" lon="2.14578">
        <ele>1649</ele>
        <time>2024-09-16T06:51:59Z</time>
      </trkpt>
      <trkpt lat="42.48925" lon="2.14582">
        <ele>1650</ele>
        <time>2024-09-16T06:52:04Z</time>
      </trkpt>
      <trkpt lat="42.48924" lon="2.14586">
        <ele>1650</ele>
        <time>2024-09-16T06:52:08Z</time>
      </trkpt>
      <trkpt lat="42.48923" lon="2.1459">
        <ele>1650</ele>
        <time>2024-09-16T06:52:14Z</time>
      </trkpt>
      <trkpt lat="42.48921" lon="2.14594">
        <ele>1652</ele>
        <time>2024-09-16T06:52:19Z</time>
      </trkpt>
      <trkpt lat="42.4892" lon="2.14598">
        <ele>1653</ele>
        <time>2024-09-16T06:52:23Z</time>
      </trkpt>
      <trkpt lat="42.4892" lon="2.14602">
        <ele>1653</ele>
        <time>2024-09-16T06:52:28Z</time>
      </trkpt>
      <trkpt lat="42.4892" lon="2.14606">
        <ele>1654</ele>
        <time>2024-09-16T06:52:32Z</time>
      </trkpt>
      <trkpt lat="42.48919" lon="2.1461">
        <ele>1654</ele>
        <time>2024-09-16T06:52:35Z</time>
      </trkpt>
      <trkpt lat="42.48918" lon="2.14613">
        <ele>1653</ele>
        <time>2024-09-16T06:52:43Z</time>
      </trkpt>
      <trkpt lat="42.48917" lon="2.14618">
        <ele>1654</ele>
        <time>2024-09-16T06:52:51Z</time>
      </trkpt>
      <trkpt lat="42.48918" lon="2.14623">
        <ele>1654</ele>
        <time>2024-09-16T06:52:55Z</time>
      </trkpt>
      <trkpt lat="42.48918" lon="2.14627">
        <ele>1654</ele>
        <time>2024-09-16T06:53:00Z</time>
      </trkpt>
      <trkpt lat="42.48917" lon="2.14631">
        <ele>1655</ele>
        <time>2024-09-16T06:53:04Z</time>
      </trkpt>
      <trkpt lat="42.48917" lon="2.14635">
        <ele>1656</ele>
        <time>2024-09-16T06:53:09Z</time>
      </trkpt>
      <trkpt lat="42.48916" lon="2.14639">
        <ele>1658</ele>
        <time>2024-09-16T06:53:13Z</time>
      </trkpt>
      <trkpt lat="42.48916" lon="2.14643">
        <ele>1659</ele>
        <time>2024-09-16T06:53:19Z</time>
      </trkpt>
      <trkpt lat="42.48915" lon="2.14646">
        <ele>1660</ele>
        <time>2024-09-16T06:53:24Z</time>
      </trkpt>
      <trkpt lat="42.48915" lon="2.1465">
        <ele>1661</ele>
        <time>2024-09-16T06:53:29Z</time>
      </trkpt>
      <trkpt lat="42.48914" lon="2.14655">
        <ele>1661</ele>
        <time>2024-09-16T06:53:34Z</time>
      </trkpt>
      <trkpt lat="42.48914" lon="2.14659">
        <ele>1661</ele>
        <time>2024-09-16T06:53:38Z</time>
      </trkpt>
      <trkpt lat="42.48915" lon="2.14662">
        <ele>1660</ele>
        <time>2024-09-16T06:53:41Z</time>
      </trkpt>
      <trkpt lat="42.48915" lon="2.14667">
        <ele>1661</ele>
        <time>2024-09-16T06:53:47Z</time>
      </trkpt>
      <trkpt lat="42.48915" lon="2.14671">
        <ele>1661</ele>
        <time>2024-09-16T06:53:54Z</time>
      </trkpt>
      <trkpt lat="42.48914" lon="2.14674">
        <ele>1663</ele>
        <time>2024-09-16T06:54:00Z</time>
      </trkpt>
      <trkpt lat="42.48914" lon="2.14678">
        <ele>1664</ele>
        <time>2024-09-16T06:54:07Z</time>
      </trkpt>
      <trkpt lat="42.48914" lon="2.14683">
        <ele>1664</ele>
        <time>2024-09-16T06:54:12Z</time>
      </trkpt>
      <trkpt lat="42.48914" lon="2.14687">
        <ele>1664</ele>
        <time>2024-09-16T06:54:17Z</time>
      </trkpt>
      <trkpt lat="42.48913" lon="2.14691">
        <ele>1665</ele>
        <time>2024-09-16T06:54:22Z</time>
      </trkpt>
      <trkpt lat="42.48914" lon="2.14695">
        <ele>1668</ele>
        <time>2024-09-16T06:54:28Z</time>
      </trkpt>
      <trkpt lat="42.48913" lon="2.14699">
        <ele>1668</ele>
        <time>2024-09-16T06:54:32Z</time>
      </trkpt>
      <trkpt lat="42.48912" lon="2.14702">
        <ele>1669</ele>
        <time>2024-09-16T06:54:37Z</time>
      </trkpt>
      <trkpt lat="42.48911" lon="2.14706">
        <ele>1669</ele>
        <time>2024-09-16T06:54:43Z</time>
      </trkpt>
      <trkpt lat="42.4891" lon="2.1471">
        <ele>1667</ele>
        <time>2024-09-16T06:54:49Z</time>
      </trkpt>
      <trkpt lat="42.48908" lon="2.14714">
        <ele>1668</ele>
        <time>2024-09-16T06:54:53Z</time>
      </trkpt>
      <trkpt lat="42.48907" lon="2.14717">
        <ele>1669</ele>
        <time>2024-09-16T06:55:00Z</time>
      </trkpt>
      <trkpt lat="42.48905" lon="2.1472">
        <ele>1670</ele>
        <time>2024-09-16T06:55:05Z</time>
      </trkpt>
      <trkpt lat="42.48903" lon="2.14723">
        <ele>1671</ele>
        <time>2024-09-16T06:55:09Z</time>
      </trkpt>
      <trkpt lat="42.48901" lon="2.14727">
        <ele>1672</ele>
        <time>2024-09-16T06:55:15Z</time>
      </trkpt>
      <trkpt lat="42.48901" lon="2.14731">
        <ele>1673</ele>
        <time>2024-09-16T06:55:20Z</time>
      </trkpt>
      <trkpt lat="42.48901" lon="2.14734">
        <ele>1674</ele>
        <time>2024-09-16T06:55:25Z</time>
      </trkpt>
      <trkpt lat="42.489" lon="2.14738">
        <ele>1674</ele>
        <time>2024-09-16T06:55:28Z</time>
      </trkpt>
      <trkpt lat="42.48899" lon="2.14741">
        <ele>1676</ele>
        <time>2024-09-16T06:55:32Z</time>
      </trkpt>
      <trkpt lat="42.48898" lon="2.14745">
        <ele>1676</ele>
        <time>2024-09-16T06:55:38Z</time>
      </trkpt>
      <trkpt lat="42.48896" lon="2.14748">
        <ele>1677</ele>
        <time>2024-09-16T06:55:44Z</time>
      </trkpt>
      <trkpt lat="42.48894" lon="2.14751">
        <ele>1678</ele>
        <time>2024-09-16T06:55:49Z</time>
      </trkpt>
      <trkpt lat="42.48892" lon="2.14753">
        <ele>1678</ele>
        <time>2024-09-16T06:55:53Z</time>
      </trkpt>
      <trkpt lat="42.4889" lon="2.14756">
        <ele>1679</ele>
        <time>2024-09-16T06:55:57Z</time>
      </trkpt>
      <trkpt lat="42.48887" lon="2.14758">
        <ele>1679</ele>
        <time>2024-09-16T06:56:03Z</time>
      </trkpt>
      <trkpt lat="42.48885" lon="2.14759">
        <ele>1682</ele>
        <time>2024-09-16T06:56:08Z</time>
      </trkpt>
      <trkpt lat="42.48882" lon="2.14761">
        <ele>1681</ele>
        <time>2024-09-16T06:56:14Z</time>
      </trkpt>
      <trkpt lat="42.48879" lon="2.14762">
        <ele>1682</ele>
        <time>2024-09-16T06:56:20Z</time>
      </trkpt>
      <trkpt lat="42.48877" lon="2.14764">
        <ele>1681</ele>
        <time>2024-09-16T06:56:25Z</time>
      </trkpt>
      <trkpt lat="42.48874" lon="2.14765">
        <ele>1681</ele>
        <time>2024-09-16T06:56:32Z</time>
      </trkpt>
      <trkpt lat="42.48871" lon="2.14764">
        <ele>1683</ele>
        <time>2024-09-16T06:56:37Z</time>
      </trkpt>
      <trkpt lat="42.48869" lon="2.14761">
        <ele>1684</ele>
        <time>2024-09-16T06:56:44Z</time>
      </trkpt>
      <trkpt lat="42.48867" lon="2.14759">
        <ele>1685</ele>
        <time>2024-09-16T06:56:51Z</time>
      </trkpt>
      <trkpt lat="42.48865" lon="2.14756">
        <ele>1687</ele>
        <time>2024-09-16T06:56:54Z</time>
      </trkpt>
      <trkpt lat="42.48863" lon="2.14752">
        <ele>1688</ele>
        <time>2024-09-16T06:57:02Z</time>
      </trkpt>
      <trkpt lat="42.48861" lon="2.14749">
        <ele>1688</ele>
        <time>2024-09-16T06:57:07Z</time>
      </trkpt>
      <trkpt lat="42.48858" lon="2.14746">
        <ele>1689</ele>
        <time>2024-09-16T06:59:06Z</time>
      </trkpt>
      <trkpt lat="42.48855" lon="2.14744">
        <ele>1688</ele>
        <time>2024-09-16T06:59:12Z</time>
      </trkpt>
      <trkpt lat="42.48852" lon="2.14742">
        <ele>1689</ele>
        <time>2024-09-16T06:59:17Z</time>
      </trkpt>
      <trkpt lat="42.4885" lon="2.14739">
        <ele>1689</ele>
        <time>2024-09-16T06:59:20Z</time>
      </trkpt>
      <trkpt lat="42.48847" lon="2.14736">
        <ele>1689</ele>
        <time>2024-09-16T06:59:23Z</time>
      </trkpt>
      <trkpt lat="42.48845" lon="2.14734">
        <ele>1690</ele>
        <time>2024-09-16T06:59:27Z</time>
      </trkpt>
      <trkpt lat="42.48842" lon="2.14732">
        <ele>1691</ele>
        <time>2024-09-16T06:59:31Z</time>
      </trkpt>
      <trkpt lat="42.48839" lon="2.14729">
        <ele>1691</ele>
        <time>2024-09-16T06:59:34Z</time>
      </trkpt>
      <trkpt lat="42.48837" lon="2.14726">
        <ele>1692</ele>
        <time>2024-09-16T06:59:38Z</time>
      </trkpt>
      <trkpt lat="42.48834" lon="2.14724">
        <ele>1693</ele>
        <time>2024-09-16T06:59:41Z</time>
      </trkpt>
      <trkpt lat="42.48832" lon="2.14722">
        <ele>1693</ele>
        <time>2024-09-16T06:59:46Z</time>
      </trkpt>
      <trkpt lat="42.48829" lon="2.14719">
        <ele>1694</ele>
        <time>2024-09-16T06:59:50Z</time>
      </trkpt>
      <trkpt lat="42.48826" lon="2.14717">
        <ele>1694</ele>
        <time>2024-09-16T06:59:53Z</time>
      </trkpt>
      <trkpt lat="42.48823" lon="2.14716">
        <ele>1694</ele>
        <time>2024-09-16T06:59:57Z</time>
      </trkpt>
      <trkpt lat="42.4882" lon="2.14714">
        <ele>1695</ele>
        <time>2024-09-16T07:00:03Z</time>
      </trkpt>
      <trkpt lat="42.48817" lon="2.14713">
        <ele>1695</ele>
        <time>2024-09-16T07:00:05Z</time>
      </trkpt>
      <trkpt lat="42.48815" lon="2.14711">
        <ele>1695</ele>
        <time>2024-09-16T07:00:08Z</time>
      </trkpt>
      <trkpt lat="42.48812" lon="2.14709">
        <ele>1695</ele>
        <time>2024-09-16T07:00:12Z</time>
      </trkpt>
      <trkpt lat="42.48809" lon="2.14706">
        <ele>1696</ele>
        <time>2024-09-16T07:00:15Z</time>
      </trkpt>
      <trkpt lat="42.48807" lon="2.14703">
        <ele>1698</ele>
        <time>2024-09-16T07:00:19Z</time>
      </trkpt>
      <trkpt lat="42.48805" lon="2.147">
        <ele>1698</ele>
        <time>2024-09-16T07:00:22Z</time>
      </trkpt>
      <trkpt lat="42.48804" lon="2.14697">
        <ele>1699</ele>
        <time>2024-09-16T07:00:26Z</time>
      </trkpt>
      <trkpt lat="42.48801" lon="2.14695">
        <ele>1699</ele>
        <time>2024-09-16T07:00:32Z</time>
      </trkpt>
      <trkpt lat="42.48798" lon="2.14694">
        <ele>1701</ele>
        <time>2024-09-16T07:00:38Z</time>
      </trkpt>
      <trkpt lat="42.48795" lon="2.14693">
        <ele>1701</ele>
        <time>2024-09-16T07:00:42Z</time>
      </trkpt>
      <trkpt lat="42.48792" lon="2.14693">
        <ele>1703</ele>
        <time>2024-09-16T07:00:47Z</time>
      </trkpt>
      <trkpt lat="42.48789" lon="2.14695">
        <ele>1704</ele>
        <time>2024-09-16T07:00:52Z</time>
      </trkpt>
      <trkpt lat="42.48787" lon="2.14698">
        <ele>1705</ele>
        <time>2024-09-16T07:00:58Z</time>
      </trkpt>
      <trkpt lat="42.48786" lon="2.14701">
        <ele>1705</ele>
        <time>2024-09-16T07:01:03Z</time>
      </trkpt>
      <trkpt lat="42.48785" lon="2.14705">
        <ele>1707</ele>
        <time>2024-09-16T07:01:08Z</time>
      </trkpt>
      <trkpt lat="42.48784" lon="2.14709">
        <ele>1708</ele>
        <time>2024-09-16T07:01:14Z</time>
      </trkpt>
      <trkpt lat="42.48784" lon="2.14713">
        <ele>1708</ele>
        <time>2024-09-16T07:01:20Z</time>
      </trkpt>
      <trkpt lat="42.48785" lon="2.14716">
        <ele>1709</ele>
        <time>2024-09-16T07:01:27Z</time>
      </trkpt>
      <trkpt lat="42.48785" lon="2.14721">
        <ele>1710</ele>
        <time>2024-09-16T07:01:33Z</time>
      </trkpt>
      <trkpt lat="42.48784" lon="2.14724">
        <ele>1710</ele>
        <time>2024-09-16T07:01:35Z</time>
      </trkpt>
      <trkpt lat="42.48784" lon="2.14728">
        <ele>1710</ele>
        <time>2024-09-16T07:01:40Z</time>
      </trkpt>
      <trkpt lat="42.48785" lon="2.14731">
        <ele>1712</ele>
        <time>2024-09-16T07:01:45Z</time>
      </trkpt>
      <trkpt lat="42.48785" lon="2.14735">
        <ele>1713</ele>
        <time>2024-09-16T07:01:50Z</time>
      </trkpt>
      <trkpt lat="42.48785" lon="2.14739">
        <ele>1713</ele>
        <time>2024-09-16T07:01:56Z</time>
      </trkpt>
      <trkpt lat="42.48785" lon="2.14743">
        <ele>1713</ele>
        <time>2024-09-16T07:02:01Z</time>
      </trkpt>
      <trkpt lat="42.48786" lon="2.14747">
        <ele>1714</ele>
        <time>2024-09-16T07:02:06Z</time>
      </trkpt>
      <trkpt lat="42.48786" lon="2.14751">
        <ele>1715</ele>
        <time>2024-09-16T07:02:12Z</time>
      </trkpt>
      <trkpt lat="42.48786" lon="2.14755">
        <ele>1715</ele>
        <time>2024-09-16T07:02:17Z</time>
      </trkpt>
      <trkpt lat="42.48786" lon="2.14759">
        <ele>1716</ele>
        <time>2024-09-16T07:02:23Z</time>
      </trkpt>
      <trkpt lat="42.48787" lon="2.14763">
        <ele>1718</ele>
        <time>2024-09-16T07:02:28Z</time>
      </trkpt>
      <trkpt lat="42.48786" lon="2.14766">
        <ele>1716</ele>
        <time>2024-09-16T07:02:33Z</time>
      </trkpt>
      <trkpt lat="42.48787" lon="2.1477">
        <ele>1717</ele>
        <time>2024-09-16T07:02:36Z</time>
      </trkpt>
      <trkpt lat="42.48786" lon="2.14775">
        <ele>1717</ele>
        <time>2024-09-16T07:02:40Z</time>
      </trkpt>
      <trkpt lat="42.48785" lon="2.14778">
        <ele>1718</ele>
        <time>2024-09-16T07:02:45Z</time>
      </trkpt>
      <trkpt lat="42.48784" lon="2.14782">
        <ele>1718</ele>
        <time>2024-09-16T07:02:50Z</time>
      </trkpt>
      <trkpt lat="42.48784" lon="2.14786">
        <ele>1719</ele>
        <time>2024-09-16T07:02:53Z</time>
      </trkpt>
      <trkpt lat="42.48783" lon="2.14789">
        <ele>1720</ele>
        <time>2024-09-16T07:02:58Z</time>
      </trkpt>
      <trkpt lat="42.48781" lon="2.14793">
        <ele>1720</ele>
        <time>2024-09-16T07:03:03Z</time>
      </trkpt>
      <trkpt lat="42.48779" lon="2.14797">
        <ele>1720</ele>
        <time>2024-09-16T07:03:09Z</time>
      </trkpt>
      <trkpt lat="42.48778" lon="2.148">
        <ele>1720</ele>
        <time>2024-09-16T07:03:13Z</time>
      </trkpt>
      <trkpt lat="42.48777" lon="2.14804">
        <ele>1721</ele>
        <time>2024-09-16T07:03:17Z</time>
      </trkpt>
      <trkpt lat="42.48776" lon="2.14808">
        <ele>1721</ele>
        <time>2024-09-16T07:03:23Z</time>
      </trkpt>
      <trkpt lat="42.48774" lon="2.14812">
        <ele>1722</ele>
        <time>2024-09-16T07:03:29Z</time>
      </trkpt>
      <trkpt lat="42.48773" lon="2.14815">
        <ele>1722</ele>
        <time>2024-09-16T07:03:35Z</time>
      </trkpt>
      <trkpt lat="42.48771" lon="2.14817">
        <ele>1723</ele>
        <time>2024-09-16T07:03:44Z</time>
      </trkpt>
      <trkpt lat="42.48769" lon="2.1482">
        <ele>1723</ele>
        <time>2024-09-16T07:03:47Z</time>
      </trkpt>
      <trkpt lat="42.48766" lon="2.14821">
        <ele>1724</ele>
        <time>2024-09-16T07:03:53Z</time>
      </trkpt>
      <trkpt lat="42.48763" lon="2.14823">
        <ele>1724</ele>
        <time>2024-09-16T07:03:56Z</time>
      </trkpt>
      <trkpt lat="42.4876" lon="2.14825">
        <ele>1724</ele>
        <time>2024-09-16T07:03:59Z</time>
      </trkpt>
      <trkpt lat="42.48758" lon="2.14825">
        <ele>1725</ele>
        <time>2024-09-16T07:04:02Z</time>
      </trkpt>
      <trkpt lat="42.48755" lon="2.14825">
        <ele>1725</ele>
        <time>2024-09-16T07:04:06Z</time>
      </trkpt>
      <trkpt lat="42.48752" lon="2.14827">
        <ele>1726</ele>
        <time>2024-09-16T07:04:09Z</time>
      </trkpt>
      <trkpt lat="42.48749" lon="2.14828">
        <ele>1727</ele>
        <time>2024-09-16T07:04:13Z</time>
      </trkpt>
      <trkpt lat="42.48745" lon="2.1483">
        <ele>1727</ele>
        <time>2024-09-16T07:04:18Z</time>
      </trkpt>
      <trkpt lat="42.48742" lon="2.1483">
        <ele>1726</ele>
        <time>2024-09-16T07:04:22Z</time>
      </trkpt>
      <trkpt lat="42.48739" lon="2.14832">
        <ele>1726</ele>
        <time>2024-09-16T07:04:26Z</time>
      </trkpt>
      <trkpt lat="42.48736" lon="2.14831">
        <ele>1727</ele>
        <time>2024-09-16T07:04:32Z</time>
      </trkpt>
      <trkpt lat="42.48733" lon="2.14832">
        <ele>1728</ele>
        <time>2024-09-16T07:04:36Z</time>
      </trkpt>
      <trkpt lat="42.4873" lon="2.14833">
        <ele>1729</ele>
        <time>2024-09-16T07:04:41Z</time>
      </trkpt>
      <trkpt lat="42.48727" lon="2.14834">
        <ele>1729</ele>
        <time>2024-09-16T07:04:44Z</time>
      </trkpt>
      <trkpt lat="42.48724" lon="2.14835">
        <ele>1730</ele>
        <time>2024-09-16T07:04:48Z</time>
      </trkpt>
      <trkpt lat="42.48721" lon="2.14836">
        <ele>1731</ele>
        <time>2024-09-16T07:04:51Z</time>
      </trkpt>
      <trkpt lat="42.48718" lon="2.14838">
        <ele>1734</ele>
        <time>2024-09-16T07:04:55Z</time>
      </trkpt>
      <trkpt lat="42.48715" lon="2.14839">
        <ele>1733</ele>
        <time>2024-09-16T07:04:59Z</time>
      </trkpt>
      <trkpt lat="42.48713" lon="2.14841">
        <ele>1734</ele>
        <time>2024-09-16T07:05:05Z</time>
      </trkpt>
      <trkpt lat="42.4871" lon="2.14842">
        <ele>1734</ele>
        <time>2024-09-16T07:05:08Z</time>
      </trkpt>
      <trkpt lat="42.48707" lon="2.14844">
        <ele>1734</ele>
        <time>2024-09-16T07:05:11Z</time>
      </trkpt>
      <trkpt lat="42.48705" lon="2.14847">
        <ele>1735</ele>
        <time>2024-09-16T07:05:14Z</time>
      </trkpt>
      <trkpt lat="42.48702" lon="2.14848">
        <ele>1736</ele>
        <time>2024-09-16T07:05:16Z</time>
      </trkpt>
      <trkpt lat="42.48699" lon="2.14851">
        <ele>1737</ele>
        <time>2024-09-16T07:05:19Z</time>
      </trkpt>
      <trkpt lat="42.48696" lon="2.14853">
        <ele>1737</ele>
        <time>2024-09-16T07:05:21Z</time>
      </trkpt>
      <trkpt lat="42.48693" lon="2.14856">
        <ele>1739</ele>
        <time>2024-09-16T07:05:25Z</time>
      </trkpt>
      <trkpt lat="42.48691" lon="2.14859">
        <ele>1739</ele>
        <time>2024-09-16T07:05:28Z</time>
      </trkpt>
      <trkpt lat="42.48688" lon="2.14862">
        <ele>1740</ele>
        <time>2024-09-16T07:05:31Z</time>
      </trkpt>
      <trkpt lat="42.48685" lon="2.14864">
        <ele>1739</ele>
        <time>2024-09-16T07:05:34Z</time>
      </trkpt>
      <trkpt lat="42.48683" lon="2.14866">
        <ele>1738</ele>
        <time>2024-09-16T07:05:37Z</time>
      </trkpt>
      <trkpt lat="42.4868" lon="2.14868">
        <ele>1739</ele>
        <time>2024-09-16T07:05:40Z</time>
      </trkpt>
      <trkpt lat="42.48677" lon="2.1487">
        <ele>1737</ele>
        <time>2024-09-16T07:05:42Z</time>
      </trkpt>
      <trkpt lat="42.48675" lon="2.14872">
        <ele>1737</ele>
        <time>2024-09-16T07:05:45Z</time>
      </trkpt>
      <trkpt lat="42.48672" lon="2.14874">
        <ele>1737</ele>
        <time>2024-09-16T07:05:47Z</time>
      </trkpt>
      <trkpt lat="42.48669" lon="2.14876">
        <ele>1736</ele>
        <time>2024-09-16T07:05:50Z</time>
      </trkpt>
      <trkpt lat="42.48666" lon="2.14878">
        <ele>1738</ele>
        <time>2024-09-16T07:05:53Z</time>
      </trkpt>
      <trkpt lat="42.48663" lon="2.1488">
        <ele>1737</ele>
        <time>2024-09-16T07:05:55Z</time>
      </trkpt>
      <trkpt lat="42.4866" lon="2.14882">
        <ele>1738</ele>
        <time>2024-09-16T07:05:58Z</time>
      </trkpt>
      <trkpt lat="42.48657" lon="2.14884">
        <ele>1739</ele>
        <time>2024-09-16T07:06:00Z</time>
      </trkpt>
      <trkpt lat="42.48654" lon="2.14886">
        <ele>1739</ele>
        <time>2024-09-16T07:06:03Z</time>
      </trkpt>
      <trkpt lat="42.48651" lon="2.14887">
        <ele>1741</ele>
        <time>2024-09-16T07:06:08Z</time>
      </trkpt>
      <trkpt lat="42.48648" lon="2.1489">
        <ele>1741</ele>
        <time>2024-09-16T07:06:10Z</time>
      </trkpt>
      <trkpt lat="42.48646" lon="2.14892">
        <ele>1742</ele>
        <time>2024-09-16T07:06:12Z</time>
      </trkpt>
      <trkpt lat="42.48643" lon="2.14894">
        <ele>1743</ele>
        <time>2024-09-16T07:06:16Z</time>
      </trkpt>
      <trkpt lat="42.4864" lon="2.14895">
        <ele>1743</ele>
        <time>2024-09-16T07:06:20Z</time>
      </trkpt>
      <trkpt lat="42.48638" lon="2.14897">
        <ele>1742</ele>
        <time>2024-09-16T07:06:22Z</time>
      </trkpt>
      <trkpt lat="42.48635" lon="2.14899">
        <ele>1741</ele>
        <time>2024-09-16T07:06:26Z</time>
      </trkpt>
      <trkpt lat="42.48632" lon="2.149">
        <ele>1742</ele>
        <time>2024-09-16T07:06:31Z</time>
      </trkpt>
      <trkpt lat="42.48629" lon="2.14903">
        <ele>1744</ele>
        <time>2024-09-16T07:06:34Z</time>
      </trkpt>
      <trkpt lat="42.48627" lon="2.14905">
        <ele>1744</ele>
        <time>2024-09-16T07:06:38Z</time>
      </trkpt>
      <trkpt lat="42.48624" lon="2.14906">
        <ele>1744</ele>
        <time>2024-09-16T07:06:42Z</time>
      </trkpt>
      <trkpt lat="42.48621" lon="2.14908">
        <ele>1745</ele>
        <time>2024-09-16T07:06:47Z</time>
      </trkpt>
      <trkpt lat="42.48618" lon="2.14911">
        <ele>1746</ele>
        <time>2024-09-16T07:06:52Z</time>
      </trkpt>
      <trkpt lat="42.48618" lon="2.14915">
        <ele>1747</ele>
        <time>2024-09-16T07:06:53Z</time>
      </trkpt>
      <trkpt lat="42.48616" lon="2.14917">
        <ele>1747</ele>
        <time>2024-09-16T07:07:00Z</time>
      </trkpt>
      <trkpt lat="42.48613" lon="2.14919">
        <ele>1747</ele>
        <time>2024-09-16T07:07:05Z</time>
      </trkpt>
      <trkpt lat="42.4861" lon="2.1492">
        <ele>1747</ele>
        <time>2024-09-16T07:07:09Z</time>
      </trkpt>
      <trkpt lat="42.48607" lon="2.14922">
        <ele>1748</ele>
        <time>2024-09-16T07:07:16Z</time>
      </trkpt>
      <trkpt lat="42.48604" lon="2.14924">
        <ele>1749</ele>
        <time>2024-09-16T07:07:24Z</time>
      </trkpt>
      <trkpt lat="42.48601" lon="2.14926">
        <ele>1748</ele>
        <time>2024-09-16T07:07:29Z</time>
      </trkpt>
      <trkpt lat="42.48598" lon="2.14929">
        <ele>1751</ele>
        <time>2024-09-16T07:07:34Z</time>
      </trkpt>
      <trkpt lat="42.48596" lon="2.14932">
        <ele>1751</ele>
        <time>2024-09-16T07:07:42Z</time>
      </trkpt>
      <trkpt lat="42.48593" lon="2.14934">
        <ele>1751</ele>
        <time>2024-09-16T07:07:46Z</time>
      </trkpt>
      <trkpt lat="42.48591" lon="2.14937">
        <ele>1751</ele>
        <time>2024-09-16T07:07:52Z</time>
      </trkpt>
      <trkpt lat="42.48589" lon="2.14941">
        <ele>1753</ele>
        <time>2024-09-16T07:07:59Z</time>
      </trkpt>
      <trkpt lat="42.48586" lon="2.14944">
        <ele>1754</ele>
        <time>2024-09-16T07:08:02Z</time>
      </trkpt>
      <trkpt lat="42.48584" lon="2.14947">
        <ele>1753</ele>
        <time>2024-09-16T07:08:06Z</time>
      </trkpt>
      <trkpt lat="42.48582" lon="2.1495">
        <ele>1754</ele>
        <time>2024-09-16T07:08:11Z</time>
      </trkpt>
      <trkpt lat="42.48579" lon="2.14952">
        <ele>1756</ele>
        <time>2024-09-16T07:08:17Z</time>
      </trkpt>
      <trkpt lat="42.48577" lon="2.14955">
        <ele>1756</ele>
        <time>2024-09-16T07:08:21Z</time>
      </trkpt>
      <trkpt lat="42.48574" lon="2.14958">
        <ele>1757</ele>
        <time>2024-09-16T07:08:27Z</time>
      </trkpt>
      <trkpt lat="42.48573" lon="2.14961">
        <ele>1757</ele>
        <time>2024-09-16T07:08:31Z</time>
      </trkpt>
      <trkpt lat="42.48573" lon="2.14966">
        <ele>1758</ele>
        <time>2024-09-16T07:08:34Z</time>
      </trkpt>
      <trkpt lat="42.48571" lon="2.1497">
        <ele>1760</ele>
        <time>2024-09-16T07:08:41Z</time>
      </trkpt>
      <trkpt lat="42.48569" lon="2.14973">
        <ele>1760</ele>
        <time>2024-09-16T07:08:45Z</time>
      </trkpt>
      <trkpt lat="42.48567" lon="2.14975">
        <ele>1761</ele>
        <time>2024-09-16T07:08:51Z</time>
      </trkpt>
      <trkpt lat="42.48565" lon="2.14978">
        <ele>1761</ele>
        <time>2024-09-16T07:08:55Z</time>
      </trkpt>
      <trkpt lat="42.48563" lon="2.14981">
        <ele>1761</ele>
        <time>2024-09-16T07:09:00Z</time>
      </trkpt>
      <trkpt lat="42.48561" lon="2.14983">
        <ele>1761</ele>
        <time>2024-09-16T07:09:03Z</time>
      </trkpt>
      <trkpt lat="42.48559" lon="2.14987">
        <ele>1763</ele>
        <time>2024-09-16T07:09:10Z</time>
      </trkpt>
      <trkpt lat="42.48558" lon="2.14991">
        <ele>1762</ele>
        <time>2024-09-16T07:09:15Z</time>
      </trkpt>
      <trkpt lat="42.48556" lon="2.14994">
        <ele>1764</ele>
        <time>2024-09-16T07:09:21Z</time>
      </trkpt>
      <trkpt lat="42.48555" lon="2.14997">
        <ele>1764</ele>
        <time>2024-09-16T07:09:27Z</time>
      </trkpt>
      <trkpt lat="42.48553" lon="2.15001">
        <ele>1763</ele>
        <time>2024-09-16T07:09:30Z</time>
      </trkpt>
      <trkpt lat="42.48552" lon="2.15005">
        <ele>1764</ele>
        <time>2024-09-16T07:09:35Z</time>
      </trkpt>
      <trkpt lat="42.4855" lon="2.15009">
        <ele>1765</ele>
        <time>2024-09-16T07:09:40Z</time>
      </trkpt>
      <trkpt lat="42.4855" lon="2.15013">
        <ele>1765</ele>
        <time>2024-09-16T07:09:44Z</time>
      </trkpt>
      <trkpt lat="42.4855" lon="2.15017">
        <ele>1765</ele>
        <time>2024-09-16T07:09:48Z</time>
      </trkpt>
      <trkpt lat="42.48549" lon="2.15021">
        <ele>1766</ele>
        <time>2024-09-16T07:09:53Z</time>
      </trkpt>
      <trkpt lat="42.48547" lon="2.15024">
        <ele>1766</ele>
        <time>2024-09-16T07:09:57Z</time>
      </trkpt>
      <trkpt lat="42.48545" lon="2.15028">
        <ele>1767</ele>
        <time>2024-09-16T07:10:03Z</time>
      </trkpt>
      <trkpt lat="42.48544" lon="2.15031">
        <ele>1768</ele>
        <time>2024-09-16T07:10:08Z</time>
      </trkpt>
      <trkpt lat="42.48542" lon="2.15034">
        <ele>1768</ele>
        <time>2024-09-16T07:10:10Z</time>
      </trkpt>
      <trkpt lat="42.4854" lon="2.15037">
        <ele>1769</ele>
        <time>2024-09-16T07:10:16Z</time>
      </trkpt>
      <trkpt lat="42.48539" lon="2.15041">
        <ele>1771</ele>
        <time>2024-09-16T07:10:25Z</time>
      </trkpt>
      <trkpt lat="42.48538" lon="2.15045">
        <ele>1771</ele>
        <time>2024-09-16T07:10:30Z</time>
      </trkpt>
      <trkpt lat="42.48537" lon="2.15048">
        <ele>1770</ele>
        <time>2024-09-16T07:10:40Z</time>
      </trkpt>
      <trkpt lat="42.48536" lon="2.15052">
        <ele>1771</ele>
        <time>2024-09-16T07:10:45Z</time>
      </trkpt>
      <trkpt lat="42.48534" lon="2.15054">
        <ele>1771</ele>
        <time>2024-09-16T07:10:49Z</time>
      </trkpt>
      <trkpt lat="42.48533" lon="2.15058">
        <ele>1772</ele>
        <time>2024-09-16T07:10:53Z</time>
      </trkpt>
      <trkpt lat="42.48532" lon="2.15062">
        <ele>1773</ele>
        <time>2024-09-16T07:10:59Z</time>
      </trkpt>
      <trkpt lat="42.48531" lon="2.15066">
        <ele>1774</ele>
        <time>2024-09-16T07:11:03Z</time>
      </trkpt>
      <trkpt lat="42.48531" lon="2.1507">
        <ele>1775</ele>
        <time>2024-09-16T07:11:08Z</time>
      </trkpt>
      <trkpt lat="42.4853" lon="2.15074">
        <ele>1775</ele>
        <time>2024-09-16T07:11:13Z</time>
      </trkpt>
      <trkpt lat="42.48531" lon="2.15077">
        <ele>1777</ele>
        <time>2024-09-16T07:11:17Z</time>
      </trkpt>
      <trkpt lat="42.4853" lon="2.15081">
        <ele>1779</ele>
        <time>2024-09-16T07:11:25Z</time>
      </trkpt>
      <trkpt lat="42.48528" lon="2.15085">
        <ele>1779</ele>
        <time>2024-09-16T07:11:27Z</time>
      </trkpt>
      <trkpt lat="42.48528" lon="2.1509">
        <ele>1780</ele>
        <time>2024-09-16T07:11:34Z</time>
      </trkpt>
      <trkpt lat="42.48527" lon="2.15094">
        <ele>1780</ele>
        <time>2024-09-16T07:11:43Z</time>
      </trkpt>
      <trkpt lat="42.48528" lon="2.15098">
        <ele>1780</ele>
        <time>2024-09-16T07:11:49Z</time>
      </trkpt>
      <trkpt lat="42.48527" lon="2.151">
        <ele>1780</ele>
        <time>2024-09-16T07:11:53Z</time>
      </trkpt>
      <trkpt lat="42.48527" lon="2.15103">
        <ele>1780</ele>
        <time>2024-09-16T07:11:57Z</time>
      </trkpt>
      <trkpt lat="42.48527" lon="2.15107">
        <ele>1782</ele>
        <time>2024-09-16T07:12:03Z</time>
      </trkpt>
      <trkpt lat="42.48525" lon="2.15111">
        <ele>1783</ele>
        <time>2024-09-16T07:12:08Z</time>
      </trkpt>
      <trkpt lat="42.48525" lon="2.15114">
        <ele>1783</ele>
        <time>2024-09-16T07:12:11Z</time>
      </trkpt>
      <trkpt lat="42.48523" lon="2.15118">
        <ele>1784</ele>
        <time>2024-09-16T07:12:15Z</time>
      </trkpt>
      <trkpt lat="42.48523" lon="2.15122">
        <ele>1785</ele>
        <time>2024-09-16T07:12:22Z</time>
      </trkpt>
      <trkpt lat="42.48521" lon="2.15124">
        <ele>1786</ele>
        <time>2024-09-16T07:12:25Z</time>
      </trkpt>
      <trkpt lat="42.48521" lon="2.15127">
        <ele>1787</ele>
        <time>2024-09-16T07:12:29Z</time>
      </trkpt>
      <trkpt lat="42.4852" lon="2.15131">
        <ele>1789</ele>
        <time>2024-09-16T07:12:34Z</time>
      </trkpt>
      <trkpt lat="42.4852" lon="2.15134">
        <ele>1790</ele>
        <time>2024-09-16T07:12:39Z</time>
      </trkpt>
      <trkpt lat="42.48519" lon="2.15138">
        <ele>1789</ele>
        <time>2024-09-16T07:12:45Z</time>
      </trkpt>
      <trkpt lat="42.48518" lon="2.15142">
        <ele>1789</ele>
        <time>2024-09-16T07:12:49Z</time>
      </trkpt>
      <trkpt lat="42.48517" lon="2.15146">
        <ele>1790</ele>
        <time>2024-09-16T07:12:54Z</time>
      </trkpt>
      <trkpt lat="42.48516" lon="2.15149">
        <ele>1791</ele>
        <time>2024-09-16T07:13:01Z</time>
      </trkpt>
      <trkpt lat="42.48514" lon="2.15155">
        <ele>1791</ele>
        <time>2024-09-16T07:13:05Z</time>
      </trkpt>
      <trkpt lat="42.48514" lon="2.15159">
        <ele>1792</ele>
        <time>2024-09-16T07:13:10Z</time>
      </trkpt>
      <trkpt lat="42.48513" lon="2.15163">
        <ele>1792</ele>
        <time>2024-09-16T07:13:14Z</time>
      </trkpt>
      <trkpt lat="42.48512" lon="2.15167">
        <ele>1792</ele>
        <time>2024-09-16T07:13:17Z</time>
      </trkpt>
      <trkpt lat="42.48511" lon="2.15171">
        <ele>1791</ele>
        <time>2024-09-16T07:13:21Z</time>
      </trkpt>
      <trkpt lat="42.48509" lon="2.15175">
        <ele>1791</ele>
        <time>2024-09-16T07:13:25Z</time>
      </trkpt>
      <trkpt lat="42.48507" lon="2.15179">
        <ele>1790</ele>
        <time>2024-09-16T07:13:28Z</time>
      </trkpt>
      <trkpt lat="42.48505" lon="2.15182">
        <ele>1792</ele>
        <time>2024-09-16T07:13:30Z</time>
      </trkpt>
      <trkpt lat="42.48504" lon="2.15187">
        <ele>1793</ele>
        <time>2024-09-16T07:13:33Z</time>
      </trkpt>
      <trkpt lat="42.48501" lon="2.1519">
        <ele>1794</ele>
        <time>2024-09-16T07:13:35Z</time>
      </trkpt>
      <trkpt lat="42.48499" lon="2.15194">
        <ele>1795</ele>
        <time>2024-09-16T07:13:38Z</time>
      </trkpt>
      <trkpt lat="42.48496" lon="2.15198">
        <ele>1795</ele>
        <time>2024-09-16T07:13:41Z</time>
      </trkpt>
      <trkpt lat="42.48493" lon="2.15202">
        <ele>1795</ele>
        <time>2024-09-16T07:13:44Z</time>
      </trkpt>
      <trkpt lat="42.48491" lon="2.15206">
        <ele>1795</ele>
        <time>2024-09-16T07:13:50Z</time>
      </trkpt>
      <trkpt lat="42.48489" lon="2.15209">
        <ele>1795</ele>
        <time>2024-09-16T07:13:53Z</time>
      </trkpt>
      <trkpt lat="42.48487" lon="2.15213">
        <ele>1795</ele>
        <time>2024-09-16T07:13:55Z</time>
      </trkpt>
      <trkpt lat="42.48485" lon="2.15216">
        <ele>1796</ele>
        <time>2024-09-16T07:13:58Z</time>
      </trkpt>
      <trkpt lat="42.48483" lon="2.15219">
        <ele>1796</ele>
        <time>2024-09-16T07:14:00Z</time>
      </trkpt>
      <trkpt lat="42.48481" lon="2.15222">
        <ele>1797</ele>
        <time>2024-09-16T07:14:04Z</time>
      </trkpt>
      <trkpt lat="42.48479" lon="2.15226">
        <ele>1796</ele>
        <time>2024-09-16T07:14:07Z</time>
      </trkpt>
      <trkpt lat="42.48478" lon="2.15229">
        <ele>1796</ele>
        <time>2024-09-16T07:14:10Z</time>
      </trkpt>
      <trkpt lat="42.48476" lon="2.15232">
        <ele>1798</ele>
        <time>2024-09-16T07:14:13Z</time>
      </trkpt>
      <trkpt lat="42.48474" lon="2.15235">
        <ele>1798</ele>
        <time>2024-09-16T07:14:17Z</time>
      </trkpt>
      <trkpt lat="42.48472" lon="2.15238">
        <ele>1799</ele>
        <time>2024-09-16T07:14:20Z</time>
      </trkpt>
      <trkpt lat="42.4847" lon="2.15241">
        <ele>1799</ele>
        <time>2024-09-16T07:14:24Z</time>
      </trkpt>
      <trkpt lat="42.48468" lon="2.15244">
        <ele>1800</ele>
        <time>2024-09-16T07:14:28Z</time>
      </trkpt>
      <trkpt lat="42.48466" lon="2.15248">
        <ele>1800</ele>
        <time>2024-09-16T07:14:33Z</time>
      </trkpt>
      <trkpt lat="42.48465" lon="2.1525">
        <ele>1800</ele>
        <time>2024-09-16T07:14:39Z</time>
      </trkpt>
      <trkpt lat="42.48462" lon="2.15254">
        <ele>1802</ele>
        <time>2024-09-16T07:14:44Z</time>
      </trkpt>
      <trkpt lat="42.48461" lon="2.15257">
        <ele>1803</ele>
        <time>2024-09-16T07:14:49Z</time>
      </trkpt>
      <trkpt lat="42.4846" lon="2.15262">
        <ele>1805</ele>
        <time>2024-09-16T07:14:56Z</time>
      </trkpt>
      <trkpt lat="42.48458" lon="2.15265">
        <ele>1805</ele>
        <time>2024-09-16T07:15:00Z</time>
      </trkpt>
      <trkpt lat="42.48457" lon="2.1527">
        <ele>1807</ele>
        <time>2024-09-16T07:15:04Z</time>
      </trkpt>
      <trkpt lat="42.48454" lon="2.15272">
        <ele>1806</ele>
        <time>2024-09-16T07:15:07Z</time>
      </trkpt>
      <trkpt lat="42.48453" lon="2.15276">
        <ele>1808</ele>
        <time>2024-09-16T07:15:14Z</time>
      </trkpt>
      <trkpt lat="42.48451" lon="2.15279">
        <ele>1808</ele>
        <time>2024-09-16T07:15:22Z</time>
      </trkpt>
      <trkpt lat="42.4845" lon="2.15283">
        <ele>1808</ele>
        <time>2024-09-16T07:15:29Z</time>
      </trkpt>
      <trkpt lat="42.48448" lon="2.15287">
        <ele>1809</ele>
        <time>2024-09-16T07:15:34Z</time>
      </trkpt>
      <trkpt lat="42.48446" lon="2.1529">
        <ele>1811</ele>
        <time>2024-09-16T07:15:41Z</time>
      </trkpt>
      <trkpt lat="42.48443" lon="2.15293">
        <ele>1810</ele>
        <time>2024-09-16T07:15:47Z</time>
      </trkpt>
      <trkpt lat="42.48442" lon="2.15297">
        <ele>1811</ele>
        <time>2024-09-16T07:15:52Z</time>
      </trkpt>
      <trkpt lat="42.4844" lon="2.153">
        <ele>1812</ele>
        <time>2024-09-16T07:15:57Z</time>
      </trkpt>
      <trkpt lat="42.48437" lon="2.15302">
        <ele>1813</ele>
        <time>2024-09-16T07:16:01Z</time>
      </trkpt>
      <trkpt lat="42.48436" lon="2.15306">
        <ele>1813</ele>
        <time>2024-09-16T07:16:05Z</time>
      </trkpt>
      <trkpt lat="42.48434" lon="2.15309">
        <ele>1813</ele>
        <time>2024-09-16T07:16:09Z</time>
      </trkpt>
      <trkpt lat="42.48433" lon="2.15313">
        <ele>1813</ele>
        <time>2024-09-16T07:16:12Z</time>
      </trkpt>
      <trkpt lat="42.48431" lon="2.15316">
        <ele>1813</ele>
        <time>2024-09-16T07:16:19Z</time>
      </trkpt>
      <trkpt lat="42.48429" lon="2.15318">
        <ele>1814</ele>
        <time>2024-09-16T07:16:22Z</time>
      </trkpt>
      <trkpt lat="42.48427" lon="2.15322">
        <ele>1815</ele>
        <time>2024-09-16T07:16:25Z</time>
      </trkpt>
      <trkpt lat="42.48426" lon="2.15326">
        <ele>1815</ele>
        <time>2024-09-16T07:16:28Z</time>
      </trkpt>
      <trkpt lat="42.48424" lon="2.15329">
        <ele>1815</ele>
        <time>2024-09-16T07:16:31Z</time>
      </trkpt>
      <trkpt lat="42.48421" lon="2.15331">
        <ele>1815</ele>
        <time>2024-09-16T07:16:34Z</time>
      </trkpt>
      <trkpt lat="42.48418" lon="2.15334">
        <ele>1817</ele>
        <time>2024-09-16T07:16:37Z</time>
      </trkpt>
      <trkpt lat="42.48416" lon="2.15337">
        <ele>1817</ele>
        <time>2024-09-16T07:16:40Z</time>
      </trkpt>
      <trkpt lat="42.48414" lon="2.1534">
        <ele>1819</ele>
        <time>2024-09-16T07:16:43Z</time>
      </trkpt>
      <trkpt lat="42.48412" lon="2.15343">
        <ele>1819</ele>
        <time>2024-09-16T07:16:46Z</time>
      </trkpt>
      <trkpt lat="42.4841" lon="2.15347">
        <ele>1819</ele>
        <time>2024-09-16T07:16:49Z</time>
      </trkpt>
      <trkpt lat="42.48409" lon="2.15351">
        <ele>1820</ele>
        <time>2024-09-16T07:16:54Z</time>
      </trkpt>
      <trkpt lat="42.48407" lon="2.15355">
        <ele>1820</ele>
        <time>2024-09-16T07:16:56Z</time>
      </trkpt>
      <trkpt lat="42.48405" lon="2.15358">
        <ele>1821</ele>
        <time>2024-09-16T07:17:00Z</time>
      </trkpt>
      <trkpt lat="42.48404" lon="2.15361">
        <ele>1821</ele>
        <time>2024-09-16T07:17:02Z</time>
      </trkpt>
      <trkpt lat="42.48401" lon="2.15363">
        <ele>1821</ele>
        <time>2024-09-16T07:17:06Z</time>
      </trkpt>
      <trkpt lat="42.48399" lon="2.15365">
        <ele>1821</ele>
        <time>2024-09-16T07:17:10Z</time>
      </trkpt>
      <trkpt lat="42.48397" lon="2.15368">
        <ele>1820</ele>
        <time>2024-09-16T07:17:14Z</time>
      </trkpt>
      <trkpt lat="42.48395" lon="2.15371">
        <ele>1820</ele>
        <time>2024-09-16T07:17:18Z</time>
      </trkpt>
      <trkpt lat="42.48392" lon="2.15373">
        <ele>1822</ele>
        <time>2024-09-16T07:17:21Z</time>
      </trkpt>
      <trkpt lat="42.48389" lon="2.15376">
        <ele>1822</ele>
        <time>2024-09-16T07:17:24Z</time>
      </trkpt>
      <trkpt lat="42.48386" lon="2.15378">
        <ele>1823</ele>
        <time>2024-09-16T07:17:29Z</time>
      </trkpt>
      <trkpt lat="42.48383" lon="2.15379">
        <ele>1823</ele>
        <time>2024-09-16T07:17:33Z</time>
      </trkpt>
      <trkpt lat="42.4838" lon="2.15382">
        <ele>1824</ele>
        <time>2024-09-16T07:17:40Z</time>
      </trkpt>
      <trkpt lat="42.48379" lon="2.15386">
        <ele>1823</ele>
        <time>2024-09-16T07:17:46Z</time>
      </trkpt>
      <trkpt lat="42.48377" lon="2.15389">
        <ele>1824</ele>
        <time>2024-09-16T07:17:50Z</time>
      </trkpt>
      <trkpt lat="42.48376" lon="2.15392">
        <ele>1825</ele>
        <time>2024-09-16T07:17:52Z</time>
      </trkpt>
      <trkpt lat="42.48373" lon="2.15394">
        <ele>1825</ele>
        <time>2024-09-16T07:17:55Z</time>
      </trkpt>
      <trkpt lat="42.4837" lon="2.15397">
        <ele>1824</ele>
        <time>2024-09-16T07:18:00Z</time>
      </trkpt>
      <trkpt lat="42.48368" lon="2.154">
        <ele>1825</ele>
        <time>2024-09-16T07:18:04Z</time>
      </trkpt>
      <trkpt lat="42.48365" lon="2.15403">
        <ele>1826</ele>
        <time>2024-09-16T07:18:07Z</time>
      </trkpt>
      <trkpt lat="42.48364" lon="2.15407">
        <ele>1827</ele>
        <time>2024-09-16T07:18:10Z</time>
      </trkpt>
      <trkpt lat="42.48362" lon="2.15411">
        <ele>1828</ele>
        <time>2024-09-16T07:18:13Z</time>
      </trkpt>
      <trkpt lat="42.4836" lon="2.15415">
        <ele>1828</ele>
        <time>2024-09-16T07:18:16Z</time>
      </trkpt>
      <trkpt lat="42.48358" lon="2.15418">
        <ele>1829</ele>
        <time>2024-09-16T07:18:20Z</time>
      </trkpt>
      <trkpt lat="42.48357" lon="2.15422">
        <ele>1829</ele>
        <time>2024-09-16T07:18:23Z</time>
      </trkpt>
      <trkpt lat="42.48355" lon="2.15426">
        <ele>1829</ele>
        <time>2024-09-16T07:18:26Z</time>
      </trkpt>
      <trkpt lat="42.48353" lon="2.15429">
        <ele>1831</ele>
        <time>2024-09-16T07:18:30Z</time>
      </trkpt>
      <trkpt lat="42.48352" lon="2.15433">
        <ele>1832</ele>
        <time>2024-09-16T07:18:33Z</time>
      </trkpt>
      <trkpt lat="42.48351" lon="2.15437">
        <ele>1833</ele>
        <time>2024-09-16T07:18:36Z</time>
      </trkpt>
      <trkpt lat="42.48349" lon="2.15439">
        <ele>1832</ele>
        <time>2024-09-16T07:18:41Z</time>
      </trkpt>
      <trkpt lat="42.48346" lon="2.15442">
        <ele>1831</ele>
        <time>2024-09-16T07:18:46Z</time>
      </trkpt>
      <trkpt lat="42.48345" lon="2.15446">
        <ele>1830</ele>
        <time>2024-09-16T07:18:50Z</time>
      </trkpt>
      <trkpt lat="42.48344" lon="2.1545">
        <ele>1831</ele>
        <time>2024-09-16T07:18:54Z</time>
      </trkpt>
      <trkpt lat="42.48343" lon="2.15453">
        <ele>1831</ele>
        <time>2024-09-16T07:18:58Z</time>
      </trkpt>
      <trkpt lat="42.48342" lon="2.15457">
        <ele>1831</ele>
        <time>2024-09-16T07:19:03Z</time>
      </trkpt>
      <trkpt lat="42.4834" lon="2.15461">
        <ele>1832</ele>
        <time>2024-09-16T07:19:07Z</time>
      </trkpt>
      <trkpt lat="42.48336" lon="2.15464">
        <ele>1833</ele>
        <time>2024-09-16T07:19:10Z</time>
      </trkpt>
      <trkpt lat="42.48336" lon="2.15467">
        <ele>1833</ele>
        <time>2024-09-16T07:19:12Z</time>
      </trkpt>
      <trkpt lat="42.48338" lon="2.15469">
        <ele>1834</ele>
        <time>2024-09-16T07:19:22Z</time>
      </trkpt>
      <trkpt lat="42.48337" lon="2.15471">
        <ele>1835</ele>
        <time>2024-09-16T07:19:25Z</time>
      </trkpt>
      <trkpt lat="42.48336" lon="2.15475">
        <ele>1836</ele>
        <time>2024-09-16T07:19:29Z</time>
      </trkpt>
      <trkpt lat="42.48334" lon="2.15479">
        <ele>1836</ele>
        <time>2024-09-16T07:19:34Z</time>
      </trkpt>
      <trkpt lat="42.48333" lon="2.15484">
        <ele>1835</ele>
        <time>2024-09-16T07:19:38Z</time>
      </trkpt>
      <trkpt lat="42.48332" lon="2.15488">
        <ele>1837</ele>
        <time>2024-09-16T07:19:43Z</time>
      </trkpt>
      <trkpt lat="42.4833" lon="2.15492">
        <ele>1838</ele>
        <time>2024-09-16T07:19:48Z</time>
      </trkpt>
      <trkpt lat="42.48329" lon="2.15495">
        <ele>1839</ele>
        <time>2024-09-16T07:19:52Z</time>
      </trkpt>
      <trkpt lat="42.48329" lon="2.15498">
        <ele>1839</ele>
        <time>2024-09-16T07:19:54Z</time>
      </trkpt>
      <trkpt lat="42.48328" lon="2.15501">
        <ele>1839</ele>
        <time>2024-09-16T07:19:59Z</time>
      </trkpt>
      <trkpt lat="42.48326" lon="2.15503">
        <ele>1840</ele>
        <time>2024-09-16T07:20:02Z</time>
      </trkpt>
      <trkpt lat="42.48323" lon="2.15506">
        <ele>1842</ele>
        <time>2024-09-16T07:20:11Z</time>
      </trkpt>
      <trkpt lat="42.48322" lon="2.15509">
        <ele>1843</ele>
        <time>2024-09-16T07:20:16Z</time>
      </trkpt>
      <trkpt lat="42.4832" lon="2.15513">
        <ele>1842</ele>
        <time>2024-09-16T07:20:21Z</time>
      </trkpt>
      <trkpt lat="42.48318" lon="2.15516">
        <ele>1843</ele>
        <time>2024-09-16T07:20:27Z</time>
      </trkpt>
      <trkpt lat="42.48316" lon="2.1552">
        <ele>1844</ele>
        <time>2024-09-16T07:20:30Z</time>
      </trkpt>
      <trkpt lat="42.48314" lon="2.15522">
        <ele>1846</ele>
        <time>2024-09-16T07:20:35Z</time>
      </trkpt>
      <trkpt lat="42.48313" lon="2.15526">
        <ele>1847</ele>
        <time>2024-09-16T07:20:39Z</time>
      </trkpt>
      <trkpt lat="42.48312" lon="2.15531">
        <ele>1849</ele>
        <time>2024-09-16T07:20:45Z</time>
      </trkpt>
      <trkpt lat="42.48313" lon="2.15535">
        <ele>1850</ele>
        <time>2024-09-16T07:20:50Z</time>
      </trkpt>
      <trkpt lat="42.48314" lon="2.15539">
        <ele>1851</ele>
        <time>2024-09-16T07:20:55Z</time>
      </trkpt>
      <trkpt lat="42.48314" lon="2.15543">
        <ele>1850</ele>
        <time>2024-09-16T07:21:00Z</time>
      </trkpt>
      <trkpt lat="42.48314" lon="2.15547">
        <ele>1851</ele>
        <time>2024-09-16T07:21:06Z</time>
      </trkpt>
      <trkpt lat="42.48315" lon="2.1555">
        <ele>1852</ele>
        <time>2024-09-16T07:21:11Z</time>
      </trkpt>
      <trkpt lat="42.48316" lon="2.15554">
        <ele>1852</ele>
        <time>2024-09-16T07:21:16Z</time>
      </trkpt>
      <trkpt lat="42.48315" lon="2.15558">
        <ele>1854</ele>
        <time>2024-09-16T07:21:21Z</time>
      </trkpt>
      <trkpt lat="42.48315" lon="2.15562">
        <ele>1856</ele>
        <time>2024-09-16T07:21:28Z</time>
      </trkpt>
      <trkpt lat="42.48315" lon="2.15566">
        <ele>1856</ele>
        <time>2024-09-16T07:21:33Z</time>
      </trkpt>
      <trkpt lat="42.48314" lon="2.1557">
        <ele>1856</ele>
        <time>2024-09-16T07:21:39Z</time>
      </trkpt>
      <trkpt lat="42.48312" lon="2.15575">
        <ele>1856</ele>
        <time>2024-09-16T07:21:46Z</time>
      </trkpt>
      <trkpt lat="42.48312" lon="2.15579">
        <ele>1855</ele>
        <time>2024-09-16T07:21:53Z</time>
      </trkpt>
      <trkpt lat="42.48313" lon="2.15583">
        <ele>1855</ele>
        <time>2024-09-16T07:22:00Z</time>
      </trkpt>
      <trkpt lat="42.48315" lon="2.15587">
        <ele>1856</ele>
        <time>2024-09-16T07:22:03Z</time>
      </trkpt>
      <trkpt lat="42.48315" lon="2.15591">
        <ele>1857</ele>
        <time>2024-09-16T07:22:09Z</time>
      </trkpt>
      <trkpt lat="42.48316" lon="2.15596">
        <ele>1857</ele>
        <time>2024-09-16T07:22:14Z</time>
      </trkpt>
      <trkpt lat="42.48316" lon="2.15601">
        <ele>1860</ele>
        <time>2024-09-16T07:22:21Z</time>
      </trkpt>
      <trkpt lat="42.48315" lon="2.15605">
        <ele>1860</ele>
        <time>2024-09-16T07:22:26Z</time>
      </trkpt>
      <trkpt lat="42.48314" lon="2.15609">
        <ele>1860</ele>
        <time>2024-09-16T07:22:30Z</time>
      </trkpt>
      <trkpt lat="42.48312" lon="2.15612">
        <ele>1861</ele>
        <time>2024-09-16T07:22:36Z</time>
      </trkpt>
      <trkpt lat="42.48311" lon="2.15615">
        <ele>1860</ele>
        <time>2024-09-16T07:22:42Z</time>
      </trkpt>
      <trkpt lat="42.48309" lon="2.15618">
        <ele>1860</ele>
        <time>2024-09-16T07:22:46Z</time>
      </trkpt>
      <trkpt lat="42.48306" lon="2.1562">
        <ele>1861</ele>
        <time>2024-09-16T07:22:51Z</time>
      </trkpt>
      <trkpt lat="42.48304" lon="2.15622">
        <ele>1861</ele>
        <time>2024-09-16T07:22:57Z</time>
      </trkpt>
      <trkpt lat="42.48301" lon="2.15623">
        <ele>1862</ele>
        <time>2024-09-16T07:23:01Z</time>
      </trkpt>
      <trkpt lat="42.48298" lon="2.15626">
        <ele>1863</ele>
        <time>2024-09-16T07:23:03Z</time>
      </trkpt>
      <trkpt lat="42.48296" lon="2.15627">
        <ele>1863</ele>
        <time>2024-09-16T07:23:11Z</time>
      </trkpt>
      <trkpt lat="42.48293" lon="2.15629">
        <ele>1864</ele>
        <time>2024-09-16T07:23:15Z</time>
      </trkpt>
      <trkpt lat="42.4829" lon="2.1563">
        <ele>1865</ele>
        <time>2024-09-16T07:23:19Z</time>
      </trkpt>
      <trkpt lat="42.48287" lon="2.15631">
        <ele>1866</ele>
        <time>2024-09-16T07:23:23Z</time>
      </trkpt>
      <trkpt lat="42.48284" lon="2.15632">
        <ele>1866</ele>
        <time>2024-09-16T07:23:27Z</time>
      </trkpt>
      <trkpt lat="42.48281" lon="2.15635">
        <ele>1869</ele>
        <time>2024-09-16T07:23:35Z</time>
      </trkpt>
      <trkpt lat="42.48282" lon="2.15636">
        <ele>1870</ele>
        <time>2024-09-16T07:23:49Z</time>
      </trkpt>
      <trkpt lat="42.4828" lon="2.15636">
        <ele>1869</ele>
        <time>2024-09-16T07:23:54Z</time>
      </trkpt>
      <trkpt lat="42.48277" lon="2.15637">
        <ele>1869</ele>
        <time>2024-09-16T07:24:02Z</time>
      </trkpt>
      <trkpt lat="42.48274" lon="2.15637">
        <ele>1871</ele>
        <time>2024-09-16T07:24:07Z</time>
      </trkpt>
      <trkpt lat="42.48271" lon="2.15636">
        <ele>1872</ele>
        <time>2024-09-16T07:24:10Z</time>
      </trkpt>
      <trkpt lat="42.48268" lon="2.15637">
        <ele>1874</ele>
        <time>2024-09-16T07:24:15Z</time>
      </trkpt>
      <trkpt lat="42.48265" lon="2.15639">
        <ele>1873</ele>
        <time>2024-09-16T07:24:21Z</time>
      </trkpt>
      <trkpt lat="42.48262" lon="2.15642">
        <ele>1873</ele>
        <time>2024-09-16T07:24:25Z</time>
      </trkpt>
      <trkpt lat="42.48259" lon="2.15644">
        <ele>1873</ele>
        <time>2024-09-16T07:24:31Z</time>
      </trkpt>
      <trkpt lat="42.48257" lon="2.15647">
        <ele>1874</ele>
        <time>2024-09-16T07:24:35Z</time>
      </trkpt>
      <trkpt lat="42.48254" lon="2.15651">
        <ele>1874</ele>
        <time>2024-09-16T07:24:39Z</time>
      </trkpt>
      <trkpt lat="42.48252" lon="2.15654">
        <ele>1875</ele>
        <time>2024-09-16T07:24:42Z</time>
      </trkpt>
      <trkpt lat="42.48248" lon="2.15655">
        <ele>1876</ele>
        <time>2024-09-16T07:24:45Z</time>
      </trkpt>
      <trkpt lat="42.48245" lon="2.15657">
        <ele>1876</ele>
        <time>2024-09-16T07:24:47Z</time>
      </trkpt>
      <trkpt lat="42.48242" lon="2.15657">
        <ele>1876</ele>
        <time>2024-09-16T07:24:50Z</time>
      </trkpt>
      <trkpt lat="42.48239" lon="2.15658">
        <ele>1877</ele>
        <time>2024-09-16T07:24:55Z</time>
      </trkpt>
      <trkpt lat="42.48236" lon="2.15659">
        <ele>1877</ele>
        <time>2024-09-16T07:24:59Z</time>
      </trkpt>
      <trkpt lat="42.48233" lon="2.1566">
        <ele>1877</ele>
        <time>2024-09-16T07:25:01Z</time>
      </trkpt>
      <trkpt lat="42.48231" lon="2.15662">
        <ele>1877</ele>
        <time>2024-09-16T07:25:06Z</time>
      </trkpt>
      <trkpt lat="42.48229" lon="2.15665">
        <ele>1877</ele>
        <time>2024-09-16T07:25:12Z</time>
      </trkpt>
      <trkpt lat="42.48227" lon="2.15668">
        <ele>1878</ele>
        <time>2024-09-16T07:25:14Z</time>
      </trkpt>
      <trkpt lat="42.48224" lon="2.15669">
        <ele>1878</ele>
        <time>2024-09-16T07:25:18Z</time>
      </trkpt>
      <trkpt lat="42.48222" lon="2.15672">
        <ele>1879</ele>
        <time>2024-09-16T07:25:25Z</time>
      </trkpt>
      <trkpt lat="42.48219" lon="2.15673">
        <ele>1879</ele>
        <time>2024-09-16T07:25:27Z</time>
      </trkpt>
      <trkpt lat="42.48217" lon="2.15675">
        <ele>1880</ele>
        <time>2024-09-16T07:25:30Z</time>
      </trkpt>
      <trkpt lat="42.48215" lon="2.15677">
        <ele>1880</ele>
        <time>2024-09-16T07:25:32Z</time>
      </trkpt>
      <trkpt lat="42.48213" lon="2.1568">
        <ele>1881</ele>
        <time>2024-09-16T07:25:35Z</time>
      </trkpt>
      <trkpt lat="42.48211" lon="2.15683">
        <ele>1881</ele>
        <time>2024-09-16T07:25:37Z</time>
      </trkpt>
      <trkpt lat="42.48209" lon="2.15685">
        <ele>1881</ele>
        <time>2024-09-16T07:25:40Z</time>
      </trkpt>
      <trkpt lat="42.48206" lon="2.15688">
        <ele>1881</ele>
        <time>2024-09-16T07:25:43Z</time>
      </trkpt>
      <trkpt lat="42.48203" lon="2.15691">
        <ele>1881</ele>
        <time>2024-09-16T07:25:46Z</time>
      </trkpt>
      <trkpt lat="42.48201" lon="2.15694">
        <ele>1882</ele>
        <time>2024-09-16T07:25:49Z</time>
      </trkpt>
      <trkpt lat="42.48199" lon="2.15698">
        <ele>1882</ele>
        <time>2024-09-16T07:25:51Z</time>
      </trkpt>
      <trkpt lat="42.48197" lon="2.15701">
        <ele>1882</ele>
        <time>2024-09-16T07:25:54Z</time>
      </trkpt>
      <trkpt lat="42.48195" lon="2.15705">
        <ele>1881</ele>
        <time>2024-09-16T07:25:57Z</time>
      </trkpt>
      <trkpt lat="42.48193" lon="2.15709">
        <ele>1882</ele>
        <time>2024-09-16T07:26:00Z</time>
      </trkpt>
      <trkpt lat="42.48192" lon="2.15712">
        <ele>1882</ele>
        <time>2024-09-16T07:26:03Z</time>
      </trkpt>
      <trkpt lat="42.4819" lon="2.15716">
        <ele>1882</ele>
        <time>2024-09-16T07:26:07Z</time>
      </trkpt>
      <trkpt lat="42.48187" lon="2.15718">
        <ele>1883</ele>
        <time>2024-09-16T07:26:09Z</time>
      </trkpt>
      <trkpt lat="42.48185" lon="2.15722">
        <ele>1882</ele>
        <time>2024-09-16T07:26:13Z</time>
      </trkpt>
      <trkpt lat="42.48183" lon="2.15726">
        <ele>1883</ele>
        <time>2024-09-16T07:26:16Z</time>
      </trkpt>
      <trkpt lat="42.48181" lon="2.15729">
        <ele>1884</ele>
        <time>2024-09-16T07:26:19Z</time>
      </trkpt>
      <trkpt lat="42.4818" lon="2.15733">
        <ele>1882</ele>
        <time>2024-09-16T07:26:22Z</time>
      </trkpt>
      <trkpt lat="42.48178" lon="2.15737">
        <ele>1883</ele>
        <time>2024-09-16T07:26:27Z</time>
      </trkpt>
      <trkpt lat="42.48175" lon="2.1574">
        <ele>1882</ele>
        <time>2024-09-16T07:26:30Z</time>
      </trkpt>
      <trkpt lat="42.48173" lon="2.15744">
        <ele>1882</ele>
        <time>2024-09-16T07:26:33Z</time>
      </trkpt>
      <trkpt lat="42.48171" lon="2.15747">
        <ele>1883</ele>
        <time>2024-09-16T07:26:35Z</time>
      </trkpt>
      <trkpt lat="42.48168" lon="2.1575">
        <ele>1883</ele>
        <time>2024-09-16T07:26:38Z</time>
      </trkpt>
      <trkpt lat="42.48166" lon="2.15753">
        <ele>1883</ele>
        <time>2024-09-16T07:26:41Z</time>
      </trkpt>
      <trkpt lat="42.48164" lon="2.15757">
        <ele>1883</ele>
        <time>2024-09-16T07:26:43Z</time>
      </trkpt>
      <trkpt lat="42.48162" lon="2.15761">
        <ele>1883</ele>
        <time>2024-09-16T07:26:46Z</time>
      </trkpt>
      <trkpt lat="42.48159" lon="2.15765">
        <ele>1883</ele>
        <time>2024-09-16T07:26:49Z</time>
      </trkpt>
      <trkpt lat="42.48157" lon="2.15769">
        <ele>1883</ele>
        <time>2024-09-16T07:26:53Z</time>
      </trkpt>
      <trkpt lat="42.48154" lon="2.15772">
        <ele>1884</ele>
        <time>2024-09-16T07:26:56Z</time>
      </trkpt>
      <trkpt lat="42.48152" lon="2.15775">
        <ele>1884</ele>
        <time>2024-09-16T07:26:58Z</time>
      </trkpt>
      <trkpt lat="42.4815" lon="2.15778">
        <ele>1883</ele>
        <time>2024-09-16T07:27:01Z</time>
      </trkpt>
      <trkpt lat="42.48148" lon="2.15782">
        <ele>1883</ele>
        <time>2024-09-16T07:27:04Z</time>
      </trkpt>
      <trkpt lat="42.48145" lon="2.15784">
        <ele>1883</ele>
        <time>2024-09-16T07:27:06Z</time>
      </trkpt>
      <trkpt lat="42.48143" lon="2.15787">
        <ele>1883</ele>
        <time>2024-09-16T07:27:09Z</time>
      </trkpt>
      <trkpt lat="42.48141" lon="2.1579">
        <ele>1883</ele>
        <time>2024-09-16T07:27:12Z</time>
      </trkpt>
      <trkpt lat="42.48138" lon="2.15793">
        <ele>1884</ele>
        <time>2024-09-16T07:27:14Z</time>
      </trkpt>
      <trkpt lat="42.48136" lon="2.15796">
        <ele>1884</ele>
        <time>2024-09-16T07:27:17Z</time>
      </trkpt>
      <trkpt lat="42.48133" lon="2.15799">
        <ele>1883</ele>
        <time>2024-09-16T07:27:20Z</time>
      </trkpt>
      <trkpt lat="42.48131" lon="2.15801">
        <ele>1883</ele>
        <time>2024-09-16T07:27:23Z</time>
      </trkpt>
      <trkpt lat="42.48128" lon="2.15803">
        <ele>1884</ele>
        <time>2024-09-16T07:27:26Z</time>
      </trkpt>
      <trkpt lat="42.48125" lon="2.15807">
        <ele>1885</ele>
        <time>2024-09-16T07:27:29Z</time>
      </trkpt>
      <trkpt lat="42.48123" lon="2.1581">
        <ele>1884</ele>
        <time>2024-09-16T07:27:32Z</time>
      </trkpt>
      <trkpt lat="42.4812" lon="2.15812">
        <ele>1884</ele>
        <time>2024-09-16T07:27:35Z</time>
      </trkpt>
      <trkpt lat="42.48118" lon="2.15815">
        <ele>1884</ele>
        <time>2024-09-16T07:27:37Z</time>
      </trkpt>
      <trkpt lat="42.48115" lon="2.15817">
        <ele>1884</ele>
        <time>2024-09-16T07:27:40Z</time>
      </trkpt>
      <trkpt lat="42.48112" lon="2.1582">
        <ele>1885</ele>
        <time>2024-09-16T07:27:43Z</time>
      </trkpt>
      <trkpt lat="42.4811" lon="2.15823">
        <ele>1885</ele>
        <time>2024-09-16T07:27:46Z</time>
      </trkpt>
      <trkpt lat="42.48108" lon="2.15825">
        <ele>1886</ele>
        <time>2024-09-16T07:27:48Z</time>
      </trkpt>
      <trkpt lat="42.48104" lon="2.15828">
        <ele>1886</ele>
        <time>2024-09-16T07:27:51Z</time>
      </trkpt>
      <trkpt lat="42.48102" lon="2.15829">
        <ele>1887</ele>
        <time>2024-09-16T07:27:53Z</time>
      </trkpt>
      <trkpt lat="42.48099" lon="2.15832">
        <ele>1886</ele>
        <time>2024-09-16T07:27:56Z</time>
      </trkpt>
      <trkpt lat="42.48096" lon="2.15835">
        <ele>1887</ele>
        <time>2024-09-16T07:27:59Z</time>
      </trkpt>
      <trkpt lat="42.48093" lon="2.15839">
        <ele>1886</ele>
        <time>2024-09-16T07:28:02Z</time>
      </trkpt>
      <trkpt lat="42.4809" lon="2.15842">
        <ele>1888</ele>
        <time>2024-09-16T07:28:06Z</time>
      </trkpt>
      <trkpt lat="42.48088" lon="2.15846">
        <ele>1887</ele>
        <time>2024-09-16T07:28:09Z</time>
      </trkpt>
      <trkpt lat="42.48086" lon="2.15849">
        <ele>1887</ele>
        <time>2024-09-16T07:28:12Z</time>
      </trkpt>
      <trkpt lat="42.48083" lon="2.15852">
        <ele>1887</ele>
        <time>2024-09-16T07:28:14Z</time>
      </trkpt>
      <trkpt lat="42.48081" lon="2.15855">
        <ele>1887</ele>
        <time>2024-09-16T07:28:17Z</time>
      </trkpt>
      <trkpt lat="42.48078" lon="2.15858">
        <ele>1888</ele>
        <time>2024-09-16T07:28:20Z</time>
      </trkpt>
      <trkpt lat="42.48075" lon="2.15861">
        <ele>1889</ele>
        <time>2024-09-16T07:28:22Z</time>
      </trkpt>
      <trkpt lat="42.48072" lon="2.15864">
        <ele>1889</ele>
        <time>2024-09-16T07:28:25Z</time>
      </trkpt>
      <trkpt lat="42.4807" lon="2.15867">
        <ele>1889</ele>
        <time>2024-09-16T07:28:28Z</time>
      </trkpt>
      <trkpt lat="42.48067" lon="2.15869">
        <ele>1890</ele>
        <time>2024-09-16T07:28:31Z</time>
      </trkpt>
      <trkpt lat="42.48065" lon="2.15871">
        <ele>1891</ele>
        <time>2024-09-16T07:28:34Z</time>
      </trkpt>
      <trkpt lat="42.48061" lon="2.15872">
        <ele>1891</ele>
        <time>2024-09-16T07:28:37Z</time>
      </trkpt>
      <trkpt lat="42.48059" lon="2.15876">
        <ele>1892</ele>
        <time>2024-09-16T07:28:42Z</time>
      </trkpt>
      <trkpt lat="42.48057" lon="2.15879">
        <ele>1891</ele>
        <time>2024-09-16T07:28:44Z</time>
      </trkpt>
      <trkpt lat="42.48055" lon="2.15882">
        <ele>1891</ele>
        <time>2024-09-16T07:28:46Z</time>
      </trkpt>
      <trkpt lat="42.48053" lon="2.15885">
        <ele>1891</ele>
        <time>2024-09-16T07:28:48Z</time>
      </trkpt>
      <trkpt lat="42.48052" lon="2.15889">
        <ele>1890</ele>
        <time>2024-09-16T07:28:51Z</time>
      </trkpt>
      <trkpt lat="42.48049" lon="2.15892">
        <ele>1890</ele>
        <time>2024-09-16T07:28:54Z</time>
      </trkpt>
      <trkpt lat="42.48047" lon="2.15894">
        <ele>1891</ele>
        <time>2024-09-16T07:28:56Z</time>
      </trkpt>
      <trkpt lat="42.48045" lon="2.15898">
        <ele>1890</ele>
        <time>2024-09-16T07:28:59Z</time>
      </trkpt>
      <trkpt lat="42.48042" lon="2.15901">
        <ele>1891</ele>
        <time>2024-09-16T07:29:01Z</time>
      </trkpt>
      <trkpt lat="42.4804" lon="2.15903">
        <ele>1892</ele>
        <time>2024-09-16T07:29:02Z</time>
      </trkpt>
      <trkpt lat="42.48037" lon="2.15907">
        <ele>1891</ele>
        <time>2024-09-16T07:29:05Z</time>
      </trkpt>
      <trkpt lat="42.48035" lon="2.15909">
        <ele>1891</ele>
        <time>2024-09-16T07:29:07Z</time>
      </trkpt>
      <trkpt lat="42.48032" lon="2.15911">
        <ele>1892</ele>
        <time>2024-09-16T07:29:10Z</time>
      </trkpt>
      <trkpt lat="42.4803" lon="2.15914">
        <ele>1892</ele>
        <time>2024-09-16T07:29:13Z</time>
      </trkpt>
      <trkpt lat="42.48029" lon="2.15919">
        <ele>1891</ele>
        <time>2024-09-16T07:29:17Z</time>
      </trkpt>
      <trkpt lat="42.48026" lon="2.15922">
        <ele>1892</ele>
        <time>2024-09-16T07:29:20Z</time>
      </trkpt>
      <trkpt lat="42.48024" lon="2.15926">
        <ele>1892</ele>
        <time>2024-09-16T07:29:23Z</time>
      </trkpt>
      <trkpt lat="42.48022" lon="2.15931">
        <ele>1893</ele>
        <time>2024-09-16T07:29:29Z</time>
      </trkpt>
      <trkpt lat="42.48019" lon="2.15934">
        <ele>1894</ele>
        <time>2024-09-16T07:29:33Z</time>
      </trkpt>
      <trkpt lat="42.48017" lon="2.15938">
        <ele>1894</ele>
        <time>2024-09-16T07:29:36Z</time>
      </trkpt>
      <trkpt lat="42.48015" lon="2.15941">
        <ele>1895</ele>
        <time>2024-09-16T07:29:39Z</time>
      </trkpt>
      <trkpt lat="42.48013" lon="2.15944">
        <ele>1895</ele>
        <time>2024-09-16T07:29:41Z</time>
      </trkpt>
      <trkpt lat="42.48011" lon="2.15948">
        <ele>1896</ele>
        <time>2024-09-16T07:29:44Z</time>
      </trkpt>
      <trkpt lat="42.48009" lon="2.15952">
        <ele>1895</ele>
        <time>2024-09-16T07:29:48Z</time>
      </trkpt>
      <trkpt lat="42.48007" lon="2.15956">
        <ele>1894</ele>
        <time>2024-09-16T07:29:51Z</time>
      </trkpt>
      <trkpt lat="42.48005" lon="2.1596">
        <ele>1896</ele>
        <time>2024-09-16T07:29:54Z</time>
      </trkpt>
      <trkpt lat="42.48004" lon="2.15964">
        <ele>1895</ele>
        <time>2024-09-16T07:29:58Z</time>
      </trkpt>
      <trkpt lat="42.48003" lon="2.15968">
        <ele>1895</ele>
        <time>2024-09-16T07:30:00Z</time>
      </trkpt>
      <trkpt lat="42.48002" lon="2.15973">
        <ele>1896</ele>
        <time>2024-09-16T07:30:03Z</time>
      </trkpt>
      <trkpt lat="42.48" lon="2.15978">
        <ele>1896</ele>
        <time>2024-09-16T07:30:06Z</time>
      </trkpt>
      <trkpt lat="42.47999" lon="2.15983">
        <ele>1896</ele>
        <time>2024-09-16T07:30:10Z</time>
      </trkpt>
      <trkpt lat="42.47999" lon="2.15987">
        <ele>1896</ele>
        <time>2024-09-16T07:30:13Z</time>
      </trkpt>
      <trkpt lat="42.47999" lon="2.15992">
        <ele>1896</ele>
        <time>2024-09-16T07:30:17Z</time>
      </trkpt>
      <trkpt lat="42.47999" lon="2.15997">
        <ele>1896</ele>
        <time>2024-09-16T07:30:20Z</time>
      </trkpt>
      <trkpt lat="42.47998" lon="2.16002">
        <ele>1897</ele>
        <time>2024-09-16T07:30:24Z</time>
      </trkpt>
      <trkpt lat="42.47997" lon="2.16006">
        <ele>1896</ele>
        <time>2024-09-16T07:30:27Z</time>
      </trkpt>
      <trkpt lat="42.47996" lon="2.1601">
        <ele>1896</ele>
        <time>2024-09-16T07:30:30Z</time>
      </trkpt>
      <trkpt lat="42.47995" lon="2.16014">
        <ele>1898</ele>
        <time>2024-09-16T07:30:34Z</time>
      </trkpt>
      <trkpt lat="42.47995" lon="2.16019">
        <ele>1898</ele>
        <time>2024-09-16T07:30:40Z</time>
      </trkpt>
      <trkpt lat="42.47994" lon="2.16023">
        <ele>1898</ele>
        <time>2024-09-16T07:30:42Z</time>
      </trkpt>
      <trkpt lat="42.47993" lon="2.16027">
        <ele>1900</ele>
        <time>2024-09-16T07:30:45Z</time>
      </trkpt>
      <trkpt lat="42.47992" lon="2.16031">
        <ele>1900</ele>
        <time>2024-09-16T07:30:49Z</time>
      </trkpt>
      <trkpt lat="42.4799" lon="2.16035">
        <ele>1901</ele>
        <time>2024-09-16T07:30:52Z</time>
      </trkpt>
      <trkpt lat="42.47988" lon="2.16039">
        <ele>1902</ele>
        <time>2024-09-16T07:30:54Z</time>
      </trkpt>
      <trkpt lat="42.47988" lon="2.16044">
        <ele>1903</ele>
        <time>2024-09-16T07:30:59Z</time>
      </trkpt>
      <trkpt lat="42.47986" lon="2.16048">
        <ele>1904</ele>
        <time>2024-09-16T07:31:03Z</time>
      </trkpt>
      <trkpt lat="42.47985" lon="2.16051">
        <ele>1903</ele>
        <time>2024-09-16T07:31:07Z</time>
      </trkpt>
      <trkpt lat="42.47983" lon="2.16055">
        <ele>1905</ele>
        <time>2024-09-16T07:31:10Z</time>
      </trkpt>
      <trkpt lat="42.47982" lon="2.16059">
        <ele>1906</ele>
        <time>2024-09-16T07:31:13Z</time>
      </trkpt>
      <trkpt lat="42.4798" lon="2.16063">
        <ele>1904</ele>
        <time>2024-09-16T07:31:16Z</time>
      </trkpt>
      <trkpt lat="42.47979" lon="2.16066">
        <ele>1905</ele>
        <time>2024-09-16T07:31:20Z</time>
      </trkpt>
      <trkpt lat="42.47977" lon="2.1607">
        <ele>1905</ele>
        <time>2024-09-16T07:31:23Z</time>
      </trkpt>
      <trkpt lat="42.47976" lon="2.16074">
        <ele>1906</ele>
        <time>2024-09-16T07:31:26Z</time>
      </trkpt>
      <trkpt lat="42.47975" lon="2.16078">
        <ele>1906</ele>
        <time>2024-09-16T07:31:29Z</time>
      </trkpt>
      <trkpt lat="42.47976" lon="2.16082">
        <ele>1906</ele>
        <time>2024-09-16T07:31:32Z</time>
      </trkpt>
      <trkpt lat="42.47976" lon="2.16086">
        <ele>1907</ele>
        <time>2024-09-16T07:31:35Z</time>
      </trkpt>
      <trkpt lat="42.47976" lon="2.1609">
        <ele>1906</ele>
        <time>2024-09-16T07:31:38Z</time>
      </trkpt>
      <trkpt lat="42.47974" lon="2.16095">
        <ele>1910</ele>
        <time>2024-09-16T07:31:41Z</time>
      </trkpt>
      <trkpt lat="42.47974" lon="2.16099">
        <ele>1909</ele>
        <time>2024-09-16T07:31:44Z</time>
      </trkpt>
      <trkpt lat="42.47975" lon="2.16103">
        <ele>1909</ele>
        <time>2024-09-16T07:31:46Z</time>
      </trkpt>
      <trkpt lat="42.47974" lon="2.16107">
        <ele>1910</ele>
        <time>2024-09-16T07:31:49Z</time>
      </trkpt>
      <trkpt lat="42.47973" lon="2.1611">
        <ele>1910</ele>
        <time>2024-09-16T07:31:51Z</time>
      </trkpt>
      <trkpt lat="42.47973" lon="2.16113">
        <ele>1910</ele>
        <time>2024-09-16T07:31:53Z</time>
      </trkpt>
      <trkpt lat="42.47974" lon="2.16117">
        <ele>1909</ele>
        <time>2024-09-16T07:31:56Z</time>
      </trkpt>
      <trkpt lat="42.47975" lon="2.1612">
        <ele>1909</ele>
        <time>2024-09-16T07:31:58Z</time>
      </trkpt>
      <trkpt lat="42.47976" lon="2.16124">
        <ele>1909</ele>
        <time>2024-09-16T07:32:00Z</time>
      </trkpt>
      <trkpt lat="42.47977" lon="2.16127">
        <ele>1909</ele>
        <time>2024-09-16T07:32:02Z</time>
      </trkpt>
      <trkpt lat="42.47977" lon="2.16132">
        <ele>1908</ele>
        <time>2024-09-16T07:32:05Z</time>
      </trkpt>
      <trkpt lat="42.47976" lon="2.16136">
        <ele>1909</ele>
        <time>2024-09-16T07:32:08Z</time>
      </trkpt>
      <trkpt lat="42.47976" lon="2.1614">
        <ele>1909</ele>
        <time>2024-09-16T07:32:11Z</time>
      </trkpt>
      <trkpt lat="42.47975" lon="2.16144">
        <ele>1909</ele>
        <time>2024-09-16T07:32:13Z</time>
      </trkpt>
      <trkpt lat="42.47972" lon="2.16148">
        <ele>1910</ele>
        <time>2024-09-16T07:32:17Z</time>
      </trkpt>
      <trkpt lat="42.4797" lon="2.1615">
        <ele>1911</ele>
        <time>2024-09-16T07:32:20Z</time>
      </trkpt>
      <trkpt lat="42.47967" lon="2.16153">
        <ele>1912</ele>
        <time>2024-09-16T07:32:23Z</time>
      </trkpt>
      <trkpt lat="42.47964" lon="2.16155">
        <ele>1913</ele>
        <time>2024-09-16T07:32:26Z</time>
      </trkpt>
      <trkpt lat="42.47961" lon="2.16157">
        <ele>1913</ele>
        <time>2024-09-16T07:32:30Z</time>
      </trkpt>
      <trkpt lat="42.47958" lon="2.16159">
        <ele>1913</ele>
        <time>2024-09-16T07:32:33Z</time>
      </trkpt>
      <trkpt lat="42.47956" lon="2.16162">
        <ele>1913</ele>
        <time>2024-09-16T07:32:36Z</time>
      </trkpt>
      <trkpt lat="42.47954" lon="2.16165">
        <ele>1912</ele>
        <time>2024-09-16T07:32:45Z</time>
      </trkpt>
      <trkpt lat="42.47951" lon="2.16167">
        <ele>1912</ele>
        <time>2024-09-16T07:32:51Z</time>
      </trkpt>
      <trkpt lat="42.47952" lon="2.16169">
        <ele>1910</ele>
        <time>2024-09-16T07:33:05Z</time>
      </trkpt>
      <trkpt lat="42.47953" lon="2.16167">
        <ele>1911</ele>
        <time>2024-09-16T07:33:27Z</time>
      </trkpt>
      <trkpt lat="42.47952" lon="2.16168">
        <ele>1910</ele>
        <time>2024-09-16T07:34:22Z</time>
      </trkpt>
      <trkpt lat="42.47949" lon="2.16171">
        <ele>1910</ele>
        <time>2024-09-16T07:34:56Z</time>
      </trkpt>
      <trkpt lat="42.47946" lon="2.16173">
        <ele>1911</ele>
        <time>2024-09-16T07:34:59Z</time>
      </trkpt>
      <trkpt lat="42.47943" lon="2.16174">
        <ele>1912</ele>
        <time>2024-09-16T07:35:03Z</time>
      </trkpt>
      <trkpt lat="42.4794" lon="2.16174">
        <ele>1912</ele>
        <time>2024-09-16T07:35:07Z</time>
      </trkpt>
      <trkpt lat="42.47936" lon="2.16175">
        <ele>1912</ele>
        <time>2024-09-16T07:35:11Z</time>
      </trkpt>
      <trkpt lat="42.47933" lon="2.16175">
        <ele>1912</ele>
        <time>2024-09-16T07:35:14Z</time>
      </trkpt>
      <trkpt lat="42.47929" lon="2.16176">
        <ele>1913</ele>
        <time>2024-09-16T07:35:17Z</time>
      </trkpt>
      <trkpt lat="42.47925" lon="2.16176">
        <ele>1912</ele>
        <time>2024-09-16T07:35:21Z</time>
      </trkpt>
      <trkpt lat="42.47922" lon="2.16176">
        <ele>1913</ele>
        <time>2024-09-16T07:35:25Z</time>
      </trkpt>
      <trkpt lat="42.47919" lon="2.16174">
        <ele>1912</ele>
        <time>2024-09-16T07:35:28Z</time>
      </trkpt>
      <trkpt lat="42.47916" lon="2.16175">
        <ele>1912</ele>
        <time>2024-09-16T07:35:31Z</time>
      </trkpt>
      <trkpt lat="42.47913" lon="2.16176">
        <ele>1911</ele>
        <time>2024-09-16T07:35:34Z</time>
      </trkpt>
      <trkpt lat="42.4791" lon="2.16175">
        <ele>1912</ele>
        <time>2024-09-16T07:35:37Z</time>
      </trkpt>
      <trkpt lat="42.47906" lon="2.16175">
        <ele>1910</ele>
        <time>2024-09-16T07:35:41Z</time>
      </trkpt>
      <trkpt lat="42.47903" lon="2.16176">
        <ele>1909</ele>
        <time>2024-09-16T07:35:45Z</time>
      </trkpt>
      <trkpt lat="42.47899" lon="2.16175">
        <ele>1909</ele>
        <time>2024-09-16T07:35:48Z</time>
      </trkpt>
      <trkpt lat="42.47896" lon="2.16175">
        <ele>1909</ele>
        <time>2024-09-16T07:35:50Z</time>
      </trkpt>
      <trkpt lat="42.47893" lon="2.16175">
        <ele>1910</ele>
        <time>2024-09-16T07:35:52Z</time>
      </trkpt>
      <trkpt lat="42.4789" lon="2.16175">
        <ele>1908</ele>
        <time>2024-09-16T07:35:55Z</time>
      </trkpt>
      <trkpt lat="42.47887" lon="2.16175">
        <ele>1910</ele>
        <time>2024-09-16T07:35:58Z</time>
      </trkpt>
      <trkpt lat="42.47883" lon="2.16176">
        <ele>1911</ele>
        <time>2024-09-16T07:36:03Z</time>
      </trkpt>
      <trkpt lat="42.4788" lon="2.16178">
        <ele>1909</ele>
        <time>2024-09-16T07:36:08Z</time>
      </trkpt>
      <trkpt lat="42.47877" lon="2.16182">
        <ele>1909</ele>
        <time>2024-09-16T07:36:10Z</time>
      </trkpt>
      <trkpt lat="42.47874" lon="2.16184">
        <ele>1911</ele>
        <time>2024-09-16T07:36:12Z</time>
      </trkpt>
      <trkpt lat="42.47871" lon="2.16187">
        <ele>1910</ele>
        <time>2024-09-16T07:36:15Z</time>
      </trkpt>
      <trkpt lat="42.47868" lon="2.1619">
        <ele>1909</ele>
        <time>2024-09-16T07:36:18Z</time>
      </trkpt>
      <trkpt lat="42.47865" lon="2.16192">
        <ele>1910</ele>
        <time>2024-09-16T07:36:22Z</time>
      </trkpt>
      <trkpt lat="42.47862" lon="2.16194">
        <ele>1911</ele>
        <time>2024-09-16T07:36:24Z</time>
      </trkpt>
      <trkpt lat="42.47859" lon="2.16196">
        <ele>1910</ele>
        <time>2024-09-16T07:36:28Z</time>
      </trkpt>
      <trkpt lat="42.47857" lon="2.16197">
        <ele>1910</ele>
        <time>2024-09-16T07:36:30Z</time>
      </trkpt>
      <trkpt lat="42.47855" lon="2.162">
        <ele>1911</ele>
        <time>2024-09-16T07:36:33Z</time>
      </trkpt>
      <trkpt lat="42.47853" lon="2.16204">
        <ele>1910</ele>
        <time>2024-09-16T07:36:36Z</time>
      </trkpt>
      <trkpt lat="42.47851" lon="2.16207">
        <ele>1909</ele>
        <time>2024-09-16T07:36:40Z</time>
      </trkpt>
      <trkpt lat="42.47848" lon="2.1621">
        <ele>1907</ele>
        <time>2024-09-16T07:36:44Z</time>
      </trkpt>
      <trkpt lat="42.47844" lon="2.16211">
        <ele>1907</ele>
        <time>2024-09-16T07:36:47Z</time>
      </trkpt>
      <trkpt lat="42.47841" lon="2.16214">
        <ele>1908</ele>
        <time>2024-09-16T07:36:50Z</time>
      </trkpt>
      <trkpt lat="42.47838" lon="2.16216">
        <ele>1910</ele>
        <time>2024-09-16T07:36:54Z</time>
      </trkpt>
      <trkpt lat="42.47834" lon="2.16217">
        <ele>1910</ele>
        <time>2024-09-16T07:36:57Z</time>
      </trkpt>
      <trkpt lat="42.47832" lon="2.16215">
        <ele>1908</ele>
        <time>2024-09-16T07:37:01Z</time>
      </trkpt>
      <trkpt lat="42.47829" lon="2.16215">
        <ele>1909</ele>
        <time>2024-09-16T07:37:05Z</time>
      </trkpt>
      <trkpt lat="42.47826" lon="2.16214">
        <ele>1909</ele>
        <time>2024-09-16T07:37:08Z</time>
      </trkpt>
      <trkpt lat="42.47824" lon="2.16212">
        <ele>1909</ele>
        <time>2024-09-16T07:37:10Z</time>
      </trkpt>
      <trkpt lat="42.4782" lon="2.1621">
        <ele>1910</ele>
        <time>2024-09-16T07:37:14Z</time>
      </trkpt>
      <trkpt lat="42.47818" lon="2.16209">
        <ele>1910</ele>
        <time>2024-09-16T07:37:17Z</time>
      </trkpt>
      <trkpt lat="42.47815" lon="2.1621">
        <ele>1909</ele>
        <time>2024-09-16T07:37:19Z</time>
      </trkpt>
      <trkpt lat="42.47812" lon="2.16212">
        <ele>1909</ele>
        <time>2024-09-16T07:37:23Z</time>
      </trkpt>
      <trkpt lat="42.47809" lon="2.16214">
        <ele>1910</ele>
        <time>2024-09-16T07:37:25Z</time>
      </trkpt>
      <trkpt lat="42.47806" lon="2.16216">
        <ele>1910</ele>
        <time>2024-09-16T07:37:28Z</time>
      </trkpt>
      <trkpt lat="42.47803" lon="2.16219">
        <ele>1909</ele>
        <time>2024-09-16T07:37:33Z</time>
      </trkpt>
      <trkpt lat="42.47801" lon="2.16223">
        <ele>1909</ele>
        <time>2024-09-16T07:37:35Z</time>
      </trkpt>
      <trkpt lat="42.47799" lon="2.16226">
        <ele>1908</ele>
        <time>2024-09-16T07:37:39Z</time>
      </trkpt>
      <trkpt lat="42.47796" lon="2.16228">
        <ele>1909</ele>
        <time>2024-09-16T07:37:41Z</time>
      </trkpt>
      <trkpt lat="42.47794" lon="2.16232">
        <ele>1907</ele>
        <time>2024-09-16T07:37:47Z</time>
      </trkpt>
      <trkpt lat="42.47792" lon="2.16234">
        <ele>1906</ele>
        <time>2024-09-16T07:37:51Z</time>
      </trkpt>
      <trkpt lat="42.47789" lon="2.16236">
        <ele>1906</ele>
        <time>2024-09-16T07:37:54Z</time>
      </trkpt>
      <trkpt lat="42.47786" lon="2.16238">
        <ele>1906</ele>
        <time>2024-09-16T07:37:57Z</time>
      </trkpt>
      <trkpt lat="42.47783" lon="2.1624">
        <ele>1906</ele>
        <time>2024-09-16T07:37:59Z</time>
      </trkpt>
      <trkpt lat="42.47781" lon="2.16242">
        <ele>1906</ele>
        <time>2024-09-16T07:38:02Z</time>
      </trkpt>
      <trkpt lat="42.47779" lon="2.16245">
        <ele>1906</ele>
        <time>2024-09-16T07:38:06Z</time>
      </trkpt>
      <trkpt lat="42.47777" lon="2.16248">
        <ele>1905</ele>
        <time>2024-09-16T07:38:09Z</time>
      </trkpt>
      <trkpt lat="42.47774" lon="2.1625">
        <ele>1904</ele>
        <time>2024-09-16T07:38:14Z</time>
      </trkpt>
      <trkpt lat="42.47772" lon="2.16253">
        <ele>1904</ele>
        <time>2024-09-16T07:38:17Z</time>
      </trkpt>
      <trkpt lat="42.47769" lon="2.16256">
        <ele>1903</ele>
        <time>2024-09-16T07:38:19Z</time>
      </trkpt>
      <trkpt lat="42.47766" lon="2.16258">
        <ele>1903</ele>
        <time>2024-09-16T07:38:22Z</time>
      </trkpt>
      <trkpt lat="42.47764" lon="2.1626">
        <ele>1904</ele>
        <time>2024-09-16T07:38:24Z</time>
      </trkpt>
      <trkpt lat="42.47762" lon="2.16259">
        <ele>1903</ele>
        <time>2024-09-16T07:38:27Z</time>
      </trkpt>
      <trkpt lat="42.47759" lon="2.1626">
        <ele>1903</ele>
        <time>2024-09-16T07:38:29Z</time>
      </trkpt>
      <trkpt lat="42.47756" lon="2.16261">
        <ele>1904</ele>
        <time>2024-09-16T07:38:33Z</time>
      </trkpt>
      <trkpt lat="42.47753" lon="2.16262">
        <ele>1902</ele>
        <time>2024-09-16T07:38:35Z</time>
      </trkpt>
      <trkpt lat="42.4775" lon="2.16263">
        <ele>1904</ele>
        <time>2024-09-16T07:38:42Z</time>
      </trkpt>
      <trkpt lat="42.47746" lon="2.16265">
        <ele>1904</ele>
        <time>2024-09-16T07:38:46Z</time>
      </trkpt>
      <trkpt lat="42.47743" lon="2.16268">
        <ele>1903</ele>
        <time>2024-09-16T07:38:48Z</time>
      </trkpt>
      <trkpt lat="42.47741" lon="2.16272">
        <ele>1902</ele>
        <time>2024-09-16T07:38:53Z</time>
      </trkpt>
      <trkpt lat="42.47739" lon="2.16275">
        <ele>1902</ele>
        <time>2024-09-16T07:38:55Z</time>
      </trkpt>
      <trkpt lat="42.47739" lon="2.16274">
        <ele>1903</ele>
        <time>2024-09-16T07:38:56Z</time>
      </trkpt>
      <trkpt lat="42.47738" lon="2.16276">
        <ele>1901</ele>
        <time>2024-09-16T07:38:58Z</time>
      </trkpt>
      <trkpt lat="42.47737" lon="2.16279">
        <ele>1901</ele>
        <time>2024-09-16T07:39:01Z</time>
      </trkpt>
      <trkpt lat="42.47735" lon="2.16282">
        <ele>1903</ele>
        <time>2024-09-16T07:39:04Z</time>
      </trkpt>
      <trkpt lat="42.47733" lon="2.16284">
        <ele>1902</ele>
        <time>2024-09-16T07:39:07Z</time>
      </trkpt>
      <trkpt lat="42.4773" lon="2.16287">
        <ele>1900</ele>
        <time>2024-09-16T07:39:13Z</time>
      </trkpt>
      <trkpt lat="42.47727" lon="2.16289">
        <ele>1899</ele>
        <time>2024-09-16T07:39:16Z</time>
      </trkpt>
      <trkpt lat="42.47724" lon="2.16291">
        <ele>1900</ele>
        <time>2024-09-16T07:39:19Z</time>
      </trkpt>
      <trkpt lat="42.47721" lon="2.16293">
        <ele>1900</ele>
        <time>2024-09-16T07:39:21Z</time>
      </trkpt>
      <trkpt lat="42.47718" lon="2.16295">
        <ele>1900</ele>
        <time>2024-09-16T07:39:22Z</time>
      </trkpt>
      <trkpt lat="42.47715" lon="2.16296">
        <ele>1901</ele>
        <time>2024-09-16T07:39:29Z</time>
      </trkpt>
      <trkpt lat="42.47711" lon="2.16297">
        <ele>1902</ele>
        <time>2024-09-16T07:39:32Z</time>
      </trkpt>
      <trkpt lat="42.47708" lon="2.16299">
        <ele>1901</ele>
        <time>2024-09-16T07:39:36Z</time>
      </trkpt>
      <trkpt lat="42.47705" lon="2.16301">
        <ele>1900</ele>
        <time>2024-09-16T07:39:40Z</time>
      </trkpt>
      <trkpt lat="42.47703" lon="2.16303">
        <ele>1901</ele>
        <time>2024-09-16T07:39:42Z</time>
      </trkpt>
      <trkpt lat="42.47701" lon="2.16304">
        <ele>1901</ele>
        <time>2024-09-16T07:39:45Z</time>
      </trkpt>
      <trkpt lat="42.47698" lon="2.16305">
        <ele>1899</ele>
        <time>2024-09-16T07:39:51Z</time>
      </trkpt>
      <trkpt lat="42.47696" lon="2.16308">
        <ele>1899</ele>
        <time>2024-09-16T07:39:55Z</time>
      </trkpt>
      <trkpt lat="42.47694" lon="2.16311">
        <ele>1898</ele>
        <time>2024-09-16T07:40:00Z</time>
      </trkpt>
      <trkpt lat="42.47692" lon="2.16313">
        <ele>1896</ele>
        <time>2024-09-16T07:40:06Z</time>
      </trkpt>
      <trkpt lat="42.47689" lon="2.16314">
        <ele>1894</ele>
        <time>2024-09-16T07:40:09Z</time>
      </trkpt>
      <trkpt lat="42.47686" lon="2.16313">
        <ele>1896</ele>
        <time>2024-09-16T07:40:11Z</time>
      </trkpt>
      <trkpt lat="42.47683" lon="2.16312">
        <ele>1896</ele>
        <time>2024-09-16T07:40:14Z</time>
      </trkpt>
      <trkpt lat="42.4768" lon="2.16312">
        <ele>1896</ele>
        <time>2024-09-16T07:40:17Z</time>
      </trkpt>
      <trkpt lat="42.47677" lon="2.16312">
        <ele>1896</ele>
        <time>2024-09-16T07:40:20Z</time>
      </trkpt>
      <trkpt lat="42.47674" lon="2.16313">
        <ele>1895</ele>
        <time>2024-09-16T07:40:26Z</time>
      </trkpt>
      <trkpt lat="42.47672" lon="2.16315">
        <ele>1894</ele>
        <time>2024-09-16T07:40:29Z</time>
      </trkpt>
      <trkpt lat="42.47669" lon="2.16318">
        <ele>1894</ele>
        <time>2024-09-16T07:40:32Z</time>
      </trkpt>
      <trkpt lat="42.47666" lon="2.16319">
        <ele>1895</ele>
        <time>2024-09-16T07:40:36Z</time>
      </trkpt>
      <trkpt lat="42.47663" lon="2.1632">
        <ele>1893</ele>
        <time>2024-09-16T07:40:39Z</time>
      </trkpt>
      <trkpt lat="42.4766" lon="2.16321">
        <ele>1895</ele>
        <time>2024-09-16T07:40:41Z</time>
      </trkpt>
      <trkpt lat="42.47657" lon="2.16322">
        <ele>1896</ele>
        <time>2024-09-16T07:40:44Z</time>
      </trkpt>
      <trkpt lat="42.47654" lon="2.16321">
        <ele>1896</ele>
        <time>2024-09-16T07:40:50Z</time>
      </trkpt>
      <trkpt lat="42.47651" lon="2.16322">
        <ele>1897</ele>
        <time>2024-09-16T07:40:56Z</time>
      </trkpt>
      <trkpt lat="42.47648" lon="2.16322">
        <ele>1897</ele>
        <time>2024-09-16T07:41:00Z</time>
      </trkpt>
      <trkpt lat="42.47645" lon="2.16323">
        <ele>1898</ele>
        <time>2024-09-16T07:41:03Z</time>
      </trkpt>
      <trkpt lat="42.47643" lon="2.16325">
        <ele>1898</ele>
        <time>2024-09-16T07:41:06Z</time>
      </trkpt>
      <trkpt lat="42.4764" lon="2.16326">
        <ele>1897</ele>
        <time>2024-09-16T07:41:09Z</time>
      </trkpt>
      <trkpt lat="42.47638" lon="2.16328">
        <ele>1896</ele>
        <time>2024-09-16T07:41:13Z</time>
      </trkpt>
      <trkpt lat="42.47635" lon="2.16331">
        <ele>1896</ele>
        <time>2024-09-16T07:41:16Z</time>
      </trkpt>
      <trkpt lat="42.47633" lon="2.16331">
        <ele>1894</ele>
        <time>2024-09-16T07:41:20Z</time>
      </trkpt>
      <trkpt lat="42.4763" lon="2.1633">
        <ele>1892</ele>
        <time>2024-09-16T07:41:26Z</time>
      </trkpt>
      <trkpt lat="42.47626" lon="2.16329">
        <ele>1892</ele>
        <time>2024-09-16T07:41:32Z</time>
      </trkpt>
      <trkpt lat="42.47623" lon="2.16331">
        <ele>1893</ele>
        <time>2024-09-16T07:41:35Z</time>
      </trkpt>
      <trkpt lat="42.47621" lon="2.16333">
        <ele>1892</ele>
        <time>2024-09-16T07:41:38Z</time>
      </trkpt>
      <trkpt lat="42.47618" lon="2.16334">
        <ele>1893</ele>
        <time>2024-09-16T07:41:41Z</time>
      </trkpt>
      <trkpt lat="42.47615" lon="2.16333">
        <ele>1891</ele>
        <time>2024-09-16T07:41:45Z</time>
      </trkpt>
      <trkpt lat="42.47612" lon="2.16333">
        <ele>1891</ele>
        <time>2024-09-16T07:41:48Z</time>
      </trkpt>
      <trkpt lat="42.47609" lon="2.16335">
        <ele>1890</ele>
        <time>2024-09-16T07:41:51Z</time>
      </trkpt>
      <trkpt lat="42.47606" lon="2.16334">
        <ele>1889</ele>
        <time>2024-09-16T07:41:54Z</time>
      </trkpt>
      <trkpt lat="42.47603" lon="2.16333">
        <ele>1891</ele>
        <time>2024-09-16T07:41:56Z</time>
      </trkpt>
      <trkpt lat="42.476" lon="2.16333">
        <ele>1891</ele>
        <time>2024-09-16T07:41:59Z</time>
      </trkpt>
      <trkpt lat="42.47596" lon="2.16332">
        <ele>1889</ele>
        <time>2024-09-16T07:42:04Z</time>
      </trkpt>
      <trkpt lat="42.47593" lon="2.16331">
        <ele>1888</ele>
        <time>2024-09-16T07:42:07Z</time>
      </trkpt>
      <trkpt lat="42.4759" lon="2.16332">
        <ele>1890</ele>
        <time>2024-09-16T07:42:09Z</time>
      </trkpt>
      <trkpt lat="42.47587" lon="2.16334">
        <ele>1890</ele>
        <time>2024-09-16T07:42:12Z</time>
      </trkpt>
      <trkpt lat="42.47584" lon="2.16337">
        <ele>1889</ele>
        <time>2024-09-16T07:42:14Z</time>
      </trkpt>
      <trkpt lat="42.47582" lon="2.1634">
        <ele>1892</ele>
        <time>2024-09-16T07:42:17Z</time>
      </trkpt>
      <trkpt lat="42.47579" lon="2.16341">
        <ele>1892</ele>
        <time>2024-09-16T07:42:24Z</time>
      </trkpt>
      <trkpt lat="42.47576" lon="2.16343">
        <ele>1893</ele>
        <time>2024-09-16T07:42:29Z</time>
      </trkpt>
      <trkpt lat="42.47574" lon="2.16347">
        <ele>1892</ele>
        <time>2024-09-16T07:42:33Z</time>
      </trkpt>
      <trkpt lat="42.47573" lon="2.16351">
        <ele>1890</ele>
        <time>2024-09-16T07:42:37Z</time>
      </trkpt>
      <trkpt lat="42.47571" lon="2.16354">
        <ele>1891</ele>
        <time>2024-09-16T07:42:40Z</time>
      </trkpt>
      <trkpt lat="42.47569" lon="2.16354">
        <ele>1892</ele>
        <time>2024-09-16T07:42:42Z</time>
      </trkpt>
      <trkpt lat="42.47567" lon="2.16356">
        <ele>1890</ele>
        <time>2024-09-16T07:42:46Z</time>
      </trkpt>
      <trkpt lat="42.47564" lon="2.16359">
        <ele>1889</ele>
        <time>2024-09-16T07:42:48Z</time>
      </trkpt>
      <trkpt lat="42.47562" lon="2.16363">
        <ele>1890</ele>
        <time>2024-09-16T07:42:52Z</time>
      </trkpt>
      <trkpt lat="42.47561" lon="2.16367">
        <ele>1889</ele>
        <time>2024-09-16T07:42:55Z</time>
      </trkpt>
      <trkpt lat="42.47559" lon="2.16372">
        <ele>1889</ele>
        <time>2024-09-16T07:42:59Z</time>
      </trkpt>
      <trkpt lat="42.47556" lon="2.16376">
        <ele>1889</ele>
        <time>2024-09-16T07:43:03Z</time>
      </trkpt>
      <trkpt lat="42.47555" lon="2.1638">
        <ele>1889</ele>
        <time>2024-09-16T07:43:07Z</time>
      </trkpt>
      <trkpt lat="42.47554" lon="2.16384">
        <ele>1889</ele>
        <time>2024-09-16T07:43:09Z</time>
      </trkpt>
      <trkpt lat="42.47553" lon="2.16387">
        <ele>1888</ele>
        <time>2024-09-16T07:43:14Z</time>
      </trkpt>
      <trkpt lat="42.47554" lon="2.1639">
        <ele>1888</ele>
        <time>2024-09-16T07:43:20Z</time>
      </trkpt>
      <trkpt lat="42.47555" lon="2.16394">
        <ele>1886</ele>
        <time>2024-09-16T07:43:26Z</time>
      </trkpt>
      <trkpt lat="42.47555" lon="2.16397">
        <ele>1883</ele>
        <time>2024-09-16T07:43:33Z</time>
      </trkpt>
      <trkpt lat="42.47556" lon="2.16399">
        <ele>1883</ele>
        <time>2024-09-16T07:43:37Z</time>
      </trkpt>
      <trkpt lat="42.47557" lon="2.16403">
        <ele>1884</ele>
        <time>2024-09-16T07:43:42Z</time>
      </trkpt>
      <trkpt lat="42.47556" lon="2.16406">
        <ele>1883</ele>
        <time>2024-09-16T07:43:47Z</time>
      </trkpt>
      <trkpt lat="42.47556" lon="2.1641">
        <ele>1883</ele>
        <time>2024-09-16T07:43:51Z</time>
      </trkpt>
      <trkpt lat="42.47556" lon="2.16414">
        <ele>1883</ele>
        <time>2024-09-16T07:43:54Z</time>
      </trkpt>
      <trkpt lat="42.47554" lon="2.16415">
        <ele>1883</ele>
        <time>2024-09-16T07:43:56Z</time>
      </trkpt>
      <trkpt lat="42.47551" lon="2.16416">
        <ele>1884</ele>
        <time>2024-09-16T07:43:59Z</time>
      </trkpt>
      <trkpt lat="42.47549" lon="2.16419">
        <ele>1885</ele>
        <time>2024-09-16T07:44:03Z</time>
      </trkpt>
      <trkpt lat="42.47548" lon="2.16422">
        <ele>1884</ele>
        <time>2024-09-16T07:44:07Z</time>
      </trkpt>
      <trkpt lat="42.47547" lon="2.16426">
        <ele>1885</ele>
        <time>2024-09-16T07:44:12Z</time>
      </trkpt>
      <trkpt lat="42.47546" lon="2.16431">
        <ele>1885</ele>
        <time>2024-09-16T07:44:17Z</time>
      </trkpt>
      <trkpt lat="42.47546" lon="2.16436">
        <ele>1886</ele>
        <time>2024-09-16T07:44:21Z</time>
      </trkpt>
      <trkpt lat="42.47545" lon="2.1644">
        <ele>1885</ele>
        <time>2024-09-16T07:44:25Z</time>
      </trkpt>
      <trkpt lat="42.47545" lon="2.16444">
        <ele>1883</ele>
        <time>2024-09-16T07:44:29Z</time>
      </trkpt>
      <trkpt lat="42.47545" lon="2.16448">
        <ele>1885</ele>
        <time>2024-09-16T07:44:31Z</time>
      </trkpt>
      <trkpt lat="42.47544" lon="2.16452">
        <ele>1885</ele>
        <time>2024-09-16T07:44:34Z</time>
      </trkpt>
      <trkpt lat="42.47543" lon="2.16456">
        <ele>1884</ele>
        <time>2024-09-16T07:44:36Z</time>
      </trkpt>
      <trkpt lat="42.47544" lon="2.16459">
        <ele>1885</ele>
        <time>2024-09-16T07:44:39Z</time>
      </trkpt>
      <trkpt lat="42.47545" lon="2.16463">
        <ele>1883</ele>
        <time>2024-09-16T07:44:42Z</time>
      </trkpt>
      <trkpt lat="42.47544" lon="2.16467">
        <ele>1883</ele>
        <time>2024-09-16T07:44:45Z</time>
      </trkpt>
      <trkpt lat="42.47545" lon="2.16471">
        <ele>1883</ele>
        <time>2024-09-16T07:44:48Z</time>
      </trkpt>
      <trkpt lat="42.47544" lon="2.16475">
        <ele>1883</ele>
        <time>2024-09-16T07:44:51Z</time>
      </trkpt>
      <trkpt lat="42.47544" lon="2.16479">
        <ele>1883</ele>
        <time>2024-09-16T07:44:54Z</time>
      </trkpt>
      <trkpt lat="42.47544" lon="2.16484">
        <ele>1883</ele>
        <time>2024-09-16T07:44:57Z</time>
      </trkpt>
      <trkpt lat="42.47543" lon="2.16488">
        <ele>1883</ele>
        <time>2024-09-16T07:45:01Z</time>
      </trkpt>
      <trkpt lat="42.47542" lon="2.16492">
        <ele>1884</ele>
        <time>2024-09-16T07:45:05Z</time>
      </trkpt>
      <trkpt lat="42.4754" lon="2.16496">
        <ele>1882</ele>
        <time>2024-09-16T07:45:08Z</time>
      </trkpt>
      <trkpt lat="42.47541" lon="2.16499">
        <ele>1883</ele>
        <time>2024-09-16T07:45:10Z</time>
      </trkpt>
      <trkpt lat="42.4754" lon="2.16503">
        <ele>1882</ele>
        <time>2024-09-16T07:45:15Z</time>
      </trkpt>
      <trkpt lat="42.47539" lon="2.16507">
        <ele>1881</ele>
        <time>2024-09-16T07:45:21Z</time>
      </trkpt>
      <trkpt lat="42.47537" lon="2.16511">
        <ele>1881</ele>
        <time>2024-09-16T07:45:23Z</time>
      </trkpt>
      <trkpt lat="42.47534" lon="2.16513">
        <ele>1881</ele>
        <time>2024-09-16T07:45:27Z</time>
      </trkpt>
      <trkpt lat="42.47533" lon="2.16516">
        <ele>1882</ele>
        <time>2024-09-16T07:45:30Z</time>
      </trkpt>
      <trkpt lat="42.47531" lon="2.16519">
        <ele>1880</ele>
        <time>2024-09-16T07:45:33Z</time>
      </trkpt>
      <trkpt lat="42.4753" lon="2.16521">
        <ele>1880</ele>
        <time>2024-09-16T07:45:36Z</time>
      </trkpt>
      <trkpt lat="42.47527" lon="2.16522">
        <ele>1880</ele>
        <time>2024-09-16T07:45:38Z</time>
      </trkpt>
      <trkpt lat="42.47524" lon="2.16525">
        <ele>1879</ele>
        <time>2024-09-16T07:45:41Z</time>
      </trkpt>
      <trkpt lat="42.47522" lon="2.16526">
        <ele>1881</ele>
        <time>2024-09-16T07:45:47Z</time>
      </trkpt>
      <trkpt lat="42.47519" lon="2.16529">
        <ele>1880</ele>
        <time>2024-09-16T07:45:51Z</time>
      </trkpt>
      <trkpt lat="42.47517" lon="2.16532">
        <ele>1879</ele>
        <time>2024-09-16T07:45:56Z</time>
      </trkpt>
      <trkpt lat="42.47516" lon="2.16535">
        <ele>1879</ele>
        <time>2024-09-16T07:45:59Z</time>
      </trkpt>
      <trkpt lat="42.47517" lon="2.16542">
        <ele>1880</ele>
        <time>2024-09-16T07:46:02Z</time>
      </trkpt>
      <trkpt lat="42.47516" lon="2.16546">
        <ele>1880</ele>
        <time>2024-09-16T07:46:04Z</time>
      </trkpt>
      <trkpt lat="42.47514" lon="2.16549">
        <ele>1881</ele>
        <time>2024-09-16T07:46:06Z</time>
      </trkpt>
      <trkpt lat="42.47511" lon="2.16552">
        <ele>1879</ele>
        <time>2024-09-16T07:46:10Z</time>
      </trkpt>
      <trkpt lat="42.47508" lon="2.16555">
        <ele>1878</ele>
        <time>2024-09-16T07:46:18Z</time>
      </trkpt>
      <trkpt lat="42.47508" lon="2.16558">
        <ele>1878</ele>
        <time>2024-09-16T07:46:19Z</time>
      </trkpt>
      <trkpt lat="42.47506" lon="2.16563">
        <ele>1879</ele>
        <time>2024-09-16T07:46:21Z</time>
      </trkpt>
      <trkpt lat="42.47504" lon="2.16567">
        <ele>1877</ele>
        <time>2024-09-16T07:46:25Z</time>
      </trkpt>
      <trkpt lat="42.47504" lon="2.16572">
        <ele>1875</ele>
        <time>2024-09-16T07:46:29Z</time>
      </trkpt>
      <trkpt lat="42.47502" lon="2.16576">
        <ele>1873</ele>
        <time>2024-09-16T07:46:34Z</time>
      </trkpt>
      <trkpt lat="42.47503" lon="2.16579">
        <ele>1874</ele>
        <time>2024-09-16T07:46:37Z</time>
      </trkpt>
      <trkpt lat="42.47502" lon="2.16582">
        <ele>1875</ele>
        <time>2024-09-16T07:46:40Z</time>
      </trkpt>
      <trkpt lat="42.47501" lon="2.16588">
        <ele>1877</ele>
        <time>2024-09-16T07:46:43Z</time>
      </trkpt>
      <trkpt lat="42.475" lon="2.16592">
        <ele>1875</ele>
        <time>2024-09-16T07:46:50Z</time>
      </trkpt>
      <trkpt lat="42.475" lon="2.16597">
        <ele>1874</ele>
        <time>2024-09-16T07:46:53Z</time>
      </trkpt>
      <trkpt lat="42.47498" lon="2.166">
        <ele>1873</ele>
        <time>2024-09-16T07:46:56Z</time>
      </trkpt>
      <trkpt lat="42.47497" lon="2.16604">
        <ele>1871</ele>
        <time>2024-09-16T07:47:00Z</time>
      </trkpt>
      <trkpt lat="42.47497" lon="2.16607">
        <ele>1872</ele>
        <time>2024-09-16T07:47:02Z</time>
      </trkpt>
      <trkpt lat="42.47498" lon="2.16611">
        <ele>1870</ele>
        <time>2024-09-16T07:47:07Z</time>
      </trkpt>
      <trkpt lat="42.47497" lon="2.16615">
        <ele>1871</ele>
        <time>2024-09-16T07:47:11Z</time>
      </trkpt>
      <trkpt lat="42.47497" lon="2.16619">
        <ele>1870</ele>
        <time>2024-09-16T07:47:16Z</time>
      </trkpt>
      <trkpt lat="42.47498" lon="2.16622">
        <ele>1868</ele>
        <time>2024-09-16T07:47:25Z</time>
      </trkpt>
      <trkpt lat="42.47497" lon="2.16627">
        <ele>1870</ele>
        <time>2024-09-16T07:47:28Z</time>
      </trkpt>
      <trkpt lat="42.47497" lon="2.16631">
        <ele>1869</ele>
        <time>2024-09-16T07:47:31Z</time>
      </trkpt>
      <trkpt lat="42.47496" lon="2.16635">
        <ele>1866</ele>
        <time>2024-09-16T07:47:34Z</time>
      </trkpt>
      <trkpt lat="42.47495" lon="2.16638">
        <ele>1866</ele>
        <time>2024-09-16T07:47:38Z</time>
      </trkpt>
      <trkpt lat="42.47493" lon="2.1664">
        <ele>1865</ele>
        <time>2024-09-16T07:47:41Z</time>
      </trkpt>
      <trkpt lat="42.47491" lon="2.16644">
        <ele>1865</ele>
        <time>2024-09-16T07:47:44Z</time>
      </trkpt>
      <trkpt lat="42.47491" lon="2.16649">
        <ele>1864</ele>
        <time>2024-09-16T07:47:47Z</time>
      </trkpt>
      <trkpt lat="42.4749" lon="2.16653">
        <ele>1864</ele>
        <time>2024-09-16T07:47:49Z</time>
      </trkpt>
      <trkpt lat="42.47489" lon="2.16657">
        <ele>1864</ele>
        <time>2024-09-16T07:47:52Z</time>
      </trkpt>
      <trkpt lat="42.47487" lon="2.1666">
        <ele>1865</ele>
        <time>2024-09-16T07:47:55Z</time>
      </trkpt>
      <trkpt lat="42.47485" lon="2.16663">
        <ele>1864</ele>
        <time>2024-09-16T07:47:58Z</time>
      </trkpt>
      <trkpt lat="42.47483" lon="2.16665">
        <ele>1865</ele>
        <time>2024-09-16T07:48:00Z</time>
      </trkpt>
      <trkpt lat="42.4748" lon="2.16668">
        <ele>1865</ele>
        <time>2024-09-16T07:48:03Z</time>
      </trkpt>
      <trkpt lat="42.47478" lon="2.16668">
        <ele>1865</ele>
        <time>2024-09-16T07:48:09Z</time>
      </trkpt>
      <trkpt lat="42.47475" lon="2.16669">
        <ele>1867</ele>
        <time>2024-09-16T07:48:15Z</time>
      </trkpt>
      <trkpt lat="42.47472" lon="2.1667">
        <ele>1866</ele>
        <time>2024-09-16T07:48:20Z</time>
      </trkpt>
      <trkpt lat="42.47469" lon="2.16672">
        <ele>1869</ele>
        <time>2024-09-16T07:48:25Z</time>
      </trkpt>
      <trkpt lat="42.47467" lon="2.16675">
        <ele>1869</ele>
        <time>2024-09-16T07:48:30Z</time>
      </trkpt>
      <trkpt lat="42.47466" lon="2.16678">
        <ele>1869</ele>
        <time>2024-09-16T07:48:41Z</time>
      </trkpt>
      <trkpt lat="42.47465" lon="2.16678">
        <ele>1867</ele>
        <time>2024-09-16T07:49:28Z</time>
      </trkpt>
      <trkpt lat="42.47463" lon="2.16677">
        <ele>1866</ele>
        <time>2024-09-16T07:49:34Z</time>
      </trkpt>
      <trkpt lat="42.4746" lon="2.16677">
        <ele>1868</ele>
        <time>2024-09-16T07:50:07Z</time>
      </trkpt>
      <trkpt lat="42.47457" lon="2.16679">
        <ele>1868</ele>
        <time>2024-09-16T07:50:10Z</time>
      </trkpt>
      <trkpt lat="42.47455" lon="2.16682">
        <ele>1866</ele>
        <time>2024-09-16T07:50:14Z</time>
      </trkpt>
      <trkpt lat="42.47454" lon="2.16685">
        <ele>1866</ele>
        <time>2024-09-16T07:50:16Z</time>
      </trkpt>
      <trkpt lat="42.47452" lon="2.16688">
        <ele>1866</ele>
        <time>2024-09-16T07:50:18Z</time>
      </trkpt>
      <trkpt lat="42.47452" lon="2.16692">
        <ele>1866</ele>
        <time>2024-09-16T07:50:21Z</time>
      </trkpt>
      <trkpt lat="42.47452" lon="2.16696">
        <ele>1864</ele>
        <time>2024-09-16T07:50:24Z</time>
      </trkpt>
      <trkpt lat="42.47451" lon="2.167">
        <ele>1865</ele>
        <time>2024-09-16T07:50:27Z</time>
      </trkpt>
      <trkpt lat="42.4745" lon="2.16703">
        <ele>1866</ele>
        <time>2024-09-16T07:50:29Z</time>
      </trkpt>
      <trkpt lat="42.4745" lon="2.16707">
        <ele>1866</ele>
        <time>2024-09-16T07:50:32Z</time>
      </trkpt>
      <trkpt lat="42.47449" lon="2.16711">
        <ele>1866</ele>
        <time>2024-09-16T07:50:36Z</time>
      </trkpt>
      <trkpt lat="42.47449" lon="2.16715">
        <ele>1865</ele>
        <time>2024-09-16T07:50:40Z</time>
      </trkpt>
      <trkpt lat="42.47449" lon="2.16719">
        <ele>1865</ele>
        <time>2024-09-16T07:50:44Z</time>
      </trkpt>
      <trkpt lat="42.4745" lon="2.16723">
        <ele>1864</ele>
        <time>2024-09-16T07:50:48Z</time>
      </trkpt>
      <trkpt lat="42.4745" lon="2.16727">
        <ele>1865</ele>
        <time>2024-09-16T07:50:52Z</time>
      </trkpt>
      <trkpt lat="42.47452" lon="2.16728">
        <ele>1863</ele>
        <time>2024-09-16T07:50:57Z</time>
      </trkpt>
      <trkpt lat="42.47454" lon="2.1673">
        <ele>1862</ele>
        <time>2024-09-16T07:51:01Z</time>
      </trkpt>
      <trkpt lat="42.47455" lon="2.16733">
        <ele>1862</ele>
        <time>2024-09-16T07:51:05Z</time>
      </trkpt>
      <trkpt lat="42.47457" lon="2.16733">
        <ele>1865</ele>
        <time>2024-09-16T07:51:27Z</time>
      </trkpt>
      <trkpt lat="42.4746" lon="2.16734">
        <ele>1868</ele>
        <time>2024-09-16T07:51:55Z</time>
      </trkpt>
      <trkpt lat="42.47461" lon="2.16736">
        <ele>1865</ele>
        <time>2024-09-16T07:52:12Z</time>
      </trkpt>
      <trkpt lat="42.4746" lon="2.16739">
        <ele>1864</ele>
        <time>2024-09-16T07:52:15Z</time>
      </trkpt>
      <trkpt lat="42.47461" lon="2.16741">
        <ele>1860</ele>
        <time>2024-09-16T07:52:20Z</time>
      </trkpt>
      <trkpt lat="42.47464" lon="2.16742">
        <ele>1860</ele>
        <time>2024-09-16T07:52:23Z</time>
      </trkpt>
      <trkpt lat="42.47466" lon="2.16745">
        <ele>1859</ele>
        <time>2024-09-16T07:52:26Z</time>
      </trkpt>
      <trkpt lat="42.47468" lon="2.16749">
        <ele>1859</ele>
        <time>2024-09-16T07:52:29Z</time>
      </trkpt>
      <trkpt lat="42.4747" lon="2.16753">
        <ele>1860</ele>
        <time>2024-09-16T07:52:34Z</time>
      </trkpt>
      <trkpt lat="42.4747" lon="2.16756">
        <ele>1858</ele>
        <time>2024-09-16T07:52:36Z</time>
      </trkpt>
      <trkpt lat="42.47469" lon="2.1676">
        <ele>1858</ele>
        <time>2024-09-16T07:52:38Z</time>
      </trkpt>
      <trkpt lat="42.47469" lon="2.16763">
        <ele>1856</ele>
        <time>2024-09-16T07:52:43Z</time>
      </trkpt>
      <trkpt lat="42.4747" lon="2.16767">
        <ele>1854</ele>
        <time>2024-09-16T07:52:49Z</time>
      </trkpt>
      <trkpt lat="42.47472" lon="2.16771">
        <ele>1853</ele>
        <time>2024-09-16T07:52:53Z</time>
      </trkpt>
      <trkpt lat="42.47474" lon="2.16772">
        <ele>1851</ele>
        <time>2024-09-16T07:52:57Z</time>
      </trkpt>
      <trkpt lat="42.47477" lon="2.16774">
        <ele>1852</ele>
        <time>2024-09-16T07:52:59Z</time>
      </trkpt>
      <trkpt lat="42.47479" lon="2.16777">
        <ele>1852</ele>
        <time>2024-09-16T07:53:01Z</time>
      </trkpt>
      <trkpt lat="42.47479" lon="2.16781">
        <ele>1852</ele>
        <time>2024-09-16T07:53:04Z</time>
      </trkpt>
      <trkpt lat="42.47479" lon="2.16785">
        <ele>1852</ele>
        <time>2024-09-16T07:53:08Z</time>
      </trkpt>
      <trkpt lat="42.47481" lon="2.16789">
        <ele>1850</ele>
        <time>2024-09-16T07:53:13Z</time>
      </trkpt>
      <trkpt lat="42.47483" lon="2.16791">
        <ele>1849</ele>
        <time>2024-09-16T07:53:17Z</time>
      </trkpt>
      <trkpt lat="42.47485" lon="2.16794">
        <ele>1849</ele>
        <time>2024-09-16T07:53:19Z</time>
      </trkpt>
      <trkpt lat="42.47486" lon="2.16798">
        <ele>1849</ele>
        <time>2024-09-16T07:53:23Z</time>
      </trkpt>
      <trkpt lat="42.47486" lon="2.16805">
        <ele>1848</ele>
        <time>2024-09-16T07:53:28Z</time>
      </trkpt>
      <trkpt lat="42.47485" lon="2.16809">
        <ele>1852</ele>
        <time>2024-09-16T07:53:38Z</time>
      </trkpt>
      <trkpt lat="42.47484" lon="2.16813">
        <ele>1852</ele>
        <time>2024-09-16T07:53:44Z</time>
      </trkpt>
      <trkpt lat="42.47485" lon="2.16818">
        <ele>1852</ele>
        <time>2024-09-16T07:53:48Z</time>
      </trkpt>
      <trkpt lat="42.47485" lon="2.16821">
        <ele>1851</ele>
        <time>2024-09-16T07:53:51Z</time>
      </trkpt>
      <trkpt lat="42.47486" lon="2.16825">
        <ele>1851</ele>
        <time>2024-09-16T07:53:55Z</time>
      </trkpt>
      <trkpt lat="42.47487" lon="2.16829">
        <ele>1851</ele>
        <time>2024-09-16T07:53:59Z</time>
      </trkpt>
      <trkpt lat="42.47487" lon="2.16833">
        <ele>1849</ele>
        <time>2024-09-16T07:54:03Z</time>
      </trkpt>
      <trkpt lat="42.47488" lon="2.16837">
        <ele>1849</ele>
        <time>2024-09-16T07:54:06Z</time>
      </trkpt>
      <trkpt lat="42.4749" lon="2.1684">
        <ele>1849</ele>
        <time>2024-09-16T07:54:11Z</time>
      </trkpt>
      <trkpt lat="42.47491" lon="2.16844">
        <ele>1848</ele>
        <time>2024-09-16T07:54:13Z</time>
      </trkpt>
      <trkpt lat="42.47493" lon="2.16847">
        <ele>1848</ele>
        <time>2024-09-16T07:54:16Z</time>
      </trkpt>
      <trkpt lat="42.47495" lon="2.16851">
        <ele>1848</ele>
        <time>2024-09-16T07:54:19Z</time>
      </trkpt>
      <trkpt lat="42.47495" lon="2.16855">
        <ele>1848</ele>
        <time>2024-09-16T07:54:21Z</time>
      </trkpt>
      <trkpt lat="42.47495" lon="2.16859">
        <ele>1848</ele>
        <time>2024-09-16T07:54:25Z</time>
      </trkpt>
      <trkpt lat="42.47495" lon="2.16865">
        <ele>1847</ele>
        <time>2024-09-16T07:54:31Z</time>
      </trkpt>
      <trkpt lat="42.47496" lon="2.16869">
        <ele>1848</ele>
        <time>2024-09-16T07:54:34Z</time>
      </trkpt>
      <trkpt lat="42.47496" lon="2.16873">
        <ele>1848</ele>
        <time>2024-09-16T07:54:37Z</time>
      </trkpt>
      <trkpt lat="42.47498" lon="2.16877">
        <ele>1847</ele>
        <time>2024-09-16T07:54:42Z</time>
      </trkpt>
      <trkpt lat="42.47499" lon="2.16881">
        <ele>1847</ele>
        <time>2024-09-16T07:54:46Z</time>
      </trkpt>
      <trkpt lat="42.47499" lon="2.16886">
        <ele>1846</ele>
        <time>2024-09-16T07:54:50Z</time>
      </trkpt>
      <trkpt lat="42.475" lon="2.1689">
        <ele>1846</ele>
        <time>2024-09-16T07:54:54Z</time>
      </trkpt>
      <trkpt lat="42.475" lon="2.16894">
        <ele>1846</ele>
        <time>2024-09-16T07:54:57Z</time>
      </trkpt>
      <trkpt lat="42.47501" lon="2.16899">
        <ele>1846</ele>
        <time>2024-09-16T07:55:00Z</time>
      </trkpt>
      <trkpt lat="42.47501" lon="2.16904">
        <ele>1845</ele>
        <time>2024-09-16T07:55:05Z</time>
      </trkpt>
      <trkpt lat="42.47502" lon="2.16908">
        <ele>1844</ele>
        <time>2024-09-16T07:55:09Z</time>
      </trkpt>
      <trkpt lat="42.47502" lon="2.16912">
        <ele>1843</ele>
        <time>2024-09-16T07:55:12Z</time>
      </trkpt>
      <trkpt lat="42.47503" lon="2.16916">
        <ele>1843</ele>
        <time>2024-09-16T07:55:16Z</time>
      </trkpt>
      <trkpt lat="42.47503" lon="2.16921">
        <ele>1843</ele>
        <time>2024-09-16T07:55:20Z</time>
      </trkpt>
      <trkpt lat="42.47503" lon="2.16925">
        <ele>1841</ele>
        <time>2024-09-16T07:55:26Z</time>
      </trkpt>
      <trkpt lat="42.47504" lon="2.16929">
        <ele>1841</ele>
        <time>2024-09-16T07:55:29Z</time>
      </trkpt>
      <trkpt lat="42.47503" lon="2.16933">
        <ele>1839</ele>
        <time>2024-09-16T07:55:32Z</time>
      </trkpt>
      <trkpt lat="42.47503" lon="2.16937">
        <ele>1839</ele>
        <time>2024-09-16T07:55:35Z</time>
      </trkpt>
      <trkpt lat="42.47503" lon="2.16941">
        <ele>1838</ele>
        <time>2024-09-16T07:55:40Z</time>
      </trkpt>
      <trkpt lat="42.47503" lon="2.16945">
        <ele>1838</ele>
        <time>2024-09-16T07:55:44Z</time>
      </trkpt>
      <trkpt lat="42.47503" lon="2.16948">
        <ele>1838</ele>
        <time>2024-09-16T07:55:48Z</time>
      </trkpt>
      <trkpt lat="42.47503" lon="2.16953">
        <ele>1837</ele>
        <time>2024-09-16T07:55:54Z</time>
      </trkpt>
      <trkpt lat="42.47503" lon="2.16957">
        <ele>1838</ele>
        <time>2024-09-16T07:55:59Z</time>
      </trkpt>
      <trkpt lat="42.47504" lon="2.16961">
        <ele>1838</ele>
        <time>2024-09-16T07:56:06Z</time>
      </trkpt>
      <trkpt lat="42.47503" lon="2.16964">
        <ele>1837</ele>
        <time>2024-09-16T07:56:10Z</time>
      </trkpt>
      <trkpt lat="42.47504" lon="2.16968">
        <ele>1837</ele>
        <time>2024-09-16T07:56:15Z</time>
      </trkpt>
      <trkpt lat="42.47504" lon="2.16972">
        <ele>1838</ele>
        <time>2024-09-16T07:56:18Z</time>
      </trkpt>
      <trkpt lat="42.47505" lon="2.16976">
        <ele>1837</ele>
        <time>2024-09-16T07:56:24Z</time>
      </trkpt>
      <trkpt lat="42.47504" lon="2.1698">
        <ele>1837</ele>
        <time>2024-09-16T07:56:26Z</time>
      </trkpt>
      <trkpt lat="42.47502" lon="2.16984">
        <ele>1836</ele>
        <time>2024-09-16T07:56:31Z</time>
      </trkpt>
      <trkpt lat="42.47501" lon="2.16988">
        <ele>1837</ele>
        <time>2024-09-16T07:56:35Z</time>
      </trkpt>
      <trkpt lat="42.47501" lon="2.16992">
        <ele>1836</ele>
        <time>2024-09-16T07:56:39Z</time>
      </trkpt>
      <trkpt lat="42.47501" lon="2.16996">
        <ele>1836</ele>
        <time>2024-09-16T07:56:41Z</time>
      </trkpt>
      <trkpt lat="42.475" lon="2.17">
        <ele>1835</ele>
        <time>2024-09-16T07:56:45Z</time>
      </trkpt>
      <trkpt lat="42.47499" lon="2.17005">
        <ele>1833</ele>
        <time>2024-09-16T07:56:49Z</time>
      </trkpt>
      <trkpt lat="42.47499" lon="2.17009">
        <ele>1832</ele>
        <time>2024-09-16T07:56:54Z</time>
      </trkpt>
      <trkpt lat="42.475" lon="2.17014">
        <ele>1831</ele>
        <time>2024-09-16T07:56:59Z</time>
      </trkpt>
      <trkpt lat="42.47501" lon="2.17018">
        <ele>1831</ele>
        <time>2024-09-16T07:57:03Z</time>
      </trkpt>
      <trkpt lat="42.47501" lon="2.17022">
        <ele>1831</ele>
        <time>2024-09-16T07:57:07Z</time>
      </trkpt>
      <trkpt lat="42.47501" lon="2.17028">
        <ele>1831</ele>
        <time>2024-09-16T07:57:10Z</time>
      </trkpt>
      <trkpt lat="42.47501" lon="2.17033">
        <ele>1829</ele>
        <time>2024-09-16T07:57:17Z</time>
      </trkpt>
      <trkpt lat="42.475" lon="2.17038">
        <ele>1830</ele>
        <time>2024-09-16T07:57:19Z</time>
      </trkpt>
      <trkpt lat="42.47498" lon="2.17041">
        <ele>1828</ele>
        <time>2024-09-16T07:57:23Z</time>
      </trkpt>
      <trkpt lat="42.47497" lon="2.17045">
        <ele>1828</ele>
        <time>2024-09-16T07:57:25Z</time>
      </trkpt>
      <trkpt lat="42.47497" lon="2.17049">
        <ele>1829</ele>
        <time>2024-09-16T07:57:30Z</time>
      </trkpt>
      <trkpt lat="42.47496" lon="2.17053">
        <ele>1828</ele>
        <time>2024-09-16T07:57:37Z</time>
      </trkpt>
      <trkpt lat="42.47497" lon="2.17057">
        <ele>1827</ele>
        <time>2024-09-16T07:57:42Z</time>
      </trkpt>
      <trkpt lat="42.47497" lon="2.1706">
        <ele>1825</ele>
        <time>2024-09-16T07:57:45Z</time>
      </trkpt>
      <trkpt lat="42.47497" lon="2.17065">
        <ele>1825</ele>
        <time>2024-09-16T07:57:48Z</time>
      </trkpt>
      <trkpt lat="42.47498" lon="2.17069">
        <ele>1825</ele>
        <time>2024-09-16T07:57:54Z</time>
      </trkpt>
      <trkpt lat="42.47499" lon="2.17072">
        <ele>1825</ele>
        <time>2024-09-16T07:57:57Z</time>
      </trkpt>
      <trkpt lat="42.47499" lon="2.17076">
        <ele>1823</ele>
        <time>2024-09-16T07:58:01Z</time>
      </trkpt>
      <trkpt lat="42.47498" lon="2.17079">
        <ele>1823</ele>
        <time>2024-09-16T07:58:04Z</time>
      </trkpt>
      <trkpt lat="42.47497" lon="2.17083">
        <ele>1822</ele>
        <time>2024-09-16T07:58:09Z</time>
      </trkpt>
      <trkpt lat="42.47498" lon="2.17087">
        <ele>1821</ele>
        <time>2024-09-16T07:58:14Z</time>
      </trkpt>
      <trkpt lat="42.47499" lon="2.17091">
        <ele>1820</ele>
        <time>2024-09-16T07:58:17Z</time>
      </trkpt>
      <trkpt lat="42.47498" lon="2.17095">
        <ele>1819</ele>
        <time>2024-09-16T07:58:22Z</time>
      </trkpt>
      <trkpt lat="42.47498" lon="2.17099">
        <ele>1818</ele>
        <time>2024-09-16T07:58:25Z</time>
      </trkpt>
      <trkpt lat="42.47498" lon="2.17104">
        <ele>1818</ele>
        <time>2024-09-16T07:58:27Z</time>
      </trkpt>
      <trkpt lat="42.47497" lon="2.17109">
        <ele>1818</ele>
        <time>2024-09-16T07:58:30Z</time>
      </trkpt>
      <trkpt lat="42.47496" lon="2.17113">
        <ele>1818</ele>
        <time>2024-09-16T07:58:33Z</time>
      </trkpt>
      <trkpt lat="42.47495" lon="2.17117">
        <ele>1818</ele>
        <time>2024-09-16T07:58:35Z</time>
      </trkpt>
      <trkpt lat="42.47494" lon="2.17122">
        <ele>1817</ele>
        <time>2024-09-16T07:58:38Z</time>
      </trkpt>
      <trkpt lat="42.47493" lon="2.17126">
        <ele>1817</ele>
        <time>2024-09-16T07:58:40Z</time>
      </trkpt>
      <trkpt lat="42.47492" lon="2.1713">
        <ele>1818</ele>
        <time>2024-09-16T07:58:43Z</time>
      </trkpt>
      <trkpt lat="42.4749" lon="2.17134">
        <ele>1818</ele>
        <time>2024-09-16T07:58:47Z</time>
      </trkpt>
      <trkpt lat="42.47488" lon="2.17141">
        <ele>1818</ele>
        <time>2024-09-16T07:58:49Z</time>
      </trkpt>
      <trkpt lat="42.47487" lon="2.17146">
        <ele>1817</ele>
        <time>2024-09-16T07:58:51Z</time>
      </trkpt>
      <trkpt lat="42.47485" lon="2.1715">
        <ele>1816</ele>
        <time>2024-09-16T07:58:55Z</time>
      </trkpt>
      <trkpt lat="42.47483" lon="2.17153">
        <ele>1817</ele>
        <time>2024-09-16T07:58:57Z</time>
      </trkpt>
      <trkpt lat="42.47482" lon="2.17157">
        <ele>1818</ele>
        <time>2024-09-16T07:59:01Z</time>
      </trkpt>
      <trkpt lat="42.47482" lon="2.17161">
        <ele>1819</ele>
        <time>2024-09-16T07:59:04Z</time>
      </trkpt>
      <trkpt lat="42.47482" lon="2.17164">
        <ele>1818</ele>
        <time>2024-09-16T07:59:06Z</time>
      </trkpt>
      <trkpt lat="42.47481" lon="2.17168">
        <ele>1820</ele>
        <time>2024-09-16T07:59:08Z</time>
      </trkpt>
      <trkpt lat="42.47481" lon="2.17172">
        <ele>1820</ele>
        <time>2024-09-16T07:59:10Z</time>
      </trkpt>
      <trkpt lat="42.4748" lon="2.17176">
        <ele>1821</ele>
        <time>2024-09-16T07:59:14Z</time>
      </trkpt>
      <trkpt lat="42.4748" lon="2.1718">
        <ele>1822</ele>
        <time>2024-09-16T07:59:17Z</time>
      </trkpt>
      <trkpt lat="42.47479" lon="2.17184">
        <ele>1823</ele>
        <time>2024-09-16T07:59:22Z</time>
      </trkpt>
      <trkpt lat="42.47479" lon="2.17188">
        <ele>1823</ele>
        <time>2024-09-16T07:59:26Z</time>
      </trkpt>
      <trkpt lat="42.47478" lon="2.17192">
        <ele>1824</ele>
        <time>2024-09-16T07:59:30Z</time>
      </trkpt>
      <trkpt lat="42.47477" lon="2.17195">
        <ele>1824</ele>
        <time>2024-09-16T07:59:33Z</time>
      </trkpt>
      <trkpt lat="42.47475" lon="2.17199">
        <ele>1824</ele>
        <time>2024-09-16T07:59:37Z</time>
      </trkpt>
      <trkpt lat="42.47473" lon="2.17202">
        <ele>1824</ele>
        <time>2024-09-16T07:59:40Z</time>
      </trkpt>
      <trkpt lat="42.47474" lon="2.17206">
        <ele>1823</ele>
        <time>2024-09-16T07:59:45Z</time>
      </trkpt>
      <trkpt lat="42.47474" lon="2.1721">
        <ele>1823</ele>
        <time>2024-09-16T07:59:48Z</time>
      </trkpt>
      <trkpt lat="42.47474" lon="2.17215">
        <ele>1822</ele>
        <time>2024-09-16T07:59:52Z</time>
      </trkpt>
      <trkpt lat="42.47475" lon="2.1722">
        <ele>1822</ele>
        <time>2024-09-16T07:59:58Z</time>
      </trkpt>
      <trkpt lat="42.47474" lon="2.17224">
        <ele>1822</ele>
        <time>2024-09-16T08:00:01Z</time>
      </trkpt>
      <trkpt lat="42.47473" lon="2.17229">
        <ele>1822</ele>
        <time>2024-09-16T08:00:04Z</time>
      </trkpt>
      <trkpt lat="42.47474" lon="2.17233">
        <ele>1822</ele>
        <time>2024-09-16T08:00:07Z</time>
      </trkpt>
      <trkpt lat="42.47474" lon="2.17238">
        <ele>1822</ele>
        <time>2024-09-16T08:00:09Z</time>
      </trkpt>
      <trkpt lat="42.47472" lon="2.17241">
        <ele>1821</ele>
        <time>2024-09-16T08:00:12Z</time>
      </trkpt>
      <trkpt lat="42.4747" lon="2.17245">
        <ele>1821</ele>
        <time>2024-09-16T08:00:15Z</time>
      </trkpt>
      <trkpt lat="42.47469" lon="2.17249">
        <ele>1820</ele>
        <time>2024-09-16T08:00:21Z</time>
      </trkpt>
      <trkpt lat="42.47468" lon="2.17254">
        <ele>1819</ele>
        <time>2024-09-16T08:00:26Z</time>
      </trkpt>
      <trkpt lat="42.47468" lon="2.17259">
        <ele>1820</ele>
        <time>2024-09-16T08:00:29Z</time>
      </trkpt>
      <trkpt lat="42.47467" lon="2.17263">
        <ele>1821</ele>
        <time>2024-09-16T08:00:31Z</time>
      </trkpt>
      <trkpt lat="42.47467" lon="2.17269">
        <ele>1822</ele>
        <time>2024-09-16T08:00:35Z</time>
      </trkpt>
      <trkpt lat="42.47467" lon="2.17274">
        <ele>1822</ele>
        <time>2024-09-16T08:00:40Z</time>
      </trkpt>
      <trkpt lat="42.47465" lon="2.17278">
        <ele>1822</ele>
        <time>2024-09-16T08:00:44Z</time>
      </trkpt>
      <trkpt lat="42.47464" lon="2.17281">
        <ele>1822</ele>
        <time>2024-09-16T08:00:48Z</time>
      </trkpt>
      <trkpt lat="42.47462" lon="2.17284">
        <ele>1822</ele>
        <time>2024-09-16T08:00:50Z</time>
      </trkpt>
      <trkpt lat="42.47461" lon="2.17288">
        <ele>1822</ele>
        <time>2024-09-16T08:00:53Z</time>
      </trkpt>
      <trkpt lat="42.47458" lon="2.1729">
        <ele>1822</ele>
        <time>2024-09-16T08:00:58Z</time>
      </trkpt>
      <trkpt lat="42.47456" lon="2.17293">
        <ele>1823</ele>
        <time>2024-09-16T08:01:02Z</time>
      </trkpt>
      <trkpt lat="42.47453" lon="2.17294">
        <ele>1823</ele>
        <time>2024-09-16T08:01:04Z</time>
      </trkpt>
      <trkpt lat="42.4745" lon="2.17297">
        <ele>1825</ele>
        <time>2024-09-16T08:01:09Z</time>
      </trkpt>
      <trkpt lat="42.47448" lon="2.173">
        <ele>1824</ele>
        <time>2024-09-16T08:01:16Z</time>
      </trkpt>
      <trkpt lat="42.47447" lon="2.17305">
        <ele>1824</ele>
        <time>2024-09-16T08:01:18Z</time>
      </trkpt>
      <trkpt lat="42.47447" lon="2.17309">
        <ele>1824</ele>
        <time>2024-09-16T08:01:21Z</time>
      </trkpt>
      <trkpt lat="42.47445" lon="2.17313">
        <ele>1824</ele>
        <time>2024-09-16T08:01:25Z</time>
      </trkpt>
      <trkpt lat="42.47445" lon="2.17317">
        <ele>1823</ele>
        <time>2024-09-16T08:01:28Z</time>
      </trkpt>
      <trkpt lat="42.47443" lon="2.17322">
        <ele>1824</ele>
        <time>2024-09-16T08:01:32Z</time>
      </trkpt>
      <trkpt lat="42.47441" lon="2.17325">
        <ele>1824</ele>
        <time>2024-09-16T08:01:35Z</time>
      </trkpt>
      <trkpt lat="42.4744" lon="2.17328">
        <ele>1824</ele>
        <time>2024-09-16T08:01:37Z</time>
      </trkpt>
      <trkpt lat="42.47439" lon="2.17332">
        <ele>1824</ele>
        <time>2024-09-16T08:01:40Z</time>
      </trkpt>
      <trkpt lat="42.47437" lon="2.17336">
        <ele>1824</ele>
        <time>2024-09-16T08:01:43Z</time>
      </trkpt>
      <trkpt lat="42.47435" lon="2.17341">
        <ele>1823</ele>
        <time>2024-09-16T08:01:46Z</time>
      </trkpt>
      <trkpt lat="42.47432" lon="2.17344">
        <ele>1822</ele>
        <time>2024-09-16T08:01:51Z</time>
      </trkpt>
      <trkpt lat="42.4743" lon="2.17347">
        <ele>1821</ele>
        <time>2024-09-16T08:01:54Z</time>
      </trkpt>
      <trkpt lat="42.47427" lon="2.17349">
        <ele>1824</ele>
        <time>2024-09-16T08:01:58Z</time>
      </trkpt>
      <trkpt lat="42.47424" lon="2.17351">
        <ele>1823</ele>
        <time>2024-09-16T08:02:01Z</time>
      </trkpt>
      <trkpt lat="42.47422" lon="2.17355">
        <ele>1822</ele>
        <time>2024-09-16T08:02:05Z</time>
      </trkpt>
      <trkpt lat="42.47418" lon="2.17357">
        <ele>1822</ele>
        <time>2024-09-16T08:02:09Z</time>
      </trkpt>
      <trkpt lat="42.47415" lon="2.17358">
        <ele>1824</ele>
        <time>2024-09-16T08:02:13Z</time>
      </trkpt>
      <trkpt lat="42.47412" lon="2.17361">
        <ele>1824</ele>
        <time>2024-09-16T08:02:17Z</time>
      </trkpt>
      <trkpt lat="42.47409" lon="2.17362">
        <ele>1823</ele>
        <time>2024-09-16T08:02:20Z</time>
      </trkpt>
      <trkpt lat="42.47405" lon="2.17364">
        <ele>1824</ele>
        <time>2024-09-16T08:02:23Z</time>
      </trkpt>
      <trkpt lat="42.47402" lon="2.17366">
        <ele>1826</ele>
        <time>2024-09-16T08:02:30Z</time>
      </trkpt>
      <trkpt lat="42.47398" lon="2.1737">
        <ele>1826</ele>
        <time>2024-09-16T08:02:33Z</time>
      </trkpt>
      <trkpt lat="42.47395" lon="2.17374">
        <ele>1826</ele>
        <time>2024-09-16T08:02:35Z</time>
      </trkpt>
      <trkpt lat="42.47392" lon="2.17378">
        <ele>1827</ele>
        <time>2024-09-16T08:02:45Z</time>
      </trkpt>
      <trkpt lat="42.47389" lon="2.17381">
        <ele>1826</ele>
        <time>2024-09-16T08:02:49Z</time>
      </trkpt>
      <trkpt lat="42.47387" lon="2.17384">
        <ele>1825</ele>
        <time>2024-09-16T08:02:53Z</time>
      </trkpt>
      <trkpt lat="42.47383" lon="2.17385">
        <ele>1825</ele>
        <time>2024-09-16T08:02:57Z</time>
      </trkpt>
      <trkpt lat="42.4738" lon="2.17388">
        <ele>1826</ele>
        <time>2024-09-16T08:03:00Z</time>
      </trkpt>
      <trkpt lat="42.47378" lon="2.1739">
        <ele>1826</ele>
        <time>2024-09-16T08:03:02Z</time>
      </trkpt>
      <trkpt lat="42.47374" lon="2.17391">
        <ele>1826</ele>
        <time>2024-09-16T08:03:05Z</time>
      </trkpt>
      <trkpt lat="42.47371" lon="2.17394">
        <ele>1826</ele>
        <time>2024-09-16T08:03:09Z</time>
      </trkpt>
      <trkpt lat="42.47368" lon="2.17395">
        <ele>1827</ele>
        <time>2024-09-16T08:03:12Z</time>
      </trkpt>
      <trkpt lat="42.47365" lon="2.17394">
        <ele>1827</ele>
        <time>2024-09-16T08:03:14Z</time>
      </trkpt>
      <trkpt lat="42.47362" lon="2.17396">
        <ele>1828</ele>
        <time>2024-09-16T08:03:21Z</time>
      </trkpt>
      <trkpt lat="42.47358" lon="2.17399">
        <ele>1829</ele>
        <time>2024-09-16T08:03:24Z</time>
      </trkpt>
      <trkpt lat="42.47354" lon="2.174">
        <ele>1830</ele>
        <time>2024-09-16T08:03:31Z</time>
      </trkpt>
      <trkpt lat="42.47351" lon="2.17402">
        <ele>1830</ele>
        <time>2024-09-16T08:03:34Z</time>
      </trkpt>
      <trkpt lat="42.47349" lon="2.17405">
        <ele>1832</ele>
        <time>2024-09-16T08:03:41Z</time>
      </trkpt>
      <trkpt lat="42.47346" lon="2.17405">
        <ele>1832</ele>
        <time>2024-09-16T08:03:49Z</time>
      </trkpt>
      <trkpt lat="42.47343" lon="2.17407">
        <ele>1832</ele>
        <time>2024-09-16T08:03:54Z</time>
      </trkpt>
      <trkpt lat="42.4734" lon="2.1741">
        <ele>1831</ele>
        <time>2024-09-16T08:04:00Z</time>
      </trkpt>
      <trkpt lat="42.47337" lon="2.17413">
        <ele>1829</ele>
        <time>2024-09-16T08:04:05Z</time>
      </trkpt>
      <trkpt lat="42.47335" lon="2.17415">
        <ele>1828</ele>
        <time>2024-09-16T08:04:07Z</time>
      </trkpt>
      <trkpt lat="42.47332" lon="2.17419">
        <ele>1829</ele>
        <time>2024-09-16T08:04:11Z</time>
      </trkpt>
      <trkpt lat="42.47329" lon="2.1742">
        <ele>1829</ele>
        <time>2024-09-16T08:04:14Z</time>
      </trkpt>
      <trkpt lat="42.47326" lon="2.17421">
        <ele>1829</ele>
        <time>2024-09-16T08:04:17Z</time>
      </trkpt>
      <trkpt lat="42.47323" lon="2.17422">
        <ele>1829</ele>
        <time>2024-09-16T08:04:20Z</time>
      </trkpt>
      <trkpt lat="42.47319" lon="2.17421">
        <ele>1830</ele>
        <time>2024-09-16T08:04:24Z</time>
      </trkpt>
      <trkpt lat="42.47316" lon="2.17422">
        <ele>1831</ele>
        <time>2024-09-16T08:04:29Z</time>
      </trkpt>
      <trkpt lat="42.47314" lon="2.17424">
        <ele>1833</ele>
        <time>2024-09-16T08:04:41Z</time>
      </trkpt>
      <trkpt lat="42.47311" lon="2.17426">
        <ele>1834</ele>
        <time>2024-09-16T08:04:45Z</time>
      </trkpt>
      <trkpt lat="42.47308" lon="2.17427">
        <ele>1832</ele>
        <time>2024-09-16T08:04:52Z</time>
      </trkpt>
      <trkpt lat="42.47304" lon="2.17428">
        <ele>1830</ele>
        <time>2024-09-16T08:04:57Z</time>
      </trkpt>
      <trkpt lat="42.47301" lon="2.17429">
        <ele>1830</ele>
        <time>2024-09-16T08:05:02Z</time>
      </trkpt>
      <trkpt lat="42.47298" lon="2.1743">
        <ele>1829</ele>
        <time>2024-09-16T08:05:05Z</time>
      </trkpt>
      <trkpt lat="42.47295" lon="2.17431">
        <ele>1830</ele>
        <time>2024-09-16T08:05:07Z</time>
      </trkpt>
      <trkpt lat="42.47291" lon="2.1743">
        <ele>1829</ele>
        <time>2024-09-16T08:05:11Z</time>
      </trkpt>
      <trkpt lat="42.47288" lon="2.17429">
        <ele>1831</ele>
        <time>2024-09-16T08:05:14Z</time>
      </trkpt>
      <trkpt lat="42.47285" lon="2.17428">
        <ele>1831</ele>
        <time>2024-09-16T08:05:16Z</time>
      </trkpt>
      <trkpt lat="42.47282" lon="2.17428">
        <ele>1833</ele>
        <time>2024-09-16T08:05:20Z</time>
      </trkpt>
      <trkpt lat="42.47279" lon="2.1743">
        <ele>1835</ele>
        <time>2024-09-16T08:05:25Z</time>
      </trkpt>
      <trkpt lat="42.47276" lon="2.17431">
        <ele>1835</ele>
        <time>2024-09-16T08:05:28Z</time>
      </trkpt>
      <trkpt lat="42.47274" lon="2.17433">
        <ele>1836</ele>
        <time>2024-09-16T08:05:33Z</time>
      </trkpt>
      <trkpt lat="42.4727" lon="2.17433">
        <ele>1837</ele>
        <time>2024-09-16T08:05:43Z</time>
      </trkpt>
      <trkpt lat="42.47267" lon="2.17432">
        <ele>1838</ele>
        <time>2024-09-16T08:05:48Z</time>
      </trkpt>
      <trkpt lat="42.47264" lon="2.17431">
        <ele>1838</ele>
        <time>2024-09-16T08:05:52Z</time>
      </trkpt>
      <trkpt lat="42.47262" lon="2.17431">
        <ele>1837</ele>
        <time>2024-09-16T08:05:56Z</time>
      </trkpt>
      <trkpt lat="42.47259" lon="2.17432">
        <ele>1837</ele>
        <time>2024-09-16T08:05:58Z</time>
      </trkpt>
      <trkpt lat="42.47256" lon="2.17432">
        <ele>1836</ele>
        <time>2024-09-16T08:06:00Z</time>
      </trkpt>
      <trkpt lat="42.47253" lon="2.17433">
        <ele>1838</ele>
        <time>2024-09-16T08:06:05Z</time>
      </trkpt>
      <trkpt lat="42.47249" lon="2.17434">
        <ele>1838</ele>
        <time>2024-09-16T08:06:07Z</time>
      </trkpt>
      <trkpt lat="42.47246" lon="2.17433">
        <ele>1838</ele>
        <time>2024-09-16T08:06:12Z</time>
      </trkpt>
      <trkpt lat="42.47245" lon="2.17435">
        <ele>1840</ele>
        <time>2024-09-16T08:06:15Z</time>
      </trkpt>
      <trkpt lat="42.47242" lon="2.17437">
        <ele>1840</ele>
        <time>2024-09-16T08:06:17Z</time>
      </trkpt>
      <trkpt lat="42.47239" lon="2.17438">
        <ele>1838</ele>
        <time>2024-09-16T08:06:21Z</time>
      </trkpt>
      <trkpt lat="42.47235" lon="2.17438">
        <ele>1838</ele>
        <time>2024-09-16T08:06:24Z</time>
      </trkpt>
      <trkpt lat="42.47232" lon="2.17438">
        <ele>1837</ele>
        <time>2024-09-16T08:06:27Z</time>
      </trkpt>
      <trkpt lat="42.47229" lon="2.17439">
        <ele>1838</ele>
        <time>2024-09-16T08:06:29Z</time>
      </trkpt>
      <trkpt lat="42.47226" lon="2.17441">
        <ele>1837</ele>
        <time>2024-09-16T08:06:31Z</time>
      </trkpt>
      <trkpt lat="42.47224" lon="2.17441">
        <ele>1837</ele>
        <time>2024-09-16T08:06:34Z</time>
      </trkpt>
      <trkpt lat="42.47221" lon="2.1744">
        <ele>1838</ele>
        <time>2024-09-16T08:06:37Z</time>
      </trkpt>
      <trkpt lat="42.47219" lon="2.17442">
        <ele>1837</ele>
        <time>2024-09-16T08:06:41Z</time>
      </trkpt>
      <trkpt lat="42.47217" lon="2.17445">
        <ele>1836</ele>
        <time>2024-09-16T08:06:44Z</time>
      </trkpt>
      <trkpt lat="42.47214" lon="2.17446">
        <ele>1835</ele>
        <time>2024-09-16T08:06:47Z</time>
      </trkpt>
      <trkpt lat="42.47211" lon="2.17447">
        <ele>1835</ele>
        <time>2024-09-16T08:06:49Z</time>
      </trkpt>
      <trkpt lat="42.47208" lon="2.17449">
        <ele>1835</ele>
        <time>2024-09-16T08:06:51Z</time>
      </trkpt>
      <trkpt lat="42.47205" lon="2.1745">
        <ele>1835</ele>
        <time>2024-09-16T08:06:54Z</time>
      </trkpt>
      <trkpt lat="42.47202" lon="2.17449">
        <ele>1834</ele>
        <time>2024-09-16T08:06:58Z</time>
      </trkpt>
      <trkpt lat="42.47199" lon="2.17447">
        <ele>1834</ele>
        <time>2024-09-16T08:07:03Z</time>
      </trkpt>
      <trkpt lat="42.47196" lon="2.17445">
        <ele>1834</ele>
        <time>2024-09-16T08:07:08Z</time>
      </trkpt>
      <trkpt lat="42.47194" lon="2.17442">
        <ele>1834</ele>
        <time>2024-09-16T08:07:12Z</time>
      </trkpt>
      <trkpt lat="42.47191" lon="2.17439">
        <ele>1834</ele>
        <time>2024-09-16T08:07:17Z</time>
      </trkpt>
      <trkpt lat="42.47189" lon="2.17437">
        <ele>1834</ele>
        <time>2024-09-16T08:07:23Z</time>
      </trkpt>
      <trkpt lat="42.47187" lon="2.17434">
        <ele>1833</ele>
        <time>2024-09-16T08:07:30Z</time>
      </trkpt>
      <trkpt lat="42.47186" lon="2.17431">
        <ele>1834</ele>
        <time>2024-09-16T08:07:35Z</time>
      </trkpt>
      <trkpt lat="42.47184" lon="2.17427">
        <ele>1835</ele>
        <time>2024-09-16T08:07:41Z</time>
      </trkpt>
      <trkpt lat="42.47183" lon="2.17424">
        <ele>1835</ele>
        <time>2024-09-16T08:07:46Z</time>
      </trkpt>
      <trkpt lat="42.4718" lon="2.17421">
        <ele>1834</ele>
        <time>2024-09-16T08:07:49Z</time>
      </trkpt>
      <trkpt lat="42.47177" lon="2.17419">
        <ele>1835</ele>
        <time>2024-09-16T08:07:53Z</time>
      </trkpt>
      <trkpt lat="42.47175" lon="2.1742">
        <ele>1834</ele>
        <time>2024-09-16T08:07:56Z</time>
      </trkpt>
      <trkpt lat="42.47173" lon="2.17422">
        <ele>1833</ele>
        <time>2024-09-16T08:08:00Z</time>
      </trkpt>
      <trkpt lat="42.47172" lon="2.17425">
        <ele>1832</ele>
        <time>2024-09-16T08:08:07Z</time>
      </trkpt>
      <trkpt lat="42.4717" lon="2.17426">
        <ele>1832</ele>
        <time>2024-09-16T08:08:12Z</time>
      </trkpt>
      <trkpt lat="42.47168" lon="2.17426">
        <ele>1830</ele>
        <time>2024-09-16T08:08:19Z</time>
      </trkpt>
      <trkpt lat="42.47164" lon="2.17426">
        <ele>1829</ele>
        <time>2024-09-16T08:08:25Z</time>
      </trkpt>
      <trkpt lat="42.47161" lon="2.17426">
        <ele>1830</ele>
        <time>2024-09-16T08:08:30Z</time>
      </trkpt>
      <trkpt lat="42.47159" lon="2.17426">
        <ele>1830</ele>
        <time>2024-09-16T08:08:33Z</time>
      </trkpt>
      <trkpt lat="42.47156" lon="2.17426">
        <ele>1829</ele>
        <time>2024-09-16T08:08:36Z</time>
      </trkpt>
      <trkpt lat="42.47153" lon="2.17427">
        <ele>1829</ele>
        <time>2024-09-16T08:08:43Z</time>
      </trkpt>
      <trkpt lat="42.4715" lon="2.17429">
        <ele>1829</ele>
        <time>2024-09-16T08:08:47Z</time>
      </trkpt>
      <trkpt lat="42.47147" lon="2.1743">
        <ele>1827</ele>
        <time>2024-09-16T08:08:51Z</time>
      </trkpt>
      <trkpt lat="42.47144" lon="2.17431">
        <ele>1826</ele>
        <time>2024-09-16T08:08:54Z</time>
      </trkpt>
      <trkpt lat="42.47144" lon="2.17434">
        <ele>1823</ele>
        <time>2024-09-16T08:08:58Z</time>
      </trkpt>
      <trkpt lat="42.47144" lon="2.17437">
        <ele>1822</ele>
        <time>2024-09-16T08:09:02Z</time>
      </trkpt>
      <trkpt lat="42.47145" lon="2.1744">
        <ele>1821</ele>
        <time>2024-09-16T08:09:07Z</time>
      </trkpt>
      <trkpt lat="42.47147" lon="2.17444">
        <ele>1820</ele>
        <time>2024-09-16T08:09:11Z</time>
      </trkpt>
      <trkpt lat="42.47148" lon="2.17447">
        <ele>1819</ele>
        <time>2024-09-16T08:09:15Z</time>
      </trkpt>
      <trkpt lat="42.4715" lon="2.17451">
        <ele>1818</ele>
        <time>2024-09-16T08:09:23Z</time>
      </trkpt>
      <trkpt lat="42.47152" lon="2.17454">
        <ele>1817</ele>
        <time>2024-09-16T08:09:27Z</time>
      </trkpt>
      <trkpt lat="42.47153" lon="2.17458">
        <ele>1816</ele>
        <time>2024-09-16T08:09:34Z</time>
      </trkpt>
      <trkpt lat="42.47152" lon="2.17461">
        <ele>1814</ele>
        <time>2024-09-16T08:09:43Z</time>
      </trkpt>
      <trkpt lat="42.4715" lon="2.17463">
        <ele>1812</ele>
        <time>2024-09-16T08:09:48Z</time>
      </trkpt>
      <trkpt lat="42.47149" lon="2.17466">
        <ele>1811</ele>
        <time>2024-09-16T08:09:53Z</time>
      </trkpt>
      <trkpt lat="42.47147" lon="2.17468">
        <ele>1810</ele>
        <time>2024-09-16T08:09:59Z</time>
      </trkpt>
      <trkpt lat="42.47144" lon="2.17469">
        <ele>1809</ele>
        <time>2024-09-16T08:10:04Z</time>
      </trkpt>
      <trkpt lat="42.47141" lon="2.17471">
        <ele>1809</ele>
        <time>2024-09-16T08:10:09Z</time>
      </trkpt>
      <trkpt lat="42.47138" lon="2.17472">
        <ele>1809</ele>
        <time>2024-09-16T08:10:11Z</time>
      </trkpt>
      <trkpt lat="42.47136" lon="2.17475">
        <ele>1809</ele>
        <time>2024-09-16T08:10:16Z</time>
      </trkpt>
      <trkpt lat="42.47134" lon="2.17478">
        <ele>1809</ele>
        <time>2024-09-16T08:10:19Z</time>
      </trkpt>
      <trkpt lat="42.47131" lon="2.17479">
        <ele>1806</ele>
        <time>2024-09-16T08:10:23Z</time>
      </trkpt>
      <trkpt lat="42.47128" lon="2.1748">
        <ele>1805</ele>
        <time>2024-09-16T08:10:25Z</time>
      </trkpt>
      <trkpt lat="42.47125" lon="2.1748">
        <ele>1805</ele>
        <time>2024-09-16T08:10:31Z</time>
      </trkpt>
      <trkpt lat="42.47122" lon="2.17482">
        <ele>1805</ele>
        <time>2024-09-16T08:10:33Z</time>
      </trkpt>
      <trkpt lat="42.4712" lon="2.17484">
        <ele>1804</ele>
        <time>2024-09-16T08:10:36Z</time>
      </trkpt>
      <trkpt lat="42.47117" lon="2.17483">
        <ele>1805</ele>
        <time>2024-09-16T08:10:39Z</time>
      </trkpt>
      <trkpt lat="42.47114" lon="2.17483">
        <ele>1805</ele>
        <time>2024-09-16T08:10:42Z</time>
      </trkpt>
      <trkpt lat="42.47111" lon="2.17484">
        <ele>1804</ele>
        <time>2024-09-16T08:10:45Z</time>
      </trkpt>
      <trkpt lat="42.47107" lon="2.17485">
        <ele>1804</ele>
        <time>2024-09-16T08:10:48Z</time>
      </trkpt>
      <trkpt lat="42.47103" lon="2.17486">
        <ele>1803</ele>
        <time>2024-09-16T08:10:51Z</time>
      </trkpt>
      <trkpt lat="42.471" lon="2.17485">
        <ele>1803</ele>
        <time>2024-09-16T08:10:53Z</time>
      </trkpt>
      <trkpt lat="42.47097" lon="2.17484">
        <ele>1803</ele>
        <time>2024-09-16T08:10:56Z</time>
      </trkpt>
      <trkpt lat="42.47095" lon="2.17483">
        <ele>1803</ele>
        <time>2024-09-16T08:10:58Z</time>
      </trkpt>
      <trkpt lat="42.47092" lon="2.17483">
        <ele>1803</ele>
        <time>2024-09-16T08:11:00Z</time>
      </trkpt>
      <trkpt lat="42.47088" lon="2.17483">
        <ele>1803</ele>
        <time>2024-09-16T08:11:03Z</time>
      </trkpt>
      <trkpt lat="42.47085" lon="2.17482">
        <ele>1803</ele>
        <time>2024-09-16T08:11:06Z</time>
      </trkpt>
      <trkpt lat="42.47081" lon="2.17481">
        <ele>1803</ele>
        <time>2024-09-16T08:11:09Z</time>
      </trkpt>
      <trkpt lat="42.47078" lon="2.1748">
        <ele>1803</ele>
        <time>2024-09-16T08:11:12Z</time>
      </trkpt>
      <trkpt lat="42.47075" lon="2.17479">
        <ele>1806</ele>
        <time>2024-09-16T08:11:16Z</time>
      </trkpt>
      <trkpt lat="42.47072" lon="2.17478">
        <ele>1805</ele>
        <time>2024-09-16T08:11:19Z</time>
      </trkpt>
      <trkpt lat="42.4707" lon="2.17479">
        <ele>1805</ele>
        <time>2024-09-16T08:11:23Z</time>
      </trkpt>
      <trkpt lat="42.47069" lon="2.17481">
        <ele>1802</ele>
        <time>2024-09-16T08:11:28Z</time>
      </trkpt>
      <trkpt lat="42.47067" lon="2.17484">
        <ele>1801</ele>
        <time>2024-09-16T08:11:32Z</time>
      </trkpt>
      <trkpt lat="42.47064" lon="2.17488">
        <ele>1800</ele>
        <time>2024-09-16T08:11:34Z</time>
      </trkpt>
      <trkpt lat="42.47061" lon="2.17489">
        <ele>1797</ele>
        <time>2024-09-16T08:11:42Z</time>
      </trkpt>
      <trkpt lat="42.47059" lon="2.17492">
        <ele>1795</ele>
        <time>2024-09-16T08:11:51Z</time>
      </trkpt>
      <trkpt lat="42.47056" lon="2.17495">
        <ele>1794</ele>
        <time>2024-09-16T08:11:59Z</time>
      </trkpt>
      <trkpt lat="42.47054" lon="2.17497">
        <ele>1792</ele>
        <time>2024-09-16T08:12:03Z</time>
      </trkpt>
      <trkpt lat="42.47052" lon="2.175">
        <ele>1792</ele>
        <time>2024-09-16T08:12:07Z</time>
      </trkpt>
      <trkpt lat="42.4705" lon="2.175">
        <ele>1792</ele>
        <time>2024-09-16T08:12:08Z</time>
      </trkpt>
      <trkpt lat="42.47047" lon="2.17501">
        <ele>1792</ele>
        <time>2024-09-16T08:12:12Z</time>
      </trkpt>
      <trkpt lat="42.47043" lon="2.17503">
        <ele>1794</ele>
        <time>2024-09-16T08:12:15Z</time>
      </trkpt>
      <trkpt lat="42.4704" lon="2.17506">
        <ele>1790</ele>
        <time>2024-09-16T08:12:18Z</time>
      </trkpt>
      <trkpt lat="42.47038" lon="2.17508">
        <ele>1790</ele>
        <time>2024-09-16T08:12:21Z</time>
      </trkpt>
      <trkpt lat="42.47035" lon="2.1751">
        <ele>1788</ele>
        <time>2024-09-16T08:12:24Z</time>
      </trkpt>
      <trkpt lat="42.47033" lon="2.17513">
        <ele>1789</ele>
        <time>2024-09-16T08:12:26Z</time>
      </trkpt>
      <trkpt lat="42.4703" lon="2.17516">
        <ele>1788</ele>
        <time>2024-09-16T08:12:29Z</time>
      </trkpt>
      <trkpt lat="42.47027" lon="2.17517">
        <ele>1787</ele>
        <time>2024-09-16T08:12:34Z</time>
      </trkpt>
      <trkpt lat="42.47025" lon="2.17519">
        <ele>1787</ele>
        <time>2024-09-16T08:12:36Z</time>
      </trkpt>
      <trkpt lat="42.47022" lon="2.17519">
        <ele>1786</ele>
        <time>2024-09-16T08:12:40Z</time>
      </trkpt>
      <trkpt lat="42.47019" lon="2.1752">
        <ele>1785</ele>
        <time>2024-09-16T08:12:42Z</time>
      </trkpt>
      <trkpt lat="42.47016" lon="2.1752">
        <ele>1784</ele>
        <time>2024-09-16T08:12:45Z</time>
      </trkpt>
      <trkpt lat="42.47013" lon="2.1752">
        <ele>1784</ele>
        <time>2024-09-16T08:12:51Z</time>
      </trkpt>
      <trkpt lat="42.4701" lon="2.17522">
        <ele>1783</ele>
        <time>2024-09-16T08:12:54Z</time>
      </trkpt>
      <trkpt lat="42.47007" lon="2.17523">
        <ele>1783</ele>
        <time>2024-09-16T08:12:57Z</time>
      </trkpt>
      <trkpt lat="42.47004" lon="2.17523">
        <ele>1782</ele>
        <time>2024-09-16T08:12:59Z</time>
      </trkpt>
      <trkpt lat="42.47001" lon="2.17522">
        <ele>1781</ele>
        <time>2024-09-16T08:13:02Z</time>
      </trkpt>
      <trkpt lat="42.46998" lon="2.17522">
        <ele>1780</ele>
        <time>2024-09-16T08:13:03Z</time>
      </trkpt>
      <trkpt lat="42.46995" lon="2.17522">
        <ele>1781</ele>
        <time>2024-09-16T08:13:06Z</time>
      </trkpt>
      <trkpt lat="42.46992" lon="2.17521">
        <ele>1778</ele>
        <time>2024-09-16T08:13:09Z</time>
      </trkpt>
      <trkpt lat="42.46989" lon="2.17522">
        <ele>1781</ele>
        <time>2024-09-16T08:13:14Z</time>
      </trkpt>
      <trkpt lat="42.46986" lon="2.17524">
        <ele>1781</ele>
        <time>2024-09-16T08:13:17Z</time>
      </trkpt>
      <trkpt lat="42.46983" lon="2.17525">
        <ele>1781</ele>
        <time>2024-09-16T08:13:21Z</time>
      </trkpt>
      <trkpt lat="42.4698" lon="2.17526">
        <ele>1779</ele>
        <time>2024-09-16T08:13:26Z</time>
      </trkpt>
      <trkpt lat="42.46978" lon="2.17528">
        <ele>1779</ele>
        <time>2024-09-16T08:13:29Z</time>
      </trkpt>
      <trkpt lat="42.46975" lon="2.1753">
        <ele>1779</ele>
        <time>2024-09-16T08:13:32Z</time>
      </trkpt>
      <trkpt lat="42.46971" lon="2.17532">
        <ele>1779</ele>
        <time>2024-09-16T08:13:35Z</time>
      </trkpt>
      <trkpt lat="42.46966" lon="2.17533">
        <ele>1779</ele>
        <time>2024-09-16T08:13:39Z</time>
      </trkpt>
      <trkpt lat="42.46963" lon="2.17533">
        <ele>1779</ele>
        <time>2024-09-16T08:13:42Z</time>
      </trkpt>
      <trkpt lat="42.46959" lon="2.17535">
        <ele>1778</ele>
        <time>2024-09-16T08:13:46Z</time>
      </trkpt>
      <trkpt lat="42.46956" lon="2.17536">
        <ele>1778</ele>
        <time>2024-09-16T08:13:51Z</time>
      </trkpt>
      <trkpt lat="42.46953" lon="2.17536">
        <ele>1777</ele>
        <time>2024-09-16T08:13:56Z</time>
      </trkpt>
      <trkpt lat="42.4695" lon="2.17535">
        <ele>1776</ele>
        <time>2024-09-16T08:13:58Z</time>
      </trkpt>
      <trkpt lat="42.46948" lon="2.17535">
        <ele>1775</ele>
        <time>2024-09-16T08:14:03Z</time>
      </trkpt>
      <trkpt lat="42.46945" lon="2.17534">
        <ele>1775</ele>
        <time>2024-09-16T08:14:06Z</time>
      </trkpt>
      <trkpt lat="42.46942" lon="2.17534">
        <ele>1776</ele>
        <time>2024-09-16T08:14:14Z</time>
      </trkpt>
      <trkpt lat="42.46939" lon="2.17533">
        <ele>1776</ele>
        <time>2024-09-16T08:14:16Z</time>
      </trkpt>
      <trkpt lat="42.46937" lon="2.17535">
        <ele>1773</ele>
        <time>2024-09-16T08:14:20Z</time>
      </trkpt>
      <trkpt lat="42.46935" lon="2.17538">
        <ele>1772</ele>
        <time>2024-09-16T08:14:23Z</time>
      </trkpt>
      <trkpt lat="42.46933" lon="2.17541">
        <ele>1772</ele>
        <time>2024-09-16T08:14:27Z</time>
      </trkpt>
      <trkpt lat="42.4693" lon="2.17544">
        <ele>1771</ele>
        <time>2024-09-16T08:14:29Z</time>
      </trkpt>
      <trkpt lat="42.46928" lon="2.17546">
        <ele>1769</ele>
        <time>2024-09-16T08:14:32Z</time>
      </trkpt>
      <trkpt lat="42.46925" lon="2.17548">
        <ele>1770</ele>
        <time>2024-09-16T08:14:35Z</time>
      </trkpt>
      <trkpt lat="42.46922" lon="2.1755">
        <ele>1770</ele>
        <time>2024-09-16T08:14:39Z</time>
      </trkpt>
      <trkpt lat="42.46919" lon="2.17552">
        <ele>1769</ele>
        <time>2024-09-16T08:14:43Z</time>
      </trkpt>
      <trkpt lat="42.46918" lon="2.17556">
        <ele>1769</ele>
        <time>2024-09-16T08:14:46Z</time>
      </trkpt>
      <trkpt lat="42.46917" lon="2.17558">
        <ele>1770</ele>
        <time>2024-09-16T08:14:49Z</time>
      </trkpt>
      <trkpt lat="42.46914" lon="2.17563">
        <ele>1767</ele>
        <time>2024-09-16T08:14:53Z</time>
      </trkpt>
      <trkpt lat="42.46912" lon="2.17565">
        <ele>1767</ele>
        <time>2024-09-16T08:14:57Z</time>
      </trkpt>
      <trkpt lat="42.46905" lon="2.17568">
        <ele>1767</ele>
        <time>2024-09-16T08:15:00Z</time>
      </trkpt>
      <trkpt lat="42.46903" lon="2.17571">
        <ele>1766</ele>
        <time>2024-09-16T08:15:02Z</time>
      </trkpt>
      <trkpt lat="42.46901" lon="2.17574">
        <ele>1768</ele>
        <time>2024-09-16T08:15:08Z</time>
      </trkpt>
      <trkpt lat="42.469" lon="2.17577">
        <ele>1767</ele>
        <time>2024-09-16T08:15:10Z</time>
      </trkpt>
      <trkpt lat="42.46898" lon="2.1758">
        <ele>1767</ele>
        <time>2024-09-16T08:15:15Z</time>
      </trkpt>
      <trkpt lat="42.46895" lon="2.17583">
        <ele>1766</ele>
        <time>2024-09-16T08:15:20Z</time>
      </trkpt>
      <trkpt lat="42.46893" lon="2.17586">
        <ele>1767</ele>
        <time>2024-09-16T08:15:22Z</time>
      </trkpt>
      <trkpt lat="42.46892" lon="2.17585">
        <ele>1766</ele>
        <time>2024-09-16T08:15:28Z</time>
      </trkpt>
      <trkpt lat="42.46889" lon="2.17586">
        <ele>1767</ele>
        <time>2024-09-16T08:15:32Z</time>
      </trkpt>
      <trkpt lat="42.46887" lon="2.17589">
        <ele>1768</ele>
        <time>2024-09-16T08:15:36Z</time>
      </trkpt>
      <trkpt lat="42.46885" lon="2.17593">
        <ele>1766</ele>
        <time>2024-09-16T08:15:41Z</time>
      </trkpt>
      <trkpt lat="42.46882" lon="2.17596">
        <ele>1764</ele>
        <time>2024-09-16T08:15:46Z</time>
      </trkpt>
      <trkpt lat="42.4688" lon="2.17593">
        <ele>1764</ele>
        <time>2024-09-16T08:16:03Z</time>
      </trkpt>
      <trkpt lat="42.4688" lon="2.17594">
        <ele>1765</ele>
        <time>2024-09-16T08:16:15Z</time>
      </trkpt>
      <trkpt lat="42.46879" lon="2.17596">
        <ele>1765</ele>
        <time>2024-09-16T08:16:23Z</time>
      </trkpt>
      <trkpt lat="42.46879" lon="2.17601">
        <ele>1768</ele>
        <time>2024-09-16T08:16:46Z</time>
      </trkpt>
      <trkpt lat="42.46879" lon="2.17605">
        <ele>1779</ele>
        <time>2024-09-16T08:17:29Z</time>
      </trkpt>
      <trkpt lat="42.4688" lon="2.17604">
        <ele>1770</ele>
        <time>2024-09-16T08:18:06Z</time>
      </trkpt>
      <trkpt lat="42.46879" lon="2.17604">
        <ele>1770</ele>
        <time>2024-09-16T08:18:15Z</time>
      </trkpt>
      <trkpt lat="42.46877" lon="2.17603">
        <ele>1768</ele>
        <time>2024-09-16T08:18:20Z</time>
      </trkpt>
      <trkpt lat="42.46874" lon="2.17604">
        <ele>1766</ele>
        <time>2024-09-16T08:18:23Z</time>
      </trkpt>
      <trkpt lat="42.46875" lon="2.17602">
        <ele>1765</ele>
        <time>2024-09-16T08:18:27Z</time>
      </trkpt>
      <trkpt lat="42.46873" lon="2.17602">
        <ele>1765</ele>
        <time>2024-09-16T08:18:30Z</time>
      </trkpt>
      <trkpt lat="42.4687" lon="2.17603">
        <ele>1765</ele>
        <time>2024-09-16T08:18:32Z</time>
      </trkpt>
      <trkpt lat="42.46868" lon="2.17604">
        <ele>1765</ele>
        <time>2024-09-16T08:18:35Z</time>
      </trkpt>
      <trkpt lat="42.46865" lon="2.17606">
        <ele>1764</ele>
        <time>2024-09-16T08:18:38Z</time>
      </trkpt>
      <trkpt lat="42.46863" lon="2.17609">
        <ele>1763</ele>
        <time>2024-09-16T08:18:41Z</time>
      </trkpt>
      <trkpt lat="42.46859" lon="2.17612">
        <ele>1763</ele>
        <time>2024-09-16T08:18:45Z</time>
      </trkpt>
      <trkpt lat="42.46856" lon="2.17614">
        <ele>1762</ele>
        <time>2024-09-16T08:18:48Z</time>
      </trkpt>
      <trkpt lat="42.46853" lon="2.17615">
        <ele>1762</ele>
        <time>2024-09-16T08:18:52Z</time>
      </trkpt>
      <trkpt lat="42.4685" lon="2.17618">
        <ele>1761</ele>
        <time>2024-09-16T08:18:56Z</time>
      </trkpt>
      <trkpt lat="42.46848" lon="2.17621">
        <ele>1760</ele>
        <time>2024-09-16T08:18:58Z</time>
      </trkpt>
      <trkpt lat="42.46845" lon="2.17623">
        <ele>1760</ele>
        <time>2024-09-16T08:19:02Z</time>
      </trkpt>
      <trkpt lat="42.46842" lon="2.17626">
        <ele>1759</ele>
        <time>2024-09-16T08:19:06Z</time>
      </trkpt>
      <trkpt lat="42.46838" lon="2.17628">
        <ele>1759</ele>
        <time>2024-09-16T08:19:11Z</time>
      </trkpt>
      <trkpt lat="42.46835" lon="2.1763">
        <ele>1759</ele>
        <time>2024-09-16T08:19:13Z</time>
      </trkpt>
      <trkpt lat="42.46832" lon="2.17631">
        <ele>1757</ele>
        <time>2024-09-16T08:19:16Z</time>
      </trkpt>
      <trkpt lat="42.46828" lon="2.17632">
        <ele>1756</ele>
        <time>2024-09-16T08:19:19Z</time>
      </trkpt>
      <trkpt lat="42.46824" lon="2.17633">
        <ele>1756</ele>
        <time>2024-09-16T08:19:21Z</time>
      </trkpt>
      <trkpt lat="42.46821" lon="2.17633">
        <ele>1755</ele>
        <time>2024-09-16T08:19:23Z</time>
      </trkpt>
      <trkpt lat="42.46819" lon="2.17636">
        <ele>1755</ele>
        <time>2024-09-16T08:19:26Z</time>
      </trkpt>
      <trkpt lat="42.46816" lon="2.17638">
        <ele>1754</ele>
        <time>2024-09-16T08:19:30Z</time>
      </trkpt>
      <trkpt lat="42.46814" lon="2.17641">
        <ele>1752</ele>
        <time>2024-09-16T08:19:34Z</time>
      </trkpt>
      <trkpt lat="42.46811" lon="2.17643">
        <ele>1753</ele>
        <time>2024-09-16T08:19:36Z</time>
      </trkpt>
      <trkpt lat="42.46808" lon="2.17644">
        <ele>1753</ele>
        <time>2024-09-16T08:19:39Z</time>
      </trkpt>
      <trkpt lat="42.46805" lon="2.17644">
        <ele>1754</ele>
        <time>2024-09-16T08:19:43Z</time>
      </trkpt>
      <trkpt lat="42.46802" lon="2.17645">
        <ele>1757</ele>
        <time>2024-09-16T08:19:47Z</time>
      </trkpt>
      <trkpt lat="42.46799" lon="2.17647">
        <ele>1754</ele>
        <time>2024-09-16T08:19:51Z</time>
      </trkpt>
      <trkpt lat="42.46797" lon="2.17649">
        <ele>1754</ele>
        <time>2024-09-16T08:19:54Z</time>
      </trkpt>
      <trkpt lat="42.46794" lon="2.17651">
        <ele>1754</ele>
        <time>2024-09-16T08:19:56Z</time>
      </trkpt>
      <trkpt lat="42.46793" lon="2.17654">
        <ele>1752</ele>
        <time>2024-09-16T08:20:00Z</time>
      </trkpt>
      <trkpt lat="42.46794" lon="2.17658">
        <ele>1754</ele>
        <time>2024-09-16T08:20:06Z</time>
      </trkpt>
      <trkpt lat="42.46792" lon="2.17661">
        <ele>1752</ele>
        <time>2024-09-16T08:20:32Z</time>
      </trkpt>
      <trkpt lat="42.46789" lon="2.17663">
        <ele>1752</ele>
        <time>2024-09-16T08:20:36Z</time>
      </trkpt>
      <trkpt lat="42.46788" lon="2.17666">
        <ele>1752</ele>
        <time>2024-09-16T08:20:38Z</time>
      </trkpt>
      <trkpt lat="42.46785" lon="2.17668">
        <ele>1751</ele>
        <time>2024-09-16T08:20:40Z</time>
      </trkpt>
      <trkpt lat="42.46782" lon="2.1767">
        <ele>1750</ele>
        <time>2024-09-16T08:20:43Z</time>
      </trkpt>
      <trkpt lat="42.46779" lon="2.17671">
        <ele>1750</ele>
        <time>2024-09-16T08:20:46Z</time>
      </trkpt>
      <trkpt lat="42.46776" lon="2.17673">
        <ele>1749</ele>
        <time>2024-09-16T08:20:51Z</time>
      </trkpt>
      <trkpt lat="42.46773" lon="2.17674">
        <ele>1748</ele>
        <time>2024-09-16T08:20:54Z</time>
      </trkpt>
      <trkpt lat="42.4677" lon="2.17676">
        <ele>1746</ele>
        <time>2024-09-16T08:20:59Z</time>
      </trkpt>
      <trkpt lat="42.46768" lon="2.17679">
        <ele>1744</ele>
        <time>2024-09-16T08:21:03Z</time>
      </trkpt>
      <trkpt lat="42.46766" lon="2.17681">
        <ele>1744</ele>
        <time>2024-09-16T08:21:06Z</time>
      </trkpt>
      <trkpt lat="42.46763" lon="2.17684">
        <ele>1745</ele>
        <time>2024-09-16T08:21:09Z</time>
      </trkpt>
      <trkpt lat="42.46761" lon="2.17682">
        <ele>1744</ele>
        <time>2024-09-16T08:21:12Z</time>
      </trkpt>
      <trkpt lat="42.46759" lon="2.17682">
        <ele>1744</ele>
        <time>2024-09-16T08:21:29Z</time>
      </trkpt>
      <trkpt lat="42.46756" lon="2.17681">
        <ele>1744</ele>
        <time>2024-09-16T08:21:33Z</time>
      </trkpt>
      <trkpt lat="42.46753" lon="2.1768">
        <ele>1743</ele>
        <time>2024-09-16T08:21:36Z</time>
      </trkpt>
      <trkpt lat="42.46749" lon="2.1768">
        <ele>1742</ele>
        <time>2024-09-16T08:21:39Z</time>
      </trkpt>
      <trkpt lat="42.46746" lon="2.1768">
        <ele>1742</ele>
        <time>2024-09-16T08:21:42Z</time>
      </trkpt>
      <trkpt lat="42.46742" lon="2.17679">
        <ele>1741</ele>
        <time>2024-09-16T08:21:44Z</time>
      </trkpt>
      <trkpt lat="42.46739" lon="2.17677">
        <ele>1741</ele>
        <time>2024-09-16T08:21:46Z</time>
      </trkpt>
      <trkpt lat="42.46735" lon="2.17677">
        <ele>1742</ele>
        <time>2024-09-16T08:21:49Z</time>
      </trkpt>
      <trkpt lat="42.46732" lon="2.17676">
        <ele>1741</ele>
        <time>2024-09-16T08:21:51Z</time>
      </trkpt>
      <trkpt lat="42.46729" lon="2.17675">
        <ele>1741</ele>
        <time>2024-09-16T08:21:55Z</time>
      </trkpt>
      <trkpt lat="42.46727" lon="2.17676">
        <ele>1742</ele>
        <time>2024-09-16T08:21:57Z</time>
      </trkpt>
      <trkpt lat="42.46723" lon="2.17678">
        <ele>1741</ele>
        <time>2024-09-16T08:22:00Z</time>
      </trkpt>
      <trkpt lat="42.4672" lon="2.1768">
        <ele>1741</ele>
        <time>2024-09-16T08:22:03Z</time>
      </trkpt>
      <trkpt lat="42.46718" lon="2.17681">
        <ele>1740</ele>
        <time>2024-09-16T08:22:05Z</time>
      </trkpt>
      <trkpt lat="42.46714" lon="2.17682">
        <ele>1741</ele>
        <time>2024-09-16T08:22:08Z</time>
      </trkpt>
      <trkpt lat="42.4671" lon="2.17684">
        <ele>1741</ele>
        <time>2024-09-16T08:22:11Z</time>
      </trkpt>
      <trkpt lat="42.46707" lon="2.17683">
        <ele>1743</ele>
        <time>2024-09-16T08:22:15Z</time>
      </trkpt>
      <trkpt lat="42.46704" lon="2.17681">
        <ele>1743</ele>
        <time>2024-09-16T08:22:18Z</time>
      </trkpt>
      <trkpt lat="42.46701" lon="2.1768">
        <ele>1743</ele>
        <time>2024-09-16T08:22:23Z</time>
      </trkpt>
      <trkpt lat="42.46698" lon="2.17681">
        <ele>1746</ele>
        <time>2024-09-16T08:22:27Z</time>
      </trkpt>
      <trkpt lat="42.46695" lon="2.17683">
        <ele>1745</ele>
        <time>2024-09-16T08:22:30Z</time>
      </trkpt>
      <trkpt lat="42.46693" lon="2.17685">
        <ele>1745</ele>
        <time>2024-09-16T08:22:32Z</time>
      </trkpt>
      <trkpt lat="42.4669" lon="2.17685">
        <ele>1744</ele>
        <time>2024-09-16T08:22:36Z</time>
      </trkpt>
      <trkpt lat="42.46687" lon="2.17687">
        <ele>1745</ele>
        <time>2024-09-16T08:22:39Z</time>
      </trkpt>
      <trkpt lat="42.46684" lon="2.17686">
        <ele>1746</ele>
        <time>2024-09-16T08:22:43Z</time>
      </trkpt>
      <trkpt lat="42.46681" lon="2.17684">
        <ele>1746</ele>
        <time>2024-09-16T08:22:47Z</time>
      </trkpt>
      <trkpt lat="42.46679" lon="2.17683">
        <ele>1747</ele>
        <time>2024-09-16T08:22:50Z</time>
      </trkpt>
      <trkpt lat="42.46676" lon="2.17683">
        <ele>1747</ele>
        <time>2024-09-16T08:22:54Z</time>
      </trkpt>
      <trkpt lat="42.46672" lon="2.17684">
        <ele>1748</ele>
        <time>2024-09-16T08:22:57Z</time>
      </trkpt>
      <trkpt lat="42.46668" lon="2.17685">
        <ele>1747</ele>
        <time>2024-09-16T08:23:03Z</time>
      </trkpt>
      <trkpt lat="42.46665" lon="2.17683">
        <ele>1748</ele>
        <time>2024-09-16T08:23:07Z</time>
      </trkpt>
      <trkpt lat="42.46663" lon="2.17681">
        <ele>1748</ele>
        <time>2024-09-16T08:23:10Z</time>
      </trkpt>
      <trkpt lat="42.46659" lon="2.17681">
        <ele>1748</ele>
        <time>2024-09-16T08:23:13Z</time>
      </trkpt>
      <trkpt lat="42.46656" lon="2.17679">
        <ele>1748</ele>
        <time>2024-09-16T08:23:16Z</time>
      </trkpt>
      <trkpt lat="42.46653" lon="2.17677">
        <ele>1748</ele>
        <time>2024-09-16T08:23:19Z</time>
      </trkpt>
      <trkpt lat="42.4665" lon="2.17677">
        <ele>1749</ele>
        <time>2024-09-16T08:23:22Z</time>
      </trkpt>
      <trkpt lat="42.46646" lon="2.17679">
        <ele>1749</ele>
        <time>2024-09-16T08:23:26Z</time>
      </trkpt>
      <trkpt lat="42.46643" lon="2.17681">
        <ele>1748</ele>
        <time>2024-09-16T08:23:33Z</time>
      </trkpt>
      <trkpt lat="42.4664" lon="2.17682">
        <ele>1749</ele>
        <time>2024-09-16T08:23:37Z</time>
      </trkpt>
      <trkpt lat="42.46637" lon="2.17684">
        <ele>1750</ele>
        <time>2024-09-16T08:23:42Z</time>
      </trkpt>
      <trkpt lat="42.46634" lon="2.17683">
        <ele>1749</ele>
        <time>2024-09-16T08:23:48Z</time>
      </trkpt>
      <trkpt lat="42.46632" lon="2.17685">
        <ele>1748</ele>
        <time>2024-09-16T08:23:51Z</time>
      </trkpt>
      <trkpt lat="42.4663" lon="2.17687">
        <ele>1749</ele>
        <time>2024-09-16T08:23:53Z</time>
      </trkpt>
      <trkpt lat="42.46627" lon="2.17687">
        <ele>1749</ele>
        <time>2024-09-16T08:23:59Z</time>
      </trkpt>
      <trkpt lat="42.46624" lon="2.17687">
        <ele>1749</ele>
        <time>2024-09-16T08:24:07Z</time>
      </trkpt>
      <trkpt lat="42.46621" lon="2.17686">
        <ele>1749</ele>
        <time>2024-09-16T08:24:10Z</time>
      </trkpt>
      <trkpt lat="42.46619" lon="2.17687">
        <ele>1749</ele>
        <time>2024-09-16T08:24:13Z</time>
      </trkpt>
      <trkpt lat="42.46616" lon="2.17688">
        <ele>1750</ele>
        <time>2024-09-16T08:24:21Z</time>
      </trkpt>
      <trkpt lat="42.46613" lon="2.17689">
        <ele>1750</ele>
        <time>2024-09-16T08:24:27Z</time>
      </trkpt>
      <trkpt lat="42.4661" lon="2.1769">
        <ele>1750</ele>
        <time>2024-09-16T08:24:29Z</time>
      </trkpt>
      <trkpt lat="42.46607" lon="2.1769">
        <ele>1750</ele>
        <time>2024-09-16T08:24:31Z</time>
      </trkpt>
      <trkpt lat="42.46604" lon="2.17691">
        <ele>1750</ele>
        <time>2024-09-16T08:24:34Z</time>
      </trkpt>
      <trkpt lat="42.46601" lon="2.17691">
        <ele>1750</ele>
        <time>2024-09-16T08:24:36Z</time>
      </trkpt>
      <trkpt lat="42.46598" lon="2.1769">
        <ele>1750</ele>
        <time>2024-09-16T08:24:41Z</time>
      </trkpt>
      <trkpt lat="42.46595" lon="2.1769">
        <ele>1751</ele>
        <time>2024-09-16T08:24:44Z</time>
      </trkpt>
      <trkpt lat="42.46592" lon="2.17689">
        <ele>1751</ele>
        <time>2024-09-16T08:24:48Z</time>
      </trkpt>
      <trkpt lat="42.46589" lon="2.17689">
        <ele>1751</ele>
        <time>2024-09-16T08:24:51Z</time>
      </trkpt>
      <trkpt lat="42.46586" lon="2.17688">
        <ele>1751</ele>
        <time>2024-09-16T08:24:55Z</time>
      </trkpt>
      <trkpt lat="42.46583" lon="2.17688">
        <ele>1752</ele>
        <time>2024-09-16T08:24:59Z</time>
      </trkpt>
      <trkpt lat="42.4658" lon="2.17687">
        <ele>1752</ele>
        <time>2024-09-16T08:25:02Z</time>
      </trkpt>
      <trkpt lat="42.46577" lon="2.17686">
        <ele>1752</ele>
        <time>2024-09-16T08:25:05Z</time>
      </trkpt>
      <trkpt lat="42.46574" lon="2.17684">
        <ele>1753</ele>
        <time>2024-09-16T08:25:09Z</time>
      </trkpt>
      <trkpt lat="42.46571" lon="2.17683">
        <ele>1753</ele>
        <time>2024-09-16T08:25:12Z</time>
      </trkpt>
      <trkpt lat="42.46569" lon="2.17681">
        <ele>1753</ele>
        <time>2024-09-16T08:25:17Z</time>
      </trkpt>
      <trkpt lat="42.46565" lon="2.1768">
        <ele>1755</ele>
        <time>2024-09-16T08:25:21Z</time>
      </trkpt>
      <trkpt lat="42.46563" lon="2.17682">
        <ele>1754</ele>
        <time>2024-09-16T08:25:24Z</time>
      </trkpt>
      <trkpt lat="42.4656" lon="2.17684">
        <ele>1754</ele>
        <time>2024-09-16T08:25:28Z</time>
      </trkpt>
      <trkpt lat="42.46557" lon="2.17686">
        <ele>1755</ele>
        <time>2024-09-16T08:25:32Z</time>
      </trkpt>
      <trkpt lat="42.46554" lon="2.17686">
        <ele>1755</ele>
        <time>2024-09-16T08:25:36Z</time>
      </trkpt>
      <trkpt lat="42.46551" lon="2.17686">
        <ele>1756</ele>
        <time>2024-09-16T08:25:41Z</time>
      </trkpt>
      <trkpt lat="42.46547" lon="2.17685">
        <ele>1757</ele>
        <time>2024-09-16T08:25:45Z</time>
      </trkpt>
      <trkpt lat="42.46543" lon="2.17684">
        <ele>1757</ele>
        <time>2024-09-16T08:25:54Z</time>
      </trkpt>
      <trkpt lat="42.46541" lon="2.17682">
        <ele>1759</ele>
        <time>2024-09-16T08:25:56Z</time>
      </trkpt>
      <trkpt lat="42.46538" lon="2.1768">
        <ele>1759</ele>
        <time>2024-09-16T08:26:06Z</time>
      </trkpt>
      <trkpt lat="42.46535" lon="2.17678">
        <ele>1759</ele>
        <time>2024-09-16T08:26:11Z</time>
      </trkpt>
      <trkpt lat="42.46532" lon="2.17675">
        <ele>1760</ele>
        <time>2024-09-16T08:26:14Z</time>
      </trkpt>
      <trkpt lat="42.46529" lon="2.17674">
        <ele>1762</ele>
        <time>2024-09-16T08:26:18Z</time>
      </trkpt>
      <trkpt lat="42.46526" lon="2.17675">
        <ele>1762</ele>
        <time>2024-09-16T08:26:20Z</time>
      </trkpt>
      <trkpt lat="42.46523" lon="2.17677">
        <ele>1762</ele>
        <time>2024-09-16T08:26:24Z</time>
      </trkpt>
      <trkpt lat="42.4652" lon="2.17677">
        <ele>1763</ele>
        <time>2024-09-16T08:26:29Z</time>
      </trkpt>
      <trkpt lat="42.46517" lon="2.17677">
        <ele>1762</ele>
        <time>2024-09-16T08:26:34Z</time>
      </trkpt>
      <trkpt lat="42.46514" lon="2.17678">
        <ele>1763</ele>
        <time>2024-09-16T08:26:37Z</time>
      </trkpt>
      <trkpt lat="42.46511" lon="2.17677">
        <ele>1764</ele>
        <time>2024-09-16T08:26:41Z</time>
      </trkpt>
      <trkpt lat="42.46508" lon="2.17676">
        <ele>1763</ele>
        <time>2024-09-16T08:26:44Z</time>
      </trkpt>
      <trkpt lat="42.46505" lon="2.17675">
        <ele>1764</ele>
        <time>2024-09-16T08:26:47Z</time>
      </trkpt>
      <trkpt lat="42.46502" lon="2.17674">
        <ele>1766</ele>
        <time>2024-09-16T08:26:51Z</time>
      </trkpt>
      <trkpt lat="42.46499" lon="2.17673">
        <ele>1766</ele>
        <time>2024-09-16T08:26:55Z</time>
      </trkpt>
      <trkpt lat="42.46496" lon="2.17672">
        <ele>1766</ele>
        <time>2024-09-16T08:26:59Z</time>
      </trkpt>
      <trkpt lat="42.46493" lon="2.17672">
        <ele>1766</ele>
        <time>2024-09-16T08:27:02Z</time>
      </trkpt>
      <trkpt lat="42.4649" lon="2.17673">
        <ele>1767</ele>
        <time>2024-09-16T08:27:06Z</time>
      </trkpt>
      <trkpt lat="42.46487" lon="2.17672">
        <ele>1767</ele>
        <time>2024-09-16T08:27:10Z</time>
      </trkpt>
      <trkpt lat="42.46484" lon="2.17672">
        <ele>1768</ele>
        <time>2024-09-16T08:27:16Z</time>
      </trkpt>
      <trkpt lat="42.46481" lon="2.17673">
        <ele>1769</ele>
        <time>2024-09-16T08:27:18Z</time>
      </trkpt>
      <trkpt lat="42.46478" lon="2.17673">
        <ele>1769</ele>
        <time>2024-09-16T08:27:20Z</time>
      </trkpt>
      <trkpt lat="42.46475" lon="2.17672">
        <ele>1770</ele>
        <time>2024-09-16T08:27:24Z</time>
      </trkpt>
      <trkpt lat="42.46472" lon="2.17672">
        <ele>1771</ele>
        <time>2024-09-16T08:27:28Z</time>
      </trkpt>
      <trkpt lat="42.4647" lon="2.17672">
        <ele>1771</ele>
        <time>2024-09-16T08:27:31Z</time>
      </trkpt>
      <trkpt lat="42.46467" lon="2.17672">
        <ele>1772</ele>
        <time>2024-09-16T08:27:38Z</time>
      </trkpt>
      <trkpt lat="42.46464" lon="2.17671">
        <ele>1772</ele>
        <time>2024-09-16T08:27:42Z</time>
      </trkpt>
      <trkpt lat="42.46461" lon="2.1767">
        <ele>1773</ele>
        <time>2024-09-16T08:27:47Z</time>
      </trkpt>
      <trkpt lat="42.46458" lon="2.1767">
        <ele>1773</ele>
        <time>2024-09-16T08:27:49Z</time>
      </trkpt>
      <trkpt lat="42.46455" lon="2.17669">
        <ele>1774</ele>
        <time>2024-09-16T08:27:52Z</time>
      </trkpt>
      <trkpt lat="42.46453" lon="2.17666">
        <ele>1774</ele>
        <time>2024-09-16T08:27:55Z</time>
      </trkpt>
      <trkpt lat="42.4645" lon="2.17666">
        <ele>1775</ele>
        <time>2024-09-16T08:27:58Z</time>
      </trkpt>
      <trkpt lat="42.46447" lon="2.17666">
        <ele>1774</ele>
        <time>2024-09-16T08:28:00Z</time>
      </trkpt>
      <trkpt lat="42.46444" lon="2.17665">
        <ele>1775</ele>
        <time>2024-09-16T08:28:03Z</time>
      </trkpt>
      <trkpt lat="42.46441" lon="2.17664">
        <ele>1775</ele>
        <time>2024-09-16T08:28:06Z</time>
      </trkpt>
      <trkpt lat="42.46438" lon="2.17664">
        <ele>1774</ele>
        <time>2024-09-16T08:28:09Z</time>
      </trkpt>
      <trkpt lat="42.46435" lon="2.17662">
        <ele>1775</ele>
        <time>2024-09-16T08:28:13Z</time>
      </trkpt>
      <trkpt lat="42.46433" lon="2.1766">
        <ele>1774</ele>
        <time>2024-09-16T08:28:16Z</time>
      </trkpt>
      <trkpt lat="42.4643" lon="2.17659">
        <ele>1775</ele>
        <time>2024-09-16T08:28:21Z</time>
      </trkpt>
      <trkpt lat="42.46428" lon="2.17657">
        <ele>1775</ele>
        <time>2024-09-16T08:28:24Z</time>
      </trkpt>
      <trkpt lat="42.46425" lon="2.17656">
        <ele>1775</ele>
        <time>2024-09-16T08:28:27Z</time>
      </trkpt>
      <trkpt lat="42.46422" lon="2.17654">
        <ele>1775</ele>
        <time>2024-09-16T08:28:31Z</time>
      </trkpt>
      <trkpt lat="42.4642" lon="2.17652">
        <ele>1777</ele>
        <time>2024-09-16T08:28:34Z</time>
      </trkpt>
      <trkpt lat="42.46418" lon="2.17649">
        <ele>1777</ele>
        <time>2024-09-16T08:28:37Z</time>
      </trkpt>
      <trkpt lat="42.46415" lon="2.17648">
        <ele>1777</ele>
        <time>2024-09-16T08:28:40Z</time>
      </trkpt>
      <trkpt lat="42.46413" lon="2.17646">
        <ele>1778</ele>
        <time>2024-09-16T08:28:43Z</time>
      </trkpt>
      <trkpt lat="42.4641" lon="2.17643">
        <ele>1778</ele>
        <time>2024-09-16T08:28:47Z</time>
      </trkpt>
      <trkpt lat="42.46406" lon="2.17642">
        <ele>1777</ele>
        <time>2024-09-16T08:28:50Z</time>
      </trkpt>
      <trkpt lat="42.46403" lon="2.17641">
        <ele>1778</ele>
        <time>2024-09-16T08:28:52Z</time>
      </trkpt>
      <trkpt lat="42.464" lon="2.17639">
        <ele>1778</ele>
        <time>2024-09-16T08:28:55Z</time>
      </trkpt>
      <trkpt lat="42.46397" lon="2.17637">
        <ele>1778</ele>
        <time>2024-09-16T08:28:58Z</time>
      </trkpt>
      <trkpt lat="42.46394" lon="2.17635">
        <ele>1779</ele>
        <time>2024-09-16T08:29:00Z</time>
      </trkpt>
      <trkpt lat="42.46391" lon="2.17632">
        <ele>1779</ele>
        <time>2024-09-16T08:29:03Z</time>
      </trkpt>
      <trkpt lat="42.46388" lon="2.1763">
        <ele>1778</ele>
        <time>2024-09-16T08:29:06Z</time>
      </trkpt>
      <trkpt lat="42.46386" lon="2.17627">
        <ele>1779</ele>
        <time>2024-09-16T08:29:10Z</time>
      </trkpt>
      <trkpt lat="42.46385" lon="2.17623">
        <ele>1780</ele>
        <time>2024-09-16T08:29:13Z</time>
      </trkpt>
      <trkpt lat="42.46383" lon="2.17621">
        <ele>1779</ele>
        <time>2024-09-16T08:29:16Z</time>
      </trkpt>
      <trkpt lat="42.4638" lon="2.17619">
        <ele>1780</ele>
        <time>2024-09-16T08:29:20Z</time>
      </trkpt>
      <trkpt lat="42.46377" lon="2.17617">
        <ele>1780</ele>
        <time>2024-09-16T08:29:23Z</time>
      </trkpt>
      <trkpt lat="42.46375" lon="2.17614">
        <ele>1780</ele>
        <time>2024-09-16T08:29:27Z</time>
      </trkpt>
      <trkpt lat="42.46373" lon="2.1761">
        <ele>1779</ele>
        <time>2024-09-16T08:29:31Z</time>
      </trkpt>
      <trkpt lat="42.46372" lon="2.17606">
        <ele>1779</ele>
        <time>2024-09-16T08:29:34Z</time>
      </trkpt>
      <trkpt lat="42.4637" lon="2.17602">
        <ele>1779</ele>
        <time>2024-09-16T08:29:45Z</time>
      </trkpt>
      <trkpt lat="42.46369" lon="2.17598">
        <ele>1780</ele>
        <time>2024-09-16T08:29:47Z</time>
      </trkpt>
      <trkpt lat="42.46367" lon="2.17595">
        <ele>1780</ele>
        <time>2024-09-16T08:29:49Z</time>
      </trkpt>
      <trkpt lat="42.46364" lon="2.17594">
        <ele>1782</ele>
        <time>2024-09-16T08:29:52Z</time>
      </trkpt>
      <trkpt lat="42.46362" lon="2.17592">
        <ele>1781</ele>
        <time>2024-09-16T08:29:55Z</time>
      </trkpt>
      <trkpt lat="42.46359" lon="2.17591">
        <ele>1782</ele>
        <time>2024-09-16T08:30:01Z</time>
      </trkpt>
      <trkpt lat="42.46357" lon="2.17589">
        <ele>1783</ele>
        <time>2024-09-16T08:30:11Z</time>
      </trkpt>
      <trkpt lat="42.46358" lon="2.1759">
        <ele>1780</ele>
        <time>2024-09-16T08:31:11Z</time>
      </trkpt>
      <trkpt lat="42.4636" lon="2.17591">
        <ele>1781</ele>
        <time>2024-09-16T08:31:31Z</time>
      </trkpt>
      <trkpt lat="42.46362" lon="2.17593">
        <ele>1781</ele>
        <time>2024-09-16T08:31:38Z</time>
      </trkpt>
      <trkpt lat="42.46362" lon="2.17596">
        <ele>1781</ele>
        <time>2024-09-16T08:31:41Z</time>
      </trkpt>
      <trkpt lat="42.46362" lon="2.17599">
        <ele>1781</ele>
        <time>2024-09-16T08:31:45Z</time>
      </trkpt>
      <trkpt lat="42.46362" lon="2.17603">
        <ele>1782</ele>
        <time>2024-09-16T08:31:48Z</time>
      </trkpt>
      <trkpt lat="42.46363" lon="2.17603">
        <ele>1780</ele>
        <time>2024-09-16T08:32:01Z</time>
      </trkpt>
      <trkpt lat="42.46362" lon="2.17601">
        <ele>1780</ele>
        <time>2024-09-16T08:32:16Z</time>
      </trkpt>
      <trkpt lat="42.46361" lon="2.17597">
        <ele>1780</ele>
        <time>2024-09-16T08:32:19Z</time>
      </trkpt>
      <trkpt lat="42.46359" lon="2.17595">
        <ele>1780</ele>
        <time>2024-09-16T08:32:22Z</time>
      </trkpt>
      <trkpt lat="42.46357" lon="2.17593">
        <ele>1780</ele>
        <time>2024-09-16T08:32:24Z</time>
      </trkpt>
      <trkpt lat="42.46355" lon="2.1759">
        <ele>1779</ele>
        <time>2024-09-16T08:32:52Z</time>
      </trkpt>
      <trkpt lat="42.46356" lon="2.1759">
        <ele>1781</ele>
        <time>2024-09-16T08:33:17Z</time>
      </trkpt>
      <trkpt lat="42.46356" lon="2.17592">
        <ele>1782</ele>
        <time>2024-09-16T08:33:45Z</time>
      </trkpt>
      <trkpt lat="42.46357" lon="2.17591">
        <ele>1782</ele>
        <time>2024-09-16T08:33:49Z</time>
      </trkpt>
      <trkpt lat="42.46356" lon="2.17589">
        <ele>1782</ele>
        <time>2024-09-16T08:33:51Z</time>
      </trkpt>
      <trkpt lat="42.46355" lon="2.17587">
        <ele>1781</ele>
        <time>2024-09-16T08:33:54Z</time>
      </trkpt>
      <trkpt lat="42.46354" lon="2.17587">
        <ele>1783</ele>
        <time>2024-09-16T08:34:28Z</time>
      </trkpt>
      <trkpt lat="42.46355" lon="2.17589">
        <ele>1782</ele>
        <time>2024-09-16T08:34:32Z</time>
      </trkpt>
      <trkpt lat="42.46357" lon="2.17591">
        <ele>1781</ele>
        <time>2024-09-16T08:34:36Z</time>
      </trkpt>
      <trkpt lat="42.46359" lon="2.17592">
        <ele>1781</ele>
        <time>2024-09-16T08:34:38Z</time>
      </trkpt>
      <trkpt lat="42.46361" lon="2.17595">
        <ele>1781</ele>
        <time>2024-09-16T08:34:42Z</time>
      </trkpt>
      <trkpt lat="42.4636" lon="2.17598">
        <ele>1781</ele>
        <time>2024-09-16T08:34:47Z</time>
      </trkpt>
      <trkpt lat="42.46361" lon="2.17597">
        <ele>1778</ele>
        <time>2024-09-16T08:34:53Z</time>
      </trkpt>
      <trkpt lat="42.4636" lon="2.17594">
        <ele>1780</ele>
        <time>2024-09-16T08:34:56Z</time>
      </trkpt>
      <trkpt lat="42.46358" lon="2.17592">
        <ele>1780</ele>
        <time>2024-09-16T08:35:00Z</time>
      </trkpt>
      <trkpt lat="42.46357" lon="2.17594">
        <ele>1780</ele>
        <time>2024-09-16T08:35:20Z</time>
      </trkpt>
      <trkpt lat="42.46356" lon="2.17591">
        <ele>1785</ele>
        <time>2024-09-16T08:41:02Z</time>
      </trkpt>
      <trkpt lat="42.46357" lon="2.17589">
        <ele>1785</ele>
        <time>2024-09-16T08:43:15Z</time>
      </trkpt>
      <trkpt lat="42.46356" lon="2.17588">
        <ele>1785</ele>
        <time>2024-09-16T08:43:18Z</time>
      </trkpt>
      <trkpt lat="42.46354" lon="2.17587">
        <ele>1785</ele>
        <time>2024-09-16T08:43:41Z</time>
      </trkpt>
      <trkpt lat="42.46351" lon="2.17586">
        <ele>1785</ele>
        <time>2024-09-16T08:43:45Z</time>
      </trkpt>
      <trkpt lat="42.46348" lon="2.17585">
        <ele>1785</ele>
        <time>2024-09-16T08:43:48Z</time>
      </trkpt>
      <trkpt lat="42.46346" lon="2.17583">
        <ele>1785</ele>
        <time>2024-09-16T08:43:50Z</time>
      </trkpt>
      <trkpt lat="42.46343" lon="2.17581">
        <ele>1785</ele>
        <time>2024-09-16T08:43:53Z</time>
      </trkpt>
      <trkpt lat="42.4634" lon="2.1758">
        <ele>1785</ele>
        <time>2024-09-16T08:43:55Z</time>
      </trkpt>
      <trkpt lat="42.46337" lon="2.17578">
        <ele>1785</ele>
        <time>2024-09-16T08:43:58Z</time>
      </trkpt>
      <trkpt lat="42.46335" lon="2.17574">
        <ele>1785</ele>
        <time>2024-09-16T08:44:02Z</time>
      </trkpt>
      <trkpt lat="42.46333" lon="2.1757">
        <ele>1783</ele>
        <time>2024-09-16T08:44:05Z</time>
      </trkpt>
      <trkpt lat="42.46331" lon="2.17567">
        <ele>1785</ele>
        <time>2024-09-16T08:44:08Z</time>
      </trkpt>
      <trkpt lat="42.46329" lon="2.17564">
        <ele>1784</ele>
        <time>2024-09-16T08:44:11Z</time>
      </trkpt>
      <trkpt lat="42.46328" lon="2.1756">
        <ele>1785</ele>
        <time>2024-09-16T08:44:13Z</time>
      </trkpt>
      <trkpt lat="42.46325" lon="2.17559">
        <ele>1784</ele>
        <time>2024-09-16T08:44:15Z</time>
      </trkpt>
      <trkpt lat="42.46322" lon="2.17557">
        <ele>1785</ele>
        <time>2024-09-16T08:44:18Z</time>
      </trkpt>
      <trkpt lat="42.46319" lon="2.17555">
        <ele>1787</ele>
        <time>2024-09-16T08:44:23Z</time>
      </trkpt>
      <trkpt lat="42.46316" lon="2.17554">
        <ele>1788</ele>
        <time>2024-09-16T08:44:26Z</time>
      </trkpt>
      <trkpt lat="42.46313" lon="2.17552">
        <ele>1788</ele>
        <time>2024-09-16T08:44:30Z</time>
      </trkpt>
      <trkpt lat="42.4631" lon="2.17552">
        <ele>1789</ele>
        <time>2024-09-16T08:44:33Z</time>
      </trkpt>
      <trkpt lat="42.46306" lon="2.17552">
        <ele>1789</ele>
        <time>2024-09-16T08:44:36Z</time>
      </trkpt>
      <trkpt lat="42.46302" lon="2.17552">
        <ele>1789</ele>
        <time>2024-09-16T08:44:38Z</time>
      </trkpt>
      <trkpt lat="42.46299" lon="2.17552">
        <ele>1789</ele>
        <time>2024-09-16T08:44:44Z</time>
      </trkpt>
      <trkpt lat="42.46296" lon="2.17551">
        <ele>1790</ele>
        <time>2024-09-16T08:44:48Z</time>
      </trkpt>
      <trkpt lat="42.46293" lon="2.17551">
        <ele>1791</ele>
        <time>2024-09-16T08:44:52Z</time>
      </trkpt>
      <trkpt lat="42.46289" lon="2.17551">
        <ele>1790</ele>
        <time>2024-09-16T08:44:55Z</time>
      </trkpt>
      <trkpt lat="42.46285" lon="2.1755">
        <ele>1791</ele>
        <time>2024-09-16T08:45:00Z</time>
      </trkpt>
      <trkpt lat="42.46282" lon="2.17549">
        <ele>1792</ele>
        <time>2024-09-16T08:45:02Z</time>
      </trkpt>
      <trkpt lat="42.46279" lon="2.17547">
        <ele>1792</ele>
        <time>2024-09-16T08:45:08Z</time>
      </trkpt>
      <trkpt lat="42.46276" lon="2.17546">
        <ele>1791</ele>
        <time>2024-09-16T08:45:11Z</time>
      </trkpt>
      <trkpt lat="42.46273" lon="2.17545">
        <ele>1792</ele>
        <time>2024-09-16T08:45:14Z</time>
      </trkpt>
      <trkpt lat="42.4627" lon="2.17546">
        <ele>1792</ele>
        <time>2024-09-16T08:45:16Z</time>
      </trkpt>
      <trkpt lat="42.46267" lon="2.17546">
        <ele>1792</ele>
        <time>2024-09-16T08:45:20Z</time>
      </trkpt>
      <trkpt lat="42.46264" lon="2.17544">
        <ele>1791</ele>
        <time>2024-09-16T08:45:23Z</time>
      </trkpt>
      <trkpt lat="42.46262" lon="2.17543">
        <ele>1792</ele>
        <time>2024-09-16T08:45:26Z</time>
      </trkpt>
      <trkpt lat="42.46261" lon="2.17539">
        <ele>1791</ele>
        <time>2024-09-16T08:45:29Z</time>
      </trkpt>
      <trkpt lat="42.46258" lon="2.17536">
        <ele>1791</ele>
        <time>2024-09-16T08:45:31Z</time>
      </trkpt>
      <trkpt lat="42.46255" lon="2.17535">
        <ele>1791</ele>
        <time>2024-09-16T08:45:34Z</time>
      </trkpt>
      <trkpt lat="42.46252" lon="2.17534">
        <ele>1792</ele>
        <time>2024-09-16T08:45:36Z</time>
      </trkpt>
      <trkpt lat="42.46249" lon="2.17533">
        <ele>1793</ele>
        <time>2024-09-16T08:45:38Z</time>
      </trkpt>
      <trkpt lat="42.46247" lon="2.17535">
        <ele>1792</ele>
        <time>2024-09-16T08:45:41Z</time>
      </trkpt>
      <trkpt lat="42.46244" lon="2.17537">
        <ele>1791</ele>
        <time>2024-09-16T08:45:45Z</time>
      </trkpt>
      <trkpt lat="42.46241" lon="2.17536">
        <ele>1793</ele>
        <time>2024-09-16T08:45:50Z</time>
      </trkpt>
      <trkpt lat="42.46238" lon="2.17536">
        <ele>1793</ele>
        <time>2024-09-16T08:45:53Z</time>
      </trkpt>
      <trkpt lat="42.46235" lon="2.17536">
        <ele>1795</ele>
        <time>2024-09-16T08:45:56Z</time>
      </trkpt>
      <trkpt lat="42.46232" lon="2.17536">
        <ele>1795</ele>
        <time>2024-09-16T08:46:01Z</time>
      </trkpt>
      <trkpt lat="42.46229" lon="2.17535">
        <ele>1795</ele>
        <time>2024-09-16T08:46:04Z</time>
      </trkpt>
      <trkpt lat="42.46226" lon="2.17536">
        <ele>1795</ele>
        <time>2024-09-16T08:46:09Z</time>
      </trkpt>
      <trkpt lat="42.46223" lon="2.17536">
        <ele>1794</ele>
        <time>2024-09-16T08:46:10Z</time>
      </trkpt>
      <trkpt lat="42.4622" lon="2.17539">
        <ele>1794</ele>
        <time>2024-09-16T08:46:13Z</time>
      </trkpt>
      <trkpt lat="42.46218" lon="2.1754">
        <ele>1793</ele>
        <time>2024-09-16T08:46:18Z</time>
      </trkpt>
      <trkpt lat="42.46215" lon="2.17542">
        <ele>1793</ele>
        <time>2024-09-16T08:46:22Z</time>
      </trkpt>
      <trkpt lat="42.46211" lon="2.17541">
        <ele>1794</ele>
        <time>2024-09-16T08:46:26Z</time>
      </trkpt>
      <trkpt lat="42.46208" lon="2.17539">
        <ele>1795</ele>
        <time>2024-09-16T08:46:28Z</time>
      </trkpt>
      <trkpt lat="42.46205" lon="2.17538">
        <ele>1796</ele>
        <time>2024-09-16T08:46:36Z</time>
      </trkpt>
      <trkpt lat="42.46203" lon="2.17537">
        <ele>1796</ele>
        <time>2024-09-16T08:46:40Z</time>
      </trkpt>
      <trkpt lat="42.462" lon="2.17537">
        <ele>1795</ele>
        <time>2024-09-16T08:46:42Z</time>
      </trkpt>
      <trkpt lat="42.46197" lon="2.17537">
        <ele>1796</ele>
        <time>2024-09-16T08:46:43Z</time>
      </trkpt>
      <trkpt lat="42.46194" lon="2.17539">
        <ele>1795</ele>
        <time>2024-09-16T08:46:45Z</time>
      </trkpt>
      <trkpt lat="42.46191" lon="2.1754">
        <ele>1797</ele>
        <time>2024-09-16T08:46:47Z</time>
      </trkpt>
      <trkpt lat="42.46188" lon="2.17541">
        <ele>1796</ele>
        <time>2024-09-16T08:46:50Z</time>
      </trkpt>
      <trkpt lat="42.46186" lon="2.17543">
        <ele>1797</ele>
        <time>2024-09-16T08:46:54Z</time>
      </trkpt>
      <trkpt lat="42.46184" lon="2.17543">
        <ele>1796</ele>
        <time>2024-09-16T08:46:59Z</time>
      </trkpt>
      <trkpt lat="42.4618" lon="2.17542">
        <ele>1798</ele>
        <time>2024-09-16T08:47:01Z</time>
      </trkpt>
      <trkpt lat="42.46177" lon="2.17542">
        <ele>1797</ele>
        <time>2024-09-16T08:47:06Z</time>
      </trkpt>
      <trkpt lat="42.46174" lon="2.17542">
        <ele>1797</ele>
        <time>2024-09-16T08:47:09Z</time>
      </trkpt>
      <trkpt lat="42.4617" lon="2.17542">
        <ele>1797</ele>
        <time>2024-09-16T08:47:11Z</time>
      </trkpt>
      <trkpt lat="42.46168" lon="2.1754">
        <ele>1797</ele>
        <time>2024-09-16T08:47:15Z</time>
      </trkpt>
      <trkpt lat="42.46165" lon="2.17537">
        <ele>1797</ele>
        <time>2024-09-16T08:47:19Z</time>
      </trkpt>
      <trkpt lat="42.46164" lon="2.17533">
        <ele>1796</ele>
        <time>2024-09-16T08:47:23Z</time>
      </trkpt>
      <trkpt lat="42.46161" lon="2.1753">
        <ele>1796</ele>
        <time>2024-09-16T08:47:25Z</time>
      </trkpt>
      <trkpt lat="42.46159" lon="2.17527">
        <ele>1797</ele>
        <time>2024-09-16T08:47:28Z</time>
      </trkpt>
      <trkpt lat="42.46156" lon="2.17523">
        <ele>1795</ele>
        <time>2024-09-16T08:47:30Z</time>
      </trkpt>
      <trkpt lat="42.46154" lon="2.17521">
        <ele>1795</ele>
        <time>2024-09-16T08:47:33Z</time>
      </trkpt>
      <trkpt lat="42.46152" lon="2.17519">
        <ele>1797</ele>
        <time>2024-09-16T08:47:35Z</time>
      </trkpt>
      <trkpt lat="42.46149" lon="2.17518">
        <ele>1801</ele>
        <time>2024-09-16T08:47:42Z</time>
      </trkpt>
      <trkpt lat="42.46146" lon="2.17517">
        <ele>1800</ele>
        <time>2024-09-16T08:47:49Z</time>
      </trkpt>
      <trkpt lat="42.46144" lon="2.17515">
        <ele>1801</ele>
        <time>2024-09-16T08:47:58Z</time>
      </trkpt>
      <trkpt lat="42.46142" lon="2.17513">
        <ele>1801</ele>
        <time>2024-09-16T08:48:04Z</time>
      </trkpt>
      <trkpt lat="42.46141" lon="2.17508">
        <ele>1802</ele>
        <time>2024-09-16T08:48:06Z</time>
      </trkpt>
      <trkpt lat="42.46139" lon="2.17506">
        <ele>1801</ele>
        <time>2024-09-16T08:48:09Z</time>
      </trkpt>
      <trkpt lat="42.46136" lon="2.17505">
        <ele>1802</ele>
        <time>2024-09-16T08:48:12Z</time>
      </trkpt>
      <trkpt lat="42.46133" lon="2.17504">
        <ele>1801</ele>
        <time>2024-09-16T08:48:15Z</time>
      </trkpt>
      <trkpt lat="42.4613" lon="2.17503">
        <ele>1800</ele>
        <time>2024-09-16T08:48:22Z</time>
      </trkpt>
      <trkpt lat="42.46127" lon="2.17502">
        <ele>1802</ele>
        <time>2024-09-16T08:48:25Z</time>
      </trkpt>
      <trkpt lat="42.46124" lon="2.17501">
        <ele>1802</ele>
        <time>2024-09-16T08:48:29Z</time>
      </trkpt>
      <trkpt lat="42.4612" lon="2.175">
        <ele>1802</ele>
        <time>2024-09-16T08:48:32Z</time>
      </trkpt>
      <trkpt lat="42.46117" lon="2.17499">
        <ele>1802</ele>
        <time>2024-09-16T08:48:36Z</time>
      </trkpt>
      <trkpt lat="42.46114" lon="2.17499">
        <ele>1802</ele>
        <time>2024-09-16T08:48:39Z</time>
      </trkpt>
      <trkpt lat="42.46111" lon="2.17499">
        <ele>1801</ele>
        <time>2024-09-16T08:48:43Z</time>
      </trkpt>
      <trkpt lat="42.46108" lon="2.17499">
        <ele>1802</ele>
        <time>2024-09-16T08:48:46Z</time>
      </trkpt>
      <trkpt lat="42.46105" lon="2.175">
        <ele>1802</ele>
        <time>2024-09-16T08:48:51Z</time>
      </trkpt>
      <trkpt lat="42.46102" lon="2.17499">
        <ele>1802</ele>
        <time>2024-09-16T08:48:55Z</time>
      </trkpt>
      <trkpt lat="42.461" lon="2.17501">
        <ele>1802</ele>
        <time>2024-09-16T08:48:59Z</time>
      </trkpt>
      <trkpt lat="42.46097" lon="2.17502">
        <ele>1801</ele>
        <time>2024-09-16T08:49:02Z</time>
      </trkpt>
      <trkpt lat="42.46094" lon="2.17502">
        <ele>1800</ele>
        <time>2024-09-16T08:49:05Z</time>
      </trkpt>
      <trkpt lat="42.46091" lon="2.17503">
        <ele>1801</ele>
        <time>2024-09-16T08:49:08Z</time>
      </trkpt>
      <trkpt lat="42.46088" lon="2.17505">
        <ele>1802</ele>
        <time>2024-09-16T08:49:13Z</time>
      </trkpt>
      <trkpt lat="42.46084" lon="2.17505">
        <ele>1802</ele>
        <time>2024-09-16T08:49:17Z</time>
      </trkpt>
      <trkpt lat="42.46081" lon="2.17506">
        <ele>1802</ele>
        <time>2024-09-16T08:49:21Z</time>
      </trkpt>
      <trkpt lat="42.46078" lon="2.17507">
        <ele>1803</ele>
        <time>2024-09-16T08:49:26Z</time>
      </trkpt>
      <trkpt lat="42.46075" lon="2.17506">
        <ele>1802</ele>
        <time>2024-09-16T08:49:28Z</time>
      </trkpt>
      <trkpt lat="42.46071" lon="2.17506">
        <ele>1802</ele>
        <time>2024-09-16T08:49:30Z</time>
      </trkpt>
      <trkpt lat="42.46068" lon="2.17508">
        <ele>1803</ele>
        <time>2024-09-16T08:49:34Z</time>
      </trkpt>
      <trkpt lat="42.46064" lon="2.17508">
        <ele>1804</ele>
        <time>2024-09-16T08:49:38Z</time>
      </trkpt>
      <trkpt lat="42.46061" lon="2.17509">
        <ele>1805</ele>
        <time>2024-09-16T08:49:45Z</time>
      </trkpt>
      <trkpt lat="42.46058" lon="2.17509">
        <ele>1805</ele>
        <time>2024-09-16T08:49:49Z</time>
      </trkpt>
      <trkpt lat="42.46054" lon="2.17511">
        <ele>1805</ele>
        <time>2024-09-16T08:49:53Z</time>
      </trkpt>
      <trkpt lat="42.4605" lon="2.17511">
        <ele>1805</ele>
        <time>2024-09-16T08:49:56Z</time>
      </trkpt>
      <trkpt lat="42.46047" lon="2.1751">
        <ele>1806</ele>
        <time>2024-09-16T08:49:59Z</time>
      </trkpt>
      <trkpt lat="42.46044" lon="2.17508">
        <ele>1807</ele>
        <time>2024-09-16T08:50:03Z</time>
      </trkpt>
      <trkpt lat="42.46041" lon="2.17507">
        <ele>1807</ele>
        <time>2024-09-16T08:50:06Z</time>
      </trkpt>
      <trkpt lat="42.46039" lon="2.17505">
        <ele>1808</ele>
        <time>2024-09-16T08:50:09Z</time>
      </trkpt>
      <trkpt lat="42.46035" lon="2.17504">
        <ele>1808</ele>
        <time>2024-09-16T08:50:12Z</time>
      </trkpt>
      <trkpt lat="42.46032" lon="2.17504">
        <ele>1809</ele>
        <time>2024-09-16T08:50:16Z</time>
      </trkpt>
      <trkpt lat="42.46029" lon="2.17503">
        <ele>1809</ele>
        <time>2024-09-16T08:50:20Z</time>
      </trkpt>
      <trkpt lat="42.46027" lon="2.17501">
        <ele>1809</ele>
        <time>2024-09-16T08:50:23Z</time>
      </trkpt>
      <trkpt lat="42.46024" lon="2.17501">
        <ele>1808</ele>
        <time>2024-09-16T08:50:26Z</time>
      </trkpt>
      <trkpt lat="42.4602" lon="2.17501">
        <ele>1808</ele>
        <time>2024-09-16T08:50:30Z</time>
      </trkpt>
      <trkpt lat="42.46017" lon="2.17501">
        <ele>1808</ele>
        <time>2024-09-16T08:50:33Z</time>
      </trkpt>
      <trkpt lat="42.46014" lon="2.17499">
        <ele>1808</ele>
        <time>2024-09-16T08:50:37Z</time>
      </trkpt>
      <trkpt lat="42.46011" lon="2.17497">
        <ele>1808</ele>
        <time>2024-09-16T08:50:40Z</time>
      </trkpt>
      <trkpt lat="42.46009" lon="2.17495">
        <ele>1809</ele>
        <time>2024-09-16T08:50:44Z</time>
      </trkpt>
      <trkpt lat="42.46006" lon="2.17496">
        <ele>1809</ele>
        <time>2024-09-16T08:50:47Z</time>
      </trkpt>
      <trkpt lat="42.46003" lon="2.17498">
        <ele>1809</ele>
        <time>2024-09-16T08:50:50Z</time>
      </trkpt>
      <trkpt lat="42.45999" lon="2.175">
        <ele>1809</ele>
        <time>2024-09-16T08:50:52Z</time>
      </trkpt>
      <trkpt lat="42.45996" lon="2.17502">
        <ele>1810</ele>
        <time>2024-09-16T08:50:55Z</time>
      </trkpt>
      <trkpt lat="42.45993" lon="2.17501">
        <ele>1810</ele>
        <time>2024-09-16T08:50:58Z</time>
      </trkpt>
      <trkpt lat="42.45991" lon="2.17499">
        <ele>1810</ele>
        <time>2024-09-16T08:51:01Z</time>
      </trkpt>
      <trkpt lat="42.45989" lon="2.17497">
        <ele>1811</ele>
        <time>2024-09-16T08:51:04Z</time>
      </trkpt>
      <trkpt lat="42.45986" lon="2.17495">
        <ele>1811</ele>
        <time>2024-09-16T08:51:07Z</time>
      </trkpt>
      <trkpt lat="42.45983" lon="2.17493">
        <ele>1811</ele>
        <time>2024-09-16T08:51:10Z</time>
      </trkpt>
      <trkpt lat="42.4598" lon="2.17491">
        <ele>1811</ele>
        <time>2024-09-16T08:51:13Z</time>
      </trkpt>
      <trkpt lat="42.45978" lon="2.17489">
        <ele>1811</ele>
        <time>2024-09-16T08:51:16Z</time>
      </trkpt>
      <trkpt lat="42.45977" lon="2.17485">
        <ele>1811</ele>
        <time>2024-09-16T08:51:19Z</time>
      </trkpt>
      <trkpt lat="42.45976" lon="2.17481">
        <ele>1812</ele>
        <time>2024-09-16T08:51:22Z</time>
      </trkpt>
      <trkpt lat="42.45973" lon="2.1748">
        <ele>1812</ele>
        <time>2024-09-16T08:51:24Z</time>
      </trkpt>
      <trkpt lat="42.45971" lon="2.17478">
        <ele>1812</ele>
        <time>2024-09-16T08:51:26Z</time>
      </trkpt>
      <trkpt lat="42.45968" lon="2.17477">
        <ele>1812</ele>
        <time>2024-09-16T08:51:29Z</time>
      </trkpt>
      <trkpt lat="42.45966" lon="2.17475">
        <ele>1813</ele>
        <time>2024-09-16T08:51:33Z</time>
      </trkpt>
      <trkpt lat="42.45963" lon="2.17472">
        <ele>1813</ele>
        <time>2024-09-16T08:51:37Z</time>
      </trkpt>
      <trkpt lat="42.45961" lon="2.1747">
        <ele>1814</ele>
        <time>2024-09-16T08:51:40Z</time>
      </trkpt>
      <trkpt lat="42.45959" lon="2.17467">
        <ele>1814</ele>
        <time>2024-09-16T08:51:43Z</time>
      </trkpt>
      <trkpt lat="42.45956" lon="2.17466">
        <ele>1814</ele>
        <time>2024-09-16T08:51:46Z</time>
      </trkpt>
      <trkpt lat="42.45953" lon="2.17468">
        <ele>1814</ele>
        <time>2024-09-16T08:51:50Z</time>
      </trkpt>
      <trkpt lat="42.4595" lon="2.17469">
        <ele>1815</ele>
        <time>2024-09-16T08:51:54Z</time>
      </trkpt>
      <trkpt lat="42.45946" lon="2.1747">
        <ele>1815</ele>
        <time>2024-09-16T08:51:58Z</time>
      </trkpt>
      <trkpt lat="42.45943" lon="2.17472">
        <ele>1816</ele>
        <time>2024-09-16T08:52:02Z</time>
      </trkpt>
      <trkpt lat="42.45939" lon="2.17471">
        <ele>1815</ele>
        <time>2024-09-16T08:52:09Z</time>
      </trkpt>
      <trkpt lat="42.45936" lon="2.1747">
        <ele>1817</ele>
        <time>2024-09-16T08:52:12Z</time>
      </trkpt>
      <trkpt lat="42.45934" lon="2.17471">
        <ele>1817</ele>
        <time>2024-09-16T08:52:15Z</time>
      </trkpt>
      <trkpt lat="42.4593" lon="2.17472">
        <ele>1817</ele>
        <time>2024-09-16T08:52:19Z</time>
      </trkpt>
      <trkpt lat="42.45927" lon="2.17472">
        <ele>1817</ele>
        <time>2024-09-16T08:52:22Z</time>
      </trkpt>
      <trkpt lat="42.45923" lon="2.17471">
        <ele>1818</ele>
        <time>2024-09-16T08:52:26Z</time>
      </trkpt>
      <trkpt lat="42.4592" lon="2.1747">
        <ele>1818</ele>
        <time>2024-09-16T08:52:31Z</time>
      </trkpt>
      <trkpt lat="42.45916" lon="2.17468">
        <ele>1818</ele>
        <time>2024-09-16T08:52:35Z</time>
      </trkpt>
      <trkpt lat="42.45912" lon="2.17467">
        <ele>1819</ele>
        <time>2024-09-16T08:52:38Z</time>
      </trkpt>
      <trkpt lat="42.45909" lon="2.17466">
        <ele>1820</ele>
        <time>2024-09-16T08:52:41Z</time>
      </trkpt>
      <trkpt lat="42.45905" lon="2.17465">
        <ele>1820</ele>
        <time>2024-09-16T08:52:43Z</time>
      </trkpt>
      <trkpt lat="42.45902" lon="2.17465">
        <ele>1820</ele>
        <time>2024-09-16T08:52:47Z</time>
      </trkpt>
      <trkpt lat="42.45899" lon="2.17465">
        <ele>1821</ele>
        <time>2024-09-16T08:52:50Z</time>
      </trkpt>
      <trkpt lat="42.45896" lon="2.17464">
        <ele>1821</ele>
        <time>2024-09-16T08:52:53Z</time>
      </trkpt>
      <trkpt lat="42.45892" lon="2.17464">
        <ele>1821</ele>
        <time>2024-09-16T08:52:57Z</time>
      </trkpt>
      <trkpt lat="42.45888" lon="2.17463">
        <ele>1822</ele>
        <time>2024-09-16T08:53:01Z</time>
      </trkpt>
      <trkpt lat="42.45884" lon="2.17464">
        <ele>1823</ele>
        <time>2024-09-16T08:53:04Z</time>
      </trkpt>
      <trkpt lat="42.45881" lon="2.17465">
        <ele>1823</ele>
        <time>2024-09-16T08:53:07Z</time>
      </trkpt>
      <trkpt lat="42.45878" lon="2.17465">
        <ele>1823</ele>
        <time>2024-09-16T08:53:10Z</time>
      </trkpt>
      <trkpt lat="42.45875" lon="2.17465">
        <ele>1824</ele>
        <time>2024-09-16T08:53:13Z</time>
      </trkpt>
      <trkpt lat="42.45871" lon="2.17464">
        <ele>1823</ele>
        <time>2024-09-16T08:53:16Z</time>
      </trkpt>
      <trkpt lat="42.45868" lon="2.17463">
        <ele>1824</ele>
        <time>2024-09-16T08:53:19Z</time>
      </trkpt>
      <trkpt lat="42.45866" lon="2.17462">
        <ele>1824</ele>
        <time>2024-09-16T08:53:22Z</time>
      </trkpt>
      <trkpt lat="42.45863" lon="2.1746">
        <ele>1825</ele>
        <time>2024-09-16T08:53:25Z</time>
      </trkpt>
      <trkpt lat="42.4586" lon="2.17458">
        <ele>1825</ele>
        <time>2024-09-16T08:53:29Z</time>
      </trkpt>
      <trkpt lat="42.45857" lon="2.17457">
        <ele>1826</ele>
        <time>2024-09-16T08:53:32Z</time>
      </trkpt>
      <trkpt lat="42.45854" lon="2.17454">
        <ele>1827</ele>
        <time>2024-09-16T08:53:36Z</time>
      </trkpt>
      <trkpt lat="42.45851" lon="2.17453">
        <ele>1827</ele>
        <time>2024-09-16T08:53:39Z</time>
      </trkpt>
      <trkpt lat="42.45848" lon="2.17453">
        <ele>1827</ele>
        <time>2024-09-16T08:53:43Z</time>
      </trkpt>
      <trkpt lat="42.45845" lon="2.17454">
        <ele>1828</ele>
        <time>2024-09-16T08:53:52Z</time>
      </trkpt>
      <trkpt lat="42.45842" lon="2.17455">
        <ele>1827</ele>
        <time>2024-09-16T08:53:54Z</time>
      </trkpt>
      <trkpt lat="42.4584" lon="2.17458">
        <ele>1826</ele>
        <time>2024-09-16T08:53:59Z</time>
      </trkpt>
      <trkpt lat="42.45838" lon="2.17461">
        <ele>1826</ele>
        <time>2024-09-16T08:54:01Z</time>
      </trkpt>
      <trkpt lat="42.45836" lon="2.17463">
        <ele>1827</ele>
        <time>2024-09-16T08:54:03Z</time>
      </trkpt>
      <trkpt lat="42.45833" lon="2.17465">
        <ele>1828</ele>
        <time>2024-09-16T08:54:07Z</time>
      </trkpt>
      <trkpt lat="42.45832" lon="2.17469">
        <ele>1827</ele>
        <time>2024-09-16T08:54:10Z</time>
      </trkpt>
      <trkpt lat="42.45833" lon="2.17472">
        <ele>1827</ele>
        <time>2024-09-16T08:54:12Z</time>
      </trkpt>
      <trkpt lat="42.45834" lon="2.17475">
        <ele>1827</ele>
        <time>2024-09-16T08:54:15Z</time>
      </trkpt>
      <trkpt lat="42.45836" lon="2.17479">
        <ele>1827</ele>
        <time>2024-09-16T08:54:19Z</time>
      </trkpt>
      <trkpt lat="42.45838" lon="2.17483">
        <ele>1826</ele>
        <time>2024-09-16T08:54:22Z</time>
      </trkpt>
      <trkpt lat="42.4584" lon="2.17487">
        <ele>1827</ele>
        <time>2024-09-16T08:54:25Z</time>
      </trkpt>
      <trkpt lat="42.45841" lon="2.17491">
        <ele>1826</ele>
        <time>2024-09-16T08:54:28Z</time>
      </trkpt>
      <trkpt lat="42.45841" lon="2.17496">
        <ele>1826</ele>
        <time>2024-09-16T08:54:32Z</time>
      </trkpt>
      <trkpt lat="42.45843" lon="2.17498">
        <ele>1827</ele>
        <time>2024-09-16T08:54:35Z</time>
      </trkpt>
      <trkpt lat="42.45846" lon="2.175">
        <ele>1827</ele>
        <time>2024-09-16T08:54:38Z</time>
      </trkpt>
      <trkpt lat="42.45848" lon="2.17503">
        <ele>1826</ele>
        <time>2024-09-16T08:54:44Z</time>
      </trkpt>
      <trkpt lat="42.45851" lon="2.17506">
        <ele>1826</ele>
        <time>2024-09-16T08:54:47Z</time>
      </trkpt>
      <trkpt lat="42.45853" lon="2.17509">
        <ele>1825</ele>
        <time>2024-09-16T08:54:49Z</time>
      </trkpt>
      <trkpt lat="42.45856" lon="2.1751">
        <ele>1825</ele>
        <time>2024-09-16T08:54:51Z</time>
      </trkpt>
      <trkpt lat="42.45859" lon="2.1751">
        <ele>1824</ele>
        <time>2024-09-16T08:54:53Z</time>
      </trkpt>
      <trkpt lat="42.45862" lon="2.17512">
        <ele>1826</ele>
        <time>2024-09-16T08:54:57Z</time>
      </trkpt>
      <trkpt lat="42.45865" lon="2.17515">
        <ele>1827</ele>
        <time>2024-09-16T08:55:00Z</time>
      </trkpt>
      <trkpt lat="42.45868" lon="2.17517">
        <ele>1826</ele>
        <time>2024-09-16T08:55:04Z</time>
      </trkpt>
      <trkpt lat="42.45871" lon="2.17519">
        <ele>1825</ele>
        <time>2024-09-16T08:55:06Z</time>
      </trkpt>
      <trkpt lat="42.45874" lon="2.1752">
        <ele>1825</ele>
        <time>2024-09-16T08:55:08Z</time>
      </trkpt>
      <trkpt lat="42.45878" lon="2.17521">
        <ele>1824</ele>
        <time>2024-09-16T08:55:11Z</time>
      </trkpt>
      <trkpt lat="42.45881" lon="2.17523">
        <ele>1824</ele>
        <time>2024-09-16T08:55:14Z</time>
      </trkpt>
      <trkpt lat="42.45885" lon="2.17525">
        <ele>1824</ele>
        <time>2024-09-16T08:55:17Z</time>
      </trkpt>
      <trkpt lat="42.45888" lon="2.17526">
        <ele>1823</ele>
        <time>2024-09-16T08:55:20Z</time>
      </trkpt>
      <trkpt lat="42.4589" lon="2.17529">
        <ele>1823</ele>
        <time>2024-09-16T08:55:22Z</time>
      </trkpt>
      <trkpt lat="42.45893" lon="2.17532">
        <ele>1822</ele>
        <time>2024-09-16T08:55:25Z</time>
      </trkpt>
      <trkpt lat="42.45896" lon="2.17534">
        <ele>1821</ele>
        <time>2024-09-16T08:55:28Z</time>
      </trkpt>
      <trkpt lat="42.45898" lon="2.17537">
        <ele>1822</ele>
        <time>2024-09-16T08:55:31Z</time>
      </trkpt>
      <trkpt lat="42.459" lon="2.17541">
        <ele>1821</ele>
        <time>2024-09-16T08:55:34Z</time>
      </trkpt>
      <trkpt lat="42.45901" lon="2.17545">
        <ele>1821</ele>
        <time>2024-09-16T08:55:36Z</time>
      </trkpt>
      <trkpt lat="42.45903" lon="2.17549">
        <ele>1821</ele>
        <time>2024-09-16T08:55:39Z</time>
      </trkpt>
      <trkpt lat="42.45905" lon="2.17553">
        <ele>1821</ele>
        <time>2024-09-16T08:55:42Z</time>
      </trkpt>
      <trkpt lat="42.45906" lon="2.17557">
        <ele>1821</ele>
        <time>2024-09-16T08:55:44Z</time>
      </trkpt>
      <trkpt lat="42.45909" lon="2.1756">
        <ele>1820</ele>
        <time>2024-09-16T08:55:47Z</time>
      </trkpt>
      <trkpt lat="42.45912" lon="2.17561">
        <ele>1820</ele>
        <time>2024-09-16T08:55:50Z</time>
      </trkpt>
      <trkpt lat="42.45915" lon="2.17562">
        <ele>1820</ele>
        <time>2024-09-16T08:55:53Z</time>
      </trkpt>
      <trkpt lat="42.45918" lon="2.17562">
        <ele>1819</ele>
        <time>2024-09-16T08:55:55Z</time>
      </trkpt>
      <trkpt lat="42.45921" lon="2.17563">
        <ele>1819</ele>
        <time>2024-09-16T08:55:58Z</time>
      </trkpt>
      <trkpt lat="42.45924" lon="2.17562">
        <ele>1818</ele>
        <time>2024-09-16T08:56:01Z</time>
      </trkpt>
      <trkpt lat="42.45927" lon="2.17561">
        <ele>1818</ele>
        <time>2024-09-16T08:56:04Z</time>
      </trkpt>
      <trkpt lat="42.4593" lon="2.17562">
        <ele>1821</ele>
        <time>2024-09-16T08:56:18Z</time>
      </trkpt>
      <trkpt lat="42.45933" lon="2.17563">
        <ele>1819</ele>
        <time>2024-09-16T08:56:22Z</time>
      </trkpt>
      <trkpt lat="42.45936" lon="2.17567">
        <ele>1819</ele>
        <time>2024-09-16T08:56:26Z</time>
      </trkpt>
      <trkpt lat="42.45938" lon="2.17571">
        <ele>1817</ele>
        <time>2024-09-16T08:56:29Z</time>
      </trkpt>
      <trkpt lat="42.45942" lon="2.17574">
        <ele>1817</ele>
        <time>2024-09-16T08:56:32Z</time>
      </trkpt>
      <trkpt lat="42.45945" lon="2.17576">
        <ele>1817</ele>
        <time>2024-09-16T08:56:35Z</time>
      </trkpt>
      <trkpt lat="42.45949" lon="2.17577">
        <ele>1817</ele>
        <time>2024-09-16T08:56:38Z</time>
      </trkpt>
      <trkpt lat="42.45951" lon="2.17579">
        <ele>1815</ele>
        <time>2024-09-16T08:56:41Z</time>
      </trkpt>
      <trkpt lat="42.45954" lon="2.17579">
        <ele>1815</ele>
        <time>2024-09-16T08:56:43Z</time>
      </trkpt>
      <trkpt lat="42.45956" lon="2.1758">
        <ele>1815</ele>
        <time>2024-09-16T08:56:46Z</time>
      </trkpt>
      <trkpt lat="42.45957" lon="2.17585">
        <ele>1815</ele>
        <time>2024-09-16T08:56:48Z</time>
      </trkpt>
      <trkpt lat="42.45958" lon="2.17589">
        <ele>1815</ele>
        <time>2024-09-16T08:56:51Z</time>
      </trkpt>
      <trkpt lat="42.45961" lon="2.17591">
        <ele>1814</ele>
        <time>2024-09-16T08:56:53Z</time>
      </trkpt>
      <trkpt lat="42.45964" lon="2.17593">
        <ele>1814</ele>
        <time>2024-09-16T08:56:56Z</time>
      </trkpt>
      <trkpt lat="42.45967" lon="2.17594">
        <ele>1813</ele>
        <time>2024-09-16T08:56:58Z</time>
      </trkpt>
      <trkpt lat="42.4597" lon="2.17595">
        <ele>1815</ele>
        <time>2024-09-16T08:57:00Z</time>
      </trkpt>
      <trkpt lat="42.45973" lon="2.17595">
        <ele>1815</ele>
        <time>2024-09-16T08:57:04Z</time>
      </trkpt>
      <trkpt lat="42.45976" lon="2.17596">
        <ele>1816</ele>
        <time>2024-09-16T08:57:06Z</time>
      </trkpt>
      <trkpt lat="42.45979" lon="2.17596">
        <ele>1817</ele>
        <time>2024-09-16T08:57:09Z</time>
      </trkpt>
      <trkpt lat="42.45983" lon="2.17596">
        <ele>1816</ele>
        <time>2024-09-16T08:57:11Z</time>
      </trkpt>
      <trkpt lat="42.45986" lon="2.17596">
        <ele>1816</ele>
        <time>2024-09-16T08:57:14Z</time>
      </trkpt>
      <trkpt lat="42.4599" lon="2.17596">
        <ele>1817</ele>
        <time>2024-09-16T08:57:17Z</time>
      </trkpt>
      <trkpt lat="42.45993" lon="2.17596">
        <ele>1816</ele>
        <time>2024-09-16T08:57:20Z</time>
      </trkpt>
      <trkpt lat="42.45997" lon="2.17596">
        <ele>1817</ele>
        <time>2024-09-16T08:57:23Z</time>
      </trkpt>
      <trkpt lat="42.46" lon="2.17596">
        <ele>1816</ele>
        <time>2024-09-16T08:57:26Z</time>
      </trkpt>
      <trkpt lat="42.46004" lon="2.17596">
        <ele>1816</ele>
        <time>2024-09-16T08:57:29Z</time>
      </trkpt>
      <trkpt lat="42.46007" lon="2.17597">
        <ele>1817</ele>
        <time>2024-09-16T08:57:32Z</time>
      </trkpt>
      <trkpt lat="42.4601" lon="2.17598">
        <ele>1816</ele>
        <time>2024-09-16T08:57:35Z</time>
      </trkpt>
      <trkpt lat="42.46013" lon="2.17599">
        <ele>1816</ele>
        <time>2024-09-16T08:57:38Z</time>
      </trkpt>
      <trkpt lat="42.46017" lon="2.17601">
        <ele>1817</ele>
        <time>2024-09-16T08:57:41Z</time>
      </trkpt>
      <trkpt lat="42.4602" lon="2.17599">
        <ele>1815</ele>
        <time>2024-09-16T08:57:44Z</time>
      </trkpt>
      <trkpt lat="42.46022" lon="2.17597">
        <ele>1816</ele>
        <time>2024-09-16T08:57:46Z</time>
      </trkpt>
      <trkpt lat="42.46024" lon="2.17594">
        <ele>1815</ele>
        <time>2024-09-16T08:57:48Z</time>
      </trkpt>
      <trkpt lat="42.46027" lon="2.17592">
        <ele>1815</ele>
        <time>2024-09-16T08:57:51Z</time>
      </trkpt>
      <trkpt lat="42.4603" lon="2.17591">
        <ele>1815</ele>
        <time>2024-09-16T08:57:53Z</time>
      </trkpt>
      <trkpt lat="42.46033" lon="2.17589">
        <ele>1815</ele>
        <time>2024-09-16T08:57:56Z</time>
      </trkpt>
      <trkpt lat="42.46036" lon="2.17588">
        <ele>1816</ele>
        <time>2024-09-16T08:57:59Z</time>
      </trkpt>
      <trkpt lat="42.4604" lon="2.17586">
        <ele>1816</ele>
        <time>2024-09-16T08:58:02Z</time>
      </trkpt>
      <trkpt lat="42.46044" lon="2.17586">
        <ele>1816</ele>
        <time>2024-09-16T08:58:05Z</time>
      </trkpt>
      <trkpt lat="42.46047" lon="2.17586">
        <ele>1814</ele>
        <time>2024-09-16T08:58:08Z</time>
      </trkpt>
      <trkpt lat="42.4605" lon="2.17585">
        <ele>1815</ele>
        <time>2024-09-16T08:58:10Z</time>
      </trkpt>
      <trkpt lat="42.46053" lon="2.17583">
        <ele>1813</ele>
        <time>2024-09-16T08:58:13Z</time>
      </trkpt>
      <trkpt lat="42.46056" lon="2.17582">
        <ele>1814</ele>
        <time>2024-09-16T08:58:15Z</time>
      </trkpt>
      <trkpt lat="42.46059" lon="2.1758">
        <ele>1812</ele>
        <time>2024-09-16T08:58:18Z</time>
      </trkpt>
      <trkpt lat="42.46062" lon="2.1758">
        <ele>1813</ele>
        <time>2024-09-16T08:58:21Z</time>
      </trkpt>
      <trkpt lat="42.46065" lon="2.17582">
        <ele>1813</ele>
        <time>2024-09-16T08:58:24Z</time>
      </trkpt>
      <trkpt lat="42.46065" lon="2.17585">
        <ele>1813</ele>
        <time>2024-09-16T08:58:26Z</time>
      </trkpt>
      <trkpt lat="42.46066" lon="2.17589">
        <ele>1812</ele>
        <time>2024-09-16T08:58:28Z</time>
      </trkpt>
      <trkpt lat="42.46066" lon="2.17593">
        <ele>1812</ele>
        <time>2024-09-16T08:58:30Z</time>
      </trkpt>
      <trkpt lat="42.46067" lon="2.17597">
        <ele>1811</ele>
        <time>2024-09-16T08:58:49Z</time>
      </trkpt>
      <trkpt lat="42.46067" lon="2.17601">
        <ele>1811</ele>
        <time>2024-09-16T08:58:51Z</time>
      </trkpt>
      <trkpt lat="42.46069" lon="2.17605">
        <ele>1811</ele>
        <time>2024-09-16T08:58:53Z</time>
      </trkpt>
      <trkpt lat="42.46072" lon="2.17607">
        <ele>1810</ele>
        <time>2024-09-16T08:58:56Z</time>
      </trkpt>
      <trkpt lat="42.46075" lon="2.17609">
        <ele>1810</ele>
        <time>2024-09-16T08:58:58Z</time>
      </trkpt>
      <trkpt lat="42.46078" lon="2.17609">
        <ele>1809</ele>
        <time>2024-09-16T08:59:01Z</time>
      </trkpt>
      <trkpt lat="42.46081" lon="2.1761">
        <ele>1808</ele>
        <time>2024-09-16T08:59:04Z</time>
      </trkpt>
      <trkpt lat="42.46084" lon="2.17613">
        <ele>1808</ele>
        <time>2024-09-16T08:59:07Z</time>
      </trkpt>
      <trkpt lat="42.46087" lon="2.17614">
        <ele>1808</ele>
        <time>2024-09-16T08:59:12Z</time>
      </trkpt>
      <trkpt lat="42.4609" lon="2.17616">
        <ele>1808</ele>
        <time>2024-09-16T08:59:15Z</time>
      </trkpt>
      <trkpt lat="42.46092" lon="2.1762">
        <ele>1808</ele>
        <time>2024-09-16T08:59:17Z</time>
      </trkpt>
      <trkpt lat="42.46095" lon="2.17623">
        <ele>1807</ele>
        <time>2024-09-16T08:59:20Z</time>
      </trkpt>
      <trkpt lat="42.46098" lon="2.17627">
        <ele>1806</ele>
        <time>2024-09-16T08:59:23Z</time>
      </trkpt>
      <trkpt lat="42.461" lon="2.1763">
        <ele>1806</ele>
        <time>2024-09-16T08:59:25Z</time>
      </trkpt>
      <trkpt lat="42.46101" lon="2.17634">
        <ele>1804</ele>
        <time>2024-09-16T08:59:28Z</time>
      </trkpt>
      <trkpt lat="42.46103" lon="2.17637">
        <ele>1804</ele>
        <time>2024-09-16T08:59:30Z</time>
      </trkpt>
      <trkpt lat="42.46106" lon="2.1764">
        <ele>1805</ele>
        <time>2024-09-16T08:59:32Z</time>
      </trkpt>
      <trkpt lat="42.46108" lon="2.17643">
        <ele>1805</ele>
        <time>2024-09-16T08:59:34Z</time>
      </trkpt>
      <trkpt lat="42.4611" lon="2.17645">
        <ele>1805</ele>
        <time>2024-09-16T08:59:36Z</time>
      </trkpt>
      <trkpt lat="42.46113" lon="2.17646">
        <ele>1804</ele>
        <time>2024-09-16T08:59:38Z</time>
      </trkpt>
      <trkpt lat="42.46115" lon="2.17647">
        <ele>1804</ele>
        <time>2024-09-16T08:59:40Z</time>
      </trkpt>
      <trkpt lat="42.46118" lon="2.17648">
        <ele>1805</ele>
        <time>2024-09-16T08:59:42Z</time>
      </trkpt>
      <trkpt lat="42.46121" lon="2.17648">
        <ele>1804</ele>
        <time>2024-09-16T08:59:44Z</time>
      </trkpt>
      <trkpt lat="42.46125" lon="2.17649">
        <ele>1804</ele>
        <time>2024-09-16T08:59:47Z</time>
      </trkpt>
      <trkpt lat="42.46128" lon="2.1765">
        <ele>1804</ele>
        <time>2024-09-16T08:59:49Z</time>
      </trkpt>
      <trkpt lat="42.4613" lon="2.17652">
        <ele>1804</ele>
        <time>2024-09-16T08:59:51Z</time>
      </trkpt>
      <trkpt lat="42.46133" lon="2.17654">
        <ele>1802</ele>
        <time>2024-09-16T08:59:54Z</time>
      </trkpt>
      <trkpt lat="42.46136" lon="2.17656">
        <ele>1802</ele>
        <time>2024-09-16T08:59:56Z</time>
      </trkpt>
      <trkpt lat="42.46139" lon="2.17658">
        <ele>1803</ele>
        <time>2024-09-16T08:59:59Z</time>
      </trkpt>
      <trkpt lat="42.46141" lon="2.17661">
        <ele>1803</ele>
        <time>2024-09-16T09:00:01Z</time>
      </trkpt>
      <trkpt lat="42.46143" lon="2.17664">
        <ele>1802</ele>
        <time>2024-09-16T09:00:03Z</time>
      </trkpt>
      <trkpt lat="42.46145" lon="2.17667">
        <ele>1801</ele>
        <time>2024-09-16T09:00:05Z</time>
      </trkpt>
      <trkpt lat="42.46147" lon="2.1767">
        <ele>1800</ele>
        <time>2024-09-16T09:00:08Z</time>
      </trkpt>
      <trkpt lat="42.46149" lon="2.17673">
        <ele>1800</ele>
        <time>2024-09-16T09:00:10Z</time>
      </trkpt>
      <trkpt lat="42.46151" lon="2.17676">
        <ele>1800</ele>
        <time>2024-09-16T09:00:12Z</time>
      </trkpt>
      <trkpt lat="42.46153" lon="2.17679">
        <ele>1800</ele>
        <time>2024-09-16T09:00:14Z</time>
      </trkpt>
      <trkpt lat="42.46156" lon="2.1768">
        <ele>1801</ele>
        <time>2024-09-16T09:00:16Z</time>
      </trkpt>
      <trkpt lat="42.46159" lon="2.17682">
        <ele>1802</ele>
        <time>2024-09-16T09:00:19Z</time>
      </trkpt>
      <trkpt lat="42.46162" lon="2.17683">
        <ele>1803</ele>
        <time>2024-09-16T09:00:22Z</time>
      </trkpt>
      <trkpt lat="42.46165" lon="2.17685">
        <ele>1801</ele>
        <time>2024-09-16T09:00:25Z</time>
      </trkpt>
      <trkpt lat="42.46169" lon="2.17687">
        <ele>1801</ele>
        <time>2024-09-16T09:00:28Z</time>
      </trkpt>
      <trkpt lat="42.46172" lon="2.17687">
        <ele>1802</ele>
        <time>2024-09-16T09:00:31Z</time>
      </trkpt>
      <trkpt lat="42.46175" lon="2.17688">
        <ele>1801</ele>
        <time>2024-09-16T09:00:34Z</time>
      </trkpt>
      <trkpt lat="42.46179" lon="2.17689">
        <ele>1802</ele>
        <time>2024-09-16T09:00:37Z</time>
      </trkpt>
      <trkpt lat="42.46182" lon="2.1769">
        <ele>1802</ele>
        <time>2024-09-16T09:00:39Z</time>
      </trkpt>
      <trkpt lat="42.46185" lon="2.1769">
        <ele>1801</ele>
        <time>2024-09-16T09:00:41Z</time>
      </trkpt>
      <trkpt lat="42.46189" lon="2.17691">
        <ele>1801</ele>
        <time>2024-09-16T09:00:44Z</time>
      </trkpt>
      <trkpt lat="42.46193" lon="2.17692">
        <ele>1801</ele>
        <time>2024-09-16T09:00:47Z</time>
      </trkpt>
      <trkpt lat="42.46196" lon="2.17693">
        <ele>1800</ele>
        <time>2024-09-16T09:00:50Z</time>
      </trkpt>
      <trkpt lat="42.46199" lon="2.17694">
        <ele>1801</ele>
        <time>2024-09-16T09:00:53Z</time>
      </trkpt>
      <trkpt lat="42.46202" lon="2.17696">
        <ele>1800</ele>
        <time>2024-09-16T09:00:56Z</time>
      </trkpt>
      <trkpt lat="42.46205" lon="2.17698">
        <ele>1800</ele>
        <time>2024-09-16T09:00:58Z</time>
      </trkpt>
      <trkpt lat="42.46208" lon="2.177">
        <ele>1801</ele>
        <time>2024-09-16T09:01:00Z</time>
      </trkpt>
      <trkpt lat="42.46211" lon="2.17701">
        <ele>1800</ele>
        <time>2024-09-16T09:01:02Z</time>
      </trkpt>
      <trkpt lat="42.46213" lon="2.17704">
        <ele>1800</ele>
        <time>2024-09-16T09:01:04Z</time>
      </trkpt>
      <trkpt lat="42.46216" lon="2.17704">
        <ele>1802</ele>
        <time>2024-09-16T09:01:06Z</time>
      </trkpt>
      <trkpt lat="42.46219" lon="2.17704">
        <ele>1802</ele>
        <time>2024-09-16T09:01:08Z</time>
      </trkpt>
      <trkpt lat="42.46222" lon="2.17703">
        <ele>1802</ele>
        <time>2024-09-16T09:01:10Z</time>
      </trkpt>
      <trkpt lat="42.46225" lon="2.17704">
        <ele>1801</ele>
        <time>2024-09-16T09:01:12Z</time>
      </trkpt>
      <trkpt lat="42.46228" lon="2.17704">
        <ele>1801</ele>
        <time>2024-09-16T09:01:14Z</time>
      </trkpt>
      <trkpt lat="42.46231" lon="2.17704">
        <ele>1802</ele>
        <time>2024-09-16T09:01:17Z</time>
      </trkpt>
      <trkpt lat="42.46234" lon="2.17704">
        <ele>1801</ele>
        <time>2024-09-16T09:01:19Z</time>
      </trkpt>
      <trkpt lat="42.46237" lon="2.17704">
        <ele>1800</ele>
        <time>2024-09-16T09:01:21Z</time>
      </trkpt>
      <trkpt lat="42.4624" lon="2.17705">
        <ele>1798</ele>
        <time>2024-09-16T09:01:23Z</time>
      </trkpt>
      <trkpt lat="42.46244" lon="2.17707">
        <ele>1798</ele>
        <time>2024-09-16T09:01:26Z</time>
      </trkpt>
      <trkpt lat="42.46247" lon="2.1771">
        <ele>1798</ele>
        <time>2024-09-16T09:01:29Z</time>
      </trkpt>
      <trkpt lat="42.4625" lon="2.17711">
        <ele>1796</ele>
        <time>2024-09-16T09:01:32Z</time>
      </trkpt>
      <trkpt lat="42.46253" lon="2.17713">
        <ele>1795</ele>
        <time>2024-09-16T09:01:35Z</time>
      </trkpt>
      <trkpt lat="42.46256" lon="2.17715">
        <ele>1797</ele>
        <time>2024-09-16T09:01:38Z</time>
      </trkpt>
      <trkpt lat="42.46259" lon="2.17716">
        <ele>1797</ele>
        <time>2024-09-16T09:01:41Z</time>
      </trkpt>
      <trkpt lat="42.46262" lon="2.17717">
        <ele>1796</ele>
        <time>2024-09-16T09:01:44Z</time>
      </trkpt>
      <trkpt lat="42.46266" lon="2.17719">
        <ele>1795</ele>
        <time>2024-09-16T09:01:48Z</time>
      </trkpt>
      <trkpt lat="42.46269" lon="2.17718">
        <ele>1795</ele>
        <time>2024-09-16T09:01:50Z</time>
      </trkpt>
      <trkpt lat="42.46273" lon="2.17718">
        <ele>1795</ele>
        <time>2024-09-16T09:01:52Z</time>
      </trkpt>
      <trkpt lat="42.46276" lon="2.17717">
        <ele>1793</ele>
        <time>2024-09-16T09:01:55Z</time>
      </trkpt>
      <trkpt lat="42.4628" lon="2.17718">
        <ele>1793</ele>
        <time>2024-09-16T09:01:58Z</time>
      </trkpt>
      <trkpt lat="42.46282" lon="2.1772">
        <ele>1793</ele>
        <time>2024-09-16T09:02:00Z</time>
      </trkpt>
      <trkpt lat="42.46285" lon="2.17722">
        <ele>1793</ele>
        <time>2024-09-16T09:02:02Z</time>
      </trkpt>
      <trkpt lat="42.46287" lon="2.17725">
        <ele>1792</ele>
        <time>2024-09-16T09:02:05Z</time>
      </trkpt>
      <trkpt lat="42.4629" lon="2.17726">
        <ele>1793</ele>
        <time>2024-09-16T09:02:07Z</time>
      </trkpt>
      <trkpt lat="42.46293" lon="2.17728">
        <ele>1793</ele>
        <time>2024-09-16T09:02:10Z</time>
      </trkpt>
      <trkpt lat="42.46297" lon="2.17729">
        <ele>1792</ele>
        <time>2024-09-16T09:02:13Z</time>
      </trkpt>
      <trkpt lat="42.46299" lon="2.17731">
        <ele>1792</ele>
        <time>2024-09-16T09:02:15Z</time>
      </trkpt>
      <trkpt lat="42.46302" lon="2.17733">
        <ele>1791</ele>
        <time>2024-09-16T09:02:17Z</time>
      </trkpt>
      <trkpt lat="42.46305" lon="2.17736">
        <ele>1792</ele>
        <time>2024-09-16T09:02:20Z</time>
      </trkpt>
      <trkpt lat="42.46309" lon="2.17737">
        <ele>1789</ele>
        <time>2024-09-16T09:02:23Z</time>
      </trkpt>
      <trkpt lat="42.46312" lon="2.17738">
        <ele>1790</ele>
        <time>2024-09-16T09:02:25Z</time>
      </trkpt>
      <trkpt lat="42.46315" lon="2.1774">
        <ele>1789</ele>
        <time>2024-09-16T09:02:28Z</time>
      </trkpt>
      <trkpt lat="42.46318" lon="2.17743">
        <ele>1789</ele>
        <time>2024-09-16T09:02:31Z</time>
      </trkpt>
      <trkpt lat="42.46321" lon="2.17746">
        <ele>1789</ele>
        <time>2024-09-16T09:02:34Z</time>
      </trkpt>
      <trkpt lat="42.46324" lon="2.17749">
        <ele>1789</ele>
        <time>2024-09-16T09:02:37Z</time>
      </trkpt>
      <trkpt lat="42.46328" lon="2.17751">
        <ele>1788</ele>
        <time>2024-09-16T09:02:40Z</time>
      </trkpt>
      <trkpt lat="42.4633" lon="2.17754">
        <ele>1788</ele>
        <time>2024-09-16T09:02:43Z</time>
      </trkpt>
      <trkpt lat="42.46334" lon="2.17756">
        <ele>1788</ele>
        <time>2024-09-16T09:02:46Z</time>
      </trkpt>
      <trkpt lat="42.46336" lon="2.1776">
        <ele>1787</ele>
        <time>2024-09-16T09:02:48Z</time>
      </trkpt>
      <trkpt lat="42.46339" lon="2.17762">
        <ele>1787</ele>
        <time>2024-09-16T09:02:51Z</time>
      </trkpt>
      <trkpt lat="42.46343" lon="2.17763">
        <ele>1787</ele>
        <time>2024-09-16T09:02:53Z</time>
      </trkpt>
      <trkpt lat="42.46346" lon="2.17764">
        <ele>1786</ele>
        <time>2024-09-16T09:02:56Z</time>
      </trkpt>
      <trkpt lat="42.46348" lon="2.17765">
        <ele>1785</ele>
        <time>2024-09-16T09:02:58Z</time>
      </trkpt>
      <trkpt lat="42.46351" lon="2.17768">
        <ele>1785</ele>
        <time>2024-09-16T09:03:00Z</time>
      </trkpt>
      <trkpt lat="42.46354" lon="2.17769">
        <ele>1784</ele>
        <time>2024-09-16T09:03:02Z</time>
      </trkpt>
      <trkpt lat="42.46356" lon="2.1777">
        <ele>1786</ele>
        <time>2024-09-16T09:03:04Z</time>
      </trkpt>
      <trkpt lat="42.46359" lon="2.1777">
        <ele>1786</ele>
        <time>2024-09-16T09:03:06Z</time>
      </trkpt>
      <trkpt lat="42.46363" lon="2.17771">
        <ele>1786</ele>
        <time>2024-09-16T09:03:09Z</time>
      </trkpt>
      <trkpt lat="42.46367" lon="2.17772">
        <ele>1784</ele>
        <time>2024-09-16T09:03:12Z</time>
      </trkpt>
      <trkpt lat="42.46371" lon="2.17772">
        <ele>1786</ele>
        <time>2024-09-16T09:03:15Z</time>
      </trkpt>
      <trkpt lat="42.46374" lon="2.17773">
        <ele>1785</ele>
        <time>2024-09-16T09:03:18Z</time>
      </trkpt>
      <trkpt lat="42.46376" lon="2.17775">
        <ele>1784</ele>
        <time>2024-09-16T09:03:21Z</time>
      </trkpt>
      <trkpt lat="42.46379" lon="2.17777">
        <ele>1782</ele>
        <time>2024-09-16T09:03:24Z</time>
      </trkpt>
      <trkpt lat="42.46382" lon="2.17779">
        <ele>1782</ele>
        <time>2024-09-16T09:03:26Z</time>
      </trkpt>
      <trkpt lat="42.46386" lon="2.17781">
        <ele>1781</ele>
        <time>2024-09-16T09:03:28Z</time>
      </trkpt>
      <trkpt lat="42.4639" lon="2.17782">
        <ele>1781</ele>
        <time>2024-09-16T09:03:31Z</time>
      </trkpt>
      <trkpt lat="42.46393" lon="2.17783">
        <ele>1781</ele>
        <time>2024-09-16T09:03:34Z</time>
      </trkpt>
      <trkpt lat="42.46396" lon="2.17784">
        <ele>1781</ele>
        <time>2024-09-16T09:03:36Z</time>
      </trkpt>
      <trkpt lat="42.46399" lon="2.17784">
        <ele>1780</ele>
        <time>2024-09-16T09:03:39Z</time>
      </trkpt>
      <trkpt lat="42.46402" lon="2.17786">
        <ele>1780</ele>
        <time>2024-09-16T09:03:42Z</time>
      </trkpt>
      <trkpt lat="42.46405" lon="2.17787">
        <ele>1779</ele>
        <time>2024-09-16T09:03:45Z</time>
      </trkpt>
      <trkpt lat="42.46409" lon="2.17788">
        <ele>1779</ele>
        <time>2024-09-16T09:03:48Z</time>
      </trkpt>
      <trkpt lat="42.46412" lon="2.17789">
        <ele>1778</ele>
        <time>2024-09-16T09:03:50Z</time>
      </trkpt>
      <trkpt lat="42.46416" lon="2.17791">
        <ele>1777</ele>
        <time>2024-09-16T09:03:53Z</time>
      </trkpt>
      <trkpt lat="42.46418" lon="2.17792">
        <ele>1776</ele>
        <time>2024-09-16T09:03:55Z</time>
      </trkpt>
      <trkpt lat="42.46421" lon="2.17793">
        <ele>1778</ele>
        <time>2024-09-16T09:03:57Z</time>
      </trkpt>
      <trkpt lat="42.46424" lon="2.17793">
        <ele>1776</ele>
        <time>2024-09-16T09:03:59Z</time>
      </trkpt>
      <trkpt lat="42.46427" lon="2.17793">
        <ele>1775</ele>
        <time>2024-09-16T09:04:01Z</time>
      </trkpt>
      <trkpt lat="42.46431" lon="2.17792">
        <ele>1777</ele>
        <time>2024-09-16T09:04:03Z</time>
      </trkpt>
      <trkpt lat="42.46434" lon="2.17792">
        <ele>1776</ele>
        <time>2024-09-16T09:04:05Z</time>
      </trkpt>
      <trkpt lat="42.46438" lon="2.17792">
        <ele>1776</ele>
        <time>2024-09-16T09:04:09Z</time>
      </trkpt>
      <trkpt lat="42.46442" lon="2.17793">
        <ele>1776</ele>
        <time>2024-09-16T09:04:12Z</time>
      </trkpt>
      <trkpt lat="42.46445" lon="2.17795">
        <ele>1777</ele>
        <time>2024-09-16T09:04:14Z</time>
      </trkpt>
      <trkpt lat="42.46446" lon="2.17798">
        <ele>1775</ele>
        <time>2024-09-16T09:04:16Z</time>
      </trkpt>
      <trkpt lat="42.46448" lon="2.17802">
        <ele>1774</ele>
        <time>2024-09-16T09:04:19Z</time>
      </trkpt>
      <trkpt lat="42.4645" lon="2.17805">
        <ele>1774</ele>
        <time>2024-09-16T09:04:21Z</time>
      </trkpt>
      <trkpt lat="42.46452" lon="2.17807">
        <ele>1774</ele>
        <time>2024-09-16T09:04:23Z</time>
      </trkpt>
      <trkpt lat="42.46453" lon="2.17811">
        <ele>1773</ele>
        <time>2024-09-16T09:04:25Z</time>
      </trkpt>
      <trkpt lat="42.46455" lon="2.17814">
        <ele>1773</ele>
        <time>2024-09-16T09:04:27Z</time>
      </trkpt>
      <trkpt lat="42.46458" lon="2.17816">
        <ele>1772</ele>
        <time>2024-09-16T09:04:30Z</time>
      </trkpt>
      <trkpt lat="42.46461" lon="2.17816">
        <ele>1772</ele>
        <time>2024-09-16T09:04:32Z</time>
      </trkpt>
      <trkpt lat="42.46464" lon="2.17817">
        <ele>1771</ele>
        <time>2024-09-16T09:04:36Z</time>
      </trkpt>
      <trkpt lat="42.46468" lon="2.17817">
        <ele>1770</ele>
        <time>2024-09-16T09:04:39Z</time>
      </trkpt>
      <trkpt lat="42.46471" lon="2.17816">
        <ele>1768</ele>
        <time>2024-09-16T09:04:43Z</time>
      </trkpt>
      <trkpt lat="42.46475" lon="2.17816">
        <ele>1767</ele>
        <time>2024-09-16T09:04:46Z</time>
      </trkpt>
      <trkpt lat="42.46477" lon="2.17818">
        <ele>1766</ele>
        <time>2024-09-16T09:04:49Z</time>
      </trkpt>
      <trkpt lat="42.4648" lon="2.17819">
        <ele>1767</ele>
        <time>2024-09-16T09:04:51Z</time>
      </trkpt>
      <trkpt lat="42.46484" lon="2.1782">
        <ele>1767</ele>
        <time>2024-09-16T09:04:54Z</time>
      </trkpt>
      <trkpt lat="42.46486" lon="2.17823">
        <ele>1766</ele>
        <time>2024-09-16T09:04:57Z</time>
      </trkpt>
      <trkpt lat="42.46489" lon="2.17824">
        <ele>1766</ele>
        <time>2024-09-16T09:04:59Z</time>
      </trkpt>
      <trkpt lat="42.46492" lon="2.17828">
        <ele>1766</ele>
        <time>2024-09-16T09:05:03Z</time>
      </trkpt>
      <trkpt lat="42.46495" lon="2.17831">
        <ele>1765</ele>
        <time>2024-09-16T09:05:06Z</time>
      </trkpt>
      <trkpt lat="42.46497" lon="2.17834">
        <ele>1767</ele>
        <time>2024-09-16T09:05:08Z</time>
      </trkpt>
      <trkpt lat="42.465" lon="2.17838">
        <ele>1764</ele>
        <time>2024-09-16T09:05:12Z</time>
      </trkpt>
      <trkpt lat="42.46503" lon="2.1784">
        <ele>1765</ele>
        <time>2024-09-16T09:05:15Z</time>
      </trkpt>
      <trkpt lat="42.46507" lon="2.17842">
        <ele>1765</ele>
        <time>2024-09-16T09:05:17Z</time>
      </trkpt>
      <trkpt lat="42.4651" lon="2.17844">
        <ele>1765</ele>
        <time>2024-09-16T09:05:19Z</time>
      </trkpt>
      <trkpt lat="42.46513" lon="2.17845">
        <ele>1765</ele>
        <time>2024-09-16T09:05:21Z</time>
      </trkpt>
      <trkpt lat="42.46515" lon="2.17846">
        <ele>1766</ele>
        <time>2024-09-16T09:05:23Z</time>
      </trkpt>
      <trkpt lat="42.46518" lon="2.17849">
        <ele>1765</ele>
        <time>2024-09-16T09:05:26Z</time>
      </trkpt>
      <trkpt lat="42.46521" lon="2.17851">
        <ele>1765</ele>
        <time>2024-09-16T09:05:29Z</time>
      </trkpt>
      <trkpt lat="42.46524" lon="2.17853">
        <ele>1766</ele>
        <time>2024-09-16T09:05:31Z</time>
      </trkpt>
      <trkpt lat="42.46527" lon="2.17853">
        <ele>1764</ele>
        <time>2024-09-16T09:05:34Z</time>
      </trkpt>
      <trkpt lat="42.4653" lon="2.17852">
        <ele>1765</ele>
        <time>2024-09-16T09:05:36Z</time>
      </trkpt>
      <trkpt lat="42.46532" lon="2.17849">
        <ele>1763</ele>
        <time>2024-09-16T09:05:38Z</time>
      </trkpt>
      <trkpt lat="42.46535" lon="2.17847">
        <ele>1762</ele>
        <time>2024-09-16T09:05:40Z</time>
      </trkpt>
      <trkpt lat="42.46537" lon="2.17845">
        <ele>1761</ele>
        <time>2024-09-16T09:05:42Z</time>
      </trkpt>
      <trkpt lat="42.4654" lon="2.17842">
        <ele>1761</ele>
        <time>2024-09-16T09:05:45Z</time>
      </trkpt>
      <trkpt lat="42.46543" lon="2.1784">
        <ele>1757</ele>
        <time>2024-09-16T09:05:49Z</time>
      </trkpt>
      <trkpt lat="42.46546" lon="2.17838">
        <ele>1756</ele>
        <time>2024-09-16T09:05:52Z</time>
      </trkpt>
      <trkpt lat="42.46549" lon="2.17836">
        <ele>1754</ele>
        <time>2024-09-16T09:05:56Z</time>
      </trkpt>
      <trkpt lat="42.46552" lon="2.17837">
        <ele>1754</ele>
        <time>2024-09-16T09:05:59Z</time>
      </trkpt>
      <trkpt lat="42.46554" lon="2.1784">
        <ele>1753</ele>
        <time>2024-09-16T09:06:06Z</time>
      </trkpt>
      <trkpt lat="42.46556" lon="2.17842">
        <ele>1753</ele>
        <time>2024-09-16T09:06:09Z</time>
      </trkpt>
      <trkpt lat="42.46559" lon="2.17844">
        <ele>1753</ele>
        <time>2024-09-16T09:06:12Z</time>
      </trkpt>
      <trkpt lat="42.46562" lon="2.17845">
        <ele>1753</ele>
        <time>2024-09-16T09:06:14Z</time>
      </trkpt>
      <trkpt lat="42.46565" lon="2.17846">
        <ele>1754</ele>
        <time>2024-09-16T09:06:16Z</time>
      </trkpt>
      <trkpt lat="42.46569" lon="2.17847">
        <ele>1753</ele>
        <time>2024-09-16T09:06:19Z</time>
      </trkpt>
      <trkpt lat="42.46572" lon="2.17847">
        <ele>1753</ele>
        <time>2024-09-16T09:06:22Z</time>
      </trkpt>
      <trkpt lat="42.46576" lon="2.17848">
        <ele>1753</ele>
        <time>2024-09-16T09:06:24Z</time>
      </trkpt>
      <trkpt lat="42.46579" lon="2.17848">
        <ele>1753</ele>
        <time>2024-09-16T09:06:26Z</time>
      </trkpt>
      <trkpt lat="42.46582" lon="2.17848">
        <ele>1753</ele>
        <time>2024-09-16T09:06:29Z</time>
      </trkpt>
      <trkpt lat="42.46585" lon="2.17848">
        <ele>1752</ele>
        <time>2024-09-16T09:06:32Z</time>
      </trkpt>
      <trkpt lat="42.46588" lon="2.17847">
        <ele>1751</ele>
        <time>2024-09-16T09:06:35Z</time>
      </trkpt>
      <trkpt lat="42.46591" lon="2.17847">
        <ele>1751</ele>
        <time>2024-09-16T09:06:37Z</time>
      </trkpt>
      <trkpt lat="42.46594" lon="2.17846">
        <ele>1750</ele>
        <time>2024-09-16T09:06:39Z</time>
      </trkpt>
      <trkpt lat="42.46597" lon="2.17847">
        <ele>1749</ele>
        <time>2024-09-16T09:06:41Z</time>
      </trkpt>
      <trkpt lat="42.466" lon="2.17847">
        <ele>1749</ele>
        <time>2024-09-16T09:06:43Z</time>
      </trkpt>
      <trkpt lat="42.46603" lon="2.17847">
        <ele>1749</ele>
        <time>2024-09-16T09:06:45Z</time>
      </trkpt>
      <trkpt lat="42.46607" lon="2.17847">
        <ele>1749</ele>
        <time>2024-09-16T09:06:48Z</time>
      </trkpt>
      <trkpt lat="42.4661" lon="2.17847">
        <ele>1748</ele>
        <time>2024-09-16T09:06:51Z</time>
      </trkpt>
      <trkpt lat="42.46613" lon="2.17846">
        <ele>1748</ele>
        <time>2024-09-16T09:06:53Z</time>
      </trkpt>
      <trkpt lat="42.46617" lon="2.17846">
        <ele>1748</ele>
        <time>2024-09-16T09:06:56Z</time>
      </trkpt>
      <trkpt lat="42.4662" lon="2.17845">
        <ele>1748</ele>
        <time>2024-09-16T09:06:59Z</time>
      </trkpt>
      <trkpt lat="42.46624" lon="2.17844">
        <ele>1748</ele>
        <time>2024-09-16T09:07:02Z</time>
      </trkpt>
      <trkpt lat="42.46627" lon="2.17843">
        <ele>1748</ele>
        <time>2024-09-16T09:07:04Z</time>
      </trkpt>
      <trkpt lat="42.4663" lon="2.17842">
        <ele>1747</ele>
        <time>2024-09-16T09:07:07Z</time>
      </trkpt>
      <trkpt lat="42.46633" lon="2.1784">
        <ele>1747</ele>
        <time>2024-09-16T09:07:10Z</time>
      </trkpt>
      <trkpt lat="42.46636" lon="2.1784">
        <ele>1746</ele>
        <time>2024-09-16T09:07:13Z</time>
      </trkpt>
      <trkpt lat="42.4664" lon="2.17839">
        <ele>1747</ele>
        <time>2024-09-16T09:07:16Z</time>
      </trkpt>
      <trkpt lat="42.46643" lon="2.17839">
        <ele>1745</ele>
        <time>2024-09-16T09:07:19Z</time>
      </trkpt>
      <trkpt lat="42.46647" lon="2.17838">
        <ele>1745</ele>
        <time>2024-09-16T09:07:22Z</time>
      </trkpt>
      <trkpt lat="42.4665" lon="2.17838">
        <ele>1745</ele>
        <time>2024-09-16T09:07:24Z</time>
      </trkpt>
      <trkpt lat="42.46654" lon="2.17837">
        <ele>1745</ele>
        <time>2024-09-16T09:07:27Z</time>
      </trkpt>
      <trkpt lat="42.46656" lon="2.17837">
        <ele>1744</ele>
        <time>2024-09-16T09:07:29Z</time>
      </trkpt>
      <trkpt lat="42.46659" lon="2.17836">
        <ele>1743</ele>
        <time>2024-09-16T09:07:32Z</time>
      </trkpt>
      <trkpt lat="42.46662" lon="2.17836">
        <ele>1743</ele>
        <time>2024-09-16T09:07:34Z</time>
      </trkpt>
      <trkpt lat="42.46666" lon="2.17837">
        <ele>1741</ele>
        <time>2024-09-16T09:07:37Z</time>
      </trkpt>
      <trkpt lat="42.4667" lon="2.17837">
        <ele>1742</ele>
        <time>2024-09-16T09:07:40Z</time>
      </trkpt>
      <trkpt lat="42.46673" lon="2.17839">
        <ele>1742</ele>
        <time>2024-09-16T09:07:42Z</time>
      </trkpt>
      <trkpt lat="42.46677" lon="2.1784">
        <ele>1742</ele>
        <time>2024-09-16T09:07:45Z</time>
      </trkpt>
      <trkpt lat="42.46681" lon="2.17841">
        <ele>1742</ele>
        <time>2024-09-16T09:07:48Z</time>
      </trkpt>
      <trkpt lat="42.46684" lon="2.17842">
        <ele>1741</ele>
        <time>2024-09-16T09:07:51Z</time>
      </trkpt>
      <trkpt lat="42.46688" lon="2.17843">
        <ele>1741</ele>
        <time>2024-09-16T09:07:53Z</time>
      </trkpt>
      <trkpt lat="42.46691" lon="2.17843">
        <ele>1740</ele>
        <time>2024-09-16T09:07:56Z</time>
      </trkpt>
      <trkpt lat="42.46694" lon="2.17844">
        <ele>1740</ele>
        <time>2024-09-16T09:07:59Z</time>
      </trkpt>
      <trkpt lat="42.46697" lon="2.17845">
        <ele>1741</ele>
        <time>2024-09-16T09:08:02Z</time>
      </trkpt>
      <trkpt lat="42.467" lon="2.17846">
        <ele>1742</ele>
        <time>2024-09-16T09:08:04Z</time>
      </trkpt>
      <trkpt lat="42.46703" lon="2.17847">
        <ele>1741</ele>
        <time>2024-09-16T09:08:07Z</time>
      </trkpt>
      <trkpt lat="42.46706" lon="2.17847">
        <ele>1741</ele>
        <time>2024-09-16T09:08:09Z</time>
      </trkpt>
      <trkpt lat="42.46709" lon="2.17848">
        <ele>1741</ele>
        <time>2024-09-16T09:08:11Z</time>
      </trkpt>
      <trkpt lat="42.46712" lon="2.17848">
        <ele>1741</ele>
        <time>2024-09-16T09:08:13Z</time>
      </trkpt>
      <trkpt lat="42.46715" lon="2.17848">
        <ele>1741</ele>
        <time>2024-09-16T09:08:15Z</time>
      </trkpt>
      <trkpt lat="42.46718" lon="2.17848">
        <ele>1741</ele>
        <time>2024-09-16T09:08:18Z</time>
      </trkpt>
      <trkpt lat="42.46721" lon="2.17849">
        <ele>1742</ele>
        <time>2024-09-16T09:08:20Z</time>
      </trkpt>
      <trkpt lat="42.46725" lon="2.17849">
        <ele>1741</ele>
        <time>2024-09-16T09:08:23Z</time>
      </trkpt>
      <trkpt lat="42.46729" lon="2.17848">
        <ele>1741</ele>
        <time>2024-09-16T09:08:26Z</time>
      </trkpt>
      <trkpt lat="42.46733" lon="2.17847">
        <ele>1741</ele>
        <time>2024-09-16T09:08:29Z</time>
      </trkpt>
      <trkpt lat="42.46736" lon="2.17845">
        <ele>1740</ele>
        <time>2024-09-16T09:08:32Z</time>
      </trkpt>
      <trkpt lat="42.46739" lon="2.17843">
        <ele>1741</ele>
        <time>2024-09-16T09:08:34Z</time>
      </trkpt>
      <trkpt lat="42.46741" lon="2.17844">
        <ele>1739</ele>
        <time>2024-09-16T09:08:45Z</time>
      </trkpt>
      <trkpt lat="42.46745" lon="2.17844">
        <ele>1739</ele>
        <time>2024-09-16T09:08:47Z</time>
      </trkpt>
      <trkpt lat="42.46748" lon="2.17844">
        <ele>1738</ele>
        <time>2024-09-16T09:08:50Z</time>
      </trkpt>
      <trkpt lat="42.46752" lon="2.17843">
        <ele>1737</ele>
        <time>2024-09-16T09:08:54Z</time>
      </trkpt>
      <trkpt lat="42.46756" lon="2.17843">
        <ele>1738</ele>
        <time>2024-09-16T09:08:56Z</time>
      </trkpt>
      <trkpt lat="42.46759" lon="2.17842">
        <ele>1737</ele>
        <time>2024-09-16T09:09:00Z</time>
      </trkpt>
      <trkpt lat="42.46763" lon="2.17842">
        <ele>1737</ele>
        <time>2024-09-16T09:09:02Z</time>
      </trkpt>
      <trkpt lat="42.46767" lon="2.17842">
        <ele>1737</ele>
        <time>2024-09-16T09:09:04Z</time>
      </trkpt>
      <trkpt lat="42.4677" lon="2.17842">
        <ele>1736</ele>
        <time>2024-09-16T09:09:06Z</time>
      </trkpt>
      <trkpt lat="42.46773" lon="2.17842">
        <ele>1736</ele>
        <time>2024-09-16T09:09:08Z</time>
      </trkpt>
      <trkpt lat="42.46776" lon="2.17842">
        <ele>1737</ele>
        <time>2024-09-16T09:09:10Z</time>
      </trkpt>
      <trkpt lat="42.46779" lon="2.17841">
        <ele>1737</ele>
        <time>2024-09-16T09:09:13Z</time>
      </trkpt>
      <trkpt lat="42.46782" lon="2.17841">
        <ele>1736</ele>
        <time>2024-09-16T09:09:16Z</time>
      </trkpt>
      <trkpt lat="42.46785" lon="2.1784">
        <ele>1736</ele>
        <time>2024-09-16T09:09:19Z</time>
      </trkpt>
      <trkpt lat="42.46788" lon="2.1784">
        <ele>1736</ele>
        <time>2024-09-16T09:09:22Z</time>
      </trkpt>
      <trkpt lat="42.46792" lon="2.1784">
        <ele>1736</ele>
        <time>2024-09-16T09:09:24Z</time>
      </trkpt>
      <trkpt lat="42.46796" lon="2.1784">
        <ele>1736</ele>
        <time>2024-09-16T09:09:27Z</time>
      </trkpt>
      <trkpt lat="42.46799" lon="2.17841">
        <ele>1735</ele>
        <time>2024-09-16T09:09:30Z</time>
      </trkpt>
      <trkpt lat="42.46802" lon="2.17842">
        <ele>1735</ele>
        <time>2024-09-16T09:09:32Z</time>
      </trkpt>
      <trkpt lat="42.46805" lon="2.17845">
        <ele>1734</ele>
        <time>2024-09-16T09:09:35Z</time>
      </trkpt>
      <trkpt lat="42.46808" lon="2.17847">
        <ele>1735</ele>
        <time>2024-09-16T09:09:38Z</time>
      </trkpt>
      <trkpt lat="42.46811" lon="2.17846">
        <ele>1734</ele>
        <time>2024-09-16T09:09:41Z</time>
      </trkpt>
      <trkpt lat="42.46814" lon="2.17846">
        <ele>1733</ele>
        <time>2024-09-16T09:09:43Z</time>
      </trkpt>
      <trkpt lat="42.46818" lon="2.17846">
        <ele>1733</ele>
        <time>2024-09-16T09:09:46Z</time>
      </trkpt>
      <trkpt lat="42.46821" lon="2.17846">
        <ele>1733</ele>
        <time>2024-09-16T09:09:48Z</time>
      </trkpt>
      <trkpt lat="42.46824" lon="2.17846">
        <ele>1733</ele>
        <time>2024-09-16T09:09:50Z</time>
      </trkpt>
      <trkpt lat="42.46827" lon="2.17846">
        <ele>1732</ele>
        <time>2024-09-16T09:09:53Z</time>
      </trkpt>
      <trkpt lat="42.46831" lon="2.17846">
        <ele>1731</ele>
        <time>2024-09-16T09:09:56Z</time>
      </trkpt>
      <trkpt lat="42.46835" lon="2.17847">
        <ele>1731</ele>
        <time>2024-09-16T09:09:58Z</time>
      </trkpt>
      <trkpt lat="42.46837" lon="2.1785">
        <ele>1731</ele>
        <time>2024-09-16T09:10:00Z</time>
      </trkpt>
      <trkpt lat="42.4684" lon="2.17853">
        <ele>1732</ele>
        <time>2024-09-16T09:10:03Z</time>
      </trkpt>
      <trkpt lat="42.46842" lon="2.17856">
        <ele>1731</ele>
        <time>2024-09-16T09:10:06Z</time>
      </trkpt>
      <trkpt lat="42.46844" lon="2.17859">
        <ele>1731</ele>
        <time>2024-09-16T09:10:08Z</time>
      </trkpt>
      <trkpt lat="42.46846" lon="2.17862">
        <ele>1731</ele>
        <time>2024-09-16T09:10:10Z</time>
      </trkpt>
      <trkpt lat="42.46848" lon="2.17865">
        <ele>1730</ele>
        <time>2024-09-16T09:10:12Z</time>
      </trkpt>
      <trkpt lat="42.4685" lon="2.17869">
        <ele>1731</ele>
        <time>2024-09-16T09:10:16Z</time>
      </trkpt>
      <trkpt lat="42.46852" lon="2.17872">
        <ele>1731</ele>
        <time>2024-09-16T09:10:18Z</time>
      </trkpt>
      <trkpt lat="42.46855" lon="2.17874">
        <ele>1728</ele>
        <time>2024-09-16T09:10:23Z</time>
      </trkpt>
      <trkpt lat="42.46857" lon="2.17878">
        <ele>1728</ele>
        <time>2024-09-16T09:10:25Z</time>
      </trkpt>
      <trkpt lat="42.46859" lon="2.17882">
        <ele>1728</ele>
        <time>2024-09-16T09:10:28Z</time>
      </trkpt>
      <trkpt lat="42.46862" lon="2.17886">
        <ele>1726</ele>
        <time>2024-09-16T09:10:31Z</time>
      </trkpt>
      <trkpt lat="42.46864" lon="2.17888">
        <ele>1726</ele>
        <time>2024-09-16T09:10:33Z</time>
      </trkpt>
      <trkpt lat="42.46867" lon="2.1789">
        <ele>1726</ele>
        <time>2024-09-16T09:10:36Z</time>
      </trkpt>
      <trkpt lat="42.46871" lon="2.17893">
        <ele>1726</ele>
        <time>2024-09-16T09:10:39Z</time>
      </trkpt>
      <trkpt lat="42.46874" lon="2.17894">
        <ele>1725</ele>
        <time>2024-09-16T09:10:42Z</time>
      </trkpt>
      <trkpt lat="42.46877" lon="2.17895">
        <ele>1724</ele>
        <time>2024-09-16T09:10:44Z</time>
      </trkpt>
      <trkpt lat="42.4688" lon="2.17895">
        <ele>1725</ele>
        <time>2024-09-16T09:10:46Z</time>
      </trkpt>
      <trkpt lat="42.46883" lon="2.17896">
        <ele>1724</ele>
        <time>2024-09-16T09:10:48Z</time>
      </trkpt>
      <trkpt lat="42.46886" lon="2.17897">
        <ele>1724</ele>
        <time>2024-09-16T09:10:51Z</time>
      </trkpt>
      <trkpt lat="42.46889" lon="2.17899">
        <ele>1724</ele>
        <time>2024-09-16T09:10:54Z</time>
      </trkpt>
      <trkpt lat="42.46891" lon="2.17901">
        <ele>1722</ele>
        <time>2024-09-16T09:10:58Z</time>
      </trkpt>
      <trkpt lat="42.46894" lon="2.17903">
        <ele>1721</ele>
        <time>2024-09-16T09:11:01Z</time>
      </trkpt>
      <trkpt lat="42.46897" lon="2.17904">
        <ele>1720</ele>
        <time>2024-09-16T09:11:04Z</time>
      </trkpt>
      <trkpt lat="42.469" lon="2.17904">
        <ele>1719</ele>
        <time>2024-09-16T09:11:06Z</time>
      </trkpt>
      <trkpt lat="42.46903" lon="2.17905">
        <ele>1719</ele>
        <time>2024-09-16T09:11:08Z</time>
      </trkpt>
      <trkpt lat="42.46906" lon="2.17905">
        <ele>1718</ele>
        <time>2024-09-16T09:11:10Z</time>
      </trkpt>
      <trkpt lat="42.46909" lon="2.17906">
        <ele>1718</ele>
        <time>2024-09-16T09:11:12Z</time>
      </trkpt>
      <trkpt lat="42.46912" lon="2.17907">
        <ele>1718</ele>
        <time>2024-09-16T09:11:14Z</time>
      </trkpt>
      <trkpt lat="42.46915" lon="2.17906">
        <ele>1717</ele>
        <time>2024-09-16T09:11:17Z</time>
      </trkpt>
      <trkpt lat="42.46918" lon="2.17908">
        <ele>1716</ele>
        <time>2024-09-16T09:11:21Z</time>
      </trkpt>
      <trkpt lat="42.46922" lon="2.1791">
        <ele>1715</ele>
        <time>2024-09-16T09:11:25Z</time>
      </trkpt>
      <trkpt lat="42.46925" lon="2.17911">
        <ele>1715</ele>
        <time>2024-09-16T09:11:28Z</time>
      </trkpt>
      <trkpt lat="42.46928" lon="2.17911">
        <ele>1714</ele>
        <time>2024-09-16T09:11:30Z</time>
      </trkpt>
      <trkpt lat="42.4693" lon="2.17913">
        <ele>1715</ele>
        <time>2024-09-16T09:11:33Z</time>
      </trkpt>
      <trkpt lat="42.46933" lon="2.17914">
        <ele>1715</ele>
        <time>2024-09-16T09:11:35Z</time>
      </trkpt>
      <trkpt lat="42.46937" lon="2.17916">
        <ele>1715</ele>
        <time>2024-09-16T09:11:38Z</time>
      </trkpt>
      <trkpt lat="42.46939" lon="2.17918">
        <ele>1714</ele>
        <time>2024-09-16T09:11:40Z</time>
      </trkpt>
      <trkpt lat="42.46942" lon="2.1792">
        <ele>1713</ele>
        <time>2024-09-16T09:11:43Z</time>
      </trkpt>
      <trkpt lat="42.46945" lon="2.17922">
        <ele>1713</ele>
        <time>2024-09-16T09:11:46Z</time>
      </trkpt>
      <trkpt lat="42.46949" lon="2.17922">
        <ele>1714</ele>
        <time>2024-09-16T09:11:49Z</time>
      </trkpt>
      <trkpt lat="42.46953" lon="2.17923">
        <ele>1713</ele>
        <time>2024-09-16T09:11:51Z</time>
      </trkpt>
      <trkpt lat="42.46956" lon="2.17924">
        <ele>1713</ele>
        <time>2024-09-16T09:11:53Z</time>
      </trkpt>
      <trkpt lat="42.46959" lon="2.17925">
        <ele>1712</ele>
        <time>2024-09-16T09:11:54Z</time>
      </trkpt>
      <trkpt lat="42.46962" lon="2.17925">
        <ele>1712</ele>
        <time>2024-09-16T09:11:56Z</time>
      </trkpt>
      <trkpt lat="42.46965" lon="2.17927">
        <ele>1711</ele>
        <time>2024-09-16T09:11:59Z</time>
      </trkpt>
      <trkpt lat="42.46967" lon="2.17928">
        <ele>1711</ele>
        <time>2024-09-16T09:12:02Z</time>
      </trkpt>
      <trkpt lat="42.4697" lon="2.17929">
        <ele>1711</ele>
        <time>2024-09-16T09:12:04Z</time>
      </trkpt>
      <trkpt lat="42.46974" lon="2.17931">
        <ele>1710</ele>
        <time>2024-09-16T09:12:07Z</time>
      </trkpt>
      <trkpt lat="42.46976" lon="2.17932">
        <ele>1710</ele>
        <time>2024-09-16T09:12:09Z</time>
      </trkpt>
      <trkpt lat="42.4698" lon="2.17934">
        <ele>1708</ele>
        <time>2024-09-16T09:12:13Z</time>
      </trkpt>
      <trkpt lat="42.46982" lon="2.17936">
        <ele>1709</ele>
        <time>2024-09-16T09:12:15Z</time>
      </trkpt>
      <trkpt lat="42.46985" lon="2.17938">
        <ele>1708</ele>
        <time>2024-09-16T09:12:18Z</time>
      </trkpt>
      <trkpt lat="42.46988" lon="2.17939">
        <ele>1707</ele>
        <time>2024-09-16T09:12:21Z</time>
      </trkpt>
      <trkpt lat="42.46991" lon="2.17941">
        <ele>1706</ele>
        <time>2024-09-16T09:12:23Z</time>
      </trkpt>
      <trkpt lat="42.46994" lon="2.17941">
        <ele>1707</ele>
        <time>2024-09-16T09:12:25Z</time>
      </trkpt>
      <trkpt lat="42.46998" lon="2.17942">
        <ele>1705</ele>
        <time>2024-09-16T09:12:29Z</time>
      </trkpt>
      <trkpt lat="42.47" lon="2.17944">
        <ele>1703</ele>
        <time>2024-09-16T09:12:31Z</time>
      </trkpt>
      <trkpt lat="42.47002" lon="2.17947">
        <ele>1704</ele>
        <time>2024-09-16T09:12:33Z</time>
      </trkpt>
      <trkpt lat="42.47005" lon="2.17949">
        <ele>1704</ele>
        <time>2024-09-16T09:12:35Z</time>
      </trkpt>
      <trkpt lat="42.47008" lon="2.17951">
        <ele>1706</ele>
        <time>2024-09-16T09:12:37Z</time>
      </trkpt>
      <trkpt lat="42.4701" lon="2.17953">
        <ele>1705</ele>
        <time>2024-09-16T09:12:39Z</time>
      </trkpt>
      <trkpt lat="42.47012" lon="2.17955">
        <ele>1704</ele>
        <time>2024-09-16T09:12:41Z</time>
      </trkpt>
      <trkpt lat="42.47015" lon="2.17957">
        <ele>1704</ele>
        <time>2024-09-16T09:12:43Z</time>
      </trkpt>
      <trkpt lat="42.47018" lon="2.17959">
        <ele>1701</ele>
        <time>2024-09-16T09:12:47Z</time>
      </trkpt>
      <trkpt lat="42.47021" lon="2.17961">
        <ele>1701</ele>
        <time>2024-09-16T09:12:50Z</time>
      </trkpt>
      <trkpt lat="42.47024" lon="2.17963">
        <ele>1700</ele>
        <time>2024-09-16T09:12:53Z</time>
      </trkpt>
      <trkpt lat="42.47026" lon="2.17966">
        <ele>1700</ele>
        <time>2024-09-16T09:12:56Z</time>
      </trkpt>
      <trkpt lat="42.47029" lon="2.17968">
        <ele>1700</ele>
        <time>2024-09-16T09:12:58Z</time>
      </trkpt>
      <trkpt lat="42.47032" lon="2.17969">
        <ele>1700</ele>
        <time>2024-09-16T09:13:02Z</time>
      </trkpt>
      <trkpt lat="42.47035" lon="2.1797">
        <ele>1700</ele>
        <time>2024-09-16T09:13:04Z</time>
      </trkpt>
      <trkpt lat="42.47037" lon="2.17972">
        <ele>1699</ele>
        <time>2024-09-16T09:13:06Z</time>
      </trkpt>
      <trkpt lat="42.4704" lon="2.17975">
        <ele>1699</ele>
        <time>2024-09-16T09:13:09Z</time>
      </trkpt>
      <trkpt lat="42.47043" lon="2.17977">
        <ele>1700</ele>
        <time>2024-09-16T09:13:12Z</time>
      </trkpt>
      <trkpt lat="42.47046" lon="2.1798">
        <ele>1700</ele>
        <time>2024-09-16T09:13:16Z</time>
      </trkpt>
      <trkpt lat="42.4705" lon="2.17982">
        <ele>1700</ele>
        <time>2024-09-16T09:13:19Z</time>
      </trkpt>
      <trkpt lat="42.47053" lon="2.17983">
        <ele>1701</ele>
        <time>2024-09-16T09:13:25Z</time>
      </trkpt>
      <trkpt lat="42.47056" lon="2.17984">
        <ele>1700</ele>
        <time>2024-09-16T09:13:27Z</time>
      </trkpt>
      <trkpt lat="42.47059" lon="2.17987">
        <ele>1700</ele>
        <time>2024-09-16T09:13:29Z</time>
      </trkpt>
      <trkpt lat="42.47061" lon="2.17989">
        <ele>1702</ele>
        <time>2024-09-16T09:13:31Z</time>
      </trkpt>
      <trkpt lat="42.47064" lon="2.17991">
        <ele>1702</ele>
        <time>2024-09-16T09:13:33Z</time>
      </trkpt>
      <trkpt lat="42.47067" lon="2.17992">
        <ele>1702</ele>
        <time>2024-09-16T09:13:35Z</time>
      </trkpt>
      <trkpt lat="42.4707" lon="2.17994">
        <ele>1703</ele>
        <time>2024-09-16T09:13:37Z</time>
      </trkpt>
      <trkpt lat="42.47073" lon="2.17994">
        <ele>1703</ele>
        <time>2024-09-16T09:13:40Z</time>
      </trkpt>
      <trkpt lat="42.47077" lon="2.17995">
        <ele>1702</ele>
        <time>2024-09-16T09:13:43Z</time>
      </trkpt>
      <trkpt lat="42.4708" lon="2.17997">
        <ele>1700</ele>
        <time>2024-09-16T09:13:46Z</time>
      </trkpt>
      <trkpt lat="42.47083" lon="2.17999">
        <ele>1700</ele>
        <time>2024-09-16T09:13:48Z</time>
      </trkpt>
      <trkpt lat="42.47085" lon="2.18001">
        <ele>1699</ele>
        <time>2024-09-16T09:13:50Z</time>
      </trkpt>
      <trkpt lat="42.47088" lon="2.18004">
        <ele>1700</ele>
        <time>2024-09-16T09:13:52Z</time>
      </trkpt>
      <trkpt lat="42.4709" lon="2.18007">
        <ele>1699</ele>
        <time>2024-09-16T09:13:55Z</time>
      </trkpt>
      <trkpt lat="42.4709" lon="2.18011">
        <ele>1698</ele>
        <time>2024-09-16T09:13:56Z</time>
      </trkpt>
      <trkpt lat="42.47091" lon="2.18015">
        <ele>1699</ele>
        <time>2024-09-16T09:13:58Z</time>
      </trkpt>
      <trkpt lat="42.47093" lon="2.18019">
        <ele>1700</ele>
        <time>2024-09-16T09:14:01Z</time>
      </trkpt>
      <trkpt lat="42.47095" lon="2.18023">
        <ele>1700</ele>
        <time>2024-09-16T09:14:04Z</time>
      </trkpt>
      <trkpt lat="42.47097" lon="2.18028">
        <ele>1702</ele>
        <time>2024-09-16T09:14:08Z</time>
      </trkpt>
      <trkpt lat="42.47099" lon="2.18029">
        <ele>1702</ele>
        <time>2024-09-16T09:14:10Z</time>
      </trkpt>
      <trkpt lat="42.47102" lon="2.18029">
        <ele>1702</ele>
        <time>2024-09-16T09:14:12Z</time>
      </trkpt>
      <trkpt lat="42.47105" lon="2.18028">
        <ele>1702</ele>
        <time>2024-09-16T09:14:14Z</time>
      </trkpt>
      <trkpt lat="42.47109" lon="2.18028">
        <ele>1701</ele>
        <time>2024-09-16T09:14:17Z</time>
      </trkpt>
      <trkpt lat="42.47112" lon="2.18026">
        <ele>1702</ele>
        <time>2024-09-16T09:14:20Z</time>
      </trkpt>
      <trkpt lat="42.47116" lon="2.18025">
        <ele>1703</ele>
        <time>2024-09-16T09:14:23Z</time>
      </trkpt>
      <trkpt lat="42.47118" lon="2.18024">
        <ele>1702</ele>
        <time>2024-09-16T09:14:25Z</time>
      </trkpt>
      <trkpt lat="42.47122" lon="2.18024">
        <ele>1701</ele>
        <time>2024-09-16T09:14:28Z</time>
      </trkpt>
      <trkpt lat="42.47125" lon="2.18023">
        <ele>1700</ele>
        <time>2024-09-16T09:14:31Z</time>
      </trkpt>
      <trkpt lat="42.47128" lon="2.18024">
        <ele>1701</ele>
        <time>2024-09-16T09:14:33Z</time>
      </trkpt>
      <trkpt lat="42.47132" lon="2.18024">
        <ele>1701</ele>
        <time>2024-09-16T09:14:36Z</time>
      </trkpt>
      <trkpt lat="42.47135" lon="2.18023">
        <ele>1700</ele>
        <time>2024-09-16T09:14:39Z</time>
      </trkpt>
      <trkpt lat="42.47138" lon="2.18023">
        <ele>1700</ele>
        <time>2024-09-16T09:14:41Z</time>
      </trkpt>
      <trkpt lat="42.47141" lon="2.18023">
        <ele>1700</ele>
        <time>2024-09-16T09:14:43Z</time>
      </trkpt>
      <trkpt lat="42.47144" lon="2.18022">
        <ele>1700</ele>
        <time>2024-09-16T09:14:47Z</time>
      </trkpt>
      <trkpt lat="42.47147" lon="2.18023">
        <ele>1700</ele>
        <time>2024-09-16T09:14:49Z</time>
      </trkpt>
      <trkpt lat="42.47151" lon="2.18023">
        <ele>1701</ele>
        <time>2024-09-16T09:14:51Z</time>
      </trkpt>
      <trkpt lat="42.47154" lon="2.18024">
        <ele>1700</ele>
        <time>2024-09-16T09:14:54Z</time>
      </trkpt>
      <trkpt lat="42.47157" lon="2.18026">
        <ele>1700</ele>
        <time>2024-09-16T09:14:57Z</time>
      </trkpt>
      <trkpt lat="42.47159" lon="2.18029">
        <ele>1700</ele>
        <time>2024-09-16T09:15:00Z</time>
      </trkpt>
      <trkpt lat="42.47162" lon="2.18029">
        <ele>1700</ele>
        <time>2024-09-16T09:15:02Z</time>
      </trkpt>
      <trkpt lat="42.47165" lon="2.18031">
        <ele>1698</ele>
        <time>2024-09-16T09:15:05Z</time>
      </trkpt>
      <trkpt lat="42.47168" lon="2.18033">
        <ele>1699</ele>
        <time>2024-09-16T09:15:08Z</time>
      </trkpt>
      <trkpt lat="42.47172" lon="2.18034">
        <ele>1698</ele>
        <time>2024-09-16T09:15:10Z</time>
      </trkpt>
      <trkpt lat="42.47175" lon="2.18034">
        <ele>1698</ele>
        <time>2024-09-16T09:15:12Z</time>
      </trkpt>
      <trkpt lat="42.47178" lon="2.18035">
        <ele>1697</ele>
        <time>2024-09-16T09:15:15Z</time>
      </trkpt>
      <trkpt lat="42.47181" lon="2.18034">
        <ele>1696</ele>
        <time>2024-09-16T09:15:18Z</time>
      </trkpt>
      <trkpt lat="42.47185" lon="2.18035">
        <ele>1696</ele>
        <time>2024-09-16T09:15:21Z</time>
      </trkpt>
      <trkpt lat="42.47188" lon="2.18035">
        <ele>1697</ele>
        <time>2024-09-16T09:15:23Z</time>
      </trkpt>
      <trkpt lat="42.47191" lon="2.18034">
        <ele>1697</ele>
        <time>2024-09-16T09:15:25Z</time>
      </trkpt>
      <trkpt lat="42.47194" lon="2.18034">
        <ele>1696</ele>
        <time>2024-09-16T09:15:28Z</time>
      </trkpt>
      <trkpt lat="42.47198" lon="2.18034">
        <ele>1697</ele>
        <time>2024-09-16T09:15:32Z</time>
      </trkpt>
      <trkpt lat="42.47201" lon="2.18035">
        <ele>1697</ele>
        <time>2024-09-16T09:15:35Z</time>
      </trkpt>
      <trkpt lat="42.47204" lon="2.18036">
        <ele>1696</ele>
        <time>2024-09-16T09:15:38Z</time>
      </trkpt>
      <trkpt lat="42.47207" lon="2.18037">
        <ele>1695</ele>
        <time>2024-09-16T09:15:40Z</time>
      </trkpt>
      <trkpt lat="42.4721" lon="2.1804">
        <ele>1695</ele>
        <time>2024-09-16T09:15:43Z</time>
      </trkpt>
      <trkpt lat="42.47212" lon="2.18043">
        <ele>1695</ele>
        <time>2024-09-16T09:15:46Z</time>
      </trkpt>
      <trkpt lat="42.47215" lon="2.18046">
        <ele>1695</ele>
        <time>2024-09-16T09:15:48Z</time>
      </trkpt>
      <trkpt lat="42.47217" lon="2.1805">
        <ele>1695</ele>
        <time>2024-09-16T09:15:51Z</time>
      </trkpt>
      <trkpt lat="42.47219" lon="2.18053">
        <ele>1693</ele>
        <time>2024-09-16T09:15:53Z</time>
      </trkpt>
      <trkpt lat="42.47221" lon="2.18057">
        <ele>1694</ele>
        <time>2024-09-16T09:15:55Z</time>
      </trkpt>
      <trkpt lat="42.47224" lon="2.1806">
        <ele>1694</ele>
        <time>2024-09-16T09:15:58Z</time>
      </trkpt>
      <trkpt lat="42.47227" lon="2.18062">
        <ele>1694</ele>
        <time>2024-09-16T09:16:01Z</time>
      </trkpt>
      <trkpt lat="42.4723" lon="2.18064">
        <ele>1693</ele>
        <time>2024-09-16T09:16:03Z</time>
      </trkpt>
      <trkpt lat="42.47233" lon="2.18065">
        <ele>1693</ele>
        <time>2024-09-16T09:16:05Z</time>
      </trkpt>
      <trkpt lat="42.47235" lon="2.18066">
        <ele>1694</ele>
        <time>2024-09-16T09:16:07Z</time>
      </trkpt>
      <trkpt lat="42.47239" lon="2.18065">
        <ele>1694</ele>
        <time>2024-09-16T09:16:11Z</time>
      </trkpt>
      <trkpt lat="42.47242" lon="2.18065">
        <ele>1693</ele>
        <time>2024-09-16T09:16:13Z</time>
      </trkpt>
      <trkpt lat="42.47245" lon="2.18064">
        <ele>1693</ele>
        <time>2024-09-16T09:16:15Z</time>
      </trkpt>
      <trkpt lat="42.47248" lon="2.18063">
        <ele>1693</ele>
        <time>2024-09-16T09:16:17Z</time>
      </trkpt>
      <trkpt lat="42.47251" lon="2.18061">
        <ele>1693</ele>
        <time>2024-09-16T09:16:20Z</time>
      </trkpt>
      <trkpt lat="42.47254" lon="2.18061">
        <ele>1693</ele>
        <time>2024-09-16T09:16:21Z</time>
      </trkpt>
      <trkpt lat="42.47257" lon="2.18059">
        <ele>1692</ele>
        <time>2024-09-16T09:16:24Z</time>
      </trkpt>
      <trkpt lat="42.4726" lon="2.18059">
        <ele>1691</ele>
        <time>2024-09-16T09:16:27Z</time>
      </trkpt>
      <trkpt lat="42.47264" lon="2.1806">
        <ele>1690</ele>
        <time>2024-09-16T09:16:30Z</time>
      </trkpt>
      <trkpt lat="42.47267" lon="2.1806">
        <ele>1690</ele>
        <time>2024-09-16T09:16:32Z</time>
      </trkpt>
      <trkpt lat="42.47271" lon="2.18062">
        <ele>1689</ele>
        <time>2024-09-16T09:16:35Z</time>
      </trkpt>
      <trkpt lat="42.47274" lon="2.18064">
        <ele>1690</ele>
        <time>2024-09-16T09:16:38Z</time>
      </trkpt>
      <trkpt lat="42.47277" lon="2.18065">
        <ele>1689</ele>
        <time>2024-09-16T09:16:40Z</time>
      </trkpt>
      <trkpt lat="42.4728" lon="2.18067">
        <ele>1689</ele>
        <time>2024-09-16T09:16:42Z</time>
      </trkpt>
      <trkpt lat="42.47283" lon="2.18069">
        <ele>1689</ele>
        <time>2024-09-16T09:16:45Z</time>
      </trkpt>
      <trkpt lat="42.47286" lon="2.18071">
        <ele>1689</ele>
        <time>2024-09-16T09:16:47Z</time>
      </trkpt>
      <trkpt lat="42.47289" lon="2.18074">
        <ele>1688</ele>
        <time>2024-09-16T09:16:50Z</time>
      </trkpt>
      <trkpt lat="42.47292" lon="2.18076">
        <ele>1688</ele>
        <time>2024-09-16T09:16:53Z</time>
      </trkpt>
      <trkpt lat="42.47293" lon="2.18079">
        <ele>1687</ele>
        <time>2024-09-16T09:16:55Z</time>
      </trkpt>
      <trkpt lat="42.47296" lon="2.18081">
        <ele>1687</ele>
        <time>2024-09-16T09:16:58Z</time>
      </trkpt>
      <trkpt lat="42.47298" lon="2.18084">
        <ele>1686</ele>
        <time>2024-09-16T09:17:01Z</time>
      </trkpt>
      <trkpt lat="42.47301" lon="2.18087">
        <ele>1686</ele>
        <time>2024-09-16T09:17:04Z</time>
      </trkpt>
      <trkpt lat="42.47304" lon="2.18088">
        <ele>1686</ele>
        <time>2024-09-16T09:17:06Z</time>
      </trkpt>
      <trkpt lat="42.47308" lon="2.1809">
        <ele>1686</ele>
        <time>2024-09-16T09:17:09Z</time>
      </trkpt>
      <trkpt lat="42.47311" lon="2.18093">
        <ele>1685</ele>
        <time>2024-09-16T09:17:12Z</time>
      </trkpt>
      <trkpt lat="42.47314" lon="2.18096">
        <ele>1687</ele>
        <time>2024-09-16T09:17:15Z</time>
      </trkpt>
      <trkpt lat="42.47317" lon="2.18096">
        <ele>1686</ele>
        <time>2024-09-16T09:17:17Z</time>
      </trkpt>
      <trkpt lat="42.4732" lon="2.18096">
        <ele>1686</ele>
        <time>2024-09-16T09:17:20Z</time>
      </trkpt>
      <trkpt lat="42.47324" lon="2.18097">
        <ele>1685</ele>
        <time>2024-09-16T09:17:25Z</time>
      </trkpt>
      <trkpt lat="42.47327" lon="2.18098">
        <ele>1685</ele>
        <time>2024-09-16T09:17:27Z</time>
      </trkpt>
      <trkpt lat="42.4733" lon="2.18098">
        <ele>1685</ele>
        <time>2024-09-16T09:17:30Z</time>
      </trkpt>
      <trkpt lat="42.47333" lon="2.18099">
        <ele>1685</ele>
        <time>2024-09-16T09:17:32Z</time>
      </trkpt>
      <trkpt lat="42.47336" lon="2.181">
        <ele>1684</ele>
        <time>2024-09-16T09:17:35Z</time>
      </trkpt>
      <trkpt lat="42.47339" lon="2.18101">
        <ele>1684</ele>
        <time>2024-09-16T09:17:38Z</time>
      </trkpt>
      <trkpt lat="42.47342" lon="2.18102">
        <ele>1685</ele>
        <time>2024-09-16T09:17:41Z</time>
      </trkpt>
      <trkpt lat="42.47345" lon="2.18102">
        <ele>1684</ele>
        <time>2024-09-16T09:17:43Z</time>
      </trkpt>
      <trkpt lat="42.47349" lon="2.18103">
        <ele>1684</ele>
        <time>2024-09-16T09:17:46Z</time>
      </trkpt>
      <trkpt lat="42.47352" lon="2.18103">
        <ele>1684</ele>
        <time>2024-09-16T09:17:49Z</time>
      </trkpt>
      <trkpt lat="42.47355" lon="2.18105">
        <ele>1684</ele>
        <time>2024-09-16T09:17:54Z</time>
      </trkpt>
      <trkpt lat="42.47358" lon="2.18105">
        <ele>1685</ele>
        <time>2024-09-16T09:17:56Z</time>
      </trkpt>
      <trkpt lat="42.47361" lon="2.18106">
        <ele>1684</ele>
        <time>2024-09-16T09:17:58Z</time>
      </trkpt>
      <trkpt lat="42.47364" lon="2.18107">
        <ele>1685</ele>
        <time>2024-09-16T09:18:00Z</time>
      </trkpt>
      <trkpt lat="42.47367" lon="2.18108">
        <ele>1684</ele>
        <time>2024-09-16T09:18:03Z</time>
      </trkpt>
      <trkpt lat="42.47371" lon="2.1811">
        <ele>1684</ele>
        <time>2024-09-16T09:18:06Z</time>
      </trkpt>
      <trkpt lat="42.47374" lon="2.18111">
        <ele>1684</ele>
        <time>2024-09-16T09:18:08Z</time>
      </trkpt>
      <trkpt lat="42.47378" lon="2.18112">
        <ele>1683</ele>
        <time>2024-09-16T09:18:10Z</time>
      </trkpt>
      <trkpt lat="42.47382" lon="2.18112">
        <ele>1684</ele>
        <time>2024-09-16T09:18:13Z</time>
      </trkpt>
      <trkpt lat="42.47385" lon="2.18113">
        <ele>1682</ele>
        <time>2024-09-16T09:18:16Z</time>
      </trkpt>
      <trkpt lat="42.47389" lon="2.18114">
        <ele>1683</ele>
        <time>2024-09-16T09:18:19Z</time>
      </trkpt>
      <trkpt lat="42.47392" lon="2.18113">
        <ele>1682</ele>
        <time>2024-09-16T09:18:21Z</time>
      </trkpt>
      <trkpt lat="42.47396" lon="2.18113">
        <ele>1683</ele>
        <time>2024-09-16T09:18:24Z</time>
      </trkpt>
      <trkpt lat="42.47399" lon="2.18112">
        <ele>1684</ele>
        <time>2024-09-16T09:18:26Z</time>
      </trkpt>
      <trkpt lat="42.47402" lon="2.18112">
        <ele>1684</ele>
        <time>2024-09-16T09:18:28Z</time>
      </trkpt>
      <trkpt lat="42.47405" lon="2.18112">
        <ele>1684</ele>
        <time>2024-09-16T09:18:31Z</time>
      </trkpt>
      <trkpt lat="42.47409" lon="2.18112">
        <ele>1684</ele>
        <time>2024-09-16T09:18:34Z</time>
      </trkpt>
      <trkpt lat="42.47413" lon="2.18111">
        <ele>1684</ele>
        <time>2024-09-16T09:18:37Z</time>
      </trkpt>
      <trkpt lat="42.47416" lon="2.18111">
        <ele>1684</ele>
        <time>2024-09-16T09:18:40Z</time>
      </trkpt>
      <trkpt lat="42.47419" lon="2.1811">
        <ele>1683</ele>
        <time>2024-09-16T09:18:43Z</time>
      </trkpt>
      <trkpt lat="42.47422" lon="2.1811">
        <ele>1683</ele>
        <time>2024-09-16T09:18:49Z</time>
      </trkpt>
      <trkpt lat="42.47426" lon="2.18111">
        <ele>1683</ele>
        <time>2024-09-16T09:19:07Z</time>
      </trkpt>
      <trkpt lat="42.4743" lon="2.18112">
        <ele>1681</ele>
        <time>2024-09-16T09:19:10Z</time>
      </trkpt>
      <trkpt lat="42.47434" lon="2.18112">
        <ele>1683</ele>
        <time>2024-09-16T09:19:13Z</time>
      </trkpt>
      <trkpt lat="42.47438" lon="2.18113">
        <ele>1680</ele>
        <time>2024-09-16T09:19:17Z</time>
      </trkpt>
      <trkpt lat="42.47441" lon="2.18113">
        <ele>1679</ele>
        <time>2024-09-16T09:19:19Z</time>
      </trkpt>
      <trkpt lat="42.47445" lon="2.18113">
        <ele>1679</ele>
        <time>2024-09-16T09:19:21Z</time>
      </trkpt>
      <trkpt lat="42.47448" lon="2.18114">
        <ele>1678</ele>
        <time>2024-09-16T09:19:25Z</time>
      </trkpt>
      <trkpt lat="42.47452" lon="2.18113">
        <ele>1678</ele>
        <time>2024-09-16T09:19:27Z</time>
      </trkpt>
      <trkpt lat="42.47456" lon="2.18113">
        <ele>1676</ele>
        <time>2024-09-16T09:19:30Z</time>
      </trkpt>
      <trkpt lat="42.47459" lon="2.18113">
        <ele>1676</ele>
        <time>2024-09-16T09:19:33Z</time>
      </trkpt>
      <trkpt lat="42.47462" lon="2.18111">
        <ele>1677</ele>
        <time>2024-09-16T09:19:35Z</time>
      </trkpt>
      <trkpt lat="42.47465" lon="2.1811">
        <ele>1675</ele>
        <time>2024-09-16T09:19:38Z</time>
      </trkpt>
      <trkpt lat="42.47469" lon="2.1811">
        <ele>1675</ele>
        <time>2024-09-16T09:19:40Z</time>
      </trkpt>
      <trkpt lat="42.47472" lon="2.18109">
        <ele>1675</ele>
        <time>2024-09-16T09:19:44Z</time>
      </trkpt>
      <trkpt lat="42.47476" lon="2.18109">
        <ele>1675</ele>
        <time>2024-09-16T09:19:46Z</time>
      </trkpt>
      <trkpt lat="42.47479" lon="2.1811">
        <ele>1675</ele>
        <time>2024-09-16T09:19:49Z</time>
      </trkpt>
      <trkpt lat="42.47482" lon="2.1811">
        <ele>1675</ele>
        <time>2024-09-16T09:19:52Z</time>
      </trkpt>
      <trkpt lat="42.47485" lon="2.18109">
        <ele>1675</ele>
        <time>2024-09-16T09:19:54Z</time>
      </trkpt>
      <trkpt lat="42.47488" lon="2.18109">
        <ele>1675</ele>
        <time>2024-09-16T09:19:56Z</time>
      </trkpt>
      <trkpt lat="42.47491" lon="2.18109">
        <ele>1674</ele>
        <time>2024-09-16T09:19:59Z</time>
      </trkpt>
      <trkpt lat="42.47493" lon="2.18109">
        <ele>1674</ele>
        <time>2024-09-16T09:20:01Z</time>
      </trkpt>
      <trkpt lat="42.47496" lon="2.18109">
        <ele>1673</ele>
        <time>2024-09-16T09:20:04Z</time>
      </trkpt>
      <trkpt lat="42.475" lon="2.1811">
        <ele>1672</ele>
        <time>2024-09-16T09:20:07Z</time>
      </trkpt>
      <trkpt lat="42.47503" lon="2.1811">
        <ele>1672</ele>
        <time>2024-09-16T09:20:10Z</time>
      </trkpt>
      <trkpt lat="42.47507" lon="2.18111">
        <ele>1671</ele>
        <time>2024-09-16T09:20:13Z</time>
      </trkpt>
      <trkpt lat="42.47511" lon="2.18111">
        <ele>1671</ele>
        <time>2024-09-16T09:20:15Z</time>
      </trkpt>
      <trkpt lat="42.47514" lon="2.18111">
        <ele>1669</ele>
        <time>2024-09-16T09:20:18Z</time>
      </trkpt>
      <trkpt lat="42.47518" lon="2.1811">
        <ele>1669</ele>
        <time>2024-09-16T09:20:20Z</time>
      </trkpt>
      <trkpt lat="42.47521" lon="2.18111">
        <ele>1670</ele>
        <time>2024-09-16T09:20:22Z</time>
      </trkpt>
      <trkpt lat="42.47524" lon="2.1811">
        <ele>1670</ele>
        <time>2024-09-16T09:20:24Z</time>
      </trkpt>
      <trkpt lat="42.47527" lon="2.18109">
        <ele>1669</ele>
        <time>2024-09-16T09:20:28Z</time>
      </trkpt>
      <trkpt lat="42.47531" lon="2.18107">
        <ele>1669</ele>
        <time>2024-09-16T09:20:31Z</time>
      </trkpt>
      <trkpt lat="42.47532" lon="2.1811">
        <ele>1672</ele>
        <time>2024-09-16T09:20:37Z</time>
      </trkpt>
      <trkpt lat="42.47533" lon="2.18108">
        <ele>1672</ele>
        <time>2024-09-16T09:20:42Z</time>
      </trkpt>
      <trkpt lat="42.47534" lon="2.1811">
        <ele>1672</ele>
        <time>2024-09-16T09:20:45Z</time>
      </trkpt>
      <trkpt lat="42.47535" lon="2.18112">
        <ele>1672</ele>
        <time>2024-09-16T09:20:47Z</time>
      </trkpt>
      <trkpt lat="42.47537" lon="2.18115">
        <ele>1672</ele>
        <time>2024-09-16T09:20:49Z</time>
      </trkpt>
      <trkpt lat="42.47539" lon="2.18118">
        <ele>1673</ele>
        <time>2024-09-16T09:20:51Z</time>
      </trkpt>
      <trkpt lat="42.47541" lon="2.1812">
        <ele>1674</ele>
        <time>2024-09-16T09:20:57Z</time>
      </trkpt>
      <trkpt lat="42.47544" lon="2.18122">
        <ele>1674</ele>
        <time>2024-09-16T09:20:59Z</time>
      </trkpt>
      <trkpt lat="42.47548" lon="2.18122">
        <ele>1674</ele>
        <time>2024-09-16T09:21:02Z</time>
      </trkpt>
      <trkpt lat="42.47551" lon="2.18122">
        <ele>1674</ele>
        <time>2024-09-16T09:21:04Z</time>
      </trkpt>
      <trkpt lat="42.47554" lon="2.18121">
        <ele>1675</ele>
        <time>2024-09-16T09:21:08Z</time>
      </trkpt>
      <trkpt lat="42.47558" lon="2.18122">
        <ele>1675</ele>
        <time>2024-09-16T09:21:11Z</time>
      </trkpt>
      <trkpt lat="42.4756" lon="2.18123">
        <ele>1674</ele>
        <time>2024-09-16T09:21:15Z</time>
      </trkpt>
      <trkpt lat="42.47563" lon="2.18125">
        <ele>1675</ele>
        <time>2024-09-16T09:21:16Z</time>
      </trkpt>
      <trkpt lat="42.47567" lon="2.18126">
        <ele>1676</ele>
        <time>2024-09-16T09:21:20Z</time>
      </trkpt>
      <trkpt lat="42.4757" lon="2.18129">
        <ele>1676</ele>
        <time>2024-09-16T09:21:25Z</time>
      </trkpt>
      <trkpt lat="42.47573" lon="2.18132">
        <ele>1676</ele>
        <time>2024-09-16T09:21:29Z</time>
      </trkpt>
      <trkpt lat="42.47576" lon="2.18134">
        <ele>1676</ele>
        <time>2024-09-16T09:21:32Z</time>
      </trkpt>
      <trkpt lat="42.47579" lon="2.18137">
        <ele>1676</ele>
        <time>2024-09-16T09:21:34Z</time>
      </trkpt>
      <trkpt lat="42.47582" lon="2.18138">
        <ele>1676</ele>
        <time>2024-09-16T09:21:38Z</time>
      </trkpt>
      <trkpt lat="42.47585" lon="2.1814">
        <ele>1676</ele>
        <time>2024-09-16T09:21:42Z</time>
      </trkpt>
      <trkpt lat="42.47587" lon="2.18141">
        <ele>1677</ele>
        <time>2024-09-16T09:21:46Z</time>
      </trkpt>
      <trkpt lat="42.4759" lon="2.18143">
        <ele>1678</ele>
        <time>2024-09-16T09:21:50Z</time>
      </trkpt>
      <trkpt lat="42.47593" lon="2.18144">
        <ele>1679</ele>
        <time>2024-09-16T09:21:53Z</time>
      </trkpt>
      <trkpt lat="42.47596" lon="2.18146">
        <ele>1678</ele>
        <time>2024-09-16T09:21:57Z</time>
      </trkpt>
      <trkpt lat="42.47599" lon="2.18148">
        <ele>1678</ele>
        <time>2024-09-16T09:22:01Z</time>
      </trkpt>
      <trkpt lat="42.47602" lon="2.1815">
        <ele>1679</ele>
        <time>2024-09-16T09:22:04Z</time>
      </trkpt>
      <trkpt lat="42.47605" lon="2.18151">
        <ele>1679</ele>
        <time>2024-09-16T09:22:08Z</time>
      </trkpt>
      <trkpt lat="42.47608" lon="2.18152">
        <ele>1680</ele>
        <time>2024-09-16T09:22:11Z</time>
      </trkpt>
      <trkpt lat="42.47612" lon="2.18154">
        <ele>1681</ele>
        <time>2024-09-16T09:22:15Z</time>
      </trkpt>
      <trkpt lat="42.47615" lon="2.18156">
        <ele>1682</ele>
        <time>2024-09-16T09:22:18Z</time>
      </trkpt>
      <trkpt lat="42.47617" lon="2.18157">
        <ele>1681</ele>
        <time>2024-09-16T09:22:21Z</time>
      </trkpt>
      <trkpt lat="42.4762" lon="2.18159">
        <ele>1682</ele>
        <time>2024-09-16T09:22:23Z</time>
      </trkpt>
      <trkpt lat="42.47623" lon="2.18159">
        <ele>1682</ele>
        <time>2024-09-16T09:22:26Z</time>
      </trkpt>
      <trkpt lat="42.47626" lon="2.18161">
        <ele>1683</ele>
        <time>2024-09-16T09:22:29Z</time>
      </trkpt>
      <trkpt lat="42.47629" lon="2.18162">
        <ele>1682</ele>
        <time>2024-09-16T09:22:32Z</time>
      </trkpt>
      <trkpt lat="42.47631" lon="2.18164">
        <ele>1683</ele>
        <time>2024-09-16T09:22:35Z</time>
      </trkpt>
      <trkpt lat="42.47634" lon="2.18166">
        <ele>1683</ele>
        <time>2024-09-16T09:22:38Z</time>
      </trkpt>
      <trkpt lat="42.47636" lon="2.18168">
        <ele>1683</ele>
        <time>2024-09-16T09:22:41Z</time>
      </trkpt>
      <trkpt lat="42.47636" lon="2.18173">
        <ele>1683</ele>
        <time>2024-09-16T09:22:45Z</time>
      </trkpt>
      <trkpt lat="42.47636" lon="2.18176">
        <ele>1684</ele>
        <time>2024-09-16T09:22:48Z</time>
      </trkpt>
      <trkpt lat="42.47634" lon="2.1818">
        <ele>1686</ele>
        <time>2024-09-16T09:23:59Z</time>
      </trkpt>
      <trkpt lat="42.47633" lon="2.18184">
        <ele>1684</ele>
        <time>2024-09-16T09:24:07Z</time>
      </trkpt>
      <trkpt lat="42.47631" lon="2.18186">
        <ele>1685</ele>
        <time>2024-09-16T09:24:39Z</time>
      </trkpt>
      <trkpt lat="42.47629" lon="2.18189">
        <ele>1685</ele>
        <time>2024-09-16T09:24:41Z</time>
      </trkpt>
      <trkpt lat="42.47628" lon="2.18193">
        <ele>1684</ele>
        <time>2024-09-16T09:24:44Z</time>
      </trkpt>
      <trkpt lat="42.47626" lon="2.18197">
        <ele>1684</ele>
        <time>2024-09-16T09:24:47Z</time>
      </trkpt>
      <trkpt lat="42.47625" lon="2.18201">
        <ele>1684</ele>
        <time>2024-09-16T09:24:50Z</time>
      </trkpt>
      <trkpt lat="42.47623" lon="2.18204">
        <ele>1686</ele>
        <time>2024-09-16T09:25:52Z</time>
      </trkpt>
      <trkpt lat="42.4762" lon="2.18204">
        <ele>1686</ele>
        <time>2024-09-16T09:25:58Z</time>
      </trkpt>
      <trkpt lat="42.47617" lon="2.18204">
        <ele>1686</ele>
        <time>2024-09-16T09:26:03Z</time>
      </trkpt>
      <trkpt lat="42.47614" lon="2.18204">
        <ele>1686</ele>
        <time>2024-09-16T09:26:07Z</time>
      </trkpt>
      <trkpt lat="42.47611" lon="2.18204">
        <ele>1686</ele>
        <time>2024-09-16T09:26:14Z</time>
      </trkpt>
      <trkpt lat="42.47608" lon="2.18205">
        <ele>1687</ele>
        <time>2024-09-16T09:26:16Z</time>
      </trkpt>
      <trkpt lat="42.47606" lon="2.18207">
        <ele>1687</ele>
        <time>2024-09-16T09:26:19Z</time>
      </trkpt>
      <trkpt lat="42.47604" lon="2.1821">
        <ele>1687</ele>
        <time>2024-09-16T09:26:23Z</time>
      </trkpt>
      <trkpt lat="42.47602" lon="2.18213">
        <ele>1688</ele>
        <time>2024-09-16T09:26:27Z</time>
      </trkpt>
      <trkpt lat="42.47599" lon="2.18215">
        <ele>1689</ele>
        <time>2024-09-16T09:26:30Z</time>
      </trkpt>
      <trkpt lat="42.47596" lon="2.18218">
        <ele>1689</ele>
        <time>2024-09-16T09:26:33Z</time>
      </trkpt>
      <trkpt lat="42.47593" lon="2.18221">
        <ele>1689</ele>
        <time>2024-09-16T09:26:36Z</time>
      </trkpt>
      <trkpt lat="42.47591" lon="2.18224">
        <ele>1690</ele>
        <time>2024-09-16T09:26:40Z</time>
      </trkpt>
      <trkpt lat="42.4759" lon="2.18228">
        <ele>1690</ele>
        <time>2024-09-16T09:26:43Z</time>
      </trkpt>
      <trkpt lat="42.47589" lon="2.18231">
        <ele>1691</ele>
        <time>2024-09-16T09:26:46Z</time>
      </trkpt>
      <trkpt lat="42.47588" lon="2.18235">
        <ele>1692</ele>
        <time>2024-09-16T09:26:49Z</time>
      </trkpt>
      <trkpt lat="42.47587" lon="2.18238">
        <ele>1693</ele>
        <time>2024-09-16T09:26:52Z</time>
      </trkpt>
      <trkpt lat="42.47587" lon="2.18242">
        <ele>1692</ele>
        <time>2024-09-16T09:26:55Z</time>
      </trkpt>
      <trkpt lat="42.47587" lon="2.18247">
        <ele>1692</ele>
        <time>2024-09-16T09:26:58Z</time>
      </trkpt>
      <trkpt lat="42.47587" lon="2.18251">
        <ele>1692</ele>
        <time>2024-09-16T09:27:02Z</time>
      </trkpt>
      <trkpt lat="42.47587" lon="2.18256">
        <ele>1693</ele>
        <time>2024-09-16T09:27:05Z</time>
      </trkpt>
      <trkpt lat="42.47586" lon="2.18261">
        <ele>1693</ele>
        <time>2024-09-16T09:27:09Z</time>
      </trkpt>
      <trkpt lat="42.47585" lon="2.18265">
        <ele>1692</ele>
        <time>2024-09-16T09:27:13Z</time>
      </trkpt>
      <trkpt lat="42.47583" lon="2.18269">
        <ele>1693</ele>
        <time>2024-09-16T09:27:17Z</time>
      </trkpt>
      <trkpt lat="42.47581" lon="2.18272">
        <ele>1693</ele>
        <time>2024-09-16T09:27:21Z</time>
      </trkpt>
      <trkpt lat="42.47578" lon="2.18274">
        <ele>1694</ele>
        <time>2024-09-16T09:27:25Z</time>
      </trkpt>
      <trkpt lat="42.47576" lon="2.18277">
        <ele>1694</ele>
        <time>2024-09-16T09:27:28Z</time>
      </trkpt>
      <trkpt lat="42.47574" lon="2.1828">
        <ele>1695</ele>
        <time>2024-09-16T09:27:38Z</time>
      </trkpt>
      <trkpt lat="42.47572" lon="2.18283">
        <ele>1695</ele>
        <time>2024-09-16T09:27:41Z</time>
      </trkpt>
      <trkpt lat="42.4757" lon="2.18285">
        <ele>1695</ele>
        <time>2024-09-16T09:27:44Z</time>
      </trkpt>
      <trkpt lat="42.47568" lon="2.18288">
        <ele>1696</ele>
        <time>2024-09-16T09:27:48Z</time>
      </trkpt>
      <trkpt lat="42.47565" lon="2.1829">
        <ele>1697</ele>
        <time>2024-09-16T09:28:24Z</time>
      </trkpt>
      <trkpt lat="42.47563" lon="2.18293">
        <ele>1697</ele>
        <time>2024-09-16T09:28:26Z</time>
      </trkpt>
      <trkpt lat="42.47562" lon="2.18297">
        <ele>1698</ele>
        <time>2024-09-16T09:28:29Z</time>
      </trkpt>
      <trkpt lat="42.47561" lon="2.18301">
        <ele>1698</ele>
        <time>2024-09-16T09:28:34Z</time>
      </trkpt>
      <trkpt lat="42.4756" lon="2.18304">
        <ele>1698</ele>
        <time>2024-09-16T09:28:37Z</time>
      </trkpt>
      <trkpt lat="42.47558" lon="2.18308">
        <ele>1699</ele>
        <time>2024-09-16T09:28:40Z</time>
      </trkpt>
      <trkpt lat="42.47556" lon="2.18311">
        <ele>1700</ele>
        <time>2024-09-16T09:28:44Z</time>
      </trkpt>
      <trkpt lat="42.47554" lon="2.18314">
        <ele>1701</ele>
        <time>2024-09-16T09:28:48Z</time>
      </trkpt>
      <trkpt lat="42.47552" lon="2.18318">
        <ele>1702</ele>
        <time>2024-09-16T09:28:52Z</time>
      </trkpt>
      <trkpt lat="42.47551" lon="2.18322">
        <ele>1702</ele>
        <time>2024-09-16T09:28:56Z</time>
      </trkpt>
      <trkpt lat="42.47551" lon="2.18326">
        <ele>1703</ele>
        <time>2024-09-16T09:28:59Z</time>
      </trkpt>
      <trkpt lat="42.47549" lon="2.1833">
        <ele>1704</ele>
        <time>2024-09-16T09:29:02Z</time>
      </trkpt>
      <trkpt lat="42.47548" lon="2.18334">
        <ele>1704</ele>
        <time>2024-09-16T09:29:06Z</time>
      </trkpt>
      <trkpt lat="42.47548" lon="2.18338">
        <ele>1704</ele>
        <time>2024-09-16T09:29:09Z</time>
      </trkpt>
      <trkpt lat="42.47549" lon="2.18342">
        <ele>1704</ele>
        <time>2024-09-16T09:29:13Z</time>
      </trkpt>
      <trkpt lat="42.47548" lon="2.18346">
        <ele>1705</ele>
        <time>2024-09-16T09:29:17Z</time>
      </trkpt>
      <trkpt lat="42.47548" lon="2.1835">
        <ele>1706</ele>
        <time>2024-09-16T09:29:20Z</time>
      </trkpt>
      <trkpt lat="42.47547" lon="2.18354">
        <ele>1707</ele>
        <time>2024-09-16T09:29:25Z</time>
      </trkpt>
      <trkpt lat="42.47545" lon="2.18358">
        <ele>1707</ele>
        <time>2024-09-16T09:29:29Z</time>
      </trkpt>
      <trkpt lat="42.47544" lon="2.18361">
        <ele>1707</ele>
        <time>2024-09-16T09:29:33Z</time>
      </trkpt>
      <trkpt lat="42.47544" lon="2.18366">
        <ele>1707</ele>
        <time>2024-09-16T09:29:37Z</time>
      </trkpt>
      <trkpt lat="42.47544" lon="2.18371">
        <ele>1708</ele>
        <time>2024-09-16T09:29:42Z</time>
      </trkpt>
      <trkpt lat="42.47543" lon="2.18375">
        <ele>1710</ele>
        <time>2024-09-16T09:29:47Z</time>
      </trkpt>
      <trkpt lat="42.47543" lon="2.18379">
        <ele>1710</ele>
        <time>2024-09-16T09:29:51Z</time>
      </trkpt>
      <trkpt lat="42.47542" lon="2.18384">
        <ele>1711</ele>
        <time>2024-09-16T09:29:56Z</time>
      </trkpt>
      <trkpt lat="42.47541" lon="2.18388">
        <ele>1712</ele>
        <time>2024-09-16T09:30:00Z</time>
      </trkpt>
      <trkpt lat="42.47539" lon="2.18391">
        <ele>1713</ele>
        <time>2024-09-16T09:30:06Z</time>
      </trkpt>
      <trkpt lat="42.47537" lon="2.18394">
        <ele>1712</ele>
        <time>2024-09-16T09:30:10Z</time>
      </trkpt>
      <trkpt lat="42.47535" lon="2.18398">
        <ele>1713</ele>
        <time>2024-09-16T09:30:14Z</time>
      </trkpt>
      <trkpt lat="42.47535" lon="2.18401">
        <ele>1714</ele>
        <time>2024-09-16T09:30:18Z</time>
      </trkpt>
      <trkpt lat="42.47535" lon="2.18405">
        <ele>1714</ele>
        <time>2024-09-16T09:30:22Z</time>
      </trkpt>
      <trkpt lat="42.47536" lon="2.18408">
        <ele>1715</ele>
        <time>2024-09-16T09:30:28Z</time>
      </trkpt>
      <trkpt lat="42.47536" lon="2.18412">
        <ele>1715</ele>
        <time>2024-09-16T09:30:33Z</time>
      </trkpt>
      <trkpt lat="42.47536" lon="2.18416">
        <ele>1718</ele>
        <time>2024-09-16T09:30:39Z</time>
      </trkpt>
      <trkpt lat="42.47536" lon="2.18421">
        <ele>1719</ele>
        <time>2024-09-16T09:30:44Z</time>
      </trkpt>
      <trkpt lat="42.47537" lon="2.18424">
        <ele>1720</ele>
        <time>2024-09-16T09:30:47Z</time>
      </trkpt>
      <trkpt lat="42.47538" lon="2.18429">
        <ele>1721</ele>
        <time>2024-09-16T09:30:54Z</time>
      </trkpt>
      <trkpt lat="42.47536" lon="2.18431">
        <ele>1722</ele>
        <time>2024-09-16T09:31:00Z</time>
      </trkpt>
      <trkpt lat="42.47536" lon="2.18435">
        <ele>1722</ele>
        <time>2024-09-16T09:31:06Z</time>
      </trkpt>
      <trkpt lat="42.47535" lon="2.18439">
        <ele>1723</ele>
        <time>2024-09-16T09:31:10Z</time>
      </trkpt>
      <trkpt lat="42.47533" lon="2.18441">
        <ele>1723</ele>
        <time>2024-09-16T09:31:15Z</time>
      </trkpt>
      <trkpt lat="42.47532" lon="2.18445">
        <ele>1724</ele>
        <time>2024-09-16T09:31:19Z</time>
      </trkpt>
      <trkpt lat="42.47531" lon="2.18448">
        <ele>1723</ele>
        <time>2024-09-16T09:31:24Z</time>
      </trkpt>
      <trkpt lat="42.4753" lon="2.18452">
        <ele>1726</ele>
        <time>2024-09-16T09:31:28Z</time>
      </trkpt>
      <trkpt lat="42.47529" lon="2.18455">
        <ele>1726</ele>
        <time>2024-09-16T09:31:34Z</time>
      </trkpt>
      <trkpt lat="42.47527" lon="2.18457">
        <ele>1726</ele>
        <time>2024-09-16T09:31:37Z</time>
      </trkpt>
      <trkpt lat="42.47525" lon="2.18461">
        <ele>1725</ele>
        <time>2024-09-16T09:31:42Z</time>
      </trkpt>
      <trkpt lat="42.47525" lon="2.18465">
        <ele>1726</ele>
        <time>2024-09-16T09:31:47Z</time>
      </trkpt>
      <trkpt lat="42.47524" lon="2.18468">
        <ele>1726</ele>
        <time>2024-09-16T09:31:52Z</time>
      </trkpt>
      <trkpt lat="42.47522" lon="2.18471">
        <ele>1728</ele>
        <time>2024-09-16T09:32:00Z</time>
      </trkpt>
      <trkpt lat="42.4752" lon="2.18474">
        <ele>1729</ele>
        <time>2024-09-16T09:32:06Z</time>
      </trkpt>
      <trkpt lat="42.47518" lon="2.18477">
        <ele>1730</ele>
        <time>2024-09-16T09:32:14Z</time>
      </trkpt>
      <trkpt lat="42.47518" lon="2.1848">
        <ele>1730</ele>
        <time>2024-09-16T09:32:21Z</time>
      </trkpt>
      <trkpt lat="42.47517" lon="2.18483">
        <ele>1731</ele>
        <time>2024-09-16T09:32:26Z</time>
      </trkpt>
      <trkpt lat="42.47516" lon="2.18487">
        <ele>1732</ele>
        <time>2024-09-16T09:32:31Z</time>
      </trkpt>
      <trkpt lat="42.47516" lon="2.18491">
        <ele>1732</ele>
        <time>2024-09-16T09:32:36Z</time>
      </trkpt>
      <trkpt lat="42.47513" lon="2.18493">
        <ele>1732</ele>
        <time>2024-09-16T09:32:44Z</time>
      </trkpt>
      <trkpt lat="42.47511" lon="2.18495">
        <ele>1734</ele>
        <time>2024-09-16T09:32:50Z</time>
      </trkpt>
      <trkpt lat="42.47511" lon="2.18499">
        <ele>1734</ele>
        <time>2024-09-16T09:32:57Z</time>
      </trkpt>
      <trkpt lat="42.4751" lon="2.18503">
        <ele>1735</ele>
        <time>2024-09-16T09:33:04Z</time>
      </trkpt>
      <trkpt lat="42.47509" lon="2.18506">
        <ele>1736</ele>
        <time>2024-09-16T09:33:11Z</time>
      </trkpt>
      <trkpt lat="42.47506" lon="2.18507">
        <ele>1738</ele>
        <time>2024-09-16T09:33:16Z</time>
      </trkpt>
      <trkpt lat="42.47503" lon="2.18508">
        <ele>1738</ele>
        <time>2024-09-16T09:33:20Z</time>
      </trkpt>
      <trkpt lat="42.47501" lon="2.1851">
        <ele>1738</ele>
        <time>2024-09-16T09:33:24Z</time>
      </trkpt>
      <trkpt lat="42.475" lon="2.18513">
        <ele>1740</ele>
        <time>2024-09-16T09:33:27Z</time>
      </trkpt>
      <trkpt lat="42.475" lon="2.18518">
        <ele>1740</ele>
        <time>2024-09-16T09:33:31Z</time>
      </trkpt>
      <trkpt lat="42.47499" lon="2.18522">
        <ele>1740</ele>
        <time>2024-09-16T09:33:37Z</time>
      </trkpt>
      <trkpt lat="42.475" lon="2.18526">
        <ele>1741</ele>
        <time>2024-09-16T09:33:42Z</time>
      </trkpt>
      <trkpt lat="42.47501" lon="2.18531">
        <ele>1744</ele>
        <time>2024-09-16T09:33:54Z</time>
      </trkpt>
      <trkpt lat="42.47501" lon="2.18535">
        <ele>1745</ele>
        <time>2024-09-16T09:33:58Z</time>
      </trkpt>
      <trkpt lat="42.47499" lon="2.18537">
        <ele>1744</ele>
        <time>2024-09-16T09:34:04Z</time>
      </trkpt>
      <trkpt lat="42.47497" lon="2.18539">
        <ele>1745</ele>
        <time>2024-09-16T09:34:08Z</time>
      </trkpt>
      <trkpt lat="42.47497" lon="2.18543">
        <ele>1746</ele>
        <time>2024-09-16T09:34:15Z</time>
      </trkpt>
      <trkpt lat="42.47497" lon="2.18546">
        <ele>1748</ele>
        <time>2024-09-16T09:34:25Z</time>
      </trkpt>
      <trkpt lat="42.47498" lon="2.1855">
        <ele>1749</ele>
        <time>2024-09-16T09:34:31Z</time>
      </trkpt>
      <trkpt lat="42.47498" lon="2.18554">
        <ele>1751</ele>
        <time>2024-09-16T09:34:38Z</time>
      </trkpt>
      <trkpt lat="42.47498" lon="2.18558">
        <ele>1752</ele>
        <time>2024-09-16T09:34:48Z</time>
      </trkpt>
      <trkpt lat="42.47497" lon="2.18562">
        <ele>1752</ele>
        <time>2024-09-16T09:34:56Z</time>
      </trkpt>
      <trkpt lat="42.47497" lon="2.18566">
        <ele>1754</ele>
        <time>2024-09-16T09:35:01Z</time>
      </trkpt>
      <trkpt lat="42.47497" lon="2.1857">
        <ele>1755</ele>
        <time>2024-09-16T09:35:08Z</time>
      </trkpt>
      <trkpt lat="42.47498" lon="2.18574">
        <ele>1756</ele>
        <time>2024-09-16T09:35:14Z</time>
      </trkpt>
      <trkpt lat="42.47497" lon="2.18577">
        <ele>1757</ele>
        <time>2024-09-16T09:35:23Z</time>
      </trkpt>
      <trkpt lat="42.47495" lon="2.18581">
        <ele>1758</ele>
        <time>2024-09-16T09:35:28Z</time>
      </trkpt>
      <trkpt lat="42.47495" lon="2.18584">
        <ele>1759</ele>
        <time>2024-09-16T09:35:50Z</time>
      </trkpt>
      <trkpt lat="42.47494" lon="2.18588">
        <ele>1760</ele>
        <time>2024-09-16T09:35:57Z</time>
      </trkpt>
      <trkpt lat="42.47493" lon="2.18592">
        <ele>1761</ele>
        <time>2024-09-16T09:36:05Z</time>
      </trkpt>
      <trkpt lat="42.47493" lon="2.18596">
        <ele>1763</ele>
        <time>2024-09-16T09:36:10Z</time>
      </trkpt>
      <trkpt lat="42.47493" lon="2.186">
        <ele>1763</ele>
        <time>2024-09-16T09:36:15Z</time>
      </trkpt>
      <trkpt lat="42.47491" lon="2.18602">
        <ele>1764</ele>
        <time>2024-09-16T09:36:21Z</time>
      </trkpt>
      <trkpt lat="42.4749" lon="2.18606">
        <ele>1765</ele>
        <time>2024-09-16T09:36:28Z</time>
      </trkpt>
      <trkpt lat="42.47491" lon="2.18609">
        <ele>1766</ele>
        <time>2024-09-16T09:36:35Z</time>
      </trkpt>
      <trkpt lat="42.47492" lon="2.18612">
        <ele>1767</ele>
        <time>2024-09-16T09:36:40Z</time>
      </trkpt>
      <trkpt lat="42.47493" lon="2.18616">
        <ele>1769</ele>
        <time>2024-09-16T09:36:47Z</time>
      </trkpt>
      <trkpt lat="42.47494" lon="2.1862">
        <ele>1771</ele>
        <time>2024-09-16T09:36:54Z</time>
      </trkpt>
      <trkpt lat="42.47492" lon="2.18623">
        <ele>1771</ele>
        <time>2024-09-16T09:36:59Z</time>
      </trkpt>
      <trkpt lat="42.47491" lon="2.18626">
        <ele>1773</ele>
        <time>2024-09-16T09:37:06Z</time>
      </trkpt>
      <trkpt lat="42.47489" lon="2.18629">
        <ele>1773</ele>
        <time>2024-09-16T09:37:12Z</time>
      </trkpt>
      <trkpt lat="42.47488" lon="2.18633">
        <ele>1774</ele>
        <time>2024-09-16T09:37:18Z</time>
      </trkpt>
      <trkpt lat="42.47488" lon="2.18637">
        <ele>1775</ele>
        <time>2024-09-16T09:37:26Z</time>
      </trkpt>
      <trkpt lat="42.47487" lon="2.18641">
        <ele>1777</ele>
        <time>2024-09-16T09:37:33Z</time>
      </trkpt>
      <trkpt lat="42.47486" lon="2.18644">
        <ele>1777</ele>
        <time>2024-09-16T09:37:40Z</time>
      </trkpt>
      <trkpt lat="42.47485" lon="2.18648">
        <ele>1778</ele>
        <time>2024-09-16T09:37:45Z</time>
      </trkpt>
      <trkpt lat="42.47485" lon="2.18652">
        <ele>1779</ele>
        <time>2024-09-16T09:37:50Z</time>
      </trkpt>
      <trkpt lat="42.47486" lon="2.18655">
        <ele>1781</ele>
        <time>2024-09-16T09:38:33Z</time>
      </trkpt>
      <trkpt lat="42.47486" lon="2.18659">
        <ele>1782</ele>
        <time>2024-09-16T09:38:42Z</time>
      </trkpt>
      <trkpt lat="42.47485" lon="2.18661">
        <ele>1781</ele>
        <time>2024-09-16T09:38:54Z</time>
      </trkpt>
      <trkpt lat="42.47485" lon="2.18665">
        <ele>1782</ele>
        <time>2024-09-16T09:39:02Z</time>
      </trkpt>
      <trkpt lat="42.47484" lon="2.18668">
        <ele>1782</ele>
        <time>2024-09-16T09:39:08Z</time>
      </trkpt>
      <trkpt lat="42.47481" lon="2.1867">
        <ele>1783</ele>
        <time>2024-09-16T09:39:12Z</time>
      </trkpt>
      <trkpt lat="42.4748" lon="2.18673">
        <ele>1784</ele>
        <time>2024-09-16T09:39:17Z</time>
      </trkpt>
      <trkpt lat="42.47478" lon="2.18675">
        <ele>1784</ele>
        <time>2024-09-16T09:39:23Z</time>
      </trkpt>
      <trkpt lat="42.47477" lon="2.18678">
        <ele>1785</ele>
        <time>2024-09-16T09:39:30Z</time>
      </trkpt>
      <trkpt lat="42.47476" lon="2.18682">
        <ele>1786</ele>
        <time>2024-09-16T09:39:38Z</time>
      </trkpt>
      <trkpt lat="42.47474" lon="2.18685">
        <ele>1788</ele>
        <time>2024-09-16T09:39:44Z</time>
      </trkpt>
      <trkpt lat="42.47472" lon="2.18687">
        <ele>1788</ele>
        <time>2024-09-16T09:39:52Z</time>
      </trkpt>
      <trkpt lat="42.4747" lon="2.18691">
        <ele>1788</ele>
        <time>2024-09-16T09:39:59Z</time>
      </trkpt>
      <trkpt lat="42.47471" lon="2.18694">
        <ele>1790</ele>
        <time>2024-09-16T09:40:06Z</time>
      </trkpt>
      <trkpt lat="42.4747" lon="2.18698">
        <ele>1791</ele>
        <time>2024-09-16T09:40:11Z</time>
      </trkpt>
      <trkpt lat="42.47468" lon="2.18701">
        <ele>1793</ele>
        <time>2024-09-16T09:40:19Z</time>
      </trkpt>
      <trkpt lat="42.47467" lon="2.18705">
        <ele>1794</ele>
        <time>2024-09-16T09:40:27Z</time>
      </trkpt>
      <trkpt lat="42.47465" lon="2.18708">
        <ele>1795</ele>
        <time>2024-09-16T09:40:33Z</time>
      </trkpt>
      <trkpt lat="42.47465" lon="2.18711">
        <ele>1795</ele>
        <time>2024-09-16T09:40:40Z</time>
      </trkpt>
      <trkpt lat="42.47464" lon="2.18715">
        <ele>1797</ele>
        <time>2024-09-16T09:40:48Z</time>
      </trkpt>
      <trkpt lat="42.47462" lon="2.18717">
        <ele>1797</ele>
        <time>2024-09-16T09:40:57Z</time>
      </trkpt>
      <trkpt lat="42.4746" lon="2.18719">
        <ele>1798</ele>
        <time>2024-09-16T09:41:02Z</time>
      </trkpt>
      <trkpt lat="42.4746" lon="2.18722">
        <ele>1798</ele>
        <time>2024-09-16T09:41:05Z</time>
      </trkpt>
      <trkpt lat="42.47461" lon="2.18724">
        <ele>1798</ele>
        <time>2024-09-16T09:41:11Z</time>
      </trkpt>
      <trkpt lat="42.47461" lon="2.18727">
        <ele>1801</ele>
        <time>2024-09-16T09:41:17Z</time>
      </trkpt>
      <trkpt lat="42.47463" lon="2.1873">
        <ele>1802</ele>
        <time>2024-09-16T09:41:24Z</time>
      </trkpt>
      <trkpt lat="42.47463" lon="2.18733">
        <ele>1801</ele>
        <time>2024-09-16T09:41:34Z</time>
      </trkpt>
      <trkpt lat="42.47462" lon="2.18737">
        <ele>1803</ele>
        <time>2024-09-16T09:41:42Z</time>
      </trkpt>
      <trkpt lat="42.47461" lon="2.1874">
        <ele>1805</ele>
        <time>2024-09-16T09:41:48Z</time>
      </trkpt>
      <trkpt lat="42.47461" lon="2.18744">
        <ele>1807</ele>
        <time>2024-09-16T09:41:55Z</time>
      </trkpt>
      <trkpt lat="42.47462" lon="2.18747">
        <ele>1808</ele>
        <time>2024-09-16T09:42:01Z</time>
      </trkpt>
      <trkpt lat="42.47464" lon="2.18748">
        <ele>1808</ele>
        <time>2024-09-16T09:42:06Z</time>
      </trkpt>
      <trkpt lat="42.47467" lon="2.1875">
        <ele>1808</ele>
        <time>2024-09-16T09:42:08Z</time>
      </trkpt>
      <trkpt lat="42.47468" lon="2.18753">
        <ele>1809</ele>
        <time>2024-09-16T09:42:16Z</time>
      </trkpt>
      <trkpt lat="42.47467" lon="2.18755">
        <ele>1811</ele>
        <time>2024-09-16T09:42:21Z</time>
      </trkpt>
      <trkpt lat="42.47466" lon="2.18758">
        <ele>1813</ele>
        <time>2024-09-16T09:42:26Z</time>
      </trkpt>
      <trkpt lat="42.47466" lon="2.18762">
        <ele>1812</ele>
        <time>2024-09-16T09:42:32Z</time>
      </trkpt>
      <trkpt lat="42.47467" lon="2.18764">
        <ele>1813</ele>
        <time>2024-09-16T09:42:38Z</time>
      </trkpt>
      <trkpt lat="42.47469" lon="2.18764">
        <ele>1813</ele>
        <time>2024-09-16T09:42:43Z</time>
      </trkpt>
      <trkpt lat="42.47473" lon="2.18764">
        <ele>1811</ele>
        <time>2024-09-16T09:42:45Z</time>
      </trkpt>
      <trkpt lat="42.47472" lon="2.18766">
        <ele>1813</ele>
        <time>2024-09-16T09:42:51Z</time>
      </trkpt>
      <trkpt lat="42.47471" lon="2.18768">
        <ele>1814</ele>
        <time>2024-09-16T09:42:56Z</time>
      </trkpt>
      <trkpt lat="42.47468" lon="2.18769">
        <ele>1814</ele>
        <time>2024-09-16T09:42:57Z</time>
      </trkpt>
      <trkpt lat="42.47469" lon="2.1877">
        <ele>1815</ele>
        <time>2024-09-16T09:43:02Z</time>
      </trkpt>
      <trkpt lat="42.47471" lon="2.18772">
        <ele>1816</ele>
        <time>2024-09-16T09:43:07Z</time>
      </trkpt>
      <trkpt lat="42.47474" lon="2.18774">
        <ele>1818</ele>
        <time>2024-09-16T09:43:13Z</time>
      </trkpt>
      <trkpt lat="42.47476" lon="2.18777">
        <ele>1819</ele>
        <time>2024-09-16T09:43:18Z</time>
      </trkpt>
      <trkpt lat="42.47479" lon="2.18778">
        <ele>1820</ele>
        <time>2024-09-16T09:43:22Z</time>
      </trkpt>
      <trkpt lat="42.47479" lon="2.18781">
        <ele>1821</ele>
        <time>2024-09-16T09:43:30Z</time>
      </trkpt>
      <trkpt lat="42.47477" lon="2.18784">
        <ele>1822</ele>
        <time>2024-09-16T09:43:35Z</time>
      </trkpt>
      <trkpt lat="42.47476" lon="2.18787">
        <ele>1822</ele>
        <time>2024-09-16T09:43:41Z</time>
      </trkpt>
      <trkpt lat="42.47477" lon="2.18789">
        <ele>1823</ele>
        <time>2024-09-16T09:43:47Z</time>
      </trkpt>
      <trkpt lat="42.47479" lon="2.1879">
        <ele>1824</ele>
        <time>2024-09-16T09:43:51Z</time>
      </trkpt>
      <trkpt lat="42.47482" lon="2.18791">
        <ele>1825</ele>
        <time>2024-09-16T09:43:55Z</time>
      </trkpt>
      <trkpt lat="42.47484" lon="2.18792">
        <ele>1826</ele>
        <time>2024-09-16T09:44:01Z</time>
      </trkpt>
      <trkpt lat="42.47488" lon="2.18793">
        <ele>1828</ele>
        <time>2024-09-16T09:44:06Z</time>
      </trkpt>
      <trkpt lat="42.4749" lon="2.18794">
        <ele>1830</ele>
        <time>2024-09-16T09:44:20Z</time>
      </trkpt>
      <trkpt lat="42.47493" lon="2.18793">
        <ele>1830</ele>
        <time>2024-09-16T09:44:24Z</time>
      </trkpt>
      <trkpt lat="42.47496" lon="2.18792">
        <ele>1831</ele>
        <time>2024-09-16T09:44:28Z</time>
      </trkpt>
      <trkpt lat="42.47499" lon="2.18792">
        <ele>1833</ele>
        <time>2024-09-16T09:44:35Z</time>
      </trkpt>
      <trkpt lat="42.47499" lon="2.18794">
        <ele>1834</ele>
        <time>2024-09-16T09:44:44Z</time>
      </trkpt>
      <trkpt lat="42.47499" lon="2.18798">
        <ele>1833</ele>
        <time>2024-09-16T09:44:51Z</time>
      </trkpt>
      <trkpt lat="42.47499" lon="2.18802">
        <ele>1835</ele>
        <time>2024-09-16T09:44:58Z</time>
      </trkpt>
      <trkpt lat="42.475" lon="2.18802">
        <ele>1833</ele>
        <time>2024-09-16T09:45:05Z</time>
      </trkpt>
      <trkpt lat="42.47502" lon="2.18801">
        <ele>1835</ele>
        <time>2024-09-16T09:45:11Z</time>
      </trkpt>
      <trkpt lat="42.47505" lon="2.18802">
        <ele>1835</ele>
        <time>2024-09-16T09:45:16Z</time>
      </trkpt>
      <trkpt lat="42.47507" lon="2.18801">
        <ele>1836</ele>
        <time>2024-09-16T09:45:21Z</time>
      </trkpt>
      <trkpt lat="42.4751" lon="2.18802">
        <ele>1836</ele>
        <time>2024-09-16T09:45:26Z</time>
      </trkpt>
      <trkpt lat="42.47513" lon="2.18807">
        <ele>1836</ele>
        <time>2024-09-16T09:45:34Z</time>
      </trkpt>
      <trkpt lat="42.47513" lon="2.18808">
        <ele>1839</ele>
        <time>2024-09-16T09:45:45Z</time>
      </trkpt>
      <trkpt lat="42.47512" lon="2.18811">
        <ele>1841</ele>
        <time>2024-09-16T09:45:51Z</time>
      </trkpt>
      <trkpt lat="42.47511" lon="2.18815">
        <ele>1842</ele>
        <time>2024-09-16T09:46:00Z</time>
      </trkpt>
      <trkpt lat="42.47512" lon="2.18818">
        <ele>1843</ele>
        <time>2024-09-16T09:46:07Z</time>
      </trkpt>
      <trkpt lat="42.47514" lon="2.18819">
        <ele>1846</ele>
        <time>2024-09-16T09:46:17Z</time>
      </trkpt>
      <trkpt lat="42.47514" lon="2.1882">
        <ele>1849</ele>
        <time>2024-09-16T09:46:34Z</time>
      </trkpt>
      <trkpt lat="42.47515" lon="2.18821">
        <ele>1850</ele>
        <time>2024-09-16T09:46:50Z</time>
      </trkpt>
      <trkpt lat="42.47517" lon="2.1882">
        <ele>1851</ele>
        <time>2024-09-16T09:46:55Z</time>
      </trkpt>
      <trkpt lat="42.4752" lon="2.18819">
        <ele>1852</ele>
        <time>2024-09-16T09:47:07Z</time>
      </trkpt>
      <trkpt lat="42.47521" lon="2.18822">
        <ele>1852</ele>
        <time>2024-09-16T09:47:13Z</time>
      </trkpt>
      <trkpt lat="42.47521" lon="2.18825">
        <ele>1852</ele>
        <time>2024-09-16T09:47:22Z</time>
      </trkpt>
      <trkpt lat="42.47522" lon="2.18828">
        <ele>1855</ele>
        <time>2024-09-16T09:47:36Z</time>
      </trkpt>
      <trkpt lat="42.47524" lon="2.18831">
        <ele>1856</ele>
        <time>2024-09-16T09:47:44Z</time>
      </trkpt>
      <trkpt lat="42.47525" lon="2.18835">
        <ele>1857</ele>
        <time>2024-09-16T09:47:51Z</time>
      </trkpt>
      <trkpt lat="42.47528" lon="2.18837">
        <ele>1858</ele>
        <time>2024-09-16T09:47:59Z</time>
      </trkpt>
      <trkpt lat="42.4753" lon="2.18835">
        <ele>1860</ele>
        <time>2024-09-16T09:48:04Z</time>
      </trkpt>
      <trkpt lat="42.47531" lon="2.18832">
        <ele>1860</ele>
        <time>2024-09-16T09:48:08Z</time>
      </trkpt>
      <trkpt lat="42.47533" lon="2.1883">
        <ele>1862</ele>
        <time>2024-09-16T09:48:14Z</time>
      </trkpt>
      <trkpt lat="42.47533" lon="2.18831">
        <ele>1860</ele>
        <time>2024-09-16T09:48:22Z</time>
      </trkpt>
      <trkpt lat="42.47534" lon="2.18833">
        <ele>1861</ele>
        <time>2024-09-16T09:48:30Z</time>
      </trkpt>
      <trkpt lat="42.47534" lon="2.18836">
        <ele>1863</ele>
        <time>2024-09-16T09:48:40Z</time>
      </trkpt>
      <trkpt lat="42.47536" lon="2.18837">
        <ele>1864</ele>
        <time>2024-09-16T09:48:45Z</time>
      </trkpt>
      <trkpt lat="42.47538" lon="2.18836">
        <ele>1864</ele>
        <time>2024-09-16T09:48:48Z</time>
      </trkpt>
      <trkpt lat="42.4754" lon="2.18833">
        <ele>1865</ele>
        <time>2024-09-16T09:48:52Z</time>
      </trkpt>
      <trkpt lat="42.47542" lon="2.1883">
        <ele>1867</ele>
        <time>2024-09-16T09:49:01Z</time>
      </trkpt>
      <trkpt lat="42.47544" lon="2.1883">
        <ele>1870</ele>
        <time>2024-09-16T09:49:13Z</time>
      </trkpt>
      <trkpt lat="42.47547" lon="2.18832">
        <ele>1873</ele>
        <time>2024-09-16T09:49:21Z</time>
      </trkpt>
      <trkpt lat="42.47547" lon="2.18835">
        <ele>1873</ele>
        <time>2024-09-16T09:49:28Z</time>
      </trkpt>
      <trkpt lat="42.47549" lon="2.18837">
        <ele>1875</ele>
        <time>2024-09-16T09:49:34Z</time>
      </trkpt>
      <trkpt lat="42.47551" lon="2.18839">
        <ele>1874</ele>
        <time>2024-09-16T09:49:43Z</time>
      </trkpt>
      <trkpt lat="42.47552" lon="2.18837">
        <ele>1875</ele>
        <time>2024-09-16T09:49:50Z</time>
      </trkpt>
      <trkpt lat="42.47555" lon="2.18837">
        <ele>1875</ele>
        <time>2024-09-16T09:50:05Z</time>
      </trkpt>
      <trkpt lat="42.47557" lon="2.18835">
        <ele>1877</ele>
        <time>2024-09-16T09:50:15Z</time>
      </trkpt>
      <trkpt lat="42.47559" lon="2.18836">
        <ele>1879</ele>
        <time>2024-09-16T09:50:23Z</time>
      </trkpt>
      <trkpt lat="42.4756" lon="2.18834">
        <ele>1879</ele>
        <time>2024-09-16T09:50:29Z</time>
      </trkpt>
      <trkpt lat="42.47561" lon="2.18831">
        <ele>1881</ele>
        <time>2024-09-16T09:50:38Z</time>
      </trkpt>
      <trkpt lat="42.47562" lon="2.18833">
        <ele>1880</ele>
        <time>2024-09-16T09:50:45Z</time>
      </trkpt>
      <trkpt lat="42.47564" lon="2.18836">
        <ele>1881</ele>
        <time>2024-09-16T09:50:49Z</time>
      </trkpt>
      <trkpt lat="42.47565" lon="2.18834">
        <ele>1882</ele>
        <time>2024-09-16T09:51:01Z</time>
      </trkpt>
      <trkpt lat="42.47567" lon="2.18833">
        <ele>1882</ele>
        <time>2024-09-16T09:51:10Z</time>
      </trkpt>
      <trkpt lat="42.47569" lon="2.18835">
        <ele>1883</ele>
        <time>2024-09-16T09:51:18Z</time>
      </trkpt>
      <trkpt lat="42.47571" lon="2.18838">
        <ele>1885</ele>
        <time>2024-09-16T09:51:26Z</time>
      </trkpt>
      <trkpt lat="42.47573" lon="2.18838">
        <ele>1885</ele>
        <time>2024-09-16T09:51:33Z</time>
      </trkpt>
      <trkpt lat="42.47574" lon="2.18835">
        <ele>1886</ele>
        <time>2024-09-16T09:51:41Z</time>
      </trkpt>
      <trkpt lat="42.47575" lon="2.18832">
        <ele>1887</ele>
        <time>2024-09-16T09:51:46Z</time>
      </trkpt>
      <trkpt lat="42.47576" lon="2.18833">
        <ele>1888</ele>
        <time>2024-09-16T09:51:54Z</time>
      </trkpt>
      <trkpt lat="42.47577" lon="2.18835">
        <ele>1887</ele>
        <time>2024-09-16T09:51:59Z</time>
      </trkpt>
      <trkpt lat="42.47578" lon="2.18838">
        <ele>1887</ele>
        <time>2024-09-16T09:52:04Z</time>
      </trkpt>
      <trkpt lat="42.47581" lon="2.18838">
        <ele>1889</ele>
        <time>2024-09-16T09:53:15Z</time>
      </trkpt>
      <trkpt lat="42.47584" lon="2.18837">
        <ele>1890</ele>
        <time>2024-09-16T09:53:20Z</time>
      </trkpt>
      <trkpt lat="42.47586" lon="2.18833">
        <ele>1890</ele>
        <time>2024-09-16T09:53:24Z</time>
      </trkpt>
      <trkpt lat="42.47587" lon="2.18827">
        <ele>1887</ele>
        <time>2024-09-16T09:53:42Z</time>
      </trkpt>
      <trkpt lat="42.47589" lon="2.18827">
        <ele>1887</ele>
        <time>2024-09-16T09:53:45Z</time>
      </trkpt>
      <trkpt lat="42.47588" lon="2.18826">
        <ele>1887</ele>
        <time>2024-09-16T09:53:49Z</time>
      </trkpt>
      <trkpt lat="42.4759" lon="2.18827">
        <ele>1889</ele>
        <time>2024-09-16T09:54:11Z</time>
      </trkpt>
      <trkpt lat="42.47592" lon="2.18828">
        <ele>1888</ele>
        <time>2024-09-16T09:54:13Z</time>
      </trkpt>
      <trkpt lat="42.47594" lon="2.1883">
        <ele>1889</ele>
        <time>2024-09-16T09:54:15Z</time>
      </trkpt>
      <trkpt lat="42.47597" lon="2.18833">
        <ele>1888</ele>
        <time>2024-09-16T09:54:17Z</time>
      </trkpt>
      <trkpt lat="42.47599" lon="2.18835">
        <ele>1888</ele>
        <time>2024-09-16T09:54:21Z</time>
      </trkpt>
      <trkpt lat="42.47602" lon="2.18838">
        <ele>1889</ele>
        <time>2024-09-16T09:54:23Z</time>
      </trkpt>
      <trkpt lat="42.47604" lon="2.18841">
        <ele>1890</ele>
        <time>2024-09-16T09:54:28Z</time>
      </trkpt>
      <trkpt lat="42.47608" lon="2.18844">
        <ele>1890</ele>
        <time>2024-09-16T09:54:30Z</time>
      </trkpt>
      <trkpt lat="42.47608" lon="2.18847">
        <ele>1891</ele>
        <time>2024-09-16T09:54:37Z</time>
      </trkpt>
      <trkpt lat="42.47611" lon="2.18849">
        <ele>1891</ele>
        <time>2024-09-16T09:54:39Z</time>
      </trkpt>
      <trkpt lat="42.47614" lon="2.1885">
        <ele>1891</ele>
        <time>2024-09-16T09:54:41Z</time>
      </trkpt>
      <trkpt lat="42.47617" lon="2.18852">
        <ele>1891</ele>
        <time>2024-09-16T09:54:43Z</time>
      </trkpt>
      <trkpt lat="42.47619" lon="2.18855">
        <ele>1893</ele>
        <time>2024-09-16T09:54:47Z</time>
      </trkpt>
      <trkpt lat="42.47618" lon="2.18857">
        <ele>1893</ele>
        <time>2024-09-16T09:54:51Z</time>
      </trkpt>
      <trkpt lat="42.47617" lon="2.1886">
        <ele>1894</ele>
        <time>2024-09-16T09:54:55Z</time>
      </trkpt>
      <trkpt lat="42.47615" lon="2.18862">
        <ele>1895</ele>
        <time>2024-09-16T09:55:06Z</time>
      </trkpt>
      <trkpt lat="42.47615" lon="2.18865">
        <ele>1897</ele>
        <time>2024-09-16T09:55:10Z</time>
      </trkpt>
      <trkpt lat="42.47614" lon="2.18868">
        <ele>1897</ele>
        <time>2024-09-16T09:55:12Z</time>
      </trkpt>
      <trkpt lat="42.47614" lon="2.18872">
        <ele>1897</ele>
        <time>2024-09-16T09:55:16Z</time>
      </trkpt>
      <trkpt lat="42.47614" lon="2.18877">
        <ele>1897</ele>
        <time>2024-09-16T09:55:20Z</time>
      </trkpt>
      <trkpt lat="42.47616" lon="2.18882">
        <ele>1896</ele>
        <time>2024-09-16T09:55:26Z</time>
      </trkpt>
      <trkpt lat="42.47615" lon="2.18886">
        <ele>1897</ele>
        <time>2024-09-16T09:55:29Z</time>
      </trkpt>
      <trkpt lat="42.47616" lon="2.18891">
        <ele>1897</ele>
        <time>2024-09-16T09:55:38Z</time>
      </trkpt>
      <trkpt lat="42.47618" lon="2.18894">
        <ele>1897</ele>
        <time>2024-09-16T09:55:43Z</time>
      </trkpt>
      <trkpt lat="42.47618" lon="2.18898">
        <ele>1899</ele>
        <time>2024-09-16T09:55:51Z</time>
      </trkpt>
      <trkpt lat="42.47617" lon="2.18902">
        <ele>1899</ele>
        <time>2024-09-16T09:55:57Z</time>
      </trkpt>
      <trkpt lat="42.47615" lon="2.18904">
        <ele>1899</ele>
        <time>2024-09-16T09:55:59Z</time>
      </trkpt>
      <trkpt lat="42.47613" lon="2.18907">
        <ele>1901</ele>
        <time>2024-09-16T09:56:08Z</time>
      </trkpt>
      <trkpt lat="42.47612" lon="2.18911">
        <ele>1903</ele>
        <time>2024-09-16T09:56:13Z</time>
      </trkpt>
      <trkpt lat="42.47612" lon="2.18914">
        <ele>1904</ele>
        <time>2024-09-16T09:56:24Z</time>
      </trkpt>
      <trkpt lat="42.47613" lon="2.18918">
        <ele>1904</ele>
        <time>2024-09-16T09:56:27Z</time>
      </trkpt>
      <trkpt lat="42.47615" lon="2.18921">
        <ele>1905</ele>
        <time>2024-09-16T09:56:30Z</time>
      </trkpt>
      <trkpt lat="42.47616" lon="2.18925">
        <ele>1905</ele>
        <time>2024-09-16T09:56:34Z</time>
      </trkpt>
      <trkpt lat="42.47618" lon="2.18929">
        <ele>1906</ele>
        <time>2024-09-16T09:56:37Z</time>
      </trkpt>
      <trkpt lat="42.47618" lon="2.18933">
        <ele>1907</ele>
        <time>2024-09-16T09:56:40Z</time>
      </trkpt>
      <trkpt lat="42.47618" lon="2.18938">
        <ele>1908</ele>
        <time>2024-09-16T09:56:44Z</time>
      </trkpt>
      <trkpt lat="42.47619" lon="2.18942">
        <ele>1909</ele>
        <time>2024-09-16T09:56:49Z</time>
      </trkpt>
      <trkpt lat="42.4762" lon="2.18946">
        <ele>1909</ele>
        <time>2024-09-16T09:56:53Z</time>
      </trkpt>
      <trkpt lat="42.47621" lon="2.1895">
        <ele>1909</ele>
        <time>2024-09-16T09:56:57Z</time>
      </trkpt>
      <trkpt lat="42.47624" lon="2.18951">
        <ele>1908</ele>
        <time>2024-09-16T09:56:59Z</time>
      </trkpt>
      <trkpt lat="42.47623" lon="2.18954">
        <ele>1909</ele>
        <time>2024-09-16T09:57:04Z</time>
      </trkpt>
      <trkpt lat="42.47625" lon="2.18957">
        <ele>1911</ele>
        <time>2024-09-16T09:57:07Z</time>
      </trkpt>
      <trkpt lat="42.47627" lon="2.1896">
        <ele>1910</ele>
        <time>2024-09-16T09:57:11Z</time>
      </trkpt>
      <trkpt lat="42.47627" lon="2.18964">
        <ele>1910</ele>
        <time>2024-09-16T09:57:16Z</time>
      </trkpt>
      <trkpt lat="42.47629" lon="2.18969">
        <ele>1910</ele>
        <time>2024-09-16T09:57:20Z</time>
      </trkpt>
      <trkpt lat="42.47631" lon="2.18973">
        <ele>1912</ele>
        <time>2024-09-16T09:57:25Z</time>
      </trkpt>
      <trkpt lat="42.47632" lon="2.18976">
        <ele>1914</ele>
        <time>2024-09-16T09:57:31Z</time>
      </trkpt>
      <trkpt lat="42.47631" lon="2.18978">
        <ele>1916</ele>
        <time>2024-09-16T09:57:38Z</time>
      </trkpt>
      <trkpt lat="42.4763" lon="2.18982">
        <ele>1916</ele>
        <time>2024-09-16T09:57:41Z</time>
      </trkpt>
      <trkpt lat="42.47628" lon="2.18985">
        <ele>1917</ele>
        <time>2024-09-16T09:57:44Z</time>
      </trkpt>
      <trkpt lat="42.47628" lon="2.18989">
        <ele>1918</ele>
        <time>2024-09-16T09:57:48Z</time>
      </trkpt>
      <trkpt lat="42.4763" lon="2.18993">
        <ele>1920</ele>
        <time>2024-09-16T09:57:53Z</time>
      </trkpt>
      <trkpt lat="42.47631" lon="2.18996">
        <ele>1919</ele>
        <time>2024-09-16T09:57:59Z</time>
      </trkpt>
      <trkpt lat="42.47632" lon="2.19">
        <ele>1919</ele>
        <time>2024-09-16T09:58:04Z</time>
      </trkpt>
      <trkpt lat="42.47634" lon="2.19003">
        <ele>1920</ele>
        <time>2024-09-16T09:58:06Z</time>
      </trkpt>
      <trkpt lat="42.47637" lon="2.19005">
        <ele>1921</ele>
        <time>2024-09-16T09:58:09Z</time>
      </trkpt>
      <trkpt lat="42.4764" lon="2.19008">
        <ele>1922</ele>
        <time>2024-09-16T09:58:17Z</time>
      </trkpt>
      <trkpt lat="42.47642" lon="2.1901">
        <ele>1923</ele>
        <time>2024-09-16T09:58:20Z</time>
      </trkpt>
      <trkpt lat="42.47644" lon="2.19012">
        <ele>1923</ele>
        <time>2024-09-16T09:58:25Z</time>
      </trkpt>
      <trkpt lat="42.47646" lon="2.19015">
        <ele>1924</ele>
        <time>2024-09-16T09:58:29Z</time>
      </trkpt>
      <trkpt lat="42.47646" lon="2.19019">
        <ele>1925</ele>
        <time>2024-09-16T09:58:34Z</time>
      </trkpt>
      <trkpt lat="42.47647" lon="2.19023">
        <ele>1923</ele>
        <time>2024-09-16T09:58:41Z</time>
      </trkpt>
      <trkpt lat="42.47648" lon="2.19026">
        <ele>1923</ele>
        <time>2024-09-16T09:58:44Z</time>
      </trkpt>
      <trkpt lat="42.47649" lon="2.1903">
        <ele>1923</ele>
        <time>2024-09-16T09:58:48Z</time>
      </trkpt>
      <trkpt lat="42.47649" lon="2.19034">
        <ele>1924</ele>
        <time>2024-09-16T09:58:53Z</time>
      </trkpt>
      <trkpt lat="42.4765" lon="2.19038">
        <ele>1923</ele>
        <time>2024-09-16T09:58:58Z</time>
      </trkpt>
      <trkpt lat="42.47653" lon="2.19039">
        <ele>1922</ele>
        <time>2024-09-16T09:59:03Z</time>
      </trkpt>
      <trkpt lat="42.47655" lon="2.19041">
        <ele>1921</ele>
        <time>2024-09-16T09:59:08Z</time>
      </trkpt>
      <trkpt lat="42.47658" lon="2.19044">
        <ele>1921</ele>
        <time>2024-09-16T09:59:11Z</time>
      </trkpt>
      <trkpt lat="42.47659" lon="2.19047">
        <ele>1921</ele>
        <time>2024-09-16T09:59:14Z</time>
      </trkpt>
      <trkpt lat="42.47662" lon="2.1905">
        <ele>1921</ele>
        <time>2024-09-16T09:59:18Z</time>
      </trkpt>
      <trkpt lat="42.47664" lon="2.19052">
        <ele>1921</ele>
        <time>2024-09-16T09:59:21Z</time>
      </trkpt>
      <trkpt lat="42.47663" lon="2.19056">
        <ele>1922</ele>
        <time>2024-09-16T09:59:25Z</time>
      </trkpt>
      <trkpt lat="42.47666" lon="2.1906">
        <ele>1923</ele>
        <time>2024-09-16T09:59:30Z</time>
      </trkpt>
      <trkpt lat="42.47666" lon="2.19064">
        <ele>1923</ele>
        <time>2024-09-16T09:59:35Z</time>
      </trkpt>
      <trkpt lat="42.47667" lon="2.19068">
        <ele>1925</ele>
        <time>2024-09-16T09:59:43Z</time>
      </trkpt>
      <trkpt lat="42.47668" lon="2.19072">
        <ele>1927</ele>
        <time>2024-09-16T09:59:46Z</time>
      </trkpt>
      <trkpt lat="42.47669" lon="2.19075">
        <ele>1926</ele>
        <time>2024-09-16T09:59:49Z</time>
      </trkpt>
      <trkpt lat="42.4767" lon="2.1908">
        <ele>1926</ele>
        <time>2024-09-16T09:59:53Z</time>
      </trkpt>
      <trkpt lat="42.4767" lon="2.19084">
        <ele>1926</ele>
        <time>2024-09-16T09:59:57Z</time>
      </trkpt>
      <trkpt lat="42.4767" lon="2.19089">
        <ele>1928</ele>
        <time>2024-09-16T10:00:01Z</time>
      </trkpt>
      <trkpt lat="42.47671" lon="2.19093">
        <ele>1930</ele>
        <time>2024-09-16T10:00:10Z</time>
      </trkpt>
      <trkpt lat="42.47674" lon="2.19097">
        <ele>1929</ele>
        <time>2024-09-16T10:00:14Z</time>
      </trkpt>
      <trkpt lat="42.47677" lon="2.19099">
        <ele>1930</ele>
        <time>2024-09-16T10:00:17Z</time>
      </trkpt>
      <trkpt lat="42.47678" lon="2.19103">
        <ele>1930</ele>
        <time>2024-09-16T10:00:22Z</time>
      </trkpt>
      <trkpt lat="42.47678" lon="2.19106">
        <ele>1930</ele>
        <time>2024-09-16T10:00:30Z</time>
      </trkpt>
      <trkpt lat="42.47677" lon="2.1911">
        <ele>1930</ele>
        <time>2024-09-16T10:00:35Z</time>
      </trkpt>
      <trkpt lat="42.47678" lon="2.19111">
        <ele>1931</ele>
        <time>2024-09-16T10:00:37Z</time>
      </trkpt>
      <trkpt lat="42.47679" lon="2.19114">
        <ele>1931</ele>
        <time>2024-09-16T10:00:40Z</time>
      </trkpt>
      <trkpt lat="42.47681" lon="2.19118">
        <ele>1932</ele>
        <time>2024-09-16T10:00:46Z</time>
      </trkpt>
      <trkpt lat="42.4768" lon="2.19121">
        <ele>1932</ele>
        <time>2024-09-16T10:00:49Z</time>
      </trkpt>
      <trkpt lat="42.47681" lon="2.19125">
        <ele>1932</ele>
        <time>2024-09-16T10:00:53Z</time>
      </trkpt>
      <trkpt lat="42.4768" lon="2.19129">
        <ele>1934</ele>
        <time>2024-09-16T10:00:58Z</time>
      </trkpt>
      <trkpt lat="42.47682" lon="2.19133">
        <ele>1934</ele>
        <time>2024-09-16T10:01:02Z</time>
      </trkpt>
      <trkpt lat="42.47684" lon="2.19136">
        <ele>1933</ele>
        <time>2024-09-16T10:01:07Z</time>
      </trkpt>
      <trkpt lat="42.47683" lon="2.19139">
        <ele>1933</ele>
        <time>2024-09-16T10:01:13Z</time>
      </trkpt>
      <trkpt lat="42.47684" lon="2.19142">
        <ele>1934</ele>
        <time>2024-09-16T10:01:18Z</time>
      </trkpt>
      <trkpt lat="42.47686" lon="2.19145">
        <ele>1934</ele>
        <time>2024-09-16T10:01:21Z</time>
      </trkpt>
      <trkpt lat="42.47689" lon="2.19147">
        <ele>1934</ele>
        <time>2024-09-16T10:01:24Z</time>
      </trkpt>
      <trkpt lat="42.47692" lon="2.19149">
        <ele>1934</ele>
        <time>2024-09-16T10:01:28Z</time>
      </trkpt>
      <trkpt lat="42.47694" lon="2.19151">
        <ele>1936</ele>
        <time>2024-09-16T10:01:34Z</time>
      </trkpt>
      <trkpt lat="42.47696" lon="2.19154">
        <ele>1937</ele>
        <time>2024-09-16T10:01:37Z</time>
      </trkpt>
      <trkpt lat="42.47699" lon="2.19156">
        <ele>1936</ele>
        <time>2024-09-16T10:01:39Z</time>
      </trkpt>
      <trkpt lat="42.47701" lon="2.19158">
        <ele>1936</ele>
        <time>2024-09-16T10:01:45Z</time>
      </trkpt>
      <trkpt lat="42.47702" lon="2.19162">
        <ele>1935</ele>
        <time>2024-09-16T10:01:49Z</time>
      </trkpt>
      <trkpt lat="42.47704" lon="2.19166">
        <ele>1937</ele>
        <time>2024-09-16T10:01:54Z</time>
      </trkpt>
      <trkpt lat="42.47706" lon="2.1917">
        <ele>1937</ele>
        <time>2024-09-16T10:01:58Z</time>
      </trkpt>
      <trkpt lat="42.47708" lon="2.19174">
        <ele>1938</ele>
        <time>2024-09-16T10:02:03Z</time>
      </trkpt>
      <trkpt lat="42.47708" lon="2.19179">
        <ele>1939</ele>
        <time>2024-09-16T10:02:10Z</time>
      </trkpt>
      <trkpt lat="42.4771" lon="2.19181">
        <ele>1940</ele>
        <time>2024-09-16T10:02:15Z</time>
      </trkpt>
      <trkpt lat="42.47709" lon="2.19185">
        <ele>1941</ele>
        <time>2024-09-16T10:02:18Z</time>
      </trkpt>
      <trkpt lat="42.47709" lon="2.19188">
        <ele>1942</ele>
        <time>2024-09-16T10:02:22Z</time>
      </trkpt>
      <trkpt lat="42.47711" lon="2.19192">
        <ele>1943</ele>
        <time>2024-09-16T10:02:26Z</time>
      </trkpt>
      <trkpt lat="42.47714" lon="2.19194">
        <ele>1944</ele>
        <time>2024-09-16T10:02:30Z</time>
      </trkpt>
      <trkpt lat="42.47717" lon="2.19195">
        <ele>1943</ele>
        <time>2024-09-16T10:02:36Z</time>
      </trkpt>
      <trkpt lat="42.47719" lon="2.19198">
        <ele>1942</ele>
        <time>2024-09-16T10:02:41Z</time>
      </trkpt>
      <trkpt lat="42.4772" lon="2.19202">
        <ele>1942</ele>
        <time>2024-09-16T10:02:46Z</time>
      </trkpt>
      <trkpt lat="42.47721" lon="2.19206">
        <ele>1944</ele>
        <time>2024-09-16T10:02:54Z</time>
      </trkpt>
      <trkpt lat="42.47724" lon="2.19209">
        <ele>1944</ele>
        <time>2024-09-16T10:02:59Z</time>
      </trkpt>
      <trkpt lat="42.47726" lon="2.19211">
        <ele>1945</ele>
        <time>2024-09-16T10:03:09Z</time>
      </trkpt>
      <trkpt lat="42.47728" lon="2.19214">
        <ele>1946</ele>
        <time>2024-09-16T10:03:11Z</time>
      </trkpt>
      <trkpt lat="42.47732" lon="2.19215">
        <ele>1947</ele>
        <time>2024-09-16T10:03:14Z</time>
      </trkpt>
      <trkpt lat="42.47735" lon="2.19217">
        <ele>1946</ele>
        <time>2024-09-16T10:03:18Z</time>
      </trkpt>
      <trkpt lat="42.47736" lon="2.19221">
        <ele>1947</ele>
        <time>2024-09-16T10:03:27Z</time>
      </trkpt>
      <trkpt lat="42.47737" lon="2.19224">
        <ele>1949</ele>
        <time>2024-09-16T10:03:33Z</time>
      </trkpt>
      <trkpt lat="42.4774" lon="2.19226">
        <ele>1949</ele>
        <time>2024-09-16T10:03:37Z</time>
      </trkpt>
      <trkpt lat="42.47743" lon="2.19227">
        <ele>1950</ele>
        <time>2024-09-16T10:03:38Z</time>
      </trkpt>
      <trkpt lat="42.47746" lon="2.19228">
        <ele>1950</ele>
        <time>2024-09-16T10:03:40Z</time>
      </trkpt>
      <trkpt lat="42.47748" lon="2.19229">
        <ele>1950</ele>
        <time>2024-09-16T10:03:42Z</time>
      </trkpt>
      <trkpt lat="42.47751" lon="2.19231">
        <ele>1951</ele>
        <time>2024-09-16T10:03:47Z</time>
      </trkpt>
      <trkpt lat="42.47753" lon="2.19232">
        <ele>1951</ele>
        <time>2024-09-16T10:03:50Z</time>
      </trkpt>
      <trkpt lat="42.47753" lon="2.19235">
        <ele>1952</ele>
        <time>2024-09-16T10:03:53Z</time>
      </trkpt>
      <trkpt lat="42.47755" lon="2.19238">
        <ele>1951</ele>
        <time>2024-09-16T10:03:57Z</time>
      </trkpt>
      <trkpt lat="42.47758" lon="2.1924">
        <ele>1952</ele>
        <time>2024-09-16T10:04:04Z</time>
      </trkpt>
      <trkpt lat="42.4776" lon="2.19242">
        <ele>1953</ele>
        <time>2024-09-16T10:04:09Z</time>
      </trkpt>
      <trkpt lat="42.47763" lon="2.19244">
        <ele>1954</ele>
        <time>2024-09-16T10:04:20Z</time>
      </trkpt>
      <trkpt lat="42.47766" lon="2.19247">
        <ele>1954</ele>
        <time>2024-09-16T10:04:25Z</time>
      </trkpt>
      <trkpt lat="42.47769" lon="2.19245">
        <ele>1955</ele>
        <time>2024-09-16T10:04:31Z</time>
      </trkpt>
      <trkpt lat="42.47772" lon="2.19245">
        <ele>1953</ele>
        <time>2024-09-16T10:04:34Z</time>
      </trkpt>
      <trkpt lat="42.47774" lon="2.19248">
        <ele>1953</ele>
        <time>2024-09-16T10:04:38Z</time>
      </trkpt>
      <trkpt lat="42.47775" lon="2.19252">
        <ele>1953</ele>
        <time>2024-09-16T10:04:43Z</time>
      </trkpt>
      <trkpt lat="42.47773" lon="2.19253">
        <ele>1954</ele>
        <time>2024-09-16T10:04:47Z</time>
      </trkpt>
      <trkpt lat="42.47773" lon="2.19257">
        <ele>1956</ele>
        <time>2024-09-16T10:04:54Z</time>
      </trkpt>
      <trkpt lat="42.47774" lon="2.19259">
        <ele>1956</ele>
        <time>2024-09-16T10:04:58Z</time>
      </trkpt>
      <trkpt lat="42.47777" lon="2.19259">
        <ele>1956</ele>
        <time>2024-09-16T10:05:00Z</time>
      </trkpt>
      <trkpt lat="42.4778" lon="2.19261">
        <ele>1955</ele>
        <time>2024-09-16T10:05:03Z</time>
      </trkpt>
      <trkpt lat="42.47784" lon="2.19261">
        <ele>1957</ele>
        <time>2024-09-16T10:05:09Z</time>
      </trkpt>
      <trkpt lat="42.47787" lon="2.19262">
        <ele>1957</ele>
        <time>2024-09-16T10:05:13Z</time>
      </trkpt>
      <trkpt lat="42.4779" lon="2.19264">
        <ele>1958</ele>
        <time>2024-09-16T10:05:19Z</time>
      </trkpt>
      <trkpt lat="42.47791" lon="2.19268">
        <ele>1957</ele>
        <time>2024-09-16T10:05:23Z</time>
      </trkpt>
      <trkpt lat="42.47791" lon="2.19271">
        <ele>1959</ele>
        <time>2024-09-16T10:05:28Z</time>
      </trkpt>
      <trkpt lat="42.47792" lon="2.19274">
        <ele>1960</ele>
        <time>2024-09-16T10:05:31Z</time>
      </trkpt>
      <trkpt lat="42.47792" lon="2.19277">
        <ele>1962</ele>
        <time>2024-09-16T10:05:37Z</time>
      </trkpt>
      <trkpt lat="42.47794" lon="2.19279">
        <ele>1964</ele>
        <time>2024-09-16T10:05:42Z</time>
      </trkpt>
      <trkpt lat="42.47794" lon="2.19282">
        <ele>1966</ele>
        <time>2024-09-16T10:05:47Z</time>
      </trkpt>
      <trkpt lat="42.47796" lon="2.19283">
        <ele>1965</ele>
        <time>2024-09-16T10:05:50Z</time>
      </trkpt>
      <trkpt lat="42.47799" lon="2.19284">
        <ele>1966</ele>
        <time>2024-09-16T10:05:57Z</time>
      </trkpt>
      <trkpt lat="42.47802" lon="2.19284">
        <ele>1965</ele>
        <time>2024-09-16T10:06:00Z</time>
      </trkpt>
      <trkpt lat="42.47805" lon="2.19285">
        <ele>1965</ele>
        <time>2024-09-16T10:06:05Z</time>
      </trkpt>
      <trkpt lat="42.47807" lon="2.19287">
        <ele>1965</ele>
        <time>2024-09-16T10:06:10Z</time>
      </trkpt>
      <trkpt lat="42.4781" lon="2.1929">
        <ele>1965</ele>
        <time>2024-09-16T10:06:16Z</time>
      </trkpt>
      <trkpt lat="42.47809" lon="2.19293">
        <ele>1965</ele>
        <time>2024-09-16T10:06:19Z</time>
      </trkpt>
      <trkpt lat="42.4781" lon="2.19296">
        <ele>1967</ele>
        <time>2024-09-16T10:06:27Z</time>
      </trkpt>
      <trkpt lat="42.47813" lon="2.19299">
        <ele>1968</ele>
        <time>2024-09-16T10:06:30Z</time>
      </trkpt>
      <trkpt lat="42.47815" lon="2.19301">
        <ele>1968</ele>
        <time>2024-09-16T10:06:34Z</time>
      </trkpt>
      <trkpt lat="42.47815" lon="2.19303">
        <ele>1968</ele>
        <time>2024-09-16T10:06:37Z</time>
      </trkpt>
      <trkpt lat="42.47812" lon="2.19305">
        <ele>1968</ele>
        <time>2024-09-16T10:06:40Z</time>
      </trkpt>
      <trkpt lat="42.47813" lon="2.19306">
        <ele>1969</ele>
        <time>2024-09-16T10:06:44Z</time>
      </trkpt>
      <trkpt lat="42.47816" lon="2.19307">
        <ele>1968</ele>
        <time>2024-09-16T10:06:47Z</time>
      </trkpt>
      <trkpt lat="42.47819" lon="2.19308">
        <ele>1969</ele>
        <time>2024-09-16T10:06:50Z</time>
      </trkpt>
      <trkpt lat="42.47822" lon="2.1931">
        <ele>1969</ele>
        <time>2024-09-16T10:06:53Z</time>
      </trkpt>
      <trkpt lat="42.47825" lon="2.19311">
        <ele>1969</ele>
        <time>2024-09-16T10:06:58Z</time>
      </trkpt>
      <trkpt lat="42.47827" lon="2.19313">
        <ele>1969</ele>
        <time>2024-09-16T10:07:03Z</time>
      </trkpt>
      <trkpt lat="42.4783" lon="2.19316">
        <ele>1971</ele>
        <time>2024-09-16T10:07:09Z</time>
      </trkpt>
      <trkpt lat="42.47832" lon="2.19319">
        <ele>1972</ele>
        <time>2024-09-16T10:07:13Z</time>
      </trkpt>
      <trkpt lat="42.47835" lon="2.19322">
        <ele>1973</ele>
        <time>2024-09-16T10:07:17Z</time>
      </trkpt>
      <trkpt lat="42.47837" lon="2.19323">
        <ele>1972</ele>
        <time>2024-09-16T10:07:20Z</time>
      </trkpt>
      <trkpt lat="42.4784" lon="2.19324">
        <ele>1973</ele>
        <time>2024-09-16T10:07:23Z</time>
      </trkpt>
      <trkpt lat="42.47843" lon="2.19326">
        <ele>1974</ele>
        <time>2024-09-16T10:07:30Z</time>
      </trkpt>
      <trkpt lat="42.47846" lon="2.19328">
        <ele>1975</ele>
        <time>2024-09-16T10:07:40Z</time>
      </trkpt>
      <trkpt lat="42.47849" lon="2.1933">
        <ele>1975</ele>
        <time>2024-09-16T10:07:43Z</time>
      </trkpt>
      <trkpt lat="42.47852" lon="2.1933">
        <ele>1976</ele>
        <time>2024-09-16T10:07:50Z</time>
      </trkpt>
      <trkpt lat="42.47856" lon="2.19332">
        <ele>1976</ele>
        <time>2024-09-16T10:07:56Z</time>
      </trkpt>
      <trkpt lat="42.47859" lon="2.19332">
        <ele>1977</ele>
        <time>2024-09-16T10:08:02Z</time>
      </trkpt>
      <trkpt lat="42.47861" lon="2.1933">
        <ele>1974</ele>
        <time>2024-09-16T10:08:21Z</time>
      </trkpt>
      <trkpt lat="42.47864" lon="2.19332">
        <ele>1975</ele>
        <time>2024-09-16T10:08:27Z</time>
      </trkpt>
      <trkpt lat="42.47865" lon="2.19334">
        <ele>1976</ele>
        <time>2024-09-16T10:08:31Z</time>
      </trkpt>
      <trkpt lat="42.47866" lon="2.19338">
        <ele>1978</ele>
        <time>2024-09-16T10:08:35Z</time>
      </trkpt>
      <trkpt lat="42.47869" lon="2.1934">
        <ele>1978</ele>
        <time>2024-09-16T10:08:40Z</time>
      </trkpt>
      <trkpt lat="42.47869" lon="2.19343">
        <ele>1979</ele>
        <time>2024-09-16T10:08:45Z</time>
      </trkpt>
      <trkpt lat="42.4787" lon="2.19346">
        <ele>1979</ele>
        <time>2024-09-16T10:08:50Z</time>
      </trkpt>
      <trkpt lat="42.47872" lon="2.19349">
        <ele>1980</ele>
        <time>2024-09-16T10:08:59Z</time>
      </trkpt>
      <trkpt lat="42.47873" lon="2.19348">
        <ele>1980</ele>
        <time>2024-09-16T10:09:13Z</time>
      </trkpt>
      <trkpt lat="42.47876" lon="2.19347">
        <ele>1977</ele>
        <time>2024-09-16T10:10:04Z</time>
      </trkpt>
      <trkpt lat="42.47877" lon="2.19349">
        <ele>1979</ele>
        <time>2024-09-16T10:10:20Z</time>
      </trkpt>
      <trkpt lat="42.47878" lon="2.19352">
        <ele>1980</ele>
        <time>2024-09-16T10:10:25Z</time>
      </trkpt>
      <trkpt lat="42.47876" lon="2.19353">
        <ele>1982</ele>
        <time>2024-09-16T10:10:28Z</time>
      </trkpt>
      <trkpt lat="42.47874" lon="2.19355">
        <ele>1985</ele>
        <time>2024-09-16T10:10:37Z</time>
      </trkpt>
      <trkpt lat="42.47873" lon="2.19359">
        <ele>1985</ele>
        <time>2024-09-16T10:10:41Z</time>
      </trkpt>
      <trkpt lat="42.47872" lon="2.19362">
        <ele>1986</ele>
        <time>2024-09-16T10:10:50Z</time>
      </trkpt>
      <trkpt lat="42.47872" lon="2.19366">
        <ele>1986</ele>
        <time>2024-09-16T10:10:56Z</time>
      </trkpt>
      <trkpt lat="42.47874" lon="2.19369">
        <ele>1986</ele>
        <time>2024-09-16T10:11:01Z</time>
      </trkpt>
      <trkpt lat="42.47875" lon="2.19373">
        <ele>1986</ele>
        <time>2024-09-16T10:11:05Z</time>
      </trkpt>
      <trkpt lat="42.47878" lon="2.19376">
        <ele>1987</ele>
        <time>2024-09-16T10:11:08Z</time>
      </trkpt>
      <trkpt lat="42.4788" lon="2.19379">
        <ele>1989</ele>
        <time>2024-09-16T10:11:11Z</time>
      </trkpt>
      <trkpt lat="42.47882" lon="2.19382">
        <ele>1991</ele>
        <time>2024-09-16T10:11:15Z</time>
      </trkpt>
      <trkpt lat="42.47885" lon="2.19384">
        <ele>1991</ele>
        <time>2024-09-16T10:11:19Z</time>
      </trkpt>
      <trkpt lat="42.47886" lon="2.19387">
        <ele>1991</ele>
        <time>2024-09-16T10:11:24Z</time>
      </trkpt>
      <trkpt lat="42.47889" lon="2.19389">
        <ele>1991</ele>
        <time>2024-09-16T10:11:27Z</time>
      </trkpt>
      <trkpt lat="42.47891" lon="2.19392">
        <ele>1991</ele>
        <time>2024-09-16T10:11:31Z</time>
      </trkpt>
      <trkpt lat="42.47894" lon="2.19393">
        <ele>1991</ele>
        <time>2024-09-16T10:11:34Z</time>
      </trkpt>
      <trkpt lat="42.47897" lon="2.19396">
        <ele>1992</ele>
        <time>2024-09-16T10:11:38Z</time>
      </trkpt>
      <trkpt lat="42.47899" lon="2.19399">
        <ele>1992</ele>
        <time>2024-09-16T10:11:42Z</time>
      </trkpt>
      <trkpt lat="42.47901" lon="2.19402">
        <ele>1992</ele>
        <time>2024-09-16T10:11:45Z</time>
      </trkpt>
      <trkpt lat="42.47903" lon="2.19405">
        <ele>1993</ele>
        <time>2024-09-16T10:11:49Z</time>
      </trkpt>
      <trkpt lat="42.47905" lon="2.19408">
        <ele>1993</ele>
        <time>2024-09-16T10:11:51Z</time>
      </trkpt>
      <trkpt lat="42.47908" lon="2.1941">
        <ele>1994</ele>
        <time>2024-09-16T10:11:54Z</time>
      </trkpt>
      <trkpt lat="42.47911" lon="2.1941">
        <ele>1995</ele>
        <time>2024-09-16T10:11:57Z</time>
      </trkpt>
      <trkpt lat="42.47914" lon="2.19411">
        <ele>1995</ele>
        <time>2024-09-16T10:12:00Z</time>
      </trkpt>
      <trkpt lat="42.47917" lon="2.19412">
        <ele>1995</ele>
        <time>2024-09-16T10:12:02Z</time>
      </trkpt>
      <trkpt lat="42.47921" lon="2.19414">
        <ele>1995</ele>
        <time>2024-09-16T10:12:06Z</time>
      </trkpt>
      <trkpt lat="42.47924" lon="2.19417">
        <ele>1996</ele>
        <time>2024-09-16T10:12:10Z</time>
      </trkpt>
      <trkpt lat="42.47926" lon="2.19419">
        <ele>1996</ele>
        <time>2024-09-16T10:12:14Z</time>
      </trkpt>
      <trkpt lat="42.47929" lon="2.1942">
        <ele>1995</ele>
        <time>2024-09-16T10:12:17Z</time>
      </trkpt>
      <trkpt lat="42.47932" lon="2.19423">
        <ele>1996</ele>
        <time>2024-09-16T10:12:19Z</time>
      </trkpt>
      <trkpt lat="42.47934" lon="2.19425">
        <ele>1997</ele>
        <time>2024-09-16T10:12:22Z</time>
      </trkpt>
      <trkpt lat="42.47937" lon="2.19426">
        <ele>1996</ele>
        <time>2024-09-16T10:12:26Z</time>
      </trkpt>
      <trkpt lat="42.47939" lon="2.1943">
        <ele>1997</ele>
        <time>2024-09-16T10:12:29Z</time>
      </trkpt>
      <trkpt lat="42.4794" lon="2.19433">
        <ele>1998</ele>
        <time>2024-09-16T10:12:32Z</time>
      </trkpt>
      <trkpt lat="42.47942" lon="2.19437">
        <ele>1998</ele>
        <time>2024-09-16T10:12:35Z</time>
      </trkpt>
      <trkpt lat="42.47943" lon="2.19441">
        <ele>1999</ele>
        <time>2024-09-16T10:12:38Z</time>
      </trkpt>
      <trkpt lat="42.47942" lon="2.19445">
        <ele>2000</ele>
        <time>2024-09-16T10:12:41Z</time>
      </trkpt>
      <trkpt lat="42.47941" lon="2.19449">
        <ele>1999</ele>
        <time>2024-09-16T10:12:45Z</time>
      </trkpt>
      <trkpt lat="42.47939" lon="2.19452">
        <ele>2000</ele>
        <time>2024-09-16T10:12:47Z</time>
      </trkpt>
      <trkpt lat="42.47936" lon="2.19455">
        <ele>1999</ele>
        <time>2024-09-16T10:12:50Z</time>
      </trkpt>
      <trkpt lat="42.47934" lon="2.19458">
        <ele>2000</ele>
        <time>2024-09-16T10:12:53Z</time>
      </trkpt>
      <trkpt lat="42.47932" lon="2.19461">
        <ele>2000</ele>
        <time>2024-09-16T10:12:56Z</time>
      </trkpt>
      <trkpt lat="42.4793" lon="2.19464">
        <ele>1999</ele>
        <time>2024-09-16T10:13:00Z</time>
      </trkpt>
      <trkpt lat="42.47928" lon="2.19468">
        <ele>2002</ele>
        <time>2024-09-16T10:13:04Z</time>
      </trkpt>
      <trkpt lat="42.47926" lon="2.19471">
        <ele>2002</ele>
        <time>2024-09-16T10:13:07Z</time>
      </trkpt>
      <trkpt lat="42.47924" lon="2.19475">
        <ele>2004</ele>
        <time>2024-09-16T10:13:11Z</time>
      </trkpt>
      <trkpt lat="42.47922" lon="2.19479">
        <ele>2003</ele>
        <time>2024-09-16T10:13:16Z</time>
      </trkpt>
      <trkpt lat="42.4792" lon="2.19483">
        <ele>2003</ele>
        <time>2024-09-16T10:13:20Z</time>
      </trkpt>
      <trkpt lat="42.47918" lon="2.19486">
        <ele>2006</ele>
        <time>2024-09-16T10:13:24Z</time>
      </trkpt>
      <trkpt lat="42.47916" lon="2.1949">
        <ele>2005</ele>
        <time>2024-09-16T10:13:28Z</time>
      </trkpt>
      <trkpt lat="42.47914" lon="2.19493">
        <ele>2006</ele>
        <time>2024-09-16T10:13:32Z</time>
      </trkpt>
      <trkpt lat="42.47912" lon="2.19497">
        <ele>2006</ele>
        <time>2024-09-16T10:13:35Z</time>
      </trkpt>
      <trkpt lat="42.4791" lon="2.19499">
        <ele>2007</ele>
        <time>2024-09-16T10:13:37Z</time>
      </trkpt>
      <trkpt lat="42.47908" lon="2.19503">
        <ele>2007</ele>
        <time>2024-09-16T10:13:41Z</time>
      </trkpt>
      <trkpt lat="42.47905" lon="2.19505">
        <ele>2007</ele>
        <time>2024-09-16T10:13:46Z</time>
      </trkpt>
      <trkpt lat="42.47904" lon="2.19509">
        <ele>2007</ele>
        <time>2024-09-16T10:13:49Z</time>
      </trkpt>
      <trkpt lat="42.47902" lon="2.19512">
        <ele>2007</ele>
        <time>2024-09-16T10:13:53Z</time>
      </trkpt>
      <trkpt lat="42.47899" lon="2.19515">
        <ele>2008</ele>
        <time>2024-09-16T10:13:55Z</time>
      </trkpt>
      <trkpt lat="42.47898" lon="2.19519">
        <ele>2006</ele>
        <time>2024-09-16T10:13:58Z</time>
      </trkpt>
      <trkpt lat="42.47897" lon="2.19523">
        <ele>2007</ele>
        <time>2024-09-16T10:14:01Z</time>
      </trkpt>
      <trkpt lat="42.47895" lon="2.19526">
        <ele>2007</ele>
        <time>2024-09-16T10:14:05Z</time>
      </trkpt>
      <trkpt lat="42.47894" lon="2.1953">
        <ele>2007</ele>
        <time>2024-09-16T10:14:08Z</time>
      </trkpt>
      <trkpt lat="42.47892" lon="2.19533">
        <ele>2008</ele>
        <time>2024-09-16T10:14:11Z</time>
      </trkpt>
      <trkpt lat="42.4789" lon="2.19536">
        <ele>2008</ele>
        <time>2024-09-16T10:14:16Z</time>
      </trkpt>
      <trkpt lat="42.47887" lon="2.19539">
        <ele>2009</ele>
        <time>2024-09-16T10:14:20Z</time>
      </trkpt>
      <trkpt lat="42.47885" lon="2.19543">
        <ele>2009</ele>
        <time>2024-09-16T10:14:23Z</time>
      </trkpt>
      <trkpt lat="42.47884" lon="2.19547">
        <ele>2010</ele>
        <time>2024-09-16T10:14:27Z</time>
      </trkpt>
      <trkpt lat="42.47882" lon="2.19551">
        <ele>2011</ele>
        <time>2024-09-16T10:14:30Z</time>
      </trkpt>
      <trkpt lat="42.47881" lon="2.19555">
        <ele>2012</ele>
        <time>2024-09-16T10:14:35Z</time>
      </trkpt>
      <trkpt lat="42.47878" lon="2.19558">
        <ele>2011</ele>
        <time>2024-09-16T10:14:41Z</time>
      </trkpt>
      <trkpt lat="42.47876" lon="2.19562">
        <ele>2012</ele>
        <time>2024-09-16T10:14:44Z</time>
      </trkpt>
      <trkpt lat="42.47874" lon="2.19564">
        <ele>2011</ele>
        <time>2024-09-16T10:14:47Z</time>
      </trkpt>
      <trkpt lat="42.47873" lon="2.19569">
        <ele>2012</ele>
        <time>2024-09-16T10:14:51Z</time>
      </trkpt>
      <trkpt lat="42.47871" lon="2.19572">
        <ele>2012</ele>
        <time>2024-09-16T10:14:54Z</time>
      </trkpt>
      <trkpt lat="42.4787" lon="2.19576">
        <ele>2012</ele>
        <time>2024-09-16T10:14:58Z</time>
      </trkpt>
      <trkpt lat="42.47869" lon="2.19581">
        <ele>2013</ele>
        <time>2024-09-16T10:15:02Z</time>
      </trkpt>
      <trkpt lat="42.47868" lon="2.19586">
        <ele>2012</ele>
        <time>2024-09-16T10:15:07Z</time>
      </trkpt>
      <trkpt lat="42.47866" lon="2.19591">
        <ele>2012</ele>
        <time>2024-09-16T10:15:10Z</time>
      </trkpt>
      <trkpt lat="42.47865" lon="2.19596">
        <ele>2013</ele>
        <time>2024-09-16T10:15:13Z</time>
      </trkpt>
      <trkpt lat="42.47864" lon="2.196">
        <ele>2014</ele>
        <time>2024-09-16T10:15:16Z</time>
      </trkpt>
      <trkpt lat="42.47863" lon="2.19604">
        <ele>2014</ele>
        <time>2024-09-16T10:15:19Z</time>
      </trkpt>
      <trkpt lat="42.47861" lon="2.19609">
        <ele>2017</ele>
        <time>2024-09-16T10:15:24Z</time>
      </trkpt>
      <trkpt lat="42.47862" lon="2.19614">
        <ele>2017</ele>
        <time>2024-09-16T10:15:28Z</time>
      </trkpt>
      <trkpt lat="42.47861" lon="2.19619">
        <ele>2016</ele>
        <time>2024-09-16T10:15:32Z</time>
      </trkpt>
      <trkpt lat="42.4786" lon="2.19622">
        <ele>2017</ele>
        <time>2024-09-16T10:15:35Z</time>
      </trkpt>
      <trkpt lat="42.47858" lon="2.19627">
        <ele>2018</ele>
        <time>2024-09-16T10:15:38Z</time>
      </trkpt>
      <trkpt lat="42.47858" lon="2.19631">
        <ele>2019</ele>
        <time>2024-09-16T10:15:43Z</time>
      </trkpt>
      <trkpt lat="42.47857" lon="2.19635">
        <ele>2020</ele>
        <time>2024-09-16T10:15:46Z</time>
      </trkpt>
      <trkpt lat="42.47856" lon="2.19639">
        <ele>2020</ele>
        <time>2024-09-16T10:15:50Z</time>
      </trkpt>
      <trkpt lat="42.47855" lon="2.19643">
        <ele>2021</ele>
        <time>2024-09-16T10:15:52Z</time>
      </trkpt>
      <trkpt lat="42.47853" lon="2.19648">
        <ele>2021</ele>
        <time>2024-09-16T10:15:56Z</time>
      </trkpt>
      <trkpt lat="42.47854" lon="2.19651">
        <ele>2022</ele>
        <time>2024-09-16T10:15:59Z</time>
      </trkpt>
      <trkpt lat="42.47854" lon="2.19655">
        <ele>2021</ele>
        <time>2024-09-16T10:16:01Z</time>
      </trkpt>
      <trkpt lat="42.47853" lon="2.19659">
        <ele>2022</ele>
        <time>2024-09-16T10:16:03Z</time>
      </trkpt>
      <trkpt lat="42.47852" lon="2.19663">
        <ele>2022</ele>
        <time>2024-09-16T10:16:07Z</time>
      </trkpt>
      <trkpt lat="42.47852" lon="2.19667">
        <ele>2022</ele>
        <time>2024-09-16T10:16:09Z</time>
      </trkpt>
      <trkpt lat="42.47851" lon="2.19671">
        <ele>2022</ele>
        <time>2024-09-16T10:16:12Z</time>
      </trkpt>
      <trkpt lat="42.47851" lon="2.19674">
        <ele>2024</ele>
        <time>2024-09-16T10:16:15Z</time>
      </trkpt>
      <trkpt lat="42.4785" lon="2.19679">
        <ele>2025</ele>
        <time>2024-09-16T10:16:18Z</time>
      </trkpt>
      <trkpt lat="42.4785" lon="2.19683">
        <ele>2025</ele>
        <time>2024-09-16T10:16:21Z</time>
      </trkpt>
      <trkpt lat="42.47849" lon="2.19687">
        <ele>2025</ele>
        <time>2024-09-16T10:16:26Z</time>
      </trkpt>
      <trkpt lat="42.47849" lon="2.19691">
        <ele>2024</ele>
        <time>2024-09-16T10:16:29Z</time>
      </trkpt>
      <trkpt lat="42.4785" lon="2.19696">
        <ele>2025</ele>
        <time>2024-09-16T10:16:33Z</time>
      </trkpt>
      <trkpt lat="42.47851" lon="2.197">
        <ele>2025</ele>
        <time>2024-09-16T10:16:36Z</time>
      </trkpt>
      <trkpt lat="42.47852" lon="2.19703">
        <ele>2026</ele>
        <time>2024-09-16T10:16:40Z</time>
      </trkpt>
      <trkpt lat="42.47854" lon="2.19707">
        <ele>2027</ele>
        <time>2024-09-16T10:16:43Z</time>
      </trkpt>
      <trkpt lat="42.47855" lon="2.19711">
        <ele>2026</ele>
        <time>2024-09-16T10:16:47Z</time>
      </trkpt>
      <trkpt lat="42.47855" lon="2.19715">
        <ele>2027</ele>
        <time>2024-09-16T10:16:50Z</time>
      </trkpt>
      <trkpt lat="42.47856" lon="2.19718">
        <ele>2027</ele>
        <time>2024-09-16T10:16:53Z</time>
      </trkpt>
      <trkpt lat="42.47857" lon="2.19722">
        <ele>2028</ele>
        <time>2024-09-16T10:16:57Z</time>
      </trkpt>
      <trkpt lat="42.47858" lon="2.19726">
        <ele>2028</ele>
        <time>2024-09-16T10:17:00Z</time>
      </trkpt>
      <trkpt lat="42.47859" lon="2.1973">
        <ele>2028</ele>
        <time>2024-09-16T10:17:02Z</time>
      </trkpt>
      <trkpt lat="42.47861" lon="2.19735">
        <ele>2030</ele>
        <time>2024-09-16T10:17:08Z</time>
      </trkpt>
      <trkpt lat="42.47862" lon="2.1974">
        <ele>2031</ele>
        <time>2024-09-16T10:17:15Z</time>
      </trkpt>
      <trkpt lat="42.4786" lon="2.19743">
        <ele>2032</ele>
        <time>2024-09-16T10:17:24Z</time>
      </trkpt>
      <trkpt lat="42.47859" lon="2.19747">
        <ele>2034</ele>
        <time>2024-09-16T10:17:30Z</time>
      </trkpt>
      <trkpt lat="42.47857" lon="2.1975">
        <ele>2034</ele>
        <time>2024-09-16T10:17:39Z</time>
      </trkpt>
      <trkpt lat="42.47855" lon="2.1975">
        <ele>2034</ele>
        <time>2024-09-16T10:17:43Z</time>
      </trkpt>
      <trkpt lat="42.47852" lon="2.19751">
        <ele>2034</ele>
        <time>2024-09-16T10:17:51Z</time>
      </trkpt>
      <trkpt lat="42.4785" lon="2.19754">
        <ele>2035</ele>
        <time>2024-09-16T10:17:58Z</time>
      </trkpt>
      <trkpt lat="42.47848" lon="2.19756">
        <ele>2037</ele>
        <time>2024-09-16T10:18:04Z</time>
      </trkpt>
      <trkpt lat="42.47846" lon="2.1976">
        <ele>2037</ele>
        <time>2024-09-16T10:18:08Z</time>
      </trkpt>
      <trkpt lat="42.47844" lon="2.19763">
        <ele>2039</ele>
        <time>2024-09-16T10:18:15Z</time>
      </trkpt>
      <trkpt lat="42.47842" lon="2.19767">
        <ele>2041</ele>
        <time>2024-09-16T10:18:21Z</time>
      </trkpt>
      <trkpt lat="42.4784" lon="2.1977">
        <ele>2042</ele>
        <time>2024-09-16T10:18:25Z</time>
      </trkpt>
      <trkpt lat="42.47838" lon="2.19773">
        <ele>2045</ele>
        <time>2024-09-16T10:18:31Z</time>
      </trkpt>
      <trkpt lat="42.47836" lon="2.19776">
        <ele>2045</ele>
        <time>2024-09-16T10:18:36Z</time>
      </trkpt>
      <trkpt lat="42.47834" lon="2.19779">
        <ele>2046</ele>
        <time>2024-09-16T10:18:41Z</time>
      </trkpt>
      <trkpt lat="42.47833" lon="2.19782">
        <ele>2046</ele>
        <time>2024-09-16T10:18:47Z</time>
      </trkpt>
      <trkpt lat="42.47832" lon="2.19785">
        <ele>2047</ele>
        <time>2024-09-16T10:18:50Z</time>
      </trkpt>
      <trkpt lat="42.47831" lon="2.19789">
        <ele>2048</ele>
        <time>2024-09-16T10:18:54Z</time>
      </trkpt>
      <trkpt lat="42.4783" lon="2.19793">
        <ele>2048</ele>
        <time>2024-09-16T10:18:59Z</time>
      </trkpt>
      <trkpt lat="42.4783" lon="2.19797">
        <ele>2049</ele>
        <time>2024-09-16T10:19:02Z</time>
      </trkpt>
      <trkpt lat="42.47829" lon="2.198">
        <ele>2050</ele>
        <time>2024-09-16T10:19:05Z</time>
      </trkpt>
      <trkpt lat="42.47828" lon="2.19804">
        <ele>2051</ele>
        <time>2024-09-16T10:19:09Z</time>
      </trkpt>
      <trkpt lat="42.47826" lon="2.19809">
        <ele>2054</ele>
        <time>2024-09-16T10:19:13Z</time>
      </trkpt>
      <trkpt lat="42.47825" lon="2.19814">
        <ele>2055</ele>
        <time>2024-09-16T10:19:18Z</time>
      </trkpt>
      <trkpt lat="42.47824" lon="2.19818">
        <ele>2052</ele>
        <time>2024-09-16T10:19:32Z</time>
      </trkpt>
      <trkpt lat="42.47822" lon="2.19821">
        <ele>2052</ele>
        <time>2024-09-16T10:19:35Z</time>
      </trkpt>
      <trkpt lat="42.47821" lon="2.19825">
        <ele>2052</ele>
        <time>2024-09-16T10:19:38Z</time>
      </trkpt>
      <trkpt lat="42.47818" lon="2.19829">
        <ele>2053</ele>
        <time>2024-09-16T10:19:42Z</time>
      </trkpt>
      <trkpt lat="42.47817" lon="2.19832">
        <ele>2054</ele>
        <time>2024-09-16T10:19:45Z</time>
      </trkpt>
      <trkpt lat="42.47814" lon="2.19836">
        <ele>2054</ele>
        <time>2024-09-16T10:19:49Z</time>
      </trkpt>
      <trkpt lat="42.47815" lon="2.19838">
        <ele>2057</ele>
        <time>2024-09-16T10:20:34Z</time>
      </trkpt>
      <trkpt lat="42.47815" lon="2.19837">
        <ele>2055</ele>
        <time>2024-09-16T10:20:45Z</time>
      </trkpt>
      <trkpt lat="42.47814" lon="2.19839">
        <ele>2055</ele>
        <time>2024-09-16T10:21:11Z</time>
      </trkpt>
      <trkpt lat="42.47818" lon="2.1984">
        <ele>2056</ele>
        <time>2024-09-16T10:21:36Z</time>
      </trkpt>
      <trkpt lat="42.47817" lon="2.1984">
        <ele>2056</ele>
        <time>2024-09-16T10:21:53Z</time>
      </trkpt>
      <trkpt lat="42.47815" lon="2.1984">
        <ele>2056</ele>
        <time>2024-09-16T10:22:00Z</time>
      </trkpt>
      <trkpt lat="42.47813" lon="2.19838">
        <ele>2055</ele>
        <time>2024-09-16T10:22:10Z</time>
      </trkpt>
      <trkpt lat="42.4781" lon="2.19838">
        <ele>2055</ele>
        <time>2024-09-16T10:22:33Z</time>
      </trkpt>
      <trkpt lat="42.47807" lon="2.1984">
        <ele>2055</ele>
        <time>2024-09-16T10:22:36Z</time>
      </trkpt>
      <trkpt lat="42.47803" lon="2.19841">
        <ele>2055</ele>
        <time>2024-09-16T10:22:39Z</time>
      </trkpt>
      <trkpt lat="42.478" lon="2.19843">
        <ele>2055</ele>
        <time>2024-09-16T10:22:43Z</time>
      </trkpt>
      <trkpt lat="42.47797" lon="2.19846">
        <ele>2055</ele>
        <time>2024-09-16T10:22:46Z</time>
      </trkpt>
      <trkpt lat="42.47794" lon="2.19848">
        <ele>2056</ele>
        <time>2024-09-16T10:22:49Z</time>
      </trkpt>
      <trkpt lat="42.4779" lon="2.1985">
        <ele>2057</ele>
        <time>2024-09-16T10:22:52Z</time>
      </trkpt>
      <trkpt lat="42.47787" lon="2.19851">
        <ele>2057</ele>
        <time>2024-09-16T10:22:56Z</time>
      </trkpt>
      <trkpt lat="42.47784" lon="2.19853">
        <ele>2057</ele>
        <time>2024-09-16T10:22:59Z</time>
      </trkpt>
      <trkpt lat="42.47781" lon="2.19855">
        <ele>2057</ele>
        <time>2024-09-16T10:23:02Z</time>
      </trkpt>
      <trkpt lat="42.47778" lon="2.19857">
        <ele>2058</ele>
        <time>2024-09-16T10:23:05Z</time>
      </trkpt>
      <trkpt lat="42.47775" lon="2.19859">
        <ele>2057</ele>
        <time>2024-09-16T10:23:09Z</time>
      </trkpt>
      <trkpt lat="42.47772" lon="2.19861">
        <ele>2058</ele>
        <time>2024-09-16T10:23:12Z</time>
      </trkpt>
      <trkpt lat="42.47769" lon="2.19864">
        <ele>2058</ele>
        <time>2024-09-16T10:23:15Z</time>
      </trkpt>
      <trkpt lat="42.47766" lon="2.19866">
        <ele>2058</ele>
        <time>2024-09-16T10:23:18Z</time>
      </trkpt>
      <trkpt lat="42.47764" lon="2.19868">
        <ele>2058</ele>
        <time>2024-09-16T10:23:21Z</time>
      </trkpt>
      <trkpt lat="42.47761" lon="2.1987">
        <ele>2058</ele>
        <time>2024-09-16T10:23:24Z</time>
      </trkpt>
      <trkpt lat="42.47758" lon="2.19872">
        <ele>2058</ele>
        <time>2024-09-16T10:23:27Z</time>
      </trkpt>
      <trkpt lat="42.47755" lon="2.19874">
        <ele>2058</ele>
        <time>2024-09-16T10:23:30Z</time>
      </trkpt>
      <trkpt lat="42.47752" lon="2.19876">
        <ele>2058</ele>
        <time>2024-09-16T10:23:34Z</time>
      </trkpt>
      <trkpt lat="42.47749" lon="2.19878">
        <ele>2059</ele>
        <time>2024-09-16T10:23:37Z</time>
      </trkpt>
      <trkpt lat="42.47746" lon="2.1988">
        <ele>2059</ele>
        <time>2024-09-16T10:23:40Z</time>
      </trkpt>
      <trkpt lat="42.47744" lon="2.19882">
        <ele>2059</ele>
        <time>2024-09-16T10:23:43Z</time>
      </trkpt>
      <trkpt lat="42.47741" lon="2.19883">
        <ele>2059</ele>
        <time>2024-09-16T10:23:46Z</time>
      </trkpt>
      <trkpt lat="42.47738" lon="2.19883">
        <ele>2060</ele>
        <time>2024-09-16T10:23:49Z</time>
      </trkpt>
      <trkpt lat="42.47734" lon="2.19883">
        <ele>2061</ele>
        <time>2024-09-16T10:23:52Z</time>
      </trkpt>
      <trkpt lat="42.47731" lon="2.19884">
        <ele>2061</ele>
        <time>2024-09-16T10:23:55Z</time>
      </trkpt>
      <trkpt lat="42.47728" lon="2.19886">
        <ele>2061</ele>
        <time>2024-09-16T10:23:58Z</time>
      </trkpt>
      <trkpt lat="42.47725" lon="2.19889">
        <ele>2061</ele>
        <time>2024-09-16T10:24:01Z</time>
      </trkpt>
      <trkpt lat="42.47723" lon="2.19892">
        <ele>2061</ele>
        <time>2024-09-16T10:24:04Z</time>
      </trkpt>
      <trkpt lat="42.47721" lon="2.19896">
        <ele>2062</ele>
        <time>2024-09-16T10:24:07Z</time>
      </trkpt>
      <trkpt lat="42.47718" lon="2.199">
        <ele>2062</ele>
        <time>2024-09-16T10:24:10Z</time>
      </trkpt>
      <trkpt lat="42.47716" lon="2.19904">
        <ele>2062</ele>
        <time>2024-09-16T10:24:13Z</time>
      </trkpt>
      <trkpt lat="42.47713" lon="2.19906">
        <ele>2062</ele>
        <time>2024-09-16T10:24:16Z</time>
      </trkpt>
      <trkpt lat="42.47711" lon="2.19909">
        <ele>2063</ele>
        <time>2024-09-16T10:24:18Z</time>
      </trkpt>
      <trkpt lat="42.47708" lon="2.19911">
        <ele>2063</ele>
        <time>2024-09-16T10:24:21Z</time>
      </trkpt>
      <trkpt lat="42.47705" lon="2.19913">
        <ele>2064</ele>
        <time>2024-09-16T10:24:24Z</time>
      </trkpt>
      <trkpt lat="42.47702" lon="2.19915">
        <ele>2063</ele>
        <time>2024-09-16T10:24:28Z</time>
      </trkpt>
      <trkpt lat="42.47699" lon="2.19917">
        <ele>2064</ele>
        <time>2024-09-16T10:24:31Z</time>
      </trkpt>
      <trkpt lat="42.47697" lon="2.19919">
        <ele>2064</ele>
        <time>2024-09-16T10:24:34Z</time>
      </trkpt>
      <trkpt lat="42.47694" lon="2.19922">
        <ele>2064</ele>
        <time>2024-09-16T10:24:37Z</time>
      </trkpt>
      <trkpt lat="42.47692" lon="2.19924">
        <ele>2064</ele>
        <time>2024-09-16T10:24:40Z</time>
      </trkpt>
      <trkpt lat="42.4769" lon="2.19928">
        <ele>2065</ele>
        <time>2024-09-16T10:24:43Z</time>
      </trkpt>
      <trkpt lat="42.47688" lon="2.19931">
        <ele>2065</ele>
        <time>2024-09-16T10:24:45Z</time>
      </trkpt>
      <trkpt lat="42.47687" lon="2.19934">
        <ele>2063</ele>
        <time>2024-09-16T10:24:49Z</time>
      </trkpt>
      <trkpt lat="42.47684" lon="2.19937">
        <ele>2065</ele>
        <time>2024-09-16T10:24:52Z</time>
      </trkpt>
      <trkpt lat="42.47682" lon="2.1994">
        <ele>2067</ele>
        <time>2024-09-16T10:24:54Z</time>
      </trkpt>
      <trkpt lat="42.4768" lon="2.19942">
        <ele>2065</ele>
        <time>2024-09-16T10:24:57Z</time>
      </trkpt>
      <trkpt lat="42.47677" lon="2.19945">
        <ele>2065</ele>
        <time>2024-09-16T10:25:01Z</time>
      </trkpt>
      <trkpt lat="42.47675" lon="2.19947">
        <ele>2067</ele>
        <time>2024-09-16T10:25:03Z</time>
      </trkpt>
      <trkpt lat="42.47673" lon="2.19951">
        <ele>2065</ele>
        <time>2024-09-16T10:25:08Z</time>
      </trkpt>
      <trkpt lat="42.47671" lon="2.19955">
        <ele>2064</ele>
        <time>2024-09-16T10:25:11Z</time>
      </trkpt>
      <trkpt lat="42.47669" lon="2.19958">
        <ele>2065</ele>
        <time>2024-09-16T10:25:14Z</time>
      </trkpt>
      <trkpt lat="42.47668" lon="2.19962">
        <ele>2064</ele>
        <time>2024-09-16T10:25:16Z</time>
      </trkpt>
      <trkpt lat="42.47665" lon="2.19965">
        <ele>2064</ele>
        <time>2024-09-16T10:25:19Z</time>
      </trkpt>
      <trkpt lat="42.47663" lon="2.19966">
        <ele>2068</ele>
        <time>2024-09-16T10:25:23Z</time>
      </trkpt>
      <trkpt lat="42.4766" lon="2.19969">
        <ele>2068</ele>
        <time>2024-09-16T10:25:26Z</time>
      </trkpt>
      <trkpt lat="42.47659" lon="2.19971">
        <ele>2067</ele>
        <time>2024-09-16T10:25:28Z</time>
      </trkpt>
      <trkpt lat="42.47656" lon="2.19976">
        <ele>2067</ele>
        <time>2024-09-16T10:25:31Z</time>
      </trkpt>
      <trkpt lat="42.47654" lon="2.19979">
        <ele>2067</ele>
        <time>2024-09-16T10:25:35Z</time>
      </trkpt>
      <trkpt lat="42.47651" lon="2.19981">
        <ele>2068</ele>
        <time>2024-09-16T10:25:37Z</time>
      </trkpt>
      <trkpt lat="42.47649" lon="2.19982">
        <ele>2068</ele>
        <time>2024-09-16T10:25:43Z</time>
      </trkpt>
      <trkpt lat="42.47646" lon="2.19984">
        <ele>2068</ele>
        <time>2024-09-16T10:25:47Z</time>
      </trkpt>
      <trkpt lat="42.47644" lon="2.19988">
        <ele>2069</ele>
        <time>2024-09-16T10:25:50Z</time>
      </trkpt>
      <trkpt lat="42.47641" lon="2.1999">
        <ele>2069</ele>
        <time>2024-09-16T10:25:56Z</time>
      </trkpt>
      <trkpt lat="42.47639" lon="2.19993">
        <ele>2069</ele>
        <time>2024-09-16T10:26:00Z</time>
      </trkpt>
      <trkpt lat="42.47637" lon="2.19997">
        <ele>2069</ele>
        <time>2024-09-16T10:26:03Z</time>
      </trkpt>
      <trkpt lat="42.47634" lon="2.2">
        <ele>2069</ele>
        <time>2024-09-16T10:26:05Z</time>
      </trkpt>
      <trkpt lat="42.47632" lon="2.20002">
        <ele>2070</ele>
        <time>2024-09-16T10:26:08Z</time>
      </trkpt>
      <trkpt lat="42.47629" lon="2.20004">
        <ele>2071</ele>
        <time>2024-09-16T10:26:11Z</time>
      </trkpt>
      <trkpt lat="42.47627" lon="2.20006">
        <ele>2071</ele>
        <time>2024-09-16T10:26:15Z</time>
      </trkpt>
      <trkpt lat="42.47624" lon="2.20008">
        <ele>2071</ele>
        <time>2024-09-16T10:26:19Z</time>
      </trkpt>
      <trkpt lat="42.47622" lon="2.20011">
        <ele>2070</ele>
        <time>2024-09-16T10:26:22Z</time>
      </trkpt>
      <trkpt lat="42.4762" lon="2.20013">
        <ele>2072</ele>
        <time>2024-09-16T10:26:26Z</time>
      </trkpt>
      <trkpt lat="42.47617" lon="2.20015">
        <ele>2073</ele>
        <time>2024-09-16T10:26:30Z</time>
      </trkpt>
      <trkpt lat="42.47614" lon="2.20017">
        <ele>2073</ele>
        <time>2024-09-16T10:26:34Z</time>
      </trkpt>
      <trkpt lat="42.47611" lon="2.20019">
        <ele>2073</ele>
        <time>2024-09-16T10:26:38Z</time>
      </trkpt>
      <trkpt lat="42.4761" lon="2.20023">
        <ele>2073</ele>
        <time>2024-09-16T10:26:42Z</time>
      </trkpt>
      <trkpt lat="42.47608" lon="2.20026">
        <ele>2074</ele>
        <time>2024-09-16T10:26:45Z</time>
      </trkpt>
      <trkpt lat="42.47607" lon="2.2003">
        <ele>2074</ele>
        <time>2024-09-16T10:26:49Z</time>
      </trkpt>
      <trkpt lat="42.47605" lon="2.20035">
        <ele>2076</ele>
        <time>2024-09-16T10:26:55Z</time>
      </trkpt>
      <trkpt lat="42.47603" lon="2.20039">
        <ele>2076</ele>
        <time>2024-09-16T10:26:58Z</time>
      </trkpt>
      <trkpt lat="42.476" lon="2.20041">
        <ele>2075</ele>
        <time>2024-09-16T10:27:05Z</time>
      </trkpt>
      <trkpt lat="42.47598" lon="2.20044">
        <ele>2076</ele>
        <time>2024-09-16T10:27:10Z</time>
      </trkpt>
      <trkpt lat="42.47597" lon="2.20047">
        <ele>2077</ele>
        <time>2024-09-16T10:27:14Z</time>
      </trkpt>
      <trkpt lat="42.47599" lon="2.20051">
        <ele>2074</ele>
        <time>2024-09-16T10:27:25Z</time>
      </trkpt>
      <trkpt lat="42.47599" lon="2.20055">
        <ele>2075</ele>
        <time>2024-09-16T10:27:31Z</time>
      </trkpt>
      <trkpt lat="42.47597" lon="2.20059">
        <ele>2076</ele>
        <time>2024-09-16T10:27:35Z</time>
      </trkpt>
      <trkpt lat="42.47595" lon="2.20062">
        <ele>2077</ele>
        <time>2024-09-16T10:27:39Z</time>
      </trkpt>
      <trkpt lat="42.47593" lon="2.20065">
        <ele>2078</ele>
        <time>2024-09-16T10:27:45Z</time>
      </trkpt>
      <trkpt lat="42.4759" lon="2.20067">
        <ele>2080</ele>
        <time>2024-09-16T10:27:49Z</time>
      </trkpt>
      <trkpt lat="42.47588" lon="2.20071">
        <ele>2079</ele>
        <time>2024-09-16T10:27:53Z</time>
      </trkpt>
      <trkpt lat="42.47588" lon="2.20074">
        <ele>2080</ele>
        <time>2024-09-16T10:27:59Z</time>
      </trkpt>
      <trkpt lat="42.47588" lon="2.20079">
        <ele>2081</ele>
        <time>2024-09-16T10:28:04Z</time>
      </trkpt>
      <trkpt lat="42.47587" lon="2.20083">
        <ele>2081</ele>
        <time>2024-09-16T10:28:09Z</time>
      </trkpt>
      <trkpt lat="42.47586" lon="2.20087">
        <ele>2082</ele>
        <time>2024-09-16T10:28:14Z</time>
      </trkpt>
      <trkpt lat="42.47585" lon="2.2009">
        <ele>2083</ele>
        <time>2024-09-16T10:28:17Z</time>
      </trkpt>
      <trkpt lat="42.47584" lon="2.20094">
        <ele>2083</ele>
        <time>2024-09-16T10:28:21Z</time>
      </trkpt>
      <trkpt lat="42.47583" lon="2.20098">
        <ele>2084</ele>
        <time>2024-09-16T10:28:25Z</time>
      </trkpt>
      <trkpt lat="42.47583" lon="2.20103">
        <ele>2084</ele>
        <time>2024-09-16T10:28:29Z</time>
      </trkpt>
      <trkpt lat="42.47582" lon="2.20107">
        <ele>2084</ele>
        <time>2024-09-16T10:28:31Z</time>
      </trkpt>
      <trkpt lat="42.47582" lon="2.20111">
        <ele>2083</ele>
        <time>2024-09-16T10:28:36Z</time>
      </trkpt>
      <trkpt lat="42.47581" lon="2.20115">
        <ele>2085</ele>
        <time>2024-09-16T10:28:40Z</time>
      </trkpt>
      <trkpt lat="42.4758" lon="2.2012">
        <ele>2086</ele>
        <time>2024-09-16T10:28:44Z</time>
      </trkpt>
      <trkpt lat="42.4758" lon="2.20125">
        <ele>2086</ele>
        <time>2024-09-16T10:28:50Z</time>
      </trkpt>
      <trkpt lat="42.47579" lon="2.2013">
        <ele>2087</ele>
        <time>2024-09-16T10:28:54Z</time>
      </trkpt>
      <trkpt lat="42.47581" lon="2.20134">
        <ele>2085</ele>
        <time>2024-09-16T10:28:57Z</time>
      </trkpt>
      <trkpt lat="42.47582" lon="2.20138">
        <ele>2087</ele>
        <time>2024-09-16T10:29:03Z</time>
      </trkpt>
      <trkpt lat="42.47582" lon="2.20142">
        <ele>2087</ele>
        <time>2024-09-16T10:29:07Z</time>
      </trkpt>
      <trkpt lat="42.47582" lon="2.20146">
        <ele>2088</ele>
        <time>2024-09-16T10:29:10Z</time>
      </trkpt>
      <trkpt lat="42.47581" lon="2.20149">
        <ele>2088</ele>
        <time>2024-09-16T10:29:15Z</time>
      </trkpt>
      <trkpt lat="42.47581" lon="2.20154">
        <ele>2089</ele>
        <time>2024-09-16T10:29:19Z</time>
      </trkpt>
      <trkpt lat="42.4758" lon="2.20158">
        <ele>2091</ele>
        <time>2024-09-16T10:29:23Z</time>
      </trkpt>
      <trkpt lat="42.4758" lon="2.20162">
        <ele>2089</ele>
        <time>2024-09-16T10:29:31Z</time>
      </trkpt>
      <trkpt lat="42.47578" lon="2.20166">
        <ele>2089</ele>
        <time>2024-09-16T10:29:36Z</time>
      </trkpt>
      <trkpt lat="42.47577" lon="2.2017">
        <ele>2091</ele>
        <time>2024-09-16T10:29:41Z</time>
      </trkpt>
      <trkpt lat="42.47577" lon="2.20173">
        <ele>2090</ele>
        <time>2024-09-16T10:29:46Z</time>
      </trkpt>
      <trkpt lat="42.47576" lon="2.20177">
        <ele>2091</ele>
        <time>2024-09-16T10:29:51Z</time>
      </trkpt>
      <trkpt lat="42.47574" lon="2.2018">
        <ele>2091</ele>
        <time>2024-09-16T10:29:54Z</time>
      </trkpt>
      <trkpt lat="42.47572" lon="2.20182">
        <ele>2094</ele>
        <time>2024-09-16T10:29:58Z</time>
      </trkpt>
      <trkpt lat="42.4757" lon="2.20186">
        <ele>2096</ele>
        <time>2024-09-16T10:30:06Z</time>
      </trkpt>
      <trkpt lat="42.47569" lon="2.20189">
        <ele>2096</ele>
        <time>2024-09-16T10:30:11Z</time>
      </trkpt>
      <trkpt lat="42.4757" lon="2.20193">
        <ele>2096</ele>
        <time>2024-09-16T10:30:16Z</time>
      </trkpt>
      <trkpt lat="42.47572" lon="2.20196">
        <ele>2098</ele>
        <time>2024-09-16T10:30:22Z</time>
      </trkpt>
      <trkpt lat="42.47574" lon="2.20199">
        <ele>2099</ele>
        <time>2024-09-16T10:30:28Z</time>
      </trkpt>
      <trkpt lat="42.47574" lon="2.20203">
        <ele>2098</ele>
        <time>2024-09-16T10:30:35Z</time>
      </trkpt>
      <trkpt lat="42.47574" lon="2.20207">
        <ele>2101</ele>
        <time>2024-09-16T10:31:25Z</time>
      </trkpt>
      <trkpt lat="42.47572" lon="2.20212">
        <ele>2103</ele>
        <time>2024-09-16T10:31:30Z</time>
      </trkpt>
      <trkpt lat="42.4757" lon="2.20215">
        <ele>2104</ele>
        <time>2024-09-16T10:31:34Z</time>
      </trkpt>
      <trkpt lat="42.47568" lon="2.20218">
        <ele>2104</ele>
        <time>2024-09-16T10:31:38Z</time>
      </trkpt>
      <trkpt lat="42.47566" lon="2.2022">
        <ele>2105</ele>
        <time>2024-09-16T10:31:39Z</time>
      </trkpt>
      <trkpt lat="42.47565" lon="2.20223">
        <ele>2104</ele>
        <time>2024-09-16T10:31:42Z</time>
      </trkpt>
      <trkpt lat="42.47567" lon="2.20225">
        <ele>2103</ele>
        <time>2024-09-16T10:31:52Z</time>
      </trkpt>
      <trkpt lat="42.47566" lon="2.20228">
        <ele>2102</ele>
        <time>2024-09-16T10:32:42Z</time>
      </trkpt>
      <trkpt lat="42.47567" lon="2.20231">
        <ele>2102</ele>
        <time>2024-09-16T10:32:45Z</time>
      </trkpt>
      <trkpt lat="42.47565" lon="2.20235">
        <ele>2103</ele>
        <time>2024-09-16T10:32:48Z</time>
      </trkpt>
      <trkpt lat="42.47564" lon="2.20238">
        <ele>2103</ele>
        <time>2024-09-16T10:32:51Z</time>
      </trkpt>
      <trkpt lat="42.47563" lon="2.20242">
        <ele>2105</ele>
        <time>2024-09-16T10:32:55Z</time>
      </trkpt>
      <trkpt lat="42.47562" lon="2.20246">
        <ele>2106</ele>
        <time>2024-09-16T10:32:58Z</time>
      </trkpt>
      <trkpt lat="42.47562" lon="2.2025">
        <ele>2107</ele>
        <time>2024-09-16T10:33:01Z</time>
      </trkpt>
      <trkpt lat="42.47561" lon="2.20254">
        <ele>2109</ele>
        <time>2024-09-16T10:33:06Z</time>
      </trkpt>
      <trkpt lat="42.4756" lon="2.20259">
        <ele>2110</ele>
        <time>2024-09-16T10:33:10Z</time>
      </trkpt>
      <trkpt lat="42.47559" lon="2.20263">
        <ele>2110</ele>
        <time>2024-09-16T10:33:13Z</time>
      </trkpt>
      <trkpt lat="42.47558" lon="2.20266">
        <ele>2110</ele>
        <time>2024-09-16T10:33:15Z</time>
      </trkpt>
      <trkpt lat="42.47556" lon="2.2027">
        <ele>2111</ele>
        <time>2024-09-16T10:33:19Z</time>
      </trkpt>
      <trkpt lat="42.47555" lon="2.20274">
        <ele>2111</ele>
        <time>2024-09-16T10:33:22Z</time>
      </trkpt>
      <trkpt lat="42.47555" lon="2.20278">
        <ele>2111</ele>
        <time>2024-09-16T10:33:26Z</time>
      </trkpt>
      <trkpt lat="42.47554" lon="2.20282">
        <ele>2110</ele>
        <time>2024-09-16T10:33:33Z</time>
      </trkpt>
      <trkpt lat="42.47552" lon="2.20285">
        <ele>2110</ele>
        <time>2024-09-16T10:33:35Z</time>
      </trkpt>
      <trkpt lat="42.47552" lon="2.20288">
        <ele>2111</ele>
        <time>2024-09-16T10:33:38Z</time>
      </trkpt>
      <trkpt lat="42.47552" lon="2.20292">
        <ele>2112</ele>
        <time>2024-09-16T10:33:42Z</time>
      </trkpt>
      <trkpt lat="42.47551" lon="2.20295">
        <ele>2112</ele>
        <time>2024-09-16T10:33:46Z</time>
      </trkpt>
      <trkpt lat="42.47551" lon="2.20299">
        <ele>2113</ele>
        <time>2024-09-16T10:33:54Z</time>
      </trkpt>
      <trkpt lat="42.4755" lon="2.20302">
        <ele>2113</ele>
        <time>2024-09-16T10:34:03Z</time>
      </trkpt>
      <trkpt lat="42.47552" lon="2.20305">
        <ele>2113</ele>
        <time>2024-09-16T10:34:08Z</time>
      </trkpt>
      <trkpt lat="42.47554" lon="2.20308">
        <ele>2111</ele>
        <time>2024-09-16T10:34:15Z</time>
      </trkpt>
      <trkpt lat="42.47554" lon="2.20312">
        <ele>2110</ele>
        <time>2024-09-16T10:34:18Z</time>
      </trkpt>
      <trkpt lat="42.47552" lon="2.20313">
        <ele>2112</ele>
        <time>2024-09-16T10:34:22Z</time>
      </trkpt>
      <trkpt lat="42.4755" lon="2.20312">
        <ele>2112</ele>
        <time>2024-09-16T10:34:25Z</time>
      </trkpt>
      <trkpt lat="42.47548" lon="2.20313">
        <ele>2114</ele>
        <time>2024-09-16T10:34:29Z</time>
      </trkpt>
      <trkpt lat="42.47546" lon="2.20315">
        <ele>2112</ele>
        <time>2024-09-16T10:34:32Z</time>
      </trkpt>
      <trkpt lat="42.47543" lon="2.20318">
        <ele>2111</ele>
        <time>2024-09-16T10:34:36Z</time>
      </trkpt>
      <trkpt lat="42.4754" lon="2.2032">
        <ele>2114</ele>
        <time>2024-09-16T10:34:43Z</time>
      </trkpt>
      <trkpt lat="42.47539" lon="2.20324">
        <ele>2114</ele>
        <time>2024-09-16T10:34:50Z</time>
      </trkpt>
      <trkpt lat="42.47539" lon="2.20328">
        <ele>2114</ele>
        <time>2024-09-16T10:34:56Z</time>
      </trkpt>
      <trkpt lat="42.47538" lon="2.20333">
        <ele>2116</ele>
        <time>2024-09-16T10:35:03Z</time>
      </trkpt>
      <trkpt lat="42.47538" lon="2.20337">
        <ele>2119</ele>
        <time>2024-09-16T10:35:09Z</time>
      </trkpt>
      <trkpt lat="42.47536" lon="2.20341">
        <ele>2119</ele>
        <time>2024-09-16T10:35:14Z</time>
      </trkpt>
      <trkpt lat="42.47535" lon="2.20344">
        <ele>2122</ele>
        <time>2024-09-16T10:35:21Z</time>
      </trkpt>
      <trkpt lat="42.47535" lon="2.20348">
        <ele>2122</ele>
        <time>2024-09-16T10:35:25Z</time>
      </trkpt>
      <trkpt lat="42.47533" lon="2.20351">
        <ele>2124</ele>
        <time>2024-09-16T10:35:33Z</time>
      </trkpt>
      <trkpt lat="42.4753" lon="2.20352">
        <ele>2125</ele>
        <time>2024-09-16T10:35:41Z</time>
      </trkpt>
      <trkpt lat="42.47528" lon="2.20354">
        <ele>2127</ele>
        <time>2024-09-16T10:35:46Z</time>
      </trkpt>
      <trkpt lat="42.47527" lon="2.20357">
        <ele>2127</ele>
        <time>2024-09-16T10:35:52Z</time>
      </trkpt>
      <trkpt lat="42.47527" lon="2.20361">
        <ele>2128</ele>
        <time>2024-09-16T10:36:00Z</time>
      </trkpt>
      <trkpt lat="42.47527" lon="2.20364">
        <ele>2130</ele>
        <time>2024-09-16T10:36:06Z</time>
      </trkpt>
      <trkpt lat="42.47525" lon="2.20367">
        <ele>2130</ele>
        <time>2024-09-16T10:36:22Z</time>
      </trkpt>
      <trkpt lat="42.47523" lon="2.20369">
        <ele>2132</ele>
        <time>2024-09-16T10:36:29Z</time>
      </trkpt>
      <trkpt lat="42.47521" lon="2.20372">
        <ele>2133</ele>
        <time>2024-09-16T10:36:35Z</time>
      </trkpt>
      <trkpt lat="42.47518" lon="2.20376">
        <ele>2135</ele>
        <time>2024-09-16T10:36:49Z</time>
      </trkpt>
      <trkpt lat="42.47517" lon="2.20379">
        <ele>2136</ele>
        <time>2024-09-16T10:36:55Z</time>
      </trkpt>
      <trkpt lat="42.47516" lon="2.20383">
        <ele>2138</ele>
        <time>2024-09-16T10:36:59Z</time>
      </trkpt>
      <trkpt lat="42.47515" lon="2.20386">
        <ele>2139</ele>
        <time>2024-09-16T10:37:05Z</time>
      </trkpt>
      <trkpt lat="42.47513" lon="2.20389">
        <ele>2141</ele>
        <time>2024-09-16T10:37:08Z</time>
      </trkpt>
      <trkpt lat="42.47511" lon="2.20392">
        <ele>2139</ele>
        <time>2024-09-16T10:37:13Z</time>
      </trkpt>
      <trkpt lat="42.47509" lon="2.20395">
        <ele>2139</ele>
        <time>2024-09-16T10:37:20Z</time>
      </trkpt>
      <trkpt lat="42.4751" lon="2.20399">
        <ele>2140</ele>
        <time>2024-09-16T10:37:25Z</time>
      </trkpt>
      <trkpt lat="42.4751" lon="2.20402">
        <ele>2142</ele>
        <time>2024-09-16T10:37:30Z</time>
      </trkpt>
      <trkpt lat="42.47509" lon="2.20406">
        <ele>2143</ele>
        <time>2024-09-16T10:37:35Z</time>
      </trkpt>
      <trkpt lat="42.47507" lon="2.2041">
        <ele>2142</ele>
        <time>2024-09-16T10:37:40Z</time>
      </trkpt>
      <trkpt lat="42.47505" lon="2.20413">
        <ele>2143</ele>
        <time>2024-09-16T10:37:42Z</time>
      </trkpt>
      <trkpt lat="42.47503" lon="2.20417">
        <ele>2145</ele>
        <time>2024-09-16T10:37:57Z</time>
      </trkpt>
      <trkpt lat="42.47501" lon="2.20416">
        <ele>2147</ele>
        <time>2024-09-16T10:38:07Z</time>
      </trkpt>
      <trkpt lat="42.47498" lon="2.20415">
        <ele>2146</ele>
        <time>2024-09-16T10:38:13Z</time>
      </trkpt>
      <trkpt lat="42.47496" lon="2.20417">
        <ele>2148</ele>
        <time>2024-09-16T10:38:18Z</time>
      </trkpt>
      <trkpt lat="42.47494" lon="2.2042">
        <ele>2150</ele>
        <time>2024-09-16T10:38:24Z</time>
      </trkpt>
      <trkpt lat="42.47494" lon="2.20423">
        <ele>2153</ele>
        <time>2024-09-16T10:38:39Z</time>
      </trkpt>
      <trkpt lat="42.47495" lon="2.20426">
        <ele>2153</ele>
        <time>2024-09-16T10:38:45Z</time>
      </trkpt>
      <trkpt lat="42.47495" lon="2.2043">
        <ele>2153</ele>
        <time>2024-09-16T10:38:52Z</time>
      </trkpt>
      <trkpt lat="42.47493" lon="2.20432">
        <ele>2153</ele>
        <time>2024-09-16T10:38:56Z</time>
      </trkpt>
      <trkpt lat="42.4749" lon="2.20435">
        <ele>2154</ele>
        <time>2024-09-16T10:39:01Z</time>
      </trkpt>
      <trkpt lat="42.47489" lon="2.20438">
        <ele>2153</ele>
        <time>2024-09-16T10:39:06Z</time>
      </trkpt>
      <trkpt lat="42.47487" lon="2.20441">
        <ele>2156</ele>
        <time>2024-09-16T10:39:18Z</time>
      </trkpt>
      <trkpt lat="42.47487" lon="2.20445">
        <ele>2158</ele>
        <time>2024-09-16T10:39:25Z</time>
      </trkpt>
      <trkpt lat="42.47486" lon="2.20448">
        <ele>2159</ele>
        <time>2024-09-16T10:39:34Z</time>
      </trkpt>
      <trkpt lat="42.47484" lon="2.2045">
        <ele>2160</ele>
        <time>2024-09-16T10:39:43Z</time>
      </trkpt>
      <trkpt lat="42.47481" lon="2.20453">
        <ele>2159</ele>
        <time>2024-09-16T10:39:48Z</time>
      </trkpt>
      <trkpt lat="42.47478" lon="2.20454">
        <ele>2160</ele>
        <time>2024-09-16T10:39:58Z</time>
      </trkpt>
      <trkpt lat="42.47475" lon="2.20456">
        <ele>2160</ele>
        <time>2024-09-16T10:40:07Z</time>
      </trkpt>
      <trkpt lat="42.47472" lon="2.20458">
        <ele>2164</ele>
        <time>2024-09-16T10:40:16Z</time>
      </trkpt>
      <trkpt lat="42.47473" lon="2.2046">
        <ele>2164</ele>
        <time>2024-09-16T10:40:27Z</time>
      </trkpt>
      <trkpt lat="42.47475" lon="2.20463">
        <ele>2166</ele>
        <time>2024-09-16T10:40:36Z</time>
      </trkpt>
      <trkpt lat="42.47474" lon="2.20465">
        <ele>2167</ele>
        <time>2024-09-16T10:40:42Z</time>
      </trkpt>
      <trkpt lat="42.47472" lon="2.20468">
        <ele>2166</ele>
        <time>2024-09-16T10:40:50Z</time>
      </trkpt>
      <trkpt lat="42.4747" lon="2.2047">
        <ele>2166</ele>
        <time>2024-09-16T10:40:55Z</time>
      </trkpt>
      <trkpt lat="42.47468" lon="2.20473">
        <ele>2165</ele>
        <time>2024-09-16T10:41:02Z</time>
      </trkpt>
      <trkpt lat="42.47466" lon="2.20476">
        <ele>2165</ele>
        <time>2024-09-16T10:41:09Z</time>
      </trkpt>
      <trkpt lat="42.47464" lon="2.20476">
        <ele>2167</ele>
        <time>2024-09-16T10:41:20Z</time>
      </trkpt>
      <trkpt lat="42.47461" lon="2.20478">
        <ele>2170</ele>
        <time>2024-09-16T10:41:30Z</time>
      </trkpt>
      <trkpt lat="42.4746" lon="2.20482">
        <ele>2171</ele>
        <time>2024-09-16T10:41:36Z</time>
      </trkpt>
      <trkpt lat="42.47459" lon="2.20485">
        <ele>2168</ele>
        <time>2024-09-16T10:41:49Z</time>
      </trkpt>
      <trkpt lat="42.47458" lon="2.20489">
        <ele>2171</ele>
        <time>2024-09-16T10:41:55Z</time>
      </trkpt>
      <trkpt lat="42.47458" lon="2.20492">
        <ele>2172</ele>
        <time>2024-09-16T10:41:59Z</time>
      </trkpt>
      <trkpt lat="42.47457" lon="2.20497">
        <ele>2172</ele>
        <time>2024-09-16T10:42:02Z</time>
      </trkpt>
      <trkpt lat="42.47456" lon="2.205">
        <ele>2174</ele>
        <time>2024-09-16T10:42:06Z</time>
      </trkpt>
      <trkpt lat="42.47455" lon="2.20504">
        <ele>2175</ele>
        <time>2024-09-16T10:42:09Z</time>
      </trkpt>
      <trkpt lat="42.47456" lon="2.20508">
        <ele>2171</ele>
        <time>2024-09-16T10:42:21Z</time>
      </trkpt>
      <trkpt lat="42.47455" lon="2.20511">
        <ele>2171</ele>
        <time>2024-09-16T10:42:27Z</time>
      </trkpt>
      <trkpt lat="42.47452" lon="2.20513">
        <ele>2175</ele>
        <time>2024-09-16T10:42:34Z</time>
      </trkpt>
      <trkpt lat="42.47452" lon="2.20517">
        <ele>2179</ele>
        <time>2024-09-16T10:42:42Z</time>
      </trkpt>
      <trkpt lat="42.47451" lon="2.2052">
        <ele>2178</ele>
        <time>2024-09-16T10:42:48Z</time>
      </trkpt>
      <trkpt lat="42.47452" lon="2.20523">
        <ele>2179</ele>
        <time>2024-09-16T10:42:52Z</time>
      </trkpt>
      <trkpt lat="42.47451" lon="2.20527">
        <ele>2180</ele>
        <time>2024-09-16T10:42:57Z</time>
      </trkpt>
      <trkpt lat="42.4745" lon="2.20531">
        <ele>2182</ele>
        <time>2024-09-16T10:43:03Z</time>
      </trkpt>
      <trkpt lat="42.47448" lon="2.20534">
        <ele>2183</ele>
        <time>2024-09-16T10:43:08Z</time>
      </trkpt>
      <trkpt lat="42.47447" lon="2.20538">
        <ele>2183</ele>
        <time>2024-09-16T10:43:14Z</time>
      </trkpt>
      <trkpt lat="42.47447" lon="2.20541">
        <ele>2184</ele>
        <time>2024-09-16T10:43:21Z</time>
      </trkpt>
      <trkpt lat="42.47447" lon="2.20545">
        <ele>2186</ele>
        <time>2024-09-16T10:43:29Z</time>
      </trkpt>
      <trkpt lat="42.47446" lon="2.20549">
        <ele>2186</ele>
        <time>2024-09-16T10:43:34Z</time>
      </trkpt>
      <trkpt lat="42.47446" lon="2.20552">
        <ele>2188</ele>
        <time>2024-09-16T10:43:44Z</time>
      </trkpt>
      <trkpt lat="42.47447" lon="2.20557">
        <ele>2189</ele>
        <time>2024-09-16T10:43:51Z</time>
      </trkpt>
      <trkpt lat="42.47447" lon="2.2056">
        <ele>2191</ele>
        <time>2024-09-16T10:44:00Z</time>
      </trkpt>
      <trkpt lat="42.47446" lon="2.20564">
        <ele>2192</ele>
        <time>2024-09-16T10:44:07Z</time>
      </trkpt>
      <trkpt lat="42.47445" lon="2.20568">
        <ele>2191</ele>
        <time>2024-09-16T10:44:14Z</time>
      </trkpt>
      <trkpt lat="42.47447" lon="2.20571">
        <ele>2190</ele>
        <time>2024-09-16T10:44:28Z</time>
      </trkpt>
      <trkpt lat="42.47446" lon="2.20575">
        <ele>2192</ele>
        <time>2024-09-16T10:44:35Z</time>
      </trkpt>
      <trkpt lat="42.47445" lon="2.20579">
        <ele>2193</ele>
        <time>2024-09-16T10:44:39Z</time>
      </trkpt>
      <trkpt lat="42.47443" lon="2.20582">
        <ele>2192</ele>
        <time>2024-09-16T10:44:44Z</time>
      </trkpt>
      <trkpt lat="42.47442" lon="2.20586">
        <ele>2191</ele>
        <time>2024-09-16T10:44:49Z</time>
      </trkpt>
      <trkpt lat="42.4744" lon="2.20589">
        <ele>2193</ele>
        <time>2024-09-16T10:44:55Z</time>
      </trkpt>
      <trkpt lat="42.47438" lon="2.20592">
        <ele>2194</ele>
        <time>2024-09-16T10:45:00Z</time>
      </trkpt>
      <trkpt lat="42.47436" lon="2.20595">
        <ele>2197</ele>
        <time>2024-09-16T10:45:07Z</time>
      </trkpt>
      <trkpt lat="42.47435" lon="2.20599">
        <ele>2198</ele>
        <time>2024-09-16T10:45:21Z</time>
      </trkpt>
      <trkpt lat="42.47432" lon="2.20601">
        <ele>2199</ele>
        <time>2024-09-16T10:45:28Z</time>
      </trkpt>
      <trkpt lat="42.47432" lon="2.20604">
        <ele>2198</ele>
        <time>2024-09-16T10:45:32Z</time>
      </trkpt>
      <trkpt lat="42.47431" lon="2.20608">
        <ele>2200</ele>
        <time>2024-09-16T10:45:44Z</time>
      </trkpt>
      <trkpt lat="42.47429" lon="2.2061">
        <ele>2202</ele>
        <time>2024-09-16T10:45:50Z</time>
      </trkpt>
      <trkpt lat="42.47429" lon="2.20614">
        <ele>2202</ele>
        <time>2024-09-16T10:45:55Z</time>
      </trkpt>
      <trkpt lat="42.47428" lon="2.20616">
        <ele>2203</ele>
        <time>2024-09-16T10:45:59Z</time>
      </trkpt>
      <trkpt lat="42.47426" lon="2.2062">
        <ele>2203</ele>
        <time>2024-09-16T10:46:06Z</time>
      </trkpt>
      <trkpt lat="42.47425" lon="2.20623">
        <ele>2205</ele>
        <time>2024-09-16T10:46:14Z</time>
      </trkpt>
      <trkpt lat="42.47423" lon="2.20626">
        <ele>2206</ele>
        <time>2024-09-16T10:46:26Z</time>
      </trkpt>
      <trkpt lat="42.47421" lon="2.20628">
        <ele>2208</ele>
        <time>2024-09-16T10:46:32Z</time>
      </trkpt>
      <trkpt lat="42.47419" lon="2.20631">
        <ele>2208</ele>
        <time>2024-09-16T10:46:37Z</time>
      </trkpt>
      <trkpt lat="42.47418" lon="2.20635">
        <ele>2209</ele>
        <time>2024-09-16T10:46:41Z</time>
      </trkpt>
      <trkpt lat="42.47417" lon="2.20638">
        <ele>2212</ele>
        <time>2024-09-16T10:46:49Z</time>
      </trkpt>
      <trkpt lat="42.47415" lon="2.20641">
        <ele>2213</ele>
        <time>2024-09-16T10:46:54Z</time>
      </trkpt>
      <trkpt lat="42.47415" lon="2.20645">
        <ele>2214</ele>
        <time>2024-09-16T10:47:04Z</time>
      </trkpt>
      <trkpt lat="42.47413" lon="2.20648">
        <ele>2216</ele>
        <time>2024-09-16T10:47:11Z</time>
      </trkpt>
      <trkpt lat="42.4741" lon="2.20649">
        <ele>2218</ele>
        <time>2024-09-16T10:47:21Z</time>
      </trkpt>
      <trkpt lat="42.47409" lon="2.20653">
        <ele>2218</ele>
        <time>2024-09-16T10:47:28Z</time>
      </trkpt>
      <trkpt lat="42.47408" lon="2.20656">
        <ele>2219</ele>
        <time>2024-09-16T10:47:35Z</time>
      </trkpt>
      <trkpt lat="42.47409" lon="2.20659">
        <ele>2223</ele>
        <time>2024-09-16T10:47:44Z</time>
      </trkpt>
      <trkpt lat="42.47407" lon="2.20662">
        <ele>2224</ele>
        <time>2024-09-16T10:47:48Z</time>
      </trkpt>
      <trkpt lat="42.47408" lon="2.20665">
        <ele>2223</ele>
        <time>2024-09-16T10:47:56Z</time>
      </trkpt>
      <trkpt lat="42.47406" lon="2.20667">
        <ele>2221</ele>
        <time>2024-09-16T10:48:02Z</time>
      </trkpt>
      <trkpt lat="42.47404" lon="2.2067">
        <ele>2222</ele>
        <time>2024-09-16T10:48:06Z</time>
      </trkpt>
      <trkpt lat="42.47403" lon="2.20673">
        <ele>2222</ele>
        <time>2024-09-16T10:48:12Z</time>
      </trkpt>
      <trkpt lat="42.47403" lon="2.20677">
        <ele>2222</ele>
        <time>2024-09-16T10:48:22Z</time>
      </trkpt>
      <trkpt lat="42.47402" lon="2.20679">
        <ele>2223</ele>
        <time>2024-09-16T10:48:27Z</time>
      </trkpt>
      <trkpt lat="42.474" lon="2.20682">
        <ele>2222</ele>
        <time>2024-09-16T10:48:34Z</time>
      </trkpt>
      <trkpt lat="42.47397" lon="2.20684">
        <ele>2223</ele>
        <time>2024-09-16T10:48:40Z</time>
      </trkpt>
      <trkpt lat="42.47396" lon="2.20687">
        <ele>2224</ele>
        <time>2024-09-16T10:48:47Z</time>
      </trkpt>
      <trkpt lat="42.47396" lon="2.2069">
        <ele>2225</ele>
        <time>2024-09-16T10:48:52Z</time>
      </trkpt>
      <trkpt lat="42.47394" lon="2.20693">
        <ele>2228</ele>
        <time>2024-09-16T10:48:59Z</time>
      </trkpt>
      <trkpt lat="42.47393" lon="2.20696">
        <ele>2229</ele>
        <time>2024-09-16T10:49:06Z</time>
      </trkpt>
      <trkpt lat="42.47391" lon="2.207">
        <ele>2230</ele>
        <time>2024-09-16T10:49:13Z</time>
      </trkpt>
      <trkpt lat="42.4739" lon="2.20703">
        <ele>2231</ele>
        <time>2024-09-16T10:49:20Z</time>
      </trkpt>
      <trkpt lat="42.4739" lon="2.20707">
        <ele>2232</ele>
        <time>2024-09-16T10:49:30Z</time>
      </trkpt>
      <trkpt lat="42.4739" lon="2.20711">
        <ele>2232</ele>
        <time>2024-09-16T10:49:36Z</time>
      </trkpt>
      <trkpt lat="42.47389" lon="2.20714">
        <ele>2234</ele>
        <time>2024-09-16T10:49:42Z</time>
      </trkpt>
      <trkpt lat="42.47388" lon="2.20717">
        <ele>2235</ele>
        <time>2024-09-16T10:49:48Z</time>
      </trkpt>
      <trkpt lat="42.47385" lon="2.20719">
        <ele>2237</ele>
        <time>2024-09-16T10:49:55Z</time>
      </trkpt>
      <trkpt lat="42.47383" lon="2.20722">
        <ele>2236</ele>
        <time>2024-09-16T10:50:01Z</time>
      </trkpt>
      <trkpt lat="42.47383" lon="2.20725">
        <ele>2238</ele>
        <time>2024-09-16T10:50:07Z</time>
      </trkpt>
      <trkpt lat="42.47381" lon="2.20727">
        <ele>2238</ele>
        <time>2024-09-16T10:50:13Z</time>
      </trkpt>
      <trkpt lat="42.4738" lon="2.20731">
        <ele>2239</ele>
        <time>2024-09-16T10:50:19Z</time>
      </trkpt>
      <trkpt lat="42.47379" lon="2.20734">
        <ele>2239</ele>
        <time>2024-09-16T10:50:24Z</time>
      </trkpt>
      <trkpt lat="42.47378" lon="2.20737">
        <ele>2240</ele>
        <time>2024-09-16T10:50:29Z</time>
      </trkpt>
      <trkpt lat="42.47377" lon="2.20741">
        <ele>2241</ele>
        <time>2024-09-16T10:50:36Z</time>
      </trkpt>
      <trkpt lat="42.47376" lon="2.20745">
        <ele>2242</ele>
        <time>2024-09-16T10:50:42Z</time>
      </trkpt>
      <trkpt lat="42.47374" lon="2.20748">
        <ele>2243</ele>
        <time>2024-09-16T10:50:46Z</time>
      </trkpt>
      <trkpt lat="42.47372" lon="2.20749">
        <ele>2243</ele>
        <time>2024-09-16T10:50:50Z</time>
      </trkpt>
      <trkpt lat="42.4737" lon="2.20751">
        <ele>2245</ele>
        <time>2024-09-16T10:50:55Z</time>
      </trkpt>
      <trkpt lat="42.47367" lon="2.20752">
        <ele>2247</ele>
        <time>2024-09-16T10:51:00Z</time>
      </trkpt>
      <trkpt lat="42.47365" lon="2.20755">
        <ele>2246</ele>
        <time>2024-09-16T10:51:07Z</time>
      </trkpt>
      <trkpt lat="42.47364" lon="2.20759">
        <ele>2246</ele>
        <time>2024-09-16T10:51:13Z</time>
      </trkpt>
      <trkpt lat="42.47362" lon="2.20761">
        <ele>2247</ele>
        <time>2024-09-16T10:51:20Z</time>
      </trkpt>
      <trkpt lat="42.47359" lon="2.20764">
        <ele>2248</ele>
        <time>2024-09-16T10:51:27Z</time>
      </trkpt>
      <trkpt lat="42.47357" lon="2.20767">
        <ele>2249</ele>
        <time>2024-09-16T10:51:34Z</time>
      </trkpt>
      <trkpt lat="42.47355" lon="2.20769">
        <ele>2251</ele>
        <time>2024-09-16T10:51:40Z</time>
      </trkpt>
      <trkpt lat="42.47353" lon="2.20772">
        <ele>2252</ele>
        <time>2024-09-16T10:51:47Z</time>
      </trkpt>
      <trkpt lat="42.47352" lon="2.20775">
        <ele>2252</ele>
        <time>2024-09-16T10:51:54Z</time>
      </trkpt>
      <trkpt lat="42.47351" lon="2.20779">
        <ele>2254</ele>
        <time>2024-09-16T10:52:01Z</time>
      </trkpt>
      <trkpt lat="42.4735" lon="2.20783">
        <ele>2253</ele>
        <time>2024-09-16T10:52:08Z</time>
      </trkpt>
      <trkpt lat="42.47348" lon="2.20786">
        <ele>2253</ele>
        <time>2024-09-16T10:52:13Z</time>
      </trkpt>
      <trkpt lat="42.47346" lon="2.20789">
        <ele>2256</ele>
        <time>2024-09-16T10:52:17Z</time>
      </trkpt>
      <trkpt lat="42.47343" lon="2.20791">
        <ele>2256</ele>
        <time>2024-09-16T10:52:24Z</time>
      </trkpt>
      <trkpt lat="42.47341" lon="2.20793">
        <ele>2258</ele>
        <time>2024-09-16T10:52:32Z</time>
      </trkpt>
      <trkpt lat="42.47339" lon="2.20796">
        <ele>2258</ele>
        <time>2024-09-16T10:53:15Z</time>
      </trkpt>
      <trkpt lat="42.47336" lon="2.20798">
        <ele>2259</ele>
        <time>2024-09-16T10:53:19Z</time>
      </trkpt>
      <trkpt lat="42.47334" lon="2.208">
        <ele>2260</ele>
        <time>2024-09-16T10:53:24Z</time>
      </trkpt>
      <trkpt lat="42.47331" lon="2.20802">
        <ele>2262</ele>
        <time>2024-09-16T10:53:29Z</time>
      </trkpt>
      <trkpt lat="42.47329" lon="2.20804">
        <ele>2264</ele>
        <time>2024-09-16T10:53:34Z</time>
      </trkpt>
      <trkpt lat="42.47327" lon="2.20808">
        <ele>2266</ele>
        <time>2024-09-16T10:53:40Z</time>
      </trkpt>
      <trkpt lat="42.47325" lon="2.20811">
        <ele>2267</ele>
        <time>2024-09-16T10:53:45Z</time>
      </trkpt>
      <trkpt lat="42.47323" lon="2.20814">
        <ele>2267</ele>
        <time>2024-09-16T10:53:50Z</time>
      </trkpt>
      <trkpt lat="42.47321" lon="2.20817">
        <ele>2268</ele>
        <time>2024-09-16T10:53:55Z</time>
      </trkpt>
      <trkpt lat="42.4732" lon="2.2082">
        <ele>2268</ele>
        <time>2024-09-16T10:54:02Z</time>
      </trkpt>
      <trkpt lat="42.47318" lon="2.20824">
        <ele>2268</ele>
        <time>2024-09-16T10:54:07Z</time>
      </trkpt>
      <trkpt lat="42.47317" lon="2.20827">
        <ele>2270</ele>
        <time>2024-09-16T10:54:13Z</time>
      </trkpt>
      <trkpt lat="42.47317" lon="2.20831">
        <ele>2271</ele>
        <time>2024-09-16T10:54:21Z</time>
      </trkpt>
      <trkpt lat="42.47319" lon="2.20834">
        <ele>2272</ele>
        <time>2024-09-16T10:54:25Z</time>
      </trkpt>
      <trkpt lat="42.47319" lon="2.20837">
        <ele>2273</ele>
        <time>2024-09-16T10:54:32Z</time>
      </trkpt>
      <trkpt lat="42.47317" lon="2.2084">
        <ele>2275</ele>
        <time>2024-09-16T10:54:39Z</time>
      </trkpt>
      <trkpt lat="42.47316" lon="2.20844">
        <ele>2277</ele>
        <time>2024-09-16T10:54:46Z</time>
      </trkpt>
      <trkpt lat="42.47315" lon="2.20847">
        <ele>2278</ele>
        <time>2024-09-16T10:54:55Z</time>
      </trkpt>
      <trkpt lat="42.47313" lon="2.20851">
        <ele>2279</ele>
        <time>2024-09-16T10:55:04Z</time>
      </trkpt>
      <trkpt lat="42.47311" lon="2.20853">
        <ele>2279</ele>
        <time>2024-09-16T10:55:10Z</time>
      </trkpt>
      <trkpt lat="42.47308" lon="2.20855">
        <ele>2282</ele>
        <time>2024-09-16T10:55:16Z</time>
      </trkpt>
      <trkpt lat="42.47306" lon="2.20858">
        <ele>2284</ele>
        <time>2024-09-16T10:55:22Z</time>
      </trkpt>
      <trkpt lat="42.47304" lon="2.20861">
        <ele>2285</ele>
        <time>2024-09-16T10:55:28Z</time>
      </trkpt>
      <trkpt lat="42.47302" lon="2.20864">
        <ele>2285</ele>
        <time>2024-09-16T10:55:34Z</time>
      </trkpt>
      <trkpt lat="42.47299" lon="2.20866">
        <ele>2285</ele>
        <time>2024-09-16T10:55:39Z</time>
      </trkpt>
      <trkpt lat="42.47298" lon="2.20869">
        <ele>2285</ele>
        <time>2024-09-16T10:55:55Z</time>
      </trkpt>
      <trkpt lat="42.47297" lon="2.20872">
        <ele>2286</ele>
        <time>2024-09-16T10:56:00Z</time>
      </trkpt>
      <trkpt lat="42.47295" lon="2.20875">
        <ele>2288</ele>
        <time>2024-09-16T10:56:07Z</time>
      </trkpt>
      <trkpt lat="42.47294" lon="2.20878">
        <ele>2288</ele>
        <time>2024-09-16T10:56:12Z</time>
      </trkpt>
      <trkpt lat="42.47291" lon="2.20881">
        <ele>2290</ele>
        <time>2024-09-16T10:56:18Z</time>
      </trkpt>
      <trkpt lat="42.47289" lon="2.20882">
        <ele>2290</ele>
        <time>2024-09-16T10:56:22Z</time>
      </trkpt>
      <trkpt lat="42.47286" lon="2.20884">
        <ele>2291</ele>
        <time>2024-09-16T10:56:26Z</time>
      </trkpt>
      <trkpt lat="42.47284" lon="2.20883">
        <ele>2291</ele>
        <time>2024-09-16T10:56:31Z</time>
      </trkpt>
      <trkpt lat="42.47281" lon="2.20884">
        <ele>2293</ele>
        <time>2024-09-16T10:56:36Z</time>
      </trkpt>
      <trkpt lat="42.47278" lon="2.20884">
        <ele>2295</ele>
        <time>2024-09-16T10:56:42Z</time>
      </trkpt>
      <trkpt lat="42.47275" lon="2.20885">
        <ele>2295</ele>
        <time>2024-09-16T10:56:47Z</time>
      </trkpt>
      <trkpt lat="42.47272" lon="2.20886">
        <ele>2295</ele>
        <time>2024-09-16T10:56:53Z</time>
      </trkpt>
      <trkpt lat="42.47269" lon="2.20888">
        <ele>2296</ele>
        <time>2024-09-16T10:56:59Z</time>
      </trkpt>
      <trkpt lat="42.47267" lon="2.2089">
        <ele>2296</ele>
        <time>2024-09-16T10:57:03Z</time>
      </trkpt>
      <trkpt lat="42.47264" lon="2.20892">
        <ele>2298</ele>
        <time>2024-09-16T10:57:09Z</time>
      </trkpt>
      <trkpt lat="42.47262" lon="2.20894">
        <ele>2299</ele>
        <time>2024-09-16T10:57:15Z</time>
      </trkpt>
      <trkpt lat="42.47259" lon="2.20896">
        <ele>2299</ele>
        <time>2024-09-16T10:57:21Z</time>
      </trkpt>
      <trkpt lat="42.47257" lon="2.20898">
        <ele>2300</ele>
        <time>2024-09-16T10:57:29Z</time>
      </trkpt>
      <trkpt lat="42.47255" lon="2.20901">
        <ele>2301</ele>
        <time>2024-09-16T10:57:35Z</time>
      </trkpt>
      <trkpt lat="42.47253" lon="2.20904">
        <ele>2301</ele>
        <time>2024-09-16T10:57:41Z</time>
      </trkpt>
      <trkpt lat="42.4725" lon="2.20905">
        <ele>2302</ele>
        <time>2024-09-16T10:57:48Z</time>
      </trkpt>
      <trkpt lat="42.47247" lon="2.20906">
        <ele>2304</ele>
        <time>2024-09-16T10:57:54Z</time>
      </trkpt>
      <trkpt lat="42.47245" lon="2.20907">
        <ele>2305</ele>
        <time>2024-09-16T10:58:03Z</time>
      </trkpt>
      <trkpt lat="42.47242" lon="2.20909">
        <ele>2306</ele>
        <time>2024-09-16T10:58:09Z</time>
      </trkpt>
      <trkpt lat="42.47239" lon="2.2091">
        <ele>2306</ele>
        <time>2024-09-16T10:58:14Z</time>
      </trkpt>
      <trkpt lat="42.47237" lon="2.20912">
        <ele>2307</ele>
        <time>2024-09-16T10:58:19Z</time>
      </trkpt>
      <trkpt lat="42.47234" lon="2.20914">
        <ele>2308</ele>
        <time>2024-09-16T10:58:25Z</time>
      </trkpt>
      <trkpt lat="42.47232" lon="2.20915">
        <ele>2310</ele>
        <time>2024-09-16T10:58:31Z</time>
      </trkpt>
      <trkpt lat="42.47229" lon="2.20916">
        <ele>2311</ele>
        <time>2024-09-16T10:58:37Z</time>
      </trkpt>
      <trkpt lat="42.47226" lon="2.20916">
        <ele>2312</ele>
        <time>2024-09-16T10:58:43Z</time>
      </trkpt>
      <trkpt lat="42.47224" lon="2.20918">
        <ele>2315</ele>
        <time>2024-09-16T10:58:51Z</time>
      </trkpt>
      <trkpt lat="42.47221" lon="2.20919">
        <ele>2315</ele>
        <time>2024-09-16T10:58:57Z</time>
      </trkpt>
      <trkpt lat="42.47222" lon="2.2092">
        <ele>2316</ele>
        <time>2024-09-16T10:59:24Z</time>
      </trkpt>
      <trkpt lat="42.4722" lon="2.20921">
        <ele>2317</ele>
        <time>2024-09-16T10:59:29Z</time>
      </trkpt>
      <trkpt lat="42.47218" lon="2.20922">
        <ele>2317</ele>
        <time>2024-09-16T10:59:33Z</time>
      </trkpt>
      <trkpt lat="42.47215" lon="2.20921">
        <ele>2317</ele>
        <time>2024-09-16T10:59:37Z</time>
      </trkpt>
      <trkpt lat="42.47212" lon="2.20921">
        <ele>2318</ele>
        <time>2024-09-16T10:59:42Z</time>
      </trkpt>
      <trkpt lat="42.47209" lon="2.2092">
        <ele>2320</ele>
        <time>2024-09-16T10:59:50Z</time>
      </trkpt>
      <trkpt lat="42.47207" lon="2.20922">
        <ele>2319</ele>
        <time>2024-09-16T10:59:52Z</time>
      </trkpt>
      <trkpt lat="42.47206" lon="2.20925">
        <ele>2320</ele>
        <time>2024-09-16T10:59:55Z</time>
      </trkpt>
      <trkpt lat="42.47206" lon="2.20929">
        <ele>2319</ele>
        <time>2024-09-16T10:59:59Z</time>
      </trkpt>
      <trkpt lat="42.47207" lon="2.20933">
        <ele>2320</ele>
        <time>2024-09-16T11:00:02Z</time>
      </trkpt>
      <trkpt lat="42.47208" lon="2.20937">
        <ele>2323</ele>
        <time>2024-09-16T11:00:06Z</time>
      </trkpt>
      <trkpt lat="42.4721" lon="2.20939">
        <ele>2324</ele>
        <time>2024-09-16T11:00:17Z</time>
      </trkpt>
      <trkpt lat="42.47212" lon="2.20942">
        <ele>2324</ele>
        <time>2024-09-16T11:00:20Z</time>
      </trkpt>
      <trkpt lat="42.47213" lon="2.20945">
        <ele>2324</ele>
        <time>2024-09-16T11:00:24Z</time>
      </trkpt>
      <trkpt lat="42.47215" lon="2.20949">
        <ele>2325</ele>
        <time>2024-09-16T11:00:28Z</time>
      </trkpt>
      <trkpt lat="42.47215" lon="2.20953">
        <ele>2326</ele>
        <time>2024-09-16T11:00:32Z</time>
      </trkpt>
      <trkpt lat="42.47215" lon="2.20958">
        <ele>2327</ele>
        <time>2024-09-16T11:00:37Z</time>
      </trkpt>
      <trkpt lat="42.47214" lon="2.20962">
        <ele>2328</ele>
        <time>2024-09-16T11:00:43Z</time>
      </trkpt>
      <trkpt lat="42.47215" lon="2.20967">
        <ele>2328</ele>
        <time>2024-09-16T11:00:48Z</time>
      </trkpt>
      <trkpt lat="42.47215" lon="2.20971">
        <ele>2329</ele>
        <time>2024-09-16T11:00:52Z</time>
      </trkpt>
      <trkpt lat="42.47213" lon="2.20974">
        <ele>2329</ele>
        <time>2024-09-16T11:01:07Z</time>
      </trkpt>
      <trkpt lat="42.47212" lon="2.20979">
        <ele>2330</ele>
        <time>2024-09-16T11:01:12Z</time>
      </trkpt>
      <trkpt lat="42.47211" lon="2.20983">
        <ele>2330</ele>
        <time>2024-09-16T11:01:17Z</time>
      </trkpt>
      <trkpt lat="42.47212" lon="2.20987">
        <ele>2331</ele>
        <time>2024-09-16T11:01:45Z</time>
      </trkpt>
      <trkpt lat="42.47211" lon="2.20991">
        <ele>2331</ele>
        <time>2024-09-16T11:01:49Z</time>
      </trkpt>
      <trkpt lat="42.47211" lon="2.20995">
        <ele>2332</ele>
        <time>2024-09-16T11:01:53Z</time>
      </trkpt>
      <trkpt lat="42.47211" lon="2.20999">
        <ele>2332</ele>
        <time>2024-09-16T11:01:56Z</time>
      </trkpt>
      <trkpt lat="42.47211" lon="2.21002">
        <ele>2332</ele>
        <time>2024-09-16T11:01:59Z</time>
      </trkpt>
      <trkpt lat="42.47211" lon="2.21006">
        <ele>2333</ele>
        <time>2024-09-16T11:02:02Z</time>
      </trkpt>
      <trkpt lat="42.4721" lon="2.2101">
        <ele>2335</ele>
        <time>2024-09-16T11:02:06Z</time>
      </trkpt>
      <trkpt lat="42.4721" lon="2.21014">
        <ele>2335</ele>
        <time>2024-09-16T11:02:10Z</time>
      </trkpt>
      <trkpt lat="42.47211" lon="2.21019">
        <ele>2335</ele>
        <time>2024-09-16T11:02:14Z</time>
      </trkpt>
      <trkpt lat="42.47212" lon="2.21023">
        <ele>2336</ele>
        <time>2024-09-16T11:02:17Z</time>
      </trkpt>
      <trkpt lat="42.47212" lon="2.21027">
        <ele>2337</ele>
        <time>2024-09-16T11:02:21Z</time>
      </trkpt>
      <trkpt lat="42.47213" lon="2.21031">
        <ele>2337</ele>
        <time>2024-09-16T11:02:25Z</time>
      </trkpt>
      <trkpt lat="42.47215" lon="2.21035">
        <ele>2337</ele>
        <time>2024-09-16T11:02:29Z</time>
      </trkpt>
      <trkpt lat="42.47216" lon="2.21039">
        <ele>2338</ele>
        <time>2024-09-16T11:02:34Z</time>
      </trkpt>
      <trkpt lat="42.47216" lon="2.21043">
        <ele>2338</ele>
        <time>2024-09-16T11:02:54Z</time>
      </trkpt>
      <trkpt lat="42.47216" lon="2.21048">
        <ele>2338</ele>
        <time>2024-09-16T11:02:58Z</time>
      </trkpt>
      <trkpt lat="42.47216" lon="2.21052">
        <ele>2340</ele>
        <time>2024-09-16T11:03:01Z</time>
      </trkpt>
      <trkpt lat="42.47216" lon="2.21056">
        <ele>2341</ele>
        <time>2024-09-16T11:03:05Z</time>
      </trkpt>
      <trkpt lat="42.47217" lon="2.21061">
        <ele>2342</ele>
        <time>2024-09-16T11:03:07Z</time>
      </trkpt>
      <trkpt lat="42.47217" lon="2.21065">
        <ele>2343</ele>
        <time>2024-09-16T11:03:11Z</time>
      </trkpt>
      <trkpt lat="42.47218" lon="2.2107">
        <ele>2344</ele>
        <time>2024-09-16T11:03:15Z</time>
      </trkpt>
      <trkpt lat="42.47218" lon="2.21074">
        <ele>2345</ele>
        <time>2024-09-16T11:03:19Z</time>
      </trkpt>
      <trkpt lat="42.47217" lon="2.21078">
        <ele>2346</ele>
        <time>2024-09-16T11:03:25Z</time>
      </trkpt>
      <trkpt lat="42.47216" lon="2.21082">
        <ele>2347</ele>
        <time>2024-09-16T11:03:29Z</time>
      </trkpt>
      <trkpt lat="42.47215" lon="2.21086">
        <ele>2348</ele>
        <time>2024-09-16T11:03:33Z</time>
      </trkpt>
      <trkpt lat="42.47215" lon="2.2109">
        <ele>2348</ele>
        <time>2024-09-16T11:03:37Z</time>
      </trkpt>
      <trkpt lat="42.47215" lon="2.21094">
        <ele>2349</ele>
        <time>2024-09-16T11:03:41Z</time>
      </trkpt>
      <trkpt lat="42.47214" lon="2.21098">
        <ele>2349</ele>
        <time>2024-09-16T11:03:45Z</time>
      </trkpt>
      <trkpt lat="42.47213" lon="2.21101">
        <ele>2350</ele>
        <time>2024-09-16T11:03:50Z</time>
      </trkpt>
      <trkpt lat="42.47212" lon="2.21105">
        <ele>2351</ele>
        <time>2024-09-16T11:03:55Z</time>
      </trkpt>
      <trkpt lat="42.47212" lon="2.21109">
        <ele>2352</ele>
        <time>2024-09-16T11:04:00Z</time>
      </trkpt>
      <trkpt lat="42.47212" lon="2.21113">
        <ele>2353</ele>
        <time>2024-09-16T11:04:04Z</time>
      </trkpt>
      <trkpt lat="42.47211" lon="2.21117">
        <ele>2356</ele>
        <time>2024-09-16T11:04:10Z</time>
      </trkpt>
      <trkpt lat="42.47209" lon="2.21121">
        <ele>2356</ele>
        <time>2024-09-16T11:04:20Z</time>
      </trkpt>
      <trkpt lat="42.47208" lon="2.21125">
        <ele>2356</ele>
        <time>2024-09-16T11:04:24Z</time>
      </trkpt>
      <trkpt lat="42.47208" lon="2.21129">
        <ele>2357</ele>
        <time>2024-09-16T11:04:28Z</time>
      </trkpt>
      <trkpt lat="42.47207" lon="2.21133">
        <ele>2358</ele>
        <time>2024-09-16T11:04:33Z</time>
      </trkpt>
      <trkpt lat="42.47206" lon="2.21136">
        <ele>2359</ele>
        <time>2024-09-16T11:04:37Z</time>
      </trkpt>
      <trkpt lat="42.47205" lon="2.2114">
        <ele>2359</ele>
        <time>2024-09-16T11:04:42Z</time>
      </trkpt>
      <trkpt lat="42.47204" lon="2.21143">
        <ele>2359</ele>
        <time>2024-09-16T11:04:46Z</time>
      </trkpt>
      <trkpt lat="42.47202" lon="2.21147">
        <ele>2360</ele>
        <time>2024-09-16T11:04:51Z</time>
      </trkpt>
      <trkpt lat="42.47202" lon="2.21151">
        <ele>2359</ele>
        <time>2024-09-16T11:05:10Z</time>
      </trkpt>
      <trkpt lat="42.47201" lon="2.21155">
        <ele>2360</ele>
        <time>2024-09-16T11:05:13Z</time>
      </trkpt>
      <trkpt lat="42.472" lon="2.21159">
        <ele>2361</ele>
        <time>2024-09-16T11:05:16Z</time>
      </trkpt>
      <trkpt lat="42.472" lon="2.21163">
        <ele>2361</ele>
        <time>2024-09-16T11:05:19Z</time>
      </trkpt>
      <trkpt lat="42.472" lon="2.21167">
        <ele>2361</ele>
        <time>2024-09-16T11:05:24Z</time>
      </trkpt>
      <trkpt lat="42.472" lon="2.21171">
        <ele>2363</ele>
        <time>2024-09-16T11:05:28Z</time>
      </trkpt>
      <trkpt lat="42.472" lon="2.21175">
        <ele>2363</ele>
        <time>2024-09-16T11:05:33Z</time>
      </trkpt>
      <trkpt lat="42.472" lon="2.21179">
        <ele>2365</ele>
        <time>2024-09-16T11:05:37Z</time>
      </trkpt>
      <trkpt lat="42.47199" lon="2.21183">
        <ele>2365</ele>
        <time>2024-09-16T11:05:41Z</time>
      </trkpt>
      <trkpt lat="42.47199" lon="2.21187">
        <ele>2366</ele>
        <time>2024-09-16T11:05:44Z</time>
      </trkpt>
      <trkpt lat="42.472" lon="2.21191">
        <ele>2366</ele>
        <time>2024-09-16T11:05:48Z</time>
      </trkpt>
      <trkpt lat="42.472" lon="2.21195">
        <ele>2366</ele>
        <time>2024-09-16T11:05:52Z</time>
      </trkpt>
      <trkpt lat="42.47199" lon="2.21199">
        <ele>2367</ele>
        <time>2024-09-16T11:05:55Z</time>
      </trkpt>
      <trkpt lat="42.47198" lon="2.21203">
        <ele>2368</ele>
        <time>2024-09-16T11:06:04Z</time>
      </trkpt>
      <trkpt lat="42.47196" lon="2.21206">
        <ele>2368</ele>
        <time>2024-09-16T11:06:08Z</time>
      </trkpt>
      <trkpt lat="42.47194" lon="2.21208">
        <ele>2369</ele>
        <time>2024-09-16T11:06:12Z</time>
      </trkpt>
      <trkpt lat="42.47191" lon="2.21211">
        <ele>2369</ele>
        <time>2024-09-16T11:06:15Z</time>
      </trkpt>
      <trkpt lat="42.47189" lon="2.21214">
        <ele>2370</ele>
        <time>2024-09-16T11:06:18Z</time>
      </trkpt>
      <trkpt lat="42.47187" lon="2.21217">
        <ele>2371</ele>
        <time>2024-09-16T11:06:21Z</time>
      </trkpt>
      <trkpt lat="42.47185" lon="2.2122">
        <ele>2372</ele>
        <time>2024-09-16T11:06:24Z</time>
      </trkpt>
      <trkpt lat="42.47183" lon="2.21223">
        <ele>2371</ele>
        <time>2024-09-16T11:06:28Z</time>
      </trkpt>
      <trkpt lat="42.47181" lon="2.21227">
        <ele>2371</ele>
        <time>2024-09-16T11:06:32Z</time>
      </trkpt>
      <trkpt lat="42.4718" lon="2.21231">
        <ele>2372</ele>
        <time>2024-09-16T11:06:35Z</time>
      </trkpt>
      <trkpt lat="42.4718" lon="2.21235">
        <ele>2372</ele>
        <time>2024-09-16T11:06:38Z</time>
      </trkpt>
      <trkpt lat="42.4718" lon="2.2124">
        <ele>2371</ele>
        <time>2024-09-16T11:06:42Z</time>
      </trkpt>
      <trkpt lat="42.4718" lon="2.21244">
        <ele>2371</ele>
        <time>2024-09-16T11:06:46Z</time>
      </trkpt>
      <trkpt lat="42.47181" lon="2.21249">
        <ele>2370</ele>
        <time>2024-09-16T11:06:49Z</time>
      </trkpt>
      <trkpt lat="42.47182" lon="2.21253">
        <ele>2370</ele>
        <time>2024-09-16T11:06:51Z</time>
      </trkpt>
      <trkpt lat="42.47182" lon="2.21257">
        <ele>2370</ele>
        <time>2024-09-16T11:06:55Z</time>
      </trkpt>
      <trkpt lat="42.47183" lon="2.21261">
        <ele>2370</ele>
        <time>2024-09-16T11:06:58Z</time>
      </trkpt>
      <trkpt lat="42.47184" lon="2.21266">
        <ele>2369</ele>
        <time>2024-09-16T11:07:01Z</time>
      </trkpt>
      <trkpt lat="42.47185" lon="2.2127">
        <ele>2370</ele>
        <time>2024-09-16T11:07:04Z</time>
      </trkpt>
      <trkpt lat="42.47186" lon="2.21274">
        <ele>2369</ele>
        <time>2024-09-16T11:07:07Z</time>
      </trkpt>
      <trkpt lat="42.47188" lon="2.21278">
        <ele>2369</ele>
        <time>2024-09-16T11:07:11Z</time>
      </trkpt>
      <trkpt lat="42.47191" lon="2.21281">
        <ele>2369</ele>
        <time>2024-09-16T11:07:14Z</time>
      </trkpt>
      <trkpt lat="42.47193" lon="2.21284">
        <ele>2367</ele>
        <time>2024-09-16T11:07:17Z</time>
      </trkpt>
      <trkpt lat="42.47197" lon="2.21287">
        <ele>2366</ele>
        <time>2024-09-16T11:07:20Z</time>
      </trkpt>
      <trkpt lat="42.472" lon="2.21288">
        <ele>2366</ele>
        <time>2024-09-16T11:07:23Z</time>
      </trkpt>
      <trkpt lat="42.47203" lon="2.2129">
        <ele>2366</ele>
        <time>2024-09-16T11:07:26Z</time>
      </trkpt>
      <trkpt lat="42.47206" lon="2.21292">
        <ele>2366</ele>
        <time>2024-09-16T11:07:30Z</time>
      </trkpt>
      <trkpt lat="42.4721" lon="2.21295">
        <ele>2366</ele>
        <time>2024-09-16T11:07:34Z</time>
      </trkpt>
      <trkpt lat="42.47213" lon="2.21298">
        <ele>2366</ele>
        <time>2024-09-16T11:07:38Z</time>
      </trkpt>
      <trkpt lat="42.47214" lon="2.21301">
        <ele>2366</ele>
        <time>2024-09-16T11:07:42Z</time>
      </trkpt>
      <trkpt lat="42.47217" lon="2.21303">
        <ele>2367</ele>
        <time>2024-09-16T11:07:51Z</time>
      </trkpt>
      <trkpt lat="42.47219" lon="2.21302">
        <ele>2368</ele>
        <time>2024-09-16T11:07:56Z</time>
      </trkpt>
      <trkpt lat="42.47221" lon="2.213">
        <ele>2371</ele>
        <time>2024-09-16T11:08:08Z</time>
      </trkpt>
      <trkpt lat="42.47223" lon="2.21299">
        <ele>2371</ele>
        <time>2024-09-16T11:09:05Z</time>
      </trkpt>
      <trkpt lat="42.47226" lon="2.21299">
        <ele>2371</ele>
        <time>2024-09-16T11:09:09Z</time>
      </trkpt>
      <trkpt lat="42.4723" lon="2.21299">
        <ele>2371</ele>
        <time>2024-09-16T11:09:13Z</time>
      </trkpt>
      <trkpt lat="42.47233" lon="2.21299">
        <ele>2372</ele>
        <time>2024-09-16T11:09:16Z</time>
      </trkpt>
      <trkpt lat="42.47236" lon="2.21298">
        <ele>2372</ele>
        <time>2024-09-16T11:09:20Z</time>
      </trkpt>
      <trkpt lat="42.47239" lon="2.21299">
        <ele>2371</ele>
        <time>2024-09-16T11:09:23Z</time>
      </trkpt>
      <trkpt lat="42.47242" lon="2.21299">
        <ele>2372</ele>
        <time>2024-09-16T11:09:26Z</time>
      </trkpt>
      <trkpt lat="42.47245" lon="2.213">
        <ele>2371</ele>
        <time>2024-09-16T11:09:28Z</time>
      </trkpt>
      <trkpt lat="42.47249" lon="2.21301">
        <ele>2372</ele>
        <time>2024-09-16T11:09:32Z</time>
      </trkpt>
      <trkpt lat="42.47251" lon="2.21302">
        <ele>2372</ele>
        <time>2024-09-16T11:09:34Z</time>
      </trkpt>
      <trkpt lat="42.47254" lon="2.21303">
        <ele>2373</ele>
        <time>2024-09-16T11:09:38Z</time>
      </trkpt>
      <trkpt lat="42.47258" lon="2.21303">
        <ele>2375</ele>
        <time>2024-09-16T11:09:41Z</time>
      </trkpt>
      <trkpt lat="42.47261" lon="2.21302">
        <ele>2375</ele>
        <time>2024-09-16T11:09:44Z</time>
      </trkpt>
      <trkpt lat="42.47264" lon="2.21302">
        <ele>2377</ele>
        <time>2024-09-16T11:09:47Z</time>
      </trkpt>
      <trkpt lat="42.47266" lon="2.21301">
        <ele>2378</ele>
        <time>2024-09-16T11:09:50Z</time>
      </trkpt>
      <trkpt lat="42.47269" lon="2.21301">
        <ele>2378</ele>
        <time>2024-09-16T11:09:53Z</time>
      </trkpt>
      <trkpt lat="42.47273" lon="2.21301">
        <ele>2378</ele>
        <time>2024-09-16T11:09:57Z</time>
      </trkpt>
      <trkpt lat="42.47276" lon="2.213">
        <ele>2379</ele>
        <time>2024-09-16T11:10:00Z</time>
      </trkpt>
      <trkpt lat="42.47279" lon="2.213">
        <ele>2379</ele>
        <time>2024-09-16T11:10:03Z</time>
      </trkpt>
      <trkpt lat="42.47282" lon="2.213">
        <ele>2379</ele>
        <time>2024-09-16T11:10:06Z</time>
      </trkpt>
      <trkpt lat="42.47285" lon="2.213">
        <ele>2380</ele>
        <time>2024-09-16T11:10:09Z</time>
      </trkpt>
      <trkpt lat="42.47289" lon="2.213">
        <ele>2379</ele>
        <time>2024-09-16T11:10:12Z</time>
      </trkpt>
      <trkpt lat="42.47291" lon="2.21303">
        <ele>2380</ele>
        <time>2024-09-16T11:10:15Z</time>
      </trkpt>
      <trkpt lat="42.47294" lon="2.21307">
        <ele>2379</ele>
        <time>2024-09-16T11:10:18Z</time>
      </trkpt>
      <trkpt lat="42.47295" lon="2.2131">
        <ele>2379</ele>
        <time>2024-09-16T11:10:21Z</time>
      </trkpt>
      <trkpt lat="42.47298" lon="2.21313">
        <ele>2378</ele>
        <time>2024-09-16T11:10:24Z</time>
      </trkpt>
      <trkpt lat="42.473" lon="2.21316">
        <ele>2378</ele>
        <time>2024-09-16T11:10:28Z</time>
      </trkpt>
      <trkpt lat="42.47303" lon="2.21318">
        <ele>2378</ele>
        <time>2024-09-16T11:10:32Z</time>
      </trkpt>
      <trkpt lat="42.47306" lon="2.2132">
        <ele>2378</ele>
        <time>2024-09-16T11:10:35Z</time>
      </trkpt>
      <trkpt lat="42.47309" lon="2.21321">
        <ele>2377</ele>
        <time>2024-09-16T11:10:49Z</time>
      </trkpt>
      <trkpt lat="42.47308" lon="2.21321">
        <ele>2382</ele>
        <time>2024-09-16T11:11:22Z</time>
      </trkpt>
      <trkpt lat="42.47309" lon="2.21322">
        <ele>2381</ele>
        <time>2024-09-16T11:11:24Z</time>
      </trkpt>
      <trkpt lat="42.47312" lon="2.21323">
        <ele>2381</ele>
        <time>2024-09-16T11:11:27Z</time>
      </trkpt>
      <trkpt lat="42.47315" lon="2.21323">
        <ele>2380</ele>
        <time>2024-09-16T11:11:29Z</time>
      </trkpt>
      <trkpt lat="42.47316" lon="2.21326">
        <ele>2382</ele>
        <time>2024-09-16T11:11:50Z</time>
      </trkpt>
      <trkpt lat="42.47318" lon="2.21327">
        <ele>2380</ele>
        <time>2024-09-16T11:11:59Z</time>
      </trkpt>
      <trkpt lat="42.4732" lon="2.21329">
        <ele>2379</ele>
        <time>2024-09-16T11:12:02Z</time>
      </trkpt>
      <trkpt lat="42.47323" lon="2.21332">
        <ele>2378</ele>
        <time>2024-09-16T11:12:04Z</time>
      </trkpt>
      <trkpt lat="42.47325" lon="2.21334">
        <ele>2378</ele>
        <time>2024-09-16T11:12:07Z</time>
      </trkpt>
      <trkpt lat="42.47327" lon="2.21337">
        <ele>2377</ele>
        <time>2024-09-16T11:12:09Z</time>
      </trkpt>
      <trkpt lat="42.4733" lon="2.21339">
        <ele>2376</ele>
        <time>2024-09-16T11:12:12Z</time>
      </trkpt>
      <trkpt lat="42.47332" lon="2.21342">
        <ele>2376</ele>
        <time>2024-09-16T11:12:15Z</time>
      </trkpt>
      <trkpt lat="42.47334" lon="2.21346">
        <ele>2375</ele>
        <time>2024-09-16T11:12:18Z</time>
      </trkpt>
      <trkpt lat="42.47336" lon="2.2135">
        <ele>2374</ele>
        <time>2024-09-16T11:12:21Z</time>
      </trkpt>
      <trkpt lat="42.47337" lon="2.21354">
        <ele>2374</ele>
        <time>2024-09-16T11:12:23Z</time>
      </trkpt>
      <trkpt lat="42.47337" lon="2.21358">
        <ele>2375</ele>
        <time>2024-09-16T11:12:26Z</time>
      </trkpt>
      <trkpt lat="42.47338" lon="2.21363">
        <ele>2375</ele>
        <time>2024-09-16T11:12:29Z</time>
      </trkpt>
      <trkpt lat="42.47338" lon="2.21368">
        <ele>2374</ele>
        <time>2024-09-16T11:12:32Z</time>
      </trkpt>
      <trkpt lat="42.47339" lon="2.21372">
        <ele>2374</ele>
        <time>2024-09-16T11:12:34Z</time>
      </trkpt>
      <trkpt lat="42.4734" lon="2.21376">
        <ele>2374</ele>
        <time>2024-09-16T11:12:37Z</time>
      </trkpt>
      <trkpt lat="42.4734" lon="2.21381">
        <ele>2373</ele>
        <time>2024-09-16T11:12:40Z</time>
      </trkpt>
      <trkpt lat="42.47341" lon="2.21385">
        <ele>2372</ele>
        <time>2024-09-16T11:12:44Z</time>
      </trkpt>
      <trkpt lat="42.47342" lon="2.21389">
        <ele>2372</ele>
        <time>2024-09-16T11:12:47Z</time>
      </trkpt>
      <trkpt lat="42.47343" lon="2.21393">
        <ele>2371</ele>
        <time>2024-09-16T11:12:50Z</time>
      </trkpt>
      <trkpt lat="42.47344" lon="2.21398">
        <ele>2370</ele>
        <time>2024-09-16T11:12:54Z</time>
      </trkpt>
      <trkpt lat="42.47345" lon="2.21402">
        <ele>2369</ele>
        <time>2024-09-16T11:13:01Z</time>
      </trkpt>
      <trkpt lat="42.47346" lon="2.21406">
        <ele>2368</ele>
        <time>2024-09-16T11:13:05Z</time>
      </trkpt>
      <trkpt lat="42.47346" lon="2.21411">
        <ele>2369</ele>
        <time>2024-09-16T11:13:08Z</time>
      </trkpt>
      <trkpt lat="42.47347" lon="2.21415">
        <ele>2368</ele>
        <time>2024-09-16T11:13:11Z</time>
      </trkpt>
      <trkpt lat="42.47347" lon="2.21421">
        <ele>2369</ele>
        <time>2024-09-16T11:13:14Z</time>
      </trkpt>
      <trkpt lat="42.47348" lon="2.21425">
        <ele>2368</ele>
        <time>2024-09-16T11:13:17Z</time>
      </trkpt>
      <trkpt lat="42.47348" lon="2.21429">
        <ele>2367</ele>
        <time>2024-09-16T11:13:20Z</time>
      </trkpt>
      <trkpt lat="42.47349" lon="2.21434">
        <ele>2367</ele>
        <time>2024-09-16T11:13:23Z</time>
      </trkpt>
      <trkpt lat="42.4735" lon="2.21438">
        <ele>2366</ele>
        <time>2024-09-16T11:13:29Z</time>
      </trkpt>
      <trkpt lat="42.47351" lon="2.21443">
        <ele>2365</ele>
        <time>2024-09-16T11:13:32Z</time>
      </trkpt>
      <trkpt lat="42.47352" lon="2.21448">
        <ele>2365</ele>
        <time>2024-09-16T11:13:35Z</time>
      </trkpt>
      <trkpt lat="42.47352" lon="2.21452">
        <ele>2364</ele>
        <time>2024-09-16T11:13:37Z</time>
      </trkpt>
      <trkpt lat="42.47353" lon="2.21456">
        <ele>2364</ele>
        <time>2024-09-16T11:13:39Z</time>
      </trkpt>
      <trkpt lat="42.47353" lon="2.21461">
        <ele>2364</ele>
        <time>2024-09-16T11:13:42Z</time>
      </trkpt>
      <trkpt lat="42.47353" lon="2.21465">
        <ele>2364</ele>
        <time>2024-09-16T11:13:44Z</time>
      </trkpt>
      <trkpt lat="42.47354" lon="2.21469">
        <ele>2363</ele>
        <time>2024-09-16T11:13:47Z</time>
      </trkpt>
      <trkpt lat="42.47354" lon="2.21474">
        <ele>2362</ele>
        <time>2024-09-16T11:13:50Z</time>
      </trkpt>
      <trkpt lat="42.47355" lon="2.21478">
        <ele>2362</ele>
        <time>2024-09-16T11:13:53Z</time>
      </trkpt>
      <trkpt lat="42.47355" lon="2.21483">
        <ele>2361</ele>
        <time>2024-09-16T11:13:56Z</time>
      </trkpt>
      <trkpt lat="42.47355" lon="2.21488">
        <ele>2360</ele>
        <time>2024-09-16T11:13:59Z</time>
      </trkpt>
      <trkpt lat="42.47356" lon="2.21492">
        <ele>2360</ele>
        <time>2024-09-16T11:14:02Z</time>
      </trkpt>
      <trkpt lat="42.47356" lon="2.21496">
        <ele>2360</ele>
        <time>2024-09-16T11:14:04Z</time>
      </trkpt>
      <trkpt lat="42.47356" lon="2.21501">
        <ele>2359</ele>
        <time>2024-09-16T11:14:07Z</time>
      </trkpt>
      <trkpt lat="42.47356" lon="2.21505">
        <ele>2359</ele>
        <time>2024-09-16T11:14:10Z</time>
      </trkpt>
      <trkpt lat="42.47355" lon="2.21508">
        <ele>2358</ele>
        <time>2024-09-16T11:14:13Z</time>
      </trkpt>
      <trkpt lat="42.47354" lon="2.21507">
        <ele>2355</ele>
        <time>2024-09-16T11:14:20Z</time>
      </trkpt>
      <trkpt lat="42.47352" lon="2.21504">
        <ele>2355</ele>
        <time>2024-09-16T11:14:23Z</time>
      </trkpt>
      <trkpt lat="42.47351" lon="2.215">
        <ele>2356</ele>
        <time>2024-09-16T11:14:26Z</time>
      </trkpt>
      <trkpt lat="42.4735" lon="2.21494">
        <ele>2356</ele>
        <time>2024-09-16T11:14:30Z</time>
      </trkpt>
      <trkpt lat="42.47349" lon="2.2149">
        <ele>2354</ele>
        <time>2024-09-16T11:14:33Z</time>
      </trkpt>
      <trkpt lat="42.47348" lon="2.21486">
        <ele>2353</ele>
        <time>2024-09-16T11:14:36Z</time>
      </trkpt>
      <trkpt lat="42.47346" lon="2.21482">
        <ele>2352</ele>
        <time>2024-09-16T11:14:39Z</time>
      </trkpt>
      <trkpt lat="42.47345" lon="2.21478">
        <ele>2352</ele>
        <time>2024-09-16T11:14:42Z</time>
      </trkpt>
      <trkpt lat="42.47343" lon="2.21474">
        <ele>2352</ele>
        <time>2024-09-16T11:14:45Z</time>
      </trkpt>
      <trkpt lat="42.47341" lon="2.2147">
        <ele>2351</ele>
        <time>2024-09-16T11:14:48Z</time>
      </trkpt>
      <trkpt lat="42.47339" lon="2.21466">
        <ele>2351</ele>
        <time>2024-09-16T11:14:51Z</time>
      </trkpt>
      <trkpt lat="42.47337" lon="2.21462">
        <ele>2352</ele>
        <time>2024-09-16T11:14:54Z</time>
      </trkpt>
      <trkpt lat="42.47335" lon="2.21459">
        <ele>2350</ele>
        <time>2024-09-16T11:14:57Z</time>
      </trkpt>
      <trkpt lat="42.47333" lon="2.21456">
        <ele>2349</ele>
        <time>2024-09-16T11:15:00Z</time>
      </trkpt>
      <trkpt lat="42.4733" lon="2.21453">
        <ele>2349</ele>
        <time>2024-09-16T11:15:03Z</time>
      </trkpt>
      <trkpt lat="42.47328" lon="2.2145">
        <ele>2350</ele>
        <time>2024-09-16T11:15:05Z</time>
      </trkpt>
      <trkpt lat="42.47326" lon="2.21447">
        <ele>2349</ele>
        <time>2024-09-16T11:15:09Z</time>
      </trkpt>
      <trkpt lat="42.47323" lon="2.21444">
        <ele>2348</ele>
        <time>2024-09-16T11:15:12Z</time>
      </trkpt>
      <trkpt lat="42.47321" lon="2.21441">
        <ele>2347</ele>
        <time>2024-09-16T11:15:15Z</time>
      </trkpt>
      <trkpt lat="42.47319" lon="2.21438">
        <ele>2348</ele>
        <time>2024-09-16T11:15:17Z</time>
      </trkpt>
      <trkpt lat="42.47317" lon="2.21435">
        <ele>2347</ele>
        <time>2024-09-16T11:15:20Z</time>
      </trkpt>
      <trkpt lat="42.47315" lon="2.21431">
        <ele>2347</ele>
        <time>2024-09-16T11:15:23Z</time>
      </trkpt>
      <trkpt lat="42.47313" lon="2.21428">
        <ele>2346</ele>
        <time>2024-09-16T11:15:26Z</time>
      </trkpt>
      <trkpt lat="42.47311" lon="2.21425">
        <ele>2345</ele>
        <time>2024-09-16T11:15:29Z</time>
      </trkpt>
      <trkpt lat="42.47309" lon="2.21422">
        <ele>2345</ele>
        <time>2024-09-16T11:15:32Z</time>
      </trkpt>
      <trkpt lat="42.47306" lon="2.21419">
        <ele>2344</ele>
        <time>2024-09-16T11:15:35Z</time>
      </trkpt>
      <trkpt lat="42.47304" lon="2.21416">
        <ele>2343</ele>
        <time>2024-09-16T11:15:38Z</time>
      </trkpt>
      <trkpt lat="42.47301" lon="2.21413">
        <ele>2343</ele>
        <time>2024-09-16T11:15:41Z</time>
      </trkpt>
      <trkpt lat="42.47298" lon="2.21411">
        <ele>2344</ele>
        <time>2024-09-16T11:15:43Z</time>
      </trkpt>
      <trkpt lat="42.47296" lon="2.21408">
        <ele>2343</ele>
        <time>2024-09-16T11:15:45Z</time>
      </trkpt>
      <trkpt lat="42.47293" lon="2.21406">
        <ele>2343</ele>
        <time>2024-09-16T11:15:48Z</time>
      </trkpt>
      <trkpt lat="42.47289" lon="2.21405">
        <ele>2343</ele>
        <time>2024-09-16T11:15:51Z</time>
      </trkpt>
      <trkpt lat="42.47286" lon="2.21404">
        <ele>2342</ele>
        <time>2024-09-16T11:15:54Z</time>
      </trkpt>
      <trkpt lat="42.47283" lon="2.21403">
        <ele>2341</ele>
        <time>2024-09-16T11:15:57Z</time>
      </trkpt>
      <trkpt lat="42.47279" lon="2.21402">
        <ele>2341</ele>
        <time>2024-09-16T11:15:59Z</time>
      </trkpt>
      <trkpt lat="42.47276" lon="2.21401">
        <ele>2341</ele>
        <time>2024-09-16T11:16:02Z</time>
      </trkpt>
      <trkpt lat="42.47273" lon="2.21401">
        <ele>2341</ele>
        <time>2024-09-16T11:16:04Z</time>
      </trkpt>
      <trkpt lat="42.4727" lon="2.21401">
        <ele>2341</ele>
        <time>2024-09-16T11:16:07Z</time>
      </trkpt>
      <trkpt lat="42.47267" lon="2.21401">
        <ele>2340</ele>
        <time>2024-09-16T11:16:10Z</time>
      </trkpt>
      <trkpt lat="42.47263" lon="2.21401">
        <ele>2339</ele>
        <time>2024-09-16T11:16:13Z</time>
      </trkpt>
      <trkpt lat="42.4726" lon="2.21401">
        <ele>2338</ele>
        <time>2024-09-16T11:16:16Z</time>
      </trkpt>
      <trkpt lat="42.47257" lon="2.214">
        <ele>2338</ele>
        <time>2024-09-16T11:16:19Z</time>
      </trkpt>
      <trkpt lat="42.47253" lon="2.214">
        <ele>2338</ele>
        <time>2024-09-16T11:16:21Z</time>
      </trkpt>
      <trkpt lat="42.4725" lon="2.214">
        <ele>2338</ele>
        <time>2024-09-16T11:16:24Z</time>
      </trkpt>
      <trkpt lat="42.47247" lon="2.21399">
        <ele>2337</ele>
        <time>2024-09-16T11:16:27Z</time>
      </trkpt>
      <trkpt lat="42.47244" lon="2.21398">
        <ele>2338</ele>
        <time>2024-09-16T11:16:29Z</time>
      </trkpt>
      <trkpt lat="42.4724" lon="2.21398">
        <ele>2337</ele>
        <time>2024-09-16T11:16:32Z</time>
      </trkpt>
      <trkpt lat="42.47236" lon="2.21397">
        <ele>2337</ele>
        <time>2024-09-16T11:16:35Z</time>
      </trkpt>
      <trkpt lat="42.47233" lon="2.21396">
        <ele>2335</ele>
        <time>2024-09-16T11:16:38Z</time>
      </trkpt>
      <trkpt lat="42.47229" lon="2.21396">
        <ele>2335</ele>
        <time>2024-09-16T11:16:41Z</time>
      </trkpt>
      <trkpt lat="42.47226" lon="2.21395">
        <ele>2334</ele>
        <time>2024-09-16T11:16:44Z</time>
      </trkpt>
      <trkpt lat="42.47222" lon="2.21395">
        <ele>2333</ele>
        <time>2024-09-16T11:16:47Z</time>
      </trkpt>
      <trkpt lat="42.47219" lon="2.21394">
        <ele>2331</ele>
        <time>2024-09-16T11:16:50Z</time>
      </trkpt>
      <trkpt lat="42.47215" lon="2.21394">
        <ele>2330</ele>
        <time>2024-09-16T11:16:53Z</time>
      </trkpt>
      <trkpt lat="42.47212" lon="2.21394">
        <ele>2330</ele>
        <time>2024-09-16T11:16:56Z</time>
      </trkpt>
      <trkpt lat="42.47209" lon="2.21393">
        <ele>2329</ele>
        <time>2024-09-16T11:16:59Z</time>
      </trkpt>
      <trkpt lat="42.47206" lon="2.21393">
        <ele>2327</ele>
        <time>2024-09-16T11:17:02Z</time>
      </trkpt>
      <trkpt lat="42.47202" lon="2.21392">
        <ele>2328</ele>
        <time>2024-09-16T11:17:05Z</time>
      </trkpt>
      <trkpt lat="42.47199" lon="2.21392">
        <ele>2327</ele>
        <time>2024-09-16T11:17:08Z</time>
      </trkpt>
      <trkpt lat="42.47195" lon="2.21391">
        <ele>2327</ele>
        <time>2024-09-16T11:17:11Z</time>
      </trkpt>
      <trkpt lat="42.47192" lon="2.21391">
        <ele>2326</ele>
        <time>2024-09-16T11:17:15Z</time>
      </trkpt>
      <trkpt lat="42.47188" lon="2.21392">
        <ele>2326</ele>
        <time>2024-09-16T11:17:18Z</time>
      </trkpt>
      <trkpt lat="42.47185" lon="2.21392">
        <ele>2325</ele>
        <time>2024-09-16T11:17:21Z</time>
      </trkpt>
      <trkpt lat="42.47182" lon="2.21392">
        <ele>2324</ele>
        <time>2024-09-16T11:17:24Z</time>
      </trkpt>
      <trkpt lat="42.47178" lon="2.2139">
        <ele>2324</ele>
        <time>2024-09-16T11:17:27Z</time>
      </trkpt>
      <trkpt lat="42.47175" lon="2.2139">
        <ele>2322</ele>
        <time>2024-09-16T11:17:30Z</time>
      </trkpt>
      <trkpt lat="42.47172" lon="2.2139">
        <ele>2322</ele>
        <time>2024-09-16T11:17:33Z</time>
      </trkpt>
      <trkpt lat="42.47169" lon="2.2139">
        <ele>2322</ele>
        <time>2024-09-16T11:17:35Z</time>
      </trkpt>
      <trkpt lat="42.47166" lon="2.2139">
        <ele>2322</ele>
        <time>2024-09-16T11:17:38Z</time>
      </trkpt>
      <trkpt lat="42.47163" lon="2.2139">
        <ele>2322</ele>
        <time>2024-09-16T11:17:40Z</time>
      </trkpt>
      <trkpt lat="42.4716" lon="2.2139">
        <ele>2321</ele>
        <time>2024-09-16T11:17:43Z</time>
      </trkpt>
      <trkpt lat="42.47157" lon="2.21391">
        <ele>2320</ele>
        <time>2024-09-16T11:17:45Z</time>
      </trkpt>
      <trkpt lat="42.47153" lon="2.21391">
        <ele>2320</ele>
        <time>2024-09-16T11:17:48Z</time>
      </trkpt>
      <trkpt lat="42.4715" lon="2.21391">
        <ele>2320</ele>
        <time>2024-09-16T11:17:50Z</time>
      </trkpt>
      <trkpt lat="42.47147" lon="2.21392">
        <ele>2318</ele>
        <time>2024-09-16T11:17:53Z</time>
      </trkpt>
      <trkpt lat="42.47144" lon="2.21393">
        <ele>2317</ele>
        <time>2024-09-16T11:17:56Z</time>
      </trkpt>
      <trkpt lat="42.47141" lon="2.21393">
        <ele>2317</ele>
        <time>2024-09-16T11:17:59Z</time>
      </trkpt>
      <trkpt lat="42.47137" lon="2.21394">
        <ele>2316</ele>
        <time>2024-09-16T11:18:02Z</time>
      </trkpt>
      <trkpt lat="42.47134" lon="2.21396">
        <ele>2315</ele>
        <time>2024-09-16T11:18:05Z</time>
      </trkpt>
      <trkpt lat="42.47131" lon="2.21397">
        <ele>2315</ele>
        <time>2024-09-16T11:18:08Z</time>
      </trkpt>
      <trkpt lat="42.47128" lon="2.21399">
        <ele>2314</ele>
        <time>2024-09-16T11:18:11Z</time>
      </trkpt>
      <trkpt lat="42.47125" lon="2.214">
        <ele>2314</ele>
        <time>2024-09-16T11:18:13Z</time>
      </trkpt>
      <trkpt lat="42.47122" lon="2.21402">
        <ele>2312</ele>
        <time>2024-09-16T11:18:16Z</time>
      </trkpt>
      <trkpt lat="42.47118" lon="2.21404">
        <ele>2311</ele>
        <time>2024-09-16T11:18:19Z</time>
      </trkpt>
      <trkpt lat="42.47115" lon="2.21405">
        <ele>2309</ele>
        <time>2024-09-16T11:18:23Z</time>
      </trkpt>
      <trkpt lat="42.47112" lon="2.21408">
        <ele>2311</ele>
        <time>2024-09-16T11:18:25Z</time>
      </trkpt>
      <trkpt lat="42.47109" lon="2.21411">
        <ele>2311</ele>
        <time>2024-09-16T11:18:28Z</time>
      </trkpt>
      <trkpt lat="42.47106" lon="2.21413">
        <ele>2312</ele>
        <time>2024-09-16T11:18:31Z</time>
      </trkpt>
      <trkpt lat="42.47103" lon="2.21416">
        <ele>2312</ele>
        <time>2024-09-16T11:18:33Z</time>
      </trkpt>
      <trkpt lat="42.47101" lon="2.21418">
        <ele>2310</ele>
        <time>2024-09-16T11:18:37Z</time>
      </trkpt>
      <trkpt lat="42.47098" lon="2.2142">
        <ele>2310</ele>
        <time>2024-09-16T11:18:39Z</time>
      </trkpt>
      <trkpt lat="42.47095" lon="2.21422">
        <ele>2309</ele>
        <time>2024-09-16T11:18:42Z</time>
      </trkpt>
      <trkpt lat="42.47092" lon="2.21424">
        <ele>2308</ele>
        <time>2024-09-16T11:18:45Z</time>
      </trkpt>
      <trkpt lat="42.47089" lon="2.21426">
        <ele>2308</ele>
        <time>2024-09-16T11:18:48Z</time>
      </trkpt>
      <trkpt lat="42.47086" lon="2.21428">
        <ele>2308</ele>
        <time>2024-09-16T11:18:51Z</time>
      </trkpt>
      <trkpt lat="42.47083" lon="2.2143">
        <ele>2309</ele>
        <time>2024-09-16T11:18:54Z</time>
      </trkpt>
      <trkpt lat="42.4708" lon="2.21432">
        <ele>2309</ele>
        <time>2024-09-16T11:18:56Z</time>
      </trkpt>
      <trkpt lat="42.47077" lon="2.21433">
        <ele>2308</ele>
        <time>2024-09-16T11:18:59Z</time>
      </trkpt>
      <trkpt lat="42.47073" lon="2.21435">
        <ele>2308</ele>
        <time>2024-09-16T11:19:02Z</time>
      </trkpt>
      <trkpt lat="42.47069" lon="2.21437">
        <ele>2307</ele>
        <time>2024-09-16T11:19:05Z</time>
      </trkpt>
      <trkpt lat="42.47066" lon="2.21438">
        <ele>2307</ele>
        <time>2024-09-16T11:19:08Z</time>
      </trkpt>
      <trkpt lat="42.47062" lon="2.21439">
        <ele>2306</ele>
        <time>2024-09-16T11:19:11Z</time>
      </trkpt>
      <trkpt lat="42.47059" lon="2.21439">
        <ele>2306</ele>
        <time>2024-09-16T11:19:14Z</time>
      </trkpt>
      <trkpt lat="42.47056" lon="2.21442">
        <ele>2306</ele>
        <time>2024-09-16T11:19:17Z</time>
      </trkpt>
      <trkpt lat="42.47057" lon="2.21443">
        <ele>2304</ele>
        <time>2024-09-16T11:19:29Z</time>
      </trkpt>
      <trkpt lat="42.4706" lon="2.21445">
        <ele>2303</ele>
        <time>2024-09-16T11:19:32Z</time>
      </trkpt>
      <trkpt lat="42.47063" lon="2.21446">
        <ele>2302</ele>
        <time>2024-09-16T11:19:35Z</time>
      </trkpt>
      <trkpt lat="42.47066" lon="2.21447">
        <ele>2302</ele>
        <time>2024-09-16T11:19:37Z</time>
      </trkpt>
      <trkpt lat="42.47069" lon="2.21446">
        <ele>2301</ele>
        <time>2024-09-16T11:19:40Z</time>
      </trkpt>
      <trkpt lat="42.47072" lon="2.21446">
        <ele>2300</ele>
        <time>2024-09-16T11:19:43Z</time>
      </trkpt>
      <trkpt lat="42.47076" lon="2.21446">
        <ele>2299</ele>
        <time>2024-09-16T11:19:46Z</time>
      </trkpt>
      <trkpt lat="42.47079" lon="2.21446">
        <ele>2298</ele>
        <time>2024-09-16T11:19:48Z</time>
      </trkpt>
      <trkpt lat="42.47082" lon="2.21445">
        <ele>2298</ele>
        <time>2024-09-16T11:19:51Z</time>
      </trkpt>
      <trkpt lat="42.47085" lon="2.21445">
        <ele>2296</ele>
        <time>2024-09-16T11:19:53Z</time>
      </trkpt>
      <trkpt lat="42.47088" lon="2.21445">
        <ele>2296</ele>
        <time>2024-09-16T11:19:56Z</time>
      </trkpt>
      <trkpt lat="42.47091" lon="2.21445">
        <ele>2296</ele>
        <time>2024-09-16T11:20:03Z</time>
      </trkpt>
      <trkpt lat="42.47095" lon="2.21446">
        <ele>2296</ele>
        <time>2024-09-16T11:20:05Z</time>
      </trkpt>
      <trkpt lat="42.47097" lon="2.21445">
        <ele>2294</ele>
        <time>2024-09-16T11:20:08Z</time>
      </trkpt>
      <trkpt lat="42.47101" lon="2.21445">
        <ele>2294</ele>
        <time>2024-09-16T11:20:11Z</time>
      </trkpt>
      <trkpt lat="42.47104" lon="2.21445">
        <ele>2294</ele>
        <time>2024-09-16T11:20:14Z</time>
      </trkpt>
      <trkpt lat="42.47108" lon="2.21444">
        <ele>2293</ele>
        <time>2024-09-16T11:20:17Z</time>
      </trkpt>
      <trkpt lat="42.47111" lon="2.21444">
        <ele>2293</ele>
        <time>2024-09-16T11:20:19Z</time>
      </trkpt>
      <trkpt lat="42.47114" lon="2.21444">
        <ele>2293</ele>
        <time>2024-09-16T11:20:22Z</time>
      </trkpt>
      <trkpt lat="42.47117" lon="2.21444">
        <ele>2292</ele>
        <time>2024-09-16T11:20:25Z</time>
      </trkpt>
      <trkpt lat="42.4712" lon="2.21444">
        <ele>2291</ele>
        <time>2024-09-16T11:20:27Z</time>
      </trkpt>
      <trkpt lat="42.47123" lon="2.21444">
        <ele>2291</ele>
        <time>2024-09-16T11:20:30Z</time>
      </trkpt>
      <trkpt lat="42.47127" lon="2.21444">
        <ele>2290</ele>
        <time>2024-09-16T11:20:33Z</time>
      </trkpt>
      <trkpt lat="42.4713" lon="2.21443">
        <ele>2290</ele>
        <time>2024-09-16T11:20:35Z</time>
      </trkpt>
      <trkpt lat="42.47133" lon="2.21444">
        <ele>2289</ele>
        <time>2024-09-16T11:20:38Z</time>
      </trkpt>
      <trkpt lat="42.47135" lon="2.21444">
        <ele>2289</ele>
        <time>2024-09-16T11:20:40Z</time>
      </trkpt>
      <trkpt lat="42.47138" lon="2.21445">
        <ele>2289</ele>
        <time>2024-09-16T11:20:43Z</time>
      </trkpt>
      <trkpt lat="42.47141" lon="2.21446">
        <ele>2290</ele>
        <time>2024-09-16T11:20:46Z</time>
      </trkpt>
      <trkpt lat="42.47144" lon="2.21448">
        <ele>2289</ele>
        <time>2024-09-16T11:20:52Z</time>
      </trkpt>
      <trkpt lat="42.47147" lon="2.2145">
        <ele>2289</ele>
        <time>2024-09-16T11:20:56Z</time>
      </trkpt>
      <trkpt lat="42.4715" lon="2.21452">
        <ele>2289</ele>
        <time>2024-09-16T11:20:58Z</time>
      </trkpt>
      <trkpt lat="42.47154" lon="2.21453">
        <ele>2287</ele>
        <time>2024-09-16T11:21:01Z</time>
      </trkpt>
      <trkpt lat="42.47157" lon="2.21455">
        <ele>2285</ele>
        <time>2024-09-16T11:21:04Z</time>
      </trkpt>
      <trkpt lat="42.4716" lon="2.21457">
        <ele>2286</ele>
        <time>2024-09-16T11:21:07Z</time>
      </trkpt>
      <trkpt lat="42.47163" lon="2.2146">
        <ele>2285</ele>
        <time>2024-09-16T11:21:10Z</time>
      </trkpt>
      <trkpt lat="42.47165" lon="2.21463">
        <ele>2286</ele>
        <time>2024-09-16T11:21:16Z</time>
      </trkpt>
      <trkpt lat="42.47169" lon="2.21465">
        <ele>2284</ele>
        <time>2024-09-16T11:21:19Z</time>
      </trkpt>
      <trkpt lat="42.47172" lon="2.21468">
        <ele>2283</ele>
        <time>2024-09-16T11:21:22Z</time>
      </trkpt>
      <trkpt lat="42.47174" lon="2.21471">
        <ele>2283</ele>
        <time>2024-09-16T11:21:26Z</time>
      </trkpt>
      <trkpt lat="42.47177" lon="2.21474">
        <ele>2283</ele>
        <time>2024-09-16T11:21:29Z</time>
      </trkpt>
      <trkpt lat="42.4718" lon="2.21476">
        <ele>2283</ele>
        <time>2024-09-16T11:21:31Z</time>
      </trkpt>
      <trkpt lat="42.47183" lon="2.21479">
        <ele>2282</ele>
        <time>2024-09-16T11:21:34Z</time>
      </trkpt>
      <trkpt lat="42.47186" lon="2.21481">
        <ele>2281</ele>
        <time>2024-09-16T11:21:37Z</time>
      </trkpt>
      <trkpt lat="42.47189" lon="2.21484">
        <ele>2280</ele>
        <time>2024-09-16T11:21:40Z</time>
      </trkpt>
      <trkpt lat="42.47191" lon="2.21486">
        <ele>2280</ele>
        <time>2024-09-16T11:21:42Z</time>
      </trkpt>
      <trkpt lat="42.47194" lon="2.21488">
        <ele>2280</ele>
        <time>2024-09-16T11:21:44Z</time>
      </trkpt>
      <trkpt lat="42.47196" lon="2.21491">
        <ele>2280</ele>
        <time>2024-09-16T11:21:47Z</time>
      </trkpt>
      <trkpt lat="42.47198" lon="2.21494">
        <ele>2280</ele>
        <time>2024-09-16T11:21:49Z</time>
      </trkpt>
      <trkpt lat="42.472" lon="2.21497">
        <ele>2280</ele>
        <time>2024-09-16T11:21:51Z</time>
      </trkpt>
      <trkpt lat="42.47202" lon="2.215">
        <ele>2280</ele>
        <time>2024-09-16T11:21:54Z</time>
      </trkpt>
      <trkpt lat="42.47204" lon="2.21502">
        <ele>2279</ele>
        <time>2024-09-16T11:21:56Z</time>
      </trkpt>
      <trkpt lat="42.47206" lon="2.21505">
        <ele>2278</ele>
        <time>2024-09-16T11:21:58Z</time>
      </trkpt>
      <trkpt lat="42.47208" lon="2.21508">
        <ele>2277</ele>
        <time>2024-09-16T11:22:00Z</time>
      </trkpt>
      <trkpt lat="42.4721" lon="2.21512">
        <ele>2277</ele>
        <time>2024-09-16T11:22:03Z</time>
      </trkpt>
      <trkpt lat="42.47211" lon="2.21516">
        <ele>2277</ele>
        <time>2024-09-16T11:22:16Z</time>
      </trkpt>
      <trkpt lat="42.47214" lon="2.2152">
        <ele>2278</ele>
        <time>2024-09-16T11:22:19Z</time>
      </trkpt>
      <trkpt lat="42.47216" lon="2.21525">
        <ele>2276</ele>
        <time>2024-09-16T11:22:22Z</time>
      </trkpt>
      <trkpt lat="42.47218" lon="2.2153">
        <ele>2274</ele>
        <time>2024-09-16T11:22:26Z</time>
      </trkpt>
      <trkpt lat="42.4722" lon="2.21534">
        <ele>2274</ele>
        <time>2024-09-16T11:22:28Z</time>
      </trkpt>
      <trkpt lat="42.47222" lon="2.21539">
        <ele>2275</ele>
        <time>2024-09-16T11:22:31Z</time>
      </trkpt>
      <trkpt lat="42.47224" lon="2.21543">
        <ele>2275</ele>
        <time>2024-09-16T11:22:34Z</time>
      </trkpt>
      <trkpt lat="42.47225" lon="2.21548">
        <ele>2275</ele>
        <time>2024-09-16T11:22:37Z</time>
      </trkpt>
      <trkpt lat="42.47224" lon="2.21552">
        <ele>2276</ele>
        <time>2024-09-16T11:22:39Z</time>
      </trkpt>
      <trkpt lat="42.47223" lon="2.21555">
        <ele>2275</ele>
        <time>2024-09-16T11:22:41Z</time>
      </trkpt>
      <trkpt lat="42.4722" lon="2.21556">
        <ele>2275</ele>
        <time>2024-09-16T11:22:43Z</time>
      </trkpt>
      <trkpt lat="42.47218" lon="2.21553">
        <ele>2274</ele>
        <time>2024-09-16T11:22:45Z</time>
      </trkpt>
      <trkpt lat="42.47216" lon="2.2155">
        <ele>2272</ele>
        <time>2024-09-16T11:22:48Z</time>
      </trkpt>
      <trkpt lat="42.47214" lon="2.21546">
        <ele>2272</ele>
        <time>2024-09-16T11:22:50Z</time>
      </trkpt>
      <trkpt lat="42.47212" lon="2.21543">
        <ele>2272</ele>
        <time>2024-09-16T11:22:52Z</time>
      </trkpt>
      <trkpt lat="42.47209" lon="2.21541">
        <ele>2272</ele>
        <time>2024-09-16T11:22:55Z</time>
      </trkpt>
      <trkpt lat="42.47207" lon="2.21537">
        <ele>2272</ele>
        <time>2024-09-16T11:22:58Z</time>
      </trkpt>
      <trkpt lat="42.47204" lon="2.21534">
        <ele>2271</ele>
        <time>2024-09-16T11:23:01Z</time>
      </trkpt>
      <trkpt lat="42.47201" lon="2.21532">
        <ele>2271</ele>
        <time>2024-09-16T11:23:04Z</time>
      </trkpt>
      <trkpt lat="42.47197" lon="2.21531">
        <ele>2270</ele>
        <time>2024-09-16T11:23:07Z</time>
      </trkpt>
      <trkpt lat="42.47194" lon="2.21529">
        <ele>2270</ele>
        <time>2024-09-16T11:23:10Z</time>
      </trkpt>
      <trkpt lat="42.4719" lon="2.21528">
        <ele>2268</ele>
        <time>2024-09-16T11:23:13Z</time>
      </trkpt>
      <trkpt lat="42.47187" lon="2.21528">
        <ele>2266</ele>
        <time>2024-09-16T11:23:16Z</time>
      </trkpt>
      <trkpt lat="42.47184" lon="2.21527">
        <ele>2266</ele>
        <time>2024-09-16T11:23:19Z</time>
      </trkpt>
      <trkpt lat="42.4718" lon="2.21527">
        <ele>2267</ele>
        <time>2024-09-16T11:23:22Z</time>
      </trkpt>
      <trkpt lat="42.47177" lon="2.21527">
        <ele>2268</ele>
        <time>2024-09-16T11:23:25Z</time>
      </trkpt>
      <trkpt lat="42.47174" lon="2.21526">
        <ele>2268</ele>
        <time>2024-09-16T11:23:29Z</time>
      </trkpt>
      <trkpt lat="42.4717" lon="2.21525">
        <ele>2267</ele>
        <time>2024-09-16T11:23:35Z</time>
      </trkpt>
      <trkpt lat="42.47167" lon="2.21525">
        <ele>2265</ele>
        <time>2024-09-16T11:23:38Z</time>
      </trkpt>
      <trkpt lat="42.47163" lon="2.21524">
        <ele>2264</ele>
        <time>2024-09-16T11:23:42Z</time>
      </trkpt>
      <trkpt lat="42.4716" lon="2.21523">
        <ele>2263</ele>
        <time>2024-09-16T11:23:45Z</time>
      </trkpt>
      <trkpt lat="42.47156" lon="2.21524">
        <ele>2263</ele>
        <time>2024-09-16T11:23:48Z</time>
      </trkpt>
      <trkpt lat="42.47153" lon="2.21524">
        <ele>2262</ele>
        <time>2024-09-16T11:23:51Z</time>
      </trkpt>
      <trkpt lat="42.47149" lon="2.21524">
        <ele>2261</ele>
        <time>2024-09-16T11:23:54Z</time>
      </trkpt>
      <trkpt lat="42.47146" lon="2.21524">
        <ele>2261</ele>
        <time>2024-09-16T11:23:56Z</time>
      </trkpt>
      <trkpt lat="42.47142" lon="2.21524">
        <ele>2260</ele>
        <time>2024-09-16T11:23:59Z</time>
      </trkpt>
      <trkpt lat="42.47139" lon="2.21523">
        <ele>2259</ele>
        <time>2024-09-16T11:24:02Z</time>
      </trkpt>
      <trkpt lat="42.47135" lon="2.21524">
        <ele>2259</ele>
        <time>2024-09-16T11:24:04Z</time>
      </trkpt>
      <trkpt lat="42.47131" lon="2.21524">
        <ele>2259</ele>
        <time>2024-09-16T11:24:07Z</time>
      </trkpt>
      <trkpt lat="42.47128" lon="2.21524">
        <ele>2258</ele>
        <time>2024-09-16T11:24:10Z</time>
      </trkpt>
      <trkpt lat="42.47124" lon="2.21524">
        <ele>2257</ele>
        <time>2024-09-16T11:24:14Z</time>
      </trkpt>
      <trkpt lat="42.47121" lon="2.21525">
        <ele>2257</ele>
        <time>2024-09-16T11:24:16Z</time>
      </trkpt>
      <trkpt lat="42.47117" lon="2.21526">
        <ele>2256</ele>
        <time>2024-09-16T11:24:19Z</time>
      </trkpt>
      <trkpt lat="42.47114" lon="2.21528">
        <ele>2256</ele>
        <time>2024-09-16T11:24:22Z</time>
      </trkpt>
      <trkpt lat="42.47111" lon="2.2153">
        <ele>2255</ele>
        <time>2024-09-16T11:24:25Z</time>
      </trkpt>
      <trkpt lat="42.47107" lon="2.21531">
        <ele>2254</ele>
        <time>2024-09-16T11:24:28Z</time>
      </trkpt>
      <trkpt lat="42.47104" lon="2.21533">
        <ele>2254</ele>
        <time>2024-09-16T11:24:31Z</time>
      </trkpt>
      <trkpt lat="42.47101" lon="2.21534">
        <ele>2252</ele>
        <time>2024-09-16T11:24:33Z</time>
      </trkpt>
      <trkpt lat="42.47098" lon="2.21536">
        <ele>2251</ele>
        <time>2024-09-16T11:24:36Z</time>
      </trkpt>
      <trkpt lat="42.47095" lon="2.21538">
        <ele>2252</ele>
        <time>2024-09-16T11:24:40Z</time>
      </trkpt>
      <trkpt lat="42.47092" lon="2.2154">
        <ele>2251</ele>
        <time>2024-09-16T11:24:42Z</time>
      </trkpt>
      <trkpt lat="42.4709" lon="2.21542">
        <ele>2251</ele>
        <time>2024-09-16T11:24:44Z</time>
      </trkpt>
      <trkpt lat="42.47087" lon="2.21544">
        <ele>2251</ele>
        <time>2024-09-16T11:24:47Z</time>
      </trkpt>
      <trkpt lat="42.47084" lon="2.21546">
        <ele>2251</ele>
        <time>2024-09-16T11:24:49Z</time>
      </trkpt>
      <trkpt lat="42.47081" lon="2.21548">
        <ele>2250</ele>
        <time>2024-09-16T11:24:51Z</time>
      </trkpt>
      <trkpt lat="42.47078" lon="2.2155">
        <ele>2250</ele>
        <time>2024-09-16T11:24:54Z</time>
      </trkpt>
      <trkpt lat="42.47075" lon="2.21551">
        <ele>2247</ele>
        <time>2024-09-16T11:24:57Z</time>
      </trkpt>
      <trkpt lat="42.47072" lon="2.21553">
        <ele>2245</ele>
        <time>2024-09-16T11:25:00Z</time>
      </trkpt>
      <trkpt lat="42.47068" lon="2.21555">
        <ele>2245</ele>
        <time>2024-09-16T11:25:03Z</time>
      </trkpt>
      <trkpt lat="42.47066" lon="2.21557">
        <ele>2245</ele>
        <time>2024-09-16T11:25:06Z</time>
      </trkpt>
      <trkpt lat="42.47063" lon="2.21559">
        <ele>2244</ele>
        <time>2024-09-16T11:25:08Z</time>
      </trkpt>
      <trkpt lat="42.4706" lon="2.21562">
        <ele>2245</ele>
        <time>2024-09-16T11:25:11Z</time>
      </trkpt>
      <trkpt lat="42.47058" lon="2.21565">
        <ele>2246</ele>
        <time>2024-09-16T11:25:13Z</time>
      </trkpt>
      <trkpt lat="42.47056" lon="2.21568">
        <ele>2246</ele>
        <time>2024-09-16T11:25:16Z</time>
      </trkpt>
      <trkpt lat="42.47053" lon="2.2157">
        <ele>2244</ele>
        <time>2024-09-16T11:25:19Z</time>
      </trkpt>
      <trkpt lat="42.4705" lon="2.21572">
        <ele>2243</ele>
        <time>2024-09-16T11:25:23Z</time>
      </trkpt>
      <trkpt lat="42.47046" lon="2.21573">
        <ele>2243</ele>
        <time>2024-09-16T11:25:26Z</time>
      </trkpt>
      <trkpt lat="42.47043" lon="2.21574">
        <ele>2243</ele>
        <time>2024-09-16T11:25:28Z</time>
      </trkpt>
      <trkpt lat="42.47041" lon="2.21576">
        <ele>2243</ele>
        <time>2024-09-16T11:25:31Z</time>
      </trkpt>
      <trkpt lat="42.47037" lon="2.21577">
        <ele>2242</ele>
        <time>2024-09-16T11:25:34Z</time>
      </trkpt>
      <trkpt lat="42.47034" lon="2.2158">
        <ele>2242</ele>
        <time>2024-09-16T11:25:38Z</time>
      </trkpt>
      <trkpt lat="42.47031" lon="2.21582">
        <ele>2242</ele>
        <time>2024-09-16T11:25:41Z</time>
      </trkpt>
      <trkpt lat="42.47027" lon="2.21584">
        <ele>2242</ele>
        <time>2024-09-16T11:25:44Z</time>
      </trkpt>
      <trkpt lat="42.47024" lon="2.21586">
        <ele>2242</ele>
        <time>2024-09-16T11:25:47Z</time>
      </trkpt>
      <trkpt lat="42.47021" lon="2.21587">
        <ele>2242</ele>
        <time>2024-09-16T11:25:50Z</time>
      </trkpt>
      <trkpt lat="42.47018" lon="2.21589">
        <ele>2242</ele>
        <time>2024-09-16T11:25:53Z</time>
      </trkpt>
      <trkpt lat="42.47015" lon="2.21591">
        <ele>2242</ele>
        <time>2024-09-16T11:25:57Z</time>
      </trkpt>
      <trkpt lat="42.47011" lon="2.21593">
        <ele>2241</ele>
        <time>2024-09-16T11:26:00Z</time>
      </trkpt>
      <trkpt lat="42.47007" lon="2.21595">
        <ele>2238</ele>
        <time>2024-09-16T11:26:10Z</time>
      </trkpt>
      <trkpt lat="42.47004" lon="2.21596">
        <ele>2236</ele>
        <time>2024-09-16T11:26:14Z</time>
      </trkpt>
      <trkpt lat="42.47001" lon="2.21599">
        <ele>2235</ele>
        <time>2024-09-16T11:26:18Z</time>
      </trkpt>
      <trkpt lat="42.46998" lon="2.21601">
        <ele>2235</ele>
        <time>2024-09-16T11:26:20Z</time>
      </trkpt>
      <trkpt lat="42.46995" lon="2.21601">
        <ele>2235</ele>
        <time>2024-09-16T11:26:22Z</time>
      </trkpt>
      <trkpt lat="42.46992" lon="2.21601">
        <ele>2236</ele>
        <time>2024-09-16T11:26:24Z</time>
      </trkpt>
      <trkpt lat="42.46989" lon="2.216">
        <ele>2235</ele>
        <time>2024-09-16T11:26:26Z</time>
      </trkpt>
      <trkpt lat="42.46986" lon="2.216">
        <ele>2235</ele>
        <time>2024-09-16T11:26:29Z</time>
      </trkpt>
      <trkpt lat="42.46982" lon="2.21599">
        <ele>2234</ele>
        <time>2024-09-16T11:26:32Z</time>
      </trkpt>
      <trkpt lat="42.46979" lon="2.21598">
        <ele>2233</ele>
        <time>2024-09-16T11:26:35Z</time>
      </trkpt>
      <trkpt lat="42.46976" lon="2.21597">
        <ele>2232</ele>
        <time>2024-09-16T11:26:40Z</time>
      </trkpt>
      <trkpt lat="42.46973" lon="2.21595">
        <ele>2231</ele>
        <time>2024-09-16T11:26:43Z</time>
      </trkpt>
      <trkpt lat="42.46971" lon="2.21592">
        <ele>2230</ele>
        <time>2024-09-16T11:26:45Z</time>
      </trkpt>
      <trkpt lat="42.46969" lon="2.21589">
        <ele>2231</ele>
        <time>2024-09-16T11:26:47Z</time>
      </trkpt>
      <trkpt lat="42.46967" lon="2.21585">
        <ele>2226</ele>
        <time>2024-09-16T11:26:50Z</time>
      </trkpt>
      <trkpt lat="42.46965" lon="2.21582">
        <ele>2225</ele>
        <time>2024-09-16T11:26:52Z</time>
      </trkpt>
      <trkpt lat="42.46964" lon="2.21578">
        <ele>2225</ele>
        <time>2024-09-16T11:26:54Z</time>
      </trkpt>
      <trkpt lat="42.46963" lon="2.21574">
        <ele>2224</ele>
        <time>2024-09-16T11:26:56Z</time>
      </trkpt>
      <trkpt lat="42.46962" lon="2.21571">
        <ele>2223</ele>
        <time>2024-09-16T11:26:58Z</time>
      </trkpt>
      <trkpt lat="42.46962" lon="2.21567">
        <ele>2223</ele>
        <time>2024-09-16T11:27:01Z</time>
      </trkpt>
      <trkpt lat="42.46959" lon="2.21564">
        <ele>2222</ele>
        <time>2024-09-16T11:27:04Z</time>
      </trkpt>
      <trkpt lat="42.46957" lon="2.21565">
        <ele>2221</ele>
        <time>2024-09-16T11:27:07Z</time>
      </trkpt>
      <trkpt lat="42.46955" lon="2.21567">
        <ele>2221</ele>
        <time>2024-09-16T11:27:09Z</time>
      </trkpt>
      <trkpt lat="42.46955" lon="2.21571">
        <ele>2221</ele>
        <time>2024-09-16T11:27:12Z</time>
      </trkpt>
      <trkpt lat="42.46955" lon="2.21575">
        <ele>2221</ele>
        <time>2024-09-16T11:27:15Z</time>
      </trkpt>
      <trkpt lat="42.46955" lon="2.21581">
        <ele>2222</ele>
        <time>2024-09-16T11:27:18Z</time>
      </trkpt>
      <trkpt lat="42.46956" lon="2.21586">
        <ele>2222</ele>
        <time>2024-09-16T11:27:29Z</time>
      </trkpt>
      <trkpt lat="42.46957" lon="2.2159">
        <ele>2222</ele>
        <time>2024-09-16T11:27:31Z</time>
      </trkpt>
      <trkpt lat="42.46957" lon="2.21594">
        <ele>2221</ele>
        <time>2024-09-16T11:27:34Z</time>
      </trkpt>
      <trkpt lat="42.46956" lon="2.21599">
        <ele>2221</ele>
        <time>2024-09-16T11:27:37Z</time>
      </trkpt>
      <trkpt lat="42.46957" lon="2.21602">
        <ele>2219</ele>
        <time>2024-09-16T11:27:45Z</time>
      </trkpt>
      <trkpt lat="42.46958" lon="2.21607">
        <ele>2219</ele>
        <time>2024-09-16T11:27:49Z</time>
      </trkpt>
      <trkpt lat="42.46958" lon="2.21612">
        <ele>2219</ele>
        <time>2024-09-16T11:27:53Z</time>
      </trkpt>
      <trkpt lat="42.46959" lon="2.21617">
        <ele>2220</ele>
        <time>2024-09-16T11:27:56Z</time>
      </trkpt>
      <trkpt lat="42.46959" lon="2.21622">
        <ele>2219</ele>
        <time>2024-09-16T11:27:59Z</time>
      </trkpt>
      <trkpt lat="42.4696" lon="2.21627">
        <ele>2219</ele>
        <time>2024-09-16T11:28:05Z</time>
      </trkpt>
      <trkpt lat="42.46959" lon="2.21631">
        <ele>2220</ele>
        <time>2024-09-16T11:28:07Z</time>
      </trkpt>
      <trkpt lat="42.4696" lon="2.21635">
        <ele>2220</ele>
        <time>2024-09-16T11:28:10Z</time>
      </trkpt>
      <trkpt lat="42.4696" lon="2.21639">
        <ele>2219</ele>
        <time>2024-09-16T11:28:12Z</time>
      </trkpt>
      <trkpt lat="42.46962" lon="2.21642">
        <ele>2218</ele>
        <time>2024-09-16T11:28:16Z</time>
      </trkpt>
      <trkpt lat="42.46964" lon="2.21644">
        <ele>2218</ele>
        <time>2024-09-16T11:28:25Z</time>
      </trkpt>
      <trkpt lat="42.46967" lon="2.21644">
        <ele>2215</ele>
        <time>2024-09-16T11:28:41Z</time>
      </trkpt>
      <trkpt lat="42.46969" lon="2.21642">
        <ele>2214</ele>
        <time>2024-09-16T11:28:45Z</time>
      </trkpt>
      <trkpt lat="42.46971" lon="2.21644">
        <ele>2214</ele>
        <time>2024-09-16T11:28:50Z</time>
      </trkpt>
      <trkpt lat="42.46972" lon="2.21647">
        <ele>2214</ele>
        <time>2024-09-16T11:28:53Z</time>
      </trkpt>
      <trkpt lat="42.46971" lon="2.21649">
        <ele>2217</ele>
        <time>2024-09-16T11:29:00Z</time>
      </trkpt>
      <trkpt lat="42.4697" lon="2.21648">
        <ele>2218</ele>
        <time>2024-09-16T11:29:20Z</time>
      </trkpt>
      <trkpt lat="42.46967" lon="2.21647">
        <ele>2221</ele>
        <time>2024-09-16T11:29:53Z</time>
      </trkpt>
      <trkpt lat="42.46966" lon="2.21649">
        <ele>2221</ele>
        <time>2024-09-16T11:30:33Z</time>
      </trkpt>
      <trkpt lat="42.46966" lon="2.21651">
        <ele>2221</ele>
        <time>2024-09-16T11:30:33Z</time>
      </trkpt>
      <trkpt lat="42.46969" lon="2.2165">
        <ele>2216</ele>
        <time>2024-09-16T12:16:01Z</time>
      </trkpt>
      <trkpt lat="42.4696" lon="2.21638">
        <ele>2203</ele>
        <time>2024-09-16T12:18:46Z</time>
      </trkpt>
      <trkpt lat="42.46968" lon="2.21644">
        <ele>2192</ele>
        <time>2024-09-16T12:18:47Z</time>
      </trkpt>
      <trkpt lat="42.4697" lon="2.21645">
        <ele>2189</ele>
        <time>2024-09-16T12:18:48Z</time>
      </trkpt>
      <trkpt lat="42.46972" lon="2.21647">
        <ele>2209</ele>
        <time>2024-09-16T12:18:49Z</time>
      </trkpt>
      <trkpt lat="42.46975" lon="2.21647">
        <ele>2213</ele>
        <time>2024-09-16T12:19:07Z</time>
      </trkpt>
      <trkpt lat="42.46978" lon="2.21648">
        <ele>2211</ele>
        <time>2024-09-16T12:19:10Z</time>
      </trkpt>
      <trkpt lat="42.46981" lon="2.2165">
        <ele>2212</ele>
        <time>2024-09-16T12:19:13Z</time>
      </trkpt>
      <trkpt lat="42.46984" lon="2.21652">
        <ele>2211</ele>
        <time>2024-09-16T12:19:15Z</time>
      </trkpt>
      <trkpt lat="42.46986" lon="2.21653">
        <ele>2210</ele>
        <time>2024-09-16T12:19:23Z</time>
      </trkpt>
      <trkpt lat="42.46989" lon="2.21655">
        <ele>2209</ele>
        <time>2024-09-16T12:19:26Z</time>
      </trkpt>
      <trkpt lat="42.46992" lon="2.21656">
        <ele>2209</ele>
        <time>2024-09-16T12:19:34Z</time>
      </trkpt>
      <trkpt lat="42.46995" lon="2.21656">
        <ele>2208</ele>
        <time>2024-09-16T12:19:37Z</time>
      </trkpt>
      <trkpt lat="42.46999" lon="2.21656">
        <ele>2208</ele>
        <time>2024-09-16T12:19:40Z</time>
      </trkpt>
      <trkpt lat="42.47002" lon="2.21656">
        <ele>2208</ele>
        <time>2024-09-16T12:19:42Z</time>
      </trkpt>
      <trkpt lat="42.47005" lon="2.21657">
        <ele>2208</ele>
        <time>2024-09-16T12:19:45Z</time>
      </trkpt>
      <trkpt lat="42.47009" lon="2.21657">
        <ele>2207</ele>
        <time>2024-09-16T12:19:49Z</time>
      </trkpt>
      <trkpt lat="42.47012" lon="2.21657">
        <ele>2206</ele>
        <time>2024-09-16T12:19:51Z</time>
      </trkpt>
      <trkpt lat="42.47015" lon="2.21656">
        <ele>2205</ele>
        <time>2024-09-16T12:19:54Z</time>
      </trkpt>
      <trkpt lat="42.47018" lon="2.21656">
        <ele>2206</ele>
        <time>2024-09-16T12:19:56Z</time>
      </trkpt>
      <trkpt lat="42.47022" lon="2.21656">
        <ele>2206</ele>
        <time>2024-09-16T12:19:59Z</time>
      </trkpt>
      <trkpt lat="42.47025" lon="2.21655">
        <ele>2205</ele>
        <time>2024-09-16T12:20:01Z</time>
      </trkpt>
      <trkpt lat="42.47028" lon="2.21654">
        <ele>2204</ele>
        <time>2024-09-16T12:20:05Z</time>
      </trkpt>
      <trkpt lat="42.47031" lon="2.21653">
        <ele>2203</ele>
        <time>2024-09-16T12:20:07Z</time>
      </trkpt>
      <trkpt lat="42.47034" lon="2.21653">
        <ele>2202</ele>
        <time>2024-09-16T12:20:10Z</time>
      </trkpt>
      <trkpt lat="42.47037" lon="2.21653">
        <ele>2201</ele>
        <time>2024-09-16T12:20:13Z</time>
      </trkpt>
      <trkpt lat="42.4704" lon="2.21652">
        <ele>2201</ele>
        <time>2024-09-16T12:20:16Z</time>
      </trkpt>
      <trkpt lat="42.47043" lon="2.21651">
        <ele>2200</ele>
        <time>2024-09-16T12:20:19Z</time>
      </trkpt>
      <trkpt lat="42.47046" lon="2.21651">
        <ele>2201</ele>
        <time>2024-09-16T12:20:22Z</time>
      </trkpt>
      <trkpt lat="42.4705" lon="2.2165">
        <ele>2200</ele>
        <time>2024-09-16T12:20:25Z</time>
      </trkpt>
      <trkpt lat="42.47054" lon="2.2165">
        <ele>2198</ele>
        <time>2024-09-16T12:20:27Z</time>
      </trkpt>
      <trkpt lat="42.47057" lon="2.2165">
        <ele>2198</ele>
        <time>2024-09-16T12:20:31Z</time>
      </trkpt>
      <trkpt lat="42.47061" lon="2.21651">
        <ele>2197</ele>
        <time>2024-09-16T12:20:34Z</time>
      </trkpt>
      <trkpt lat="42.47064" lon="2.21652">
        <ele>2196</ele>
        <time>2024-09-16T12:20:37Z</time>
      </trkpt>
      <trkpt lat="42.47068" lon="2.21653">
        <ele>2196</ele>
        <time>2024-09-16T12:20:40Z</time>
      </trkpt>
      <trkpt lat="42.47071" lon="2.21654">
        <ele>2195</ele>
        <time>2024-09-16T12:20:43Z</time>
      </trkpt>
      <trkpt lat="42.47073" lon="2.21656">
        <ele>2195</ele>
        <time>2024-09-16T12:20:46Z</time>
      </trkpt>
      <trkpt lat="42.47076" lon="2.21658">
        <ele>2195</ele>
        <time>2024-09-16T12:20:49Z</time>
      </trkpt>
      <trkpt lat="42.47079" lon="2.21661">
        <ele>2195</ele>
        <time>2024-09-16T12:20:52Z</time>
      </trkpt>
      <trkpt lat="42.47081" lon="2.21664">
        <ele>2194</ele>
        <time>2024-09-16T12:20:54Z</time>
      </trkpt>
      <trkpt lat="42.47083" lon="2.21667">
        <ele>2194</ele>
        <time>2024-09-16T12:20:58Z</time>
      </trkpt>
      <trkpt lat="42.47085" lon="2.21671">
        <ele>2194</ele>
        <time>2024-09-16T12:21:01Z</time>
      </trkpt>
      <trkpt lat="42.47085" lon="2.21675">
        <ele>2192</ele>
        <time>2024-09-16T12:21:05Z</time>
      </trkpt>
      <trkpt lat="42.47083" lon="2.21675">
        <ele>2192</ele>
        <time>2024-09-16T12:21:08Z</time>
      </trkpt>
      <trkpt lat="42.4708" lon="2.21673">
        <ele>2192</ele>
        <time>2024-09-16T12:21:11Z</time>
      </trkpt>
      <trkpt lat="42.47078" lon="2.21671">
        <ele>2191</ele>
        <time>2024-09-16T12:21:14Z</time>
      </trkpt>
      <trkpt lat="42.47075" lon="2.21669">
        <ele>2190</ele>
        <time>2024-09-16T12:21:17Z</time>
      </trkpt>
      <trkpt lat="42.47072" lon="2.21668">
        <ele>2191</ele>
        <time>2024-09-16T12:21:23Z</time>
      </trkpt>
      <trkpt lat="42.47069" lon="2.21667">
        <ele>2191</ele>
        <time>2024-09-16T12:21:26Z</time>
      </trkpt>
      <trkpt lat="42.47065" lon="2.21667">
        <ele>2191</ele>
        <time>2024-09-16T12:21:29Z</time>
      </trkpt>
      <trkpt lat="42.47062" lon="2.21668">
        <ele>2191</ele>
        <time>2024-09-16T12:21:30Z</time>
      </trkpt>
      <trkpt lat="42.4706" lon="2.2167">
        <ele>2190</ele>
        <time>2024-09-16T12:21:33Z</time>
      </trkpt>
      <trkpt lat="42.47057" lon="2.21672">
        <ele>2190</ele>
        <time>2024-09-16T12:21:36Z</time>
      </trkpt>
      <trkpt lat="42.47054" lon="2.21674">
        <ele>2189</ele>
        <time>2024-09-16T12:21:39Z</time>
      </trkpt>
      <trkpt lat="42.4705" lon="2.21677">
        <ele>2189</ele>
        <time>2024-09-16T12:21:43Z</time>
      </trkpt>
      <trkpt lat="42.47048" lon="2.21679">
        <ele>2188</ele>
        <time>2024-09-16T12:21:45Z</time>
      </trkpt>
      <trkpt lat="42.47046" lon="2.21682">
        <ele>2189</ele>
        <time>2024-09-16T12:21:47Z</time>
      </trkpt>
      <trkpt lat="42.47043" lon="2.21684">
        <ele>2188</ele>
        <time>2024-09-16T12:21:50Z</time>
      </trkpt>
      <trkpt lat="42.47041" lon="2.21687">
        <ele>2187</ele>
        <time>2024-09-16T12:21:52Z</time>
      </trkpt>
      <trkpt lat="42.47039" lon="2.2169">
        <ele>2187</ele>
        <time>2024-09-16T12:21:54Z</time>
      </trkpt>
      <trkpt lat="42.47036" lon="2.21692">
        <ele>2187</ele>
        <time>2024-09-16T12:21:57Z</time>
      </trkpt>
      <trkpt lat="42.47033" lon="2.21695">
        <ele>2187</ele>
        <time>2024-09-16T12:22:00Z</time>
      </trkpt>
      <trkpt lat="42.47031" lon="2.21698">
        <ele>2185</ele>
        <time>2024-09-16T12:22:04Z</time>
      </trkpt>
      <trkpt lat="42.47028" lon="2.21701">
        <ele>2185</ele>
        <time>2024-09-16T12:22:06Z</time>
      </trkpt>
      <trkpt lat="42.47026" lon="2.21703">
        <ele>2185</ele>
        <time>2024-09-16T12:22:08Z</time>
      </trkpt>
      <trkpt lat="42.47024" lon="2.21706">
        <ele>2184</ele>
        <time>2024-09-16T12:22:11Z</time>
      </trkpt>
      <trkpt lat="42.47021" lon="2.21709">
        <ele>2184</ele>
        <time>2024-09-16T12:22:14Z</time>
      </trkpt>
      <trkpt lat="42.47018" lon="2.21712">
        <ele>2182</ele>
        <time>2024-09-16T12:22:18Z</time>
      </trkpt>
      <trkpt lat="42.47015" lon="2.21714">
        <ele>2181</ele>
        <time>2024-09-16T12:22:20Z</time>
      </trkpt>
      <trkpt lat="42.47012" lon="2.21717">
        <ele>2181</ele>
        <time>2024-09-16T12:22:23Z</time>
      </trkpt>
      <trkpt lat="42.47009" lon="2.2172">
        <ele>2181</ele>
        <time>2024-09-16T12:22:26Z</time>
      </trkpt>
      <trkpt lat="42.47007" lon="2.21723">
        <ele>2181</ele>
        <time>2024-09-16T12:22:28Z</time>
      </trkpt>
      <trkpt lat="42.47004" lon="2.21726">
        <ele>2180</ele>
        <time>2024-09-16T12:22:31Z</time>
      </trkpt>
      <trkpt lat="42.47002" lon="2.21729">
        <ele>2180</ele>
        <time>2024-09-16T12:22:34Z</time>
      </trkpt>
      <trkpt lat="42.46999" lon="2.21731">
        <ele>2180</ele>
        <time>2024-09-16T12:22:37Z</time>
      </trkpt>
      <trkpt lat="42.46997" lon="2.21734">
        <ele>2179</ele>
        <time>2024-09-16T12:22:40Z</time>
      </trkpt>
      <trkpt lat="42.46994" lon="2.21736">
        <ele>2180</ele>
        <time>2024-09-16T12:22:43Z</time>
      </trkpt>
      <trkpt lat="42.46991" lon="2.21738">
        <ele>2180</ele>
        <time>2024-09-16T12:22:45Z</time>
      </trkpt>
      <trkpt lat="42.46988" lon="2.21741">
        <ele>2178</ele>
        <time>2024-09-16T12:22:49Z</time>
      </trkpt>
      <trkpt lat="42.46984" lon="2.21744">
        <ele>2178</ele>
        <time>2024-09-16T12:22:52Z</time>
      </trkpt>
      <trkpt lat="42.46981" lon="2.21748">
        <ele>2178</ele>
        <time>2024-09-16T12:22:55Z</time>
      </trkpt>
      <trkpt lat="42.46978" lon="2.2175">
        <ele>2178</ele>
        <time>2024-09-16T12:22:58Z</time>
      </trkpt>
      <trkpt lat="42.46976" lon="2.21753">
        <ele>2175</ele>
        <time>2024-09-16T12:23:03Z</time>
      </trkpt>
      <trkpt lat="42.46973" lon="2.21755">
        <ele>2175</ele>
        <time>2024-09-16T12:23:06Z</time>
      </trkpt>
      <trkpt lat="42.4697" lon="2.21757">
        <ele>2176</ele>
        <time>2024-09-16T12:23:09Z</time>
      </trkpt>
      <trkpt lat="42.46967" lon="2.21759">
        <ele>2174</ele>
        <time>2024-09-16T12:23:12Z</time>
      </trkpt>
      <trkpt lat="42.46964" lon="2.2176">
        <ele>2174</ele>
        <time>2024-09-16T12:23:14Z</time>
      </trkpt>
      <trkpt lat="42.46961" lon="2.21762">
        <ele>2174</ele>
        <time>2024-09-16T12:23:16Z</time>
      </trkpt>
      <trkpt lat="42.46958" lon="2.21764">
        <ele>2174</ele>
        <time>2024-09-16T12:23:19Z</time>
      </trkpt>
      <trkpt lat="42.46955" lon="2.21767">
        <ele>2174</ele>
        <time>2024-09-16T12:23:22Z</time>
      </trkpt>
      <trkpt lat="42.46952" lon="2.21767">
        <ele>2173</ele>
        <time>2024-09-16T12:23:25Z</time>
      </trkpt>
      <trkpt lat="42.46948" lon="2.21767">
        <ele>2172</ele>
        <time>2024-09-16T12:23:28Z</time>
      </trkpt>
      <trkpt lat="42.46944" lon="2.21767">
        <ele>2172</ele>
        <time>2024-09-16T12:23:31Z</time>
      </trkpt>
      <trkpt lat="42.46941" lon="2.21767">
        <ele>2171</ele>
        <time>2024-09-16T12:23:34Z</time>
      </trkpt>
      <trkpt lat="42.46938" lon="2.21766">
        <ele>2171</ele>
        <time>2024-09-16T12:23:36Z</time>
      </trkpt>
      <trkpt lat="42.46935" lon="2.21764">
        <ele>2170</ele>
        <time>2024-09-16T12:23:39Z</time>
      </trkpt>
      <trkpt lat="42.46933" lon="2.21762">
        <ele>2170</ele>
        <time>2024-09-16T12:23:41Z</time>
      </trkpt>
      <trkpt lat="42.46929" lon="2.2176">
        <ele>2169</ele>
        <time>2024-09-16T12:23:44Z</time>
      </trkpt>
      <trkpt lat="42.46926" lon="2.21757">
        <ele>2168</ele>
        <time>2024-09-16T12:23:47Z</time>
      </trkpt>
      <trkpt lat="42.46924" lon="2.21755">
        <ele>2167</ele>
        <time>2024-09-16T12:23:49Z</time>
      </trkpt>
      <trkpt lat="42.46921" lon="2.21752">
        <ele>2167</ele>
        <time>2024-09-16T12:23:52Z</time>
      </trkpt>
      <trkpt lat="42.46919" lon="2.21749">
        <ele>2167</ele>
        <time>2024-09-16T12:23:55Z</time>
      </trkpt>
      <trkpt lat="42.46915" lon="2.21747">
        <ele>2167</ele>
        <time>2024-09-16T12:23:58Z</time>
      </trkpt>
      <trkpt lat="42.46912" lon="2.21744">
        <ele>2165</ele>
        <time>2024-09-16T12:24:01Z</time>
      </trkpt>
      <trkpt lat="42.4691" lon="2.21741">
        <ele>2165</ele>
        <time>2024-09-16T12:24:03Z</time>
      </trkpt>
      <trkpt lat="42.46908" lon="2.21739">
        <ele>2162</ele>
        <time>2024-09-16T12:24:06Z</time>
      </trkpt>
      <trkpt lat="42.46905" lon="2.21737">
        <ele>2162</ele>
        <time>2024-09-16T12:24:08Z</time>
      </trkpt>
      <trkpt lat="42.46903" lon="2.21734">
        <ele>2162</ele>
        <time>2024-09-16T12:24:10Z</time>
      </trkpt>
      <trkpt lat="42.46901" lon="2.21731">
        <ele>2162</ele>
        <time>2024-09-16T12:24:13Z</time>
      </trkpt>
      <trkpt lat="42.46898" lon="2.21727">
        <ele>2161</ele>
        <time>2024-09-16T12:24:16Z</time>
      </trkpt>
      <trkpt lat="42.46896" lon="2.21724">
        <ele>2161</ele>
        <time>2024-09-16T12:24:18Z</time>
      </trkpt>
      <trkpt lat="42.46893" lon="2.21721">
        <ele>2160</ele>
        <time>2024-09-16T12:24:21Z</time>
      </trkpt>
      <trkpt lat="42.4689" lon="2.21718">
        <ele>2160</ele>
        <time>2024-09-16T12:24:24Z</time>
      </trkpt>
      <trkpt lat="42.46887" lon="2.21716">
        <ele>2161</ele>
        <time>2024-09-16T12:24:26Z</time>
      </trkpt>
      <trkpt lat="42.46884" lon="2.21716">
        <ele>2161</ele>
        <time>2024-09-16T12:24:29Z</time>
      </trkpt>
      <trkpt lat="42.46882" lon="2.21719">
        <ele>2160</ele>
        <time>2024-09-16T12:24:32Z</time>
      </trkpt>
      <trkpt lat="42.46882" lon="2.21722">
        <ele>2160</ele>
        <time>2024-09-16T12:24:34Z</time>
      </trkpt>
      <trkpt lat="42.46882" lon="2.21725">
        <ele>2159</ele>
        <time>2024-09-16T12:24:36Z</time>
      </trkpt>
      <trkpt lat="42.46885" lon="2.21728">
        <ele>2158</ele>
        <time>2024-09-16T12:24:39Z</time>
      </trkpt>
      <trkpt lat="42.46887" lon="2.21732">
        <ele>2157</ele>
        <time>2024-09-16T12:24:42Z</time>
      </trkpt>
      <trkpt lat="42.46889" lon="2.21734">
        <ele>2157</ele>
        <time>2024-09-16T12:24:44Z</time>
      </trkpt>
      <trkpt lat="42.46892" lon="2.21737">
        <ele>2157</ele>
        <time>2024-09-16T12:24:47Z</time>
      </trkpt>
      <trkpt lat="42.46895" lon="2.2174">
        <ele>2157</ele>
        <time>2024-09-16T12:24:50Z</time>
      </trkpt>
      <trkpt lat="42.46897" lon="2.21744">
        <ele>2157</ele>
        <time>2024-09-16T12:24:53Z</time>
      </trkpt>
      <trkpt lat="42.46899" lon="2.21747">
        <ele>2157</ele>
        <time>2024-09-16T12:24:55Z</time>
      </trkpt>
      <trkpt lat="42.46901" lon="2.2175">
        <ele>2157</ele>
        <time>2024-09-16T12:24:57Z</time>
      </trkpt>
      <trkpt lat="42.46903" lon="2.21754">
        <ele>2157</ele>
        <time>2024-09-16T12:25:00Z</time>
      </trkpt>
      <trkpt lat="42.46905" lon="2.21758">
        <ele>2157</ele>
        <time>2024-09-16T12:25:03Z</time>
      </trkpt>
      <trkpt lat="42.46906" lon="2.21762">
        <ele>2156</ele>
        <time>2024-09-16T12:25:06Z</time>
      </trkpt>
      <trkpt lat="42.46908" lon="2.21766">
        <ele>2156</ele>
        <time>2024-09-16T12:25:09Z</time>
      </trkpt>
      <trkpt lat="42.4691" lon="2.21769">
        <ele>2155</ele>
        <time>2024-09-16T12:25:12Z</time>
      </trkpt>
      <trkpt lat="42.46912" lon="2.21773">
        <ele>2155</ele>
        <time>2024-09-16T12:25:15Z</time>
      </trkpt>
      <trkpt lat="42.46914" lon="2.21777">
        <ele>2153</ele>
        <time>2024-09-16T12:25:18Z</time>
      </trkpt>
      <trkpt lat="42.46915" lon="2.21781">
        <ele>2153</ele>
        <time>2024-09-16T12:25:21Z</time>
      </trkpt>
      <trkpt lat="42.46917" lon="2.21785">
        <ele>2152</ele>
        <time>2024-09-16T12:25:24Z</time>
      </trkpt>
      <trkpt lat="42.46919" lon="2.21788">
        <ele>2151</ele>
        <time>2024-09-16T12:25:27Z</time>
      </trkpt>
      <trkpt lat="42.46921" lon="2.21792">
        <ele>2151</ele>
        <time>2024-09-16T12:25:29Z</time>
      </trkpt>
      <trkpt lat="42.46923" lon="2.21795">
        <ele>2150</ele>
        <time>2024-09-16T12:25:32Z</time>
      </trkpt>
      <trkpt lat="42.46925" lon="2.21799">
        <ele>2150</ele>
        <time>2024-09-16T12:25:35Z</time>
      </trkpt>
      <trkpt lat="42.46927" lon="2.21803">
        <ele>2149</ele>
        <time>2024-09-16T12:25:38Z</time>
      </trkpt>
      <trkpt lat="42.46928" lon="2.21808">
        <ele>2149</ele>
        <time>2024-09-16T12:25:41Z</time>
      </trkpt>
      <trkpt lat="42.4693" lon="2.21812">
        <ele>2148</ele>
        <time>2024-09-16T12:25:44Z</time>
      </trkpt>
      <trkpt lat="42.46932" lon="2.21815">
        <ele>2148</ele>
        <time>2024-09-16T12:25:46Z</time>
      </trkpt>
      <trkpt lat="42.46933" lon="2.21819">
        <ele>2147</ele>
        <time>2024-09-16T12:25:48Z</time>
      </trkpt>
      <trkpt lat="42.46935" lon="2.21823">
        <ele>2147</ele>
        <time>2024-09-16T12:25:50Z</time>
      </trkpt>
      <trkpt lat="42.46936" lon="2.21827">
        <ele>2147</ele>
        <time>2024-09-16T12:25:53Z</time>
      </trkpt>
      <trkpt lat="42.46938" lon="2.21831">
        <ele>2146</ele>
        <time>2024-09-16T12:25:56Z</time>
      </trkpt>
      <trkpt lat="42.4694" lon="2.21835">
        <ele>2145</ele>
        <time>2024-09-16T12:25:59Z</time>
      </trkpt>
      <trkpt lat="42.46941" lon="2.21838">
        <ele>2146</ele>
        <time>2024-09-16T12:26:01Z</time>
      </trkpt>
      <trkpt lat="42.46943" lon="2.21842">
        <ele>2144</ele>
        <time>2024-09-16T12:26:04Z</time>
      </trkpt>
      <trkpt lat="42.46945" lon="2.21846">
        <ele>2144</ele>
        <time>2024-09-16T12:26:06Z</time>
      </trkpt>
      <trkpt lat="42.46946" lon="2.2185">
        <ele>2144</ele>
        <time>2024-09-16T12:26:09Z</time>
      </trkpt>
      <trkpt lat="42.46948" lon="2.21853">
        <ele>2144</ele>
        <time>2024-09-16T12:26:11Z</time>
      </trkpt>
      <trkpt lat="42.46949" lon="2.21857">
        <ele>2144</ele>
        <time>2024-09-16T12:26:14Z</time>
      </trkpt>
      <trkpt lat="42.46951" lon="2.21861">
        <ele>2144</ele>
        <time>2024-09-16T12:26:17Z</time>
      </trkpt>
      <trkpt lat="42.46952" lon="2.21866">
        <ele>2144</ele>
        <time>2024-09-16T12:26:20Z</time>
      </trkpt>
      <trkpt lat="42.46953" lon="2.21871">
        <ele>2143</ele>
        <time>2024-09-16T12:26:23Z</time>
      </trkpt>
      <trkpt lat="42.46954" lon="2.21875">
        <ele>2141</ele>
        <time>2024-09-16T12:26:26Z</time>
      </trkpt>
      <trkpt lat="42.46955" lon="2.21879">
        <ele>2140</ele>
        <time>2024-09-16T12:26:29Z</time>
      </trkpt>
      <trkpt lat="42.46957" lon="2.21883">
        <ele>2139</ele>
        <time>2024-09-16T12:26:33Z</time>
      </trkpt>
      <trkpt lat="42.46958" lon="2.21888">
        <ele>2138</ele>
        <time>2024-09-16T12:26:36Z</time>
      </trkpt>
      <trkpt lat="42.46959" lon="2.21893">
        <ele>2138</ele>
        <time>2024-09-16T12:26:39Z</time>
      </trkpt>
      <trkpt lat="42.46959" lon="2.21898">
        <ele>2137</ele>
        <time>2024-09-16T12:26:42Z</time>
      </trkpt>
      <trkpt lat="42.46958" lon="2.21902">
        <ele>2136</ele>
        <time>2024-09-16T12:26:46Z</time>
      </trkpt>
      <trkpt lat="42.46958" lon="2.21906">
        <ele>2136</ele>
        <time>2024-09-16T12:26:49Z</time>
      </trkpt>
      <trkpt lat="42.46957" lon="2.2191">
        <ele>2135</ele>
        <time>2024-09-16T12:26:52Z</time>
      </trkpt>
      <trkpt lat="42.46956" lon="2.21915">
        <ele>2135</ele>
        <time>2024-09-16T12:26:55Z</time>
      </trkpt>
      <trkpt lat="42.46954" lon="2.21918">
        <ele>2135</ele>
        <time>2024-09-16T12:26:58Z</time>
      </trkpt>
      <trkpt lat="42.46952" lon="2.21921">
        <ele>2134</ele>
        <time>2024-09-16T12:27:01Z</time>
      </trkpt>
      <trkpt lat="42.46951" lon="2.21924">
        <ele>2134</ele>
        <time>2024-09-16T12:27:04Z</time>
      </trkpt>
      <trkpt lat="42.46949" lon="2.21928">
        <ele>2133</ele>
        <time>2024-09-16T12:27:06Z</time>
      </trkpt>
      <trkpt lat="42.46948" lon="2.21932">
        <ele>2134</ele>
        <time>2024-09-16T12:27:08Z</time>
      </trkpt>
      <trkpt lat="42.46947" lon="2.21935">
        <ele>2134</ele>
        <time>2024-09-16T12:27:10Z</time>
      </trkpt>
      <trkpt lat="42.46946" lon="2.2194">
        <ele>2134</ele>
        <time>2024-09-16T12:27:13Z</time>
      </trkpt>
      <trkpt lat="42.46945" lon="2.21944">
        <ele>2134</ele>
        <time>2024-09-16T12:27:16Z</time>
      </trkpt>
      <trkpt lat="42.46943" lon="2.21948">
        <ele>2135</ele>
        <time>2024-09-16T12:27:20Z</time>
      </trkpt>
      <trkpt lat="42.4694" lon="2.21951">
        <ele>2134</ele>
        <time>2024-09-16T12:27:23Z</time>
      </trkpt>
      <trkpt lat="42.46938" lon="2.21955">
        <ele>2133</ele>
        <time>2024-09-16T12:27:26Z</time>
      </trkpt>
      <trkpt lat="42.46938" lon="2.21959">
        <ele>2132</ele>
        <time>2024-09-16T12:27:29Z</time>
      </trkpt>
      <trkpt lat="42.46939" lon="2.21962">
        <ele>2131</ele>
        <time>2024-09-16T12:27:31Z</time>
      </trkpt>
      <trkpt lat="42.46942" lon="2.21965">
        <ele>2129</ele>
        <time>2024-09-16T12:27:35Z</time>
      </trkpt>
      <trkpt lat="42.46945" lon="2.21966">
        <ele>2128</ele>
        <time>2024-09-16T12:27:39Z</time>
      </trkpt>
      <trkpt lat="42.46948" lon="2.21966">
        <ele>2126</ele>
        <time>2024-09-16T12:27:42Z</time>
      </trkpt>
      <trkpt lat="42.46952" lon="2.21965">
        <ele>2126</ele>
        <time>2024-09-16T12:27:45Z</time>
      </trkpt>
      <trkpt lat="42.46955" lon="2.21963">
        <ele>2124</ele>
        <time>2024-09-16T12:27:48Z</time>
      </trkpt>
      <trkpt lat="42.46958" lon="2.21962">
        <ele>2124</ele>
        <time>2024-09-16T12:27:50Z</time>
      </trkpt>
      <trkpt lat="42.46961" lon="2.21958">
        <ele>2124</ele>
        <time>2024-09-16T12:27:52Z</time>
      </trkpt>
      <trkpt lat="42.46963" lon="2.21956">
        <ele>2123</ele>
        <time>2024-09-16T12:27:54Z</time>
      </trkpt>
      <trkpt lat="42.46966" lon="2.21954">
        <ele>2122</ele>
        <time>2024-09-16T12:27:56Z</time>
      </trkpt>
      <trkpt lat="42.46969" lon="2.21951">
        <ele>2121</ele>
        <time>2024-09-16T12:28:00Z</time>
      </trkpt>
      <trkpt lat="42.46971" lon="2.21948">
        <ele>2119</ele>
        <time>2024-09-16T12:28:03Z</time>
      </trkpt>
      <trkpt lat="42.46974" lon="2.21945">
        <ele>2118</ele>
        <time>2024-09-16T12:28:05Z</time>
      </trkpt>
      <trkpt lat="42.46976" lon="2.21944">
        <ele>2117</ele>
        <time>2024-09-16T12:28:08Z</time>
      </trkpt>
      <trkpt lat="42.46979" lon="2.21945">
        <ele>2117</ele>
        <time>2024-09-16T12:28:10Z</time>
      </trkpt>
      <trkpt lat="42.4698" lon="2.21947">
        <ele>2117</ele>
        <time>2024-09-16T12:28:13Z</time>
      </trkpt>
      <trkpt lat="42.4698" lon="2.21951">
        <ele>2117</ele>
        <time>2024-09-16T12:28:15Z</time>
      </trkpt>
      <trkpt lat="42.46978" lon="2.21953">
        <ele>2116</ele>
        <time>2024-09-16T12:28:19Z</time>
      </trkpt>
      <trkpt lat="42.46975" lon="2.21955">
        <ele>2116</ele>
        <time>2024-09-16T12:28:21Z</time>
      </trkpt>
      <trkpt lat="42.46974" lon="2.21958">
        <ele>2116</ele>
        <time>2024-09-16T12:28:23Z</time>
      </trkpt>
      <trkpt lat="42.46972" lon="2.21963">
        <ele>2118</ele>
        <time>2024-09-16T12:28:26Z</time>
      </trkpt>
      <trkpt lat="42.46971" lon="2.21967">
        <ele>2119</ele>
        <time>2024-09-16T12:28:28Z</time>
      </trkpt>
      <trkpt lat="42.4697" lon="2.21971">
        <ele>2119</ele>
        <time>2024-09-16T12:28:31Z</time>
      </trkpt>
      <trkpt lat="42.46969" lon="2.21975">
        <ele>2118</ele>
        <time>2024-09-16T12:28:33Z</time>
      </trkpt>
      <trkpt lat="42.46968" lon="2.2198">
        <ele>2118</ele>
        <time>2024-09-16T12:28:37Z</time>
      </trkpt>
      <trkpt lat="42.46966" lon="2.21984">
        <ele>2116</ele>
        <time>2024-09-16T12:28:40Z</time>
      </trkpt>
      <trkpt lat="42.46965" lon="2.21989">
        <ele>2116</ele>
        <time>2024-09-16T12:28:43Z</time>
      </trkpt>
      <trkpt lat="42.46963" lon="2.21993">
        <ele>2116</ele>
        <time>2024-09-16T12:28:47Z</time>
      </trkpt>
      <trkpt lat="42.46961" lon="2.21996">
        <ele>2114</ele>
        <time>2024-09-16T12:28:50Z</time>
      </trkpt>
      <trkpt lat="42.46959" lon="2.22">
        <ele>2114</ele>
        <time>2024-09-16T12:28:53Z</time>
      </trkpt>
      <trkpt lat="42.46957" lon="2.22004">
        <ele>2115</ele>
        <time>2024-09-16T12:28:55Z</time>
      </trkpt>
      <trkpt lat="42.46955" lon="2.22008">
        <ele>2114</ele>
        <time>2024-09-16T12:28:58Z</time>
      </trkpt>
      <trkpt lat="42.46952" lon="2.22011">
        <ele>2113</ele>
        <time>2024-09-16T12:29:01Z</time>
      </trkpt>
      <trkpt lat="42.4695" lon="2.22014">
        <ele>2113</ele>
        <time>2024-09-16T12:29:03Z</time>
      </trkpt>
      <trkpt lat="42.46948" lon="2.22017">
        <ele>2113</ele>
        <time>2024-09-16T12:29:06Z</time>
      </trkpt>
      <trkpt lat="42.46947" lon="2.2202">
        <ele>2112</ele>
        <time>2024-09-16T12:29:08Z</time>
      </trkpt>
      <trkpt lat="42.46944" lon="2.22023">
        <ele>2112</ele>
        <time>2024-09-16T12:29:11Z</time>
      </trkpt>
      <trkpt lat="42.46943" lon="2.22026">
        <ele>2111</ele>
        <time>2024-09-16T12:29:14Z</time>
      </trkpt>
      <trkpt lat="42.46941" lon="2.22029">
        <ele>2112</ele>
        <time>2024-09-16T12:29:17Z</time>
      </trkpt>
      <trkpt lat="42.46939" lon="2.22034">
        <ele>2111</ele>
        <time>2024-09-16T12:29:19Z</time>
      </trkpt>
      <trkpt lat="42.46937" lon="2.22038">
        <ele>2111</ele>
        <time>2024-09-16T12:29:23Z</time>
      </trkpt>
      <trkpt lat="42.46935" lon="2.22041">
        <ele>2110</ele>
        <time>2024-09-16T12:29:26Z</time>
      </trkpt>
      <trkpt lat="42.46931" lon="2.22044">
        <ele>2110</ele>
        <time>2024-09-16T12:29:29Z</time>
      </trkpt>
      <trkpt lat="42.46929" lon="2.22048">
        <ele>2110</ele>
        <time>2024-09-16T12:29:32Z</time>
      </trkpt>
      <trkpt lat="42.46926" lon="2.22051">
        <ele>2107</ele>
        <time>2024-09-16T12:29:35Z</time>
      </trkpt>
      <trkpt lat="42.46923" lon="2.22054">
        <ele>2107</ele>
        <time>2024-09-16T12:29:38Z</time>
      </trkpt>
      <trkpt lat="42.46921" lon="2.22057">
        <ele>2107</ele>
        <time>2024-09-16T12:29:40Z</time>
      </trkpt>
      <trkpt lat="42.46918" lon="2.22059">
        <ele>2106</ele>
        <time>2024-09-16T12:29:43Z</time>
      </trkpt>
      <trkpt lat="42.46914" lon="2.22062">
        <ele>2106</ele>
        <time>2024-09-16T12:29:46Z</time>
      </trkpt>
      <trkpt lat="42.46912" lon="2.22065">
        <ele>2106</ele>
        <time>2024-09-16T12:29:49Z</time>
      </trkpt>
      <trkpt lat="42.46909" lon="2.22068">
        <ele>2105</ele>
        <time>2024-09-16T12:29:52Z</time>
      </trkpt>
      <trkpt lat="42.46907" lon="2.22071">
        <ele>2104</ele>
        <time>2024-09-16T12:29:55Z</time>
      </trkpt>
      <trkpt lat="42.46904" lon="2.22073">
        <ele>2104</ele>
        <time>2024-09-16T12:29:58Z</time>
      </trkpt>
      <trkpt lat="42.46901" lon="2.22075">
        <ele>2104</ele>
        <time>2024-09-16T12:29:59Z</time>
      </trkpt>
      <trkpt lat="42.46898" lon="2.22077">
        <ele>2104</ele>
        <time>2024-09-16T12:30:02Z</time>
      </trkpt>
      <trkpt lat="42.46895" lon="2.22078">
        <ele>2103</ele>
        <time>2024-09-16T12:30:06Z</time>
      </trkpt>
      <trkpt lat="42.46892" lon="2.22081">
        <ele>2104</ele>
        <time>2024-09-16T12:30:08Z</time>
      </trkpt>
      <trkpt lat="42.46888" lon="2.22083">
        <ele>2102</ele>
        <time>2024-09-16T12:30:13Z</time>
      </trkpt>
      <trkpt lat="42.46885" lon="2.22084">
        <ele>2103</ele>
        <time>2024-09-16T12:30:15Z</time>
      </trkpt>
      <trkpt lat="42.46881" lon="2.22086">
        <ele>2102</ele>
        <time>2024-09-16T12:30:18Z</time>
      </trkpt>
      <trkpt lat="42.46878" lon="2.22087">
        <ele>2100</ele>
        <time>2024-09-16T12:30:21Z</time>
      </trkpt>
      <trkpt lat="42.46875" lon="2.22089">
        <ele>2099</ele>
        <time>2024-09-16T12:30:24Z</time>
      </trkpt>
      <trkpt lat="42.46872" lon="2.22091">
        <ele>2098</ele>
        <time>2024-09-16T12:30:27Z</time>
      </trkpt>
      <trkpt lat="42.46868" lon="2.22092">
        <ele>2097</ele>
        <time>2024-09-16T12:30:30Z</time>
      </trkpt>
      <trkpt lat="42.46864" lon="2.22095">
        <ele>2096</ele>
        <time>2024-09-16T12:30:33Z</time>
      </trkpt>
      <trkpt lat="42.46861" lon="2.22097">
        <ele>2098</ele>
        <time>2024-09-16T12:30:35Z</time>
      </trkpt>
      <trkpt lat="42.46858" lon="2.22099">
        <ele>2097</ele>
        <time>2024-09-16T12:30:39Z</time>
      </trkpt>
      <trkpt lat="42.46855" lon="2.22102">
        <ele>2096</ele>
        <time>2024-09-16T12:30:41Z</time>
      </trkpt>
      <trkpt lat="42.46852" lon="2.22103">
        <ele>2096</ele>
        <time>2024-09-16T12:30:44Z</time>
      </trkpt>
      <trkpt lat="42.46848" lon="2.22104">
        <ele>2096</ele>
        <time>2024-09-16T12:30:47Z</time>
      </trkpt>
      <trkpt lat="42.46845" lon="2.22106">
        <ele>2096</ele>
        <time>2024-09-16T12:30:49Z</time>
      </trkpt>
      <trkpt lat="42.46843" lon="2.22108">
        <ele>2095</ele>
        <time>2024-09-16T12:30:51Z</time>
      </trkpt>
      <trkpt lat="42.4684" lon="2.22109">
        <ele>2096</ele>
        <time>2024-09-16T12:30:53Z</time>
      </trkpt>
      <trkpt lat="42.46836" lon="2.2211">
        <ele>2096</ele>
        <time>2024-09-16T12:30:56Z</time>
      </trkpt>
      <trkpt lat="42.46833" lon="2.22112">
        <ele>2096</ele>
        <time>2024-09-16T12:30:59Z</time>
      </trkpt>
      <trkpt lat="42.46829" lon="2.22113">
        <ele>2096</ele>
        <time>2024-09-16T12:31:02Z</time>
      </trkpt>
      <trkpt lat="42.46826" lon="2.22116">
        <ele>2096</ele>
        <time>2024-09-16T12:31:04Z</time>
      </trkpt>
      <trkpt lat="42.46823" lon="2.22117">
        <ele>2097</ele>
        <time>2024-09-16T12:31:06Z</time>
      </trkpt>
      <trkpt lat="42.46819" lon="2.22118">
        <ele>2096</ele>
        <time>2024-09-16T12:31:09Z</time>
      </trkpt>
      <trkpt lat="42.46816" lon="2.22118">
        <ele>2095</ele>
        <time>2024-09-16T12:31:12Z</time>
      </trkpt>
      <trkpt lat="42.46813" lon="2.22119">
        <ele>2095</ele>
        <time>2024-09-16T12:31:15Z</time>
      </trkpt>
      <trkpt lat="42.4681" lon="2.2212">
        <ele>2094</ele>
        <time>2024-09-16T12:31:18Z</time>
      </trkpt>
      <trkpt lat="42.46806" lon="2.2212">
        <ele>2094</ele>
        <time>2024-09-16T12:31:20Z</time>
      </trkpt>
      <trkpt lat="42.46803" lon="2.22119">
        <ele>2094</ele>
        <time>2024-09-16T12:31:24Z</time>
      </trkpt>
      <trkpt lat="42.46799" lon="2.22119">
        <ele>2092</ele>
        <time>2024-09-16T12:31:28Z</time>
      </trkpt>
      <trkpt lat="42.46796" lon="2.22117">
        <ele>2091</ele>
        <time>2024-09-16T12:31:30Z</time>
      </trkpt>
      <trkpt lat="42.46793" lon="2.22115">
        <ele>2090</ele>
        <time>2024-09-16T12:31:33Z</time>
      </trkpt>
      <trkpt lat="42.4679" lon="2.22112">
        <ele>2088</ele>
        <time>2024-09-16T12:31:36Z</time>
      </trkpt>
      <trkpt lat="42.46787" lon="2.22111">
        <ele>2089</ele>
        <time>2024-09-16T12:31:38Z</time>
      </trkpt>
      <trkpt lat="42.46785" lon="2.22109">
        <ele>2088</ele>
        <time>2024-09-16T12:31:40Z</time>
      </trkpt>
      <trkpt lat="42.46781" lon="2.22108">
        <ele>2086</ele>
        <time>2024-09-16T12:31:43Z</time>
      </trkpt>
      <trkpt lat="42.46779" lon="2.22106">
        <ele>2085</ele>
        <time>2024-09-16T12:31:46Z</time>
      </trkpt>
      <trkpt lat="42.46776" lon="2.22105">
        <ele>2086</ele>
        <time>2024-09-16T12:31:48Z</time>
      </trkpt>
      <trkpt lat="42.46773" lon="2.22103">
        <ele>2084</ele>
        <time>2024-09-16T12:31:51Z</time>
      </trkpt>
      <trkpt lat="42.46771" lon="2.22101">
        <ele>2083</ele>
        <time>2024-09-16T12:31:54Z</time>
      </trkpt>
      <trkpt lat="42.46767" lon="2.22099">
        <ele>2081</ele>
        <time>2024-09-16T12:31:57Z</time>
      </trkpt>
      <trkpt lat="42.46764" lon="2.22098">
        <ele>2080</ele>
        <time>2024-09-16T12:32:00Z</time>
      </trkpt>
      <trkpt lat="42.46761" lon="2.22097">
        <ele>2079</ele>
        <time>2024-09-16T12:32:03Z</time>
      </trkpt>
      <trkpt lat="42.46759" lon="2.22095">
        <ele>2078</ele>
        <time>2024-09-16T12:32:05Z</time>
      </trkpt>
      <trkpt lat="42.46755" lon="2.22094">
        <ele>2078</ele>
        <time>2024-09-16T12:32:08Z</time>
      </trkpt>
      <trkpt lat="42.46752" lon="2.22092">
        <ele>2078</ele>
        <time>2024-09-16T12:32:10Z</time>
      </trkpt>
      <trkpt lat="42.46749" lon="2.22091">
        <ele>2077</ele>
        <time>2024-09-16T12:32:13Z</time>
      </trkpt>
      <trkpt lat="42.46746" lon="2.2209">
        <ele>2076</ele>
        <time>2024-09-16T12:32:16Z</time>
      </trkpt>
      <trkpt lat="42.46743" lon="2.22088">
        <ele>2076</ele>
        <time>2024-09-16T12:32:18Z</time>
      </trkpt>
      <trkpt lat="42.4674" lon="2.22086">
        <ele>2075</ele>
        <time>2024-09-16T12:32:21Z</time>
      </trkpt>
      <trkpt lat="42.46737" lon="2.22084">
        <ele>2074</ele>
        <time>2024-09-16T12:32:24Z</time>
      </trkpt>
      <trkpt lat="42.46734" lon="2.22082">
        <ele>2074</ele>
        <time>2024-09-16T12:32:26Z</time>
      </trkpt>
      <trkpt lat="42.46732" lon="2.22081">
        <ele>2074</ele>
        <time>2024-09-16T12:32:28Z</time>
      </trkpt>
      <trkpt lat="42.46728" lon="2.22081">
        <ele>2074</ele>
        <time>2024-09-16T12:32:31Z</time>
      </trkpt>
      <trkpt lat="42.46726" lon="2.22083">
        <ele>2074</ele>
        <time>2024-09-16T12:32:33Z</time>
      </trkpt>
      <trkpt lat="42.46726" lon="2.22086">
        <ele>2073</ele>
        <time>2024-09-16T12:32:35Z</time>
      </trkpt>
      <trkpt lat="42.46728" lon="2.22088">
        <ele>2071</ele>
        <time>2024-09-16T12:32:37Z</time>
      </trkpt>
      <trkpt lat="42.46731" lon="2.22089">
        <ele>2069</ele>
        <time>2024-09-16T12:32:40Z</time>
      </trkpt>
      <trkpt lat="42.46734" lon="2.22092">
        <ele>2068</ele>
        <time>2024-09-16T12:32:43Z</time>
      </trkpt>
      <trkpt lat="42.46737" lon="2.22095">
        <ele>2068</ele>
        <time>2024-09-16T12:32:46Z</time>
      </trkpt>
      <trkpt lat="42.4674" lon="2.22097">
        <ele>2068</ele>
        <time>2024-09-16T12:32:48Z</time>
      </trkpt>
      <trkpt lat="42.46743" lon="2.221">
        <ele>2067</ele>
        <time>2024-09-16T12:32:51Z</time>
      </trkpt>
      <trkpt lat="42.46745" lon="2.22102">
        <ele>2067</ele>
        <time>2024-09-16T12:32:54Z</time>
      </trkpt>
      <trkpt lat="42.46748" lon="2.22106">
        <ele>2066</ele>
        <time>2024-09-16T12:32:57Z</time>
      </trkpt>
      <trkpt lat="42.4675" lon="2.22109">
        <ele>2066</ele>
        <time>2024-09-16T12:33:00Z</time>
      </trkpt>
      <trkpt lat="42.46753" lon="2.22112">
        <ele>2065</ele>
        <time>2024-09-16T12:33:03Z</time>
      </trkpt>
      <trkpt lat="42.46755" lon="2.22114">
        <ele>2064</ele>
        <time>2024-09-16T12:33:07Z</time>
      </trkpt>
      <trkpt lat="42.46758" lon="2.22117">
        <ele>2062</ele>
        <time>2024-09-16T12:33:10Z</time>
      </trkpt>
      <trkpt lat="42.4676" lon="2.2212">
        <ele>2062</ele>
        <time>2024-09-16T12:33:12Z</time>
      </trkpt>
      <trkpt lat="42.46762" lon="2.22123">
        <ele>2062</ele>
        <time>2024-09-16T12:33:15Z</time>
      </trkpt>
      <trkpt lat="42.46764" lon="2.22126">
        <ele>2063</ele>
        <time>2024-09-16T12:33:18Z</time>
      </trkpt>
      <trkpt lat="42.46765" lon="2.22129">
        <ele>2062</ele>
        <time>2024-09-16T12:33:27Z</time>
      </trkpt>
      <trkpt lat="42.46767" lon="2.22132">
        <ele>2062</ele>
        <time>2024-09-16T12:33:39Z</time>
      </trkpt>
      <trkpt lat="42.46769" lon="2.22135">
        <ele>2062</ele>
        <time>2024-09-16T12:33:41Z</time>
      </trkpt>
      <trkpt lat="42.46773" lon="2.22138">
        <ele>2060</ele>
        <time>2024-09-16T12:33:45Z</time>
      </trkpt>
      <trkpt lat="42.46775" lon="2.22139">
        <ele>2060</ele>
        <time>2024-09-16T12:33:47Z</time>
      </trkpt>
      <trkpt lat="42.46778" lon="2.22141">
        <ele>2059</ele>
        <time>2024-09-16T12:33:49Z</time>
      </trkpt>
      <trkpt lat="42.4678" lon="2.22145">
        <ele>2059</ele>
        <time>2024-09-16T12:33:51Z</time>
      </trkpt>
      <trkpt lat="42.46781" lon="2.22148">
        <ele>2059</ele>
        <time>2024-09-16T12:33:53Z</time>
      </trkpt>
      <trkpt lat="42.46784" lon="2.22151">
        <ele>2058</ele>
        <time>2024-09-16T12:33:56Z</time>
      </trkpt>
      <trkpt lat="42.46787" lon="2.22154">
        <ele>2057</ele>
        <time>2024-09-16T12:34:03Z</time>
      </trkpt>
      <trkpt lat="42.46791" lon="2.22157">
        <ele>2055</ele>
        <time>2024-09-16T12:34:06Z</time>
      </trkpt>
      <trkpt lat="42.46794" lon="2.22159">
        <ele>2055</ele>
        <time>2024-09-16T12:34:09Z</time>
      </trkpt>
      <trkpt lat="42.46797" lon="2.22162">
        <ele>2054</ele>
        <time>2024-09-16T12:34:12Z</time>
      </trkpt>
      <trkpt lat="42.468" lon="2.22164">
        <ele>2053</ele>
        <time>2024-09-16T12:34:15Z</time>
      </trkpt>
      <trkpt lat="42.46803" lon="2.22166">
        <ele>2052</ele>
        <time>2024-09-16T12:34:17Z</time>
      </trkpt>
      <trkpt lat="42.46807" lon="2.22168">
        <ele>2052</ele>
        <time>2024-09-16T12:34:20Z</time>
      </trkpt>
      <trkpt lat="42.4681" lon="2.22169">
        <ele>2051</ele>
        <time>2024-09-16T12:34:22Z</time>
      </trkpt>
      <trkpt lat="42.46813" lon="2.22171">
        <ele>2051</ele>
        <time>2024-09-16T12:34:25Z</time>
      </trkpt>
      <trkpt lat="42.46817" lon="2.22173">
        <ele>2050</ele>
        <time>2024-09-16T12:34:28Z</time>
      </trkpt>
      <trkpt lat="42.4682" lon="2.22174">
        <ele>2049</ele>
        <time>2024-09-16T12:34:31Z</time>
      </trkpt>
      <trkpt lat="42.46824" lon="2.22176">
        <ele>2049</ele>
        <time>2024-09-16T12:34:34Z</time>
      </trkpt>
      <trkpt lat="42.46828" lon="2.22176">
        <ele>2048</ele>
        <time>2024-09-16T12:34:37Z</time>
      </trkpt>
      <trkpt lat="42.46831" lon="2.22177">
        <ele>2046</ele>
        <time>2024-09-16T12:34:40Z</time>
      </trkpt>
      <trkpt lat="42.46833" lon="2.22178">
        <ele>2046</ele>
        <time>2024-09-16T12:34:42Z</time>
      </trkpt>
      <trkpt lat="42.46836" lon="2.22179">
        <ele>2046</ele>
        <time>2024-09-16T12:34:44Z</time>
      </trkpt>
      <trkpt lat="42.46839" lon="2.22181">
        <ele>2046</ele>
        <time>2024-09-16T12:34:48Z</time>
      </trkpt>
      <trkpt lat="42.46842" lon="2.22182">
        <ele>2045</ele>
        <time>2024-09-16T12:34:50Z</time>
      </trkpt>
      <trkpt lat="42.46846" lon="2.22184">
        <ele>2045</ele>
        <time>2024-09-16T12:34:52Z</time>
      </trkpt>
      <trkpt lat="42.46849" lon="2.22184">
        <ele>2046</ele>
        <time>2024-09-16T12:34:54Z</time>
      </trkpt>
      <trkpt lat="42.46852" lon="2.22184">
        <ele>2045</ele>
        <time>2024-09-16T12:35:00Z</time>
      </trkpt>
      <trkpt lat="42.46855" lon="2.22185">
        <ele>2043</ele>
        <time>2024-09-16T12:35:03Z</time>
      </trkpt>
      <trkpt lat="42.46858" lon="2.22186">
        <ele>2043</ele>
        <time>2024-09-16T12:35:06Z</time>
      </trkpt>
      <trkpt lat="42.46861" lon="2.22186">
        <ele>2042</ele>
        <time>2024-09-16T12:35:08Z</time>
      </trkpt>
      <trkpt lat="42.46864" lon="2.22186">
        <ele>2042</ele>
        <time>2024-09-16T12:35:10Z</time>
      </trkpt>
      <trkpt lat="42.46867" lon="2.22186">
        <ele>2042</ele>
        <time>2024-09-16T12:35:13Z</time>
      </trkpt>
      <trkpt lat="42.4687" lon="2.22188">
        <ele>2043</ele>
        <time>2024-09-16T12:35:16Z</time>
      </trkpt>
      <trkpt lat="42.46873" lon="2.22188">
        <ele>2043</ele>
        <time>2024-09-16T12:35:18Z</time>
      </trkpt>
      <trkpt lat="42.46876" lon="2.22189">
        <ele>2042</ele>
        <time>2024-09-16T12:35:21Z</time>
      </trkpt>
      <trkpt lat="42.46879" lon="2.22191">
        <ele>2041</ele>
        <time>2024-09-16T12:35:24Z</time>
      </trkpt>
      <trkpt lat="42.46882" lon="2.22193">
        <ele>2041</ele>
        <time>2024-09-16T12:35:27Z</time>
      </trkpt>
      <trkpt lat="42.46885" lon="2.22195">
        <ele>2040</ele>
        <time>2024-09-16T12:35:31Z</time>
      </trkpt>
      <trkpt lat="42.46888" lon="2.22197">
        <ele>2039</ele>
        <time>2024-09-16T12:35:34Z</time>
      </trkpt>
      <trkpt lat="42.46891" lon="2.22198">
        <ele>2038</ele>
        <time>2024-09-16T12:35:37Z</time>
      </trkpt>
      <trkpt lat="42.46894" lon="2.22199">
        <ele>2038</ele>
        <time>2024-09-16T12:35:41Z</time>
      </trkpt>
      <trkpt lat="42.46897" lon="2.222">
        <ele>2038</ele>
        <time>2024-09-16T12:35:44Z</time>
      </trkpt>
      <trkpt lat="42.469" lon="2.22201">
        <ele>2038</ele>
        <time>2024-09-16T12:35:47Z</time>
      </trkpt>
      <trkpt lat="42.46903" lon="2.22202">
        <ele>2037</ele>
        <time>2024-09-16T12:35:50Z</time>
      </trkpt>
      <trkpt lat="42.46906" lon="2.22203">
        <ele>2035</ele>
        <time>2024-09-16T12:35:57Z</time>
      </trkpt>
      <trkpt lat="42.46909" lon="2.22205">
        <ele>2035</ele>
        <time>2024-09-16T12:35:59Z</time>
      </trkpt>
      <trkpt lat="42.46912" lon="2.22207">
        <ele>2033</ele>
        <time>2024-09-16T12:36:02Z</time>
      </trkpt>
      <trkpt lat="42.46916" lon="2.2221">
        <ele>2033</ele>
        <time>2024-09-16T12:36:05Z</time>
      </trkpt>
      <trkpt lat="42.4692" lon="2.22212">
        <ele>2032</ele>
        <time>2024-09-16T12:36:07Z</time>
      </trkpt>
      <trkpt lat="42.46923" lon="2.22214">
        <ele>2031</ele>
        <time>2024-09-16T12:36:11Z</time>
      </trkpt>
      <trkpt lat="42.46925" lon="2.22216">
        <ele>2031</ele>
        <time>2024-09-16T12:36:12Z</time>
      </trkpt>
      <trkpt lat="42.46927" lon="2.2222">
        <ele>2031</ele>
        <time>2024-09-16T12:36:15Z</time>
      </trkpt>
      <trkpt lat="42.46926" lon="2.22223">
        <ele>2031</ele>
        <time>2024-09-16T12:36:19Z</time>
      </trkpt>
      <trkpt lat="42.46924" lon="2.22225">
        <ele>2030</ele>
        <time>2024-09-16T12:36:21Z</time>
      </trkpt>
      <trkpt lat="42.46921" lon="2.22226">
        <ele>2030</ele>
        <time>2024-09-16T12:36:24Z</time>
      </trkpt>
      <trkpt lat="42.46918" lon="2.22226">
        <ele>2030</ele>
        <time>2024-09-16T12:36:27Z</time>
      </trkpt>
      <trkpt lat="42.46915" lon="2.22225">
        <ele>2029</ele>
        <time>2024-09-16T12:36:30Z</time>
      </trkpt>
      <trkpt lat="42.46912" lon="2.22225">
        <ele>2029</ele>
        <time>2024-09-16T12:36:32Z</time>
      </trkpt>
      <trkpt lat="42.46909" lon="2.22226">
        <ele>2029</ele>
        <time>2024-09-16T12:36:34Z</time>
      </trkpt>
      <trkpt lat="42.46906" lon="2.22227">
        <ele>2029</ele>
        <time>2024-09-16T12:36:36Z</time>
      </trkpt>
      <trkpt lat="42.46902" lon="2.22227">
        <ele>2029</ele>
        <time>2024-09-16T12:36:39Z</time>
      </trkpt>
      <trkpt lat="42.46899" lon="2.22227">
        <ele>2028</ele>
        <time>2024-09-16T12:36:42Z</time>
      </trkpt>
      <trkpt lat="42.46896" lon="2.22229">
        <ele>2029</ele>
        <time>2024-09-16T12:36:45Z</time>
      </trkpt>
      <trkpt lat="42.46892" lon="2.22229">
        <ele>2029</ele>
        <time>2024-09-16T12:36:48Z</time>
      </trkpt>
      <trkpt lat="42.46889" lon="2.22231">
        <ele>2026</ele>
        <time>2024-09-16T12:36:57Z</time>
      </trkpt>
      <trkpt lat="42.46886" lon="2.22231">
        <ele>2026</ele>
        <time>2024-09-16T12:37:00Z</time>
      </trkpt>
      <trkpt lat="42.46882" lon="2.22231">
        <ele>2025</ele>
        <time>2024-09-16T12:37:03Z</time>
      </trkpt>
      <trkpt lat="42.46879" lon="2.22231">
        <ele>2025</ele>
        <time>2024-09-16T12:37:06Z</time>
      </trkpt>
      <trkpt lat="42.46875" lon="2.22232">
        <ele>2025</ele>
        <time>2024-09-16T12:37:09Z</time>
      </trkpt>
      <trkpt lat="42.46872" lon="2.22232">
        <ele>2024</ele>
        <time>2024-09-16T12:37:11Z</time>
      </trkpt>
      <trkpt lat="42.46868" lon="2.22232">
        <ele>2024</ele>
        <time>2024-09-16T12:37:14Z</time>
      </trkpt>
      <trkpt lat="42.46864" lon="2.22233">
        <ele>2024</ele>
        <time>2024-09-16T12:37:17Z</time>
      </trkpt>
      <trkpt lat="42.46861" lon="2.22234">
        <ele>2022</ele>
        <time>2024-09-16T12:37:20Z</time>
      </trkpt>
      <trkpt lat="42.46857" lon="2.22234">
        <ele>2021</ele>
        <time>2024-09-16T12:37:24Z</time>
      </trkpt>
      <trkpt lat="42.46855" lon="2.22235">
        <ele>2022</ele>
        <time>2024-09-16T12:37:26Z</time>
      </trkpt>
      <trkpt lat="42.46851" lon="2.22236">
        <ele>2022</ele>
        <time>2024-09-16T12:37:29Z</time>
      </trkpt>
      <trkpt lat="42.46848" lon="2.22237">
        <ele>2021</ele>
        <time>2024-09-16T12:37:32Z</time>
      </trkpt>
      <trkpt lat="42.46845" lon="2.22238">
        <ele>2020</ele>
        <time>2024-09-16T12:37:35Z</time>
      </trkpt>
      <trkpt lat="42.46842" lon="2.2224">
        <ele>2020</ele>
        <time>2024-09-16T12:37:38Z</time>
      </trkpt>
      <trkpt lat="42.46839" lon="2.22242">
        <ele>2020</ele>
        <time>2024-09-16T12:37:40Z</time>
      </trkpt>
      <trkpt lat="42.46837" lon="2.22242">
        <ele>2019</ele>
        <time>2024-09-16T12:37:42Z</time>
      </trkpt>
      <trkpt lat="42.46833" lon="2.22243">
        <ele>2018</ele>
        <time>2024-09-16T12:37:46Z</time>
      </trkpt>
      <trkpt lat="42.4683" lon="2.22244">
        <ele>2017</ele>
        <time>2024-09-16T12:37:49Z</time>
      </trkpt>
      <trkpt lat="42.46826" lon="2.22245">
        <ele>2016</ele>
        <time>2024-09-16T12:37:52Z</time>
      </trkpt>
      <trkpt lat="42.46823" lon="2.22246">
        <ele>2016</ele>
        <time>2024-09-16T12:37:55Z</time>
      </trkpt>
      <trkpt lat="42.46819" lon="2.22246">
        <ele>2016</ele>
        <time>2024-09-16T12:37:58Z</time>
      </trkpt>
      <trkpt lat="42.46816" lon="2.22246">
        <ele>2016</ele>
        <time>2024-09-16T12:38:00Z</time>
      </trkpt>
      <trkpt lat="42.46813" lon="2.22247">
        <ele>2016</ele>
        <time>2024-09-16T12:38:03Z</time>
      </trkpt>
      <trkpt lat="42.4681" lon="2.22249">
        <ele>2012</ele>
        <time>2024-09-16T12:38:13Z</time>
      </trkpt>
      <trkpt lat="42.46809" lon="2.22252">
        <ele>2011</ele>
        <time>2024-09-16T12:38:15Z</time>
      </trkpt>
      <trkpt lat="42.4681" lon="2.22255">
        <ele>2011</ele>
        <time>2024-09-16T12:38:17Z</time>
      </trkpt>
      <trkpt lat="42.46812" lon="2.22257">
        <ele>2010</ele>
        <time>2024-09-16T12:38:19Z</time>
      </trkpt>
      <trkpt lat="42.46815" lon="2.22259">
        <ele>2010</ele>
        <time>2024-09-16T12:38:22Z</time>
      </trkpt>
      <trkpt lat="42.46818" lon="2.22261">
        <ele>2009</ele>
        <time>2024-09-16T12:38:25Z</time>
      </trkpt>
      <trkpt lat="42.46821" lon="2.22263">
        <ele>2009</ele>
        <time>2024-09-16T12:38:27Z</time>
      </trkpt>
      <trkpt lat="42.46824" lon="2.22264">
        <ele>2007</ele>
        <time>2024-09-16T12:38:30Z</time>
      </trkpt>
      <trkpt lat="42.46828" lon="2.22266">
        <ele>2007</ele>
        <time>2024-09-16T12:38:33Z</time>
      </trkpt>
      <trkpt lat="42.46831" lon="2.22268">
        <ele>2007</ele>
        <time>2024-09-16T12:38:36Z</time>
      </trkpt>
      <trkpt lat="42.46835" lon="2.22269">
        <ele>2005</ele>
        <time>2024-09-16T12:38:39Z</time>
      </trkpt>
      <trkpt lat="42.46838" lon="2.2227">
        <ele>2005</ele>
        <time>2024-09-16T12:38:41Z</time>
      </trkpt>
      <trkpt lat="42.46841" lon="2.22273">
        <ele>2005</ele>
        <time>2024-09-16T12:38:44Z</time>
      </trkpt>
      <trkpt lat="42.46844" lon="2.22275">
        <ele>2004</ele>
        <time>2024-09-16T12:38:47Z</time>
      </trkpt>
      <trkpt lat="42.46847" lon="2.22279">
        <ele>2003</ele>
        <time>2024-09-16T12:38:50Z</time>
      </trkpt>
      <trkpt lat="42.4685" lon="2.22282">
        <ele>2002</ele>
        <time>2024-09-16T12:38:53Z</time>
      </trkpt>
      <trkpt lat="42.46852" lon="2.22285">
        <ele>2002</ele>
        <time>2024-09-16T12:38:55Z</time>
      </trkpt>
      <trkpt lat="42.46854" lon="2.2229">
        <ele>2001</ele>
        <time>2024-09-16T12:38:58Z</time>
      </trkpt>
      <trkpt lat="42.46856" lon="2.22294">
        <ele>2001</ele>
        <time>2024-09-16T12:39:01Z</time>
      </trkpt>
      <trkpt lat="42.46857" lon="2.22298">
        <ele>2001</ele>
        <time>2024-09-16T12:39:03Z</time>
      </trkpt>
      <trkpt lat="42.46859" lon="2.22302">
        <ele>2001</ele>
        <time>2024-09-16T12:39:06Z</time>
      </trkpt>
      <trkpt lat="42.4686" lon="2.22306">
        <ele>2000</ele>
        <time>2024-09-16T12:39:09Z</time>
      </trkpt>
      <trkpt lat="42.46863" lon="2.22311">
        <ele>1999</ele>
        <time>2024-09-16T12:39:12Z</time>
      </trkpt>
      <trkpt lat="42.46865" lon="2.22315">
        <ele>1999</ele>
        <time>2024-09-16T12:39:15Z</time>
      </trkpt>
      <trkpt lat="42.46867" lon="2.22318">
        <ele>1998</ele>
        <time>2024-09-16T12:39:18Z</time>
      </trkpt>
      <trkpt lat="42.46868" lon="2.22322">
        <ele>1998</ele>
        <time>2024-09-16T12:39:21Z</time>
      </trkpt>
      <trkpt lat="42.4687" lon="2.22326">
        <ele>1997</ele>
        <time>2024-09-16T12:39:24Z</time>
      </trkpt>
      <trkpt lat="42.46871" lon="2.22331">
        <ele>1997</ele>
        <time>2024-09-16T12:39:27Z</time>
      </trkpt>
      <trkpt lat="42.46873" lon="2.22335">
        <ele>1996</ele>
        <time>2024-09-16T12:39:30Z</time>
      </trkpt>
      <trkpt lat="42.46874" lon="2.22338">
        <ele>1996</ele>
        <time>2024-09-16T12:39:43Z</time>
      </trkpt>
      <trkpt lat="42.46876" lon="2.22342">
        <ele>1995</ele>
        <time>2024-09-16T12:39:45Z</time>
      </trkpt>
      <trkpt lat="42.46877" lon="2.22345">
        <ele>1995</ele>
        <time>2024-09-16T12:39:48Z</time>
      </trkpt>
      <trkpt lat="42.46878" lon="2.22349">
        <ele>1995</ele>
        <time>2024-09-16T12:39:52Z</time>
      </trkpt>
      <trkpt lat="42.46881" lon="2.22352">
        <ele>1994</ele>
        <time>2024-09-16T12:39:55Z</time>
      </trkpt>
      <trkpt lat="42.46882" lon="2.22356">
        <ele>1994</ele>
        <time>2024-09-16T12:40:03Z</time>
      </trkpt>
      <trkpt lat="42.46884" lon="2.22359">
        <ele>1994</ele>
        <time>2024-09-16T12:40:06Z</time>
      </trkpt>
      <trkpt lat="42.46888" lon="2.22362">
        <ele>1993</ele>
        <time>2024-09-16T12:40:09Z</time>
      </trkpt>
      <trkpt lat="42.4689" lon="2.22364">
        <ele>1993</ele>
        <time>2024-09-16T12:40:12Z</time>
      </trkpt>
      <trkpt lat="42.46893" lon="2.22367">
        <ele>1992</ele>
        <time>2024-09-16T12:40:15Z</time>
      </trkpt>
      <trkpt lat="42.46895" lon="2.2237">
        <ele>1992</ele>
        <time>2024-09-16T12:40:18Z</time>
      </trkpt>
      <trkpt lat="42.46897" lon="2.22374">
        <ele>1991</ele>
        <time>2024-09-16T12:40:21Z</time>
      </trkpt>
      <trkpt lat="42.46899" lon="2.22378">
        <ele>1991</ele>
        <time>2024-09-16T12:40:24Z</time>
      </trkpt>
      <trkpt lat="42.469" lon="2.22381">
        <ele>1991</ele>
        <time>2024-09-16T12:40:25Z</time>
      </trkpt>
      <trkpt lat="42.46901" lon="2.22385">
        <ele>1991</ele>
        <time>2024-09-16T12:40:27Z</time>
      </trkpt>
      <trkpt lat="42.46902" lon="2.22388">
        <ele>1990</ele>
        <time>2024-09-16T12:40:29Z</time>
      </trkpt>
      <trkpt lat="42.46903" lon="2.22392">
        <ele>1990</ele>
        <time>2024-09-16T12:40:32Z</time>
      </trkpt>
      <trkpt lat="42.46905" lon="2.22396">
        <ele>1990</ele>
        <time>2024-09-16T12:40:35Z</time>
      </trkpt>
      <trkpt lat="42.46906" lon="2.22399">
        <ele>1989</ele>
        <time>2024-09-16T12:40:37Z</time>
      </trkpt>
      <trkpt lat="42.46908" lon="2.22404">
        <ele>1990</ele>
        <time>2024-09-16T12:40:40Z</time>
      </trkpt>
      <trkpt lat="42.46909" lon="2.22407">
        <ele>1989</ele>
        <time>2024-09-16T12:40:43Z</time>
      </trkpt>
      <trkpt lat="42.46911" lon="2.22411">
        <ele>1988</ele>
        <time>2024-09-16T12:40:46Z</time>
      </trkpt>
      <trkpt lat="42.46913" lon="2.22414">
        <ele>1988</ele>
        <time>2024-09-16T12:40:49Z</time>
      </trkpt>
      <trkpt lat="42.46915" lon="2.22418">
        <ele>1988</ele>
        <time>2024-09-16T12:40:54Z</time>
      </trkpt>
      <trkpt lat="42.46917" lon="2.22422">
        <ele>1987</ele>
        <time>2024-09-16T12:40:57Z</time>
      </trkpt>
      <trkpt lat="42.46918" lon="2.22426">
        <ele>1987</ele>
        <time>2024-09-16T12:41:00Z</time>
      </trkpt>
      <trkpt lat="42.46918" lon="2.22431">
        <ele>1986</ele>
        <time>2024-09-16T12:41:03Z</time>
      </trkpt>
      <trkpt lat="42.46918" lon="2.22435">
        <ele>1986</ele>
        <time>2024-09-16T12:41:07Z</time>
      </trkpt>
      <trkpt lat="42.46918" lon="2.2244">
        <ele>1985</ele>
        <time>2024-09-16T12:41:10Z</time>
      </trkpt>
      <trkpt lat="42.46918" lon="2.22444">
        <ele>1984</ele>
        <time>2024-09-16T12:41:13Z</time>
      </trkpt>
      <trkpt lat="42.46919" lon="2.22448">
        <ele>1984</ele>
        <time>2024-09-16T12:41:15Z</time>
      </trkpt>
      <trkpt lat="42.4692" lon="2.22452">
        <ele>1984</ele>
        <time>2024-09-16T12:41:18Z</time>
      </trkpt>
      <trkpt lat="42.46921" lon="2.22456">
        <ele>1983</ele>
        <time>2024-09-16T12:41:23Z</time>
      </trkpt>
      <trkpt lat="42.46921" lon="2.2246">
        <ele>1982</ele>
        <time>2024-09-16T12:41:26Z</time>
      </trkpt>
      <trkpt lat="42.46922" lon="2.22464">
        <ele>1982</ele>
        <time>2024-09-16T12:41:28Z</time>
      </trkpt>
      <trkpt lat="42.46923" lon="2.22469">
        <ele>1982</ele>
        <time>2024-09-16T12:41:31Z</time>
      </trkpt>
      <trkpt lat="42.46923" lon="2.22473">
        <ele>1982</ele>
        <time>2024-09-16T12:41:34Z</time>
      </trkpt>
      <trkpt lat="42.46924" lon="2.22478">
        <ele>1981</ele>
        <time>2024-09-16T12:41:37Z</time>
      </trkpt>
      <trkpt lat="42.46924" lon="2.22482">
        <ele>1980</ele>
        <time>2024-09-16T12:41:39Z</time>
      </trkpt>
      <trkpt lat="42.46925" lon="2.22487">
        <ele>1979</ele>
        <time>2024-09-16T12:41:42Z</time>
      </trkpt>
      <trkpt lat="42.46925" lon="2.22492">
        <ele>1979</ele>
        <time>2024-09-16T12:41:48Z</time>
      </trkpt>
      <trkpt lat="42.46926" lon="2.22497">
        <ele>1979</ele>
        <time>2024-09-16T12:41:50Z</time>
      </trkpt>
      <trkpt lat="42.46926" lon="2.22502">
        <ele>1978</ele>
        <time>2024-09-16T12:41:53Z</time>
      </trkpt>
      <trkpt lat="42.46925" lon="2.22506">
        <ele>1977</ele>
        <time>2024-09-16T12:41:57Z</time>
      </trkpt>
      <trkpt lat="42.46924" lon="2.2251">
        <ele>1976</ele>
        <time>2024-09-16T12:42:00Z</time>
      </trkpt>
      <trkpt lat="42.46921" lon="2.22512">
        <ele>1976</ele>
        <time>2024-09-16T12:42:02Z</time>
      </trkpt>
      <trkpt lat="42.46919" lon="2.22511">
        <ele>1975</ele>
        <time>2024-09-16T12:42:07Z</time>
      </trkpt>
      <trkpt lat="42.46917" lon="2.22507">
        <ele>1975</ele>
        <time>2024-09-16T12:42:10Z</time>
      </trkpt>
      <trkpt lat="42.46916" lon="2.22504">
        <ele>1974</ele>
        <time>2024-09-16T12:42:12Z</time>
      </trkpt>
      <trkpt lat="42.46916" lon="2.22499">
        <ele>1973</ele>
        <time>2024-09-16T12:42:15Z</time>
      </trkpt>
      <trkpt lat="42.46916" lon="2.22495">
        <ele>1975</ele>
        <time>2024-09-16T12:42:17Z</time>
      </trkpt>
      <trkpt lat="42.46915" lon="2.22491">
        <ele>1973</ele>
        <time>2024-09-16T12:42:21Z</time>
      </trkpt>
      <trkpt lat="42.46914" lon="2.22487">
        <ele>1973</ele>
        <time>2024-09-16T12:42:23Z</time>
      </trkpt>
      <trkpt lat="42.46912" lon="2.22484">
        <ele>1973</ele>
        <time>2024-09-16T12:42:25Z</time>
      </trkpt>
      <trkpt lat="42.4691" lon="2.22481">
        <ele>1973</ele>
        <time>2024-09-16T12:42:27Z</time>
      </trkpt>
      <trkpt lat="42.46908" lon="2.22478">
        <ele>1974</ele>
        <time>2024-09-16T12:42:29Z</time>
      </trkpt>
      <trkpt lat="42.46905" lon="2.22476">
        <ele>1974</ele>
        <time>2024-09-16T12:42:32Z</time>
      </trkpt>
      <trkpt lat="42.46903" lon="2.22472">
        <ele>1973</ele>
        <time>2024-09-16T12:42:34Z</time>
      </trkpt>
      <trkpt lat="42.46901" lon="2.22468">
        <ele>1972</ele>
        <time>2024-09-16T12:42:37Z</time>
      </trkpt>
      <trkpt lat="42.46899" lon="2.22464">
        <ele>1972</ele>
        <time>2024-09-16T12:42:40Z</time>
      </trkpt>
      <trkpt lat="42.46897" lon="2.2246">
        <ele>1973</ele>
        <time>2024-09-16T12:42:43Z</time>
      </trkpt>
      <trkpt lat="42.46895" lon="2.22457">
        <ele>1972</ele>
        <time>2024-09-16T12:42:45Z</time>
      </trkpt>
      <trkpt lat="42.46893" lon="2.22454">
        <ele>1971</ele>
        <time>2024-09-16T12:42:48Z</time>
      </trkpt>
      <trkpt lat="42.46891" lon="2.2245">
        <ele>1970</ele>
        <time>2024-09-16T12:42:51Z</time>
      </trkpt>
      <trkpt lat="42.46889" lon="2.22446">
        <ele>1970</ele>
        <time>2024-09-16T12:42:54Z</time>
      </trkpt>
      <trkpt lat="42.46887" lon="2.22443">
        <ele>1968</ele>
        <time>2024-09-16T12:42:57Z</time>
      </trkpt>
      <trkpt lat="42.46884" lon="2.2244">
        <ele>1967</ele>
        <time>2024-09-16T12:43:00Z</time>
      </trkpt>
      <trkpt lat="42.4688" lon="2.22438">
        <ele>1967</ele>
        <time>2024-09-16T12:43:03Z</time>
      </trkpt>
      <trkpt lat="42.46877" lon="2.22438">
        <ele>1966</ele>
        <time>2024-09-16T12:43:06Z</time>
      </trkpt>
      <trkpt lat="42.46874" lon="2.22439">
        <ele>1966</ele>
        <time>2024-09-16T12:43:09Z</time>
      </trkpt>
      <trkpt lat="42.46872" lon="2.22441">
        <ele>1966</ele>
        <time>2024-09-16T12:43:20Z</time>
      </trkpt>
      <trkpt lat="42.46871" lon="2.22445">
        <ele>1967</ele>
        <time>2024-09-16T12:43:26Z</time>
      </trkpt>
      <trkpt lat="42.46871" lon="2.22444">
        <ele>1966</ele>
        <time>2024-09-16T12:43:36Z</time>
      </trkpt>
      <trkpt lat="42.46873" lon="2.22445">
        <ele>1968</ele>
        <time>2024-09-16T12:44:05Z</time>
      </trkpt>
      <trkpt lat="42.46871" lon="2.22446">
        <ele>1967</ele>
        <time>2024-09-16T12:44:14Z</time>
      </trkpt>
      <trkpt lat="42.46869" lon="2.22446">
        <ele>1966</ele>
        <time>2024-09-16T12:44:36Z</time>
      </trkpt>
      <trkpt lat="42.46868" lon="2.22443">
        <ele>1964</ele>
        <time>2024-09-16T12:44:40Z</time>
      </trkpt>
      <trkpt lat="42.46867" lon="2.22444">
        <ele>1964</ele>
        <time>2024-09-16T12:45:11Z</time>
      </trkpt>
      <trkpt lat="42.46868" lon="2.22446">
        <ele>1964</ele>
        <time>2024-09-16T12:45:36Z</time>
      </trkpt>
      <trkpt lat="42.46866" lon="2.22446">
        <ele>1956</ele>
        <time>2024-09-16T12:46:47Z</time>
      </trkpt>
      <trkpt lat="42.46864" lon="2.22447">
        <ele>1958</ele>
        <time>2024-09-16T12:46:49Z</time>
      </trkpt>
      <trkpt lat="42.46862" lon="2.22449">
        <ele>1957</ele>
        <time>2024-09-16T12:46:52Z</time>
      </trkpt>
      <trkpt lat="42.46859" lon="2.22451">
        <ele>1956</ele>
        <time>2024-09-16T12:46:55Z</time>
      </trkpt>
      <trkpt lat="42.46856" lon="2.22454">
        <ele>1957</ele>
        <time>2024-09-16T12:46:57Z</time>
      </trkpt>
      <trkpt lat="42.46854" lon="2.22457">
        <ele>1959</ele>
        <time>2024-09-16T12:47:00Z</time>
      </trkpt>
      <trkpt lat="42.46851" lon="2.22459">
        <ele>1959</ele>
        <time>2024-09-16T12:47:02Z</time>
      </trkpt>
      <trkpt lat="42.46848" lon="2.2246">
        <ele>1960</ele>
        <time>2024-09-16T12:47:04Z</time>
      </trkpt>
      <trkpt lat="42.46846" lon="2.22462">
        <ele>1960</ele>
        <time>2024-09-16T12:47:06Z</time>
      </trkpt>
      <trkpt lat="42.46843" lon="2.22465">
        <ele>1961</ele>
        <time>2024-09-16T12:47:09Z</time>
      </trkpt>
      <trkpt lat="42.4684" lon="2.22467">
        <ele>1961</ele>
        <time>2024-09-16T12:47:11Z</time>
      </trkpt>
      <trkpt lat="42.46837" lon="2.22469">
        <ele>1962</ele>
        <time>2024-09-16T12:47:14Z</time>
      </trkpt>
      <trkpt lat="42.46834" lon="2.22469">
        <ele>1961</ele>
        <time>2024-09-16T12:47:17Z</time>
      </trkpt>
      <trkpt lat="42.4683" lon="2.2247">
        <ele>1962</ele>
        <time>2024-09-16T12:47:20Z</time>
      </trkpt>
      <trkpt lat="42.46827" lon="2.2247">
        <ele>1962</ele>
        <time>2024-09-16T12:47:23Z</time>
      </trkpt>
      <trkpt lat="42.46823" lon="2.22468">
        <ele>1962</ele>
        <time>2024-09-16T12:47:26Z</time>
      </trkpt>
      <trkpt lat="42.4682" lon="2.22466">
        <ele>1962</ele>
        <time>2024-09-16T12:47:29Z</time>
      </trkpt>
      <trkpt lat="42.46817" lon="2.22464">
        <ele>1962</ele>
        <time>2024-09-16T12:47:31Z</time>
      </trkpt>
      <trkpt lat="42.46815" lon="2.2246">
        <ele>1961</ele>
        <time>2024-09-16T12:47:34Z</time>
      </trkpt>
      <trkpt lat="42.46814" lon="2.22457">
        <ele>1960</ele>
        <time>2024-09-16T12:47:37Z</time>
      </trkpt>
      <trkpt lat="42.46812" lon="2.22453">
        <ele>1960</ele>
        <time>2024-09-16T12:47:40Z</time>
      </trkpt>
      <trkpt lat="42.46811" lon="2.22448">
        <ele>1959</ele>
        <time>2024-09-16T12:47:43Z</time>
      </trkpt>
      <trkpt lat="42.46809" lon="2.22444">
        <ele>1958</ele>
        <time>2024-09-16T12:47:46Z</time>
      </trkpt>
      <trkpt lat="42.46806" lon="2.2244">
        <ele>1958</ele>
        <time>2024-09-16T12:47:49Z</time>
      </trkpt>
      <trkpt lat="42.46805" lon="2.22436">
        <ele>1957</ele>
        <time>2024-09-16T12:47:52Z</time>
      </trkpt>
      <trkpt lat="42.46803" lon="2.22433">
        <ele>1957</ele>
        <time>2024-09-16T12:47:54Z</time>
      </trkpt>
      <trkpt lat="42.468" lon="2.22429">
        <ele>1957</ele>
        <time>2024-09-16T12:47:57Z</time>
      </trkpt>
      <trkpt lat="42.46797" lon="2.22426">
        <ele>1956</ele>
        <time>2024-09-16T12:48:00Z</time>
      </trkpt>
      <trkpt lat="42.46794" lon="2.22424">
        <ele>1954</ele>
        <time>2024-09-16T12:48:03Z</time>
      </trkpt>
      <trkpt lat="42.46791" lon="2.22422">
        <ele>1953</ele>
        <time>2024-09-16T12:48:06Z</time>
      </trkpt>
      <trkpt lat="42.46788" lon="2.22421">
        <ele>1953</ele>
        <time>2024-09-16T12:48:09Z</time>
      </trkpt>
      <trkpt lat="42.46784" lon="2.22421">
        <ele>1952</ele>
        <time>2024-09-16T12:48:12Z</time>
      </trkpt>
      <trkpt lat="42.46781" lon="2.2242">
        <ele>1952</ele>
        <time>2024-09-16T12:48:15Z</time>
      </trkpt>
      <trkpt lat="42.46778" lon="2.22421">
        <ele>1951</ele>
        <time>2024-09-16T12:48:17Z</time>
      </trkpt>
      <trkpt lat="42.46775" lon="2.22419">
        <ele>1951</ele>
        <time>2024-09-16T12:48:20Z</time>
      </trkpt>
      <trkpt lat="42.46772" lon="2.22418">
        <ele>1950</ele>
        <time>2024-09-16T12:48:23Z</time>
      </trkpt>
      <trkpt lat="42.46768" lon="2.22418">
        <ele>1949</ele>
        <time>2024-09-16T12:48:26Z</time>
      </trkpt>
      <trkpt lat="42.46766" lon="2.22417">
        <ele>1949</ele>
        <time>2024-09-16T12:48:28Z</time>
      </trkpt>
      <trkpt lat="42.46763" lon="2.22415">
        <ele>1949</ele>
        <time>2024-09-16T12:48:31Z</time>
      </trkpt>
      <trkpt lat="42.4676" lon="2.22413">
        <ele>1949</ele>
        <time>2024-09-16T12:48:33Z</time>
      </trkpt>
      <trkpt lat="42.46758" lon="2.2241">
        <ele>1950</ele>
        <time>2024-09-16T12:48:36Z</time>
      </trkpt>
      <trkpt lat="42.46756" lon="2.22407">
        <ele>1949</ele>
        <time>2024-09-16T12:48:38Z</time>
      </trkpt>
      <trkpt lat="42.46754" lon="2.22404">
        <ele>1949</ele>
        <time>2024-09-16T12:48:40Z</time>
      </trkpt>
      <trkpt lat="42.46753" lon="2.22401">
        <ele>1949</ele>
        <time>2024-09-16T12:48:42Z</time>
      </trkpt>
      <trkpt lat="42.46751" lon="2.22397">
        <ele>1948</ele>
        <time>2024-09-16T12:48:46Z</time>
      </trkpt>
      <trkpt lat="42.46748" lon="2.22395">
        <ele>1948</ele>
        <time>2024-09-16T12:48:49Z</time>
      </trkpt>
      <trkpt lat="42.46746" lon="2.22396">
        <ele>1947</ele>
        <time>2024-09-16T12:48:51Z</time>
      </trkpt>
      <trkpt lat="42.46745" lon="2.22399">
        <ele>1946</ele>
        <time>2024-09-16T12:48:54Z</time>
      </trkpt>
      <trkpt lat="42.46747" lon="2.22403">
        <ele>1944</ele>
        <time>2024-09-16T12:48:57Z</time>
      </trkpt>
      <trkpt lat="42.46748" lon="2.22408">
        <ele>1943</ele>
        <time>2024-09-16T12:49:02Z</time>
      </trkpt>
      <trkpt lat="42.46749" lon="2.22412">
        <ele>1941</ele>
        <time>2024-09-16T12:49:05Z</time>
      </trkpt>
      <trkpt lat="42.4675" lon="2.22416">
        <ele>1941</ele>
        <time>2024-09-16T12:49:08Z</time>
      </trkpt>
      <trkpt lat="42.46752" lon="2.22419">
        <ele>1939</ele>
        <time>2024-09-16T12:49:10Z</time>
      </trkpt>
      <trkpt lat="42.46754" lon="2.22422">
        <ele>1939</ele>
        <time>2024-09-16T12:49:13Z</time>
      </trkpt>
      <trkpt lat="42.46757" lon="2.22426">
        <ele>1938</ele>
        <time>2024-09-16T12:49:16Z</time>
      </trkpt>
      <trkpt lat="42.4676" lon="2.2243">
        <ele>1937</ele>
        <time>2024-09-16T12:49:19Z</time>
      </trkpt>
      <trkpt lat="42.46762" lon="2.22433">
        <ele>1937</ele>
        <time>2024-09-16T12:49:22Z</time>
      </trkpt>
      <trkpt lat="42.46765" lon="2.22436">
        <ele>1936</ele>
        <time>2024-09-16T12:49:25Z</time>
      </trkpt>
      <trkpt lat="42.46768" lon="2.22439">
        <ele>1934</ele>
        <time>2024-09-16T12:49:28Z</time>
      </trkpt>
      <trkpt lat="42.46771" lon="2.22441">
        <ele>1933</ele>
        <time>2024-09-16T12:49:31Z</time>
      </trkpt>
      <trkpt lat="42.46774" lon="2.22444">
        <ele>1934</ele>
        <time>2024-09-16T12:49:33Z</time>
      </trkpt>
      <trkpt lat="42.46776" lon="2.22448">
        <ele>1933</ele>
        <time>2024-09-16T12:49:36Z</time>
      </trkpt>
      <trkpt lat="42.46776" lon="2.22451">
        <ele>1933</ele>
        <time>2024-09-16T12:49:38Z</time>
      </trkpt>
      <trkpt lat="42.46777" lon="2.22456">
        <ele>1932</ele>
        <time>2024-09-16T12:49:41Z</time>
      </trkpt>
      <trkpt lat="42.46777" lon="2.2246">
        <ele>1932</ele>
        <time>2024-09-16T12:49:44Z</time>
      </trkpt>
      <trkpt lat="42.46778" lon="2.22465">
        <ele>1932</ele>
        <time>2024-09-16T12:49:47Z</time>
      </trkpt>
      <trkpt lat="42.46778" lon="2.2247">
        <ele>1931</ele>
        <time>2024-09-16T12:49:50Z</time>
      </trkpt>
      <trkpt lat="42.46778" lon="2.22474">
        <ele>1932</ele>
        <time>2024-09-16T12:49:52Z</time>
      </trkpt>
      <trkpt lat="42.46777" lon="2.22479">
        <ele>1932</ele>
        <time>2024-09-16T12:49:55Z</time>
      </trkpt>
      <trkpt lat="42.46776" lon="2.22483">
        <ele>1932</ele>
        <time>2024-09-16T12:49:57Z</time>
      </trkpt>
      <trkpt lat="42.46776" lon="2.22488">
        <ele>1931</ele>
        <time>2024-09-16T12:50:01Z</time>
      </trkpt>
      <trkpt lat="42.46775" lon="2.22493">
        <ele>1931</ele>
        <time>2024-09-16T12:50:04Z</time>
      </trkpt>
      <trkpt lat="42.46775" lon="2.22497">
        <ele>1931</ele>
        <time>2024-09-16T12:50:07Z</time>
      </trkpt>
      <trkpt lat="42.46774" lon="2.22502">
        <ele>1931</ele>
        <time>2024-09-16T12:50:10Z</time>
      </trkpt>
      <trkpt lat="42.46774" lon="2.22507">
        <ele>1930</ele>
        <time>2024-09-16T12:50:13Z</time>
      </trkpt>
      <trkpt lat="42.46774" lon="2.22511">
        <ele>1930</ele>
        <time>2024-09-16T12:50:16Z</time>
      </trkpt>
      <trkpt lat="42.46774" lon="2.22515">
        <ele>1929</ele>
        <time>2024-09-16T12:50:20Z</time>
      </trkpt>
      <trkpt lat="42.46775" lon="2.2252">
        <ele>1929</ele>
        <time>2024-09-16T12:50:23Z</time>
      </trkpt>
      <trkpt lat="42.46776" lon="2.22525">
        <ele>1930</ele>
        <time>2024-09-16T12:50:26Z</time>
      </trkpt>
      <trkpt lat="42.46778" lon="2.22528">
        <ele>1928</ele>
        <time>2024-09-16T12:50:29Z</time>
      </trkpt>
      <trkpt lat="42.4678" lon="2.22531">
        <ele>1927</ele>
        <time>2024-09-16T12:50:32Z</time>
      </trkpt>
      <trkpt lat="42.46783" lon="2.22533">
        <ele>1926</ele>
        <time>2024-09-16T12:50:35Z</time>
      </trkpt>
      <trkpt lat="42.46787" lon="2.22535">
        <ele>1925</ele>
        <time>2024-09-16T12:50:38Z</time>
      </trkpt>
      <trkpt lat="42.4679" lon="2.22537">
        <ele>1923</ele>
        <time>2024-09-16T12:50:41Z</time>
      </trkpt>
      <trkpt lat="42.46793" lon="2.22538">
        <ele>1922</ele>
        <time>2024-09-16T12:50:43Z</time>
      </trkpt>
      <trkpt lat="42.46796" lon="2.22539">
        <ele>1920</ele>
        <time>2024-09-16T12:50:46Z</time>
      </trkpt>
      <trkpt lat="42.46798" lon="2.2254">
        <ele>1920</ele>
        <time>2024-09-16T12:50:49Z</time>
      </trkpt>
      <trkpt lat="42.46801" lon="2.22541">
        <ele>1918</ele>
        <time>2024-09-16T12:50:51Z</time>
      </trkpt>
      <trkpt lat="42.46804" lon="2.22542">
        <ele>1918</ele>
        <time>2024-09-16T12:50:53Z</time>
      </trkpt>
      <trkpt lat="42.46807" lon="2.22542">
        <ele>1917</ele>
        <time>2024-09-16T12:50:54Z</time>
      </trkpt>
      <trkpt lat="42.4681" lon="2.22543">
        <ele>1916</ele>
        <time>2024-09-16T12:50:57Z</time>
      </trkpt>
      <trkpt lat="42.46812" lon="2.22544">
        <ele>1917</ele>
        <time>2024-09-16T12:51:00Z</time>
      </trkpt>
      <trkpt lat="42.46815" lon="2.22546">
        <ele>1916</ele>
        <time>2024-09-16T12:51:02Z</time>
      </trkpt>
      <trkpt lat="42.46818" lon="2.22549">
        <ele>1917</ele>
        <time>2024-09-16T12:51:04Z</time>
      </trkpt>
      <trkpt lat="42.4682" lon="2.22553">
        <ele>1916</ele>
        <time>2024-09-16T12:51:07Z</time>
      </trkpt>
      <trkpt lat="42.46821" lon="2.22556">
        <ele>1916</ele>
        <time>2024-09-16T12:51:09Z</time>
      </trkpt>
      <trkpt lat="42.46822" lon="2.22561">
        <ele>1915</ele>
        <time>2024-09-16T12:51:12Z</time>
      </trkpt>
      <trkpt lat="42.46822" lon="2.22565">
        <ele>1915</ele>
        <time>2024-09-16T12:51:14Z</time>
      </trkpt>
      <trkpt lat="42.46822" lon="2.22569">
        <ele>1914</ele>
        <time>2024-09-16T12:51:17Z</time>
      </trkpt>
      <trkpt lat="42.46821" lon="2.22574">
        <ele>1913</ele>
        <time>2024-09-16T12:51:20Z</time>
      </trkpt>
      <trkpt lat="42.46821" lon="2.22578">
        <ele>1914</ele>
        <time>2024-09-16T12:51:23Z</time>
      </trkpt>
      <trkpt lat="42.4682" lon="2.22582">
        <ele>1914</ele>
        <time>2024-09-16T12:51:25Z</time>
      </trkpt>
      <trkpt lat="42.46819" lon="2.22587">
        <ele>1914</ele>
        <time>2024-09-16T12:51:28Z</time>
      </trkpt>
      <trkpt lat="42.46818" lon="2.22592">
        <ele>1913</ele>
        <time>2024-09-16T12:51:31Z</time>
      </trkpt>
      <trkpt lat="42.46817" lon="2.22597">
        <ele>1913</ele>
        <time>2024-09-16T12:51:34Z</time>
      </trkpt>
      <trkpt lat="42.46816" lon="2.22602">
        <ele>1914</ele>
        <time>2024-09-16T12:51:37Z</time>
      </trkpt>
      <trkpt lat="42.46815" lon="2.22606">
        <ele>1914</ele>
        <time>2024-09-16T12:51:39Z</time>
      </trkpt>
      <trkpt lat="42.46814" lon="2.2261">
        <ele>1913</ele>
        <time>2024-09-16T12:51:41Z</time>
      </trkpt>
      <trkpt lat="42.46813" lon="2.22614">
        <ele>1913</ele>
        <time>2024-09-16T12:51:44Z</time>
      </trkpt>
      <trkpt lat="42.46811" lon="2.22618">
        <ele>1912</ele>
        <time>2024-09-16T12:51:47Z</time>
      </trkpt>
      <trkpt lat="42.4681" lon="2.22622">
        <ele>1912</ele>
        <time>2024-09-16T12:51:49Z</time>
      </trkpt>
      <trkpt lat="42.46809" lon="2.22627">
        <ele>1913</ele>
        <time>2024-09-16T12:51:52Z</time>
      </trkpt>
      <trkpt lat="42.46808" lon="2.2263">
        <ele>1912</ele>
        <time>2024-09-16T12:51:54Z</time>
      </trkpt>
      <trkpt lat="42.46806" lon="2.22634">
        <ele>1911</ele>
        <time>2024-09-16T12:51:57Z</time>
      </trkpt>
      <trkpt lat="42.46804" lon="2.22639">
        <ele>1911</ele>
        <time>2024-09-16T12:52:00Z</time>
      </trkpt>
      <trkpt lat="42.46803" lon="2.22642">
        <ele>1911</ele>
        <time>2024-09-16T12:52:02Z</time>
      </trkpt>
      <trkpt lat="42.46802" lon="2.22647">
        <ele>1910</ele>
        <time>2024-09-16T12:52:06Z</time>
      </trkpt>
      <trkpt lat="42.46801" lon="2.2265">
        <ele>1909</ele>
        <time>2024-09-16T12:52:08Z</time>
      </trkpt>
      <trkpt lat="42.468" lon="2.22655">
        <ele>1909</ele>
        <time>2024-09-16T12:52:12Z</time>
      </trkpt>
      <trkpt lat="42.46799" lon="2.22661">
        <ele>1908</ele>
        <time>2024-09-16T12:52:15Z</time>
      </trkpt>
      <trkpt lat="42.46798" lon="2.22665">
        <ele>1908</ele>
        <time>2024-09-16T12:52:18Z</time>
      </trkpt>
      <trkpt lat="42.46798" lon="2.22669">
        <ele>1907</ele>
        <time>2024-09-16T12:52:20Z</time>
      </trkpt>
      <trkpt lat="42.46798" lon="2.22673">
        <ele>1907</ele>
        <time>2024-09-16T12:52:22Z</time>
      </trkpt>
      <trkpt lat="42.46798" lon="2.22676">
        <ele>1907</ele>
        <time>2024-09-16T12:52:27Z</time>
      </trkpt>
      <trkpt lat="42.46799" lon="2.2268">
        <ele>1905</ele>
        <time>2024-09-16T12:52:29Z</time>
      </trkpt>
      <trkpt lat="42.468" lon="2.22685">
        <ele>1905</ele>
        <time>2024-09-16T12:52:32Z</time>
      </trkpt>
      <trkpt lat="42.46802" lon="2.2269">
        <ele>1903</ele>
        <time>2024-09-16T12:52:35Z</time>
      </trkpt>
      <trkpt lat="42.46803" lon="2.22695">
        <ele>1901</ele>
        <time>2024-09-16T12:52:38Z</time>
      </trkpt>
      <trkpt lat="42.46804" lon="2.22699">
        <ele>1901</ele>
        <time>2024-09-16T12:52:41Z</time>
      </trkpt>
      <trkpt lat="42.46806" lon="2.22703">
        <ele>1901</ele>
        <time>2024-09-16T12:52:43Z</time>
      </trkpt>
      <trkpt lat="42.46808" lon="2.22707">
        <ele>1899</ele>
        <time>2024-09-16T12:52:46Z</time>
      </trkpt>
      <trkpt lat="42.46807" lon="2.2271">
        <ele>1898</ele>
        <time>2024-09-16T12:52:49Z</time>
      </trkpt>
      <trkpt lat="42.46804" lon="2.2271">
        <ele>1899</ele>
        <time>2024-09-16T12:52:52Z</time>
      </trkpt>
      <trkpt lat="42.46801" lon="2.22708">
        <ele>1899</ele>
        <time>2024-09-16T12:52:55Z</time>
      </trkpt>
      <trkpt lat="42.46799" lon="2.22705">
        <ele>1900</ele>
        <time>2024-09-16T12:52:58Z</time>
      </trkpt>
      <trkpt lat="42.46797" lon="2.22702">
        <ele>1900</ele>
        <time>2024-09-16T12:53:00Z</time>
      </trkpt>
      <trkpt lat="42.46795" lon="2.22699">
        <ele>1901</ele>
        <time>2024-09-16T12:53:02Z</time>
      </trkpt>
      <trkpt lat="42.46792" lon="2.22696">
        <ele>1902</ele>
        <time>2024-09-16T12:53:05Z</time>
      </trkpt>
      <trkpt lat="42.4679" lon="2.22692">
        <ele>1901</ele>
        <time>2024-09-16T12:53:14Z</time>
      </trkpt>
      <trkpt lat="42.46787" lon="2.22688">
        <ele>1901</ele>
        <time>2024-09-16T12:53:17Z</time>
      </trkpt>
      <trkpt lat="42.46785" lon="2.22683">
        <ele>1900</ele>
        <time>2024-09-16T12:53:20Z</time>
      </trkpt>
      <trkpt lat="42.46783" lon="2.22679">
        <ele>1899</ele>
        <time>2024-09-16T12:53:23Z</time>
      </trkpt>
      <trkpt lat="42.46781" lon="2.22674">
        <ele>1898</ele>
        <time>2024-09-16T12:53:27Z</time>
      </trkpt>
      <trkpt lat="42.4678" lon="2.2267">
        <ele>1897</ele>
        <time>2024-09-16T12:53:29Z</time>
      </trkpt>
      <trkpt lat="42.46779" lon="2.22666">
        <ele>1896</ele>
        <time>2024-09-16T12:53:32Z</time>
      </trkpt>
      <trkpt lat="42.46778" lon="2.2266">
        <ele>1895</ele>
        <time>2024-09-16T12:53:35Z</time>
      </trkpt>
      <trkpt lat="42.46778" lon="2.22656">
        <ele>1894</ele>
        <time>2024-09-16T12:53:38Z</time>
      </trkpt>
      <trkpt lat="42.46777" lon="2.22652">
        <ele>1892</ele>
        <time>2024-09-16T12:53:41Z</time>
      </trkpt>
      <trkpt lat="42.46777" lon="2.22647">
        <ele>1892</ele>
        <time>2024-09-16T12:53:43Z</time>
      </trkpt>
      <trkpt lat="42.46776" lon="2.22643">
        <ele>1892</ele>
        <time>2024-09-16T12:53:45Z</time>
      </trkpt>
      <trkpt lat="42.46775" lon="2.22639">
        <ele>1890</ele>
        <time>2024-09-16T12:53:50Z</time>
      </trkpt>
      <trkpt lat="42.46773" lon="2.22636">
        <ele>1889</ele>
        <time>2024-09-16T12:53:53Z</time>
      </trkpt>
      <trkpt lat="42.46771" lon="2.22632">
        <ele>1889</ele>
        <time>2024-09-16T12:53:55Z</time>
      </trkpt>
      <trkpt lat="42.46768" lon="2.22629">
        <ele>1887</ele>
        <time>2024-09-16T12:53:58Z</time>
      </trkpt>
      <trkpt lat="42.46765" lon="2.22626">
        <ele>1886</ele>
        <time>2024-09-16T12:54:01Z</time>
      </trkpt>
      <trkpt lat="42.46763" lon="2.22623">
        <ele>1885</ele>
        <time>2024-09-16T12:54:03Z</time>
      </trkpt>
      <trkpt lat="42.4676" lon="2.22621">
        <ele>1884</ele>
        <time>2024-09-16T12:54:06Z</time>
      </trkpt>
      <trkpt lat="42.46756" lon="2.22619">
        <ele>1884</ele>
        <time>2024-09-16T12:54:09Z</time>
      </trkpt>
      <trkpt lat="42.46753" lon="2.22618">
        <ele>1884</ele>
        <time>2024-09-16T12:54:11Z</time>
      </trkpt>
      <trkpt lat="42.4675" lon="2.22616">
        <ele>1882</ele>
        <time>2024-09-16T12:54:14Z</time>
      </trkpt>
      <trkpt lat="42.46747" lon="2.22616">
        <ele>1883</ele>
        <time>2024-09-16T12:54:16Z</time>
      </trkpt>
      <trkpt lat="42.46745" lon="2.22615">
        <ele>1882</ele>
        <time>2024-09-16T12:54:18Z</time>
      </trkpt>
      <trkpt lat="42.46742" lon="2.22615">
        <ele>1882</ele>
        <time>2024-09-16T12:54:21Z</time>
      </trkpt>
      <trkpt lat="42.46739" lon="2.22613">
        <ele>1880</ele>
        <time>2024-09-16T12:54:24Z</time>
      </trkpt>
      <trkpt lat="42.46736" lon="2.22611">
        <ele>1880</ele>
        <time>2024-09-16T12:54:26Z</time>
      </trkpt>
      <trkpt lat="42.46733" lon="2.22609">
        <ele>1878</ele>
        <time>2024-09-16T12:54:29Z</time>
      </trkpt>
      <trkpt lat="42.4673" lon="2.22606">
        <ele>1877</ele>
        <time>2024-09-16T12:54:35Z</time>
      </trkpt>
      <trkpt lat="42.46728" lon="2.22604">
        <ele>1877</ele>
        <time>2024-09-16T12:54:37Z</time>
      </trkpt>
      <trkpt lat="42.46726" lon="2.226">
        <ele>1875</ele>
        <time>2024-09-16T12:54:40Z</time>
      </trkpt>
      <trkpt lat="42.46723" lon="2.22596">
        <ele>1875</ele>
        <time>2024-09-16T12:54:43Z</time>
      </trkpt>
      <trkpt lat="42.46722" lon="2.22593">
        <ele>1874</ele>
        <time>2024-09-16T12:54:46Z</time>
      </trkpt>
      <trkpt lat="42.46719" lon="2.22589">
        <ele>1875</ele>
        <time>2024-09-16T12:54:49Z</time>
      </trkpt>
      <trkpt lat="42.46717" lon="2.22585">
        <ele>1874</ele>
        <time>2024-09-16T12:54:52Z</time>
      </trkpt>
      <trkpt lat="42.46715" lon="2.22581">
        <ele>1874</ele>
        <time>2024-09-16T12:54:55Z</time>
      </trkpt>
      <trkpt lat="42.46713" lon="2.22577">
        <ele>1873</ele>
        <time>2024-09-16T12:54:58Z</time>
      </trkpt>
      <trkpt lat="42.4671" lon="2.22574">
        <ele>1873</ele>
        <time>2024-09-16T12:55:01Z</time>
      </trkpt>
      <trkpt lat="42.46708" lon="2.22571">
        <ele>1873</ele>
        <time>2024-09-16T12:55:03Z</time>
      </trkpt>
      <trkpt lat="42.46706" lon="2.22567">
        <ele>1872</ele>
        <time>2024-09-16T12:55:06Z</time>
      </trkpt>
      <trkpt lat="42.46704" lon="2.22564">
        <ele>1872</ele>
        <time>2024-09-16T12:55:08Z</time>
      </trkpt>
      <trkpt lat="42.46701" lon="2.22561">
        <ele>1871</ele>
        <time>2024-09-16T12:55:11Z</time>
      </trkpt>
      <trkpt lat="42.46699" lon="2.22558">
        <ele>1870</ele>
        <time>2024-09-16T12:55:14Z</time>
      </trkpt>
      <trkpt lat="42.46696" lon="2.22556">
        <ele>1871</ele>
        <time>2024-09-16T12:55:18Z</time>
      </trkpt>
      <trkpt lat="42.46694" lon="2.22553">
        <ele>1871</ele>
        <time>2024-09-16T12:55:21Z</time>
      </trkpt>
      <trkpt lat="42.46691" lon="2.2255">
        <ele>1870</ele>
        <time>2024-09-16T12:55:24Z</time>
      </trkpt>
      <trkpt lat="42.46688" lon="2.22549">
        <ele>1870</ele>
        <time>2024-09-16T12:55:26Z</time>
      </trkpt>
      <trkpt lat="42.46685" lon="2.22548">
        <ele>1870</ele>
        <time>2024-09-16T12:55:28Z</time>
      </trkpt>
      <trkpt lat="42.46682" lon="2.22547">
        <ele>1869</ele>
        <time>2024-09-16T12:55:30Z</time>
      </trkpt>
      <trkpt lat="42.46679" lon="2.22546">
        <ele>1868</ele>
        <time>2024-09-16T12:55:33Z</time>
      </trkpt>
      <trkpt lat="42.46676" lon="2.22544">
        <ele>1868</ele>
        <time>2024-09-16T12:55:36Z</time>
      </trkpt>
      <trkpt lat="42.46673" lon="2.22543">
        <ele>1868</ele>
        <time>2024-09-16T12:55:39Z</time>
      </trkpt>
      <trkpt lat="42.46669" lon="2.22542">
        <ele>1867</ele>
        <time>2024-09-16T12:55:42Z</time>
      </trkpt>
      <trkpt lat="42.46666" lon="2.22539">
        <ele>1866</ele>
        <time>2024-09-16T12:55:45Z</time>
      </trkpt>
      <trkpt lat="42.46664" lon="2.22536">
        <ele>1866</ele>
        <time>2024-09-16T12:55:47Z</time>
      </trkpt>
      <trkpt lat="42.46662" lon="2.22532">
        <ele>1865</ele>
        <time>2024-09-16T12:55:50Z</time>
      </trkpt>
      <trkpt lat="42.46661" lon="2.22528">
        <ele>1864</ele>
        <time>2024-09-16T12:55:53Z</time>
      </trkpt>
      <trkpt lat="42.46659" lon="2.22525">
        <ele>1862</ele>
        <time>2024-09-16T12:55:57Z</time>
      </trkpt>
      <trkpt lat="42.46657" lon="2.22521">
        <ele>1862</ele>
        <time>2024-09-16T12:56:00Z</time>
      </trkpt>
      <trkpt lat="42.46655" lon="2.22517">
        <ele>1861</ele>
        <time>2024-09-16T12:56:03Z</time>
      </trkpt>
      <trkpt lat="42.46653" lon="2.22514">
        <ele>1861</ele>
        <time>2024-09-16T12:56:05Z</time>
      </trkpt>
      <trkpt lat="42.4665" lon="2.22511">
        <ele>1861</ele>
        <time>2024-09-16T12:56:08Z</time>
      </trkpt>
      <trkpt lat="42.46649" lon="2.22508">
        <ele>1861</ele>
        <time>2024-09-16T12:56:21Z</time>
      </trkpt>
      <trkpt lat="42.46647" lon="2.22509">
        <ele>1858</ele>
        <time>2024-09-16T12:56:48Z</time>
      </trkpt>
      <trkpt lat="42.46643" lon="2.22508">
        <ele>1858</ele>
        <time>2024-09-16T12:56:50Z</time>
      </trkpt>
      <trkpt lat="42.4664" lon="2.22507">
        <ele>1857</ele>
        <time>2024-09-16T12:56:52Z</time>
      </trkpt>
      <trkpt lat="42.46637" lon="2.22505">
        <ele>1856</ele>
        <time>2024-09-16T12:56:55Z</time>
      </trkpt>
      <trkpt lat="42.46634" lon="2.22503">
        <ele>1856</ele>
        <time>2024-09-16T12:56:57Z</time>
      </trkpt>
      <trkpt lat="42.46631" lon="2.22502">
        <ele>1856</ele>
        <time>2024-09-16T12:56:59Z</time>
      </trkpt>
      <trkpt lat="42.46628" lon="2.22499">
        <ele>1855</ele>
        <time>2024-09-16T12:57:02Z</time>
      </trkpt>
      <trkpt lat="42.46626" lon="2.22497">
        <ele>1854</ele>
        <time>2024-09-16T12:57:05Z</time>
      </trkpt>
      <trkpt lat="42.46623" lon="2.22495">
        <ele>1854</ele>
        <time>2024-09-16T12:57:07Z</time>
      </trkpt>
      <trkpt lat="42.4662" lon="2.22493">
        <ele>1854</ele>
        <time>2024-09-16T12:57:09Z</time>
      </trkpt>
      <trkpt lat="42.46617" lon="2.22492">
        <ele>1853</ele>
        <time>2024-09-16T12:57:10Z</time>
      </trkpt>
      <trkpt lat="42.46614" lon="2.22492">
        <ele>1853</ele>
        <time>2024-09-16T12:57:12Z</time>
      </trkpt>
      <trkpt lat="42.46611" lon="2.22492">
        <ele>1851</ele>
        <time>2024-09-16T12:57:14Z</time>
      </trkpt>
      <trkpt lat="42.46609" lon="2.2249">
        <ele>1851</ele>
        <time>2024-09-16T12:57:16Z</time>
      </trkpt>
      <trkpt lat="42.46607" lon="2.22487">
        <ele>1851</ele>
        <time>2024-09-16T12:57:18Z</time>
      </trkpt>
      <trkpt lat="42.46604" lon="2.22484">
        <ele>1851</ele>
        <time>2024-09-16T12:57:21Z</time>
      </trkpt>
      <trkpt lat="42.46601" lon="2.22481">
        <ele>1851</ele>
        <time>2024-09-16T12:57:23Z</time>
      </trkpt>
      <trkpt lat="42.466" lon="2.22478">
        <ele>1850</ele>
        <time>2024-09-16T12:57:25Z</time>
      </trkpt>
      <trkpt lat="42.46597" lon="2.22475">
        <ele>1850</ele>
        <time>2024-09-16T12:57:27Z</time>
      </trkpt>
      <trkpt lat="42.46595" lon="2.22473">
        <ele>1850</ele>
        <time>2024-09-16T12:57:29Z</time>
      </trkpt>
      <trkpt lat="42.46592" lon="2.22473">
        <ele>1848</ele>
        <time>2024-09-16T12:57:32Z</time>
      </trkpt>
      <trkpt lat="42.46589" lon="2.22473">
        <ele>1848</ele>
        <time>2024-09-16T12:57:34Z</time>
      </trkpt>
      <trkpt lat="42.46586" lon="2.22474">
        <ele>1848</ele>
        <time>2024-09-16T12:57:36Z</time>
      </trkpt>
      <trkpt lat="42.46584" lon="2.22477">
        <ele>1847</ele>
        <time>2024-09-16T12:57:38Z</time>
      </trkpt>
      <trkpt lat="42.46583" lon="2.2248">
        <ele>1847</ele>
        <time>2024-09-16T12:57:40Z</time>
      </trkpt>
      <trkpt lat="42.46584" lon="2.22484">
        <ele>1847</ele>
        <time>2024-09-16T12:57:42Z</time>
      </trkpt>
      <trkpt lat="42.46585" lon="2.22488">
        <ele>1846</ele>
        <time>2024-09-16T12:57:44Z</time>
      </trkpt>
      <trkpt lat="42.46586" lon="2.22491">
        <ele>1846</ele>
        <time>2024-09-16T12:57:46Z</time>
      </trkpt>
      <trkpt lat="42.46586" lon="2.22495">
        <ele>1845</ele>
        <time>2024-09-16T12:57:48Z</time>
      </trkpt>
      <trkpt lat="42.46585" lon="2.22499">
        <ele>1845</ele>
        <time>2024-09-16T12:57:50Z</time>
      </trkpt>
      <trkpt lat="42.46584" lon="2.22502">
        <ele>1845</ele>
        <time>2024-09-16T12:57:52Z</time>
      </trkpt>
      <trkpt lat="42.46582" lon="2.22505">
        <ele>1845</ele>
        <time>2024-09-16T12:57:54Z</time>
      </trkpt>
      <trkpt lat="42.4658" lon="2.22507">
        <ele>1845</ele>
        <time>2024-09-16T12:57:56Z</time>
      </trkpt>
      <trkpt lat="42.46577" lon="2.22508">
        <ele>1844</ele>
        <time>2024-09-16T12:57:58Z</time>
      </trkpt>
      <trkpt lat="42.46574" lon="2.22507">
        <ele>1844</ele>
        <time>2024-09-16T12:58:00Z</time>
      </trkpt>
      <trkpt lat="42.46572" lon="2.22505">
        <ele>1844</ele>
        <time>2024-09-16T12:58:02Z</time>
      </trkpt>
      <trkpt lat="42.46569" lon="2.22503">
        <ele>1844</ele>
        <time>2024-09-16T12:58:04Z</time>
      </trkpt>
      <trkpt lat="42.46567" lon="2.22502">
        <ele>1843</ele>
        <time>2024-09-16T12:58:06Z</time>
      </trkpt>
      <trkpt lat="42.46564" lon="2.225">
        <ele>1843</ele>
        <time>2024-09-16T12:58:08Z</time>
      </trkpt>
      <trkpt lat="42.46561" lon="2.22499">
        <ele>1842</ele>
        <time>2024-09-16T12:58:10Z</time>
      </trkpt>
      <trkpt lat="42.46559" lon="2.22497">
        <ele>1842</ele>
        <time>2024-09-16T12:58:12Z</time>
      </trkpt>
      <trkpt lat="42.46556" lon="2.22495">
        <ele>1841</ele>
        <time>2024-09-16T12:58:14Z</time>
      </trkpt>
      <trkpt lat="42.46554" lon="2.22493">
        <ele>1841</ele>
        <time>2024-09-16T12:58:16Z</time>
      </trkpt>
      <trkpt lat="42.46552" lon="2.2249">
        <ele>1841</ele>
        <time>2024-09-16T12:58:18Z</time>
      </trkpt>
      <trkpt lat="42.46549" lon="2.22488">
        <ele>1841</ele>
        <time>2024-09-16T12:58:20Z</time>
      </trkpt>
      <trkpt lat="42.46546" lon="2.22486">
        <ele>1840</ele>
        <time>2024-09-16T12:58:23Z</time>
      </trkpt>
      <trkpt lat="42.46544" lon="2.22483">
        <ele>1839</ele>
        <time>2024-09-16T12:58:25Z</time>
      </trkpt>
      <trkpt lat="42.46542" lon="2.22481">
        <ele>1839</ele>
        <time>2024-09-16T12:58:27Z</time>
      </trkpt>
      <trkpt lat="42.46539" lon="2.22477">
        <ele>1839</ele>
        <time>2024-09-16T12:58:30Z</time>
      </trkpt>
      <trkpt lat="42.46537" lon="2.22475">
        <ele>1839</ele>
        <time>2024-09-16T12:58:32Z</time>
      </trkpt>
      <trkpt lat="42.46534" lon="2.22472">
        <ele>1838</ele>
        <time>2024-09-16T12:58:35Z</time>
      </trkpt>
      <trkpt lat="42.4653" lon="2.2247">
        <ele>1836</ele>
        <time>2024-09-16T12:58:38Z</time>
      </trkpt>
      <trkpt lat="42.46528" lon="2.22466">
        <ele>1837</ele>
        <time>2024-09-16T12:58:41Z</time>
      </trkpt>
      <trkpt lat="42.46525" lon="2.22463">
        <ele>1838</ele>
        <time>2024-09-16T12:58:45Z</time>
      </trkpt>
      <trkpt lat="42.46522" lon="2.2246">
        <ele>1838</ele>
        <time>2024-09-16T12:58:48Z</time>
      </trkpt>
      <trkpt lat="42.46519" lon="2.22457">
        <ele>1839</ele>
        <time>2024-09-16T12:58:51Z</time>
      </trkpt>
      <trkpt lat="42.46517" lon="2.22454">
        <ele>1838</ele>
        <time>2024-09-16T12:58:54Z</time>
      </trkpt>
      <trkpt lat="42.46514" lon="2.22452">
        <ele>1837</ele>
        <time>2024-09-16T12:58:57Z</time>
      </trkpt>
      <trkpt lat="42.46512" lon="2.22448">
        <ele>1836</ele>
        <time>2024-09-16T12:59:00Z</time>
      </trkpt>
      <trkpt lat="42.46509" lon="2.22445">
        <ele>1836</ele>
        <time>2024-09-16T12:59:03Z</time>
      </trkpt>
      <trkpt lat="42.46507" lon="2.22442">
        <ele>1836</ele>
        <time>2024-09-16T12:59:06Z</time>
      </trkpt>
      <trkpt lat="42.46504" lon="2.22438">
        <ele>1838</ele>
        <time>2024-09-16T12:59:11Z</time>
      </trkpt>
      <trkpt lat="42.46503" lon="2.22434">
        <ele>1837</ele>
        <time>2024-09-16T12:59:13Z</time>
      </trkpt>
      <trkpt lat="42.46502" lon="2.2243">
        <ele>1839</ele>
        <time>2024-09-16T12:59:15Z</time>
      </trkpt>
      <trkpt lat="42.46501" lon="2.22426">
        <ele>1838</ele>
        <time>2024-09-16T12:59:17Z</time>
      </trkpt>
      <trkpt lat="42.465" lon="2.22422">
        <ele>1838</ele>
        <time>2024-09-16T12:59:20Z</time>
      </trkpt>
      <trkpt lat="42.46498" lon="2.22419">
        <ele>1838</ele>
        <time>2024-09-16T12:59:22Z</time>
      </trkpt>
      <trkpt lat="42.46497" lon="2.22415">
        <ele>1837</ele>
        <time>2024-09-16T12:59:24Z</time>
      </trkpt>
      <trkpt lat="42.46495" lon="2.22411">
        <ele>1837</ele>
        <time>2024-09-16T12:59:27Z</time>
      </trkpt>
      <trkpt lat="42.46493" lon="2.22408">
        <ele>1837</ele>
        <time>2024-09-16T12:59:29Z</time>
      </trkpt>
      <trkpt lat="42.46491" lon="2.22405">
        <ele>1837</ele>
        <time>2024-09-16T12:59:32Z</time>
      </trkpt>
      <trkpt lat="42.46489" lon="2.22402">
        <ele>1837</ele>
        <time>2024-09-16T12:59:34Z</time>
      </trkpt>
      <trkpt lat="42.46487" lon="2.22399">
        <ele>1838</ele>
        <time>2024-09-16T12:59:37Z</time>
      </trkpt>
      <trkpt lat="42.46485" lon="2.22396">
        <ele>1837</ele>
        <time>2024-09-16T12:59:40Z</time>
      </trkpt>
      <trkpt lat="42.46482" lon="2.22394">
        <ele>1838</ele>
        <time>2024-09-16T12:59:43Z</time>
      </trkpt>
      <trkpt lat="42.46479" lon="2.22392">
        <ele>1839</ele>
        <time>2024-09-16T12:59:46Z</time>
      </trkpt>
      <trkpt lat="42.46477" lon="2.2239">
        <ele>1839</ele>
        <time>2024-09-16T12:59:49Z</time>
      </trkpt>
      <trkpt lat="42.46473" lon="2.22388">
        <ele>1839</ele>
        <time>2024-09-16T12:59:52Z</time>
      </trkpt>
      <trkpt lat="42.4647" lon="2.22387">
        <ele>1840</ele>
        <time>2024-09-16T12:59:56Z</time>
      </trkpt>
      <trkpt lat="42.46466" lon="2.22385">
        <ele>1839</ele>
        <time>2024-09-16T12:59:59Z</time>
      </trkpt>
      <trkpt lat="42.46463" lon="2.22385">
        <ele>1840</ele>
        <time>2024-09-16T13:00:02Z</time>
      </trkpt>
      <trkpt lat="42.46461" lon="2.22386">
        <ele>1841</ele>
        <time>2024-09-16T13:00:05Z</time>
      </trkpt>
      <trkpt lat="42.46458" lon="2.22387">
        <ele>1841</ele>
        <time>2024-09-16T13:00:09Z</time>
      </trkpt>
      <trkpt lat="42.46455" lon="2.2239">
        <ele>1843</ele>
        <time>2024-09-16T13:00:12Z</time>
      </trkpt>
      <trkpt lat="42.46453" lon="2.22393">
        <ele>1842</ele>
        <time>2024-09-16T13:00:14Z</time>
      </trkpt>
      <trkpt lat="42.46451" lon="2.22395">
        <ele>1842</ele>
        <time>2024-09-16T13:00:17Z</time>
      </trkpt>
      <trkpt lat="42.46448" lon="2.22396">
        <ele>1842</ele>
        <time>2024-09-16T13:00:19Z</time>
      </trkpt>
      <trkpt lat="42.46446" lon="2.22394">
        <ele>1842</ele>
        <time>2024-09-16T13:00:22Z</time>
      </trkpt>
      <trkpt lat="42.46444" lon="2.22391">
        <ele>1843</ele>
        <time>2024-09-16T13:00:26Z</time>
      </trkpt>
      <trkpt lat="42.46443" lon="2.22387">
        <ele>1844</ele>
        <time>2024-09-16T13:00:32Z</time>
      </trkpt>
      <trkpt lat="42.46441" lon="2.22385">
        <ele>1844</ele>
        <time>2024-09-16T13:00:37Z</time>
      </trkpt>
      <trkpt lat="42.4644" lon="2.22382">
        <ele>1841</ele>
        <time>2024-09-16T13:00:51Z</time>
      </trkpt>
      <trkpt lat="42.4644" lon="2.2238">
        <ele>1841</ele>
        <time>2024-09-16T13:00:51Z</time>
      </trkpt>
      <trkpt lat="42.46438" lon="2.22383">
        <ele>1825</ele>
        <time>2024-09-17T06:23:30Z</time>
      </trkpt>
      <trkpt lat="42.46431" lon="2.22378">
        <ele>1870</ele>
        <time>2024-09-17T06:30:44Z</time>
      </trkpt>
      <trkpt lat="42.46435" lon="2.22391">
        <ele>1812</ele>
        <time>2024-09-17T06:30:45Z</time>
      </trkpt>
      <trkpt lat="42.46438" lon="2.22392">
        <ele>1811</ele>
        <time>2024-09-17T06:30:46Z</time>
      </trkpt>
      <trkpt lat="42.46434" lon="2.2238">
        <ele>1831</ele>
        <time>2024-09-17T06:30:48Z</time>
      </trkpt>
      <trkpt lat="42.46433" lon="2.22372">
        <ele>1827</ele>
        <time>2024-09-17T06:30:51Z</time>
      </trkpt>
      <trkpt lat="42.46432" lon="2.22367">
        <ele>1825</ele>
        <time>2024-09-17T06:30:53Z</time>
      </trkpt>
      <trkpt lat="42.46431" lon="2.22362">
        <ele>1829</ele>
        <time>2024-09-17T06:30:56Z</time>
      </trkpt>
      <trkpt lat="42.46429" lon="2.22358">
        <ele>1830</ele>
        <time>2024-09-17T06:30:59Z</time>
      </trkpt>
      <trkpt lat="42.46428" lon="2.22354">
        <ele>1832</ele>
        <time>2024-09-17T06:31:02Z</time>
      </trkpt>
      <trkpt lat="42.46426" lon="2.22349">
        <ele>1832</ele>
        <time>2024-09-17T06:31:05Z</time>
      </trkpt>
      <trkpt lat="42.46424" lon="2.22345">
        <ele>1833</ele>
        <time>2024-09-17T06:31:08Z</time>
      </trkpt>
      <trkpt lat="42.46423" lon="2.22342">
        <ele>1833</ele>
        <time>2024-09-17T06:31:11Z</time>
      </trkpt>
      <trkpt lat="42.46421" lon="2.22338">
        <ele>1833</ele>
        <time>2024-09-17T06:31:14Z</time>
      </trkpt>
      <trkpt lat="42.46419" lon="2.22335">
        <ele>1831</ele>
        <time>2024-09-17T06:31:16Z</time>
      </trkpt>
      <trkpt lat="42.46417" lon="2.22331">
        <ele>1832</ele>
        <time>2024-09-17T06:31:19Z</time>
      </trkpt>
      <trkpt lat="42.46414" lon="2.22328">
        <ele>1831</ele>
        <time>2024-09-17T06:31:23Z</time>
      </trkpt>
      <trkpt lat="42.46412" lon="2.22325">
        <ele>1833</ele>
        <time>2024-09-17T06:31:25Z</time>
      </trkpt>
      <trkpt lat="42.46409" lon="2.22322">
        <ele>1834</ele>
        <time>2024-09-17T06:31:30Z</time>
      </trkpt>
      <trkpt lat="42.46406" lon="2.22318">
        <ele>1835</ele>
        <time>2024-09-17T06:31:33Z</time>
      </trkpt>
      <trkpt lat="42.46405" lon="2.22314">
        <ele>1835</ele>
        <time>2024-09-17T06:31:37Z</time>
      </trkpt>
      <trkpt lat="42.46404" lon="2.22315">
        <ele>1833</ele>
        <time>2024-09-17T06:31:48Z</time>
      </trkpt>
      <trkpt lat="42.46403" lon="2.22318">
        <ele>1830</ele>
        <time>2024-09-17T06:31:51Z</time>
      </trkpt>
      <trkpt lat="42.46401" lon="2.2232">
        <ele>1831</ele>
        <time>2024-09-17T06:32:03Z</time>
      </trkpt>
      <trkpt lat="42.46398" lon="2.22322">
        <ele>1831</ele>
        <time>2024-09-17T06:32:05Z</time>
      </trkpt>
      <trkpt lat="42.46396" lon="2.22325">
        <ele>1833</ele>
        <time>2024-09-17T06:32:08Z</time>
      </trkpt>
      <trkpt lat="42.46394" lon="2.22328">
        <ele>1834</ele>
        <time>2024-09-17T06:32:11Z</time>
      </trkpt>
      <trkpt lat="42.46391" lon="2.2233">
        <ele>1834</ele>
        <time>2024-09-17T06:32:14Z</time>
      </trkpt>
      <trkpt lat="42.46388" lon="2.22332">
        <ele>1835</ele>
        <time>2024-09-17T06:32:17Z</time>
      </trkpt>
      <trkpt lat="42.46385" lon="2.22334">
        <ele>1835</ele>
        <time>2024-09-17T06:32:20Z</time>
      </trkpt>
      <trkpt lat="42.46383" lon="2.22337">
        <ele>1834</ele>
        <time>2024-09-17T06:32:23Z</time>
      </trkpt>
      <trkpt lat="42.46381" lon="2.2234">
        <ele>1834</ele>
        <time>2024-09-17T06:32:25Z</time>
      </trkpt>
      <trkpt lat="42.46378" lon="2.22342">
        <ele>1835</ele>
        <time>2024-09-17T06:32:28Z</time>
      </trkpt>
      <trkpt lat="42.46375" lon="2.22342">
        <ele>1836</ele>
        <time>2024-09-17T06:32:31Z</time>
      </trkpt>
      <trkpt lat="42.46372" lon="2.22342">
        <ele>1837</ele>
        <time>2024-09-17T06:32:33Z</time>
      </trkpt>
      <trkpt lat="42.46369" lon="2.22341">
        <ele>1837</ele>
        <time>2024-09-17T06:32:36Z</time>
      </trkpt>
      <trkpt lat="42.46366" lon="2.22341">
        <ele>1838</ele>
        <time>2024-09-17T06:32:39Z</time>
      </trkpt>
      <trkpt lat="42.46363" lon="2.22341">
        <ele>1838</ele>
        <time>2024-09-17T06:32:42Z</time>
      </trkpt>
      <trkpt lat="42.4636" lon="2.22341">
        <ele>1840</ele>
        <time>2024-09-17T06:32:45Z</time>
      </trkpt>
      <trkpt lat="42.46356" lon="2.22342">
        <ele>1839</ele>
        <time>2024-09-17T06:32:48Z</time>
      </trkpt>
      <trkpt lat="42.46353" lon="2.22344">
        <ele>1839</ele>
        <time>2024-09-17T06:32:51Z</time>
      </trkpt>
      <trkpt lat="42.4635" lon="2.22345">
        <ele>1840</ele>
        <time>2024-09-17T06:32:55Z</time>
      </trkpt>
      <trkpt lat="42.46348" lon="2.22348">
        <ele>1839</ele>
        <time>2024-09-17T06:32:58Z</time>
      </trkpt>
      <trkpt lat="42.46345" lon="2.22351">
        <ele>1839</ele>
        <time>2024-09-17T06:33:02Z</time>
      </trkpt>
      <trkpt lat="42.46343" lon="2.22353">
        <ele>1841</ele>
        <time>2024-09-17T06:33:05Z</time>
      </trkpt>
      <trkpt lat="42.4634" lon="2.22356">
        <ele>1839</ele>
        <time>2024-09-17T06:33:08Z</time>
      </trkpt>
      <trkpt lat="42.46337" lon="2.22359">
        <ele>1840</ele>
        <time>2024-09-17T06:33:12Z</time>
      </trkpt>
      <trkpt lat="42.46335" lon="2.22362">
        <ele>1840</ele>
        <time>2024-09-17T06:33:15Z</time>
      </trkpt>
      <trkpt lat="42.46334" lon="2.22365">
        <ele>1838</ele>
        <time>2024-09-17T06:33:17Z</time>
      </trkpt>
      <trkpt lat="42.46334" lon="2.2237">
        <ele>1838</ele>
        <time>2024-09-17T06:33:20Z</time>
      </trkpt>
      <trkpt lat="42.46334" lon="2.22374">
        <ele>1838</ele>
        <time>2024-09-17T06:33:23Z</time>
      </trkpt>
      <trkpt lat="42.46335" lon="2.22379">
        <ele>1836</ele>
        <time>2024-09-17T06:33:25Z</time>
      </trkpt>
      <trkpt lat="42.46333" lon="2.22382">
        <ele>1835</ele>
        <time>2024-09-17T06:33:27Z</time>
      </trkpt>
      <trkpt lat="42.4633" lon="2.22383">
        <ele>1835</ele>
        <time>2024-09-17T06:33:29Z</time>
      </trkpt>
      <trkpt lat="42.46327" lon="2.22383">
        <ele>1835</ele>
        <time>2024-09-17T06:33:31Z</time>
      </trkpt>
      <trkpt lat="42.46324" lon="2.22383">
        <ele>1837</ele>
        <time>2024-09-17T06:33:34Z</time>
      </trkpt>
      <trkpt lat="42.46321" lon="2.22382">
        <ele>1837</ele>
        <time>2024-09-17T06:33:36Z</time>
      </trkpt>
      <trkpt lat="42.46319" lon="2.22382">
        <ele>1838</ele>
        <time>2024-09-17T06:33:40Z</time>
      </trkpt>
      <trkpt lat="42.46316" lon="2.22384">
        <ele>1839</ele>
        <time>2024-09-17T06:33:43Z</time>
      </trkpt>
      <trkpt lat="42.46315" lon="2.22387">
        <ele>1839</ele>
        <time>2024-09-17T06:33:48Z</time>
      </trkpt>
      <trkpt lat="42.46313" lon="2.22389">
        <ele>1840</ele>
        <time>2024-09-17T06:33:51Z</time>
      </trkpt>
      <trkpt lat="42.46311" lon="2.22393">
        <ele>1840</ele>
        <time>2024-09-17T06:33:56Z</time>
      </trkpt>
      <trkpt lat="42.46311" lon="2.22397">
        <ele>1840</ele>
        <time>2024-09-17T06:34:01Z</time>
      </trkpt>
      <trkpt lat="42.46311" lon="2.22401">
        <ele>1841</ele>
        <time>2024-09-17T06:34:06Z</time>
      </trkpt>
      <trkpt lat="42.46311" lon="2.22405">
        <ele>1842</ele>
        <time>2024-09-17T06:34:10Z</time>
      </trkpt>
      <trkpt lat="42.46312" lon="2.2241">
        <ele>1845</ele>
        <time>2024-09-17T06:34:21Z</time>
      </trkpt>
      <trkpt lat="42.46312" lon="2.22414">
        <ele>1845</ele>
        <time>2024-09-17T06:34:25Z</time>
      </trkpt>
      <trkpt lat="42.46311" lon="2.22418">
        <ele>1848</ele>
        <time>2024-09-17T06:34:31Z</time>
      </trkpt>
      <trkpt lat="42.46308" lon="2.2242">
        <ele>1848</ele>
        <time>2024-09-17T06:34:36Z</time>
      </trkpt>
      <trkpt lat="42.46308" lon="2.22424">
        <ele>1849</ele>
        <time>2024-09-17T06:34:42Z</time>
      </trkpt>
      <trkpt lat="42.46308" lon="2.22428">
        <ele>1847</ele>
        <time>2024-09-17T06:34:44Z</time>
      </trkpt>
      <trkpt lat="42.46308" lon="2.22432">
        <ele>1848</ele>
        <time>2024-09-17T06:34:46Z</time>
      </trkpt>
      <trkpt lat="42.46307" lon="2.22436">
        <ele>1847</ele>
        <time>2024-09-17T06:34:49Z</time>
      </trkpt>
      <trkpt lat="42.46305" lon="2.2244">
        <ele>1847</ele>
        <time>2024-09-17T06:34:51Z</time>
      </trkpt>
      <trkpt lat="42.46302" lon="2.22442">
        <ele>1846</ele>
        <time>2024-09-17T06:34:54Z</time>
      </trkpt>
      <trkpt lat="42.463" lon="2.22445">
        <ele>1847</ele>
        <time>2024-09-17T06:34:58Z</time>
      </trkpt>
      <trkpt lat="42.46298" lon="2.22447">
        <ele>1848</ele>
        <time>2024-09-17T06:35:04Z</time>
      </trkpt>
      <trkpt lat="42.46295" lon="2.2245">
        <ele>1850</ele>
        <time>2024-09-17T06:35:07Z</time>
      </trkpt>
      <trkpt lat="42.46293" lon="2.22452">
        <ele>1851</ele>
        <time>2024-09-17T06:35:11Z</time>
      </trkpt>
      <trkpt lat="42.4629" lon="2.22454">
        <ele>1852</ele>
        <time>2024-09-17T06:35:13Z</time>
      </trkpt>
      <trkpt lat="42.46288" lon="2.22457">
        <ele>1854</ele>
        <time>2024-09-17T06:35:17Z</time>
      </trkpt>
      <trkpt lat="42.46286" lon="2.22461">
        <ele>1856</ele>
        <time>2024-09-17T06:35:25Z</time>
      </trkpt>
      <trkpt lat="42.46285" lon="2.22464">
        <ele>1857</ele>
        <time>2024-09-17T06:35:32Z</time>
      </trkpt>
      <trkpt lat="42.46284" lon="2.22467">
        <ele>1857</ele>
        <time>2024-09-17T06:35:33Z</time>
      </trkpt>
      <trkpt lat="42.46282" lon="2.22469">
        <ele>1857</ele>
        <time>2024-09-17T06:35:35Z</time>
      </trkpt>
      <trkpt lat="42.46282" lon="2.22472">
        <ele>1857</ele>
        <time>2024-09-17T06:35:40Z</time>
      </trkpt>
      <trkpt lat="42.4628" lon="2.22476">
        <ele>1858</ele>
        <time>2024-09-17T06:35:44Z</time>
      </trkpt>
      <trkpt lat="42.46279" lon="2.2248">
        <ele>1858</ele>
        <time>2024-09-17T06:35:48Z</time>
      </trkpt>
      <trkpt lat="42.46277" lon="2.22482">
        <ele>1858</ele>
        <time>2024-09-17T06:35:50Z</time>
      </trkpt>
      <trkpt lat="42.46277" lon="2.22485">
        <ele>1858</ele>
        <time>2024-09-17T06:35:52Z</time>
      </trkpt>
      <trkpt lat="42.46276" lon="2.22489">
        <ele>1856</ele>
        <time>2024-09-17T06:35:58Z</time>
      </trkpt>
      <trkpt lat="42.46276" lon="2.22493">
        <ele>1858</ele>
        <time>2024-09-17T06:36:05Z</time>
      </trkpt>
      <trkpt lat="42.46277" lon="2.22495">
        <ele>1859</ele>
        <time>2024-09-17T06:36:08Z</time>
      </trkpt>
      <trkpt lat="42.46276" lon="2.22499">
        <ele>1860</ele>
        <time>2024-09-17T06:36:13Z</time>
      </trkpt>
      <trkpt lat="42.46276" lon="2.22503">
        <ele>1860</ele>
        <time>2024-09-17T06:36:18Z</time>
      </trkpt>
      <trkpt lat="42.46274" lon="2.22506">
        <ele>1860</ele>
        <time>2024-09-17T06:36:21Z</time>
      </trkpt>
      <trkpt lat="42.46276" lon="2.22509">
        <ele>1859</ele>
        <time>2024-09-17T06:36:25Z</time>
      </trkpt>
      <trkpt lat="42.46277" lon="2.22513">
        <ele>1861</ele>
        <time>2024-09-17T06:36:32Z</time>
      </trkpt>
      <trkpt lat="42.46277" lon="2.22518">
        <ele>1863</ele>
        <time>2024-09-17T06:36:38Z</time>
      </trkpt>
      <trkpt lat="42.46278" lon="2.22522">
        <ele>1863</ele>
        <time>2024-09-17T06:36:41Z</time>
      </trkpt>
      <trkpt lat="42.46277" lon="2.22522">
        <ele>1863</ele>
        <time>2024-09-17T06:36:42Z</time>
      </trkpt>
      <trkpt lat="42.46277" lon="2.22525">
        <ele>1863</ele>
        <time>2024-09-17T06:36:44Z</time>
      </trkpt>
      <trkpt lat="42.46277" lon="2.22528">
        <ele>1865</ele>
        <time>2024-09-17T06:36:49Z</time>
      </trkpt>
      <trkpt lat="42.46278" lon="2.22532">
        <ele>1866</ele>
        <time>2024-09-17T06:36:55Z</time>
      </trkpt>
      <trkpt lat="42.46277" lon="2.22536">
        <ele>1866</ele>
        <time>2024-09-17T06:37:00Z</time>
      </trkpt>
      <trkpt lat="42.46276" lon="2.2254">
        <ele>1868</ele>
        <time>2024-09-17T06:37:07Z</time>
      </trkpt>
      <trkpt lat="42.46275" lon="2.22544">
        <ele>1868</ele>
        <time>2024-09-17T06:37:11Z</time>
      </trkpt>
      <trkpt lat="42.46273" lon="2.22547">
        <ele>1870</ele>
        <time>2024-09-17T06:37:14Z</time>
      </trkpt>
      <trkpt lat="42.46273" lon="2.22552">
        <ele>1871</ele>
        <time>2024-09-17T06:37:21Z</time>
      </trkpt>
      <trkpt lat="42.46272" lon="2.22556">
        <ele>1871</ele>
        <time>2024-09-17T06:37:30Z</time>
      </trkpt>
      <trkpt lat="42.46272" lon="2.2256">
        <ele>1873</ele>
        <time>2024-09-17T06:37:33Z</time>
      </trkpt>
      <trkpt lat="42.46271" lon="2.22564">
        <ele>1872</ele>
        <time>2024-09-17T06:37:36Z</time>
      </trkpt>
      <trkpt lat="42.46269" lon="2.22568">
        <ele>1874</ele>
        <time>2024-09-17T06:37:41Z</time>
      </trkpt>
      <trkpt lat="42.46267" lon="2.22572">
        <ele>1878</ele>
        <time>2024-09-17T06:37:53Z</time>
      </trkpt>
      <trkpt lat="42.46268" lon="2.22575">
        <ele>1877</ele>
        <time>2024-09-17T06:37:56Z</time>
      </trkpt>
      <trkpt lat="42.46267" lon="2.2258">
        <ele>1878</ele>
        <time>2024-09-17T06:38:02Z</time>
      </trkpt>
      <trkpt lat="42.46266" lon="2.22584">
        <ele>1877</ele>
        <time>2024-09-17T06:38:07Z</time>
      </trkpt>
      <trkpt lat="42.46265" lon="2.22588">
        <ele>1878</ele>
        <time>2024-09-17T06:38:11Z</time>
      </trkpt>
      <trkpt lat="42.46264" lon="2.22591">
        <ele>1879</ele>
        <time>2024-09-17T06:38:17Z</time>
      </trkpt>
      <trkpt lat="42.46263" lon="2.22596">
        <ele>1881</ele>
        <time>2024-09-17T06:38:21Z</time>
      </trkpt>
      <trkpt lat="42.46264" lon="2.22599">
        <ele>1881</ele>
        <time>2024-09-17T06:38:26Z</time>
      </trkpt>
      <trkpt lat="42.46264" lon="2.22603">
        <ele>1883</ele>
        <time>2024-09-17T06:38:34Z</time>
      </trkpt>
      <trkpt lat="42.46265" lon="2.22606">
        <ele>1882</ele>
        <time>2024-09-17T06:38:39Z</time>
      </trkpt>
      <trkpt lat="42.46264" lon="2.22609">
        <ele>1883</ele>
        <time>2024-09-17T06:38:44Z</time>
      </trkpt>
      <trkpt lat="42.46265" lon="2.22613">
        <ele>1884</ele>
        <time>2024-09-17T06:38:50Z</time>
      </trkpt>
      <trkpt lat="42.46265" lon="2.22617">
        <ele>1884</ele>
        <time>2024-09-17T06:38:55Z</time>
      </trkpt>
      <trkpt lat="42.46263" lon="2.22621">
        <ele>1886</ele>
        <time>2024-09-17T06:39:00Z</time>
      </trkpt>
      <trkpt lat="42.46262" lon="2.22624">
        <ele>1888</ele>
        <time>2024-09-17T06:39:08Z</time>
      </trkpt>
      <trkpt lat="42.46262" lon="2.22628">
        <ele>1889</ele>
        <time>2024-09-17T06:39:15Z</time>
      </trkpt>
      <trkpt lat="42.4626" lon="2.22631">
        <ele>1890</ele>
        <time>2024-09-17T06:39:20Z</time>
      </trkpt>
      <trkpt lat="42.46259" lon="2.22635">
        <ele>1891</ele>
        <time>2024-09-17T06:39:27Z</time>
      </trkpt>
      <trkpt lat="42.46257" lon="2.22637">
        <ele>1892</ele>
        <time>2024-09-17T06:39:32Z</time>
      </trkpt>
      <trkpt lat="42.46257" lon="2.22641">
        <ele>1893</ele>
        <time>2024-09-17T06:39:35Z</time>
      </trkpt>
      <trkpt lat="42.46256" lon="2.22642">
        <ele>1893</ele>
        <time>2024-09-17T06:39:38Z</time>
      </trkpt>
      <trkpt lat="42.46253" lon="2.22643">
        <ele>1894</ele>
        <time>2024-09-17T06:39:40Z</time>
      </trkpt>
      <trkpt lat="42.46251" lon="2.22645">
        <ele>1895</ele>
        <time>2024-09-17T06:39:45Z</time>
      </trkpt>
      <trkpt lat="42.46252" lon="2.22647">
        <ele>1895</ele>
        <time>2024-09-17T06:39:46Z</time>
      </trkpt>
      <trkpt lat="42.46253" lon="2.22651">
        <ele>1895</ele>
        <time>2024-09-17T06:39:49Z</time>
      </trkpt>
      <trkpt lat="42.46252" lon="2.22653">
        <ele>1895</ele>
        <time>2024-09-17T06:39:52Z</time>
      </trkpt>
      <trkpt lat="42.4625" lon="2.22656">
        <ele>1895</ele>
        <time>2024-09-17T06:39:59Z</time>
      </trkpt>
      <trkpt lat="42.46249" lon="2.22659">
        <ele>1894</ele>
        <time>2024-09-17T06:40:03Z</time>
      </trkpt>
      <trkpt lat="42.46249" lon="2.22663">
        <ele>1895</ele>
        <time>2024-09-17T06:40:08Z</time>
      </trkpt>
      <trkpt lat="42.46247" lon="2.22666">
        <ele>1894</ele>
        <time>2024-09-17T06:40:13Z</time>
      </trkpt>
      <trkpt lat="42.46246" lon="2.2267">
        <ele>1896</ele>
        <time>2024-09-17T06:40:19Z</time>
      </trkpt>
      <trkpt lat="42.46245" lon="2.22674">
        <ele>1897</ele>
        <time>2024-09-17T06:40:22Z</time>
      </trkpt>
      <trkpt lat="42.46245" lon="2.22678">
        <ele>1896</ele>
        <time>2024-09-17T06:40:26Z</time>
      </trkpt>
      <trkpt lat="42.46246" lon="2.22682">
        <ele>1895</ele>
        <time>2024-09-17T06:40:36Z</time>
      </trkpt>
      <trkpt lat="42.46247" lon="2.22686">
        <ele>1896</ele>
        <time>2024-09-17T06:40:40Z</time>
      </trkpt>
      <trkpt lat="42.46245" lon="2.22689">
        <ele>1896</ele>
        <time>2024-09-17T06:40:43Z</time>
      </trkpt>
      <trkpt lat="42.46243" lon="2.22692">
        <ele>1899</ele>
        <time>2024-09-17T06:40:51Z</time>
      </trkpt>
      <trkpt lat="42.46242" lon="2.22695">
        <ele>1899</ele>
        <time>2024-09-17T06:40:54Z</time>
      </trkpt>
      <trkpt lat="42.46242" lon="2.22699">
        <ele>1900</ele>
        <time>2024-09-17T06:40:58Z</time>
      </trkpt>
      <trkpt lat="42.4624" lon="2.22702">
        <ele>1903</ele>
        <time>2024-09-17T06:41:04Z</time>
      </trkpt>
      <trkpt lat="42.4624" lon="2.22701">
        <ele>1903</ele>
        <time>2024-09-17T06:41:17Z</time>
      </trkpt>
      <trkpt lat="42.46241" lon="2.22703">
        <ele>1907</ele>
        <time>2024-09-17T06:41:48Z</time>
      </trkpt>
      <trkpt lat="42.4624" lon="2.22702">
        <ele>1909</ele>
        <time>2024-09-17T06:42:08Z</time>
      </trkpt>
      <trkpt lat="42.46239" lon="2.227">
        <ele>1907</ele>
        <time>2024-09-17T06:42:33Z</time>
      </trkpt>
      <trkpt lat="42.46237" lon="2.22698">
        <ele>1904</ele>
        <time>2024-09-17T06:43:39Z</time>
      </trkpt>
      <trkpt lat="42.46237" lon="2.22701">
        <ele>1904</ele>
        <time>2024-09-17T06:43:43Z</time>
      </trkpt>
      <trkpt lat="42.46239" lon="2.22704">
        <ele>1903</ele>
        <time>2024-09-17T06:43:45Z</time>
      </trkpt>
      <trkpt lat="42.46239" lon="2.22707">
        <ele>1905</ele>
        <time>2024-09-17T06:43:53Z</time>
      </trkpt>
      <trkpt lat="42.46238" lon="2.22711">
        <ele>1904</ele>
        <time>2024-09-17T06:43:55Z</time>
      </trkpt>
      <trkpt lat="42.46239" lon="2.22715">
        <ele>1908</ele>
        <time>2024-09-17T06:44:16Z</time>
      </trkpt>
      <trkpt lat="42.46237" lon="2.22719">
        <ele>1907</ele>
        <time>2024-09-17T06:44:22Z</time>
      </trkpt>
      <trkpt lat="42.46236" lon="2.22723">
        <ele>1908</ele>
        <time>2024-09-17T06:44:25Z</time>
      </trkpt>
      <trkpt lat="42.46235" lon="2.22727">
        <ele>1909</ele>
        <time>2024-09-17T06:44:32Z</time>
      </trkpt>
      <trkpt lat="42.46234" lon="2.22731">
        <ele>1908</ele>
        <time>2024-09-17T06:44:34Z</time>
      </trkpt>
      <trkpt lat="42.46235" lon="2.22735">
        <ele>1909</ele>
        <time>2024-09-17T06:44:39Z</time>
      </trkpt>
      <trkpt lat="42.46235" lon="2.2274">
        <ele>1909</ele>
        <time>2024-09-17T06:44:43Z</time>
      </trkpt>
      <trkpt lat="42.46235" lon="2.22744">
        <ele>1909</ele>
        <time>2024-09-17T06:44:46Z</time>
      </trkpt>
      <trkpt lat="42.46234" lon="2.22748">
        <ele>1909</ele>
        <time>2024-09-17T06:44:50Z</time>
      </trkpt>
      <trkpt lat="42.46234" lon="2.22752">
        <ele>1908</ele>
        <time>2024-09-17T06:44:53Z</time>
      </trkpt>
      <trkpt lat="42.46233" lon="2.22757">
        <ele>1908</ele>
        <time>2024-09-17T06:44:58Z</time>
      </trkpt>
      <trkpt lat="42.46235" lon="2.22762">
        <ele>1907</ele>
        <time>2024-09-17T06:45:02Z</time>
      </trkpt>
      <trkpt lat="42.46237" lon="2.22766">
        <ele>1906</ele>
        <time>2024-09-17T06:45:05Z</time>
      </trkpt>
      <trkpt lat="42.46239" lon="2.2277">
        <ele>1906</ele>
        <time>2024-09-17T06:45:10Z</time>
      </trkpt>
      <trkpt lat="42.46241" lon="2.22774">
        <ele>1906</ele>
        <time>2024-09-17T06:45:12Z</time>
      </trkpt>
      <trkpt lat="42.46243" lon="2.22777">
        <ele>1904</ele>
        <time>2024-09-17T06:45:15Z</time>
      </trkpt>
      <trkpt lat="42.46246" lon="2.22779">
        <ele>1905</ele>
        <time>2024-09-17T06:45:18Z</time>
      </trkpt>
      <trkpt lat="42.46246" lon="2.22782">
        <ele>1905</ele>
        <time>2024-09-17T06:45:20Z</time>
      </trkpt>
      <trkpt lat="42.46246" lon="2.22786">
        <ele>1905</ele>
        <time>2024-09-17T06:45:22Z</time>
      </trkpt>
      <trkpt lat="42.46246" lon="2.2279">
        <ele>1907</ele>
        <time>2024-09-17T06:45:25Z</time>
      </trkpt>
      <trkpt lat="42.46247" lon="2.22794">
        <ele>1909</ele>
        <time>2024-09-17T06:45:27Z</time>
      </trkpt>
      <trkpt lat="42.46248" lon="2.22798">
        <ele>1910</ele>
        <time>2024-09-17T06:45:32Z</time>
      </trkpt>
      <trkpt lat="42.46249" lon="2.22802">
        <ele>1910</ele>
        <time>2024-09-17T06:45:35Z</time>
      </trkpt>
      <trkpt lat="42.46249" lon="2.22806">
        <ele>1910</ele>
        <time>2024-09-17T06:45:41Z</time>
      </trkpt>
      <trkpt lat="42.46247" lon="2.2281">
        <ele>1910</ele>
        <time>2024-09-17T06:45:45Z</time>
      </trkpt>
      <trkpt lat="42.46244" lon="2.22811">
        <ele>1910</ele>
        <time>2024-09-17T06:45:49Z</time>
      </trkpt>
      <trkpt lat="42.46242" lon="2.22812">
        <ele>1913</ele>
        <time>2024-09-17T06:45:51Z</time>
      </trkpt>
      <trkpt lat="42.46241" lon="2.22816">
        <ele>1915</ele>
        <time>2024-09-17T06:45:55Z</time>
      </trkpt>
      <trkpt lat="42.4624" lon="2.2282">
        <ele>1916</ele>
        <time>2024-09-17T06:45:59Z</time>
      </trkpt>
      <trkpt lat="42.4624" lon="2.22824">
        <ele>1918</ele>
        <time>2024-09-17T06:46:03Z</time>
      </trkpt>
      <trkpt lat="42.46242" lon="2.22827">
        <ele>1918</ele>
        <time>2024-09-17T06:46:07Z</time>
      </trkpt>
      <trkpt lat="42.46243" lon="2.22831">
        <ele>1918</ele>
        <time>2024-09-17T06:46:10Z</time>
      </trkpt>
      <trkpt lat="42.46245" lon="2.22834">
        <ele>1917</ele>
        <time>2024-09-17T06:46:13Z</time>
      </trkpt>
      <trkpt lat="42.46247" lon="2.22837">
        <ele>1916</ele>
        <time>2024-09-17T06:46:17Z</time>
      </trkpt>
      <trkpt lat="42.46246" lon="2.22841">
        <ele>1916</ele>
        <time>2024-09-17T06:46:20Z</time>
      </trkpt>
      <trkpt lat="42.46245" lon="2.22845">
        <ele>1917</ele>
        <time>2024-09-17T06:46:24Z</time>
      </trkpt>
      <trkpt lat="42.46244" lon="2.22849">
        <ele>1920</ele>
        <time>2024-09-17T06:46:30Z</time>
      </trkpt>
      <trkpt lat="42.46245" lon="2.22853">
        <ele>1918</ele>
        <time>2024-09-17T06:46:34Z</time>
      </trkpt>
      <trkpt lat="42.46245" lon="2.22858">
        <ele>1917</ele>
        <time>2024-09-17T06:46:37Z</time>
      </trkpt>
      <trkpt lat="42.46246" lon="2.22862">
        <ele>1918</ele>
        <time>2024-09-17T06:46:40Z</time>
      </trkpt>
      <trkpt lat="42.46247" lon="2.22866">
        <ele>1920</ele>
        <time>2024-09-17T06:46:44Z</time>
      </trkpt>
      <trkpt lat="42.46248" lon="2.2287">
        <ele>1921</ele>
        <time>2024-09-17T06:46:48Z</time>
      </trkpt>
      <trkpt lat="42.46248" lon="2.22874">
        <ele>1921</ele>
        <time>2024-09-17T06:46:52Z</time>
      </trkpt>
      <trkpt lat="42.46247" lon="2.22876">
        <ele>1921</ele>
        <time>2024-09-17T06:46:55Z</time>
      </trkpt>
      <trkpt lat="42.46244" lon="2.22877">
        <ele>1921</ele>
        <time>2024-09-17T06:46:57Z</time>
      </trkpt>
      <trkpt lat="42.46241" lon="2.22879">
        <ele>1920</ele>
        <time>2024-09-17T06:47:01Z</time>
      </trkpt>
      <trkpt lat="42.46239" lon="2.22882">
        <ele>1921</ele>
        <time>2024-09-17T06:47:05Z</time>
      </trkpt>
      <trkpt lat="42.46236" lon="2.22884">
        <ele>1921</ele>
        <time>2024-09-17T06:47:10Z</time>
      </trkpt>
      <trkpt lat="42.46235" lon="2.22887">
        <ele>1921</ele>
        <time>2024-09-17T06:47:14Z</time>
      </trkpt>
      <trkpt lat="42.46232" lon="2.22889">
        <ele>1922</ele>
        <time>2024-09-17T06:47:20Z</time>
      </trkpt>
      <trkpt lat="42.4623" lon="2.2289">
        <ele>1922</ele>
        <time>2024-09-17T06:47:22Z</time>
      </trkpt>
      <trkpt lat="42.46227" lon="2.22892">
        <ele>1923</ele>
        <time>2024-09-17T06:47:27Z</time>
      </trkpt>
      <trkpt lat="42.46224" lon="2.22893">
        <ele>1923</ele>
        <time>2024-09-17T06:47:30Z</time>
      </trkpt>
      <trkpt lat="42.46221" lon="2.22895">
        <ele>1923</ele>
        <time>2024-09-17T06:47:35Z</time>
      </trkpt>
      <trkpt lat="42.46219" lon="2.22894">
        <ele>1923</ele>
        <time>2024-09-17T06:47:41Z</time>
      </trkpt>
      <trkpt lat="42.46217" lon="2.22894">
        <ele>1925</ele>
        <time>2024-09-17T06:47:43Z</time>
      </trkpt>
      <trkpt lat="42.46214" lon="2.22896">
        <ele>1925</ele>
        <time>2024-09-17T06:47:48Z</time>
      </trkpt>
      <trkpt lat="42.46211" lon="2.22897">
        <ele>1926</ele>
        <time>2024-09-17T06:47:53Z</time>
      </trkpt>
      <trkpt lat="42.46209" lon="2.229">
        <ele>1925</ele>
        <time>2024-09-17T06:47:56Z</time>
      </trkpt>
      <trkpt lat="42.46207" lon="2.22903">
        <ele>1928</ele>
        <time>2024-09-17T06:48:01Z</time>
      </trkpt>
      <trkpt lat="42.46205" lon="2.22906">
        <ele>1929</ele>
        <time>2024-09-17T06:48:06Z</time>
      </trkpt>
      <trkpt lat="42.46203" lon="2.22908">
        <ele>1929</ele>
        <time>2024-09-17T06:48:11Z</time>
      </trkpt>
      <trkpt lat="42.462" lon="2.22909">
        <ele>1929</ele>
        <time>2024-09-17T06:48:15Z</time>
      </trkpt>
      <trkpt lat="42.46197" lon="2.22911">
        <ele>1929</ele>
        <time>2024-09-17T06:48:20Z</time>
      </trkpt>
      <trkpt lat="42.46194" lon="2.22913">
        <ele>1929</ele>
        <time>2024-09-17T06:48:23Z</time>
      </trkpt>
      <trkpt lat="42.46191" lon="2.22914">
        <ele>1929</ele>
        <time>2024-09-17T06:48:27Z</time>
      </trkpt>
      <trkpt lat="42.46189" lon="2.22917">
        <ele>1930</ele>
        <time>2024-09-17T06:48:30Z</time>
      </trkpt>
      <trkpt lat="42.46187" lon="2.22919">
        <ele>1930</ele>
        <time>2024-09-17T06:48:34Z</time>
      </trkpt>
      <trkpt lat="42.46185" lon="2.22921">
        <ele>1931</ele>
        <time>2024-09-17T06:48:38Z</time>
      </trkpt>
      <trkpt lat="42.46182" lon="2.22924">
        <ele>1933</ele>
        <time>2024-09-17T06:48:42Z</time>
      </trkpt>
      <trkpt lat="42.4618" lon="2.22928">
        <ele>1933</ele>
        <time>2024-09-17T06:48:47Z</time>
      </trkpt>
      <trkpt lat="42.46178" lon="2.2293">
        <ele>1932</ele>
        <time>2024-09-17T06:48:51Z</time>
      </trkpt>
      <trkpt lat="42.46175" lon="2.22931">
        <ele>1933</ele>
        <time>2024-09-17T06:48:54Z</time>
      </trkpt>
      <trkpt lat="42.46172" lon="2.22931">
        <ele>1933</ele>
        <time>2024-09-17T06:48:57Z</time>
      </trkpt>
      <trkpt lat="42.46169" lon="2.22932">
        <ele>1933</ele>
        <time>2024-09-17T06:49:00Z</time>
      </trkpt>
      <trkpt lat="42.46166" lon="2.22934">
        <ele>1933</ele>
        <time>2024-09-17T06:49:04Z</time>
      </trkpt>
      <trkpt lat="42.46164" lon="2.22935">
        <ele>1934</ele>
        <time>2024-09-17T06:49:07Z</time>
      </trkpt>
      <trkpt lat="42.46161" lon="2.22938">
        <ele>1934</ele>
        <time>2024-09-17T06:49:10Z</time>
      </trkpt>
      <trkpt lat="42.46158" lon="2.2294">
        <ele>1934</ele>
        <time>2024-09-17T06:49:14Z</time>
      </trkpt>
      <trkpt lat="42.46156" lon="2.22943">
        <ele>1935</ele>
        <time>2024-09-17T06:49:17Z</time>
      </trkpt>
      <trkpt lat="42.46154" lon="2.22945">
        <ele>1936</ele>
        <time>2024-09-17T06:49:21Z</time>
      </trkpt>
      <trkpt lat="42.46151" lon="2.22948">
        <ele>1935</ele>
        <time>2024-09-17T06:49:24Z</time>
      </trkpt>
      <trkpt lat="42.46148" lon="2.22951">
        <ele>1935</ele>
        <time>2024-09-17T06:49:28Z</time>
      </trkpt>
      <trkpt lat="42.46145" lon="2.22953">
        <ele>1937</ele>
        <time>2024-09-17T06:49:31Z</time>
      </trkpt>
      <trkpt lat="42.46142" lon="2.22952">
        <ele>1938</ele>
        <time>2024-09-17T06:49:39Z</time>
      </trkpt>
      <trkpt lat="42.46141" lon="2.22954">
        <ele>1938</ele>
        <time>2024-09-17T06:49:43Z</time>
      </trkpt>
      <trkpt lat="42.46142" lon="2.22957">
        <ele>1936</ele>
        <time>2024-09-17T06:49:47Z</time>
      </trkpt>
      <trkpt lat="42.46141" lon="2.2296">
        <ele>1936</ele>
        <time>2024-09-17T06:49:53Z</time>
      </trkpt>
      <trkpt lat="42.46138" lon="2.22962">
        <ele>1938</ele>
        <time>2024-09-17T06:49:56Z</time>
      </trkpt>
      <trkpt lat="42.46135" lon="2.22964">
        <ele>1937</ele>
        <time>2024-09-17T06:50:00Z</time>
      </trkpt>
      <trkpt lat="42.46133" lon="2.22967">
        <ele>1938</ele>
        <time>2024-09-17T06:50:04Z</time>
      </trkpt>
      <trkpt lat="42.46132" lon="2.22971">
        <ele>1938</ele>
        <time>2024-09-17T06:50:09Z</time>
      </trkpt>
      <trkpt lat="42.46131" lon="2.22976">
        <ele>1938</ele>
        <time>2024-09-17T06:50:13Z</time>
      </trkpt>
      <trkpt lat="42.4613" lon="2.22979">
        <ele>1939</ele>
        <time>2024-09-17T06:50:17Z</time>
      </trkpt>
      <trkpt lat="42.4613" lon="2.22983">
        <ele>1941</ele>
        <time>2024-09-17T06:50:23Z</time>
      </trkpt>
      <trkpt lat="42.46129" lon="2.22987">
        <ele>1939</ele>
        <time>2024-09-17T06:50:28Z</time>
      </trkpt>
      <trkpt lat="42.46127" lon="2.22989">
        <ele>1941</ele>
        <time>2024-09-17T06:50:33Z</time>
      </trkpt>
      <trkpt lat="42.46124" lon="2.22991">
        <ele>1941</ele>
        <time>2024-09-17T06:50:36Z</time>
      </trkpt>
      <trkpt lat="42.46123" lon="2.22995">
        <ele>1942</ele>
        <time>2024-09-17T06:50:41Z</time>
      </trkpt>
      <trkpt lat="42.46123" lon="2.22999">
        <ele>1942</ele>
        <time>2024-09-17T06:50:45Z</time>
      </trkpt>
      <trkpt lat="42.46124" lon="2.23003">
        <ele>1942</ele>
        <time>2024-09-17T06:50:49Z</time>
      </trkpt>
      <trkpt lat="42.46126" lon="2.23008">
        <ele>1941</ele>
        <time>2024-09-17T06:50:52Z</time>
      </trkpt>
      <trkpt lat="42.46125" lon="2.23011">
        <ele>1941</ele>
        <time>2024-09-17T06:50:54Z</time>
      </trkpt>
      <trkpt lat="42.46123" lon="2.23014">
        <ele>1942</ele>
        <time>2024-09-17T06:50:57Z</time>
      </trkpt>
      <trkpt lat="42.46121" lon="2.23017">
        <ele>1942</ele>
        <time>2024-09-17T06:50:59Z</time>
      </trkpt>
      <trkpt lat="42.46118" lon="2.23019">
        <ele>1943</ele>
        <time>2024-09-17T06:51:01Z</time>
      </trkpt>
      <trkpt lat="42.46115" lon="2.23022">
        <ele>1942</ele>
        <time>2024-09-17T06:51:04Z</time>
      </trkpt>
      <trkpt lat="42.46113" lon="2.23025">
        <ele>1942</ele>
        <time>2024-09-17T06:51:07Z</time>
      </trkpt>
      <trkpt lat="42.4611" lon="2.23028">
        <ele>1941</ele>
        <time>2024-09-17T06:51:10Z</time>
      </trkpt>
      <trkpt lat="42.46108" lon="2.23031">
        <ele>1943</ele>
        <time>2024-09-17T06:51:12Z</time>
      </trkpt>
      <trkpt lat="42.46105" lon="2.23033">
        <ele>1943</ele>
        <time>2024-09-17T06:51:15Z</time>
      </trkpt>
      <trkpt lat="42.46102" lon="2.23035">
        <ele>1942</ele>
        <time>2024-09-17T06:51:17Z</time>
      </trkpt>
      <trkpt lat="42.46101" lon="2.23038">
        <ele>1941</ele>
        <time>2024-09-17T06:51:21Z</time>
      </trkpt>
      <trkpt lat="42.461" lon="2.23042">
        <ele>1941</ele>
        <time>2024-09-17T06:51:24Z</time>
      </trkpt>
      <trkpt lat="42.461" lon="2.23046">
        <ele>1941</ele>
        <time>2024-09-17T06:51:28Z</time>
      </trkpt>
      <trkpt lat="42.461" lon="2.2305">
        <ele>1941</ele>
        <time>2024-09-17T06:51:33Z</time>
      </trkpt>
      <trkpt lat="42.46099" lon="2.23055">
        <ele>1942</ele>
        <time>2024-09-17T06:51:37Z</time>
      </trkpt>
      <trkpt lat="42.46096" lon="2.23056">
        <ele>1941</ele>
        <time>2024-09-17T06:51:43Z</time>
      </trkpt>
      <trkpt lat="42.46093" lon="2.23057">
        <ele>1940</ele>
        <time>2024-09-17T06:51:47Z</time>
      </trkpt>
      <trkpt lat="42.4609" lon="2.23059">
        <ele>1940</ele>
        <time>2024-09-17T06:51:51Z</time>
      </trkpt>
      <trkpt lat="42.46087" lon="2.23059">
        <ele>1940</ele>
        <time>2024-09-17T06:52:09Z</time>
      </trkpt>
      <trkpt lat="42.46084" lon="2.2306">
        <ele>1941</ele>
        <time>2024-09-17T06:52:11Z</time>
      </trkpt>
      <trkpt lat="42.46082" lon="2.23063">
        <ele>1942</ele>
        <time>2024-09-17T06:52:14Z</time>
      </trkpt>
      <trkpt lat="42.46082" lon="2.23067">
        <ele>1941</ele>
        <time>2024-09-17T06:52:16Z</time>
      </trkpt>
      <trkpt lat="42.46082" lon="2.23071">
        <ele>1941</ele>
        <time>2024-09-17T06:52:18Z</time>
      </trkpt>
      <trkpt lat="42.46082" lon="2.23075">
        <ele>1941</ele>
        <time>2024-09-17T06:52:20Z</time>
      </trkpt>
      <trkpt lat="42.46082" lon="2.23079">
        <ele>1941</ele>
        <time>2024-09-17T06:52:23Z</time>
      </trkpt>
      <trkpt lat="42.46083" lon="2.23084">
        <ele>1942</ele>
        <time>2024-09-17T06:52:26Z</time>
      </trkpt>
      <trkpt lat="42.46084" lon="2.23088">
        <ele>1941</ele>
        <time>2024-09-17T06:52:29Z</time>
      </trkpt>
      <trkpt lat="42.46086" lon="2.23093">
        <ele>1942</ele>
        <time>2024-09-17T06:52:35Z</time>
      </trkpt>
      <trkpt lat="42.46087" lon="2.23097">
        <ele>1943</ele>
        <time>2024-09-17T06:52:37Z</time>
      </trkpt>
      <trkpt lat="42.46089" lon="2.23098">
        <ele>1943</ele>
        <time>2024-09-17T06:52:42Z</time>
      </trkpt>
      <trkpt lat="42.46092" lon="2.231">
        <ele>1943</ele>
        <time>2024-09-17T06:52:44Z</time>
      </trkpt>
      <trkpt lat="42.46094" lon="2.23103">
        <ele>1941</ele>
        <time>2024-09-17T06:52:47Z</time>
      </trkpt>
      <trkpt lat="42.46096" lon="2.23106">
        <ele>1940</ele>
        <time>2024-09-17T06:52:57Z</time>
      </trkpt>
      <trkpt lat="42.46098" lon="2.23109">
        <ele>1941</ele>
        <time>2024-09-17T06:53:02Z</time>
      </trkpt>
      <trkpt lat="42.461" lon="2.23112">
        <ele>1941</ele>
        <time>2024-09-17T06:53:05Z</time>
      </trkpt>
      <trkpt lat="42.46101" lon="2.23116">
        <ele>1942</ele>
        <time>2024-09-17T06:53:08Z</time>
      </trkpt>
      <trkpt lat="42.46103" lon="2.23119">
        <ele>1942</ele>
        <time>2024-09-17T06:53:13Z</time>
      </trkpt>
      <trkpt lat="42.46106" lon="2.23122">
        <ele>1943</ele>
        <time>2024-09-17T06:53:16Z</time>
      </trkpt>
      <trkpt lat="42.46108" lon="2.23125">
        <ele>1942</ele>
        <time>2024-09-17T06:53:19Z</time>
      </trkpt>
      <trkpt lat="42.46109" lon="2.23129">
        <ele>1943</ele>
        <time>2024-09-17T06:53:22Z</time>
      </trkpt>
      <trkpt lat="42.4611" lon="2.23133">
        <ele>1943</ele>
        <time>2024-09-17T06:53:25Z</time>
      </trkpt>
      <trkpt lat="42.46112" lon="2.23136">
        <ele>1944</ele>
        <time>2024-09-17T06:53:27Z</time>
      </trkpt>
      <trkpt lat="42.46113" lon="2.23139">
        <ele>1945</ele>
        <time>2024-09-17T06:53:31Z</time>
      </trkpt>
      <trkpt lat="42.46112" lon="2.23142">
        <ele>1947</ele>
        <time>2024-09-17T06:53:34Z</time>
      </trkpt>
      <trkpt lat="42.46112" lon="2.23147">
        <ele>1946</ele>
        <time>2024-09-17T06:53:41Z</time>
      </trkpt>
      <trkpt lat="42.46114" lon="2.2315">
        <ele>1948</ele>
        <time>2024-09-17T06:53:44Z</time>
      </trkpt>
      <trkpt lat="42.46116" lon="2.23151">
        <ele>1948</ele>
        <time>2024-09-17T06:53:47Z</time>
      </trkpt>
      <trkpt lat="42.46118" lon="2.23153">
        <ele>1949</ele>
        <time>2024-09-17T06:53:51Z</time>
      </trkpt>
      <trkpt lat="42.4612" lon="2.23156">
        <ele>1949</ele>
        <time>2024-09-17T06:53:53Z</time>
      </trkpt>
      <trkpt lat="42.46122" lon="2.23158">
        <ele>1950</ele>
        <time>2024-09-17T06:53:58Z</time>
      </trkpt>
      <trkpt lat="42.46125" lon="2.23157">
        <ele>1949</ele>
        <time>2024-09-17T06:54:00Z</time>
      </trkpt>
      <trkpt lat="42.46128" lon="2.23158">
        <ele>1949</ele>
        <time>2024-09-17T06:54:03Z</time>
      </trkpt>
      <trkpt lat="42.46127" lon="2.23159">
        <ele>1949</ele>
        <time>2024-09-17T06:54:08Z</time>
      </trkpt>
      <trkpt lat="42.46129" lon="2.2316">
        <ele>1948</ele>
        <time>2024-09-17T06:54:11Z</time>
      </trkpt>
      <trkpt lat="42.46132" lon="2.23162">
        <ele>1947</ele>
        <time>2024-09-17T06:54:13Z</time>
      </trkpt>
      <trkpt lat="42.46135" lon="2.23164">
        <ele>1947</ele>
        <time>2024-09-17T06:54:17Z</time>
      </trkpt>
      <trkpt lat="42.46137" lon="2.23167">
        <ele>1946</ele>
        <time>2024-09-17T06:54:19Z</time>
      </trkpt>
      <trkpt lat="42.46138" lon="2.2317">
        <ele>1945</ele>
        <time>2024-09-17T06:54:22Z</time>
      </trkpt>
      <trkpt lat="42.4614" lon="2.23174">
        <ele>1945</ele>
        <time>2024-09-17T06:54:25Z</time>
      </trkpt>
      <trkpt lat="42.46141" lon="2.23177">
        <ele>1944</ele>
        <time>2024-09-17T06:54:26Z</time>
      </trkpt>
      <trkpt lat="42.46143" lon="2.23181">
        <ele>1946</ele>
        <time>2024-09-17T06:54:28Z</time>
      </trkpt>
      <trkpt lat="42.46144" lon="2.23185">
        <ele>1945</ele>
        <time>2024-09-17T06:54:31Z</time>
      </trkpt>
      <trkpt lat="42.46146" lon="2.23188">
        <ele>1943</ele>
        <time>2024-09-17T06:54:34Z</time>
      </trkpt>
      <trkpt lat="42.46147" lon="2.23192">
        <ele>1943</ele>
        <time>2024-09-17T06:54:37Z</time>
      </trkpt>
      <trkpt lat="42.46148" lon="2.23196">
        <ele>1943</ele>
        <time>2024-09-17T06:54:40Z</time>
      </trkpt>
      <trkpt lat="42.46149" lon="2.232">
        <ele>1943</ele>
        <time>2024-09-17T06:54:43Z</time>
      </trkpt>
      <trkpt lat="42.46151" lon="2.23205">
        <ele>1943</ele>
        <time>2024-09-17T06:54:46Z</time>
      </trkpt>
      <trkpt lat="42.46152" lon="2.23204">
        <ele>1944</ele>
        <time>2024-09-17T06:54:52Z</time>
      </trkpt>
      <trkpt lat="42.46154" lon="2.23201">
        <ele>1943</ele>
        <time>2024-09-17T06:54:55Z</time>
      </trkpt>
      <trkpt lat="42.46153" lon="2.23199">
        <ele>1945</ele>
        <time>2024-09-17T06:55:07Z</time>
      </trkpt>
      <trkpt lat="42.46152" lon="2.232">
        <ele>1945</ele>
        <time>2024-09-17T06:55:11Z</time>
      </trkpt>
      <trkpt lat="42.46151" lon="2.23203">
        <ele>1945</ele>
        <time>2024-09-17T06:55:14Z</time>
      </trkpt>
      <trkpt lat="42.46152" lon="2.23207">
        <ele>1945</ele>
        <time>2024-09-17T06:55:17Z</time>
      </trkpt>
      <trkpt lat="42.46153" lon="2.23211">
        <ele>1946</ele>
        <time>2024-09-17T06:55:19Z</time>
      </trkpt>
      <trkpt lat="42.46155" lon="2.23214">
        <ele>1945</ele>
        <time>2024-09-17T06:55:22Z</time>
      </trkpt>
      <trkpt lat="42.46157" lon="2.23217">
        <ele>1945</ele>
        <time>2024-09-17T06:55:24Z</time>
      </trkpt>
      <trkpt lat="42.46158" lon="2.23221">
        <ele>1945</ele>
        <time>2024-09-17T06:55:27Z</time>
      </trkpt>
      <trkpt lat="42.46161" lon="2.23225">
        <ele>1945</ele>
        <time>2024-09-17T06:55:30Z</time>
      </trkpt>
      <trkpt lat="42.46163" lon="2.23229">
        <ele>1945</ele>
        <time>2024-09-17T06:55:33Z</time>
      </trkpt>
      <trkpt lat="42.46166" lon="2.23231">
        <ele>1945</ele>
        <time>2024-09-17T06:55:36Z</time>
      </trkpt>
      <trkpt lat="42.46169" lon="2.23232">
        <ele>1944</ele>
        <time>2024-09-17T06:55:38Z</time>
      </trkpt>
      <trkpt lat="42.46172" lon="2.23232">
        <ele>1944</ele>
        <time>2024-09-17T06:55:40Z</time>
      </trkpt>
      <trkpt lat="42.46173" lon="2.23229">
        <ele>1945</ele>
        <time>2024-09-17T06:55:45Z</time>
      </trkpt>
      <trkpt lat="42.46176" lon="2.23228">
        <ele>1945</ele>
        <time>2024-09-17T06:55:55Z</time>
      </trkpt>
      <trkpt lat="42.46179" lon="2.23229">
        <ele>1945</ele>
        <time>2024-09-17T06:55:57Z</time>
      </trkpt>
      <trkpt lat="42.46182" lon="2.2323">
        <ele>1945</ele>
        <time>2024-09-17T06:56:01Z</time>
      </trkpt>
      <trkpt lat="42.46184" lon="2.23231">
        <ele>1945</ele>
        <time>2024-09-17T06:56:03Z</time>
      </trkpt>
      <trkpt lat="42.46187" lon="2.23232">
        <ele>1944</ele>
        <time>2024-09-17T06:56:06Z</time>
      </trkpt>
      <trkpt lat="42.46191" lon="2.23233">
        <ele>1944</ele>
        <time>2024-09-17T06:56:09Z</time>
      </trkpt>
      <trkpt lat="42.46194" lon="2.23236">
        <ele>1944</ele>
        <time>2024-09-17T06:56:12Z</time>
      </trkpt>
      <trkpt lat="42.46197" lon="2.23237">
        <ele>1944</ele>
        <time>2024-09-17T06:56:15Z</time>
      </trkpt>
      <trkpt lat="42.462" lon="2.23237">
        <ele>1943</ele>
        <time>2024-09-17T06:56:19Z</time>
      </trkpt>
      <trkpt lat="42.46203" lon="2.23237">
        <ele>1945</ele>
        <time>2024-09-17T06:56:22Z</time>
      </trkpt>
      <trkpt lat="42.46206" lon="2.23238">
        <ele>1944</ele>
        <time>2024-09-17T06:56:25Z</time>
      </trkpt>
      <trkpt lat="42.46209" lon="2.2324">
        <ele>1944</ele>
        <time>2024-09-17T06:56:28Z</time>
      </trkpt>
      <trkpt lat="42.46212" lon="2.23242">
        <ele>1943</ele>
        <time>2024-09-17T06:56:30Z</time>
      </trkpt>
      <trkpt lat="42.46215" lon="2.23243">
        <ele>1943</ele>
        <time>2024-09-17T06:56:32Z</time>
      </trkpt>
      <trkpt lat="42.46217" lon="2.23246">
        <ele>1942</ele>
        <time>2024-09-17T06:56:35Z</time>
      </trkpt>
      <trkpt lat="42.46219" lon="2.2325">
        <ele>1941</ele>
        <time>2024-09-17T06:56:38Z</time>
      </trkpt>
      <trkpt lat="42.46221" lon="2.23254">
        <ele>1941</ele>
        <time>2024-09-17T06:56:41Z</time>
      </trkpt>
      <trkpt lat="42.46224" lon="2.23256">
        <ele>1940</ele>
        <time>2024-09-17T06:56:44Z</time>
      </trkpt>
      <trkpt lat="42.46227" lon="2.23258">
        <ele>1939</ele>
        <time>2024-09-17T06:56:46Z</time>
      </trkpt>
      <trkpt lat="42.4623" lon="2.2326">
        <ele>1940</ele>
        <time>2024-09-17T06:56:50Z</time>
      </trkpt>
      <trkpt lat="42.46233" lon="2.23262">
        <ele>1940</ele>
        <time>2024-09-17T06:57:00Z</time>
      </trkpt>
      <trkpt lat="42.46235" lon="2.23265">
        <ele>1939</ele>
        <time>2024-09-17T06:57:05Z</time>
      </trkpt>
      <trkpt lat="42.46236" lon="2.23269">
        <ele>1939</ele>
        <time>2024-09-17T06:57:08Z</time>
      </trkpt>
      <trkpt lat="42.46239" lon="2.2327">
        <ele>1940</ele>
        <time>2024-09-17T06:57:10Z</time>
      </trkpt>
      <trkpt lat="42.46241" lon="2.23271">
        <ele>1940</ele>
        <time>2024-09-17T06:57:13Z</time>
      </trkpt>
      <trkpt lat="42.46244" lon="2.23272">
        <ele>1940</ele>
        <time>2024-09-17T06:57:16Z</time>
      </trkpt>
      <trkpt lat="42.46247" lon="2.23272">
        <ele>1940</ele>
        <time>2024-09-17T06:57:19Z</time>
      </trkpt>
      <trkpt lat="42.46251" lon="2.23271">
        <ele>1941</ele>
        <time>2024-09-17T06:57:22Z</time>
      </trkpt>
      <trkpt lat="42.46254" lon="2.23271">
        <ele>1941</ele>
        <time>2024-09-17T06:57:25Z</time>
      </trkpt>
      <trkpt lat="42.46257" lon="2.23272">
        <ele>1938</ele>
        <time>2024-09-17T06:57:30Z</time>
      </trkpt>
      <trkpt lat="42.4626" lon="2.23274">
        <ele>1938</ele>
        <time>2024-09-17T06:57:32Z</time>
      </trkpt>
      <trkpt lat="42.46263" lon="2.23275">
        <ele>1938</ele>
        <time>2024-09-17T06:57:35Z</time>
      </trkpt>
      <trkpt lat="42.46266" lon="2.23276">
        <ele>1939</ele>
        <time>2024-09-17T06:57:38Z</time>
      </trkpt>
      <trkpt lat="42.46269" lon="2.23279">
        <ele>1937</ele>
        <time>2024-09-17T06:57:42Z</time>
      </trkpt>
      <trkpt lat="42.46271" lon="2.23282">
        <ele>1937</ele>
        <time>2024-09-17T06:57:45Z</time>
      </trkpt>
      <trkpt lat="42.46272" lon="2.23285">
        <ele>1937</ele>
        <time>2024-09-17T06:57:48Z</time>
      </trkpt>
      <trkpt lat="42.46274" lon="2.23288">
        <ele>1936</ele>
        <time>2024-09-17T06:57:50Z</time>
      </trkpt>
      <trkpt lat="42.46276" lon="2.23291">
        <ele>1936</ele>
        <time>2024-09-17T06:57:53Z</time>
      </trkpt>
      <trkpt lat="42.46279" lon="2.23294">
        <ele>1935</ele>
        <time>2024-09-17T06:57:58Z</time>
      </trkpt>
      <trkpt lat="42.46281" lon="2.23296">
        <ele>1934</ele>
        <time>2024-09-17T06:58:02Z</time>
      </trkpt>
      <trkpt lat="42.46285" lon="2.23297">
        <ele>1934</ele>
        <time>2024-09-17T06:58:07Z</time>
      </trkpt>
      <trkpt lat="42.46288" lon="2.23297">
        <ele>1934</ele>
        <time>2024-09-17T06:58:10Z</time>
      </trkpt>
      <trkpt lat="42.46289" lon="2.233">
        <ele>1933</ele>
        <time>2024-09-17T06:58:14Z</time>
      </trkpt>
      <trkpt lat="42.46291" lon="2.23302">
        <ele>1933</ele>
        <time>2024-09-17T06:58:19Z</time>
      </trkpt>
      <trkpt lat="42.46294" lon="2.23304">
        <ele>1933</ele>
        <time>2024-09-17T06:58:22Z</time>
      </trkpt>
      <trkpt lat="42.46296" lon="2.23306">
        <ele>1932</ele>
        <time>2024-09-17T06:58:26Z</time>
      </trkpt>
      <trkpt lat="42.46298" lon="2.23308">
        <ele>1931</ele>
        <time>2024-09-17T06:58:31Z</time>
      </trkpt>
      <trkpt lat="42.46301" lon="2.23308">
        <ele>1929</ele>
        <time>2024-09-17T06:58:35Z</time>
      </trkpt>
      <trkpt lat="42.46304" lon="2.23308">
        <ele>1930</ele>
        <time>2024-09-17T06:58:38Z</time>
      </trkpt>
      <trkpt lat="42.46307" lon="2.23308">
        <ele>1928</ele>
        <time>2024-09-17T06:58:41Z</time>
      </trkpt>
      <trkpt lat="42.46307" lon="2.2331">
        <ele>1927</ele>
        <time>2024-09-17T06:58:45Z</time>
      </trkpt>
      <trkpt lat="42.46308" lon="2.23313">
        <ele>1926</ele>
        <time>2024-09-17T06:58:50Z</time>
      </trkpt>
      <trkpt lat="42.46311" lon="2.23314">
        <ele>1925</ele>
        <time>2024-09-17T06:58:54Z</time>
      </trkpt>
      <trkpt lat="42.46313" lon="2.23318">
        <ele>1924</ele>
        <time>2024-09-17T06:59:02Z</time>
      </trkpt>
      <trkpt lat="42.46316" lon="2.23318">
        <ele>1925</ele>
        <time>2024-09-17T06:59:05Z</time>
      </trkpt>
      <trkpt lat="42.46318" lon="2.2332">
        <ele>1924</ele>
        <time>2024-09-17T06:59:11Z</time>
      </trkpt>
      <trkpt lat="42.4632" lon="2.23322">
        <ele>1922</ele>
        <time>2024-09-17T06:59:17Z</time>
      </trkpt>
      <trkpt lat="42.4632" lon="2.23325">
        <ele>1921</ele>
        <time>2024-09-17T06:59:20Z</time>
      </trkpt>
      <trkpt lat="42.4632" lon="2.23329">
        <ele>1919</ele>
        <time>2024-09-17T06:59:23Z</time>
      </trkpt>
      <trkpt lat="42.46319" lon="2.23333">
        <ele>1920</ele>
        <time>2024-09-17T06:59:25Z</time>
      </trkpt>
      <trkpt lat="42.4632" lon="2.23337">
        <ele>1919</ele>
        <time>2024-09-17T06:59:28Z</time>
      </trkpt>
      <trkpt lat="42.46321" lon="2.23341">
        <ele>1919</ele>
        <time>2024-09-17T06:59:31Z</time>
      </trkpt>
      <trkpt lat="42.46321" lon="2.23346">
        <ele>1919</ele>
        <time>2024-09-17T06:59:34Z</time>
      </trkpt>
      <trkpt lat="42.46322" lon="2.23349">
        <ele>1919</ele>
        <time>2024-09-17T06:59:37Z</time>
      </trkpt>
      <trkpt lat="42.46323" lon="2.23354">
        <ele>1918</ele>
        <time>2024-09-17T06:59:40Z</time>
      </trkpt>
      <trkpt lat="42.46323" lon="2.23359">
        <ele>1916</ele>
        <time>2024-09-17T06:59:45Z</time>
      </trkpt>
      <trkpt lat="42.46324" lon="2.23363">
        <ele>1915</ele>
        <time>2024-09-17T06:59:50Z</time>
      </trkpt>
      <trkpt lat="42.46326" lon="2.23366">
        <ele>1914</ele>
        <time>2024-09-17T06:59:55Z</time>
      </trkpt>
      <trkpt lat="42.46329" lon="2.2337">
        <ele>1914</ele>
        <time>2024-09-17T07:00:00Z</time>
      </trkpt>
      <trkpt lat="42.46331" lon="2.23372">
        <ele>1914</ele>
        <time>2024-09-17T07:00:03Z</time>
      </trkpt>
      <trkpt lat="42.46334" lon="2.23375">
        <ele>1912</ele>
        <time>2024-09-17T07:00:08Z</time>
      </trkpt>
      <trkpt lat="42.46337" lon="2.23378">
        <ele>1911</ele>
        <time>2024-09-17T07:00:15Z</time>
      </trkpt>
      <trkpt lat="42.46339" lon="2.23382">
        <ele>1911</ele>
        <time>2024-09-17T07:00:19Z</time>
      </trkpt>
      <trkpt lat="42.4634" lon="2.23385">
        <ele>1910</ele>
        <time>2024-09-17T07:00:25Z</time>
      </trkpt>
      <trkpt lat="42.46343" lon="2.23389">
        <ele>1909</ele>
        <time>2024-09-17T07:00:28Z</time>
      </trkpt>
      <trkpt lat="42.46345" lon="2.23391">
        <ele>1909</ele>
        <time>2024-09-17T07:00:31Z</time>
      </trkpt>
      <trkpt lat="42.46347" lon="2.23394">
        <ele>1908</ele>
        <time>2024-09-17T07:00:34Z</time>
      </trkpt>
      <trkpt lat="42.4635" lon="2.23396">
        <ele>1909</ele>
        <time>2024-09-17T07:00:36Z</time>
      </trkpt>
      <trkpt lat="42.46353" lon="2.23397">
        <ele>1908</ele>
        <time>2024-09-17T07:00:40Z</time>
      </trkpt>
      <trkpt lat="42.46356" lon="2.23398">
        <ele>1907</ele>
        <time>2024-09-17T07:00:43Z</time>
      </trkpt>
      <trkpt lat="42.4636" lon="2.23401">
        <ele>1907</ele>
        <time>2024-09-17T07:00:46Z</time>
      </trkpt>
      <trkpt lat="42.46362" lon="2.23403">
        <ele>1907</ele>
        <time>2024-09-17T07:00:48Z</time>
      </trkpt>
      <trkpt lat="42.46365" lon="2.23406">
        <ele>1907</ele>
        <time>2024-09-17T07:00:51Z</time>
      </trkpt>
      <trkpt lat="42.46366" lon="2.2341">
        <ele>1906</ele>
        <time>2024-09-17T07:00:55Z</time>
      </trkpt>
      <trkpt lat="42.46368" lon="2.23413">
        <ele>1905</ele>
        <time>2024-09-17T07:00:59Z</time>
      </trkpt>
      <trkpt lat="42.46371" lon="2.23415">
        <ele>1904</ele>
        <time>2024-09-17T07:01:02Z</time>
      </trkpt>
      <trkpt lat="42.46373" lon="2.23417">
        <ele>1904</ele>
        <time>2024-09-17T07:01:05Z</time>
      </trkpt>
      <trkpt lat="42.46376" lon="2.23419">
        <ele>1903</ele>
        <time>2024-09-17T07:01:08Z</time>
      </trkpt>
      <trkpt lat="42.46379" lon="2.2342">
        <ele>1903</ele>
        <time>2024-09-17T07:01:11Z</time>
      </trkpt>
      <trkpt lat="42.46382" lon="2.23421">
        <ele>1902</ele>
        <time>2024-09-17T07:01:13Z</time>
      </trkpt>
      <trkpt lat="42.46384" lon="2.23424">
        <ele>1902</ele>
        <time>2024-09-17T07:01:17Z</time>
      </trkpt>
      <trkpt lat="42.46387" lon="2.23424">
        <ele>1900</ele>
        <time>2024-09-17T07:01:19Z</time>
      </trkpt>
      <trkpt lat="42.4639" lon="2.23424">
        <ele>1900</ele>
        <time>2024-09-17T07:01:21Z</time>
      </trkpt>
      <trkpt lat="42.46393" lon="2.23424">
        <ele>1900</ele>
        <time>2024-09-17T07:01:24Z</time>
      </trkpt>
      <trkpt lat="42.46396" lon="2.23423">
        <ele>1900</ele>
        <time>2024-09-17T07:01:27Z</time>
      </trkpt>
      <trkpt lat="42.464" lon="2.23424">
        <ele>1900</ele>
        <time>2024-09-17T07:01:30Z</time>
      </trkpt>
      <trkpt lat="42.46402" lon="2.23425">
        <ele>1899</ele>
        <time>2024-09-17T07:01:33Z</time>
      </trkpt>
      <trkpt lat="42.46403" lon="2.23429">
        <ele>1897</ele>
        <time>2024-09-17T07:01:36Z</time>
      </trkpt>
      <trkpt lat="42.46404" lon="2.23433">
        <ele>1898</ele>
        <time>2024-09-17T07:01:39Z</time>
      </trkpt>
      <trkpt lat="42.46407" lon="2.23435">
        <ele>1897</ele>
        <time>2024-09-17T07:01:43Z</time>
      </trkpt>
      <trkpt lat="42.46408" lon="2.23439">
        <ele>1896</ele>
        <time>2024-09-17T07:01:46Z</time>
      </trkpt>
      <trkpt lat="42.46409" lon="2.23443">
        <ele>1895</ele>
        <time>2024-09-17T07:01:49Z</time>
      </trkpt>
      <trkpt lat="42.4641" lon="2.23447">
        <ele>1895</ele>
        <time>2024-09-17T07:01:52Z</time>
      </trkpt>
      <trkpt lat="42.46414" lon="2.23449">
        <ele>1894</ele>
        <time>2024-09-17T07:01:56Z</time>
      </trkpt>
      <trkpt lat="42.46416" lon="2.23452">
        <ele>1894</ele>
        <time>2024-09-17T07:01:59Z</time>
      </trkpt>
      <trkpt lat="42.46418" lon="2.23456">
        <ele>1894</ele>
        <time>2024-09-17T07:02:03Z</time>
      </trkpt>
      <trkpt lat="42.46419" lon="2.23459">
        <ele>1894</ele>
        <time>2024-09-17T07:02:05Z</time>
      </trkpt>
      <trkpt lat="42.46421" lon="2.23463">
        <ele>1894</ele>
        <time>2024-09-17T07:02:08Z</time>
      </trkpt>
      <trkpt lat="42.46422" lon="2.23466">
        <ele>1893</ele>
        <time>2024-09-17T07:02:11Z</time>
      </trkpt>
      <trkpt lat="42.46424" lon="2.23469">
        <ele>1894</ele>
        <time>2024-09-17T07:02:14Z</time>
      </trkpt>
      <trkpt lat="42.46427" lon="2.2347">
        <ele>1892</ele>
        <time>2024-09-17T07:02:17Z</time>
      </trkpt>
      <trkpt lat="42.46431" lon="2.2347">
        <ele>1892</ele>
        <time>2024-09-17T07:02:22Z</time>
      </trkpt>
      <trkpt lat="42.46433" lon="2.23473">
        <ele>1890</ele>
        <time>2024-09-17T07:02:25Z</time>
      </trkpt>
      <trkpt lat="42.46435" lon="2.23476">
        <ele>1889</ele>
        <time>2024-09-17T07:02:29Z</time>
      </trkpt>
      <trkpt lat="42.46436" lon="2.2348">
        <ele>1889</ele>
        <time>2024-09-17T07:02:32Z</time>
      </trkpt>
      <trkpt lat="42.46435" lon="2.23484">
        <ele>1888</ele>
        <time>2024-09-17T07:02:35Z</time>
      </trkpt>
      <trkpt lat="42.46436" lon="2.23488">
        <ele>1888</ele>
        <time>2024-09-17T07:02:37Z</time>
      </trkpt>
      <trkpt lat="42.46437" lon="2.23493">
        <ele>1888</ele>
        <time>2024-09-17T07:02:40Z</time>
      </trkpt>
      <trkpt lat="42.46439" lon="2.23496">
        <ele>1888</ele>
        <time>2024-09-17T07:02:44Z</time>
      </trkpt>
      <trkpt lat="42.4644" lon="2.235">
        <ele>1889</ele>
        <time>2024-09-17T07:02:47Z</time>
      </trkpt>
      <trkpt lat="42.46442" lon="2.23504">
        <ele>1892</ele>
        <time>2024-09-17T07:02:50Z</time>
      </trkpt>
      <trkpt lat="42.46443" lon="2.23508">
        <ele>1891</ele>
        <time>2024-09-17T07:02:52Z</time>
      </trkpt>
      <trkpt lat="42.46443" lon="2.23512">
        <ele>1890</ele>
        <time>2024-09-17T07:02:55Z</time>
      </trkpt>
      <trkpt lat="42.46444" lon="2.23516">
        <ele>1889</ele>
        <time>2024-09-17T07:02:57Z</time>
      </trkpt>
      <trkpt lat="42.46445" lon="2.2352">
        <ele>1888</ele>
        <time>2024-09-17T07:03:00Z</time>
      </trkpt>
      <trkpt lat="42.46448" lon="2.23522">
        <ele>1888</ele>
        <time>2024-09-17T07:03:03Z</time>
      </trkpt>
      <trkpt lat="42.46451" lon="2.23526">
        <ele>1887</ele>
        <time>2024-09-17T07:03:07Z</time>
      </trkpt>
      <trkpt lat="42.46453" lon="2.23529">
        <ele>1887</ele>
        <time>2024-09-17T07:03:09Z</time>
      </trkpt>
      <trkpt lat="42.46455" lon="2.23533">
        <ele>1888</ele>
        <time>2024-09-17T07:03:14Z</time>
      </trkpt>
      <trkpt lat="42.46455" lon="2.23537">
        <ele>1886</ele>
        <time>2024-09-17T07:03:17Z</time>
      </trkpt>
      <trkpt lat="42.46457" lon="2.23541">
        <ele>1886</ele>
        <time>2024-09-17T07:03:20Z</time>
      </trkpt>
      <trkpt lat="42.46457" lon="2.23545">
        <ele>1886</ele>
        <time>2024-09-17T07:03:25Z</time>
      </trkpt>
      <trkpt lat="42.46459" lon="2.23549">
        <ele>1886</ele>
        <time>2024-09-17T07:03:28Z</time>
      </trkpt>
      <trkpt lat="42.46461" lon="2.23552">
        <ele>1885</ele>
        <time>2024-09-17T07:03:31Z</time>
      </trkpt>
      <trkpt lat="42.46464" lon="2.23555">
        <ele>1885</ele>
        <time>2024-09-17T07:03:35Z</time>
      </trkpt>
      <trkpt lat="42.46467" lon="2.23557">
        <ele>1884</ele>
        <time>2024-09-17T07:03:37Z</time>
      </trkpt>
      <trkpt lat="42.46471" lon="2.2356">
        <ele>1884</ele>
        <time>2024-09-17T07:03:40Z</time>
      </trkpt>
      <trkpt lat="42.46475" lon="2.23561">
        <ele>1885</ele>
        <time>2024-09-17T07:03:42Z</time>
      </trkpt>
      <trkpt lat="42.46478" lon="2.23561">
        <ele>1885</ele>
        <time>2024-09-17T07:03:44Z</time>
      </trkpt>
      <trkpt lat="42.46481" lon="2.23564">
        <ele>1886</ele>
        <time>2024-09-17T07:03:47Z</time>
      </trkpt>
      <trkpt lat="42.46481" lon="2.23568">
        <ele>1884</ele>
        <time>2024-09-17T07:03:50Z</time>
      </trkpt>
      <trkpt lat="42.46481" lon="2.23572">
        <ele>1884</ele>
        <time>2024-09-17T07:03:52Z</time>
      </trkpt>
      <trkpt lat="42.46482" lon="2.23576">
        <ele>1884</ele>
        <time>2024-09-17T07:03:56Z</time>
      </trkpt>
      <trkpt lat="42.46483" lon="2.2358">
        <ele>1883</ele>
        <time>2024-09-17T07:03:59Z</time>
      </trkpt>
      <trkpt lat="42.46483" lon="2.23584">
        <ele>1883</ele>
        <time>2024-09-17T07:04:02Z</time>
      </trkpt>
      <trkpt lat="42.46485" lon="2.23587">
        <ele>1883</ele>
        <time>2024-09-17T07:04:04Z</time>
      </trkpt>
      <trkpt lat="42.46487" lon="2.2359">
        <ele>1882</ele>
        <time>2024-09-17T07:04:06Z</time>
      </trkpt>
      <trkpt lat="42.46489" lon="2.23593">
        <ele>1881</ele>
        <time>2024-09-17T07:04:10Z</time>
      </trkpt>
      <trkpt lat="42.46491" lon="2.23596">
        <ele>1881</ele>
        <time>2024-09-17T07:04:12Z</time>
      </trkpt>
      <trkpt lat="42.46493" lon="2.236">
        <ele>1881</ele>
        <time>2024-09-17T07:04:15Z</time>
      </trkpt>
      <trkpt lat="42.46494" lon="2.23604">
        <ele>1880</ele>
        <time>2024-09-17T07:04:18Z</time>
      </trkpt>
      <trkpt lat="42.46494" lon="2.23609">
        <ele>1880</ele>
        <time>2024-09-17T07:04:22Z</time>
      </trkpt>
      <trkpt lat="42.46495" lon="2.23613">
        <ele>1883</ele>
        <time>2024-09-17T07:04:26Z</time>
      </trkpt>
      <trkpt lat="42.46496" lon="2.23616">
        <ele>1882</ele>
        <time>2024-09-17T07:04:28Z</time>
      </trkpt>
      <trkpt lat="42.46495" lon="2.2362">
        <ele>1885</ele>
        <time>2024-09-17T07:04:32Z</time>
      </trkpt>
      <trkpt lat="42.46497" lon="2.23623">
        <ele>1888</ele>
        <time>2024-09-17T07:04:36Z</time>
      </trkpt>
      <trkpt lat="42.46499" lon="2.23627">
        <ele>1890</ele>
        <time>2024-09-17T07:04:39Z</time>
      </trkpt>
      <trkpt lat="42.46499" lon="2.23631">
        <ele>1889</ele>
        <time>2024-09-17T07:04:44Z</time>
      </trkpt>
      <trkpt lat="42.46497" lon="2.23634">
        <ele>1888</ele>
        <time>2024-09-17T07:04:50Z</time>
      </trkpt>
      <trkpt lat="42.46498" lon="2.23637">
        <ele>1888</ele>
        <time>2024-09-17T07:04:54Z</time>
      </trkpt>
      <trkpt lat="42.46499" lon="2.23641">
        <ele>1888</ele>
        <time>2024-09-17T07:04:57Z</time>
      </trkpt>
      <trkpt lat="42.46501" lon="2.23643">
        <ele>1888</ele>
        <time>2024-09-17T07:04:59Z</time>
      </trkpt>
      <trkpt lat="42.46504" lon="2.23643">
        <ele>1888</ele>
        <time>2024-09-17T07:05:02Z</time>
      </trkpt>
      <trkpt lat="42.46506" lon="2.23646">
        <ele>1889</ele>
        <time>2024-09-17T07:05:06Z</time>
      </trkpt>
      <trkpt lat="42.46507" lon="2.23649">
        <ele>1890</ele>
        <time>2024-09-17T07:05:09Z</time>
      </trkpt>
      <trkpt lat="42.4651" lon="2.23652">
        <ele>1889</ele>
        <time>2024-09-17T07:05:14Z</time>
      </trkpt>
      <trkpt lat="42.46513" lon="2.23655">
        <ele>1891</ele>
        <time>2024-09-17T07:05:16Z</time>
      </trkpt>
      <trkpt lat="42.46515" lon="2.23656">
        <ele>1889</ele>
        <time>2024-09-17T07:05:21Z</time>
      </trkpt>
      <trkpt lat="42.46517" lon="2.23659">
        <ele>1888</ele>
        <time>2024-09-17T07:05:24Z</time>
      </trkpt>
      <trkpt lat="42.46518" lon="2.23663">
        <ele>1889</ele>
        <time>2024-09-17T07:05:26Z</time>
      </trkpt>
      <trkpt lat="42.46517" lon="2.23667">
        <ele>1890</ele>
        <time>2024-09-17T07:05:31Z</time>
      </trkpt>
      <trkpt lat="42.46516" lon="2.23672">
        <ele>1891</ele>
        <time>2024-09-17T07:05:35Z</time>
      </trkpt>
      <trkpt lat="42.46518" lon="2.23675">
        <ele>1892</ele>
        <time>2024-09-17T07:05:37Z</time>
      </trkpt>
      <trkpt lat="42.4652" lon="2.23679">
        <ele>1892</ele>
        <time>2024-09-17T07:05:40Z</time>
      </trkpt>
      <trkpt lat="42.4652" lon="2.23683">
        <ele>1891</ele>
        <time>2024-09-17T07:05:43Z</time>
      </trkpt>
      <trkpt lat="42.4652" lon="2.23687">
        <ele>1892</ele>
        <time>2024-09-17T07:05:48Z</time>
      </trkpt>
      <trkpt lat="42.4652" lon="2.23691">
        <ele>1891</ele>
        <time>2024-09-17T07:05:51Z</time>
      </trkpt>
      <trkpt lat="42.46519" lon="2.23696">
        <ele>1893</ele>
        <time>2024-09-17T07:05:55Z</time>
      </trkpt>
      <trkpt lat="42.46517" lon="2.23698">
        <ele>1893</ele>
        <time>2024-09-17T07:05:58Z</time>
      </trkpt>
      <trkpt lat="42.46516" lon="2.23702">
        <ele>1892</ele>
        <time>2024-09-17T07:06:00Z</time>
      </trkpt>
      <trkpt lat="42.46517" lon="2.23705">
        <ele>1890</ele>
        <time>2024-09-17T07:06:02Z</time>
      </trkpt>
      <trkpt lat="42.46518" lon="2.23709">
        <ele>1889</ele>
        <time>2024-09-17T07:06:05Z</time>
      </trkpt>
      <trkpt lat="42.46518" lon="2.23713">
        <ele>1888</ele>
        <time>2024-09-17T07:06:07Z</time>
      </trkpt>
      <trkpt lat="42.4652" lon="2.23718">
        <ele>1888</ele>
        <time>2024-09-17T07:06:13Z</time>
      </trkpt>
      <trkpt lat="42.46519" lon="2.23723">
        <ele>1889</ele>
        <time>2024-09-17T07:06:15Z</time>
      </trkpt>
      <trkpt lat="42.46519" lon="2.23727">
        <ele>1889</ele>
        <time>2024-09-17T07:06:18Z</time>
      </trkpt>
      <trkpt lat="42.46519" lon="2.23731">
        <ele>1891</ele>
        <time>2024-09-17T07:06:22Z</time>
      </trkpt>
      <trkpt lat="42.46519" lon="2.23737">
        <ele>1890</ele>
        <time>2024-09-17T07:06:27Z</time>
      </trkpt>
      <trkpt lat="42.4652" lon="2.23741">
        <ele>1888</ele>
        <time>2024-09-17T07:06:29Z</time>
      </trkpt>
      <trkpt lat="42.46523" lon="2.23744">
        <ele>1890</ele>
        <time>2024-09-17T07:06:32Z</time>
      </trkpt>
      <trkpt lat="42.46527" lon="2.23746">
        <ele>1889</ele>
        <time>2024-09-17T07:06:36Z</time>
      </trkpt>
      <trkpt lat="42.46529" lon="2.2375">
        <ele>1887</ele>
        <time>2024-09-17T07:06:39Z</time>
      </trkpt>
      <trkpt lat="42.46529" lon="2.23755">
        <ele>1889</ele>
        <time>2024-09-17T07:06:41Z</time>
      </trkpt>
      <trkpt lat="42.46529" lon="2.23759">
        <ele>1890</ele>
        <time>2024-09-17T07:06:43Z</time>
      </trkpt>
      <trkpt lat="42.46528" lon="2.23763">
        <ele>1889</ele>
        <time>2024-09-17T07:06:47Z</time>
      </trkpt>
      <trkpt lat="42.46528" lon="2.23767">
        <ele>1890</ele>
        <time>2024-09-17T07:06:49Z</time>
      </trkpt>
      <trkpt lat="42.46528" lon="2.23771">
        <ele>1890</ele>
        <time>2024-09-17T07:06:52Z</time>
      </trkpt>
      <trkpt lat="42.46529" lon="2.23775">
        <ele>1890</ele>
        <time>2024-09-17T07:06:55Z</time>
      </trkpt>
      <trkpt lat="42.46529" lon="2.23779">
        <ele>1890</ele>
        <time>2024-09-17T07:06:58Z</time>
      </trkpt>
      <trkpt lat="42.46529" lon="2.23784">
        <ele>1891</ele>
        <time>2024-09-17T07:07:02Z</time>
      </trkpt>
      <trkpt lat="42.46527" lon="2.23788">
        <ele>1891</ele>
        <time>2024-09-17T07:07:04Z</time>
      </trkpt>
      <trkpt lat="42.46525" lon="2.23792">
        <ele>1891</ele>
        <time>2024-09-17T07:07:09Z</time>
      </trkpt>
      <trkpt lat="42.46523" lon="2.23797">
        <ele>1892</ele>
        <time>2024-09-17T07:07:12Z</time>
      </trkpt>
      <trkpt lat="42.46521" lon="2.23802">
        <ele>1891</ele>
        <time>2024-09-17T07:07:15Z</time>
      </trkpt>
      <trkpt lat="42.46521" lon="2.23807">
        <ele>1887</ele>
        <time>2024-09-17T07:07:20Z</time>
      </trkpt>
      <trkpt lat="42.46523" lon="2.23812">
        <ele>1885</ele>
        <time>2024-09-17T07:07:24Z</time>
      </trkpt>
      <trkpt lat="42.46524" lon="2.23817">
        <ele>1885</ele>
        <time>2024-09-17T07:07:28Z</time>
      </trkpt>
      <trkpt lat="42.46524" lon="2.23821">
        <ele>1884</ele>
        <time>2024-09-17T07:07:31Z</time>
      </trkpt>
      <trkpt lat="42.46527" lon="2.23823">
        <ele>1884</ele>
        <time>2024-09-17T07:07:33Z</time>
      </trkpt>
      <trkpt lat="42.4653" lon="2.23825">
        <ele>1885</ele>
        <time>2024-09-17T07:07:35Z</time>
      </trkpt>
      <trkpt lat="42.46532" lon="2.23825">
        <ele>1886</ele>
        <time>2024-09-17T07:07:37Z</time>
      </trkpt>
      <trkpt lat="42.46535" lon="2.23826">
        <ele>1887</ele>
        <time>2024-09-17T07:07:39Z</time>
      </trkpt>
      <trkpt lat="42.46539" lon="2.23827">
        <ele>1887</ele>
        <time>2024-09-17T07:07:41Z</time>
      </trkpt>
      <trkpt lat="42.46542" lon="2.23829">
        <ele>1887</ele>
        <time>2024-09-17T07:07:45Z</time>
      </trkpt>
      <trkpt lat="42.46545" lon="2.23831">
        <ele>1886</ele>
        <time>2024-09-17T07:07:47Z</time>
      </trkpt>
      <trkpt lat="42.46546" lon="2.23834">
        <ele>1887</ele>
        <time>2024-09-17T07:07:49Z</time>
      </trkpt>
      <trkpt lat="42.46546" lon="2.23838">
        <ele>1886</ele>
        <time>2024-09-17T07:07:52Z</time>
      </trkpt>
      <trkpt lat="42.46548" lon="2.23842">
        <ele>1885</ele>
        <time>2024-09-17T07:07:54Z</time>
      </trkpt>
      <trkpt lat="42.46548" lon="2.23846">
        <ele>1886</ele>
        <time>2024-09-17T07:07:56Z</time>
      </trkpt>
      <trkpt lat="42.46548" lon="2.23851">
        <ele>1884</ele>
        <time>2024-09-17T07:08:00Z</time>
      </trkpt>
      <trkpt lat="42.46549" lon="2.23856">
        <ele>1885</ele>
        <time>2024-09-17T07:08:03Z</time>
      </trkpt>
      <trkpt lat="42.46548" lon="2.2386">
        <ele>1882</ele>
        <time>2024-09-17T07:08:08Z</time>
      </trkpt>
      <trkpt lat="42.46549" lon="2.23864">
        <ele>1881</ele>
        <time>2024-09-17T07:08:11Z</time>
      </trkpt>
      <trkpt lat="42.46551" lon="2.23867">
        <ele>1880</ele>
        <time>2024-09-17T07:08:15Z</time>
      </trkpt>
      <trkpt lat="42.46553" lon="2.23871">
        <ele>1881</ele>
        <time>2024-09-17T07:08:18Z</time>
      </trkpt>
      <trkpt lat="42.46555" lon="2.23874">
        <ele>1881</ele>
        <time>2024-09-17T07:08:21Z</time>
      </trkpt>
      <trkpt lat="42.46557" lon="2.23878">
        <ele>1881</ele>
        <time>2024-09-17T07:08:24Z</time>
      </trkpt>
      <trkpt lat="42.46559" lon="2.23881">
        <ele>1880</ele>
        <time>2024-09-17T07:08:27Z</time>
      </trkpt>
      <trkpt lat="42.46562" lon="2.23884">
        <ele>1878</ele>
        <time>2024-09-17T07:08:31Z</time>
      </trkpt>
      <trkpt lat="42.46564" lon="2.23887">
        <ele>1878</ele>
        <time>2024-09-17T07:08:33Z</time>
      </trkpt>
      <trkpt lat="42.46566" lon="2.23891">
        <ele>1877</ele>
        <time>2024-09-17T07:08:38Z</time>
      </trkpt>
      <trkpt lat="42.46567" lon="2.23895">
        <ele>1877</ele>
        <time>2024-09-17T07:08:41Z</time>
      </trkpt>
      <trkpt lat="42.46569" lon="2.23898">
        <ele>1875</ele>
        <time>2024-09-17T07:08:44Z</time>
      </trkpt>
      <trkpt lat="42.46571" lon="2.23901">
        <ele>1875</ele>
        <time>2024-09-17T07:08:47Z</time>
      </trkpt>
      <trkpt lat="42.46573" lon="2.23904">
        <ele>1875</ele>
        <time>2024-09-17T07:08:52Z</time>
      </trkpt>
      <trkpt lat="42.46574" lon="2.23908">
        <ele>1874</ele>
        <time>2024-09-17T07:08:56Z</time>
      </trkpt>
      <trkpt lat="42.46575" lon="2.23913">
        <ele>1875</ele>
        <time>2024-09-17T07:09:00Z</time>
      </trkpt>
      <trkpt lat="42.46577" lon="2.23917">
        <ele>1874</ele>
        <time>2024-09-17T07:09:04Z</time>
      </trkpt>
      <trkpt lat="42.46579" lon="2.2392">
        <ele>1874</ele>
        <time>2024-09-17T07:09:08Z</time>
      </trkpt>
      <trkpt lat="42.46582" lon="2.23923">
        <ele>1874</ele>
        <time>2024-09-17T07:09:09Z</time>
      </trkpt>
      <trkpt lat="42.46583" lon="2.23927">
        <ele>1873</ele>
        <time>2024-09-17T07:09:13Z</time>
      </trkpt>
      <trkpt lat="42.46585" lon="2.23931">
        <ele>1872</ele>
        <time>2024-09-17T07:09:16Z</time>
      </trkpt>
      <trkpt lat="42.46586" lon="2.23936">
        <ele>1872</ele>
        <time>2024-09-17T07:09:19Z</time>
      </trkpt>
      <trkpt lat="42.46587" lon="2.23941">
        <ele>1873</ele>
        <time>2024-09-17T07:09:23Z</time>
      </trkpt>
      <trkpt lat="42.46589" lon="2.23944">
        <ele>1872</ele>
        <time>2024-09-17T07:09:25Z</time>
      </trkpt>
      <trkpt lat="42.46589" lon="2.23948">
        <ele>1871</ele>
        <time>2024-09-17T07:09:28Z</time>
      </trkpt>
      <trkpt lat="42.46591" lon="2.2395">
        <ele>1870</ele>
        <time>2024-09-17T07:09:30Z</time>
      </trkpt>
      <trkpt lat="42.46593" lon="2.23953">
        <ele>1870</ele>
        <time>2024-09-17T07:09:33Z</time>
      </trkpt>
      <trkpt lat="42.46596" lon="2.23956">
        <ele>1869</ele>
        <time>2024-09-17T07:09:37Z</time>
      </trkpt>
      <trkpt lat="42.46598" lon="2.2396">
        <ele>1869</ele>
        <time>2024-09-17T07:09:39Z</time>
      </trkpt>
      <trkpt lat="42.466" lon="2.23964">
        <ele>1869</ele>
        <time>2024-09-17T07:09:42Z</time>
      </trkpt>
      <trkpt lat="42.46602" lon="2.23968">
        <ele>1869</ele>
        <time>2024-09-17T07:09:45Z</time>
      </trkpt>
      <trkpt lat="42.46604" lon="2.23971">
        <ele>1868</ele>
        <time>2024-09-17T07:09:49Z</time>
      </trkpt>
      <trkpt lat="42.46606" lon="2.23975">
        <ele>1868</ele>
        <time>2024-09-17T07:09:52Z</time>
      </trkpt>
      <trkpt lat="42.46609" lon="2.23977">
        <ele>1868</ele>
        <time>2024-09-17T07:09:55Z</time>
      </trkpt>
      <trkpt lat="42.46613" lon="2.23979">
        <ele>1869</ele>
        <time>2024-09-17T07:09:57Z</time>
      </trkpt>
      <trkpt lat="42.46617" lon="2.23981">
        <ele>1870</ele>
        <time>2024-09-17T07:10:00Z</time>
      </trkpt>
      <trkpt lat="42.46619" lon="2.23984">
        <ele>1870</ele>
        <time>2024-09-17T07:10:05Z</time>
      </trkpt>
      <trkpt lat="42.46622" lon="2.23986">
        <ele>1870</ele>
        <time>2024-09-17T07:10:07Z</time>
      </trkpt>
      <trkpt lat="42.46625" lon="2.23988">
        <ele>1869</ele>
        <time>2024-09-17T07:10:10Z</time>
      </trkpt>
      <trkpt lat="42.46626" lon="2.23992">
        <ele>1869</ele>
        <time>2024-09-17T07:10:12Z</time>
      </trkpt>
      <trkpt lat="42.46628" lon="2.23995">
        <ele>1869</ele>
        <time>2024-09-17T07:10:17Z</time>
      </trkpt>
      <trkpt lat="42.46629" lon="2.23999">
        <ele>1869</ele>
        <time>2024-09-17T07:10:19Z</time>
      </trkpt>
      <trkpt lat="42.4663" lon="2.24003">
        <ele>1869</ele>
        <time>2024-09-17T07:10:21Z</time>
      </trkpt>
      <trkpt lat="42.4663" lon="2.24007">
        <ele>1869</ele>
        <time>2024-09-17T07:10:25Z</time>
      </trkpt>
      <trkpt lat="42.4663" lon="2.24011">
        <ele>1868</ele>
        <time>2024-09-17T07:10:28Z</time>
      </trkpt>
      <trkpt lat="42.46629" lon="2.24015">
        <ele>1868</ele>
        <time>2024-09-17T07:10:33Z</time>
      </trkpt>
      <trkpt lat="42.46628" lon="2.24018">
        <ele>1869</ele>
        <time>2024-09-17T07:10:35Z</time>
      </trkpt>
      <trkpt lat="42.46629" lon="2.24022">
        <ele>1868</ele>
        <time>2024-09-17T07:10:37Z</time>
      </trkpt>
      <trkpt lat="42.46631" lon="2.24025">
        <ele>1867</ele>
        <time>2024-09-17T07:10:41Z</time>
      </trkpt>
      <trkpt lat="42.46634" lon="2.24028">
        <ele>1867</ele>
        <time>2024-09-17T07:10:44Z</time>
      </trkpt>
      <trkpt lat="42.46637" lon="2.24031">
        <ele>1867</ele>
        <time>2024-09-17T07:10:47Z</time>
      </trkpt>
      <trkpt lat="42.4664" lon="2.24034">
        <ele>1867</ele>
        <time>2024-09-17T07:10:49Z</time>
      </trkpt>
      <trkpt lat="42.4664" lon="2.24038">
        <ele>1866</ele>
        <time>2024-09-17T07:10:53Z</time>
      </trkpt>
      <trkpt lat="42.46641" lon="2.24041">
        <ele>1865</ele>
        <time>2024-09-17T07:10:56Z</time>
      </trkpt>
      <trkpt lat="42.46641" lon="2.24045">
        <ele>1867</ele>
        <time>2024-09-17T07:11:02Z</time>
      </trkpt>
      <trkpt lat="42.46644" lon="2.24047">
        <ele>1867</ele>
        <time>2024-09-17T07:11:05Z</time>
      </trkpt>
      <trkpt lat="42.46647" lon="2.24049">
        <ele>1868</ele>
        <time>2024-09-17T07:11:07Z</time>
      </trkpt>
      <trkpt lat="42.46649" lon="2.24052">
        <ele>1868</ele>
        <time>2024-09-17T07:11:09Z</time>
      </trkpt>
      <trkpt lat="42.4665" lon="2.24056">
        <ele>1868</ele>
        <time>2024-09-17T07:11:12Z</time>
      </trkpt>
      <trkpt lat="42.4665" lon="2.2406">
        <ele>1868</ele>
        <time>2024-09-17T07:11:13Z</time>
      </trkpt>
      <trkpt lat="42.46648" lon="2.24063">
        <ele>1869</ele>
        <time>2024-09-17T07:11:19Z</time>
      </trkpt>
      <trkpt lat="42.46646" lon="2.24067">
        <ele>1869</ele>
        <time>2024-09-17T07:11:20Z</time>
      </trkpt>
      <trkpt lat="42.46644" lon="2.2407">
        <ele>1870</ele>
        <time>2024-09-17T07:11:24Z</time>
      </trkpt>
      <trkpt lat="42.46643" lon="2.24074">
        <ele>1869</ele>
        <time>2024-09-17T07:11:27Z</time>
      </trkpt>
      <trkpt lat="42.46646" lon="2.24076">
        <ele>1870</ele>
        <time>2024-09-17T07:11:28Z</time>
      </trkpt>
      <trkpt lat="42.46649" lon="2.24079">
        <ele>1869</ele>
        <time>2024-09-17T07:11:29Z</time>
      </trkpt>
      <trkpt lat="42.46654" lon="2.24081">
        <ele>1869</ele>
        <time>2024-09-17T07:11:35Z</time>
      </trkpt>
      <trkpt lat="42.46657" lon="2.24084">
        <ele>1869</ele>
        <time>2024-09-17T07:11:37Z</time>
      </trkpt>
      <trkpt lat="42.46655" lon="2.24087">
        <ele>1869</ele>
        <time>2024-09-17T07:11:40Z</time>
      </trkpt>
      <trkpt lat="42.46654" lon="2.2409">
        <ele>1869</ele>
        <time>2024-09-17T07:11:42Z</time>
      </trkpt>
      <trkpt lat="42.46653" lon="2.24095">
        <ele>1870</ele>
        <time>2024-09-17T07:11:45Z</time>
      </trkpt>
      <trkpt lat="42.46654" lon="2.24098">
        <ele>1870</ele>
        <time>2024-09-17T07:11:47Z</time>
      </trkpt>
      <trkpt lat="42.46656" lon="2.24102">
        <ele>1871</ele>
        <time>2024-09-17T07:11:51Z</time>
      </trkpt>
      <trkpt lat="42.46655" lon="2.24106">
        <ele>1872</ele>
        <time>2024-09-17T07:11:54Z</time>
      </trkpt>
      <trkpt lat="42.46652" lon="2.24107">
        <ele>1872</ele>
        <time>2024-09-17T07:11:55Z</time>
      </trkpt>
      <trkpt lat="42.46653" lon="2.24109">
        <ele>1873</ele>
        <time>2024-09-17T07:11:58Z</time>
      </trkpt>
      <trkpt lat="42.46651" lon="2.24112">
        <ele>1873</ele>
        <time>2024-09-17T07:12:00Z</time>
      </trkpt>
      <trkpt lat="42.46653" lon="2.24114">
        <ele>1874</ele>
        <time>2024-09-17T07:12:03Z</time>
      </trkpt>
      <trkpt lat="42.46655" lon="2.24116">
        <ele>1874</ele>
        <time>2024-09-17T07:12:07Z</time>
      </trkpt>
      <trkpt lat="42.46657" lon="2.24121">
        <ele>1874</ele>
        <time>2024-09-17T07:12:09Z</time>
      </trkpt>
      <trkpt lat="42.46655" lon="2.24124">
        <ele>1875</ele>
        <time>2024-09-17T07:12:11Z</time>
      </trkpt>
      <trkpt lat="42.46656" lon="2.24127">
        <ele>1876</ele>
        <time>2024-09-17T07:12:13Z</time>
      </trkpt>
      <trkpt lat="42.46654" lon="2.24128">
        <ele>1878</ele>
        <time>2024-09-17T07:12:15Z</time>
      </trkpt>
      <trkpt lat="42.46653" lon="2.24131">
        <ele>1877</ele>
        <time>2024-09-17T07:12:21Z</time>
      </trkpt>
      <trkpt lat="42.46655" lon="2.24133">
        <ele>1876</ele>
        <time>2024-09-17T07:12:23Z</time>
      </trkpt>
      <trkpt lat="42.46656" lon="2.24137">
        <ele>1877</ele>
        <time>2024-09-17T07:12:26Z</time>
      </trkpt>
      <trkpt lat="42.46654" lon="2.24138">
        <ele>1875</ele>
        <time>2024-09-17T07:12:28Z</time>
      </trkpt>
      <trkpt lat="42.46656" lon="2.2414">
        <ele>1878</ele>
        <time>2024-09-17T07:12:30Z</time>
      </trkpt>
      <trkpt lat="42.46658" lon="2.24143">
        <ele>1878</ele>
        <time>2024-09-17T07:12:34Z</time>
      </trkpt>
      <trkpt lat="42.46661" lon="2.24147">
        <ele>1878</ele>
        <time>2024-09-17T07:12:36Z</time>
      </trkpt>
      <trkpt lat="42.46664" lon="2.24149">
        <ele>1878</ele>
        <time>2024-09-17T07:12:38Z</time>
      </trkpt>
      <trkpt lat="42.46667" lon="2.2415">
        <ele>1879</ele>
        <time>2024-09-17T07:12:41Z</time>
      </trkpt>
      <trkpt lat="42.46667" lon="2.24152">
        <ele>1880</ele>
        <time>2024-09-17T07:12:43Z</time>
      </trkpt>
      <trkpt lat="42.46666" lon="2.24156">
        <ele>1880</ele>
        <time>2024-09-17T07:12:46Z</time>
      </trkpt>
      <trkpt lat="42.46666" lon="2.2416">
        <ele>1881</ele>
        <time>2024-09-17T07:12:52Z</time>
      </trkpt>
      <trkpt lat="42.46667" lon="2.24164">
        <ele>1881</ele>
        <time>2024-09-17T07:12:55Z</time>
      </trkpt>
      <trkpt lat="42.46668" lon="2.24168">
        <ele>1881</ele>
        <time>2024-09-17T07:12:58Z</time>
      </trkpt>
      <trkpt lat="42.46669" lon="2.24171">
        <ele>1882</ele>
        <time>2024-09-17T07:13:03Z</time>
      </trkpt>
      <trkpt lat="42.46669" lon="2.24176">
        <ele>1881</ele>
        <time>2024-09-17T07:13:06Z</time>
      </trkpt>
      <trkpt lat="42.4667" lon="2.2418">
        <ele>1881</ele>
        <time>2024-09-17T07:13:11Z</time>
      </trkpt>
      <trkpt lat="42.4667" lon="2.24184">
        <ele>1880</ele>
        <time>2024-09-17T07:13:15Z</time>
      </trkpt>
      <trkpt lat="42.4667" lon="2.24188">
        <ele>1880</ele>
        <time>2024-09-17T07:13:18Z</time>
      </trkpt>
      <trkpt lat="42.46668" lon="2.24192">
        <ele>1881</ele>
        <time>2024-09-17T07:13:23Z</time>
      </trkpt>
      <trkpt lat="42.46669" lon="2.24195">
        <ele>1880</ele>
        <time>2024-09-17T07:13:26Z</time>
      </trkpt>
      <trkpt lat="42.4667" lon="2.24198">
        <ele>1881</ele>
        <time>2024-09-17T07:13:28Z</time>
      </trkpt>
      <trkpt lat="42.46672" lon="2.24201">
        <ele>1882</ele>
        <time>2024-09-17T07:13:29Z</time>
      </trkpt>
      <trkpt lat="42.46672" lon="2.24205">
        <ele>1883</ele>
        <time>2024-09-17T07:13:33Z</time>
      </trkpt>
      <trkpt lat="42.46671" lon="2.2421">
        <ele>1883</ele>
        <time>2024-09-17T07:13:40Z</time>
      </trkpt>
      <trkpt lat="42.46672" lon="2.24212">
        <ele>1884</ele>
        <time>2024-09-17T07:13:41Z</time>
      </trkpt>
      <trkpt lat="42.46672" lon="2.24215">
        <ele>1884</ele>
        <time>2024-09-17T07:13:46Z</time>
      </trkpt>
      <trkpt lat="42.46673" lon="2.24218">
        <ele>1885</ele>
        <time>2024-09-17T07:13:49Z</time>
      </trkpt>
      <trkpt lat="42.46673" lon="2.24222">
        <ele>1884</ele>
        <time>2024-09-17T07:13:54Z</time>
      </trkpt>
      <trkpt lat="42.46671" lon="2.24227">
        <ele>1885</ele>
        <time>2024-09-17T07:13:58Z</time>
      </trkpt>
      <trkpt lat="42.46669" lon="2.24231">
        <ele>1886</ele>
        <time>2024-09-17T07:14:02Z</time>
      </trkpt>
      <trkpt lat="42.46667" lon="2.24235">
        <ele>1887</ele>
        <time>2024-09-17T07:14:04Z</time>
      </trkpt>
      <trkpt lat="42.46665" lon="2.24239">
        <ele>1888</ele>
        <time>2024-09-17T07:14:06Z</time>
      </trkpt>
      <trkpt lat="42.46666" lon="2.24242">
        <ele>1889</ele>
        <time>2024-09-17T07:14:15Z</time>
      </trkpt>
      <trkpt lat="42.46664" lon="2.24245">
        <ele>1889</ele>
        <time>2024-09-17T07:14:20Z</time>
      </trkpt>
      <trkpt lat="42.46662" lon="2.24249">
        <ele>1890</ele>
        <time>2024-09-17T07:14:24Z</time>
      </trkpt>
      <trkpt lat="42.46662" lon="2.24254">
        <ele>1891</ele>
        <time>2024-09-17T07:14:28Z</time>
      </trkpt>
      <trkpt lat="42.46662" lon="2.24258">
        <ele>1892</ele>
        <time>2024-09-17T07:14:34Z</time>
      </trkpt>
      <trkpt lat="42.4666" lon="2.24261">
        <ele>1892</ele>
        <time>2024-09-17T07:14:39Z</time>
      </trkpt>
      <trkpt lat="42.46659" lon="2.24265">
        <ele>1893</ele>
        <time>2024-09-17T07:14:42Z</time>
      </trkpt>
      <trkpt lat="42.46657" lon="2.24267">
        <ele>1893</ele>
        <time>2024-09-17T07:14:44Z</time>
      </trkpt>
      <trkpt lat="42.46656" lon="2.24272">
        <ele>1894</ele>
        <time>2024-09-17T07:14:49Z</time>
      </trkpt>
      <trkpt lat="42.4666" lon="2.24272">
        <ele>1897</ele>
        <time>2024-09-17T07:15:01Z</time>
      </trkpt>
      <trkpt lat="42.46662" lon="2.24275">
        <ele>1897</ele>
        <time>2024-09-17T07:15:04Z</time>
      </trkpt>
      <trkpt lat="42.46659" lon="2.24276">
        <ele>1897</ele>
        <time>2024-09-17T07:15:07Z</time>
      </trkpt>
      <trkpt lat="42.46655" lon="2.24277">
        <ele>1898</ele>
        <time>2024-09-17T07:15:13Z</time>
      </trkpt>
      <trkpt lat="42.46654" lon="2.2428">
        <ele>1898</ele>
        <time>2024-09-17T07:15:17Z</time>
      </trkpt>
      <trkpt lat="42.46656" lon="2.24284">
        <ele>1898</ele>
        <time>2024-09-17T07:15:20Z</time>
      </trkpt>
      <trkpt lat="42.46658" lon="2.24284">
        <ele>1898</ele>
        <time>2024-09-17T07:15:21Z</time>
      </trkpt>
      <trkpt lat="42.46659" lon="2.24287">
        <ele>1898</ele>
        <time>2024-09-17T07:15:23Z</time>
      </trkpt>
      <trkpt lat="42.46658" lon="2.24289">
        <ele>1899</ele>
        <time>2024-09-17T07:15:27Z</time>
      </trkpt>
      <trkpt lat="42.46656" lon="2.24291">
        <ele>1901</ele>
        <time>2024-09-17T07:15:30Z</time>
      </trkpt>
      <trkpt lat="42.46658" lon="2.24294">
        <ele>1899</ele>
        <time>2024-09-17T07:15:32Z</time>
      </trkpt>
      <trkpt lat="42.4666" lon="2.24297">
        <ele>1901</ele>
        <time>2024-09-17T07:15:34Z</time>
      </trkpt>
      <trkpt lat="42.46661" lon="2.24301">
        <ele>1902</ele>
        <time>2024-09-17T07:15:42Z</time>
      </trkpt>
      <trkpt lat="42.46658" lon="2.24304">
        <ele>1902</ele>
        <time>2024-09-17T07:15:45Z</time>
      </trkpt>
      <trkpt lat="42.46657" lon="2.24308">
        <ele>1902</ele>
        <time>2024-09-17T07:15:48Z</time>
      </trkpt>
      <trkpt lat="42.46656" lon="2.24312">
        <ele>1902</ele>
        <time>2024-09-17T07:15:52Z</time>
      </trkpt>
      <trkpt lat="42.46655" lon="2.24316">
        <ele>1903</ele>
        <time>2024-09-17T07:15:56Z</time>
      </trkpt>
      <trkpt lat="42.46653" lon="2.24319">
        <ele>1903</ele>
        <time>2024-09-17T07:16:02Z</time>
      </trkpt>
      <trkpt lat="42.46652" lon="2.24322">
        <ele>1902</ele>
        <time>2024-09-17T07:16:06Z</time>
      </trkpt>
      <trkpt lat="42.46651" lon="2.24326">
        <ele>1901</ele>
        <time>2024-09-17T07:16:10Z</time>
      </trkpt>
      <trkpt lat="42.46648" lon="2.2433">
        <ele>1905</ele>
        <time>2024-09-17T07:16:15Z</time>
      </trkpt>
      <trkpt lat="42.46647" lon="2.24334">
        <ele>1907</ele>
        <time>2024-09-17T07:16:19Z</time>
      </trkpt>
      <trkpt lat="42.46644" lon="2.24337">
        <ele>1907</ele>
        <time>2024-09-17T07:16:22Z</time>
      </trkpt>
      <trkpt lat="42.46644" lon="2.2434">
        <ele>1906</ele>
        <time>2024-09-17T07:16:24Z</time>
      </trkpt>
      <trkpt lat="42.46644" lon="2.24344">
        <ele>1905</ele>
        <time>2024-09-17T07:16:29Z</time>
      </trkpt>
      <trkpt lat="42.46644" lon="2.24349">
        <ele>1905</ele>
        <time>2024-09-17T07:16:34Z</time>
      </trkpt>
      <trkpt lat="42.46643" lon="2.24353">
        <ele>1906</ele>
        <time>2024-09-17T07:16:39Z</time>
      </trkpt>
      <trkpt lat="42.46642" lon="2.24357">
        <ele>1907</ele>
        <time>2024-09-17T07:16:42Z</time>
      </trkpt>
      <trkpt lat="42.46641" lon="2.24361">
        <ele>1906</ele>
        <time>2024-09-17T07:16:45Z</time>
      </trkpt>
      <trkpt lat="42.46639" lon="2.24366">
        <ele>1905</ele>
        <time>2024-09-17T07:16:50Z</time>
      </trkpt>
      <trkpt lat="42.46638" lon="2.2437">
        <ele>1907</ele>
        <time>2024-09-17T07:16:53Z</time>
      </trkpt>
      <trkpt lat="42.46636" lon="2.24373">
        <ele>1905</ele>
        <time>2024-09-17T07:16:57Z</time>
      </trkpt>
      <trkpt lat="42.46634" lon="2.24377">
        <ele>1904</ele>
        <time>2024-09-17T07:17:02Z</time>
      </trkpt>
      <trkpt lat="42.46633" lon="2.24381">
        <ele>1904</ele>
        <time>2024-09-17T07:17:04Z</time>
      </trkpt>
      <trkpt lat="42.46632" lon="2.24385">
        <ele>1905</ele>
        <time>2024-09-17T07:17:08Z</time>
      </trkpt>
      <trkpt lat="42.46631" lon="2.24388">
        <ele>1905</ele>
        <time>2024-09-17T07:17:12Z</time>
      </trkpt>
      <trkpt lat="42.46629" lon="2.24391">
        <ele>1906</ele>
        <time>2024-09-17T07:17:16Z</time>
      </trkpt>
      <trkpt lat="42.46628" lon="2.24396">
        <ele>1904</ele>
        <time>2024-09-17T07:18:00Z</time>
      </trkpt>
      <trkpt lat="42.46627" lon="2.244">
        <ele>1905</ele>
        <time>2024-09-17T07:18:03Z</time>
      </trkpt>
      <trkpt lat="42.46625" lon="2.24404">
        <ele>1906</ele>
        <time>2024-09-17T07:18:05Z</time>
      </trkpt>
      <trkpt lat="42.46624" lon="2.24408">
        <ele>1905</ele>
        <time>2024-09-17T07:18:09Z</time>
      </trkpt>
      <trkpt lat="42.46622" lon="2.24412">
        <ele>1905</ele>
        <time>2024-09-17T07:18:12Z</time>
      </trkpt>
      <trkpt lat="42.4662" lon="2.24415">
        <ele>1906</ele>
        <time>2024-09-17T07:18:14Z</time>
      </trkpt>
      <trkpt lat="42.46618" lon="2.24419">
        <ele>1906</ele>
        <time>2024-09-17T07:18:17Z</time>
      </trkpt>
      <trkpt lat="42.46618" lon="2.24423">
        <ele>1906</ele>
        <time>2024-09-17T07:18:20Z</time>
      </trkpt>
      <trkpt lat="42.46617" lon="2.24427">
        <ele>1907</ele>
        <time>2024-09-17T07:18:22Z</time>
      </trkpt>
      <trkpt lat="42.46615" lon="2.2443">
        <ele>1909</ele>
        <time>2024-09-17T07:18:26Z</time>
      </trkpt>
      <trkpt lat="42.46612" lon="2.24433">
        <ele>1909</ele>
        <time>2024-09-17T07:18:29Z</time>
      </trkpt>
      <trkpt lat="42.4661" lon="2.24437">
        <ele>1909</ele>
        <time>2024-09-17T07:18:32Z</time>
      </trkpt>
      <trkpt lat="42.46609" lon="2.24441">
        <ele>1909</ele>
        <time>2024-09-17T07:18:35Z</time>
      </trkpt>
      <trkpt lat="42.46607" lon="2.24445">
        <ele>1910</ele>
        <time>2024-09-17T07:18:38Z</time>
      </trkpt>
      <trkpt lat="42.46605" lon="2.24449">
        <ele>1909</ele>
        <time>2024-09-17T07:18:41Z</time>
      </trkpt>
      <trkpt lat="42.46603" lon="2.24452">
        <ele>1910</ele>
        <time>2024-09-17T07:18:44Z</time>
      </trkpt>
      <trkpt lat="42.46601" lon="2.24456">
        <ele>1910</ele>
        <time>2024-09-17T07:18:48Z</time>
      </trkpt>
      <trkpt lat="42.46601" lon="2.24459">
        <ele>1913</ele>
        <time>2024-09-17T07:18:58Z</time>
      </trkpt>
      <trkpt lat="42.46599" lon="2.24461">
        <ele>1912</ele>
        <time>2024-09-17T07:21:59Z</time>
      </trkpt>
      <trkpt lat="42.46597" lon="2.24463">
        <ele>1911</ele>
        <time>2024-09-17T07:22:02Z</time>
      </trkpt>
      <trkpt lat="42.46596" lon="2.24466">
        <ele>1913</ele>
        <time>2024-09-17T07:22:06Z</time>
      </trkpt>
      <trkpt lat="42.46593" lon="2.24468">
        <ele>1914</ele>
        <time>2024-09-17T07:22:11Z</time>
      </trkpt>
      <trkpt lat="42.46591" lon="2.24471">
        <ele>1916</ele>
        <time>2024-09-17T07:22:16Z</time>
      </trkpt>
      <trkpt lat="42.46587" lon="2.24473">
        <ele>1916</ele>
        <time>2024-09-17T07:22:20Z</time>
      </trkpt>
      <trkpt lat="42.46586" lon="2.24476">
        <ele>1916</ele>
        <time>2024-09-17T07:22:24Z</time>
      </trkpt>
      <trkpt lat="42.46585" lon="2.24481">
        <ele>1917</ele>
        <time>2024-09-17T07:22:27Z</time>
      </trkpt>
      <trkpt lat="42.46583" lon="2.24484">
        <ele>1918</ele>
        <time>2024-09-17T07:22:32Z</time>
      </trkpt>
      <trkpt lat="42.46581" lon="2.24487">
        <ele>1918</ele>
        <time>2024-09-17T07:22:37Z</time>
      </trkpt>
      <trkpt lat="42.46579" lon="2.24491">
        <ele>1919</ele>
        <time>2024-09-17T07:22:41Z</time>
      </trkpt>
      <trkpt lat="42.46578" lon="2.24494">
        <ele>1920</ele>
        <time>2024-09-17T07:22:46Z</time>
      </trkpt>
      <trkpt lat="42.46575" lon="2.24496">
        <ele>1919</ele>
        <time>2024-09-17T07:22:50Z</time>
      </trkpt>
      <trkpt lat="42.46573" lon="2.24499">
        <ele>1920</ele>
        <time>2024-09-17T07:22:53Z</time>
      </trkpt>
      <trkpt lat="42.46573" lon="2.24504">
        <ele>1919</ele>
        <time>2024-09-17T07:23:00Z</time>
      </trkpt>
      <trkpt lat="42.46573" lon="2.24509">
        <ele>1919</ele>
        <time>2024-09-17T07:23:03Z</time>
      </trkpt>
      <trkpt lat="42.46572" lon="2.24513">
        <ele>1919</ele>
        <time>2024-09-17T07:23:07Z</time>
      </trkpt>
      <trkpt lat="42.46571" lon="2.24517">
        <ele>1920</ele>
        <time>2024-09-17T07:23:10Z</time>
      </trkpt>
      <trkpt lat="42.4657" lon="2.2452">
        <ele>1920</ele>
        <time>2024-09-17T07:23:13Z</time>
      </trkpt>
      <trkpt lat="42.46568" lon="2.24524">
        <ele>1921</ele>
        <time>2024-09-17T07:23:17Z</time>
      </trkpt>
      <trkpt lat="42.46566" lon="2.24527">
        <ele>1922</ele>
        <time>2024-09-17T07:23:23Z</time>
      </trkpt>
      <trkpt lat="42.46564" lon="2.2453">
        <ele>1923</ele>
        <time>2024-09-17T07:23:27Z</time>
      </trkpt>
      <trkpt lat="42.46563" lon="2.24534">
        <ele>1924</ele>
        <time>2024-09-17T07:23:30Z</time>
      </trkpt>
      <trkpt lat="42.46562" lon="2.24538">
        <ele>1925</ele>
        <time>2024-09-17T07:23:33Z</time>
      </trkpt>
      <trkpt lat="42.46562" lon="2.24541">
        <ele>1925</ele>
        <time>2024-09-17T07:23:36Z</time>
      </trkpt>
      <trkpt lat="42.46562" lon="2.24545">
        <ele>1925</ele>
        <time>2024-09-17T07:23:39Z</time>
      </trkpt>
      <trkpt lat="42.46561" lon="2.24549">
        <ele>1926</ele>
        <time>2024-09-17T07:23:42Z</time>
      </trkpt>
      <trkpt lat="42.46561" lon="2.24553">
        <ele>1926</ele>
        <time>2024-09-17T07:23:45Z</time>
      </trkpt>
      <trkpt lat="42.46561" lon="2.24557">
        <ele>1926</ele>
        <time>2024-09-17T07:23:48Z</time>
      </trkpt>
      <trkpt lat="42.4656" lon="2.24561">
        <ele>1927</ele>
        <time>2024-09-17T07:23:51Z</time>
      </trkpt>
      <trkpt lat="42.46558" lon="2.24564">
        <ele>1928</ele>
        <time>2024-09-17T07:23:54Z</time>
      </trkpt>
      <trkpt lat="42.46556" lon="2.24566">
        <ele>1928</ele>
        <time>2024-09-17T07:23:57Z</time>
      </trkpt>
      <trkpt lat="42.46555" lon="2.2457">
        <ele>1928</ele>
        <time>2024-09-17T07:24:00Z</time>
      </trkpt>
      <trkpt lat="42.46553" lon="2.24573">
        <ele>1930</ele>
        <time>2024-09-17T07:24:03Z</time>
      </trkpt>
      <trkpt lat="42.46551" lon="2.24577">
        <ele>1929</ele>
        <time>2024-09-17T07:24:07Z</time>
      </trkpt>
      <trkpt lat="42.46548" lon="2.2458">
        <ele>1930</ele>
        <time>2024-09-17T07:24:11Z</time>
      </trkpt>
      <trkpt lat="42.46546" lon="2.24583">
        <ele>1931</ele>
        <time>2024-09-17T07:24:15Z</time>
      </trkpt>
      <trkpt lat="42.46544" lon="2.24586">
        <ele>1932</ele>
        <time>2024-09-17T07:24:19Z</time>
      </trkpt>
      <trkpt lat="42.46542" lon="2.24589">
        <ele>1932</ele>
        <time>2024-09-17T07:24:23Z</time>
      </trkpt>
      <trkpt lat="42.46539" lon="2.24592">
        <ele>1932</ele>
        <time>2024-09-17T07:24:27Z</time>
      </trkpt>
      <trkpt lat="42.46537" lon="2.24595">
        <ele>1932</ele>
        <time>2024-09-17T07:24:31Z</time>
      </trkpt>
      <trkpt lat="42.46535" lon="2.24598">
        <ele>1934</ele>
        <time>2024-09-17T07:24:35Z</time>
      </trkpt>
      <trkpt lat="42.46533" lon="2.24601">
        <ele>1935</ele>
        <time>2024-09-17T07:24:39Z</time>
      </trkpt>
      <trkpt lat="42.46531" lon="2.24604">
        <ele>1934</ele>
        <time>2024-09-17T07:24:43Z</time>
      </trkpt>
      <trkpt lat="42.46529" lon="2.24607">
        <ele>1937</ele>
        <time>2024-09-17T07:24:48Z</time>
      </trkpt>
      <trkpt lat="42.46528" lon="2.24611">
        <ele>1937</ele>
        <time>2024-09-17T07:24:52Z</time>
      </trkpt>
      <trkpt lat="42.46528" lon="2.24615">
        <ele>1939</ele>
        <time>2024-09-17T07:24:56Z</time>
      </trkpt>
      <trkpt lat="42.46528" lon="2.24619">
        <ele>1938</ele>
        <time>2024-09-17T07:25:00Z</time>
      </trkpt>
      <trkpt lat="42.46527" lon="2.24623">
        <ele>1937</ele>
        <time>2024-09-17T07:25:04Z</time>
      </trkpt>
      <trkpt lat="42.46527" lon="2.24628">
        <ele>1936</ele>
        <time>2024-09-17T07:25:09Z</time>
      </trkpt>
      <trkpt lat="42.46526" lon="2.24631">
        <ele>1938</ele>
        <time>2024-09-17T07:25:12Z</time>
      </trkpt>
      <trkpt lat="42.46525" lon="2.24635">
        <ele>1938</ele>
        <time>2024-09-17T07:25:15Z</time>
      </trkpt>
      <trkpt lat="42.46523" lon="2.24638">
        <ele>1937</ele>
        <time>2024-09-17T07:25:19Z</time>
      </trkpt>
      <trkpt lat="42.4652" lon="2.2464">
        <ele>1938</ele>
        <time>2024-09-17T07:25:23Z</time>
      </trkpt>
      <trkpt lat="42.46518" lon="2.24642">
        <ele>1938</ele>
        <time>2024-09-17T07:25:28Z</time>
      </trkpt>
      <trkpt lat="42.46515" lon="2.24643">
        <ele>1938</ele>
        <time>2024-09-17T07:25:33Z</time>
      </trkpt>
      <trkpt lat="42.46513" lon="2.24646">
        <ele>1939</ele>
        <time>2024-09-17T07:25:37Z</time>
      </trkpt>
      <trkpt lat="42.46511" lon="2.24649">
        <ele>1939</ele>
        <time>2024-09-17T07:25:41Z</time>
      </trkpt>
      <trkpt lat="42.46508" lon="2.24652">
        <ele>1940</ele>
        <time>2024-09-17T07:25:45Z</time>
      </trkpt>
      <trkpt lat="42.46505" lon="2.24655">
        <ele>1942</ele>
        <time>2024-09-17T07:25:49Z</time>
      </trkpt>
      <trkpt lat="42.46502" lon="2.24658">
        <ele>1942</ele>
        <time>2024-09-17T07:25:53Z</time>
      </trkpt>
      <trkpt lat="42.465" lon="2.2466">
        <ele>1943</ele>
        <time>2024-09-17T07:25:56Z</time>
      </trkpt>
      <trkpt lat="42.46498" lon="2.24663">
        <ele>1943</ele>
        <time>2024-09-17T07:25:59Z</time>
      </trkpt>
      <trkpt lat="42.46496" lon="2.24666">
        <ele>1944</ele>
        <time>2024-09-17T07:26:02Z</time>
      </trkpt>
      <trkpt lat="42.46495" lon="2.24671">
        <ele>1944</ele>
        <time>2024-09-17T07:26:05Z</time>
      </trkpt>
      <trkpt lat="42.46493" lon="2.24674">
        <ele>1945</ele>
        <time>2024-09-17T07:26:08Z</time>
      </trkpt>
      <trkpt lat="42.46492" lon="2.24678">
        <ele>1945</ele>
        <time>2024-09-17T07:26:11Z</time>
      </trkpt>
      <trkpt lat="42.46491" lon="2.24682">
        <ele>1945</ele>
        <time>2024-09-17T07:26:13Z</time>
      </trkpt>
      <trkpt lat="42.46491" lon="2.24686">
        <ele>1945</ele>
        <time>2024-09-17T07:26:16Z</time>
      </trkpt>
      <trkpt lat="42.46491" lon="2.2469">
        <ele>1945</ele>
        <time>2024-09-17T07:26:19Z</time>
      </trkpt>
      <trkpt lat="42.4649" lon="2.24694">
        <ele>1946</ele>
        <time>2024-09-17T07:26:22Z</time>
      </trkpt>
      <trkpt lat="42.46489" lon="2.24697">
        <ele>1946</ele>
        <time>2024-09-17T07:26:25Z</time>
      </trkpt>
      <trkpt lat="42.46487" lon="2.24701">
        <ele>1947</ele>
        <time>2024-09-17T07:26:29Z</time>
      </trkpt>
      <trkpt lat="42.46485" lon="2.24704">
        <ele>1948</ele>
        <time>2024-09-17T07:26:33Z</time>
      </trkpt>
      <trkpt lat="42.46482" lon="2.24707">
        <ele>1948</ele>
        <time>2024-09-17T07:26:37Z</time>
      </trkpt>
      <trkpt lat="42.46479" lon="2.24709">
        <ele>1949</ele>
        <time>2024-09-17T07:26:40Z</time>
      </trkpt>
      <trkpt lat="42.46477" lon="2.24711">
        <ele>1948</ele>
        <time>2024-09-17T07:26:44Z</time>
      </trkpt>
      <trkpt lat="42.46475" lon="2.24714">
        <ele>1948</ele>
        <time>2024-09-17T07:26:48Z</time>
      </trkpt>
      <trkpt lat="42.46472" lon="2.24717">
        <ele>1949</ele>
        <time>2024-09-17T07:26:51Z</time>
      </trkpt>
      <trkpt lat="42.4647" lon="2.24719">
        <ele>1950</ele>
        <time>2024-09-17T07:26:55Z</time>
      </trkpt>
      <trkpt lat="42.46468" lon="2.24721">
        <ele>1951</ele>
        <time>2024-09-17T07:26:58Z</time>
      </trkpt>
      <trkpt lat="42.46465" lon="2.24724">
        <ele>1951</ele>
        <time>2024-09-17T07:27:05Z</time>
      </trkpt>
      <trkpt lat="42.46464" lon="2.24728">
        <ele>1953</ele>
        <time>2024-09-17T07:27:11Z</time>
      </trkpt>
      <trkpt lat="42.46462" lon="2.24728">
        <ele>1954</ele>
        <time>2024-09-17T07:27:19Z</time>
      </trkpt>
      <trkpt lat="42.46459" lon="2.24729">
        <ele>1953</ele>
        <time>2024-09-17T07:27:23Z</time>
      </trkpt>
      <trkpt lat="42.46457" lon="2.24731">
        <ele>1955</ele>
        <time>2024-09-17T07:27:28Z</time>
      </trkpt>
      <trkpt lat="42.46454" lon="2.24732">
        <ele>1957</ele>
        <time>2024-09-17T07:27:37Z</time>
      </trkpt>
      <trkpt lat="42.46451" lon="2.24733">
        <ele>1958</ele>
        <time>2024-09-17T07:27:44Z</time>
      </trkpt>
      <trkpt lat="42.46448" lon="2.24734">
        <ele>1960</ele>
        <time>2024-09-17T07:27:51Z</time>
      </trkpt>
      <trkpt lat="42.46446" lon="2.24736">
        <ele>1960</ele>
        <time>2024-09-17T07:27:56Z</time>
      </trkpt>
      <trkpt lat="42.46444" lon="2.24739">
        <ele>1959</ele>
        <time>2024-09-17T07:28:01Z</time>
      </trkpt>
      <trkpt lat="42.46441" lon="2.24741">
        <ele>1960</ele>
        <time>2024-09-17T07:28:06Z</time>
      </trkpt>
      <trkpt lat="42.46438" lon="2.24741">
        <ele>1960</ele>
        <time>2024-09-17T07:28:10Z</time>
      </trkpt>
      <trkpt lat="42.46437" lon="2.24744">
        <ele>1960</ele>
        <time>2024-09-17T07:28:14Z</time>
      </trkpt>
      <trkpt lat="42.46435" lon="2.24747">
        <ele>1962</ele>
        <time>2024-09-17T07:28:19Z</time>
      </trkpt>
      <trkpt lat="42.46434" lon="2.24751">
        <ele>1964</ele>
        <time>2024-09-17T07:28:26Z</time>
      </trkpt>
      <trkpt lat="42.46432" lon="2.24753">
        <ele>1964</ele>
        <time>2024-09-17T07:28:33Z</time>
      </trkpt>
      <trkpt lat="42.46431" lon="2.24756">
        <ele>1965</ele>
        <time>2024-09-17T07:28:38Z</time>
      </trkpt>
      <trkpt lat="42.4643" lon="2.24759">
        <ele>1965</ele>
        <time>2024-09-17T07:28:44Z</time>
      </trkpt>
      <trkpt lat="42.46427" lon="2.24761">
        <ele>1966</ele>
        <time>2024-09-17T07:28:55Z</time>
      </trkpt>
      <trkpt lat="42.46428" lon="2.24765">
        <ele>1966</ele>
        <time>2024-09-17T07:29:02Z</time>
      </trkpt>
      <trkpt lat="42.46428" lon="2.24769">
        <ele>1967</ele>
        <time>2024-09-17T07:29:06Z</time>
      </trkpt>
      <trkpt lat="42.46429" lon="2.24773">
        <ele>1968</ele>
        <time>2024-09-17T07:29:10Z</time>
      </trkpt>
      <trkpt lat="42.4643" lon="2.24778">
        <ele>1967</ele>
        <time>2024-09-17T07:29:15Z</time>
      </trkpt>
      <trkpt lat="42.46431" lon="2.24782">
        <ele>1967</ele>
        <time>2024-09-17T07:29:19Z</time>
      </trkpt>
      <trkpt lat="42.4643" lon="2.24786">
        <ele>1967</ele>
        <time>2024-09-17T07:29:23Z</time>
      </trkpt>
      <trkpt lat="42.46428" lon="2.24789">
        <ele>1968</ele>
        <time>2024-09-17T07:29:26Z</time>
      </trkpt>
      <trkpt lat="42.46427" lon="2.24792">
        <ele>1969</ele>
        <time>2024-09-17T07:29:30Z</time>
      </trkpt>
      <trkpt lat="42.46428" lon="2.24796">
        <ele>1969</ele>
        <time>2024-09-17T07:29:34Z</time>
      </trkpt>
      <trkpt lat="42.46427" lon="2.248">
        <ele>1968</ele>
        <time>2024-09-17T07:29:39Z</time>
      </trkpt>
      <trkpt lat="42.46428" lon="2.24804">
        <ele>1968</ele>
        <time>2024-09-17T07:29:43Z</time>
      </trkpt>
      <trkpt lat="42.46429" lon="2.24809">
        <ele>1968</ele>
        <time>2024-09-17T07:29:47Z</time>
      </trkpt>
      <trkpt lat="42.46429" lon="2.24813">
        <ele>1970</ele>
        <time>2024-09-17T07:29:50Z</time>
      </trkpt>
      <trkpt lat="42.4643" lon="2.24817">
        <ele>1971</ele>
        <time>2024-09-17T07:29:54Z</time>
      </trkpt>
      <trkpt lat="42.4643" lon="2.24821">
        <ele>1972</ele>
        <time>2024-09-17T07:29:58Z</time>
      </trkpt>
      <trkpt lat="42.46431" lon="2.24825">
        <ele>1972</ele>
        <time>2024-09-17T07:30:01Z</time>
      </trkpt>
      <trkpt lat="42.46431" lon="2.2483">
        <ele>1972</ele>
        <time>2024-09-17T07:30:05Z</time>
      </trkpt>
      <trkpt lat="42.46431" lon="2.24834">
        <ele>1973</ele>
        <time>2024-09-17T07:30:08Z</time>
      </trkpt>
      <trkpt lat="42.46432" lon="2.24838">
        <ele>1973</ele>
        <time>2024-09-17T07:30:12Z</time>
      </trkpt>
      <trkpt lat="42.46432" lon="2.24842">
        <ele>1976</ele>
        <time>2024-09-17T07:30:37Z</time>
      </trkpt>
      <trkpt lat="42.46433" lon="2.24842">
        <ele>1974</ele>
        <time>2024-09-17T07:30:43Z</time>
      </trkpt>
      <trkpt lat="42.46436" lon="2.24841">
        <ele>1974</ele>
        <time>2024-09-17T07:30:49Z</time>
      </trkpt>
      <trkpt lat="42.46436" lon="2.24843">
        <ele>1978</ele>
        <time>2024-09-17T07:32:00Z</time>
      </trkpt>
      <trkpt lat="42.46437" lon="2.24846">
        <ele>1977</ele>
        <time>2024-09-17T07:32:02Z</time>
      </trkpt>
      <trkpt lat="42.46437" lon="2.2485">
        <ele>1978</ele>
        <time>2024-09-17T07:32:05Z</time>
      </trkpt>
      <trkpt lat="42.46437" lon="2.24854">
        <ele>1976</ele>
        <time>2024-09-17T07:32:08Z</time>
      </trkpt>
      <trkpt lat="42.46439" lon="2.24858">
        <ele>1975</ele>
        <time>2024-09-17T07:32:11Z</time>
      </trkpt>
      <trkpt lat="42.46442" lon="2.24861">
        <ele>1974</ele>
        <time>2024-09-17T07:32:14Z</time>
      </trkpt>
      <trkpt lat="42.46443" lon="2.24865">
        <ele>1974</ele>
        <time>2024-09-17T07:32:15Z</time>
      </trkpt>
      <trkpt lat="42.46444" lon="2.24869">
        <ele>1974</ele>
        <time>2024-09-17T07:32:18Z</time>
      </trkpt>
      <trkpt lat="42.46446" lon="2.24873">
        <ele>1974</ele>
        <time>2024-09-17T07:32:21Z</time>
      </trkpt>
      <trkpt lat="42.46446" lon="2.24878">
        <ele>1975</ele>
        <time>2024-09-17T07:32:24Z</time>
      </trkpt>
      <trkpt lat="42.46444" lon="2.24882">
        <ele>1977</ele>
        <time>2024-09-17T07:32:27Z</time>
      </trkpt>
      <trkpt lat="42.46443" lon="2.24886">
        <ele>1977</ele>
        <time>2024-09-17T07:32:30Z</time>
      </trkpt>
      <trkpt lat="42.46442" lon="2.2489">
        <ele>1976</ele>
        <time>2024-09-17T07:32:34Z</time>
      </trkpt>
      <trkpt lat="42.46441" lon="2.24894">
        <ele>1976</ele>
        <time>2024-09-17T07:32:37Z</time>
      </trkpt>
      <trkpt lat="42.4644" lon="2.24898">
        <ele>1978</ele>
        <time>2024-09-17T07:32:40Z</time>
      </trkpt>
      <trkpt lat="42.46438" lon="2.24903">
        <ele>1979</ele>
        <time>2024-09-17T07:32:44Z</time>
      </trkpt>
      <trkpt lat="42.46437" lon="2.24906">
        <ele>1979</ele>
        <time>2024-09-17T07:32:47Z</time>
      </trkpt>
      <trkpt lat="42.46436" lon="2.24909">
        <ele>1979</ele>
        <time>2024-09-17T07:32:51Z</time>
      </trkpt>
      <trkpt lat="42.46435" lon="2.24913">
        <ele>1979</ele>
        <time>2024-09-17T07:32:55Z</time>
      </trkpt>
      <trkpt lat="42.46434" lon="2.24917">
        <ele>1979</ele>
        <time>2024-09-17T07:32:59Z</time>
      </trkpt>
      <trkpt lat="42.46432" lon="2.2492">
        <ele>1979</ele>
        <time>2024-09-17T07:33:04Z</time>
      </trkpt>
      <trkpt lat="42.4643" lon="2.24923">
        <ele>1980</ele>
        <time>2024-09-17T07:33:08Z</time>
      </trkpt>
      <trkpt lat="42.46428" lon="2.24925">
        <ele>1981</ele>
        <time>2024-09-17T07:33:12Z</time>
      </trkpt>
      <trkpt lat="42.46426" lon="2.24928">
        <ele>1981</ele>
        <time>2024-09-17T07:33:18Z</time>
      </trkpt>
      <trkpt lat="42.46424" lon="2.24931">
        <ele>1983</ele>
        <time>2024-09-17T07:33:23Z</time>
      </trkpt>
      <trkpt lat="42.46423" lon="2.24935">
        <ele>1986</ele>
        <time>2024-09-17T07:33:29Z</time>
      </trkpt>
      <trkpt lat="42.46423" lon="2.24939">
        <ele>1986</ele>
        <time>2024-09-17T07:33:35Z</time>
      </trkpt>
      <trkpt lat="42.46421" lon="2.24943">
        <ele>1987</ele>
        <time>2024-09-17T07:33:40Z</time>
      </trkpt>
      <trkpt lat="42.46419" lon="2.24946">
        <ele>1988</ele>
        <time>2024-09-17T07:33:46Z</time>
      </trkpt>
      <trkpt lat="42.46424" lon="2.24949">
        <ele>1993</ele>
        <time>2024-09-17T07:34:21Z</time>
      </trkpt>
      <trkpt lat="42.46423" lon="2.24951">
        <ele>1993</ele>
        <time>2024-09-17T07:34:29Z</time>
      </trkpt>
      <trkpt lat="42.46424" lon="2.24954">
        <ele>1994</ele>
        <time>2024-09-17T07:34:32Z</time>
      </trkpt>
      <trkpt lat="42.46424" lon="2.24957">
        <ele>1994</ele>
        <time>2024-09-17T07:34:37Z</time>
      </trkpt>
      <trkpt lat="42.46422" lon="2.2496">
        <ele>1995</ele>
        <time>2024-09-17T07:34:43Z</time>
      </trkpt>
      <trkpt lat="42.4642" lon="2.24963">
        <ele>1996</ele>
        <time>2024-09-17T07:34:46Z</time>
      </trkpt>
      <trkpt lat="42.46418" lon="2.24966">
        <ele>1999</ele>
        <time>2024-09-17T07:34:55Z</time>
      </trkpt>
      <trkpt lat="42.46415" lon="2.24967">
        <ele>1997</ele>
        <time>2024-09-17T07:35:00Z</time>
      </trkpt>
      <trkpt lat="42.46416" lon="2.24971">
        <ele>1998</ele>
        <time>2024-09-17T07:35:08Z</time>
      </trkpt>
      <trkpt lat="42.46417" lon="2.24975">
        <ele>1998</ele>
        <time>2024-09-17T07:35:11Z</time>
      </trkpt>
      <trkpt lat="42.46417" lon="2.24978">
        <ele>1997</ele>
        <time>2024-09-17T07:35:14Z</time>
      </trkpt>
      <trkpt lat="42.46416" lon="2.24981">
        <ele>1997</ele>
        <time>2024-09-17T07:35:17Z</time>
      </trkpt>
      <trkpt lat="42.46414" lon="2.24984">
        <ele>1999</ele>
        <time>2024-09-17T07:35:22Z</time>
      </trkpt>
      <trkpt lat="42.46413" lon="2.24988">
        <ele>2001</ele>
        <time>2024-09-17T07:35:36Z</time>
      </trkpt>
      <trkpt lat="42.46412" lon="2.24992">
        <ele>2003</ele>
        <time>2024-09-17T07:35:40Z</time>
      </trkpt>
      <trkpt lat="42.4641" lon="2.24994">
        <ele>2006</ele>
        <time>2024-09-17T07:35:50Z</time>
      </trkpt>
      <trkpt lat="42.46407" lon="2.24996">
        <ele>2009</ele>
        <time>2024-09-17T07:36:04Z</time>
      </trkpt>
      <trkpt lat="42.46405" lon="2.24997">
        <ele>2009</ele>
        <time>2024-09-17T07:36:07Z</time>
      </trkpt>
      <trkpt lat="42.46402" lon="2.24997">
        <ele>2007</ele>
        <time>2024-09-17T07:36:12Z</time>
      </trkpt>
      <trkpt lat="42.46399" lon="2.24997">
        <ele>2009</ele>
        <time>2024-09-17T07:36:16Z</time>
      </trkpt>
      <trkpt lat="42.46397" lon="2.25">
        <ele>2009</ele>
        <time>2024-09-17T07:36:21Z</time>
      </trkpt>
      <trkpt lat="42.46394" lon="2.25">
        <ele>2012</ele>
        <time>2024-09-17T07:36:27Z</time>
      </trkpt>
      <trkpt lat="42.46391" lon="2.25002">
        <ele>2012</ele>
        <time>2024-09-17T07:36:32Z</time>
      </trkpt>
      <trkpt lat="42.4639" lon="2.25006">
        <ele>2013</ele>
        <time>2024-09-17T07:36:40Z</time>
      </trkpt>
      <trkpt lat="42.46389" lon="2.25009">
        <ele>2013</ele>
        <time>2024-09-17T07:36:50Z</time>
      </trkpt>
      <trkpt lat="42.46387" lon="2.25012">
        <ele>2014</ele>
        <time>2024-09-17T07:37:00Z</time>
      </trkpt>
      <trkpt lat="42.46385" lon="2.25014">
        <ele>2014</ele>
        <time>2024-09-17T07:37:07Z</time>
      </trkpt>
      <trkpt lat="42.46382" lon="2.25015">
        <ele>2015</ele>
        <time>2024-09-17T07:37:13Z</time>
      </trkpt>
      <trkpt lat="42.4638" lon="2.25016">
        <ele>2016</ele>
        <time>2024-09-17T07:37:19Z</time>
      </trkpt>
      <trkpt lat="42.46378" lon="2.25019">
        <ele>2016</ele>
        <time>2024-09-17T07:37:25Z</time>
      </trkpt>
      <trkpt lat="42.46375" lon="2.25022">
        <ele>2017</ele>
        <time>2024-09-17T07:37:35Z</time>
      </trkpt>
      <trkpt lat="42.46375" lon="2.25026">
        <ele>2019</ele>
        <time>2024-09-17T07:37:43Z</time>
      </trkpt>
      <trkpt lat="42.46376" lon="2.2503">
        <ele>2020</ele>
        <time>2024-09-17T07:37:49Z</time>
      </trkpt>
      <trkpt lat="42.46377" lon="2.25033">
        <ele>2022</ele>
        <time>2024-09-17T07:37:56Z</time>
      </trkpt>
      <trkpt lat="42.46376" lon="2.25036">
        <ele>2023</ele>
        <time>2024-09-17T07:38:03Z</time>
      </trkpt>
      <trkpt lat="42.46374" lon="2.25039">
        <ele>2025</ele>
        <time>2024-09-17T07:38:16Z</time>
      </trkpt>
      <trkpt lat="42.46372" lon="2.25041">
        <ele>2025</ele>
        <time>2024-09-17T07:38:22Z</time>
      </trkpt>
      <trkpt lat="42.46369" lon="2.25042">
        <ele>2026</ele>
        <time>2024-09-17T07:38:27Z</time>
      </trkpt>
      <trkpt lat="42.46366" lon="2.25043">
        <ele>2027</ele>
        <time>2024-09-17T07:38:34Z</time>
      </trkpt>
      <trkpt lat="42.46363" lon="2.25044">
        <ele>2027</ele>
        <time>2024-09-17T07:38:39Z</time>
      </trkpt>
      <trkpt lat="42.4636" lon="2.25044">
        <ele>2027</ele>
        <time>2024-09-17T07:38:45Z</time>
      </trkpt>
      <trkpt lat="42.46357" lon="2.25043">
        <ele>2027</ele>
        <time>2024-09-17T07:38:49Z</time>
      </trkpt>
      <trkpt lat="42.46354" lon="2.25041">
        <ele>2027</ele>
        <time>2024-09-17T07:38:53Z</time>
      </trkpt>
      <trkpt lat="42.46351" lon="2.2504">
        <ele>2027</ele>
        <time>2024-09-17T07:38:56Z</time>
      </trkpt>
      <trkpt lat="42.46348" lon="2.25039">
        <ele>2029</ele>
        <time>2024-09-17T07:38:59Z</time>
      </trkpt>
      <trkpt lat="42.46346" lon="2.25037">
        <ele>2029</ele>
        <time>2024-09-17T07:39:04Z</time>
      </trkpt>
      <trkpt lat="42.46343" lon="2.25034">
        <ele>2031</ele>
        <time>2024-09-17T07:39:07Z</time>
      </trkpt>
      <trkpt lat="42.4634" lon="2.25033">
        <ele>2031</ele>
        <time>2024-09-17T07:39:11Z</time>
      </trkpt>
      <trkpt lat="42.46337" lon="2.25034">
        <ele>2030</ele>
        <time>2024-09-17T07:39:15Z</time>
      </trkpt>
      <trkpt lat="42.46334" lon="2.25034">
        <ele>2033</ele>
        <time>2024-09-17T07:39:29Z</time>
      </trkpt>
      <trkpt lat="42.46331" lon="2.25035">
        <ele>2032</ele>
        <time>2024-09-17T07:39:40Z</time>
      </trkpt>
      <trkpt lat="42.46328" lon="2.25036">
        <ele>2033</ele>
        <time>2024-09-17T07:39:43Z</time>
      </trkpt>
      <trkpt lat="42.46326" lon="2.25038">
        <ele>2033</ele>
        <time>2024-09-17T07:39:47Z</time>
      </trkpt>
      <trkpt lat="42.46323" lon="2.2504">
        <ele>2033</ele>
        <time>2024-09-17T07:39:51Z</time>
      </trkpt>
      <trkpt lat="42.46321" lon="2.25042">
        <ele>2033</ele>
        <time>2024-09-17T07:39:56Z</time>
      </trkpt>
      <trkpt lat="42.46319" lon="2.25045">
        <ele>2033</ele>
        <time>2024-09-17T07:40:02Z</time>
      </trkpt>
      <trkpt lat="42.46317" lon="2.25048">
        <ele>2034</ele>
        <time>2024-09-17T07:40:08Z</time>
      </trkpt>
      <trkpt lat="42.46316" lon="2.25052">
        <ele>2035</ele>
        <time>2024-09-17T07:40:13Z</time>
      </trkpt>
      <trkpt lat="42.46314" lon="2.25055">
        <ele>2036</ele>
        <time>2024-09-17T07:40:20Z</time>
      </trkpt>
      <trkpt lat="42.46313" lon="2.25059">
        <ele>2037</ele>
        <time>2024-09-17T07:40:25Z</time>
      </trkpt>
      <trkpt lat="42.46313" lon="2.25062">
        <ele>2038</ele>
        <time>2024-09-17T07:40:30Z</time>
      </trkpt>
      <trkpt lat="42.46312" lon="2.25066">
        <ele>2039</ele>
        <time>2024-09-17T07:40:36Z</time>
      </trkpt>
      <trkpt lat="42.4631" lon="2.25069">
        <ele>2042</ele>
        <time>2024-09-17T07:40:42Z</time>
      </trkpt>
      <trkpt lat="42.46308" lon="2.25069">
        <ele>2043</ele>
        <time>2024-09-17T07:40:48Z</time>
      </trkpt>
      <trkpt lat="42.46306" lon="2.25071">
        <ele>2043</ele>
        <time>2024-09-17T07:40:52Z</time>
      </trkpt>
      <trkpt lat="42.46303" lon="2.25073">
        <ele>2043</ele>
        <time>2024-09-17T07:40:56Z</time>
      </trkpt>
      <trkpt lat="42.46301" lon="2.25074">
        <ele>2044</ele>
        <time>2024-09-17T07:41:01Z</time>
      </trkpt>
      <trkpt lat="42.46298" lon="2.25075">
        <ele>2044</ele>
        <time>2024-09-17T07:41:10Z</time>
      </trkpt>
      <trkpt lat="42.46295" lon="2.25077">
        <ele>2045</ele>
        <time>2024-09-17T07:41:14Z</time>
      </trkpt>
      <trkpt lat="42.46293" lon="2.25078">
        <ele>2046</ele>
        <time>2024-09-17T07:41:18Z</time>
      </trkpt>
      <trkpt lat="42.4629" lon="2.25077">
        <ele>2048</ele>
        <time>2024-09-17T07:41:25Z</time>
      </trkpt>
      <trkpt lat="42.46288" lon="2.25075">
        <ele>2048</ele>
        <time>2024-09-17T07:41:26Z</time>
      </trkpt>
      <trkpt lat="42.46286" lon="2.25076">
        <ele>2047</ele>
        <time>2024-09-17T07:41:32Z</time>
      </trkpt>
      <trkpt lat="42.46284" lon="2.25078">
        <ele>2048</ele>
        <time>2024-09-17T07:41:37Z</time>
      </trkpt>
      <trkpt lat="42.46282" lon="2.25081">
        <ele>2048</ele>
        <time>2024-09-17T07:41:43Z</time>
      </trkpt>
      <trkpt lat="42.4628" lon="2.25083">
        <ele>2049</ele>
        <time>2024-09-17T07:41:48Z</time>
      </trkpt>
      <trkpt lat="42.46279" lon="2.25087">
        <ele>2049</ele>
        <time>2024-09-17T07:41:53Z</time>
      </trkpt>
      <trkpt lat="42.46277" lon="2.2509">
        <ele>2051</ele>
        <time>2024-09-17T07:42:00Z</time>
      </trkpt>
      <trkpt lat="42.46275" lon="2.25092">
        <ele>2053</ele>
        <time>2024-09-17T07:42:05Z</time>
      </trkpt>
      <trkpt lat="42.46273" lon="2.25094">
        <ele>2054</ele>
        <time>2024-09-17T07:42:11Z</time>
      </trkpt>
      <trkpt lat="42.4627" lon="2.25095">
        <ele>2057</ele>
        <time>2024-09-17T07:42:21Z</time>
      </trkpt>
      <trkpt lat="42.46268" lon="2.25098">
        <ele>2057</ele>
        <time>2024-09-17T07:42:24Z</time>
      </trkpt>
      <trkpt lat="42.46266" lon="2.25101">
        <ele>2057</ele>
        <time>2024-09-17T07:42:29Z</time>
      </trkpt>
      <trkpt lat="42.46264" lon="2.25103">
        <ele>2058</ele>
        <time>2024-09-17T07:42:35Z</time>
      </trkpt>
      <trkpt lat="42.46262" lon="2.25106">
        <ele>2059</ele>
        <time>2024-09-17T07:42:42Z</time>
      </trkpt>
      <trkpt lat="42.4626" lon="2.25109">
        <ele>2060</ele>
        <time>2024-09-17T07:42:46Z</time>
      </trkpt>
      <trkpt lat="42.46258" lon="2.25111">
        <ele>2059</ele>
        <time>2024-09-17T07:42:53Z</time>
      </trkpt>
      <trkpt lat="42.46255" lon="2.2511">
        <ele>2058</ele>
        <time>2024-09-17T07:42:57Z</time>
      </trkpt>
      <trkpt lat="42.46252" lon="2.2511">
        <ele>2060</ele>
        <time>2024-09-17T07:43:01Z</time>
      </trkpt>
      <trkpt lat="42.46248" lon="2.2511">
        <ele>2062</ele>
        <time>2024-09-17T07:43:07Z</time>
      </trkpt>
      <trkpt lat="42.46248" lon="2.25112">
        <ele>2062</ele>
        <time>2024-09-17T07:43:11Z</time>
      </trkpt>
      <trkpt lat="42.46248" lon="2.25116">
        <ele>2063</ele>
        <time>2024-09-17T07:43:18Z</time>
      </trkpt>
      <trkpt lat="42.46248" lon="2.2512">
        <ele>2063</ele>
        <time>2024-09-17T07:43:22Z</time>
      </trkpt>
      <trkpt lat="42.46248" lon="2.25124">
        <ele>2063</ele>
        <time>2024-09-17T07:43:25Z</time>
      </trkpt>
      <trkpt lat="42.46246" lon="2.25128">
        <ele>2063</ele>
        <time>2024-09-17T07:43:30Z</time>
      </trkpt>
      <trkpt lat="42.46244" lon="2.25129">
        <ele>2064</ele>
        <time>2024-09-17T07:43:34Z</time>
      </trkpt>
      <trkpt lat="42.46241" lon="2.25131">
        <ele>2064</ele>
        <time>2024-09-17T07:43:37Z</time>
      </trkpt>
      <trkpt lat="42.46238" lon="2.25133">
        <ele>2065</ele>
        <time>2024-09-17T07:43:41Z</time>
      </trkpt>
      <trkpt lat="42.46235" lon="2.25135">
        <ele>2063</ele>
        <time>2024-09-17T07:43:45Z</time>
      </trkpt>
      <trkpt lat="42.46232" lon="2.25138">
        <ele>2064</ele>
        <time>2024-09-17T07:43:49Z</time>
      </trkpt>
      <trkpt lat="42.46229" lon="2.2514">
        <ele>2065</ele>
        <time>2024-09-17T07:43:53Z</time>
      </trkpt>
      <trkpt lat="42.46227" lon="2.25139">
        <ele>2065</ele>
        <time>2024-09-17T07:44:07Z</time>
      </trkpt>
      <trkpt lat="42.46223" lon="2.25139">
        <ele>2065</ele>
        <time>2024-09-17T07:44:10Z</time>
      </trkpt>
      <trkpt lat="42.4622" lon="2.25138">
        <ele>2066</ele>
        <time>2024-09-17T07:44:14Z</time>
      </trkpt>
      <trkpt lat="42.46218" lon="2.25136">
        <ele>2067</ele>
        <time>2024-09-17T07:44:19Z</time>
      </trkpt>
      <trkpt lat="42.46215" lon="2.25133">
        <ele>2067</ele>
        <time>2024-09-17T07:44:26Z</time>
      </trkpt>
      <trkpt lat="42.46213" lon="2.25134">
        <ele>2068</ele>
        <time>2024-09-17T07:44:32Z</time>
      </trkpt>
      <trkpt lat="42.4621" lon="2.25136">
        <ele>2068</ele>
        <time>2024-09-17T07:44:40Z</time>
      </trkpt>
      <trkpt lat="42.46207" lon="2.25139">
        <ele>2071</ele>
        <time>2024-09-17T07:44:45Z</time>
      </trkpt>
      <trkpt lat="42.46204" lon="2.25139">
        <ele>2072</ele>
        <time>2024-09-17T07:44:50Z</time>
      </trkpt>
      <trkpt lat="42.46201" lon="2.25139">
        <ele>2072</ele>
        <time>2024-09-17T07:44:56Z</time>
      </trkpt>
      <trkpt lat="42.46198" lon="2.2514">
        <ele>2073</ele>
        <time>2024-09-17T07:45:01Z</time>
      </trkpt>
      <trkpt lat="42.46196" lon="2.25143">
        <ele>2073</ele>
        <time>2024-09-17T07:45:05Z</time>
      </trkpt>
      <trkpt lat="42.46193" lon="2.25144">
        <ele>2073</ele>
        <time>2024-09-17T07:45:10Z</time>
      </trkpt>
      <trkpt lat="42.4619" lon="2.25145">
        <ele>2074</ele>
        <time>2024-09-17T07:45:14Z</time>
      </trkpt>
      <trkpt lat="42.46187" lon="2.25144">
        <ele>2075</ele>
        <time>2024-09-17T07:45:21Z</time>
      </trkpt>
      <trkpt lat="42.46185" lon="2.25142">
        <ele>2076</ele>
        <time>2024-09-17T07:45:27Z</time>
      </trkpt>
      <trkpt lat="42.46182" lon="2.25141">
        <ele>2076</ele>
        <time>2024-09-17T07:45:30Z</time>
      </trkpt>
      <trkpt lat="42.46179" lon="2.25142">
        <ele>2077</ele>
        <time>2024-09-17T07:45:35Z</time>
      </trkpt>
      <trkpt lat="42.46178" lon="2.25139">
        <ele>2078</ele>
        <time>2024-09-17T07:45:43Z</time>
      </trkpt>
      <trkpt lat="42.46176" lon="2.25136">
        <ele>2080</ele>
        <time>2024-09-17T07:45:48Z</time>
      </trkpt>
      <trkpt lat="42.46175" lon="2.25133">
        <ele>2080</ele>
        <time>2024-09-17T07:45:53Z</time>
      </trkpt>
      <trkpt lat="42.46172" lon="2.25131">
        <ele>2080</ele>
        <time>2024-09-17T07:45:57Z</time>
      </trkpt>
      <trkpt lat="42.4617" lon="2.25131">
        <ele>2080</ele>
        <time>2024-09-17T07:46:01Z</time>
      </trkpt>
      <trkpt lat="42.46167" lon="2.25132">
        <ele>2080</ele>
        <time>2024-09-17T07:46:03Z</time>
      </trkpt>
      <trkpt lat="42.46164" lon="2.25132">
        <ele>2081</ele>
        <time>2024-09-17T07:46:07Z</time>
      </trkpt>
      <trkpt lat="42.46161" lon="2.25133">
        <ele>2081</ele>
        <time>2024-09-17T07:46:11Z</time>
      </trkpt>
      <trkpt lat="42.46158" lon="2.25133">
        <ele>2082</ele>
        <time>2024-09-17T07:46:15Z</time>
      </trkpt>
      <trkpt lat="42.46155" lon="2.25132">
        <ele>2082</ele>
        <time>2024-09-17T07:46:19Z</time>
      </trkpt>
      <trkpt lat="42.46152" lon="2.25132">
        <ele>2083</ele>
        <time>2024-09-17T07:46:23Z</time>
      </trkpt>
      <trkpt lat="42.46149" lon="2.25133">
        <ele>2083</ele>
        <time>2024-09-17T07:46:29Z</time>
      </trkpt>
      <trkpt lat="42.46146" lon="2.25134">
        <ele>2082</ele>
        <time>2024-09-17T07:46:35Z</time>
      </trkpt>
      <trkpt lat="42.46143" lon="2.25134">
        <ele>2083</ele>
        <time>2024-09-17T07:46:39Z</time>
      </trkpt>
      <trkpt lat="42.4614" lon="2.25133">
        <ele>2085</ele>
        <time>2024-09-17T07:46:43Z</time>
      </trkpt>
      <trkpt lat="42.46138" lon="2.25134">
        <ele>2087</ele>
        <time>2024-09-17T07:46:46Z</time>
      </trkpt>
      <trkpt lat="42.46135" lon="2.25135">
        <ele>2086</ele>
        <time>2024-09-17T07:46:52Z</time>
      </trkpt>
      <trkpt lat="42.46132" lon="2.25136">
        <ele>2087</ele>
        <time>2024-09-17T07:46:57Z</time>
      </trkpt>
      <trkpt lat="42.46129" lon="2.25137">
        <ele>2087</ele>
        <time>2024-09-17T07:47:03Z</time>
      </trkpt>
      <trkpt lat="42.46126" lon="2.25139">
        <ele>2088</ele>
        <time>2024-09-17T07:47:08Z</time>
      </trkpt>
      <trkpt lat="42.46123" lon="2.25139">
        <ele>2089</ele>
        <time>2024-09-17T07:47:17Z</time>
      </trkpt>
      <trkpt lat="42.4612" lon="2.25139">
        <ele>2089</ele>
        <time>2024-09-17T07:47:23Z</time>
      </trkpt>
      <trkpt lat="42.46118" lon="2.25142">
        <ele>2092</ele>
        <time>2024-09-17T07:47:29Z</time>
      </trkpt>
      <trkpt lat="42.46117" lon="2.25145">
        <ele>2093</ele>
        <time>2024-09-17T07:47:36Z</time>
      </trkpt>
      <trkpt lat="42.46115" lon="2.25147">
        <ele>2095</ele>
        <time>2024-09-17T07:47:41Z</time>
      </trkpt>
      <trkpt lat="42.46113" lon="2.25151">
        <ele>2097</ele>
        <time>2024-09-17T07:47:46Z</time>
      </trkpt>
      <trkpt lat="42.46111" lon="2.25154">
        <ele>2098</ele>
        <time>2024-09-17T07:47:51Z</time>
      </trkpt>
      <trkpt lat="42.46108" lon="2.25157">
        <ele>2098</ele>
        <time>2024-09-17T07:47:58Z</time>
      </trkpt>
      <trkpt lat="42.46106" lon="2.2516">
        <ele>2098</ele>
        <time>2024-09-17T07:48:02Z</time>
      </trkpt>
      <trkpt lat="42.46104" lon="2.25163">
        <ele>2099</ele>
        <time>2024-09-17T07:48:08Z</time>
      </trkpt>
      <trkpt lat="42.46103" lon="2.25166">
        <ele>2100</ele>
        <time>2024-09-17T07:48:13Z</time>
      </trkpt>
      <trkpt lat="42.46101" lon="2.2517">
        <ele>2101</ele>
        <time>2024-09-17T07:48:19Z</time>
      </trkpt>
      <trkpt lat="42.46099" lon="2.25172">
        <ele>2103</ele>
        <time>2024-09-17T07:48:29Z</time>
      </trkpt>
      <trkpt lat="42.46099" lon="2.25176">
        <ele>2106</ele>
        <time>2024-09-17T07:48:36Z</time>
      </trkpt>
      <trkpt lat="42.46097" lon="2.25178">
        <ele>2105</ele>
        <time>2024-09-17T07:48:40Z</time>
      </trkpt>
      <trkpt lat="42.46096" lon="2.25182">
        <ele>2105</ele>
        <time>2024-09-17T07:48:45Z</time>
      </trkpt>
      <trkpt lat="42.46097" lon="2.25186">
        <ele>2107</ele>
        <time>2024-09-17T07:48:51Z</time>
      </trkpt>
      <trkpt lat="42.46099" lon="2.25188">
        <ele>2107</ele>
        <time>2024-09-17T07:48:56Z</time>
      </trkpt>
      <trkpt lat="42.461" lon="2.25192">
        <ele>2110</ele>
        <time>2024-09-17T07:49:05Z</time>
      </trkpt>
      <trkpt lat="42.46103" lon="2.25196">
        <ele>2110</ele>
        <time>2024-09-17T07:49:11Z</time>
      </trkpt>
      <trkpt lat="42.46105" lon="2.25199">
        <ele>2111</ele>
        <time>2024-09-17T07:49:16Z</time>
      </trkpt>
      <trkpt lat="42.46108" lon="2.252">
        <ele>2111</ele>
        <time>2024-09-17T07:49:22Z</time>
      </trkpt>
      <trkpt lat="42.4611" lon="2.252">
        <ele>2111</ele>
        <time>2024-09-17T07:49:25Z</time>
      </trkpt>
      <trkpt lat="42.46113" lon="2.252">
        <ele>2112</ele>
        <time>2024-09-17T07:49:28Z</time>
      </trkpt>
      <trkpt lat="42.46116" lon="2.25201">
        <ele>2112</ele>
        <time>2024-09-17T07:49:34Z</time>
      </trkpt>
      <trkpt lat="42.46118" lon="2.25203">
        <ele>2113</ele>
        <time>2024-09-17T07:49:37Z</time>
      </trkpt>
      <trkpt lat="42.4612" lon="2.25206">
        <ele>2116</ele>
        <time>2024-09-17T07:49:45Z</time>
      </trkpt>
      <trkpt lat="42.46122" lon="2.25209">
        <ele>2115</ele>
        <time>2024-09-17T07:49:52Z</time>
      </trkpt>
      <trkpt lat="42.46123" lon="2.25212">
        <ele>2116</ele>
        <time>2024-09-17T07:49:57Z</time>
      </trkpt>
      <trkpt lat="42.46125" lon="2.25215">
        <ele>2116</ele>
        <time>2024-09-17T07:50:04Z</time>
      </trkpt>
      <trkpt lat="42.46127" lon="2.25215">
        <ele>2117</ele>
        <time>2024-09-17T07:50:08Z</time>
      </trkpt>
      <trkpt lat="42.4613" lon="2.25217">
        <ele>2119</ele>
        <time>2024-09-17T07:50:16Z</time>
      </trkpt>
      <trkpt lat="42.46133" lon="2.25218">
        <ele>2120</ele>
        <time>2024-09-17T07:50:21Z</time>
      </trkpt>
      <trkpt lat="42.46134" lon="2.25222">
        <ele>2120</ele>
        <time>2024-09-17T07:50:31Z</time>
      </trkpt>
      <trkpt lat="42.46136" lon="2.25221">
        <ele>2119</ele>
        <time>2024-09-17T07:50:34Z</time>
      </trkpt>
      <trkpt lat="42.46138" lon="2.25222">
        <ele>2121</ele>
        <time>2024-09-17T07:50:40Z</time>
      </trkpt>
      <trkpt lat="42.46141" lon="2.25222">
        <ele>2123</ele>
        <time>2024-09-17T07:50:44Z</time>
      </trkpt>
      <trkpt lat="42.46144" lon="2.25223">
        <ele>2124</ele>
        <time>2024-09-17T07:50:51Z</time>
      </trkpt>
      <trkpt lat="42.46146" lon="2.25225">
        <ele>2125</ele>
        <time>2024-09-17T07:51:00Z</time>
      </trkpt>
      <trkpt lat="42.46149" lon="2.25227">
        <ele>2125</ele>
        <time>2024-09-17T07:51:05Z</time>
      </trkpt>
      <trkpt lat="42.46151" lon="2.25229">
        <ele>2126</ele>
        <time>2024-09-17T07:51:13Z</time>
      </trkpt>
      <trkpt lat="42.46153" lon="2.25232">
        <ele>2128</ele>
        <time>2024-09-17T07:51:19Z</time>
      </trkpt>
      <trkpt lat="42.46156" lon="2.25235">
        <ele>2128</ele>
        <time>2024-09-17T07:51:24Z</time>
      </trkpt>
      <trkpt lat="42.46157" lon="2.25234">
        <ele>2128</ele>
        <time>2024-09-17T07:51:27Z</time>
      </trkpt>
      <trkpt lat="42.46159" lon="2.25235">
        <ele>2131</ele>
        <time>2024-09-17T07:51:35Z</time>
      </trkpt>
      <trkpt lat="42.46161" lon="2.25238">
        <ele>2131</ele>
        <time>2024-09-17T07:51:41Z</time>
      </trkpt>
      <trkpt lat="42.46164" lon="2.2524">
        <ele>2132</ele>
        <time>2024-09-17T07:51:46Z</time>
      </trkpt>
      <trkpt lat="42.46167" lon="2.25241">
        <ele>2132</ele>
        <time>2024-09-17T07:51:53Z</time>
      </trkpt>
      <trkpt lat="42.4617" lon="2.25243">
        <ele>2132</ele>
        <time>2024-09-17T07:52:03Z</time>
      </trkpt>
      <trkpt lat="42.46173" lon="2.25243">
        <ele>2133</ele>
        <time>2024-09-17T07:52:10Z</time>
      </trkpt>
      <trkpt lat="42.46175" lon="2.25245">
        <ele>2133</ele>
        <time>2024-09-17T07:52:18Z</time>
      </trkpt>
      <trkpt lat="42.46176" lon="2.25249">
        <ele>2135</ele>
        <time>2024-09-17T07:52:26Z</time>
      </trkpt>
      <trkpt lat="42.46179" lon="2.25251">
        <ele>2138</ele>
        <time>2024-09-17T07:52:36Z</time>
      </trkpt>
      <trkpt lat="42.46181" lon="2.25252">
        <ele>2139</ele>
        <time>2024-09-17T07:52:43Z</time>
      </trkpt>
      <trkpt lat="42.46184" lon="2.25251">
        <ele>2139</ele>
        <time>2024-09-17T07:52:48Z</time>
      </trkpt>
      <trkpt lat="42.46187" lon="2.25251">
        <ele>2141</ele>
        <time>2024-09-17T07:52:54Z</time>
      </trkpt>
      <trkpt lat="42.46187" lon="2.25253">
        <ele>2142</ele>
        <time>2024-09-17T07:53:00Z</time>
      </trkpt>
      <trkpt lat="42.46188" lon="2.25254">
        <ele>2145</ele>
        <time>2024-09-17T07:53:12Z</time>
      </trkpt>
      <trkpt lat="42.4619" lon="2.25254">
        <ele>2148</ele>
        <time>2024-09-17T07:53:19Z</time>
      </trkpt>
      <trkpt lat="42.46192" lon="2.25256">
        <ele>2150</ele>
        <time>2024-09-17T07:53:26Z</time>
      </trkpt>
      <trkpt lat="42.46194" lon="2.25258">
        <ele>2150</ele>
        <time>2024-09-17T07:53:31Z</time>
      </trkpt>
      <trkpt lat="42.46197" lon="2.25259">
        <ele>2151</ele>
        <time>2024-09-17T07:53:36Z</time>
      </trkpt>
      <trkpt lat="42.46199" lon="2.25261">
        <ele>2150</ele>
        <time>2024-09-17T07:53:43Z</time>
      </trkpt>
      <trkpt lat="42.46201" lon="2.25264">
        <ele>2151</ele>
        <time>2024-09-17T07:53:48Z</time>
      </trkpt>
      <trkpt lat="42.46202" lon="2.25267">
        <ele>2151</ele>
        <time>2024-09-17T07:53:54Z</time>
      </trkpt>
      <trkpt lat="42.462" lon="2.25269">
        <ele>2155</ele>
        <time>2024-09-17T07:54:04Z</time>
      </trkpt>
      <trkpt lat="42.46199" lon="2.25271">
        <ele>2157</ele>
        <time>2024-09-17T07:54:12Z</time>
      </trkpt>
      <trkpt lat="42.46196" lon="2.25272">
        <ele>2157</ele>
        <time>2024-09-17T07:54:17Z</time>
      </trkpt>
      <trkpt lat="42.46194" lon="2.25275">
        <ele>2159</ele>
        <time>2024-09-17T07:54:24Z</time>
      </trkpt>
      <trkpt lat="42.46193" lon="2.25278">
        <ele>2159</ele>
        <time>2024-09-17T07:54:29Z</time>
      </trkpt>
      <trkpt lat="42.46191" lon="2.25281">
        <ele>2159</ele>
        <time>2024-09-17T07:54:36Z</time>
      </trkpt>
      <trkpt lat="42.46189" lon="2.25284">
        <ele>2161</ele>
        <time>2024-09-17T07:54:41Z</time>
      </trkpt>
      <trkpt lat="42.46189" lon="2.25287">
        <ele>2161</ele>
        <time>2024-09-17T07:54:45Z</time>
      </trkpt>
      <trkpt lat="42.4619" lon="2.2529">
        <ele>2163</ele>
        <time>2024-09-17T07:54:54Z</time>
      </trkpt>
      <trkpt lat="42.46191" lon="2.25294">
        <ele>2163</ele>
        <time>2024-09-17T07:54:59Z</time>
      </trkpt>
      <trkpt lat="42.46193" lon="2.25296">
        <ele>2166</ele>
        <time>2024-09-17T07:55:04Z</time>
      </trkpt>
      <trkpt lat="42.46196" lon="2.25297">
        <ele>2168</ele>
        <time>2024-09-17T07:55:09Z</time>
      </trkpt>
      <trkpt lat="42.46199" lon="2.25299">
        <ele>2168</ele>
        <time>2024-09-17T07:55:17Z</time>
      </trkpt>
      <trkpt lat="42.46199" lon="2.25302">
        <ele>2169</ele>
        <time>2024-09-17T07:55:20Z</time>
      </trkpt>
      <trkpt lat="42.462" lon="2.25306">
        <ele>2168</ele>
        <time>2024-09-17T07:55:24Z</time>
      </trkpt>
      <trkpt lat="42.46201" lon="2.2531">
        <ele>2172</ele>
        <time>2024-09-17T07:55:31Z</time>
      </trkpt>
      <trkpt lat="42.46202" lon="2.25314">
        <ele>2172</ele>
        <time>2024-09-17T07:55:36Z</time>
      </trkpt>
      <trkpt lat="42.46202" lon="2.25318">
        <ele>2172</ele>
        <time>2024-09-17T07:55:40Z</time>
      </trkpt>
      <trkpt lat="42.46201" lon="2.25322">
        <ele>2172</ele>
        <time>2024-09-17T07:55:45Z</time>
      </trkpt>
      <trkpt lat="42.46201" lon="2.25326">
        <ele>2174</ele>
        <time>2024-09-17T07:55:49Z</time>
      </trkpt>
      <trkpt lat="42.46201" lon="2.25329">
        <ele>2174</ele>
        <time>2024-09-17T07:55:55Z</time>
      </trkpt>
      <trkpt lat="42.46201" lon="2.25333">
        <ele>2177</ele>
        <time>2024-09-17T07:56:07Z</time>
      </trkpt>
      <trkpt lat="42.46202" lon="2.25337">
        <ele>2178</ele>
        <time>2024-09-17T07:56:14Z</time>
      </trkpt>
      <trkpt lat="42.46202" lon="2.25341">
        <ele>2180</ele>
        <time>2024-09-17T07:56:23Z</time>
      </trkpt>
      <trkpt lat="42.46203" lon="2.25345">
        <ele>2181</ele>
        <time>2024-09-17T07:56:29Z</time>
      </trkpt>
      <trkpt lat="42.46205" lon="2.25347">
        <ele>2182</ele>
        <time>2024-09-17T07:56:36Z</time>
      </trkpt>
      <trkpt lat="42.46207" lon="2.25349">
        <ele>2183</ele>
        <time>2024-09-17T07:56:39Z</time>
      </trkpt>
      <trkpt lat="42.46209" lon="2.25352">
        <ele>2183</ele>
        <time>2024-09-17T07:56:43Z</time>
      </trkpt>
      <trkpt lat="42.46211" lon="2.25355">
        <ele>2185</ele>
        <time>2024-09-17T07:56:49Z</time>
      </trkpt>
      <trkpt lat="42.46213" lon="2.25357">
        <ele>2185</ele>
        <time>2024-09-17T07:56:52Z</time>
      </trkpt>
      <trkpt lat="42.46216" lon="2.2536">
        <ele>2186</ele>
        <time>2024-09-17T07:57:01Z</time>
      </trkpt>
      <trkpt lat="42.46218" lon="2.25362">
        <ele>2186</ele>
        <time>2024-09-17T07:57:06Z</time>
      </trkpt>
      <trkpt lat="42.46221" lon="2.25363">
        <ele>2186</ele>
        <time>2024-09-17T07:57:11Z</time>
      </trkpt>
      <trkpt lat="42.46224" lon="2.25364">
        <ele>2187</ele>
        <time>2024-09-17T07:57:16Z</time>
      </trkpt>
      <trkpt lat="42.46227" lon="2.25365">
        <ele>2189</ele>
        <time>2024-09-17T07:57:20Z</time>
      </trkpt>
      <trkpt lat="42.4623" lon="2.25367">
        <ele>2190</ele>
        <time>2024-09-17T07:57:25Z</time>
      </trkpt>
      <trkpt lat="42.46232" lon="2.25369">
        <ele>2190</ele>
        <time>2024-09-17T07:57:26Z</time>
      </trkpt>
      <trkpt lat="42.46235" lon="2.2537">
        <ele>2190</ele>
        <time>2024-09-17T07:57:31Z</time>
      </trkpt>
      <trkpt lat="42.46238" lon="2.25371">
        <ele>2192</ele>
        <time>2024-09-17T07:57:36Z</time>
      </trkpt>
      <trkpt lat="42.46241" lon="2.25374">
        <ele>2191</ele>
        <time>2024-09-17T07:57:42Z</time>
      </trkpt>
      <trkpt lat="42.46243" lon="2.25377">
        <ele>2191</ele>
        <time>2024-09-17T07:57:46Z</time>
      </trkpt>
      <trkpt lat="42.46244" lon="2.2538">
        <ele>2191</ele>
        <time>2024-09-17T07:57:49Z</time>
      </trkpt>
      <trkpt lat="42.46245" lon="2.25384">
        <ele>2192</ele>
        <time>2024-09-17T07:57:52Z</time>
      </trkpt>
      <trkpt lat="42.46245" lon="2.25388">
        <ele>2193</ele>
        <time>2024-09-17T07:57:59Z</time>
      </trkpt>
      <trkpt lat="42.46247" lon="2.25392">
        <ele>2194</ele>
        <time>2024-09-17T07:58:03Z</time>
      </trkpt>
      <trkpt lat="42.46249" lon="2.25395">
        <ele>2197</ele>
        <time>2024-09-17T07:58:07Z</time>
      </trkpt>
      <trkpt lat="42.46251" lon="2.25396">
        <ele>2197</ele>
        <time>2024-09-17T07:58:11Z</time>
      </trkpt>
      <trkpt lat="42.46253" lon="2.254">
        <ele>2197</ele>
        <time>2024-09-17T07:58:16Z</time>
      </trkpt>
      <trkpt lat="42.46256" lon="2.25403">
        <ele>2199</ele>
        <time>2024-09-17T07:58:20Z</time>
      </trkpt>
      <trkpt lat="42.46257" lon="2.25406">
        <ele>2200</ele>
        <time>2024-09-17T07:58:25Z</time>
      </trkpt>
      <trkpt lat="42.46258" lon="2.2541">
        <ele>2201</ele>
        <time>2024-09-17T07:58:31Z</time>
      </trkpt>
      <trkpt lat="42.4626" lon="2.25414">
        <ele>2202</ele>
        <time>2024-09-17T07:58:36Z</time>
      </trkpt>
      <trkpt lat="42.46263" lon="2.25417">
        <ele>2203</ele>
        <time>2024-09-17T07:58:42Z</time>
      </trkpt>
      <trkpt lat="42.46265" lon="2.25421">
        <ele>2204</ele>
        <time>2024-09-17T07:58:46Z</time>
      </trkpt>
      <trkpt lat="42.46267" lon="2.25425">
        <ele>2205</ele>
        <time>2024-09-17T07:58:51Z</time>
      </trkpt>
      <trkpt lat="42.4627" lon="2.25427">
        <ele>2204</ele>
        <time>2024-09-17T07:58:57Z</time>
      </trkpt>
      <trkpt lat="42.46272" lon="2.2543">
        <ele>2204</ele>
        <time>2024-09-17T07:59:03Z</time>
      </trkpt>
      <trkpt lat="42.46275" lon="2.25434">
        <ele>2205</ele>
        <time>2024-09-17T07:59:08Z</time>
      </trkpt>
      <trkpt lat="42.46274" lon="2.25439">
        <ele>2204</ele>
        <time>2024-09-17T07:59:09Z</time>
      </trkpt>
      <trkpt lat="42.46277" lon="2.2544">
        <ele>2207</ele>
        <time>2024-09-17T07:59:16Z</time>
      </trkpt>
      <trkpt lat="42.46279" lon="2.25442">
        <ele>2205</ele>
        <time>2024-09-17T07:59:20Z</time>
      </trkpt>
      <trkpt lat="42.46281" lon="2.25444">
        <ele>2202</ele>
        <time>2024-09-17T07:59:26Z</time>
      </trkpt>
      <trkpt lat="42.46284" lon="2.25447">
        <ele>2206</ele>
        <time>2024-09-17T07:59:30Z</time>
      </trkpt>
      <trkpt lat="42.46287" lon="2.25449">
        <ele>2208</ele>
        <time>2024-09-17T07:59:33Z</time>
      </trkpt>
      <trkpt lat="42.46289" lon="2.25452">
        <ele>2209</ele>
        <time>2024-09-17T07:59:38Z</time>
      </trkpt>
      <trkpt lat="42.46292" lon="2.25455">
        <ele>2211</ele>
        <time>2024-09-17T07:59:45Z</time>
      </trkpt>
      <trkpt lat="42.46294" lon="2.25457">
        <ele>2213</ele>
        <time>2024-09-17T07:59:52Z</time>
      </trkpt>
      <trkpt lat="42.46296" lon="2.25461">
        <ele>2213</ele>
        <time>2024-09-17T08:00:00Z</time>
      </trkpt>
      <trkpt lat="42.46299" lon="2.25463">
        <ele>2212</ele>
        <time>2024-09-17T08:00:06Z</time>
      </trkpt>
      <trkpt lat="42.46302" lon="2.25466">
        <ele>2213</ele>
        <time>2024-09-17T08:00:12Z</time>
      </trkpt>
      <trkpt lat="42.46305" lon="2.25468">
        <ele>2214</ele>
        <time>2024-09-17T08:00:16Z</time>
      </trkpt>
      <trkpt lat="42.46308" lon="2.25469">
        <ele>2215</ele>
        <time>2024-09-17T08:00:26Z</time>
      </trkpt>
      <trkpt lat="42.46311" lon="2.25471">
        <ele>2216</ele>
        <time>2024-09-17T08:00:32Z</time>
      </trkpt>
      <trkpt lat="42.46313" lon="2.25471">
        <ele>2216</ele>
        <time>2024-09-17T08:00:38Z</time>
      </trkpt>
      <trkpt lat="42.46316" lon="2.25471">
        <ele>2216</ele>
        <time>2024-09-17T08:00:45Z</time>
      </trkpt>
      <trkpt lat="42.46319" lon="2.25472">
        <ele>2216</ele>
        <time>2024-09-17T08:00:51Z</time>
      </trkpt>
      <trkpt lat="42.46322" lon="2.25471">
        <ele>2220</ele>
        <time>2024-09-17T08:00:58Z</time>
      </trkpt>
      <trkpt lat="42.46325" lon="2.25472">
        <ele>2220</ele>
        <time>2024-09-17T08:01:03Z</time>
      </trkpt>
      <trkpt lat="42.46328" lon="2.25472">
        <ele>2220</ele>
        <time>2024-09-17T08:01:05Z</time>
      </trkpt>
      <trkpt lat="42.46331" lon="2.25471">
        <ele>2223</ele>
        <time>2024-09-17T08:01:08Z</time>
      </trkpt>
      <trkpt lat="42.46334" lon="2.25469">
        <ele>2225</ele>
        <time>2024-09-17T08:01:11Z</time>
      </trkpt>
      <trkpt lat="42.46336" lon="2.25467">
        <ele>2225</ele>
        <time>2024-09-17T08:01:13Z</time>
      </trkpt>
      <trkpt lat="42.46339" lon="2.25468">
        <ele>2223</ele>
        <time>2024-09-17T08:01:20Z</time>
      </trkpt>
      <trkpt lat="42.46342" lon="2.2547">
        <ele>2225</ele>
        <time>2024-09-17T08:01:23Z</time>
      </trkpt>
      <trkpt lat="42.46344" lon="2.2547">
        <ele>2228</ele>
        <time>2024-09-17T08:01:32Z</time>
      </trkpt>
      <trkpt lat="42.46347" lon="2.25469">
        <ele>2230</ele>
        <time>2024-09-17T08:01:37Z</time>
      </trkpt>
      <trkpt lat="42.46351" lon="2.25468">
        <ele>2229</ele>
        <time>2024-09-17T08:01:44Z</time>
      </trkpt>
      <trkpt lat="42.46352" lon="2.2547">
        <ele>2230</ele>
        <time>2024-09-17T08:01:54Z</time>
      </trkpt>
      <trkpt lat="42.46353" lon="2.25475">
        <ele>2230</ele>
        <time>2024-09-17T08:02:00Z</time>
      </trkpt>
      <trkpt lat="42.46353" lon="2.25474">
        <ele>2231</ele>
        <time>2024-09-17T08:02:02Z</time>
      </trkpt>
      <trkpt lat="42.46355" lon="2.25474">
        <ele>2233</ele>
        <time>2024-09-17T08:02:16Z</time>
      </trkpt>
      <trkpt lat="42.46358" lon="2.25474">
        <ele>2236</ele>
        <time>2024-09-17T08:02:22Z</time>
      </trkpt>
      <trkpt lat="42.46361" lon="2.25475">
        <ele>2236</ele>
        <time>2024-09-17T08:02:29Z</time>
      </trkpt>
      <trkpt lat="42.46364" lon="2.25476">
        <ele>2235</ele>
        <time>2024-09-17T08:02:33Z</time>
      </trkpt>
      <trkpt lat="42.46366" lon="2.25477">
        <ele>2236</ele>
        <time>2024-09-17T08:02:35Z</time>
      </trkpt>
      <trkpt lat="42.46369" lon="2.25479">
        <ele>2238</ele>
        <time>2024-09-17T08:02:39Z</time>
      </trkpt>
      <trkpt lat="42.46372" lon="2.25479">
        <ele>2238</ele>
        <time>2024-09-17T08:02:45Z</time>
      </trkpt>
      <trkpt lat="42.46374" lon="2.25478">
        <ele>2238</ele>
        <time>2024-09-17T08:02:49Z</time>
      </trkpt>
      <trkpt lat="42.46377" lon="2.25477">
        <ele>2241</ele>
        <time>2024-09-17T08:02:58Z</time>
      </trkpt>
      <trkpt lat="42.4638" lon="2.25479">
        <ele>2240</ele>
        <time>2024-09-17T08:03:03Z</time>
      </trkpt>
      <trkpt lat="42.46383" lon="2.2548">
        <ele>2241</ele>
        <time>2024-09-17T08:03:08Z</time>
      </trkpt>
      <trkpt lat="42.46386" lon="2.25481">
        <ele>2241</ele>
        <time>2024-09-17T08:03:13Z</time>
      </trkpt>
      <trkpt lat="42.46389" lon="2.25482">
        <ele>2241</ele>
        <time>2024-09-17T08:03:21Z</time>
      </trkpt>
      <trkpt lat="42.46393" lon="2.25484">
        <ele>2243</ele>
        <time>2024-09-17T08:03:26Z</time>
      </trkpt>
      <trkpt lat="42.46395" lon="2.25487">
        <ele>2243</ele>
        <time>2024-09-17T08:03:32Z</time>
      </trkpt>
      <trkpt lat="42.46397" lon="2.25489">
        <ele>2245</ele>
        <time>2024-09-17T08:03:42Z</time>
      </trkpt>
      <trkpt lat="42.464" lon="2.25492">
        <ele>2246</ele>
        <time>2024-09-17T08:03:48Z</time>
      </trkpt>
      <trkpt lat="42.46402" lon="2.25495">
        <ele>2249</ele>
        <time>2024-09-17T08:03:52Z</time>
      </trkpt>
      <trkpt lat="42.46402" lon="2.25499">
        <ele>2253</ele>
        <time>2024-09-17T08:03:59Z</time>
      </trkpt>
      <trkpt lat="42.46404" lon="2.25501">
        <ele>2255</ele>
        <time>2024-09-17T08:04:05Z</time>
      </trkpt>
      <trkpt lat="42.46406" lon="2.25504">
        <ele>2255</ele>
        <time>2024-09-17T08:04:11Z</time>
      </trkpt>
      <trkpt lat="42.46407" lon="2.25507">
        <ele>2256</ele>
        <time>2024-09-17T08:04:19Z</time>
      </trkpt>
      <trkpt lat="42.46409" lon="2.2551">
        <ele>2257</ele>
        <time>2024-09-17T08:04:24Z</time>
      </trkpt>
      <trkpt lat="42.46412" lon="2.25512">
        <ele>2257</ele>
        <time>2024-09-17T08:04:27Z</time>
      </trkpt>
      <trkpt lat="42.46414" lon="2.25514">
        <ele>2258</ele>
        <time>2024-09-17T08:04:32Z</time>
      </trkpt>
      <trkpt lat="42.46417" lon="2.25514">
        <ele>2260</ele>
        <time>2024-09-17T08:04:35Z</time>
      </trkpt>
      <trkpt lat="42.4642" lon="2.25516">
        <ele>2260</ele>
        <time>2024-09-17T08:04:38Z</time>
      </trkpt>
      <trkpt lat="42.46421" lon="2.25519">
        <ele>2261</ele>
        <time>2024-09-17T08:04:41Z</time>
      </trkpt>
      <trkpt lat="42.46424" lon="2.2552">
        <ele>2262</ele>
        <time>2024-09-17T08:04:48Z</time>
      </trkpt>
      <trkpt lat="42.46426" lon="2.25522">
        <ele>2262</ele>
        <time>2024-09-17T08:04:51Z</time>
      </trkpt>
      <trkpt lat="42.46428" lon="2.25524">
        <ele>2262</ele>
        <time>2024-09-17T08:04:53Z</time>
      </trkpt>
      <trkpt lat="42.46431" lon="2.25527">
        <ele>2260</ele>
        <time>2024-09-17T08:04:56Z</time>
      </trkpt>
      <trkpt lat="42.46433" lon="2.25527">
        <ele>2260</ele>
        <time>2024-09-17T08:04:57Z</time>
      </trkpt>
      <trkpt lat="42.46436" lon="2.25528">
        <ele>2261</ele>
        <time>2024-09-17T08:04:59Z</time>
      </trkpt>
      <trkpt lat="42.46439" lon="2.25528">
        <ele>2261</ele>
        <time>2024-09-17T08:05:02Z</time>
      </trkpt>
      <trkpt lat="42.46442" lon="2.25528">
        <ele>2261</ele>
        <time>2024-09-17T08:05:07Z</time>
      </trkpt>
      <trkpt lat="42.46445" lon="2.25529">
        <ele>2263</ele>
        <time>2024-09-17T08:05:12Z</time>
      </trkpt>
      <trkpt lat="42.46447" lon="2.2553">
        <ele>2264</ele>
        <time>2024-09-17T08:05:17Z</time>
      </trkpt>
      <trkpt lat="42.4645" lon="2.25532">
        <ele>2265</ele>
        <time>2024-09-17T08:05:23Z</time>
      </trkpt>
      <trkpt lat="42.46451" lon="2.25535">
        <ele>2266</ele>
        <time>2024-09-17T08:05:26Z</time>
      </trkpt>
      <trkpt lat="42.46454" lon="2.25536">
        <ele>2268</ele>
        <time>2024-09-17T08:05:30Z</time>
      </trkpt>
      <trkpt lat="42.46456" lon="2.25538">
        <ele>2268</ele>
        <time>2024-09-17T08:05:33Z</time>
      </trkpt>
      <trkpt lat="42.46459" lon="2.25538">
        <ele>2268</ele>
        <time>2024-09-17T08:05:39Z</time>
      </trkpt>
      <trkpt lat="42.46462" lon="2.2554">
        <ele>2268</ele>
        <time>2024-09-17T08:05:44Z</time>
      </trkpt>
      <trkpt lat="42.46465" lon="2.25542">
        <ele>2269</ele>
        <time>2024-09-17T08:05:48Z</time>
      </trkpt>
      <trkpt lat="42.46467" lon="2.25545">
        <ele>2269</ele>
        <time>2024-09-17T08:05:50Z</time>
      </trkpt>
      <trkpt lat="42.46469" lon="2.25548">
        <ele>2270</ele>
        <time>2024-09-17T08:05:55Z</time>
      </trkpt>
      <trkpt lat="42.46472" lon="2.2555">
        <ele>2270</ele>
        <time>2024-09-17T08:05:58Z</time>
      </trkpt>
      <trkpt lat="42.46474" lon="2.25553">
        <ele>2269</ele>
        <time>2024-09-17T08:06:02Z</time>
      </trkpt>
      <trkpt lat="42.46476" lon="2.25556">
        <ele>2270</ele>
        <time>2024-09-17T08:06:06Z</time>
      </trkpt>
      <trkpt lat="42.46479" lon="2.25559">
        <ele>2272</ele>
        <time>2024-09-17T08:06:10Z</time>
      </trkpt>
      <trkpt lat="42.4648" lon="2.25564">
        <ele>2275</ele>
        <time>2024-09-17T08:06:14Z</time>
      </trkpt>
      <trkpt lat="42.46482" lon="2.25568">
        <ele>2276</ele>
        <time>2024-09-17T08:06:18Z</time>
      </trkpt>
      <trkpt lat="42.46484" lon="2.25572">
        <ele>2277</ele>
        <time>2024-09-17T08:06:22Z</time>
      </trkpt>
      <trkpt lat="42.46486" lon="2.25575">
        <ele>2276</ele>
        <time>2024-09-17T08:06:25Z</time>
      </trkpt>
      <trkpt lat="42.46488" lon="2.25577">
        <ele>2276</ele>
        <time>2024-09-17T08:06:28Z</time>
      </trkpt>
      <trkpt lat="42.46491" lon="2.25578">
        <ele>2276</ele>
        <time>2024-09-17T08:06:30Z</time>
      </trkpt>
      <trkpt lat="42.46494" lon="2.25579">
        <ele>2276</ele>
        <time>2024-09-17T08:06:33Z</time>
      </trkpt>
      <trkpt lat="42.46494" lon="2.25582">
        <ele>2280</ele>
        <time>2024-09-17T08:08:00Z</time>
      </trkpt>
      <trkpt lat="42.46496" lon="2.2558">
        <ele>2276</ele>
        <time>2024-09-17T08:08:59Z</time>
      </trkpt>
      <trkpt lat="42.46495" lon="2.25581">
        <ele>2279</ele>
        <time>2024-09-17T08:11:18Z</time>
      </trkpt>
      <trkpt lat="42.46494" lon="2.25585">
        <ele>2278</ele>
        <time>2024-09-17T08:11:43Z</time>
      </trkpt>
      <trkpt lat="42.46495" lon="2.25589">
        <ele>2280</ele>
        <time>2024-09-17T08:11:46Z</time>
      </trkpt>
      <trkpt lat="42.46496" lon="2.25593">
        <ele>2278</ele>
        <time>2024-09-17T08:11:50Z</time>
      </trkpt>
      <trkpt lat="42.46498" lon="2.25596">
        <ele>2278</ele>
        <time>2024-09-17T08:11:52Z</time>
      </trkpt>
      <trkpt lat="42.46501" lon="2.25599">
        <ele>2279</ele>
        <time>2024-09-17T08:11:55Z</time>
      </trkpt>
      <trkpt lat="42.46501" lon="2.25604">
        <ele>2278</ele>
        <time>2024-09-17T08:11:59Z</time>
      </trkpt>
      <trkpt lat="42.46501" lon="2.25607">
        <ele>2279</ele>
        <time>2024-09-17T08:12:03Z</time>
      </trkpt>
      <trkpt lat="42.46501" lon="2.25611">
        <ele>2281</ele>
        <time>2024-09-17T08:12:08Z</time>
      </trkpt>
      <trkpt lat="42.465" lon="2.25615">
        <ele>2279</ele>
        <time>2024-09-17T08:12:10Z</time>
      </trkpt>
      <trkpt lat="42.465" lon="2.25619">
        <ele>2282</ele>
        <time>2024-09-17T08:12:13Z</time>
      </trkpt>
      <trkpt lat="42.465" lon="2.25624">
        <ele>2283</ele>
        <time>2024-09-17T08:12:16Z</time>
      </trkpt>
      <trkpt lat="42.465" lon="2.25628">
        <ele>2286</ele>
        <time>2024-09-17T08:12:20Z</time>
      </trkpt>
      <trkpt lat="42.465" lon="2.25632">
        <ele>2288</ele>
        <time>2024-09-17T08:12:24Z</time>
      </trkpt>
      <trkpt lat="42.46501" lon="2.25637">
        <ele>2282</ele>
        <time>2024-09-17T08:12:30Z</time>
      </trkpt>
      <trkpt lat="42.46501" lon="2.25642">
        <ele>2282</ele>
        <time>2024-09-17T08:12:32Z</time>
      </trkpt>
      <trkpt lat="42.46502" lon="2.25647">
        <ele>2283</ele>
        <time>2024-09-17T08:12:37Z</time>
      </trkpt>
      <trkpt lat="42.46503" lon="2.25651">
        <ele>2281</ele>
        <time>2024-09-17T08:12:39Z</time>
      </trkpt>
      <trkpt lat="42.46502" lon="2.25655">
        <ele>2285</ele>
        <time>2024-09-17T08:12:41Z</time>
      </trkpt>
      <trkpt lat="42.46504" lon="2.25659">
        <ele>2283</ele>
        <time>2024-09-17T08:12:44Z</time>
      </trkpt>
      <trkpt lat="42.46505" lon="2.25663">
        <ele>2285</ele>
        <time>2024-09-17T08:12:48Z</time>
      </trkpt>
      <trkpt lat="42.46506" lon="2.25668">
        <ele>2284</ele>
        <time>2024-09-17T08:12:51Z</time>
      </trkpt>
      <trkpt lat="42.46509" lon="2.25671">
        <ele>2282</ele>
        <time>2024-09-17T08:12:54Z</time>
      </trkpt>
      <trkpt lat="42.46511" lon="2.25675">
        <ele>2282</ele>
        <time>2024-09-17T08:12:57Z</time>
      </trkpt>
      <trkpt lat="42.46512" lon="2.25679">
        <ele>2282</ele>
        <time>2024-09-17T08:13:00Z</time>
      </trkpt>
      <trkpt lat="42.46514" lon="2.25682">
        <ele>2282</ele>
        <time>2024-09-17T08:13:03Z</time>
      </trkpt>
      <trkpt lat="42.46515" lon="2.25686">
        <ele>2283</ele>
        <time>2024-09-17T08:13:05Z</time>
      </trkpt>
      <trkpt lat="42.46516" lon="2.2569">
        <ele>2282</ele>
        <time>2024-09-17T08:13:08Z</time>
      </trkpt>
      <trkpt lat="42.46518" lon="2.25694">
        <ele>2283</ele>
        <time>2024-09-17T08:13:11Z</time>
      </trkpt>
      <trkpt lat="42.46519" lon="2.25697">
        <ele>2282</ele>
        <time>2024-09-17T08:13:14Z</time>
      </trkpt>
      <trkpt lat="42.46521" lon="2.25701">
        <ele>2282</ele>
        <time>2024-09-17T08:13:17Z</time>
      </trkpt>
      <trkpt lat="42.46522" lon="2.25706">
        <ele>2284</ele>
        <time>2024-09-17T08:13:21Z</time>
      </trkpt>
      <trkpt lat="42.46523" lon="2.2571">
        <ele>2284</ele>
        <time>2024-09-17T08:13:24Z</time>
      </trkpt>
      <trkpt lat="42.46525" lon="2.25713">
        <ele>2285</ele>
        <time>2024-09-17T08:13:27Z</time>
      </trkpt>
      <trkpt lat="42.46526" lon="2.25717">
        <ele>2285</ele>
        <time>2024-09-17T08:13:29Z</time>
      </trkpt>
      <trkpt lat="42.46527" lon="2.25721">
        <ele>2286</ele>
        <time>2024-09-17T08:13:32Z</time>
      </trkpt>
      <trkpt lat="42.46528" lon="2.25725">
        <ele>2288</ele>
        <time>2024-09-17T08:13:34Z</time>
      </trkpt>
      <trkpt lat="42.46529" lon="2.2573">
        <ele>2289</ele>
        <time>2024-09-17T08:13:37Z</time>
      </trkpt>
      <trkpt lat="42.46532" lon="2.25733">
        <ele>2289</ele>
        <time>2024-09-17T08:13:41Z</time>
      </trkpt>
      <trkpt lat="42.46534" lon="2.25736">
        <ele>2287</ele>
        <time>2024-09-17T08:13:45Z</time>
      </trkpt>
      <trkpt lat="42.46536" lon="2.2574">
        <ele>2288</ele>
        <time>2024-09-17T08:13:49Z</time>
      </trkpt>
      <trkpt lat="42.46537" lon="2.25744">
        <ele>2289</ele>
        <time>2024-09-17T08:13:52Z</time>
      </trkpt>
      <trkpt lat="42.46538" lon="2.25748">
        <ele>2290</ele>
        <time>2024-09-17T08:13:55Z</time>
      </trkpt>
      <trkpt lat="42.46539" lon="2.25752">
        <ele>2291</ele>
        <time>2024-09-17T08:13:58Z</time>
      </trkpt>
      <trkpt lat="42.46541" lon="2.25756">
        <ele>2291</ele>
        <time>2024-09-17T08:14:01Z</time>
      </trkpt>
      <trkpt lat="42.46542" lon="2.25759">
        <ele>2291</ele>
        <time>2024-09-17T08:14:05Z</time>
      </trkpt>
      <trkpt lat="42.46544" lon="2.25763">
        <ele>2292</ele>
        <time>2024-09-17T08:14:08Z</time>
      </trkpt>
      <trkpt lat="42.46546" lon="2.25767">
        <ele>2292</ele>
        <time>2024-09-17T08:14:11Z</time>
      </trkpt>
      <trkpt lat="42.46547" lon="2.25771">
        <ele>2293</ele>
        <time>2024-09-17T08:14:14Z</time>
      </trkpt>
      <trkpt lat="42.46548" lon="2.25775">
        <ele>2293</ele>
        <time>2024-09-17T08:14:16Z</time>
      </trkpt>
      <trkpt lat="42.4655" lon="2.25778">
        <ele>2293</ele>
        <time>2024-09-17T08:14:20Z</time>
      </trkpt>
      <trkpt lat="42.46551" lon="2.25782">
        <ele>2294</ele>
        <time>2024-09-17T08:14:23Z</time>
      </trkpt>
      <trkpt lat="42.46553" lon="2.25786">
        <ele>2294</ele>
        <time>2024-09-17T08:14:29Z</time>
      </trkpt>
      <trkpt lat="42.46554" lon="2.2579">
        <ele>2294</ele>
        <time>2024-09-17T08:14:32Z</time>
      </trkpt>
      <trkpt lat="42.46554" lon="2.25794">
        <ele>2294</ele>
        <time>2024-09-17T08:14:35Z</time>
      </trkpt>
      <trkpt lat="42.46554" lon="2.25798">
        <ele>2296</ele>
        <time>2024-09-17T08:14:39Z</time>
      </trkpt>
      <trkpt lat="42.46553" lon="2.25803">
        <ele>2295</ele>
        <time>2024-09-17T08:14:43Z</time>
      </trkpt>
      <trkpt lat="42.46552" lon="2.25807">
        <ele>2296</ele>
        <time>2024-09-17T08:14:45Z</time>
      </trkpt>
      <trkpt lat="42.46551" lon="2.2581">
        <ele>2297</ele>
        <time>2024-09-17T08:14:48Z</time>
      </trkpt>
      <trkpt lat="42.4655" lon="2.25814">
        <ele>2296</ele>
        <time>2024-09-17T08:14:50Z</time>
      </trkpt>
      <trkpt lat="42.46548" lon="2.25818">
        <ele>2297</ele>
        <time>2024-09-17T08:14:54Z</time>
      </trkpt>
      <trkpt lat="42.46548" lon="2.25822">
        <ele>2297</ele>
        <time>2024-09-17T08:14:57Z</time>
      </trkpt>
      <trkpt lat="42.46546" lon="2.25825">
        <ele>2297</ele>
        <time>2024-09-17T08:14:59Z</time>
      </trkpt>
      <trkpt lat="42.46545" lon="2.25829">
        <ele>2296</ele>
        <time>2024-09-17T08:15:02Z</time>
      </trkpt>
      <trkpt lat="42.46543" lon="2.25832">
        <ele>2297</ele>
        <time>2024-09-17T08:15:05Z</time>
      </trkpt>
      <trkpt lat="42.46541" lon="2.25835">
        <ele>2298</ele>
        <time>2024-09-17T08:15:07Z</time>
      </trkpt>
      <trkpt lat="42.46538" lon="2.25838">
        <ele>2298</ele>
        <time>2024-09-17T08:15:10Z</time>
      </trkpt>
      <trkpt lat="42.46536" lon="2.25841">
        <ele>2299</ele>
        <time>2024-09-17T08:15:13Z</time>
      </trkpt>
      <trkpt lat="42.46535" lon="2.25845">
        <ele>2299</ele>
        <time>2024-09-17T08:15:16Z</time>
      </trkpt>
      <trkpt lat="42.46535" lon="2.2585">
        <ele>2299</ele>
        <time>2024-09-17T08:15:29Z</time>
      </trkpt>
      <trkpt lat="42.46535" lon="2.25849">
        <ele>2297</ele>
        <time>2024-09-17T08:16:56Z</time>
      </trkpt>
      <trkpt lat="42.46534" lon="2.25846">
        <ele>2297</ele>
        <time>2024-09-17T08:16:59Z</time>
      </trkpt>
      <trkpt lat="42.46533" lon="2.25842">
        <ele>2297</ele>
        <time>2024-09-17T08:17:11Z</time>
      </trkpt>
      <trkpt lat="42.46534" lon="2.25837">
        <ele>2297</ele>
        <time>2024-09-17T08:17:13Z</time>
      </trkpt>
      <trkpt lat="42.46534" lon="2.25832">
        <ele>2297</ele>
        <time>2024-09-17T08:17:14Z</time>
      </trkpt>
      <trkpt lat="42.46535" lon="2.25827">
        <ele>2297</ele>
        <time>2024-09-17T08:17:15Z</time>
      </trkpt>
      <trkpt lat="42.46536" lon="2.25823">
        <ele>2296</ele>
        <time>2024-09-17T08:17:16Z</time>
      </trkpt>
      <trkpt lat="42.46538" lon="2.25818">
        <ele>2296</ele>
        <time>2024-09-17T08:17:17Z</time>
      </trkpt>
      <trkpt lat="42.46541" lon="2.25813">
        <ele>2294</ele>
        <time>2024-09-17T08:17:19Z</time>
      </trkpt>
      <trkpt lat="42.46544" lon="2.25811">
        <ele>2295</ele>
        <time>2024-09-17T08:17:20Z</time>
      </trkpt>
      <trkpt lat="42.46547" lon="2.25808">
        <ele>2294</ele>
        <time>2024-09-17T08:17:21Z</time>
      </trkpt>
      <trkpt lat="42.46551" lon="2.25804">
        <ele>2293</ele>
        <time>2024-09-17T08:17:23Z</time>
      </trkpt>
      <trkpt lat="42.46553" lon="2.258">
        <ele>2293</ele>
        <time>2024-09-17T08:17:24Z</time>
      </trkpt>
      <trkpt lat="42.46555" lon="2.25795">
        <ele>2292</ele>
        <time>2024-09-17T08:17:26Z</time>
      </trkpt>
      <trkpt lat="42.46556" lon="2.2579">
        <ele>2292</ele>
        <time>2024-09-17T08:17:27Z</time>
      </trkpt>
      <trkpt lat="42.46556" lon="2.25786">
        <ele>2291</ele>
        <time>2024-09-17T08:17:28Z</time>
      </trkpt>
      <trkpt lat="42.46555" lon="2.25783">
        <ele>2291</ele>
        <time>2024-09-17T08:17:29Z</time>
      </trkpt>
      <trkpt lat="42.46554" lon="2.25784">
        <ele>2292</ele>
        <time>2024-09-17T08:17:49Z</time>
      </trkpt>
      <trkpt lat="42.46554" lon="2.25788">
        <ele>2292</ele>
        <time>2024-09-17T08:17:52Z</time>
      </trkpt>
      <trkpt lat="42.46554" lon="2.25792">
        <ele>2293</ele>
        <time>2024-09-17T08:17:55Z</time>
      </trkpt>
      <trkpt lat="42.46554" lon="2.25797">
        <ele>2294</ele>
        <time>2024-09-17T08:17:57Z</time>
      </trkpt>
      <trkpt lat="42.46553" lon="2.258">
        <ele>2295</ele>
        <time>2024-09-17T08:17:59Z</time>
      </trkpt>
      <trkpt lat="42.46552" lon="2.25804">
        <ele>2295</ele>
        <time>2024-09-17T08:18:01Z</time>
      </trkpt>
      <trkpt lat="42.46551" lon="2.25808">
        <ele>2295</ele>
        <time>2024-09-17T08:18:03Z</time>
      </trkpt>
      <trkpt lat="42.4655" lon="2.25812">
        <ele>2295</ele>
        <time>2024-09-17T08:18:05Z</time>
      </trkpt>
      <trkpt lat="42.46549" lon="2.25815">
        <ele>2295</ele>
        <time>2024-09-17T08:18:07Z</time>
      </trkpt>
      <trkpt lat="42.46547" lon="2.2582">
        <ele>2295</ele>
        <time>2024-09-17T08:18:10Z</time>
      </trkpt>
      <trkpt lat="42.46546" lon="2.25823">
        <ele>2294</ele>
        <time>2024-09-17T08:18:12Z</time>
      </trkpt>
      <trkpt lat="42.46544" lon="2.25827">
        <ele>2295</ele>
        <time>2024-09-17T08:18:15Z</time>
      </trkpt>
      <trkpt lat="42.46542" lon="2.25831">
        <ele>2295</ele>
        <time>2024-09-17T08:18:18Z</time>
      </trkpt>
      <trkpt lat="42.46539" lon="2.25835">
        <ele>2295</ele>
        <time>2024-09-17T08:18:21Z</time>
      </trkpt>
      <trkpt lat="42.46536" lon="2.25839">
        <ele>2296</ele>
        <time>2024-09-17T08:18:24Z</time>
      </trkpt>
      <trkpt lat="42.46534" lon="2.25844">
        <ele>2296</ele>
        <time>2024-09-17T08:18:26Z</time>
      </trkpt>
      <trkpt lat="42.46532" lon="2.25846">
        <ele>2296</ele>
        <time>2024-09-17T08:18:37Z</time>
      </trkpt>
      <trkpt lat="42.46533" lon="2.25846">
        <ele>2296</ele>
        <time>2024-09-17T08:18:58Z</time>
      </trkpt>
      <trkpt lat="42.46531" lon="2.25847">
        <ele>2297</ele>
        <time>2024-09-17T08:20:31Z</time>
      </trkpt>
      <trkpt lat="42.46528" lon="2.25847">
        <ele>2297</ele>
        <time>2024-09-17T08:20:34Z</time>
      </trkpt>
      <trkpt lat="42.46525" lon="2.25847">
        <ele>2299</ele>
        <time>2024-09-17T08:20:55Z</time>
      </trkpt>
      <trkpt lat="42.46522" lon="2.25847">
        <ele>2298</ele>
        <time>2024-09-17T08:20:58Z</time>
      </trkpt>
      <trkpt lat="42.46519" lon="2.25848">
        <ele>2298</ele>
        <time>2024-09-17T08:21:01Z</time>
      </trkpt>
      <trkpt lat="42.46515" lon="2.25848">
        <ele>2299</ele>
        <time>2024-09-17T08:21:04Z</time>
      </trkpt>
      <trkpt lat="42.46511" lon="2.25849">
        <ele>2299</ele>
        <time>2024-09-17T08:21:07Z</time>
      </trkpt>
      <trkpt lat="42.46508" lon="2.2585">
        <ele>2299</ele>
        <time>2024-09-17T08:21:10Z</time>
      </trkpt>
      <trkpt lat="42.46505" lon="2.2585">
        <ele>2300</ele>
        <time>2024-09-17T08:21:12Z</time>
      </trkpt>
      <trkpt lat="42.46502" lon="2.25852">
        <ele>2300</ele>
        <time>2024-09-17T08:21:15Z</time>
      </trkpt>
      <trkpt lat="42.46499" lon="2.25854">
        <ele>2300</ele>
        <time>2024-09-17T08:21:18Z</time>
      </trkpt>
      <trkpt lat="42.46496" lon="2.25856">
        <ele>2300</ele>
        <time>2024-09-17T08:21:21Z</time>
      </trkpt>
      <trkpt lat="42.46493" lon="2.25858">
        <ele>2300</ele>
        <time>2024-09-17T08:21:24Z</time>
      </trkpt>
      <trkpt lat="42.46489" lon="2.2586">
        <ele>2300</ele>
        <time>2024-09-17T08:21:27Z</time>
      </trkpt>
      <trkpt lat="42.46486" lon="2.25861">
        <ele>2301</ele>
        <time>2024-09-17T08:21:30Z</time>
      </trkpt>
      <trkpt lat="42.46482" lon="2.25863">
        <ele>2301</ele>
        <time>2024-09-17T08:21:33Z</time>
      </trkpt>
      <trkpt lat="42.46479" lon="2.25865">
        <ele>2301</ele>
        <time>2024-09-17T08:21:36Z</time>
      </trkpt>
      <trkpt lat="42.46475" lon="2.25867">
        <ele>2300</ele>
        <time>2024-09-17T08:21:39Z</time>
      </trkpt>
      <trkpt lat="42.46472" lon="2.2587">
        <ele>2300</ele>
        <time>2024-09-17T08:21:42Z</time>
      </trkpt>
      <trkpt lat="42.46468" lon="2.25872">
        <ele>2300</ele>
        <time>2024-09-17T08:21:45Z</time>
      </trkpt>
      <trkpt lat="42.46465" lon="2.25874">
        <ele>2300</ele>
        <time>2024-09-17T08:21:47Z</time>
      </trkpt>
      <trkpt lat="42.46462" lon="2.25876">
        <ele>2300</ele>
        <time>2024-09-17T08:21:50Z</time>
      </trkpt>
      <trkpt lat="42.46459" lon="2.25878">
        <ele>2300</ele>
        <time>2024-09-17T08:21:53Z</time>
      </trkpt>
      <trkpt lat="42.46456" lon="2.2588">
        <ele>2300</ele>
        <time>2024-09-17T08:21:55Z</time>
      </trkpt>
      <trkpt lat="42.46453" lon="2.25881">
        <ele>2300</ele>
        <time>2024-09-17T08:21:57Z</time>
      </trkpt>
      <trkpt lat="42.4645" lon="2.25883">
        <ele>2299</ele>
        <time>2024-09-17T08:22:00Z</time>
      </trkpt>
      <trkpt lat="42.46447" lon="2.25885">
        <ele>2299</ele>
        <time>2024-09-17T08:22:02Z</time>
      </trkpt>
      <trkpt lat="42.46444" lon="2.25887">
        <ele>2299</ele>
        <time>2024-09-17T08:22:05Z</time>
      </trkpt>
      <trkpt lat="42.46441" lon="2.25889">
        <ele>2298</ele>
        <time>2024-09-17T08:22:09Z</time>
      </trkpt>
      <trkpt lat="42.46438" lon="2.25891">
        <ele>2298</ele>
        <time>2024-09-17T08:22:12Z</time>
      </trkpt>
      <trkpt lat="42.46435" lon="2.25893">
        <ele>2297</ele>
        <time>2024-09-17T08:22:15Z</time>
      </trkpt>
      <trkpt lat="42.46432" lon="2.25896">
        <ele>2298</ele>
        <time>2024-09-17T08:22:18Z</time>
      </trkpt>
      <trkpt lat="42.46429" lon="2.25898">
        <ele>2298</ele>
        <time>2024-09-17T08:22:21Z</time>
      </trkpt>
      <trkpt lat="42.46427" lon="2.25901">
        <ele>2297</ele>
        <time>2024-09-17T08:22:23Z</time>
      </trkpt>
      <trkpt lat="42.46424" lon="2.25904">
        <ele>2297</ele>
        <time>2024-09-17T08:22:26Z</time>
      </trkpt>
      <trkpt lat="42.46422" lon="2.25908">
        <ele>2296</ele>
        <time>2024-09-17T08:22:29Z</time>
      </trkpt>
      <trkpt lat="42.46419" lon="2.2591">
        <ele>2297</ele>
        <time>2024-09-17T08:22:32Z</time>
      </trkpt>
      <trkpt lat="42.46416" lon="2.25912">
        <ele>2296</ele>
        <time>2024-09-17T08:22:36Z</time>
      </trkpt>
      <trkpt lat="42.46413" lon="2.25915">
        <ele>2297</ele>
        <time>2024-09-17T08:22:39Z</time>
      </trkpt>
      <trkpt lat="42.4641" lon="2.25918">
        <ele>2297</ele>
        <time>2024-09-17T08:22:41Z</time>
      </trkpt>
      <trkpt lat="42.46408" lon="2.2592">
        <ele>2297</ele>
        <time>2024-09-17T08:22:43Z</time>
      </trkpt>
      <trkpt lat="42.46406" lon="2.25924">
        <ele>2297</ele>
        <time>2024-09-17T08:22:46Z</time>
      </trkpt>
      <trkpt lat="42.46404" lon="2.25927">
        <ele>2297</ele>
        <time>2024-09-17T08:22:49Z</time>
      </trkpt>
      <trkpt lat="42.46401" lon="2.2593">
        <ele>2298</ele>
        <time>2024-09-17T08:22:52Z</time>
      </trkpt>
      <trkpt lat="42.46399" lon="2.25934">
        <ele>2298</ele>
        <time>2024-09-17T08:22:55Z</time>
      </trkpt>
      <trkpt lat="42.46396" lon="2.25937">
        <ele>2298</ele>
        <time>2024-09-17T08:22:58Z</time>
      </trkpt>
      <trkpt lat="42.46394" lon="2.2594">
        <ele>2297</ele>
        <time>2024-09-17T08:23:01Z</time>
      </trkpt>
      <trkpt lat="42.46392" lon="2.25944">
        <ele>2296</ele>
        <time>2024-09-17T08:23:04Z</time>
      </trkpt>
      <trkpt lat="42.46389" lon="2.25947">
        <ele>2297</ele>
        <time>2024-09-17T08:23:07Z</time>
      </trkpt>
      <trkpt lat="42.46387" lon="2.25951">
        <ele>2297</ele>
        <time>2024-09-17T08:23:10Z</time>
      </trkpt>
      <trkpt lat="42.46385" lon="2.25954">
        <ele>2298</ele>
        <time>2024-09-17T08:23:13Z</time>
      </trkpt>
      <trkpt lat="42.46383" lon="2.25957">
        <ele>2298</ele>
        <time>2024-09-17T08:23:16Z</time>
      </trkpt>
      <trkpt lat="42.4638" lon="2.25961">
        <ele>2299</ele>
        <time>2024-09-17T08:23:19Z</time>
      </trkpt>
      <trkpt lat="42.46379" lon="2.25965">
        <ele>2299</ele>
        <time>2024-09-17T08:23:23Z</time>
      </trkpt>
      <trkpt lat="42.46376" lon="2.25969">
        <ele>2299</ele>
        <time>2024-09-17T08:23:26Z</time>
      </trkpt>
      <trkpt lat="42.46374" lon="2.25973">
        <ele>2299</ele>
        <time>2024-09-17T08:23:29Z</time>
      </trkpt>
      <trkpt lat="42.46372" lon="2.25975">
        <ele>2300</ele>
        <time>2024-09-17T08:23:31Z</time>
      </trkpt>
      <trkpt lat="42.46369" lon="2.25978">
        <ele>2299</ele>
        <time>2024-09-17T08:23:35Z</time>
      </trkpt>
      <trkpt lat="42.46367" lon="2.25982">
        <ele>2300</ele>
        <time>2024-09-17T08:23:38Z</time>
      </trkpt>
      <trkpt lat="42.46365" lon="2.25986">
        <ele>2300</ele>
        <time>2024-09-17T08:23:41Z</time>
      </trkpt>
      <trkpt lat="42.46362" lon="2.25989">
        <ele>2300</ele>
        <time>2024-09-17T08:23:44Z</time>
      </trkpt>
      <trkpt lat="42.4636" lon="2.25991">
        <ele>2299</ele>
        <time>2024-09-17T08:23:47Z</time>
      </trkpt>
      <trkpt lat="42.46357" lon="2.25993">
        <ele>2300</ele>
        <time>2024-09-17T08:23:50Z</time>
      </trkpt>
      <trkpt lat="42.46355" lon="2.25996">
        <ele>2300</ele>
        <time>2024-09-17T08:23:53Z</time>
      </trkpt>
      <trkpt lat="42.46352" lon="2.25998">
        <ele>2301</ele>
        <time>2024-09-17T08:23:56Z</time>
      </trkpt>
      <trkpt lat="42.4635" lon="2.25999">
        <ele>2302</ele>
        <time>2024-09-17T08:24:01Z</time>
      </trkpt>
      <trkpt lat="42.46348" lon="2.26003">
        <ele>2301</ele>
        <time>2024-09-17T08:24:04Z</time>
      </trkpt>
      <trkpt lat="42.46346" lon="2.26006">
        <ele>2301</ele>
        <time>2024-09-17T08:24:07Z</time>
      </trkpt>
      <trkpt lat="42.46343" lon="2.26009">
        <ele>2301</ele>
        <time>2024-09-17T08:24:11Z</time>
      </trkpt>
      <trkpt lat="42.46341" lon="2.26012">
        <ele>2301</ele>
        <time>2024-09-17T08:24:15Z</time>
      </trkpt>
      <trkpt lat="42.46338" lon="2.26015">
        <ele>2302</ele>
        <time>2024-09-17T08:24:18Z</time>
      </trkpt>
      <trkpt lat="42.46336" lon="2.26019">
        <ele>2301</ele>
        <time>2024-09-17T08:24:21Z</time>
      </trkpt>
      <trkpt lat="42.46334" lon="2.26023">
        <ele>2301</ele>
        <time>2024-09-17T08:24:24Z</time>
      </trkpt>
      <trkpt lat="42.46331" lon="2.26026">
        <ele>2301</ele>
        <time>2024-09-17T08:24:27Z</time>
      </trkpt>
      <trkpt lat="42.46328" lon="2.26029">
        <ele>2301</ele>
        <time>2024-09-17T08:24:30Z</time>
      </trkpt>
      <trkpt lat="42.46326" lon="2.26032">
        <ele>2300</ele>
        <time>2024-09-17T08:24:32Z</time>
      </trkpt>
      <trkpt lat="42.46324" lon="2.26035">
        <ele>2301</ele>
        <time>2024-09-17T08:24:35Z</time>
      </trkpt>
      <trkpt lat="42.46323" lon="2.26038">
        <ele>2301</ele>
        <time>2024-09-17T08:24:37Z</time>
      </trkpt>
      <trkpt lat="42.46321" lon="2.26041">
        <ele>2301</ele>
        <time>2024-09-17T08:24:39Z</time>
      </trkpt>
      <trkpt lat="42.46318" lon="2.26044">
        <ele>2301</ele>
        <time>2024-09-17T08:24:42Z</time>
      </trkpt>
      <trkpt lat="42.46316" lon="2.26046">
        <ele>2300</ele>
        <time>2024-09-17T08:24:45Z</time>
      </trkpt>
      <trkpt lat="42.46313" lon="2.2605">
        <ele>2300</ele>
        <time>2024-09-17T08:24:48Z</time>
      </trkpt>
      <trkpt lat="42.46311" lon="2.26053">
        <ele>2301</ele>
        <time>2024-09-17T08:24:49Z</time>
      </trkpt>
      <trkpt lat="42.46309" lon="2.26056">
        <ele>2300</ele>
        <time>2024-09-17T08:24:52Z</time>
      </trkpt>
      <trkpt lat="42.46307" lon="2.26061">
        <ele>2301</ele>
        <time>2024-09-17T08:24:55Z</time>
      </trkpt>
      <trkpt lat="42.46304" lon="2.26064">
        <ele>2300</ele>
        <time>2024-09-17T08:24:58Z</time>
      </trkpt>
      <trkpt lat="42.46302" lon="2.26066">
        <ele>2300</ele>
        <time>2024-09-17T08:25:00Z</time>
      </trkpt>
      <trkpt lat="42.463" lon="2.26069">
        <ele>2301</ele>
        <time>2024-09-17T08:25:03Z</time>
      </trkpt>
      <trkpt lat="42.46298" lon="2.26073">
        <ele>2299</ele>
        <time>2024-09-17T08:25:07Z</time>
      </trkpt>
      <trkpt lat="42.46296" lon="2.26076">
        <ele>2299</ele>
        <time>2024-09-17T08:25:10Z</time>
      </trkpt>
      <trkpt lat="42.46293" lon="2.26079">
        <ele>2298</ele>
        <time>2024-09-17T08:25:13Z</time>
      </trkpt>
      <trkpt lat="42.46291" lon="2.26082">
        <ele>2299</ele>
        <time>2024-09-17T08:25:16Z</time>
      </trkpt>
      <trkpt lat="42.46288" lon="2.26085">
        <ele>2299</ele>
        <time>2024-09-17T08:25:19Z</time>
      </trkpt>
      <trkpt lat="42.46286" lon="2.26089">
        <ele>2299</ele>
        <time>2024-09-17T08:25:22Z</time>
      </trkpt>
      <trkpt lat="42.46284" lon="2.26093">
        <ele>2299</ele>
        <time>2024-09-17T08:25:25Z</time>
      </trkpt>
      <trkpt lat="42.46282" lon="2.26096">
        <ele>2300</ele>
        <time>2024-09-17T08:25:28Z</time>
      </trkpt>
      <trkpt lat="42.46279" lon="2.26099">
        <ele>2300</ele>
        <time>2024-09-17T08:25:31Z</time>
      </trkpt>
      <trkpt lat="42.46277" lon="2.26102">
        <ele>2301</ele>
        <time>2024-09-17T08:25:34Z</time>
      </trkpt>
      <trkpt lat="42.46274" lon="2.26104">
        <ele>2302</ele>
        <time>2024-09-17T08:25:38Z</time>
      </trkpt>
      <trkpt lat="42.46271" lon="2.26106">
        <ele>2301</ele>
        <time>2024-09-17T08:25:41Z</time>
      </trkpt>
      <trkpt lat="42.46268" lon="2.26108">
        <ele>2301</ele>
        <time>2024-09-17T08:25:44Z</time>
      </trkpt>
      <trkpt lat="42.46266" lon="2.26111">
        <ele>2301</ele>
        <time>2024-09-17T08:25:47Z</time>
      </trkpt>
      <trkpt lat="42.46264" lon="2.26114">
        <ele>2302</ele>
        <time>2024-09-17T08:25:50Z</time>
      </trkpt>
      <trkpt lat="42.46261" lon="2.26118">
        <ele>2303</ele>
        <time>2024-09-17T08:25:54Z</time>
      </trkpt>
      <trkpt lat="42.46259" lon="2.26121">
        <ele>2304</ele>
        <time>2024-09-17T08:25:57Z</time>
      </trkpt>
      <trkpt lat="42.46256" lon="2.26124">
        <ele>2304</ele>
        <time>2024-09-17T08:26:01Z</time>
      </trkpt>
      <trkpt lat="42.46254" lon="2.26127">
        <ele>2304</ele>
        <time>2024-09-17T08:26:04Z</time>
      </trkpt>
      <trkpt lat="42.46251" lon="2.2613">
        <ele>2303</ele>
        <time>2024-09-17T08:26:08Z</time>
      </trkpt>
      <trkpt lat="42.46249" lon="2.26133">
        <ele>2303</ele>
        <time>2024-09-17T08:26:10Z</time>
      </trkpt>
      <trkpt lat="42.46247" lon="2.26136">
        <ele>2303</ele>
        <time>2024-09-17T08:26:14Z</time>
      </trkpt>
      <trkpt lat="42.46245" lon="2.26139">
        <ele>2304</ele>
        <time>2024-09-17T08:26:16Z</time>
      </trkpt>
      <trkpt lat="42.46243" lon="2.26142">
        <ele>2303</ele>
        <time>2024-09-17T08:26:20Z</time>
      </trkpt>
      <trkpt lat="42.46241" lon="2.26145">
        <ele>2304</ele>
        <time>2024-09-17T08:26:23Z</time>
      </trkpt>
      <trkpt lat="42.46239" lon="2.26147">
        <ele>2304</ele>
        <time>2024-09-17T08:26:28Z</time>
      </trkpt>
      <trkpt lat="42.46236" lon="2.2615">
        <ele>2305</ele>
        <time>2024-09-17T08:26:32Z</time>
      </trkpt>
      <trkpt lat="42.46234" lon="2.26152">
        <ele>2306</ele>
        <time>2024-09-17T08:26:37Z</time>
      </trkpt>
      <trkpt lat="42.46231" lon="2.26155">
        <ele>2307</ele>
        <time>2024-09-17T08:27:32Z</time>
      </trkpt>
      <trkpt lat="42.46229" lon="2.26158">
        <ele>2307</ele>
        <time>2024-09-17T08:27:35Z</time>
      </trkpt>
      <trkpt lat="42.46226" lon="2.26161">
        <ele>2308</ele>
        <time>2024-09-17T08:27:39Z</time>
      </trkpt>
      <trkpt lat="42.46223" lon="2.26163">
        <ele>2309</ele>
        <time>2024-09-17T08:27:44Z</time>
      </trkpt>
      <trkpt lat="42.4622" lon="2.26165">
        <ele>2309</ele>
        <time>2024-09-17T08:27:49Z</time>
      </trkpt>
      <trkpt lat="42.46217" lon="2.26167">
        <ele>2309</ele>
        <time>2024-09-17T08:27:53Z</time>
      </trkpt>
      <trkpt lat="42.46215" lon="2.26169">
        <ele>2310</ele>
        <time>2024-09-17T08:27:57Z</time>
      </trkpt>
      <trkpt lat="42.46212" lon="2.26171">
        <ele>2312</ele>
        <time>2024-09-17T08:28:01Z</time>
      </trkpt>
      <trkpt lat="42.4621" lon="2.26173">
        <ele>2311</ele>
        <time>2024-09-17T08:28:06Z</time>
      </trkpt>
      <trkpt lat="42.46207" lon="2.26175">
        <ele>2312</ele>
        <time>2024-09-17T08:28:09Z</time>
      </trkpt>
      <trkpt lat="42.46205" lon="2.26177">
        <ele>2313</ele>
        <time>2024-09-17T08:28:13Z</time>
      </trkpt>
      <trkpt lat="42.46203" lon="2.26179">
        <ele>2314</ele>
        <time>2024-09-17T08:28:18Z</time>
      </trkpt>
      <trkpt lat="42.462" lon="2.26182">
        <ele>2314</ele>
        <time>2024-09-17T08:28:21Z</time>
      </trkpt>
      <trkpt lat="42.46198" lon="2.26184">
        <ele>2313</ele>
        <time>2024-09-17T08:28:26Z</time>
      </trkpt>
      <trkpt lat="42.46196" lon="2.26187">
        <ele>2314</ele>
        <time>2024-09-17T08:28:32Z</time>
      </trkpt>
      <trkpt lat="42.46194" lon="2.2619">
        <ele>2315</ele>
        <time>2024-09-17T08:28:35Z</time>
      </trkpt>
      <trkpt lat="42.46193" lon="2.26193">
        <ele>2315</ele>
        <time>2024-09-17T08:28:38Z</time>
      </trkpt>
      <trkpt lat="42.4619" lon="2.26196">
        <ele>2315</ele>
        <time>2024-09-17T08:28:42Z</time>
      </trkpt>
      <trkpt lat="42.46188" lon="2.26199">
        <ele>2316</ele>
        <time>2024-09-17T08:28:46Z</time>
      </trkpt>
      <trkpt lat="42.46187" lon="2.26203">
        <ele>2315</ele>
        <time>2024-09-17T08:28:49Z</time>
      </trkpt>
      <trkpt lat="42.46185" lon="2.26206">
        <ele>2316</ele>
        <time>2024-09-17T08:28:53Z</time>
      </trkpt>
      <trkpt lat="42.46183" lon="2.26209">
        <ele>2317</ele>
        <time>2024-09-17T08:28:56Z</time>
      </trkpt>
      <trkpt lat="42.46181" lon="2.26213">
        <ele>2317</ele>
        <time>2024-09-17T08:28:59Z</time>
      </trkpt>
      <trkpt lat="42.46179" lon="2.26216">
        <ele>2318</ele>
        <time>2024-09-17T08:29:02Z</time>
      </trkpt>
      <trkpt lat="42.46176" lon="2.26219">
        <ele>2319</ele>
        <time>2024-09-17T08:29:07Z</time>
      </trkpt>
      <trkpt lat="42.46174" lon="2.26221">
        <ele>2319</ele>
        <time>2024-09-17T08:29:11Z</time>
      </trkpt>
      <trkpt lat="42.46171" lon="2.26224">
        <ele>2319</ele>
        <time>2024-09-17T08:29:15Z</time>
      </trkpt>
      <trkpt lat="42.46168" lon="2.26227">
        <ele>2320</ele>
        <time>2024-09-17T08:29:20Z</time>
      </trkpt>
      <trkpt lat="42.46166" lon="2.2623">
        <ele>2319</ele>
        <time>2024-09-17T08:29:24Z</time>
      </trkpt>
      <trkpt lat="42.46163" lon="2.26234">
        <ele>2320</ele>
        <time>2024-09-17T08:29:27Z</time>
      </trkpt>
      <trkpt lat="42.46161" lon="2.26237">
        <ele>2320</ele>
        <time>2024-09-17T08:29:30Z</time>
      </trkpt>
      <trkpt lat="42.46158" lon="2.2624">
        <ele>2321</ele>
        <time>2024-09-17T08:29:34Z</time>
      </trkpt>
      <trkpt lat="42.46156" lon="2.26244">
        <ele>2320</ele>
        <time>2024-09-17T08:29:38Z</time>
      </trkpt>
      <trkpt lat="42.46153" lon="2.26247">
        <ele>2321</ele>
        <time>2024-09-17T08:29:41Z</time>
      </trkpt>
      <trkpt lat="42.4615" lon="2.2625">
        <ele>2321</ele>
        <time>2024-09-17T08:29:44Z</time>
      </trkpt>
      <trkpt lat="42.46148" lon="2.26254">
        <ele>2321</ele>
        <time>2024-09-17T08:29:47Z</time>
      </trkpt>
      <trkpt lat="42.46146" lon="2.26257">
        <ele>2321</ele>
        <time>2024-09-17T08:29:51Z</time>
      </trkpt>
      <trkpt lat="42.46144" lon="2.26259">
        <ele>2321</ele>
        <time>2024-09-17T08:29:55Z</time>
      </trkpt>
      <trkpt lat="42.46142" lon="2.26261">
        <ele>2322</ele>
        <time>2024-09-17T08:29:58Z</time>
      </trkpt>
      <trkpt lat="42.4614" lon="2.26264">
        <ele>2322</ele>
        <time>2024-09-17T08:30:08Z</time>
      </trkpt>
      <trkpt lat="42.46138" lon="2.26268">
        <ele>2324</ele>
        <time>2024-09-17T08:30:11Z</time>
      </trkpt>
      <trkpt lat="42.46137" lon="2.26271">
        <ele>2323</ele>
        <time>2024-09-17T08:30:14Z</time>
      </trkpt>
      <trkpt lat="42.46134" lon="2.26275">
        <ele>2323</ele>
        <time>2024-09-17T08:30:17Z</time>
      </trkpt>
      <trkpt lat="42.46131" lon="2.26277">
        <ele>2323</ele>
        <time>2024-09-17T08:30:20Z</time>
      </trkpt>
      <trkpt lat="42.46128" lon="2.26279">
        <ele>2323</ele>
        <time>2024-09-17T08:30:23Z</time>
      </trkpt>
      <trkpt lat="42.46125" lon="2.2628">
        <ele>2323</ele>
        <time>2024-09-17T08:30:25Z</time>
      </trkpt>
      <trkpt lat="42.46122" lon="2.26282">
        <ele>2322</ele>
        <time>2024-09-17T08:30:29Z</time>
      </trkpt>
      <trkpt lat="42.46119" lon="2.26285">
        <ele>2323</ele>
        <time>2024-09-17T08:30:33Z</time>
      </trkpt>
      <trkpt lat="42.46116" lon="2.26288">
        <ele>2322</ele>
        <time>2024-09-17T08:30:37Z</time>
      </trkpt>
      <trkpt lat="42.46113" lon="2.2629">
        <ele>2321</ele>
        <time>2024-09-17T08:30:40Z</time>
      </trkpt>
      <trkpt lat="42.4611" lon="2.26293">
        <ele>2322</ele>
        <time>2024-09-17T08:30:43Z</time>
      </trkpt>
      <trkpt lat="42.46107" lon="2.26295">
        <ele>2320</ele>
        <time>2024-09-17T08:30:46Z</time>
      </trkpt>
      <trkpt lat="42.46104" lon="2.26296">
        <ele>2320</ele>
        <time>2024-09-17T08:30:49Z</time>
      </trkpt>
      <trkpt lat="42.46102" lon="2.26297">
        <ele>2322</ele>
        <time>2024-09-17T08:30:52Z</time>
      </trkpt>
      <trkpt lat="42.46099" lon="2.26298">
        <ele>2323</ele>
        <time>2024-09-17T08:30:55Z</time>
      </trkpt>
      <trkpt lat="42.46096" lon="2.26299">
        <ele>2322</ele>
        <time>2024-09-17T08:30:59Z</time>
      </trkpt>
      <trkpt lat="42.46093" lon="2.26301">
        <ele>2323</ele>
        <time>2024-09-17T08:31:03Z</time>
      </trkpt>
      <trkpt lat="42.4609" lon="2.26304">
        <ele>2323</ele>
        <time>2024-09-17T08:31:05Z</time>
      </trkpt>
      <trkpt lat="42.46087" lon="2.26306">
        <ele>2325</ele>
        <time>2024-09-17T08:31:08Z</time>
      </trkpt>
      <trkpt lat="42.46085" lon="2.26308">
        <ele>2323</ele>
        <time>2024-09-17T08:31:11Z</time>
      </trkpt>
      <trkpt lat="42.46082" lon="2.26311">
        <ele>2323</ele>
        <time>2024-09-17T08:31:14Z</time>
      </trkpt>
      <trkpt lat="42.4608" lon="2.26315">
        <ele>2322</ele>
        <time>2024-09-17T08:31:18Z</time>
      </trkpt>
      <trkpt lat="42.46077" lon="2.26318">
        <ele>2323</ele>
        <time>2024-09-17T08:31:21Z</time>
      </trkpt>
      <trkpt lat="42.46074" lon="2.2632">
        <ele>2322</ele>
        <time>2024-09-17T08:31:24Z</time>
      </trkpt>
      <trkpt lat="42.46072" lon="2.26323">
        <ele>2323</ele>
        <time>2024-09-17T08:31:26Z</time>
      </trkpt>
      <trkpt lat="42.46069" lon="2.26326">
        <ele>2323</ele>
        <time>2024-09-17T08:31:30Z</time>
      </trkpt>
      <trkpt lat="42.46068" lon="2.26329">
        <ele>2324</ele>
        <time>2024-09-17T08:31:33Z</time>
      </trkpt>
      <trkpt lat="42.46066" lon="2.26333">
        <ele>2325</ele>
        <time>2024-09-17T08:31:37Z</time>
      </trkpt>
      <trkpt lat="42.46066" lon="2.26337">
        <ele>2325</ele>
        <time>2024-09-17T08:31:41Z</time>
      </trkpt>
      <trkpt lat="42.46065" lon="2.26341">
        <ele>2326</ele>
        <time>2024-09-17T08:31:47Z</time>
      </trkpt>
      <trkpt lat="42.46064" lon="2.26345">
        <ele>2328</ele>
        <time>2024-09-17T08:31:51Z</time>
      </trkpt>
      <trkpt lat="42.46063" lon="2.26348">
        <ele>2328</ele>
        <time>2024-09-17T08:31:58Z</time>
      </trkpt>
      <trkpt lat="42.46062" lon="2.26352">
        <ele>2329</ele>
        <time>2024-09-17T08:32:01Z</time>
      </trkpt>
      <trkpt lat="42.46063" lon="2.26357">
        <ele>2329</ele>
        <time>2024-09-17T08:32:07Z</time>
      </trkpt>
      <trkpt lat="42.46064" lon="2.26361">
        <ele>2329</ele>
        <time>2024-09-17T08:32:13Z</time>
      </trkpt>
      <trkpt lat="42.46065" lon="2.26365">
        <ele>2330</ele>
        <time>2024-09-17T08:32:15Z</time>
      </trkpt>
      <trkpt lat="42.46065" lon="2.26369">
        <ele>2331</ele>
        <time>2024-09-17T08:32:17Z</time>
      </trkpt>
      <trkpt lat="42.46066" lon="2.26373">
        <ele>2331</ele>
        <time>2024-09-17T08:32:21Z</time>
      </trkpt>
      <trkpt lat="42.46065" lon="2.26377">
        <ele>2332</ele>
        <time>2024-09-17T08:32:23Z</time>
      </trkpt>
      <trkpt lat="42.46066" lon="2.26381">
        <ele>2330</ele>
        <time>2024-09-17T08:32:28Z</time>
      </trkpt>
      <trkpt lat="42.46066" lon="2.26385">
        <ele>2331</ele>
        <time>2024-09-17T08:32:30Z</time>
      </trkpt>
      <trkpt lat="42.46068" lon="2.26389">
        <ele>2332</ele>
        <time>2024-09-17T08:32:34Z</time>
      </trkpt>
      <trkpt lat="42.46068" lon="2.26394">
        <ele>2331</ele>
        <time>2024-09-17T08:32:39Z</time>
      </trkpt>
      <trkpt lat="42.46069" lon="2.26398">
        <ele>2330</ele>
        <time>2024-09-17T08:32:42Z</time>
      </trkpt>
      <trkpt lat="42.46071" lon="2.26403">
        <ele>2330</ele>
        <time>2024-09-17T08:32:46Z</time>
      </trkpt>
      <trkpt lat="42.46072" lon="2.26407">
        <ele>2330</ele>
        <time>2024-09-17T08:32:49Z</time>
      </trkpt>
      <trkpt lat="42.46073" lon="2.26411">
        <ele>2330</ele>
        <time>2024-09-17T08:32:52Z</time>
      </trkpt>
      <trkpt lat="42.46073" lon="2.26416">
        <ele>2330</ele>
        <time>2024-09-17T08:32:56Z</time>
      </trkpt>
      <trkpt lat="42.46074" lon="2.2642">
        <ele>2331</ele>
        <time>2024-09-17T08:32:59Z</time>
      </trkpt>
      <trkpt lat="42.46075" lon="2.26425">
        <ele>2330</ele>
        <time>2024-09-17T08:33:03Z</time>
      </trkpt>
      <trkpt lat="42.46076" lon="2.26428">
        <ele>2330</ele>
        <time>2024-09-17T08:33:06Z</time>
      </trkpt>
      <trkpt lat="42.46077" lon="2.26432">
        <ele>2330</ele>
        <time>2024-09-17T08:33:08Z</time>
      </trkpt>
      <trkpt lat="42.46076" lon="2.26436">
        <ele>2332</ele>
        <time>2024-09-17T08:33:12Z</time>
      </trkpt>
      <trkpt lat="42.46077" lon="2.2644">
        <ele>2331</ele>
        <time>2024-09-17T08:33:16Z</time>
      </trkpt>
      <trkpt lat="42.46079" lon="2.26444">
        <ele>2333</ele>
        <time>2024-09-17T08:33:19Z</time>
      </trkpt>
      <trkpt lat="42.46081" lon="2.26449">
        <ele>2333</ele>
        <time>2024-09-17T08:33:22Z</time>
      </trkpt>
      <trkpt lat="42.46082" lon="2.26453">
        <ele>2329</ele>
        <time>2024-09-17T08:33:26Z</time>
      </trkpt>
      <trkpt lat="42.46084" lon="2.26457">
        <ele>2329</ele>
        <time>2024-09-17T08:33:29Z</time>
      </trkpt>
      <trkpt lat="42.46083" lon="2.2646">
        <ele>2331</ele>
        <time>2024-09-17T08:33:31Z</time>
      </trkpt>
      <trkpt lat="42.46084" lon="2.26463">
        <ele>2328</ele>
        <time>2024-09-17T08:33:33Z</time>
      </trkpt>
      <trkpt lat="42.46085" lon="2.26467">
        <ele>2330</ele>
        <time>2024-09-17T08:33:35Z</time>
      </trkpt>
      <trkpt lat="42.46087" lon="2.26471">
        <ele>2329</ele>
        <time>2024-09-17T08:33:38Z</time>
      </trkpt>
      <trkpt lat="42.46089" lon="2.26475">
        <ele>2330</ele>
        <time>2024-09-17T08:33:41Z</time>
      </trkpt>
      <trkpt lat="42.46091" lon="2.26479">
        <ele>2329</ele>
        <time>2024-09-17T08:33:44Z</time>
      </trkpt>
      <trkpt lat="42.46092" lon="2.26483">
        <ele>2329</ele>
        <time>2024-09-17T08:33:46Z</time>
      </trkpt>
      <trkpt lat="42.46094" lon="2.26487">
        <ele>2329</ele>
        <time>2024-09-17T08:33:50Z</time>
      </trkpt>
      <trkpt lat="42.46094" lon="2.26492">
        <ele>2327</ele>
        <time>2024-09-17T08:33:54Z</time>
      </trkpt>
      <trkpt lat="42.46095" lon="2.26496">
        <ele>2329</ele>
        <time>2024-09-17T08:33:56Z</time>
      </trkpt>
      <trkpt lat="42.46096" lon="2.265">
        <ele>2329</ele>
        <time>2024-09-17T08:33:59Z</time>
      </trkpt>
      <trkpt lat="42.46097" lon="2.26504">
        <ele>2329</ele>
        <time>2024-09-17T08:34:02Z</time>
      </trkpt>
      <trkpt lat="42.46098" lon="2.26508">
        <ele>2329</ele>
        <time>2024-09-17T08:34:04Z</time>
      </trkpt>
      <trkpt lat="42.46099" lon="2.26512">
        <ele>2331</ele>
        <time>2024-09-17T08:34:07Z</time>
      </trkpt>
      <trkpt lat="42.46099" lon="2.26516">
        <ele>2331</ele>
        <time>2024-09-17T08:34:10Z</time>
      </trkpt>
      <trkpt lat="42.461" lon="2.2652">
        <ele>2330</ele>
        <time>2024-09-17T08:34:14Z</time>
      </trkpt>
      <trkpt lat="42.46101" lon="2.26523">
        <ele>2331</ele>
        <time>2024-09-17T08:34:17Z</time>
      </trkpt>
      <trkpt lat="42.46102" lon="2.26527">
        <ele>2330</ele>
        <time>2024-09-17T08:34:21Z</time>
      </trkpt>
      <trkpt lat="42.46103" lon="2.2653">
        <ele>2329</ele>
        <time>2024-09-17T08:34:25Z</time>
      </trkpt>
      <trkpt lat="42.46105" lon="2.26534">
        <ele>2328</ele>
        <time>2024-09-17T08:34:28Z</time>
      </trkpt>
      <trkpt lat="42.46107" lon="2.26538">
        <ele>2328</ele>
        <time>2024-09-17T08:34:31Z</time>
      </trkpt>
      <trkpt lat="42.46107" lon="2.26542">
        <ele>2329</ele>
        <time>2024-09-17T08:34:35Z</time>
      </trkpt>
      <trkpt lat="42.46106" lon="2.26547">
        <ele>2333</ele>
        <time>2024-09-17T08:34:38Z</time>
      </trkpt>
      <trkpt lat="42.46107" lon="2.26553">
        <ele>2331</ele>
        <time>2024-09-17T08:34:44Z</time>
      </trkpt>
      <trkpt lat="42.46107" lon="2.26557">
        <ele>2329</ele>
        <time>2024-09-17T08:34:47Z</time>
      </trkpt>
      <trkpt lat="42.46107" lon="2.26562">
        <ele>2330</ele>
        <time>2024-09-17T08:34:53Z</time>
      </trkpt>
      <trkpt lat="42.46105" lon="2.26566">
        <ele>2330</ele>
        <time>2024-09-17T08:34:59Z</time>
      </trkpt>
      <trkpt lat="42.46105" lon="2.2657">
        <ele>2331</ele>
        <time>2024-09-17T08:35:02Z</time>
      </trkpt>
      <trkpt lat="42.46103" lon="2.26573">
        <ele>2329</ele>
        <time>2024-09-17T08:35:07Z</time>
      </trkpt>
      <trkpt lat="42.46102" lon="2.26577">
        <ele>2331</ele>
        <time>2024-09-17T08:35:11Z</time>
      </trkpt>
      <trkpt lat="42.461" lon="2.2658">
        <ele>2332</ele>
        <time>2024-09-17T08:35:15Z</time>
      </trkpt>
      <trkpt lat="42.46099" lon="2.26584">
        <ele>2333</ele>
        <time>2024-09-17T08:35:18Z</time>
      </trkpt>
      <trkpt lat="42.46098" lon="2.26588">
        <ele>2334</ele>
        <time>2024-09-17T08:35:22Z</time>
      </trkpt>
      <trkpt lat="42.46096" lon="2.26592">
        <ele>2334</ele>
        <time>2024-09-17T08:35:26Z</time>
      </trkpt>
      <trkpt lat="42.46094" lon="2.26596">
        <ele>2336</ele>
        <time>2024-09-17T08:35:30Z</time>
      </trkpt>
      <trkpt lat="42.46094" lon="2.266">
        <ele>2335</ele>
        <time>2024-09-17T08:35:33Z</time>
      </trkpt>
      <trkpt lat="42.46093" lon="2.26604">
        <ele>2336</ele>
        <time>2024-09-17T08:35:36Z</time>
      </trkpt>
      <trkpt lat="42.46093" lon="2.26609">
        <ele>2337</ele>
        <time>2024-09-17T08:35:38Z</time>
      </trkpt>
      <trkpt lat="42.46092" lon="2.26612">
        <ele>2337</ele>
        <time>2024-09-17T08:35:43Z</time>
      </trkpt>
      <trkpt lat="42.4609" lon="2.26615">
        <ele>2338</ele>
        <time>2024-09-17T08:35:48Z</time>
      </trkpt>
      <trkpt lat="42.46089" lon="2.26618">
        <ele>2338</ele>
        <time>2024-09-17T08:35:52Z</time>
      </trkpt>
      <trkpt lat="42.46087" lon="2.26621">
        <ele>2337</ele>
        <time>2024-09-17T08:35:56Z</time>
      </trkpt>
      <trkpt lat="42.46085" lon="2.26624">
        <ele>2337</ele>
        <time>2024-09-17T08:36:01Z</time>
      </trkpt>
      <trkpt lat="42.46084" lon="2.26628">
        <ele>2339</ele>
        <time>2024-09-17T08:36:04Z</time>
      </trkpt>
      <trkpt lat="42.46083" lon="2.26632">
        <ele>2338</ele>
        <time>2024-09-17T08:36:08Z</time>
      </trkpt>
      <trkpt lat="42.46082" lon="2.26636">
        <ele>2340</ele>
        <time>2024-09-17T08:36:11Z</time>
      </trkpt>
      <trkpt lat="42.46082" lon="2.2664">
        <ele>2340</ele>
        <time>2024-09-17T08:36:14Z</time>
      </trkpt>
      <trkpt lat="42.46081" lon="2.26644">
        <ele>2340</ele>
        <time>2024-09-17T08:36:17Z</time>
      </trkpt>
      <trkpt lat="42.4608" lon="2.26648">
        <ele>2339</ele>
        <time>2024-09-17T08:36:21Z</time>
      </trkpt>
      <trkpt lat="42.4608" lon="2.26652">
        <ele>2339</ele>
        <time>2024-09-17T08:36:23Z</time>
      </trkpt>
      <trkpt lat="42.46079" lon="2.26657">
        <ele>2338</ele>
        <time>2024-09-17T08:36:26Z</time>
      </trkpt>
      <trkpt lat="42.46079" lon="2.26661">
        <ele>2339</ele>
        <time>2024-09-17T08:36:29Z</time>
      </trkpt>
      <trkpt lat="42.46079" lon="2.26664">
        <ele>2339</ele>
        <time>2024-09-17T08:36:38Z</time>
      </trkpt>
      <trkpt lat="42.46078" lon="2.26668">
        <ele>2338</ele>
        <time>2024-09-17T08:36:43Z</time>
      </trkpt>
      <trkpt lat="42.46077" lon="2.26672">
        <ele>2338</ele>
        <time>2024-09-17T08:36:47Z</time>
      </trkpt>
      <trkpt lat="42.46076" lon="2.26678">
        <ele>2338</ele>
        <time>2024-09-17T08:36:52Z</time>
      </trkpt>
      <trkpt lat="42.46075" lon="2.26682">
        <ele>2337</ele>
        <time>2024-09-17T08:36:56Z</time>
      </trkpt>
      <trkpt lat="42.46074" lon="2.26687">
        <ele>2338</ele>
        <time>2024-09-17T08:37:00Z</time>
      </trkpt>
      <trkpt lat="42.46073" lon="2.26691">
        <ele>2338</ele>
        <time>2024-09-17T08:37:04Z</time>
      </trkpt>
      <trkpt lat="42.46073" lon="2.26695">
        <ele>2338</ele>
        <time>2024-09-17T08:37:07Z</time>
      </trkpt>
      <trkpt lat="42.46074" lon="2.26699">
        <ele>2338</ele>
        <time>2024-09-17T08:37:10Z</time>
      </trkpt>
      <trkpt lat="42.46073" lon="2.26703">
        <ele>2338</ele>
        <time>2024-09-17T08:37:13Z</time>
      </trkpt>
      <trkpt lat="42.46072" lon="2.26707">
        <ele>2339</ele>
        <time>2024-09-17T08:37:15Z</time>
      </trkpt>
      <trkpt lat="42.46071" lon="2.26712">
        <ele>2339</ele>
        <time>2024-09-17T08:37:19Z</time>
      </trkpt>
      <trkpt lat="42.4607" lon="2.26717">
        <ele>2338</ele>
        <time>2024-09-17T08:37:22Z</time>
      </trkpt>
      <trkpt lat="42.46069" lon="2.2672">
        <ele>2339</ele>
        <time>2024-09-17T08:37:25Z</time>
      </trkpt>
      <trkpt lat="42.46067" lon="2.26724">
        <ele>2339</ele>
        <time>2024-09-17T08:37:29Z</time>
      </trkpt>
      <trkpt lat="42.46066" lon="2.26727">
        <ele>2339</ele>
        <time>2024-09-17T08:37:34Z</time>
      </trkpt>
      <trkpt lat="42.46065" lon="2.26731">
        <ele>2339</ele>
        <time>2024-09-17T08:37:37Z</time>
      </trkpt>
      <trkpt lat="42.46064" lon="2.26735">
        <ele>2340</ele>
        <time>2024-09-17T08:37:41Z</time>
      </trkpt>
      <trkpt lat="42.46062" lon="2.26739">
        <ele>2341</ele>
        <time>2024-09-17T08:37:44Z</time>
      </trkpt>
      <trkpt lat="42.46061" lon="2.26743">
        <ele>2340</ele>
        <time>2024-09-17T08:37:47Z</time>
      </trkpt>
      <trkpt lat="42.46061" lon="2.26747">
        <ele>2340</ele>
        <time>2024-09-17T08:37:49Z</time>
      </trkpt>
      <trkpt lat="42.4606" lon="2.26751">
        <ele>2341</ele>
        <time>2024-09-17T08:37:52Z</time>
      </trkpt>
      <trkpt lat="42.4606" lon="2.26755">
        <ele>2341</ele>
        <time>2024-09-17T08:37:55Z</time>
      </trkpt>
      <trkpt lat="42.46059" lon="2.26758">
        <ele>2340</ele>
        <time>2024-09-17T08:37:57Z</time>
      </trkpt>
      <trkpt lat="42.46057" lon="2.26763">
        <ele>2340</ele>
        <time>2024-09-17T08:38:00Z</time>
      </trkpt>
      <trkpt lat="42.46055" lon="2.26765">
        <ele>2342</ele>
        <time>2024-09-17T08:38:03Z</time>
      </trkpt>
      <trkpt lat="42.46053" lon="2.26769">
        <ele>2342</ele>
        <time>2024-09-17T08:38:07Z</time>
      </trkpt>
      <trkpt lat="42.46051" lon="2.26772">
        <ele>2343</ele>
        <time>2024-09-17T08:38:09Z</time>
      </trkpt>
      <trkpt lat="42.46051" lon="2.26776">
        <ele>2343</ele>
        <time>2024-09-17T08:38:12Z</time>
      </trkpt>
      <trkpt lat="42.46051" lon="2.26781">
        <ele>2343</ele>
        <time>2024-09-17T08:38:16Z</time>
      </trkpt>
      <trkpt lat="42.4605" lon="2.26786">
        <ele>2342</ele>
        <time>2024-09-17T08:38:19Z</time>
      </trkpt>
      <trkpt lat="42.4605" lon="2.2679">
        <ele>2342</ele>
        <time>2024-09-17T08:38:22Z</time>
      </trkpt>
      <trkpt lat="42.46048" lon="2.26794">
        <ele>2342</ele>
        <time>2024-09-17T08:38:26Z</time>
      </trkpt>
      <trkpt lat="42.46047" lon="2.26797">
        <ele>2342</ele>
        <time>2024-09-17T08:38:29Z</time>
      </trkpt>
      <trkpt lat="42.46046" lon="2.26801">
        <ele>2342</ele>
        <time>2024-09-17T08:38:32Z</time>
      </trkpt>
      <trkpt lat="42.46044" lon="2.26803">
        <ele>2339</ele>
        <time>2024-09-17T08:39:06Z</time>
      </trkpt>
      <trkpt lat="42.46041" lon="2.26806">
        <ele>2341</ele>
        <time>2024-09-17T08:39:09Z</time>
      </trkpt>
      <trkpt lat="42.4604" lon="2.2681">
        <ele>2341</ele>
        <time>2024-09-17T08:39:12Z</time>
      </trkpt>
      <trkpt lat="42.46038" lon="2.26813">
        <ele>2343</ele>
        <time>2024-09-17T08:39:15Z</time>
      </trkpt>
      <trkpt lat="42.46035" lon="2.26816">
        <ele>2343</ele>
        <time>2024-09-17T08:39:21Z</time>
      </trkpt>
      <trkpt lat="42.46033" lon="2.26819">
        <ele>2344</ele>
        <time>2024-09-17T08:39:26Z</time>
      </trkpt>
      <trkpt lat="42.4603" lon="2.26822">
        <ele>2345</ele>
        <time>2024-09-17T08:39:28Z</time>
      </trkpt>
      <trkpt lat="42.46028" lon="2.26825">
        <ele>2346</ele>
        <time>2024-09-17T08:39:31Z</time>
      </trkpt>
      <trkpt lat="42.46026" lon="2.26829">
        <ele>2345</ele>
        <time>2024-09-17T08:39:57Z</time>
      </trkpt>
      <trkpt lat="42.46023" lon="2.26831">
        <ele>2346</ele>
        <time>2024-09-17T08:40:00Z</time>
      </trkpt>
      <trkpt lat="42.46021" lon="2.26834">
        <ele>2346</ele>
        <time>2024-09-17T08:40:03Z</time>
      </trkpt>
      <trkpt lat="42.46019" lon="2.26838">
        <ele>2345</ele>
        <time>2024-09-17T08:40:08Z</time>
      </trkpt>
      <trkpt lat="42.46017" lon="2.26842">
        <ele>2343</ele>
        <time>2024-09-17T08:40:15Z</time>
      </trkpt>
      <trkpt lat="42.46016" lon="2.26846">
        <ele>2342</ele>
        <time>2024-09-17T08:40:18Z</time>
      </trkpt>
      <trkpt lat="42.46014" lon="2.2685">
        <ele>2342</ele>
        <time>2024-09-17T08:40:20Z</time>
      </trkpt>
      <trkpt lat="42.46012" lon="2.26852">
        <ele>2343</ele>
        <time>2024-09-17T08:40:22Z</time>
      </trkpt>
      <trkpt lat="42.46009" lon="2.26856">
        <ele>2343</ele>
        <time>2024-09-17T08:40:25Z</time>
      </trkpt>
      <trkpt lat="42.46007" lon="2.2686">
        <ele>2344</ele>
        <time>2024-09-17T08:40:28Z</time>
      </trkpt>
      <trkpt lat="42.46004" lon="2.26864">
        <ele>2344</ele>
        <time>2024-09-17T08:40:31Z</time>
      </trkpt>
      <trkpt lat="42.46002" lon="2.26867">
        <ele>2344</ele>
        <time>2024-09-17T08:40:34Z</time>
      </trkpt>
      <trkpt lat="42.46" lon="2.2687">
        <ele>2344</ele>
        <time>2024-09-17T08:40:35Z</time>
      </trkpt>
      <trkpt lat="42.45998" lon="2.26873">
        <ele>2344</ele>
        <time>2024-09-17T08:40:38Z</time>
      </trkpt>
      <trkpt lat="42.45996" lon="2.26876">
        <ele>2344</ele>
        <time>2024-09-17T08:40:41Z</time>
      </trkpt>
      <trkpt lat="42.45994" lon="2.2688">
        <ele>2344</ele>
        <time>2024-09-17T08:40:44Z</time>
      </trkpt>
      <trkpt lat="42.45992" lon="2.26884">
        <ele>2344</ele>
        <time>2024-09-17T08:40:47Z</time>
      </trkpt>
      <trkpt lat="42.45989" lon="2.26888">
        <ele>2344</ele>
        <time>2024-09-17T08:40:50Z</time>
      </trkpt>
      <trkpt lat="42.45987" lon="2.26893">
        <ele>2344</ele>
        <time>2024-09-17T08:40:53Z</time>
      </trkpt>
      <trkpt lat="42.45986" lon="2.26897">
        <ele>2344</ele>
        <time>2024-09-17T08:40:56Z</time>
      </trkpt>
      <trkpt lat="42.45985" lon="2.26901">
        <ele>2343</ele>
        <time>2024-09-17T08:40:59Z</time>
      </trkpt>
      <trkpt lat="42.45983" lon="2.26905">
        <ele>2344</ele>
        <time>2024-09-17T08:41:02Z</time>
      </trkpt>
      <trkpt lat="42.45982" lon="2.26909">
        <ele>2344</ele>
        <time>2024-09-17T08:41:05Z</time>
      </trkpt>
      <trkpt lat="42.4598" lon="2.26912">
        <ele>2344</ele>
        <time>2024-09-17T08:41:08Z</time>
      </trkpt>
      <trkpt lat="42.45978" lon="2.26915">
        <ele>2344</ele>
        <time>2024-09-17T08:41:10Z</time>
      </trkpt>
      <trkpt lat="42.45976" lon="2.26918">
        <ele>2345</ele>
        <time>2024-09-17T08:41:13Z</time>
      </trkpt>
      <trkpt lat="42.45975" lon="2.26922">
        <ele>2344</ele>
        <time>2024-09-17T08:41:16Z</time>
      </trkpt>
      <trkpt lat="42.45973" lon="2.26926">
        <ele>2345</ele>
        <time>2024-09-17T08:41:19Z</time>
      </trkpt>
      <trkpt lat="42.45971" lon="2.2693">
        <ele>2344</ele>
        <time>2024-09-17T08:41:22Z</time>
      </trkpt>
      <trkpt lat="42.4597" lon="2.26934">
        <ele>2343</ele>
        <time>2024-09-17T08:41:24Z</time>
      </trkpt>
      <trkpt lat="42.45968" lon="2.26937">
        <ele>2345</ele>
        <time>2024-09-17T08:41:26Z</time>
      </trkpt>
      <trkpt lat="42.45966" lon="2.26941">
        <ele>2345</ele>
        <time>2024-09-17T08:41:29Z</time>
      </trkpt>
      <trkpt lat="42.45964" lon="2.26945">
        <ele>2345</ele>
        <time>2024-09-17T08:41:32Z</time>
      </trkpt>
      <trkpt lat="42.45961" lon="2.26948">
        <ele>2346</ele>
        <time>2024-09-17T08:41:35Z</time>
      </trkpt>
      <trkpt lat="42.45959" lon="2.26953">
        <ele>2345</ele>
        <time>2024-09-17T08:41:38Z</time>
      </trkpt>
      <trkpt lat="42.45957" lon="2.26956">
        <ele>2346</ele>
        <time>2024-09-17T08:41:41Z</time>
      </trkpt>
      <trkpt lat="42.45955" lon="2.2696">
        <ele>2346</ele>
        <time>2024-09-17T08:41:43Z</time>
      </trkpt>
      <trkpt lat="42.45952" lon="2.26963">
        <ele>2346</ele>
        <time>2024-09-17T08:41:46Z</time>
      </trkpt>
      <trkpt lat="42.4595" lon="2.26966">
        <ele>2346</ele>
        <time>2024-09-17T08:41:48Z</time>
      </trkpt>
      <trkpt lat="42.45948" lon="2.2697">
        <ele>2346</ele>
        <time>2024-09-17T08:41:51Z</time>
      </trkpt>
      <trkpt lat="42.45947" lon="2.26974">
        <ele>2346</ele>
        <time>2024-09-17T08:41:54Z</time>
      </trkpt>
      <trkpt lat="42.45944" lon="2.26977">
        <ele>2346</ele>
        <time>2024-09-17T08:41:57Z</time>
      </trkpt>
      <trkpt lat="42.45943" lon="2.2698">
        <ele>2346</ele>
        <time>2024-09-17T08:42:20Z</time>
      </trkpt>
      <trkpt lat="42.45941" lon="2.26984">
        <ele>2345</ele>
        <time>2024-09-17T08:42:22Z</time>
      </trkpt>
      <trkpt lat="42.45939" lon="2.26987">
        <ele>2345</ele>
        <time>2024-09-17T08:42:25Z</time>
      </trkpt>
      <trkpt lat="42.45938" lon="2.26992">
        <ele>2345</ele>
        <time>2024-09-17T08:42:28Z</time>
      </trkpt>
      <trkpt lat="42.45937" lon="2.26996">
        <ele>2345</ele>
        <time>2024-09-17T08:42:30Z</time>
      </trkpt>
      <trkpt lat="42.45936" lon="2.26999">
        <ele>2345</ele>
        <time>2024-09-17T08:42:32Z</time>
      </trkpt>
      <trkpt lat="42.45935" lon="2.27003">
        <ele>2346</ele>
        <time>2024-09-17T08:42:35Z</time>
      </trkpt>
      <trkpt lat="42.45934" lon="2.27007">
        <ele>2345</ele>
        <time>2024-09-17T08:42:37Z</time>
      </trkpt>
      <trkpt lat="42.45933" lon="2.27012">
        <ele>2345</ele>
        <time>2024-09-17T08:42:40Z</time>
      </trkpt>
      <trkpt lat="42.45932" lon="2.27015">
        <ele>2345</ele>
        <time>2024-09-17T08:42:42Z</time>
      </trkpt>
      <trkpt lat="42.45931" lon="2.27019">
        <ele>2345</ele>
        <time>2024-09-17T08:42:44Z</time>
      </trkpt>
      <trkpt lat="42.4593" lon="2.27023">
        <ele>2345</ele>
        <time>2024-09-17T08:42:47Z</time>
      </trkpt>
      <trkpt lat="42.45929" lon="2.27027">
        <ele>2345</ele>
        <time>2024-09-17T08:42:49Z</time>
      </trkpt>
      <trkpt lat="42.45928" lon="2.27031">
        <ele>2346</ele>
        <time>2024-09-17T08:42:51Z</time>
      </trkpt>
      <trkpt lat="42.45927" lon="2.27034">
        <ele>2347</ele>
        <time>2024-09-17T08:42:54Z</time>
      </trkpt>
      <trkpt lat="42.45926" lon="2.27038">
        <ele>2346</ele>
        <time>2024-09-17T08:42:56Z</time>
      </trkpt>
      <trkpt lat="42.45925" lon="2.27042">
        <ele>2346</ele>
        <time>2024-09-17T08:42:59Z</time>
      </trkpt>
      <trkpt lat="42.45924" lon="2.27047">
        <ele>2347</ele>
        <time>2024-09-17T08:43:02Z</time>
      </trkpt>
      <trkpt lat="42.45923" lon="2.27052">
        <ele>2347</ele>
        <time>2024-09-17T08:43:05Z</time>
      </trkpt>
      <trkpt lat="42.45922" lon="2.27057">
        <ele>2347</ele>
        <time>2024-09-17T08:43:09Z</time>
      </trkpt>
      <trkpt lat="42.4592" lon="2.27062">
        <ele>2348</ele>
        <time>2024-09-17T08:43:12Z</time>
      </trkpt>
      <trkpt lat="42.45919" lon="2.27066">
        <ele>2347</ele>
        <time>2024-09-17T08:43:14Z</time>
      </trkpt>
      <trkpt lat="42.45917" lon="2.2707">
        <ele>2348</ele>
        <time>2024-09-17T08:43:17Z</time>
      </trkpt>
      <trkpt lat="42.45915" lon="2.27075">
        <ele>2348</ele>
        <time>2024-09-17T08:43:20Z</time>
      </trkpt>
      <trkpt lat="42.45913" lon="2.27078">
        <ele>2347</ele>
        <time>2024-09-17T08:43:22Z</time>
      </trkpt>
      <trkpt lat="42.45911" lon="2.27082">
        <ele>2347</ele>
        <time>2024-09-17T08:43:25Z</time>
      </trkpt>
      <trkpt lat="42.45909" lon="2.27086">
        <ele>2347</ele>
        <time>2024-09-17T08:43:28Z</time>
      </trkpt>
      <trkpt lat="42.45907" lon="2.27089">
        <ele>2347</ele>
        <time>2024-09-17T08:43:30Z</time>
      </trkpt>
      <trkpt lat="42.45905" lon="2.27093">
        <ele>2346</ele>
        <time>2024-09-17T08:43:33Z</time>
      </trkpt>
      <trkpt lat="42.45903" lon="2.27096">
        <ele>2346</ele>
        <time>2024-09-17T08:43:34Z</time>
      </trkpt>
      <trkpt lat="42.459" lon="2.27099">
        <ele>2346</ele>
        <time>2024-09-17T08:43:37Z</time>
      </trkpt>
      <trkpt lat="42.45898" lon="2.27102">
        <ele>2345</ele>
        <time>2024-09-17T08:43:39Z</time>
      </trkpt>
      <trkpt lat="42.45895" lon="2.27104">
        <ele>2345</ele>
        <time>2024-09-17T08:43:42Z</time>
      </trkpt>
      <trkpt lat="42.45893" lon="2.27106">
        <ele>2345</ele>
        <time>2024-09-17T08:43:44Z</time>
      </trkpt>
      <trkpt lat="42.45889" lon="2.27107">
        <ele>2344</ele>
        <time>2024-09-17T08:43:47Z</time>
      </trkpt>
      <trkpt lat="42.45886" lon="2.27108">
        <ele>2344</ele>
        <time>2024-09-17T08:43:49Z</time>
      </trkpt>
      <trkpt lat="42.45883" lon="2.27109">
        <ele>2344</ele>
        <time>2024-09-17T08:43:52Z</time>
      </trkpt>
      <trkpt lat="42.45879" lon="2.27109">
        <ele>2343</ele>
        <time>2024-09-17T08:43:56Z</time>
      </trkpt>
      <trkpt lat="42.45877" lon="2.2711">
        <ele>2342</ele>
        <time>2024-09-17T08:43:58Z</time>
      </trkpt>
      <trkpt lat="42.45874" lon="2.27113">
        <ele>2343</ele>
        <time>2024-09-17T08:44:01Z</time>
      </trkpt>
      <trkpt lat="42.45871" lon="2.27115">
        <ele>2342</ele>
        <time>2024-09-17T08:44:04Z</time>
      </trkpt>
      <trkpt lat="42.45868" lon="2.27118">
        <ele>2340</ele>
        <time>2024-09-17T08:44:07Z</time>
      </trkpt>
      <trkpt lat="42.45865" lon="2.2712">
        <ele>2340</ele>
        <time>2024-09-17T08:44:10Z</time>
      </trkpt>
      <trkpt lat="42.45862" lon="2.27123">
        <ele>2338</ele>
        <time>2024-09-17T08:44:25Z</time>
      </trkpt>
      <trkpt lat="42.45859" lon="2.27126">
        <ele>2337</ele>
        <time>2024-09-17T08:44:28Z</time>
      </trkpt>
      <trkpt lat="42.45857" lon="2.27129">
        <ele>2337</ele>
        <time>2024-09-17T08:44:31Z</time>
      </trkpt>
      <trkpt lat="42.45855" lon="2.27133">
        <ele>2336</ele>
        <time>2024-09-17T08:44:34Z</time>
      </trkpt>
      <trkpt lat="42.45853" lon="2.27136">
        <ele>2334</ele>
        <time>2024-09-17T08:44:37Z</time>
      </trkpt>
      <trkpt lat="42.45852" lon="2.2714">
        <ele>2333</ele>
        <time>2024-09-17T08:44:39Z</time>
      </trkpt>
      <trkpt lat="42.4585" lon="2.27142">
        <ele>2333</ele>
        <time>2024-09-17T08:44:41Z</time>
      </trkpt>
      <trkpt lat="42.45847" lon="2.27145">
        <ele>2332</ele>
        <time>2024-09-17T08:44:44Z</time>
      </trkpt>
      <trkpt lat="42.45845" lon="2.27149">
        <ele>2332</ele>
        <time>2024-09-17T08:44:47Z</time>
      </trkpt>
      <trkpt lat="42.45845" lon="2.27152">
        <ele>2331</ele>
        <time>2024-09-17T08:44:49Z</time>
      </trkpt>
      <trkpt lat="42.45846" lon="2.27157">
        <ele>2331</ele>
        <time>2024-09-17T08:44:52Z</time>
      </trkpt>
      <trkpt lat="42.45848" lon="2.2716">
        <ele>2329</ele>
        <time>2024-09-17T08:44:55Z</time>
      </trkpt>
      <trkpt lat="42.45847" lon="2.27164">
        <ele>2327</ele>
        <time>2024-09-17T08:45:05Z</time>
      </trkpt>
      <trkpt lat="42.45846" lon="2.27168">
        <ele>2325</ele>
        <time>2024-09-17T08:45:09Z</time>
      </trkpt>
      <trkpt lat="42.45846" lon="2.27172">
        <ele>2323</ele>
        <time>2024-09-17T08:45:14Z</time>
      </trkpt>
      <trkpt lat="42.45845" lon="2.27175">
        <ele>2321</ele>
        <time>2024-09-17T08:45:19Z</time>
      </trkpt>
      <trkpt lat="42.45843" lon="2.27178">
        <ele>2321</ele>
        <time>2024-09-17T08:45:23Z</time>
      </trkpt>
      <trkpt lat="42.45841" lon="2.27181">
        <ele>2320</ele>
        <time>2024-09-17T08:45:26Z</time>
      </trkpt>
      <trkpt lat="42.45841" lon="2.27185">
        <ele>2319</ele>
        <time>2024-09-17T08:45:30Z</time>
      </trkpt>
      <trkpt lat="42.4584" lon="2.27189">
        <ele>2317</ele>
        <time>2024-09-17T08:45:34Z</time>
      </trkpt>
      <trkpt lat="42.45839" lon="2.27193">
        <ele>2316</ele>
        <time>2024-09-17T08:45:38Z</time>
      </trkpt>
      <trkpt lat="42.45838" lon="2.27197">
        <ele>2315</ele>
        <time>2024-09-17T08:45:42Z</time>
      </trkpt>
      <trkpt lat="42.45839" lon="2.272">
        <ele>2314</ele>
        <time>2024-09-17T08:45:46Z</time>
      </trkpt>
      <trkpt lat="42.45839" lon="2.27204">
        <ele>2312</ele>
        <time>2024-09-17T08:45:50Z</time>
      </trkpt>
      <trkpt lat="42.45838" lon="2.27207">
        <ele>2311</ele>
        <time>2024-09-17T08:45:55Z</time>
      </trkpt>
      <trkpt lat="42.45837" lon="2.27211">
        <ele>2310</ele>
        <time>2024-09-17T08:45:59Z</time>
      </trkpt>
      <trkpt lat="42.45836" lon="2.27215">
        <ele>2309</ele>
        <time>2024-09-17T08:46:03Z</time>
      </trkpt>
      <trkpt lat="42.45835" lon="2.27219">
        <ele>2309</ele>
        <time>2024-09-17T08:46:08Z</time>
      </trkpt>
      <trkpt lat="42.45833" lon="2.27221">
        <ele>2308</ele>
        <time>2024-09-17T08:46:10Z</time>
      </trkpt>
      <trkpt lat="42.4583" lon="2.27224">
        <ele>2309</ele>
        <time>2024-09-17T08:46:13Z</time>
      </trkpt>
      <trkpt lat="42.45828" lon="2.27226">
        <ele>2308</ele>
        <time>2024-09-17T08:46:16Z</time>
      </trkpt>
      <trkpt lat="42.45826" lon="2.27228">
        <ele>2308</ele>
        <time>2024-09-17T08:46:19Z</time>
      </trkpt>
      <trkpt lat="42.45823" lon="2.2723">
        <ele>2308</ele>
        <time>2024-09-17T08:46:21Z</time>
      </trkpt>
      <trkpt lat="42.4582" lon="2.27232">
        <ele>2308</ele>
        <time>2024-09-17T08:46:24Z</time>
      </trkpt>
      <trkpt lat="42.45817" lon="2.27234">
        <ele>2303</ele>
        <time>2024-09-17T08:48:53Z</time>
      </trkpt>
      <trkpt lat="42.45815" lon="2.27237">
        <ele>2303</ele>
        <time>2024-09-17T08:48:57Z</time>
      </trkpt>
      <trkpt lat="42.45811" lon="2.27238">
        <ele>2302</ele>
        <time>2024-09-17T08:49:00Z</time>
      </trkpt>
      <trkpt lat="42.45808" lon="2.27239">
        <ele>2303</ele>
        <time>2024-09-17T08:49:02Z</time>
      </trkpt>
      <trkpt lat="42.45805" lon="2.27241">
        <ele>2303</ele>
        <time>2024-09-17T08:49:05Z</time>
      </trkpt>
      <trkpt lat="42.45802" lon="2.27241">
        <ele>2304</ele>
        <time>2024-09-17T08:49:08Z</time>
      </trkpt>
      <trkpt lat="42.45799" lon="2.27241">
        <ele>2304</ele>
        <time>2024-09-17T08:49:10Z</time>
      </trkpt>
      <trkpt lat="42.45796" lon="2.27242">
        <ele>2304</ele>
        <time>2024-09-17T08:49:13Z</time>
      </trkpt>
      <trkpt lat="42.45792" lon="2.27243">
        <ele>2303</ele>
        <time>2024-09-17T08:49:16Z</time>
      </trkpt>
      <trkpt lat="42.45789" lon="2.27243">
        <ele>2304</ele>
        <time>2024-09-17T08:49:19Z</time>
      </trkpt>
      <trkpt lat="42.45785" lon="2.27243">
        <ele>2305</ele>
        <time>2024-09-17T08:49:22Z</time>
      </trkpt>
      <trkpt lat="42.45782" lon="2.27245">
        <ele>2304</ele>
        <time>2024-09-17T08:49:27Z</time>
      </trkpt>
      <trkpt lat="42.4578" lon="2.27247">
        <ele>2302</ele>
        <time>2024-09-17T08:49:34Z</time>
      </trkpt>
      <trkpt lat="42.45777" lon="2.27249">
        <ele>2301</ele>
        <time>2024-09-17T08:49:39Z</time>
      </trkpt>
      <trkpt lat="42.45774" lon="2.2725">
        <ele>2300</ele>
        <time>2024-09-17T08:49:43Z</time>
      </trkpt>
      <trkpt lat="42.45772" lon="2.27252">
        <ele>2298</ele>
        <time>2024-09-17T08:49:51Z</time>
      </trkpt>
      <trkpt lat="42.45769" lon="2.27254">
        <ele>2297</ele>
        <time>2024-09-17T08:49:54Z</time>
      </trkpt>
      <trkpt lat="42.45766" lon="2.27255">
        <ele>2297</ele>
        <time>2024-09-17T08:49:57Z</time>
      </trkpt>
      <trkpt lat="42.45763" lon="2.27255">
        <ele>2297</ele>
        <time>2024-09-17T08:50:00Z</time>
      </trkpt>
      <trkpt lat="42.45761" lon="2.27257">
        <ele>2295</ele>
        <time>2024-09-17T08:50:04Z</time>
      </trkpt>
      <trkpt lat="42.45758" lon="2.27259">
        <ele>2294</ele>
        <time>2024-09-17T08:50:09Z</time>
      </trkpt>
      <trkpt lat="42.45756" lon="2.27261">
        <ele>2292</ele>
        <time>2024-09-17T08:50:18Z</time>
      </trkpt>
      <trkpt lat="42.45754" lon="2.27264">
        <ele>2291</ele>
        <time>2024-09-17T08:50:23Z</time>
      </trkpt>
      <trkpt lat="42.45751" lon="2.27265">
        <ele>2290</ele>
        <time>2024-09-17T08:50:27Z</time>
      </trkpt>
      <trkpt lat="42.45749" lon="2.27266">
        <ele>2288</ele>
        <time>2024-09-17T08:50:37Z</time>
      </trkpt>
      <trkpt lat="42.45746" lon="2.27267">
        <ele>2289</ele>
        <time>2024-09-17T08:50:40Z</time>
      </trkpt>
      <trkpt lat="42.45744" lon="2.27269">
        <ele>2287</ele>
        <time>2024-09-17T08:50:45Z</time>
      </trkpt>
      <trkpt lat="42.45741" lon="2.2727">
        <ele>2286</ele>
        <time>2024-09-17T08:50:49Z</time>
      </trkpt>
      <trkpt lat="42.45738" lon="2.27271">
        <ele>2285</ele>
        <time>2024-09-17T08:51:01Z</time>
      </trkpt>
      <trkpt lat="42.45736" lon="2.27274">
        <ele>2283</ele>
        <time>2024-09-17T08:51:11Z</time>
      </trkpt>
      <trkpt lat="42.45734" lon="2.27275">
        <ele>2281</ele>
        <time>2024-09-17T08:51:19Z</time>
      </trkpt>
      <trkpt lat="42.45731" lon="2.27277">
        <ele>2280</ele>
        <time>2024-09-17T08:51:24Z</time>
      </trkpt>
      <trkpt lat="42.45728" lon="2.2728">
        <ele>2279</ele>
        <time>2024-09-17T08:51:28Z</time>
      </trkpt>
      <trkpt lat="42.45726" lon="2.27282">
        <ele>2279</ele>
        <time>2024-09-17T08:51:33Z</time>
      </trkpt>
      <trkpt lat="42.45725" lon="2.27285">
        <ele>2276</ele>
        <time>2024-09-17T08:51:40Z</time>
      </trkpt>
      <trkpt lat="42.45725" lon="2.27288">
        <ele>2273</ele>
        <time>2024-09-17T08:51:44Z</time>
      </trkpt>
      <trkpt lat="42.45724" lon="2.27291">
        <ele>2274</ele>
        <time>2024-09-17T08:51:52Z</time>
      </trkpt>
      <trkpt lat="42.45723" lon="2.27294">
        <ele>2272</ele>
        <time>2024-09-17T08:51:58Z</time>
      </trkpt>
      <trkpt lat="42.4572" lon="2.27296">
        <ele>2271</ele>
        <time>2024-09-17T08:52:18Z</time>
      </trkpt>
      <trkpt lat="42.45717" lon="2.27296">
        <ele>2272</ele>
        <time>2024-09-17T08:52:22Z</time>
      </trkpt>
      <trkpt lat="42.45715" lon="2.27298">
        <ele>2271</ele>
        <time>2024-09-17T08:52:28Z</time>
      </trkpt>
      <trkpt lat="42.45712" lon="2.27297">
        <ele>2269</ele>
        <time>2024-09-17T08:52:34Z</time>
      </trkpt>
      <trkpt lat="42.4571" lon="2.27298">
        <ele>2268</ele>
        <time>2024-09-17T08:52:37Z</time>
      </trkpt>
      <trkpt lat="42.45707" lon="2.273">
        <ele>2269</ele>
        <time>2024-09-17T08:52:40Z</time>
      </trkpt>
      <trkpt lat="42.45705" lon="2.27303">
        <ele>2269</ele>
        <time>2024-09-17T08:52:44Z</time>
      </trkpt>
      <trkpt lat="42.45702" lon="2.27304">
        <ele>2266</ele>
        <time>2024-09-17T08:52:51Z</time>
      </trkpt>
      <trkpt lat="42.45699" lon="2.27306">
        <ele>2264</ele>
        <time>2024-09-17T08:52:56Z</time>
      </trkpt>
      <trkpt lat="42.45695" lon="2.27306">
        <ele>2264</ele>
        <time>2024-09-17T08:52:59Z</time>
      </trkpt>
      <trkpt lat="42.45693" lon="2.27305">
        <ele>2262</ele>
        <time>2024-09-17T08:53:04Z</time>
      </trkpt>
      <trkpt lat="42.45691" lon="2.27307">
        <ele>2260</ele>
        <time>2024-09-17T08:53:11Z</time>
      </trkpt>
      <trkpt lat="42.45692" lon="2.27309">
        <ele>2258</ele>
        <time>2024-09-17T08:53:15Z</time>
      </trkpt>
      <trkpt lat="42.45694" lon="2.27312">
        <ele>2258</ele>
        <time>2024-09-17T08:53:20Z</time>
      </trkpt>
      <trkpt lat="42.45696" lon="2.27314">
        <ele>2257</ele>
        <time>2024-09-17T08:53:25Z</time>
      </trkpt>
      <trkpt lat="42.45699" lon="2.27317">
        <ele>2254</ele>
        <time>2024-09-17T08:53:33Z</time>
      </trkpt>
      <trkpt lat="42.45698" lon="2.27319">
        <ele>2254</ele>
        <time>2024-09-17T08:53:43Z</time>
      </trkpt>
      <trkpt lat="42.45696" lon="2.27321">
        <ele>2253</ele>
        <time>2024-09-17T08:53:47Z</time>
      </trkpt>
      <trkpt lat="42.45696" lon="2.27324">
        <ele>2251</ele>
        <time>2024-09-17T08:53:55Z</time>
      </trkpt>
      <trkpt lat="42.45697" lon="2.27327">
        <ele>2249</ele>
        <time>2024-09-17T08:54:00Z</time>
      </trkpt>
      <trkpt lat="42.45699" lon="2.2733">
        <ele>2248</ele>
        <time>2024-09-17T08:54:06Z</time>
      </trkpt>
      <trkpt lat="42.45701" lon="2.27331">
        <ele>2248</ele>
        <time>2024-09-17T08:54:10Z</time>
      </trkpt>
      <trkpt lat="42.45703" lon="2.27335">
        <ele>2246</ele>
        <time>2024-09-17T08:54:23Z</time>
      </trkpt>
      <trkpt lat="42.45704" lon="2.27338">
        <ele>2244</ele>
        <time>2024-09-17T08:54:28Z</time>
      </trkpt>
      <trkpt lat="42.45706" lon="2.27341">
        <ele>2243</ele>
        <time>2024-09-17T08:54:31Z</time>
      </trkpt>
      <trkpt lat="42.45709" lon="2.27343">
        <ele>2242</ele>
        <time>2024-09-17T08:54:35Z</time>
      </trkpt>
      <trkpt lat="42.45712" lon="2.27343">
        <ele>2242</ele>
        <time>2024-09-17T08:54:40Z</time>
      </trkpt>
      <trkpt lat="42.45715" lon="2.27345">
        <ele>2241</ele>
        <time>2024-09-17T08:54:43Z</time>
      </trkpt>
      <trkpt lat="42.45717" lon="2.27346">
        <ele>2242</ele>
        <time>2024-09-17T08:54:46Z</time>
      </trkpt>
      <trkpt lat="42.4572" lon="2.27347">
        <ele>2240</ele>
        <time>2024-09-17T08:54:53Z</time>
      </trkpt>
      <trkpt lat="42.4572" lon="2.27349">
        <ele>2239</ele>
        <time>2024-09-17T08:54:58Z</time>
      </trkpt>
      <trkpt lat="42.45718" lon="2.27351">
        <ele>2238</ele>
        <time>2024-09-17T08:55:04Z</time>
      </trkpt>
      <trkpt lat="42.45715" lon="2.27351">
        <ele>2239</ele>
        <time>2024-09-17T08:55:07Z</time>
      </trkpt>
      <trkpt lat="42.45712" lon="2.27353">
        <ele>2239</ele>
        <time>2024-09-17T08:55:10Z</time>
      </trkpt>
      <trkpt lat="42.45713" lon="2.27352">
        <ele>2235</ele>
        <time>2024-09-17T08:55:39Z</time>
      </trkpt>
      <trkpt lat="42.45711" lon="2.27352">
        <ele>2235</ele>
        <time>2024-09-17T08:57:07Z</time>
      </trkpt>
      <trkpt lat="42.45709" lon="2.27354">
        <ele>2234</ele>
        <time>2024-09-17T08:57:12Z</time>
      </trkpt>
      <trkpt lat="42.45707" lon="2.27357">
        <ele>2232</ele>
        <time>2024-09-17T08:57:19Z</time>
      </trkpt>
      <trkpt lat="42.45708" lon="2.27359">
        <ele>2232</ele>
        <time>2024-09-17T08:57:26Z</time>
      </trkpt>
      <trkpt lat="42.45709" lon="2.27362">
        <ele>2232</ele>
        <time>2024-09-17T08:57:35Z</time>
      </trkpt>
      <trkpt lat="42.45709" lon="2.27364">
        <ele>2232</ele>
        <time>2024-09-17T08:57:40Z</time>
      </trkpt>
      <trkpt lat="42.45706" lon="2.27367">
        <ele>2231</ele>
        <time>2024-09-17T08:57:50Z</time>
      </trkpt>
      <trkpt lat="42.45707" lon="2.2737">
        <ele>2228</ele>
        <time>2024-09-17T08:58:03Z</time>
      </trkpt>
      <trkpt lat="42.45707" lon="2.27373">
        <ele>2226</ele>
        <time>2024-09-17T08:58:12Z</time>
      </trkpt>
      <trkpt lat="42.45708" lon="2.27376">
        <ele>2225</ele>
        <time>2024-09-17T08:58:16Z</time>
      </trkpt>
      <trkpt lat="42.4571" lon="2.27379">
        <ele>2221</ele>
        <time>2024-09-17T08:58:27Z</time>
      </trkpt>
      <trkpt lat="42.45713" lon="2.27382">
        <ele>2219</ele>
        <time>2024-09-17T08:58:32Z</time>
      </trkpt>
      <trkpt lat="42.45715" lon="2.27386">
        <ele>2218</ele>
        <time>2024-09-17T08:58:35Z</time>
      </trkpt>
      <trkpt lat="42.45717" lon="2.27388">
        <ele>2216</ele>
        <time>2024-09-17T08:58:39Z</time>
      </trkpt>
      <trkpt lat="42.4572" lon="2.2739">
        <ele>2215</ele>
        <time>2024-09-17T08:58:43Z</time>
      </trkpt>
      <trkpt lat="42.45719" lon="2.27392">
        <ele>2215</ele>
        <time>2024-09-17T08:58:47Z</time>
      </trkpt>
      <trkpt lat="42.45717" lon="2.27393">
        <ele>2216</ele>
        <time>2024-09-17T08:59:01Z</time>
      </trkpt>
      <trkpt lat="42.45716" lon="2.27396">
        <ele>2213</ele>
        <time>2024-09-17T08:59:08Z</time>
      </trkpt>
      <trkpt lat="42.45713" lon="2.27397">
        <ele>2213</ele>
        <time>2024-09-17T08:59:12Z</time>
      </trkpt>
      <trkpt lat="42.45711" lon="2.27399">
        <ele>2212</ele>
        <time>2024-09-17T08:59:16Z</time>
      </trkpt>
      <trkpt lat="42.45712" lon="2.27402">
        <ele>2209</ele>
        <time>2024-09-17T08:59:21Z</time>
      </trkpt>
      <trkpt lat="42.45714" lon="2.27403">
        <ele>2208</ele>
        <time>2024-09-17T08:59:25Z</time>
      </trkpt>
      <trkpt lat="42.45716" lon="2.27405">
        <ele>2207</ele>
        <time>2024-09-17T08:59:29Z</time>
      </trkpt>
      <trkpt lat="42.45719" lon="2.27408">
        <ele>2205</ele>
        <time>2024-09-17T08:59:33Z</time>
      </trkpt>
      <trkpt lat="42.45721" lon="2.27411">
        <ele>2205</ele>
        <time>2024-09-17T08:59:36Z</time>
      </trkpt>
      <trkpt lat="42.45724" lon="2.27412">
        <ele>2203</ele>
        <time>2024-09-17T08:59:39Z</time>
      </trkpt>
      <trkpt lat="42.45727" lon="2.27413">
        <ele>2202</ele>
        <time>2024-09-17T08:59:42Z</time>
      </trkpt>
      <trkpt lat="42.4573" lon="2.27414">
        <ele>2201</ele>
        <time>2024-09-17T08:59:46Z</time>
      </trkpt>
      <trkpt lat="42.4573" lon="2.27418">
        <ele>2201</ele>
        <time>2024-09-17T08:59:51Z</time>
      </trkpt>
      <trkpt lat="42.45732" lon="2.2742">
        <ele>2200</ele>
        <time>2024-09-17T08:59:56Z</time>
      </trkpt>
      <trkpt lat="42.45734" lon="2.27422">
        <ele>2198</ele>
        <time>2024-09-17T09:00:00Z</time>
      </trkpt>
      <trkpt lat="42.45737" lon="2.27424">
        <ele>2197</ele>
        <time>2024-09-17T09:00:04Z</time>
      </trkpt>
      <trkpt lat="42.45739" lon="2.27426">
        <ele>2197</ele>
        <time>2024-09-17T09:00:07Z</time>
      </trkpt>
      <trkpt lat="42.45742" lon="2.27427">
        <ele>2196</ele>
        <time>2024-09-17T09:00:11Z</time>
      </trkpt>
      <trkpt lat="42.45744" lon="2.27429">
        <ele>2194</ele>
        <time>2024-09-17T09:00:15Z</time>
      </trkpt>
      <trkpt lat="42.45743" lon="2.27431">
        <ele>2193</ele>
        <time>2024-09-17T09:00:21Z</time>
      </trkpt>
      <trkpt lat="42.45741" lon="2.27434">
        <ele>2194</ele>
        <time>2024-09-17T09:00:25Z</time>
      </trkpt>
      <trkpt lat="42.45738" lon="2.27436">
        <ele>2193</ele>
        <time>2024-09-17T09:00:28Z</time>
      </trkpt>
      <trkpt lat="42.45738" lon="2.27438">
        <ele>2191</ele>
        <time>2024-09-17T09:00:34Z</time>
      </trkpt>
      <trkpt lat="42.4574" lon="2.2744">
        <ele>2190</ele>
        <time>2024-09-17T09:00:37Z</time>
      </trkpt>
      <trkpt lat="42.45743" lon="2.2744">
        <ele>2189</ele>
        <time>2024-09-17T09:00:41Z</time>
      </trkpt>
      <trkpt lat="42.45745" lon="2.27442">
        <ele>2188</ele>
        <time>2024-09-17T09:00:45Z</time>
      </trkpt>
      <trkpt lat="42.45748" lon="2.27444">
        <ele>2187</ele>
        <time>2024-09-17T09:00:49Z</time>
      </trkpt>
      <trkpt lat="42.4575" lon="2.27447">
        <ele>2187</ele>
        <time>2024-09-17T09:00:53Z</time>
      </trkpt>
      <trkpt lat="42.45752" lon="2.27449">
        <ele>2185</ele>
        <time>2024-09-17T09:00:57Z</time>
      </trkpt>
      <trkpt lat="42.45753" lon="2.27453">
        <ele>2186</ele>
        <time>2024-09-17T09:01:07Z</time>
      </trkpt>
      <trkpt lat="42.45751" lon="2.27455">
        <ele>2185</ele>
        <time>2024-09-17T09:01:13Z</time>
      </trkpt>
      <trkpt lat="42.45749" lon="2.27456">
        <ele>2185</ele>
        <time>2024-09-17T09:01:17Z</time>
      </trkpt>
      <trkpt lat="42.45748" lon="2.27459">
        <ele>2183</ele>
        <time>2024-09-17T09:01:24Z</time>
      </trkpt>
      <trkpt lat="42.45749" lon="2.27463">
        <ele>2181</ele>
        <time>2024-09-17T09:01:29Z</time>
      </trkpt>
      <trkpt lat="42.45751" lon="2.27465">
        <ele>2181</ele>
        <time>2024-09-17T09:01:34Z</time>
      </trkpt>
      <trkpt lat="42.45752" lon="2.27469">
        <ele>2180</ele>
        <time>2024-09-17T09:01:37Z</time>
      </trkpt>
      <trkpt lat="42.45754" lon="2.27472">
        <ele>2178</ele>
        <time>2024-09-17T09:01:42Z</time>
      </trkpt>
      <trkpt lat="42.45752" lon="2.27475">
        <ele>2178</ele>
        <time>2024-09-17T09:01:46Z</time>
      </trkpt>
      <trkpt lat="42.4575" lon="2.27475">
        <ele>2178</ele>
        <time>2024-09-17T09:01:49Z</time>
      </trkpt>
      <trkpt lat="42.45747" lon="2.27476">
        <ele>2178</ele>
        <time>2024-09-17T09:01:53Z</time>
      </trkpt>
      <trkpt lat="42.45744" lon="2.27476">
        <ele>2178</ele>
        <time>2024-09-17T09:01:57Z</time>
      </trkpt>
      <trkpt lat="42.45741" lon="2.27476">
        <ele>2176</ele>
        <time>2024-09-17T09:02:34Z</time>
      </trkpt>
      <trkpt lat="42.45738" lon="2.27476">
        <ele>2175</ele>
        <time>2024-09-17T09:02:36Z</time>
      </trkpt>
      <trkpt lat="42.45735" lon="2.27476">
        <ele>2175</ele>
        <time>2024-09-17T09:02:39Z</time>
      </trkpt>
      <trkpt lat="42.45736" lon="2.27478">
        <ele>2172</ele>
        <time>2024-09-17T09:02:42Z</time>
      </trkpt>
      <trkpt lat="42.45738" lon="2.2748">
        <ele>2172</ele>
        <time>2024-09-17T09:02:45Z</time>
      </trkpt>
      <trkpt lat="42.45741" lon="2.27481">
        <ele>2170</ele>
        <time>2024-09-17T09:02:48Z</time>
      </trkpt>
      <trkpt lat="42.45743" lon="2.27484">
        <ele>2169</ele>
        <time>2024-09-17T09:02:51Z</time>
      </trkpt>
      <trkpt lat="42.45746" lon="2.27486">
        <ele>2169</ele>
        <time>2024-09-17T09:02:54Z</time>
      </trkpt>
      <trkpt lat="42.45746" lon="2.2749">
        <ele>2167</ele>
        <time>2024-09-17T09:03:00Z</time>
      </trkpt>
      <trkpt lat="42.45744" lon="2.2749">
        <ele>2167</ele>
        <time>2024-09-17T09:03:03Z</time>
      </trkpt>
      <trkpt lat="42.45741" lon="2.2749">
        <ele>2166</ele>
        <time>2024-09-17T09:03:06Z</time>
      </trkpt>
      <trkpt lat="42.45738" lon="2.2749">
        <ele>2166</ele>
        <time>2024-09-17T09:03:08Z</time>
      </trkpt>
      <trkpt lat="42.45738" lon="2.27491">
        <ele>2164</ele>
        <time>2024-09-17T09:03:12Z</time>
      </trkpt>
      <trkpt lat="42.4574" lon="2.27493">
        <ele>2163</ele>
        <time>2024-09-17T09:03:15Z</time>
      </trkpt>
      <trkpt lat="42.45742" lon="2.27495">
        <ele>2163</ele>
        <time>2024-09-17T09:03:18Z</time>
      </trkpt>
      <trkpt lat="42.45745" lon="2.27497">
        <ele>2162</ele>
        <time>2024-09-17T09:03:21Z</time>
      </trkpt>
      <trkpt lat="42.45747" lon="2.27501">
        <ele>2162</ele>
        <time>2024-09-17T09:03:24Z</time>
      </trkpt>
      <trkpt lat="42.45749" lon="2.27504">
        <ele>2160</ele>
        <time>2024-09-17T09:03:28Z</time>
      </trkpt>
      <trkpt lat="42.45748" lon="2.27505">
        <ele>2159</ele>
        <time>2024-09-17T09:03:36Z</time>
      </trkpt>
      <trkpt lat="42.45745" lon="2.27506">
        <ele>2159</ele>
        <time>2024-09-17T09:03:39Z</time>
      </trkpt>
      <trkpt lat="42.45742" lon="2.27506">
        <ele>2159</ele>
        <time>2024-09-17T09:03:41Z</time>
      </trkpt>
      <trkpt lat="42.45741" lon="2.27508">
        <ele>2158</ele>
        <time>2024-09-17T09:03:45Z</time>
      </trkpt>
      <trkpt lat="42.45743" lon="2.27511">
        <ele>2159</ele>
        <time>2024-09-17T09:03:47Z</time>
      </trkpt>
      <trkpt lat="42.4574" lon="2.27512">
        <ele>2157</ele>
        <time>2024-09-17T09:03:56Z</time>
      </trkpt>
      <trkpt lat="42.45737" lon="2.27512">
        <ele>2158</ele>
        <time>2024-09-17T09:03:59Z</time>
      </trkpt>
      <trkpt lat="42.45734" lon="2.27513">
        <ele>2157</ele>
        <time>2024-09-17T09:04:13Z</time>
      </trkpt>
      <trkpt lat="42.45732" lon="2.27514">
        <ele>2156</ele>
        <time>2024-09-17T09:04:18Z</time>
      </trkpt>
      <trkpt lat="42.45732" lon="2.27516">
        <ele>2155</ele>
        <time>2024-09-17T09:04:20Z</time>
      </trkpt>
      <trkpt lat="42.45734" lon="2.27518">
        <ele>2153</ele>
        <time>2024-09-17T09:04:22Z</time>
      </trkpt>
      <trkpt lat="42.45736" lon="2.27517">
        <ele>2150</ele>
        <time>2024-09-17T09:05:02Z</time>
      </trkpt>
      <trkpt lat="42.45738" lon="2.27519">
        <ele>2149</ele>
        <time>2024-09-17T09:07:54Z</time>
      </trkpt>
      <trkpt lat="42.45738" lon="2.2752">
        <ele>2150</ele>
        <time>2024-09-17T09:08:02Z</time>
      </trkpt>
      <trkpt lat="42.45735" lon="2.27521">
        <ele>2149</ele>
        <time>2024-09-17T09:08:06Z</time>
      </trkpt>
      <trkpt lat="42.45735" lon="2.27524">
        <ele>2149</ele>
        <time>2024-09-17T09:08:13Z</time>
      </trkpt>
      <trkpt lat="42.45737" lon="2.27527">
        <ele>2148</ele>
        <time>2024-09-17T09:08:16Z</time>
      </trkpt>
      <trkpt lat="42.45738" lon="2.2753">
        <ele>2146</ele>
        <time>2024-09-17T09:08:21Z</time>
      </trkpt>
      <trkpt lat="42.45737" lon="2.27532">
        <ele>2145</ele>
        <time>2024-09-17T09:08:24Z</time>
      </trkpt>
      <trkpt lat="42.45737" lon="2.27535">
        <ele>2143</ele>
        <time>2024-09-17T09:08:30Z</time>
      </trkpt>
      <trkpt lat="42.45738" lon="2.27538">
        <ele>2142</ele>
        <time>2024-09-17T09:08:33Z</time>
      </trkpt>
      <trkpt lat="42.45739" lon="2.27542">
        <ele>2141</ele>
        <time>2024-09-17T09:08:39Z</time>
      </trkpt>
      <trkpt lat="42.45741" lon="2.27545">
        <ele>2141</ele>
        <time>2024-09-17T09:08:42Z</time>
      </trkpt>
      <trkpt lat="42.45743" lon="2.27549">
        <ele>2140</ele>
        <time>2024-09-17T09:08:45Z</time>
      </trkpt>
      <trkpt lat="42.45742" lon="2.27551">
        <ele>2140</ele>
        <time>2024-09-17T09:08:52Z</time>
      </trkpt>
      <trkpt lat="42.45739" lon="2.27552">
        <ele>2139</ele>
        <time>2024-09-17T09:08:55Z</time>
      </trkpt>
      <trkpt lat="42.45736" lon="2.27553">
        <ele>2138</ele>
        <time>2024-09-17T09:08:56Z</time>
      </trkpt>
      <trkpt lat="42.45733" lon="2.27553">
        <ele>2138</ele>
        <time>2024-09-17T09:08:58Z</time>
      </trkpt>
      <trkpt lat="42.4573" lon="2.27554">
        <ele>2137</ele>
        <time>2024-09-17T09:09:03Z</time>
      </trkpt>
      <trkpt lat="42.45726" lon="2.27554">
        <ele>2137</ele>
        <time>2024-09-17T09:09:06Z</time>
      </trkpt>
      <trkpt lat="42.45726" lon="2.27556">
        <ele>2135</ele>
        <time>2024-09-17T09:09:11Z</time>
      </trkpt>
      <trkpt lat="42.45727" lon="2.2756">
        <ele>2133</ele>
        <time>2024-09-17T09:09:15Z</time>
      </trkpt>
      <trkpt lat="42.45731" lon="2.27565">
        <ele>2132</ele>
        <time>2024-09-17T09:09:18Z</time>
      </trkpt>
      <trkpt lat="42.45729" lon="2.27568">
        <ele>2132</ele>
        <time>2024-09-17T09:09:23Z</time>
      </trkpt>
      <trkpt lat="42.45726" lon="2.27568">
        <ele>2130</ele>
        <time>2024-09-17T09:09:26Z</time>
      </trkpt>
      <trkpt lat="42.45723" lon="2.27569">
        <ele>2130</ele>
        <time>2024-09-17T09:09:28Z</time>
      </trkpt>
      <trkpt lat="42.4572" lon="2.2757">
        <ele>2130</ele>
        <time>2024-09-17T09:09:31Z</time>
      </trkpt>
      <trkpt lat="42.4572" lon="2.27573">
        <ele>2127</ele>
        <time>2024-09-17T09:09:36Z</time>
      </trkpt>
      <trkpt lat="42.45721" lon="2.27575">
        <ele>2126</ele>
        <time>2024-09-17T09:09:39Z</time>
      </trkpt>
      <trkpt lat="42.4572" lon="2.27578">
        <ele>2125</ele>
        <time>2024-09-17T09:09:45Z</time>
      </trkpt>
      <trkpt lat="42.45718" lon="2.2758">
        <ele>2124</ele>
        <time>2024-09-17T09:09:48Z</time>
      </trkpt>
      <trkpt lat="42.45715" lon="2.27582">
        <ele>2125</ele>
        <time>2024-09-17T09:09:50Z</time>
      </trkpt>
      <trkpt lat="42.45716" lon="2.27585">
        <ele>2122</ele>
        <time>2024-09-17T09:09:53Z</time>
      </trkpt>
      <trkpt lat="42.45718" lon="2.27587">
        <ele>2121</ele>
        <time>2024-09-17T09:09:56Z</time>
      </trkpt>
      <trkpt lat="42.4572" lon="2.27589">
        <ele>2121</ele>
        <time>2024-09-17T09:09:58Z</time>
      </trkpt>
      <trkpt lat="42.4572" lon="2.27591">
        <ele>2120</ele>
        <time>2024-09-17T09:10:02Z</time>
      </trkpt>
      <trkpt lat="42.45717" lon="2.27593">
        <ele>2119</ele>
        <time>2024-09-17T09:10:05Z</time>
      </trkpt>
      <trkpt lat="42.45717" lon="2.27596">
        <ele>2118</ele>
        <time>2024-09-17T09:10:09Z</time>
      </trkpt>
      <trkpt lat="42.45719" lon="2.27598">
        <ele>2117</ele>
        <time>2024-09-17T09:10:12Z</time>
      </trkpt>
      <trkpt lat="42.45721" lon="2.276">
        <ele>2117</ele>
        <time>2024-09-17T09:10:15Z</time>
      </trkpt>
      <trkpt lat="42.45724" lon="2.27602">
        <ele>2117</ele>
        <time>2024-09-17T09:10:18Z</time>
      </trkpt>
      <trkpt lat="42.45727" lon="2.27604">
        <ele>2115</ele>
        <time>2024-09-17T09:10:22Z</time>
      </trkpt>
      <trkpt lat="42.4573" lon="2.27607">
        <ele>2114</ele>
        <time>2024-09-17T09:10:26Z</time>
      </trkpt>
      <trkpt lat="42.4573" lon="2.2761">
        <ele>2113</ele>
        <time>2024-09-17T09:10:30Z</time>
      </trkpt>
      <trkpt lat="42.45728" lon="2.27612">
        <ele>2113</ele>
        <time>2024-09-17T09:10:33Z</time>
      </trkpt>
      <trkpt lat="42.45726" lon="2.27616">
        <ele>2112</ele>
        <time>2024-09-17T09:10:36Z</time>
      </trkpt>
      <trkpt lat="42.45723" lon="2.27618">
        <ele>2111</ele>
        <time>2024-09-17T09:10:40Z</time>
      </trkpt>
      <trkpt lat="42.4572" lon="2.2762">
        <ele>2111</ele>
        <time>2024-09-17T09:10:43Z</time>
      </trkpt>
      <trkpt lat="42.45717" lon="2.27622">
        <ele>2110</ele>
        <time>2024-09-17T09:10:46Z</time>
      </trkpt>
      <trkpt lat="42.45714" lon="2.27623">
        <ele>2109</ele>
        <time>2024-09-17T09:10:49Z</time>
      </trkpt>
      <trkpt lat="42.4571" lon="2.27624">
        <ele>2109</ele>
        <time>2024-09-17T09:10:52Z</time>
      </trkpt>
      <trkpt lat="42.45707" lon="2.27625">
        <ele>2109</ele>
        <time>2024-09-17T09:10:54Z</time>
      </trkpt>
      <trkpt lat="42.45705" lon="2.27627">
        <ele>2107</ele>
        <time>2024-09-17T09:10:58Z</time>
      </trkpt>
      <trkpt lat="42.45701" lon="2.2763">
        <ele>2107</ele>
        <time>2024-09-17T09:11:01Z</time>
      </trkpt>
      <trkpt lat="42.45698" lon="2.2763">
        <ele>2107</ele>
        <time>2024-09-17T09:11:05Z</time>
      </trkpt>
      <trkpt lat="42.45696" lon="2.27633">
        <ele>2103</ele>
        <time>2024-09-17T09:11:10Z</time>
      </trkpt>
      <trkpt lat="42.45694" lon="2.27636">
        <ele>2102</ele>
        <time>2024-09-17T09:11:14Z</time>
      </trkpt>
      <trkpt lat="42.45692" lon="2.27639">
        <ele>2101</ele>
        <time>2024-09-17T09:11:17Z</time>
      </trkpt>
      <trkpt lat="42.45689" lon="2.27641">
        <ele>2101</ele>
        <time>2024-09-17T09:11:20Z</time>
      </trkpt>
      <trkpt lat="42.45686" lon="2.27643">
        <ele>2100</ele>
        <time>2024-09-17T09:11:23Z</time>
      </trkpt>
      <trkpt lat="42.45684" lon="2.27647">
        <ele>2100</ele>
        <time>2024-09-17T09:11:26Z</time>
      </trkpt>
      <trkpt lat="42.45681" lon="2.27649">
        <ele>2099</ele>
        <time>2024-09-17T09:11:29Z</time>
      </trkpt>
      <trkpt lat="42.45679" lon="2.27652">
        <ele>2099</ele>
        <time>2024-09-17T09:11:33Z</time>
      </trkpt>
      <trkpt lat="42.45676" lon="2.27654">
        <ele>2097</ele>
        <time>2024-09-17T09:11:37Z</time>
      </trkpt>
      <trkpt lat="42.45674" lon="2.27657">
        <ele>2095</ele>
        <time>2024-09-17T09:11:41Z</time>
      </trkpt>
      <trkpt lat="42.45672" lon="2.2766">
        <ele>2093</ele>
        <time>2024-09-17T09:11:46Z</time>
      </trkpt>
      <trkpt lat="42.45672" lon="2.27663">
        <ele>2092</ele>
        <time>2024-09-17T09:11:48Z</time>
      </trkpt>
      <trkpt lat="42.4567" lon="2.27667">
        <ele>2091</ele>
        <time>2024-09-17T09:11:51Z</time>
      </trkpt>
      <trkpt lat="42.4567" lon="2.27671">
        <ele>2091</ele>
        <time>2024-09-17T09:11:55Z</time>
      </trkpt>
      <trkpt lat="42.45667" lon="2.27673">
        <ele>2090</ele>
        <time>2024-09-17T09:11:57Z</time>
      </trkpt>
      <trkpt lat="42.45666" lon="2.27672">
        <ele>2089</ele>
        <time>2024-09-17T09:11:59Z</time>
      </trkpt>
      <trkpt lat="42.45663" lon="2.27673">
        <ele>2087</ele>
        <time>2024-09-17T09:12:03Z</time>
      </trkpt>
      <trkpt lat="42.4566" lon="2.27675">
        <ele>2087</ele>
        <time>2024-09-17T09:12:08Z</time>
      </trkpt>
      <trkpt lat="42.45658" lon="2.27676">
        <ele>2086</ele>
        <time>2024-09-17T09:12:10Z</time>
      </trkpt>
      <trkpt lat="42.45655" lon="2.27679">
        <ele>2085</ele>
        <time>2024-09-17T09:12:13Z</time>
      </trkpt>
      <trkpt lat="42.45652" lon="2.27682">
        <ele>2084</ele>
        <time>2024-09-17T09:12:15Z</time>
      </trkpt>
      <trkpt lat="42.45651" lon="2.27685">
        <ele>2083</ele>
        <time>2024-09-17T09:12:22Z</time>
      </trkpt>
      <trkpt lat="42.4565" lon="2.27689">
        <ele>2082</ele>
        <time>2024-09-17T09:12:23Z</time>
      </trkpt>
      <trkpt lat="42.45648" lon="2.27693">
        <ele>2079</ele>
        <time>2024-09-17T09:12:33Z</time>
      </trkpt>
      <trkpt lat="42.45645" lon="2.27694">
        <ele>2079</ele>
        <time>2024-09-17T09:12:36Z</time>
      </trkpt>
      <trkpt lat="42.45643" lon="2.27694">
        <ele>2078</ele>
        <time>2024-09-17T09:12:39Z</time>
      </trkpt>
      <trkpt lat="42.4564" lon="2.27696">
        <ele>2079</ele>
        <time>2024-09-17T09:12:42Z</time>
      </trkpt>
      <trkpt lat="42.45636" lon="2.27696">
        <ele>2079</ele>
        <time>2024-09-17T09:12:46Z</time>
      </trkpt>
      <trkpt lat="42.45634" lon="2.27698">
        <ele>2077</ele>
        <time>2024-09-17T09:12:52Z</time>
      </trkpt>
      <trkpt lat="42.45631" lon="2.277">
        <ele>2079</ele>
        <time>2024-09-17T09:12:54Z</time>
      </trkpt>
      <trkpt lat="42.45629" lon="2.27703">
        <ele>2078</ele>
        <time>2024-09-17T09:13:05Z</time>
      </trkpt>
      <trkpt lat="42.45627" lon="2.27706">
        <ele>2075</ele>
        <time>2024-09-17T09:13:09Z</time>
      </trkpt>
      <trkpt lat="42.45628" lon="2.2771">
        <ele>2073</ele>
        <time>2024-09-17T09:13:14Z</time>
      </trkpt>
      <trkpt lat="42.45628" lon="2.27713">
        <ele>2071</ele>
        <time>2024-09-17T09:13:19Z</time>
      </trkpt>
      <trkpt lat="42.4563" lon="2.27716">
        <ele>2071</ele>
        <time>2024-09-17T09:13:23Z</time>
      </trkpt>
      <trkpt lat="42.45632" lon="2.2772">
        <ele>2069</ele>
        <time>2024-09-17T09:13:28Z</time>
      </trkpt>
      <trkpt lat="42.45631" lon="2.27725">
        <ele>2068</ele>
        <time>2024-09-17T09:13:31Z</time>
      </trkpt>
      <trkpt lat="42.45631" lon="2.27729">
        <ele>2066</ele>
        <time>2024-09-17T09:13:35Z</time>
      </trkpt>
      <trkpt lat="42.45631" lon="2.27733">
        <ele>2065</ele>
        <time>2024-09-17T09:13:38Z</time>
      </trkpt>
      <trkpt lat="42.45629" lon="2.27736">
        <ele>2064</ele>
        <time>2024-09-17T09:13:44Z</time>
      </trkpt>
      <trkpt lat="42.4563" lon="2.27739">
        <ele>2062</ele>
        <time>2024-09-17T09:13:49Z</time>
      </trkpt>
      <trkpt lat="42.45632" lon="2.27741">
        <ele>2060</ele>
        <time>2024-09-17T09:13:52Z</time>
      </trkpt>
      <trkpt lat="42.45632" lon="2.27745">
        <ele>2060</ele>
        <time>2024-09-17T09:13:55Z</time>
      </trkpt>
      <trkpt lat="42.45633" lon="2.27749">
        <ele>2059</ele>
        <time>2024-09-17T09:13:58Z</time>
      </trkpt>
      <trkpt lat="42.45634" lon="2.27753">
        <ele>2058</ele>
        <time>2024-09-17T09:14:01Z</time>
      </trkpt>
      <trkpt lat="42.45635" lon="2.27757">
        <ele>2057</ele>
        <time>2024-09-17T09:14:05Z</time>
      </trkpt>
      <trkpt lat="42.45636" lon="2.2776">
        <ele>2056</ele>
        <time>2024-09-17T09:14:08Z</time>
      </trkpt>
      <trkpt lat="42.45639" lon="2.27761">
        <ele>2056</ele>
        <time>2024-09-17T09:14:10Z</time>
      </trkpt>
      <trkpt lat="42.45641" lon="2.27761">
        <ele>2055</ele>
        <time>2024-09-17T09:14:13Z</time>
      </trkpt>
      <trkpt lat="42.45644" lon="2.27763">
        <ele>2055</ele>
        <time>2024-09-17T09:14:16Z</time>
      </trkpt>
      <trkpt lat="42.45647" lon="2.27765">
        <ele>2054</ele>
        <time>2024-09-17T09:14:19Z</time>
      </trkpt>
      <trkpt lat="42.4565" lon="2.27767">
        <ele>2054</ele>
        <time>2024-09-17T09:14:22Z</time>
      </trkpt>
      <trkpt lat="42.45653" lon="2.27769">
        <ele>2054</ele>
        <time>2024-09-17T09:14:25Z</time>
      </trkpt>
      <trkpt lat="42.45656" lon="2.27771">
        <ele>2054</ele>
        <time>2024-09-17T09:14:27Z</time>
      </trkpt>
      <trkpt lat="42.45658" lon="2.27772">
        <ele>2054</ele>
        <time>2024-09-17T09:14:30Z</time>
      </trkpt>
      <trkpt lat="42.45662" lon="2.27771">
        <ele>2053</ele>
        <time>2024-09-17T09:14:33Z</time>
      </trkpt>
      <trkpt lat="42.45665" lon="2.27772">
        <ele>2052</ele>
        <time>2024-09-17T09:14:38Z</time>
      </trkpt>
      <trkpt lat="42.45668" lon="2.27773">
        <ele>2052</ele>
        <time>2024-09-17T09:14:42Z</time>
      </trkpt>
      <trkpt lat="42.4567" lon="2.27777">
        <ele>2051</ele>
        <time>2024-09-17T09:14:47Z</time>
      </trkpt>
      <trkpt lat="42.45672" lon="2.2778">
        <ele>2050</ele>
        <time>2024-09-17T09:14:51Z</time>
      </trkpt>
      <trkpt lat="42.45674" lon="2.27783">
        <ele>2048</ele>
        <time>2024-09-17T09:14:56Z</time>
      </trkpt>
      <trkpt lat="42.45676" lon="2.27787">
        <ele>2047</ele>
        <time>2024-09-17T09:14:59Z</time>
      </trkpt>
      <trkpt lat="42.45679" lon="2.27789">
        <ele>2047</ele>
        <time>2024-09-17T09:15:01Z</time>
      </trkpt>
      <trkpt lat="42.45681" lon="2.27792">
        <ele>2046</ele>
        <time>2024-09-17T09:15:05Z</time>
      </trkpt>
      <trkpt lat="42.45684" lon="2.27793">
        <ele>2045</ele>
        <time>2024-09-17T09:15:07Z</time>
      </trkpt>
      <trkpt lat="42.45685" lon="2.27797">
        <ele>2044</ele>
        <time>2024-09-17T09:15:10Z</time>
      </trkpt>
      <trkpt lat="42.45687" lon="2.278">
        <ele>2043</ele>
        <time>2024-09-17T09:15:13Z</time>
      </trkpt>
      <trkpt lat="42.45687" lon="2.27803">
        <ele>2043</ele>
        <time>2024-09-17T09:15:17Z</time>
      </trkpt>
      <trkpt lat="42.45688" lon="2.27807">
        <ele>2041</ele>
        <time>2024-09-17T09:15:20Z</time>
      </trkpt>
      <trkpt lat="42.4569" lon="2.2781">
        <ele>2040</ele>
        <time>2024-09-17T09:15:23Z</time>
      </trkpt>
      <trkpt lat="42.45691" lon="2.27813">
        <ele>2039</ele>
        <time>2024-09-17T09:15:28Z</time>
      </trkpt>
      <trkpt lat="42.45691" lon="2.27817">
        <ele>2039</ele>
        <time>2024-09-17T09:15:31Z</time>
      </trkpt>
      <trkpt lat="42.45691" lon="2.27821">
        <ele>2037</ele>
        <time>2024-09-17T09:15:35Z</time>
      </trkpt>
      <trkpt lat="42.45691" lon="2.27825">
        <ele>2037</ele>
        <time>2024-09-17T09:15:39Z</time>
      </trkpt>
      <trkpt lat="42.45692" lon="2.27829">
        <ele>2037</ele>
        <time>2024-09-17T09:15:49Z</time>
      </trkpt>
      <trkpt lat="42.45693" lon="2.27833">
        <ele>2036</ele>
        <time>2024-09-17T09:15:53Z</time>
      </trkpt>
      <trkpt lat="42.45695" lon="2.27837">
        <ele>2035</ele>
        <time>2024-09-17T09:15:57Z</time>
      </trkpt>
      <trkpt lat="42.45697" lon="2.2784">
        <ele>2034</ele>
        <time>2024-09-17T09:16:02Z</time>
      </trkpt>
      <trkpt lat="42.45697" lon="2.27845">
        <ele>2031</ele>
        <time>2024-09-17T09:16:24Z</time>
      </trkpt>
      <trkpt lat="42.45696" lon="2.27848">
        <ele>2031</ele>
        <time>2024-09-17T09:16:28Z</time>
      </trkpt>
      <trkpt lat="42.45695" lon="2.27852">
        <ele>2030</ele>
        <time>2024-09-17T09:16:32Z</time>
      </trkpt>
      <trkpt lat="42.45695" lon="2.27857">
        <ele>2030</ele>
        <time>2024-09-17T09:16:35Z</time>
      </trkpt>
      <trkpt lat="42.45696" lon="2.2786">
        <ele>2030</ele>
        <time>2024-09-17T09:16:41Z</time>
      </trkpt>
      <trkpt lat="42.45697" lon="2.27864">
        <ele>2029</ele>
        <time>2024-09-17T09:16:45Z</time>
      </trkpt>
      <trkpt lat="42.45699" lon="2.27865">
        <ele>2028</ele>
        <time>2024-09-17T09:16:48Z</time>
      </trkpt>
      <trkpt lat="42.45702" lon="2.27868">
        <ele>2028</ele>
        <time>2024-09-17T09:16:52Z</time>
      </trkpt>
      <trkpt lat="42.45703" lon="2.27872">
        <ele>2026</ele>
        <time>2024-09-17T09:16:57Z</time>
      </trkpt>
      <trkpt lat="42.45705" lon="2.27876">
        <ele>2024</ele>
        <time>2024-09-17T09:17:01Z</time>
      </trkpt>
      <trkpt lat="42.45708" lon="2.27878">
        <ele>2024</ele>
        <time>2024-09-17T09:17:04Z</time>
      </trkpt>
      <trkpt lat="42.4571" lon="2.2788">
        <ele>2023</ele>
        <time>2024-09-17T09:17:07Z</time>
      </trkpt>
      <trkpt lat="42.45711" lon="2.27884">
        <ele>2022</ele>
        <time>2024-09-17T09:17:10Z</time>
      </trkpt>
      <trkpt lat="42.45713" lon="2.27887">
        <ele>2021</ele>
        <time>2024-09-17T09:17:13Z</time>
      </trkpt>
      <trkpt lat="42.45716" lon="2.27889">
        <ele>2021</ele>
        <time>2024-09-17T09:17:16Z</time>
      </trkpt>
      <trkpt lat="42.45718" lon="2.27892">
        <ele>2020</ele>
        <time>2024-09-17T09:17:20Z</time>
      </trkpt>
      <trkpt lat="42.45718" lon="2.27896">
        <ele>2019</ele>
        <time>2024-09-17T09:17:25Z</time>
      </trkpt>
      <trkpt lat="42.45717" lon="2.279">
        <ele>2018</ele>
        <time>2024-09-17T09:17:28Z</time>
      </trkpt>
      <trkpt lat="42.45717" lon="2.27903">
        <ele>2017</ele>
        <time>2024-09-17T09:17:31Z</time>
      </trkpt>
      <trkpt lat="42.45718" lon="2.27907">
        <ele>2015</ele>
        <time>2024-09-17T09:17:35Z</time>
      </trkpt>
      <trkpt lat="42.4572" lon="2.2791">
        <ele>2014</ele>
        <time>2024-09-17T09:17:39Z</time>
      </trkpt>
      <trkpt lat="42.45721" lon="2.27914">
        <ele>2013</ele>
        <time>2024-09-17T09:17:42Z</time>
      </trkpt>
      <trkpt lat="42.45721" lon="2.27918">
        <ele>2013</ele>
        <time>2024-09-17T09:17:45Z</time>
      </trkpt>
      <trkpt lat="42.45722" lon="2.27922">
        <ele>2012</ele>
        <time>2024-09-17T09:17:48Z</time>
      </trkpt>
      <trkpt lat="42.45724" lon="2.27925">
        <ele>2012</ele>
        <time>2024-09-17T09:17:51Z</time>
      </trkpt>
      <trkpt lat="42.45726" lon="2.27928">
        <ele>2011</ele>
        <time>2024-09-17T09:17:54Z</time>
      </trkpt>
      <trkpt lat="42.45727" lon="2.27932">
        <ele>2011</ele>
        <time>2024-09-17T09:17:57Z</time>
      </trkpt>
      <trkpt lat="42.45728" lon="2.27936">
        <ele>2010</ele>
        <time>2024-09-17T09:18:00Z</time>
      </trkpt>
      <trkpt lat="42.45728" lon="2.2794">
        <ele>2009</ele>
        <time>2024-09-17T09:18:02Z</time>
      </trkpt>
      <trkpt lat="42.45729" lon="2.27944">
        <ele>2008</ele>
        <time>2024-09-17T09:18:05Z</time>
      </trkpt>
      <trkpt lat="42.4573" lon="2.27948">
        <ele>2008</ele>
        <time>2024-09-17T09:18:08Z</time>
      </trkpt>
      <trkpt lat="42.45731" lon="2.27952">
        <ele>2007</ele>
        <time>2024-09-17T09:18:13Z</time>
      </trkpt>
      <trkpt lat="42.45733" lon="2.27955">
        <ele>2008</ele>
        <time>2024-09-17T09:18:35Z</time>
      </trkpt>
      <trkpt lat="42.45734" lon="2.27959">
        <ele>2006</ele>
        <time>2024-09-17T09:19:09Z</time>
      </trkpt>
      <trkpt lat="42.45735" lon="2.27962">
        <ele>2006</ele>
        <time>2024-09-17T09:19:12Z</time>
      </trkpt>
      <trkpt lat="42.45737" lon="2.27964">
        <ele>2005</ele>
        <time>2024-09-17T09:19:14Z</time>
      </trkpt>
      <trkpt lat="42.45739" lon="2.27967">
        <ele>2004</ele>
        <time>2024-09-17T09:19:17Z</time>
      </trkpt>
      <trkpt lat="42.45741" lon="2.2797">
        <ele>2003</ele>
        <time>2024-09-17T09:19:20Z</time>
      </trkpt>
      <trkpt lat="42.45743" lon="2.27974">
        <ele>2003</ele>
        <time>2024-09-17T09:19:22Z</time>
      </trkpt>
      <trkpt lat="42.45745" lon="2.27978">
        <ele>2001</ele>
        <time>2024-09-17T09:19:25Z</time>
      </trkpt>
      <trkpt lat="42.45748" lon="2.27981">
        <ele>2001</ele>
        <time>2024-09-17T09:19:28Z</time>
      </trkpt>
      <trkpt lat="42.4575" lon="2.27985">
        <ele>2000</ele>
        <time>2024-09-17T09:19:30Z</time>
      </trkpt>
      <trkpt lat="42.45751" lon="2.27988">
        <ele>2000</ele>
        <time>2024-09-17T09:19:32Z</time>
      </trkpt>
      <trkpt lat="42.45753" lon="2.27993">
        <ele>1999</ele>
        <time>2024-09-17T09:19:35Z</time>
      </trkpt>
      <trkpt lat="42.45755" lon="2.27996">
        <ele>1999</ele>
        <time>2024-09-17T09:19:38Z</time>
      </trkpt>
      <trkpt lat="42.45757" lon="2.28">
        <ele>1999</ele>
        <time>2024-09-17T09:19:41Z</time>
      </trkpt>
      <trkpt lat="42.4576" lon="2.28003">
        <ele>1998</ele>
        <time>2024-09-17T09:19:44Z</time>
      </trkpt>
      <trkpt lat="42.45762" lon="2.28005">
        <ele>1997</ele>
        <time>2024-09-17T09:19:46Z</time>
      </trkpt>
      <trkpt lat="42.45765" lon="2.28007">
        <ele>1996</ele>
        <time>2024-09-17T09:19:49Z</time>
      </trkpt>
      <trkpt lat="42.45767" lon="2.2801">
        <ele>1994</ele>
        <time>2024-09-17T09:19:53Z</time>
      </trkpt>
      <trkpt lat="42.45767" lon="2.28014">
        <ele>1992</ele>
        <time>2024-09-17T09:19:57Z</time>
      </trkpt>
      <trkpt lat="42.45767" lon="2.28019">
        <ele>1991</ele>
        <time>2024-09-17T09:20:00Z</time>
      </trkpt>
      <trkpt lat="42.45768" lon="2.28023">
        <ele>1990</ele>
        <time>2024-09-17T09:20:04Z</time>
      </trkpt>
      <trkpt lat="42.45769" lon="2.28026">
        <ele>1991</ele>
        <time>2024-09-17T09:20:18Z</time>
      </trkpt>
      <trkpt lat="42.45771" lon="2.2803">
        <ele>1989</ele>
        <time>2024-09-17T09:20:21Z</time>
      </trkpt>
      <trkpt lat="42.45772" lon="2.28034">
        <ele>1989</ele>
        <time>2024-09-17T09:20:24Z</time>
      </trkpt>
      <trkpt lat="42.45772" lon="2.28039">
        <ele>1988</ele>
        <time>2024-09-17T09:20:27Z</time>
      </trkpt>
      <trkpt lat="42.45771" lon="2.28043">
        <ele>1988</ele>
        <time>2024-09-17T09:20:30Z</time>
      </trkpt>
      <trkpt lat="42.4577" lon="2.28046">
        <ele>1988</ele>
        <time>2024-09-17T09:20:32Z</time>
      </trkpt>
      <trkpt lat="42.4577" lon="2.2805">
        <ele>1987</ele>
        <time>2024-09-17T09:20:34Z</time>
      </trkpt>
      <trkpt lat="42.45771" lon="2.28053">
        <ele>1987</ele>
        <time>2024-09-17T09:20:36Z</time>
      </trkpt>
      <trkpt lat="42.45773" lon="2.28057">
        <ele>1985</ele>
        <time>2024-09-17T09:20:40Z</time>
      </trkpt>
      <trkpt lat="42.45774" lon="2.28061">
        <ele>1985</ele>
        <time>2024-09-17T09:20:42Z</time>
      </trkpt>
      <trkpt lat="42.45774" lon="2.28066">
        <ele>1984</ele>
        <time>2024-09-17T09:20:44Z</time>
      </trkpt>
      <trkpt lat="42.45775" lon="2.2807">
        <ele>1984</ele>
        <time>2024-09-17T09:20:46Z</time>
      </trkpt>
      <trkpt lat="42.45776" lon="2.28073">
        <ele>1984</ele>
        <time>2024-09-17T09:20:48Z</time>
      </trkpt>
      <trkpt lat="42.45779" lon="2.28076">
        <ele>1983</ele>
        <time>2024-09-17T09:20:51Z</time>
      </trkpt>
      <trkpt lat="42.45781" lon="2.2808">
        <ele>1982</ele>
        <time>2024-09-17T09:20:55Z</time>
      </trkpt>
      <trkpt lat="42.45782" lon="2.28085">
        <ele>1981</ele>
        <time>2024-09-17T09:20:58Z</time>
      </trkpt>
      <trkpt lat="42.45782" lon="2.28089">
        <ele>1980</ele>
        <time>2024-09-17T09:21:01Z</time>
      </trkpt>
      <trkpt lat="42.45784" lon="2.28093">
        <ele>1979</ele>
        <time>2024-09-17T09:21:04Z</time>
      </trkpt>
      <trkpt lat="42.45784" lon="2.28097">
        <ele>1979</ele>
        <time>2024-09-17T09:21:12Z</time>
      </trkpt>
      <trkpt lat="42.45784" lon="2.28101">
        <ele>1978</ele>
        <time>2024-09-17T09:21:15Z</time>
      </trkpt>
      <trkpt lat="42.45787" lon="2.28103">
        <ele>1978</ele>
        <time>2024-09-17T09:21:20Z</time>
      </trkpt>
      <trkpt lat="42.4579" lon="2.28105">
        <ele>1977</ele>
        <time>2024-09-17T09:21:24Z</time>
      </trkpt>
      <trkpt lat="42.45791" lon="2.28108">
        <ele>1976</ele>
        <time>2024-09-17T09:21:26Z</time>
      </trkpt>
      <trkpt lat="42.45791" lon="2.28113">
        <ele>1975</ele>
        <time>2024-09-17T09:21:29Z</time>
      </trkpt>
      <trkpt lat="42.45793" lon="2.28117">
        <ele>1975</ele>
        <time>2024-09-17T09:21:32Z</time>
      </trkpt>
      <trkpt lat="42.45795" lon="2.2812">
        <ele>1973</ele>
        <time>2024-09-17T09:21:35Z</time>
      </trkpt>
      <trkpt lat="42.45796" lon="2.28124">
        <ele>1973</ele>
        <time>2024-09-17T09:21:37Z</time>
      </trkpt>
      <trkpt lat="42.45797" lon="2.28127">
        <ele>1973</ele>
        <time>2024-09-17T09:21:39Z</time>
      </trkpt>
      <trkpt lat="42.45798" lon="2.28131">
        <ele>1972</ele>
        <time>2024-09-17T09:21:42Z</time>
      </trkpt>
      <trkpt lat="42.45799" lon="2.28134">
        <ele>1972</ele>
        <time>2024-09-17T09:21:44Z</time>
      </trkpt>
      <trkpt lat="42.458" lon="2.28138">
        <ele>1971</ele>
        <time>2024-09-17T09:21:47Z</time>
      </trkpt>
      <trkpt lat="42.458" lon="2.28142">
        <ele>1971</ele>
        <time>2024-09-17T09:21:59Z</time>
      </trkpt>
      <trkpt lat="42.45802" lon="2.28144">
        <ele>1970</ele>
        <time>2024-09-17T09:22:08Z</time>
      </trkpt>
      <trkpt lat="42.45805" lon="2.28147">
        <ele>1970</ele>
        <time>2024-09-17T09:22:11Z</time>
      </trkpt>
      <trkpt lat="42.45808" lon="2.28149">
        <ele>1969</ele>
        <time>2024-09-17T09:22:14Z</time>
      </trkpt>
      <trkpt lat="42.45811" lon="2.2815">
        <ele>1970</ele>
        <time>2024-09-17T09:22:16Z</time>
      </trkpt>
      <trkpt lat="42.45814" lon="2.28152">
        <ele>1969</ele>
        <time>2024-09-17T09:22:19Z</time>
      </trkpt>
      <trkpt lat="42.45817" lon="2.28154">
        <ele>1969</ele>
        <time>2024-09-17T09:22:22Z</time>
      </trkpt>
      <trkpt lat="42.4582" lon="2.28157">
        <ele>1969</ele>
        <time>2024-09-17T09:22:25Z</time>
      </trkpt>
      <trkpt lat="42.45822" lon="2.28159">
        <ele>1969</ele>
        <time>2024-09-17T09:22:28Z</time>
      </trkpt>
      <trkpt lat="42.45824" lon="2.28164">
        <ele>1969</ele>
        <time>2024-09-17T09:22:31Z</time>
      </trkpt>
      <trkpt lat="42.45825" lon="2.28168">
        <ele>1969</ele>
        <time>2024-09-17T09:22:34Z</time>
      </trkpt>
      <trkpt lat="42.45825" lon="2.28173">
        <ele>1969</ele>
        <time>2024-09-17T09:22:37Z</time>
      </trkpt>
      <trkpt lat="42.45826" lon="2.28178">
        <ele>1968</ele>
        <time>2024-09-17T09:22:40Z</time>
      </trkpt>
      <trkpt lat="42.45827" lon="2.28182">
        <ele>1968</ele>
        <time>2024-09-17T09:22:42Z</time>
      </trkpt>
      <trkpt lat="42.45828" lon="2.28186">
        <ele>1968</ele>
        <time>2024-09-17T09:22:44Z</time>
      </trkpt>
      <trkpt lat="42.4583" lon="2.2819">
        <ele>1968</ele>
        <time>2024-09-17T09:22:47Z</time>
      </trkpt>
      <trkpt lat="42.45832" lon="2.28194">
        <ele>1969</ele>
        <time>2024-09-17T09:22:50Z</time>
      </trkpt>
      <trkpt lat="42.45835" lon="2.28198">
        <ele>1967</ele>
        <time>2024-09-17T09:22:53Z</time>
      </trkpt>
      <trkpt lat="42.45837" lon="2.28201">
        <ele>1966</ele>
        <time>2024-09-17T09:22:56Z</time>
      </trkpt>
      <trkpt lat="42.45837" lon="2.28205">
        <ele>1966</ele>
        <time>2024-09-17T09:22:59Z</time>
      </trkpt>
      <trkpt lat="42.45835" lon="2.28208">
        <ele>1965</ele>
        <time>2024-09-17T09:23:03Z</time>
      </trkpt>
      <trkpt lat="42.45833" lon="2.2821">
        <ele>1964</ele>
        <time>2024-09-17T09:23:21Z</time>
      </trkpt>
      <trkpt lat="42.45833" lon="2.28213">
        <ele>1962</ele>
        <time>2024-09-17T09:24:56Z</time>
      </trkpt>
      <trkpt lat="42.45835" lon="2.28217">
        <ele>1961</ele>
        <time>2024-09-17T09:24:59Z</time>
      </trkpt>
      <trkpt lat="42.45837" lon="2.2822">
        <ele>1959</ele>
        <time>2024-09-17T09:25:02Z</time>
      </trkpt>
      <trkpt lat="42.45839" lon="2.28224">
        <ele>1959</ele>
        <time>2024-09-17T09:25:05Z</time>
      </trkpt>
      <trkpt lat="42.45839" lon="2.28228">
        <ele>1958</ele>
        <time>2024-09-17T09:25:09Z</time>
      </trkpt>
      <trkpt lat="42.4584" lon="2.28232">
        <ele>1957</ele>
        <time>2024-09-17T09:25:13Z</time>
      </trkpt>
      <trkpt lat="42.45842" lon="2.28235">
        <ele>1957</ele>
        <time>2024-09-17T09:25:16Z</time>
      </trkpt>
      <trkpt lat="42.45844" lon="2.28238">
        <ele>1957</ele>
        <time>2024-09-17T09:25:19Z</time>
      </trkpt>
      <trkpt lat="42.45845" lon="2.28242">
        <ele>1956</ele>
        <time>2024-09-17T09:25:22Z</time>
      </trkpt>
      <trkpt lat="42.45848" lon="2.28244">
        <ele>1956</ele>
        <time>2024-09-17T09:25:26Z</time>
      </trkpt>
      <trkpt lat="42.45851" lon="2.28247">
        <ele>1955</ele>
        <time>2024-09-17T09:25:29Z</time>
      </trkpt>
      <trkpt lat="42.45853" lon="2.28249">
        <ele>1955</ele>
        <time>2024-09-17T09:25:32Z</time>
      </trkpt>
      <trkpt lat="42.45855" lon="2.28253">
        <ele>1955</ele>
        <time>2024-09-17T09:25:35Z</time>
      </trkpt>
      <trkpt lat="42.45856" lon="2.28256">
        <ele>1954</ele>
        <time>2024-09-17T09:25:39Z</time>
      </trkpt>
      <trkpt lat="42.45859" lon="2.28259">
        <ele>1954</ele>
        <time>2024-09-17T09:25:42Z</time>
      </trkpt>
      <trkpt lat="42.45861" lon="2.28262">
        <ele>1952</ele>
        <time>2024-09-17T09:25:45Z</time>
      </trkpt>
      <trkpt lat="42.45864" lon="2.28264">
        <ele>1952</ele>
        <time>2024-09-17T09:25:46Z</time>
      </trkpt>
      <trkpt lat="42.45865" lon="2.28268">
        <ele>1951</ele>
        <time>2024-09-17T09:25:51Z</time>
      </trkpt>
      <trkpt lat="42.45866" lon="2.28273">
        <ele>1951</ele>
        <time>2024-09-17T09:25:54Z</time>
      </trkpt>
      <trkpt lat="42.45867" lon="2.28277">
        <ele>1951</ele>
        <time>2024-09-17T09:25:58Z</time>
      </trkpt>
      <trkpt lat="42.45868" lon="2.28281">
        <ele>1951</ele>
        <time>2024-09-17T09:26:01Z</time>
      </trkpt>
      <trkpt lat="42.45871" lon="2.28285">
        <ele>1950</ele>
        <time>2024-09-17T09:26:04Z</time>
      </trkpt>
      <trkpt lat="42.45874" lon="2.28287">
        <ele>1949</ele>
        <time>2024-09-17T09:26:08Z</time>
      </trkpt>
      <trkpt lat="42.45876" lon="2.28291">
        <ele>1949</ele>
        <time>2024-09-17T09:26:11Z</time>
      </trkpt>
      <trkpt lat="42.45878" lon="2.28295">
        <ele>1949</ele>
        <time>2024-09-17T09:26:14Z</time>
      </trkpt>
      <trkpt lat="42.45879" lon="2.283">
        <ele>1949</ele>
        <time>2024-09-17T09:26:18Z</time>
      </trkpt>
      <trkpt lat="42.45881" lon="2.28304">
        <ele>1948</ele>
        <time>2024-09-17T09:26:21Z</time>
      </trkpt>
      <trkpt lat="42.45883" lon="2.28308">
        <ele>1947</ele>
        <time>2024-09-17T09:26:24Z</time>
      </trkpt>
      <trkpt lat="42.45884" lon="2.28312">
        <ele>1946</ele>
        <time>2024-09-17T09:26:27Z</time>
      </trkpt>
      <trkpt lat="42.45885" lon="2.28315">
        <ele>1946</ele>
        <time>2024-09-17T09:26:31Z</time>
      </trkpt>
      <trkpt lat="42.45886" lon="2.2832">
        <ele>1945</ele>
        <time>2024-09-17T09:26:34Z</time>
      </trkpt>
      <trkpt lat="42.45886" lon="2.28324">
        <ele>1946</ele>
        <time>2024-09-17T09:26:37Z</time>
      </trkpt>
      <trkpt lat="42.45887" lon="2.28327">
        <ele>1944</ele>
        <time>2024-09-17T09:26:40Z</time>
      </trkpt>
      <trkpt lat="42.45889" lon="2.28331">
        <ele>1943</ele>
        <time>2024-09-17T09:26:45Z</time>
      </trkpt>
      <trkpt lat="42.4589" lon="2.28334">
        <ele>1943</ele>
        <time>2024-09-17T09:26:47Z</time>
      </trkpt>
      <trkpt lat="42.45892" lon="2.28338">
        <ele>1942</ele>
        <time>2024-09-17T09:26:50Z</time>
      </trkpt>
      <trkpt lat="42.45892" lon="2.28343">
        <ele>1942</ele>
        <time>2024-09-17T09:26:53Z</time>
      </trkpt>
      <trkpt lat="42.45894" lon="2.28346">
        <ele>1941</ele>
        <time>2024-09-17T09:26:56Z</time>
      </trkpt>
      <trkpt lat="42.45897" lon="2.28349">
        <ele>1941</ele>
        <time>2024-09-17T09:26:58Z</time>
      </trkpt>
      <trkpt lat="42.459" lon="2.28351">
        <ele>1940</ele>
        <time>2024-09-17T09:27:02Z</time>
      </trkpt>
      <trkpt lat="42.45901" lon="2.28354">
        <ele>1940</ele>
        <time>2024-09-17T09:27:04Z</time>
      </trkpt>
      <trkpt lat="42.45903" lon="2.28358">
        <ele>1940</ele>
        <time>2024-09-17T09:27:07Z</time>
      </trkpt>
      <trkpt lat="42.45906" lon="2.28359">
        <ele>1939</ele>
        <time>2024-09-17T09:27:11Z</time>
      </trkpt>
      <trkpt lat="42.45909" lon="2.28361">
        <ele>1939</ele>
        <time>2024-09-17T09:27:38Z</time>
      </trkpt>
      <trkpt lat="42.45912" lon="2.28363">
        <ele>1938</ele>
        <time>2024-09-17T09:27:41Z</time>
      </trkpt>
      <trkpt lat="42.45914" lon="2.28366">
        <ele>1937</ele>
        <time>2024-09-17T09:27:44Z</time>
      </trkpt>
      <trkpt lat="42.45915" lon="2.28369">
        <ele>1936</ele>
        <time>2024-09-17T09:27:46Z</time>
      </trkpt>
      <trkpt lat="42.45916" lon="2.28373">
        <ele>1936</ele>
        <time>2024-09-17T09:27:49Z</time>
      </trkpt>
      <trkpt lat="42.45918" lon="2.28377">
        <ele>1937</ele>
        <time>2024-09-17T09:27:52Z</time>
      </trkpt>
      <trkpt lat="42.4592" lon="2.28379">
        <ele>1936</ele>
        <time>2024-09-17T09:27:55Z</time>
      </trkpt>
      <trkpt lat="42.45921" lon="2.28383">
        <ele>1936</ele>
        <time>2024-09-17T09:27:58Z</time>
      </trkpt>
      <trkpt lat="42.45922" lon="2.28387">
        <ele>1934</ele>
        <time>2024-09-17T09:28:01Z</time>
      </trkpt>
      <trkpt lat="42.45924" lon="2.28391">
        <ele>1934</ele>
        <time>2024-09-17T09:28:05Z</time>
      </trkpt>
      <trkpt lat="42.45926" lon="2.28396">
        <ele>1934</ele>
        <time>2024-09-17T09:28:08Z</time>
      </trkpt>
      <trkpt lat="42.45928" lon="2.284">
        <ele>1934</ele>
        <time>2024-09-17T09:28:12Z</time>
      </trkpt>
      <trkpt lat="42.4593" lon="2.28404">
        <ele>1932</ele>
        <time>2024-09-17T09:28:17Z</time>
      </trkpt>
      <trkpt lat="42.4593" lon="2.28408">
        <ele>1932</ele>
        <time>2024-09-17T09:28:19Z</time>
      </trkpt>
      <trkpt lat="42.45933" lon="2.28412">
        <ele>1931</ele>
        <time>2024-09-17T09:28:23Z</time>
      </trkpt>
      <trkpt lat="42.45935" lon="2.28415">
        <ele>1931</ele>
        <time>2024-09-17T09:28:25Z</time>
      </trkpt>
      <trkpt lat="42.45937" lon="2.28418">
        <ele>1930</ele>
        <time>2024-09-17T09:28:29Z</time>
      </trkpt>
      <trkpt lat="42.45939" lon="2.28422">
        <ele>1929</ele>
        <time>2024-09-17T09:28:33Z</time>
      </trkpt>
      <trkpt lat="42.4594" lon="2.28427">
        <ele>1929</ele>
        <time>2024-09-17T09:28:36Z</time>
      </trkpt>
      <trkpt lat="42.45942" lon="2.2843">
        <ele>1928</ele>
        <time>2024-09-17T09:28:39Z</time>
      </trkpt>
      <trkpt lat="42.45945" lon="2.28431">
        <ele>1927</ele>
        <time>2024-09-17T09:28:43Z</time>
      </trkpt>
      <trkpt lat="42.45948" lon="2.28434">
        <ele>1928</ele>
        <time>2024-09-17T09:28:45Z</time>
      </trkpt>
      <trkpt lat="42.45949" lon="2.28438">
        <ele>1926</ele>
        <time>2024-09-17T09:28:51Z</time>
      </trkpt>
      <trkpt lat="42.45951" lon="2.2844">
        <ele>1926</ele>
        <time>2024-09-17T09:28:54Z</time>
      </trkpt>
      <trkpt lat="42.45953" lon="2.28443">
        <ele>1925</ele>
        <time>2024-09-17T09:28:58Z</time>
      </trkpt>
      <trkpt lat="42.45954" lon="2.28447">
        <ele>1924</ele>
        <time>2024-09-17T09:29:01Z</time>
      </trkpt>
      <trkpt lat="42.45956" lon="2.28449">
        <ele>1925</ele>
        <time>2024-09-17T09:29:03Z</time>
      </trkpt>
      <trkpt lat="42.45959" lon="2.28453">
        <ele>1924</ele>
        <time>2024-09-17T09:29:07Z</time>
      </trkpt>
      <trkpt lat="42.45962" lon="2.28456">
        <ele>1923</ele>
        <time>2024-09-17T09:29:11Z</time>
      </trkpt>
      <trkpt lat="42.45964" lon="2.28459">
        <ele>1924</ele>
        <time>2024-09-17T09:29:14Z</time>
      </trkpt>
      <trkpt lat="42.45968" lon="2.28461">
        <ele>1923</ele>
        <time>2024-09-17T09:29:19Z</time>
      </trkpt>
      <trkpt lat="42.4597" lon="2.28464">
        <ele>1922</ele>
        <time>2024-09-17T09:29:22Z</time>
      </trkpt>
      <trkpt lat="42.4597" lon="2.28468">
        <ele>1922</ele>
        <time>2024-09-17T09:29:26Z</time>
      </trkpt>
      <trkpt lat="42.45972" lon="2.28471">
        <ele>1921</ele>
        <time>2024-09-17T09:29:29Z</time>
      </trkpt>
      <trkpt lat="42.45973" lon="2.28475">
        <ele>1921</ele>
        <time>2024-09-17T09:29:33Z</time>
      </trkpt>
      <trkpt lat="42.45974" lon="2.28479">
        <ele>1920</ele>
        <time>2024-09-17T09:29:36Z</time>
      </trkpt>
      <trkpt lat="42.45976" lon="2.28483">
        <ele>1920</ele>
        <time>2024-09-17T09:29:38Z</time>
      </trkpt>
      <trkpt lat="42.45978" lon="2.28485">
        <ele>1920</ele>
        <time>2024-09-17T09:29:41Z</time>
      </trkpt>
      <trkpt lat="42.4598" lon="2.28488">
        <ele>1919</ele>
        <time>2024-09-17T09:29:44Z</time>
      </trkpt>
      <trkpt lat="42.45982" lon="2.28492">
        <ele>1918</ele>
        <time>2024-09-17T09:29:49Z</time>
      </trkpt>
      <trkpt lat="42.45982" lon="2.28497">
        <ele>1917</ele>
        <time>2024-09-17T09:29:53Z</time>
      </trkpt>
      <trkpt lat="42.45981" lon="2.285">
        <ele>1917</ele>
        <time>2024-09-17T09:29:55Z</time>
      </trkpt>
      <trkpt lat="42.45983" lon="2.28504">
        <ele>1917</ele>
        <time>2024-09-17T09:30:00Z</time>
      </trkpt>
      <trkpt lat="42.45985" lon="2.28507">
        <ele>1916</ele>
        <time>2024-09-17T09:30:03Z</time>
      </trkpt>
      <trkpt lat="42.45987" lon="2.28509">
        <ele>1916</ele>
        <time>2024-09-17T09:30:06Z</time>
      </trkpt>
      <trkpt lat="42.45989" lon="2.28511">
        <ele>1915</ele>
        <time>2024-09-17T09:30:09Z</time>
      </trkpt>
      <trkpt lat="42.45992" lon="2.28514">
        <ele>1914</ele>
        <time>2024-09-17T09:30:13Z</time>
      </trkpt>
      <trkpt lat="42.45993" lon="2.28517">
        <ele>1914</ele>
        <time>2024-09-17T09:30:16Z</time>
      </trkpt>
      <trkpt lat="42.45994" lon="2.28521">
        <ele>1914</ele>
        <time>2024-09-17T09:30:20Z</time>
      </trkpt>
      <trkpt lat="42.45997" lon="2.28524">
        <ele>1914</ele>
        <time>2024-09-17T09:30:24Z</time>
      </trkpt>
      <trkpt lat="42.46" lon="2.28526">
        <ele>1912</ele>
        <time>2024-09-17T09:30:29Z</time>
      </trkpt>
      <trkpt lat="42.46001" lon="2.28529">
        <ele>1912</ele>
        <time>2024-09-17T09:30:32Z</time>
      </trkpt>
      <trkpt lat="42.46002" lon="2.28533">
        <ele>1911</ele>
        <time>2024-09-17T09:30:36Z</time>
      </trkpt>
      <trkpt lat="42.46004" lon="2.28536">
        <ele>1911</ele>
        <time>2024-09-17T09:30:39Z</time>
      </trkpt>
      <trkpt lat="42.46006" lon="2.28539">
        <ele>1910</ele>
        <time>2024-09-17T09:30:43Z</time>
      </trkpt>
      <trkpt lat="42.46009" lon="2.28541">
        <ele>1908</ele>
        <time>2024-09-17T09:30:48Z</time>
      </trkpt>
      <trkpt lat="42.46011" lon="2.28544">
        <ele>1907</ele>
        <time>2024-09-17T09:30:52Z</time>
      </trkpt>
      <trkpt lat="42.46013" lon="2.28548">
        <ele>1907</ele>
        <time>2024-09-17T09:30:56Z</time>
      </trkpt>
      <trkpt lat="42.46016" lon="2.2855">
        <ele>1906</ele>
        <time>2024-09-17T09:30:59Z</time>
      </trkpt>
      <trkpt lat="42.46018" lon="2.28553">
        <ele>1906</ele>
        <time>2024-09-17T09:31:02Z</time>
      </trkpt>
      <trkpt lat="42.4602" lon="2.28556">
        <ele>1905</ele>
        <time>2024-09-17T09:31:05Z</time>
      </trkpt>
      <trkpt lat="42.46023" lon="2.28555">
        <ele>1905</ele>
        <time>2024-09-17T09:31:09Z</time>
      </trkpt>
      <trkpt lat="42.46025" lon="2.28554">
        <ele>1904</ele>
        <time>2024-09-17T09:31:12Z</time>
      </trkpt>
      <trkpt lat="42.46028" lon="2.28554">
        <ele>1904</ele>
        <time>2024-09-17T09:31:15Z</time>
      </trkpt>
      <trkpt lat="42.46031" lon="2.28554">
        <ele>1903</ele>
        <time>2024-09-17T09:31:18Z</time>
      </trkpt>
      <trkpt lat="42.46033" lon="2.28551">
        <ele>1902</ele>
        <time>2024-09-17T09:31:21Z</time>
      </trkpt>
      <trkpt lat="42.46035" lon="2.28548">
        <ele>1902</ele>
        <time>2024-09-17T09:31:25Z</time>
      </trkpt>
      <trkpt lat="42.46038" lon="2.28547">
        <ele>1902</ele>
        <time>2024-09-17T09:31:29Z</time>
      </trkpt>
      <trkpt lat="42.4604" lon="2.28548">
        <ele>1901</ele>
        <time>2024-09-17T09:31:33Z</time>
      </trkpt>
      <trkpt lat="42.46043" lon="2.28551">
        <ele>1900</ele>
        <time>2024-09-17T09:31:36Z</time>
      </trkpt>
      <trkpt lat="42.46046" lon="2.28553">
        <ele>1900</ele>
        <time>2024-09-17T09:31:40Z</time>
      </trkpt>
      <trkpt lat="42.46049" lon="2.28555">
        <ele>1899</ele>
        <time>2024-09-17T09:31:44Z</time>
      </trkpt>
      <trkpt lat="42.46053" lon="2.28556">
        <ele>1898</ele>
        <time>2024-09-17T09:31:47Z</time>
      </trkpt>
      <trkpt lat="42.46056" lon="2.28558">
        <ele>1898</ele>
        <time>2024-09-17T09:31:50Z</time>
      </trkpt>
      <trkpt lat="42.46059" lon="2.28556">
        <ele>1896</ele>
        <time>2024-09-17T09:32:19Z</time>
      </trkpt>
      <trkpt lat="42.46062" lon="2.28556">
        <ele>1896</ele>
        <time>2024-09-17T09:32:21Z</time>
      </trkpt>
      <trkpt lat="42.46065" lon="2.28557">
        <ele>1895</ele>
        <time>2024-09-17T09:32:25Z</time>
      </trkpt>
      <trkpt lat="42.46068" lon="2.2856">
        <ele>1895</ele>
        <time>2024-09-17T09:32:28Z</time>
      </trkpt>
      <trkpt lat="42.46071" lon="2.28562">
        <ele>1896</ele>
        <time>2024-09-17T09:32:31Z</time>
      </trkpt>
      <trkpt lat="42.46073" lon="2.28565">
        <ele>1895</ele>
        <time>2024-09-17T09:32:34Z</time>
      </trkpt>
      <trkpt lat="42.46076" lon="2.28568">
        <ele>1894</ele>
        <time>2024-09-17T09:32:37Z</time>
      </trkpt>
      <trkpt lat="42.46079" lon="2.28571">
        <ele>1895</ele>
        <time>2024-09-17T09:32:40Z</time>
      </trkpt>
      <trkpt lat="42.46082" lon="2.28573">
        <ele>1893</ele>
        <time>2024-09-17T09:32:43Z</time>
      </trkpt>
      <trkpt lat="42.46085" lon="2.28576">
        <ele>1892</ele>
        <time>2024-09-17T09:32:45Z</time>
      </trkpt>
      <trkpt lat="42.46087" lon="2.28579">
        <ele>1892</ele>
        <time>2024-09-17T09:32:48Z</time>
      </trkpt>
      <trkpt lat="42.46089" lon="2.28584">
        <ele>1892</ele>
        <time>2024-09-17T09:32:51Z</time>
      </trkpt>
      <trkpt lat="42.46091" lon="2.28588">
        <ele>1891</ele>
        <time>2024-09-17T09:32:54Z</time>
      </trkpt>
      <trkpt lat="42.46093" lon="2.28591">
        <ele>1891</ele>
        <time>2024-09-17T09:32:56Z</time>
      </trkpt>
      <trkpt lat="42.46095" lon="2.28593">
        <ele>1891</ele>
        <time>2024-09-17T09:32:58Z</time>
      </trkpt>
      <trkpt lat="42.46098" lon="2.28596">
        <ele>1890</ele>
        <time>2024-09-17T09:33:01Z</time>
      </trkpt>
      <trkpt lat="42.46101" lon="2.286">
        <ele>1890</ele>
        <time>2024-09-17T09:33:04Z</time>
      </trkpt>
      <trkpt lat="42.46103" lon="2.28603">
        <ele>1890</ele>
        <time>2024-09-17T09:33:06Z</time>
      </trkpt>
      <trkpt lat="42.46107" lon="2.28605">
        <ele>1888</ele>
        <time>2024-09-17T09:33:09Z</time>
      </trkpt>
      <trkpt lat="42.4611" lon="2.28606">
        <ele>1888</ele>
        <time>2024-09-17T09:33:11Z</time>
      </trkpt>
      <trkpt lat="42.46113" lon="2.28607">
        <ele>1887</ele>
        <time>2024-09-17T09:33:14Z</time>
      </trkpt>
      <trkpt lat="42.46116" lon="2.28609">
        <ele>1886</ele>
        <time>2024-09-17T09:33:17Z</time>
      </trkpt>
      <trkpt lat="42.46119" lon="2.28609">
        <ele>1885</ele>
        <time>2024-09-17T09:33:19Z</time>
      </trkpt>
      <trkpt lat="42.46122" lon="2.28611">
        <ele>1885</ele>
        <time>2024-09-17T09:33:21Z</time>
      </trkpt>
      <trkpt lat="42.46124" lon="2.28613">
        <ele>1885</ele>
        <time>2024-09-17T09:33:23Z</time>
      </trkpt>
      <trkpt lat="42.46127" lon="2.28614">
        <ele>1885</ele>
        <time>2024-09-17T09:33:25Z</time>
      </trkpt>
      <trkpt lat="42.46129" lon="2.28613">
        <ele>1884</ele>
        <time>2024-09-17T09:33:28Z</time>
      </trkpt>
      <trkpt lat="42.46132" lon="2.28614">
        <ele>1883</ele>
        <time>2024-09-17T09:33:31Z</time>
      </trkpt>
      <trkpt lat="42.46134" lon="2.28617">
        <ele>1881</ele>
        <time>2024-09-17T09:33:37Z</time>
      </trkpt>
      <trkpt lat="42.46136" lon="2.28619">
        <ele>1881</ele>
        <time>2024-09-17T09:33:41Z</time>
      </trkpt>
      <trkpt lat="42.46139" lon="2.28619">
        <ele>1881</ele>
        <time>2024-09-17T09:33:43Z</time>
      </trkpt>
      <trkpt lat="42.46142" lon="2.28621">
        <ele>1880</ele>
        <time>2024-09-17T09:33:46Z</time>
      </trkpt>
      <trkpt lat="42.46143" lon="2.28624">
        <ele>1881</ele>
        <time>2024-09-17T09:33:51Z</time>
      </trkpt>
      <trkpt lat="42.46145" lon="2.28628">
        <ele>1880</ele>
        <time>2024-09-17T09:33:55Z</time>
      </trkpt>
      <trkpt lat="42.46148" lon="2.28631">
        <ele>1879</ele>
        <time>2024-09-17T09:33:58Z</time>
      </trkpt>
      <trkpt lat="42.4615" lon="2.28633">
        <ele>1877</ele>
        <time>2024-09-17T09:34:03Z</time>
      </trkpt>
      <trkpt lat="42.46152" lon="2.28636">
        <ele>1877</ele>
        <time>2024-09-17T09:34:05Z</time>
      </trkpt>
      <trkpt lat="42.46155" lon="2.28639">
        <ele>1876</ele>
        <time>2024-09-17T09:34:08Z</time>
      </trkpt>
      <trkpt lat="42.46156" lon="2.28643">
        <ele>1874</ele>
        <time>2024-09-17T09:34:16Z</time>
      </trkpt>
      <trkpt lat="42.46157" lon="2.28647">
        <ele>1874</ele>
        <time>2024-09-17T09:34:21Z</time>
      </trkpt>
      <trkpt lat="42.46159" lon="2.28649">
        <ele>1871</ele>
        <time>2024-09-17T09:34:25Z</time>
      </trkpt>
      <trkpt lat="42.46161" lon="2.28647">
        <ele>1871</ele>
        <time>2024-09-17T09:34:28Z</time>
      </trkpt>
      <trkpt lat="42.46163" lon="2.28649">
        <ele>1871</ele>
        <time>2024-09-17T09:34:32Z</time>
      </trkpt>
      <trkpt lat="42.46166" lon="2.28651">
        <ele>1868</ele>
        <time>2024-09-17T09:34:38Z</time>
      </trkpt>
      <trkpt lat="42.46168" lon="2.28653">
        <ele>1868</ele>
        <time>2024-09-17T09:34:41Z</time>
      </trkpt>
      <trkpt lat="42.46169" lon="2.28656">
        <ele>1868</ele>
        <time>2024-09-17T09:34:45Z</time>
      </trkpt>
      <trkpt lat="42.46169" lon="2.28661">
        <ele>1866</ele>
        <time>2024-09-17T09:34:51Z</time>
      </trkpt>
      <trkpt lat="42.46169" lon="2.28665">
        <ele>1866</ele>
        <time>2024-09-17T09:34:56Z</time>
      </trkpt>
      <trkpt lat="42.46168" lon="2.28669">
        <ele>1864</ele>
        <time>2024-09-17T09:35:03Z</time>
      </trkpt>
      <trkpt lat="42.46171" lon="2.28671">
        <ele>1863</ele>
        <time>2024-09-17T09:35:06Z</time>
      </trkpt>
      <trkpt lat="42.46173" lon="2.28671">
        <ele>1863</ele>
        <time>2024-09-17T09:35:09Z</time>
      </trkpt>
      <trkpt lat="42.46176" lon="2.28672">
        <ele>1862</ele>
        <time>2024-09-17T09:35:18Z</time>
      </trkpt>
      <trkpt lat="42.46177" lon="2.28675">
        <ele>1861</ele>
        <time>2024-09-17T09:35:21Z</time>
      </trkpt>
      <trkpt lat="42.4618" lon="2.28678">
        <ele>1861</ele>
        <time>2024-09-17T09:35:27Z</time>
      </trkpt>
      <trkpt lat="42.46183" lon="2.2868">
        <ele>1859</ele>
        <time>2024-09-17T09:35:33Z</time>
      </trkpt>
      <trkpt lat="42.46185" lon="2.28683">
        <ele>1858</ele>
        <time>2024-09-17T09:35:37Z</time>
      </trkpt>
      <trkpt lat="42.46186" lon="2.28687">
        <ele>1858</ele>
        <time>2024-09-17T09:35:40Z</time>
      </trkpt>
      <trkpt lat="42.46188" lon="2.28688">
        <ele>1857</ele>
        <time>2024-09-17T09:35:45Z</time>
      </trkpt>
      <trkpt lat="42.4619" lon="2.28691">
        <ele>1857</ele>
        <time>2024-09-17T09:35:48Z</time>
      </trkpt>
      <trkpt lat="42.46192" lon="2.28694">
        <ele>1857</ele>
        <time>2024-09-17T09:35:51Z</time>
      </trkpt>
      <trkpt lat="42.46194" lon="2.28697">
        <ele>1855</ele>
        <time>2024-09-17T09:35:55Z</time>
      </trkpt>
      <trkpt lat="42.46195" lon="2.28701">
        <ele>1854</ele>
        <time>2024-09-17T09:35:58Z</time>
      </trkpt>
      <trkpt lat="42.46196" lon="2.28706">
        <ele>1854</ele>
        <time>2024-09-17T09:36:01Z</time>
      </trkpt>
      <trkpt lat="42.46199" lon="2.28707">
        <ele>1852</ele>
        <time>2024-09-17T09:36:04Z</time>
      </trkpt>
      <trkpt lat="42.46201" lon="2.2871">
        <ele>1851</ele>
        <time>2024-09-17T09:36:07Z</time>
      </trkpt>
      <trkpt lat="42.46203" lon="2.28713">
        <ele>1850</ele>
        <time>2024-09-17T09:36:10Z</time>
      </trkpt>
      <trkpt lat="42.46204" lon="2.28718">
        <ele>1850</ele>
        <time>2024-09-17T09:36:12Z</time>
      </trkpt>
      <trkpt lat="42.46205" lon="2.28722">
        <ele>1849</ele>
        <time>2024-09-17T09:36:15Z</time>
      </trkpt>
      <trkpt lat="42.46206" lon="2.28727">
        <ele>1849</ele>
        <time>2024-09-17T09:36:18Z</time>
      </trkpt>
      <trkpt lat="42.46206" lon="2.28731">
        <ele>1848</ele>
        <time>2024-09-17T09:36:21Z</time>
      </trkpt>
      <trkpt lat="42.46206" lon="2.28736">
        <ele>1847</ele>
        <time>2024-09-17T09:36:24Z</time>
      </trkpt>
      <trkpt lat="42.46207" lon="2.2874">
        <ele>1846</ele>
        <time>2024-09-17T09:36:28Z</time>
      </trkpt>
      <trkpt lat="42.46209" lon="2.28745">
        <ele>1845</ele>
        <time>2024-09-17T09:36:31Z</time>
      </trkpt>
      <trkpt lat="42.46211" lon="2.28749">
        <ele>1845</ele>
        <time>2024-09-17T09:36:34Z</time>
      </trkpt>
      <trkpt lat="42.46212" lon="2.28753">
        <ele>1845</ele>
        <time>2024-09-17T09:36:37Z</time>
      </trkpt>
      <trkpt lat="42.46213" lon="2.28757">
        <ele>1844</ele>
        <time>2024-09-17T09:36:39Z</time>
      </trkpt>
      <trkpt lat="42.46214" lon="2.28761">
        <ele>1842</ele>
        <time>2024-09-17T09:36:43Z</time>
      </trkpt>
      <trkpt lat="42.46216" lon="2.28766">
        <ele>1842</ele>
        <time>2024-09-17T09:36:46Z</time>
      </trkpt>
      <trkpt lat="42.46217" lon="2.2877">
        <ele>1841</ele>
        <time>2024-09-17T09:36:49Z</time>
      </trkpt>
      <trkpt lat="42.46219" lon="2.28775">
        <ele>1841</ele>
        <time>2024-09-17T09:36:52Z</time>
      </trkpt>
      <trkpt lat="42.46222" lon="2.28778">
        <ele>1841</ele>
        <time>2024-09-17T09:36:55Z</time>
      </trkpt>
      <trkpt lat="42.46224" lon="2.28781">
        <ele>1841</ele>
        <time>2024-09-17T09:36:58Z</time>
      </trkpt>
      <trkpt lat="42.46226" lon="2.28784">
        <ele>1840</ele>
        <time>2024-09-17T09:37:05Z</time>
      </trkpt>
      <trkpt lat="42.46227" lon="2.28787">
        <ele>1840</ele>
        <time>2024-09-17T09:37:08Z</time>
      </trkpt>
      <trkpt lat="42.46228" lon="2.28792">
        <ele>1839</ele>
        <time>2024-09-17T09:37:11Z</time>
      </trkpt>
      <trkpt lat="42.46229" lon="2.28795">
        <ele>1839</ele>
        <time>2024-09-17T09:37:13Z</time>
      </trkpt>
      <trkpt lat="42.4623" lon="2.28799">
        <ele>1839</ele>
        <time>2024-09-17T09:37:16Z</time>
      </trkpt>
      <trkpt lat="42.46231" lon="2.28803">
        <ele>1839</ele>
        <time>2024-09-17T09:37:18Z</time>
      </trkpt>
      <trkpt lat="42.46234" lon="2.28805">
        <ele>1837</ele>
        <time>2024-09-17T09:37:22Z</time>
      </trkpt>
      <trkpt lat="42.46236" lon="2.28805">
        <ele>1836</ele>
        <time>2024-09-17T09:37:25Z</time>
      </trkpt>
      <trkpt lat="42.46238" lon="2.28806">
        <ele>1835</ele>
        <time>2024-09-17T09:37:29Z</time>
      </trkpt>
      <trkpt lat="42.46241" lon="2.28809">
        <ele>1834</ele>
        <time>2024-09-17T09:37:33Z</time>
      </trkpt>
      <trkpt lat="42.46243" lon="2.28812">
        <ele>1835</ele>
        <time>2024-09-17T09:37:35Z</time>
      </trkpt>
      <trkpt lat="42.46245" lon="2.28814">
        <ele>1834</ele>
        <time>2024-09-17T09:37:38Z</time>
      </trkpt>
      <trkpt lat="42.46248" lon="2.28817">
        <ele>1833</ele>
        <time>2024-09-17T09:37:41Z</time>
      </trkpt>
      <trkpt lat="42.4625" lon="2.28819">
        <ele>1832</ele>
        <time>2024-09-17T09:37:45Z</time>
      </trkpt>
      <trkpt lat="42.46251" lon="2.28823">
        <ele>1831</ele>
        <time>2024-09-17T09:37:47Z</time>
      </trkpt>
      <trkpt lat="42.46253" lon="2.28827">
        <ele>1832</ele>
        <time>2024-09-17T09:37:50Z</time>
      </trkpt>
      <trkpt lat="42.46256" lon="2.2883">
        <ele>1831</ele>
        <time>2024-09-17T09:37:53Z</time>
      </trkpt>
      <trkpt lat="42.46259" lon="2.28831">
        <ele>1831</ele>
        <time>2024-09-17T09:37:56Z</time>
      </trkpt>
      <trkpt lat="42.46262" lon="2.28833">
        <ele>1831</ele>
        <time>2024-09-17T09:37:59Z</time>
      </trkpt>
      <trkpt lat="42.46266" lon="2.28835">
        <ele>1830</ele>
        <time>2024-09-17T09:38:04Z</time>
      </trkpt>
      <trkpt lat="42.46269" lon="2.28836">
        <ele>1830</ele>
        <time>2024-09-17T09:38:07Z</time>
      </trkpt>
      <trkpt lat="42.46273" lon="2.28838">
        <ele>1829</ele>
        <time>2024-09-17T09:38:10Z</time>
      </trkpt>
      <trkpt lat="42.46275" lon="2.28841">
        <ele>1829</ele>
        <time>2024-09-17T09:38:13Z</time>
      </trkpt>
      <trkpt lat="42.46277" lon="2.28844">
        <ele>1829</ele>
        <time>2024-09-17T09:38:16Z</time>
      </trkpt>
      <trkpt lat="42.4628" lon="2.28844">
        <ele>1829</ele>
        <time>2024-09-17T09:38:18Z</time>
      </trkpt>
      <trkpt lat="42.46284" lon="2.28845">
        <ele>1829</ele>
        <time>2024-09-17T09:38:20Z</time>
      </trkpt>
      <trkpt lat="42.46287" lon="2.28845">
        <ele>1829</ele>
        <time>2024-09-17T09:38:24Z</time>
      </trkpt>
      <trkpt lat="42.46291" lon="2.28844">
        <ele>1827</ele>
        <time>2024-09-17T09:38:27Z</time>
      </trkpt>
      <trkpt lat="42.46293" lon="2.28846">
        <ele>1827</ele>
        <time>2024-09-17T09:38:30Z</time>
      </trkpt>
      <trkpt lat="42.46295" lon="2.28849">
        <ele>1827</ele>
        <time>2024-09-17T09:38:33Z</time>
      </trkpt>
      <trkpt lat="42.46295" lon="2.28852">
        <ele>1827</ele>
        <time>2024-09-17T09:38:38Z</time>
      </trkpt>
      <trkpt lat="42.46295" lon="2.28856">
        <ele>1825</ele>
        <time>2024-09-17T09:38:42Z</time>
      </trkpt>
      <trkpt lat="42.46296" lon="2.2886">
        <ele>1825</ele>
        <time>2024-09-17T09:38:44Z</time>
      </trkpt>
      <trkpt lat="42.46297" lon="2.28864">
        <ele>1822</ele>
        <time>2024-09-17T09:38:49Z</time>
      </trkpt>
      <trkpt lat="42.46298" lon="2.28867">
        <ele>1822</ele>
        <time>2024-09-17T09:38:52Z</time>
      </trkpt>
      <trkpt lat="42.463" lon="2.2887">
        <ele>1822</ele>
        <time>2024-09-17T09:38:54Z</time>
      </trkpt>
      <trkpt lat="42.46304" lon="2.2887">
        <ele>1821</ele>
        <time>2024-09-17T09:38:58Z</time>
      </trkpt>
      <trkpt lat="42.46307" lon="2.28871">
        <ele>1819</ele>
        <time>2024-09-17T09:39:01Z</time>
      </trkpt>
      <trkpt lat="42.4631" lon="2.2887">
        <ele>1819</ele>
        <time>2024-09-17T09:39:05Z</time>
      </trkpt>
      <trkpt lat="42.46313" lon="2.28872">
        <ele>1816</ele>
        <time>2024-09-17T09:39:13Z</time>
      </trkpt>
      <trkpt lat="42.46316" lon="2.28874">
        <ele>1816</ele>
        <time>2024-09-17T09:39:17Z</time>
      </trkpt>
      <trkpt lat="42.46319" lon="2.28876">
        <ele>1815</ele>
        <time>2024-09-17T09:39:21Z</time>
      </trkpt>
      <trkpt lat="42.4632" lon="2.28879">
        <ele>1814</ele>
        <time>2024-09-17T09:39:25Z</time>
      </trkpt>
      <trkpt lat="42.46321" lon="2.28883">
        <ele>1813</ele>
        <time>2024-09-17T09:39:28Z</time>
      </trkpt>
      <trkpt lat="42.46322" lon="2.28886">
        <ele>1812</ele>
        <time>2024-09-17T09:39:31Z</time>
      </trkpt>
      <trkpt lat="42.46323" lon="2.28891">
        <ele>1811</ele>
        <time>2024-09-17T09:39:35Z</time>
      </trkpt>
      <trkpt lat="42.46325" lon="2.28894">
        <ele>1810</ele>
        <time>2024-09-17T09:39:38Z</time>
      </trkpt>
      <trkpt lat="42.46327" lon="2.28897">
        <ele>1811</ele>
        <time>2024-09-17T09:39:41Z</time>
      </trkpt>
      <trkpt lat="42.4633" lon="2.28898">
        <ele>1810</ele>
        <time>2024-09-17T09:39:45Z</time>
      </trkpt>
      <trkpt lat="42.46334" lon="2.28899">
        <ele>1810</ele>
        <time>2024-09-17T09:39:49Z</time>
      </trkpt>
      <trkpt lat="42.46337" lon="2.289">
        <ele>1810</ele>
        <time>2024-09-17T09:39:52Z</time>
      </trkpt>
      <trkpt lat="42.4634" lon="2.28901">
        <ele>1810</ele>
        <time>2024-09-17T09:39:54Z</time>
      </trkpt>
      <trkpt lat="42.46343" lon="2.28904">
        <ele>1809</ele>
        <time>2024-09-17T09:39:58Z</time>
      </trkpt>
      <trkpt lat="42.46346" lon="2.28906">
        <ele>1809</ele>
        <time>2024-09-17T09:40:01Z</time>
      </trkpt>
      <trkpt lat="42.46349" lon="2.28908">
        <ele>1809</ele>
        <time>2024-09-17T09:40:04Z</time>
      </trkpt>
      <trkpt lat="42.46351" lon="2.2891">
        <ele>1809</ele>
        <time>2024-09-17T09:40:07Z</time>
      </trkpt>
      <trkpt lat="42.46354" lon="2.28913">
        <ele>1809</ele>
        <time>2024-09-17T09:40:10Z</time>
      </trkpt>
      <trkpt lat="42.46357" lon="2.28916">
        <ele>1808</ele>
        <time>2024-09-17T09:40:14Z</time>
      </trkpt>
      <trkpt lat="42.46359" lon="2.28918">
        <ele>1809</ele>
        <time>2024-09-17T09:40:19Z</time>
      </trkpt>
      <trkpt lat="42.46359" lon="2.28921">
        <ele>1808</ele>
        <time>2024-09-17T09:40:22Z</time>
      </trkpt>
      <trkpt lat="42.46359" lon="2.28925">
        <ele>1808</ele>
        <time>2024-09-17T09:40:25Z</time>
      </trkpt>
      <trkpt lat="42.4636" lon="2.2893">
        <ele>1809</ele>
        <time>2024-09-17T09:40:28Z</time>
      </trkpt>
      <trkpt lat="42.46361" lon="2.28934">
        <ele>1808</ele>
        <time>2024-09-17T09:40:31Z</time>
      </trkpt>
      <trkpt lat="42.46363" lon="2.28936">
        <ele>1807</ele>
        <time>2024-09-17T09:40:32Z</time>
      </trkpt>
      <trkpt lat="42.46364" lon="2.28939">
        <ele>1807</ele>
        <time>2024-09-17T09:40:35Z</time>
      </trkpt>
      <trkpt lat="42.46366" lon="2.28943">
        <ele>1803</ele>
        <time>2024-09-17T09:40:38Z</time>
      </trkpt>
      <trkpt lat="42.46366" lon="2.28947">
        <ele>1804</ele>
        <time>2024-09-17T09:40:40Z</time>
      </trkpt>
      <trkpt lat="42.46367" lon="2.28951">
        <ele>1805</ele>
        <time>2024-09-17T09:40:43Z</time>
      </trkpt>
      <trkpt lat="42.46369" lon="2.28955">
        <ele>1804</ele>
        <time>2024-09-17T09:40:46Z</time>
      </trkpt>
      <trkpt lat="42.4637" lon="2.28958">
        <ele>1805</ele>
        <time>2024-09-17T09:40:49Z</time>
      </trkpt>
      <trkpt lat="42.46373" lon="2.28959">
        <ele>1804</ele>
        <time>2024-09-17T09:40:51Z</time>
      </trkpt>
      <trkpt lat="42.46376" lon="2.28961">
        <ele>1803</ele>
        <time>2024-09-17T09:40:55Z</time>
      </trkpt>
      <trkpt lat="42.46378" lon="2.28963">
        <ele>1803</ele>
        <time>2024-09-17T09:41:00Z</time>
      </trkpt>
      <trkpt lat="42.46381" lon="2.28964">
        <ele>1803</ele>
        <time>2024-09-17T09:41:02Z</time>
      </trkpt>
      <trkpt lat="42.46384" lon="2.28963">
        <ele>1802</ele>
        <time>2024-09-17T09:41:05Z</time>
      </trkpt>
      <trkpt lat="42.46387" lon="2.28964">
        <ele>1802</ele>
        <time>2024-09-17T09:41:07Z</time>
      </trkpt>
      <trkpt lat="42.4639" lon="2.28963">
        <ele>1802</ele>
        <time>2024-09-17T09:41:11Z</time>
      </trkpt>
      <trkpt lat="42.46394" lon="2.28964">
        <ele>1802</ele>
        <time>2024-09-17T09:41:14Z</time>
      </trkpt>
      <trkpt lat="42.46396" lon="2.28966">
        <ele>1801</ele>
        <time>2024-09-17T09:41:18Z</time>
      </trkpt>
      <trkpt lat="42.46398" lon="2.2897">
        <ele>1800</ele>
        <time>2024-09-17T09:41:21Z</time>
      </trkpt>
      <trkpt lat="42.46398" lon="2.28974">
        <ele>1799</ele>
        <time>2024-09-17T09:41:23Z</time>
      </trkpt>
      <trkpt lat="42.46401" lon="2.28976">
        <ele>1801</ele>
        <time>2024-09-17T09:41:26Z</time>
      </trkpt>
      <trkpt lat="42.46403" lon="2.28975">
        <ele>1800</ele>
        <time>2024-09-17T09:41:31Z</time>
      </trkpt>
      <trkpt lat="42.46405" lon="2.28973">
        <ele>1801</ele>
        <time>2024-09-17T09:41:35Z</time>
      </trkpt>
      <trkpt lat="42.46405" lon="2.28974">
        <ele>1798</ele>
        <time>2024-09-17T09:42:16Z</time>
      </trkpt>
      <trkpt lat="42.46404" lon="2.28977">
        <ele>1797</ele>
        <time>2024-09-17T09:42:21Z</time>
      </trkpt>
      <trkpt lat="42.46405" lon="2.28982">
        <ele>1798</ele>
        <time>2024-09-17T09:42:24Z</time>
      </trkpt>
      <trkpt lat="42.46406" lon="2.28985">
        <ele>1796</ele>
        <time>2024-09-17T09:42:27Z</time>
      </trkpt>
      <trkpt lat="42.46407" lon="2.2899">
        <ele>1797</ele>
        <time>2024-09-17T09:42:28Z</time>
      </trkpt>
      <trkpt lat="42.46408" lon="2.28994">
        <ele>1797</ele>
        <time>2024-09-17T09:42:31Z</time>
      </trkpt>
      <trkpt lat="42.4641" lon="2.28998">
        <ele>1797</ele>
        <time>2024-09-17T09:42:34Z</time>
      </trkpt>
      <trkpt lat="42.46413" lon="2.29001">
        <ele>1797</ele>
        <time>2024-09-17T09:42:36Z</time>
      </trkpt>
      <trkpt lat="42.46416" lon="2.29004">
        <ele>1796</ele>
        <time>2024-09-17T09:42:39Z</time>
      </trkpt>
      <trkpt lat="42.46419" lon="2.29006">
        <ele>1796</ele>
        <time>2024-09-17T09:42:42Z</time>
      </trkpt>
      <trkpt lat="42.46422" lon="2.29007">
        <ele>1795</ele>
        <time>2024-09-17T09:42:45Z</time>
      </trkpt>
      <trkpt lat="42.46425" lon="2.2901">
        <ele>1796</ele>
        <time>2024-09-17T09:42:48Z</time>
      </trkpt>
      <trkpt lat="42.46426" lon="2.29014">
        <ele>1796</ele>
        <time>2024-09-17T09:42:51Z</time>
      </trkpt>
      <trkpt lat="42.46428" lon="2.29017">
        <ele>1796</ele>
        <time>2024-09-17T09:42:54Z</time>
      </trkpt>
      <trkpt lat="42.4643" lon="2.2902">
        <ele>1796</ele>
        <time>2024-09-17T09:42:57Z</time>
      </trkpt>
      <trkpt lat="42.46431" lon="2.29024">
        <ele>1796</ele>
        <time>2024-09-17T09:43:00Z</time>
      </trkpt>
      <trkpt lat="42.46433" lon="2.29028">
        <ele>1795</ele>
        <time>2024-09-17T09:43:03Z</time>
      </trkpt>
      <trkpt lat="42.46434" lon="2.29033">
        <ele>1797</ele>
        <time>2024-09-17T09:43:06Z</time>
      </trkpt>
      <trkpt lat="42.46436" lon="2.29037">
        <ele>1795</ele>
        <time>2024-09-17T09:43:11Z</time>
      </trkpt>
      <trkpt lat="42.46438" lon="2.29039">
        <ele>1795</ele>
        <time>2024-09-17T09:43:14Z</time>
      </trkpt>
      <trkpt lat="42.4644" lon="2.29043">
        <ele>1795</ele>
        <time>2024-09-17T09:43:16Z</time>
      </trkpt>
      <trkpt lat="42.4644" lon="2.29047">
        <ele>1793</ele>
        <time>2024-09-17T09:43:21Z</time>
      </trkpt>
      <trkpt lat="42.46442" lon="2.2905">
        <ele>1791</ele>
        <time>2024-09-17T09:43:29Z</time>
      </trkpt>
      <trkpt lat="42.46443" lon="2.29053">
        <ele>1793</ele>
        <time>2024-09-17T09:43:34Z</time>
      </trkpt>
      <trkpt lat="42.46445" lon="2.29057">
        <ele>1793</ele>
        <time>2024-09-17T09:43:37Z</time>
      </trkpt>
      <trkpt lat="42.46448" lon="2.2906">
        <ele>1790</ele>
        <time>2024-09-17T09:43:40Z</time>
      </trkpt>
      <trkpt lat="42.46449" lon="2.29063">
        <ele>1791</ele>
        <time>2024-09-17T09:43:42Z</time>
      </trkpt>
      <trkpt lat="42.46451" lon="2.29067">
        <ele>1790</ele>
        <time>2024-09-17T09:43:46Z</time>
      </trkpt>
      <trkpt lat="42.46452" lon="2.29071">
        <ele>1790</ele>
        <time>2024-09-17T09:43:50Z</time>
      </trkpt>
      <trkpt lat="42.46452" lon="2.29075">
        <ele>1789</ele>
        <time>2024-09-17T09:43:56Z</time>
      </trkpt>
      <trkpt lat="42.46452" lon="2.2908">
        <ele>1789</ele>
        <time>2024-09-17T09:43:59Z</time>
      </trkpt>
      <trkpt lat="42.46453" lon="2.29084">
        <ele>1789</ele>
        <time>2024-09-17T09:44:04Z</time>
      </trkpt>
      <trkpt lat="42.46456" lon="2.29087">
        <ele>1789</ele>
        <time>2024-09-17T09:44:10Z</time>
      </trkpt>
      <trkpt lat="42.46459" lon="2.29089">
        <ele>1788</ele>
        <time>2024-09-17T09:44:13Z</time>
      </trkpt>
      <trkpt lat="42.46461" lon="2.29092">
        <ele>1786</ele>
        <time>2024-09-17T09:44:18Z</time>
      </trkpt>
      <trkpt lat="42.46463" lon="2.29094">
        <ele>1786</ele>
        <time>2024-09-17T09:44:28Z</time>
      </trkpt>
      <trkpt lat="42.46464" lon="2.29097">
        <ele>1786</ele>
        <time>2024-09-17T09:44:37Z</time>
      </trkpt>
      <trkpt lat="42.46465" lon="2.291">
        <ele>1786</ele>
        <time>2024-09-17T09:44:39Z</time>
      </trkpt>
      <trkpt lat="42.46468" lon="2.29101">
        <ele>1786</ele>
        <time>2024-09-17T09:44:43Z</time>
      </trkpt>
      <trkpt lat="42.46471" lon="2.29101">
        <ele>1785</ele>
        <time>2024-09-17T09:44:47Z</time>
      </trkpt>
      <trkpt lat="42.46474" lon="2.29103">
        <ele>1785</ele>
        <time>2024-09-17T09:44:50Z</time>
      </trkpt>
      <trkpt lat="42.46477" lon="2.29104">
        <ele>1785</ele>
        <time>2024-09-17T09:44:53Z</time>
      </trkpt>
      <trkpt lat="42.46479" lon="2.29107">
        <ele>1783</ele>
        <time>2024-09-17T09:44:57Z</time>
      </trkpt>
      <trkpt lat="42.46481" lon="2.29111">
        <ele>1783</ele>
        <time>2024-09-17T09:45:00Z</time>
      </trkpt>
      <trkpt lat="42.46483" lon="2.29111">
        <ele>1782</ele>
        <time>2024-09-17T09:45:03Z</time>
      </trkpt>
      <trkpt lat="42.46485" lon="2.2911">
        <ele>1781</ele>
        <time>2024-09-17T09:45:07Z</time>
      </trkpt>
      <trkpt lat="42.46488" lon="2.2911">
        <ele>1780</ele>
        <time>2024-09-17T09:45:11Z</time>
      </trkpt>
      <trkpt lat="42.46491" lon="2.29112">
        <ele>1779</ele>
        <time>2024-09-17T09:45:15Z</time>
      </trkpt>
      <trkpt lat="42.46493" lon="2.29114">
        <ele>1779</ele>
        <time>2024-09-17T09:45:20Z</time>
      </trkpt>
      <trkpt lat="42.46494" lon="2.29118">
        <ele>1777</ele>
        <time>2024-09-17T09:45:24Z</time>
      </trkpt>
      <trkpt lat="42.46495" lon="2.29121">
        <ele>1776</ele>
        <time>2024-09-17T09:45:27Z</time>
      </trkpt>
      <trkpt lat="42.46496" lon="2.29125">
        <ele>1776</ele>
        <time>2024-09-17T09:45:30Z</time>
      </trkpt>
      <trkpt lat="42.46496" lon="2.29129">
        <ele>1776</ele>
        <time>2024-09-17T09:45:34Z</time>
      </trkpt>
      <trkpt lat="42.46498" lon="2.29131">
        <ele>1775</ele>
        <time>2024-09-17T09:45:39Z</time>
      </trkpt>
      <trkpt lat="42.46499" lon="2.29135">
        <ele>1773</ele>
        <time>2024-09-17T09:45:48Z</time>
      </trkpt>
      <trkpt lat="42.46501" lon="2.29138">
        <ele>1772</ele>
        <time>2024-09-17T09:45:53Z</time>
      </trkpt>
      <trkpt lat="42.46504" lon="2.29139">
        <ele>1772</ele>
        <time>2024-09-17T09:45:55Z</time>
      </trkpt>
      <trkpt lat="42.46507" lon="2.29139">
        <ele>1772</ele>
        <time>2024-09-17T09:45:58Z</time>
      </trkpt>
      <trkpt lat="42.46509" lon="2.29137">
        <ele>1771</ele>
        <time>2024-09-17T09:46:01Z</time>
      </trkpt>
      <trkpt lat="42.46512" lon="2.29135">
        <ele>1771</ele>
        <time>2024-09-17T09:46:07Z</time>
      </trkpt>
      <trkpt lat="42.46515" lon="2.29133">
        <ele>1772</ele>
        <time>2024-09-17T09:46:10Z</time>
      </trkpt>
      <trkpt lat="42.46517" lon="2.29135">
        <ele>1769</ele>
        <time>2024-09-17T09:46:16Z</time>
      </trkpt>
      <trkpt lat="42.46515" lon="2.29137">
        <ele>1769</ele>
        <time>2024-09-17T09:46:18Z</time>
      </trkpt>
      <trkpt lat="42.46513" lon="2.2914">
        <ele>1768</ele>
        <time>2024-09-17T09:46:21Z</time>
      </trkpt>
      <trkpt lat="42.46511" lon="2.29142">
        <ele>1768</ele>
        <time>2024-09-17T09:46:24Z</time>
      </trkpt>
      <trkpt lat="42.46508" lon="2.29144">
        <ele>1768</ele>
        <time>2024-09-17T09:46:27Z</time>
      </trkpt>
      <trkpt lat="42.46505" lon="2.29146">
        <ele>1769</ele>
        <time>2024-09-17T09:46:29Z</time>
      </trkpt>
      <trkpt lat="42.46506" lon="2.2915">
        <ele>1768</ele>
        <time>2024-09-17T09:46:33Z</time>
      </trkpt>
      <trkpt lat="42.46506" lon="2.29153">
        <ele>1766</ele>
        <time>2024-09-17T09:46:37Z</time>
      </trkpt>
      <trkpt lat="42.46506" lon="2.29156">
        <ele>1766</ele>
        <time>2024-09-17T09:46:40Z</time>
      </trkpt>
      <trkpt lat="42.46505" lon="2.29161">
        <ele>1763</ele>
        <time>2024-09-17T09:46:44Z</time>
      </trkpt>
      <trkpt lat="42.46507" lon="2.29161">
        <ele>1762</ele>
        <time>2024-09-17T09:46:46Z</time>
      </trkpt>
      <trkpt lat="42.46509" lon="2.29163">
        <ele>1762</ele>
        <time>2024-09-17T09:46:50Z</time>
      </trkpt>
      <trkpt lat="42.46513" lon="2.29164">
        <ele>1762</ele>
        <time>2024-09-17T09:46:54Z</time>
      </trkpt>
      <trkpt lat="42.46515" lon="2.29165">
        <ele>1761</ele>
        <time>2024-09-17T09:46:57Z</time>
      </trkpt>
      <trkpt lat="42.46519" lon="2.29167">
        <ele>1760</ele>
        <time>2024-09-17T09:46:59Z</time>
      </trkpt>
      <trkpt lat="42.46521" lon="2.29165">
        <ele>1759</ele>
        <time>2024-09-17T09:47:04Z</time>
      </trkpt>
      <trkpt lat="42.46523" lon="2.29163">
        <ele>1760</ele>
        <time>2024-09-17T09:47:07Z</time>
      </trkpt>
      <trkpt lat="42.46524" lon="2.2916">
        <ele>1759</ele>
        <time>2024-09-17T09:47:12Z</time>
      </trkpt>
      <trkpt lat="42.46526" lon="2.29159">
        <ele>1757</ele>
        <time>2024-09-17T09:47:16Z</time>
      </trkpt>
      <trkpt lat="42.46529" lon="2.29159">
        <ele>1756</ele>
        <time>2024-09-17T09:47:20Z</time>
      </trkpt>
      <trkpt lat="42.46532" lon="2.29159">
        <ele>1757</ele>
        <time>2024-09-17T09:47:24Z</time>
      </trkpt>
      <trkpt lat="42.46535" lon="2.2916">
        <ele>1755</ele>
        <time>2024-09-17T09:47:30Z</time>
      </trkpt>
      <trkpt lat="42.46538" lon="2.29163">
        <ele>1753</ele>
        <time>2024-09-17T09:47:37Z</time>
      </trkpt>
      <trkpt lat="42.4654" lon="2.29165">
        <ele>1753</ele>
        <time>2024-09-17T09:47:43Z</time>
      </trkpt>
      <trkpt lat="42.4654" lon="2.29167">
        <ele>1750</ele>
        <time>2024-09-17T09:47:50Z</time>
      </trkpt>
      <trkpt lat="42.46538" lon="2.29169">
        <ele>1750</ele>
        <time>2024-09-17T09:47:53Z</time>
      </trkpt>
      <trkpt lat="42.46538" lon="2.29172">
        <ele>1749</ele>
        <time>2024-09-17T09:47:57Z</time>
      </trkpt>
      <trkpt lat="42.4654" lon="2.29176">
        <ele>1747</ele>
        <time>2024-09-17T09:48:03Z</time>
      </trkpt>
      <trkpt lat="42.46543" lon="2.29177">
        <ele>1747</ele>
        <time>2024-09-17T09:48:06Z</time>
      </trkpt>
      <trkpt lat="42.46545" lon="2.29176">
        <ele>1747</ele>
        <time>2024-09-17T09:48:10Z</time>
      </trkpt>
      <trkpt lat="42.46548" lon="2.29176">
        <ele>1748</ele>
        <time>2024-09-17T09:48:13Z</time>
      </trkpt>
      <trkpt lat="42.46551" lon="2.29175">
        <ele>1748</ele>
        <time>2024-09-17T09:48:17Z</time>
      </trkpt>
      <trkpt lat="42.46554" lon="2.29173">
        <ele>1747</ele>
        <time>2024-09-17T09:48:22Z</time>
      </trkpt>
      <trkpt lat="42.46557" lon="2.29172">
        <ele>1746</ele>
        <time>2024-09-17T09:48:27Z</time>
      </trkpt>
      <trkpt lat="42.46559" lon="2.29173">
        <ele>1745</ele>
        <time>2024-09-17T09:48:30Z</time>
      </trkpt>
      <trkpt lat="42.46563" lon="2.29171">
        <ele>1745</ele>
        <time>2024-09-17T09:48:33Z</time>
      </trkpt>
      <trkpt lat="42.46565" lon="2.29169">
        <ele>1745</ele>
        <time>2024-09-17T09:48:36Z</time>
      </trkpt>
      <trkpt lat="42.46568" lon="2.29169">
        <ele>1744</ele>
        <time>2024-09-17T09:48:40Z</time>
      </trkpt>
      <trkpt lat="42.46572" lon="2.29169">
        <ele>1743</ele>
        <time>2024-09-17T09:48:46Z</time>
      </trkpt>
      <trkpt lat="42.46575" lon="2.29169">
        <ele>1743</ele>
        <time>2024-09-17T09:48:48Z</time>
      </trkpt>
      <trkpt lat="42.46578" lon="2.29168">
        <ele>1743</ele>
        <time>2024-09-17T09:48:50Z</time>
      </trkpt>
      <trkpt lat="42.4658" lon="2.29166">
        <ele>1743</ele>
        <time>2024-09-17T09:48:53Z</time>
      </trkpt>
      <trkpt lat="42.46583" lon="2.29164">
        <ele>1740</ele>
        <time>2024-09-17T09:48:57Z</time>
      </trkpt>
      <trkpt lat="42.46585" lon="2.29162">
        <ele>1740</ele>
        <time>2024-09-17T09:49:00Z</time>
      </trkpt>
      <trkpt lat="42.46589" lon="2.2916">
        <ele>1739</ele>
        <time>2024-09-17T09:49:03Z</time>
      </trkpt>
      <trkpt lat="42.46592" lon="2.29159">
        <ele>1740</ele>
        <time>2024-09-17T09:49:07Z</time>
      </trkpt>
      <trkpt lat="42.46595" lon="2.29156">
        <ele>1736</ele>
        <time>2024-09-17T09:49:10Z</time>
      </trkpt>
      <trkpt lat="42.46598" lon="2.29155">
        <ele>1735</ele>
        <time>2024-09-17T09:49:13Z</time>
      </trkpt>
      <trkpt lat="42.46601" lon="2.29152">
        <ele>1735</ele>
        <time>2024-09-17T09:49:16Z</time>
      </trkpt>
      <trkpt lat="42.46604" lon="2.2915">
        <ele>1736</ele>
        <time>2024-09-17T09:49:18Z</time>
      </trkpt>
      <trkpt lat="42.46605" lon="2.29147">
        <ele>1736</ele>
        <time>2024-09-17T09:49:21Z</time>
      </trkpt>
      <trkpt lat="42.46608" lon="2.29144">
        <ele>1735</ele>
        <time>2024-09-17T09:49:24Z</time>
      </trkpt>
      <trkpt lat="42.46611" lon="2.29141">
        <ele>1735</ele>
        <time>2024-09-17T09:49:27Z</time>
      </trkpt>
      <trkpt lat="42.46613" lon="2.29139">
        <ele>1734</ele>
        <time>2024-09-17T09:49:30Z</time>
      </trkpt>
      <trkpt lat="42.46616" lon="2.29136">
        <ele>1734</ele>
        <time>2024-09-17T09:49:32Z</time>
      </trkpt>
      <trkpt lat="42.46618" lon="2.29134">
        <ele>1735</ele>
        <time>2024-09-17T09:49:35Z</time>
      </trkpt>
      <trkpt lat="42.46621" lon="2.29132">
        <ele>1735</ele>
        <time>2024-09-17T09:49:38Z</time>
      </trkpt>
      <trkpt lat="42.46624" lon="2.29129">
        <ele>1733</ele>
        <time>2024-09-17T09:49:41Z</time>
      </trkpt>
      <trkpt lat="42.46625" lon="2.29125">
        <ele>1733</ele>
        <time>2024-09-17T09:49:44Z</time>
      </trkpt>
      <trkpt lat="42.46627" lon="2.29122">
        <ele>1732</ele>
        <time>2024-09-17T09:49:47Z</time>
      </trkpt>
      <trkpt lat="42.4663" lon="2.2912">
        <ele>1732</ele>
        <time>2024-09-17T09:49:50Z</time>
      </trkpt>
      <trkpt lat="42.46633" lon="2.29118">
        <ele>1731</ele>
        <time>2024-09-17T09:49:54Z</time>
      </trkpt>
      <trkpt lat="42.46636" lon="2.29116">
        <ele>1732</ele>
        <time>2024-09-17T09:49:57Z</time>
      </trkpt>
      <trkpt lat="42.46639" lon="2.29114">
        <ele>1729</ele>
        <time>2024-09-17T09:50:01Z</time>
      </trkpt>
      <trkpt lat="42.46642" lon="2.29113">
        <ele>1728</ele>
        <time>2024-09-17T09:50:04Z</time>
      </trkpt>
      <trkpt lat="42.46646" lon="2.29113">
        <ele>1727</ele>
        <time>2024-09-17T09:50:07Z</time>
      </trkpt>
      <trkpt lat="42.46649" lon="2.29112">
        <ele>1726</ele>
        <time>2024-09-17T09:50:10Z</time>
      </trkpt>
      <trkpt lat="42.46652" lon="2.29111">
        <ele>1726</ele>
        <time>2024-09-17T09:50:12Z</time>
      </trkpt>
      <trkpt lat="42.46655" lon="2.29109">
        <ele>1724</ele>
        <time>2024-09-17T09:50:16Z</time>
      </trkpt>
      <trkpt lat="42.46657" lon="2.29106">
        <ele>1724</ele>
        <time>2024-09-17T09:50:20Z</time>
      </trkpt>
      <trkpt lat="42.46656" lon="2.29103">
        <ele>1724</ele>
        <time>2024-09-17T09:50:36Z</time>
      </trkpt>
      <trkpt lat="42.46658" lon="2.29102">
        <ele>1727</ele>
        <time>2024-09-17T09:50:49Z</time>
      </trkpt>
      <trkpt lat="42.46661" lon="2.29102">
        <ele>1725</ele>
        <time>2024-09-17T09:50:51Z</time>
      </trkpt>
      <trkpt lat="42.46664" lon="2.29101">
        <ele>1725</ele>
        <time>2024-09-17T09:50:54Z</time>
      </trkpt>
      <trkpt lat="42.46666" lon="2.29099">
        <ele>1724</ele>
        <time>2024-09-17T09:50:56Z</time>
      </trkpt>
      <trkpt lat="42.46669" lon="2.291">
        <ele>1722</ele>
        <time>2024-09-17T09:51:13Z</time>
      </trkpt>
      <trkpt lat="42.46672" lon="2.29102">
        <ele>1722</ele>
        <time>2024-09-17T09:51:16Z</time>
      </trkpt>
      <trkpt lat="42.46675" lon="2.29103">
        <ele>1721</ele>
        <time>2024-09-17T09:51:19Z</time>
      </trkpt>
      <trkpt lat="42.46678" lon="2.29104">
        <ele>1721</ele>
        <time>2024-09-17T09:51:21Z</time>
      </trkpt>
      <trkpt lat="42.46681" lon="2.29104">
        <ele>1722</ele>
        <time>2024-09-17T09:51:23Z</time>
      </trkpt>
      <trkpt lat="42.46683" lon="2.29103">
        <ele>1721</ele>
        <time>2024-09-17T09:51:26Z</time>
      </trkpt>
      <trkpt lat="42.46687" lon="2.29101">
        <ele>1721</ele>
        <time>2024-09-17T09:51:30Z</time>
      </trkpt>
      <trkpt lat="42.46689" lon="2.29102">
        <ele>1720</ele>
        <time>2024-09-17T09:51:33Z</time>
      </trkpt>
      <trkpt lat="42.46691" lon="2.29104">
        <ele>1719</ele>
        <time>2024-09-17T09:51:36Z</time>
      </trkpt>
      <trkpt lat="42.46694" lon="2.29105">
        <ele>1719</ele>
        <time>2024-09-17T09:51:40Z</time>
      </trkpt>
      <trkpt lat="42.46697" lon="2.29108">
        <ele>1718</ele>
        <time>2024-09-17T09:51:44Z</time>
      </trkpt>
      <trkpt lat="42.46699" lon="2.29112">
        <ele>1718</ele>
        <time>2024-09-17T09:51:49Z</time>
      </trkpt>
      <trkpt lat="42.46701" lon="2.29115">
        <ele>1715</ele>
        <time>2024-09-17T09:51:55Z</time>
      </trkpt>
      <trkpt lat="42.46704" lon="2.29116">
        <ele>1715</ele>
        <time>2024-09-17T09:51:58Z</time>
      </trkpt>
      <trkpt lat="42.46707" lon="2.29117">
        <ele>1715</ele>
        <time>2024-09-17T09:52:00Z</time>
      </trkpt>
      <trkpt lat="42.46708" lon="2.29119">
        <ele>1714</ele>
        <time>2024-09-17T09:52:03Z</time>
      </trkpt>
      <trkpt lat="42.46706" lon="2.29121">
        <ele>1715</ele>
        <time>2024-09-17T09:52:05Z</time>
      </trkpt>
      <trkpt lat="42.46704" lon="2.29123">
        <ele>1715</ele>
        <time>2024-09-17T09:52:07Z</time>
      </trkpt>
      <trkpt lat="42.46701" lon="2.29124">
        <ele>1715</ele>
        <time>2024-09-17T09:52:10Z</time>
      </trkpt>
      <trkpt lat="42.467" lon="2.29128">
        <ele>1713</ele>
        <time>2024-09-17T09:52:14Z</time>
      </trkpt>
      <trkpt lat="42.46698" lon="2.29131">
        <ele>1714</ele>
        <time>2024-09-17T09:52:17Z</time>
      </trkpt>
      <trkpt lat="42.46695" lon="2.29133">
        <ele>1714</ele>
        <time>2024-09-17T09:52:20Z</time>
      </trkpt>
      <trkpt lat="42.46692" lon="2.29134">
        <ele>1713</ele>
        <time>2024-09-17T09:52:23Z</time>
      </trkpt>
      <trkpt lat="42.46689" lon="2.29135">
        <ele>1713</ele>
        <time>2024-09-17T09:52:27Z</time>
      </trkpt>
      <trkpt lat="42.46687" lon="2.29135">
        <ele>1712</ele>
        <time>2024-09-17T09:52:29Z</time>
      </trkpt>
      <trkpt lat="42.46684" lon="2.29137">
        <ele>1711</ele>
        <time>2024-09-17T09:52:33Z</time>
      </trkpt>
      <trkpt lat="42.46682" lon="2.2914">
        <ele>1712</ele>
        <time>2024-09-17T09:52:35Z</time>
      </trkpt>
      <trkpt lat="42.46679" lon="2.29142">
        <ele>1712</ele>
        <time>2024-09-17T09:52:39Z</time>
      </trkpt>
      <trkpt lat="42.46678" lon="2.29145">
        <ele>1710</ele>
        <time>2024-09-17T09:52:42Z</time>
      </trkpt>
      <trkpt lat="42.46679" lon="2.29146">
        <ele>1711</ele>
        <time>2024-09-17T09:52:44Z</time>
      </trkpt>
      <trkpt lat="42.46681" lon="2.29148">
        <ele>1710</ele>
        <time>2024-09-17T09:52:46Z</time>
      </trkpt>
      <trkpt lat="42.46683" lon="2.29151">
        <ele>1709</ele>
        <time>2024-09-17T09:52:49Z</time>
      </trkpt>
      <trkpt lat="42.46685" lon="2.29153">
        <ele>1709</ele>
        <time>2024-09-17T09:52:52Z</time>
      </trkpt>
      <trkpt lat="42.46687" lon="2.29156">
        <ele>1709</ele>
        <time>2024-09-17T09:52:55Z</time>
      </trkpt>
      <trkpt lat="42.46689" lon="2.2916">
        <ele>1708</ele>
        <time>2024-09-17T09:52:57Z</time>
      </trkpt>
      <trkpt lat="42.46687" lon="2.29162">
        <ele>1708</ele>
        <time>2024-09-17T09:53:02Z</time>
      </trkpt>
      <trkpt lat="42.46685" lon="2.29165">
        <ele>1707</ele>
        <time>2024-09-17T09:53:05Z</time>
      </trkpt>
      <trkpt lat="42.46682" lon="2.29168">
        <ele>1708</ele>
        <time>2024-09-17T09:53:08Z</time>
      </trkpt>
      <trkpt lat="42.4668" lon="2.29171">
        <ele>1706</ele>
        <time>2024-09-17T09:53:12Z</time>
      </trkpt>
      <trkpt lat="42.46677" lon="2.29173">
        <ele>1706</ele>
        <time>2024-09-17T09:53:15Z</time>
      </trkpt>
      <trkpt lat="42.46675" lon="2.29175">
        <ele>1706</ele>
        <time>2024-09-17T09:53:17Z</time>
      </trkpt>
      <trkpt lat="42.46672" lon="2.29177">
        <ele>1705</ele>
        <time>2024-09-17T09:53:20Z</time>
      </trkpt>
      <trkpt lat="42.4667" lon="2.29179">
        <ele>1705</ele>
        <time>2024-09-17T09:53:22Z</time>
      </trkpt>
      <trkpt lat="42.46669" lon="2.29183">
        <ele>1705</ele>
        <time>2024-09-17T09:53:24Z</time>
      </trkpt>
      <trkpt lat="42.46667" lon="2.29185">
        <ele>1705</ele>
        <time>2024-09-17T09:53:27Z</time>
      </trkpt>
      <trkpt lat="42.46664" lon="2.29188">
        <ele>1704</ele>
        <time>2024-09-17T09:53:31Z</time>
      </trkpt>
      <trkpt lat="42.46662" lon="2.29191">
        <ele>1704</ele>
        <time>2024-09-17T09:53:34Z</time>
      </trkpt>
      <trkpt lat="42.46661" lon="2.29195">
        <ele>1703</ele>
        <time>2024-09-17T09:53:37Z</time>
      </trkpt>
      <trkpt lat="42.46659" lon="2.292">
        <ele>1702</ele>
        <time>2024-09-17T09:53:39Z</time>
      </trkpt>
      <trkpt lat="42.46658" lon="2.29204">
        <ele>1700</ele>
        <time>2024-09-17T09:53:43Z</time>
      </trkpt>
      <trkpt lat="42.46659" lon="2.29207">
        <ele>1698</ele>
        <time>2024-09-17T09:53:48Z</time>
      </trkpt>
      <trkpt lat="42.4666" lon="2.29211">
        <ele>1696</ele>
        <time>2024-09-17T09:53:51Z</time>
      </trkpt>
      <trkpt lat="42.46662" lon="2.29213">
        <ele>1695</ele>
        <time>2024-09-17T09:53:54Z</time>
      </trkpt>
      <trkpt lat="42.46665" lon="2.29214">
        <ele>1696</ele>
        <time>2024-09-17T09:53:56Z</time>
      </trkpt>
      <trkpt lat="42.46668" lon="2.29213">
        <ele>1695</ele>
        <time>2024-09-17T09:53:59Z</time>
      </trkpt>
      <trkpt lat="42.46671" lon="2.29213">
        <ele>1695</ele>
        <time>2024-09-17T09:54:02Z</time>
      </trkpt>
      <trkpt lat="42.46674" lon="2.29212">
        <ele>1695</ele>
        <time>2024-09-17T09:54:05Z</time>
      </trkpt>
      <trkpt lat="42.46678" lon="2.29213">
        <ele>1695</ele>
        <time>2024-09-17T09:54:08Z</time>
      </trkpt>
      <trkpt lat="42.4668" lon="2.29214">
        <ele>1695</ele>
        <time>2024-09-17T09:54:11Z</time>
      </trkpt>
      <trkpt lat="42.46683" lon="2.29213">
        <ele>1695</ele>
        <time>2024-09-17T09:54:14Z</time>
      </trkpt>
      <trkpt lat="42.46686" lon="2.29212">
        <ele>1695</ele>
        <time>2024-09-17T09:54:17Z</time>
      </trkpt>
      <trkpt lat="42.46689" lon="2.29211">
        <ele>1694</ele>
        <time>2024-09-17T09:54:20Z</time>
      </trkpt>
      <trkpt lat="42.46693" lon="2.2921">
        <ele>1695</ele>
        <time>2024-09-17T09:54:23Z</time>
      </trkpt>
      <trkpt lat="42.46696" lon="2.29209">
        <ele>1694</ele>
        <time>2024-09-17T09:54:26Z</time>
      </trkpt>
      <trkpt lat="42.46699" lon="2.29209">
        <ele>1694</ele>
        <time>2024-09-17T09:54:28Z</time>
      </trkpt>
      <trkpt lat="42.46701" lon="2.29211">
        <ele>1693</ele>
        <time>2024-09-17T09:54:33Z</time>
      </trkpt>
      <trkpt lat="42.46704" lon="2.29213">
        <ele>1691</ele>
        <time>2024-09-17T09:54:37Z</time>
      </trkpt>
      <trkpt lat="42.46706" lon="2.29214">
        <ele>1691</ele>
        <time>2024-09-17T09:54:40Z</time>
      </trkpt>
      <trkpt lat="42.46709" lon="2.29217">
        <ele>1690</ele>
        <time>2024-09-17T09:54:44Z</time>
      </trkpt>
      <trkpt lat="42.46711" lon="2.2922">
        <ele>1690</ele>
        <time>2024-09-17T09:54:47Z</time>
      </trkpt>
      <trkpt lat="42.46712" lon="2.29223">
        <ele>1690</ele>
        <time>2024-09-17T09:54:50Z</time>
      </trkpt>
      <trkpt lat="42.46715" lon="2.29226">
        <ele>1689</ele>
        <time>2024-09-17T09:54:55Z</time>
      </trkpt>
      <trkpt lat="42.46717" lon="2.29228">
        <ele>1688</ele>
        <time>2024-09-17T09:54:58Z</time>
      </trkpt>
      <trkpt lat="42.4672" lon="2.2923">
        <ele>1688</ele>
        <time>2024-09-17T09:55:02Z</time>
      </trkpt>
      <trkpt lat="42.46721" lon="2.29234">
        <ele>1690</ele>
        <time>2024-09-17T09:55:25Z</time>
      </trkpt>
      <trkpt lat="42.46723" lon="2.29237">
        <ele>1689</ele>
        <time>2024-09-17T09:55:29Z</time>
      </trkpt>
      <trkpt lat="42.46726" lon="2.29241">
        <ele>1688</ele>
        <time>2024-09-17T09:55:33Z</time>
      </trkpt>
      <trkpt lat="42.46728" lon="2.29244">
        <ele>1687</ele>
        <time>2024-09-17T09:55:36Z</time>
      </trkpt>
      <trkpt lat="42.4673" lon="2.29247">
        <ele>1687</ele>
        <time>2024-09-17T09:55:40Z</time>
      </trkpt>
      <trkpt lat="42.46733" lon="2.29249">
        <ele>1686</ele>
        <time>2024-09-17T09:55:43Z</time>
      </trkpt>
      <trkpt lat="42.46736" lon="2.29253">
        <ele>1685</ele>
        <time>2024-09-17T09:55:46Z</time>
      </trkpt>
      <trkpt lat="42.46738" lon="2.29256">
        <ele>1684</ele>
        <time>2024-09-17T09:55:49Z</time>
      </trkpt>
      <trkpt lat="42.46739" lon="2.2926">
        <ele>1683</ele>
        <time>2024-09-17T09:55:52Z</time>
      </trkpt>
      <trkpt lat="42.46742" lon="2.29263">
        <ele>1682</ele>
        <time>2024-09-17T09:55:55Z</time>
      </trkpt>
      <trkpt lat="42.46743" lon="2.29267">
        <ele>1682</ele>
        <time>2024-09-17T09:55:58Z</time>
      </trkpt>
      <trkpt lat="42.46745" lon="2.29271">
        <ele>1680</ele>
        <time>2024-09-17T09:56:01Z</time>
      </trkpt>
      <trkpt lat="42.46748" lon="2.29274">
        <ele>1680</ele>
        <time>2024-09-17T09:56:04Z</time>
      </trkpt>
      <trkpt lat="42.46749" lon="2.29278">
        <ele>1679</ele>
        <time>2024-09-17T09:56:07Z</time>
      </trkpt>
      <trkpt lat="42.4675" lon="2.29282">
        <ele>1678</ele>
        <time>2024-09-17T09:56:10Z</time>
      </trkpt>
      <trkpt lat="42.46751" lon="2.29286">
        <ele>1677</ele>
        <time>2024-09-17T09:56:13Z</time>
      </trkpt>
      <trkpt lat="42.46753" lon="2.29289">
        <ele>1676</ele>
        <time>2024-09-17T09:56:17Z</time>
      </trkpt>
      <trkpt lat="42.46755" lon="2.29293">
        <ele>1674</ele>
        <time>2024-09-17T09:56:28Z</time>
      </trkpt>
      <trkpt lat="42.46758" lon="2.29296">
        <ele>1674</ele>
        <time>2024-09-17T09:56:55Z</time>
      </trkpt>
      <trkpt lat="42.4676" lon="2.29299">
        <ele>1673</ele>
        <time>2024-09-17T09:56:58Z</time>
      </trkpt>
      <trkpt lat="42.46762" lon="2.29302">
        <ele>1673</ele>
        <time>2024-09-17T09:57:01Z</time>
      </trkpt>
      <trkpt lat="42.46764" lon="2.29305">
        <ele>1672</ele>
        <time>2024-09-17T09:57:07Z</time>
      </trkpt>
      <trkpt lat="42.46766" lon="2.29308">
        <ele>1672</ele>
        <time>2024-09-17T09:57:09Z</time>
      </trkpt>
      <trkpt lat="42.46769" lon="2.29311">
        <ele>1671</ele>
        <time>2024-09-17T09:57:12Z</time>
      </trkpt>
      <trkpt lat="42.46771" lon="2.29314">
        <ele>1671</ele>
        <time>2024-09-17T09:57:15Z</time>
      </trkpt>
      <trkpt lat="42.46773" lon="2.29314">
        <ele>1671</ele>
        <time>2024-09-17T09:57:17Z</time>
      </trkpt>
      <trkpt lat="42.46776" lon="2.29316">
        <ele>1671</ele>
        <time>2024-09-17T09:57:21Z</time>
      </trkpt>
      <trkpt lat="42.46779" lon="2.29318">
        <ele>1672</ele>
        <time>2024-09-17T09:57:23Z</time>
      </trkpt>
      <trkpt lat="42.46781" lon="2.29322">
        <ele>1671</ele>
        <time>2024-09-17T09:57:27Z</time>
      </trkpt>
      <trkpt lat="42.46783" lon="2.29324">
        <ele>1670</ele>
        <time>2024-09-17T09:57:30Z</time>
      </trkpt>
      <trkpt lat="42.46786" lon="2.29328">
        <ele>1669</ele>
        <time>2024-09-17T09:57:33Z</time>
      </trkpt>
      <trkpt lat="42.46788" lon="2.29332">
        <ele>1669</ele>
        <time>2024-09-17T09:57:36Z</time>
      </trkpt>
      <trkpt lat="42.4679" lon="2.29336">
        <ele>1668</ele>
        <time>2024-09-17T09:57:39Z</time>
      </trkpt>
      <trkpt lat="42.46792" lon="2.29339">
        <ele>1668</ele>
        <time>2024-09-17T09:57:42Z</time>
      </trkpt>
      <trkpt lat="42.46794" lon="2.29343">
        <ele>1667</ele>
        <time>2024-09-17T09:57:45Z</time>
      </trkpt>
      <trkpt lat="42.46796" lon="2.29347">
        <ele>1665</ele>
        <time>2024-09-17T09:57:48Z</time>
      </trkpt>
      <trkpt lat="42.46797" lon="2.29351">
        <ele>1665</ele>
        <time>2024-09-17T09:57:51Z</time>
      </trkpt>
      <trkpt lat="42.468" lon="2.29353">
        <ele>1665</ele>
        <time>2024-09-17T09:57:54Z</time>
      </trkpt>
      <trkpt lat="42.46803" lon="2.29356">
        <ele>1665</ele>
        <time>2024-09-17T09:57:58Z</time>
      </trkpt>
      <trkpt lat="42.46807" lon="2.29358">
        <ele>1665</ele>
        <time>2024-09-17T09:58:00Z</time>
      </trkpt>
      <trkpt lat="42.46809" lon="2.29361">
        <ele>1664</ele>
        <time>2024-09-17T09:58:02Z</time>
      </trkpt>
      <trkpt lat="42.46811" lon="2.29364">
        <ele>1663</ele>
        <time>2024-09-17T09:58:05Z</time>
      </trkpt>
      <trkpt lat="42.46813" lon="2.29367">
        <ele>1663</ele>
        <time>2024-09-17T09:58:07Z</time>
      </trkpt>
      <trkpt lat="42.46816" lon="2.29369">
        <ele>1663</ele>
        <time>2024-09-17T09:58:09Z</time>
      </trkpt>
      <trkpt lat="42.46819" lon="2.29372">
        <ele>1661</ele>
        <time>2024-09-17T09:58:12Z</time>
      </trkpt>
      <trkpt lat="42.46822" lon="2.29374">
        <ele>1661</ele>
        <time>2024-09-17T09:58:15Z</time>
      </trkpt>
      <trkpt lat="42.46825" lon="2.29375">
        <ele>1661</ele>
        <time>2024-09-17T09:58:18Z</time>
      </trkpt>
      <trkpt lat="42.46828" lon="2.29377">
        <ele>1660</ele>
        <time>2024-09-17T09:58:21Z</time>
      </trkpt>
      <trkpt lat="42.46829" lon="2.29381">
        <ele>1659</ele>
        <time>2024-09-17T09:58:24Z</time>
      </trkpt>
      <trkpt lat="42.46831" lon="2.29384">
        <ele>1659</ele>
        <time>2024-09-17T09:58:27Z</time>
      </trkpt>
      <trkpt lat="42.46833" lon="2.29388">
        <ele>1658</ele>
        <time>2024-09-17T09:58:31Z</time>
      </trkpt>
      <trkpt lat="42.46835" lon="2.2939">
        <ele>1656</ele>
        <time>2024-09-17T09:58:35Z</time>
      </trkpt>
      <trkpt lat="42.46837" lon="2.29392">
        <ele>1655</ele>
        <time>2024-09-17T09:58:51Z</time>
      </trkpt>
      <trkpt lat="42.46838" lon="2.29396">
        <ele>1655</ele>
        <time>2024-09-17T09:58:55Z</time>
      </trkpt>
      <trkpt lat="42.46836" lon="2.294">
        <ele>1655</ele>
        <time>2024-09-17T09:58:58Z</time>
      </trkpt>
      <trkpt lat="42.46835" lon="2.29404">
        <ele>1655</ele>
        <time>2024-09-17T09:59:01Z</time>
      </trkpt>
      <trkpt lat="42.46837" lon="2.29406">
        <ele>1655</ele>
        <time>2024-09-17T09:59:10Z</time>
      </trkpt>
      <trkpt lat="42.46839" lon="2.29406">
        <ele>1653</ele>
        <time>2024-09-17T09:59:13Z</time>
      </trkpt>
      <trkpt lat="42.46841" lon="2.29407">
        <ele>1652</ele>
        <time>2024-09-17T09:59:15Z</time>
      </trkpt>
      <trkpt lat="42.46844" lon="2.29408">
        <ele>1651</ele>
        <time>2024-09-17T09:59:20Z</time>
      </trkpt>
      <trkpt lat="42.46844" lon="2.29412">
        <ele>1651</ele>
        <time>2024-09-17T09:59:24Z</time>
      </trkpt>
      <trkpt lat="42.46843" lon="2.29414">
        <ele>1651</ele>
        <time>2024-09-17T09:59:26Z</time>
      </trkpt>
      <trkpt lat="42.46842" lon="2.29418">
        <ele>1650</ele>
        <time>2024-09-17T09:59:29Z</time>
      </trkpt>
      <trkpt lat="42.46843" lon="2.29421">
        <ele>1650</ele>
        <time>2024-09-17T09:59:37Z</time>
      </trkpt>
      <trkpt lat="42.46842" lon="2.29426">
        <ele>1649</ele>
        <time>2024-09-17T09:59:40Z</time>
      </trkpt>
      <trkpt lat="42.46844" lon="2.29428">
        <ele>1648</ele>
        <time>2024-09-17T09:59:43Z</time>
      </trkpt>
      <trkpt lat="42.46845" lon="2.29427">
        <ele>1648</ele>
        <time>2024-09-17T09:59:45Z</time>
      </trkpt>
      <trkpt lat="42.46847" lon="2.29424">
        <ele>1646</ele>
        <time>2024-09-17T09:59:48Z</time>
      </trkpt>
      <trkpt lat="42.46849" lon="2.29421">
        <ele>1644</ele>
        <time>2024-09-17T09:59:54Z</time>
      </trkpt>
      <trkpt lat="42.46851" lon="2.29421">
        <ele>1643</ele>
        <time>2024-09-17T09:59:58Z</time>
      </trkpt>
      <trkpt lat="42.46854" lon="2.29421">
        <ele>1643</ele>
        <time>2024-09-17T10:00:01Z</time>
      </trkpt>
      <trkpt lat="42.46857" lon="2.29422">
        <ele>1643</ele>
        <time>2024-09-17T10:00:04Z</time>
      </trkpt>
      <trkpt lat="42.46859" lon="2.29424">
        <ele>1644</ele>
        <time>2024-09-17T10:00:07Z</time>
      </trkpt>
      <trkpt lat="42.4686" lon="2.29427">
        <ele>1644</ele>
        <time>2024-09-17T10:00:11Z</time>
      </trkpt>
      <trkpt lat="42.46862" lon="2.29431">
        <ele>1642</ele>
        <time>2024-09-17T10:00:14Z</time>
      </trkpt>
      <trkpt lat="42.46865" lon="2.29434">
        <ele>1641</ele>
        <time>2024-09-17T10:00:17Z</time>
      </trkpt>
      <trkpt lat="42.46867" lon="2.29437">
        <ele>1641</ele>
        <time>2024-09-17T10:00:19Z</time>
      </trkpt>
      <trkpt lat="42.46868" lon="2.29441">
        <ele>1641</ele>
        <time>2024-09-17T10:00:22Z</time>
      </trkpt>
      <trkpt lat="42.4687" lon="2.29444">
        <ele>1640</ele>
        <time>2024-09-17T10:00:25Z</time>
      </trkpt>
      <trkpt lat="42.46872" lon="2.29447">
        <ele>1640</ele>
        <time>2024-09-17T10:00:28Z</time>
      </trkpt>
      <trkpt lat="42.46874" lon="2.29451">
        <ele>1639</ele>
        <time>2024-09-17T10:00:32Z</time>
      </trkpt>
      <trkpt lat="42.46876" lon="2.29454">
        <ele>1638</ele>
        <time>2024-09-17T10:00:36Z</time>
      </trkpt>
      <trkpt lat="42.46879" lon="2.29455">
        <ele>1639</ele>
        <time>2024-09-17T10:00:39Z</time>
      </trkpt>
      <trkpt lat="42.46883" lon="2.29456">
        <ele>1638</ele>
        <time>2024-09-17T10:00:42Z</time>
      </trkpt>
      <trkpt lat="42.46886" lon="2.29455">
        <ele>1637</ele>
        <time>2024-09-17T10:00:45Z</time>
      </trkpt>
      <trkpt lat="42.4689" lon="2.29456">
        <ele>1636</ele>
        <time>2024-09-17T10:00:50Z</time>
      </trkpt>
      <trkpt lat="42.46892" lon="2.29459">
        <ele>1634</ele>
        <time>2024-09-17T10:00:54Z</time>
      </trkpt>
      <trkpt lat="42.46895" lon="2.29461">
        <ele>1634</ele>
        <time>2024-09-17T10:00:56Z</time>
      </trkpt>
      <trkpt lat="42.46898" lon="2.29463">
        <ele>1634</ele>
        <time>2024-09-17T10:01:00Z</time>
      </trkpt>
      <trkpt lat="42.469" lon="2.29465">
        <ele>1634</ele>
        <time>2024-09-17T10:01:04Z</time>
      </trkpt>
      <trkpt lat="42.46903" lon="2.29467">
        <ele>1634</ele>
        <time>2024-09-17T10:01:08Z</time>
      </trkpt>
      <trkpt lat="42.46905" lon="2.29469">
        <ele>1634</ele>
        <time>2024-09-17T10:01:13Z</time>
      </trkpt>
      <trkpt lat="42.46907" lon="2.29472">
        <ele>1633</ele>
        <time>2024-09-17T10:01:17Z</time>
      </trkpt>
      <trkpt lat="42.46909" lon="2.29474">
        <ele>1633</ele>
        <time>2024-09-17T10:01:20Z</time>
      </trkpt>
      <trkpt lat="42.46911" lon="2.29477">
        <ele>1632</ele>
        <time>2024-09-17T10:01:23Z</time>
      </trkpt>
      <trkpt lat="42.46913" lon="2.2948">
        <ele>1631</ele>
        <time>2024-09-17T10:01:27Z</time>
      </trkpt>
      <trkpt lat="42.46915" lon="2.29483">
        <ele>1631</ele>
        <time>2024-09-17T10:01:31Z</time>
      </trkpt>
      <trkpt lat="42.46918" lon="2.29486">
        <ele>1630</ele>
        <time>2024-09-17T10:01:36Z</time>
      </trkpt>
      <trkpt lat="42.4692" lon="2.29489">
        <ele>1629</ele>
        <time>2024-09-17T10:01:41Z</time>
      </trkpt>
      <trkpt lat="42.46923" lon="2.29491">
        <ele>1629</ele>
        <time>2024-09-17T10:01:44Z</time>
      </trkpt>
      <trkpt lat="42.46925" lon="2.29494">
        <ele>1628</ele>
        <time>2024-09-17T10:01:48Z</time>
      </trkpt>
      <trkpt lat="42.46928" lon="2.29497">
        <ele>1628</ele>
        <time>2024-09-17T10:01:50Z</time>
      </trkpt>
      <trkpt lat="42.4693" lon="2.29497">
        <ele>1627</ele>
        <time>2024-09-17T10:01:53Z</time>
      </trkpt>
      <trkpt lat="42.46933" lon="2.29498">
        <ele>1627</ele>
        <time>2024-09-17T10:01:56Z</time>
      </trkpt>
      <trkpt lat="42.46936" lon="2.295">
        <ele>1625</ele>
        <time>2024-09-17T10:02:01Z</time>
      </trkpt>
      <trkpt lat="42.46938" lon="2.29502">
        <ele>1624</ele>
        <time>2024-09-17T10:02:06Z</time>
      </trkpt>
      <trkpt lat="42.46941" lon="2.29504">
        <ele>1624</ele>
        <time>2024-09-17T10:02:09Z</time>
      </trkpt>
      <trkpt lat="42.46942" lon="2.29507">
        <ele>1623</ele>
        <time>2024-09-17T10:02:14Z</time>
      </trkpt>
      <trkpt lat="42.46945" lon="2.29509">
        <ele>1623</ele>
        <time>2024-09-17T10:02:18Z</time>
      </trkpt>
      <trkpt lat="42.46948" lon="2.29512">
        <ele>1622</ele>
        <time>2024-09-17T10:02:23Z</time>
      </trkpt>
      <trkpt lat="42.4695" lon="2.29515">
        <ele>1622</ele>
        <time>2024-09-17T10:02:26Z</time>
      </trkpt>
      <trkpt lat="42.46953" lon="2.29518">
        <ele>1622</ele>
        <time>2024-09-17T10:02:30Z</time>
      </trkpt>
      <trkpt lat="42.46955" lon="2.2952">
        <ele>1620</ele>
        <time>2024-09-17T10:02:35Z</time>
      </trkpt>
      <trkpt lat="42.46958" lon="2.29522">
        <ele>1620</ele>
        <time>2024-09-17T10:02:37Z</time>
      </trkpt>
      <trkpt lat="42.4696" lon="2.29524">
        <ele>1619</ele>
        <time>2024-09-17T10:02:42Z</time>
      </trkpt>
      <trkpt lat="42.46964" lon="2.29525">
        <ele>1618</ele>
        <time>2024-09-17T10:02:46Z</time>
      </trkpt>
      <trkpt lat="42.46967" lon="2.29527">
        <ele>1618</ele>
        <time>2024-09-17T10:02:49Z</time>
      </trkpt>
      <trkpt lat="42.46969" lon="2.29529">
        <ele>1618</ele>
        <time>2024-09-17T10:02:52Z</time>
      </trkpt>
      <trkpt lat="42.46972" lon="2.29531">
        <ele>1617</ele>
        <time>2024-09-17T10:02:57Z</time>
      </trkpt>
      <trkpt lat="42.46975" lon="2.29531">
        <ele>1617</ele>
        <time>2024-09-17T10:03:00Z</time>
      </trkpt>
      <trkpt lat="42.46978" lon="2.29531">
        <ele>1617</ele>
        <time>2024-09-17T10:03:05Z</time>
      </trkpt>
      <trkpt lat="42.46981" lon="2.29531">
        <ele>1617</ele>
        <time>2024-09-17T10:03:09Z</time>
      </trkpt>
      <trkpt lat="42.46984" lon="2.2953">
        <ele>1616</ele>
        <time>2024-09-17T10:03:13Z</time>
      </trkpt>
      <trkpt lat="42.46988" lon="2.2953">
        <ele>1617</ele>
        <time>2024-09-17T10:03:17Z</time>
      </trkpt>
      <trkpt lat="42.46991" lon="2.29531">
        <ele>1617</ele>
        <time>2024-09-17T10:03:20Z</time>
      </trkpt>
      <trkpt lat="42.46994" lon="2.29532">
        <ele>1616</ele>
        <time>2024-09-17T10:03:23Z</time>
      </trkpt>
      <trkpt lat="42.46997" lon="2.29532">
        <ele>1616</ele>
        <time>2024-09-17T10:03:27Z</time>
      </trkpt>
      <trkpt lat="42.47001" lon="2.29532">
        <ele>1614</ele>
        <time>2024-09-17T10:03:30Z</time>
      </trkpt>
      <trkpt lat="42.47004" lon="2.29533">
        <ele>1614</ele>
        <time>2024-09-17T10:03:35Z</time>
      </trkpt>
      <trkpt lat="42.47007" lon="2.29534">
        <ele>1615</ele>
        <time>2024-09-17T10:03:38Z</time>
      </trkpt>
      <trkpt lat="42.4701" lon="2.29535">
        <ele>1613</ele>
        <time>2024-09-17T10:03:42Z</time>
      </trkpt>
      <trkpt lat="42.47013" lon="2.29535">
        <ele>1614</ele>
        <time>2024-09-17T10:03:46Z</time>
      </trkpt>
      <trkpt lat="42.47016" lon="2.29536">
        <ele>1613</ele>
        <time>2024-09-17T10:03:50Z</time>
      </trkpt>
      <trkpt lat="42.47019" lon="2.29538">
        <ele>1614</ele>
        <time>2024-09-17T10:03:54Z</time>
      </trkpt>
      <trkpt lat="42.47022" lon="2.29539">
        <ele>1613</ele>
        <time>2024-09-17T10:04:01Z</time>
      </trkpt>
      <trkpt lat="42.47025" lon="2.29541">
        <ele>1614</ele>
        <time>2024-09-17T10:04:04Z</time>
      </trkpt>
      <trkpt lat="42.47028" lon="2.29542">
        <ele>1614</ele>
        <time>2024-09-17T10:04:08Z</time>
      </trkpt>
      <trkpt lat="42.47031" lon="2.29543">
        <ele>1614</ele>
        <time>2024-09-17T10:04:12Z</time>
      </trkpt>
      <trkpt lat="42.47034" lon="2.29544">
        <ele>1612</ele>
        <time>2024-09-17T10:04:16Z</time>
      </trkpt>
      <trkpt lat="42.47037" lon="2.29545">
        <ele>1613</ele>
        <time>2024-09-17T10:04:19Z</time>
      </trkpt>
      <trkpt lat="42.4704" lon="2.29547">
        <ele>1612</ele>
        <time>2024-09-17T10:04:22Z</time>
      </trkpt>
      <trkpt lat="42.47044" lon="2.29549">
        <ele>1612</ele>
        <time>2024-09-17T10:04:26Z</time>
      </trkpt>
      <trkpt lat="42.47047" lon="2.29551">
        <ele>1612</ele>
        <time>2024-09-17T10:04:31Z</time>
      </trkpt>
      <trkpt lat="42.47049" lon="2.29551">
        <ele>1612</ele>
        <time>2024-09-17T10:04:34Z</time>
      </trkpt>
      <trkpt lat="42.47052" lon="2.29553">
        <ele>1612</ele>
        <time>2024-09-17T10:04:37Z</time>
      </trkpt>
      <trkpt lat="42.47055" lon="2.29553">
        <ele>1612</ele>
        <time>2024-09-17T10:04:40Z</time>
      </trkpt>
      <trkpt lat="42.47059" lon="2.29552">
        <ele>1611</ele>
        <time>2024-09-17T10:04:44Z</time>
      </trkpt>
      <trkpt lat="42.47062" lon="2.29551">
        <ele>1609</ele>
        <time>2024-09-17T10:04:48Z</time>
      </trkpt>
      <trkpt lat="42.47064" lon="2.29553">
        <ele>1609</ele>
        <time>2024-09-17T10:04:55Z</time>
      </trkpt>
      <trkpt lat="42.47066" lon="2.29556">
        <ele>1608</ele>
        <time>2024-09-17T10:04:59Z</time>
      </trkpt>
      <trkpt lat="42.47066" lon="2.29561">
        <ele>1607</ele>
        <time>2024-09-17T10:05:03Z</time>
      </trkpt>
      <trkpt lat="42.47066" lon="2.29565">
        <ele>1606</ele>
        <time>2024-09-17T10:05:06Z</time>
      </trkpt>
      <trkpt lat="42.47067" lon="2.29569">
        <ele>1605</ele>
        <time>2024-09-17T10:05:10Z</time>
      </trkpt>
      <trkpt lat="42.4707" lon="2.29572">
        <ele>1605</ele>
        <time>2024-09-17T10:05:13Z</time>
      </trkpt>
      <trkpt lat="42.47072" lon="2.29574">
        <ele>1604</ele>
        <time>2024-09-17T10:05:18Z</time>
      </trkpt>
      <trkpt lat="42.47075" lon="2.29575">
        <ele>1603</ele>
        <time>2024-09-17T10:05:21Z</time>
      </trkpt>
      <trkpt lat="42.47078" lon="2.29577">
        <ele>1603</ele>
        <time>2024-09-17T10:05:24Z</time>
      </trkpt>
      <trkpt lat="42.4708" lon="2.29579">
        <ele>1602</ele>
        <time>2024-09-17T10:05:27Z</time>
      </trkpt>
      <trkpt lat="42.47083" lon="2.29581">
        <ele>1601</ele>
        <time>2024-09-17T10:05:31Z</time>
      </trkpt>
      <trkpt lat="42.47085" lon="2.29583">
        <ele>1601</ele>
        <time>2024-09-17T10:05:33Z</time>
      </trkpt>
      <trkpt lat="42.47088" lon="2.29585">
        <ele>1601</ele>
        <time>2024-09-17T10:05:37Z</time>
      </trkpt>
      <trkpt lat="42.4709" lon="2.29588">
        <ele>1601</ele>
        <time>2024-09-17T10:05:39Z</time>
      </trkpt>
      <trkpt lat="42.47092" lon="2.2959">
        <ele>1601</ele>
        <time>2024-09-17T10:05:42Z</time>
      </trkpt>
      <trkpt lat="42.47094" lon="2.29594">
        <ele>1601</ele>
        <time>2024-09-17T10:05:46Z</time>
      </trkpt>
      <trkpt lat="42.47096" lon="2.29596">
        <ele>1600</ele>
        <time>2024-09-17T10:05:54Z</time>
      </trkpt>
      <trkpt lat="42.47098" lon="2.29599">
        <ele>1599</ele>
        <time>2024-09-17T10:06:08Z</time>
      </trkpt>
      <trkpt lat="42.471" lon="2.29603">
        <ele>1599</ele>
        <time>2024-09-17T10:06:13Z</time>
      </trkpt>
      <trkpt lat="42.47103" lon="2.29605">
        <ele>1599</ele>
        <time>2024-09-17T10:06:20Z</time>
      </trkpt>
      <trkpt lat="42.47105" lon="2.29609">
        <ele>1598</ele>
        <time>2024-09-17T10:06:24Z</time>
      </trkpt>
      <trkpt lat="42.47107" lon="2.29612">
        <ele>1595</ele>
        <time>2024-09-17T10:06:47Z</time>
      </trkpt>
      <trkpt lat="42.47109" lon="2.29615">
        <ele>1596</ele>
        <time>2024-09-17T10:06:49Z</time>
      </trkpt>
      <trkpt lat="42.47111" lon="2.29617">
        <ele>1595</ele>
        <time>2024-09-17T10:06:52Z</time>
      </trkpt>
      <trkpt lat="42.47114" lon="2.2962">
        <ele>1594</ele>
        <time>2024-09-17T10:06:55Z</time>
      </trkpt>
      <trkpt lat="42.47116" lon="2.29622">
        <ele>1594</ele>
        <time>2024-09-17T10:06:58Z</time>
      </trkpt>
      <trkpt lat="42.47119" lon="2.29624">
        <ele>1594</ele>
        <time>2024-09-17T10:07:00Z</time>
      </trkpt>
      <trkpt lat="42.47121" lon="2.29627">
        <ele>1594</ele>
        <time>2024-09-17T10:07:03Z</time>
      </trkpt>
      <trkpt lat="42.47123" lon="2.29629">
        <ele>1593</ele>
        <time>2024-09-17T10:07:08Z</time>
      </trkpt>
      <trkpt lat="42.47126" lon="2.29632">
        <ele>1593</ele>
        <time>2024-09-17T10:07:11Z</time>
      </trkpt>
      <trkpt lat="42.47129" lon="2.29633">
        <ele>1592</ele>
        <time>2024-09-17T10:07:15Z</time>
      </trkpt>
      <trkpt lat="42.47131" lon="2.29636">
        <ele>1592</ele>
        <time>2024-09-17T10:07:19Z</time>
      </trkpt>
      <trkpt lat="42.47134" lon="2.29638">
        <ele>1591</ele>
        <time>2024-09-17T10:07:23Z</time>
      </trkpt>
      <trkpt lat="42.47136" lon="2.29641">
        <ele>1591</ele>
        <time>2024-09-17T10:07:26Z</time>
      </trkpt>
      <trkpt lat="42.47138" lon="2.29644">
        <ele>1590</ele>
        <time>2024-09-17T10:07:29Z</time>
      </trkpt>
      <trkpt lat="42.4714" lon="2.29646">
        <ele>1590</ele>
        <time>2024-09-17T10:07:33Z</time>
      </trkpt>
      <trkpt lat="42.47143" lon="2.29648">
        <ele>1589</ele>
        <time>2024-09-17T10:07:36Z</time>
      </trkpt>
      <trkpt lat="42.47144" lon="2.29651">
        <ele>1589</ele>
        <time>2024-09-17T10:07:39Z</time>
      </trkpt>
      <trkpt lat="42.47147" lon="2.29654">
        <ele>1588</ele>
        <time>2024-09-17T10:07:41Z</time>
      </trkpt>
      <trkpt lat="42.47148" lon="2.29658">
        <ele>1587</ele>
        <time>2024-09-17T10:07:44Z</time>
      </trkpt>
      <trkpt lat="42.47151" lon="2.29661">
        <ele>1586</ele>
        <time>2024-09-17T10:07:47Z</time>
      </trkpt>
      <trkpt lat="42.47153" lon="2.29664">
        <ele>1585</ele>
        <time>2024-09-17T10:07:50Z</time>
      </trkpt>
      <trkpt lat="42.47155" lon="2.29666">
        <ele>1585</ele>
        <time>2024-09-17T10:07:53Z</time>
      </trkpt>
      <trkpt lat="42.47158" lon="2.29669">
        <ele>1585</ele>
        <time>2024-09-17T10:07:56Z</time>
      </trkpt>
      <trkpt lat="42.4716" lon="2.29672">
        <ele>1585</ele>
        <time>2024-09-17T10:07:59Z</time>
      </trkpt>
      <trkpt lat="42.47162" lon="2.29676">
        <ele>1584</ele>
        <time>2024-09-17T10:08:02Z</time>
      </trkpt>
      <trkpt lat="42.47165" lon="2.29679">
        <ele>1584</ele>
        <time>2024-09-17T10:08:06Z</time>
      </trkpt>
      <trkpt lat="42.47167" lon="2.29683">
        <ele>1583</ele>
        <time>2024-09-17T10:08:09Z</time>
      </trkpt>
      <trkpt lat="42.4717" lon="2.29686">
        <ele>1583</ele>
        <time>2024-09-17T10:08:12Z</time>
      </trkpt>
      <trkpt lat="42.47171" lon="2.29689">
        <ele>1583</ele>
        <time>2024-09-17T10:08:15Z</time>
      </trkpt>
      <trkpt lat="42.47174" lon="2.29692">
        <ele>1581</ele>
        <time>2024-09-17T10:08:18Z</time>
      </trkpt>
      <trkpt lat="42.47176" lon="2.29695">
        <ele>1580</ele>
        <time>2024-09-17T10:08:21Z</time>
      </trkpt>
      <trkpt lat="42.47179" lon="2.29697">
        <ele>1580</ele>
        <time>2024-09-17T10:08:24Z</time>
      </trkpt>
      <trkpt lat="42.47182" lon="2.29699">
        <ele>1580</ele>
        <time>2024-09-17T10:08:27Z</time>
      </trkpt>
      <trkpt lat="42.47184" lon="2.29701">
        <ele>1579</ele>
        <time>2024-09-17T10:08:31Z</time>
      </trkpt>
      <trkpt lat="42.47186" lon="2.297">
        <ele>1578</ele>
        <time>2024-09-17T10:08:38Z</time>
      </trkpt>
      <trkpt lat="42.47188" lon="2.29701">
        <ele>1579</ele>
        <time>2024-09-17T10:08:58Z</time>
      </trkpt>
      <trkpt lat="42.47191" lon="2.29704">
        <ele>1580</ele>
        <time>2024-09-17T10:09:00Z</time>
      </trkpt>
      <trkpt lat="42.47194" lon="2.29706">
        <ele>1578</ele>
        <time>2024-09-17T10:09:03Z</time>
      </trkpt>
      <trkpt lat="42.47196" lon="2.29708">
        <ele>1578</ele>
        <time>2024-09-17T10:09:05Z</time>
      </trkpt>
      <trkpt lat="42.47199" lon="2.29711">
        <ele>1577</ele>
        <time>2024-09-17T10:09:08Z</time>
      </trkpt>
      <trkpt lat="42.47202" lon="2.29714">
        <ele>1579</ele>
        <time>2024-09-17T10:09:11Z</time>
      </trkpt>
      <trkpt lat="42.47204" lon="2.29717">
        <ele>1577</ele>
        <time>2024-09-17T10:09:14Z</time>
      </trkpt>
      <trkpt lat="42.47206" lon="2.2972">
        <ele>1577</ele>
        <time>2024-09-17T10:09:17Z</time>
      </trkpt>
      <trkpt lat="42.47209" lon="2.29723">
        <ele>1577</ele>
        <time>2024-09-17T10:09:19Z</time>
      </trkpt>
      <trkpt lat="42.47212" lon="2.29725">
        <ele>1576</ele>
        <time>2024-09-17T10:09:22Z</time>
      </trkpt>
      <trkpt lat="42.47215" lon="2.29729">
        <ele>1577</ele>
        <time>2024-09-17T10:09:25Z</time>
      </trkpt>
      <trkpt lat="42.47217" lon="2.29732">
        <ele>1576</ele>
        <time>2024-09-17T10:09:27Z</time>
      </trkpt>
      <trkpt lat="42.47218" lon="2.29736">
        <ele>1575</ele>
        <time>2024-09-17T10:09:30Z</time>
      </trkpt>
      <trkpt lat="42.47221" lon="2.2974">
        <ele>1574</ele>
        <time>2024-09-17T10:09:33Z</time>
      </trkpt>
      <trkpt lat="42.47223" lon="2.29742">
        <ele>1573</ele>
        <time>2024-09-17T10:09:35Z</time>
      </trkpt>
      <trkpt lat="42.47226" lon="2.29745">
        <ele>1573</ele>
        <time>2024-09-17T10:09:38Z</time>
      </trkpt>
      <trkpt lat="42.47227" lon="2.29748">
        <ele>1572</ele>
        <time>2024-09-17T10:09:41Z</time>
      </trkpt>
      <trkpt lat="42.47228" lon="2.29752">
        <ele>1572</ele>
        <time>2024-09-17T10:10:00Z</time>
      </trkpt>
      <trkpt lat="42.4723" lon="2.29756">
        <ele>1571</ele>
        <time>2024-09-17T10:10:03Z</time>
      </trkpt>
      <trkpt lat="42.47232" lon="2.2976">
        <ele>1570</ele>
        <time>2024-09-17T10:10:07Z</time>
      </trkpt>
      <trkpt lat="42.47234" lon="2.29763">
        <ele>1569</ele>
        <time>2024-09-17T10:10:10Z</time>
      </trkpt>
      <trkpt lat="42.47237" lon="2.29768">
        <ele>1568</ele>
        <time>2024-09-17T10:10:14Z</time>
      </trkpt>
      <trkpt lat="42.47239" lon="2.2977">
        <ele>1568</ele>
        <time>2024-09-17T10:10:17Z</time>
      </trkpt>
      <trkpt lat="42.47242" lon="2.29772">
        <ele>1567</ele>
        <time>2024-09-17T10:10:21Z</time>
      </trkpt>
      <trkpt lat="42.47244" lon="2.29775">
        <ele>1562</ele>
        <time>2024-09-17T10:11:49Z</time>
      </trkpt>
      <trkpt lat="42.47247" lon="2.29777">
        <ele>1562</ele>
        <time>2024-09-17T10:11:51Z</time>
      </trkpt>
      <trkpt lat="42.47249" lon="2.2978">
        <ele>1562</ele>
        <time>2024-09-17T10:11:53Z</time>
      </trkpt>
      <trkpt lat="42.47252" lon="2.29783">
        <ele>1561</ele>
        <time>2024-09-17T10:11:56Z</time>
      </trkpt>
      <trkpt lat="42.47254" lon="2.29787">
        <ele>1561</ele>
        <time>2024-09-17T10:11:58Z</time>
      </trkpt>
      <trkpt lat="42.47257" lon="2.29789">
        <ele>1559</ele>
        <time>2024-09-17T10:12:02Z</time>
      </trkpt>
      <trkpt lat="42.4726" lon="2.29791">
        <ele>1558</ele>
        <time>2024-09-17T10:12:05Z</time>
      </trkpt>
      <trkpt lat="42.47263" lon="2.29793">
        <ele>1558</ele>
        <time>2024-09-17T10:12:08Z</time>
      </trkpt>
      <trkpt lat="42.47267" lon="2.29795">
        <ele>1559</ele>
        <time>2024-09-17T10:12:11Z</time>
      </trkpt>
      <trkpt lat="42.4727" lon="2.29796">
        <ele>1557</ele>
        <time>2024-09-17T10:12:16Z</time>
      </trkpt>
      <trkpt lat="42.47274" lon="2.29796">
        <ele>1555</ele>
        <time>2024-09-17T10:12:20Z</time>
      </trkpt>
      <trkpt lat="42.47277" lon="2.29798">
        <ele>1554</ele>
        <time>2024-09-17T10:12:24Z</time>
      </trkpt>
      <trkpt lat="42.4728" lon="2.29801">
        <ele>1553</ele>
        <time>2024-09-17T10:12:28Z</time>
      </trkpt>
      <trkpt lat="42.47282" lon="2.29804">
        <ele>1552</ele>
        <time>2024-09-17T10:12:31Z</time>
      </trkpt>
      <trkpt lat="42.47282" lon="2.29809">
        <ele>1549</ele>
        <time>2024-09-17T10:12:34Z</time>
      </trkpt>
      <trkpt lat="42.47282" lon="2.29813">
        <ele>1548</ele>
        <time>2024-09-17T10:12:37Z</time>
      </trkpt>
      <trkpt lat="42.47284" lon="2.29818">
        <ele>1547</ele>
        <time>2024-09-17T10:12:40Z</time>
      </trkpt>
      <trkpt lat="42.47286" lon="2.29821">
        <ele>1547</ele>
        <time>2024-09-17T10:12:43Z</time>
      </trkpt>
      <trkpt lat="42.47288" lon="2.29825">
        <ele>1546</ele>
        <time>2024-09-17T10:12:46Z</time>
      </trkpt>
      <trkpt lat="42.4729" lon="2.29829">
        <ele>1546</ele>
        <time>2024-09-17T10:12:49Z</time>
      </trkpt>
      <trkpt lat="42.47292" lon="2.29832">
        <ele>1546</ele>
        <time>2024-09-17T10:12:52Z</time>
      </trkpt>
      <trkpt lat="42.47295" lon="2.29835">
        <ele>1546</ele>
        <time>2024-09-17T10:12:54Z</time>
      </trkpt>
      <trkpt lat="42.47297" lon="2.29838">
        <ele>1544</ele>
        <time>2024-09-17T10:12:57Z</time>
      </trkpt>
      <trkpt lat="42.47299" lon="2.29842">
        <ele>1544</ele>
        <time>2024-09-17T10:12:59Z</time>
      </trkpt>
      <trkpt lat="42.47301" lon="2.29845">
        <ele>1545</ele>
        <time>2024-09-17T10:13:02Z</time>
      </trkpt>
      <trkpt lat="42.47303" lon="2.29849">
        <ele>1543</ele>
        <time>2024-09-17T10:13:05Z</time>
      </trkpt>
      <trkpt lat="42.47304" lon="2.29854">
        <ele>1542</ele>
        <time>2024-09-17T10:13:08Z</time>
      </trkpt>
      <trkpt lat="42.47305" lon="2.29858">
        <ele>1541</ele>
        <time>2024-09-17T10:13:11Z</time>
      </trkpt>
      <trkpt lat="42.47305" lon="2.29862">
        <ele>1541</ele>
        <time>2024-09-17T10:13:14Z</time>
      </trkpt>
      <trkpt lat="42.47307" lon="2.29865">
        <ele>1540</ele>
        <time>2024-09-17T10:13:17Z</time>
      </trkpt>
      <trkpt lat="42.47309" lon="2.29869">
        <ele>1538</ele>
        <time>2024-09-17T10:13:21Z</time>
      </trkpt>
      <trkpt lat="42.47312" lon="2.29873">
        <ele>1537</ele>
        <time>2024-09-17T10:13:25Z</time>
      </trkpt>
      <trkpt lat="42.47314" lon="2.29876">
        <ele>1537</ele>
        <time>2024-09-17T10:13:28Z</time>
      </trkpt>
      <trkpt lat="42.47316" lon="2.2988">
        <ele>1537</ele>
        <time>2024-09-17T10:13:30Z</time>
      </trkpt>
      <trkpt lat="42.47318" lon="2.29884">
        <ele>1536</ele>
        <time>2024-09-17T10:13:33Z</time>
      </trkpt>
      <trkpt lat="42.4732" lon="2.29887">
        <ele>1535</ele>
        <time>2024-09-17T10:13:36Z</time>
      </trkpt>
      <trkpt lat="42.47323" lon="2.2989">
        <ele>1535</ele>
        <time>2024-09-17T10:13:39Z</time>
      </trkpt>
      <trkpt lat="42.47325" lon="2.29893">
        <ele>1535</ele>
        <time>2024-09-17T10:13:41Z</time>
      </trkpt>
      <trkpt lat="42.47328" lon="2.29895">
        <ele>1533</ele>
        <time>2024-09-17T10:13:45Z</time>
      </trkpt>
      <trkpt lat="42.47331" lon="2.29898">
        <ele>1532</ele>
        <time>2024-09-17T10:13:48Z</time>
      </trkpt>
      <trkpt lat="42.47332" lon="2.29902">
        <ele>1531</ele>
        <time>2024-09-17T10:13:51Z</time>
      </trkpt>
      <trkpt lat="42.47333" lon="2.29906">
        <ele>1531</ele>
        <time>2024-09-17T10:13:54Z</time>
      </trkpt>
      <trkpt lat="42.47336" lon="2.29909">
        <ele>1530</ele>
        <time>2024-09-17T10:13:56Z</time>
      </trkpt>
      <trkpt lat="42.47339" lon="2.2991">
        <ele>1529</ele>
        <time>2024-09-17T10:13:59Z</time>
      </trkpt>
      <trkpt lat="42.47341" lon="2.29912">
        <ele>1527</ele>
        <time>2024-09-17T10:14:07Z</time>
      </trkpt>
      <trkpt lat="42.47344" lon="2.29915">
        <ele>1528</ele>
        <time>2024-09-17T10:14:10Z</time>
      </trkpt>
      <trkpt lat="42.47345" lon="2.29919">
        <ele>1526</ele>
        <time>2024-09-17T10:14:13Z</time>
      </trkpt>
      <trkpt lat="42.47347" lon="2.29922">
        <ele>1525</ele>
        <time>2024-09-17T10:14:17Z</time>
      </trkpt>
      <trkpt lat="42.4735" lon="2.29923">
        <ele>1523</ele>
        <time>2024-09-17T10:14:20Z</time>
      </trkpt>
      <trkpt lat="42.47353" lon="2.29924">
        <ele>1524</ele>
        <time>2024-09-17T10:14:22Z</time>
      </trkpt>
      <trkpt lat="42.47356" lon="2.29924">
        <ele>1523</ele>
        <time>2024-09-17T10:14:25Z</time>
      </trkpt>
      <trkpt lat="42.47357" lon="2.29926">
        <ele>1522</ele>
        <time>2024-09-17T10:14:27Z</time>
      </trkpt>
      <trkpt lat="42.47356" lon="2.29928">
        <ele>1522</ele>
        <time>2024-09-17T10:14:29Z</time>
      </trkpt>
      <trkpt lat="42.47353" lon="2.29931">
        <ele>1522</ele>
        <time>2024-09-17T10:14:32Z</time>
      </trkpt>
      <trkpt lat="42.47352" lon="2.29935">
        <ele>1521</ele>
        <time>2024-09-17T10:14:35Z</time>
      </trkpt>
      <trkpt lat="42.47351" lon="2.29939">
        <ele>1520</ele>
        <time>2024-09-17T10:14:39Z</time>
      </trkpt>
      <trkpt lat="42.47348" lon="2.29941">
        <ele>1523</ele>
        <time>2024-09-17T10:14:42Z</time>
      </trkpt>
      <trkpt lat="42.47345" lon="2.29943">
        <ele>1523</ele>
        <time>2024-09-17T10:14:44Z</time>
      </trkpt>
      <trkpt lat="42.47343" lon="2.29946">
        <ele>1521</ele>
        <time>2024-09-17T10:14:46Z</time>
      </trkpt>
      <trkpt lat="42.47341" lon="2.29949">
        <ele>1521</ele>
        <time>2024-09-17T10:14:49Z</time>
      </trkpt>
      <trkpt lat="42.4734" lon="2.29953">
        <ele>1519</ele>
        <time>2024-09-17T10:14:52Z</time>
      </trkpt>
      <trkpt lat="42.47339" lon="2.29956">
        <ele>1518</ele>
        <time>2024-09-17T10:14:54Z</time>
      </trkpt>
      <trkpt lat="42.47337" lon="2.29959">
        <ele>1518</ele>
        <time>2024-09-17T10:14:57Z</time>
      </trkpt>
      <trkpt lat="42.47337" lon="2.29963">
        <ele>1517</ele>
        <time>2024-09-17T10:15:00Z</time>
      </trkpt>
      <trkpt lat="42.47339" lon="2.29966">
        <ele>1512</ele>
        <time>2024-09-17T10:15:24Z</time>
      </trkpt>
      <trkpt lat="42.47341" lon="2.29969">
        <ele>1512</ele>
        <time>2024-09-17T10:15:31Z</time>
      </trkpt>
      <trkpt lat="42.47342" lon="2.29972">
        <ele>1511</ele>
        <time>2024-09-17T10:15:34Z</time>
      </trkpt>
      <trkpt lat="42.47344" lon="2.29975">
        <ele>1511</ele>
        <time>2024-09-17T10:15:36Z</time>
      </trkpt>
      <trkpt lat="42.47346" lon="2.29979">
        <ele>1511</ele>
        <time>2024-09-17T10:15:39Z</time>
      </trkpt>
      <trkpt lat="42.47347" lon="2.29983">
        <ele>1511</ele>
        <time>2024-09-17T10:15:42Z</time>
      </trkpt>
      <trkpt lat="42.47349" lon="2.29986">
        <ele>1511</ele>
        <time>2024-09-17T10:15:47Z</time>
      </trkpt>
      <trkpt lat="42.47352" lon="2.29989">
        <ele>1511</ele>
        <time>2024-09-17T10:15:49Z</time>
      </trkpt>
      <trkpt lat="42.47355" lon="2.29991">
        <ele>1512</ele>
        <time>2024-09-17T10:15:52Z</time>
      </trkpt>
      <trkpt lat="42.47358" lon="2.29993">
        <ele>1511</ele>
        <time>2024-09-17T10:15:55Z</time>
      </trkpt>
      <trkpt lat="42.47361" lon="2.29994">
        <ele>1512</ele>
        <time>2024-09-17T10:16:01Z</time>
      </trkpt>
      <trkpt lat="42.4736" lon="2.29994">
        <ele>1512</ele>
        <time>2024-09-17T10:16:12Z</time>
      </trkpt>
      <trkpt lat="42.47362" lon="2.29995">
        <ele>1512</ele>
        <time>2024-09-17T10:16:22Z</time>
      </trkpt>
      <trkpt lat="42.47364" lon="2.29995">
        <ele>1508</ele>
        <time>2024-09-17T10:16:37Z</time>
      </trkpt>
      <trkpt lat="42.47364" lon="2.29993">
        <ele>1509</ele>
        <time>2024-09-17T10:16:45Z</time>
      </trkpt>
      <trkpt lat="42.47364" lon="2.29995">
        <ele>1511</ele>
        <time>2024-09-17T10:18:41Z</time>
      </trkpt>
      <trkpt lat="42.47364" lon="2.29993">
        <ele>1511</ele>
        <time>2024-09-17T10:18:57Z</time>
      </trkpt>
      <trkpt lat="42.47365" lon="2.29994">
        <ele>1513</ele>
        <time>2024-09-17T11:04:39Z</time>
      </trkpt>
      <trkpt lat="42.47364" lon="2.29996">
        <ele>1514</ele>
        <time>2024-09-17T11:09:33Z</time>
      </trkpt>
      <trkpt lat="42.47364" lon="2.29995">
        <ele>1515</ele>
        <time>2024-09-17T11:10:42Z</time>
      </trkpt>
      <trkpt lat="42.47366" lon="2.29995">
        <ele>1514</ele>
        <time>2024-09-17T11:10:58Z</time>
      </trkpt>
      <trkpt lat="42.47365" lon="2.29995">
        <ele>1514</ele>
        <time>2024-09-17T11:11:09Z</time>
      </trkpt>
      <trkpt lat="42.47363" lon="2.29996">
        <ele>1516</ele>
        <time>2024-09-17T11:11:20Z</time>
      </trkpt>
      <trkpt lat="42.4736" lon="2.29996">
        <ele>1516</ele>
        <time>2024-09-17T11:11:41Z</time>
      </trkpt>
      <trkpt lat="42.47358" lon="2.29999">
        <ele>1514</ele>
        <time>2024-09-17T11:11:46Z</time>
      </trkpt>
      <trkpt lat="42.47358" lon="2.30002">
        <ele>1513</ele>
        <time>2024-09-17T11:11:55Z</time>
      </trkpt>
      <trkpt lat="42.47359" lon="2.30007">
        <ele>1513</ele>
        <time>2024-09-17T11:11:59Z</time>
      </trkpt>
      <trkpt lat="42.4736" lon="2.30011">
        <ele>1511</ele>
        <time>2024-09-17T11:12:04Z</time>
      </trkpt>
      <trkpt lat="42.47361" lon="2.30015">
        <ele>1511</ele>
        <time>2024-09-17T11:12:07Z</time>
      </trkpt>
      <trkpt lat="42.47362" lon="2.30019">
        <ele>1511</ele>
        <time>2024-09-17T11:12:10Z</time>
      </trkpt>
      <trkpt lat="42.47363" lon="2.30023">
        <ele>1510</ele>
        <time>2024-09-17T11:12:13Z</time>
      </trkpt>
      <trkpt lat="42.47365" lon="2.30027">
        <ele>1511</ele>
        <time>2024-09-17T11:12:18Z</time>
      </trkpt>
      <trkpt lat="42.47367" lon="2.3003">
        <ele>1508</ele>
        <time>2024-09-17T11:12:21Z</time>
      </trkpt>
      <trkpt lat="42.47369" lon="2.30033">
        <ele>1509</ele>
        <time>2024-09-17T11:12:23Z</time>
      </trkpt>
      <trkpt lat="42.4737" lon="2.30037">
        <ele>1507</ele>
        <time>2024-09-17T11:12:26Z</time>
      </trkpt>
      <trkpt lat="42.47372" lon="2.3004">
        <ele>1506</ele>
        <time>2024-09-17T11:12:30Z</time>
      </trkpt>
      <trkpt lat="42.47372" lon="2.30044">
        <ele>1505</ele>
        <time>2024-09-17T11:12:34Z</time>
      </trkpt>
      <trkpt lat="42.47373" lon="2.30047">
        <ele>1502</ele>
        <time>2024-09-17T11:12:38Z</time>
      </trkpt>
      <trkpt lat="42.47376" lon="2.30048">
        <ele>1502</ele>
        <time>2024-09-17T11:12:40Z</time>
      </trkpt>
      <trkpt lat="42.47376" lon="2.30052">
        <ele>1501</ele>
        <time>2024-09-17T11:12:46Z</time>
      </trkpt>
      <trkpt lat="42.47377" lon="2.30056">
        <ele>1501</ele>
        <time>2024-09-17T11:12:50Z</time>
      </trkpt>
      <trkpt lat="42.47379" lon="2.30058">
        <ele>1501</ele>
        <time>2024-09-17T11:12:58Z</time>
      </trkpt>
      <trkpt lat="42.47379" lon="2.30061">
        <ele>1502</ele>
        <time>2024-09-17T11:13:10Z</time>
      </trkpt>
      <trkpt lat="42.47379" lon="2.30064">
        <ele>1502</ele>
        <time>2024-09-17T11:13:13Z</time>
      </trkpt>
      <trkpt lat="42.47377" lon="2.30067">
        <ele>1501</ele>
        <time>2024-09-17T11:13:16Z</time>
      </trkpt>
      <trkpt lat="42.47375" lon="2.3007">
        <ele>1502</ele>
        <time>2024-09-17T11:13:22Z</time>
      </trkpt>
      <trkpt lat="42.47375" lon="2.30074">
        <ele>1501</ele>
        <time>2024-09-17T11:13:25Z</time>
      </trkpt>
      <trkpt lat="42.47376" lon="2.30077">
        <ele>1501</ele>
        <time>2024-09-17T11:13:31Z</time>
      </trkpt>
      <trkpt lat="42.47376" lon="2.3008">
        <ele>1500</ele>
        <time>2024-09-17T11:13:37Z</time>
      </trkpt>
      <trkpt lat="42.47377" lon="2.30084">
        <ele>1501</ele>
        <time>2024-09-17T11:13:40Z</time>
      </trkpt>
      <trkpt lat="42.47378" lon="2.30088">
        <ele>1501</ele>
        <time>2024-09-17T11:13:43Z</time>
      </trkpt>
      <trkpt lat="42.4738" lon="2.30092">
        <ele>1502</ele>
        <time>2024-09-17T11:13:46Z</time>
      </trkpt>
      <trkpt lat="42.47383" lon="2.30093">
        <ele>1501</ele>
        <time>2024-09-17T11:13:49Z</time>
      </trkpt>
      <trkpt lat="42.47386" lon="2.30095">
        <ele>1500</ele>
        <time>2024-09-17T11:13:52Z</time>
      </trkpt>
      <trkpt lat="42.47389" lon="2.30098">
        <ele>1500</ele>
        <time>2024-09-17T11:13:55Z</time>
      </trkpt>
      <trkpt lat="42.47392" lon="2.30099">
        <ele>1499</ele>
        <time>2024-09-17T11:13:57Z</time>
      </trkpt>
      <trkpt lat="42.47395" lon="2.30099">
        <ele>1499</ele>
        <time>2024-09-17T11:13:59Z</time>
      </trkpt>
      <trkpt lat="42.47397" lon="2.30101">
        <ele>1499</ele>
        <time>2024-09-17T11:14:01Z</time>
      </trkpt>
      <trkpt lat="42.47399" lon="2.30103">
        <ele>1500</ele>
        <time>2024-09-17T11:14:04Z</time>
      </trkpt>
      <trkpt lat="42.47402" lon="2.30106">
        <ele>1500</ele>
        <time>2024-09-17T11:14:07Z</time>
      </trkpt>
      <trkpt lat="42.47406" lon="2.30108">
        <ele>1500</ele>
        <time>2024-09-17T11:14:11Z</time>
      </trkpt>
      <trkpt lat="42.47409" lon="2.30109">
        <ele>1499</ele>
        <time>2024-09-17T11:14:14Z</time>
      </trkpt>
      <trkpt lat="42.47412" lon="2.30111">
        <ele>1500</ele>
        <time>2024-09-17T11:14:17Z</time>
      </trkpt>
      <trkpt lat="42.47415" lon="2.30113">
        <ele>1500</ele>
        <time>2024-09-17T11:14:21Z</time>
      </trkpt>
      <trkpt lat="42.47418" lon="2.30113">
        <ele>1498</ele>
        <time>2024-09-17T11:14:24Z</time>
      </trkpt>
      <trkpt lat="42.47422" lon="2.30114">
        <ele>1499</ele>
        <time>2024-09-17T11:14:27Z</time>
      </trkpt>
      <trkpt lat="42.47425" lon="2.30115">
        <ele>1498</ele>
        <time>2024-09-17T11:14:29Z</time>
      </trkpt>
      <trkpt lat="42.47428" lon="2.30117">
        <ele>1497</ele>
        <time>2024-09-17T11:14:33Z</time>
      </trkpt>
      <trkpt lat="42.4743" lon="2.30117">
        <ele>1497</ele>
        <time>2024-09-17T11:14:35Z</time>
      </trkpt>
      <trkpt lat="42.47434" lon="2.30118">
        <ele>1497</ele>
        <time>2024-09-17T11:14:39Z</time>
      </trkpt>
      <trkpt lat="42.47438" lon="2.3012">
        <ele>1497</ele>
        <time>2024-09-17T11:14:42Z</time>
      </trkpt>
      <trkpt lat="42.47442" lon="2.30121">
        <ele>1495</ele>
        <time>2024-09-17T11:14:45Z</time>
      </trkpt>
      <trkpt lat="42.47445" lon="2.30123">
        <ele>1496</ele>
        <time>2024-09-17T11:14:48Z</time>
      </trkpt>
      <trkpt lat="42.47448" lon="2.30125">
        <ele>1495</ele>
        <time>2024-09-17T11:14:51Z</time>
      </trkpt>
      <trkpt lat="42.47451" lon="2.30127">
        <ele>1495</ele>
        <time>2024-09-17T11:14:53Z</time>
      </trkpt>
      <trkpt lat="42.47454" lon="2.30128">
        <ele>1495</ele>
        <time>2024-09-17T11:14:56Z</time>
      </trkpt>
      <trkpt lat="42.47457" lon="2.3013">
        <ele>1494</ele>
        <time>2024-09-17T11:14:59Z</time>
      </trkpt>
      <trkpt lat="42.4746" lon="2.30132">
        <ele>1495</ele>
        <time>2024-09-17T11:15:01Z</time>
      </trkpt>
      <trkpt lat="42.47462" lon="2.30135">
        <ele>1494</ele>
        <time>2024-09-17T11:15:04Z</time>
      </trkpt>
      <trkpt lat="42.47465" lon="2.30138">
        <ele>1494</ele>
        <time>2024-09-17T11:15:06Z</time>
      </trkpt>
      <trkpt lat="42.47466" lon="2.30141">
        <ele>1494</ele>
        <time>2024-09-17T11:15:09Z</time>
      </trkpt>
      <trkpt lat="42.47468" lon="2.30145">
        <ele>1494</ele>
        <time>2024-09-17T11:15:12Z</time>
      </trkpt>
      <trkpt lat="42.4747" lon="2.30149">
        <ele>1494</ele>
        <time>2024-09-17T11:15:15Z</time>
      </trkpt>
      <trkpt lat="42.47471" lon="2.30153">
        <ele>1494</ele>
        <time>2024-09-17T11:15:17Z</time>
      </trkpt>
      <trkpt lat="42.47473" lon="2.30157">
        <ele>1494</ele>
        <time>2024-09-17T11:15:20Z</time>
      </trkpt>
      <trkpt lat="42.47476" lon="2.30159">
        <ele>1494</ele>
        <time>2024-09-17T11:15:23Z</time>
      </trkpt>
      <trkpt lat="42.47479" lon="2.30161">
        <ele>1493</ele>
        <time>2024-09-17T11:15:26Z</time>
      </trkpt>
      <trkpt lat="42.47482" lon="2.30163">
        <ele>1492</ele>
        <time>2024-09-17T11:15:29Z</time>
      </trkpt>
      <trkpt lat="42.47484" lon="2.30165">
        <ele>1492</ele>
        <time>2024-09-17T11:15:31Z</time>
      </trkpt>
      <trkpt lat="42.47487" lon="2.30167">
        <ele>1491</ele>
        <time>2024-09-17T11:15:33Z</time>
      </trkpt>
      <trkpt lat="42.47489" lon="2.3017">
        <ele>1491</ele>
        <time>2024-09-17T11:15:36Z</time>
      </trkpt>
      <trkpt lat="42.47492" lon="2.30173">
        <ele>1491</ele>
        <time>2024-09-17T11:15:39Z</time>
      </trkpt>
      <trkpt lat="42.47494" lon="2.30176">
        <ele>1490</ele>
        <time>2024-09-17T11:15:42Z</time>
      </trkpt>
      <trkpt lat="42.47497" lon="2.30178">
        <ele>1489</ele>
        <time>2024-09-17T11:15:45Z</time>
      </trkpt>
      <trkpt lat="42.475" lon="2.30181">
        <ele>1489</ele>
        <time>2024-09-17T11:15:49Z</time>
      </trkpt>
      <trkpt lat="42.47502" lon="2.30185">
        <ele>1489</ele>
        <time>2024-09-17T11:15:52Z</time>
      </trkpt>
      <trkpt lat="42.47503" lon="2.30189">
        <ele>1489</ele>
        <time>2024-09-17T11:15:54Z</time>
      </trkpt>
      <trkpt lat="42.47504" lon="2.30192">
        <ele>1489</ele>
        <time>2024-09-17T11:15:57Z</time>
      </trkpt>
      <trkpt lat="42.47506" lon="2.30195">
        <ele>1487</ele>
        <time>2024-09-17T11:16:01Z</time>
      </trkpt>
      <trkpt lat="42.47508" lon="2.30198">
        <ele>1488</ele>
        <time>2024-09-17T11:16:03Z</time>
      </trkpt>
      <trkpt lat="42.4751" lon="2.30201">
        <ele>1488</ele>
        <time>2024-09-17T11:16:06Z</time>
      </trkpt>
      <trkpt lat="42.47513" lon="2.30205">
        <ele>1488</ele>
        <time>2024-09-17T11:16:10Z</time>
      </trkpt>
      <trkpt lat="42.47515" lon="2.30208">
        <ele>1487</ele>
        <time>2024-09-17T11:16:13Z</time>
      </trkpt>
      <trkpt lat="42.47518" lon="2.30211">
        <ele>1485</ele>
        <time>2024-09-17T11:16:17Z</time>
      </trkpt>
      <trkpt lat="42.47521" lon="2.30214">
        <ele>1486</ele>
        <time>2024-09-17T11:16:20Z</time>
      </trkpt>
      <trkpt lat="42.47523" lon="2.30216">
        <ele>1484</ele>
        <time>2024-09-17T11:16:24Z</time>
      </trkpt>
      <trkpt lat="42.47526" lon="2.30219">
        <ele>1484</ele>
        <time>2024-09-17T11:16:28Z</time>
      </trkpt>
      <trkpt lat="42.47528" lon="2.30222">
        <ele>1483</ele>
        <time>2024-09-17T11:16:31Z</time>
      </trkpt>
      <trkpt lat="42.4753" lon="2.30225">
        <ele>1483</ele>
        <time>2024-09-17T11:16:34Z</time>
      </trkpt>
      <trkpt lat="42.47533" lon="2.30229">
        <ele>1482</ele>
        <time>2024-09-17T11:16:38Z</time>
      </trkpt>
      <trkpt lat="42.47535" lon="2.30231">
        <ele>1482</ele>
        <time>2024-09-17T11:16:40Z</time>
      </trkpt>
      <trkpt lat="42.47537" lon="2.30234">
        <ele>1482</ele>
        <time>2024-09-17T11:16:42Z</time>
      </trkpt>
      <trkpt lat="42.47539" lon="2.30238">
        <ele>1482</ele>
        <time>2024-09-17T11:16:45Z</time>
      </trkpt>
      <trkpt lat="42.47542" lon="2.30241">
        <ele>1481</ele>
        <time>2024-09-17T11:16:48Z</time>
      </trkpt>
      <trkpt lat="42.47544" lon="2.30245">
        <ele>1480</ele>
        <time>2024-09-17T11:16:51Z</time>
      </trkpt>
      <trkpt lat="42.47547" lon="2.30249">
        <ele>1480</ele>
        <time>2024-09-17T11:16:54Z</time>
      </trkpt>
      <trkpt lat="42.47549" lon="2.30253">
        <ele>1480</ele>
        <time>2024-09-17T11:16:57Z</time>
      </trkpt>
      <trkpt lat="42.47552" lon="2.30256">
        <ele>1480</ele>
        <time>2024-09-17T11:17:00Z</time>
      </trkpt>
      <trkpt lat="42.47554" lon="2.3026">
        <ele>1479</ele>
        <time>2024-09-17T11:17:02Z</time>
      </trkpt>
      <trkpt lat="42.47556" lon="2.30263">
        <ele>1478</ele>
        <time>2024-09-17T11:17:04Z</time>
      </trkpt>
      <trkpt lat="42.47559" lon="2.30265">
        <ele>1478</ele>
        <time>2024-09-17T11:17:06Z</time>
      </trkpt>
      <trkpt lat="42.47561" lon="2.30268">
        <ele>1478</ele>
        <time>2024-09-17T11:17:08Z</time>
      </trkpt>
      <trkpt lat="42.47564" lon="2.30271">
        <ele>1477</ele>
        <time>2024-09-17T11:17:11Z</time>
      </trkpt>
      <trkpt lat="42.47566" lon="2.30274">
        <ele>1477</ele>
        <time>2024-09-17T11:17:14Z</time>
      </trkpt>
      <trkpt lat="42.47569" lon="2.30276">
        <ele>1477</ele>
        <time>2024-09-17T11:17:17Z</time>
      </trkpt>
      <trkpt lat="42.47573" lon="2.30276">
        <ele>1477</ele>
        <time>2024-09-17T11:17:19Z</time>
      </trkpt>
      <trkpt lat="42.47572" lon="2.30275">
        <ele>1473</ele>
        <time>2024-09-17T11:17:44Z</time>
      </trkpt>
      <trkpt lat="42.47573" lon="2.30277">
        <ele>1474</ele>
        <time>2024-09-17T11:17:47Z</time>
      </trkpt>
      <trkpt lat="42.47574" lon="2.30281">
        <ele>1474</ele>
        <time>2024-09-17T11:17:50Z</time>
      </trkpt>
      <trkpt lat="42.47577" lon="2.30285">
        <ele>1474</ele>
        <time>2024-09-17T11:17:53Z</time>
      </trkpt>
      <trkpt lat="42.47579" lon="2.30288">
        <ele>1474</ele>
        <time>2024-09-17T11:17:56Z</time>
      </trkpt>
      <trkpt lat="42.47581" lon="2.30291">
        <ele>1474</ele>
        <time>2024-09-17T11:17:58Z</time>
      </trkpt>
      <trkpt lat="42.47584" lon="2.30293">
        <ele>1474</ele>
        <time>2024-09-17T11:18:02Z</time>
      </trkpt>
      <trkpt lat="42.47587" lon="2.30295">
        <ele>1475</ele>
        <time>2024-09-17T11:18:04Z</time>
      </trkpt>
      <trkpt lat="42.4759" lon="2.30298">
        <ele>1475</ele>
        <time>2024-09-17T11:18:08Z</time>
      </trkpt>
      <trkpt lat="42.47591" lon="2.30302">
        <ele>1475</ele>
        <time>2024-09-17T11:18:14Z</time>
      </trkpt>
      <trkpt lat="42.47592" lon="2.30305">
        <ele>1474</ele>
        <time>2024-09-17T11:18:16Z</time>
      </trkpt>
      <trkpt lat="42.47593" lon="2.3031">
        <ele>1474</ele>
        <time>2024-09-17T11:18:19Z</time>
      </trkpt>
      <trkpt lat="42.47595" lon="2.30314">
        <ele>1473</ele>
        <time>2024-09-17T11:18:22Z</time>
      </trkpt>
      <trkpt lat="42.47596" lon="2.30318">
        <ele>1473</ele>
        <time>2024-09-17T11:18:24Z</time>
      </trkpt>
      <trkpt lat="42.47596" lon="2.30322">
        <ele>1474</ele>
        <time>2024-09-17T11:18:27Z</time>
      </trkpt>
      <trkpt lat="42.47597" lon="2.30326">
        <ele>1474</ele>
        <time>2024-09-17T11:18:31Z</time>
      </trkpt>
      <trkpt lat="42.47598" lon="2.30331">
        <ele>1474</ele>
        <time>2024-09-17T11:18:36Z</time>
      </trkpt>
      <trkpt lat="42.47598" lon="2.30335">
        <ele>1475</ele>
        <time>2024-09-17T11:18:39Z</time>
      </trkpt>
      <trkpt lat="42.47598" lon="2.3034">
        <ele>1476</ele>
        <time>2024-09-17T11:18:43Z</time>
      </trkpt>
      <trkpt lat="42.47597" lon="2.30344">
        <ele>1476</ele>
        <time>2024-09-17T11:18:47Z</time>
      </trkpt>
      <trkpt lat="42.47595" lon="2.30348">
        <ele>1478</ele>
        <time>2024-09-17T11:18:51Z</time>
      </trkpt>
      <trkpt lat="42.47593" lon="2.30351">
        <ele>1479</ele>
        <time>2024-09-17T11:18:54Z</time>
      </trkpt>
      <trkpt lat="42.47591" lon="2.30355">
        <ele>1480</ele>
        <time>2024-09-17T11:18:58Z</time>
      </trkpt>
      <trkpt lat="42.4759" lon="2.30359">
        <ele>1480</ele>
        <time>2024-09-17T11:19:01Z</time>
      </trkpt>
      <trkpt lat="42.47591" lon="2.30363">
        <ele>1481</ele>
        <time>2024-09-17T11:19:04Z</time>
      </trkpt>
      <trkpt lat="42.47592" lon="2.30366">
        <ele>1479</ele>
        <time>2024-09-17T11:19:07Z</time>
      </trkpt>
      <trkpt lat="42.47594" lon="2.30368">
        <ele>1480</ele>
        <time>2024-09-17T11:19:10Z</time>
      </trkpt>
      <trkpt lat="42.47598" lon="2.3037">
        <ele>1480</ele>
        <time>2024-09-17T11:19:13Z</time>
      </trkpt>
      <trkpt lat="42.47601" lon="2.3037">
        <ele>1479</ele>
        <time>2024-09-17T11:19:16Z</time>
      </trkpt>
      <trkpt lat="42.47605" lon="2.30369">
        <ele>1479</ele>
        <time>2024-09-17T11:19:19Z</time>
      </trkpt>
      <trkpt lat="42.47608" lon="2.30368">
        <ele>1479</ele>
        <time>2024-09-17T11:19:21Z</time>
      </trkpt>
      <trkpt lat="42.47612" lon="2.30365">
        <ele>1480</ele>
        <time>2024-09-17T11:19:24Z</time>
      </trkpt>
      <trkpt lat="42.47614" lon="2.30363">
        <ele>1479</ele>
        <time>2024-09-17T11:19:28Z</time>
      </trkpt>
      <trkpt lat="42.47616" lon="2.3036">
        <ele>1479</ele>
        <time>2024-09-17T11:19:36Z</time>
      </trkpt>
      <trkpt lat="42.47618" lon="2.30357">
        <ele>1481</ele>
        <time>2024-09-17T11:19:39Z</time>
      </trkpt>
      <trkpt lat="42.47619" lon="2.30357">
        <ele>1482</ele>
        <time>2024-09-17T11:19:51Z</time>
      </trkpt>
      <trkpt lat="42.47621" lon="2.30359">
        <ele>1483</ele>
        <time>2024-09-17T11:19:54Z</time>
      </trkpt>
      <trkpt lat="42.47623" lon="2.30361">
        <ele>1484</ele>
        <time>2024-09-17T11:19:57Z</time>
      </trkpt>
      <trkpt lat="42.47625" lon="2.30365">
        <ele>1484</ele>
        <time>2024-09-17T11:19:59Z</time>
      </trkpt>
      <trkpt lat="42.47627" lon="2.30367">
        <ele>1484</ele>
        <time>2024-09-17T11:20:01Z</time>
      </trkpt>
      <trkpt lat="42.4763" lon="2.3037">
        <ele>1484</ele>
        <time>2024-09-17T11:20:03Z</time>
      </trkpt>
      <trkpt lat="42.47632" lon="2.30374">
        <ele>1485</ele>
        <time>2024-09-17T11:20:06Z</time>
      </trkpt>
      <trkpt lat="42.47634" lon="2.30376">
        <ele>1484</ele>
        <time>2024-09-17T11:20:09Z</time>
      </trkpt>
      <trkpt lat="42.47637" lon="2.30379">
        <ele>1486</ele>
        <time>2024-09-17T11:20:12Z</time>
      </trkpt>
      <trkpt lat="42.47639" lon="2.30381">
        <ele>1486</ele>
        <time>2024-09-17T11:20:15Z</time>
      </trkpt>
      <trkpt lat="42.47641" lon="2.30384">
        <ele>1488</ele>
        <time>2024-09-17T11:20:18Z</time>
      </trkpt>
      <trkpt lat="42.47644" lon="2.30386">
        <ele>1489</ele>
        <time>2024-09-17T11:20:22Z</time>
      </trkpt>
      <trkpt lat="42.47646" lon="2.30389">
        <ele>1489</ele>
        <time>2024-09-17T11:20:27Z</time>
      </trkpt>
      <trkpt lat="42.4765" lon="2.30392">
        <ele>1490</ele>
        <time>2024-09-17T11:20:32Z</time>
      </trkpt>
      <trkpt lat="42.47653" lon="2.30394">
        <ele>1490</ele>
        <time>2024-09-17T11:20:36Z</time>
      </trkpt>
      <trkpt lat="42.47655" lon="2.30397">
        <ele>1490</ele>
        <time>2024-09-17T11:20:41Z</time>
      </trkpt>
      <trkpt lat="42.47657" lon="2.30401">
        <ele>1490</ele>
        <time>2024-09-17T11:20:45Z</time>
      </trkpt>
      <trkpt lat="42.47658" lon="2.30405">
        <ele>1489</ele>
        <time>2024-09-17T11:20:49Z</time>
      </trkpt>
      <trkpt lat="42.47659" lon="2.30408">
        <ele>1489</ele>
        <time>2024-09-17T11:20:52Z</time>
      </trkpt>
      <trkpt lat="42.47659" lon="2.30412">
        <ele>1488</ele>
        <time>2024-09-17T11:20:56Z</time>
      </trkpt>
      <trkpt lat="42.47659" lon="2.30416">
        <ele>1489</ele>
        <time>2024-09-17T11:20:59Z</time>
      </trkpt>
      <trkpt lat="42.4766" lon="2.3042">
        <ele>1488</ele>
        <time>2024-09-17T11:21:03Z</time>
      </trkpt>
      <trkpt lat="42.4766" lon="2.30425">
        <ele>1489</ele>
        <time>2024-09-17T11:21:07Z</time>
      </trkpt>
      <trkpt lat="42.47661" lon="2.30428">
        <ele>1490</ele>
        <time>2024-09-17T11:21:10Z</time>
      </trkpt>
      <trkpt lat="42.47661" lon="2.30433">
        <ele>1491</ele>
        <time>2024-09-17T11:21:14Z</time>
      </trkpt>
      <trkpt lat="42.4766" lon="2.30437">
        <ele>1492</ele>
        <time>2024-09-17T11:21:17Z</time>
      </trkpt>
      <trkpt lat="42.47661" lon="2.30441">
        <ele>1492</ele>
        <time>2024-09-17T11:21:21Z</time>
      </trkpt>
      <trkpt lat="42.47662" lon="2.30445">
        <ele>1492</ele>
        <time>2024-09-17T11:21:25Z</time>
      </trkpt>
      <trkpt lat="42.47664" lon="2.30448">
        <ele>1494</ele>
        <time>2024-09-17T11:21:29Z</time>
      </trkpt>
      <trkpt lat="42.47667" lon="2.30449">
        <ele>1494</ele>
        <time>2024-09-17T11:21:31Z</time>
      </trkpt>
      <trkpt lat="42.47669" lon="2.30452">
        <ele>1495</ele>
        <time>2024-09-17T11:21:35Z</time>
      </trkpt>
      <trkpt lat="42.47669" lon="2.30455">
        <ele>1496</ele>
        <time>2024-09-17T11:21:39Z</time>
      </trkpt>
      <trkpt lat="42.4767" lon="2.30459">
        <ele>1497</ele>
        <time>2024-09-17T11:21:44Z</time>
      </trkpt>
      <trkpt lat="42.4767" lon="2.30463">
        <ele>1498</ele>
        <time>2024-09-17T11:21:49Z</time>
      </trkpt>
      <trkpt lat="42.47672" lon="2.30466">
        <ele>1498</ele>
        <time>2024-09-17T11:21:53Z</time>
      </trkpt>
      <trkpt lat="42.47674" lon="2.30469">
        <ele>1499</ele>
        <time>2024-09-17T11:21:57Z</time>
      </trkpt>
      <trkpt lat="42.47675" lon="2.30473">
        <ele>1500</ele>
        <time>2024-09-17T11:22:03Z</time>
      </trkpt>
      <trkpt lat="42.47676" lon="2.30476">
        <ele>1500</ele>
        <time>2024-09-17T11:22:09Z</time>
      </trkpt>
      <trkpt lat="42.47677" lon="2.3048">
        <ele>1502</ele>
        <time>2024-09-17T11:22:13Z</time>
      </trkpt>
      <trkpt lat="42.47677" lon="2.30484">
        <ele>1504</ele>
        <time>2024-09-17T11:22:17Z</time>
      </trkpt>
      <trkpt lat="42.47677" lon="2.30488">
        <ele>1504</ele>
        <time>2024-09-17T11:22:22Z</time>
      </trkpt>
      <trkpt lat="42.47678" lon="2.30492">
        <ele>1506</ele>
        <time>2024-09-17T11:22:27Z</time>
      </trkpt>
      <trkpt lat="42.47678" lon="2.30496">
        <ele>1507</ele>
        <time>2024-09-17T11:22:30Z</time>
      </trkpt>
      <trkpt lat="42.47678" lon="2.305">
        <ele>1507</ele>
        <time>2024-09-17T11:22:34Z</time>
      </trkpt>
      <trkpt lat="42.47678" lon="2.30505">
        <ele>1510</ele>
        <time>2024-09-17T11:22:41Z</time>
      </trkpt>
      <trkpt lat="42.47679" lon="2.30509">
        <ele>1511</ele>
        <time>2024-09-17T11:22:48Z</time>
      </trkpt>
      <trkpt lat="42.47678" lon="2.30513">
        <ele>1511</ele>
        <time>2024-09-17T11:22:55Z</time>
      </trkpt>
      <trkpt lat="42.47679" lon="2.30517">
        <ele>1511</ele>
        <time>2024-09-17T11:23:01Z</time>
      </trkpt>
      <trkpt lat="42.47679" lon="2.30521">
        <ele>1511</ele>
        <time>2024-09-17T11:23:05Z</time>
      </trkpt>
      <trkpt lat="42.47678" lon="2.30524">
        <ele>1511</ele>
        <time>2024-09-17T11:23:09Z</time>
      </trkpt>
      <trkpt lat="42.47677" lon="2.30528">
        <ele>1511</ele>
        <time>2024-09-17T11:23:13Z</time>
      </trkpt>
      <trkpt lat="42.47679" lon="2.30531">
        <ele>1511</ele>
        <time>2024-09-17T11:23:20Z</time>
      </trkpt>
      <trkpt lat="42.47681" lon="2.30534">
        <ele>1511</ele>
        <time>2024-09-17T11:23:29Z</time>
      </trkpt>
      <trkpt lat="42.47683" lon="2.30537">
        <ele>1513</ele>
        <time>2024-09-17T11:23:33Z</time>
      </trkpt>
      <trkpt lat="42.47684" lon="2.30541">
        <ele>1513</ele>
        <time>2024-09-17T11:23:38Z</time>
      </trkpt>
      <trkpt lat="42.47684" lon="2.30545">
        <ele>1514</ele>
        <time>2024-09-17T11:23:42Z</time>
      </trkpt>
      <trkpt lat="42.47685" lon="2.30549">
        <ele>1515</ele>
        <time>2024-09-17T11:23:47Z</time>
      </trkpt>
      <trkpt lat="42.47685" lon="2.30553">
        <ele>1517</ele>
        <time>2024-09-17T11:23:52Z</time>
      </trkpt>
      <trkpt lat="42.47686" lon="2.30557">
        <ele>1518</ele>
        <time>2024-09-17T11:23:55Z</time>
      </trkpt>
      <trkpt lat="42.47688" lon="2.30561">
        <ele>1519</ele>
        <time>2024-09-17T11:23:59Z</time>
      </trkpt>
      <trkpt lat="42.47689" lon="2.30565">
        <ele>1520</ele>
        <time>2024-09-17T11:24:03Z</time>
      </trkpt>
      <trkpt lat="42.4769" lon="2.30569">
        <ele>1521</ele>
        <time>2024-09-17T11:24:08Z</time>
      </trkpt>
      <trkpt lat="42.47692" lon="2.30573">
        <ele>1522</ele>
        <time>2024-09-17T11:24:12Z</time>
      </trkpt>
      <trkpt lat="42.47693" lon="2.30577">
        <ele>1523</ele>
        <time>2024-09-17T11:24:17Z</time>
      </trkpt>
      <trkpt lat="42.47694" lon="2.30581">
        <ele>1523</ele>
        <time>2024-09-17T11:24:20Z</time>
      </trkpt>
      <trkpt lat="42.47695" lon="2.30585">
        <ele>1525</ele>
        <time>2024-09-17T11:24:24Z</time>
      </trkpt>
      <trkpt lat="42.47696" lon="2.30588">
        <ele>1526</ele>
        <time>2024-09-17T11:24:29Z</time>
      </trkpt>
      <trkpt lat="42.47697" lon="2.30592">
        <ele>1526</ele>
        <time>2024-09-17T11:24:34Z</time>
      </trkpt>
      <trkpt lat="42.47697" lon="2.30596">
        <ele>1528</ele>
        <time>2024-09-17T11:24:38Z</time>
      </trkpt>
      <trkpt lat="42.47697" lon="2.306">
        <ele>1528</ele>
        <time>2024-09-17T11:24:42Z</time>
      </trkpt>
      <trkpt lat="42.47698" lon="2.30604">
        <ele>1528</ele>
        <time>2024-09-17T11:24:46Z</time>
      </trkpt>
      <trkpt lat="42.47699" lon="2.30607">
        <ele>1525</ele>
        <time>2024-09-17T11:25:02Z</time>
      </trkpt>
      <trkpt lat="42.47698" lon="2.3061">
        <ele>1525</ele>
        <time>2024-09-17T11:25:09Z</time>
      </trkpt>
      <trkpt lat="42.47696" lon="2.30611">
        <ele>1523</ele>
        <time>2024-09-17T11:25:22Z</time>
      </trkpt>
      <trkpt lat="42.47696" lon="2.30614">
        <ele>1524</ele>
        <time>2024-09-17T11:25:25Z</time>
      </trkpt>
      <trkpt lat="42.47695" lon="2.30618">
        <ele>1524</ele>
        <time>2024-09-17T11:25:29Z</time>
      </trkpt>
      <trkpt lat="42.47695" lon="2.30622">
        <ele>1526</ele>
        <time>2024-09-17T11:25:31Z</time>
      </trkpt>
      <trkpt lat="42.47697" lon="2.30625">
        <ele>1527</ele>
        <time>2024-09-17T11:25:35Z</time>
      </trkpt>
      <trkpt lat="42.47698" lon="2.30629">
        <ele>1529</ele>
        <time>2024-09-17T11:25:38Z</time>
      </trkpt>
      <trkpt lat="42.47699" lon="2.30633">
        <ele>1531</ele>
        <time>2024-09-17T11:25:42Z</time>
      </trkpt>
      <trkpt lat="42.47699" lon="2.30637">
        <ele>1532</ele>
        <time>2024-09-17T11:25:46Z</time>
      </trkpt>
      <trkpt lat="42.47701" lon="2.30639">
        <ele>1534</ele>
        <time>2024-09-17T11:25:54Z</time>
      </trkpt>
      <trkpt lat="42.47703" lon="2.3064">
        <ele>1536</ele>
        <time>2024-09-17T11:25:58Z</time>
      </trkpt>
      <trkpt lat="42.47705" lon="2.30642">
        <ele>1536</ele>
        <time>2024-09-17T11:26:03Z</time>
      </trkpt>
      <trkpt lat="42.47707" lon="2.30644">
        <ele>1536</ele>
        <time>2024-09-17T11:26:05Z</time>
      </trkpt>
      <trkpt lat="42.4771" lon="2.30646">
        <ele>1536</ele>
        <time>2024-09-17T11:26:08Z</time>
      </trkpt>
      <trkpt lat="42.47713" lon="2.30648">
        <ele>1536</ele>
        <time>2024-09-17T11:26:13Z</time>
      </trkpt>
      <trkpt lat="42.47714" lon="2.30652">
        <ele>1537</ele>
        <time>2024-09-17T11:26:18Z</time>
      </trkpt>
      <trkpt lat="42.47715" lon="2.30656">
        <ele>1538</ele>
        <time>2024-09-17T11:26:22Z</time>
      </trkpt>
      <trkpt lat="42.47717" lon="2.3066">
        <ele>1541</ele>
        <time>2024-09-17T11:26:28Z</time>
      </trkpt>
      <trkpt lat="42.47718" lon="2.30663">
        <ele>1543</ele>
        <time>2024-09-17T11:26:33Z</time>
      </trkpt>
      <trkpt lat="42.47718" lon="2.30667">
        <ele>1545</ele>
        <time>2024-09-17T11:26:39Z</time>
      </trkpt>
      <trkpt lat="42.47718" lon="2.30671">
        <ele>1545</ele>
        <time>2024-09-17T11:26:45Z</time>
      </trkpt>
      <trkpt lat="42.47719" lon="2.30675">
        <ele>1545</ele>
        <time>2024-09-17T11:26:49Z</time>
      </trkpt>
      <trkpt lat="42.47719" lon="2.30679">
        <ele>1545</ele>
        <time>2024-09-17T11:26:54Z</time>
      </trkpt>
      <trkpt lat="42.47719" lon="2.30683">
        <ele>1542</ele>
        <time>2024-09-17T11:27:08Z</time>
      </trkpt>
      <trkpt lat="42.47718" lon="2.30687">
        <ele>1542</ele>
        <time>2024-09-17T11:27:18Z</time>
      </trkpt>
      <trkpt lat="42.47717" lon="2.30691">
        <ele>1542</ele>
        <time>2024-09-17T11:27:27Z</time>
      </trkpt>
      <trkpt lat="42.47719" lon="2.30692">
        <ele>1543</ele>
        <time>2024-09-17T11:27:35Z</time>
      </trkpt>
      <trkpt lat="42.47718" lon="2.30694">
        <ele>1544</ele>
        <time>2024-09-17T11:27:41Z</time>
      </trkpt>
      <trkpt lat="42.47715" lon="2.30695">
        <ele>1543</ele>
        <time>2024-09-17T11:27:45Z</time>
      </trkpt>
      <trkpt lat="42.47716" lon="2.30695">
        <ele>1545</ele>
        <time>2024-09-17T11:28:01Z</time>
      </trkpt>
      <trkpt lat="42.47718" lon="2.30693">
        <ele>1544</ele>
        <time>2024-09-17T11:28:05Z</time>
      </trkpt>
      <trkpt lat="42.47719" lon="2.30689">
        <ele>1541</ele>
        <time>2024-09-17T11:28:11Z</time>
      </trkpt>
      <trkpt lat="42.47721" lon="2.3069">
        <ele>1542</ele>
        <time>2024-09-17T11:28:16Z</time>
      </trkpt>
      <trkpt lat="42.47724" lon="2.30691">
        <ele>1543</ele>
        <time>2024-09-17T11:28:19Z</time>
      </trkpt>
      <trkpt lat="42.47726" lon="2.30694">
        <ele>1545</ele>
        <time>2024-09-17T11:28:22Z</time>
      </trkpt>
      <trkpt lat="42.47728" lon="2.30697">
        <ele>1547</ele>
        <time>2024-09-17T11:28:26Z</time>
      </trkpt>
      <trkpt lat="42.47731" lon="2.307">
        <ele>1549</ele>
        <time>2024-09-17T11:28:29Z</time>
      </trkpt>
      <trkpt lat="42.47734" lon="2.30701">
        <ele>1551</ele>
        <time>2024-09-17T11:28:35Z</time>
      </trkpt>
      <trkpt lat="42.47737" lon="2.30702">
        <ele>1550</ele>
        <time>2024-09-17T11:28:50Z</time>
      </trkpt>
      <trkpt lat="42.47738" lon="2.307">
        <ele>1550</ele>
        <time>2024-09-17T11:28:52Z</time>
      </trkpt>
      <trkpt lat="42.47739" lon="2.30696">
        <ele>1549</ele>
        <time>2024-09-17T11:28:54Z</time>
      </trkpt>
      <trkpt lat="42.47741" lon="2.30693">
        <ele>1550</ele>
        <time>2024-09-17T11:28:56Z</time>
      </trkpt>
      <trkpt lat="42.47742" lon="2.30688">
        <ele>1550</ele>
        <time>2024-09-17T11:28:59Z</time>
      </trkpt>
      <trkpt lat="42.47742" lon="2.30684">
        <ele>1550</ele>
        <time>2024-09-17T11:29:01Z</time>
      </trkpt>
      <trkpt lat="42.47743" lon="2.3068">
        <ele>1549</ele>
        <time>2024-09-17T11:29:05Z</time>
      </trkpt>
      <trkpt lat="42.47745" lon="2.30676">
        <ele>1550</ele>
        <time>2024-09-17T11:29:14Z</time>
      </trkpt>
      <trkpt lat="42.47747" lon="2.30672">
        <ele>1548</ele>
        <time>2024-09-17T11:29:34Z</time>
      </trkpt>
      <trkpt lat="42.47748" lon="2.30668">
        <ele>1549</ele>
        <time>2024-09-17T11:29:39Z</time>
      </trkpt>
      <trkpt lat="42.47749" lon="2.30664">
        <ele>1550</ele>
        <time>2024-09-17T11:29:43Z</time>
      </trkpt>
      <trkpt lat="42.47752" lon="2.30661">
        <ele>1550</ele>
        <time>2024-09-17T11:29:49Z</time>
      </trkpt>
      <trkpt lat="42.47751" lon="2.3066">
        <ele>1550</ele>
        <time>2024-09-17T11:30:00Z</time>
      </trkpt>
      <trkpt lat="42.47748" lon="2.30659">
        <ele>1550</ele>
        <time>2024-09-17T11:30:30Z</time>
      </trkpt>
      <trkpt lat="42.47748" lon="2.30658">
        <ele>1550</ele>
        <time>2024-09-17T11:30:31Z</time>
      </trkpt>
      <trkpt lat="42.47751" lon="2.30659">
        <ele>1550</ele>
        <time>2024-09-17T11:30:32Z</time>
      </trkpt>
      <trkpt lat="42.47751" lon="2.30662">
        <ele>1550</ele>
        <time>2024-09-17T11:30:44Z</time>
      </trkpt>
      <trkpt lat="42.47749" lon="2.30665">
        <ele>1551</ele>
        <time>2024-09-17T11:30:46Z</time>
      </trkpt>
      <trkpt lat="42.47747" lon="2.30669">
        <ele>1551</ele>
        <time>2024-09-17T11:30:49Z</time>
      </trkpt>
      <trkpt lat="42.47745" lon="2.30673">
        <ele>1552</ele>
        <time>2024-09-17T11:30:53Z</time>
      </trkpt>
      <trkpt lat="42.47743" lon="2.30677">
        <ele>1552</ele>
        <time>2024-09-17T11:30:57Z</time>
      </trkpt>
      <trkpt lat="42.47741" lon="2.3068">
        <ele>1552</ele>
        <time>2024-09-17T11:31:01Z</time>
      </trkpt>
      <trkpt lat="42.47741" lon="2.30684">
        <ele>1551</ele>
        <time>2024-09-17T11:31:07Z</time>
      </trkpt>
      <trkpt lat="42.47739" lon="2.30688">
        <ele>1552</ele>
        <time>2024-09-17T11:31:10Z</time>
      </trkpt>
      <trkpt lat="42.47739" lon="2.30692">
        <ele>1550</ele>
        <time>2024-09-17T11:31:14Z</time>
      </trkpt>
      <trkpt lat="42.47737" lon="2.30696">
        <ele>1551</ele>
        <time>2024-09-17T11:31:17Z</time>
      </trkpt>
      <trkpt lat="42.47736" lon="2.307">
        <ele>1551</ele>
        <time>2024-09-17T11:31:20Z</time>
      </trkpt>
      <trkpt lat="42.47737" lon="2.30705">
        <ele>1551</ele>
        <time>2024-09-17T11:31:24Z</time>
      </trkpt>
      <trkpt lat="42.47736" lon="2.3071">
        <ele>1551</ele>
        <time>2024-09-17T11:31:28Z</time>
      </trkpt>
      <trkpt lat="42.47736" lon="2.30715">
        <ele>1553</ele>
        <time>2024-09-17T11:31:31Z</time>
      </trkpt>
      <trkpt lat="42.47737" lon="2.30719">
        <ele>1553</ele>
        <time>2024-09-17T11:31:34Z</time>
      </trkpt>
      <trkpt lat="42.47737" lon="2.30723">
        <ele>1553</ele>
        <time>2024-09-17T11:31:37Z</time>
      </trkpt>
      <trkpt lat="42.47736" lon="2.30727">
        <ele>1554</ele>
        <time>2024-09-17T11:31:41Z</time>
      </trkpt>
      <trkpt lat="42.47736" lon="2.30731">
        <ele>1554</ele>
        <time>2024-09-17T11:31:44Z</time>
      </trkpt>
      <trkpt lat="42.47736" lon="2.30735">
        <ele>1555</ele>
        <time>2024-09-17T11:31:47Z</time>
      </trkpt>
      <trkpt lat="42.47737" lon="2.3074">
        <ele>1555</ele>
        <time>2024-09-17T11:31:52Z</time>
      </trkpt>
      <trkpt lat="42.47738" lon="2.30743">
        <ele>1555</ele>
        <time>2024-09-17T11:31:58Z</time>
      </trkpt>
      <trkpt lat="42.4774" lon="2.30745">
        <ele>1553</ele>
        <time>2024-09-17T11:32:05Z</time>
      </trkpt>
      <trkpt lat="42.47742" lon="2.30748">
        <ele>1552</ele>
        <time>2024-09-17T11:32:10Z</time>
      </trkpt>
      <trkpt lat="42.47743" lon="2.30752">
        <ele>1553</ele>
        <time>2024-09-17T11:32:13Z</time>
      </trkpt>
      <trkpt lat="42.47744" lon="2.30756">
        <ele>1553</ele>
        <time>2024-09-17T11:32:17Z</time>
      </trkpt>
      <trkpt lat="42.47745" lon="2.3076">
        <ele>1554</ele>
        <time>2024-09-17T11:32:21Z</time>
      </trkpt>
      <trkpt lat="42.47746" lon="2.30764">
        <ele>1556</ele>
        <time>2024-09-17T11:32:25Z</time>
      </trkpt>
      <trkpt lat="42.47749" lon="2.30767">
        <ele>1557</ele>
        <time>2024-09-17T11:32:29Z</time>
      </trkpt>
      <trkpt lat="42.47753" lon="2.30768">
        <ele>1559</ele>
        <time>2024-09-17T11:32:33Z</time>
      </trkpt>
      <trkpt lat="42.47755" lon="2.30768">
        <ele>1560</ele>
        <time>2024-09-17T11:32:37Z</time>
      </trkpt>
      <trkpt lat="42.47759" lon="2.30768">
        <ele>1559</ele>
        <time>2024-09-17T11:32:41Z</time>
      </trkpt>
      <trkpt lat="42.47762" lon="2.30765">
        <ele>1558</ele>
        <time>2024-09-17T11:32:44Z</time>
      </trkpt>
      <trkpt lat="42.47765" lon="2.30763">
        <ele>1556</ele>
        <time>2024-09-17T11:32:46Z</time>
      </trkpt>
      <trkpt lat="42.47767" lon="2.3076">
        <ele>1556</ele>
        <time>2024-09-17T11:32:49Z</time>
      </trkpt>
      <trkpt lat="42.4777" lon="2.30757">
        <ele>1556</ele>
        <time>2024-09-17T11:32:51Z</time>
      </trkpt>
      <trkpt lat="42.47772" lon="2.30754">
        <ele>1555</ele>
        <time>2024-09-17T11:32:54Z</time>
      </trkpt>
      <trkpt lat="42.47773" lon="2.30749">
        <ele>1555</ele>
        <time>2024-09-17T11:32:58Z</time>
      </trkpt>
      <trkpt lat="42.47774" lon="2.30745">
        <ele>1554</ele>
        <time>2024-09-17T11:33:01Z</time>
      </trkpt>
      <trkpt lat="42.47775" lon="2.30741">
        <ele>1555</ele>
        <time>2024-09-17T11:33:04Z</time>
      </trkpt>
      <trkpt lat="42.47775" lon="2.30737">
        <ele>1554</ele>
        <time>2024-09-17T11:33:07Z</time>
      </trkpt>
      <trkpt lat="42.47774" lon="2.30733">
        <ele>1554</ele>
        <time>2024-09-17T11:33:10Z</time>
      </trkpt>
      <trkpt lat="42.47774" lon="2.30728">
        <ele>1555</ele>
        <time>2024-09-17T11:33:13Z</time>
      </trkpt>
      <trkpt lat="42.47775" lon="2.30724">
        <ele>1555</ele>
        <time>2024-09-17T11:33:17Z</time>
      </trkpt>
      <trkpt lat="42.47774" lon="2.30719">
        <ele>1554</ele>
        <time>2024-09-17T11:33:20Z</time>
      </trkpt>
      <trkpt lat="42.47774" lon="2.30716">
        <ele>1554</ele>
        <time>2024-09-17T11:33:22Z</time>
      </trkpt>
      <trkpt lat="42.47775" lon="2.30711">
        <ele>1557</ele>
        <time>2024-09-17T11:33:25Z</time>
      </trkpt>
      <trkpt lat="42.47774" lon="2.30707">
        <ele>1559</ele>
        <time>2024-09-17T11:33:38Z</time>
      </trkpt>
      <trkpt lat="42.47774" lon="2.30703">
        <ele>1560</ele>
        <time>2024-09-17T11:33:52Z</time>
      </trkpt>
      <trkpt lat="42.47774" lon="2.30698">
        <ele>1560</ele>
        <time>2024-09-17T11:33:55Z</time>
      </trkpt>
      <trkpt lat="42.47775" lon="2.30694">
        <ele>1560</ele>
        <time>2024-09-17T11:33:58Z</time>
      </trkpt>
      <trkpt lat="42.47776" lon="2.30689">
        <ele>1560</ele>
        <time>2024-09-17T11:34:01Z</time>
      </trkpt>
      <trkpt lat="42.47775" lon="2.30685">
        <ele>1559</ele>
        <time>2024-09-17T11:34:03Z</time>
      </trkpt>
      <trkpt lat="42.47776" lon="2.30681">
        <ele>1559</ele>
        <time>2024-09-17T11:34:06Z</time>
      </trkpt>
      <trkpt lat="42.47776" lon="2.30677">
        <ele>1559</ele>
        <time>2024-09-17T11:34:08Z</time>
      </trkpt>
      <trkpt lat="42.47776" lon="2.30672">
        <ele>1557</ele>
        <time>2024-09-17T11:34:11Z</time>
      </trkpt>
      <trkpt lat="42.47776" lon="2.30668">
        <ele>1557</ele>
        <time>2024-09-17T11:34:14Z</time>
      </trkpt>
      <trkpt lat="42.47777" lon="2.30664">
        <ele>1556</ele>
        <time>2024-09-17T11:34:22Z</time>
      </trkpt>
      <trkpt lat="42.47776" lon="2.30659">
        <ele>1559</ele>
        <time>2024-09-17T11:34:31Z</time>
      </trkpt>
      <trkpt lat="42.47777" lon="2.30654">
        <ele>1564</ele>
        <time>2024-09-17T11:36:05Z</time>
      </trkpt>
      <trkpt lat="42.47778" lon="2.30649">
        <ele>1561</ele>
        <time>2024-09-17T11:36:08Z</time>
      </trkpt>
      <trkpt lat="42.47779" lon="2.30645">
        <ele>1560</ele>
        <time>2024-09-17T11:36:11Z</time>
      </trkpt>
      <trkpt lat="42.47779" lon="2.30641">
        <ele>1559</ele>
        <time>2024-09-17T11:36:15Z</time>
      </trkpt>
      <trkpt lat="42.4778" lon="2.30638">
        <ele>1559</ele>
        <time>2024-09-17T11:36:17Z</time>
      </trkpt>
      <trkpt lat="42.47781" lon="2.30633">
        <ele>1560</ele>
        <time>2024-09-17T11:36:20Z</time>
      </trkpt>
      <trkpt lat="42.47782" lon="2.30629">
        <ele>1560</ele>
        <time>2024-09-17T11:36:22Z</time>
      </trkpt>
      <trkpt lat="42.47784" lon="2.30625">
        <ele>1561</ele>
        <time>2024-09-17T11:36:25Z</time>
      </trkpt>
      <trkpt lat="42.47785" lon="2.30621">
        <ele>1561</ele>
        <time>2024-09-17T11:36:28Z</time>
      </trkpt>
      <trkpt lat="42.47787" lon="2.30616">
        <ele>1562</ele>
        <time>2024-09-17T11:36:31Z</time>
      </trkpt>
      <trkpt lat="42.47789" lon="2.30611">
        <ele>1561</ele>
        <time>2024-09-17T11:36:34Z</time>
      </trkpt>
      <trkpt lat="42.47791" lon="2.30607">
        <ele>1561</ele>
        <time>2024-09-17T11:36:37Z</time>
      </trkpt>
      <trkpt lat="42.47793" lon="2.30603">
        <ele>1561</ele>
        <time>2024-09-17T11:36:39Z</time>
      </trkpt>
      <trkpt lat="42.47794" lon="2.306">
        <ele>1562</ele>
        <time>2024-09-17T11:36:41Z</time>
      </trkpt>
      <trkpt lat="42.47797" lon="2.30596">
        <ele>1562</ele>
        <time>2024-09-17T11:36:44Z</time>
      </trkpt>
      <trkpt lat="42.47799" lon="2.30593">
        <ele>1563</ele>
        <time>2024-09-17T11:36:47Z</time>
      </trkpt>
      <trkpt lat="42.478" lon="2.30595">
        <ele>1566</ele>
        <time>2024-09-17T11:36:54Z</time>
      </trkpt>
      <trkpt lat="42.47798" lon="2.30597">
        <ele>1567</ele>
        <time>2024-09-17T11:36:56Z</time>
      </trkpt>
      <trkpt lat="42.47796" lon="2.306">
        <ele>1567</ele>
        <time>2024-09-17T11:36:58Z</time>
      </trkpt>
      <trkpt lat="42.47795" lon="2.30603">
        <ele>1567</ele>
        <time>2024-09-17T11:37:00Z</time>
      </trkpt>
      <trkpt lat="42.47793" lon="2.30606">
        <ele>1569</ele>
        <time>2024-09-17T11:37:02Z</time>
      </trkpt>
      <trkpt lat="42.47791" lon="2.3061">
        <ele>1569</ele>
        <time>2024-09-17T11:37:04Z</time>
      </trkpt>
      <trkpt lat="42.47789" lon="2.30613">
        <ele>1569</ele>
        <time>2024-09-17T11:37:06Z</time>
      </trkpt>
      <trkpt lat="42.47788" lon="2.30617">
        <ele>1569</ele>
        <time>2024-09-17T11:37:08Z</time>
      </trkpt>
      <trkpt lat="42.47786" lon="2.3062">
        <ele>1569</ele>
        <time>2024-09-17T11:37:10Z</time>
      </trkpt>
      <trkpt lat="42.47784" lon="2.30624">
        <ele>1569</ele>
        <time>2024-09-17T11:37:12Z</time>
      </trkpt>
      <trkpt lat="42.47783" lon="2.30627">
        <ele>1569</ele>
        <time>2024-09-17T11:37:14Z</time>
      </trkpt>
      <trkpt lat="42.47782" lon="2.30631">
        <ele>1569</ele>
        <time>2024-09-17T11:37:16Z</time>
      </trkpt>
      <trkpt lat="42.4778" lon="2.30635">
        <ele>1569</ele>
        <time>2024-09-17T11:37:18Z</time>
      </trkpt>
      <trkpt lat="42.47779" lon="2.30639">
        <ele>1569</ele>
        <time>2024-09-17T11:37:20Z</time>
      </trkpt>
      <trkpt lat="42.47779" lon="2.30642">
        <ele>1569</ele>
        <time>2024-09-17T11:37:22Z</time>
      </trkpt>
      <trkpt lat="42.47778" lon="2.30646">
        <ele>1569</ele>
        <time>2024-09-17T11:37:24Z</time>
      </trkpt>
      <trkpt lat="42.47777" lon="2.30651">
        <ele>1569</ele>
        <time>2024-09-17T11:37:28Z</time>
      </trkpt>
      <trkpt lat="42.47776" lon="2.30655">
        <ele>1569</ele>
        <time>2024-09-17T11:37:30Z</time>
      </trkpt>
      <trkpt lat="42.47775" lon="2.3066">
        <ele>1569</ele>
        <time>2024-09-17T11:37:33Z</time>
      </trkpt>
      <trkpt lat="42.47773" lon="2.30662">
        <ele>1567</ele>
        <time>2024-09-17T11:37:37Z</time>
      </trkpt>
      <trkpt lat="42.47774" lon="2.30661">
        <ele>1566</ele>
        <time>2024-09-17T11:37:41Z</time>
      </trkpt>
      <trkpt lat="42.47776" lon="2.30659">
        <ele>1565</ele>
        <time>2024-09-17T11:37:59Z</time>
      </trkpt>
      <trkpt lat="42.47778" lon="2.3066">
        <ele>1561</ele>
        <time>2024-09-17T11:38:35Z</time>
      </trkpt>
      <trkpt lat="42.4778" lon="2.30659">
        <ele>1560</ele>
        <time>2024-09-17T11:38:44Z</time>
      </trkpt>
      <trkpt lat="42.47783" lon="2.30662">
        <ele>1561</ele>
        <time>2024-09-17T11:38:48Z</time>
      </trkpt>
      <trkpt lat="42.47784" lon="2.30666">
        <ele>1562</ele>
        <time>2024-09-17T11:38:52Z</time>
      </trkpt>
      <trkpt lat="42.47784" lon="2.3067">
        <ele>1562</ele>
        <time>2024-09-17T11:38:54Z</time>
      </trkpt>
      <trkpt lat="42.47784" lon="2.30674">
        <ele>1563</ele>
        <time>2024-09-17T11:38:56Z</time>
      </trkpt>
      <trkpt lat="42.47784" lon="2.30678">
        <ele>1565</ele>
        <time>2024-09-17T11:38:59Z</time>
      </trkpt>
      <trkpt lat="42.47785" lon="2.30682">
        <ele>1566</ele>
        <time>2024-09-17T11:39:02Z</time>
      </trkpt>
      <trkpt lat="42.47786" lon="2.30687">
        <ele>1567</ele>
        <time>2024-09-17T11:39:06Z</time>
      </trkpt>
      <trkpt lat="42.47787" lon="2.30691">
        <ele>1567</ele>
        <time>2024-09-17T11:39:09Z</time>
      </trkpt>
      <trkpt lat="42.47788" lon="2.30695">
        <ele>1567</ele>
        <time>2024-09-17T11:39:12Z</time>
      </trkpt>
      <trkpt lat="42.47788" lon="2.30699">
        <ele>1569</ele>
        <time>2024-09-17T11:39:15Z</time>
      </trkpt>
      <trkpt lat="42.47788" lon="2.30703">
        <ele>1569</ele>
        <time>2024-09-17T11:39:18Z</time>
      </trkpt>
      <trkpt lat="42.4779" lon="2.30707">
        <ele>1570</ele>
        <time>2024-09-17T11:39:21Z</time>
      </trkpt>
      <trkpt lat="42.47791" lon="2.3071">
        <ele>1570</ele>
        <time>2024-09-17T11:39:25Z</time>
      </trkpt>
      <trkpt lat="42.47793" lon="2.30713">
        <ele>1571</ele>
        <time>2024-09-17T11:39:28Z</time>
      </trkpt>
      <trkpt lat="42.47795" lon="2.30717">
        <ele>1571</ele>
        <time>2024-09-17T11:39:31Z</time>
      </trkpt>
      <trkpt lat="42.47796" lon="2.30721">
        <ele>1571</ele>
        <time>2024-09-17T11:39:35Z</time>
      </trkpt>
      <trkpt lat="42.47798" lon="2.30724">
        <ele>1571</ele>
        <time>2024-09-17T11:39:38Z</time>
      </trkpt>
      <trkpt lat="42.478" lon="2.30728">
        <ele>1571</ele>
        <time>2024-09-17T11:39:41Z</time>
      </trkpt>
      <trkpt lat="42.47801" lon="2.30731">
        <ele>1572</ele>
        <time>2024-09-17T11:39:44Z</time>
      </trkpt>
      <trkpt lat="42.47802" lon="2.30735">
        <ele>1573</ele>
        <time>2024-09-17T11:39:47Z</time>
      </trkpt>
      <trkpt lat="42.47804" lon="2.30739">
        <ele>1573</ele>
        <time>2024-09-17T11:39:51Z</time>
      </trkpt>
      <trkpt lat="42.47805" lon="2.30743">
        <ele>1574</ele>
        <time>2024-09-17T11:39:54Z</time>
      </trkpt>
      <trkpt lat="42.47806" lon="2.30747">
        <ele>1574</ele>
        <time>2024-09-17T11:39:58Z</time>
      </trkpt>
      <trkpt lat="42.47808" lon="2.30752">
        <ele>1575</ele>
        <time>2024-09-17T11:40:02Z</time>
      </trkpt>
      <trkpt lat="42.47809" lon="2.30756">
        <ele>1576</ele>
        <time>2024-09-17T11:40:05Z</time>
      </trkpt>
      <trkpt lat="42.47811" lon="2.3076">
        <ele>1577</ele>
        <time>2024-09-17T11:40:08Z</time>
      </trkpt>
      <trkpt lat="42.47812" lon="2.30764">
        <ele>1577</ele>
        <time>2024-09-17T11:40:12Z</time>
      </trkpt>
      <trkpt lat="42.47814" lon="2.30768">
        <ele>1577</ele>
        <time>2024-09-17T11:40:16Z</time>
      </trkpt>
      <trkpt lat="42.47816" lon="2.30772">
        <ele>1579</ele>
        <time>2024-09-17T11:40:20Z</time>
      </trkpt>
      <trkpt lat="42.47818" lon="2.30775">
        <ele>1581</ele>
        <time>2024-09-17T11:40:24Z</time>
      </trkpt>
      <trkpt lat="42.4782" lon="2.30777">
        <ele>1581</ele>
        <time>2024-09-17T11:40:28Z</time>
      </trkpt>
      <trkpt lat="42.47822" lon="2.30781">
        <ele>1582</ele>
        <time>2024-09-17T11:40:32Z</time>
      </trkpt>
      <trkpt lat="42.47823" lon="2.30784">
        <ele>1583</ele>
        <time>2024-09-17T11:40:35Z</time>
      </trkpt>
      <trkpt lat="42.47825" lon="2.30788">
        <ele>1585</ele>
        <time>2024-09-17T11:40:39Z</time>
      </trkpt>
      <trkpt lat="42.47827" lon="2.30792">
        <ele>1586</ele>
        <time>2024-09-17T11:40:44Z</time>
      </trkpt>
      <trkpt lat="42.47828" lon="2.30797">
        <ele>1587</ele>
        <time>2024-09-17T11:40:48Z</time>
      </trkpt>
      <trkpt lat="42.4783" lon="2.30801">
        <ele>1587</ele>
        <time>2024-09-17T11:40:52Z</time>
      </trkpt>
      <trkpt lat="42.4783" lon="2.30805">
        <ele>1588</ele>
        <time>2024-09-17T11:40:56Z</time>
      </trkpt>
      <trkpt lat="42.47831" lon="2.30809">
        <ele>1588</ele>
        <time>2024-09-17T11:41:00Z</time>
      </trkpt>
      <trkpt lat="42.47832" lon="2.30812">
        <ele>1589</ele>
        <time>2024-09-17T11:41:04Z</time>
      </trkpt>
      <trkpt lat="42.47833" lon="2.30816">
        <ele>1589</ele>
        <time>2024-09-17T11:41:07Z</time>
      </trkpt>
      <trkpt lat="42.47834" lon="2.3082">
        <ele>1589</ele>
        <time>2024-09-17T11:41:11Z</time>
      </trkpt>
      <trkpt lat="42.47834" lon="2.30824">
        <ele>1589</ele>
        <time>2024-09-17T11:41:14Z</time>
      </trkpt>
      <trkpt lat="42.47834" lon="2.30828">
        <ele>1591</ele>
        <time>2024-09-17T11:41:17Z</time>
      </trkpt>
      <trkpt lat="42.47833" lon="2.30832">
        <ele>1592</ele>
        <time>2024-09-17T11:41:20Z</time>
      </trkpt>
      <trkpt lat="42.47833" lon="2.30837">
        <ele>1591</ele>
        <time>2024-09-17T11:41:23Z</time>
      </trkpt>
      <trkpt lat="42.47831" lon="2.30842">
        <ele>1591</ele>
        <time>2024-09-17T11:41:26Z</time>
      </trkpt>
      <trkpt lat="42.4783" lon="2.30846">
        <ele>1591</ele>
        <time>2024-09-17T11:41:28Z</time>
      </trkpt>
      <trkpt lat="42.47829" lon="2.30849">
        <ele>1593</ele>
        <time>2024-09-17T11:41:31Z</time>
      </trkpt>
      <trkpt lat="42.47828" lon="2.30854">
        <ele>1593</ele>
        <time>2024-09-17T11:41:34Z</time>
      </trkpt>
      <trkpt lat="42.47827" lon="2.30859">
        <ele>1593</ele>
        <time>2024-09-17T11:41:37Z</time>
      </trkpt>
      <trkpt lat="42.47826" lon="2.30864">
        <ele>1591</ele>
        <time>2024-09-17T11:41:41Z</time>
      </trkpt>
      <trkpt lat="42.47825" lon="2.30869">
        <ele>1592</ele>
        <time>2024-09-17T11:41:45Z</time>
      </trkpt>
      <trkpt lat="42.47824" lon="2.30873">
        <ele>1592</ele>
        <time>2024-09-17T11:41:48Z</time>
      </trkpt>
      <trkpt lat="42.47823" lon="2.30878">
        <ele>1592</ele>
        <time>2024-09-17T11:41:51Z</time>
      </trkpt>
      <trkpt lat="42.47823" lon="2.30882">
        <ele>1592</ele>
        <time>2024-09-17T11:41:54Z</time>
      </trkpt>
      <trkpt lat="42.47822" lon="2.30887">
        <ele>1592</ele>
        <time>2024-09-17T11:41:57Z</time>
      </trkpt>
      <trkpt lat="42.47821" lon="2.30892">
        <ele>1593</ele>
        <time>2024-09-17T11:42:00Z</time>
      </trkpt>
      <trkpt lat="42.47821" lon="2.30897">
        <ele>1592</ele>
        <time>2024-09-17T11:42:03Z</time>
      </trkpt>
      <trkpt lat="42.4782" lon="2.30902">
        <ele>1592</ele>
        <time>2024-09-17T11:42:05Z</time>
      </trkpt>
      <trkpt lat="42.4782" lon="2.30905">
        <ele>1593</ele>
        <time>2024-09-17T11:42:07Z</time>
      </trkpt>
      <trkpt lat="42.47819" lon="2.3091">
        <ele>1593</ele>
        <time>2024-09-17T11:42:10Z</time>
      </trkpt>
      <trkpt lat="42.47817" lon="2.30914">
        <ele>1593</ele>
        <time>2024-09-17T11:42:13Z</time>
      </trkpt>
      <trkpt lat="42.47815" lon="2.30918">
        <ele>1592</ele>
        <time>2024-09-17T11:42:15Z</time>
      </trkpt>
      <trkpt lat="42.47813" lon="2.30921">
        <ele>1590</ele>
        <time>2024-09-17T11:42:17Z</time>
      </trkpt>
      <trkpt lat="42.4781" lon="2.30921">
        <ele>1589</ele>
        <time>2024-09-17T11:42:21Z</time>
      </trkpt>
      <trkpt lat="42.47807" lon="2.30921">
        <ele>1588</ele>
        <time>2024-09-17T11:42:23Z</time>
      </trkpt>
      <trkpt lat="42.47804" lon="2.30919">
        <ele>1587</ele>
        <time>2024-09-17T11:42:25Z</time>
      </trkpt>
      <trkpt lat="42.47802" lon="2.30917">
        <ele>1586</ele>
        <time>2024-09-17T11:42:27Z</time>
      </trkpt>
      <trkpt lat="42.47799" lon="2.30915">
        <ele>1584</ele>
        <time>2024-09-17T11:42:30Z</time>
      </trkpt>
      <trkpt lat="42.47797" lon="2.30912">
        <ele>1583</ele>
        <time>2024-09-17T11:42:32Z</time>
      </trkpt>
      <trkpt lat="42.47794" lon="2.30909">
        <ele>1583</ele>
        <time>2024-09-17T11:42:34Z</time>
      </trkpt>
      <trkpt lat="42.47792" lon="2.30907">
        <ele>1582</ele>
        <time>2024-09-17T11:42:36Z</time>
      </trkpt>
      <trkpt lat="42.4779" lon="2.30904">
        <ele>1581</ele>
        <time>2024-09-17T11:42:38Z</time>
      </trkpt>
      <trkpt lat="42.47788" lon="2.30901">
        <ele>1581</ele>
        <time>2024-09-17T11:42:40Z</time>
      </trkpt>
      <trkpt lat="42.47786" lon="2.30898">
        <ele>1580</ele>
        <time>2024-09-17T11:42:43Z</time>
      </trkpt>
      <trkpt lat="42.47784" lon="2.30895">
        <ele>1578</ele>
        <time>2024-09-17T11:42:46Z</time>
      </trkpt>
      <trkpt lat="42.47781" lon="2.30894">
        <ele>1577</ele>
        <time>2024-09-17T11:42:49Z</time>
      </trkpt>
      <trkpt lat="42.47781" lon="2.30895">
        <ele>1576</ele>
        <time>2024-09-17T11:42:55Z</time>
      </trkpt>
      <trkpt lat="42.47781" lon="2.30898">
        <ele>1576</ele>
        <time>2024-09-17T11:43:02Z</time>
      </trkpt>
      <trkpt lat="42.47782" lon="2.30902">
        <ele>1575</ele>
        <time>2024-09-17T11:43:08Z</time>
      </trkpt>
      <trkpt lat="42.47784" lon="2.30904">
        <ele>1577</ele>
        <time>2024-09-17T11:43:11Z</time>
      </trkpt>
      <trkpt lat="42.47786" lon="2.30906">
        <ele>1577</ele>
        <time>2024-09-17T11:43:14Z</time>
      </trkpt>
      <trkpt lat="42.47789" lon="2.30909">
        <ele>1577</ele>
        <time>2024-09-17T11:43:18Z</time>
      </trkpt>
      <trkpt lat="42.47791" lon="2.30912">
        <ele>1580</ele>
        <time>2024-09-17T11:43:22Z</time>
      </trkpt>
      <trkpt lat="42.47794" lon="2.30914">
        <ele>1579</ele>
        <time>2024-09-17T11:43:27Z</time>
      </trkpt>
      <trkpt lat="42.47797" lon="2.30916">
        <ele>1580</ele>
        <time>2024-09-17T11:43:32Z</time>
      </trkpt>
      <trkpt lat="42.478" lon="2.30918">
        <ele>1580</ele>
        <time>2024-09-17T11:43:38Z</time>
      </trkpt>
      <trkpt lat="42.47803" lon="2.3092">
        <ele>1581</ele>
        <time>2024-09-17T11:43:43Z</time>
      </trkpt>
      <trkpt lat="42.47806" lon="2.30921">
        <ele>1582</ele>
        <time>2024-09-17T11:43:48Z</time>
      </trkpt>
      <trkpt lat="42.47809" lon="2.30921">
        <ele>1583</ele>
        <time>2024-09-17T11:43:51Z</time>
      </trkpt>
      <trkpt lat="42.47811" lon="2.30919">
        <ele>1582</ele>
        <time>2024-09-17T11:43:54Z</time>
      </trkpt>
      <trkpt lat="42.47814" lon="2.30917">
        <ele>1581</ele>
        <time>2024-09-17T11:43:58Z</time>
      </trkpt>
      <trkpt lat="42.47816" lon="2.30913">
        <ele>1580</ele>
        <time>2024-09-17T11:44:01Z</time>
      </trkpt>
      <trkpt lat="42.47817" lon="2.30909">
        <ele>1580</ele>
        <time>2024-09-17T11:44:04Z</time>
      </trkpt>
      <trkpt lat="42.47818" lon="2.30904">
        <ele>1580</ele>
        <time>2024-09-17T11:44:07Z</time>
      </trkpt>
      <trkpt lat="42.47819" lon="2.309">
        <ele>1580</ele>
        <time>2024-09-17T11:44:10Z</time>
      </trkpt>
      <trkpt lat="42.47821" lon="2.30895">
        <ele>1580</ele>
        <time>2024-09-17T11:44:13Z</time>
      </trkpt>
      <trkpt lat="42.47821" lon="2.30891">
        <ele>1581</ele>
        <time>2024-09-17T11:44:15Z</time>
      </trkpt>
      <trkpt lat="42.47822" lon="2.30887">
        <ele>1582</ele>
        <time>2024-09-17T11:44:18Z</time>
      </trkpt>
      <trkpt lat="42.47823" lon="2.30884">
        <ele>1581</ele>
        <time>2024-09-17T11:44:20Z</time>
      </trkpt>
      <trkpt lat="42.47825" lon="2.30881">
        <ele>1582</ele>
        <time>2024-09-17T11:44:23Z</time>
      </trkpt>
      <trkpt lat="42.47826" lon="2.30877">
        <ele>1582</ele>
        <time>2024-09-17T11:44:26Z</time>
      </trkpt>
      <trkpt lat="42.47827" lon="2.30873">
        <ele>1583</ele>
        <time>2024-09-17T11:44:29Z</time>
      </trkpt>
      <trkpt lat="42.47828" lon="2.30869">
        <ele>1582</ele>
        <time>2024-09-17T11:44:33Z</time>
      </trkpt>
      <trkpt lat="42.47829" lon="2.30864">
        <ele>1581</ele>
        <time>2024-09-17T11:44:36Z</time>
      </trkpt>
      <trkpt lat="42.47831" lon="2.30861">
        <ele>1582</ele>
        <time>2024-09-17T11:44:39Z</time>
      </trkpt>
      <trkpt lat="42.47832" lon="2.30857">
        <ele>1583</ele>
        <time>2024-09-17T11:44:42Z</time>
      </trkpt>
      <trkpt lat="42.47834" lon="2.30854">
        <ele>1583</ele>
        <time>2024-09-17T11:44:45Z</time>
      </trkpt>
      <trkpt lat="42.47835" lon="2.3085">
        <ele>1582</ele>
        <time>2024-09-17T11:44:51Z</time>
      </trkpt>
      <trkpt lat="42.47837" lon="2.30847">
        <ele>1583</ele>
        <time>2024-09-17T11:44:54Z</time>
      </trkpt>
      <trkpt lat="42.47839" lon="2.30844">
        <ele>1584</ele>
        <time>2024-09-17T11:44:57Z</time>
      </trkpt>
      <trkpt lat="42.47841" lon="2.30846">
        <ele>1585</ele>
        <time>2024-09-17T11:45:04Z</time>
      </trkpt>
      <trkpt lat="42.47841" lon="2.30849">
        <ele>1589</ele>
        <time>2024-09-17T11:45:08Z</time>
      </trkpt>
      <trkpt lat="42.47842" lon="2.30853">
        <ele>1590</ele>
        <time>2024-09-17T11:45:12Z</time>
      </trkpt>
      <trkpt lat="42.47843" lon="2.30857">
        <ele>1591</ele>
        <time>2024-09-17T11:45:16Z</time>
      </trkpt>
      <trkpt lat="42.47845" lon="2.30861">
        <ele>1594</ele>
        <time>2024-09-17T11:45:20Z</time>
      </trkpt>
      <trkpt lat="42.47845" lon="2.30865">
        <ele>1596</ele>
        <time>2024-09-17T11:45:25Z</time>
      </trkpt>
      <trkpt lat="42.47846" lon="2.30869">
        <ele>1597</ele>
        <time>2024-09-17T11:45:28Z</time>
      </trkpt>
      <trkpt lat="42.47846" lon="2.30873">
        <ele>1599</ele>
        <time>2024-09-17T11:45:33Z</time>
      </trkpt>
      <trkpt lat="42.47847" lon="2.30877">
        <ele>1600</ele>
        <time>2024-09-17T11:45:38Z</time>
      </trkpt>
      <trkpt lat="42.47847" lon="2.30881">
        <ele>1600</ele>
        <time>2024-09-17T11:45:42Z</time>
      </trkpt>
      <trkpt lat="42.47847" lon="2.30886">
        <ele>1600</ele>
        <time>2024-09-17T11:45:48Z</time>
      </trkpt>
      <trkpt lat="42.47848" lon="2.30891">
        <ele>1600</ele>
        <time>2024-09-17T11:45:54Z</time>
      </trkpt>
      <trkpt lat="42.47848" lon="2.30895">
        <ele>1600</ele>
        <time>2024-09-17T11:45:58Z</time>
      </trkpt>
      <trkpt lat="42.47849" lon="2.309">
        <ele>1601</ele>
        <time>2024-09-17T11:46:03Z</time>
      </trkpt>
      <trkpt lat="42.4785" lon="2.30904">
        <ele>1601</ele>
        <time>2024-09-17T11:46:08Z</time>
      </trkpt>
      <trkpt lat="42.4785" lon="2.30908">
        <ele>1601</ele>
        <time>2024-09-17T11:46:13Z</time>
      </trkpt>
      <trkpt lat="42.47851" lon="2.30913">
        <ele>1600</ele>
        <time>2024-09-17T11:46:16Z</time>
      </trkpt>
      <trkpt lat="42.47851" lon="2.30917">
        <ele>1599</ele>
        <time>2024-09-17T11:46:23Z</time>
      </trkpt>
      <trkpt lat="42.47852" lon="2.30922">
        <ele>1600</ele>
        <time>2024-09-17T11:46:26Z</time>
      </trkpt>
      <trkpt lat="42.47854" lon="2.30925">
        <ele>1600</ele>
        <time>2024-09-17T11:46:30Z</time>
      </trkpt>
      <trkpt lat="42.47855" lon="2.3093">
        <ele>1602</ele>
        <time>2024-09-17T11:46:34Z</time>
      </trkpt>
      <trkpt lat="42.47856" lon="2.30934">
        <ele>1602</ele>
        <time>2024-09-17T11:46:39Z</time>
      </trkpt>
      <trkpt lat="42.47857" lon="2.30938">
        <ele>1603</ele>
        <time>2024-09-17T11:46:52Z</time>
      </trkpt>
      <trkpt lat="42.47858" lon="2.30942">
        <ele>1601</ele>
        <time>2024-09-17T11:46:56Z</time>
      </trkpt>
      <trkpt lat="42.47859" lon="2.30946">
        <ele>1603</ele>
        <time>2024-09-17T11:47:01Z</time>
      </trkpt>
      <trkpt lat="42.47861" lon="2.30946">
        <ele>1604</ele>
        <time>2024-09-17T11:47:06Z</time>
      </trkpt>
      <trkpt lat="42.47862" lon="2.30943">
        <ele>1602</ele>
        <time>2024-09-17T11:47:10Z</time>
      </trkpt>
      <trkpt lat="42.47863" lon="2.3094">
        <ele>1603</ele>
        <time>2024-09-17T11:47:14Z</time>
      </trkpt>
      <trkpt lat="42.47864" lon="2.30937">
        <ele>1604</ele>
        <time>2024-09-17T11:47:18Z</time>
      </trkpt>
      <trkpt lat="42.47866" lon="2.30934">
        <ele>1604</ele>
        <time>2024-09-17T11:47:22Z</time>
      </trkpt>
      <trkpt lat="42.47868" lon="2.30931">
        <ele>1604</ele>
        <time>2024-09-17T11:47:26Z</time>
      </trkpt>
      <trkpt lat="42.4787" lon="2.30928">
        <ele>1604</ele>
        <time>2024-09-17T11:47:31Z</time>
      </trkpt>
      <trkpt lat="42.47872" lon="2.30924">
        <ele>1604</ele>
        <time>2024-09-17T11:47:34Z</time>
      </trkpt>
      <trkpt lat="42.47874" lon="2.3092">
        <ele>1605</ele>
        <time>2024-09-17T11:47:38Z</time>
      </trkpt>
      <trkpt lat="42.47875" lon="2.30917">
        <ele>1606</ele>
        <time>2024-09-17T11:47:42Z</time>
      </trkpt>
      <trkpt lat="42.47876" lon="2.30913">
        <ele>1606</ele>
        <time>2024-09-17T11:47:46Z</time>
      </trkpt>
      <trkpt lat="42.47878" lon="2.3091">
        <ele>1606</ele>
        <time>2024-09-17T11:47:50Z</time>
      </trkpt>
      <trkpt lat="42.4788" lon="2.30907">
        <ele>1606</ele>
        <time>2024-09-17T11:47:54Z</time>
      </trkpt>
      <trkpt lat="42.47882" lon="2.30905">
        <ele>1607</ele>
        <time>2024-09-17T11:47:59Z</time>
      </trkpt>
      <trkpt lat="42.47884" lon="2.30902">
        <ele>1607</ele>
        <time>2024-09-17T11:48:04Z</time>
      </trkpt>
      <trkpt lat="42.47887" lon="2.30902">
        <ele>1608</ele>
        <time>2024-09-17T11:48:10Z</time>
      </trkpt>
      <trkpt lat="42.47888" lon="2.30905">
        <ele>1609</ele>
        <time>2024-09-17T11:48:14Z</time>
      </trkpt>
      <trkpt lat="42.47889" lon="2.30908">
        <ele>1610</ele>
        <time>2024-09-17T11:48:19Z</time>
      </trkpt>
      <trkpt lat="42.47889" lon="2.30911">
        <ele>1612</ele>
        <time>2024-09-17T11:48:23Z</time>
      </trkpt>
      <trkpt lat="42.47889" lon="2.30915">
        <ele>1612</ele>
        <time>2024-09-17T11:48:28Z</time>
      </trkpt>
      <trkpt lat="42.4789" lon="2.30919">
        <ele>1612</ele>
        <time>2024-09-17T11:48:31Z</time>
      </trkpt>
      <trkpt lat="42.4789" lon="2.30923">
        <ele>1614</ele>
        <time>2024-09-17T11:48:36Z</time>
      </trkpt>
      <trkpt lat="42.47891" lon="2.30927">
        <ele>1615</ele>
        <time>2024-09-17T11:48:41Z</time>
      </trkpt>
      <trkpt lat="42.47891" lon="2.30931">
        <ele>1616</ele>
        <time>2024-09-17T11:48:47Z</time>
      </trkpt>
      <trkpt lat="42.47892" lon="2.30935">
        <ele>1616</ele>
        <time>2024-09-17T11:48:52Z</time>
      </trkpt>
      <trkpt lat="42.47893" lon="2.3094">
        <ele>1617</ele>
        <time>2024-09-17T11:48:57Z</time>
      </trkpt>
      <trkpt lat="42.47894" lon="2.30943">
        <ele>1618</ele>
        <time>2024-09-17T11:49:01Z</time>
      </trkpt>
      <trkpt lat="42.47895" lon="2.30947">
        <ele>1619</ele>
        <time>2024-09-17T11:49:07Z</time>
      </trkpt>
      <trkpt lat="42.47894" lon="2.30951">
        <ele>1618</ele>
        <time>2024-09-17T11:49:11Z</time>
      </trkpt>
      <trkpt lat="42.47894" lon="2.30955">
        <ele>1619</ele>
        <time>2024-09-17T11:49:15Z</time>
      </trkpt>
      <trkpt lat="42.47895" lon="2.30959">
        <ele>1619</ele>
        <time>2024-09-17T11:49:19Z</time>
      </trkpt>
      <trkpt lat="42.47894" lon="2.30963">
        <ele>1620</ele>
        <time>2024-09-17T11:49:23Z</time>
      </trkpt>
      <trkpt lat="42.47895" lon="2.30967">
        <ele>1620</ele>
        <time>2024-09-17T11:49:27Z</time>
      </trkpt>
      <trkpt lat="42.47895" lon="2.30971">
        <ele>1621</ele>
        <time>2024-09-17T11:49:32Z</time>
      </trkpt>
      <trkpt lat="42.47896" lon="2.30975">
        <ele>1621</ele>
        <time>2024-09-17T11:49:36Z</time>
      </trkpt>
      <trkpt lat="42.47898" lon="2.30979">
        <ele>1621</ele>
        <time>2024-09-17T11:49:42Z</time>
      </trkpt>
      <trkpt lat="42.479" lon="2.30982">
        <ele>1622</ele>
        <time>2024-09-17T11:49:47Z</time>
      </trkpt>
      <trkpt lat="42.47901" lon="2.30986">
        <ele>1624</ele>
        <time>2024-09-17T11:49:51Z</time>
      </trkpt>
      <trkpt lat="42.47903" lon="2.30989">
        <ele>1624</ele>
        <time>2024-09-17T11:49:56Z</time>
      </trkpt>
      <trkpt lat="42.47905" lon="2.30992">
        <ele>1626</ele>
        <time>2024-09-17T11:50:01Z</time>
      </trkpt>
      <trkpt lat="42.47907" lon="2.30995">
        <ele>1626</ele>
        <time>2024-09-17T11:50:10Z</time>
      </trkpt>
      <trkpt lat="42.47907" lon="2.30999">
        <ele>1627</ele>
        <time>2024-09-17T11:50:14Z</time>
      </trkpt>
      <trkpt lat="42.47906" lon="2.31003">
        <ele>1628</ele>
        <time>2024-09-17T11:50:18Z</time>
      </trkpt>
      <trkpt lat="42.47907" lon="2.31007">
        <ele>1629</ele>
        <time>2024-09-17T11:50:24Z</time>
      </trkpt>
      <trkpt lat="42.47908" lon="2.31011">
        <ele>1629</ele>
        <time>2024-09-17T11:50:29Z</time>
      </trkpt>
      <trkpt lat="42.47909" lon="2.31015">
        <ele>1630</ele>
        <time>2024-09-17T11:50:34Z</time>
      </trkpt>
      <trkpt lat="42.4791" lon="2.31018">
        <ele>1631</ele>
        <time>2024-09-17T11:50:37Z</time>
      </trkpt>
      <trkpt lat="42.47911" lon="2.31022">
        <ele>1633</ele>
        <time>2024-09-17T11:50:41Z</time>
      </trkpt>
      <trkpt lat="42.47911" lon="2.31026">
        <ele>1633</ele>
        <time>2024-09-17T11:50:46Z</time>
      </trkpt>
      <trkpt lat="42.47912" lon="2.3103">
        <ele>1633</ele>
        <time>2024-09-17T11:50:50Z</time>
      </trkpt>
      <trkpt lat="42.47913" lon="2.31034">
        <ele>1635</ele>
        <time>2024-09-17T11:50:55Z</time>
      </trkpt>
      <trkpt lat="42.47913" lon="2.31038">
        <ele>1635</ele>
        <time>2024-09-17T11:51:01Z</time>
      </trkpt>
      <trkpt lat="42.47914" lon="2.31042">
        <ele>1636</ele>
        <time>2024-09-17T11:51:07Z</time>
      </trkpt>
      <trkpt lat="42.47915" lon="2.31046">
        <ele>1636</ele>
        <time>2024-09-17T11:51:12Z</time>
      </trkpt>
      <trkpt lat="42.47916" lon="2.3105">
        <ele>1637</ele>
        <time>2024-09-17T11:51:18Z</time>
      </trkpt>
      <trkpt lat="42.47916" lon="2.31054">
        <ele>1638</ele>
        <time>2024-09-17T11:51:23Z</time>
      </trkpt>
      <trkpt lat="42.47917" lon="2.31058">
        <ele>1638</ele>
        <time>2024-09-17T11:51:28Z</time>
      </trkpt>
      <trkpt lat="42.47918" lon="2.31061">
        <ele>1638</ele>
        <time>2024-09-17T11:51:35Z</time>
      </trkpt>
      <trkpt lat="42.4792" lon="2.31064">
        <ele>1639</ele>
        <time>2024-09-17T11:51:41Z</time>
      </trkpt>
      <trkpt lat="42.47921" lon="2.31068">
        <ele>1639</ele>
        <time>2024-09-17T11:51:46Z</time>
      </trkpt>
      <trkpt lat="42.47924" lon="2.3107">
        <ele>1641</ele>
        <time>2024-09-17T11:51:52Z</time>
      </trkpt>
      <trkpt lat="42.47926" lon="2.31069">
        <ele>1641</ele>
        <time>2024-09-17T11:51:56Z</time>
      </trkpt>
      <trkpt lat="42.47928" lon="2.31067">
        <ele>1642</ele>
        <time>2024-09-17T11:52:01Z</time>
      </trkpt>
      <trkpt lat="42.47931" lon="2.31065">
        <ele>1642</ele>
        <time>2024-09-17T11:52:06Z</time>
      </trkpt>
      <trkpt lat="42.47933" lon="2.31062">
        <ele>1642</ele>
        <time>2024-09-17T11:52:11Z</time>
      </trkpt>
      <trkpt lat="42.47935" lon="2.31059">
        <ele>1644</ele>
        <time>2024-09-17T11:52:16Z</time>
      </trkpt>
      <trkpt lat="42.47937" lon="2.31056">
        <ele>1646</ele>
        <time>2024-09-17T11:52:21Z</time>
      </trkpt>
      <trkpt lat="42.47939" lon="2.31053">
        <ele>1645</ele>
        <time>2024-09-17T11:52:25Z</time>
      </trkpt>
      <trkpt lat="42.4794" lon="2.31049">
        <ele>1645</ele>
        <time>2024-09-17T11:52:29Z</time>
      </trkpt>
      <trkpt lat="42.47942" lon="2.31046">
        <ele>1645</ele>
        <time>2024-09-17T11:52:33Z</time>
      </trkpt>
      <trkpt lat="42.47944" lon="2.31043">
        <ele>1647</ele>
        <time>2024-09-17T11:52:37Z</time>
      </trkpt>
      <trkpt lat="42.47945" lon="2.31039">
        <ele>1648</ele>
        <time>2024-09-17T11:52:41Z</time>
      </trkpt>
      <trkpt lat="42.47947" lon="2.31035">
        <ele>1648</ele>
        <time>2024-09-17T11:52:44Z</time>
      </trkpt>
      <trkpt lat="42.47949" lon="2.31034">
        <ele>1648</ele>
        <time>2024-09-17T11:52:50Z</time>
      </trkpt>
      <trkpt lat="42.47951" lon="2.31036">
        <ele>1649</ele>
        <time>2024-09-17T11:52:55Z</time>
      </trkpt>
      <trkpt lat="42.47952" lon="2.3104">
        <ele>1650</ele>
        <time>2024-09-17T11:53:01Z</time>
      </trkpt>
      <trkpt lat="42.47952" lon="2.31043">
        <ele>1651</ele>
        <time>2024-09-17T11:53:06Z</time>
      </trkpt>
      <trkpt lat="42.47953" lon="2.31047">
        <ele>1651</ele>
        <time>2024-09-17T11:53:11Z</time>
      </trkpt>
      <trkpt lat="42.47953" lon="2.31051">
        <ele>1651</ele>
        <time>2024-09-17T11:53:15Z</time>
      </trkpt>
      <trkpt lat="42.47953" lon="2.31055">
        <ele>1653</ele>
        <time>2024-09-17T11:53:20Z</time>
      </trkpt>
      <trkpt lat="42.47954" lon="2.31059">
        <ele>1653</ele>
        <time>2024-09-17T11:53:27Z</time>
      </trkpt>
      <trkpt lat="42.47955" lon="2.31063">
        <ele>1654</ele>
        <time>2024-09-17T11:53:32Z</time>
      </trkpt>
      <trkpt lat="42.47956" lon="2.31067">
        <ele>1655</ele>
        <time>2024-09-17T11:53:37Z</time>
      </trkpt>
      <trkpt lat="42.47956" lon="2.31071">
        <ele>1657</ele>
        <time>2024-09-17T11:53:42Z</time>
      </trkpt>
      <trkpt lat="42.47958" lon="2.31075">
        <ele>1657</ele>
        <time>2024-09-17T11:53:47Z</time>
      </trkpt>
      <trkpt lat="42.4796" lon="2.3108">
        <ele>1657</ele>
        <time>2024-09-17T11:53:53Z</time>
      </trkpt>
      <trkpt lat="42.4796" lon="2.31084">
        <ele>1659</ele>
        <time>2024-09-17T11:53:58Z</time>
      </trkpt>
      <trkpt lat="42.47961" lon="2.31087">
        <ele>1660</ele>
        <time>2024-09-17T11:54:04Z</time>
      </trkpt>
      <trkpt lat="42.47962" lon="2.31091">
        <ele>1662</ele>
        <time>2024-09-17T11:54:09Z</time>
      </trkpt>
      <trkpt lat="42.47963" lon="2.31095">
        <ele>1664</ele>
        <time>2024-09-17T11:54:13Z</time>
      </trkpt>
      <trkpt lat="42.47963" lon="2.31099">
        <ele>1665</ele>
        <time>2024-09-17T11:54:19Z</time>
      </trkpt>
      <trkpt lat="42.47963" lon="2.31103">
        <ele>1668</ele>
        <time>2024-09-17T11:54:24Z</time>
      </trkpt>
      <trkpt lat="42.47964" lon="2.31107">
        <ele>1669</ele>
        <time>2024-09-17T11:54:29Z</time>
      </trkpt>
      <trkpt lat="42.47963" lon="2.31111">
        <ele>1670</ele>
        <time>2024-09-17T11:54:33Z</time>
      </trkpt>
      <trkpt lat="42.47963" lon="2.31115">
        <ele>1671</ele>
        <time>2024-09-17T11:54:38Z</time>
      </trkpt>
      <trkpt lat="42.47964" lon="2.31119">
        <ele>1671</ele>
        <time>2024-09-17T11:54:43Z</time>
      </trkpt>
      <trkpt lat="42.47964" lon="2.31123">
        <ele>1672</ele>
        <time>2024-09-17T11:54:48Z</time>
      </trkpt>
      <trkpt lat="42.47965" lon="2.31127">
        <ele>1673</ele>
        <time>2024-09-17T11:54:52Z</time>
      </trkpt>
      <trkpt lat="42.47966" lon="2.31129">
        <ele>1674</ele>
        <time>2024-09-17T11:54:59Z</time>
      </trkpt>
      <trkpt lat="42.47968" lon="2.31127">
        <ele>1674</ele>
        <time>2024-09-17T11:55:03Z</time>
      </trkpt>
      <trkpt lat="42.47969" lon="2.31124">
        <ele>1674</ele>
        <time>2024-09-17T11:55:07Z</time>
      </trkpt>
      <trkpt lat="42.47971" lon="2.31121">
        <ele>1674</ele>
        <time>2024-09-17T11:55:12Z</time>
      </trkpt>
      <trkpt lat="42.47973" lon="2.31117">
        <ele>1674</ele>
        <time>2024-09-17T11:55:16Z</time>
      </trkpt>
      <trkpt lat="42.47975" lon="2.31114">
        <ele>1675</ele>
        <time>2024-09-17T11:55:19Z</time>
      </trkpt>
      <trkpt lat="42.47977" lon="2.3111">
        <ele>1674</ele>
        <time>2024-09-17T11:55:22Z</time>
      </trkpt>
      <trkpt lat="42.47978" lon="2.31106">
        <ele>1673</ele>
        <time>2024-09-17T11:55:25Z</time>
      </trkpt>
      <trkpt lat="42.4798" lon="2.31103">
        <ele>1674</ele>
        <time>2024-09-17T11:55:29Z</time>
      </trkpt>
      <trkpt lat="42.47981" lon="2.31099">
        <ele>1674</ele>
        <time>2024-09-17T11:55:33Z</time>
      </trkpt>
      <trkpt lat="42.47983" lon="2.31096">
        <ele>1674</ele>
        <time>2024-09-17T11:55:37Z</time>
      </trkpt>
      <trkpt lat="42.47984" lon="2.31092">
        <ele>1675</ele>
        <time>2024-09-17T11:55:41Z</time>
      </trkpt>
      <trkpt lat="42.47987" lon="2.3109">
        <ele>1675</ele>
        <time>2024-09-17T11:55:47Z</time>
      </trkpt>
      <trkpt lat="42.47988" lon="2.31092">
        <ele>1676</ele>
        <time>2024-09-17T11:55:54Z</time>
      </trkpt>
      <trkpt lat="42.47988" lon="2.31095">
        <ele>1676</ele>
        <time>2024-09-17T11:55:58Z</time>
      </trkpt>
      <trkpt lat="42.47987" lon="2.31099">
        <ele>1677</ele>
        <time>2024-09-17T11:56:01Z</time>
      </trkpt>
      <trkpt lat="42.47987" lon="2.31102">
        <ele>1677</ele>
        <time>2024-09-17T11:56:04Z</time>
      </trkpt>
      <trkpt lat="42.47986" lon="2.31106">
        <ele>1678</ele>
        <time>2024-09-17T11:56:07Z</time>
      </trkpt>
      <trkpt lat="42.47985" lon="2.3111">
        <ele>1679</ele>
        <time>2024-09-17T11:56:10Z</time>
      </trkpt>
      <trkpt lat="42.47984" lon="2.31113">
        <ele>1679</ele>
        <time>2024-09-17T11:56:14Z</time>
      </trkpt>
      <trkpt lat="42.47983" lon="2.31117">
        <ele>1679</ele>
        <time>2024-09-17T11:56:17Z</time>
      </trkpt>
      <trkpt lat="42.47982" lon="2.31122">
        <ele>1681</ele>
        <time>2024-09-17T11:56:22Z</time>
      </trkpt>
      <trkpt lat="42.47981" lon="2.31126">
        <ele>1681</ele>
        <time>2024-09-17T11:56:25Z</time>
      </trkpt>
      <trkpt lat="42.4798" lon="2.3113">
        <ele>1683</ele>
        <time>2024-09-17T11:56:28Z</time>
      </trkpt>
      <trkpt lat="42.47979" lon="2.31134">
        <ele>1684</ele>
        <time>2024-09-17T11:56:31Z</time>
      </trkpt>
      <trkpt lat="42.47978" lon="2.31138">
        <ele>1685</ele>
        <time>2024-09-17T11:56:34Z</time>
      </trkpt>
      <trkpt lat="42.47978" lon="2.31142">
        <ele>1685</ele>
        <time>2024-09-17T11:56:38Z</time>
      </trkpt>
      <trkpt lat="42.47979" lon="2.31146">
        <ele>1685</ele>
        <time>2024-09-17T11:56:42Z</time>
      </trkpt>
      <trkpt lat="42.47979" lon="2.3115">
        <ele>1684</ele>
        <time>2024-09-17T11:56:46Z</time>
      </trkpt>
      <trkpt lat="42.4798" lon="2.31155">
        <ele>1683</ele>
        <time>2024-09-17T11:56:51Z</time>
      </trkpt>
      <trkpt lat="42.47982" lon="2.31158">
        <ele>1685</ele>
        <time>2024-09-17T11:56:59Z</time>
      </trkpt>
      <trkpt lat="42.47983" lon="2.31162">
        <ele>1685</ele>
        <time>2024-09-17T11:57:03Z</time>
      </trkpt>
      <trkpt lat="42.47984" lon="2.31166">
        <ele>1686</ele>
        <time>2024-09-17T11:57:07Z</time>
      </trkpt>
      <trkpt lat="42.47986" lon="2.31168">
        <ele>1686</ele>
        <time>2024-09-17T11:57:12Z</time>
      </trkpt>
      <trkpt lat="42.47988" lon="2.3117">
        <ele>1687</ele>
        <time>2024-09-17T11:57:18Z</time>
      </trkpt>
      <trkpt lat="42.47991" lon="2.31171">
        <ele>1688</ele>
        <time>2024-09-17T11:57:26Z</time>
      </trkpt>
      <trkpt lat="42.47992" lon="2.3117">
        <ele>1689</ele>
        <time>2024-09-17T11:57:31Z</time>
      </trkpt>
      <trkpt lat="42.47994" lon="2.31167">
        <ele>1689</ele>
        <time>2024-09-17T11:57:36Z</time>
      </trkpt>
      <trkpt lat="42.47995" lon="2.31164">
        <ele>1690</ele>
        <time>2024-09-17T11:57:41Z</time>
      </trkpt>
      <trkpt lat="42.47997" lon="2.31162">
        <ele>1691</ele>
        <time>2024-09-17T11:57:47Z</time>
      </trkpt>
      <trkpt lat="42.48" lon="2.31163">
        <ele>1691</ele>
        <time>2024-09-17T11:57:53Z</time>
      </trkpt>
      <trkpt lat="42.48002" lon="2.3116">
        <ele>1692</ele>
        <time>2024-09-17T11:57:59Z</time>
      </trkpt>
      <trkpt lat="42.48003" lon="2.31158">
        <ele>1694</ele>
        <time>2024-09-17T11:58:03Z</time>
      </trkpt>
      <trkpt lat="42.48005" lon="2.31154">
        <ele>1694</ele>
        <time>2024-09-17T11:58:08Z</time>
      </trkpt>
      <trkpt lat="42.48007" lon="2.31151">
        <ele>1695</ele>
        <time>2024-09-17T11:58:13Z</time>
      </trkpt>
      <trkpt lat="42.48008" lon="2.31148">
        <ele>1696</ele>
        <time>2024-09-17T11:58:17Z</time>
      </trkpt>
      <trkpt lat="42.4801" lon="2.31145">
        <ele>1696</ele>
        <time>2024-09-17T11:58:21Z</time>
      </trkpt>
      <trkpt lat="42.48012" lon="2.31142">
        <ele>1695</ele>
        <time>2024-09-17T11:58:27Z</time>
      </trkpt>
      <trkpt lat="42.48014" lon="2.31139">
        <ele>1695</ele>
        <time>2024-09-17T11:58:32Z</time>
      </trkpt>
      <trkpt lat="42.48016" lon="2.31136">
        <ele>1696</ele>
        <time>2024-09-17T11:58:37Z</time>
      </trkpt>
      <trkpt lat="42.48018" lon="2.31133">
        <ele>1697</ele>
        <time>2024-09-17T11:58:42Z</time>
      </trkpt>
      <trkpt lat="42.48019" lon="2.31129">
        <ele>1697</ele>
        <time>2024-09-17T11:58:47Z</time>
      </trkpt>
      <trkpt lat="42.48021" lon="2.31126">
        <ele>1698</ele>
        <time>2024-09-17T11:58:53Z</time>
      </trkpt>
      <trkpt lat="42.48023" lon="2.31123">
        <ele>1698</ele>
        <time>2024-09-17T11:58:57Z</time>
      </trkpt>
      <trkpt lat="42.48025" lon="2.3112">
        <ele>1699</ele>
        <time>2024-09-17T11:59:00Z</time>
      </trkpt>
      <trkpt lat="42.48027" lon="2.3112">
        <ele>1699</ele>
        <time>2024-09-17T11:59:11Z</time>
      </trkpt>
      <trkpt lat="42.48028" lon="2.31123">
        <ele>1701</ele>
        <time>2024-09-17T11:59:17Z</time>
      </trkpt>
      <trkpt lat="42.48027" lon="2.31126">
        <ele>1703</ele>
        <time>2024-09-17T11:59:22Z</time>
      </trkpt>
      <trkpt lat="42.48028" lon="2.31129">
        <ele>1703</ele>
        <time>2024-09-17T11:59:27Z</time>
      </trkpt>
      <trkpt lat="42.48028" lon="2.31133">
        <ele>1705</ele>
        <time>2024-09-17T11:59:33Z</time>
      </trkpt>
      <trkpt lat="42.48029" lon="2.31137">
        <ele>1706</ele>
        <time>2024-09-17T11:59:39Z</time>
      </trkpt>
      <trkpt lat="42.4803" lon="2.31142">
        <ele>1707</ele>
        <time>2024-09-17T11:59:46Z</time>
      </trkpt>
      <trkpt lat="42.4803" lon="2.31145">
        <ele>1708</ele>
        <time>2024-09-17T11:59:50Z</time>
      </trkpt>
      <trkpt lat="42.48031" lon="2.3115">
        <ele>1708</ele>
        <time>2024-09-17T11:59:56Z</time>
      </trkpt>
      <trkpt lat="42.48032" lon="2.31153">
        <ele>1710</ele>
        <time>2024-09-17T12:00:01Z</time>
      </trkpt>
      <trkpt lat="42.48033" lon="2.31157">
        <ele>1710</ele>
        <time>2024-09-17T12:00:07Z</time>
      </trkpt>
      <trkpt lat="42.48034" lon="2.31161">
        <ele>1710</ele>
        <time>2024-09-17T12:00:12Z</time>
      </trkpt>
      <trkpt lat="42.48034" lon="2.31165">
        <ele>1712</ele>
        <time>2024-09-17T12:00:17Z</time>
      </trkpt>
      <trkpt lat="42.48034" lon="2.31169">
        <ele>1713</ele>
        <time>2024-09-17T12:00:23Z</time>
      </trkpt>
      <trkpt lat="42.48035" lon="2.31173">
        <ele>1713</ele>
        <time>2024-09-17T12:00:29Z</time>
      </trkpt>
      <trkpt lat="42.48035" lon="2.31177">
        <ele>1714</ele>
        <time>2024-09-17T12:00:35Z</time>
      </trkpt>
      <trkpt lat="42.48036" lon="2.31181">
        <ele>1714</ele>
        <time>2024-09-17T12:00:40Z</time>
      </trkpt>
      <trkpt lat="42.48036" lon="2.31185">
        <ele>1715</ele>
        <time>2024-09-17T12:00:45Z</time>
      </trkpt>
      <trkpt lat="42.48037" lon="2.31189">
        <ele>1715</ele>
        <time>2024-09-17T12:00:51Z</time>
      </trkpt>
      <trkpt lat="42.48038" lon="2.31192">
        <ele>1716</ele>
        <time>2024-09-17T12:00:57Z</time>
      </trkpt>
      <trkpt lat="42.48039" lon="2.31196">
        <ele>1716</ele>
        <time>2024-09-17T12:01:02Z</time>
      </trkpt>
      <trkpt lat="42.4804" lon="2.312">
        <ele>1717</ele>
        <time>2024-09-17T12:01:07Z</time>
      </trkpt>
      <trkpt lat="42.48039" lon="2.31204">
        <ele>1718</ele>
        <time>2024-09-17T12:01:12Z</time>
      </trkpt>
      <trkpt lat="42.48039" lon="2.31208">
        <ele>1718</ele>
        <time>2024-09-17T12:01:18Z</time>
      </trkpt>
      <trkpt lat="42.48039" lon="2.31213">
        <ele>1719</ele>
        <time>2024-09-17T12:01:23Z</time>
      </trkpt>
      <trkpt lat="42.48038" lon="2.31217">
        <ele>1720</ele>
        <time>2024-09-17T12:01:28Z</time>
      </trkpt>
      <trkpt lat="42.48039" lon="2.31221">
        <ele>1720</ele>
        <time>2024-09-17T12:01:32Z</time>
      </trkpt>
      <trkpt lat="42.48039" lon="2.31225">
        <ele>1720</ele>
        <time>2024-09-17T12:01:37Z</time>
      </trkpt>
      <trkpt lat="42.4804" lon="2.31229">
        <ele>1721</ele>
        <time>2024-09-17T12:01:42Z</time>
      </trkpt>
      <trkpt lat="42.4804" lon="2.31233">
        <ele>1721</ele>
        <time>2024-09-17T12:01:47Z</time>
      </trkpt>
      <trkpt lat="42.4804" lon="2.31237">
        <ele>1723</ele>
        <time>2024-09-17T12:01:52Z</time>
      </trkpt>
      <trkpt lat="42.4804" lon="2.31241">
        <ele>1723</ele>
        <time>2024-09-17T12:01:58Z</time>
      </trkpt>
      <trkpt lat="42.48039" lon="2.31245">
        <ele>1726</ele>
        <time>2024-09-17T12:02:03Z</time>
      </trkpt>
      <trkpt lat="42.48039" lon="2.31249">
        <ele>1725</ele>
        <time>2024-09-17T12:02:09Z</time>
      </trkpt>
      <trkpt lat="42.48038" lon="2.31253">
        <ele>1727</ele>
        <time>2024-09-17T12:02:17Z</time>
      </trkpt>
      <trkpt lat="42.48038" lon="2.31257">
        <ele>1727</ele>
        <time>2024-09-17T12:02:24Z</time>
      </trkpt>
      <trkpt lat="42.4804" lon="2.31259">
        <ele>1727</ele>
        <time>2024-09-17T12:02:33Z</time>
      </trkpt>
      <trkpt lat="42.48043" lon="2.31261">
        <ele>1727</ele>
        <time>2024-09-17T12:02:39Z</time>
      </trkpt>
      <trkpt lat="42.48045" lon="2.3126">
        <ele>1727</ele>
        <time>2024-09-17T12:02:45Z</time>
      </trkpt>
      <trkpt lat="42.48048" lon="2.31257">
        <ele>1727</ele>
        <time>2024-09-17T12:02:49Z</time>
      </trkpt>
      <trkpt lat="42.4805" lon="2.31255">
        <ele>1727</ele>
        <time>2024-09-17T12:02:53Z</time>
      </trkpt>
      <trkpt lat="42.48052" lon="2.31253">
        <ele>1727</ele>
        <time>2024-09-17T12:02:57Z</time>
      </trkpt>
      <trkpt lat="42.48054" lon="2.3125">
        <ele>1727</ele>
        <time>2024-09-17T12:03:01Z</time>
      </trkpt>
      <trkpt lat="42.48056" lon="2.31247">
        <ele>1728</ele>
        <time>2024-09-17T12:03:06Z</time>
      </trkpt>
      <trkpt lat="42.48059" lon="2.31245">
        <ele>1729</ele>
        <time>2024-09-17T12:03:11Z</time>
      </trkpt>
      <trkpt lat="42.4806" lon="2.31242">
        <ele>1729</ele>
        <time>2024-09-17T12:03:14Z</time>
      </trkpt>
      <trkpt lat="42.48062" lon="2.31238">
        <ele>1729</ele>
        <time>2024-09-17T12:03:19Z</time>
      </trkpt>
      <trkpt lat="42.48064" lon="2.31235">
        <ele>1730</ele>
        <time>2024-09-17T12:03:24Z</time>
      </trkpt>
      <trkpt lat="42.48067" lon="2.31232">
        <ele>1730</ele>
        <time>2024-09-17T12:03:29Z</time>
      </trkpt>
      <trkpt lat="42.48069" lon="2.31229">
        <ele>1731</ele>
        <time>2024-09-17T12:03:35Z</time>
      </trkpt>
      <trkpt lat="42.4807" lon="2.31225">
        <ele>1732</ele>
        <time>2024-09-17T12:03:40Z</time>
      </trkpt>
      <trkpt lat="42.48072" lon="2.31222">
        <ele>1732</ele>
        <time>2024-09-17T12:03:45Z</time>
      </trkpt>
      <trkpt lat="42.48074" lon="2.3122">
        <ele>1733</ele>
        <time>2024-09-17T12:03:51Z</time>
      </trkpt>
      <trkpt lat="42.48076" lon="2.31221">
        <ele>1733</ele>
        <time>2024-09-17T12:03:56Z</time>
      </trkpt>
      <trkpt lat="42.48077" lon="2.31225">
        <ele>1735</ele>
        <time>2024-09-17T12:04:02Z</time>
      </trkpt>
      <trkpt lat="42.48077" lon="2.31228">
        <ele>1737</ele>
        <time>2024-09-17T12:04:07Z</time>
      </trkpt>
      <trkpt lat="42.48077" lon="2.31232">
        <ele>1737</ele>
        <time>2024-09-17T12:04:12Z</time>
      </trkpt>
      <trkpt lat="42.48077" lon="2.31236">
        <ele>1738</ele>
        <time>2024-09-17T12:04:16Z</time>
      </trkpt>
      <trkpt lat="42.48077" lon="2.3124">
        <ele>1739</ele>
        <time>2024-09-17T12:04:21Z</time>
      </trkpt>
      <trkpt lat="42.48078" lon="2.31244">
        <ele>1740</ele>
        <time>2024-09-17T12:04:26Z</time>
      </trkpt>
      <trkpt lat="42.48078" lon="2.31248">
        <ele>1741</ele>
        <time>2024-09-17T12:04:30Z</time>
      </trkpt>
      <trkpt lat="42.48079" lon="2.31252">
        <ele>1741</ele>
        <time>2024-09-17T12:04:35Z</time>
      </trkpt>
      <trkpt lat="42.48079" lon="2.31255">
        <ele>1741</ele>
        <time>2024-09-17T12:04:38Z</time>
      </trkpt>
      <trkpt lat="42.48079" lon="2.31259">
        <ele>1742</ele>
        <time>2024-09-17T12:04:42Z</time>
      </trkpt>
      <trkpt lat="42.4808" lon="2.31263">
        <ele>1742</ele>
        <time>2024-09-17T12:04:47Z</time>
      </trkpt>
      <trkpt lat="42.48081" lon="2.31267">
        <ele>1742</ele>
        <time>2024-09-17T12:04:51Z</time>
      </trkpt>
      <trkpt lat="42.48082" lon="2.31271">
        <ele>1743</ele>
        <time>2024-09-17T12:04:56Z</time>
      </trkpt>
      <trkpt lat="42.48082" lon="2.31274">
        <ele>1743</ele>
        <time>2024-09-17T12:05:01Z</time>
      </trkpt>
      <trkpt lat="42.48082" lon="2.31278">
        <ele>1744</ele>
        <time>2024-09-17T12:05:06Z</time>
      </trkpt>
      <trkpt lat="42.48083" lon="2.31282">
        <ele>1745</ele>
        <time>2024-09-17T12:05:10Z</time>
      </trkpt>
      <trkpt lat="42.48083" lon="2.31286">
        <ele>1746</ele>
        <time>2024-09-17T12:05:14Z</time>
      </trkpt>
      <trkpt lat="42.48082" lon="2.3129">
        <ele>1746</ele>
        <time>2024-09-17T12:05:18Z</time>
      </trkpt>
      <trkpt lat="42.48083" lon="2.31294">
        <ele>1746</ele>
        <time>2024-09-17T12:05:21Z</time>
      </trkpt>
      <trkpt lat="42.48084" lon="2.31298">
        <ele>1747</ele>
        <time>2024-09-17T12:05:25Z</time>
      </trkpt>
      <trkpt lat="42.48084" lon="2.31302">
        <ele>1748</ele>
        <time>2024-09-17T12:05:29Z</time>
      </trkpt>
      <trkpt lat="42.48084" lon="2.31307">
        <ele>1749</ele>
        <time>2024-09-17T12:05:33Z</time>
      </trkpt>
      <trkpt lat="42.48085" lon="2.31311">
        <ele>1749</ele>
        <time>2024-09-17T12:05:39Z</time>
      </trkpt>
      <trkpt lat="42.48085" lon="2.31315">
        <ele>1750</ele>
        <time>2024-09-17T12:05:43Z</time>
      </trkpt>
      <trkpt lat="42.48085" lon="2.31319">
        <ele>1750</ele>
        <time>2024-09-17T12:05:47Z</time>
      </trkpt>
      <trkpt lat="42.48087" lon="2.31323">
        <ele>1751</ele>
        <time>2024-09-17T12:05:51Z</time>
      </trkpt>
      <trkpt lat="42.48087" lon="2.31326">
        <ele>1751</ele>
        <time>2024-09-17T12:05:55Z</time>
      </trkpt>
      <trkpt lat="42.48086" lon="2.3133">
        <ele>1752</ele>
        <time>2024-09-17T12:05:59Z</time>
      </trkpt>
      <trkpt lat="42.48086" lon="2.31335">
        <ele>1752</ele>
        <time>2024-09-17T12:06:04Z</time>
      </trkpt>
      <trkpt lat="42.48086" lon="2.31339">
        <ele>1752</ele>
        <time>2024-09-17T12:06:09Z</time>
      </trkpt>
      <trkpt lat="42.48086" lon="2.31343">
        <ele>1753</ele>
        <time>2024-09-17T12:06:13Z</time>
      </trkpt>
      <trkpt lat="42.48087" lon="2.31347">
        <ele>1753</ele>
        <time>2024-09-17T12:06:17Z</time>
      </trkpt>
      <trkpt lat="42.48088" lon="2.3135">
        <ele>1753</ele>
        <time>2024-09-17T12:06:21Z</time>
      </trkpt>
      <trkpt lat="42.48091" lon="2.31351">
        <ele>1754</ele>
        <time>2024-09-17T12:06:25Z</time>
      </trkpt>
      <trkpt lat="42.48093" lon="2.31353">
        <ele>1754</ele>
        <time>2024-09-17T12:06:29Z</time>
      </trkpt>
      <trkpt lat="42.48096" lon="2.31356">
        <ele>1755</ele>
        <time>2024-09-17T12:06:34Z</time>
      </trkpt>
      <trkpt lat="42.48098" lon="2.31359">
        <ele>1756</ele>
        <time>2024-09-17T12:06:39Z</time>
      </trkpt>
      <trkpt lat="42.481" lon="2.31362">
        <ele>1757</ele>
        <time>2024-09-17T12:06:43Z</time>
      </trkpt>
      <trkpt lat="42.48102" lon="2.31365">
        <ele>1758</ele>
        <time>2024-09-17T12:06:47Z</time>
      </trkpt>
      <trkpt lat="42.48104" lon="2.31368">
        <ele>1759</ele>
        <time>2024-09-17T12:06:51Z</time>
      </trkpt>
      <trkpt lat="42.48106" lon="2.31371">
        <ele>1759</ele>
        <time>2024-09-17T12:06:55Z</time>
      </trkpt>
      <trkpt lat="42.48108" lon="2.31375">
        <ele>1760</ele>
        <time>2024-09-17T12:06:59Z</time>
      </trkpt>
      <trkpt lat="42.48111" lon="2.31375">
        <ele>1757</ele>
        <time>2024-09-17T12:07:13Z</time>
      </trkpt>
      <trkpt lat="42.48113" lon="2.31375">
        <ele>1759</ele>
        <time>2024-09-17T12:07:55Z</time>
      </trkpt>
      <trkpt lat="42.48116" lon="2.31377">
        <ele>1758</ele>
        <time>2024-09-17T12:08:10Z</time>
      </trkpt>
      <trkpt lat="42.48118" lon="2.3138">
        <ele>1758</ele>
        <time>2024-09-17T12:08:13Z</time>
      </trkpt>
      <trkpt lat="42.4812" lon="2.31383">
        <ele>1759</ele>
        <time>2024-09-17T12:08:16Z</time>
      </trkpt>
      <trkpt lat="42.48122" lon="2.31387">
        <ele>1760</ele>
        <time>2024-09-17T12:08:19Z</time>
      </trkpt>
      <trkpt lat="42.48123" lon="2.31391">
        <ele>1760</ele>
        <time>2024-09-17T12:08:22Z</time>
      </trkpt>
      <trkpt lat="42.48124" lon="2.31394">
        <ele>1761</ele>
        <time>2024-09-17T12:08:25Z</time>
      </trkpt>
      <trkpt lat="42.48126" lon="2.31399">
        <ele>1760</ele>
        <time>2024-09-17T12:08:28Z</time>
      </trkpt>
      <trkpt lat="42.48128" lon="2.31403">
        <ele>1761</ele>
        <time>2024-09-17T12:08:32Z</time>
      </trkpt>
      <trkpt lat="42.4813" lon="2.31407">
        <ele>1760</ele>
        <time>2024-09-17T12:08:35Z</time>
      </trkpt>
      <trkpt lat="42.48132" lon="2.3141">
        <ele>1760</ele>
        <time>2024-09-17T12:08:44Z</time>
      </trkpt>
      <trkpt lat="42.48135" lon="2.31413">
        <ele>1760</ele>
        <time>2024-09-17T12:08:47Z</time>
      </trkpt>
      <trkpt lat="42.48137" lon="2.31413">
        <ele>1760</ele>
        <time>2024-09-17T12:08:57Z</time>
      </trkpt>
      <trkpt lat="42.48138" lon="2.31411">
        <ele>1758</ele>
        <time>2024-09-17T12:09:13Z</time>
      </trkpt>
      <trkpt lat="42.48139" lon="2.31412">
        <ele>1759</ele>
        <time>2024-09-17T12:09:17Z</time>
      </trkpt>
      <trkpt lat="42.48141" lon="2.31414">
        <ele>1759</ele>
        <time>2024-09-17T12:09:20Z</time>
      </trkpt>
      <trkpt lat="42.48143" lon="2.31417">
        <ele>1759</ele>
        <time>2024-09-17T12:09:23Z</time>
      </trkpt>
      <trkpt lat="42.48146" lon="2.31419">
        <ele>1758</ele>
        <time>2024-09-17T12:09:26Z</time>
      </trkpt>
      <trkpt lat="42.48147" lon="2.31422">
        <ele>1757</ele>
        <time>2024-09-17T12:09:38Z</time>
      </trkpt>
      <trkpt lat="42.48147" lon="2.31426">
        <ele>1758</ele>
        <time>2024-09-17T12:09:44Z</time>
      </trkpt>
      <trkpt lat="42.48149" lon="2.31429">
        <ele>1758</ele>
        <time>2024-09-17T12:09:47Z</time>
      </trkpt>
      <trkpt lat="42.4815" lon="2.31432">
        <ele>1757</ele>
        <time>2024-09-17T12:09:51Z</time>
      </trkpt>
      <trkpt lat="42.48152" lon="2.31436">
        <ele>1756</ele>
        <time>2024-09-17T12:09:57Z</time>
      </trkpt>
      <trkpt lat="42.48154" lon="2.31439">
        <ele>1754</ele>
        <time>2024-09-17T12:10:01Z</time>
      </trkpt>
      <trkpt lat="42.48157" lon="2.31442">
        <ele>1753</ele>
        <time>2024-09-17T12:10:04Z</time>
      </trkpt>
      <trkpt lat="42.48159" lon="2.31444">
        <ele>1753</ele>
        <time>2024-09-17T12:10:07Z</time>
      </trkpt>
      <trkpt lat="42.48162" lon="2.31446">
        <ele>1753</ele>
        <time>2024-09-17T12:10:11Z</time>
      </trkpt>
      <trkpt lat="42.48166" lon="2.31446">
        <ele>1753</ele>
        <time>2024-09-17T12:10:14Z</time>
      </trkpt>
      <trkpt lat="42.48169" lon="2.31447">
        <ele>1750</ele>
        <time>2024-09-17T12:10:22Z</time>
      </trkpt>
      <trkpt lat="42.48173" lon="2.31448">
        <ele>1748</ele>
        <time>2024-09-17T12:10:27Z</time>
      </trkpt>
      <trkpt lat="42.48176" lon="2.31448">
        <ele>1748</ele>
        <time>2024-09-17T12:10:30Z</time>
      </trkpt>
      <trkpt lat="42.4818" lon="2.31448">
        <ele>1746</ele>
        <time>2024-09-17T12:10:35Z</time>
      </trkpt>
      <trkpt lat="42.48184" lon="2.31448">
        <ele>1746</ele>
        <time>2024-09-17T12:10:39Z</time>
      </trkpt>
      <trkpt lat="42.48187" lon="2.31449">
        <ele>1746</ele>
        <time>2024-09-17T12:10:42Z</time>
      </trkpt>
      <trkpt lat="42.4819" lon="2.31449">
        <ele>1745</ele>
        <time>2024-09-17T12:10:44Z</time>
      </trkpt>
      <trkpt lat="42.48193" lon="2.31448">
        <ele>1744</ele>
        <time>2024-09-17T12:10:49Z</time>
      </trkpt>
      <trkpt lat="42.48197" lon="2.31448">
        <ele>1741</ele>
        <time>2024-09-17T12:10:54Z</time>
      </trkpt>
      <trkpt lat="42.48199" lon="2.3145">
        <ele>1742</ele>
        <time>2024-09-17T12:10:57Z</time>
      </trkpt>
      <trkpt lat="42.48201" lon="2.31453">
        <ele>1742</ele>
        <time>2024-09-17T12:11:01Z</time>
      </trkpt>
      <trkpt lat="42.48203" lon="2.31456">
        <ele>1741</ele>
        <time>2024-09-17T12:11:06Z</time>
      </trkpt>
      <trkpt lat="42.48202" lon="2.31459">
        <ele>1739</ele>
        <time>2024-09-17T12:11:11Z</time>
      </trkpt>
      <trkpt lat="42.48202" lon="2.31462">
        <ele>1736</ele>
        <time>2024-09-17T12:11:15Z</time>
      </trkpt>
      <trkpt lat="42.48203" lon="2.31466">
        <ele>1734</ele>
        <time>2024-09-17T12:11:18Z</time>
      </trkpt>
      <trkpt lat="42.48202" lon="2.3147">
        <ele>1732</ele>
        <time>2024-09-17T12:11:22Z</time>
      </trkpt>
      <trkpt lat="42.48202" lon="2.31474">
        <ele>1730</ele>
        <time>2024-09-17T12:11:25Z</time>
      </trkpt>
      <trkpt lat="42.48201" lon="2.31478">
        <ele>1730</ele>
        <time>2024-09-17T12:11:29Z</time>
      </trkpt>
      <trkpt lat="42.48201" lon="2.31482">
        <ele>1729</ele>
        <time>2024-09-17T12:11:33Z</time>
      </trkpt>
      <trkpt lat="42.48202" lon="2.31486">
        <ele>1729</ele>
        <time>2024-09-17T12:11:38Z</time>
      </trkpt>
      <trkpt lat="42.48204" lon="2.31489">
        <ele>1729</ele>
        <time>2024-09-17T12:11:45Z</time>
      </trkpt>
      <trkpt lat="42.48204" lon="2.31493">
        <ele>1727</ele>
        <time>2024-09-17T12:11:48Z</time>
      </trkpt>
      <trkpt lat="42.48206" lon="2.31493">
        <ele>1726</ele>
        <time>2024-09-17T12:11:54Z</time>
      </trkpt>
      <trkpt lat="42.48208" lon="2.31494">
        <ele>1726</ele>
        <time>2024-09-17T12:11:56Z</time>
      </trkpt>
      <trkpt lat="42.48212" lon="2.31495">
        <ele>1726</ele>
        <time>2024-09-17T12:12:01Z</time>
      </trkpt>
      <trkpt lat="42.48215" lon="2.31494">
        <ele>1726</ele>
        <time>2024-09-17T12:12:03Z</time>
      </trkpt>
      <trkpt lat="42.48219" lon="2.31492">
        <ele>1725</ele>
        <time>2024-09-17T12:12:06Z</time>
      </trkpt>
      <trkpt lat="42.48222" lon="2.31491">
        <ele>1726</ele>
        <time>2024-09-17T12:12:09Z</time>
      </trkpt>
      <trkpt lat="42.48225" lon="2.3149">
        <ele>1726</ele>
        <time>2024-09-17T12:12:10Z</time>
      </trkpt>
      <trkpt lat="42.48225" lon="2.31491">
        <ele>1724</ele>
        <time>2024-09-17T12:12:16Z</time>
      </trkpt>
      <trkpt lat="42.48224" lon="2.31493">
        <ele>1722</ele>
        <time>2024-09-17T12:12:19Z</time>
      </trkpt>
      <trkpt lat="42.48222" lon="2.31496">
        <ele>1719</ele>
        <time>2024-09-17T12:12:23Z</time>
      </trkpt>
      <trkpt lat="42.4822" lon="2.315">
        <ele>1719</ele>
        <time>2024-09-17T12:12:25Z</time>
      </trkpt>
      <trkpt lat="42.48218" lon="2.31503">
        <ele>1719</ele>
        <time>2024-09-17T12:12:27Z</time>
      </trkpt>
      <trkpt lat="42.48216" lon="2.31506">
        <ele>1718</ele>
        <time>2024-09-17T12:12:30Z</time>
      </trkpt>
      <trkpt lat="42.48215" lon="2.3151">
        <ele>1716</ele>
        <time>2024-09-17T12:12:34Z</time>
      </trkpt>
      <trkpt lat="42.48214" lon="2.31513">
        <ele>1716</ele>
        <time>2024-09-17T12:12:37Z</time>
      </trkpt>
      <trkpt lat="42.48211" lon="2.31516">
        <ele>1716</ele>
        <time>2024-09-17T12:12:40Z</time>
      </trkpt>
      <trkpt lat="42.48209" lon="2.3152">
        <ele>1714</ele>
        <time>2024-09-17T12:12:44Z</time>
      </trkpt>
      <trkpt lat="42.48208" lon="2.31524">
        <ele>1714</ele>
        <time>2024-09-17T12:12:46Z</time>
      </trkpt>
      <trkpt lat="42.48206" lon="2.31529">
        <ele>1713</ele>
        <time>2024-09-17T12:12:49Z</time>
      </trkpt>
      <trkpt lat="42.48205" lon="2.31532">
        <ele>1714</ele>
        <time>2024-09-17T12:12:51Z</time>
      </trkpt>
      <trkpt lat="42.48204" lon="2.31536">
        <ele>1712</ele>
        <time>2024-09-17T12:12:55Z</time>
      </trkpt>
      <trkpt lat="42.48202" lon="2.3154">
        <ele>1712</ele>
        <time>2024-09-17T12:12:59Z</time>
      </trkpt>
      <trkpt lat="42.48202" lon="2.31544">
        <ele>1711</ele>
        <time>2024-09-17T12:13:04Z</time>
      </trkpt>
      <trkpt lat="42.48204" lon="2.31546">
        <ele>1710</ele>
        <time>2024-09-17T12:13:09Z</time>
      </trkpt>
      <trkpt lat="42.48206" lon="2.31546">
        <ele>1709</ele>
        <time>2024-09-17T12:13:12Z</time>
      </trkpt>
      <trkpt lat="42.48209" lon="2.31546">
        <ele>1709</ele>
        <time>2024-09-17T12:13:15Z</time>
      </trkpt>
      <trkpt lat="42.48212" lon="2.31545">
        <ele>1708</ele>
        <time>2024-09-17T12:13:19Z</time>
      </trkpt>
      <trkpt lat="42.48215" lon="2.31544">
        <ele>1707</ele>
        <time>2024-09-17T12:13:22Z</time>
      </trkpt>
      <trkpt lat="42.48219" lon="2.31543">
        <ele>1708</ele>
        <time>2024-09-17T12:13:24Z</time>
      </trkpt>
      <trkpt lat="42.48222" lon="2.31542">
        <ele>1708</ele>
        <time>2024-09-17T12:13:26Z</time>
      </trkpt>
      <trkpt lat="42.48225" lon="2.31541">
        <ele>1708</ele>
        <time>2024-09-17T12:13:29Z</time>
      </trkpt>
      <trkpt lat="42.48224" lon="2.31543">
        <ele>1705</ele>
        <time>2024-09-17T12:13:33Z</time>
      </trkpt>
      <trkpt lat="42.48224" lon="2.31546">
        <ele>1704</ele>
        <time>2024-09-17T12:13:36Z</time>
      </trkpt>
      <trkpt lat="42.48223" lon="2.3155">
        <ele>1701</ele>
        <time>2024-09-17T12:13:42Z</time>
      </trkpt>
      <trkpt lat="42.48221" lon="2.31553">
        <ele>1700</ele>
        <time>2024-09-17T12:13:44Z</time>
      </trkpt>
      <trkpt lat="42.48219" lon="2.31557">
        <ele>1700</ele>
        <time>2024-09-17T12:13:48Z</time>
      </trkpt>
      <trkpt lat="42.48217" lon="2.3156">
        <ele>1698</ele>
        <time>2024-09-17T12:13:52Z</time>
      </trkpt>
      <trkpt lat="42.48215" lon="2.31564">
        <ele>1698</ele>
        <time>2024-09-17T12:13:55Z</time>
      </trkpt>
      <trkpt lat="42.48215" lon="2.31567">
        <ele>1699</ele>
        <time>2024-09-17T12:13:58Z</time>
      </trkpt>
      <trkpt lat="42.48217" lon="2.3157">
        <ele>1697</ele>
        <time>2024-09-17T12:14:01Z</time>
      </trkpt>
      <trkpt lat="42.48219" lon="2.31568">
        <ele>1696</ele>
        <time>2024-09-17T12:14:03Z</time>
      </trkpt>
      <trkpt lat="42.48222" lon="2.31566">
        <ele>1696</ele>
        <time>2024-09-17T12:14:05Z</time>
      </trkpt>
      <trkpt lat="42.48225" lon="2.31566">
        <ele>1696</ele>
        <time>2024-09-17T12:14:06Z</time>
      </trkpt>
      <trkpt lat="42.48229" lon="2.31565">
        <ele>1696</ele>
        <time>2024-09-17T12:14:12Z</time>
      </trkpt>
      <trkpt lat="42.48231" lon="2.31562">
        <ele>1693</ele>
        <time>2024-09-17T12:14:15Z</time>
      </trkpt>
      <trkpt lat="42.48233" lon="2.31559">
        <ele>1695</ele>
        <time>2024-09-17T12:14:18Z</time>
      </trkpt>
      <trkpt lat="42.48235" lon="2.31559">
        <ele>1696</ele>
        <time>2024-09-17T12:14:20Z</time>
      </trkpt>
      <trkpt lat="42.48235" lon="2.31561">
        <ele>1693</ele>
        <time>2024-09-17T12:14:24Z</time>
      </trkpt>
      <trkpt lat="42.48236" lon="2.31565">
        <ele>1693</ele>
        <time>2024-09-17T12:14:27Z</time>
      </trkpt>
      <trkpt lat="42.48234" lon="2.31567">
        <ele>1691</ele>
        <time>2024-09-17T12:14:38Z</time>
      </trkpt>
      <trkpt lat="42.48235" lon="2.3157">
        <ele>1696</ele>
        <time>2024-09-17T12:14:54Z</time>
      </trkpt>
      <trkpt lat="42.48234" lon="2.31574">
        <ele>1707</ele>
        <time>2024-09-17T12:15:27Z</time>
      </trkpt>
      <trkpt lat="42.48234" lon="2.31573">
        <ele>1697</ele>
        <time>2024-09-17T12:15:40Z</time>
      </trkpt>
      <trkpt lat="42.48236" lon="2.31574">
        <ele>1691</ele>
        <time>2024-09-17T12:15:49Z</time>
      </trkpt>
      <trkpt lat="42.48239" lon="2.31575">
        <ele>1691</ele>
        <time>2024-09-17T12:15:51Z</time>
      </trkpt>
      <trkpt lat="42.48242" lon="2.31573">
        <ele>1688</ele>
        <time>2024-09-17T12:15:55Z</time>
      </trkpt>
      <trkpt lat="42.48246" lon="2.31572">
        <ele>1687</ele>
        <time>2024-09-17T12:15:58Z</time>
      </trkpt>
      <trkpt lat="42.48249" lon="2.31571">
        <ele>1686</ele>
        <time>2024-09-17T12:16:00Z</time>
      </trkpt>
      <trkpt lat="42.48252" lon="2.31569">
        <ele>1684</ele>
        <time>2024-09-17T12:16:03Z</time>
      </trkpt>
      <trkpt lat="42.48255" lon="2.31567">
        <ele>1684</ele>
        <time>2024-09-17T12:16:05Z</time>
      </trkpt>
      <trkpt lat="42.48258" lon="2.31565">
        <ele>1684</ele>
        <time>2024-09-17T12:16:07Z</time>
      </trkpt>
      <trkpt lat="42.48261" lon="2.31562">
        <ele>1682</ele>
        <time>2024-09-17T12:16:09Z</time>
      </trkpt>
      <trkpt lat="42.48264" lon="2.31562">
        <ele>1681</ele>
        <time>2024-09-17T12:16:11Z</time>
      </trkpt>
      <trkpt lat="42.48267" lon="2.31561">
        <ele>1682</ele>
        <time>2024-09-17T12:16:13Z</time>
      </trkpt>
      <trkpt lat="42.48267" lon="2.31565">
        <ele>1679</ele>
        <time>2024-09-17T12:16:16Z</time>
      </trkpt>
      <trkpt lat="42.48266" lon="2.31566">
        <ele>1676</ele>
        <time>2024-09-17T12:16:18Z</time>
      </trkpt>
      <trkpt lat="42.48263" lon="2.31567">
        <ele>1676</ele>
        <time>2024-09-17T12:16:20Z</time>
      </trkpt>
      <trkpt lat="42.4826" lon="2.3157">
        <ele>1675</ele>
        <time>2024-09-17T12:16:22Z</time>
      </trkpt>
      <trkpt lat="42.48258" lon="2.31573">
        <ele>1675</ele>
        <time>2024-09-17T12:16:24Z</time>
      </trkpt>
      <trkpt lat="42.48257" lon="2.31577">
        <ele>1677</ele>
        <time>2024-09-17T12:16:26Z</time>
      </trkpt>
      <trkpt lat="42.48255" lon="2.31581">
        <ele>1676</ele>
        <time>2024-09-17T12:16:28Z</time>
      </trkpt>
      <trkpt lat="42.48253" lon="2.31583">
        <ele>1675</ele>
        <time>2024-09-17T12:16:30Z</time>
      </trkpt>
      <trkpt lat="42.4825" lon="2.31586">
        <ele>1676</ele>
        <time>2024-09-17T12:16:33Z</time>
      </trkpt>
      <trkpt lat="42.48248" lon="2.31588">
        <ele>1675</ele>
        <time>2024-09-17T12:16:35Z</time>
      </trkpt>
      <trkpt lat="42.48249" lon="2.3159">
        <ele>1674</ele>
        <time>2024-09-17T12:16:39Z</time>
      </trkpt>
      <trkpt lat="42.48252" lon="2.3159">
        <ele>1674</ele>
        <time>2024-09-17T12:16:41Z</time>
      </trkpt>
      <trkpt lat="42.48256" lon="2.31591">
        <ele>1672</ele>
        <time>2024-09-17T12:16:43Z</time>
      </trkpt>
      <trkpt lat="42.48259" lon="2.31594">
        <ele>1673</ele>
        <time>2024-09-17T12:16:45Z</time>
      </trkpt>
      <trkpt lat="42.48258" lon="2.31595">
        <ele>1672</ele>
        <time>2024-09-17T12:16:47Z</time>
      </trkpt>
      <trkpt lat="42.48256" lon="2.31597">
        <ele>1672</ele>
        <time>2024-09-17T12:16:49Z</time>
      </trkpt>
      <trkpt lat="42.48254" lon="2.316">
        <ele>1672</ele>
        <time>2024-09-17T12:16:52Z</time>
      </trkpt>
      <trkpt lat="42.48251" lon="2.31602">
        <ele>1671</ele>
        <time>2024-09-17T12:16:54Z</time>
      </trkpt>
      <trkpt lat="42.48251" lon="2.31606">
        <ele>1670</ele>
        <time>2024-09-17T12:16:57Z</time>
      </trkpt>
      <trkpt lat="42.48253" lon="2.31607">
        <ele>1669</ele>
        <time>2024-09-17T12:17:00Z</time>
      </trkpt>
      <trkpt lat="42.48256" lon="2.31609">
        <ele>1669</ele>
        <time>2024-09-17T12:17:02Z</time>
      </trkpt>
      <trkpt lat="42.48256" lon="2.31613">
        <ele>1667</ele>
        <time>2024-09-17T12:17:06Z</time>
      </trkpt>
      <trkpt lat="42.48255" lon="2.31616">
        <ele>1667</ele>
        <time>2024-09-17T12:17:08Z</time>
      </trkpt>
      <trkpt lat="42.48257" lon="2.31618">
        <ele>1665</ele>
        <time>2024-09-17T12:17:10Z</time>
      </trkpt>
      <trkpt lat="42.48259" lon="2.31617">
        <ele>1665</ele>
        <time>2024-09-17T12:17:11Z</time>
      </trkpt>
      <trkpt lat="42.48262" lon="2.31615">
        <ele>1665</ele>
        <time>2024-09-17T12:17:13Z</time>
      </trkpt>
      <trkpt lat="42.48264" lon="2.31613">
        <ele>1664</ele>
        <time>2024-09-17T12:17:15Z</time>
      </trkpt>
      <trkpt lat="42.48267" lon="2.31611">
        <ele>1664</ele>
        <time>2024-09-17T12:17:17Z</time>
      </trkpt>
      <trkpt lat="42.4827" lon="2.31609">
        <ele>1664</ele>
        <time>2024-09-17T12:17:19Z</time>
      </trkpt>
      <trkpt lat="42.48272" lon="2.31606">
        <ele>1664</ele>
        <time>2024-09-17T12:17:22Z</time>
      </trkpt>
      <trkpt lat="42.48274" lon="2.31603">
        <ele>1663</ele>
        <time>2024-09-17T12:17:24Z</time>
      </trkpt>
      <trkpt lat="42.48277" lon="2.31601">
        <ele>1663</ele>
        <time>2024-09-17T12:17:26Z</time>
      </trkpt>
      <trkpt lat="42.48279" lon="2.31602">
        <ele>1662</ele>
        <time>2024-09-17T12:17:28Z</time>
      </trkpt>
      <trkpt lat="42.4828" lon="2.31605">
        <ele>1661</ele>
        <time>2024-09-17T12:17:30Z</time>
      </trkpt>
      <trkpt lat="42.48279" lon="2.31608">
        <ele>1661</ele>
        <time>2024-09-17T12:17:32Z</time>
      </trkpt>
      <trkpt lat="42.48279" lon="2.31613">
        <ele>1660</ele>
        <time>2024-09-17T12:17:35Z</time>
      </trkpt>
      <trkpt lat="42.48277" lon="2.31617">
        <ele>1659</ele>
        <time>2024-09-17T12:17:37Z</time>
      </trkpt>
      <trkpt lat="42.48275" lon="2.3162">
        <ele>1658</ele>
        <time>2024-09-17T12:17:39Z</time>
      </trkpt>
      <trkpt lat="42.48272" lon="2.31622">
        <ele>1658</ele>
        <time>2024-09-17T12:17:41Z</time>
      </trkpt>
      <trkpt lat="42.4827" lon="2.31623">
        <ele>1658</ele>
        <time>2024-09-17T12:17:43Z</time>
      </trkpt>
      <trkpt lat="42.48267" lon="2.31625">
        <ele>1658</ele>
        <time>2024-09-17T12:17:45Z</time>
      </trkpt>
      <trkpt lat="42.48266" lon="2.31628">
        <ele>1657</ele>
        <time>2024-09-17T12:17:47Z</time>
      </trkpt>
      <trkpt lat="42.48265" lon="2.31633">
        <ele>1657</ele>
        <time>2024-09-17T12:17:50Z</time>
      </trkpt>
      <trkpt lat="42.48266" lon="2.31637">
        <ele>1657</ele>
        <time>2024-09-17T12:17:52Z</time>
      </trkpt>
      <trkpt lat="42.48265" lon="2.3164">
        <ele>1657</ele>
        <time>2024-09-17T12:17:54Z</time>
      </trkpt>
      <trkpt lat="42.48266" lon="2.31643">
        <ele>1655</ele>
        <time>2024-09-17T12:17:56Z</time>
      </trkpt>
      <trkpt lat="42.48268" lon="2.31643">
        <ele>1655</ele>
        <time>2024-09-17T12:17:59Z</time>
      </trkpt>
      <trkpt lat="42.48271" lon="2.31642">
        <ele>1653</ele>
        <time>2024-09-17T12:18:01Z</time>
      </trkpt>
      <trkpt lat="42.48274" lon="2.3164">
        <ele>1653</ele>
        <time>2024-09-17T12:18:03Z</time>
      </trkpt>
      <trkpt lat="42.48278" lon="2.31639">
        <ele>1652</ele>
        <time>2024-09-17T12:18:05Z</time>
      </trkpt>
      <trkpt lat="42.48281" lon="2.3164">
        <ele>1652</ele>
        <time>2024-09-17T12:18:07Z</time>
      </trkpt>
      <trkpt lat="42.4828" lon="2.31642">
        <ele>1651</ele>
        <time>2024-09-17T12:18:10Z</time>
      </trkpt>
      <trkpt lat="42.48279" lon="2.31644">
        <ele>1650</ele>
        <time>2024-09-17T12:18:14Z</time>
      </trkpt>
      <trkpt lat="42.48277" lon="2.31648">
        <ele>1650</ele>
        <time>2024-09-17T12:18:17Z</time>
      </trkpt>
      <trkpt lat="42.48275" lon="2.31652">
        <ele>1650</ele>
        <time>2024-09-17T12:18:20Z</time>
      </trkpt>
      <trkpt lat="42.48273" lon="2.31655">
        <ele>1651</ele>
        <time>2024-09-17T12:18:23Z</time>
      </trkpt>
      <trkpt lat="42.48271" lon="2.31659">
        <ele>1650</ele>
        <time>2024-09-17T12:18:26Z</time>
      </trkpt>
      <trkpt lat="42.48269" lon="2.31663">
        <ele>1650</ele>
        <time>2024-09-17T12:18:29Z</time>
      </trkpt>
      <trkpt lat="42.48267" lon="2.31668">
        <ele>1651</ele>
        <time>2024-09-17T12:18:32Z</time>
      </trkpt>
      <trkpt lat="42.48267" lon="2.31672">
        <ele>1651</ele>
        <time>2024-09-17T12:18:34Z</time>
      </trkpt>
      <trkpt lat="42.48267" lon="2.31676">
        <ele>1648</ele>
        <time>2024-09-17T12:18:38Z</time>
      </trkpt>
      <trkpt lat="42.48267" lon="2.3168">
        <ele>1649</ele>
        <time>2024-09-17T12:18:40Z</time>
      </trkpt>
      <trkpt lat="42.48266" lon="2.31684">
        <ele>1647</ele>
        <time>2024-09-17T12:18:44Z</time>
      </trkpt>
      <trkpt lat="42.48265" lon="2.31688">
        <ele>1647</ele>
        <time>2024-09-17T12:18:46Z</time>
      </trkpt>
      <trkpt lat="42.48265" lon="2.31692">
        <ele>1644</ele>
        <time>2024-09-17T12:18:51Z</time>
      </trkpt>
      <trkpt lat="42.48264" lon="2.31696">
        <ele>1644</ele>
        <time>2024-09-17T12:18:54Z</time>
      </trkpt>
      <trkpt lat="42.48263" lon="2.317">
        <ele>1642</ele>
        <time>2024-09-17T12:18:57Z</time>
      </trkpt>
      <trkpt lat="42.48262" lon="2.31704">
        <ele>1642</ele>
        <time>2024-09-17T12:18:59Z</time>
      </trkpt>
      <trkpt lat="42.48261" lon="2.31708">
        <ele>1640</ele>
        <time>2024-09-17T12:19:03Z</time>
      </trkpt>
      <trkpt lat="42.48262" lon="2.3171">
        <ele>1637</ele>
        <time>2024-09-17T12:19:08Z</time>
      </trkpt>
      <trkpt lat="42.48264" lon="2.31709">
        <ele>1636</ele>
        <time>2024-09-17T12:19:11Z</time>
      </trkpt>
      <trkpt lat="42.48267" lon="2.31708">
        <ele>1636</ele>
        <time>2024-09-17T12:19:12Z</time>
      </trkpt>
      <trkpt lat="42.48268" lon="2.31711">
        <ele>1636</ele>
        <time>2024-09-17T12:19:17Z</time>
      </trkpt>
      <trkpt lat="42.48268" lon="2.31714">
        <ele>1635</ele>
        <time>2024-09-17T12:19:19Z</time>
      </trkpt>
      <trkpt lat="42.48268" lon="2.31718">
        <ele>1636</ele>
        <time>2024-09-17T12:19:21Z</time>
      </trkpt>
      <trkpt lat="42.48269" lon="2.31722">
        <ele>1635</ele>
        <time>2024-09-17T12:19:25Z</time>
      </trkpt>
      <trkpt lat="42.48267" lon="2.31726">
        <ele>1635</ele>
        <time>2024-09-17T12:19:29Z</time>
      </trkpt>
      <trkpt lat="42.48267" lon="2.31731">
        <ele>1635</ele>
        <time>2024-09-17T12:19:31Z</time>
      </trkpt>
      <trkpt lat="42.48266" lon="2.31735">
        <ele>1634</ele>
        <time>2024-09-17T12:19:34Z</time>
      </trkpt>
      <trkpt lat="42.48268" lon="2.31739">
        <ele>1633</ele>
        <time>2024-09-17T12:19:37Z</time>
      </trkpt>
      <trkpt lat="42.4827" lon="2.31738">
        <ele>1632</ele>
        <time>2024-09-17T12:19:41Z</time>
      </trkpt>
      <trkpt lat="42.48272" lon="2.31736">
        <ele>1631</ele>
        <time>2024-09-17T12:19:43Z</time>
      </trkpt>
      <trkpt lat="42.48274" lon="2.31733">
        <ele>1631</ele>
        <time>2024-09-17T12:19:45Z</time>
      </trkpt>
      <trkpt lat="42.48276" lon="2.3173">
        <ele>1631</ele>
        <time>2024-09-17T12:19:48Z</time>
      </trkpt>
      <trkpt lat="42.48279" lon="2.31728">
        <ele>1630</ele>
        <time>2024-09-17T12:19:50Z</time>
      </trkpt>
      <trkpt lat="42.4828" lon="2.3173">
        <ele>1628</ele>
        <time>2024-09-17T12:19:54Z</time>
      </trkpt>
      <trkpt lat="42.48279" lon="2.31733">
        <ele>1629</ele>
        <time>2024-09-17T12:19:56Z</time>
      </trkpt>
      <trkpt lat="42.48278" lon="2.31737">
        <ele>1628</ele>
        <time>2024-09-17T12:19:59Z</time>
      </trkpt>
      <trkpt lat="42.48278" lon="2.31741">
        <ele>1627</ele>
        <time>2024-09-17T12:20:02Z</time>
      </trkpt>
      <trkpt lat="42.48279" lon="2.31744">
        <ele>1628</ele>
        <time>2024-09-17T12:20:05Z</time>
      </trkpt>
      <trkpt lat="42.48282" lon="2.31745">
        <ele>1627</ele>
        <time>2024-09-17T12:20:10Z</time>
      </trkpt>
      <trkpt lat="42.48285" lon="2.31742">
        <ele>1626</ele>
        <time>2024-09-17T12:20:13Z</time>
      </trkpt>
      <trkpt lat="42.48287" lon="2.3174">
        <ele>1625</ele>
        <time>2024-09-17T12:20:15Z</time>
      </trkpt>
      <trkpt lat="42.48289" lon="2.31737">
        <ele>1624</ele>
        <time>2024-09-17T12:20:19Z</time>
      </trkpt>
      <trkpt lat="42.48292" lon="2.31734">
        <ele>1623</ele>
        <time>2024-09-17T12:20:21Z</time>
      </trkpt>
      <trkpt lat="42.48294" lon="2.31731">
        <ele>1621</ele>
        <time>2024-09-17T12:20:24Z</time>
      </trkpt>
      <trkpt lat="42.48297" lon="2.31729">
        <ele>1621</ele>
        <time>2024-09-17T12:20:28Z</time>
      </trkpt>
      <trkpt lat="42.483" lon="2.31726">
        <ele>1621</ele>
        <time>2024-09-17T12:20:31Z</time>
      </trkpt>
      <trkpt lat="42.48302" lon="2.31723">
        <ele>1620</ele>
        <time>2024-09-17T12:20:36Z</time>
      </trkpt>
      <trkpt lat="42.48305" lon="2.31722">
        <ele>1619</ele>
        <time>2024-09-17T12:20:38Z</time>
      </trkpt>
      <trkpt lat="42.48308" lon="2.31719">
        <ele>1619</ele>
        <time>2024-09-17T12:20:42Z</time>
      </trkpt>
      <trkpt lat="42.48311" lon="2.31716">
        <ele>1617</ele>
        <time>2024-09-17T12:20:46Z</time>
      </trkpt>
      <trkpt lat="42.48312" lon="2.31718">
        <ele>1614</ele>
        <time>2024-09-17T12:20:50Z</time>
      </trkpt>
      <trkpt lat="42.48311" lon="2.31721">
        <ele>1613</ele>
        <time>2024-09-17T12:20:54Z</time>
      </trkpt>
      <trkpt lat="42.4831" lon="2.31725">
        <ele>1614</ele>
        <time>2024-09-17T12:20:57Z</time>
      </trkpt>
      <trkpt lat="42.48309" lon="2.31729">
        <ele>1613</ele>
        <time>2024-09-17T12:21:01Z</time>
      </trkpt>
      <trkpt lat="42.48308" lon="2.31734">
        <ele>1613</ele>
        <time>2024-09-17T12:21:04Z</time>
      </trkpt>
      <trkpt lat="42.48307" lon="2.31738">
        <ele>1612</ele>
        <time>2024-09-17T12:21:07Z</time>
      </trkpt>
      <trkpt lat="42.48306" lon="2.31742">
        <ele>1611</ele>
        <time>2024-09-17T12:21:10Z</time>
      </trkpt>
      <trkpt lat="42.48306" lon="2.31747">
        <ele>1610</ele>
        <time>2024-09-17T12:21:14Z</time>
      </trkpt>
      <trkpt lat="42.48307" lon="2.3175">
        <ele>1608</ele>
        <time>2024-09-17T12:21:18Z</time>
      </trkpt>
      <trkpt lat="42.48306" lon="2.3175">
        <ele>1609</ele>
        <time>2024-09-17T12:21:21Z</time>
      </trkpt>
      <trkpt lat="42.48308" lon="2.31751">
        <ele>1608</ele>
        <time>2024-09-17T12:21:23Z</time>
      </trkpt>
      <trkpt lat="42.48311" lon="2.3175">
        <ele>1608</ele>
        <time>2024-09-17T12:21:25Z</time>
      </trkpt>
      <trkpt lat="42.48315" lon="2.31749">
        <ele>1607</ele>
        <time>2024-09-17T12:21:27Z</time>
      </trkpt>
      <trkpt lat="42.48318" lon="2.31746">
        <ele>1606</ele>
        <time>2024-09-17T12:21:30Z</time>
      </trkpt>
      <trkpt lat="42.4832" lon="2.31747">
        <ele>1605</ele>
        <time>2024-09-17T12:21:34Z</time>
      </trkpt>
      <trkpt lat="42.48323" lon="2.31747">
        <ele>1604</ele>
        <time>2024-09-17T12:21:37Z</time>
      </trkpt>
      <trkpt lat="42.48326" lon="2.31749">
        <ele>1603</ele>
        <time>2024-09-17T12:21:43Z</time>
      </trkpt>
      <trkpt lat="42.48327" lon="2.31752">
        <ele>1604</ele>
        <time>2024-09-17T12:21:46Z</time>
      </trkpt>
      <trkpt lat="42.48328" lon="2.31756">
        <ele>1604</ele>
        <time>2024-09-17T12:21:49Z</time>
      </trkpt>
      <trkpt lat="42.48329" lon="2.3176">
        <ele>1604</ele>
        <time>2024-09-17T12:21:52Z</time>
      </trkpt>
      <trkpt lat="42.48329" lon="2.31765">
        <ele>1604</ele>
        <time>2024-09-17T12:21:55Z</time>
      </trkpt>
      <trkpt lat="42.48329" lon="2.31769">
        <ele>1605</ele>
        <time>2024-09-17T12:21:57Z</time>
      </trkpt>
      <trkpt lat="42.48329" lon="2.31773">
        <ele>1605</ele>
        <time>2024-09-17T12:22:00Z</time>
      </trkpt>
      <trkpt lat="42.48328" lon="2.31777">
        <ele>1604</ele>
        <time>2024-09-17T12:22:03Z</time>
      </trkpt>
      <trkpt lat="42.48327" lon="2.31783">
        <ele>1603</ele>
        <time>2024-09-17T12:22:07Z</time>
      </trkpt>
      <trkpt lat="42.48328" lon="2.31787">
        <ele>1603</ele>
        <time>2024-09-17T12:22:09Z</time>
      </trkpt>
      <trkpt lat="42.48329" lon="2.31791">
        <ele>1602</ele>
        <time>2024-09-17T12:22:12Z</time>
      </trkpt>
      <trkpt lat="42.4833" lon="2.31795">
        <ele>1600</ele>
        <time>2024-09-17T12:22:17Z</time>
      </trkpt>
      <trkpt lat="42.48329" lon="2.31797">
        <ele>1599</ele>
        <time>2024-09-17T12:22:20Z</time>
      </trkpt>
      <trkpt lat="42.48329" lon="2.31801">
        <ele>1599</ele>
        <time>2024-09-17T12:22:24Z</time>
      </trkpt>
      <trkpt lat="42.48329" lon="2.31805">
        <ele>1599</ele>
        <time>2024-09-17T12:22:36Z</time>
      </trkpt>
      <trkpt lat="42.48329" lon="2.31809">
        <ele>1599</ele>
        <time>2024-09-17T12:22:43Z</time>
      </trkpt>
      <trkpt lat="42.4833" lon="2.31813">
        <ele>1598</ele>
        <time>2024-09-17T12:22:46Z</time>
      </trkpt>
      <trkpt lat="42.48332" lon="2.31816">
        <ele>1596</ele>
        <time>2024-09-17T12:22:50Z</time>
      </trkpt>
      <trkpt lat="42.48334" lon="2.3182">
        <ele>1595</ele>
        <time>2024-09-17T12:22:53Z</time>
      </trkpt>
      <trkpt lat="42.48337" lon="2.31822">
        <ele>1593</ele>
        <time>2024-09-17T12:22:57Z</time>
      </trkpt>
      <trkpt lat="42.48339" lon="2.31825">
        <ele>1592</ele>
        <time>2024-09-17T12:23:00Z</time>
      </trkpt>
      <trkpt lat="42.48341" lon="2.31828">
        <ele>1591</ele>
        <time>2024-09-17T12:23:03Z</time>
      </trkpt>
      <trkpt lat="42.48343" lon="2.3183">
        <ele>1590</ele>
        <time>2024-09-17T12:23:06Z</time>
      </trkpt>
      <trkpt lat="42.48346" lon="2.31833">
        <ele>1590</ele>
        <time>2024-09-17T12:23:09Z</time>
      </trkpt>
      <trkpt lat="42.48348" lon="2.31837">
        <ele>1589</ele>
        <time>2024-09-17T12:23:14Z</time>
      </trkpt>
      <trkpt lat="42.4835" lon="2.31841">
        <ele>1589</ele>
        <time>2024-09-17T12:23:17Z</time>
      </trkpt>
      <trkpt lat="42.48352" lon="2.31844">
        <ele>1588</ele>
        <time>2024-09-17T12:23:20Z</time>
      </trkpt>
      <trkpt lat="42.48354" lon="2.31848">
        <ele>1589</ele>
        <time>2024-09-17T12:23:23Z</time>
      </trkpt>
      <trkpt lat="42.48357" lon="2.31851">
        <ele>1589</ele>
        <time>2024-09-17T12:23:26Z</time>
      </trkpt>
      <trkpt lat="42.48358" lon="2.31855">
        <ele>1588</ele>
        <time>2024-09-17T12:23:29Z</time>
      </trkpt>
      <trkpt lat="42.48359" lon="2.31859">
        <ele>1589</ele>
        <time>2024-09-17T12:23:31Z</time>
      </trkpt>
      <trkpt lat="42.48361" lon="2.31862">
        <ele>1587</ele>
        <time>2024-09-17T12:23:34Z</time>
      </trkpt>
      <trkpt lat="42.48363" lon="2.31865">
        <ele>1587</ele>
        <time>2024-09-17T12:23:37Z</time>
      </trkpt>
      <trkpt lat="42.48364" lon="2.31869">
        <ele>1585</ele>
        <time>2024-09-17T12:23:41Z</time>
      </trkpt>
      <trkpt lat="42.48366" lon="2.31873">
        <ele>1585</ele>
        <time>2024-09-17T12:23:44Z</time>
      </trkpt>
      <trkpt lat="42.48367" lon="2.31877">
        <ele>1585</ele>
        <time>2024-09-17T12:23:46Z</time>
      </trkpt>
      <trkpt lat="42.48368" lon="2.31881">
        <ele>1584</ele>
        <time>2024-09-17T12:23:49Z</time>
      </trkpt>
      <trkpt lat="42.48369" lon="2.31885">
        <ele>1584</ele>
        <time>2024-09-17T12:23:51Z</time>
      </trkpt>
      <trkpt lat="42.4837" lon="2.31888">
        <ele>1584</ele>
        <time>2024-09-17T12:23:54Z</time>
      </trkpt>
      <trkpt lat="42.48371" lon="2.31892">
        <ele>1583</ele>
        <time>2024-09-17T12:23:57Z</time>
      </trkpt>
      <trkpt lat="42.48372" lon="2.31895">
        <ele>1582</ele>
        <time>2024-09-17T12:24:00Z</time>
      </trkpt>
      <trkpt lat="42.48372" lon="2.31899">
        <ele>1581</ele>
        <time>2024-09-17T12:24:03Z</time>
      </trkpt>
      <trkpt lat="42.48372" lon="2.31903">
        <ele>1581</ele>
        <time>2024-09-17T12:24:05Z</time>
      </trkpt>
      <trkpt lat="42.48374" lon="2.31907">
        <ele>1581</ele>
        <time>2024-09-17T12:24:08Z</time>
      </trkpt>
      <trkpt lat="42.48374" lon="2.31911">
        <ele>1580</ele>
        <time>2024-09-17T12:24:11Z</time>
      </trkpt>
      <trkpt lat="42.48375" lon="2.31915">
        <ele>1579</ele>
        <time>2024-09-17T12:24:14Z</time>
      </trkpt>
      <trkpt lat="42.48376" lon="2.31919">
        <ele>1578</ele>
        <time>2024-09-17T12:24:17Z</time>
      </trkpt>
      <trkpt lat="42.48376" lon="2.31923">
        <ele>1577</ele>
        <time>2024-09-17T12:24:20Z</time>
      </trkpt>
      <trkpt lat="42.48375" lon="2.31927">
        <ele>1577</ele>
        <time>2024-09-17T12:24:23Z</time>
      </trkpt>
      <trkpt lat="42.48375" lon="2.3193">
        <ele>1576</ele>
        <time>2024-09-17T12:24:26Z</time>
      </trkpt>
      <trkpt lat="42.48376" lon="2.31935">
        <ele>1575</ele>
        <time>2024-09-17T12:24:30Z</time>
      </trkpt>
      <trkpt lat="42.48376" lon="2.31939">
        <ele>1574</ele>
        <time>2024-09-17T12:24:34Z</time>
      </trkpt>
      <trkpt lat="42.48376" lon="2.31943">
        <ele>1574</ele>
        <time>2024-09-17T12:24:37Z</time>
      </trkpt>
      <trkpt lat="42.48376" lon="2.31948">
        <ele>1572</ele>
        <time>2024-09-17T12:24:42Z</time>
      </trkpt>
      <trkpt lat="42.48375" lon="2.31952">
        <ele>1572</ele>
        <time>2024-09-17T12:24:45Z</time>
      </trkpt>
      <trkpt lat="42.48375" lon="2.31956">
        <ele>1572</ele>
        <time>2024-09-17T12:24:47Z</time>
      </trkpt>
      <trkpt lat="42.48375" lon="2.31961">
        <ele>1570</ele>
        <time>2024-09-17T12:24:53Z</time>
      </trkpt>
      <trkpt lat="42.48376" lon="2.31965">
        <ele>1570</ele>
        <time>2024-09-17T12:24:56Z</time>
      </trkpt>
      <trkpt lat="42.48377" lon="2.3197">
        <ele>1569</ele>
        <time>2024-09-17T12:24:59Z</time>
      </trkpt>
      <trkpt lat="42.48378" lon="2.31973">
        <ele>1569</ele>
        <time>2024-09-17T12:25:02Z</time>
      </trkpt>
      <trkpt lat="42.48379" lon="2.31977">
        <ele>1567</ele>
        <time>2024-09-17T12:25:06Z</time>
      </trkpt>
      <trkpt lat="42.48379" lon="2.31981">
        <ele>1567</ele>
        <time>2024-09-17T12:25:10Z</time>
      </trkpt>
      <trkpt lat="42.4838" lon="2.31985">
        <ele>1566</ele>
        <time>2024-09-17T12:25:14Z</time>
      </trkpt>
      <trkpt lat="42.48381" lon="2.3199">
        <ele>1565</ele>
        <time>2024-09-17T12:25:25Z</time>
      </trkpt>
      <trkpt lat="42.48383" lon="2.31992">
        <ele>1564</ele>
        <time>2024-09-17T12:25:37Z</time>
      </trkpt>
      <trkpt lat="42.48384" lon="2.31996">
        <ele>1563</ele>
        <time>2024-09-17T12:25:41Z</time>
      </trkpt>
      <trkpt lat="42.48386" lon="2.32">
        <ele>1563</ele>
        <time>2024-09-17T12:25:45Z</time>
      </trkpt>
      <trkpt lat="42.48386" lon="2.32005">
        <ele>1563</ele>
        <time>2024-09-17T12:25:49Z</time>
      </trkpt>
      <trkpt lat="42.48389" lon="2.32009">
        <ele>1562</ele>
        <time>2024-09-17T12:25:53Z</time>
      </trkpt>
      <trkpt lat="42.48392" lon="2.32011">
        <ele>1560</ele>
        <time>2024-09-17T12:25:59Z</time>
      </trkpt>
      <trkpt lat="42.48393" lon="2.32014">
        <ele>1559</ele>
        <time>2024-09-17T12:26:02Z</time>
      </trkpt>
      <trkpt lat="42.48395" lon="2.32018">
        <ele>1559</ele>
        <time>2024-09-17T12:26:05Z</time>
      </trkpt>
      <trkpt lat="42.48397" lon="2.32022">
        <ele>1558</ele>
        <time>2024-09-17T12:26:09Z</time>
      </trkpt>
      <trkpt lat="42.484" lon="2.32024">
        <ele>1556</ele>
        <time>2024-09-17T12:26:14Z</time>
      </trkpt>
      <trkpt lat="42.48402" lon="2.32027">
        <ele>1556</ele>
        <time>2024-09-17T12:26:17Z</time>
      </trkpt>
      <trkpt lat="42.48405" lon="2.3203">
        <ele>1555</ele>
        <time>2024-09-17T12:26:21Z</time>
      </trkpt>
      <trkpt lat="42.48407" lon="2.32033">
        <ele>1554</ele>
        <time>2024-09-17T12:26:24Z</time>
      </trkpt>
      <trkpt lat="42.4841" lon="2.32035">
        <ele>1552</ele>
        <time>2024-09-17T12:26:29Z</time>
      </trkpt>
      <trkpt lat="42.48413" lon="2.32037">
        <ele>1551</ele>
        <time>2024-09-17T12:26:31Z</time>
      </trkpt>
      <trkpt lat="42.48416" lon="2.32039">
        <ele>1551</ele>
        <time>2024-09-17T12:26:34Z</time>
      </trkpt>
      <trkpt lat="42.48419" lon="2.32042">
        <ele>1551</ele>
        <time>2024-09-17T12:26:38Z</time>
      </trkpt>
      <trkpt lat="42.4842" lon="2.32045">
        <ele>1551</ele>
        <time>2024-09-17T12:26:41Z</time>
      </trkpt>
      <trkpt lat="42.48423" lon="2.32048">
        <ele>1550</ele>
        <time>2024-09-17T12:26:44Z</time>
      </trkpt>
      <trkpt lat="42.48425" lon="2.3205">
        <ele>1549</ele>
        <time>2024-09-17T12:26:48Z</time>
      </trkpt>
      <trkpt lat="42.48426" lon="2.32053">
        <ele>1546</ele>
        <time>2024-09-17T12:26:55Z</time>
      </trkpt>
      <trkpt lat="42.48428" lon="2.32057">
        <ele>1545</ele>
        <time>2024-09-17T12:26:59Z</time>
      </trkpt>
      <trkpt lat="42.4843" lon="2.32059">
        <ele>1545</ele>
        <time>2024-09-17T12:27:03Z</time>
      </trkpt>
      <trkpt lat="42.48432" lon="2.32061">
        <ele>1544</ele>
        <time>2024-09-17T12:27:07Z</time>
      </trkpt>
      <trkpt lat="42.48435" lon="2.32062">
        <ele>1543</ele>
        <time>2024-09-17T12:27:11Z</time>
      </trkpt>
      <trkpt lat="42.48437" lon="2.32066">
        <ele>1543</ele>
        <time>2024-09-17T12:27:15Z</time>
      </trkpt>
      <trkpt lat="42.48438" lon="2.32069">
        <ele>1541</ele>
        <time>2024-09-17T12:27:19Z</time>
      </trkpt>
      <trkpt lat="42.4844" lon="2.32071">
        <ele>1541</ele>
        <time>2024-09-17T12:27:22Z</time>
      </trkpt>
      <trkpt lat="42.48442" lon="2.32074">
        <ele>1541</ele>
        <time>2024-09-17T12:27:25Z</time>
      </trkpt>
      <trkpt lat="42.48445" lon="2.32076">
        <ele>1540</ele>
        <time>2024-09-17T12:27:29Z</time>
      </trkpt>
      <trkpt lat="42.48448" lon="2.32078">
        <ele>1539</ele>
        <time>2024-09-17T12:27:33Z</time>
      </trkpt>
      <trkpt lat="42.4845" lon="2.3208">
        <ele>1538</ele>
        <time>2024-09-17T12:27:36Z</time>
      </trkpt>
      <trkpt lat="42.48453" lon="2.32083">
        <ele>1538</ele>
        <time>2024-09-17T12:27:39Z</time>
      </trkpt>
      <trkpt lat="42.48455" lon="2.32085">
        <ele>1537</ele>
        <time>2024-09-17T12:27:43Z</time>
      </trkpt>
      <trkpt lat="42.48457" lon="2.32088">
        <ele>1537</ele>
        <time>2024-09-17T12:27:46Z</time>
      </trkpt>
      <trkpt lat="42.4846" lon="2.32089">
        <ele>1536</ele>
        <time>2024-09-17T12:27:51Z</time>
      </trkpt>
      <trkpt lat="42.48463" lon="2.32092">
        <ele>1535</ele>
        <time>2024-09-17T12:27:54Z</time>
      </trkpt>
      <trkpt lat="42.48466" lon="2.32094">
        <ele>1535</ele>
        <time>2024-09-17T12:27:58Z</time>
      </trkpt>
      <trkpt lat="42.48469" lon="2.32096">
        <ele>1534</ele>
        <time>2024-09-17T12:28:02Z</time>
      </trkpt>
      <trkpt lat="42.48472" lon="2.321">
        <ele>1535</ele>
        <time>2024-09-17T12:28:07Z</time>
      </trkpt>
      <trkpt lat="42.48472" lon="2.32103">
        <ele>1539</ele>
        <time>2024-09-17T12:28:23Z</time>
      </trkpt>
      <trkpt lat="42.48473" lon="2.32104">
        <ele>1536</ele>
        <time>2024-09-17T12:28:39Z</time>
      </trkpt>
      <trkpt lat="42.48476" lon="2.32105">
        <ele>1535</ele>
        <time>2024-09-17T12:28:42Z</time>
      </trkpt>
      <trkpt lat="42.48478" lon="2.32106">
        <ele>1533</ele>
        <time>2024-09-17T12:28:46Z</time>
      </trkpt>
      <trkpt lat="42.48481" lon="2.32107">
        <ele>1532</ele>
        <time>2024-09-17T12:28:49Z</time>
      </trkpt>
      <trkpt lat="42.48483" lon="2.32107">
        <ele>1533</ele>
        <time>2024-09-17T12:28:57Z</time>
      </trkpt>
      <trkpt lat="42.48486" lon="2.32109">
        <ele>1532</ele>
        <time>2024-09-17T12:29:01Z</time>
      </trkpt>
      <trkpt lat="42.48489" lon="2.32112">
        <ele>1531</ele>
        <time>2024-09-17T12:29:04Z</time>
      </trkpt>
      <trkpt lat="42.48491" lon="2.32115">
        <ele>1532</ele>
        <time>2024-09-17T12:29:07Z</time>
      </trkpt>
      <trkpt lat="42.48493" lon="2.32118">
        <ele>1532</ele>
        <time>2024-09-17T12:29:09Z</time>
      </trkpt>
      <trkpt lat="42.48494" lon="2.32122">
        <ele>1531</ele>
        <time>2024-09-17T12:29:13Z</time>
      </trkpt>
      <trkpt lat="42.48497" lon="2.32124">
        <ele>1532</ele>
        <time>2024-09-17T12:29:16Z</time>
      </trkpt>
      <trkpt lat="42.48499" lon="2.32127">
        <ele>1530</ele>
        <time>2024-09-17T12:29:19Z</time>
      </trkpt>
      <trkpt lat="42.48501" lon="2.3213">
        <ele>1530</ele>
        <time>2024-09-17T12:29:21Z</time>
      </trkpt>
      <trkpt lat="42.48504" lon="2.32133">
        <ele>1529</ele>
        <time>2024-09-17T12:29:24Z</time>
      </trkpt>
      <trkpt lat="42.48507" lon="2.32135">
        <ele>1529</ele>
        <time>2024-09-17T12:29:27Z</time>
      </trkpt>
      <trkpt lat="42.4851" lon="2.32138">
        <ele>1528</ele>
        <time>2024-09-17T12:29:30Z</time>
      </trkpt>
      <trkpt lat="42.48512" lon="2.32141">
        <ele>1527</ele>
        <time>2024-09-17T12:29:33Z</time>
      </trkpt>
      <trkpt lat="42.48515" lon="2.32144">
        <ele>1526</ele>
        <time>2024-09-17T12:29:36Z</time>
      </trkpt>
      <trkpt lat="42.48518" lon="2.32148">
        <ele>1525</ele>
        <time>2024-09-17T12:29:39Z</time>
      </trkpt>
      <trkpt lat="42.4852" lon="2.32151">
        <ele>1525</ele>
        <time>2024-09-17T12:29:42Z</time>
      </trkpt>
      <trkpt lat="42.48523" lon="2.32155">
        <ele>1524</ele>
        <time>2024-09-17T12:29:45Z</time>
      </trkpt>
      <trkpt lat="42.48525" lon="2.32159">
        <ele>1524</ele>
        <time>2024-09-17T12:29:48Z</time>
      </trkpt>
      <trkpt lat="42.48527" lon="2.32162">
        <ele>1523</ele>
        <time>2024-09-17T12:29:52Z</time>
      </trkpt>
      <trkpt lat="42.48529" lon="2.32166">
        <ele>1522</ele>
        <time>2024-09-17T12:29:55Z</time>
      </trkpt>
      <trkpt lat="42.48532" lon="2.32167">
        <ele>1521</ele>
        <time>2024-09-17T12:29:59Z</time>
      </trkpt>
      <trkpt lat="42.48534" lon="2.3217">
        <ele>1520</ele>
        <time>2024-09-17T12:30:02Z</time>
      </trkpt>
      <trkpt lat="42.48536" lon="2.32173">
        <ele>1520</ele>
        <time>2024-09-17T12:30:05Z</time>
      </trkpt>
      <trkpt lat="42.48539" lon="2.32176">
        <ele>1520</ele>
        <time>2024-09-17T12:30:08Z</time>
      </trkpt>
      <trkpt lat="42.48541" lon="2.32179">
        <ele>1520</ele>
        <time>2024-09-17T12:30:10Z</time>
      </trkpt>
      <trkpt lat="42.48544" lon="2.3218">
        <ele>1519</ele>
        <time>2024-09-17T12:30:14Z</time>
      </trkpt>
      <trkpt lat="42.48546" lon="2.32184">
        <ele>1520</ele>
        <time>2024-09-17T12:30:17Z</time>
      </trkpt>
      <trkpt lat="42.48548" lon="2.32187">
        <ele>1520</ele>
        <time>2024-09-17T12:30:20Z</time>
      </trkpt>
      <trkpt lat="42.48551" lon="2.32192">
        <ele>1520</ele>
        <time>2024-09-17T12:30:23Z</time>
      </trkpt>
      <trkpt lat="42.48554" lon="2.32195">
        <ele>1518</ele>
        <time>2024-09-17T12:30:28Z</time>
      </trkpt>
      <trkpt lat="42.48556" lon="2.32198">
        <ele>1518</ele>
        <time>2024-09-17T12:30:30Z</time>
      </trkpt>
      <trkpt lat="42.48558" lon="2.32202">
        <ele>1518</ele>
        <time>2024-09-17T12:30:32Z</time>
      </trkpt>
      <trkpt lat="42.4856" lon="2.32205">
        <ele>1518</ele>
        <time>2024-09-17T12:30:37Z</time>
      </trkpt>
      <trkpt lat="42.48563" lon="2.32207">
        <ele>1518</ele>
        <time>2024-09-17T12:30:39Z</time>
      </trkpt>
      <trkpt lat="42.48566" lon="2.3221">
        <ele>1518</ele>
        <time>2024-09-17T12:30:41Z</time>
      </trkpt>
      <trkpt lat="42.48569" lon="2.32212">
        <ele>1517</ele>
        <time>2024-09-17T12:30:44Z</time>
      </trkpt>
      <trkpt lat="42.48572" lon="2.32214">
        <ele>1517</ele>
        <time>2024-09-17T12:30:47Z</time>
      </trkpt>
      <trkpt lat="42.48575" lon="2.32217">
        <ele>1515</ele>
        <time>2024-09-17T12:30:51Z</time>
      </trkpt>
      <trkpt lat="42.48578" lon="2.32219">
        <ele>1516</ele>
        <time>2024-09-17T12:30:54Z</time>
      </trkpt>
      <trkpt lat="42.48581" lon="2.32221">
        <ele>1514</ele>
        <time>2024-09-17T12:30:57Z</time>
      </trkpt>
      <trkpt lat="42.48584" lon="2.32224">
        <ele>1511</ele>
        <time>2024-09-17T12:31:02Z</time>
      </trkpt>
      <trkpt lat="42.48586" lon="2.32227">
        <ele>1512</ele>
        <time>2024-09-17T12:31:04Z</time>
      </trkpt>
      <trkpt lat="42.48589" lon="2.3223">
        <ele>1512</ele>
        <time>2024-09-17T12:31:07Z</time>
      </trkpt>
      <trkpt lat="42.48593" lon="2.32231">
        <ele>1510</ele>
        <time>2024-09-17T12:31:10Z</time>
      </trkpt>
      <trkpt lat="42.48596" lon="2.32233">
        <ele>1509</ele>
        <time>2024-09-17T12:31:14Z</time>
      </trkpt>
      <trkpt lat="42.48599" lon="2.32236">
        <ele>1507</ele>
        <time>2024-09-17T12:31:21Z</time>
      </trkpt>
      <trkpt lat="42.48601" lon="2.32239">
        <ele>1507</ele>
        <time>2024-09-17T12:31:24Z</time>
      </trkpt>
      <trkpt lat="42.48604" lon="2.32241">
        <ele>1506</ele>
        <time>2024-09-17T12:31:28Z</time>
      </trkpt>
      <trkpt lat="42.48607" lon="2.32241">
        <ele>1505</ele>
        <time>2024-09-17T12:31:44Z</time>
      </trkpt>
      <trkpt lat="42.48607" lon="2.32242">
        <ele>1508</ele>
        <time>2024-09-17T12:31:58Z</time>
      </trkpt>
      <trkpt lat="42.48608" lon="2.32244">
        <ele>1507</ele>
        <time>2024-09-17T12:32:03Z</time>
      </trkpt>
      <trkpt lat="42.4861" lon="2.32246">
        <ele>1507</ele>
        <time>2024-09-17T12:32:06Z</time>
      </trkpt>
      <trkpt lat="42.48612" lon="2.32248">
        <ele>1507</ele>
        <time>2024-09-17T12:32:09Z</time>
      </trkpt>
      <trkpt lat="42.48614" lon="2.32252">
        <ele>1505</ele>
        <time>2024-09-17T12:32:13Z</time>
      </trkpt>
      <trkpt lat="42.48616" lon="2.32254">
        <ele>1503</ele>
        <time>2024-09-17T12:32:18Z</time>
      </trkpt>
      <trkpt lat="42.48617" lon="2.32258">
        <ele>1501</ele>
        <time>2024-09-17T12:32:27Z</time>
      </trkpt>
      <trkpt lat="42.48618" lon="2.32262">
        <ele>1500</ele>
        <time>2024-09-17T12:32:32Z</time>
      </trkpt>
      <trkpt lat="42.4862" lon="2.32265">
        <ele>1498</ele>
        <time>2024-09-17T12:32:36Z</time>
      </trkpt>
      <trkpt lat="42.48622" lon="2.32269">
        <ele>1498</ele>
        <time>2024-09-17T12:32:39Z</time>
      </trkpt>
      <trkpt lat="42.48624" lon="2.32272">
        <ele>1498</ele>
        <time>2024-09-17T12:32:43Z</time>
      </trkpt>
      <trkpt lat="42.48627" lon="2.32277">
        <ele>1497</ele>
        <time>2024-09-17T12:32:46Z</time>
      </trkpt>
      <trkpt lat="42.48629" lon="2.32281">
        <ele>1495</ele>
        <time>2024-09-17T12:32:53Z</time>
      </trkpt>
      <trkpt lat="42.48629" lon="2.32285">
        <ele>1493</ele>
        <time>2024-09-17T12:32:59Z</time>
      </trkpt>
      <trkpt lat="42.48627" lon="2.32285">
        <ele>1490</ele>
        <time>2024-09-17T12:33:02Z</time>
      </trkpt>
      <trkpt lat="42.48625" lon="2.32285">
        <ele>1489</ele>
        <time>2024-09-17T12:33:05Z</time>
      </trkpt>
      <trkpt lat="42.48621" lon="2.32285">
        <ele>1488</ele>
        <time>2024-09-17T12:33:08Z</time>
      </trkpt>
      <trkpt lat="42.48617" lon="2.32285">
        <ele>1489</ele>
        <time>2024-09-17T12:33:11Z</time>
      </trkpt>
      <trkpt lat="42.48614" lon="2.32285">
        <ele>1488</ele>
        <time>2024-09-17T12:33:14Z</time>
      </trkpt>
      <trkpt lat="42.48611" lon="2.32285">
        <ele>1488</ele>
        <time>2024-09-17T12:33:17Z</time>
      </trkpt>
      <trkpt lat="42.48608" lon="2.32285">
        <ele>1488</ele>
        <time>2024-09-17T12:33:21Z</time>
      </trkpt>
      <trkpt lat="42.48604" lon="2.32286">
        <ele>1487</ele>
        <time>2024-09-17T12:33:23Z</time>
      </trkpt>
      <trkpt lat="42.48602" lon="2.32284">
        <ele>1487</ele>
        <time>2024-09-17T12:33:27Z</time>
      </trkpt>
      <trkpt lat="42.48598" lon="2.32284">
        <ele>1488</ele>
        <time>2024-09-17T12:33:34Z</time>
      </trkpt>
      <trkpt lat="42.48595" lon="2.32284">
        <ele>1487</ele>
        <time>2024-09-17T12:33:38Z</time>
      </trkpt>
      <trkpt lat="42.48591" lon="2.32284">
        <ele>1486</ele>
        <time>2024-09-17T12:33:41Z</time>
      </trkpt>
      <trkpt lat="42.48589" lon="2.32286">
        <ele>1486</ele>
        <time>2024-09-17T12:33:44Z</time>
      </trkpt>
      <trkpt lat="42.48586" lon="2.32288">
        <ele>1485</ele>
        <time>2024-09-17T12:33:47Z</time>
      </trkpt>
      <trkpt lat="42.48584" lon="2.32286">
        <ele>1480</ele>
        <time>2024-09-17T12:34:20Z</time>
      </trkpt>
      <trkpt lat="42.48583" lon="2.32288">
        <ele>1481</ele>
        <time>2024-09-17T12:36:19Z</time>
      </trkpt>
      <trkpt lat="42.48581" lon="2.32293">
        <ele>1485</ele>
        <time>2024-09-17T12:36:43Z</time>
      </trkpt>
      <trkpt lat="42.48582" lon="2.32292">
        <ele>1484</ele>
        <time>2024-09-17T12:36:51Z</time>
      </trkpt>
      <trkpt lat="42.4858" lon="2.3229">
        <ele>1482</ele>
        <time>2024-09-17T12:37:13Z</time>
      </trkpt>
      <trkpt lat="42.48578" lon="2.32287">
        <ele>1482</ele>
        <time>2024-09-17T12:37:15Z</time>
      </trkpt>
      <trkpt lat="42.48575" lon="2.32286">
        <ele>1480</ele>
        <time>2024-09-17T12:37:19Z</time>
      </trkpt>
      <trkpt lat="42.48572" lon="2.32284">
        <ele>1479</ele>
        <time>2024-09-17T12:37:23Z</time>
      </trkpt>
      <trkpt lat="42.48569" lon="2.32282">
        <ele>1478</ele>
        <time>2024-09-17T12:37:26Z</time>
      </trkpt>
      <trkpt lat="42.48566" lon="2.32281">
        <ele>1479</ele>
        <time>2024-09-17T12:37:29Z</time>
      </trkpt>
      <trkpt lat="42.48563" lon="2.32279">
        <ele>1478</ele>
        <time>2024-09-17T12:37:33Z</time>
      </trkpt>
      <trkpt lat="42.4856" lon="2.32279">
        <ele>1478</ele>
        <time>2024-09-17T12:37:35Z</time>
      </trkpt>
      <trkpt lat="42.48557" lon="2.32278">
        <ele>1477</ele>
        <time>2024-09-17T12:37:40Z</time>
      </trkpt>
      <trkpt lat="42.48556" lon="2.3228">
        <ele>1476</ele>
        <time>2024-09-17T12:37:44Z</time>
      </trkpt>
      <trkpt lat="42.48557" lon="2.32284">
        <ele>1475</ele>
        <time>2024-09-17T12:37:48Z</time>
      </trkpt>
      <trkpt lat="42.48558" lon="2.32288">
        <ele>1473</ele>
        <time>2024-09-17T12:37:50Z</time>
      </trkpt>
      <trkpt lat="42.48558" lon="2.32292">
        <ele>1474</ele>
        <time>2024-09-17T12:37:53Z</time>
      </trkpt>
      <trkpt lat="42.48557" lon="2.32295">
        <ele>1476</ele>
        <time>2024-09-17T12:38:01Z</time>
      </trkpt>
      <trkpt lat="42.48555" lon="2.32299">
        <ele>1473</ele>
        <time>2024-09-17T12:38:05Z</time>
      </trkpt>
      <trkpt lat="42.48553" lon="2.32304">
        <ele>1472</ele>
        <time>2024-09-17T12:38:08Z</time>
      </trkpt>
      <trkpt lat="42.48552" lon="2.32309">
        <ele>1472</ele>
        <time>2024-09-17T12:38:11Z</time>
      </trkpt>
      <trkpt lat="42.48552" lon="2.32314">
        <ele>1471</ele>
        <time>2024-09-17T12:38:14Z</time>
      </trkpt>
      <trkpt lat="42.48553" lon="2.32318">
        <ele>1471</ele>
        <time>2024-09-17T12:38:16Z</time>
      </trkpt>
      <trkpt lat="42.48555" lon="2.32321">
        <ele>1471</ele>
        <time>2024-09-17T12:38:19Z</time>
      </trkpt>
      <trkpt lat="42.48558" lon="2.32323">
        <ele>1470</ele>
        <time>2024-09-17T12:38:23Z</time>
      </trkpt>
      <trkpt lat="42.48561" lon="2.32324">
        <ele>1470</ele>
        <time>2024-09-17T12:38:25Z</time>
      </trkpt>
      <trkpt lat="42.48565" lon="2.32324">
        <ele>1468</ele>
        <time>2024-09-17T12:38:27Z</time>
      </trkpt>
      <trkpt lat="42.48567" lon="2.32323">
        <ele>1466</ele>
        <time>2024-09-17T12:38:29Z</time>
      </trkpt>
      <trkpt lat="42.4857" lon="2.32322">
        <ele>1465</ele>
        <time>2024-09-17T12:38:31Z</time>
      </trkpt>
      <trkpt lat="42.48573" lon="2.3232">
        <ele>1465</ele>
        <time>2024-09-17T12:38:33Z</time>
      </trkpt>
      <trkpt lat="42.48576" lon="2.32319">
        <ele>1465</ele>
        <time>2024-09-17T12:38:35Z</time>
      </trkpt>
      <trkpt lat="42.48579" lon="2.32317">
        <ele>1465</ele>
        <time>2024-09-17T12:38:37Z</time>
      </trkpt>
      <trkpt lat="42.48581" lon="2.32315">
        <ele>1465</ele>
        <time>2024-09-17T12:38:39Z</time>
      </trkpt>
      <trkpt lat="42.48584" lon="2.32313">
        <ele>1465</ele>
        <time>2024-09-17T12:38:41Z</time>
      </trkpt>
      <trkpt lat="42.48587" lon="2.32312">
        <ele>1465</ele>
        <time>2024-09-17T12:38:43Z</time>
      </trkpt>
      <trkpt lat="42.48589" lon="2.32312">
        <ele>1464</ele>
        <time>2024-09-17T12:38:45Z</time>
      </trkpt>
      <trkpt lat="42.48592" lon="2.32312">
        <ele>1465</ele>
        <time>2024-09-17T12:38:47Z</time>
      </trkpt>
      <trkpt lat="42.48595" lon="2.32312">
        <ele>1466</ele>
        <time>2024-09-17T12:38:50Z</time>
      </trkpt>
      <trkpt lat="42.48598" lon="2.32313">
        <ele>1465</ele>
        <time>2024-09-17T12:38:51Z</time>
      </trkpt>
      <trkpt lat="42.48601" lon="2.32314">
        <ele>1465</ele>
        <time>2024-09-17T12:38:54Z</time>
      </trkpt>
      <trkpt lat="42.48605" lon="2.32315">
        <ele>1465</ele>
        <time>2024-09-17T12:38:57Z</time>
      </trkpt>
      <trkpt lat="42.48608" lon="2.32318">
        <ele>1465</ele>
        <time>2024-09-17T12:39:00Z</time>
      </trkpt>
      <trkpt lat="42.4861" lon="2.32321">
        <ele>1465</ele>
        <time>2024-09-17T12:39:02Z</time>
      </trkpt>
      <trkpt lat="42.48613" lon="2.32325">
        <ele>1465</ele>
        <time>2024-09-17T12:39:05Z</time>
      </trkpt>
      <trkpt lat="42.48615" lon="2.32328">
        <ele>1466</ele>
        <time>2024-09-17T12:39:08Z</time>
      </trkpt>
      <trkpt lat="42.48619" lon="2.32331">
        <ele>1467</ele>
        <time>2024-09-17T12:39:11Z</time>
      </trkpt>
      <trkpt lat="42.48622" lon="2.32334">
        <ele>1467</ele>
        <time>2024-09-17T12:39:14Z</time>
      </trkpt>
      <trkpt lat="42.48625" lon="2.32336">
        <ele>1466</ele>
        <time>2024-09-17T12:39:17Z</time>
      </trkpt>
      <trkpt lat="42.48629" lon="2.32338">
        <ele>1466</ele>
        <time>2024-09-17T12:39:20Z</time>
      </trkpt>
      <trkpt lat="42.48632" lon="2.32341">
        <ele>1465</ele>
        <time>2024-09-17T12:39:23Z</time>
      </trkpt>
      <trkpt lat="42.48635" lon="2.32343">
        <ele>1465</ele>
        <time>2024-09-17T12:39:26Z</time>
      </trkpt>
      <trkpt lat="42.48638" lon="2.32347">
        <ele>1464</ele>
        <time>2024-09-17T12:39:29Z</time>
      </trkpt>
      <trkpt lat="42.48641" lon="2.3235">
        <ele>1463</ele>
        <time>2024-09-17T12:39:32Z</time>
      </trkpt>
      <trkpt lat="42.48643" lon="2.32354">
        <ele>1463</ele>
        <time>2024-09-17T12:39:35Z</time>
      </trkpt>
      <trkpt lat="42.48646" lon="2.32356">
        <ele>1461</ele>
        <time>2024-09-17T12:39:38Z</time>
      </trkpt>
      <trkpt lat="42.48649" lon="2.3236">
        <ele>1461</ele>
        <time>2024-09-17T12:39:41Z</time>
      </trkpt>
      <trkpt lat="42.48653" lon="2.32362">
        <ele>1460</ele>
        <time>2024-09-17T12:39:44Z</time>
      </trkpt>
      <trkpt lat="42.48655" lon="2.32364">
        <ele>1460</ele>
        <time>2024-09-17T12:39:46Z</time>
      </trkpt>
      <trkpt lat="42.48658" lon="2.32366">
        <ele>1460</ele>
        <time>2024-09-17T12:39:49Z</time>
      </trkpt>
      <trkpt lat="42.48662" lon="2.32369">
        <ele>1459</ele>
        <time>2024-09-17T12:39:52Z</time>
      </trkpt>
      <trkpt lat="42.48665" lon="2.32371">
        <ele>1459</ele>
        <time>2024-09-17T12:39:55Z</time>
      </trkpt>
      <trkpt lat="42.48667" lon="2.32375">
        <ele>1459</ele>
        <time>2024-09-17T12:39:58Z</time>
      </trkpt>
      <trkpt lat="42.48671" lon="2.32377">
        <ele>1459</ele>
        <time>2024-09-17T12:40:01Z</time>
      </trkpt>
      <trkpt lat="42.48674" lon="2.32379">
        <ele>1458</ele>
        <time>2024-09-17T12:40:04Z</time>
      </trkpt>
      <trkpt lat="42.48677" lon="2.3238">
        <ele>1458</ele>
        <time>2024-09-17T12:40:06Z</time>
      </trkpt>
      <trkpt lat="42.4868" lon="2.3238">
        <ele>1458</ele>
        <time>2024-09-17T12:40:08Z</time>
      </trkpt>
      <trkpt lat="42.48683" lon="2.3238">
        <ele>1458</ele>
        <time>2024-09-17T12:40:11Z</time>
      </trkpt>
      <trkpt lat="42.48686" lon="2.32378">
        <ele>1457</ele>
        <time>2024-09-17T12:40:13Z</time>
      </trkpt>
      <trkpt lat="42.48688" lon="2.32375">
        <ele>1457</ele>
        <time>2024-09-17T12:40:15Z</time>
      </trkpt>
      <trkpt lat="42.4869" lon="2.32372">
        <ele>1455</ele>
        <time>2024-09-17T12:40:17Z</time>
      </trkpt>
      <trkpt lat="42.48692" lon="2.32369">
        <ele>1455</ele>
        <time>2024-09-17T12:40:19Z</time>
      </trkpt>
      <trkpt lat="42.48694" lon="2.32366">
        <ele>1454</ele>
        <time>2024-09-17T12:40:21Z</time>
      </trkpt>
      <trkpt lat="42.48696" lon="2.32365">
        <ele>1455</ele>
        <time>2024-09-17T12:40:23Z</time>
      </trkpt>
      <trkpt lat="42.48699" lon="2.32364">
        <ele>1455</ele>
        <time>2024-09-17T12:40:25Z</time>
      </trkpt>
      <trkpt lat="42.48703" lon="2.32364">
        <ele>1454</ele>
        <time>2024-09-17T12:40:29Z</time>
      </trkpt>
      <trkpt lat="42.48706" lon="2.32365">
        <ele>1455</ele>
        <time>2024-09-17T12:40:32Z</time>
      </trkpt>
      <trkpt lat="42.48709" lon="2.32368">
        <ele>1455</ele>
        <time>2024-09-17T12:40:35Z</time>
      </trkpt>
      <trkpt lat="42.48711" lon="2.32371">
        <ele>1455</ele>
        <time>2024-09-17T12:40:38Z</time>
      </trkpt>
      <trkpt lat="42.48713" lon="2.32375">
        <ele>1453</ele>
        <time>2024-09-17T12:40:42Z</time>
      </trkpt>
      <trkpt lat="42.48713" lon="2.3238">
        <ele>1453</ele>
        <time>2024-09-17T12:40:44Z</time>
      </trkpt>
      <trkpt lat="42.48712" lon="2.32385">
        <ele>1454</ele>
        <time>2024-09-17T12:40:46Z</time>
      </trkpt>
      <trkpt lat="42.48712" lon="2.32389">
        <ele>1453</ele>
        <time>2024-09-17T12:40:49Z</time>
      </trkpt>
      <trkpt lat="42.48712" lon="2.32394">
        <ele>1452</ele>
        <time>2024-09-17T12:40:51Z</time>
      </trkpt>
      <trkpt lat="42.48711" lon="2.32398">
        <ele>1453</ele>
        <time>2024-09-17T12:40:53Z</time>
      </trkpt>
      <trkpt lat="42.4871" lon="2.32402">
        <ele>1452</ele>
        <time>2024-09-17T12:40:56Z</time>
      </trkpt>
      <trkpt lat="42.48709" lon="2.32406">
        <ele>1451</ele>
        <time>2024-09-17T12:40:58Z</time>
      </trkpt>
      <trkpt lat="42.48708" lon="2.3241">
        <ele>1451</ele>
        <time>2024-09-17T12:41:00Z</time>
      </trkpt>
      <trkpt lat="42.48708" lon="2.32415">
        <ele>1451</ele>
        <time>2024-09-17T12:41:02Z</time>
      </trkpt>
      <trkpt lat="42.48709" lon="2.32419">
        <ele>1450</ele>
        <time>2024-09-17T12:41:05Z</time>
      </trkpt>
      <trkpt lat="42.4871" lon="2.32423">
        <ele>1450</ele>
        <time>2024-09-17T12:41:09Z</time>
      </trkpt>
      <trkpt lat="42.48709" lon="2.32427">
        <ele>1449</ele>
        <time>2024-09-17T12:41:12Z</time>
      </trkpt>
      <trkpt lat="42.4871" lon="2.32431">
        <ele>1448</ele>
        <time>2024-09-17T12:41:16Z</time>
      </trkpt>
      <trkpt lat="42.4871" lon="2.32436">
        <ele>1446</ele>
        <time>2024-09-17T12:41:20Z</time>
      </trkpt>
      <trkpt lat="42.48708" lon="2.32439">
        <ele>1444</ele>
        <time>2024-09-17T12:41:24Z</time>
      </trkpt>
      <trkpt lat="42.48706" lon="2.32439">
        <ele>1444</ele>
        <time>2024-09-17T12:41:26Z</time>
      </trkpt>
      <trkpt lat="42.48705" lon="2.32441">
        <ele>1442</ele>
        <time>2024-09-17T12:41:33Z</time>
      </trkpt>
      <trkpt lat="42.48706" lon="2.32444">
        <ele>1441</ele>
        <time>2024-09-17T12:41:36Z</time>
      </trkpt>
      <trkpt lat="42.48708" lon="2.32446">
        <ele>1440</ele>
        <time>2024-09-17T12:41:39Z</time>
      </trkpt>
      <trkpt lat="42.48708" lon="2.3245">
        <ele>1440</ele>
        <time>2024-09-17T12:41:41Z</time>
      </trkpt>
      <trkpt lat="42.48708" lon="2.32454">
        <ele>1439</ele>
        <time>2024-09-17T12:41:45Z</time>
      </trkpt>
      <trkpt lat="42.48709" lon="2.32457">
        <ele>1439</ele>
        <time>2024-09-17T12:41:47Z</time>
      </trkpt>
      <trkpt lat="42.4871" lon="2.32461">
        <ele>1439</ele>
        <time>2024-09-17T12:41:49Z</time>
      </trkpt>
      <trkpt lat="42.48711" lon="2.32465">
        <ele>1439</ele>
        <time>2024-09-17T12:41:51Z</time>
      </trkpt>
      <trkpt lat="42.48712" lon="2.32469">
        <ele>1438</ele>
        <time>2024-09-17T12:41:54Z</time>
      </trkpt>
      <trkpt lat="42.48713" lon="2.32473">
        <ele>1439</ele>
        <time>2024-09-17T12:41:56Z</time>
      </trkpt>
      <trkpt lat="42.48714" lon="2.32476">
        <ele>1439</ele>
        <time>2024-09-17T12:41:58Z</time>
      </trkpt>
      <trkpt lat="42.48716" lon="2.3248">
        <ele>1439</ele>
        <time>2024-09-17T12:42:00Z</time>
      </trkpt>
      <trkpt lat="42.48717" lon="2.32484">
        <ele>1439</ele>
        <time>2024-09-17T12:42:03Z</time>
      </trkpt>
      <trkpt lat="42.48719" lon="2.32488">
        <ele>1439</ele>
        <time>2024-09-17T12:42:07Z</time>
      </trkpt>
      <trkpt lat="42.4872" lon="2.32492">
        <ele>1438</ele>
        <time>2024-09-17T12:42:09Z</time>
      </trkpt>
      <trkpt lat="42.48721" lon="2.32496">
        <ele>1439</ele>
        <time>2024-09-17T12:42:12Z</time>
      </trkpt>
      <trkpt lat="42.48722" lon="2.325">
        <ele>1437</ele>
        <time>2024-09-17T12:42:15Z</time>
      </trkpt>
      <trkpt lat="42.48722" lon="2.32504">
        <ele>1438</ele>
        <time>2024-09-17T12:42:18Z</time>
      </trkpt>
      <trkpt lat="42.48724" lon="2.32508">
        <ele>1437</ele>
        <time>2024-09-17T12:42:22Z</time>
      </trkpt>
      <trkpt lat="42.48727" lon="2.3251">
        <ele>1435</ele>
        <time>2024-09-17T12:42:26Z</time>
      </trkpt>
      <trkpt lat="42.48731" lon="2.32512">
        <ele>1435</ele>
        <time>2024-09-17T12:42:29Z</time>
      </trkpt>
      <trkpt lat="42.48734" lon="2.32515">
        <ele>1434</ele>
        <time>2024-09-17T12:42:34Z</time>
      </trkpt>
      <trkpt lat="42.48737" lon="2.32517">
        <ele>1434</ele>
        <time>2024-09-17T12:42:38Z</time>
      </trkpt>
      <trkpt lat="42.4874" lon="2.3252">
        <ele>1434</ele>
        <time>2024-09-17T12:42:40Z</time>
      </trkpt>
      <trkpt lat="42.48742" lon="2.32523">
        <ele>1434</ele>
        <time>2024-09-17T12:42:42Z</time>
      </trkpt>
      <trkpt lat="42.48745" lon="2.32525">
        <ele>1433</ele>
        <time>2024-09-17T12:42:45Z</time>
      </trkpt>
      <trkpt lat="42.48748" lon="2.32526">
        <ele>1432</ele>
        <time>2024-09-17T12:42:48Z</time>
      </trkpt>
      <trkpt lat="42.48751" lon="2.32525">
        <ele>1431</ele>
        <time>2024-09-17T12:42:51Z</time>
      </trkpt>
      <trkpt lat="42.48754" lon="2.32524">
        <ele>1431</ele>
        <time>2024-09-17T12:42:54Z</time>
      </trkpt>
      <trkpt lat="42.48758" lon="2.32524">
        <ele>1431</ele>
        <time>2024-09-17T12:42:58Z</time>
      </trkpt>
      <trkpt lat="42.4876" lon="2.32525">
        <ele>1431</ele>
        <time>2024-09-17T12:43:01Z</time>
      </trkpt>
      <trkpt lat="42.48762" lon="2.32527">
        <ele>1430</ele>
        <time>2024-09-17T12:43:05Z</time>
      </trkpt>
      <trkpt lat="42.48763" lon="2.32531">
        <ele>1430</ele>
        <time>2024-09-17T12:43:08Z</time>
      </trkpt>
      <trkpt lat="42.48764" lon="2.32536">
        <ele>1430</ele>
        <time>2024-09-17T12:43:11Z</time>
      </trkpt>
      <trkpt lat="42.48765" lon="2.3254">
        <ele>1429</ele>
        <time>2024-09-17T12:43:14Z</time>
      </trkpt>
      <trkpt lat="42.48767" lon="2.32544">
        <ele>1428</ele>
        <time>2024-09-17T12:43:17Z</time>
      </trkpt>
      <trkpt lat="42.48768" lon="2.32548">
        <ele>1428</ele>
        <time>2024-09-17T12:43:21Z</time>
      </trkpt>
      <trkpt lat="42.48768" lon="2.32553">
        <ele>1427</ele>
        <time>2024-09-17T12:43:24Z</time>
      </trkpt>
      <trkpt lat="42.4877" lon="2.32557">
        <ele>1426</ele>
        <time>2024-09-17T12:43:27Z</time>
      </trkpt>
      <trkpt lat="42.48771" lon="2.32561">
        <ele>1425</ele>
        <time>2024-09-17T12:43:30Z</time>
      </trkpt>
      <trkpt lat="42.48772" lon="2.32566">
        <ele>1424</ele>
        <time>2024-09-17T12:43:33Z</time>
      </trkpt>
      <trkpt lat="42.48774" lon="2.3257">
        <ele>1424</ele>
        <time>2024-09-17T12:43:36Z</time>
      </trkpt>
      <trkpt lat="42.48777" lon="2.32572">
        <ele>1423</ele>
        <time>2024-09-17T12:43:39Z</time>
      </trkpt>
      <trkpt lat="42.4878" lon="2.32575">
        <ele>1421</ele>
        <time>2024-09-17T12:43:41Z</time>
      </trkpt>
      <trkpt lat="42.48782" lon="2.32578">
        <ele>1421</ele>
        <time>2024-09-17T12:43:44Z</time>
      </trkpt>
      <trkpt lat="42.48784" lon="2.32581">
        <ele>1421</ele>
        <time>2024-09-17T12:43:47Z</time>
      </trkpt>
      <trkpt lat="42.48785" lon="2.32585">
        <ele>1420</ele>
        <time>2024-09-17T12:43:50Z</time>
      </trkpt>
      <trkpt lat="42.48787" lon="2.32589">
        <ele>1420</ele>
        <time>2024-09-17T12:43:53Z</time>
      </trkpt>
      <trkpt lat="42.4879" lon="2.3259">
        <ele>1419</ele>
        <time>2024-09-17T12:43:55Z</time>
      </trkpt>
      <trkpt lat="42.48792" lon="2.32594">
        <ele>1419</ele>
        <time>2024-09-17T12:43:59Z</time>
      </trkpt>
      <trkpt lat="42.48794" lon="2.32597">
        <ele>1419</ele>
        <time>2024-09-17T12:44:02Z</time>
      </trkpt>
      <trkpt lat="42.48796" lon="2.32601">
        <ele>1418</ele>
        <time>2024-09-17T12:44:05Z</time>
      </trkpt>
      <trkpt lat="42.48799" lon="2.32605">
        <ele>1418</ele>
        <time>2024-09-17T12:44:08Z</time>
      </trkpt>
      <trkpt lat="42.488" lon="2.32609">
        <ele>1418</ele>
        <time>2024-09-17T12:44:14Z</time>
      </trkpt>
      <trkpt lat="42.48803" lon="2.32611">
        <ele>1416</ele>
        <time>2024-09-17T12:44:17Z</time>
      </trkpt>
      <trkpt lat="42.48805" lon="2.32613">
        <ele>1416</ele>
        <time>2024-09-17T12:44:19Z</time>
      </trkpt>
      <trkpt lat="42.48807" lon="2.32616">
        <ele>1415</ele>
        <time>2024-09-17T12:44:22Z</time>
      </trkpt>
      <trkpt lat="42.4881" lon="2.32619">
        <ele>1415</ele>
        <time>2024-09-17T12:44:25Z</time>
      </trkpt>
      <trkpt lat="42.48812" lon="2.32622">
        <ele>1415</ele>
        <time>2024-09-17T12:44:28Z</time>
      </trkpt>
      <trkpt lat="42.48814" lon="2.32626">
        <ele>1414</ele>
        <time>2024-09-17T12:44:31Z</time>
      </trkpt>
      <trkpt lat="42.48816" lon="2.3263">
        <ele>1413</ele>
        <time>2024-09-17T12:44:34Z</time>
      </trkpt>
      <trkpt lat="42.48818" lon="2.32634">
        <ele>1413</ele>
        <time>2024-09-17T12:44:37Z</time>
      </trkpt>
      <trkpt lat="42.4882" lon="2.32638">
        <ele>1412</ele>
        <time>2024-09-17T12:44:41Z</time>
      </trkpt>
      <trkpt lat="42.48822" lon="2.32641">
        <ele>1413</ele>
        <time>2024-09-17T12:44:44Z</time>
      </trkpt>
      <trkpt lat="42.48825" lon="2.32644">
        <ele>1412</ele>
        <time>2024-09-17T12:44:47Z</time>
      </trkpt>
      <trkpt lat="42.48827" lon="2.32647">
        <ele>1411</ele>
        <time>2024-09-17T12:44:51Z</time>
      </trkpt>
      <trkpt lat="42.48829" lon="2.32651">
        <ele>1411</ele>
        <time>2024-09-17T12:44:54Z</time>
      </trkpt>
      <trkpt lat="42.4883" lon="2.32655">
        <ele>1409</ele>
        <time>2024-09-17T12:44:59Z</time>
      </trkpt>
      <trkpt lat="42.48831" lon="2.3266">
        <ele>1408</ele>
        <time>2024-09-17T12:45:03Z</time>
      </trkpt>
      <trkpt lat="42.48832" lon="2.32663">
        <ele>1408</ele>
        <time>2024-09-17T12:45:05Z</time>
      </trkpt>
      <trkpt lat="42.48833" lon="2.32668">
        <ele>1407</ele>
        <time>2024-09-17T12:45:09Z</time>
      </trkpt>
      <trkpt lat="42.48834" lon="2.32672">
        <ele>1406</ele>
        <time>2024-09-17T12:45:12Z</time>
      </trkpt>
      <trkpt lat="42.48836" lon="2.32676">
        <ele>1405</ele>
        <time>2024-09-17T12:45:16Z</time>
      </trkpt>
      <trkpt lat="42.48838" lon="2.3268">
        <ele>1405</ele>
        <time>2024-09-17T12:45:19Z</time>
      </trkpt>
      <trkpt lat="42.48838" lon="2.32684">
        <ele>1404</ele>
        <time>2024-09-17T12:45:23Z</time>
      </trkpt>
      <trkpt lat="42.48839" lon="2.32688">
        <ele>1403</ele>
        <time>2024-09-17T12:45:26Z</time>
      </trkpt>
      <trkpt lat="42.4884" lon="2.32692">
        <ele>1403</ele>
        <time>2024-09-17T12:45:29Z</time>
      </trkpt>
      <trkpt lat="42.48842" lon="2.32695">
        <ele>1402</ele>
        <time>2024-09-17T12:45:32Z</time>
      </trkpt>
      <trkpt lat="42.48844" lon="2.32698">
        <ele>1402</ele>
        <time>2024-09-17T12:45:35Z</time>
      </trkpt>
      <trkpt lat="42.48846" lon="2.327">
        <ele>1402</ele>
        <time>2024-09-17T12:45:38Z</time>
      </trkpt>
      <trkpt lat="42.48849" lon="2.32702">
        <ele>1402</ele>
        <time>2024-09-17T12:45:40Z</time>
      </trkpt>
      <trkpt lat="42.4885" lon="2.32705">
        <ele>1400</ele>
        <time>2024-09-17T12:45:43Z</time>
      </trkpt>
      <trkpt lat="42.48851" lon="2.32709">
        <ele>1399</ele>
        <time>2024-09-17T12:45:46Z</time>
      </trkpt>
      <trkpt lat="42.48851" lon="2.32714">
        <ele>1399</ele>
        <time>2024-09-17T12:45:49Z</time>
      </trkpt>
      <trkpt lat="42.48852" lon="2.32719">
        <ele>1400</ele>
        <time>2024-09-17T12:45:52Z</time>
      </trkpt>
      <trkpt lat="42.48853" lon="2.32722">
        <ele>1399</ele>
        <time>2024-09-17T12:45:55Z</time>
      </trkpt>
      <trkpt lat="42.48855" lon="2.32725">
        <ele>1398</ele>
        <time>2024-09-17T12:46:00Z</time>
      </trkpt>
      <trkpt lat="42.48857" lon="2.32729">
        <ele>1398</ele>
        <time>2024-09-17T12:46:03Z</time>
      </trkpt>
      <trkpt lat="42.4886" lon="2.32731">
        <ele>1398</ele>
        <time>2024-09-17T12:46:07Z</time>
      </trkpt>
      <trkpt lat="42.48862" lon="2.32735">
        <ele>1397</ele>
        <time>2024-09-17T12:46:10Z</time>
      </trkpt>
      <trkpt lat="42.48863" lon="2.32738">
        <ele>1398</ele>
        <time>2024-09-17T12:46:13Z</time>
      </trkpt>
      <trkpt lat="42.48865" lon="2.32742">
        <ele>1397</ele>
        <time>2024-09-17T12:46:16Z</time>
      </trkpt>
      <trkpt lat="42.48867" lon="2.32745">
        <ele>1397</ele>
        <time>2024-09-17T12:46:19Z</time>
      </trkpt>
      <trkpt lat="42.48868" lon="2.32749">
        <ele>1397</ele>
        <time>2024-09-17T12:46:23Z</time>
      </trkpt>
      <trkpt lat="42.48869" lon="2.32753">
        <ele>1398</ele>
        <time>2024-09-17T12:46:25Z</time>
      </trkpt>
      <trkpt lat="42.4887" lon="2.32756">
        <ele>1398</ele>
        <time>2024-09-17T12:46:28Z</time>
      </trkpt>
      <trkpt lat="42.48871" lon="2.3276">
        <ele>1398</ele>
        <time>2024-09-17T12:46:31Z</time>
      </trkpt>
      <trkpt lat="42.48871" lon="2.32764">
        <ele>1397</ele>
        <time>2024-09-17T12:46:34Z</time>
      </trkpt>
      <trkpt lat="42.48871" lon="2.32768">
        <ele>1397</ele>
        <time>2024-09-17T12:46:38Z</time>
      </trkpt>
      <trkpt lat="42.48871" lon="2.32773">
        <ele>1397</ele>
        <time>2024-09-17T12:46:42Z</time>
      </trkpt>
      <trkpt lat="42.48872" lon="2.32777">
        <ele>1397</ele>
        <time>2024-09-17T12:46:47Z</time>
      </trkpt>
      <trkpt lat="42.48872" lon="2.32781">
        <ele>1397</ele>
        <time>2024-09-17T12:46:51Z</time>
      </trkpt>
      <trkpt lat="42.48873" lon="2.32786">
        <ele>1396</ele>
        <time>2024-09-17T12:46:55Z</time>
      </trkpt>
      <trkpt lat="42.48874" lon="2.3279">
        <ele>1397</ele>
        <time>2024-09-17T12:46:58Z</time>
      </trkpt>
      <trkpt lat="42.48876" lon="2.32794">
        <ele>1398</ele>
        <time>2024-09-17T12:47:03Z</time>
      </trkpt>
      <trkpt lat="42.48877" lon="2.32798">
        <ele>1399</ele>
        <time>2024-09-17T12:47:07Z</time>
      </trkpt>
      <trkpt lat="42.48877" lon="2.32802">
        <ele>1398</ele>
        <time>2024-09-17T12:47:09Z</time>
      </trkpt>
      <trkpt lat="42.48876" lon="2.32806">
        <ele>1397</ele>
        <time>2024-09-17T12:47:12Z</time>
      </trkpt>
      <trkpt lat="42.48875" lon="2.32809">
        <ele>1397</ele>
        <time>2024-09-17T12:47:15Z</time>
      </trkpt>
      <trkpt lat="42.48875" lon="2.32813">
        <ele>1396</ele>
        <time>2024-09-17T12:47:18Z</time>
      </trkpt>
      <trkpt lat="42.48874" lon="2.32818">
        <ele>1396</ele>
        <time>2024-09-17T12:47:20Z</time>
      </trkpt>
      <trkpt lat="42.48874" lon="2.32822">
        <ele>1397</ele>
        <time>2024-09-17T12:47:22Z</time>
      </trkpt>
      <trkpt lat="42.48873" lon="2.32827">
        <ele>1398</ele>
        <time>2024-09-17T12:47:25Z</time>
      </trkpt>
      <trkpt lat="42.48872" lon="2.32832">
        <ele>1398</ele>
        <time>2024-09-17T12:47:29Z</time>
      </trkpt>
      <trkpt lat="42.48871" lon="2.32836">
        <ele>1398</ele>
        <time>2024-09-17T12:47:32Z</time>
      </trkpt>
      <trkpt lat="42.4887" lon="2.3284">
        <ele>1399</ele>
        <time>2024-09-17T12:47:35Z</time>
      </trkpt>
      <trkpt lat="42.4887" lon="2.32844">
        <ele>1400</ele>
        <time>2024-09-17T12:47:38Z</time>
      </trkpt>
      <trkpt lat="42.4887" lon="2.32848">
        <ele>1401</ele>
        <time>2024-09-17T12:47:40Z</time>
      </trkpt>
      <trkpt lat="42.4887" lon="2.32852">
        <ele>1402</ele>
        <time>2024-09-17T12:47:43Z</time>
      </trkpt>
      <trkpt lat="42.4887" lon="2.32857">
        <ele>1402</ele>
        <time>2024-09-17T12:47:46Z</time>
      </trkpt>
      <trkpt lat="42.48871" lon="2.32862">
        <ele>1402</ele>
        <time>2024-09-17T12:47:49Z</time>
      </trkpt>
      <trkpt lat="42.48872" lon="2.32866">
        <ele>1403</ele>
        <time>2024-09-17T12:47:52Z</time>
      </trkpt>
      <trkpt lat="42.48873" lon="2.3287">
        <ele>1402</ele>
        <time>2024-09-17T12:47:55Z</time>
      </trkpt>
      <trkpt lat="42.48874" lon="2.32875">
        <ele>1402</ele>
        <time>2024-09-17T12:47:58Z</time>
      </trkpt>
      <trkpt lat="42.48875" lon="2.32879">
        <ele>1403</ele>
        <time>2024-09-17T12:48:01Z</time>
      </trkpt>
      <trkpt lat="42.48875" lon="2.32883">
        <ele>1402</ele>
        <time>2024-09-17T12:48:04Z</time>
      </trkpt>
      <trkpt lat="42.48876" lon="2.32888">
        <ele>1402</ele>
        <time>2024-09-17T12:48:07Z</time>
      </trkpt>
      <trkpt lat="42.48877" lon="2.32893">
        <ele>1403</ele>
        <time>2024-09-17T12:48:11Z</time>
      </trkpt>
      <trkpt lat="42.48877" lon="2.32897">
        <ele>1402</ele>
        <time>2024-09-17T12:48:15Z</time>
      </trkpt>
      <trkpt lat="42.48877" lon="2.32902">
        <ele>1402</ele>
        <time>2024-09-17T12:48:18Z</time>
      </trkpt>
      <trkpt lat="42.48879" lon="2.32906">
        <ele>1403</ele>
        <time>2024-09-17T12:48:22Z</time>
      </trkpt>
      <trkpt lat="42.48881" lon="2.3291">
        <ele>1404</ele>
        <time>2024-09-17T12:48:25Z</time>
      </trkpt>
      <trkpt lat="42.48882" lon="2.32913">
        <ele>1404</ele>
        <time>2024-09-17T12:48:28Z</time>
      </trkpt>
      <trkpt lat="42.48882" lon="2.32917">
        <ele>1403</ele>
        <time>2024-09-17T12:48:31Z</time>
      </trkpt>
      <trkpt lat="42.48884" lon="2.32921">
        <ele>1404</ele>
        <time>2024-09-17T12:48:35Z</time>
      </trkpt>
      <trkpt lat="42.48884" lon="2.32926">
        <ele>1404</ele>
        <time>2024-09-17T12:48:38Z</time>
      </trkpt>
      <trkpt lat="42.48884" lon="2.32931">
        <ele>1402</ele>
        <time>2024-09-17T12:48:42Z</time>
      </trkpt>
      <trkpt lat="42.48885" lon="2.32934">
        <ele>1402</ele>
        <time>2024-09-17T12:48:45Z</time>
      </trkpt>
      <trkpt lat="42.48885" lon="2.32939">
        <ele>1402</ele>
        <time>2024-09-17T12:48:49Z</time>
      </trkpt>
      <trkpt lat="42.48886" lon="2.32943">
        <ele>1402</ele>
        <time>2024-09-17T12:48:53Z</time>
      </trkpt>
      <trkpt lat="42.48887" lon="2.32948">
        <ele>1401</ele>
        <time>2024-09-17T12:48:57Z</time>
      </trkpt>
      <trkpt lat="42.48889" lon="2.32952">
        <ele>1401</ele>
        <time>2024-09-17T12:49:00Z</time>
      </trkpt>
      <trkpt lat="42.4889" lon="2.32956">
        <ele>1401</ele>
        <time>2024-09-17T12:49:04Z</time>
      </trkpt>
      <trkpt lat="42.48891" lon="2.3296">
        <ele>1399</ele>
        <time>2024-09-17T12:49:07Z</time>
      </trkpt>
      <trkpt lat="42.48891" lon="2.32965">
        <ele>1400</ele>
        <time>2024-09-17T12:49:10Z</time>
      </trkpt>
      <trkpt lat="42.48892" lon="2.3297">
        <ele>1399</ele>
        <time>2024-09-17T12:49:14Z</time>
      </trkpt>
      <trkpt lat="42.48893" lon="2.32974">
        <ele>1399</ele>
        <time>2024-09-17T12:49:17Z</time>
      </trkpt>
      <trkpt lat="42.48893" lon="2.32978">
        <ele>1398</ele>
        <time>2024-09-17T12:49:20Z</time>
      </trkpt>
      <trkpt lat="42.48894" lon="2.32982">
        <ele>1398</ele>
        <time>2024-09-17T12:49:24Z</time>
      </trkpt>
      <trkpt lat="42.48894" lon="2.32986">
        <ele>1398</ele>
        <time>2024-09-17T12:49:26Z</time>
      </trkpt>
      <trkpt lat="42.48894" lon="2.3299">
        <ele>1398</ele>
        <time>2024-09-17T12:49:29Z</time>
      </trkpt>
      <trkpt lat="42.48894" lon="2.32994">
        <ele>1399</ele>
        <time>2024-09-17T12:49:33Z</time>
      </trkpt>
      <trkpt lat="42.48895" lon="2.32998">
        <ele>1400</ele>
        <time>2024-09-17T12:49:36Z</time>
      </trkpt>
      <trkpt lat="42.48895" lon="2.33002">
        <ele>1400</ele>
        <time>2024-09-17T12:49:52Z</time>
      </trkpt>
      <trkpt lat="42.48896" lon="2.33006">
        <ele>1400</ele>
        <time>2024-09-17T12:50:08Z</time>
      </trkpt>
      <trkpt lat="42.48896" lon="2.33012">
        <ele>1399</ele>
        <time>2024-09-17T12:50:11Z</time>
      </trkpt>
      <trkpt lat="42.48896" lon="2.33016">
        <ele>1399</ele>
        <time>2024-09-17T12:50:14Z</time>
      </trkpt>
      <trkpt lat="42.48895" lon="2.33021">
        <ele>1399</ele>
        <time>2024-09-17T12:50:16Z</time>
      </trkpt>
      <trkpt lat="42.48894" lon="2.33025">
        <ele>1397</ele>
        <time>2024-09-17T12:50:19Z</time>
      </trkpt>
      <trkpt lat="42.48893" lon="2.33029">
        <ele>1396</ele>
        <time>2024-09-17T12:50:22Z</time>
      </trkpt>
      <trkpt lat="42.48892" lon="2.33034">
        <ele>1395</ele>
        <time>2024-09-17T12:50:25Z</time>
      </trkpt>
      <trkpt lat="42.4889" lon="2.33037">
        <ele>1395</ele>
        <time>2024-09-17T12:50:27Z</time>
      </trkpt>
      <trkpt lat="42.48889" lon="2.33042">
        <ele>1394</ele>
        <time>2024-09-17T12:50:30Z</time>
      </trkpt>
      <trkpt lat="42.48887" lon="2.33046">
        <ele>1394</ele>
        <time>2024-09-17T12:50:33Z</time>
      </trkpt>
      <trkpt lat="42.48886" lon="2.33051">
        <ele>1394</ele>
        <time>2024-09-17T12:50:36Z</time>
      </trkpt>
      <trkpt lat="42.48885" lon="2.33056">
        <ele>1395</ele>
        <time>2024-09-17T12:50:39Z</time>
      </trkpt>
      <trkpt lat="42.48884" lon="2.33061">
        <ele>1395</ele>
        <time>2024-09-17T12:50:42Z</time>
      </trkpt>
      <trkpt lat="42.48884" lon="2.33066">
        <ele>1396</ele>
        <time>2024-09-17T12:50:45Z</time>
      </trkpt>
      <trkpt lat="42.48885" lon="2.33071">
        <ele>1395</ele>
        <time>2024-09-17T12:50:48Z</time>
      </trkpt>
      <trkpt lat="42.48886" lon="2.33075">
        <ele>1396</ele>
        <time>2024-09-17T12:50:50Z</time>
      </trkpt>
      <trkpt lat="42.48888" lon="2.33079">
        <ele>1395</ele>
        <time>2024-09-17T12:50:53Z</time>
      </trkpt>
      <trkpt lat="42.4889" lon="2.33083">
        <ele>1395</ele>
        <time>2024-09-17T12:50:57Z</time>
      </trkpt>
      <trkpt lat="42.48893" lon="2.33086">
        <ele>1393</ele>
        <time>2024-09-17T12:51:00Z</time>
      </trkpt>
      <trkpt lat="42.48896" lon="2.33089">
        <ele>1392</ele>
        <time>2024-09-17T12:51:03Z</time>
      </trkpt>
      <trkpt lat="42.48899" lon="2.33091">
        <ele>1392</ele>
        <time>2024-09-17T12:51:06Z</time>
      </trkpt>
      <trkpt lat="42.48901" lon="2.33095">
        <ele>1391</ele>
        <time>2024-09-17T12:51:09Z</time>
      </trkpt>
      <trkpt lat="42.48903" lon="2.33094">
        <ele>1388</ele>
        <time>2024-09-17T12:51:19Z</time>
      </trkpt>
      <trkpt lat="42.48906" lon="2.33094">
        <ele>1387</ele>
        <time>2024-09-17T12:51:23Z</time>
      </trkpt>
      <trkpt lat="42.48909" lon="2.33094">
        <ele>1387</ele>
        <time>2024-09-17T12:51:25Z</time>
      </trkpt>
      <trkpt lat="42.48913" lon="2.33095">
        <ele>1386</ele>
        <time>2024-09-17T12:51:28Z</time>
      </trkpt>
      <trkpt lat="42.48913" lon="2.33098">
        <ele>1384</ele>
        <time>2024-09-17T12:51:32Z</time>
      </trkpt>
      <trkpt lat="42.48911" lon="2.33099">
        <ele>1383</ele>
        <time>2024-09-17T12:51:36Z</time>
      </trkpt>
      <trkpt lat="42.48908" lon="2.331">
        <ele>1383</ele>
        <time>2024-09-17T12:51:41Z</time>
      </trkpt>
      <trkpt lat="42.48906" lon="2.33103">
        <ele>1383</ele>
        <time>2024-09-17T12:51:47Z</time>
      </trkpt>
      <trkpt lat="42.48905" lon="2.33106">
        <ele>1381</ele>
        <time>2024-09-17T12:51:51Z</time>
      </trkpt>
      <trkpt lat="42.48905" lon="2.33109">
        <ele>1379</ele>
        <time>2024-09-17T12:51:57Z</time>
      </trkpt>
      <trkpt lat="42.48907" lon="2.3311">
        <ele>1379</ele>
        <time>2024-09-17T12:51:59Z</time>
      </trkpt>
      <trkpt lat="42.4891" lon="2.33112">
        <ele>1378</ele>
        <time>2024-09-17T12:52:03Z</time>
      </trkpt>
      <trkpt lat="42.48913" lon="2.33115">
        <ele>1378</ele>
        <time>2024-09-17T12:52:07Z</time>
      </trkpt>
      <trkpt lat="42.48915" lon="2.33117">
        <ele>1377</ele>
        <time>2024-09-17T12:52:10Z</time>
      </trkpt>
      <trkpt lat="42.48917" lon="2.3312">
        <ele>1375</ele>
        <time>2024-09-17T12:52:14Z</time>
      </trkpt>
      <trkpt lat="42.4892" lon="2.33123">
        <ele>1375</ele>
        <time>2024-09-17T12:52:17Z</time>
      </trkpt>
      <trkpt lat="42.48923" lon="2.33126">
        <ele>1374</ele>
        <time>2024-09-17T12:52:20Z</time>
      </trkpt>
      <trkpt lat="42.48925" lon="2.33129">
        <ele>1374</ele>
        <time>2024-09-17T12:52:23Z</time>
      </trkpt>
      <trkpt lat="42.48928" lon="2.33132">
        <ele>1374</ele>
        <time>2024-09-17T12:52:26Z</time>
      </trkpt>
      <trkpt lat="42.48931" lon="2.33134">
        <ele>1374</ele>
        <time>2024-09-17T12:52:29Z</time>
      </trkpt>
      <trkpt lat="42.48934" lon="2.33134">
        <ele>1372</ele>
        <time>2024-09-17T12:52:34Z</time>
      </trkpt>
      <trkpt lat="42.48937" lon="2.33133">
        <ele>1371</ele>
        <time>2024-09-17T12:52:36Z</time>
      </trkpt>
      <trkpt lat="42.48941" lon="2.33133">
        <ele>1369</ele>
        <time>2024-09-17T12:52:40Z</time>
      </trkpt>
      <trkpt lat="42.48944" lon="2.33132">
        <ele>1369</ele>
        <time>2024-09-17T12:52:42Z</time>
      </trkpt>
      <trkpt lat="42.48947" lon="2.3313">
        <ele>1367</ele>
        <time>2024-09-17T12:52:45Z</time>
      </trkpt>
      <trkpt lat="42.4895" lon="2.33131">
        <ele>1366</ele>
        <time>2024-09-17T12:52:48Z</time>
      </trkpt>
      <trkpt lat="42.48953" lon="2.33132">
        <ele>1367</ele>
        <time>2024-09-17T12:52:52Z</time>
      </trkpt>
      <trkpt lat="42.48956" lon="2.33135">
        <ele>1368</ele>
        <time>2024-09-17T12:53:05Z</time>
      </trkpt>
      <trkpt lat="42.48958" lon="2.33138">
        <ele>1366</ele>
        <time>2024-09-17T12:53:07Z</time>
      </trkpt>
      <trkpt lat="42.4896" lon="2.33141">
        <ele>1365</ele>
        <time>2024-09-17T12:53:11Z</time>
      </trkpt>
      <trkpt lat="42.48962" lon="2.33145">
        <ele>1366</ele>
        <time>2024-09-17T12:53:14Z</time>
      </trkpt>
      <trkpt lat="42.48964" lon="2.33148">
        <ele>1365</ele>
        <time>2024-09-17T12:53:16Z</time>
      </trkpt>
      <trkpt lat="42.48966" lon="2.33151">
        <ele>1362</ele>
        <time>2024-09-17T12:53:21Z</time>
      </trkpt>
      <trkpt lat="42.48967" lon="2.33156">
        <ele>1362</ele>
        <time>2024-09-17T12:53:24Z</time>
      </trkpt>
      <trkpt lat="42.48968" lon="2.3316">
        <ele>1361</ele>
        <time>2024-09-17T12:53:26Z</time>
      </trkpt>
      <trkpt lat="42.48969" lon="2.33163">
        <ele>1361</ele>
        <time>2024-09-17T12:53:29Z</time>
      </trkpt>
      <trkpt lat="42.4897" lon="2.33167">
        <ele>1361</ele>
        <time>2024-09-17T12:53:31Z</time>
      </trkpt>
      <trkpt lat="42.48972" lon="2.33171">
        <ele>1361</ele>
        <time>2024-09-17T12:53:32Z</time>
      </trkpt>
      <trkpt lat="42.48974" lon="2.33175">
        <ele>1361</ele>
        <time>2024-09-17T12:53:36Z</time>
      </trkpt>
      <trkpt lat="42.48976" lon="2.33177">
        <ele>1361</ele>
        <time>2024-09-17T12:53:39Z</time>
      </trkpt>
      <trkpt lat="42.48978" lon="2.3318">
        <ele>1362</ele>
        <time>2024-09-17T12:53:43Z</time>
      </trkpt>
      <trkpt lat="42.48981" lon="2.33183">
        <ele>1362</ele>
        <time>2024-09-17T12:53:46Z</time>
      </trkpt>
      <trkpt lat="42.48984" lon="2.33185">
        <ele>1361</ele>
        <time>2024-09-17T12:53:49Z</time>
      </trkpt>
      <trkpt lat="42.48987" lon="2.33188">
        <ele>1360</ele>
        <time>2024-09-17T12:53:52Z</time>
      </trkpt>
      <trkpt lat="42.48989" lon="2.33191">
        <ele>1360</ele>
        <time>2024-09-17T12:53:55Z</time>
      </trkpt>
      <trkpt lat="42.48991" lon="2.33194">
        <ele>1359</ele>
        <time>2024-09-17T12:53:59Z</time>
      </trkpt>
      <trkpt lat="42.48994" lon="2.33197">
        <ele>1359</ele>
        <time>2024-09-17T12:54:02Z</time>
      </trkpt>
      <trkpt lat="42.48997" lon="2.33199">
        <ele>1359</ele>
        <time>2024-09-17T12:54:05Z</time>
      </trkpt>
      <trkpt lat="42.48999" lon="2.33201">
        <ele>1358</ele>
        <time>2024-09-17T12:54:08Z</time>
      </trkpt>
      <trkpt lat="42.49001" lon="2.33205">
        <ele>1356</ele>
        <time>2024-09-17T12:54:11Z</time>
      </trkpt>
      <trkpt lat="42.49004" lon="2.33208">
        <ele>1357</ele>
        <time>2024-09-17T12:54:14Z</time>
      </trkpt>
      <trkpt lat="42.49006" lon="2.33211">
        <ele>1357</ele>
        <time>2024-09-17T12:54:17Z</time>
      </trkpt>
      <trkpt lat="42.49008" lon="2.33215">
        <ele>1358</ele>
        <time>2024-09-17T12:54:19Z</time>
      </trkpt>
      <trkpt lat="42.4901" lon="2.33217">
        <ele>1358</ele>
        <time>2024-09-17T12:54:22Z</time>
      </trkpt>
      <trkpt lat="42.49013" lon="2.3322">
        <ele>1358</ele>
        <time>2024-09-17T12:54:24Z</time>
      </trkpt>
      <trkpt lat="42.49015" lon="2.33223">
        <ele>1358</ele>
        <time>2024-09-17T12:54:28Z</time>
      </trkpt>
      <trkpt lat="42.49017" lon="2.33227">
        <ele>1356</ele>
        <time>2024-09-17T12:54:32Z</time>
      </trkpt>
      <trkpt lat="42.49018" lon="2.33231">
        <ele>1355</ele>
        <time>2024-09-17T12:54:37Z</time>
      </trkpt>
      <trkpt lat="42.4902" lon="2.33235">
        <ele>1354</ele>
        <time>2024-09-17T12:54:41Z</time>
      </trkpt>
      <trkpt lat="42.49022" lon="2.33238">
        <ele>1353</ele>
        <time>2024-09-17T12:54:44Z</time>
      </trkpt>
      <trkpt lat="42.49024" lon="2.33242">
        <ele>1351</ele>
        <time>2024-09-17T12:54:46Z</time>
      </trkpt>
      <trkpt lat="42.49027" lon="2.33244">
        <ele>1350</ele>
        <time>2024-09-17T12:54:52Z</time>
      </trkpt>
      <trkpt lat="42.49028" lon="2.33248">
        <ele>1350</ele>
        <time>2024-09-17T12:54:56Z</time>
      </trkpt>
      <trkpt lat="42.4903" lon="2.33251">
        <ele>1351</ele>
        <time>2024-09-17T12:55:00Z</time>
      </trkpt>
      <trkpt lat="42.49032" lon="2.33254">
        <ele>1350</ele>
        <time>2024-09-17T12:55:03Z</time>
      </trkpt>
      <trkpt lat="42.49035" lon="2.33256">
        <ele>1349</ele>
        <time>2024-09-17T12:55:06Z</time>
      </trkpt>
      <trkpt lat="42.49037" lon="2.3326">
        <ele>1349</ele>
        <time>2024-09-17T12:55:10Z</time>
      </trkpt>
      <trkpt lat="42.49039" lon="2.33263">
        <ele>1348</ele>
        <time>2024-09-17T12:55:14Z</time>
      </trkpt>
      <trkpt lat="42.49042" lon="2.33265">
        <ele>1347</ele>
        <time>2024-09-17T12:55:17Z</time>
      </trkpt>
      <trkpt lat="42.49045" lon="2.33268">
        <ele>1347</ele>
        <time>2024-09-17T12:55:20Z</time>
      </trkpt>
      <trkpt lat="42.49047" lon="2.33271">
        <ele>1347</ele>
        <time>2024-09-17T12:55:24Z</time>
      </trkpt>
      <trkpt lat="42.4905" lon="2.33273">
        <ele>1345</ele>
        <time>2024-09-17T12:55:27Z</time>
      </trkpt>
      <trkpt lat="42.49052" lon="2.33276">
        <ele>1344</ele>
        <time>2024-09-17T12:55:30Z</time>
      </trkpt>
      <trkpt lat="42.49054" lon="2.3328">
        <ele>1344</ele>
        <time>2024-09-17T12:55:33Z</time>
      </trkpt>
      <trkpt lat="42.49056" lon="2.33284">
        <ele>1342</ele>
        <time>2024-09-17T12:55:37Z</time>
      </trkpt>
      <trkpt lat="42.49059" lon="2.33286">
        <ele>1341</ele>
        <time>2024-09-17T12:55:40Z</time>
      </trkpt>
      <trkpt lat="42.49062" lon="2.3329">
        <ele>1341</ele>
        <time>2024-09-17T12:55:43Z</time>
      </trkpt>
      <trkpt lat="42.49064" lon="2.33292">
        <ele>1341</ele>
        <time>2024-09-17T12:55:45Z</time>
      </trkpt>
      <trkpt lat="42.49067" lon="2.33295">
        <ele>1340</ele>
        <time>2024-09-17T12:55:49Z</time>
      </trkpt>
      <trkpt lat="42.49069" lon="2.33298">
        <ele>1340</ele>
        <time>2024-09-17T12:55:52Z</time>
      </trkpt>
      <trkpt lat="42.49072" lon="2.33301">
        <ele>1340</ele>
        <time>2024-09-17T12:55:56Z</time>
      </trkpt>
      <trkpt lat="42.49075" lon="2.33303">
        <ele>1340</ele>
        <time>2024-09-17T12:55:59Z</time>
      </trkpt>
      <trkpt lat="42.49077" lon="2.33306">
        <ele>1340</ele>
        <time>2024-09-17T12:56:02Z</time>
      </trkpt>
      <trkpt lat="42.4908" lon="2.33309">
        <ele>1340</ele>
        <time>2024-09-17T12:56:06Z</time>
      </trkpt>
      <trkpt lat="42.49084" lon="2.33311">
        <ele>1340</ele>
        <time>2024-09-17T12:56:09Z</time>
      </trkpt>
      <trkpt lat="42.49087" lon="2.33312">
        <ele>1340</ele>
        <time>2024-09-17T12:56:13Z</time>
      </trkpt>
      <trkpt lat="42.4909" lon="2.33313">
        <ele>1339</ele>
        <time>2024-09-17T12:56:16Z</time>
      </trkpt>
      <trkpt lat="42.49093" lon="2.33314">
        <ele>1339</ele>
        <time>2024-09-17T12:56:18Z</time>
      </trkpt>
      <trkpt lat="42.49096" lon="2.33316">
        <ele>1338</ele>
        <time>2024-09-17T12:56:21Z</time>
      </trkpt>
      <trkpt lat="42.491" lon="2.33317">
        <ele>1338</ele>
        <time>2024-09-17T12:56:24Z</time>
      </trkpt>
      <trkpt lat="42.49104" lon="2.33319">
        <ele>1337</ele>
        <time>2024-09-17T12:56:28Z</time>
      </trkpt>
      <trkpt lat="42.49106" lon="2.33322">
        <ele>1337</ele>
        <time>2024-09-17T12:56:32Z</time>
      </trkpt>
      <trkpt lat="42.49109" lon="2.33324">
        <ele>1337</ele>
        <time>2024-09-17T12:56:35Z</time>
      </trkpt>
      <trkpt lat="42.49112" lon="2.33326">
        <ele>1335</ele>
        <time>2024-09-17T12:57:05Z</time>
      </trkpt>
      <trkpt lat="42.49114" lon="2.33328">
        <ele>1335</ele>
        <time>2024-09-17T12:57:10Z</time>
      </trkpt>
      <trkpt lat="42.49117" lon="2.3333">
        <ele>1335</ele>
        <time>2024-09-17T12:57:15Z</time>
      </trkpt>
      <trkpt lat="42.49119" lon="2.33333">
        <ele>1335</ele>
        <time>2024-09-17T12:57:18Z</time>
      </trkpt>
      <trkpt lat="42.49121" lon="2.33336">
        <ele>1335</ele>
        <time>2024-09-17T12:57:22Z</time>
      </trkpt>
      <trkpt lat="42.49124" lon="2.33337">
        <ele>1335</ele>
        <time>2024-09-17T12:57:26Z</time>
      </trkpt>
      <trkpt lat="42.49128" lon="2.33337">
        <ele>1334</ele>
        <time>2024-09-17T12:57:29Z</time>
      </trkpt>
      <trkpt lat="42.49131" lon="2.33336">
        <ele>1333</ele>
        <time>2024-09-17T12:57:31Z</time>
      </trkpt>
      <trkpt lat="42.49135" lon="2.33338">
        <ele>1334</ele>
        <time>2024-09-17T12:57:35Z</time>
      </trkpt>
      <trkpt lat="42.49138" lon="2.3334">
        <ele>1336</ele>
        <time>2024-09-17T12:57:39Z</time>
      </trkpt>
      <trkpt lat="42.49138" lon="2.33344">
        <ele>1337</ele>
        <time>2024-09-17T12:57:43Z</time>
      </trkpt>
      <trkpt lat="42.49137" lon="2.33348">
        <ele>1336</ele>
        <time>2024-09-17T12:57:46Z</time>
      </trkpt>
      <trkpt lat="42.49136" lon="2.33352">
        <ele>1336</ele>
        <time>2024-09-17T12:57:48Z</time>
      </trkpt>
      <trkpt lat="42.49135" lon="2.33356">
        <ele>1336</ele>
        <time>2024-09-17T12:57:51Z</time>
      </trkpt>
      <trkpt lat="42.49133" lon="2.3336">
        <ele>1336</ele>
        <time>2024-09-17T12:57:54Z</time>
      </trkpt>
      <trkpt lat="42.49132" lon="2.33363">
        <ele>1335</ele>
        <time>2024-09-17T12:57:56Z</time>
      </trkpt>
      <trkpt lat="42.4913" lon="2.33367">
        <ele>1335</ele>
        <time>2024-09-17T12:57:59Z</time>
      </trkpt>
      <trkpt lat="42.49129" lon="2.33371">
        <ele>1336</ele>
        <time>2024-09-17T12:58:02Z</time>
      </trkpt>
      <trkpt lat="42.4913" lon="2.33376">
        <ele>1335</ele>
        <time>2024-09-17T12:58:05Z</time>
      </trkpt>
      <trkpt lat="42.49131" lon="2.3338">
        <ele>1336</ele>
        <time>2024-09-17T12:58:09Z</time>
      </trkpt>
      <trkpt lat="42.49131" lon="2.33384">
        <ele>1335</ele>
        <time>2024-09-17T12:58:11Z</time>
      </trkpt>
      <trkpt lat="42.49131" lon="2.33388">
        <ele>1335</ele>
        <time>2024-09-17T12:58:14Z</time>
      </trkpt>
      <trkpt lat="42.49133" lon="2.33393">
        <ele>1334</ele>
        <time>2024-09-17T12:58:17Z</time>
      </trkpt>
      <trkpt lat="42.49134" lon="2.33397">
        <ele>1334</ele>
        <time>2024-09-17T12:58:20Z</time>
      </trkpt>
      <trkpt lat="42.49135" lon="2.33401">
        <ele>1333</ele>
        <time>2024-09-17T12:58:23Z</time>
      </trkpt>
      <trkpt lat="42.49135" lon="2.33405">
        <ele>1333</ele>
        <time>2024-09-17T12:58:26Z</time>
      </trkpt>
      <trkpt lat="42.49136" lon="2.3341">
        <ele>1331</ele>
        <time>2024-09-17T12:58:30Z</time>
      </trkpt>
      <trkpt lat="42.49137" lon="2.33413">
        <ele>1331</ele>
        <time>2024-09-17T12:58:32Z</time>
      </trkpt>
      <trkpt lat="42.49138" lon="2.33417">
        <ele>1330</ele>
        <time>2024-09-17T12:58:35Z</time>
      </trkpt>
      <trkpt lat="42.49137" lon="2.33421">
        <ele>1330</ele>
        <time>2024-09-17T12:58:38Z</time>
      </trkpt>
      <trkpt lat="42.49137" lon="2.33425">
        <ele>1329</ele>
        <time>2024-09-17T12:58:41Z</time>
      </trkpt>
      <trkpt lat="42.49138" lon="2.33429">
        <ele>1328</ele>
        <time>2024-09-17T12:58:45Z</time>
      </trkpt>
      <trkpt lat="42.49139" lon="2.33434">
        <ele>1327</ele>
        <time>2024-09-17T12:58:48Z</time>
      </trkpt>
      <trkpt lat="42.49139" lon="2.33438">
        <ele>1327</ele>
        <time>2024-09-17T12:58:51Z</time>
      </trkpt>
      <trkpt lat="42.49138" lon="2.33443">
        <ele>1327</ele>
        <time>2024-09-17T12:58:54Z</time>
      </trkpt>
      <trkpt lat="42.49138" lon="2.33447">
        <ele>1326</ele>
        <time>2024-09-17T12:58:58Z</time>
      </trkpt>
      <trkpt lat="42.49137" lon="2.33452">
        <ele>1325</ele>
        <time>2024-09-17T12:59:01Z</time>
      </trkpt>
      <trkpt lat="42.49137" lon="2.33456">
        <ele>1325</ele>
        <time>2024-09-17T12:59:04Z</time>
      </trkpt>
      <trkpt lat="42.49137" lon="2.3346">
        <ele>1325</ele>
        <time>2024-09-17T12:59:07Z</time>
      </trkpt>
      <trkpt lat="42.49136" lon="2.33464">
        <ele>1325</ele>
        <time>2024-09-17T12:59:09Z</time>
      </trkpt>
      <trkpt lat="42.49136" lon="2.33468">
        <ele>1324</ele>
        <time>2024-09-17T12:59:12Z</time>
      </trkpt>
      <trkpt lat="42.49136" lon="2.33472">
        <ele>1323</ele>
        <time>2024-09-17T12:59:15Z</time>
      </trkpt>
      <trkpt lat="42.49136" lon="2.33476">
        <ele>1324</ele>
        <time>2024-09-17T12:59:18Z</time>
      </trkpt>
      <trkpt lat="42.49136" lon="2.3348">
        <ele>1323</ele>
        <time>2024-09-17T12:59:22Z</time>
      </trkpt>
      <trkpt lat="42.49136" lon="2.33484">
        <ele>1323</ele>
        <time>2024-09-17T12:59:25Z</time>
      </trkpt>
      <trkpt lat="42.49137" lon="2.33489">
        <ele>1322</ele>
        <time>2024-09-17T12:59:28Z</time>
      </trkpt>
      <trkpt lat="42.49137" lon="2.33493">
        <ele>1321</ele>
        <time>2024-09-17T12:59:32Z</time>
      </trkpt>
      <trkpt lat="42.49138" lon="2.33497">
        <ele>1321</ele>
        <time>2024-09-17T12:59:35Z</time>
      </trkpt>
      <trkpt lat="42.49138" lon="2.33502">
        <ele>1321</ele>
        <time>2024-09-17T12:59:38Z</time>
      </trkpt>
      <trkpt lat="42.49139" lon="2.33506">
        <ele>1320</ele>
        <time>2024-09-17T12:59:41Z</time>
      </trkpt>
      <trkpt lat="42.49139" lon="2.33511">
        <ele>1319</ele>
        <time>2024-09-17T12:59:44Z</time>
      </trkpt>
      <trkpt lat="42.49139" lon="2.33514">
        <ele>1321</ele>
        <time>2024-09-17T12:59:45Z</time>
      </trkpt>
      <trkpt lat="42.49141" lon="2.33519">
        <ele>1319</ele>
        <time>2024-09-17T12:59:50Z</time>
      </trkpt>
      <trkpt lat="42.49142" lon="2.33523">
        <ele>1319</ele>
        <time>2024-09-17T12:59:53Z</time>
      </trkpt>
      <trkpt lat="42.49143" lon="2.33528">
        <ele>1318</ele>
        <time>2024-09-17T12:59:55Z</time>
      </trkpt>
      <trkpt lat="42.49145" lon="2.33532">
        <ele>1317</ele>
        <time>2024-09-17T12:59:59Z</time>
      </trkpt>
      <trkpt lat="42.49147" lon="2.33536">
        <ele>1316</ele>
        <time>2024-09-17T13:00:02Z</time>
      </trkpt>
      <trkpt lat="42.49149" lon="2.3354">
        <ele>1315</ele>
        <time>2024-09-17T13:00:06Z</time>
      </trkpt>
      <trkpt lat="42.4915" lon="2.33545">
        <ele>1315</ele>
        <time>2024-09-17T13:00:09Z</time>
      </trkpt>
      <trkpt lat="42.49151" lon="2.33549">
        <ele>1313</ele>
        <time>2024-09-17T13:00:12Z</time>
      </trkpt>
      <trkpt lat="42.49151" lon="2.33554">
        <ele>1314</ele>
        <time>2024-09-17T13:00:15Z</time>
      </trkpt>
      <trkpt lat="42.49151" lon="2.33559">
        <ele>1312</ele>
        <time>2024-09-17T13:00:20Z</time>
      </trkpt>
      <trkpt lat="42.4915" lon="2.33563">
        <ele>1312</ele>
        <time>2024-09-17T13:00:23Z</time>
      </trkpt>
      <trkpt lat="42.4915" lon="2.33568">
        <ele>1312</ele>
        <time>2024-09-17T13:00:25Z</time>
      </trkpt>
      <trkpt lat="42.49149" lon="2.33572">
        <ele>1311</ele>
        <time>2024-09-17T13:00:29Z</time>
      </trkpt>
      <trkpt lat="42.49148" lon="2.33576">
        <ele>1311</ele>
        <time>2024-09-17T13:00:32Z</time>
      </trkpt>
      <trkpt lat="42.49147" lon="2.33581">
        <ele>1311</ele>
        <time>2024-09-17T13:00:35Z</time>
      </trkpt>
      <trkpt lat="42.49147" lon="2.33585">
        <ele>1311</ele>
        <time>2024-09-17T13:00:38Z</time>
      </trkpt>
      <trkpt lat="42.49147" lon="2.33589">
        <ele>1312</ele>
        <time>2024-09-17T13:00:41Z</time>
      </trkpt>
      <trkpt lat="42.49148" lon="2.33593">
        <ele>1312</ele>
        <time>2024-09-17T13:00:44Z</time>
      </trkpt>
      <trkpt lat="42.49148" lon="2.33598">
        <ele>1311</ele>
        <time>2024-09-17T13:00:48Z</time>
      </trkpt>
      <trkpt lat="42.49149" lon="2.33602">
        <ele>1312</ele>
        <time>2024-09-17T13:00:50Z</time>
      </trkpt>
      <trkpt lat="42.49151" lon="2.33605">
        <ele>1312</ele>
        <time>2024-09-17T13:00:55Z</time>
      </trkpt>
      <trkpt lat="42.49152" lon="2.3361">
        <ele>1312</ele>
        <time>2024-09-17T13:00:58Z</time>
      </trkpt>
      <trkpt lat="42.49154" lon="2.33613">
        <ele>1311</ele>
        <time>2024-09-17T13:01:01Z</time>
      </trkpt>
      <trkpt lat="42.49155" lon="2.33617">
        <ele>1309</ele>
        <time>2024-09-17T13:01:04Z</time>
      </trkpt>
      <trkpt lat="42.49157" lon="2.33621">
        <ele>1310</ele>
        <time>2024-09-17T13:01:07Z</time>
      </trkpt>
      <trkpt lat="42.49159" lon="2.33625">
        <ele>1310</ele>
        <time>2024-09-17T13:01:10Z</time>
      </trkpt>
      <trkpt lat="42.49159" lon="2.33629">
        <ele>1309</ele>
        <time>2024-09-17T13:01:13Z</time>
      </trkpt>
      <trkpt lat="42.4916" lon="2.33634">
        <ele>1308</ele>
        <time>2024-09-17T13:01:16Z</time>
      </trkpt>
      <trkpt lat="42.49161" lon="2.33639">
        <ele>1308</ele>
        <time>2024-09-17T13:01:19Z</time>
      </trkpt>
      <trkpt lat="42.49161" lon="2.33643">
        <ele>1307</ele>
        <time>2024-09-17T13:01:22Z</time>
      </trkpt>
      <trkpt lat="42.4916" lon="2.33649">
        <ele>1306</ele>
        <time>2024-09-17T13:01:25Z</time>
      </trkpt>
      <trkpt lat="42.4916" lon="2.33653">
        <ele>1305</ele>
        <time>2024-09-17T13:01:28Z</time>
      </trkpt>
      <trkpt lat="42.4916" lon="2.33658">
        <ele>1305</ele>
        <time>2024-09-17T13:01:31Z</time>
      </trkpt>
      <trkpt lat="42.4916" lon="2.33662">
        <ele>1305</ele>
        <time>2024-09-17T13:01:33Z</time>
      </trkpt>
      <trkpt lat="42.4916" lon="2.33666">
        <ele>1304</ele>
        <time>2024-09-17T13:01:37Z</time>
      </trkpt>
      <trkpt lat="42.4916" lon="2.33671">
        <ele>1304</ele>
        <time>2024-09-17T13:01:39Z</time>
      </trkpt>
      <trkpt lat="42.49159" lon="2.33675">
        <ele>1304</ele>
        <time>2024-09-17T13:01:43Z</time>
      </trkpt>
      <trkpt lat="42.4916" lon="2.33679">
        <ele>1302</ele>
        <time>2024-09-17T13:02:03Z</time>
      </trkpt>
      <trkpt lat="42.49161" lon="2.33683">
        <ele>1300</ele>
        <time>2024-09-17T13:02:59Z</time>
      </trkpt>
      <trkpt lat="42.49163" lon="2.33687">
        <ele>1299</ele>
        <time>2024-09-17T13:03:02Z</time>
      </trkpt>
      <trkpt lat="42.49163" lon="2.33691">
        <ele>1300</ele>
        <time>2024-09-17T13:03:04Z</time>
      </trkpt>
      <trkpt lat="42.49164" lon="2.33696">
        <ele>1299</ele>
        <time>2024-09-17T13:03:08Z</time>
      </trkpt>
      <trkpt lat="42.49164" lon="2.33701">
        <ele>1298</ele>
        <time>2024-09-17T13:03:11Z</time>
      </trkpt>
      <trkpt lat="42.49164" lon="2.33705">
        <ele>1298</ele>
        <time>2024-09-17T13:03:22Z</time>
      </trkpt>
      <trkpt lat="42.49164" lon="2.33709">
        <ele>1296</ele>
        <time>2024-09-17T13:03:26Z</time>
      </trkpt>
      <trkpt lat="42.49164" lon="2.33713">
        <ele>1295</ele>
        <time>2024-09-17T13:03:29Z</time>
      </trkpt>
      <trkpt lat="42.49164" lon="2.33717">
        <ele>1295</ele>
        <time>2024-09-17T13:03:34Z</time>
      </trkpt>
      <trkpt lat="42.49164" lon="2.33721">
        <ele>1295</ele>
        <time>2024-09-17T13:03:37Z</time>
      </trkpt>
      <trkpt lat="42.49163" lon="2.33726">
        <ele>1293</ele>
        <time>2024-09-17T13:03:41Z</time>
      </trkpt>
      <trkpt lat="42.49164" lon="2.33731">
        <ele>1293</ele>
        <time>2024-09-17T13:03:45Z</time>
      </trkpt>
      <trkpt lat="42.49165" lon="2.33736">
        <ele>1293</ele>
        <time>2024-09-17T13:03:48Z</time>
      </trkpt>
      <trkpt lat="42.49165" lon="2.3374">
        <ele>1293</ele>
        <time>2024-09-17T13:03:51Z</time>
      </trkpt>
      <trkpt lat="42.49165" lon="2.33745">
        <ele>1293</ele>
        <time>2024-09-17T13:03:54Z</time>
      </trkpt>
      <trkpt lat="42.49165" lon="2.3375">
        <ele>1291</ele>
        <time>2024-09-17T13:04:02Z</time>
      </trkpt>
      <trkpt lat="42.49165" lon="2.33756">
        <ele>1291</ele>
        <time>2024-09-17T13:04:05Z</time>
      </trkpt>
      <trkpt lat="42.49165" lon="2.3376">
        <ele>1291</ele>
        <time>2024-09-17T13:04:08Z</time>
      </trkpt>
      <trkpt lat="42.49166" lon="2.33765">
        <ele>1290</ele>
        <time>2024-09-17T13:04:11Z</time>
      </trkpt>
      <trkpt lat="42.49166" lon="2.33769">
        <ele>1289</ele>
        <time>2024-09-17T13:04:14Z</time>
      </trkpt>
      <trkpt lat="42.49168" lon="2.33772">
        <ele>1288</ele>
        <time>2024-09-17T13:04:16Z</time>
      </trkpt>
      <trkpt lat="42.49169" lon="2.33776">
        <ele>1287</ele>
        <time>2024-09-17T13:04:19Z</time>
      </trkpt>
      <trkpt lat="42.49171" lon="2.33779">
        <ele>1286</ele>
        <time>2024-09-17T13:04:21Z</time>
      </trkpt>
      <trkpt lat="42.49171" lon="2.33783">
        <ele>1285</ele>
        <time>2024-09-17T13:04:24Z</time>
      </trkpt>
      <trkpt lat="42.49172" lon="2.33787">
        <ele>1284</ele>
        <time>2024-09-17T13:04:27Z</time>
      </trkpt>
      <trkpt lat="42.49171" lon="2.33791">
        <ele>1285</ele>
        <time>2024-09-17T13:04:30Z</time>
      </trkpt>
      <trkpt lat="42.4917" lon="2.33796">
        <ele>1285</ele>
        <time>2024-09-17T13:04:33Z</time>
      </trkpt>
      <trkpt lat="42.49171" lon="2.338">
        <ele>1284</ele>
        <time>2024-09-17T13:04:36Z</time>
      </trkpt>
      <trkpt lat="42.4917" lon="2.33804">
        <ele>1284</ele>
        <time>2024-09-17T13:04:39Z</time>
      </trkpt>
      <trkpt lat="42.4917" lon="2.33809">
        <ele>1283</ele>
        <time>2024-09-17T13:04:42Z</time>
      </trkpt>
      <trkpt lat="42.49171" lon="2.33813">
        <ele>1282</ele>
        <time>2024-09-17T13:04:45Z</time>
      </trkpt>
      <trkpt lat="42.49171" lon="2.33816">
        <ele>1281</ele>
        <time>2024-09-17T13:04:48Z</time>
      </trkpt>
      <trkpt lat="42.49171" lon="2.3382">
        <ele>1281</ele>
        <time>2024-09-17T13:04:51Z</time>
      </trkpt>
      <trkpt lat="42.49171" lon="2.33824">
        <ele>1281</ele>
        <time>2024-09-17T13:04:54Z</time>
      </trkpt>
      <trkpt lat="42.49171" lon="2.33829">
        <ele>1280</ele>
        <time>2024-09-17T13:04:57Z</time>
      </trkpt>
      <trkpt lat="42.49171" lon="2.33833">
        <ele>1280</ele>
        <time>2024-09-17T13:05:00Z</time>
      </trkpt>
      <trkpt lat="42.49171" lon="2.33837">
        <ele>1279</ele>
        <time>2024-09-17T13:05:07Z</time>
      </trkpt>
      <trkpt lat="42.49171" lon="2.33842">
        <ele>1280</ele>
        <time>2024-09-17T13:05:10Z</time>
      </trkpt>
      <trkpt lat="42.49171" lon="2.33846">
        <ele>1280</ele>
        <time>2024-09-17T13:05:12Z</time>
      </trkpt>
      <trkpt lat="42.49171" lon="2.33851">
        <ele>1279</ele>
        <time>2024-09-17T13:05:16Z</time>
      </trkpt>
      <trkpt lat="42.4917" lon="2.33854">
        <ele>1278</ele>
        <time>2024-09-17T13:05:19Z</time>
      </trkpt>
      <trkpt lat="42.4917" lon="2.33859">
        <ele>1277</ele>
        <time>2024-09-17T13:05:22Z</time>
      </trkpt>
      <trkpt lat="42.49169" lon="2.33864">
        <ele>1277</ele>
        <time>2024-09-17T13:05:25Z</time>
      </trkpt>
      <trkpt lat="42.49169" lon="2.33868">
        <ele>1276</ele>
        <time>2024-09-17T13:05:28Z</time>
      </trkpt>
      <trkpt lat="42.49169" lon="2.33873">
        <ele>1275</ele>
        <time>2024-09-17T13:05:31Z</time>
      </trkpt>
      <trkpt lat="42.49169" lon="2.33877">
        <ele>1275</ele>
        <time>2024-09-17T13:05:34Z</time>
      </trkpt>
      <trkpt lat="42.4917" lon="2.33881">
        <ele>1274</ele>
        <time>2024-09-17T13:05:37Z</time>
      </trkpt>
      <trkpt lat="42.49171" lon="2.33886">
        <ele>1273</ele>
        <time>2024-09-17T13:05:42Z</time>
      </trkpt>
      <trkpt lat="42.49171" lon="2.33891">
        <ele>1272</ele>
        <time>2024-09-17T13:05:46Z</time>
      </trkpt>
      <trkpt lat="42.49171" lon="2.33895">
        <ele>1272</ele>
        <time>2024-09-17T13:05:49Z</time>
      </trkpt>
      <trkpt lat="42.49171" lon="2.339">
        <ele>1271</ele>
        <time>2024-09-17T13:05:52Z</time>
      </trkpt>
      <trkpt lat="42.49171" lon="2.33904">
        <ele>1270</ele>
        <time>2024-09-17T13:05:55Z</time>
      </trkpt>
      <trkpt lat="42.49171" lon="2.33908">
        <ele>1270</ele>
        <time>2024-09-17T13:05:58Z</time>
      </trkpt>
      <trkpt lat="42.49171" lon="2.33912">
        <ele>1270</ele>
        <time>2024-09-17T13:06:01Z</time>
      </trkpt>
      <trkpt lat="42.49171" lon="2.33916">
        <ele>1269</ele>
        <time>2024-09-17T13:06:04Z</time>
      </trkpt>
      <trkpt lat="42.49171" lon="2.3392">
        <ele>1268</ele>
        <time>2024-09-17T13:06:07Z</time>
      </trkpt>
      <trkpt lat="42.4917" lon="2.33925">
        <ele>1268</ele>
        <time>2024-09-17T13:06:10Z</time>
      </trkpt>
      <trkpt lat="42.49169" lon="2.33929">
        <ele>1267</ele>
        <time>2024-09-17T13:06:13Z</time>
      </trkpt>
      <trkpt lat="42.49167" lon="2.33932">
        <ele>1268</ele>
        <time>2024-09-17T13:06:15Z</time>
      </trkpt>
      <trkpt lat="42.49165" lon="2.33936">
        <ele>1268</ele>
        <time>2024-09-17T13:06:18Z</time>
      </trkpt>
      <trkpt lat="42.49164" lon="2.33939">
        <ele>1267</ele>
        <time>2024-09-17T13:06:20Z</time>
      </trkpt>
      <trkpt lat="42.49162" lon="2.33942">
        <ele>1267</ele>
        <time>2024-09-17T13:06:24Z</time>
      </trkpt>
      <trkpt lat="42.49159" lon="2.33945">
        <ele>1268</ele>
        <time>2024-09-17T13:06:27Z</time>
      </trkpt>
      <trkpt lat="42.49157" lon="2.33948">
        <ele>1267</ele>
        <time>2024-09-17T13:06:30Z</time>
      </trkpt>
      <trkpt lat="42.49154" lon="2.3395">
        <ele>1267</ele>
        <time>2024-09-17T13:06:32Z</time>
      </trkpt>
      <trkpt lat="42.49152" lon="2.33953">
        <ele>1268</ele>
        <time>2024-09-17T13:06:35Z</time>
      </trkpt>
      <trkpt lat="42.4915" lon="2.33956">
        <ele>1267</ele>
        <time>2024-09-17T13:06:38Z</time>
      </trkpt>
      <trkpt lat="42.49148" lon="2.33959">
        <ele>1267</ele>
        <time>2024-09-17T13:06:41Z</time>
      </trkpt>
      <trkpt lat="42.49146" lon="2.33963">
        <ele>1267</ele>
        <time>2024-09-17T13:06:44Z</time>
      </trkpt>
      <trkpt lat="42.49146" lon="2.33966">
        <ele>1266</ele>
        <time>2024-09-17T13:06:47Z</time>
      </trkpt>
      <trkpt lat="42.49147" lon="2.3397">
        <ele>1264</ele>
        <time>2024-09-17T13:06:54Z</time>
      </trkpt>
      <trkpt lat="42.49149" lon="2.33974">
        <ele>1264</ele>
        <time>2024-09-17T13:06:57Z</time>
      </trkpt>
      <trkpt lat="42.4915" lon="2.33978">
        <ele>1264</ele>
        <time>2024-09-17T13:07:00Z</time>
      </trkpt>
      <trkpt lat="42.49151" lon="2.33982">
        <ele>1262</ele>
        <time>2024-09-17T13:07:03Z</time>
      </trkpt>
      <trkpt lat="42.49151" lon="2.33986">
        <ele>1262</ele>
        <time>2024-09-17T13:07:06Z</time>
      </trkpt>
      <trkpt lat="42.49153" lon="2.3399">
        <ele>1261</ele>
        <time>2024-09-17T13:07:10Z</time>
      </trkpt>
      <trkpt lat="42.49154" lon="2.33994">
        <ele>1261</ele>
        <time>2024-09-17T13:07:13Z</time>
      </trkpt>
      <trkpt lat="42.49154" lon="2.33999">
        <ele>1261</ele>
        <time>2024-09-17T13:07:16Z</time>
      </trkpt>
      <trkpt lat="42.49154" lon="2.34003">
        <ele>1261</ele>
        <time>2024-09-17T13:07:19Z</time>
      </trkpt>
      <trkpt lat="42.49155" lon="2.34007">
        <ele>1260</ele>
        <time>2024-09-17T13:07:23Z</time>
      </trkpt>
      <trkpt lat="42.49155" lon="2.34012">
        <ele>1259</ele>
        <time>2024-09-17T13:07:26Z</time>
      </trkpt>
      <trkpt lat="42.49155" lon="2.34017">
        <ele>1259</ele>
        <time>2024-09-17T13:07:31Z</time>
      </trkpt>
      <trkpt lat="42.49156" lon="2.34021">
        <ele>1258</ele>
        <time>2024-09-17T13:07:34Z</time>
      </trkpt>
      <trkpt lat="42.49157" lon="2.34025">
        <ele>1258</ele>
        <time>2024-09-17T13:07:37Z</time>
      </trkpt>
      <trkpt lat="42.49159" lon="2.34029">
        <ele>1258</ele>
        <time>2024-09-17T13:07:40Z</time>
      </trkpt>
      <trkpt lat="42.49161" lon="2.34033">
        <ele>1257</ele>
        <time>2024-09-17T13:07:43Z</time>
      </trkpt>
      <trkpt lat="42.49161" lon="2.34037">
        <ele>1257</ele>
        <time>2024-09-17T13:07:46Z</time>
      </trkpt>
      <trkpt lat="42.49163" lon="2.34041">
        <ele>1256</ele>
        <time>2024-09-17T13:07:51Z</time>
      </trkpt>
      <trkpt lat="42.49164" lon="2.34045">
        <ele>1255</ele>
        <time>2024-09-17T13:07:54Z</time>
      </trkpt>
      <trkpt lat="42.49167" lon="2.34049">
        <ele>1254</ele>
        <time>2024-09-17T13:07:57Z</time>
      </trkpt>
      <trkpt lat="42.49168" lon="2.34053">
        <ele>1254</ele>
        <time>2024-09-17T13:08:00Z</time>
      </trkpt>
      <trkpt lat="42.4917" lon="2.34057">
        <ele>1253</ele>
        <time>2024-09-17T13:08:03Z</time>
      </trkpt>
      <trkpt lat="42.49171" lon="2.34061">
        <ele>1253</ele>
        <time>2024-09-17T13:08:06Z</time>
      </trkpt>
      <trkpt lat="42.49172" lon="2.34065">
        <ele>1252</ele>
        <time>2024-09-17T13:08:10Z</time>
      </trkpt>
      <trkpt lat="42.49173" lon="2.34069">
        <ele>1250</ele>
        <time>2024-09-17T13:08:14Z</time>
      </trkpt>
      <trkpt lat="42.49174" lon="2.34073">
        <ele>1249</ele>
        <time>2024-09-17T13:08:18Z</time>
      </trkpt>
      <trkpt lat="42.49173" lon="2.34077">
        <ele>1248</ele>
        <time>2024-09-17T13:08:20Z</time>
      </trkpt>
      <trkpt lat="42.49174" lon="2.34081">
        <ele>1248</ele>
        <time>2024-09-17T13:08:24Z</time>
      </trkpt>
      <trkpt lat="42.49175" lon="2.34085">
        <ele>1247</ele>
        <time>2024-09-17T13:08:27Z</time>
      </trkpt>
      <trkpt lat="42.49176" lon="2.34089">
        <ele>1246</ele>
        <time>2024-09-17T13:08:30Z</time>
      </trkpt>
      <trkpt lat="42.49176" lon="2.34093">
        <ele>1244</ele>
        <time>2024-09-17T13:08:34Z</time>
      </trkpt>
      <trkpt lat="42.49175" lon="2.34097">
        <ele>1244</ele>
        <time>2024-09-17T13:08:38Z</time>
      </trkpt>
      <trkpt lat="42.49174" lon="2.34101">
        <ele>1243</ele>
        <time>2024-09-17T13:08:41Z</time>
      </trkpt>
      <trkpt lat="42.49174" lon="2.34105">
        <ele>1243</ele>
        <time>2024-09-17T13:08:44Z</time>
      </trkpt>
      <trkpt lat="42.49176" lon="2.34109">
        <ele>1243</ele>
        <time>2024-09-17T13:08:48Z</time>
      </trkpt>
      <trkpt lat="42.49178" lon="2.34112">
        <ele>1242</ele>
        <time>2024-09-17T13:08:51Z</time>
      </trkpt>
      <trkpt lat="42.49179" lon="2.34116">
        <ele>1242</ele>
        <time>2024-09-17T13:08:55Z</time>
      </trkpt>
      <trkpt lat="42.49178" lon="2.34119">
        <ele>1241</ele>
        <time>2024-09-17T13:08:59Z</time>
      </trkpt>
      <trkpt lat="42.49177" lon="2.34123">
        <ele>1240</ele>
        <time>2024-09-17T13:09:02Z</time>
      </trkpt>
      <trkpt lat="42.49177" lon="2.34127">
        <ele>1240</ele>
        <time>2024-09-17T13:09:05Z</time>
      </trkpt>
      <trkpt lat="42.49176" lon="2.34131">
        <ele>1239</ele>
        <time>2024-09-17T13:09:09Z</time>
      </trkpt>
      <trkpt lat="42.49176" lon="2.34135">
        <ele>1239</ele>
        <time>2024-09-17T13:09:12Z</time>
      </trkpt>
      <trkpt lat="42.49175" lon="2.3414">
        <ele>1238</ele>
        <time>2024-09-17T13:09:16Z</time>
      </trkpt>
      <trkpt lat="42.49174" lon="2.34143">
        <ele>1238</ele>
        <time>2024-09-17T13:09:19Z</time>
      </trkpt>
      <trkpt lat="42.49172" lon="2.34147">
        <ele>1240</ele>
        <time>2024-09-17T13:09:36Z</time>
      </trkpt>
      <trkpt lat="42.49172" lon="2.3415">
        <ele>1240</ele>
        <time>2024-09-17T13:09:40Z</time>
      </trkpt>
      <trkpt lat="42.49171" lon="2.34154">
        <ele>1239</ele>
        <time>2024-09-17T13:09:45Z</time>
      </trkpt>
      <trkpt lat="42.49171" lon="2.34158">
        <ele>1237</ele>
        <time>2024-09-17T13:09:51Z</time>
      </trkpt>
      <trkpt lat="42.49171" lon="2.34162">
        <ele>1237</ele>
        <time>2024-09-17T13:09:56Z</time>
      </trkpt>
      <trkpt lat="42.4917" lon="2.34166">
        <ele>1236</ele>
        <time>2024-09-17T13:10:01Z</time>
      </trkpt>
      <trkpt lat="42.4917" lon="2.34169">
        <ele>1235</ele>
        <time>2024-09-17T13:10:05Z</time>
      </trkpt>
      <trkpt lat="42.49171" lon="2.34173">
        <ele>1234</ele>
        <time>2024-09-17T13:10:09Z</time>
      </trkpt>
      <trkpt lat="42.49171" lon="2.34178">
        <ele>1234</ele>
        <time>2024-09-17T13:10:14Z</time>
      </trkpt>
      <trkpt lat="42.49172" lon="2.34183">
        <ele>1231</ele>
        <time>2024-09-17T13:10:40Z</time>
      </trkpt>
      <trkpt lat="42.49173" lon="2.34187">
        <ele>1230</ele>
        <time>2024-09-17T13:10:44Z</time>
      </trkpt>
      <trkpt lat="42.49176" lon="2.34188">
        <ele>1229</ele>
        <time>2024-09-17T13:10:49Z</time>
      </trkpt>
      <trkpt lat="42.49178" lon="2.34188">
        <ele>1228</ele>
        <time>2024-09-17T13:10:54Z</time>
      </trkpt>
      <trkpt lat="42.49182" lon="2.34187">
        <ele>1228</ele>
        <time>2024-09-17T13:11:02Z</time>
      </trkpt>
      <trkpt lat="42.49185" lon="2.34188">
        <ele>1227</ele>
        <time>2024-09-17T13:11:06Z</time>
      </trkpt>
      <trkpt lat="42.49186" lon="2.34191">
        <ele>1227</ele>
        <time>2024-09-17T13:11:11Z</time>
      </trkpt>
      <trkpt lat="42.49185" lon="2.34189">
        <ele>1225</ele>
        <time>2024-09-17T13:11:45Z</time>
      </trkpt>
      <trkpt lat="42.49187" lon="2.34186">
        <ele>1225</ele>
        <time>2024-09-17T13:11:48Z</time>
      </trkpt>
      <trkpt lat="42.49189" lon="2.34184">
        <ele>1226</ele>
        <time>2024-09-17T13:12:06Z</time>
      </trkpt>
      <trkpt lat="42.49189" lon="2.34186">
        <ele>1225</ele>
        <time>2024-09-17T13:12:29Z</time>
      </trkpt>
      <trkpt lat="42.49187" lon="2.34188">
        <ele>1225</ele>
        <time>2024-09-17T13:12:32Z</time>
      </trkpt>
      <trkpt lat="42.49186" lon="2.34191">
        <ele>1225</ele>
        <time>2024-09-17T13:12:35Z</time>
      </trkpt>
      <trkpt lat="42.49184" lon="2.34193">
        <ele>1226</ele>
        <time>2024-09-17T13:17:53Z</time>
      </trkpt>
      <trkpt lat="42.49185" lon="2.34193">
        <ele>1226</ele>
        <time>2024-09-17T13:18:57Z</time>
      </trkpt>
      <trkpt lat="42.49184" lon="2.34193">
        <ele>1227</ele>
        <time>2024-09-17T13:20:25Z</time>
      </trkpt>
      <trkpt lat="42.49184" lon="2.34196">
        <ele>1227</ele>
        <time>2024-09-17T13:22:36Z</time>
      </trkpt>
      <trkpt lat="42.49182" lon="2.342">
        <ele>1226</ele>
        <time>2024-09-17T13:22:41Z</time>
      </trkpt>
      <trkpt lat="42.49181" lon="2.34204">
        <ele>1226</ele>
        <time>2024-09-17T13:22:44Z</time>
      </trkpt>
      <trkpt lat="42.4918" lon="2.34208">
        <ele>1225</ele>
        <time>2024-09-17T13:22:47Z</time>
      </trkpt>
      <trkpt lat="42.49181" lon="2.3421">
        <ele>1224</ele>
        <time>2024-09-17T13:22:51Z</time>
      </trkpt>
      <trkpt lat="42.49183" lon="2.34209">
        <ele>1224</ele>
        <time>2024-09-17T13:22:53Z</time>
      </trkpt>
      <trkpt lat="42.49185" lon="2.34207">
        <ele>1223</ele>
        <time>2024-09-17T13:22:56Z</time>
      </trkpt>
      <trkpt lat="42.49188" lon="2.34205">
        <ele>1222</ele>
        <time>2024-09-17T13:22:59Z</time>
      </trkpt>
      <trkpt lat="42.49189" lon="2.34207">
        <ele>1221</ele>
        <time>2024-09-17T13:23:04Z</time>
      </trkpt>
      <trkpt lat="42.49189" lon="2.3421">
        <ele>1220</ele>
        <time>2024-09-17T13:23:06Z</time>
      </trkpt>
      <trkpt lat="42.49189" lon="2.34214">
        <ele>1221</ele>
        <time>2024-09-17T13:23:08Z</time>
      </trkpt>
      <trkpt lat="42.49189" lon="2.34218">
        <ele>1220</ele>
        <time>2024-09-17T13:23:11Z</time>
      </trkpt>
      <trkpt lat="42.4919" lon="2.34221">
        <ele>1221</ele>
        <time>2024-09-17T13:23:15Z</time>
      </trkpt>
      <trkpt lat="42.49192" lon="2.3422">
        <ele>1219</ele>
        <time>2024-09-17T13:23:18Z</time>
      </trkpt>
      <trkpt lat="42.49193" lon="2.34217">
        <ele>1219</ele>
        <time>2024-09-17T13:23:21Z</time>
      </trkpt>
      <trkpt lat="42.49194" lon="2.34213">
        <ele>1218</ele>
        <time>2024-09-17T13:23:26Z</time>
      </trkpt>
      <trkpt lat="42.49196" lon="2.34209">
        <ele>1217</ele>
        <time>2024-09-17T13:23:29Z</time>
      </trkpt>
      <trkpt lat="42.49198" lon="2.34206">
        <ele>1217</ele>
        <time>2024-09-17T13:23:32Z</time>
      </trkpt>
      <trkpt lat="42.492" lon="2.34203">
        <ele>1216</ele>
        <time>2024-09-17T13:23:35Z</time>
      </trkpt>
      <trkpt lat="42.49202" lon="2.342">
        <ele>1216</ele>
        <time>2024-09-17T13:23:38Z</time>
      </trkpt>
      <trkpt lat="42.49204" lon="2.34197">
        <ele>1215</ele>
        <time>2024-09-17T13:23:40Z</time>
      </trkpt>
      <trkpt lat="42.49206" lon="2.34193">
        <ele>1214</ele>
        <time>2024-09-17T13:23:44Z</time>
      </trkpt>
      <trkpt lat="42.49208" lon="2.34189">
        <ele>1213</ele>
        <time>2024-09-17T13:23:47Z</time>
      </trkpt>
      <trkpt lat="42.4921" lon="2.34186">
        <ele>1213</ele>
        <time>2024-09-17T13:23:50Z</time>
      </trkpt>
      <trkpt lat="42.49212" lon="2.34182">
        <ele>1212</ele>
        <time>2024-09-17T13:23:53Z</time>
      </trkpt>
      <trkpt lat="42.49215" lon="2.3418">
        <ele>1212</ele>
        <time>2024-09-17T13:23:56Z</time>
      </trkpt>
      <trkpt lat="42.49218" lon="2.34178">
        <ele>1211</ele>
        <time>2024-09-17T13:23:58Z</time>
      </trkpt>
      <trkpt lat="42.4922" lon="2.34176">
        <ele>1211</ele>
        <time>2024-09-17T13:24:01Z</time>
      </trkpt>
      <trkpt lat="42.49222" lon="2.34172">
        <ele>1210</ele>
        <time>2024-09-17T13:24:05Z</time>
      </trkpt>
      <trkpt lat="42.49224" lon="2.34169">
        <ele>1209</ele>
        <time>2024-09-17T13:24:08Z</time>
      </trkpt>
      <trkpt lat="42.49226" lon="2.34165">
        <ele>1209</ele>
        <time>2024-09-17T13:24:11Z</time>
      </trkpt>
      <trkpt lat="42.49227" lon="2.34161">
        <ele>1208</ele>
        <time>2024-09-17T13:24:14Z</time>
      </trkpt>
      <trkpt lat="42.49229" lon="2.34157">
        <ele>1210</ele>
        <time>2024-09-17T13:24:17Z</time>
      </trkpt>
      <trkpt lat="42.49231" lon="2.34154">
        <ele>1207</ele>
        <time>2024-09-17T13:24:21Z</time>
      </trkpt>
      <trkpt lat="42.49233" lon="2.3415">
        <ele>1206</ele>
        <time>2024-09-17T13:24:24Z</time>
      </trkpt>
      <trkpt lat="42.49234" lon="2.34147">
        <ele>1205</ele>
        <time>2024-09-17T13:24:27Z</time>
      </trkpt>
      <trkpt lat="42.49236" lon="2.34143">
        <ele>1206</ele>
        <time>2024-09-17T13:24:31Z</time>
      </trkpt>
      <trkpt lat="42.49239" lon="2.34139">
        <ele>1204</ele>
        <time>2024-09-17T13:24:36Z</time>
      </trkpt>
      <trkpt lat="42.49241" lon="2.34137">
        <ele>1202</ele>
        <time>2024-09-17T13:24:39Z</time>
      </trkpt>
      <trkpt lat="42.49244" lon="2.34136">
        <ele>1203</ele>
        <time>2024-09-17T13:24:42Z</time>
      </trkpt>
      <trkpt lat="42.49247" lon="2.34136">
        <ele>1201</ele>
        <time>2024-09-17T13:24:47Z</time>
      </trkpt>
      <trkpt lat="42.49247" lon="2.34139">
        <ele>1201</ele>
        <time>2024-09-17T13:24:51Z</time>
      </trkpt>
      <trkpt lat="42.49249" lon="2.34142">
        <ele>1199</ele>
        <time>2024-09-17T13:24:55Z</time>
      </trkpt>
      <trkpt lat="42.4925" lon="2.34145">
        <ele>1200</ele>
        <time>2024-09-17T13:24:59Z</time>
      </trkpt>
      <trkpt lat="42.49249" lon="2.34148">
        <ele>1198</ele>
        <time>2024-09-17T13:25:02Z</time>
      </trkpt>
      <trkpt lat="42.49247" lon="2.34151">
        <ele>1198</ele>
        <time>2024-09-17T13:25:05Z</time>
      </trkpt>
      <trkpt lat="42.49246" lon="2.34154">
        <ele>1197</ele>
        <time>2024-09-17T13:25:08Z</time>
      </trkpt>
      <trkpt lat="42.49248" lon="2.34155">
        <ele>1197</ele>
        <time>2024-09-17T13:25:13Z</time>
      </trkpt>
      <trkpt lat="42.49251" lon="2.34155">
        <ele>1196</ele>
        <time>2024-09-17T13:25:16Z</time>
      </trkpt>
      <trkpt lat="42.49253" lon="2.34157">
        <ele>1196</ele>
        <time>2024-09-17T13:25:20Z</time>
      </trkpt>
      <trkpt lat="42.49253" lon="2.3416">
        <ele>1195</ele>
        <time>2024-09-17T13:25:22Z</time>
      </trkpt>
      <trkpt lat="42.49251" lon="2.34162">
        <ele>1193</ele>
        <time>2024-09-17T13:25:26Z</time>
      </trkpt>
      <trkpt lat="42.4925" lon="2.34166">
        <ele>1192</ele>
        <time>2024-09-17T13:25:30Z</time>
      </trkpt>
      <trkpt lat="42.4925" lon="2.34171">
        <ele>1192</ele>
        <time>2024-09-17T13:25:34Z</time>
      </trkpt>
      <trkpt lat="42.49251" lon="2.34175">
        <ele>1191</ele>
        <time>2024-09-17T13:25:38Z</time>
      </trkpt>
      <trkpt lat="42.49251" lon="2.34179">
        <ele>1191</ele>
        <time>2024-09-17T13:25:41Z</time>
      </trkpt>
      <trkpt lat="42.4925" lon="2.34183">
        <ele>1190</ele>
        <time>2024-09-17T13:25:45Z</time>
      </trkpt>
      <trkpt lat="42.49251" lon="2.34187">
        <ele>1189</ele>
        <time>2024-09-17T13:25:48Z</time>
      </trkpt>
      <trkpt lat="42.49253" lon="2.34187">
        <ele>1188</ele>
        <time>2024-09-17T13:25:51Z</time>
      </trkpt>
      <trkpt lat="42.49255" lon="2.34186">
        <ele>1188</ele>
        <time>2024-09-17T13:25:54Z</time>
      </trkpt>
      <trkpt lat="42.49256" lon="2.34182">
        <ele>1187</ele>
        <time>2024-09-17T13:25:57Z</time>
      </trkpt>
      <trkpt lat="42.49257" lon="2.34177">
        <ele>1185</ele>
        <time>2024-09-17T13:26:01Z</time>
      </trkpt>
      <trkpt lat="42.49259" lon="2.34177">
        <ele>1184</ele>
        <time>2024-09-17T13:26:05Z</time>
      </trkpt>
      <trkpt lat="42.4926" lon="2.34178">
        <ele>1184</ele>
        <time>2024-09-17T13:26:08Z</time>
      </trkpt>
      <trkpt lat="42.49261" lon="2.34181">
        <ele>1185</ele>
        <time>2024-09-17T13:26:11Z</time>
      </trkpt>
      <trkpt lat="42.49261" lon="2.34185">
        <ele>1183</ele>
        <time>2024-09-17T13:26:14Z</time>
      </trkpt>
      <trkpt lat="42.49261" lon="2.34188">
        <ele>1184</ele>
        <time>2024-09-17T13:26:17Z</time>
      </trkpt>
      <trkpt lat="42.49261" lon="2.34193">
        <ele>1183</ele>
        <time>2024-09-17T13:26:20Z</time>
      </trkpt>
      <trkpt lat="42.49262" lon="2.34197">
        <ele>1183</ele>
        <time>2024-09-17T13:26:23Z</time>
      </trkpt>
      <trkpt lat="42.49262" lon="2.34201">
        <ele>1182</ele>
        <time>2024-09-17T13:26:27Z</time>
      </trkpt>
      <trkpt lat="42.49262" lon="2.34205">
        <ele>1182</ele>
        <time>2024-09-17T13:26:30Z</time>
      </trkpt>
      <trkpt lat="42.49261" lon="2.34209">
        <ele>1180</ele>
        <time>2024-09-17T13:26:34Z</time>
      </trkpt>
      <trkpt lat="42.49261" lon="2.34212">
        <ele>1180</ele>
        <time>2024-09-17T13:26:37Z</time>
      </trkpt>
      <trkpt lat="42.49262" lon="2.34211">
        <ele>1177</ele>
        <time>2024-09-17T13:26:42Z</time>
      </trkpt>
      <trkpt lat="42.49264" lon="2.3421">
        <ele>1177</ele>
        <time>2024-09-17T13:26:44Z</time>
      </trkpt>
      <trkpt lat="42.49266" lon="2.34208">
        <ele>1175</ele>
        <time>2024-09-17T13:26:48Z</time>
      </trkpt>
      <trkpt lat="42.49269" lon="2.34206">
        <ele>1174</ele>
        <time>2024-09-17T13:26:50Z</time>
      </trkpt>
      <trkpt lat="42.49272" lon="2.34204">
        <ele>1174</ele>
        <time>2024-09-17T13:26:53Z</time>
      </trkpt>
      <trkpt lat="42.49274" lon="2.34201">
        <ele>1173</ele>
        <time>2024-09-17T13:26:56Z</time>
      </trkpt>
      <trkpt lat="42.49277" lon="2.34199">
        <ele>1172</ele>
        <time>2024-09-17T13:26:59Z</time>
      </trkpt>
      <trkpt lat="42.4928" lon="2.34197">
        <ele>1173</ele>
        <time>2024-09-17T13:27:01Z</time>
      </trkpt>
      <trkpt lat="42.49282" lon="2.34196">
        <ele>1172</ele>
        <time>2024-09-17T13:27:05Z</time>
      </trkpt>
      <trkpt lat="42.49286" lon="2.34194">
        <ele>1170</ele>
        <time>2024-09-17T13:27:09Z</time>
      </trkpt>
      <trkpt lat="42.49289" lon="2.34194">
        <ele>1171</ele>
        <time>2024-09-17T13:27:12Z</time>
      </trkpt>
      <trkpt lat="42.49291" lon="2.34196">
        <ele>1170</ele>
        <time>2024-09-17T13:27:14Z</time>
      </trkpt>
      <trkpt lat="42.49292" lon="2.34199">
        <ele>1170</ele>
        <time>2024-09-17T13:27:17Z</time>
      </trkpt>
      <trkpt lat="42.49291" lon="2.34199">
        <ele>1170</ele>
        <time>2024-09-17T13:27:28Z</time>
      </trkpt>
      <trkpt lat="42.49292" lon="2.34199">
        <ele>1170</ele>
        <time>2024-09-17T13:27:41Z</time>
      </trkpt>
      <trkpt lat="42.49295" lon="2.34202">
        <ele>1168</ele>
        <time>2024-09-17T13:27:47Z</time>
      </trkpt>
      <trkpt lat="42.49298" lon="2.34204">
        <ele>1168</ele>
        <time>2024-09-17T13:27:50Z</time>
      </trkpt>
      <trkpt lat="42.49301" lon="2.34204">
        <ele>1166</ele>
        <time>2024-09-17T13:27:53Z</time>
      </trkpt>
      <trkpt lat="42.49304" lon="2.34202">
        <ele>1165</ele>
        <time>2024-09-17T13:27:57Z</time>
      </trkpt>
      <trkpt lat="42.49307" lon="2.342">
        <ele>1163</ele>
        <time>2024-09-17T13:27:59Z</time>
      </trkpt>
      <trkpt lat="42.4931" lon="2.34201">
        <ele>1163</ele>
        <time>2024-09-17T13:28:02Z</time>
      </trkpt>
      <trkpt lat="42.49312" lon="2.34203">
        <ele>1162</ele>
        <time>2024-09-17T13:28:05Z</time>
      </trkpt>
      <trkpt lat="42.49313" lon="2.34207">
        <ele>1162</ele>
        <time>2024-09-17T13:28:08Z</time>
      </trkpt>
      <trkpt lat="42.49313" lon="2.34211">
        <ele>1161</ele>
        <time>2024-09-17T13:28:11Z</time>
      </trkpt>
      <trkpt lat="42.49312" lon="2.34214">
        <ele>1161</ele>
        <time>2024-09-17T13:28:14Z</time>
      </trkpt>
      <trkpt lat="42.49311" lon="2.34218">
        <ele>1161</ele>
        <time>2024-09-17T13:28:16Z</time>
      </trkpt>
      <trkpt lat="42.4931" lon="2.34223">
        <ele>1162</ele>
        <time>2024-09-17T13:28:19Z</time>
      </trkpt>
      <trkpt lat="42.4931" lon="2.34227">
        <ele>1159</ele>
        <time>2024-09-17T13:28:23Z</time>
      </trkpt>
      <trkpt lat="42.4931" lon="2.34231">
        <ele>1157</ele>
        <time>2024-09-17T13:28:30Z</time>
      </trkpt>
      <trkpt lat="42.49309" lon="2.34236">
        <ele>1155</ele>
        <time>2024-09-17T13:28:34Z</time>
      </trkpt>
      <trkpt lat="42.49308" lon="2.3424">
        <ele>1157</ele>
        <time>2024-09-17T13:28:42Z</time>
      </trkpt>
      <trkpt lat="42.49308" lon="2.34245">
        <ele>1156</ele>
        <time>2024-09-17T13:28:51Z</time>
      </trkpt>
      <trkpt lat="42.49309" lon="2.34249">
        <ele>1155</ele>
        <time>2024-09-17T13:28:54Z</time>
      </trkpt>
      <trkpt lat="42.49309" lon="2.34253">
        <ele>1154</ele>
        <time>2024-09-17T13:28:58Z</time>
      </trkpt>
      <trkpt lat="42.49309" lon="2.34258">
        <ele>1154</ele>
        <time>2024-09-17T13:29:01Z</time>
      </trkpt>
      <trkpt lat="42.49308" lon="2.34262">
        <ele>1153</ele>
        <time>2024-09-17T13:29:04Z</time>
      </trkpt>
      <trkpt lat="42.49307" lon="2.34267">
        <ele>1153</ele>
        <time>2024-09-17T13:29:06Z</time>
      </trkpt>
      <trkpt lat="42.49309" lon="2.3427">
        <ele>1152</ele>
        <time>2024-09-17T13:29:10Z</time>
      </trkpt>
      <trkpt lat="42.49309" lon="2.34275">
        <ele>1152</ele>
        <time>2024-09-17T13:29:14Z</time>
      </trkpt>
      <trkpt lat="42.49309" lon="2.34279">
        <ele>1151</ele>
        <time>2024-09-17T13:29:17Z</time>
      </trkpt>
      <trkpt lat="42.49309" lon="2.34283">
        <ele>1151</ele>
        <time>2024-09-17T13:29:20Z</time>
      </trkpt>
      <trkpt lat="42.49308" lon="2.34288">
        <ele>1150</ele>
        <time>2024-09-17T13:29:23Z</time>
      </trkpt>
      <trkpt lat="42.49308" lon="2.34293">
        <ele>1150</ele>
        <time>2024-09-17T13:29:26Z</time>
      </trkpt>
      <trkpt lat="42.49309" lon="2.34297">
        <ele>1151</ele>
        <time>2024-09-17T13:29:28Z</time>
      </trkpt>
      <trkpt lat="42.49309" lon="2.34301">
        <ele>1149</ele>
        <time>2024-09-17T13:29:31Z</time>
      </trkpt>
      <trkpt lat="42.49309" lon="2.34305">
        <ele>1149</ele>
        <time>2024-09-17T13:29:34Z</time>
      </trkpt>
      <trkpt lat="42.49308" lon="2.34309">
        <ele>1148</ele>
        <time>2024-09-17T13:29:38Z</time>
      </trkpt>
      <trkpt lat="42.49308" lon="2.34313">
        <ele>1148</ele>
        <time>2024-09-17T13:29:41Z</time>
      </trkpt>
      <trkpt lat="42.49308" lon="2.34318">
        <ele>1147</ele>
        <time>2024-09-17T13:29:45Z</time>
      </trkpt>
      <trkpt lat="42.49309" lon="2.34322">
        <ele>1146</ele>
        <time>2024-09-17T13:29:48Z</time>
      </trkpt>
      <trkpt lat="42.49311" lon="2.34327">
        <ele>1144</ele>
        <time>2024-09-17T13:29:52Z</time>
      </trkpt>
      <trkpt lat="42.49312" lon="2.34331">
        <ele>1145</ele>
        <time>2024-09-17T13:29:55Z</time>
      </trkpt>
      <trkpt lat="42.49314" lon="2.34334">
        <ele>1144</ele>
        <time>2024-09-17T13:29:59Z</time>
      </trkpt>
      <trkpt lat="42.49316" lon="2.34338">
        <ele>1144</ele>
        <time>2024-09-17T13:30:03Z</time>
      </trkpt>
      <trkpt lat="42.49317" lon="2.34342">
        <ele>1143</ele>
        <time>2024-09-17T13:30:06Z</time>
      </trkpt>
      <trkpt lat="42.49318" lon="2.34346">
        <ele>1142</ele>
        <time>2024-09-17T13:30:11Z</time>
      </trkpt>
      <trkpt lat="42.49318" lon="2.34351">
        <ele>1140</ele>
        <time>2024-09-17T13:30:16Z</time>
      </trkpt>
      <trkpt lat="42.49319" lon="2.34356">
        <ele>1139</ele>
        <time>2024-09-17T13:30:21Z</time>
      </trkpt>
      <trkpt lat="42.4932" lon="2.3436">
        <ele>1139</ele>
        <time>2024-09-17T13:30:25Z</time>
      </trkpt>
      <trkpt lat="42.49319" lon="2.34364">
        <ele>1137</ele>
        <time>2024-09-17T13:30:30Z</time>
      </trkpt>
      <trkpt lat="42.49319" lon="2.34368">
        <ele>1137</ele>
        <time>2024-09-17T13:30:34Z</time>
      </trkpt>
      <trkpt lat="42.49319" lon="2.34372">
        <ele>1137</ele>
        <time>2024-09-17T13:30:36Z</time>
      </trkpt>
      <trkpt lat="42.49319" lon="2.34376">
        <ele>1138</ele>
        <time>2024-09-17T13:30:39Z</time>
      </trkpt>
      <trkpt lat="42.49321" lon="2.34378">
        <ele>1137</ele>
        <time>2024-09-17T13:30:45Z</time>
      </trkpt>
      <trkpt lat="42.49323" lon="2.34381">
        <ele>1136</ele>
        <time>2024-09-17T13:30:49Z</time>
      </trkpt>
      <trkpt lat="42.49324" lon="2.34385">
        <ele>1137</ele>
        <time>2024-09-17T13:30:52Z</time>
      </trkpt>
      <trkpt lat="42.49324" lon="2.34389">
        <ele>1135</ele>
        <time>2024-09-17T13:30:56Z</time>
      </trkpt>
      <trkpt lat="42.49325" lon="2.34393">
        <ele>1134</ele>
        <time>2024-09-17T13:31:00Z</time>
      </trkpt>
      <trkpt lat="42.49326" lon="2.34397">
        <ele>1134</ele>
        <time>2024-09-17T13:31:04Z</time>
      </trkpt>
      <trkpt lat="42.49327" lon="2.344">
        <ele>1133</ele>
        <time>2024-09-17T13:31:07Z</time>
      </trkpt>
      <trkpt lat="42.4933" lon="2.34403">
        <ele>1132</ele>
        <time>2024-09-17T13:31:10Z</time>
      </trkpt>
      <trkpt lat="42.49332" lon="2.34406">
        <ele>1132</ele>
        <time>2024-09-17T13:31:12Z</time>
      </trkpt>
      <trkpt lat="42.49334" lon="2.34409">
        <ele>1132</ele>
        <time>2024-09-17T13:31:15Z</time>
      </trkpt>
      <trkpt lat="42.49335" lon="2.34413">
        <ele>1131</ele>
        <time>2024-09-17T13:31:18Z</time>
      </trkpt>
      <trkpt lat="42.49337" lon="2.34416">
        <ele>1131</ele>
        <time>2024-09-17T13:31:22Z</time>
      </trkpt>
      <trkpt lat="42.49339" lon="2.34419">
        <ele>1131</ele>
        <time>2024-09-17T13:31:24Z</time>
      </trkpt>
      <trkpt lat="42.49341" lon="2.34422">
        <ele>1130</ele>
        <time>2024-09-17T13:31:28Z</time>
      </trkpt>
      <trkpt lat="42.49342" lon="2.34425">
        <ele>1128</ele>
        <time>2024-09-17T13:31:32Z</time>
      </trkpt>
      <trkpt lat="42.49339" lon="2.34426">
        <ele>1128</ele>
        <time>2024-09-17T13:31:35Z</time>
      </trkpt>
      <trkpt lat="42.49337" lon="2.34427">
        <ele>1128</ele>
        <time>2024-09-17T13:31:37Z</time>
      </trkpt>
      <trkpt lat="42.49334" lon="2.34428">
        <ele>1128</ele>
        <time>2024-09-17T13:31:40Z</time>
      </trkpt>
      <trkpt lat="42.49333" lon="2.34431">
        <ele>1127</ele>
        <time>2024-09-17T13:31:46Z</time>
      </trkpt>
      <trkpt lat="42.49335" lon="2.34434">
        <ele>1126</ele>
        <time>2024-09-17T13:31:50Z</time>
      </trkpt>
      <trkpt lat="42.49336" lon="2.34436">
        <ele>1126</ele>
        <time>2024-09-17T13:31:52Z</time>
      </trkpt>
      <trkpt lat="42.49339" lon="2.34439">
        <ele>1126</ele>
        <time>2024-09-17T13:31:56Z</time>
      </trkpt>
      <trkpt lat="42.49342" lon="2.34441">
        <ele>1126</ele>
        <time>2024-09-17T13:32:00Z</time>
      </trkpt>
      <trkpt lat="42.49343" lon="2.34444">
        <ele>1125</ele>
        <time>2024-09-17T13:32:04Z</time>
      </trkpt>
      <trkpt lat="42.49345" lon="2.34448">
        <ele>1123</ele>
        <time>2024-09-17T13:32:08Z</time>
      </trkpt>
      <trkpt lat="42.49346" lon="2.34452">
        <ele>1123</ele>
        <time>2024-09-17T13:32:12Z</time>
      </trkpt>
      <trkpt lat="42.49348" lon="2.34455">
        <ele>1122</ele>
        <time>2024-09-17T13:32:15Z</time>
      </trkpt>
      <trkpt lat="42.49349" lon="2.34459">
        <ele>1121</ele>
        <time>2024-09-17T13:32:19Z</time>
      </trkpt>
      <trkpt lat="42.49351" lon="2.34462">
        <ele>1118</ele>
        <time>2024-09-17T13:32:24Z</time>
      </trkpt>
      <trkpt lat="42.49353" lon="2.34466">
        <ele>1118</ele>
        <time>2024-09-17T13:32:27Z</time>
      </trkpt>
      <trkpt lat="42.49355" lon="2.3447">
        <ele>1117</ele>
        <time>2024-09-17T13:32:32Z</time>
      </trkpt>
      <trkpt lat="42.49357" lon="2.34474">
        <ele>1116</ele>
        <time>2024-09-17T13:32:35Z</time>
      </trkpt>
      <trkpt lat="42.49359" lon="2.34479">
        <ele>1115</ele>
        <time>2024-09-17T13:32:39Z</time>
      </trkpt>
      <trkpt lat="42.49359" lon="2.34482">
        <ele>1114</ele>
        <time>2024-09-17T13:32:43Z</time>
      </trkpt>
      <trkpt lat="42.4936" lon="2.34487">
        <ele>1113</ele>
        <time>2024-09-17T13:32:46Z</time>
      </trkpt>
      <trkpt lat="42.49362" lon="2.34491">
        <ele>1114</ele>
        <time>2024-09-17T13:32:49Z</time>
      </trkpt>
      <trkpt lat="42.49363" lon="2.34495">
        <ele>1113</ele>
        <time>2024-09-17T13:32:52Z</time>
      </trkpt>
      <trkpt lat="42.49363" lon="2.34499">
        <ele>1112</ele>
        <time>2024-09-17T13:32:57Z</time>
      </trkpt>
      <trkpt lat="42.49364" lon="2.34503">
        <ele>1112</ele>
        <time>2024-09-17T13:33:02Z</time>
      </trkpt>
      <trkpt lat="42.49365" lon="2.34507">
        <ele>1110</ele>
        <time>2024-09-17T13:33:12Z</time>
      </trkpt>
      <trkpt lat="42.49366" lon="2.34511">
        <ele>1110</ele>
        <time>2024-09-17T13:33:15Z</time>
      </trkpt>
      <trkpt lat="42.49368" lon="2.34515">
        <ele>1109</ele>
        <time>2024-09-17T13:33:19Z</time>
      </trkpt>
      <trkpt lat="42.4937" lon="2.3452">
        <ele>1108</ele>
        <time>2024-09-17T13:33:24Z</time>
      </trkpt>
      <trkpt lat="42.49371" lon="2.34523">
        <ele>1108</ele>
        <time>2024-09-17T13:33:25Z</time>
      </trkpt>
      <trkpt lat="42.49373" lon="2.34527">
        <ele>1107</ele>
        <time>2024-09-17T13:33:29Z</time>
      </trkpt>
      <trkpt lat="42.49374" lon="2.34531">
        <ele>1107</ele>
        <time>2024-09-17T13:33:32Z</time>
      </trkpt>
      <trkpt lat="42.49376" lon="2.34535">
        <ele>1105</ele>
        <time>2024-09-17T13:33:35Z</time>
      </trkpt>
      <trkpt lat="42.49377" lon="2.34539">
        <ele>1104</ele>
        <time>2024-09-17T13:33:38Z</time>
      </trkpt>
      <trkpt lat="42.49377" lon="2.34543">
        <ele>1104</ele>
        <time>2024-09-17T13:33:41Z</time>
      </trkpt>
      <trkpt lat="42.49377" lon="2.34547">
        <ele>1103</ele>
        <time>2024-09-17T13:33:44Z</time>
      </trkpt>
      <trkpt lat="42.49377" lon="2.34551">
        <ele>1103</ele>
        <time>2024-09-17T13:33:47Z</time>
      </trkpt>
      <trkpt lat="42.49378" lon="2.34556">
        <ele>1102</ele>
        <time>2024-09-17T13:33:51Z</time>
      </trkpt>
      <trkpt lat="42.4938" lon="2.34559">
        <ele>1102</ele>
        <time>2024-09-17T13:33:54Z</time>
      </trkpt>
      <trkpt lat="42.49381" lon="2.34563">
        <ele>1101</ele>
        <time>2024-09-17T13:33:58Z</time>
      </trkpt>
      <trkpt lat="42.49382" lon="2.34567">
        <ele>1101</ele>
        <time>2024-09-17T13:34:01Z</time>
      </trkpt>
      <trkpt lat="42.49383" lon="2.34572">
        <ele>1101</ele>
        <time>2024-09-17T13:34:04Z</time>
      </trkpt>
      <trkpt lat="42.49382" lon="2.34576">
        <ele>1100</ele>
        <time>2024-09-17T13:34:07Z</time>
      </trkpt>
      <trkpt lat="42.49382" lon="2.3458">
        <ele>1100</ele>
        <time>2024-09-17T13:34:09Z</time>
      </trkpt>
      <trkpt lat="42.49383" lon="2.34583">
        <ele>1100</ele>
        <time>2024-09-17T13:34:13Z</time>
      </trkpt>
      <trkpt lat="42.49385" lon="2.34586">
        <ele>1099</ele>
        <time>2024-09-17T13:34:15Z</time>
      </trkpt>
      <trkpt lat="42.49387" lon="2.34589">
        <ele>1099</ele>
        <time>2024-09-17T13:34:18Z</time>
      </trkpt>
      <trkpt lat="42.49389" lon="2.34593">
        <ele>1098</ele>
        <time>2024-09-17T13:34:22Z</time>
      </trkpt>
      <trkpt lat="42.49391" lon="2.34597">
        <ele>1099</ele>
        <time>2024-09-17T13:34:27Z</time>
      </trkpt>
      <trkpt lat="42.49394" lon="2.346">
        <ele>1098</ele>
        <time>2024-09-17T13:34:30Z</time>
      </trkpt>
      <trkpt lat="42.49396" lon="2.34603">
        <ele>1098</ele>
        <time>2024-09-17T13:34:33Z</time>
      </trkpt>
      <trkpt lat="42.49399" lon="2.34605">
        <ele>1096</ele>
        <time>2024-09-17T13:34:37Z</time>
      </trkpt>
      <trkpt lat="42.494" lon="2.3461">
        <ele>1096</ele>
        <time>2024-09-17T13:34:40Z</time>
      </trkpt>
      <trkpt lat="42.494" lon="2.34614">
        <ele>1094</ele>
        <time>2024-09-17T13:34:43Z</time>
      </trkpt>
      <trkpt lat="42.494" lon="2.34619">
        <ele>1093</ele>
        <time>2024-09-17T13:34:47Z</time>
      </trkpt>
      <trkpt lat="42.49401" lon="2.34623">
        <ele>1092</ele>
        <time>2024-09-17T13:34:49Z</time>
      </trkpt>
      <trkpt lat="42.49402" lon="2.34628">
        <ele>1092</ele>
        <time>2024-09-17T13:34:53Z</time>
      </trkpt>
      <trkpt lat="42.49404" lon="2.34631">
        <ele>1091</ele>
        <time>2024-09-17T13:34:58Z</time>
      </trkpt>
      <trkpt lat="42.49404" lon="2.34634">
        <ele>1091</ele>
        <time>2024-09-17T13:35:01Z</time>
      </trkpt>
      <trkpt lat="42.49406" lon="2.34636">
        <ele>1090</ele>
        <time>2024-09-17T13:35:07Z</time>
      </trkpt>
      <trkpt lat="42.49408" lon="2.34639">
        <ele>1091</ele>
        <time>2024-09-17T13:35:09Z</time>
      </trkpt>
      <trkpt lat="42.49409" lon="2.34642">
        <ele>1090</ele>
        <time>2024-09-17T13:35:20Z</time>
      </trkpt>
      <trkpt lat="42.4941" lon="2.34646">
        <ele>1090</ele>
        <time>2024-09-17T13:35:23Z</time>
      </trkpt>
      <trkpt lat="42.49413" lon="2.34648">
        <ele>1088</ele>
        <time>2024-09-17T13:35:26Z</time>
      </trkpt>
      <trkpt lat="42.49414" lon="2.34652">
        <ele>1088</ele>
        <time>2024-09-17T13:35:30Z</time>
      </trkpt>
      <trkpt lat="42.49416" lon="2.34655">
        <ele>1087</ele>
        <time>2024-09-17T13:35:33Z</time>
      </trkpt>
      <trkpt lat="42.49418" lon="2.34659">
        <ele>1087</ele>
        <time>2024-09-17T13:35:35Z</time>
      </trkpt>
      <trkpt lat="42.49419" lon="2.34664">
        <ele>1086</ele>
        <time>2024-09-17T13:35:37Z</time>
      </trkpt>
      <trkpt lat="42.49421" lon="2.34668">
        <ele>1085</ele>
        <time>2024-09-17T13:35:41Z</time>
      </trkpt>
      <trkpt lat="42.49423" lon="2.34671">
        <ele>1084</ele>
        <time>2024-09-17T13:35:44Z</time>
      </trkpt>
      <trkpt lat="42.49424" lon="2.34674">
        <ele>1083</ele>
        <time>2024-09-17T13:35:46Z</time>
      </trkpt>
      <trkpt lat="42.49425" lon="2.34678">
        <ele>1083</ele>
        <time>2024-09-17T13:35:48Z</time>
      </trkpt>
      <trkpt lat="42.49426" lon="2.34683">
        <ele>1083</ele>
        <time>2024-09-17T13:35:51Z</time>
      </trkpt>
      <trkpt lat="42.49427" lon="2.34687">
        <ele>1082</ele>
        <time>2024-09-17T13:35:57Z</time>
      </trkpt>
      <trkpt lat="42.49427" lon="2.34691">
        <ele>1082</ele>
        <time>2024-09-17T13:36:01Z</time>
      </trkpt>
      <trkpt lat="42.49428" lon="2.34695">
        <ele>1081</ele>
        <time>2024-09-17T13:36:04Z</time>
      </trkpt>
      <trkpt lat="42.49431" lon="2.34697">
        <ele>1081</ele>
        <time>2024-09-17T13:36:06Z</time>
      </trkpt>
      <trkpt lat="42.49434" lon="2.34701">
        <ele>1081</ele>
        <time>2024-09-17T13:36:10Z</time>
      </trkpt>
      <trkpt lat="42.49435" lon="2.34705">
        <ele>1081</ele>
        <time>2024-09-17T13:36:12Z</time>
      </trkpt>
      <trkpt lat="42.49435" lon="2.34709">
        <ele>1081</ele>
        <time>2024-09-17T13:36:15Z</time>
      </trkpt>
      <trkpt lat="42.49437" lon="2.34713">
        <ele>1080</ele>
        <time>2024-09-17T13:36:19Z</time>
      </trkpt>
      <trkpt lat="42.49438" lon="2.34717">
        <ele>1079</ele>
        <time>2024-09-17T13:36:23Z</time>
      </trkpt>
      <trkpt lat="42.49439" lon="2.34721">
        <ele>1079</ele>
        <time>2024-09-17T13:36:26Z</time>
      </trkpt>
      <trkpt lat="42.4944" lon="2.34725">
        <ele>1079</ele>
        <time>2024-09-17T13:36:29Z</time>
      </trkpt>
      <trkpt lat="42.49441" lon="2.34729">
        <ele>1078</ele>
        <time>2024-09-17T13:36:32Z</time>
      </trkpt>
      <trkpt lat="42.49441" lon="2.34733">
        <ele>1077</ele>
        <time>2024-09-17T13:36:34Z</time>
      </trkpt>
      <trkpt lat="42.49442" lon="2.34737">
        <ele>1076</ele>
        <time>2024-09-17T13:36:37Z</time>
      </trkpt>
      <trkpt lat="42.49444" lon="2.34741">
        <ele>1075</ele>
        <time>2024-09-17T13:36:40Z</time>
      </trkpt>
      <trkpt lat="42.49445" lon="2.34745">
        <ele>1075</ele>
        <time>2024-09-17T13:36:42Z</time>
      </trkpt>
      <trkpt lat="42.49446" lon="2.34749">
        <ele>1075</ele>
        <time>2024-09-17T13:36:46Z</time>
      </trkpt>
      <trkpt lat="42.49448" lon="2.34752">
        <ele>1075</ele>
        <time>2024-09-17T13:36:49Z</time>
      </trkpt>
      <trkpt lat="42.49449" lon="2.34756">
        <ele>1075</ele>
        <time>2024-09-17T13:36:53Z</time>
      </trkpt>
      <trkpt lat="42.49451" lon="2.3476">
        <ele>1073</ele>
        <time>2024-09-17T13:37:00Z</time>
      </trkpt>
      <trkpt lat="42.49451" lon="2.34763">
        <ele>1071</ele>
        <time>2024-09-17T13:37:04Z</time>
      </trkpt>
      <trkpt lat="42.49452" lon="2.34767">
        <ele>1071</ele>
        <time>2024-09-17T13:37:10Z</time>
      </trkpt>
      <trkpt lat="42.49454" lon="2.34771">
        <ele>1071</ele>
        <time>2024-09-17T13:37:13Z</time>
      </trkpt>
      <trkpt lat="42.49456" lon="2.34773">
        <ele>1070</ele>
        <time>2024-09-17T13:37:17Z</time>
      </trkpt>
      <trkpt lat="42.49459" lon="2.34775">
        <ele>1070</ele>
        <time>2024-09-17T13:37:20Z</time>
      </trkpt>
      <trkpt lat="42.49461" lon="2.34777">
        <ele>1070</ele>
        <time>2024-09-17T13:37:22Z</time>
      </trkpt>
      <trkpt lat="42.49463" lon="2.34781">
        <ele>1070</ele>
        <time>2024-09-17T13:37:28Z</time>
      </trkpt>
      <trkpt lat="42.49465" lon="2.34781">
        <ele>1066</ele>
        <time>2024-09-17T13:37:36Z</time>
      </trkpt>
      <trkpt lat="42.49467" lon="2.3478">
        <ele>1066</ele>
        <time>2024-09-17T13:37:39Z</time>
      </trkpt>
      <trkpt lat="42.49471" lon="2.3478">
        <ele>1064</ele>
        <time>2024-09-17T13:37:43Z</time>
      </trkpt>
      <trkpt lat="42.49473" lon="2.34782">
        <ele>1063</ele>
        <time>2024-09-17T13:37:45Z</time>
      </trkpt>
      <trkpt lat="42.49473" lon="2.34785">
        <ele>1062</ele>
        <time>2024-09-17T13:37:47Z</time>
      </trkpt>
      <trkpt lat="42.49473" lon="2.3479">
        <ele>1062</ele>
        <time>2024-09-17T13:37:50Z</time>
      </trkpt>
      <trkpt lat="42.49473" lon="2.34795">
        <ele>1061</ele>
        <time>2024-09-17T13:37:54Z</time>
      </trkpt>
      <trkpt lat="42.49473" lon="2.34799">
        <ele>1060</ele>
        <time>2024-09-17T13:37:57Z</time>
      </trkpt>
      <trkpt lat="42.49473" lon="2.34804">
        <ele>1059</ele>
        <time>2024-09-17T13:38:00Z</time>
      </trkpt>
      <trkpt lat="42.49473" lon="2.34808">
        <ele>1059</ele>
        <time>2024-09-17T13:38:04Z</time>
      </trkpt>
      <trkpt lat="42.49473" lon="2.34812">
        <ele>1059</ele>
        <time>2024-09-17T13:38:06Z</time>
      </trkpt>
      <trkpt lat="42.49472" lon="2.34817">
        <ele>1058</ele>
        <time>2024-09-17T13:38:11Z</time>
      </trkpt>
      <trkpt lat="42.4947" lon="2.34821">
        <ele>1058</ele>
        <time>2024-09-17T13:38:14Z</time>
      </trkpt>
      <trkpt lat="42.49469" lon="2.34825">
        <ele>1057</ele>
        <time>2024-09-17T13:38:18Z</time>
      </trkpt>
      <trkpt lat="42.4947" lon="2.34828">
        <ele>1057</ele>
        <time>2024-09-17T13:38:20Z</time>
      </trkpt>
      <trkpt lat="42.49471" lon="2.34831">
        <ele>1055</ele>
        <time>2024-09-17T13:38:24Z</time>
      </trkpt>
      <trkpt lat="42.49473" lon="2.34832">
        <ele>1057</ele>
        <time>2024-09-17T13:39:15Z</time>
      </trkpt>
      <trkpt lat="42.49475" lon="2.34835">
        <ele>1056</ele>
        <time>2024-09-17T13:39:18Z</time>
      </trkpt>
      <trkpt lat="42.49476" lon="2.34838">
        <ele>1056</ele>
        <time>2024-09-17T13:39:20Z</time>
      </trkpt>
      <trkpt lat="42.49477" lon="2.34841">
        <ele>1056</ele>
        <time>2024-09-17T13:39:23Z</time>
      </trkpt>
      <trkpt lat="42.49478" lon="2.34845">
        <ele>1054</ele>
        <time>2024-09-17T13:39:31Z</time>
      </trkpt>
      <trkpt lat="42.49479" lon="2.34849">
        <ele>1053</ele>
        <time>2024-09-17T13:39:33Z</time>
      </trkpt>
      <trkpt lat="42.4948" lon="2.34853">
        <ele>1052</ele>
        <time>2024-09-17T13:39:36Z</time>
      </trkpt>
      <trkpt lat="42.49481" lon="2.34857">
        <ele>1052</ele>
        <time>2024-09-17T13:39:39Z</time>
      </trkpt>
      <trkpt lat="42.49481" lon="2.34862">
        <ele>1051</ele>
        <time>2024-09-17T13:39:42Z</time>
      </trkpt>
      <trkpt lat="42.49483" lon="2.34866">
        <ele>1050</ele>
        <time>2024-09-17T13:39:45Z</time>
      </trkpt>
      <trkpt lat="42.49484" lon="2.3487">
        <ele>1049</ele>
        <time>2024-09-17T13:39:47Z</time>
      </trkpt>
      <trkpt lat="42.49485" lon="2.34874">
        <ele>1049</ele>
        <time>2024-09-17T13:39:50Z</time>
      </trkpt>
      <trkpt lat="42.49486" lon="2.34878">
        <ele>1048</ele>
        <time>2024-09-17T13:39:53Z</time>
      </trkpt>
      <trkpt lat="42.49486" lon="2.34882">
        <ele>1047</ele>
        <time>2024-09-17T13:39:56Z</time>
      </trkpt>
      <trkpt lat="42.49487" lon="2.34886">
        <ele>1047</ele>
        <time>2024-09-17T13:39:59Z</time>
      </trkpt>
      <trkpt lat="42.49488" lon="2.3489">
        <ele>1047</ele>
        <time>2024-09-17T13:40:02Z</time>
      </trkpt>
      <trkpt lat="42.49489" lon="2.34894">
        <ele>1048</ele>
        <time>2024-09-17T13:40:23Z</time>
      </trkpt>
      <trkpt lat="42.4949" lon="2.34899">
        <ele>1047</ele>
        <time>2024-09-17T13:40:26Z</time>
      </trkpt>
      <trkpt lat="42.49489" lon="2.34903">
        <ele>1044</ele>
        <time>2024-09-17T13:40:30Z</time>
      </trkpt>
      <trkpt lat="42.4949" lon="2.34907">
        <ele>1044</ele>
        <time>2024-09-17T13:40:33Z</time>
      </trkpt>
      <trkpt lat="42.4949" lon="2.34911">
        <ele>1043</ele>
        <time>2024-09-17T13:40:36Z</time>
      </trkpt>
      <trkpt lat="42.49489" lon="2.34916">
        <ele>1043</ele>
        <time>2024-09-17T13:40:39Z</time>
      </trkpt>
      <trkpt lat="42.49488" lon="2.3492">
        <ele>1042</ele>
        <time>2024-09-17T13:40:42Z</time>
      </trkpt>
      <trkpt lat="42.49489" lon="2.34923">
        <ele>1041</ele>
        <time>2024-09-17T13:40:45Z</time>
      </trkpt>
      <trkpt lat="42.49492" lon="2.34926">
        <ele>1041</ele>
        <time>2024-09-17T13:40:48Z</time>
      </trkpt>
      <trkpt lat="42.49493" lon="2.34929">
        <ele>1041</ele>
        <time>2024-09-17T13:40:51Z</time>
      </trkpt>
      <trkpt lat="42.49495" lon="2.34933">
        <ele>1040</ele>
        <time>2024-09-17T13:40:54Z</time>
      </trkpt>
      <trkpt lat="42.49495" lon="2.34937">
        <ele>1040</ele>
        <time>2024-09-17T13:41:07Z</time>
      </trkpt>
      <trkpt lat="42.49496" lon="2.34941">
        <ele>1040</ele>
        <time>2024-09-17T13:41:10Z</time>
      </trkpt>
      <trkpt lat="42.495" lon="2.34943">
        <ele>1040</ele>
        <time>2024-09-17T13:41:11Z</time>
      </trkpt>
      <trkpt lat="42.49502" lon="2.34946">
        <ele>1040</ele>
        <time>2024-09-17T13:41:14Z</time>
      </trkpt>
      <trkpt lat="42.49505" lon="2.34949">
        <ele>1038</ele>
        <time>2024-09-17T13:41:21Z</time>
      </trkpt>
      <trkpt lat="42.49507" lon="2.34952">
        <ele>1037</ele>
        <time>2024-09-17T13:41:24Z</time>
      </trkpt>
      <trkpt lat="42.49509" lon="2.34955">
        <ele>1037</ele>
        <time>2024-09-17T13:41:27Z</time>
      </trkpt>
      <trkpt lat="42.49512" lon="2.34959">
        <ele>1036</ele>
        <time>2024-09-17T13:41:30Z</time>
      </trkpt>
      <trkpt lat="42.49513" lon="2.34963">
        <ele>1036</ele>
        <time>2024-09-17T13:41:33Z</time>
      </trkpt>
      <trkpt lat="42.49514" lon="2.34967">
        <ele>1036</ele>
        <time>2024-09-17T13:41:36Z</time>
      </trkpt>
      <trkpt lat="42.49515" lon="2.34971">
        <ele>1036</ele>
        <time>2024-09-17T13:41:38Z</time>
      </trkpt>
      <trkpt lat="42.49515" lon="2.34975">
        <ele>1036</ele>
        <time>2024-09-17T13:41:41Z</time>
      </trkpt>
      <trkpt lat="42.49516" lon="2.34979">
        <ele>1035</ele>
        <time>2024-09-17T13:41:44Z</time>
      </trkpt>
      <trkpt lat="42.49517" lon="2.34982">
        <ele>1035</ele>
        <time>2024-09-17T13:41:52Z</time>
      </trkpt>
      <trkpt lat="42.49518" lon="2.34987">
        <ele>1036</ele>
        <time>2024-09-17T13:41:54Z</time>
      </trkpt>
      <trkpt lat="42.49517" lon="2.3499">
        <ele>1035</ele>
        <time>2024-09-17T13:41:56Z</time>
      </trkpt>
      <trkpt lat="42.49519" lon="2.34994">
        <ele>1035</ele>
        <time>2024-09-17T13:41:59Z</time>
      </trkpt>
      <trkpt lat="42.4952" lon="2.34998">
        <ele>1034</ele>
        <time>2024-09-17T13:42:03Z</time>
      </trkpt>
      <trkpt lat="42.49522" lon="2.35002">
        <ele>1033</ele>
        <time>2024-09-17T13:42:10Z</time>
      </trkpt>
      <trkpt lat="42.49521" lon="2.35005">
        <ele>1031</ele>
        <time>2024-09-17T13:42:14Z</time>
      </trkpt>
      <trkpt lat="42.49519" lon="2.35009">
        <ele>1031</ele>
        <time>2024-09-17T13:42:16Z</time>
      </trkpt>
      <trkpt lat="42.49519" lon="2.35013">
        <ele>1029</ele>
        <time>2024-09-17T13:42:20Z</time>
      </trkpt>
      <trkpt lat="42.4952" lon="2.35017">
        <ele>1029</ele>
        <time>2024-09-17T13:42:22Z</time>
      </trkpt>
      <trkpt lat="42.4952" lon="2.35021">
        <ele>1028</ele>
        <time>2024-09-17T13:42:24Z</time>
      </trkpt>
      <trkpt lat="42.49518" lon="2.35024">
        <ele>1029</ele>
        <time>2024-09-17T13:42:26Z</time>
      </trkpt>
      <trkpt lat="42.49517" lon="2.35028">
        <ele>1029</ele>
        <time>2024-09-17T13:42:28Z</time>
      </trkpt>
      <trkpt lat="42.49517" lon="2.35032">
        <ele>1029</ele>
        <time>2024-09-17T13:42:30Z</time>
      </trkpt>
      <trkpt lat="42.49518" lon="2.35036">
        <ele>1030</ele>
        <time>2024-09-17T13:42:33Z</time>
      </trkpt>
      <trkpt lat="42.49519" lon="2.3504">
        <ele>1029</ele>
        <time>2024-09-17T13:42:36Z</time>
      </trkpt>
      <trkpt lat="42.49521" lon="2.35043">
        <ele>1029</ele>
        <time>2024-09-17T13:42:40Z</time>
      </trkpt>
      <trkpt lat="42.49523" lon="2.35046">
        <ele>1029</ele>
        <time>2024-09-17T13:42:42Z</time>
      </trkpt>
      <trkpt lat="42.49525" lon="2.35049">
        <ele>1028</ele>
        <time>2024-09-17T13:42:45Z</time>
      </trkpt>
      <trkpt lat="42.49526" lon="2.35053">
        <ele>1028</ele>
        <time>2024-09-17T13:42:48Z</time>
      </trkpt>
      <trkpt lat="42.49529" lon="2.35056">
        <ele>1027</ele>
        <time>2024-09-17T13:43:01Z</time>
      </trkpt>
      <trkpt lat="42.4953" lon="2.35059">
        <ele>1027</ele>
        <time>2024-09-17T13:43:04Z</time>
      </trkpt>
      <trkpt lat="42.49533" lon="2.35063">
        <ele>1026</ele>
        <time>2024-09-17T13:43:07Z</time>
      </trkpt>
      <trkpt lat="42.49535" lon="2.35067">
        <ele>1027</ele>
        <time>2024-09-17T13:43:10Z</time>
      </trkpt>
      <trkpt lat="42.49538" lon="2.35071">
        <ele>1026</ele>
        <time>2024-09-17T13:43:13Z</time>
      </trkpt>
      <trkpt lat="42.4954" lon="2.35074">
        <ele>1023</ele>
        <time>2024-09-17T13:43:17Z</time>
      </trkpt>
      <trkpt lat="42.49543" lon="2.35077">
        <ele>1024</ele>
        <time>2024-09-17T13:43:20Z</time>
      </trkpt>
      <trkpt lat="42.49545" lon="2.35079">
        <ele>1024</ele>
        <time>2024-09-17T13:43:22Z</time>
      </trkpt>
      <trkpt lat="42.49548" lon="2.35081">
        <ele>1022</ele>
        <time>2024-09-17T13:43:25Z</time>
      </trkpt>
      <trkpt lat="42.4955" lon="2.35083">
        <ele>1023</ele>
        <time>2024-09-17T13:43:28Z</time>
      </trkpt>
      <trkpt lat="42.49552" lon="2.35085">
        <ele>1022</ele>
        <time>2024-09-17T13:43:30Z</time>
      </trkpt>
      <trkpt lat="42.49555" lon="2.35088">
        <ele>1022</ele>
        <time>2024-09-17T13:43:33Z</time>
      </trkpt>
      <trkpt lat="42.49558" lon="2.3509">
        <ele>1023</ele>
        <time>2024-09-17T13:43:36Z</time>
      </trkpt>
      <trkpt lat="42.4956" lon="2.35093">
        <ele>1022</ele>
        <time>2024-09-17T13:43:39Z</time>
      </trkpt>
      <trkpt lat="42.49563" lon="2.35094">
        <ele>1023</ele>
        <time>2024-09-17T13:43:50Z</time>
      </trkpt>
      <trkpt lat="42.49566" lon="2.35095">
        <ele>1023</ele>
        <time>2024-09-17T13:43:53Z</time>
      </trkpt>
      <trkpt lat="42.49568" lon="2.35094">
        <ele>1025</ele>
        <time>2024-09-17T13:43:56Z</time>
      </trkpt>
      <trkpt lat="42.49572" lon="2.35094">
        <ele>1025</ele>
        <time>2024-09-17T13:43:59Z</time>
      </trkpt>
      <trkpt lat="42.49575" lon="2.35093">
        <ele>1026</ele>
        <time>2024-09-17T13:44:01Z</time>
      </trkpt>
      <trkpt lat="42.49579" lon="2.35092">
        <ele>1027</ele>
        <time>2024-09-17T13:44:05Z</time>
      </trkpt>
      <trkpt lat="42.49582" lon="2.35092">
        <ele>1027</ele>
        <time>2024-09-17T13:44:08Z</time>
      </trkpt>
      <trkpt lat="42.49585" lon="2.35092">
        <ele>1027</ele>
        <time>2024-09-17T13:44:21Z</time>
      </trkpt>
      <trkpt lat="42.4959" lon="2.35091">
        <ele>1028</ele>
        <time>2024-09-17T13:44:36Z</time>
      </trkpt>
      <trkpt lat="42.49593" lon="2.35092">
        <ele>1027</ele>
        <time>2024-09-17T13:44:39Z</time>
      </trkpt>
      <trkpt lat="42.49596" lon="2.35094">
        <ele>1027</ele>
        <time>2024-09-17T13:44:41Z</time>
      </trkpt>
      <trkpt lat="42.49598" lon="2.35097">
        <ele>1026</ele>
        <time>2024-09-17T13:44:45Z</time>
      </trkpt>
      <trkpt lat="42.496" lon="2.35101">
        <ele>1026</ele>
        <time>2024-09-17T13:44:48Z</time>
      </trkpt>
      <trkpt lat="42.49601" lon="2.35105">
        <ele>1026</ele>
        <time>2024-09-17T13:44:51Z</time>
      </trkpt>
      <trkpt lat="42.49601" lon="2.35108">
        <ele>1026</ele>
        <time>2024-09-17T13:44:57Z</time>
      </trkpt>
      <trkpt lat="42.49602" lon="2.35111">
        <ele>1033</ele>
        <time>2024-09-18T05:49:28Z</time>
      </trkpt>
      <trkpt lat="42.496" lon="2.3511">
        <ele>1034</ele>
        <time>2024-09-18T05:49:29Z</time>
      </trkpt>
      <trkpt lat="42.49601" lon="2.3511">
        <ele>1031</ele>
        <time>2024-09-18T05:49:48Z</time>
      </trkpt>
      <trkpt lat="42.49598" lon="2.35108">
        <ele>1026</ele>
        <time>2024-09-18T05:50:03Z</time>
      </trkpt>
      <trkpt lat="42.49601" lon="2.35108">
        <ele>1029</ele>
        <time>2024-09-18T05:50:04Z</time>
      </trkpt>
      <trkpt lat="42.496" lon="2.35109">
        <ele>1026</ele>
        <time>2024-09-18T05:50:11Z</time>
      </trkpt>
      <trkpt lat="42.49598" lon="2.35111">
        <ele>1023</ele>
        <time>2024-09-18T05:50:24Z</time>
      </trkpt>
      <trkpt lat="42.49596" lon="2.35109">
        <ele>1024</ele>
        <time>2024-09-18T05:50:38Z</time>
      </trkpt>
      <trkpt lat="42.49597" lon="2.35107">
        <ele>1026</ele>
        <time>2024-09-18T05:50:40Z</time>
      </trkpt>
      <trkpt lat="42.49599" lon="2.35107">
        <ele>1028</ele>
        <time>2024-09-18T05:50:41Z</time>
      </trkpt>
      <trkpt lat="42.49602" lon="2.35108">
        <ele>1030</ele>
        <time>2024-09-18T05:50:45Z</time>
      </trkpt>
      <trkpt lat="42.49606" lon="2.35107">
        <ele>1032</ele>
        <time>2024-09-18T05:50:50Z</time>
      </trkpt>
      <trkpt lat="42.49606" lon="2.35107">
        <ele>1031</ele>
        <time>2024-09-18T05:50:54Z</time>
      </trkpt>
      <trkpt lat="42.49604" lon="2.35108">
        <ele>1031</ele>
        <time>2024-09-18T05:50:56Z</time>
      </trkpt>
      <trkpt lat="42.49601" lon="2.35109">
        <ele>1028</ele>
        <time>2024-09-18T05:51:01Z</time>
      </trkpt>
      <trkpt lat="42.49601" lon="2.35111">
        <ele>1027</ele>
        <time>2024-09-18T05:51:07Z</time>
      </trkpt>
      <trkpt lat="42.49599" lon="2.35112">
        <ele>1023</ele>
        <time>2024-09-18T05:51:33Z</time>
      </trkpt>
      <trkpt lat="42.49596" lon="2.35113">
        <ele>1022</ele>
        <time>2024-09-18T05:51:45Z</time>
      </trkpt>
      <trkpt lat="42.49593" lon="2.35113">
        <ele>1022</ele>
        <time>2024-09-18T05:51:47Z</time>
      </trkpt>
      <trkpt lat="42.49591" lon="2.35112">
        <ele>1023</ele>
        <time>2024-09-18T05:51:49Z</time>
      </trkpt>
      <trkpt lat="42.49588" lon="2.3511">
        <ele>1021</ele>
        <time>2024-09-18T05:51:53Z</time>
      </trkpt>
      <trkpt lat="42.49585" lon="2.35111">
        <ele>1022</ele>
        <time>2024-09-18T05:51:55Z</time>
      </trkpt>
      <trkpt lat="42.49584" lon="2.35109">
        <ele>1020</ele>
        <time>2024-09-18T05:51:58Z</time>
      </trkpt>
      <trkpt lat="42.49582" lon="2.35106">
        <ele>1020</ele>
        <time>2024-09-18T05:52:01Z</time>
      </trkpt>
      <trkpt lat="42.49581" lon="2.35101">
        <ele>1022</ele>
        <time>2024-09-18T05:52:04Z</time>
      </trkpt>
      <trkpt lat="42.49581" lon="2.35097">
        <ele>1023</ele>
        <time>2024-09-18T05:52:06Z</time>
      </trkpt>
      <trkpt lat="42.49579" lon="2.35093">
        <ele>1022</ele>
        <time>2024-09-18T05:52:09Z</time>
      </trkpt>
      <trkpt lat="42.49576" lon="2.35091">
        <ele>1022</ele>
        <time>2024-09-18T05:52:12Z</time>
      </trkpt>
      <trkpt lat="42.49573" lon="2.35089">
        <ele>1022</ele>
        <time>2024-09-18T05:52:13Z</time>
      </trkpt>
      <trkpt lat="42.49569" lon="2.35089">
        <ele>1023</ele>
        <time>2024-09-18T05:52:15Z</time>
      </trkpt>
      <trkpt lat="42.49566" lon="2.3509">
        <ele>1022</ele>
        <time>2024-09-18T05:52:18Z</time>
      </trkpt>
      <trkpt lat="42.49563" lon="2.35092">
        <ele>1022</ele>
        <time>2024-09-18T05:52:23Z</time>
      </trkpt>
      <trkpt lat="42.49562" lon="2.35096">
        <ele>1020</ele>
        <time>2024-09-18T05:52:26Z</time>
      </trkpt>
      <trkpt lat="42.4956" lon="2.351">
        <ele>1021</ele>
        <time>2024-09-18T05:52:28Z</time>
      </trkpt>
      <trkpt lat="42.4956" lon="2.35104">
        <ele>1020</ele>
        <time>2024-09-18T05:52:31Z</time>
      </trkpt>
      <trkpt lat="42.4956" lon="2.35108">
        <ele>1020</ele>
        <time>2024-09-18T05:52:33Z</time>
      </trkpt>
      <trkpt lat="42.4956" lon="2.35112">
        <ele>1020</ele>
        <time>2024-09-18T05:52:36Z</time>
      </trkpt>
      <trkpt lat="42.4956" lon="2.35117">
        <ele>1020</ele>
        <time>2024-09-18T05:52:38Z</time>
      </trkpt>
      <trkpt lat="42.4956" lon="2.35121">
        <ele>1022</ele>
        <time>2024-09-18T05:52:40Z</time>
      </trkpt>
      <trkpt lat="42.49561" lon="2.35125">
        <ele>1021</ele>
        <time>2024-09-18T05:52:42Z</time>
      </trkpt>
      <trkpt lat="42.49562" lon="2.35129">
        <ele>1022</ele>
        <time>2024-09-18T05:52:44Z</time>
      </trkpt>
      <trkpt lat="42.49563" lon="2.35134">
        <ele>1022</ele>
        <time>2024-09-18T05:52:46Z</time>
      </trkpt>
      <trkpt lat="42.49562" lon="2.35138">
        <ele>1022</ele>
        <time>2024-09-18T05:52:48Z</time>
      </trkpt>
      <trkpt lat="42.49563" lon="2.35142">
        <ele>1021</ele>
        <time>2024-09-18T05:52:51Z</time>
      </trkpt>
      <trkpt lat="42.49563" lon="2.35146">
        <ele>1021</ele>
        <time>2024-09-18T05:53:11Z</time>
      </trkpt>
      <trkpt lat="42.49563" lon="2.35151">
        <ele>1020</ele>
        <time>2024-09-18T05:53:16Z</time>
      </trkpt>
      <trkpt lat="42.49563" lon="2.35155">
        <ele>1019</ele>
        <time>2024-09-18T05:53:19Z</time>
      </trkpt>
      <trkpt lat="42.49563" lon="2.35159">
        <ele>1018</ele>
        <time>2024-09-18T05:53:22Z</time>
      </trkpt>
      <trkpt lat="42.49563" lon="2.35164">
        <ele>1016</ele>
        <time>2024-09-18T05:53:25Z</time>
      </trkpt>
      <trkpt lat="42.49564" lon="2.35168">
        <ele>1016</ele>
        <time>2024-09-18T05:53:28Z</time>
      </trkpt>
      <trkpt lat="42.49564" lon="2.35173">
        <ele>1015</ele>
        <time>2024-09-18T05:53:31Z</time>
      </trkpt>
      <trkpt lat="42.49565" lon="2.35177">
        <ele>1014</ele>
        <time>2024-09-18T05:53:33Z</time>
      </trkpt>
      <trkpt lat="42.49566" lon="2.35181">
        <ele>1013</ele>
        <time>2024-09-18T05:53:36Z</time>
      </trkpt>
      <trkpt lat="42.49567" lon="2.35186">
        <ele>1012</ele>
        <time>2024-09-18T05:53:39Z</time>
      </trkpt>
      <trkpt lat="42.49568" lon="2.3519">
        <ele>1010</ele>
        <time>2024-09-18T05:53:42Z</time>
      </trkpt>
      <trkpt lat="42.49568" lon="2.35195">
        <ele>1011</ele>
        <time>2024-09-18T05:53:45Z</time>
      </trkpt>
      <trkpt lat="42.49568" lon="2.352">
        <ele>1010</ele>
        <time>2024-09-18T05:53:49Z</time>
      </trkpt>
      <trkpt lat="42.49569" lon="2.35205">
        <ele>1008</ele>
        <time>2024-09-18T05:53:52Z</time>
      </trkpt>
      <trkpt lat="42.49569" lon="2.3521">
        <ele>1007</ele>
        <time>2024-09-18T05:53:55Z</time>
      </trkpt>
      <trkpt lat="42.49569" lon="2.35215">
        <ele>1007</ele>
        <time>2024-09-18T05:53:58Z</time>
      </trkpt>
      <trkpt lat="42.4957" lon="2.35219">
        <ele>1007</ele>
        <time>2024-09-18T05:54:01Z</time>
      </trkpt>
      <trkpt lat="42.4957" lon="2.35224">
        <ele>1007</ele>
        <time>2024-09-18T05:54:04Z</time>
      </trkpt>
      <trkpt lat="42.49571" lon="2.3523">
        <ele>1007</ele>
        <time>2024-09-18T05:54:07Z</time>
      </trkpt>
      <trkpt lat="42.49572" lon="2.35234">
        <ele>1007</ele>
        <time>2024-09-18T05:54:10Z</time>
      </trkpt>
      <trkpt lat="42.49572" lon="2.35239">
        <ele>1007</ele>
        <time>2024-09-18T05:54:13Z</time>
      </trkpt>
      <trkpt lat="42.49572" lon="2.35244">
        <ele>1007</ele>
        <time>2024-09-18T05:54:16Z</time>
      </trkpt>
      <trkpt lat="42.49573" lon="2.35249">
        <ele>1006</ele>
        <time>2024-09-18T05:54:19Z</time>
      </trkpt>
      <trkpt lat="42.49573" lon="2.35253">
        <ele>1005</ele>
        <time>2024-09-18T05:54:20Z</time>
      </trkpt>
      <trkpt lat="42.49572" lon="2.35258">
        <ele>1004</ele>
        <time>2024-09-18T05:54:23Z</time>
      </trkpt>
      <trkpt lat="42.4957" lon="2.35262">
        <ele>1002</ele>
        <time>2024-09-18T05:54:26Z</time>
      </trkpt>
      <trkpt lat="42.4957" lon="2.35267">
        <ele>1002</ele>
        <time>2024-09-18T05:54:29Z</time>
      </trkpt>
      <trkpt lat="42.49569" lon="2.35272">
        <ele>1000</ele>
        <time>2024-09-18T05:54:32Z</time>
      </trkpt>
      <trkpt lat="42.49568" lon="2.35277">
        <ele>999</ele>
        <time>2024-09-18T05:54:35Z</time>
      </trkpt>
      <trkpt lat="42.49568" lon="2.35282">
        <ele>998</ele>
        <time>2024-09-18T05:54:38Z</time>
      </trkpt>
      <trkpt lat="42.49568" lon="2.35287">
        <ele>997</ele>
        <time>2024-09-18T05:54:41Z</time>
      </trkpt>
      <trkpt lat="42.49568" lon="2.35292">
        <ele>996</ele>
        <time>2024-09-18T05:54:44Z</time>
      </trkpt>
      <trkpt lat="42.49568" lon="2.35297">
        <ele>996</ele>
        <time>2024-09-18T05:54:47Z</time>
      </trkpt>
      <trkpt lat="42.49568" lon="2.35302">
        <ele>995</ele>
        <time>2024-09-18T05:54:50Z</time>
      </trkpt>
      <trkpt lat="42.49569" lon="2.35307">
        <ele>995</ele>
        <time>2024-09-18T05:54:53Z</time>
      </trkpt>
      <trkpt lat="42.49569" lon="2.35312">
        <ele>994</ele>
        <time>2024-09-18T05:54:56Z</time>
      </trkpt>
      <trkpt lat="42.4957" lon="2.35316">
        <ele>994</ele>
        <time>2024-09-18T05:54:58Z</time>
      </trkpt>
      <trkpt lat="42.49571" lon="2.35321">
        <ele>992</ele>
        <time>2024-09-18T05:55:01Z</time>
      </trkpt>
      <trkpt lat="42.49573" lon="2.35324">
        <ele>993</ele>
        <time>2024-09-18T05:55:03Z</time>
      </trkpt>
      <trkpt lat="42.49575" lon="2.35328">
        <ele>992</ele>
        <time>2024-09-18T05:55:06Z</time>
      </trkpt>
      <trkpt lat="42.49576" lon="2.35333">
        <ele>992</ele>
        <time>2024-09-18T05:55:09Z</time>
      </trkpt>
      <trkpt lat="42.49578" lon="2.35338">
        <ele>990</ele>
        <time>2024-09-18T05:55:12Z</time>
      </trkpt>
      <trkpt lat="42.49579" lon="2.35342">
        <ele>990</ele>
        <time>2024-09-18T05:55:15Z</time>
      </trkpt>
      <trkpt lat="42.49581" lon="2.35347">
        <ele>989</ele>
        <time>2024-09-18T05:55:18Z</time>
      </trkpt>
      <trkpt lat="42.49582" lon="2.35352">
        <ele>989</ele>
        <time>2024-09-18T05:55:21Z</time>
      </trkpt>
      <trkpt lat="42.49584" lon="2.35356">
        <ele>989</ele>
        <time>2024-09-18T05:55:24Z</time>
      </trkpt>
      <trkpt lat="42.49586" lon="2.35361">
        <ele>988</ele>
        <time>2024-09-18T05:55:27Z</time>
      </trkpt>
      <trkpt lat="42.49587" lon="2.35366">
        <ele>988</ele>
        <time>2024-09-18T05:55:30Z</time>
      </trkpt>
      <trkpt lat="42.49589" lon="2.3537">
        <ele>987</ele>
        <time>2024-09-18T05:55:33Z</time>
      </trkpt>
      <trkpt lat="42.4959" lon="2.35375">
        <ele>988</ele>
        <time>2024-09-18T05:55:36Z</time>
      </trkpt>
      <trkpt lat="42.49592" lon="2.3538">
        <ele>986</ele>
        <time>2024-09-18T05:55:39Z</time>
      </trkpt>
      <trkpt lat="42.49594" lon="2.35384">
        <ele>987</ele>
        <time>2024-09-18T05:55:42Z</time>
      </trkpt>
      <trkpt lat="42.49595" lon="2.35388">
        <ele>986</ele>
        <time>2024-09-18T05:55:44Z</time>
      </trkpt>
      <trkpt lat="42.49597" lon="2.3539">
        <ele>987</ele>
        <time>2024-09-18T05:55:46Z</time>
      </trkpt>
      <trkpt lat="42.496" lon="2.35393">
        <ele>986</ele>
        <time>2024-09-18T05:55:49Z</time>
      </trkpt>
      <trkpt lat="42.49602" lon="2.35396">
        <ele>986</ele>
        <time>2024-09-18T05:55:51Z</time>
      </trkpt>
      <trkpt lat="42.49604" lon="2.35399">
        <ele>985</ele>
        <time>2024-09-18T05:55:54Z</time>
      </trkpt>
      <trkpt lat="42.49605" lon="2.35402">
        <ele>984</ele>
        <time>2024-09-18T05:55:56Z</time>
      </trkpt>
      <trkpt lat="42.49607" lon="2.35406">
        <ele>984</ele>
        <time>2024-09-18T05:55:59Z</time>
      </trkpt>
      <trkpt lat="42.49609" lon="2.3541">
        <ele>984</ele>
        <time>2024-09-18T05:56:02Z</time>
      </trkpt>
      <trkpt lat="42.49612" lon="2.35413">
        <ele>982</ele>
        <time>2024-09-18T05:56:05Z</time>
      </trkpt>
      <trkpt lat="42.49614" lon="2.35416">
        <ele>982</ele>
        <time>2024-09-18T05:56:08Z</time>
      </trkpt>
      <trkpt lat="42.49617" lon="2.3542">
        <ele>982</ele>
        <time>2024-09-18T05:56:11Z</time>
      </trkpt>
      <trkpt lat="42.49619" lon="2.35423">
        <ele>982</ele>
        <time>2024-09-18T05:56:14Z</time>
      </trkpt>
      <trkpt lat="42.49621" lon="2.35427">
        <ele>982</ele>
        <time>2024-09-18T05:56:16Z</time>
      </trkpt>
      <trkpt lat="42.49623" lon="2.3543">
        <ele>982</ele>
        <time>2024-09-18T05:56:19Z</time>
      </trkpt>
      <trkpt lat="42.49626" lon="2.35434">
        <ele>981</ele>
        <time>2024-09-18T05:56:22Z</time>
      </trkpt>
      <trkpt lat="42.49628" lon="2.35437">
        <ele>981</ele>
        <time>2024-09-18T05:56:25Z</time>
      </trkpt>
      <trkpt lat="42.49631" lon="2.3544">
        <ele>980</ele>
        <time>2024-09-18T05:56:27Z</time>
      </trkpt>
      <trkpt lat="42.49633" lon="2.35443">
        <ele>979</ele>
        <time>2024-09-18T05:56:30Z</time>
      </trkpt>
      <trkpt lat="42.49637" lon="2.35446">
        <ele>979</ele>
        <time>2024-09-18T05:56:33Z</time>
      </trkpt>
      <trkpt lat="42.49639" lon="2.3545">
        <ele>979</ele>
        <time>2024-09-18T05:56:36Z</time>
      </trkpt>
      <trkpt lat="42.49641" lon="2.35454">
        <ele>979</ele>
        <time>2024-09-18T05:56:44Z</time>
      </trkpt>
      <trkpt lat="42.49642" lon="2.35458">
        <ele>978</ele>
        <time>2024-09-18T05:56:47Z</time>
      </trkpt>
      <trkpt lat="42.49642" lon="2.35462">
        <ele>979</ele>
        <time>2024-09-18T05:57:04Z</time>
      </trkpt>
      <trkpt lat="42.49641" lon="2.35464">
        <ele>978</ele>
        <time>2024-09-18T05:57:49Z</time>
      </trkpt>
      <trkpt lat="42.49642" lon="2.35467">
        <ele>977</ele>
        <time>2024-09-18T05:57:52Z</time>
      </trkpt>
      <trkpt lat="42.49644" lon="2.3547">
        <ele>976</ele>
        <time>2024-09-18T05:57:55Z</time>
      </trkpt>
      <trkpt lat="42.49646" lon="2.35472">
        <ele>975</ele>
        <time>2024-09-18T05:57:58Z</time>
      </trkpt>
      <trkpt lat="42.49648" lon="2.35475">
        <ele>974</ele>
        <time>2024-09-18T05:58:01Z</time>
      </trkpt>
      <trkpt lat="42.49651" lon="2.35478">
        <ele>973</ele>
        <time>2024-09-18T05:58:04Z</time>
      </trkpt>
      <trkpt lat="42.49653" lon="2.3548">
        <ele>973</ele>
        <time>2024-09-18T05:58:06Z</time>
      </trkpt>
      <trkpt lat="42.49655" lon="2.35483">
        <ele>974</ele>
        <time>2024-09-18T05:58:08Z</time>
      </trkpt>
      <trkpt lat="42.49657" lon="2.35486">
        <ele>973</ele>
        <time>2024-09-18T05:58:10Z</time>
      </trkpt>
      <trkpt lat="42.49659" lon="2.35489">
        <ele>972</ele>
        <time>2024-09-18T05:58:12Z</time>
      </trkpt>
      <trkpt lat="42.49661" lon="2.35492">
        <ele>971</ele>
        <time>2024-09-18T05:58:14Z</time>
      </trkpt>
      <trkpt lat="42.49663" lon="2.35495">
        <ele>971</ele>
        <time>2024-09-18T05:58:16Z</time>
      </trkpt>
      <trkpt lat="42.49665" lon="2.35498">
        <ele>971</ele>
        <time>2024-09-18T05:58:18Z</time>
      </trkpt>
      <trkpt lat="42.49667" lon="2.35503">
        <ele>970</ele>
        <time>2024-09-18T05:58:21Z</time>
      </trkpt>
      <trkpt lat="42.49669" lon="2.35507">
        <ele>970</ele>
        <time>2024-09-18T05:58:23Z</time>
      </trkpt>
      <trkpt lat="42.4967" lon="2.35511">
        <ele>969</ele>
        <time>2024-09-18T05:58:25Z</time>
      </trkpt>
      <trkpt lat="42.49672" lon="2.35515">
        <ele>968</ele>
        <time>2024-09-18T05:58:27Z</time>
      </trkpt>
      <trkpt lat="42.49674" lon="2.35518">
        <ele>968</ele>
        <time>2024-09-18T05:58:29Z</time>
      </trkpt>
      <trkpt lat="42.49676" lon="2.35521">
        <ele>967</ele>
        <time>2024-09-18T05:58:31Z</time>
      </trkpt>
      <trkpt lat="42.49679" lon="2.35525">
        <ele>967</ele>
        <time>2024-09-18T05:58:33Z</time>
      </trkpt>
      <trkpt lat="42.49681" lon="2.35528">
        <ele>966</ele>
        <time>2024-09-18T05:58:35Z</time>
      </trkpt>
      <trkpt lat="42.49682" lon="2.35531">
        <ele>967</ele>
        <time>2024-09-18T05:58:37Z</time>
      </trkpt>
      <trkpt lat="42.49685" lon="2.35534">
        <ele>967</ele>
        <time>2024-09-18T05:58:39Z</time>
      </trkpt>
      <trkpt lat="42.49687" lon="2.35537">
        <ele>966</ele>
        <time>2024-09-18T05:58:41Z</time>
      </trkpt>
      <trkpt lat="42.49688" lon="2.3554">
        <ele>967</ele>
        <time>2024-09-18T05:58:43Z</time>
      </trkpt>
      <trkpt lat="42.49691" lon="2.35542">
        <ele>968</ele>
        <time>2024-09-18T05:58:45Z</time>
      </trkpt>
      <trkpt lat="42.49692" lon="2.35546">
        <ele>967</ele>
        <time>2024-09-18T05:58:47Z</time>
      </trkpt>
      <trkpt lat="42.49694" lon="2.35549">
        <ele>966</ele>
        <time>2024-09-18T05:58:49Z</time>
      </trkpt>
      <trkpt lat="42.49696" lon="2.35552">
        <ele>966</ele>
        <time>2024-09-18T05:58:51Z</time>
      </trkpt>
      <trkpt lat="42.49698" lon="2.35555">
        <ele>967</ele>
        <time>2024-09-18T05:58:53Z</time>
      </trkpt>
      <trkpt lat="42.497" lon="2.35559">
        <ele>966</ele>
        <time>2024-09-18T05:58:56Z</time>
      </trkpt>
      <trkpt lat="42.49701" lon="2.35563">
        <ele>966</ele>
        <time>2024-09-18T05:58:58Z</time>
      </trkpt>
      <trkpt lat="42.49703" lon="2.35566">
        <ele>966</ele>
        <time>2024-09-18T05:59:00Z</time>
      </trkpt>
      <trkpt lat="42.49705" lon="2.35569">
        <ele>966</ele>
        <time>2024-09-18T05:59:02Z</time>
      </trkpt>
      <trkpt lat="42.49707" lon="2.35572">
        <ele>967</ele>
        <time>2024-09-18T05:59:04Z</time>
      </trkpt>
      <trkpt lat="42.49709" lon="2.35575">
        <ele>966</ele>
        <time>2024-09-18T05:59:06Z</time>
      </trkpt>
      <trkpt lat="42.49711" lon="2.35579">
        <ele>964</ele>
        <time>2024-09-18T05:59:09Z</time>
      </trkpt>
      <trkpt lat="42.49712" lon="2.35582">
        <ele>965</ele>
        <time>2024-09-18T05:59:11Z</time>
      </trkpt>
      <trkpt lat="42.49715" lon="2.35586">
        <ele>965</ele>
        <time>2024-09-18T05:59:14Z</time>
      </trkpt>
      <trkpt lat="42.49718" lon="2.35588">
        <ele>965</ele>
        <time>2024-09-18T05:59:16Z</time>
      </trkpt>
      <trkpt lat="42.4972" lon="2.3559">
        <ele>965</ele>
        <time>2024-09-18T05:59:18Z</time>
      </trkpt>
      <trkpt lat="42.49723" lon="2.35593">
        <ele>963</ele>
        <time>2024-09-18T05:59:21Z</time>
      </trkpt>
      <trkpt lat="42.49727" lon="2.35595">
        <ele>965</ele>
        <time>2024-09-18T05:59:24Z</time>
      </trkpt>
      <trkpt lat="42.4973" lon="2.35598">
        <ele>964</ele>
        <time>2024-09-18T05:59:27Z</time>
      </trkpt>
      <trkpt lat="42.49733" lon="2.35599">
        <ele>963</ele>
        <time>2024-09-18T05:59:29Z</time>
      </trkpt>
      <trkpt lat="42.49736" lon="2.35601">
        <ele>962</ele>
        <time>2024-09-18T05:59:31Z</time>
      </trkpt>
      <trkpt lat="42.49739" lon="2.35602">
        <ele>962</ele>
        <time>2024-09-18T05:59:33Z</time>
      </trkpt>
      <trkpt lat="42.49742" lon="2.35604">
        <ele>962</ele>
        <time>2024-09-18T05:59:36Z</time>
      </trkpt>
      <trkpt lat="42.49745" lon="2.35606">
        <ele>962</ele>
        <time>2024-09-18T05:59:38Z</time>
      </trkpt>
      <trkpt lat="42.49748" lon="2.35609">
        <ele>961</ele>
        <time>2024-09-18T05:59:41Z</time>
      </trkpt>
      <trkpt lat="42.4975" lon="2.35611">
        <ele>962</ele>
        <time>2024-09-18T05:59:43Z</time>
      </trkpt>
      <trkpt lat="42.49753" lon="2.35614">
        <ele>962</ele>
        <time>2024-09-18T05:59:46Z</time>
      </trkpt>
      <trkpt lat="42.49756" lon="2.35617">
        <ele>962</ele>
        <time>2024-09-18T05:59:48Z</time>
      </trkpt>
      <trkpt lat="42.49759" lon="2.35619">
        <ele>962</ele>
        <time>2024-09-18T05:59:51Z</time>
      </trkpt>
      <trkpt lat="42.49761" lon="2.35623">
        <ele>962</ele>
        <time>2024-09-18T05:59:53Z</time>
      </trkpt>
      <trkpt lat="42.49763" lon="2.35626">
        <ele>961</ele>
        <time>2024-09-18T05:59:56Z</time>
      </trkpt>
      <trkpt lat="42.49766" lon="2.35629">
        <ele>959</ele>
        <time>2024-09-18T05:59:59Z</time>
      </trkpt>
      <trkpt lat="42.49768" lon="2.35632">
        <ele>960</ele>
        <time>2024-09-18T06:00:01Z</time>
      </trkpt>
      <trkpt lat="42.49771" lon="2.35635">
        <ele>960</ele>
        <time>2024-09-18T06:00:05Z</time>
      </trkpt>
      <trkpt lat="42.49773" lon="2.35638">
        <ele>960</ele>
        <time>2024-09-18T06:00:07Z</time>
      </trkpt>
      <trkpt lat="42.49775" lon="2.35641">
        <ele>959</ele>
        <time>2024-09-18T06:00:09Z</time>
      </trkpt>
      <trkpt lat="42.49777" lon="2.35644">
        <ele>959</ele>
        <time>2024-09-18T06:00:11Z</time>
      </trkpt>
      <trkpt lat="42.49778" lon="2.35647">
        <ele>959</ele>
        <time>2024-09-18T06:00:13Z</time>
      </trkpt>
      <trkpt lat="42.4978" lon="2.35649">
        <ele>959</ele>
        <time>2024-09-18T06:00:15Z</time>
      </trkpt>
      <trkpt lat="42.49782" lon="2.35652">
        <ele>959</ele>
        <time>2024-09-18T06:00:17Z</time>
      </trkpt>
      <trkpt lat="42.49785" lon="2.35654">
        <ele>959</ele>
        <time>2024-09-18T06:00:19Z</time>
      </trkpt>
      <trkpt lat="42.49788" lon="2.35657">
        <ele>957</ele>
        <time>2024-09-18T06:00:22Z</time>
      </trkpt>
      <trkpt lat="42.4979" lon="2.35659">
        <ele>957</ele>
        <time>2024-09-18T06:00:24Z</time>
      </trkpt>
      <trkpt lat="42.49793" lon="2.3566">
        <ele>958</ele>
        <time>2024-09-18T06:00:26Z</time>
      </trkpt>
      <trkpt lat="42.49796" lon="2.35663">
        <ele>957</ele>
        <time>2024-09-18T06:00:29Z</time>
      </trkpt>
      <trkpt lat="42.49799" lon="2.35665">
        <ele>958</ele>
        <time>2024-09-18T06:00:31Z</time>
      </trkpt>
      <trkpt lat="42.49801" lon="2.35667">
        <ele>958</ele>
        <time>2024-09-18T06:00:33Z</time>
      </trkpt>
      <trkpt lat="42.49802" lon="2.3567">
        <ele>957</ele>
        <time>2024-09-18T06:00:35Z</time>
      </trkpt>
      <trkpt lat="42.49805" lon="2.35674">
        <ele>955</ele>
        <time>2024-09-18T06:00:37Z</time>
      </trkpt>
      <trkpt lat="42.49807" lon="2.35676">
        <ele>956</ele>
        <time>2024-09-18T06:00:39Z</time>
      </trkpt>
      <trkpt lat="42.4981" lon="2.35677">
        <ele>955</ele>
        <time>2024-09-18T06:00:41Z</time>
      </trkpt>
      <trkpt lat="42.49813" lon="2.3568">
        <ele>954</ele>
        <time>2024-09-18T06:00:44Z</time>
      </trkpt>
      <trkpt lat="42.49816" lon="2.35682">
        <ele>953</ele>
        <time>2024-09-18T06:00:46Z</time>
      </trkpt>
      <trkpt lat="42.49819" lon="2.35683">
        <ele>953</ele>
        <time>2024-09-18T06:00:48Z</time>
      </trkpt>
      <trkpt lat="42.49821" lon="2.35685">
        <ele>953</ele>
        <time>2024-09-18T06:00:50Z</time>
      </trkpt>
      <trkpt lat="42.49824" lon="2.35688">
        <ele>953</ele>
        <time>2024-09-18T06:00:53Z</time>
      </trkpt>
      <trkpt lat="42.49826" lon="2.3569">
        <ele>953</ele>
        <time>2024-09-18T06:00:55Z</time>
      </trkpt>
      <trkpt lat="42.4983" lon="2.35692">
        <ele>952</ele>
        <time>2024-09-18T06:00:58Z</time>
      </trkpt>
      <trkpt lat="42.49833" lon="2.35694">
        <ele>953</ele>
        <time>2024-09-18T06:01:01Z</time>
      </trkpt>
      <trkpt lat="42.49836" lon="2.35697">
        <ele>953</ele>
        <time>2024-09-18T06:01:04Z</time>
      </trkpt>
      <trkpt lat="42.49838" lon="2.35702">
        <ele>953</ele>
        <time>2024-09-18T06:01:06Z</time>
      </trkpt>
      <trkpt lat="42.49841" lon="2.35705">
        <ele>952</ele>
        <time>2024-09-18T06:01:09Z</time>
      </trkpt>
      <trkpt lat="42.49843" lon="2.35709">
        <ele>951</ele>
        <time>2024-09-18T06:01:12Z</time>
      </trkpt>
      <trkpt lat="42.49846" lon="2.35712">
        <ele>950</ele>
        <time>2024-09-18T06:01:14Z</time>
      </trkpt>
      <trkpt lat="42.49849" lon="2.35714">
        <ele>951</ele>
        <time>2024-09-18T06:01:16Z</time>
      </trkpt>
      <trkpt lat="42.49851" lon="2.35716">
        <ele>951</ele>
        <time>2024-09-18T06:01:18Z</time>
      </trkpt>
      <trkpt lat="42.49853" lon="2.35719">
        <ele>950</ele>
        <time>2024-09-18T06:01:20Z</time>
      </trkpt>
      <trkpt lat="42.49855" lon="2.35721">
        <ele>950</ele>
        <time>2024-09-18T06:01:22Z</time>
      </trkpt>
      <trkpt lat="42.49858" lon="2.35723">
        <ele>948</ele>
        <time>2024-09-18T06:01:25Z</time>
      </trkpt>
      <trkpt lat="42.4986" lon="2.35726">
        <ele>947</ele>
        <time>2024-09-18T06:01:27Z</time>
      </trkpt>
      <trkpt lat="42.49863" lon="2.35729">
        <ele>947</ele>
        <time>2024-09-18T06:01:30Z</time>
      </trkpt>
      <trkpt lat="42.49865" lon="2.35732">
        <ele>946</ele>
        <time>2024-09-18T06:01:32Z</time>
      </trkpt>
      <trkpt lat="42.49868" lon="2.35735">
        <ele>944</ele>
        <time>2024-09-18T06:01:35Z</time>
      </trkpt>
      <trkpt lat="42.4987" lon="2.35739">
        <ele>945</ele>
        <time>2024-09-18T06:01:37Z</time>
      </trkpt>
      <trkpt lat="42.49873" lon="2.35741">
        <ele>944</ele>
        <time>2024-09-18T06:01:40Z</time>
      </trkpt>
      <trkpt lat="42.49875" lon="2.35744">
        <ele>944</ele>
        <time>2024-09-18T06:01:42Z</time>
      </trkpt>
      <trkpt lat="42.49878" lon="2.35747">
        <ele>943</ele>
        <time>2024-09-18T06:01:45Z</time>
      </trkpt>
      <trkpt lat="42.4988" lon="2.3575">
        <ele>943</ele>
        <time>2024-09-18T06:01:47Z</time>
      </trkpt>
      <trkpt lat="42.49883" lon="2.35754">
        <ele>943</ele>
        <time>2024-09-18T06:01:50Z</time>
      </trkpt>
      <trkpt lat="42.49885" lon="2.35758">
        <ele>943</ele>
        <time>2024-09-18T06:01:53Z</time>
      </trkpt>
      <trkpt lat="42.49887" lon="2.35762">
        <ele>943</ele>
        <time>2024-09-18T06:01:55Z</time>
      </trkpt>
      <trkpt lat="42.49888" lon="2.35766">
        <ele>942</ele>
        <time>2024-09-18T06:01:57Z</time>
      </trkpt>
      <trkpt lat="42.49888" lon="2.3577">
        <ele>942</ele>
        <time>2024-09-18T06:01:59Z</time>
      </trkpt>
      <trkpt lat="42.49888" lon="2.35774">
        <ele>942</ele>
        <time>2024-09-18T06:02:01Z</time>
      </trkpt>
      <trkpt lat="42.49887" lon="2.35778">
        <ele>943</ele>
        <time>2024-09-18T06:02:03Z</time>
      </trkpt>
      <trkpt lat="42.49886" lon="2.35782">
        <ele>944</ele>
        <time>2024-09-18T06:02:06Z</time>
      </trkpt>
      <trkpt lat="42.49885" lon="2.35787">
        <ele>943</ele>
        <time>2024-09-18T06:02:08Z</time>
      </trkpt>
      <trkpt lat="42.49884" lon="2.35791">
        <ele>943</ele>
        <time>2024-09-18T06:02:11Z</time>
      </trkpt>
      <trkpt lat="42.49883" lon="2.35794">
        <ele>943</ele>
        <time>2024-09-18T06:02:13Z</time>
      </trkpt>
      <trkpt lat="42.49883" lon="2.35798">
        <ele>943</ele>
        <time>2024-09-18T06:02:15Z</time>
      </trkpt>
      <trkpt lat="42.49884" lon="2.35802">
        <ele>943</ele>
        <time>2024-09-18T06:02:18Z</time>
      </trkpt>
      <trkpt lat="42.49886" lon="2.35805">
        <ele>942</ele>
        <time>2024-09-18T06:02:20Z</time>
      </trkpt>
      <trkpt lat="42.49888" lon="2.35808">
        <ele>942</ele>
        <time>2024-09-18T06:02:23Z</time>
      </trkpt>
      <trkpt lat="42.4989" lon="2.35812">
        <ele>940</ele>
        <time>2024-09-18T06:02:26Z</time>
      </trkpt>
      <trkpt lat="42.49893" lon="2.35814">
        <ele>941</ele>
        <time>2024-09-18T06:02:28Z</time>
      </trkpt>
      <trkpt lat="42.49896" lon="2.35816">
        <ele>941</ele>
        <time>2024-09-18T06:02:30Z</time>
      </trkpt>
      <trkpt lat="42.49899" lon="2.35818">
        <ele>940</ele>
        <time>2024-09-18T06:02:33Z</time>
      </trkpt>
      <trkpt lat="42.49903" lon="2.35821">
        <ele>942</ele>
        <time>2024-09-18T06:02:36Z</time>
      </trkpt>
      <trkpt lat="42.49906" lon="2.35823">
        <ele>940</ele>
        <time>2024-09-18T06:02:40Z</time>
      </trkpt>
      <trkpt lat="42.49908" lon="2.35826">
        <ele>938</ele>
        <time>2024-09-18T06:02:47Z</time>
      </trkpt>
      <trkpt lat="42.4991" lon="2.35829">
        <ele>939</ele>
        <time>2024-09-18T06:02:49Z</time>
      </trkpt>
      <trkpt lat="42.49911" lon="2.35833">
        <ele>940</ele>
        <time>2024-09-18T06:02:58Z</time>
      </trkpt>
      <trkpt lat="42.49912" lon="2.35837">
        <ele>940</ele>
        <time>2024-09-18T06:03:01Z</time>
      </trkpt>
      <trkpt lat="42.49914" lon="2.35839">
        <ele>940</ele>
        <time>2024-09-18T06:03:03Z</time>
      </trkpt>
      <trkpt lat="42.49917" lon="2.35841">
        <ele>939</ele>
        <time>2024-09-18T06:03:06Z</time>
      </trkpt>
      <trkpt lat="42.4992" lon="2.35842">
        <ele>940</ele>
        <time>2024-09-18T06:03:09Z</time>
      </trkpt>
      <trkpt lat="42.49923" lon="2.35842">
        <ele>940</ele>
        <time>2024-09-18T06:03:11Z</time>
      </trkpt>
      <trkpt lat="42.49926" lon="2.35841">
        <ele>939</ele>
        <time>2024-09-18T06:03:14Z</time>
      </trkpt>
      <trkpt lat="42.4993" lon="2.35841">
        <ele>939</ele>
        <time>2024-09-18T06:03:18Z</time>
      </trkpt>
      <trkpt lat="42.49934" lon="2.35843">
        <ele>939</ele>
        <time>2024-09-18T06:03:20Z</time>
      </trkpt>
      <trkpt lat="42.49937" lon="2.35846">
        <ele>938</ele>
        <time>2024-09-18T06:03:22Z</time>
      </trkpt>
      <trkpt lat="42.4994" lon="2.35848">
        <ele>937</ele>
        <time>2024-09-18T06:03:25Z</time>
      </trkpt>
      <trkpt lat="42.49943" lon="2.35851">
        <ele>937</ele>
        <time>2024-09-18T06:03:27Z</time>
      </trkpt>
      <trkpt lat="42.49945" lon="2.35853">
        <ele>936</ele>
        <time>2024-09-18T06:03:30Z</time>
      </trkpt>
      <trkpt lat="42.49948" lon="2.35853">
        <ele>938</ele>
        <time>2024-09-18T06:03:31Z</time>
      </trkpt>
      <trkpt lat="42.49951" lon="2.35856">
        <ele>937</ele>
        <time>2024-09-18T06:03:34Z</time>
      </trkpt>
      <trkpt lat="42.49953" lon="2.35859">
        <ele>936</ele>
        <time>2024-09-18T06:03:36Z</time>
      </trkpt>
      <trkpt lat="42.49954" lon="2.35862">
        <ele>936</ele>
        <time>2024-09-18T06:03:38Z</time>
      </trkpt>
      <trkpt lat="42.49956" lon="2.35866">
        <ele>938</ele>
        <time>2024-09-18T06:03:40Z</time>
      </trkpt>
      <trkpt lat="42.49959" lon="2.35869">
        <ele>938</ele>
        <time>2024-09-18T06:03:42Z</time>
      </trkpt>
      <trkpt lat="42.49961" lon="2.35873">
        <ele>937</ele>
        <time>2024-09-18T06:03:46Z</time>
      </trkpt>
      <trkpt lat="42.49963" lon="2.35877">
        <ele>938</ele>
        <time>2024-09-18T06:03:48Z</time>
      </trkpt>
      <trkpt lat="42.49965" lon="2.3588">
        <ele>938</ele>
        <time>2024-09-18T06:03:50Z</time>
      </trkpt>
      <trkpt lat="42.49967" lon="2.35883">
        <ele>938</ele>
        <time>2024-09-18T06:03:52Z</time>
      </trkpt>
      <trkpt lat="42.49969" lon="2.35887">
        <ele>938</ele>
        <time>2024-09-18T06:03:54Z</time>
      </trkpt>
      <trkpt lat="42.49971" lon="2.35889">
        <ele>939</ele>
        <time>2024-09-18T06:03:56Z</time>
      </trkpt>
      <trkpt lat="42.49973" lon="2.35892">
        <ele>939</ele>
        <time>2024-09-18T06:03:58Z</time>
      </trkpt>
      <trkpt lat="42.49974" lon="2.35895">
        <ele>938</ele>
        <time>2024-09-18T06:04:00Z</time>
      </trkpt>
      <trkpt lat="42.49976" lon="2.35899">
        <ele>939</ele>
        <time>2024-09-18T06:04:02Z</time>
      </trkpt>
      <trkpt lat="42.49977" lon="2.35902">
        <ele>939</ele>
        <time>2024-09-18T06:04:04Z</time>
      </trkpt>
      <trkpt lat="42.49979" lon="2.35906">
        <ele>940</ele>
        <time>2024-09-18T06:04:07Z</time>
      </trkpt>
      <trkpt lat="42.49981" lon="2.3591">
        <ele>940</ele>
        <time>2024-09-18T06:04:09Z</time>
      </trkpt>
      <trkpt lat="42.49982" lon="2.35914">
        <ele>940</ele>
        <time>2024-09-18T06:04:11Z</time>
      </trkpt>
      <trkpt lat="42.49983" lon="2.35917">
        <ele>940</ele>
        <time>2024-09-18T06:04:13Z</time>
      </trkpt>
      <trkpt lat="42.49985" lon="2.35921">
        <ele>940</ele>
        <time>2024-09-18T06:04:15Z</time>
      </trkpt>
      <trkpt lat="42.49986" lon="2.35924">
        <ele>940</ele>
        <time>2024-09-18T06:04:18Z</time>
      </trkpt>
      <trkpt lat="42.49988" lon="2.35928">
        <ele>942</ele>
        <time>2024-09-18T06:04:20Z</time>
      </trkpt>
      <trkpt lat="42.4999" lon="2.35932">
        <ele>940</ele>
        <time>2024-09-18T06:04:23Z</time>
      </trkpt>
      <trkpt lat="42.49992" lon="2.35936">
        <ele>941</ele>
        <time>2024-09-18T06:04:26Z</time>
      </trkpt>
      <trkpt lat="42.49993" lon="2.3594">
        <ele>941</ele>
        <time>2024-09-18T06:04:29Z</time>
      </trkpt>
      <trkpt lat="42.49996" lon="2.35943">
        <ele>941</ele>
        <time>2024-09-18T06:04:31Z</time>
      </trkpt>
      <trkpt lat="42.49997" lon="2.35946">
        <ele>938</ele>
        <time>2024-09-18T06:04:35Z</time>
      </trkpt>
      <trkpt lat="42.49999" lon="2.35949">
        <ele>939</ele>
        <time>2024-09-18T06:04:37Z</time>
      </trkpt>
      <trkpt lat="42.50002" lon="2.35951">
        <ele>941</ele>
        <time>2024-09-18T06:04:39Z</time>
      </trkpt>
      <trkpt lat="42.50005" lon="2.35954">
        <ele>940</ele>
        <time>2024-09-18T06:04:42Z</time>
      </trkpt>
      <trkpt lat="42.50007" lon="2.35957">
        <ele>940</ele>
        <time>2024-09-18T06:04:44Z</time>
      </trkpt>
      <trkpt lat="42.5001" lon="2.35959">
        <ele>939</ele>
        <time>2024-09-18T06:04:47Z</time>
      </trkpt>
      <trkpt lat="42.50013" lon="2.35961">
        <ele>940</ele>
        <time>2024-09-18T06:04:49Z</time>
      </trkpt>
      <trkpt lat="42.50016" lon="2.35962">
        <ele>940</ele>
        <time>2024-09-18T06:04:51Z</time>
      </trkpt>
      <trkpt lat="42.50019" lon="2.35965">
        <ele>940</ele>
        <time>2024-09-18T06:04:55Z</time>
      </trkpt>
      <trkpt lat="42.50021" lon="2.35967">
        <ele>940</ele>
        <time>2024-09-18T06:04:57Z</time>
      </trkpt>
      <trkpt lat="42.50024" lon="2.3597">
        <ele>940</ele>
        <time>2024-09-18T06:05:00Z</time>
      </trkpt>
      <trkpt lat="42.50028" lon="2.35972">
        <ele>941</ele>
        <time>2024-09-18T06:05:02Z</time>
      </trkpt>
      <trkpt lat="42.50031" lon="2.35974">
        <ele>940</ele>
        <time>2024-09-18T06:05:04Z</time>
      </trkpt>
      <trkpt lat="42.50034" lon="2.35976">
        <ele>940</ele>
        <time>2024-09-18T06:05:06Z</time>
      </trkpt>
      <trkpt lat="42.50037" lon="2.35978">
        <ele>939</ele>
        <time>2024-09-18T06:05:08Z</time>
      </trkpt>
      <trkpt lat="42.50039" lon="2.3598">
        <ele>938</ele>
        <time>2024-09-18T06:05:10Z</time>
      </trkpt>
      <trkpt lat="42.50043" lon="2.35981">
        <ele>938</ele>
        <time>2024-09-18T06:05:12Z</time>
      </trkpt>
      <trkpt lat="42.50046" lon="2.35982">
        <ele>939</ele>
        <time>2024-09-18T06:05:14Z</time>
      </trkpt>
      <trkpt lat="42.50049" lon="2.35983">
        <ele>938</ele>
        <time>2024-09-18T06:05:17Z</time>
      </trkpt>
      <trkpt lat="42.50052" lon="2.35985">
        <ele>936</ele>
        <time>2024-09-18T06:05:20Z</time>
      </trkpt>
      <trkpt lat="42.50056" lon="2.35987">
        <ele>937</ele>
        <time>2024-09-18T06:05:22Z</time>
      </trkpt>
      <trkpt lat="42.50058" lon="2.35988">
        <ele>936</ele>
        <time>2024-09-18T06:05:24Z</time>
      </trkpt>
      <trkpt lat="42.50061" lon="2.35989">
        <ele>937</ele>
        <time>2024-09-18T06:05:26Z</time>
      </trkpt>
      <trkpt lat="42.50064" lon="2.35989">
        <ele>935</ele>
        <time>2024-09-18T06:05:28Z</time>
      </trkpt>
      <trkpt lat="42.50067" lon="2.3599">
        <ele>936</ele>
        <time>2024-09-18T06:05:30Z</time>
      </trkpt>
      <trkpt lat="42.5007" lon="2.35991">
        <ele>936</ele>
        <time>2024-09-18T06:05:35Z</time>
      </trkpt>
      <trkpt lat="42.50073" lon="2.35993">
        <ele>936</ele>
        <time>2024-09-18T06:05:37Z</time>
      </trkpt>
      <trkpt lat="42.50076" lon="2.35994">
        <ele>935</ele>
        <time>2024-09-18T06:05:40Z</time>
      </trkpt>
      <trkpt lat="42.50079" lon="2.35995">
        <ele>935</ele>
        <time>2024-09-18T06:05:42Z</time>
      </trkpt>
      <trkpt lat="42.50082" lon="2.35997">
        <ele>934</ele>
        <time>2024-09-18T06:05:44Z</time>
      </trkpt>
      <trkpt lat="42.50085" lon="2.35999">
        <ele>934</ele>
        <time>2024-09-18T06:05:46Z</time>
      </trkpt>
      <trkpt lat="42.50087" lon="2.36">
        <ele>934</ele>
        <time>2024-09-18T06:05:48Z</time>
      </trkpt>
      <trkpt lat="42.5009" lon="2.36001">
        <ele>934</ele>
        <time>2024-09-18T06:05:50Z</time>
      </trkpt>
      <trkpt lat="42.50093" lon="2.36003">
        <ele>934</ele>
        <time>2024-09-18T06:05:52Z</time>
      </trkpt>
      <trkpt lat="42.50096" lon="2.36004">
        <ele>934</ele>
        <time>2024-09-18T06:05:54Z</time>
      </trkpt>
      <trkpt lat="42.50098" lon="2.36006">
        <ele>935</ele>
        <time>2024-09-18T06:05:56Z</time>
      </trkpt>
      <trkpt lat="42.50102" lon="2.36008">
        <ele>934</ele>
        <time>2024-09-18T06:05:59Z</time>
      </trkpt>
      <trkpt lat="42.50105" lon="2.3601">
        <ele>934</ele>
        <time>2024-09-18T06:06:01Z</time>
      </trkpt>
      <trkpt lat="42.50108" lon="2.3601">
        <ele>934</ele>
        <time>2024-09-18T06:06:03Z</time>
      </trkpt>
      <trkpt lat="42.5011" lon="2.36011">
        <ele>935</ele>
        <time>2024-09-18T06:06:05Z</time>
      </trkpt>
      <trkpt lat="42.50113" lon="2.36011">
        <ele>934</ele>
        <time>2024-09-18T06:06:08Z</time>
      </trkpt>
      <trkpt lat="42.50116" lon="2.36011">
        <ele>934</ele>
        <time>2024-09-18T06:06:10Z</time>
      </trkpt>
      <trkpt lat="42.50119" lon="2.36011">
        <ele>934</ele>
        <time>2024-09-18T06:06:13Z</time>
      </trkpt>
      <trkpt lat="42.50123" lon="2.36011">
        <ele>933</ele>
        <time>2024-09-18T06:06:16Z</time>
      </trkpt>
      <trkpt lat="42.50127" lon="2.36011">
        <ele>932</ele>
        <time>2024-09-18T06:06:19Z</time>
      </trkpt>
      <trkpt lat="42.5013" lon="2.36011">
        <ele>932</ele>
        <time>2024-09-18T06:06:23Z</time>
      </trkpt>
      <trkpt lat="42.50134" lon="2.36011">
        <ele>932</ele>
        <time>2024-09-18T06:06:26Z</time>
      </trkpt>
      <trkpt lat="42.50138" lon="2.36011">
        <ele>933</ele>
        <time>2024-09-18T06:06:29Z</time>
      </trkpt>
      <trkpt lat="42.50141" lon="2.36011">
        <ele>932</ele>
        <time>2024-09-18T06:06:31Z</time>
      </trkpt>
      <trkpt lat="42.50145" lon="2.36011">
        <ele>932</ele>
        <time>2024-09-18T06:06:34Z</time>
      </trkpt>
      <trkpt lat="42.50148" lon="2.36011">
        <ele>932</ele>
        <time>2024-09-18T06:06:36Z</time>
      </trkpt>
      <trkpt lat="42.50151" lon="2.36012">
        <ele>932</ele>
        <time>2024-09-18T06:06:38Z</time>
      </trkpt>
      <trkpt lat="42.50154" lon="2.36013">
        <ele>933</ele>
        <time>2024-09-18T06:06:41Z</time>
      </trkpt>
      <trkpt lat="42.50158" lon="2.36013">
        <ele>934</ele>
        <time>2024-09-18T06:06:44Z</time>
      </trkpt>
      <trkpt lat="42.50161" lon="2.36014">
        <ele>934</ele>
        <time>2024-09-18T06:06:46Z</time>
      </trkpt>
      <trkpt lat="42.50164" lon="2.36014">
        <ele>933</ele>
        <time>2024-09-18T06:06:48Z</time>
      </trkpt>
      <trkpt lat="42.50167" lon="2.36016">
        <ele>932</ele>
        <time>2024-09-18T06:06:51Z</time>
      </trkpt>
      <trkpt lat="42.50171" lon="2.36016">
        <ele>932</ele>
        <time>2024-09-18T06:06:53Z</time>
      </trkpt>
      <trkpt lat="42.50174" lon="2.36017">
        <ele>932</ele>
        <time>2024-09-18T06:06:55Z</time>
      </trkpt>
      <trkpt lat="42.50177" lon="2.36018">
        <ele>932</ele>
        <time>2024-09-18T06:06:58Z</time>
      </trkpt>
      <trkpt lat="42.5018" lon="2.36019">
        <ele>933</ele>
        <time>2024-09-18T06:07:01Z</time>
      </trkpt>
      <trkpt lat="42.50184" lon="2.36019">
        <ele>932</ele>
        <time>2024-09-18T06:07:04Z</time>
      </trkpt>
      <trkpt lat="42.50187" lon="2.36019">
        <ele>931</ele>
        <time>2024-09-18T06:07:06Z</time>
      </trkpt>
      <trkpt lat="42.5019" lon="2.3602">
        <ele>930</ele>
        <time>2024-09-18T06:07:08Z</time>
      </trkpt>
      <trkpt lat="42.50193" lon="2.36021">
        <ele>930</ele>
        <time>2024-09-18T06:07:11Z</time>
      </trkpt>
      <trkpt lat="42.50197" lon="2.3602">
        <ele>930</ele>
        <time>2024-09-18T06:07:15Z</time>
      </trkpt>
      <trkpt lat="42.50199" lon="2.36019">
        <ele>930</ele>
        <time>2024-09-18T06:07:18Z</time>
      </trkpt>
      <trkpt lat="42.50202" lon="2.36019">
        <ele>930</ele>
        <time>2024-09-18T06:07:22Z</time>
      </trkpt>
      <trkpt lat="42.50206" lon="2.36019">
        <ele>929</ele>
        <time>2024-09-18T06:07:26Z</time>
      </trkpt>
      <trkpt lat="42.50209" lon="2.3602">
        <ele>929</ele>
        <time>2024-09-18T06:07:30Z</time>
      </trkpt>
      <trkpt lat="42.50212" lon="2.36021">
        <ele>931</ele>
        <time>2024-09-18T06:07:35Z</time>
      </trkpt>
      <trkpt lat="42.50215" lon="2.36021">
        <ele>931</ele>
        <time>2024-09-18T06:07:40Z</time>
      </trkpt>
      <trkpt lat="42.50218" lon="2.36022">
        <ele>932</ele>
        <time>2024-09-18T06:07:46Z</time>
      </trkpt>
      <trkpt lat="42.50221" lon="2.36024">
        <ele>932</ele>
        <time>2024-09-18T06:07:49Z</time>
      </trkpt>
      <trkpt lat="42.50223" lon="2.36026">
        <ele>933</ele>
        <time>2024-09-18T06:07:53Z</time>
      </trkpt>
      <trkpt lat="42.50226" lon="2.36027">
        <ele>933</ele>
        <time>2024-09-18T06:07:58Z</time>
      </trkpt>
      <trkpt lat="42.5023" lon="2.36028">
        <ele>931</ele>
        <time>2024-09-18T06:08:02Z</time>
      </trkpt>
      <trkpt lat="42.50233" lon="2.3603">
        <ele>931</ele>
        <time>2024-09-18T06:08:06Z</time>
      </trkpt>
      <trkpt lat="42.50236" lon="2.3603">
        <ele>931</ele>
        <time>2024-09-18T06:08:09Z</time>
      </trkpt>
      <trkpt lat="42.50239" lon="2.36031">
        <ele>932</ele>
        <time>2024-09-18T06:08:13Z</time>
      </trkpt>
      <trkpt lat="42.50242" lon="2.36031">
        <ele>933</ele>
        <time>2024-09-18T06:08:16Z</time>
      </trkpt>
      <trkpt lat="42.50246" lon="2.36031">
        <ele>934</ele>
        <time>2024-09-18T06:08:20Z</time>
      </trkpt>
      <trkpt lat="42.50249" lon="2.36031">
        <ele>939</ele>
        <time>2024-09-18T06:08:24Z</time>
      </trkpt>
      <trkpt lat="42.50253" lon="2.3603">
        <ele>937</ele>
        <time>2024-09-18T06:08:26Z</time>
      </trkpt>
      <trkpt lat="42.50256" lon="2.36029">
        <ele>937</ele>
        <time>2024-09-18T06:08:30Z</time>
      </trkpt>
      <trkpt lat="42.5026" lon="2.36029">
        <ele>938</ele>
        <time>2024-09-18T06:08:34Z</time>
      </trkpt>
      <trkpt lat="42.50263" lon="2.36028">
        <ele>937</ele>
        <time>2024-09-18T06:08:36Z</time>
      </trkpt>
      <trkpt lat="42.50266" lon="2.36027">
        <ele>937</ele>
        <time>2024-09-18T06:08:40Z</time>
      </trkpt>
      <trkpt lat="42.5027" lon="2.36026">
        <ele>937</ele>
        <time>2024-09-18T06:08:43Z</time>
      </trkpt>
      <trkpt lat="42.50273" lon="2.36025">
        <ele>937</ele>
        <time>2024-09-18T06:08:46Z</time>
      </trkpt>
      <trkpt lat="42.50276" lon="2.36025">
        <ele>937</ele>
        <time>2024-09-18T06:08:50Z</time>
      </trkpt>
      <trkpt lat="42.50279" lon="2.36025">
        <ele>937</ele>
        <time>2024-09-18T06:08:52Z</time>
      </trkpt>
      <trkpt lat="42.50283" lon="2.36026">
        <ele>936</ele>
        <time>2024-09-18T06:08:56Z</time>
      </trkpt>
      <trkpt lat="42.50286" lon="2.36027">
        <ele>938</ele>
        <time>2024-09-18T06:08:59Z</time>
      </trkpt>
      <trkpt lat="42.50288" lon="2.3603">
        <ele>940</ele>
        <time>2024-09-18T06:09:01Z</time>
      </trkpt>
      <trkpt lat="42.50291" lon="2.36032">
        <ele>940</ele>
        <time>2024-09-18T06:09:04Z</time>
      </trkpt>
      <trkpt lat="42.50294" lon="2.36034">
        <ele>940</ele>
        <time>2024-09-18T06:09:07Z</time>
      </trkpt>
      <trkpt lat="42.50297" lon="2.36036">
        <ele>940</ele>
        <time>2024-09-18T06:09:10Z</time>
      </trkpt>
      <trkpt lat="42.503" lon="2.36039">
        <ele>940</ele>
        <time>2024-09-18T06:09:13Z</time>
      </trkpt>
      <trkpt lat="42.50302" lon="2.36042">
        <ele>939</ele>
        <time>2024-09-18T06:09:17Z</time>
      </trkpt>
      <trkpt lat="42.50304" lon="2.36045">
        <ele>940</ele>
        <time>2024-09-18T06:09:19Z</time>
      </trkpt>
      <trkpt lat="42.50305" lon="2.36049">
        <ele>940</ele>
        <time>2024-09-18T06:09:23Z</time>
      </trkpt>
      <trkpt lat="42.50307" lon="2.36052">
        <ele>939</ele>
        <time>2024-09-18T06:09:26Z</time>
      </trkpt>
      <trkpt lat="42.50309" lon="2.36055">
        <ele>940</ele>
        <time>2024-09-18T06:09:28Z</time>
      </trkpt>
      <trkpt lat="42.50311" lon="2.36059">
        <ele>940</ele>
        <time>2024-09-18T06:09:31Z</time>
      </trkpt>
      <trkpt lat="42.50313" lon="2.36063">
        <ele>941</ele>
        <time>2024-09-18T06:09:34Z</time>
      </trkpt>
      <trkpt lat="42.50315" lon="2.36067">
        <ele>940</ele>
        <time>2024-09-18T06:09:37Z</time>
      </trkpt>
      <trkpt lat="42.50316" lon="2.3607">
        <ele>940</ele>
        <time>2024-09-18T06:09:40Z</time>
      </trkpt>
      <trkpt lat="42.50318" lon="2.36074">
        <ele>940</ele>
        <time>2024-09-18T06:09:43Z</time>
      </trkpt>
      <trkpt lat="42.5032" lon="2.36078">
        <ele>939</ele>
        <time>2024-09-18T06:09:46Z</time>
      </trkpt>
      <trkpt lat="42.50321" lon="2.36082">
        <ele>940</ele>
        <time>2024-09-18T06:09:48Z</time>
      </trkpt>
      <trkpt lat="42.50322" lon="2.36086">
        <ele>939</ele>
        <time>2024-09-18T06:09:51Z</time>
      </trkpt>
      <trkpt lat="42.50324" lon="2.3609">
        <ele>940</ele>
        <time>2024-09-18T06:09:54Z</time>
      </trkpt>
      <trkpt lat="42.50325" lon="2.36093">
        <ele>940</ele>
        <time>2024-09-18T06:09:57Z</time>
      </trkpt>
      <trkpt lat="42.50326" lon="2.36097">
        <ele>940</ele>
        <time>2024-09-18T06:10:00Z</time>
      </trkpt>
      <trkpt lat="42.50328" lon="2.36101">
        <ele>939</ele>
        <time>2024-09-18T06:10:03Z</time>
      </trkpt>
      <trkpt lat="42.5033" lon="2.36106">
        <ele>939</ele>
        <time>2024-09-18T06:10:06Z</time>
      </trkpt>
      <trkpt lat="42.50332" lon="2.3611">
        <ele>940</ele>
        <time>2024-09-18T06:10:09Z</time>
      </trkpt>
      <trkpt lat="42.50333" lon="2.36114">
        <ele>939</ele>
        <time>2024-09-18T06:10:12Z</time>
      </trkpt>
      <trkpt lat="42.50335" lon="2.36117">
        <ele>939</ele>
        <time>2024-09-18T06:10:15Z</time>
      </trkpt>
      <trkpt lat="42.50337" lon="2.36121">
        <ele>940</ele>
        <time>2024-09-18T06:10:17Z</time>
      </trkpt>
      <trkpt lat="42.50339" lon="2.36124">
        <ele>940</ele>
        <time>2024-09-18T06:10:19Z</time>
      </trkpt>
      <trkpt lat="42.5034" lon="2.36128">
        <ele>939</ele>
        <time>2024-09-18T06:10:22Z</time>
      </trkpt>
      <trkpt lat="42.50341" lon="2.36132">
        <ele>939</ele>
        <time>2024-09-18T06:10:25Z</time>
      </trkpt>
      <trkpt lat="42.50343" lon="2.36136">
        <ele>941</ele>
        <time>2024-09-18T06:10:28Z</time>
      </trkpt>
      <trkpt lat="42.50343" lon="2.3614">
        <ele>938</ele>
        <time>2024-09-18T06:10:31Z</time>
      </trkpt>
      <trkpt lat="42.50344" lon="2.36144">
        <ele>938</ele>
        <time>2024-09-18T06:10:33Z</time>
      </trkpt>
      <trkpt lat="42.50345" lon="2.36149">
        <ele>938</ele>
        <time>2024-09-18T06:10:37Z</time>
      </trkpt>
      <trkpt lat="42.50345" lon="2.36154">
        <ele>940</ele>
        <time>2024-09-18T06:10:40Z</time>
      </trkpt>
      <trkpt lat="42.50345" lon="2.36159">
        <ele>938</ele>
        <time>2024-09-18T06:10:42Z</time>
      </trkpt>
      <trkpt lat="42.50343" lon="2.36161">
        <ele>940</ele>
        <time>2024-09-18T06:10:43Z</time>
      </trkpt>
      <trkpt lat="42.50341" lon="2.36164">
        <ele>940</ele>
        <time>2024-09-18T06:10:46Z</time>
      </trkpt>
      <trkpt lat="42.50341" lon="2.36168">
        <ele>938</ele>
        <time>2024-09-18T06:10:50Z</time>
      </trkpt>
      <trkpt lat="42.50342" lon="2.36171">
        <ele>938</ele>
        <time>2024-09-18T06:10:53Z</time>
      </trkpt>
      <trkpt lat="42.50344" lon="2.36173">
        <ele>940</ele>
        <time>2024-09-18T06:10:57Z</time>
      </trkpt>
      <trkpt lat="42.50346" lon="2.36176">
        <ele>942</ele>
        <time>2024-09-18T06:10:59Z</time>
      </trkpt>
      <trkpt lat="42.50349" lon="2.36178">
        <ele>941</ele>
        <time>2024-09-18T06:11:03Z</time>
      </trkpt>
      <trkpt lat="42.50352" lon="2.3618">
        <ele>941</ele>
        <time>2024-09-18T06:11:06Z</time>
      </trkpt>
      <trkpt lat="42.50355" lon="2.36182">
        <ele>944</ele>
        <time>2024-09-18T06:11:13Z</time>
      </trkpt>
      <trkpt lat="42.50358" lon="2.36184">
        <ele>944</ele>
        <time>2024-09-18T06:11:17Z</time>
      </trkpt>
      <trkpt lat="42.50361" lon="2.36184">
        <ele>945</ele>
        <time>2024-09-18T06:11:23Z</time>
      </trkpt>
      <trkpt lat="42.50364" lon="2.36185">
        <ele>945</ele>
        <time>2024-09-18T06:11:28Z</time>
      </trkpt>
      <trkpt lat="42.50367" lon="2.36184">
        <ele>945</ele>
        <time>2024-09-18T06:11:33Z</time>
      </trkpt>
      <trkpt lat="42.50369" lon="2.36182">
        <ele>946</ele>
        <time>2024-09-18T06:11:38Z</time>
      </trkpt>
      <trkpt lat="42.50372" lon="2.36181">
        <ele>946</ele>
        <time>2024-09-18T06:11:42Z</time>
      </trkpt>
      <trkpt lat="42.50374" lon="2.3618">
        <ele>947</ele>
        <time>2024-09-18T06:11:48Z</time>
      </trkpt>
      <trkpt lat="42.50378" lon="2.36179">
        <ele>947</ele>
        <time>2024-09-18T06:11:55Z</time>
      </trkpt>
      <trkpt lat="42.50381" lon="2.36179">
        <ele>948</ele>
        <time>2024-09-18T06:11:59Z</time>
      </trkpt>
      <trkpt lat="42.50383" lon="2.36177">
        <ele>947</ele>
        <time>2024-09-18T06:12:04Z</time>
      </trkpt>
      <trkpt lat="42.50385" lon="2.36174">
        <ele>946</ele>
        <time>2024-09-18T06:12:08Z</time>
      </trkpt>
      <trkpt lat="42.50388" lon="2.36171">
        <ele>946</ele>
        <time>2024-09-18T06:12:13Z</time>
      </trkpt>
      <trkpt lat="42.5039" lon="2.36168">
        <ele>946</ele>
        <time>2024-09-18T06:12:17Z</time>
      </trkpt>
      <trkpt lat="42.50392" lon="2.36164">
        <ele>947</ele>
        <time>2024-09-18T06:12:22Z</time>
      </trkpt>
      <trkpt lat="42.50393" lon="2.3616">
        <ele>948</ele>
        <time>2024-09-18T06:12:26Z</time>
      </trkpt>
      <trkpt lat="42.50394" lon="2.36157">
        <ele>949</ele>
        <time>2024-09-18T06:12:30Z</time>
      </trkpt>
      <trkpt lat="42.50394" lon="2.36153">
        <ele>951</ele>
        <time>2024-09-18T06:12:34Z</time>
      </trkpt>
      <trkpt lat="42.50395" lon="2.36149">
        <ele>951</ele>
        <time>2024-09-18T06:12:39Z</time>
      </trkpt>
      <trkpt lat="42.50396" lon="2.36145">
        <ele>952</ele>
        <time>2024-09-18T06:12:43Z</time>
      </trkpt>
      <trkpt lat="42.50397" lon="2.36141">
        <ele>952</ele>
        <time>2024-09-18T06:12:48Z</time>
      </trkpt>
      <trkpt lat="42.50398" lon="2.36137">
        <ele>952</ele>
        <time>2024-09-18T06:12:52Z</time>
      </trkpt>
      <trkpt lat="42.50399" lon="2.36133">
        <ele>951</ele>
        <time>2024-09-18T06:12:57Z</time>
      </trkpt>
      <trkpt lat="42.50399" lon="2.36128">
        <ele>952</ele>
        <time>2024-09-18T06:13:01Z</time>
      </trkpt>
      <trkpt lat="42.504" lon="2.36124">
        <ele>953</ele>
        <time>2024-09-18T06:13:05Z</time>
      </trkpt>
      <trkpt lat="42.504" lon="2.3612">
        <ele>954</ele>
        <time>2024-09-18T06:13:09Z</time>
      </trkpt>
      <trkpt lat="42.504" lon="2.36116">
        <ele>954</ele>
        <time>2024-09-18T06:13:11Z</time>
      </trkpt>
      <trkpt lat="42.504" lon="2.36112">
        <ele>954</ele>
        <time>2024-09-18T06:13:15Z</time>
      </trkpt>
      <trkpt lat="42.50399" lon="2.36107">
        <ele>955</ele>
        <time>2024-09-18T06:13:19Z</time>
      </trkpt>
      <trkpt lat="42.50398" lon="2.36103">
        <ele>955</ele>
        <time>2024-09-18T06:13:22Z</time>
      </trkpt>
      <trkpt lat="42.50398" lon="2.36099">
        <ele>955</ele>
        <time>2024-09-18T06:13:26Z</time>
      </trkpt>
      <trkpt lat="42.50398" lon="2.36094">
        <ele>955</ele>
        <time>2024-09-18T06:13:30Z</time>
      </trkpt>
      <trkpt lat="42.504" lon="2.36089">
        <ele>954</ele>
        <time>2024-09-18T06:13:34Z</time>
      </trkpt>
      <trkpt lat="42.50401" lon="2.36086">
        <ele>954</ele>
        <time>2024-09-18T06:13:37Z</time>
      </trkpt>
      <trkpt lat="42.50403" lon="2.36083">
        <ele>954</ele>
        <time>2024-09-18T06:13:40Z</time>
      </trkpt>
      <trkpt lat="42.50405" lon="2.3608">
        <ele>957</ele>
        <time>2024-09-18T06:13:43Z</time>
      </trkpt>
      <trkpt lat="42.50408" lon="2.36078">
        <ele>957</ele>
        <time>2024-09-18T06:13:47Z</time>
      </trkpt>
      <trkpt lat="42.5041" lon="2.36075">
        <ele>957</ele>
        <time>2024-09-18T06:13:51Z</time>
      </trkpt>
      <trkpt lat="42.50412" lon="2.36073">
        <ele>958</ele>
        <time>2024-09-18T06:13:55Z</time>
      </trkpt>
      <trkpt lat="42.50415" lon="2.36071">
        <ele>960</ele>
        <time>2024-09-18T06:13:58Z</time>
      </trkpt>
      <trkpt lat="42.50417" lon="2.36068">
        <ele>959</ele>
        <time>2024-09-18T06:14:02Z</time>
      </trkpt>
      <trkpt lat="42.5042" lon="2.36067">
        <ele>960</ele>
        <time>2024-09-18T06:14:05Z</time>
      </trkpt>
      <trkpt lat="42.50422" lon="2.36065">
        <ele>959</ele>
        <time>2024-09-18T06:14:09Z</time>
      </trkpt>
      <trkpt lat="42.50425" lon="2.36063">
        <ele>959</ele>
        <time>2024-09-18T06:14:12Z</time>
      </trkpt>
      <trkpt lat="42.50428" lon="2.36063">
        <ele>959</ele>
        <time>2024-09-18T06:14:16Z</time>
      </trkpt>
      <trkpt lat="42.50432" lon="2.36064">
        <ele>959</ele>
        <time>2024-09-18T06:14:19Z</time>
      </trkpt>
      <trkpt lat="42.50436" lon="2.36065">
        <ele>961</ele>
        <time>2024-09-18T06:14:23Z</time>
      </trkpt>
      <trkpt lat="42.50439" lon="2.36066">
        <ele>960</ele>
        <time>2024-09-18T06:14:26Z</time>
      </trkpt>
      <trkpt lat="42.50442" lon="2.36066">
        <ele>959</ele>
        <time>2024-09-18T06:14:30Z</time>
      </trkpt>
      <trkpt lat="42.50447" lon="2.36066">
        <ele>959</ele>
        <time>2024-09-18T06:14:33Z</time>
      </trkpt>
      <trkpt lat="42.5045" lon="2.36067">
        <ele>960</ele>
        <time>2024-09-18T06:14:37Z</time>
      </trkpt>
      <trkpt lat="42.50453" lon="2.36067">
        <ele>960</ele>
        <time>2024-09-18T06:14:39Z</time>
      </trkpt>
      <trkpt lat="42.50456" lon="2.36068">
        <ele>961</ele>
        <time>2024-09-18T06:14:42Z</time>
      </trkpt>
      <trkpt lat="42.50459" lon="2.36068">
        <ele>962</ele>
        <time>2024-09-18T06:14:47Z</time>
      </trkpt>
      <trkpt lat="42.50463" lon="2.36068">
        <ele>962</ele>
        <time>2024-09-18T06:14:50Z</time>
      </trkpt>
      <trkpt lat="42.50466" lon="2.36068">
        <ele>963</ele>
        <time>2024-09-18T06:14:53Z</time>
      </trkpt>
      <trkpt lat="42.50469" lon="2.36069">
        <ele>961</ele>
        <time>2024-09-18T06:14:55Z</time>
      </trkpt>
      <trkpt lat="42.50472" lon="2.36068">
        <ele>962</ele>
        <time>2024-09-18T06:14:58Z</time>
      </trkpt>
      <trkpt lat="42.50476" lon="2.36069">
        <ele>963</ele>
        <time>2024-09-18T06:15:02Z</time>
      </trkpt>
      <trkpt lat="42.5048" lon="2.36069">
        <ele>962</ele>
        <time>2024-09-18T06:15:05Z</time>
      </trkpt>
      <trkpt lat="42.50483" lon="2.36068">
        <ele>963</ele>
        <time>2024-09-18T06:15:10Z</time>
      </trkpt>
      <trkpt lat="42.50487" lon="2.36068">
        <ele>963</ele>
        <time>2024-09-18T06:15:12Z</time>
      </trkpt>
      <trkpt lat="42.5049" lon="2.36068">
        <ele>964</ele>
        <time>2024-09-18T06:15:15Z</time>
      </trkpt>
      <trkpt lat="42.50494" lon="2.36068">
        <ele>965</ele>
        <time>2024-09-18T06:15:18Z</time>
      </trkpt>
      <trkpt lat="42.50497" lon="2.36069">
        <ele>965</ele>
        <time>2024-09-18T06:15:22Z</time>
      </trkpt>
      <trkpt lat="42.50501" lon="2.3607">
        <ele>965</ele>
        <time>2024-09-18T06:15:25Z</time>
      </trkpt>
      <trkpt lat="42.50504" lon="2.36071">
        <ele>966</ele>
        <time>2024-09-18T06:15:28Z</time>
      </trkpt>
      <trkpt lat="42.50507" lon="2.36071">
        <ele>966</ele>
        <time>2024-09-18T06:15:32Z</time>
      </trkpt>
      <trkpt lat="42.50511" lon="2.36072">
        <ele>966</ele>
        <time>2024-09-18T06:15:36Z</time>
      </trkpt>
      <trkpt lat="42.50515" lon="2.36071">
        <ele>967</ele>
        <time>2024-09-18T06:15:40Z</time>
      </trkpt>
      <trkpt lat="42.50518" lon="2.36072">
        <ele>966</ele>
        <time>2024-09-18T06:15:43Z</time>
      </trkpt>
      <trkpt lat="42.50521" lon="2.36073">
        <ele>966</ele>
        <time>2024-09-18T06:15:46Z</time>
      </trkpt>
      <trkpt lat="42.50524" lon="2.36073">
        <ele>966</ele>
        <time>2024-09-18T06:15:48Z</time>
      </trkpt>
      <trkpt lat="42.50527" lon="2.36072">
        <ele>965</ele>
        <time>2024-09-18T06:15:51Z</time>
      </trkpt>
      <trkpt lat="42.5053" lon="2.36072">
        <ele>965</ele>
        <time>2024-09-18T06:15:54Z</time>
      </trkpt>
      <trkpt lat="42.50533" lon="2.36072">
        <ele>966</ele>
        <time>2024-09-18T06:15:57Z</time>
      </trkpt>
      <trkpt lat="42.50536" lon="2.36072">
        <ele>966</ele>
        <time>2024-09-18T06:16:00Z</time>
      </trkpt>
      <trkpt lat="42.5054" lon="2.36073">
        <ele>967</ele>
        <time>2024-09-18T06:16:04Z</time>
      </trkpt>
      <trkpt lat="42.50543" lon="2.36073">
        <ele>966</ele>
        <time>2024-09-18T06:16:08Z</time>
      </trkpt>
      <trkpt lat="42.50546" lon="2.36073">
        <ele>966</ele>
        <time>2024-09-18T06:16:11Z</time>
      </trkpt>
      <trkpt lat="42.50549" lon="2.36073">
        <ele>966</ele>
        <time>2024-09-18T06:16:16Z</time>
      </trkpt>
      <trkpt lat="42.50553" lon="2.36073">
        <ele>966</ele>
        <time>2024-09-18T06:16:21Z</time>
      </trkpt>
      <trkpt lat="42.50556" lon="2.36073">
        <ele>967</ele>
        <time>2024-09-18T06:16:24Z</time>
      </trkpt>
      <trkpt lat="42.50559" lon="2.36073">
        <ele>968</ele>
        <time>2024-09-18T06:16:28Z</time>
      </trkpt>
      <trkpt lat="42.50562" lon="2.36073">
        <ele>973</ele>
        <time>2024-09-18T06:18:54Z</time>
      </trkpt>
      <trkpt lat="42.50565" lon="2.36072">
        <ele>975</ele>
        <time>2024-09-18T06:19:00Z</time>
      </trkpt>
      <trkpt lat="42.50568" lon="2.36071">
        <ele>975</ele>
        <time>2024-09-18T06:19:03Z</time>
      </trkpt>
      <trkpt lat="42.50572" lon="2.3607">
        <ele>974</ele>
        <time>2024-09-18T06:19:07Z</time>
      </trkpt>
      <trkpt lat="42.50575" lon="2.36068">
        <ele>976</ele>
        <time>2024-09-18T06:19:11Z</time>
      </trkpt>
      <trkpt lat="42.50579" lon="2.36067">
        <ele>979</ele>
        <time>2024-09-18T06:19:15Z</time>
      </trkpt>
      <trkpt lat="42.50583" lon="2.36066">
        <ele>979</ele>
        <time>2024-09-18T06:19:20Z</time>
      </trkpt>
      <trkpt lat="42.50587" lon="2.36065">
        <ele>977</ele>
        <time>2024-09-18T06:19:23Z</time>
      </trkpt>
      <trkpt lat="42.5059" lon="2.36063">
        <ele>976</ele>
        <time>2024-09-18T06:19:25Z</time>
      </trkpt>
      <trkpt lat="42.50593" lon="2.36062">
        <ele>975</ele>
        <time>2024-09-18T06:19:28Z</time>
      </trkpt>
      <trkpt lat="42.50596" lon="2.36061">
        <ele>975</ele>
        <time>2024-09-18T06:19:30Z</time>
      </trkpt>
      <trkpt lat="42.50599" lon="2.3606">
        <ele>974</ele>
        <time>2024-09-18T06:19:36Z</time>
      </trkpt>
      <trkpt lat="42.50602" lon="2.3606">
        <ele>974</ele>
        <time>2024-09-18T06:19:39Z</time>
      </trkpt>
      <trkpt lat="42.50605" lon="2.3606">
        <ele>972</ele>
        <time>2024-09-18T06:19:43Z</time>
      </trkpt>
      <trkpt lat="42.50609" lon="2.3606">
        <ele>976</ele>
        <time>2024-09-18T06:19:47Z</time>
      </trkpt>
      <trkpt lat="42.50612" lon="2.3606">
        <ele>977</ele>
        <time>2024-09-18T06:19:50Z</time>
      </trkpt>
      <trkpt lat="42.50614" lon="2.36059">
        <ele>977</ele>
        <time>2024-09-18T06:19:53Z</time>
      </trkpt>
      <trkpt lat="42.50617" lon="2.36058">
        <ele>978</ele>
        <time>2024-09-18T06:19:55Z</time>
      </trkpt>
      <trkpt lat="42.5062" lon="2.36058">
        <ele>978</ele>
        <time>2024-09-18T06:19:58Z</time>
      </trkpt>
      <trkpt lat="42.50623" lon="2.36057">
        <ele>979</ele>
        <time>2024-09-18T06:20:01Z</time>
      </trkpt>
      <trkpt lat="42.50625" lon="2.36054">
        <ele>981</ele>
        <time>2024-09-18T06:20:04Z</time>
      </trkpt>
      <trkpt lat="42.50628" lon="2.36052">
        <ele>981</ele>
        <time>2024-09-18T06:20:07Z</time>
      </trkpt>
      <trkpt lat="42.50631" lon="2.3605">
        <ele>981</ele>
        <time>2024-09-18T06:20:09Z</time>
      </trkpt>
      <trkpt lat="42.50633" lon="2.36047">
        <ele>980</ele>
        <time>2024-09-18T06:20:12Z</time>
      </trkpt>
      <trkpt lat="42.50636" lon="2.36045">
        <ele>978</ele>
        <time>2024-09-18T06:20:16Z</time>
      </trkpt>
      <trkpt lat="42.50639" lon="2.36042">
        <ele>977</ele>
        <time>2024-09-18T06:20:20Z</time>
      </trkpt>
      <trkpt lat="42.5064" lon="2.36038">
        <ele>978</ele>
        <time>2024-09-18T06:20:22Z</time>
      </trkpt>
      <trkpt lat="42.50642" lon="2.36035">
        <ele>977</ele>
        <time>2024-09-18T06:20:25Z</time>
      </trkpt>
      <trkpt lat="42.50644" lon="2.36032">
        <ele>977</ele>
        <time>2024-09-18T06:20:28Z</time>
      </trkpt>
      <trkpt lat="42.50646" lon="2.36028">
        <ele>978</ele>
        <time>2024-09-18T06:20:31Z</time>
      </trkpt>
      <trkpt lat="42.50648" lon="2.36025">
        <ele>978</ele>
        <time>2024-09-18T06:20:34Z</time>
      </trkpt>
      <trkpt lat="42.50651" lon="2.36022">
        <ele>977</ele>
        <time>2024-09-18T06:20:37Z</time>
      </trkpt>
      <trkpt lat="42.50653" lon="2.3602">
        <ele>977</ele>
        <time>2024-09-18T06:20:40Z</time>
      </trkpt>
      <trkpt lat="42.50656" lon="2.36017">
        <ele>980</ele>
        <time>2024-09-18T06:20:44Z</time>
      </trkpt>
      <trkpt lat="42.50658" lon="2.36015">
        <ele>982</ele>
        <time>2024-09-18T06:20:48Z</time>
      </trkpt>
      <trkpt lat="42.50661" lon="2.36014">
        <ele>980</ele>
        <time>2024-09-18T06:20:51Z</time>
      </trkpt>
      <trkpt lat="42.50664" lon="2.36012">
        <ele>979</ele>
        <time>2024-09-18T06:20:54Z</time>
      </trkpt>
      <trkpt lat="42.50668" lon="2.36011">
        <ele>978</ele>
        <time>2024-09-18T06:20:57Z</time>
      </trkpt>
      <trkpt lat="42.50671" lon="2.3601">
        <ele>976</ele>
        <time>2024-09-18T06:21:00Z</time>
      </trkpt>
      <trkpt lat="42.50674" lon="2.36008">
        <ele>978</ele>
        <time>2024-09-18T06:21:05Z</time>
      </trkpt>
      <trkpt lat="42.50678" lon="2.36006">
        <ele>978</ele>
        <time>2024-09-18T06:21:09Z</time>
      </trkpt>
      <trkpt lat="42.50681" lon="2.36005">
        <ele>977</ele>
        <time>2024-09-18T06:21:13Z</time>
      </trkpt>
      <trkpt lat="42.50683" lon="2.36008">
        <ele>977</ele>
        <time>2024-09-18T06:21:16Z</time>
      </trkpt>
      <trkpt lat="42.50685" lon="2.36011">
        <ele>976</ele>
        <time>2024-09-18T06:21:21Z</time>
      </trkpt>
      <trkpt lat="42.50687" lon="2.36014">
        <ele>975</ele>
        <time>2024-09-18T06:21:30Z</time>
      </trkpt>
      <trkpt lat="42.50688" lon="2.36018">
        <ele>978</ele>
        <time>2024-09-18T06:21:33Z</time>
      </trkpt>
      <trkpt lat="42.50689" lon="2.36021">
        <ele>979</ele>
        <time>2024-09-18T06:21:38Z</time>
      </trkpt>
      <trkpt lat="42.50688" lon="2.36023">
        <ele>980</ele>
        <time>2024-09-18T06:21:41Z</time>
      </trkpt>
      <trkpt lat="42.50687" lon="2.36026">
        <ele>981</ele>
        <time>2024-09-18T06:21:44Z</time>
      </trkpt>
      <trkpt lat="42.50686" lon="2.3603">
        <ele>982</ele>
        <time>2024-09-18T06:21:49Z</time>
      </trkpt>
      <trkpt lat="42.50685" lon="2.36034">
        <ele>981</ele>
        <time>2024-09-18T06:21:53Z</time>
      </trkpt>
      <trkpt lat="42.50687" lon="2.36036">
        <ele>982</ele>
        <time>2024-09-18T06:22:12Z</time>
      </trkpt>
      <trkpt lat="42.50688" lon="2.36039">
        <ele>981</ele>
        <time>2024-09-18T06:22:17Z</time>
      </trkpt>
      <trkpt lat="42.50688" lon="2.36043">
        <ele>981</ele>
        <time>2024-09-18T06:22:20Z</time>
      </trkpt>
      <trkpt lat="42.50688" lon="2.36048">
        <ele>981</ele>
        <time>2024-09-18T06:22:24Z</time>
      </trkpt>
      <trkpt lat="42.50689" lon="2.36052">
        <ele>980</ele>
        <time>2024-09-18T06:22:28Z</time>
      </trkpt>
      <trkpt lat="42.5069" lon="2.36055">
        <ele>985</ele>
        <time>2024-09-18T06:22:33Z</time>
      </trkpt>
      <trkpt lat="42.50689" lon="2.36059">
        <ele>987</ele>
        <time>2024-09-18T06:22:35Z</time>
      </trkpt>
      <trkpt lat="42.5069" lon="2.36063">
        <ele>986</ele>
        <time>2024-09-18T06:22:37Z</time>
      </trkpt>
      <trkpt lat="42.50691" lon="2.36067">
        <ele>985</ele>
        <time>2024-09-18T06:22:41Z</time>
      </trkpt>
      <trkpt lat="42.50692" lon="2.36072">
        <ele>984</ele>
        <time>2024-09-18T06:22:46Z</time>
      </trkpt>
      <trkpt lat="42.50693" lon="2.36077">
        <ele>986</ele>
        <time>2024-09-18T06:22:49Z</time>
      </trkpt>
      <trkpt lat="42.50693" lon="2.36082">
        <ele>985</ele>
        <time>2024-09-18T06:22:53Z</time>
      </trkpt>
      <trkpt lat="42.50694" lon="2.36086">
        <ele>984</ele>
        <time>2024-09-18T06:22:56Z</time>
      </trkpt>
      <trkpt lat="42.50694" lon="2.36091">
        <ele>984</ele>
        <time>2024-09-18T06:22:59Z</time>
      </trkpt>
      <trkpt lat="42.50695" lon="2.36095">
        <ele>985</ele>
        <time>2024-09-18T06:23:02Z</time>
      </trkpt>
      <trkpt lat="42.50695" lon="2.361">
        <ele>985</ele>
        <time>2024-09-18T06:23:04Z</time>
      </trkpt>
      <trkpt lat="42.50697" lon="2.36103">
        <ele>986</ele>
        <time>2024-09-18T06:23:12Z</time>
      </trkpt>
      <trkpt lat="42.50696" lon="2.36106">
        <ele>987</ele>
        <time>2024-09-18T06:23:16Z</time>
      </trkpt>
      <trkpt lat="42.50698" lon="2.36109">
        <ele>986</ele>
        <time>2024-09-18T06:23:20Z</time>
      </trkpt>
      <trkpt lat="42.507" lon="2.36112">
        <ele>987</ele>
        <time>2024-09-18T06:23:22Z</time>
      </trkpt>
      <trkpt lat="42.507" lon="2.36116">
        <ele>987</ele>
        <time>2024-09-18T06:23:27Z</time>
      </trkpt>
      <trkpt lat="42.50701" lon="2.3612">
        <ele>988</ele>
        <time>2024-09-18T06:23:34Z</time>
      </trkpt>
      <trkpt lat="42.50703" lon="2.36124">
        <ele>990</ele>
        <time>2024-09-18T06:23:39Z</time>
      </trkpt>
      <trkpt lat="42.50704" lon="2.36127">
        <ele>991</ele>
        <time>2024-09-18T06:23:45Z</time>
      </trkpt>
      <trkpt lat="42.50705" lon="2.36131">
        <ele>992</ele>
        <time>2024-09-18T06:23:51Z</time>
      </trkpt>
      <trkpt lat="42.50706" lon="2.36134">
        <ele>991</ele>
        <time>2024-09-18T06:23:55Z</time>
      </trkpt>
      <trkpt lat="42.50708" lon="2.36138">
        <ele>992</ele>
        <time>2024-09-18T06:24:00Z</time>
      </trkpt>
      <trkpt lat="42.50709" lon="2.36141">
        <ele>992</ele>
        <time>2024-09-18T06:24:05Z</time>
      </trkpt>
      <trkpt lat="42.5071" lon="2.36145">
        <ele>992</ele>
        <time>2024-09-18T06:24:11Z</time>
      </trkpt>
      <trkpt lat="42.50712" lon="2.36149">
        <ele>992</ele>
        <time>2024-09-18T06:24:15Z</time>
      </trkpt>
      <trkpt lat="42.50714" lon="2.36152">
        <ele>993</ele>
        <time>2024-09-18T06:24:18Z</time>
      </trkpt>
      <trkpt lat="42.50716" lon="2.36155">
        <ele>992</ele>
        <time>2024-09-18T06:24:23Z</time>
      </trkpt>
      <trkpt lat="42.50718" lon="2.36158">
        <ele>993</ele>
        <time>2024-09-18T06:24:27Z</time>
      </trkpt>
      <trkpt lat="42.50721" lon="2.36161">
        <ele>993</ele>
        <time>2024-09-18T06:24:32Z</time>
      </trkpt>
      <trkpt lat="42.50722" lon="2.36164">
        <ele>994</ele>
        <time>2024-09-18T06:24:35Z</time>
      </trkpt>
      <trkpt lat="42.50725" lon="2.36166">
        <ele>992</ele>
        <time>2024-09-18T06:24:38Z</time>
      </trkpt>
      <trkpt lat="42.50728" lon="2.36168">
        <ele>993</ele>
        <time>2024-09-18T06:24:42Z</time>
      </trkpt>
      <trkpt lat="42.5073" lon="2.36171">
        <ele>996</ele>
        <time>2024-09-18T06:24:48Z</time>
      </trkpt>
      <trkpt lat="42.50732" lon="2.36173">
        <ele>993</ele>
        <time>2024-09-18T06:24:51Z</time>
      </trkpt>
      <trkpt lat="42.50735" lon="2.36177">
        <ele>997</ele>
        <time>2024-09-18T06:24:53Z</time>
      </trkpt>
      <trkpt lat="42.50737" lon="2.3618">
        <ele>996</ele>
        <time>2024-09-18T06:24:57Z</time>
      </trkpt>
      <trkpt lat="42.50739" lon="2.36182">
        <ele>998</ele>
        <time>2024-09-18T06:25:07Z</time>
      </trkpt>
      <trkpt lat="42.50741" lon="2.36186">
        <ele>996</ele>
        <time>2024-09-18T06:25:12Z</time>
      </trkpt>
      <trkpt lat="42.50743" lon="2.3619">
        <ele>999</ele>
        <time>2024-09-18T06:25:22Z</time>
      </trkpt>
      <trkpt lat="42.50745" lon="2.36193">
        <ele>1001</ele>
        <time>2024-09-18T06:25:26Z</time>
      </trkpt>
      <trkpt lat="42.50748" lon="2.36196">
        <ele>1000</ele>
        <time>2024-09-18T06:25:32Z</time>
      </trkpt>
      <trkpt lat="42.5075" lon="2.36199">
        <ele>1000</ele>
        <time>2024-09-18T06:25:39Z</time>
      </trkpt>
      <trkpt lat="42.50752" lon="2.36201">
        <ele>1002</ele>
        <time>2024-09-18T06:25:42Z</time>
      </trkpt>
      <trkpt lat="42.50755" lon="2.36203">
        <ele>1002</ele>
        <time>2024-09-18T06:25:43Z</time>
      </trkpt>
      <trkpt lat="42.50756" lon="2.36206">
        <ele>1003</ele>
        <time>2024-09-18T06:25:53Z</time>
      </trkpt>
      <trkpt lat="42.50758" lon="2.36207">
        <ele>1006</ele>
        <time>2024-09-18T06:26:00Z</time>
      </trkpt>
      <trkpt lat="42.5076" lon="2.36207">
        <ele>1007</ele>
        <time>2024-09-18T06:26:03Z</time>
      </trkpt>
      <trkpt lat="42.50763" lon="2.36208">
        <ele>1006</ele>
        <time>2024-09-18T06:26:09Z</time>
      </trkpt>
      <trkpt lat="42.50762" lon="2.36209">
        <ele>1008</ele>
        <time>2024-09-18T06:26:16Z</time>
      </trkpt>
      <trkpt lat="42.50764" lon="2.3621">
        <ele>1009</ele>
        <time>2024-09-18T06:26:22Z</time>
      </trkpt>
      <trkpt lat="42.50765" lon="2.36212">
        <ele>1007</ele>
        <time>2024-09-18T06:26:30Z</time>
      </trkpt>
      <trkpt lat="42.50767" lon="2.36215">
        <ele>1008</ele>
        <time>2024-09-18T06:26:35Z</time>
      </trkpt>
      <trkpt lat="42.50768" lon="2.36218">
        <ele>1008</ele>
        <time>2024-09-18T06:26:40Z</time>
      </trkpt>
      <trkpt lat="42.50768" lon="2.36222">
        <ele>1010</ele>
        <time>2024-09-18T06:26:46Z</time>
      </trkpt>
      <trkpt lat="42.50768" lon="2.36226">
        <ele>1011</ele>
        <time>2024-09-18T06:26:51Z</time>
      </trkpt>
      <trkpt lat="42.50768" lon="2.3623">
        <ele>1012</ele>
        <time>2024-09-18T06:26:56Z</time>
      </trkpt>
      <trkpt lat="42.5077" lon="2.36233">
        <ele>1014</ele>
        <time>2024-09-18T06:27:00Z</time>
      </trkpt>
      <trkpt lat="42.50771" lon="2.36237">
        <ele>1014</ele>
        <time>2024-09-18T06:27:05Z</time>
      </trkpt>
      <trkpt lat="42.50771" lon="2.3624">
        <ele>1015</ele>
        <time>2024-09-18T06:27:12Z</time>
      </trkpt>
      <trkpt lat="42.50772" lon="2.36244">
        <ele>1015</ele>
        <time>2024-09-18T06:27:18Z</time>
      </trkpt>
      <trkpt lat="42.50774" lon="2.36247">
        <ele>1017</ele>
        <time>2024-09-18T06:27:26Z</time>
      </trkpt>
      <trkpt lat="42.50776" lon="2.36251">
        <ele>1017</ele>
        <time>2024-09-18T06:27:33Z</time>
      </trkpt>
      <trkpt lat="42.50778" lon="2.36254">
        <ele>1016</ele>
        <time>2024-09-18T06:27:38Z</time>
      </trkpt>
      <trkpt lat="42.5078" lon="2.36258">
        <ele>1015</ele>
        <time>2024-09-18T06:27:42Z</time>
      </trkpt>
      <trkpt lat="42.50782" lon="2.3626">
        <ele>1015</ele>
        <time>2024-09-18T06:27:46Z</time>
      </trkpt>
      <trkpt lat="42.50784" lon="2.36263">
        <ele>1015</ele>
        <time>2024-09-18T06:27:49Z</time>
      </trkpt>
      <trkpt lat="42.50786" lon="2.36266">
        <ele>1016</ele>
        <time>2024-09-18T06:27:53Z</time>
      </trkpt>
      <trkpt lat="42.5079" lon="2.36269">
        <ele>1017</ele>
        <time>2024-09-18T06:27:56Z</time>
      </trkpt>
      <trkpt lat="42.50793" lon="2.3627">
        <ele>1017</ele>
        <time>2024-09-18T06:27:58Z</time>
      </trkpt>
      <trkpt lat="42.50796" lon="2.36272">
        <ele>1017</ele>
        <time>2024-09-18T06:28:01Z</time>
      </trkpt>
      <trkpt lat="42.50798" lon="2.36275">
        <ele>1018</ele>
        <time>2024-09-18T06:28:06Z</time>
      </trkpt>
      <trkpt lat="42.50801" lon="2.36278">
        <ele>1020</ele>
        <time>2024-09-18T06:28:11Z</time>
      </trkpt>
      <trkpt lat="42.50804" lon="2.3628">
        <ele>1020</ele>
        <time>2024-09-18T06:28:14Z</time>
      </trkpt>
      <trkpt lat="42.50806" lon="2.36283">
        <ele>1020</ele>
        <time>2024-09-18T06:28:19Z</time>
      </trkpt>
      <trkpt lat="42.50807" lon="2.36287">
        <ele>1021</ele>
        <time>2024-09-18T06:28:25Z</time>
      </trkpt>
      <trkpt lat="42.50808" lon="2.3629">
        <ele>1022</ele>
        <time>2024-09-18T06:28:33Z</time>
      </trkpt>
      <trkpt lat="42.5081" lon="2.36293">
        <ele>1024</ele>
        <time>2024-09-18T06:28:39Z</time>
      </trkpt>
      <trkpt lat="42.50812" lon="2.36296">
        <ele>1025</ele>
        <time>2024-09-18T06:28:43Z</time>
      </trkpt>
      <trkpt lat="42.50814" lon="2.363">
        <ele>1025</ele>
        <time>2024-09-18T06:28:48Z</time>
      </trkpt>
      <trkpt lat="42.50816" lon="2.36304">
        <ele>1025</ele>
        <time>2024-09-18T06:28:51Z</time>
      </trkpt>
      <trkpt lat="42.50817" lon="2.36307">
        <ele>1026</ele>
        <time>2024-09-18T06:28:56Z</time>
      </trkpt>
      <trkpt lat="42.50819" lon="2.3631">
        <ele>1025</ele>
        <time>2024-09-18T06:28:59Z</time>
      </trkpt>
      <trkpt lat="42.5082" lon="2.36314">
        <ele>1027</ele>
        <time>2024-09-18T06:29:04Z</time>
      </trkpt>
      <trkpt lat="42.50822" lon="2.36317">
        <ele>1026</ele>
        <time>2024-09-18T06:29:07Z</time>
      </trkpt>
      <trkpt lat="42.50824" lon="2.3632">
        <ele>1026</ele>
        <time>2024-09-18T06:29:11Z</time>
      </trkpt>
      <trkpt lat="42.50825" lon="2.36324">
        <ele>1028</ele>
        <time>2024-09-18T06:29:16Z</time>
      </trkpt>
      <trkpt lat="42.50827" lon="2.36328">
        <ele>1028</ele>
        <time>2024-09-18T06:29:20Z</time>
      </trkpt>
      <trkpt lat="42.50827" lon="2.36332">
        <ele>1030</ele>
        <time>2024-09-18T06:29:24Z</time>
      </trkpt>
      <trkpt lat="42.50827" lon="2.36336">
        <ele>1029</ele>
        <time>2024-09-18T06:29:27Z</time>
      </trkpt>
      <trkpt lat="42.50826" lon="2.36341">
        <ele>1029</ele>
        <time>2024-09-18T06:29:32Z</time>
      </trkpt>
      <trkpt lat="42.50826" lon="2.36344">
        <ele>1028</ele>
        <time>2024-09-18T06:29:36Z</time>
      </trkpt>
      <trkpt lat="42.50825" lon="2.36349">
        <ele>1029</ele>
        <time>2024-09-18T06:29:40Z</time>
      </trkpt>
      <trkpt lat="42.50825" lon="2.36353">
        <ele>1029</ele>
        <time>2024-09-18T06:29:46Z</time>
      </trkpt>
      <trkpt lat="42.50825" lon="2.36357">
        <ele>1029</ele>
        <time>2024-09-18T06:29:50Z</time>
      </trkpt>
      <trkpt lat="42.50825" lon="2.36361">
        <ele>1031</ele>
        <time>2024-09-18T06:29:54Z</time>
      </trkpt>
      <trkpt lat="42.50827" lon="2.36364">
        <ele>1032</ele>
        <time>2024-09-18T06:29:57Z</time>
      </trkpt>
      <trkpt lat="42.50829" lon="2.36367">
        <ele>1030</ele>
        <time>2024-09-18T06:30:00Z</time>
      </trkpt>
      <trkpt lat="42.50832" lon="2.3637">
        <ele>1032</ele>
        <time>2024-09-18T06:30:03Z</time>
      </trkpt>
      <trkpt lat="42.50833" lon="2.36374">
        <ele>1031</ele>
        <time>2024-09-18T06:30:07Z</time>
      </trkpt>
      <trkpt lat="42.50835" lon="2.36378">
        <ele>1032</ele>
        <time>2024-09-18T06:30:10Z</time>
      </trkpt>
      <trkpt lat="42.50835" lon="2.36382">
        <ele>1031</ele>
        <time>2024-09-18T06:30:15Z</time>
      </trkpt>
      <trkpt lat="42.50835" lon="2.36387">
        <ele>1030</ele>
        <time>2024-09-18T06:30:20Z</time>
      </trkpt>
      <trkpt lat="42.50835" lon="2.36391">
        <ele>1030</ele>
        <time>2024-09-18T06:30:24Z</time>
      </trkpt>
      <trkpt lat="42.50834" lon="2.36395">
        <ele>1030</ele>
        <time>2024-09-18T06:30:27Z</time>
      </trkpt>
      <trkpt lat="42.50834" lon="2.36399">
        <ele>1030</ele>
        <time>2024-09-18T06:30:29Z</time>
      </trkpt>
      <trkpt lat="42.50836" lon="2.36401">
        <ele>1031</ele>
        <time>2024-09-18T06:30:31Z</time>
      </trkpt>
      <trkpt lat="42.50838" lon="2.36404">
        <ele>1031</ele>
        <time>2024-09-18T06:30:33Z</time>
      </trkpt>
      <trkpt lat="42.5084" lon="2.36407">
        <ele>1033</ele>
        <time>2024-09-18T06:30:38Z</time>
      </trkpt>
      <trkpt lat="42.50841" lon="2.36411">
        <ele>1033</ele>
        <time>2024-09-18T06:30:42Z</time>
      </trkpt>
      <trkpt lat="42.50843" lon="2.36415">
        <ele>1036</ele>
        <time>2024-09-18T06:30:47Z</time>
      </trkpt>
      <trkpt lat="42.50845" lon="2.36418">
        <ele>1034</ele>
        <time>2024-09-18T06:30:49Z</time>
      </trkpt>
      <trkpt lat="42.50847" lon="2.36422">
        <ele>1032</ele>
        <time>2024-09-18T06:30:56Z</time>
      </trkpt>
      <trkpt lat="42.50849" lon="2.36425">
        <ele>1037</ele>
        <time>2024-09-18T06:31:04Z</time>
      </trkpt>
      <trkpt lat="42.50851" lon="2.36429">
        <ele>1037</ele>
        <time>2024-09-18T06:31:06Z</time>
      </trkpt>
      <trkpt lat="42.50854" lon="2.36432">
        <ele>1038</ele>
        <time>2024-09-18T06:31:10Z</time>
      </trkpt>
      <trkpt lat="42.50857" lon="2.36434">
        <ele>1035</ele>
        <time>2024-09-18T06:31:15Z</time>
      </trkpt>
      <trkpt lat="42.5086" lon="2.36434">
        <ele>1038</ele>
        <time>2024-09-18T06:31:18Z</time>
      </trkpt>
      <trkpt lat="42.50863" lon="2.36435">
        <ele>1035</ele>
        <time>2024-09-18T06:31:20Z</time>
      </trkpt>
      <trkpt lat="42.50867" lon="2.36436">
        <ele>1033</ele>
        <time>2024-09-18T06:31:24Z</time>
      </trkpt>
      <trkpt lat="42.5087" lon="2.36437">
        <ele>1034</ele>
        <time>2024-09-18T06:31:29Z</time>
      </trkpt>
      <trkpt lat="42.50873" lon="2.36438">
        <ele>1035</ele>
        <time>2024-09-18T06:31:32Z</time>
      </trkpt>
      <trkpt lat="42.50875" lon="2.3644">
        <ele>1034</ele>
        <time>2024-09-18T06:31:35Z</time>
      </trkpt>
      <trkpt lat="42.50878" lon="2.3644">
        <ele>1036</ele>
        <time>2024-09-18T06:31:40Z</time>
      </trkpt>
      <trkpt lat="42.50881" lon="2.3644">
        <ele>1036</ele>
        <time>2024-09-18T06:31:43Z</time>
      </trkpt>
      <trkpt lat="42.50885" lon="2.3644">
        <ele>1036</ele>
        <time>2024-09-18T06:31:48Z</time>
      </trkpt>
      <trkpt lat="42.50888" lon="2.36441">
        <ele>1036</ele>
        <time>2024-09-18T06:31:53Z</time>
      </trkpt>
      <trkpt lat="42.5089" lon="2.36444">
        <ele>1036</ele>
        <time>2024-09-18T06:31:56Z</time>
      </trkpt>
      <trkpt lat="42.50892" lon="2.36446">
        <ele>1036</ele>
        <time>2024-09-18T06:32:00Z</time>
      </trkpt>
      <trkpt lat="42.50894" lon="2.36449">
        <ele>1036</ele>
        <time>2024-09-18T06:32:04Z</time>
      </trkpt>
      <trkpt lat="42.50896" lon="2.36452">
        <ele>1035</ele>
        <time>2024-09-18T06:32:06Z</time>
      </trkpt>
      <trkpt lat="42.50899" lon="2.36455">
        <ele>1037</ele>
        <time>2024-09-18T06:32:10Z</time>
      </trkpt>
      <trkpt lat="42.50902" lon="2.36458">
        <ele>1036</ele>
        <time>2024-09-18T06:32:14Z</time>
      </trkpt>
      <trkpt lat="42.50905" lon="2.36458">
        <ele>1039</ele>
        <time>2024-09-18T06:32:18Z</time>
      </trkpt>
      <trkpt lat="42.5091" lon="2.36458">
        <ele>1039</ele>
        <time>2024-09-18T06:32:21Z</time>
      </trkpt>
      <trkpt lat="42.50913" lon="2.36458">
        <ele>1038</ele>
        <time>2024-09-18T06:32:23Z</time>
      </trkpt>
      <trkpt lat="42.50915" lon="2.3646">
        <ele>1038</ele>
        <time>2024-09-18T06:32:28Z</time>
      </trkpt>
      <trkpt lat="42.50918" lon="2.36462">
        <ele>1037</ele>
        <time>2024-09-18T06:32:33Z</time>
      </trkpt>
      <trkpt lat="42.5092" lon="2.36465">
        <ele>1037</ele>
        <time>2024-09-18T06:32:36Z</time>
      </trkpt>
      <trkpt lat="42.50923" lon="2.36467">
        <ele>1036</ele>
        <time>2024-09-18T06:32:40Z</time>
      </trkpt>
      <trkpt lat="42.50926" lon="2.36468">
        <ele>1036</ele>
        <time>2024-09-18T06:32:43Z</time>
      </trkpt>
      <trkpt lat="42.5093" lon="2.36469">
        <ele>1036</ele>
        <time>2024-09-18T06:32:46Z</time>
      </trkpt>
      <trkpt lat="42.50931" lon="2.36472">
        <ele>1035</ele>
        <time>2024-09-18T06:32:49Z</time>
      </trkpt>
      <trkpt lat="42.50932" lon="2.36474">
        <ele>1036</ele>
        <time>2024-09-18T06:32:51Z</time>
      </trkpt>
      <trkpt lat="42.50935" lon="2.36477">
        <ele>1036</ele>
        <time>2024-09-18T06:32:54Z</time>
      </trkpt>
      <trkpt lat="42.50937" lon="2.36479">
        <ele>1033</ele>
        <time>2024-09-18T06:33:00Z</time>
      </trkpt>
      <trkpt lat="42.5094" lon="2.36481">
        <ele>1035</ele>
        <time>2024-09-18T06:33:04Z</time>
      </trkpt>
      <trkpt lat="42.50943" lon="2.36484">
        <ele>1033</ele>
        <time>2024-09-18T06:33:08Z</time>
      </trkpt>
      <trkpt lat="42.50946" lon="2.36487">
        <ele>1036</ele>
        <time>2024-09-18T06:33:12Z</time>
      </trkpt>
      <trkpt lat="42.50949" lon="2.3649">
        <ele>1036</ele>
        <time>2024-09-18T06:33:16Z</time>
      </trkpt>
      <trkpt lat="42.50951" lon="2.36493">
        <ele>1038</ele>
        <time>2024-09-18T06:33:22Z</time>
      </trkpt>
      <trkpt lat="42.50954" lon="2.36493">
        <ele>1035</ele>
        <time>2024-09-18T06:33:27Z</time>
      </trkpt>
      <trkpt lat="42.50957" lon="2.36494">
        <ele>1036</ele>
        <time>2024-09-18T06:33:31Z</time>
      </trkpt>
      <trkpt lat="42.5096" lon="2.36495">
        <ele>1037</ele>
        <time>2024-09-18T06:33:33Z</time>
      </trkpt>
      <trkpt lat="42.50963" lon="2.36495">
        <ele>1038</ele>
        <time>2024-09-18T06:33:36Z</time>
      </trkpt>
      <trkpt lat="42.50966" lon="2.36496">
        <ele>1038</ele>
        <time>2024-09-18T06:33:41Z</time>
      </trkpt>
      <trkpt lat="42.50969" lon="2.36497">
        <ele>1038</ele>
        <time>2024-09-18T06:33:46Z</time>
      </trkpt>
      <trkpt lat="42.50972" lon="2.36498">
        <ele>1039</ele>
        <time>2024-09-18T06:33:50Z</time>
      </trkpt>
      <trkpt lat="42.50975" lon="2.36498">
        <ele>1038</ele>
        <time>2024-09-18T06:33:54Z</time>
      </trkpt>
      <trkpt lat="42.50979" lon="2.36498">
        <ele>1037</ele>
        <time>2024-09-18T06:33:58Z</time>
      </trkpt>
      <trkpt lat="42.50982" lon="2.36499">
        <ele>1037</ele>
        <time>2024-09-18T06:34:02Z</time>
      </trkpt>
      <trkpt lat="42.50985" lon="2.36501">
        <ele>1036</ele>
        <time>2024-09-18T06:34:06Z</time>
      </trkpt>
      <trkpt lat="42.50987" lon="2.36504">
        <ele>1037</ele>
        <time>2024-09-18T06:34:09Z</time>
      </trkpt>
      <trkpt lat="42.5099" lon="2.36507">
        <ele>1037</ele>
        <time>2024-09-18T06:34:11Z</time>
      </trkpt>
      <trkpt lat="42.50992" lon="2.3651">
        <ele>1038</ele>
        <time>2024-09-18T06:34:16Z</time>
      </trkpt>
      <trkpt lat="42.50994" lon="2.36513">
        <ele>1039</ele>
        <time>2024-09-18T06:34:19Z</time>
      </trkpt>
      <trkpt lat="42.50996" lon="2.36517">
        <ele>1038</ele>
        <time>2024-09-18T06:34:23Z</time>
      </trkpt>
      <trkpt lat="42.50998" lon="2.3652">
        <ele>1038</ele>
        <time>2024-09-18T06:34:26Z</time>
      </trkpt>
      <trkpt lat="42.51" lon="2.36523">
        <ele>1039</ele>
        <time>2024-09-18T06:34:29Z</time>
      </trkpt>
      <trkpt lat="42.51002" lon="2.36526">
        <ele>1038</ele>
        <time>2024-09-18T06:34:33Z</time>
      </trkpt>
      <trkpt lat="42.51004" lon="2.3653">
        <ele>1038</ele>
        <time>2024-09-18T06:34:36Z</time>
      </trkpt>
      <trkpt lat="42.51006" lon="2.36533">
        <ele>1036</ele>
        <time>2024-09-18T06:34:39Z</time>
      </trkpt>
      <trkpt lat="42.51008" lon="2.36536">
        <ele>1037</ele>
        <time>2024-09-18T06:34:43Z</time>
      </trkpt>
      <trkpt lat="42.51009" lon="2.36539">
        <ele>1038</ele>
        <time>2024-09-18T06:34:47Z</time>
      </trkpt>
      <trkpt lat="42.51011" lon="2.36541">
        <ele>1037</ele>
        <time>2024-09-18T06:34:50Z</time>
      </trkpt>
      <trkpt lat="42.51013" lon="2.36544">
        <ele>1037</ele>
        <time>2024-09-18T06:34:53Z</time>
      </trkpt>
      <trkpt lat="42.51014" lon="2.36548">
        <ele>1038</ele>
        <time>2024-09-18T06:34:58Z</time>
      </trkpt>
      <trkpt lat="42.51014" lon="2.36551">
        <ele>1037</ele>
        <time>2024-09-18T06:35:02Z</time>
      </trkpt>
      <trkpt lat="42.51015" lon="2.36555">
        <ele>1038</ele>
        <time>2024-09-18T06:35:05Z</time>
      </trkpt>
      <trkpt lat="42.51014" lon="2.36559">
        <ele>1036</ele>
        <time>2024-09-18T06:35:09Z</time>
      </trkpt>
      <trkpt lat="42.51014" lon="2.36564">
        <ele>1037</ele>
        <time>2024-09-18T06:35:13Z</time>
      </trkpt>
      <trkpt lat="42.51016" lon="2.36569">
        <ele>1038</ele>
        <time>2024-09-18T06:35:16Z</time>
      </trkpt>
      <trkpt lat="42.51017" lon="2.36573">
        <ele>1038</ele>
        <time>2024-09-18T06:35:20Z</time>
      </trkpt>
      <trkpt lat="42.51018" lon="2.36576">
        <ele>1037</ele>
        <time>2024-09-18T06:35:24Z</time>
      </trkpt>
      <trkpt lat="42.51018" lon="2.36581">
        <ele>1036</ele>
        <time>2024-09-18T06:35:28Z</time>
      </trkpt>
      <trkpt lat="42.51019" lon="2.36585">
        <ele>1036</ele>
        <time>2024-09-18T06:35:32Z</time>
      </trkpt>
      <trkpt lat="42.51019" lon="2.36588">
        <ele>1036</ele>
        <time>2024-09-18T06:35:36Z</time>
      </trkpt>
      <trkpt lat="42.51019" lon="2.36593">
        <ele>1037</ele>
        <time>2024-09-18T06:35:40Z</time>
      </trkpt>
      <trkpt lat="42.51021" lon="2.36597">
        <ele>1035</ele>
        <time>2024-09-18T06:35:44Z</time>
      </trkpt>
      <trkpt lat="42.51022" lon="2.36601">
        <ele>1036</ele>
        <time>2024-09-18T06:35:48Z</time>
      </trkpt>
      <trkpt lat="42.51022" lon="2.36606">
        <ele>1036</ele>
        <time>2024-09-18T06:35:53Z</time>
      </trkpt>
      <trkpt lat="42.51022" lon="2.3661">
        <ele>1036</ele>
        <time>2024-09-18T06:35:56Z</time>
      </trkpt>
      <trkpt lat="42.51022" lon="2.36614">
        <ele>1036</ele>
        <time>2024-09-18T06:36:00Z</time>
      </trkpt>
      <trkpt lat="42.51023" lon="2.36619">
        <ele>1034</ele>
        <time>2024-09-18T06:36:04Z</time>
      </trkpt>
      <trkpt lat="42.51024" lon="2.36623">
        <ele>1033</ele>
        <time>2024-09-18T06:36:08Z</time>
      </trkpt>
      <trkpt lat="42.51025" lon="2.36626">
        <ele>1032</ele>
        <time>2024-09-18T06:36:12Z</time>
      </trkpt>
      <trkpt lat="42.51027" lon="2.3663">
        <ele>1032</ele>
        <time>2024-09-18T06:36:17Z</time>
      </trkpt>
      <trkpt lat="42.51029" lon="2.36634">
        <ele>1034</ele>
        <time>2024-09-18T06:36:20Z</time>
      </trkpt>
      <trkpt lat="42.51031" lon="2.36638">
        <ele>1036</ele>
        <time>2024-09-18T06:36:23Z</time>
      </trkpt>
      <trkpt lat="42.51032" lon="2.36642">
        <ele>1037</ele>
        <time>2024-09-18T06:36:28Z</time>
      </trkpt>
      <trkpt lat="42.51033" lon="2.36646">
        <ele>1036</ele>
        <time>2024-09-18T06:36:31Z</time>
      </trkpt>
      <trkpt lat="42.51033" lon="2.3665">
        <ele>1035</ele>
        <time>2024-09-18T06:36:34Z</time>
      </trkpt>
      <trkpt lat="42.51034" lon="2.36654">
        <ele>1035</ele>
        <time>2024-09-18T06:36:38Z</time>
      </trkpt>
      <trkpt lat="42.51036" lon="2.36658">
        <ele>1034</ele>
        <time>2024-09-18T06:36:43Z</time>
      </trkpt>
      <trkpt lat="42.51037" lon="2.36661">
        <ele>1034</ele>
        <time>2024-09-18T06:36:46Z</time>
      </trkpt>
      <trkpt lat="42.51038" lon="2.36665">
        <ele>1033</ele>
        <time>2024-09-18T06:36:49Z</time>
      </trkpt>
      <trkpt lat="42.51037" lon="2.36669">
        <ele>1031</ele>
        <time>2024-09-18T06:36:53Z</time>
      </trkpt>
      <trkpt lat="42.51038" lon="2.36673">
        <ele>1033</ele>
        <time>2024-09-18T06:36:57Z</time>
      </trkpt>
      <trkpt lat="42.5104" lon="2.36676">
        <ele>1033</ele>
        <time>2024-09-18T06:37:01Z</time>
      </trkpt>
      <trkpt lat="42.51041" lon="2.36681">
        <ele>1034</ele>
        <time>2024-09-18T06:37:04Z</time>
      </trkpt>
      <trkpt lat="42.51042" lon="2.36684">
        <ele>1034</ele>
        <time>2024-09-18T06:37:09Z</time>
      </trkpt>
      <trkpt lat="42.51041" lon="2.36688">
        <ele>1033</ele>
        <time>2024-09-18T06:37:13Z</time>
      </trkpt>
      <trkpt lat="42.5104" lon="2.36693">
        <ele>1032</ele>
        <time>2024-09-18T06:37:15Z</time>
      </trkpt>
      <trkpt lat="42.51041" lon="2.36696">
        <ele>1033</ele>
        <time>2024-09-18T06:37:19Z</time>
      </trkpt>
      <trkpt lat="42.51043" lon="2.367">
        <ele>1032</ele>
        <time>2024-09-18T06:37:22Z</time>
      </trkpt>
      <trkpt lat="42.51043" lon="2.36705">
        <ele>1034</ele>
        <time>2024-09-18T06:37:28Z</time>
      </trkpt>
      <trkpt lat="42.51042" lon="2.36709">
        <ele>1035</ele>
        <time>2024-09-18T06:37:33Z</time>
      </trkpt>
      <trkpt lat="42.51043" lon="2.36713">
        <ele>1036</ele>
        <time>2024-09-18T06:37:38Z</time>
      </trkpt>
      <trkpt lat="42.51045" lon="2.36715">
        <ele>1034</ele>
        <time>2024-09-18T06:37:43Z</time>
      </trkpt>
      <trkpt lat="42.51048" lon="2.36717">
        <ele>1033</ele>
        <time>2024-09-18T06:37:46Z</time>
      </trkpt>
      <trkpt lat="42.51051" lon="2.36719">
        <ele>1034</ele>
        <time>2024-09-18T06:37:49Z</time>
      </trkpt>
      <trkpt lat="42.51054" lon="2.36721">
        <ele>1036</ele>
        <time>2024-09-18T06:37:55Z</time>
      </trkpt>
      <trkpt lat="42.51057" lon="2.36723">
        <ele>1035</ele>
        <time>2024-09-18T06:37:58Z</time>
      </trkpt>
      <trkpt lat="42.51059" lon="2.36726">
        <ele>1034</ele>
        <time>2024-09-18T06:38:01Z</time>
      </trkpt>
      <trkpt lat="42.51061" lon="2.36729">
        <ele>1036</ele>
        <time>2024-09-18T06:38:04Z</time>
      </trkpt>
      <trkpt lat="42.51063" lon="2.36731">
        <ele>1037</ele>
        <time>2024-09-18T06:38:09Z</time>
      </trkpt>
      <trkpt lat="42.51065" lon="2.36734">
        <ele>1038</ele>
        <time>2024-09-18T06:38:16Z</time>
      </trkpt>
      <trkpt lat="42.51066" lon="2.36737">
        <ele>1036</ele>
        <time>2024-09-18T06:38:20Z</time>
      </trkpt>
      <trkpt lat="42.51068" lon="2.36741">
        <ele>1039</ele>
        <time>2024-09-18T06:38:27Z</time>
      </trkpt>
      <trkpt lat="42.5107" lon="2.36744">
        <ele>1040</ele>
        <time>2024-09-18T06:38:32Z</time>
      </trkpt>
      <trkpt lat="42.51072" lon="2.36747">
        <ele>1039</ele>
        <time>2024-09-18T06:38:35Z</time>
      </trkpt>
      <trkpt lat="42.51074" lon="2.36749">
        <ele>1039</ele>
        <time>2024-09-18T06:38:38Z</time>
      </trkpt>
      <trkpt lat="42.51077" lon="2.36751">
        <ele>1039</ele>
        <time>2024-09-18T06:38:42Z</time>
      </trkpt>
      <trkpt lat="42.51079" lon="2.36753">
        <ele>1039</ele>
        <time>2024-09-18T06:38:45Z</time>
      </trkpt>
      <trkpt lat="42.51082" lon="2.36754">
        <ele>1040</ele>
        <time>2024-09-18T06:38:48Z</time>
      </trkpt>
      <trkpt lat="42.51085" lon="2.36755">
        <ele>1042</ele>
        <time>2024-09-18T06:38:51Z</time>
      </trkpt>
      <trkpt lat="42.51087" lon="2.36757">
        <ele>1043</ele>
        <time>2024-09-18T06:38:56Z</time>
      </trkpt>
      <trkpt lat="42.5109" lon="2.36758">
        <ele>1043</ele>
        <time>2024-09-18T06:38:59Z</time>
      </trkpt>
      <trkpt lat="42.51093" lon="2.36759">
        <ele>1045</ele>
        <time>2024-09-18T06:39:02Z</time>
      </trkpt>
      <trkpt lat="42.51096" lon="2.3676">
        <ele>1045</ele>
        <time>2024-09-18T06:39:04Z</time>
      </trkpt>
      <trkpt lat="42.51099" lon="2.36762">
        <ele>1045</ele>
        <time>2024-09-18T06:39:10Z</time>
      </trkpt>
      <trkpt lat="42.51102" lon="2.36762">
        <ele>1046</ele>
        <time>2024-09-18T06:39:14Z</time>
      </trkpt>
      <trkpt lat="42.51105" lon="2.36763">
        <ele>1046</ele>
        <time>2024-09-18T06:39:18Z</time>
      </trkpt>
      <trkpt lat="42.51107" lon="2.36765">
        <ele>1047</ele>
        <time>2024-09-18T06:39:22Z</time>
      </trkpt>
      <trkpt lat="42.5111" lon="2.36767">
        <ele>1047</ele>
        <time>2024-09-18T06:39:25Z</time>
      </trkpt>
      <trkpt lat="42.51113" lon="2.36766">
        <ele>1046</ele>
        <time>2024-09-18T06:39:28Z</time>
      </trkpt>
      <trkpt lat="42.51116" lon="2.36766">
        <ele>1046</ele>
        <time>2024-09-18T06:39:31Z</time>
      </trkpt>
      <trkpt lat="42.51119" lon="2.36767">
        <ele>1046</ele>
        <time>2024-09-18T06:39:35Z</time>
      </trkpt>
      <trkpt lat="42.51122" lon="2.36769">
        <ele>1047</ele>
        <time>2024-09-18T06:39:38Z</time>
      </trkpt>
      <trkpt lat="42.51124" lon="2.36772">
        <ele>1047</ele>
        <time>2024-09-18T06:39:42Z</time>
      </trkpt>
      <trkpt lat="42.51125" lon="2.36776">
        <ele>1049</ele>
        <time>2024-09-18T06:39:46Z</time>
      </trkpt>
      <trkpt lat="42.51125" lon="2.3678">
        <ele>1049</ele>
        <time>2024-09-18T06:39:50Z</time>
      </trkpt>
      <trkpt lat="42.51126" lon="2.36784">
        <ele>1049</ele>
        <time>2024-09-18T06:39:54Z</time>
      </trkpt>
      <trkpt lat="42.51126" lon="2.36788">
        <ele>1050</ele>
        <time>2024-09-18T06:40:01Z</time>
      </trkpt>
      <trkpt lat="42.51125" lon="2.36791">
        <ele>1052</ele>
        <time>2024-09-18T06:40:07Z</time>
      </trkpt>
      <trkpt lat="42.51124" lon="2.36795">
        <ele>1053</ele>
        <time>2024-09-18T06:40:11Z</time>
      </trkpt>
      <trkpt lat="42.51124" lon="2.36799">
        <ele>1052</ele>
        <time>2024-09-18T06:40:19Z</time>
      </trkpt>
      <trkpt lat="42.51124" lon="2.36803">
        <ele>1056</ele>
        <time>2024-09-18T06:40:24Z</time>
      </trkpt>
      <trkpt lat="42.51123" lon="2.36807">
        <ele>1056</ele>
        <time>2024-09-18T06:40:27Z</time>
      </trkpt>
      <trkpt lat="42.51122" lon="2.36811">
        <ele>1055</ele>
        <time>2024-09-18T06:40:30Z</time>
      </trkpt>
      <trkpt lat="42.51122" lon="2.36815">
        <ele>1055</ele>
        <time>2024-09-18T06:40:31Z</time>
      </trkpt>
      <trkpt lat="42.51121" lon="2.36819">
        <ele>1055</ele>
        <time>2024-09-18T06:40:34Z</time>
      </trkpt>
      <trkpt lat="42.51121" lon="2.36824">
        <ele>1056</ele>
        <time>2024-09-18T06:40:37Z</time>
      </trkpt>
      <trkpt lat="42.5112" lon="2.36828">
        <ele>1056</ele>
        <time>2024-09-18T06:40:40Z</time>
      </trkpt>
      <trkpt lat="42.51121" lon="2.36833">
        <ele>1055</ele>
        <time>2024-09-18T06:40:44Z</time>
      </trkpt>
      <trkpt lat="42.5112" lon="2.36836">
        <ele>1054</ele>
        <time>2024-09-18T06:40:47Z</time>
      </trkpt>
      <trkpt lat="42.5112" lon="2.3684">
        <ele>1053</ele>
        <time>2024-09-18T06:40:51Z</time>
      </trkpt>
      <trkpt lat="42.5112" lon="2.36845">
        <ele>1054</ele>
        <time>2024-09-18T06:40:54Z</time>
      </trkpt>
      <trkpt lat="42.5112" lon="2.36849">
        <ele>1053</ele>
        <time>2024-09-18T06:40:57Z</time>
      </trkpt>
      <trkpt lat="42.5112" lon="2.36853">
        <ele>1055</ele>
        <time>2024-09-18T06:41:00Z</time>
      </trkpt>
      <trkpt lat="42.5112" lon="2.36859">
        <ele>1054</ele>
        <time>2024-09-18T06:41:04Z</time>
      </trkpt>
      <trkpt lat="42.5112" lon="2.36863">
        <ele>1053</ele>
        <time>2024-09-18T06:41:08Z</time>
      </trkpt>
      <trkpt lat="42.51119" lon="2.36867">
        <ele>1051</ele>
        <time>2024-09-18T06:41:12Z</time>
      </trkpt>
      <trkpt lat="42.51119" lon="2.36872">
        <ele>1050</ele>
        <time>2024-09-18T06:41:14Z</time>
      </trkpt>
      <trkpt lat="42.5112" lon="2.36876">
        <ele>1050</ele>
        <time>2024-09-18T06:41:17Z</time>
      </trkpt>
      <trkpt lat="42.5112" lon="2.3688">
        <ele>1047</ele>
        <time>2024-09-18T06:41:20Z</time>
      </trkpt>
      <trkpt lat="42.5112" lon="2.36884">
        <ele>1047</ele>
        <time>2024-09-18T06:41:22Z</time>
      </trkpt>
      <trkpt lat="42.51121" lon="2.36888">
        <ele>1049</ele>
        <time>2024-09-18T06:41:25Z</time>
      </trkpt>
      <trkpt lat="42.51122" lon="2.36893">
        <ele>1050</ele>
        <time>2024-09-18T06:41:29Z</time>
      </trkpt>
      <trkpt lat="42.51122" lon="2.36897">
        <ele>1050</ele>
        <time>2024-09-18T06:41:32Z</time>
      </trkpt>
      <trkpt lat="42.51123" lon="2.36902">
        <ele>1051</ele>
        <time>2024-09-18T06:41:36Z</time>
      </trkpt>
      <trkpt lat="42.51124" lon="2.36906">
        <ele>1050</ele>
        <time>2024-09-18T06:41:39Z</time>
      </trkpt>
      <trkpt lat="42.51126" lon="2.36909">
        <ele>1050</ele>
        <time>2024-09-18T06:41:43Z</time>
      </trkpt>
      <trkpt lat="42.51128" lon="2.36912">
        <ele>1051</ele>
        <time>2024-09-18T06:41:46Z</time>
      </trkpt>
      <trkpt lat="42.51131" lon="2.36916">
        <ele>1051</ele>
        <time>2024-09-18T06:41:50Z</time>
      </trkpt>
      <trkpt lat="42.51133" lon="2.36919">
        <ele>1052</ele>
        <time>2024-09-18T06:41:54Z</time>
      </trkpt>
      <trkpt lat="42.51136" lon="2.36921">
        <ele>1051</ele>
        <time>2024-09-18T06:41:57Z</time>
      </trkpt>
      <trkpt lat="42.51138" lon="2.36924">
        <ele>1052</ele>
        <time>2024-09-18T06:42:00Z</time>
      </trkpt>
      <trkpt lat="42.51141" lon="2.36926">
        <ele>1052</ele>
        <time>2024-09-18T06:42:05Z</time>
      </trkpt>
      <trkpt lat="42.51143" lon="2.36929">
        <ele>1052</ele>
        <time>2024-09-18T06:42:08Z</time>
      </trkpt>
      <trkpt lat="42.51146" lon="2.3693">
        <ele>1053</ele>
        <time>2024-09-18T06:42:11Z</time>
      </trkpt>
      <trkpt lat="42.51149" lon="2.36933">
        <ele>1053</ele>
        <time>2024-09-18T06:42:15Z</time>
      </trkpt>
      <trkpt lat="42.51152" lon="2.36935">
        <ele>1052</ele>
        <time>2024-09-18T06:42:19Z</time>
      </trkpt>
      <trkpt lat="42.51155" lon="2.36937">
        <ele>1054</ele>
        <time>2024-09-18T06:42:23Z</time>
      </trkpt>
      <trkpt lat="42.51159" lon="2.36937">
        <ele>1054</ele>
        <time>2024-09-18T06:42:27Z</time>
      </trkpt>
      <trkpt lat="42.51163" lon="2.36938">
        <ele>1053</ele>
        <time>2024-09-18T06:42:31Z</time>
      </trkpt>
      <trkpt lat="42.51166" lon="2.3694">
        <ele>1054</ele>
        <time>2024-09-18T06:42:35Z</time>
      </trkpt>
      <trkpt lat="42.51169" lon="2.36942">
        <ele>1053</ele>
        <time>2024-09-18T06:42:38Z</time>
      </trkpt>
      <trkpt lat="42.51173" lon="2.36945">
        <ele>1052</ele>
        <time>2024-09-18T06:42:42Z</time>
      </trkpt>
      <trkpt lat="42.51177" lon="2.36948">
        <ele>1053</ele>
        <time>2024-09-18T06:42:49Z</time>
      </trkpt>
      <trkpt lat="42.5118" lon="2.3695">
        <ele>1051</ele>
        <time>2024-09-18T06:42:52Z</time>
      </trkpt>
      <trkpt lat="42.51183" lon="2.36952">
        <ele>1052</ele>
        <time>2024-09-18T06:42:54Z</time>
      </trkpt>
      <trkpt lat="42.51186" lon="2.36953">
        <ele>1052</ele>
        <time>2024-09-18T06:42:57Z</time>
      </trkpt>
      <trkpt lat="42.51189" lon="2.36954">
        <ele>1053</ele>
        <time>2024-09-18T06:42:59Z</time>
      </trkpt>
      <trkpt lat="42.51192" lon="2.36955">
        <ele>1054</ele>
        <time>2024-09-18T06:43:03Z</time>
      </trkpt>
      <trkpt lat="42.51195" lon="2.36956">
        <ele>1053</ele>
        <time>2024-09-18T06:43:06Z</time>
      </trkpt>
      <trkpt lat="42.51198" lon="2.36958">
        <ele>1052</ele>
        <time>2024-09-18T06:43:10Z</time>
      </trkpt>
      <trkpt lat="42.51201" lon="2.36959">
        <ele>1053</ele>
        <time>2024-09-18T06:43:13Z</time>
      </trkpt>
      <trkpt lat="42.51204" lon="2.3696">
        <ele>1054</ele>
        <time>2024-09-18T06:43:15Z</time>
      </trkpt>
      <trkpt lat="42.51207" lon="2.3696">
        <ele>1054</ele>
        <time>2024-09-18T06:43:18Z</time>
      </trkpt>
      <trkpt lat="42.5121" lon="2.36961">
        <ele>1056</ele>
        <time>2024-09-18T06:43:21Z</time>
      </trkpt>
      <trkpt lat="42.51213" lon="2.36962">
        <ele>1056</ele>
        <time>2024-09-18T06:43:23Z</time>
      </trkpt>
      <trkpt lat="42.51216" lon="2.36962">
        <ele>1056</ele>
        <time>2024-09-18T06:43:26Z</time>
      </trkpt>
      <trkpt lat="42.51219" lon="2.36963">
        <ele>1054</ele>
        <time>2024-09-18T06:43:31Z</time>
      </trkpt>
      <trkpt lat="42.51222" lon="2.36965">
        <ele>1054</ele>
        <time>2024-09-18T06:43:34Z</time>
      </trkpt>
      <trkpt lat="42.51225" lon="2.36965">
        <ele>1054</ele>
        <time>2024-09-18T06:43:36Z</time>
      </trkpt>
      <trkpt lat="42.51228" lon="2.36967">
        <ele>1053</ele>
        <time>2024-09-18T06:43:40Z</time>
      </trkpt>
      <trkpt lat="42.5123" lon="2.3697">
        <ele>1056</ele>
        <time>2024-09-18T06:43:45Z</time>
      </trkpt>
      <trkpt lat="42.51234" lon="2.36971">
        <ele>1055</ele>
        <time>2024-09-18T06:43:49Z</time>
      </trkpt>
      <trkpt lat="42.51236" lon="2.36974">
        <ele>1054</ele>
        <time>2024-09-18T06:43:53Z</time>
      </trkpt>
      <trkpt lat="42.51238" lon="2.36977">
        <ele>1053</ele>
        <time>2024-09-18T06:43:58Z</time>
      </trkpt>
      <trkpt lat="42.5124" lon="2.3698">
        <ele>1052</ele>
        <time>2024-09-18T06:44:01Z</time>
      </trkpt>
      <trkpt lat="42.51241" lon="2.36984">
        <ele>1054</ele>
        <time>2024-09-18T06:44:04Z</time>
      </trkpt>
      <trkpt lat="42.51244" lon="2.36986">
        <ele>1054</ele>
        <time>2024-09-18T06:44:07Z</time>
      </trkpt>
      <trkpt lat="42.51246" lon="2.3699">
        <ele>1053</ele>
        <time>2024-09-18T06:44:12Z</time>
      </trkpt>
      <trkpt lat="42.51248" lon="2.36993">
        <ele>1052</ele>
        <time>2024-09-18T06:44:16Z</time>
      </trkpt>
      <trkpt lat="42.51249" lon="2.36997">
        <ele>1054</ele>
        <time>2024-09-18T06:44:20Z</time>
      </trkpt>
      <trkpt lat="42.5125" lon="2.37">
        <ele>1054</ele>
        <time>2024-09-18T06:44:23Z</time>
      </trkpt>
      <trkpt lat="42.51252" lon="2.37003">
        <ele>1054</ele>
        <time>2024-09-18T06:44:27Z</time>
      </trkpt>
      <trkpt lat="42.51253" lon="2.37007">
        <ele>1055</ele>
        <time>2024-09-18T06:44:34Z</time>
      </trkpt>
      <trkpt lat="42.51255" lon="2.37009">
        <ele>1054</ele>
        <time>2024-09-18T06:44:39Z</time>
      </trkpt>
      <trkpt lat="42.51258" lon="2.37011">
        <ele>1055</ele>
        <time>2024-09-18T06:44:42Z</time>
      </trkpt>
      <trkpt lat="42.51261" lon="2.37013">
        <ele>1055</ele>
        <time>2024-09-18T06:44:45Z</time>
      </trkpt>
      <trkpt lat="42.51263" lon="2.37016">
        <ele>1056</ele>
        <time>2024-09-18T06:44:47Z</time>
      </trkpt>
      <trkpt lat="42.51266" lon="2.37017">
        <ele>1055</ele>
        <time>2024-09-18T06:44:50Z</time>
      </trkpt>
      <trkpt lat="42.51269" lon="2.37018">
        <ele>1055</ele>
        <time>2024-09-18T06:44:52Z</time>
      </trkpt>
      <trkpt lat="42.51272" lon="2.37019">
        <ele>1057</ele>
        <time>2024-09-18T06:44:56Z</time>
      </trkpt>
      <trkpt lat="42.51275" lon="2.3702">
        <ele>1060</ele>
        <time>2024-09-18T06:45:00Z</time>
      </trkpt>
      <trkpt lat="42.51278" lon="2.37021">
        <ele>1060</ele>
        <time>2024-09-18T06:45:05Z</time>
      </trkpt>
      <trkpt lat="42.51281" lon="2.37022">
        <ele>1061</ele>
        <time>2024-09-18T06:45:08Z</time>
      </trkpt>
      <trkpt lat="42.51284" lon="2.37024">
        <ele>1059</ele>
        <time>2024-09-18T06:45:10Z</time>
      </trkpt>
      <trkpt lat="42.51287" lon="2.37026">
        <ele>1063</ele>
        <time>2024-09-18T06:45:14Z</time>
      </trkpt>
      <trkpt lat="42.5129" lon="2.37027">
        <ele>1060</ele>
        <time>2024-09-18T06:45:19Z</time>
      </trkpt>
      <trkpt lat="42.51293" lon="2.37027">
        <ele>1058</ele>
        <time>2024-09-18T06:45:22Z</time>
      </trkpt>
      <trkpt lat="42.51296" lon="2.37026">
        <ele>1059</ele>
        <time>2024-09-18T06:45:25Z</time>
      </trkpt>
      <trkpt lat="42.51298" lon="2.37027">
        <ele>1060</ele>
        <time>2024-09-18T06:45:29Z</time>
      </trkpt>
      <trkpt lat="42.51301" lon="2.37029">
        <ele>1059</ele>
        <time>2024-09-18T06:45:33Z</time>
      </trkpt>
      <trkpt lat="42.51304" lon="2.3703">
        <ele>1059</ele>
        <time>2024-09-18T06:45:39Z</time>
      </trkpt>
      <trkpt lat="42.51307" lon="2.3703">
        <ele>1060</ele>
        <time>2024-09-18T06:45:43Z</time>
      </trkpt>
      <trkpt lat="42.5131" lon="2.3703">
        <ele>1061</ele>
        <time>2024-09-18T06:45:47Z</time>
      </trkpt>
      <trkpt lat="42.51313" lon="2.37031">
        <ele>1060</ele>
        <time>2024-09-18T06:45:52Z</time>
      </trkpt>
      <trkpt lat="42.51316" lon="2.3703">
        <ele>1060</ele>
        <time>2024-09-18T06:45:59Z</time>
      </trkpt>
      <trkpt lat="42.5132" lon="2.3703">
        <ele>1060</ele>
        <time>2024-09-18T06:46:03Z</time>
      </trkpt>
      <trkpt lat="42.51324" lon="2.3703">
        <ele>1060</ele>
        <time>2024-09-18T06:46:06Z</time>
      </trkpt>
      <trkpt lat="42.51327" lon="2.37032">
        <ele>1061</ele>
        <time>2024-09-18T06:46:10Z</time>
      </trkpt>
      <trkpt lat="42.5133" lon="2.37033">
        <ele>1059</ele>
        <time>2024-09-18T06:46:14Z</time>
      </trkpt>
      <trkpt lat="42.51333" lon="2.37034">
        <ele>1059</ele>
        <time>2024-09-18T06:46:17Z</time>
      </trkpt>
      <trkpt lat="42.51336" lon="2.37035">
        <ele>1059</ele>
        <time>2024-09-18T06:46:21Z</time>
      </trkpt>
      <trkpt lat="42.51339" lon="2.37037">
        <ele>1058</ele>
        <time>2024-09-18T06:46:23Z</time>
      </trkpt>
      <trkpt lat="42.51342" lon="2.37039">
        <ele>1058</ele>
        <time>2024-09-18T06:46:26Z</time>
      </trkpt>
      <trkpt lat="42.51344" lon="2.37043">
        <ele>1058</ele>
        <time>2024-09-18T06:46:29Z</time>
      </trkpt>
      <trkpt lat="42.51347" lon="2.37047">
        <ele>1058</ele>
        <time>2024-09-18T06:46:33Z</time>
      </trkpt>
      <trkpt lat="42.51349" lon="2.3705">
        <ele>1058</ele>
        <time>2024-09-18T06:46:36Z</time>
      </trkpt>
      <trkpt lat="42.51351" lon="2.37053">
        <ele>1059</ele>
        <time>2024-09-18T06:46:39Z</time>
      </trkpt>
      <trkpt lat="42.51354" lon="2.37056">
        <ele>1059</ele>
        <time>2024-09-18T06:46:42Z</time>
      </trkpt>
      <trkpt lat="42.51356" lon="2.37058">
        <ele>1059</ele>
        <time>2024-09-18T06:46:45Z</time>
      </trkpt>
      <trkpt lat="42.5136" lon="2.37061">
        <ele>1060</ele>
        <time>2024-09-18T06:46:50Z</time>
      </trkpt>
      <trkpt lat="42.51363" lon="2.37063">
        <ele>1060</ele>
        <time>2024-09-18T06:46:53Z</time>
      </trkpt>
      <trkpt lat="42.51366" lon="2.37066">
        <ele>1060</ele>
        <time>2024-09-18T06:46:55Z</time>
      </trkpt>
      <trkpt lat="42.51368" lon="2.37069">
        <ele>1059</ele>
        <time>2024-09-18T06:46:57Z</time>
      </trkpt>
      <trkpt lat="42.51371" lon="2.37071">
        <ele>1060</ele>
        <time>2024-09-18T06:47:00Z</time>
      </trkpt>
      <trkpt lat="42.51373" lon="2.37073">
        <ele>1059</ele>
        <time>2024-09-18T06:47:03Z</time>
      </trkpt>
      <trkpt lat="42.51376" lon="2.37075">
        <ele>1061</ele>
        <time>2024-09-18T06:47:06Z</time>
      </trkpt>
      <trkpt lat="42.5138" lon="2.37077">
        <ele>1061</ele>
        <time>2024-09-18T06:47:08Z</time>
      </trkpt>
      <trkpt lat="42.51383" lon="2.37079">
        <ele>1063</ele>
        <time>2024-09-18T06:47:11Z</time>
      </trkpt>
      <trkpt lat="42.51386" lon="2.37081">
        <ele>1064</ele>
        <time>2024-09-18T06:47:15Z</time>
      </trkpt>
      <trkpt lat="42.51388" lon="2.37084">
        <ele>1063</ele>
        <time>2024-09-18T06:47:18Z</time>
      </trkpt>
      <trkpt lat="42.5139" lon="2.37086">
        <ele>1062</ele>
        <time>2024-09-18T06:47:22Z</time>
      </trkpt>
      <trkpt lat="42.51393" lon="2.37088">
        <ele>1062</ele>
        <time>2024-09-18T06:47:24Z</time>
      </trkpt>
      <trkpt lat="42.51396" lon="2.37091">
        <ele>1062</ele>
        <time>2024-09-18T06:47:27Z</time>
      </trkpt>
      <trkpt lat="42.51399" lon="2.37094">
        <ele>1061</ele>
        <time>2024-09-18T06:47:31Z</time>
      </trkpt>
      <trkpt lat="42.51402" lon="2.37096">
        <ele>1062</ele>
        <time>2024-09-18T06:47:34Z</time>
      </trkpt>
      <trkpt lat="42.51405" lon="2.37098">
        <ele>1060</ele>
        <time>2024-09-18T06:47:37Z</time>
      </trkpt>
      <trkpt lat="42.51408" lon="2.37101">
        <ele>1062</ele>
        <time>2024-09-18T06:47:40Z</time>
      </trkpt>
      <trkpt lat="42.51411" lon="2.37103">
        <ele>1061</ele>
        <time>2024-09-18T06:47:43Z</time>
      </trkpt>
      <trkpt lat="42.51413" lon="2.37105">
        <ele>1062</ele>
        <time>2024-09-18T06:47:45Z</time>
      </trkpt>
      <trkpt lat="42.51416" lon="2.37107">
        <ele>1062</ele>
        <time>2024-09-18T06:47:47Z</time>
      </trkpt>
      <trkpt lat="42.51419" lon="2.37109">
        <ele>1061</ele>
        <time>2024-09-18T06:47:51Z</time>
      </trkpt>
      <trkpt lat="42.51422" lon="2.37112">
        <ele>1062</ele>
        <time>2024-09-18T06:47:53Z</time>
      </trkpt>
      <trkpt lat="42.51424" lon="2.37114">
        <ele>1061</ele>
        <time>2024-09-18T06:47:57Z</time>
      </trkpt>
      <trkpt lat="42.51427" lon="2.37116">
        <ele>1059</ele>
        <time>2024-09-18T06:48:00Z</time>
      </trkpt>
      <trkpt lat="42.5143" lon="2.37118">
        <ele>1060</ele>
        <time>2024-09-18T06:48:03Z</time>
      </trkpt>
      <trkpt lat="42.51433" lon="2.37119">
        <ele>1061</ele>
        <time>2024-09-18T06:48:06Z</time>
      </trkpt>
      <trkpt lat="42.51437" lon="2.37122">
        <ele>1062</ele>
        <time>2024-09-18T06:48:09Z</time>
      </trkpt>
      <trkpt lat="42.51439" lon="2.37125">
        <ele>1060</ele>
        <time>2024-09-18T06:48:11Z</time>
      </trkpt>
      <trkpt lat="42.51442" lon="2.37127">
        <ele>1062</ele>
        <time>2024-09-18T06:48:13Z</time>
      </trkpt>
      <trkpt lat="42.51445" lon="2.3713">
        <ele>1062</ele>
        <time>2024-09-18T06:48:15Z</time>
      </trkpt>
      <trkpt lat="42.51448" lon="2.37132">
        <ele>1061</ele>
        <time>2024-09-18T06:48:18Z</time>
      </trkpt>
      <trkpt lat="42.5145" lon="2.37135">
        <ele>1061</ele>
        <time>2024-09-18T06:48:21Z</time>
      </trkpt>
      <trkpt lat="42.51453" lon="2.37137">
        <ele>1062</ele>
        <time>2024-09-18T06:48:24Z</time>
      </trkpt>
      <trkpt lat="42.51456" lon="2.37139">
        <ele>1062</ele>
        <time>2024-09-18T06:48:27Z</time>
      </trkpt>
      <trkpt lat="42.51459" lon="2.37141">
        <ele>1061</ele>
        <time>2024-09-18T06:48:30Z</time>
      </trkpt>
      <trkpt lat="42.51462" lon="2.37143">
        <ele>1062</ele>
        <time>2024-09-18T06:48:33Z</time>
      </trkpt>
      <trkpt lat="42.51464" lon="2.37146">
        <ele>1063</ele>
        <time>2024-09-18T06:48:36Z</time>
      </trkpt>
      <trkpt lat="42.51467" lon="2.37147">
        <ele>1063</ele>
        <time>2024-09-18T06:48:39Z</time>
      </trkpt>
      <trkpt lat="42.5147" lon="2.37144">
        <ele>1063</ele>
        <time>2024-09-18T06:48:42Z</time>
      </trkpt>
      <trkpt lat="42.5147" lon="2.37145">
        <ele>1063</ele>
        <time>2024-09-18T06:48:53Z</time>
      </trkpt>
      <trkpt lat="42.51468" lon="2.37147">
        <ele>1063</ele>
        <time>2024-09-18T06:48:56Z</time>
      </trkpt>
      <trkpt lat="42.51465" lon="2.37148">
        <ele>1061</ele>
        <time>2024-09-18T06:49:35Z</time>
      </trkpt>
      <trkpt lat="42.51466" lon="2.37148">
        <ele>1062</ele>
        <time>2024-09-18T06:49:45Z</time>
      </trkpt>
      <trkpt lat="42.51465" lon="2.37149">
        <ele>1062</ele>
        <time>2024-09-18T06:49:56Z</time>
      </trkpt>
      <trkpt lat="42.51462" lon="2.37151">
        <ele>1062</ele>
        <time>2024-09-18T06:49:59Z</time>
      </trkpt>
      <trkpt lat="42.5146" lon="2.37154">
        <ele>1062</ele>
        <time>2024-09-18T06:50:02Z</time>
      </trkpt>
      <trkpt lat="42.51458" lon="2.37157">
        <ele>1062</ele>
        <time>2024-09-18T06:50:05Z</time>
      </trkpt>
      <trkpt lat="42.51456" lon="2.37159">
        <ele>1061</ele>
        <time>2024-09-18T06:50:08Z</time>
      </trkpt>
      <trkpt lat="42.51453" lon="2.37162">
        <ele>1060</ele>
        <time>2024-09-18T06:50:11Z</time>
      </trkpt>
      <trkpt lat="42.51451" lon="2.37165">
        <ele>1059</ele>
        <time>2024-09-18T06:50:14Z</time>
      </trkpt>
      <trkpt lat="42.51449" lon="2.37168">
        <ele>1060</ele>
        <time>2024-09-18T06:50:16Z</time>
      </trkpt>
      <trkpt lat="42.51446" lon="2.37171">
        <ele>1060</ele>
        <time>2024-09-18T06:50:19Z</time>
      </trkpt>
      <trkpt lat="42.51445" lon="2.37175">
        <ele>1057</ele>
        <time>2024-09-18T06:50:23Z</time>
      </trkpt>
      <trkpt lat="42.51443" lon="2.37179">
        <ele>1057</ele>
        <time>2024-09-18T06:50:29Z</time>
      </trkpt>
      <trkpt lat="42.51441" lon="2.37183">
        <ele>1056</ele>
        <time>2024-09-18T06:50:31Z</time>
      </trkpt>
      <trkpt lat="42.5144" lon="2.37186">
        <ele>1056</ele>
        <time>2024-09-18T06:50:34Z</time>
      </trkpt>
      <trkpt lat="42.51438" lon="2.37189">
        <ele>1056</ele>
        <time>2024-09-18T06:50:37Z</time>
      </trkpt>
      <trkpt lat="42.51436" lon="2.37192">
        <ele>1056</ele>
        <time>2024-09-18T06:50:39Z</time>
      </trkpt>
      <trkpt lat="42.51434" lon="2.37196">
        <ele>1055</ele>
        <time>2024-09-18T06:50:41Z</time>
      </trkpt>
      <trkpt lat="42.51433" lon="2.37199">
        <ele>1054</ele>
        <time>2024-09-18T06:50:44Z</time>
      </trkpt>
      <trkpt lat="42.5143" lon="2.37203">
        <ele>1052</ele>
        <time>2024-09-18T06:50:47Z</time>
      </trkpt>
      <trkpt lat="42.51427" lon="2.37206">
        <ele>1051</ele>
        <time>2024-09-18T06:50:50Z</time>
      </trkpt>
      <trkpt lat="42.51425" lon="2.37211">
        <ele>1052</ele>
        <time>2024-09-18T06:50:52Z</time>
      </trkpt>
      <trkpt lat="42.51423" lon="2.37215">
        <ele>1053</ele>
        <time>2024-09-18T06:50:55Z</time>
      </trkpt>
      <trkpt lat="42.5142" lon="2.37218">
        <ele>1051</ele>
        <time>2024-09-18T06:50:59Z</time>
      </trkpt>
      <trkpt lat="42.51417" lon="2.37221">
        <ele>1050</ele>
        <time>2024-09-18T06:51:02Z</time>
      </trkpt>
      <trkpt lat="42.51416" lon="2.37224">
        <ele>1048</ele>
        <time>2024-09-18T06:51:04Z</time>
      </trkpt>
      <trkpt lat="42.51414" lon="2.37228">
        <ele>1047</ele>
        <time>2024-09-18T06:51:09Z</time>
      </trkpt>
      <trkpt lat="42.51412" lon="2.37231">
        <ele>1046</ele>
        <time>2024-09-18T06:51:11Z</time>
      </trkpt>
      <trkpt lat="42.5141" lon="2.37235">
        <ele>1046</ele>
        <time>2024-09-18T06:51:14Z</time>
      </trkpt>
      <trkpt lat="42.51407" lon="2.37238">
        <ele>1046</ele>
        <time>2024-09-18T06:51:16Z</time>
      </trkpt>
      <trkpt lat="42.51405" lon="2.37242">
        <ele>1045</ele>
        <time>2024-09-18T06:51:17Z</time>
      </trkpt>
      <trkpt lat="42.51403" lon="2.37244">
        <ele>1046</ele>
        <time>2024-09-18T06:51:19Z</time>
      </trkpt>
      <trkpt lat="42.514" lon="2.37247">
        <ele>1047</ele>
        <time>2024-09-18T06:51:25Z</time>
      </trkpt>
      <trkpt lat="42.51397" lon="2.37249">
        <ele>1047</ele>
        <time>2024-09-18T06:51:27Z</time>
      </trkpt>
      <trkpt lat="42.51393" lon="2.37251">
        <ele>1048</ele>
        <time>2024-09-18T06:51:29Z</time>
      </trkpt>
      <trkpt lat="42.51391" lon="2.37254">
        <ele>1049</ele>
        <time>2024-09-18T06:51:31Z</time>
      </trkpt>
      <trkpt lat="42.51389" lon="2.37257">
        <ele>1050</ele>
        <time>2024-09-18T06:51:35Z</time>
      </trkpt>
      <trkpt lat="42.51388" lon="2.37261">
        <ele>1050</ele>
        <time>2024-09-18T06:51:37Z</time>
      </trkpt>
      <trkpt lat="42.51385" lon="2.37264">
        <ele>1050</ele>
        <time>2024-09-18T06:51:40Z</time>
      </trkpt>
      <trkpt lat="42.51383" lon="2.37267">
        <ele>1048</ele>
        <time>2024-09-18T06:51:42Z</time>
      </trkpt>
      <trkpt lat="42.51381" lon="2.3727">
        <ele>1050</ele>
        <time>2024-09-18T06:51:45Z</time>
      </trkpt>
      <trkpt lat="42.51378" lon="2.37273">
        <ele>1048</ele>
        <time>2024-09-18T06:51:47Z</time>
      </trkpt>
      <trkpt lat="42.51376" lon="2.37276">
        <ele>1050</ele>
        <time>2024-09-18T06:51:50Z</time>
      </trkpt>
      <trkpt lat="42.51374" lon="2.37281">
        <ele>1050</ele>
        <time>2024-09-18T06:51:53Z</time>
      </trkpt>
      <trkpt lat="42.51373" lon="2.37284">
        <ele>1048</ele>
        <time>2024-09-18T06:51:56Z</time>
      </trkpt>
      <trkpt lat="42.5137" lon="2.37289">
        <ele>1048</ele>
        <time>2024-09-18T06:51:59Z</time>
      </trkpt>
      <trkpt lat="42.51368" lon="2.37292">
        <ele>1049</ele>
        <time>2024-09-18T06:52:02Z</time>
      </trkpt>
      <trkpt lat="42.51366" lon="2.37296">
        <ele>1047</ele>
        <time>2024-09-18T06:52:05Z</time>
      </trkpt>
      <trkpt lat="42.51363" lon="2.373">
        <ele>1049</ele>
        <time>2024-09-18T06:52:08Z</time>
      </trkpt>
      <trkpt lat="42.51362" lon="2.37305">
        <ele>1051</ele>
        <time>2024-09-18T06:52:11Z</time>
      </trkpt>
      <trkpt lat="42.5136" lon="2.37308">
        <ele>1047</ele>
        <time>2024-09-18T06:52:13Z</time>
      </trkpt>
      <trkpt lat="42.51359" lon="2.37312">
        <ele>1048</ele>
        <time>2024-09-18T06:52:16Z</time>
      </trkpt>
      <trkpt lat="42.51358" lon="2.37317">
        <ele>1047</ele>
        <time>2024-09-18T06:52:19Z</time>
      </trkpt>
      <trkpt lat="42.51358" lon="2.37321">
        <ele>1051</ele>
        <time>2024-09-18T06:52:21Z</time>
      </trkpt>
      <trkpt lat="42.51357" lon="2.37326">
        <ele>1048</ele>
        <time>2024-09-18T06:52:24Z</time>
      </trkpt>
      <trkpt lat="42.51356" lon="2.3733">
        <ele>1051</ele>
        <time>2024-09-18T06:52:26Z</time>
      </trkpt>
      <trkpt lat="42.51355" lon="2.37335">
        <ele>1050</ele>
        <time>2024-09-18T06:52:30Z</time>
      </trkpt>
      <trkpt lat="42.51354" lon="2.3734">
        <ele>1050</ele>
        <time>2024-09-18T06:52:32Z</time>
      </trkpt>
      <trkpt lat="42.51353" lon="2.37344">
        <ele>1049</ele>
        <time>2024-09-18T06:52:35Z</time>
      </trkpt>
      <trkpt lat="42.51352" lon="2.37348">
        <ele>1045</ele>
        <time>2024-09-18T06:52:40Z</time>
      </trkpt>
      <trkpt lat="42.51351" lon="2.37353">
        <ele>1046</ele>
        <time>2024-09-18T06:52:42Z</time>
      </trkpt>
      <trkpt lat="42.5135" lon="2.37358">
        <ele>1047</ele>
        <time>2024-09-18T06:52:46Z</time>
      </trkpt>
      <trkpt lat="42.51349" lon="2.37362">
        <ele>1046</ele>
        <time>2024-09-18T06:52:49Z</time>
      </trkpt>
      <trkpt lat="42.51349" lon="2.37367">
        <ele>1048</ele>
        <time>2024-09-18T06:52:52Z</time>
      </trkpt>
      <trkpt lat="42.51348" lon="2.37372">
        <ele>1046</ele>
        <time>2024-09-18T06:52:55Z</time>
      </trkpt>
      <trkpt lat="42.51346" lon="2.37376">
        <ele>1047</ele>
        <time>2024-09-18T06:52:59Z</time>
      </trkpt>
      <trkpt lat="42.51345" lon="2.3738">
        <ele>1044</ele>
        <time>2024-09-18T06:53:03Z</time>
      </trkpt>
      <trkpt lat="42.51343" lon="2.37384">
        <ele>1044</ele>
        <time>2024-09-18T06:53:06Z</time>
      </trkpt>
      <trkpt lat="42.51341" lon="2.37388">
        <ele>1044</ele>
        <time>2024-09-18T06:53:08Z</time>
      </trkpt>
      <trkpt lat="42.51339" lon="2.37392">
        <ele>1043</ele>
        <time>2024-09-18T06:53:10Z</time>
      </trkpt>
      <trkpt lat="42.51337" lon="2.37395">
        <ele>1042</ele>
        <time>2024-09-18T06:53:12Z</time>
      </trkpt>
      <trkpt lat="42.51335" lon="2.37397">
        <ele>1040</ele>
        <time>2024-09-18T06:53:16Z</time>
      </trkpt>
      <trkpt lat="42.51333" lon="2.374">
        <ele>1043</ele>
        <time>2024-09-18T06:53:18Z</time>
      </trkpt>
      <trkpt lat="42.5133" lon="2.37403">
        <ele>1043</ele>
        <time>2024-09-18T06:53:21Z</time>
      </trkpt>
      <trkpt lat="42.51328" lon="2.37406">
        <ele>1043</ele>
        <time>2024-09-18T06:53:23Z</time>
      </trkpt>
      <trkpt lat="42.51325" lon="2.37409">
        <ele>1045</ele>
        <time>2024-09-18T06:53:27Z</time>
      </trkpt>
      <trkpt lat="42.51323" lon="2.37412">
        <ele>1044</ele>
        <time>2024-09-18T06:53:30Z</time>
      </trkpt>
      <trkpt lat="42.5132" lon="2.37415">
        <ele>1047</ele>
        <time>2024-09-18T06:53:34Z</time>
      </trkpt>
      <trkpt lat="42.51317" lon="2.37418">
        <ele>1047</ele>
        <time>2024-09-18T06:53:37Z</time>
      </trkpt>
      <trkpt lat="42.51315" lon="2.3742">
        <ele>1048</ele>
        <time>2024-09-18T06:53:39Z</time>
      </trkpt>
      <trkpt lat="42.51311" lon="2.37422">
        <ele>1047</ele>
        <time>2024-09-18T06:53:43Z</time>
      </trkpt>
      <trkpt lat="42.51309" lon="2.37424">
        <ele>1047</ele>
        <time>2024-09-18T06:53:45Z</time>
      </trkpt>
      <trkpt lat="42.51306" lon="2.37426">
        <ele>1047</ele>
        <time>2024-09-18T06:53:48Z</time>
      </trkpt>
      <trkpt lat="42.51303" lon="2.37428">
        <ele>1046</ele>
        <time>2024-09-18T06:53:51Z</time>
      </trkpt>
      <trkpt lat="42.513" lon="2.3743">
        <ele>1047</ele>
        <time>2024-09-18T06:53:54Z</time>
      </trkpt>
      <trkpt lat="42.51297" lon="2.37432">
        <ele>1048</ele>
        <time>2024-09-18T06:53:57Z</time>
      </trkpt>
      <trkpt lat="42.51294" lon="2.37434">
        <ele>1047</ele>
        <time>2024-09-18T06:54:00Z</time>
      </trkpt>
      <trkpt lat="42.51291" lon="2.37436">
        <ele>1045</ele>
        <time>2024-09-18T06:54:03Z</time>
      </trkpt>
      <trkpt lat="42.51288" lon="2.37437">
        <ele>1046</ele>
        <time>2024-09-18T06:54:06Z</time>
      </trkpt>
      <trkpt lat="42.51284" lon="2.37439">
        <ele>1045</ele>
        <time>2024-09-18T06:54:10Z</time>
      </trkpt>
      <trkpt lat="42.51281" lon="2.37441">
        <ele>1047</ele>
        <time>2024-09-18T06:54:14Z</time>
      </trkpt>
      <trkpt lat="42.51278" lon="2.37443">
        <ele>1046</ele>
        <time>2024-09-18T06:54:17Z</time>
      </trkpt>
      <trkpt lat="42.51275" lon="2.37443">
        <ele>1047</ele>
        <time>2024-09-18T06:54:20Z</time>
      </trkpt>
      <trkpt lat="42.51272" lon="2.37445">
        <ele>1047</ele>
        <time>2024-09-18T06:54:23Z</time>
      </trkpt>
      <trkpt lat="42.51269" lon="2.37447">
        <ele>1047</ele>
        <time>2024-09-18T06:54:25Z</time>
      </trkpt>
      <trkpt lat="42.51266" lon="2.37448">
        <ele>1046</ele>
        <time>2024-09-18T06:54:27Z</time>
      </trkpt>
      <trkpt lat="42.51263" lon="2.37449">
        <ele>1045</ele>
        <time>2024-09-18T06:54:30Z</time>
      </trkpt>
      <trkpt lat="42.5126" lon="2.3745">
        <ele>1046</ele>
        <time>2024-09-18T06:54:33Z</time>
      </trkpt>
      <trkpt lat="42.51258" lon="2.37451">
        <ele>1046</ele>
        <time>2024-09-18T06:54:35Z</time>
      </trkpt>
      <trkpt lat="42.51254" lon="2.37451">
        <ele>1046</ele>
        <time>2024-09-18T06:54:38Z</time>
      </trkpt>
      <trkpt lat="42.51251" lon="2.37452">
        <ele>1046</ele>
        <time>2024-09-18T06:54:42Z</time>
      </trkpt>
      <trkpt lat="42.51248" lon="2.37453">
        <ele>1046</ele>
        <time>2024-09-18T06:54:45Z</time>
      </trkpt>
      <trkpt lat="42.51245" lon="2.37454">
        <ele>1046</ele>
        <time>2024-09-18T06:54:48Z</time>
      </trkpt>
      <trkpt lat="42.51242" lon="2.37456">
        <ele>1046</ele>
        <time>2024-09-18T06:54:50Z</time>
      </trkpt>
      <trkpt lat="42.51238" lon="2.37457">
        <ele>1046</ele>
        <time>2024-09-18T06:54:53Z</time>
      </trkpt>
      <trkpt lat="42.51235" lon="2.37459">
        <ele>1045</ele>
        <time>2024-09-18T06:54:56Z</time>
      </trkpt>
      <trkpt lat="42.51232" lon="2.37461">
        <ele>1045</ele>
        <time>2024-09-18T06:54:59Z</time>
      </trkpt>
      <trkpt lat="42.51229" lon="2.37463">
        <ele>1042</ele>
        <time>2024-09-18T06:55:02Z</time>
      </trkpt>
      <trkpt lat="42.51226" lon="2.37465">
        <ele>1041</ele>
        <time>2024-09-18T06:55:04Z</time>
      </trkpt>
      <trkpt lat="42.51223" lon="2.37466">
        <ele>1040</ele>
        <time>2024-09-18T06:55:09Z</time>
      </trkpt>
      <trkpt lat="42.5122" lon="2.37467">
        <ele>1040</ele>
        <time>2024-09-18T06:55:12Z</time>
      </trkpt>
      <trkpt lat="42.51216" lon="2.37469">
        <ele>1041</ele>
        <time>2024-09-18T06:55:14Z</time>
      </trkpt>
      <trkpt lat="42.51213" lon="2.37469">
        <ele>1041</ele>
        <time>2024-09-18T06:55:17Z</time>
      </trkpt>
      <trkpt lat="42.5121" lon="2.37469">
        <ele>1039</ele>
        <time>2024-09-18T06:55:22Z</time>
      </trkpt>
      <trkpt lat="42.51207" lon="2.37469">
        <ele>1041</ele>
        <time>2024-09-18T06:55:25Z</time>
      </trkpt>
      <trkpt lat="42.51203" lon="2.3747">
        <ele>1042</ele>
        <time>2024-09-18T06:55:28Z</time>
      </trkpt>
      <trkpt lat="42.512" lon="2.37471">
        <ele>1041</ele>
        <time>2024-09-18T06:55:31Z</time>
      </trkpt>
      <trkpt lat="42.51196" lon="2.37472">
        <ele>1042</ele>
        <time>2024-09-18T06:55:34Z</time>
      </trkpt>
      <trkpt lat="42.51193" lon="2.37473">
        <ele>1043</ele>
        <time>2024-09-18T06:55:37Z</time>
      </trkpt>
      <trkpt lat="42.51189" lon="2.37474">
        <ele>1043</ele>
        <time>2024-09-18T06:55:41Z</time>
      </trkpt>
      <trkpt lat="42.51186" lon="2.37474">
        <ele>1045</ele>
        <time>2024-09-18T06:55:43Z</time>
      </trkpt>
      <trkpt lat="42.51183" lon="2.37475">
        <ele>1047</ele>
        <time>2024-09-18T06:55:46Z</time>
      </trkpt>
      <trkpt lat="42.5118" lon="2.37474">
        <ele>1044</ele>
        <time>2024-09-18T06:55:52Z</time>
      </trkpt>
      <trkpt lat="42.51179" lon="2.37477">
        <ele>1042</ele>
        <time>2024-09-18T06:55:56Z</time>
      </trkpt>
      <trkpt lat="42.51177" lon="2.37481">
        <ele>1042</ele>
        <time>2024-09-18T06:56:00Z</time>
      </trkpt>
      <trkpt lat="42.51175" lon="2.37483">
        <ele>1041</ele>
        <time>2024-09-18T06:56:04Z</time>
      </trkpt>
      <trkpt lat="42.51173" lon="2.37486">
        <ele>1041</ele>
        <time>2024-09-18T06:56:06Z</time>
      </trkpt>
      <trkpt lat="42.5117" lon="2.37488">
        <ele>1040</ele>
        <time>2024-09-18T06:56:12Z</time>
      </trkpt>
      <trkpt lat="42.51167" lon="2.37489">
        <ele>1041</ele>
        <time>2024-09-18T06:56:14Z</time>
      </trkpt>
      <trkpt lat="42.51165" lon="2.37489">
        <ele>1038</ele>
        <time>2024-09-18T06:56:17Z</time>
      </trkpt>
      <trkpt lat="42.51162" lon="2.37491">
        <ele>1037</ele>
        <time>2024-09-18T06:56:23Z</time>
      </trkpt>
      <trkpt lat="42.51159" lon="2.37494">
        <ele>1036</ele>
        <time>2024-09-18T06:56:28Z</time>
      </trkpt>
      <trkpt lat="42.51156" lon="2.37497">
        <ele>1037</ele>
        <time>2024-09-18T06:56:35Z</time>
      </trkpt>
      <trkpt lat="42.51155" lon="2.375">
        <ele>1036</ele>
        <time>2024-09-18T06:56:37Z</time>
      </trkpt>
      <trkpt lat="42.51155" lon="2.37504">
        <ele>1034</ele>
        <time>2024-09-18T06:56:40Z</time>
      </trkpt>
      <trkpt lat="42.51158" lon="2.37506">
        <ele>1035</ele>
        <time>2024-09-18T06:56:44Z</time>
      </trkpt>
      <trkpt lat="42.51159" lon="2.37509">
        <ele>1037</ele>
        <time>2024-09-18T06:56:49Z</time>
      </trkpt>
      <trkpt lat="42.51161" lon="2.37511">
        <ele>1039</ele>
        <time>2024-09-18T06:56:59Z</time>
      </trkpt>
      <trkpt lat="42.51159" lon="2.37511">
        <ele>1033</ele>
        <time>2024-09-18T06:57:08Z</time>
      </trkpt>
      <trkpt lat="42.51157" lon="2.3751">
        <ele>1031</ele>
        <time>2024-09-18T06:57:11Z</time>
      </trkpt>
      <trkpt lat="42.51158" lon="2.37512">
        <ele>1031</ele>
        <time>2024-09-18T06:57:14Z</time>
      </trkpt>
      <trkpt lat="42.5116" lon="2.37513">
        <ele>1031</ele>
        <time>2024-09-18T06:57:19Z</time>
      </trkpt>
      <trkpt lat="42.51163" lon="2.37515">
        <ele>1030</ele>
        <time>2024-09-18T06:57:22Z</time>
      </trkpt>
      <trkpt lat="42.51166" lon="2.37517">
        <ele>1031</ele>
        <time>2024-09-18T06:57:25Z</time>
      </trkpt>
      <trkpt lat="42.51167" lon="2.37521">
        <ele>1031</ele>
        <time>2024-09-18T06:57:31Z</time>
      </trkpt>
      <trkpt lat="42.51169" lon="2.37524">
        <ele>1032</ele>
        <time>2024-09-18T06:57:33Z</time>
      </trkpt>
      <trkpt lat="42.51172" lon="2.37527">
        <ele>1032</ele>
        <time>2024-09-18T06:57:36Z</time>
      </trkpt>
      <trkpt lat="42.51174" lon="2.3753">
        <ele>1032</ele>
        <time>2024-09-18T06:57:39Z</time>
      </trkpt>
      <trkpt lat="42.51177" lon="2.37533">
        <ele>1031</ele>
        <time>2024-09-18T06:57:41Z</time>
      </trkpt>
      <trkpt lat="42.51177" lon="2.37536">
        <ele>1033</ele>
        <time>2024-09-18T06:57:45Z</time>
      </trkpt>
      <trkpt lat="42.51178" lon="2.37541">
        <ele>1033</ele>
        <time>2024-09-18T06:57:48Z</time>
      </trkpt>
      <trkpt lat="42.51179" lon="2.37545">
        <ele>1036</ele>
        <time>2024-09-18T06:57:53Z</time>
      </trkpt>
      <trkpt lat="42.51179" lon="2.37549">
        <ele>1036</ele>
        <time>2024-09-18T06:57:56Z</time>
      </trkpt>
      <trkpt lat="42.5118" lon="2.37554">
        <ele>1035</ele>
        <time>2024-09-18T06:58:00Z</time>
      </trkpt>
      <trkpt lat="42.5118" lon="2.37558">
        <ele>1034</ele>
        <time>2024-09-18T06:58:04Z</time>
      </trkpt>
      <trkpt lat="42.5118" lon="2.37563">
        <ele>1034</ele>
        <time>2024-09-18T06:58:07Z</time>
      </trkpt>
      <trkpt lat="42.5118" lon="2.37567">
        <ele>1033</ele>
        <time>2024-09-18T06:58:10Z</time>
      </trkpt>
      <trkpt lat="42.51178" lon="2.3757">
        <ele>1031</ele>
        <time>2024-09-18T06:58:15Z</time>
      </trkpt>
      <trkpt lat="42.51176" lon="2.37573">
        <ele>1033</ele>
        <time>2024-09-18T06:58:19Z</time>
      </trkpt>
      <trkpt lat="42.51174" lon="2.37576">
        <ele>1032</ele>
        <time>2024-09-18T06:58:22Z</time>
      </trkpt>
      <trkpt lat="42.51171" lon="2.3758">
        <ele>1031</ele>
        <time>2024-09-18T06:58:27Z</time>
      </trkpt>
      <trkpt lat="42.5117" lon="2.37583">
        <ele>1030</ele>
        <time>2024-09-18T06:58:30Z</time>
      </trkpt>
      <trkpt lat="42.51169" lon="2.37588">
        <ele>1030</ele>
        <time>2024-09-18T06:58:34Z</time>
      </trkpt>
      <trkpt lat="42.51169" lon="2.37593">
        <ele>1031</ele>
        <time>2024-09-18T06:58:36Z</time>
      </trkpt>
      <trkpt lat="42.51169" lon="2.37597">
        <ele>1030</ele>
        <time>2024-09-18T06:58:39Z</time>
      </trkpt>
      <trkpt lat="42.51171" lon="2.376">
        <ele>1030</ele>
        <time>2024-09-18T06:58:41Z</time>
      </trkpt>
      <trkpt lat="42.51172" lon="2.37605">
        <ele>1030</ele>
        <time>2024-09-18T06:58:44Z</time>
      </trkpt>
      <trkpt lat="42.51173" lon="2.3761">
        <ele>1027</ele>
        <time>2024-09-18T06:58:47Z</time>
      </trkpt>
      <trkpt lat="42.51174" lon="2.37614">
        <ele>1027</ele>
        <time>2024-09-18T06:58:51Z</time>
      </trkpt>
      <trkpt lat="42.51173" lon="2.37618">
        <ele>1028</ele>
        <time>2024-09-18T06:58:55Z</time>
      </trkpt>
      <trkpt lat="42.51173" lon="2.37622">
        <ele>1027</ele>
        <time>2024-09-18T06:58:58Z</time>
      </trkpt>
      <trkpt lat="42.51171" lon="2.37626">
        <ele>1028</ele>
        <time>2024-09-18T06:59:00Z</time>
      </trkpt>
      <trkpt lat="42.5117" lon="2.37631">
        <ele>1027</ele>
        <time>2024-09-18T06:59:03Z</time>
      </trkpt>
      <trkpt lat="42.51168" lon="2.37635">
        <ele>1029</ele>
        <time>2024-09-18T06:59:06Z</time>
      </trkpt>
      <trkpt lat="42.51166" lon="2.37637">
        <ele>1028</ele>
        <time>2024-09-18T06:59:09Z</time>
      </trkpt>
      <trkpt lat="42.51163" lon="2.3764">
        <ele>1027</ele>
        <time>2024-09-18T06:59:13Z</time>
      </trkpt>
      <trkpt lat="42.51162" lon="2.37644">
        <ele>1028</ele>
        <time>2024-09-18T06:59:15Z</time>
      </trkpt>
      <trkpt lat="42.5116" lon="2.37648">
        <ele>1029</ele>
        <time>2024-09-18T06:59:17Z</time>
      </trkpt>
      <trkpt lat="42.51158" lon="2.37652">
        <ele>1029</ele>
        <time>2024-09-18T06:59:20Z</time>
      </trkpt>
      <trkpt lat="42.51155" lon="2.37655">
        <ele>1028</ele>
        <time>2024-09-18T06:59:23Z</time>
      </trkpt>
      <trkpt lat="42.51152" lon="2.37658">
        <ele>1027</ele>
        <time>2024-09-18T06:59:25Z</time>
      </trkpt>
      <trkpt lat="42.51151" lon="2.37662">
        <ele>1028</ele>
        <time>2024-09-18T06:59:28Z</time>
      </trkpt>
      <trkpt lat="42.51149" lon="2.37665">
        <ele>1026</ele>
        <time>2024-09-18T06:59:31Z</time>
      </trkpt>
      <trkpt lat="42.51147" lon="2.37668">
        <ele>1028</ele>
        <time>2024-09-18T06:59:33Z</time>
      </trkpt>
      <trkpt lat="42.51146" lon="2.37672">
        <ele>1029</ele>
        <time>2024-09-18T06:59:36Z</time>
      </trkpt>
      <trkpt lat="42.51144" lon="2.37675">
        <ele>1027</ele>
        <time>2024-09-18T06:59:39Z</time>
      </trkpt>
      <trkpt lat="42.51142" lon="2.37679">
        <ele>1028</ele>
        <time>2024-09-18T06:59:42Z</time>
      </trkpt>
      <trkpt lat="42.51141" lon="2.37682">
        <ele>1030</ele>
        <time>2024-09-18T06:59:45Z</time>
      </trkpt>
      <trkpt lat="42.51138" lon="2.37685">
        <ele>1029</ele>
        <time>2024-09-18T06:59:48Z</time>
      </trkpt>
      <trkpt lat="42.51135" lon="2.37687">
        <ele>1031</ele>
        <time>2024-09-18T06:59:51Z</time>
      </trkpt>
      <trkpt lat="42.51133" lon="2.37691">
        <ele>1030</ele>
        <time>2024-09-18T06:59:54Z</time>
      </trkpt>
      <trkpt lat="42.51132" lon="2.37696">
        <ele>1030</ele>
        <time>2024-09-18T06:59:57Z</time>
      </trkpt>
      <trkpt lat="42.51131" lon="2.377">
        <ele>1030</ele>
        <time>2024-09-18T07:00:00Z</time>
      </trkpt>
      <trkpt lat="42.51128" lon="2.37703">
        <ele>1029</ele>
        <time>2024-09-18T07:00:03Z</time>
      </trkpt>
      <trkpt lat="42.51125" lon="2.37707">
        <ele>1028</ele>
        <time>2024-09-18T07:00:09Z</time>
      </trkpt>
      <trkpt lat="42.51123" lon="2.37709">
        <ele>1028</ele>
        <time>2024-09-18T07:00:14Z</time>
      </trkpt>
      <trkpt lat="42.51121" lon="2.37713">
        <ele>1027</ele>
        <time>2024-09-18T07:00:15Z</time>
      </trkpt>
      <trkpt lat="42.5112" lon="2.37717">
        <ele>1028</ele>
        <time>2024-09-18T07:00:17Z</time>
      </trkpt>
      <trkpt lat="42.51119" lon="2.37722">
        <ele>1031</ele>
        <time>2024-09-18T07:00:19Z</time>
      </trkpt>
      <trkpt lat="42.5112" lon="2.37726">
        <ele>1031</ele>
        <time>2024-09-18T07:00:23Z</time>
      </trkpt>
      <trkpt lat="42.51122" lon="2.37731">
        <ele>1031</ele>
        <time>2024-09-18T07:00:25Z</time>
      </trkpt>
      <trkpt lat="42.51125" lon="2.37733">
        <ele>1029</ele>
        <time>2024-09-18T07:00:28Z</time>
      </trkpt>
      <trkpt lat="42.51125" lon="2.37736">
        <ele>1028</ele>
        <time>2024-09-18T07:00:34Z</time>
      </trkpt>
      <trkpt lat="42.51123" lon="2.3774">
        <ele>1029</ele>
        <time>2024-09-18T07:00:37Z</time>
      </trkpt>
      <trkpt lat="42.51124" lon="2.37741">
        <ele>1029</ele>
        <time>2024-09-18T07:00:39Z</time>
      </trkpt>
      <trkpt lat="42.51126" lon="2.37739">
        <ele>1027</ele>
        <time>2024-09-18T07:00:42Z</time>
      </trkpt>
      <trkpt lat="42.51128" lon="2.37736">
        <ele>1027</ele>
        <time>2024-09-18T07:00:46Z</time>
      </trkpt>
      <trkpt lat="42.5113" lon="2.37737">
        <ele>1028</ele>
        <time>2024-09-18T07:00:51Z</time>
      </trkpt>
      <trkpt lat="42.51132" lon="2.3774">
        <ele>1029</ele>
        <time>2024-09-18T07:00:59Z</time>
      </trkpt>
      <trkpt lat="42.51134" lon="2.37743">
        <ele>1031</ele>
        <time>2024-09-18T07:01:08Z</time>
      </trkpt>
      <trkpt lat="42.51137" lon="2.37745">
        <ele>1031</ele>
        <time>2024-09-18T07:01:12Z</time>
      </trkpt>
      <trkpt lat="42.51139" lon="2.37747">
        <ele>1031</ele>
        <time>2024-09-18T07:01:18Z</time>
      </trkpt>
      <trkpt lat="42.51142" lon="2.37748">
        <ele>1031</ele>
        <time>2024-09-18T07:01:22Z</time>
      </trkpt>
      <trkpt lat="42.51145" lon="2.3775">
        <ele>1032</ele>
        <time>2024-09-18T07:01:28Z</time>
      </trkpt>
      <trkpt lat="42.51148" lon="2.37752">
        <ele>1032</ele>
        <time>2024-09-18T07:01:35Z</time>
      </trkpt>
      <trkpt lat="42.51151" lon="2.37753">
        <ele>1033</ele>
        <time>2024-09-18T07:01:40Z</time>
      </trkpt>
      <trkpt lat="42.51153" lon="2.37753">
        <ele>1034</ele>
        <time>2024-09-18T07:01:42Z</time>
      </trkpt>
      <trkpt lat="42.51157" lon="2.37753">
        <ele>1034</ele>
        <time>2024-09-18T07:01:47Z</time>
      </trkpt>
      <trkpt lat="42.51161" lon="2.37755">
        <ele>1035</ele>
        <time>2024-09-18T07:01:52Z</time>
      </trkpt>
      <trkpt lat="42.51164" lon="2.37758">
        <ele>1038</ele>
        <time>2024-09-18T07:02:05Z</time>
      </trkpt>
      <trkpt lat="42.51167" lon="2.37759">
        <ele>1041</ele>
        <time>2024-09-18T07:02:10Z</time>
      </trkpt>
      <trkpt lat="42.5117" lon="2.3776">
        <ele>1043</ele>
        <time>2024-09-18T07:02:17Z</time>
      </trkpt>
      <trkpt lat="42.51173" lon="2.37761">
        <ele>1042</ele>
        <time>2024-09-18T07:02:24Z</time>
      </trkpt>
      <trkpt lat="42.51176" lon="2.37763">
        <ele>1042</ele>
        <time>2024-09-18T07:02:31Z</time>
      </trkpt>
      <trkpt lat="42.51179" lon="2.37764">
        <ele>1040</ele>
        <time>2024-09-18T07:02:34Z</time>
      </trkpt>
      <trkpt lat="42.51182" lon="2.37766">
        <ele>1043</ele>
        <time>2024-09-18T07:02:42Z</time>
      </trkpt>
      <trkpt lat="42.51185" lon="2.37767">
        <ele>1042</ele>
        <time>2024-09-18T07:02:47Z</time>
      </trkpt>
      <trkpt lat="42.51188" lon="2.37768">
        <ele>1043</ele>
        <time>2024-09-18T07:02:50Z</time>
      </trkpt>
      <trkpt lat="42.5119" lon="2.3777">
        <ele>1043</ele>
        <time>2024-09-18T07:02:53Z</time>
      </trkpt>
      <trkpt lat="42.51191" lon="2.37774">
        <ele>1042</ele>
        <time>2024-09-18T07:03:01Z</time>
      </trkpt>
      <trkpt lat="42.51192" lon="2.37778">
        <ele>1042</ele>
        <time>2024-09-18T07:03:07Z</time>
      </trkpt>
      <trkpt lat="42.51193" lon="2.37782">
        <ele>1044</ele>
        <time>2024-09-18T07:03:14Z</time>
      </trkpt>
      <trkpt lat="42.51194" lon="2.37786">
        <ele>1043</ele>
        <time>2024-09-18T07:03:17Z</time>
      </trkpt>
      <trkpt lat="42.51197" lon="2.37789">
        <ele>1044</ele>
        <time>2024-09-18T07:03:22Z</time>
      </trkpt>
      <trkpt lat="42.51198" lon="2.37794">
        <ele>1043</ele>
        <time>2024-09-18T07:03:27Z</time>
      </trkpt>
      <trkpt lat="42.512" lon="2.37798">
        <ele>1043</ele>
        <time>2024-09-18T07:03:30Z</time>
      </trkpt>
      <trkpt lat="42.51202" lon="2.378">
        <ele>1045</ele>
        <time>2024-09-18T07:03:32Z</time>
      </trkpt>
      <trkpt lat="42.51205" lon="2.37803">
        <ele>1045</ele>
        <time>2024-09-18T07:03:35Z</time>
      </trkpt>
      <trkpt lat="42.51208" lon="2.37805">
        <ele>1046</ele>
        <time>2024-09-18T07:03:36Z</time>
      </trkpt>
      <trkpt lat="42.51211" lon="2.37804">
        <ele>1047</ele>
        <time>2024-09-18T07:03:39Z</time>
      </trkpt>
      <trkpt lat="42.51213" lon="2.37801">
        <ele>1046</ele>
        <time>2024-09-18T07:03:42Z</time>
      </trkpt>
      <trkpt lat="42.51215" lon="2.37799">
        <ele>1046</ele>
        <time>2024-09-18T07:03:46Z</time>
      </trkpt>
      <trkpt lat="42.51217" lon="2.37796">
        <ele>1046</ele>
        <time>2024-09-18T07:03:49Z</time>
      </trkpt>
      <trkpt lat="42.51219" lon="2.37793">
        <ele>1046</ele>
        <time>2024-09-18T07:03:52Z</time>
      </trkpt>
      <trkpt lat="42.51221" lon="2.3779">
        <ele>1047</ele>
        <time>2024-09-18T07:03:56Z</time>
      </trkpt>
      <trkpt lat="42.51224" lon="2.37787">
        <ele>1045</ele>
        <time>2024-09-18T07:03:59Z</time>
      </trkpt>
      <trkpt lat="42.51226" lon="2.37784">
        <ele>1045</ele>
        <time>2024-09-18T07:04:02Z</time>
      </trkpt>
      <trkpt lat="42.51229" lon="2.37781">
        <ele>1044</ele>
        <time>2024-09-18T07:04:05Z</time>
      </trkpt>
      <trkpt lat="42.51232" lon="2.37777">
        <ele>1046</ele>
        <time>2024-09-18T07:04:07Z</time>
      </trkpt>
      <trkpt lat="42.51234" lon="2.37775">
        <ele>1045</ele>
        <time>2024-09-18T07:04:10Z</time>
      </trkpt>
      <trkpt lat="42.51237" lon="2.37773">
        <ele>1045</ele>
        <time>2024-09-18T07:04:13Z</time>
      </trkpt>
      <trkpt lat="42.5124" lon="2.37772">
        <ele>1046</ele>
        <time>2024-09-18T07:04:15Z</time>
      </trkpt>
      <trkpt lat="42.51243" lon="2.3777">
        <ele>1046</ele>
        <time>2024-09-18T07:04:18Z</time>
      </trkpt>
      <trkpt lat="42.51246" lon="2.37769">
        <ele>1043</ele>
        <time>2024-09-18T07:04:22Z</time>
      </trkpt>
      <trkpt lat="42.5125" lon="2.37768">
        <ele>1044</ele>
        <time>2024-09-18T07:04:25Z</time>
      </trkpt>
      <trkpt lat="42.51253" lon="2.37768">
        <ele>1045</ele>
        <time>2024-09-18T07:04:28Z</time>
      </trkpt>
      <trkpt lat="42.51255" lon="2.37767">
        <ele>1044</ele>
        <time>2024-09-18T07:04:30Z</time>
      </trkpt>
      <trkpt lat="42.51258" lon="2.37765">
        <ele>1043</ele>
        <time>2024-09-18T07:04:33Z</time>
      </trkpt>
      <trkpt lat="42.51262" lon="2.37763">
        <ele>1043</ele>
        <time>2024-09-18T07:04:36Z</time>
      </trkpt>
      <trkpt lat="42.51265" lon="2.37762">
        <ele>1044</ele>
        <time>2024-09-18T07:04:39Z</time>
      </trkpt>
      <trkpt lat="42.51269" lon="2.3776">
        <ele>1045</ele>
        <time>2024-09-18T07:04:41Z</time>
      </trkpt>
      <trkpt lat="42.51272" lon="2.37759">
        <ele>1043</ele>
        <time>2024-09-18T07:04:45Z</time>
      </trkpt>
      <trkpt lat="42.51276" lon="2.37757">
        <ele>1042</ele>
        <time>2024-09-18T07:04:48Z</time>
      </trkpt>
      <trkpt lat="42.51279" lon="2.37756">
        <ele>1042</ele>
        <time>2024-09-18T07:04:51Z</time>
      </trkpt>
      <trkpt lat="42.51282" lon="2.37755">
        <ele>1043</ele>
        <time>2024-09-18T07:04:54Z</time>
      </trkpt>
      <trkpt lat="42.51286" lon="2.37755">
        <ele>1043</ele>
        <time>2024-09-18T07:04:57Z</time>
      </trkpt>
      <trkpt lat="42.5129" lon="2.37756">
        <ele>1041</ele>
        <time>2024-09-18T07:05:00Z</time>
      </trkpt>
      <trkpt lat="42.51293" lon="2.37756">
        <ele>1041</ele>
        <time>2024-09-18T07:05:02Z</time>
      </trkpt>
      <trkpt lat="42.51297" lon="2.37757">
        <ele>1040</ele>
        <time>2024-09-18T07:05:04Z</time>
      </trkpt>
      <trkpt lat="42.513" lon="2.37757">
        <ele>1042</ele>
        <time>2024-09-18T07:05:08Z</time>
      </trkpt>
      <trkpt lat="42.51304" lon="2.37758">
        <ele>1040</ele>
        <time>2024-09-18T07:05:12Z</time>
      </trkpt>
      <trkpt lat="42.51307" lon="2.37759">
        <ele>1040</ele>
        <time>2024-09-18T07:05:14Z</time>
      </trkpt>
      <trkpt lat="42.51311" lon="2.3776">
        <ele>1042</ele>
        <time>2024-09-18T07:05:17Z</time>
      </trkpt>
      <trkpt lat="42.51314" lon="2.37762">
        <ele>1041</ele>
        <time>2024-09-18T07:05:20Z</time>
      </trkpt>
      <trkpt lat="42.51317" lon="2.37764">
        <ele>1040</ele>
        <time>2024-09-18T07:05:23Z</time>
      </trkpt>
      <trkpt lat="42.5132" lon="2.37766">
        <ele>1039</ele>
        <time>2024-09-18T07:05:26Z</time>
      </trkpt>
      <trkpt lat="42.51322" lon="2.37769">
        <ele>1040</ele>
        <time>2024-09-18T07:05:28Z</time>
      </trkpt>
      <trkpt lat="42.51325" lon="2.37771">
        <ele>1037</ele>
        <time>2024-09-18T07:05:32Z</time>
      </trkpt>
      <trkpt lat="42.51328" lon="2.37773">
        <ele>1039</ele>
        <time>2024-09-18T07:05:35Z</time>
      </trkpt>
      <trkpt lat="42.5133" lon="2.37775">
        <ele>1041</ele>
        <time>2024-09-18T07:05:38Z</time>
      </trkpt>
      <trkpt lat="42.51332" lon="2.37778">
        <ele>1040</ele>
        <time>2024-09-18T07:05:41Z</time>
      </trkpt>
      <trkpt lat="42.51334" lon="2.37781">
        <ele>1040</ele>
        <time>2024-09-18T07:05:44Z</time>
      </trkpt>
      <trkpt lat="42.51335" lon="2.37785">
        <ele>1041</ele>
        <time>2024-09-18T07:05:47Z</time>
      </trkpt>
      <trkpt lat="42.51337" lon="2.37789">
        <ele>1041</ele>
        <time>2024-09-18T07:05:54Z</time>
      </trkpt>
      <trkpt lat="42.51338" lon="2.37792">
        <ele>1044</ele>
        <time>2024-09-18T07:06:02Z</time>
      </trkpt>
      <trkpt lat="42.51339" lon="2.37796">
        <ele>1046</ele>
        <time>2024-09-18T07:06:06Z</time>
      </trkpt>
      <trkpt lat="42.51341" lon="2.378">
        <ele>1044</ele>
        <time>2024-09-18T07:06:13Z</time>
      </trkpt>
      <trkpt lat="42.51343" lon="2.37804">
        <ele>1048</ele>
        <time>2024-09-18T07:06:18Z</time>
      </trkpt>
      <trkpt lat="42.51343" lon="2.37808">
        <ele>1049</ele>
        <time>2024-09-18T07:06:23Z</time>
      </trkpt>
      <trkpt lat="42.51345" lon="2.37812">
        <ele>1051</ele>
        <time>2024-09-18T07:06:30Z</time>
      </trkpt>
      <trkpt lat="42.51346" lon="2.37815">
        <ele>1052</ele>
        <time>2024-09-18T07:06:37Z</time>
      </trkpt>
      <trkpt lat="42.51346" lon="2.37819">
        <ele>1053</ele>
        <time>2024-09-18T07:06:43Z</time>
      </trkpt>
      <trkpt lat="42.51348" lon="2.37822">
        <ele>1059</ele>
        <time>2024-09-18T07:06:50Z</time>
      </trkpt>
      <trkpt lat="42.5135" lon="2.37826">
        <ele>1058</ele>
        <time>2024-09-18T07:06:57Z</time>
      </trkpt>
      <trkpt lat="42.51351" lon="2.3783">
        <ele>1058</ele>
        <time>2024-09-18T07:07:02Z</time>
      </trkpt>
      <trkpt lat="42.51353" lon="2.37833">
        <ele>1058</ele>
        <time>2024-09-18T07:07:06Z</time>
      </trkpt>
      <trkpt lat="42.51352" lon="2.37836">
        <ele>1056</ele>
        <time>2024-09-18T07:07:08Z</time>
      </trkpt>
      <trkpt lat="42.51353" lon="2.3784">
        <ele>1058</ele>
        <time>2024-09-18T07:07:19Z</time>
      </trkpt>
      <trkpt lat="42.51354" lon="2.37844">
        <ele>1058</ele>
        <time>2024-09-18T07:07:26Z</time>
      </trkpt>
      <trkpt lat="42.51354" lon="2.37848">
        <ele>1059</ele>
        <time>2024-09-18T07:07:27Z</time>
      </trkpt>
      <trkpt lat="42.51355" lon="2.37851">
        <ele>1061</ele>
        <time>2024-09-18T07:07:34Z</time>
      </trkpt>
      <trkpt lat="42.51357" lon="2.37854">
        <ele>1062</ele>
        <time>2024-09-18T07:07:42Z</time>
      </trkpt>
      <trkpt lat="42.51359" lon="2.37856">
        <ele>1064</ele>
        <time>2024-09-18T07:07:45Z</time>
      </trkpt>
      <trkpt lat="42.5136" lon="2.37859">
        <ele>1065</ele>
        <time>2024-09-18T07:07:51Z</time>
      </trkpt>
      <trkpt lat="42.51363" lon="2.37861">
        <ele>1066</ele>
        <time>2024-09-18T07:07:55Z</time>
      </trkpt>
      <trkpt lat="42.51363" lon="2.37864">
        <ele>1065</ele>
        <time>2024-09-18T07:07:59Z</time>
      </trkpt>
      <trkpt lat="42.51362" lon="2.37868">
        <ele>1067</ele>
        <time>2024-09-18T07:08:05Z</time>
      </trkpt>
      <trkpt lat="42.51364" lon="2.37872">
        <ele>1068</ele>
        <time>2024-09-18T07:08:11Z</time>
      </trkpt>
      <trkpt lat="42.51363" lon="2.37876">
        <ele>1067</ele>
        <time>2024-09-18T07:08:14Z</time>
      </trkpt>
      <trkpt lat="42.51363" lon="2.37879">
        <ele>1067</ele>
        <time>2024-09-18T07:08:17Z</time>
      </trkpt>
      <trkpt lat="42.51364" lon="2.37883">
        <ele>1068</ele>
        <time>2024-09-18T07:08:22Z</time>
      </trkpt>
      <trkpt lat="42.51366" lon="2.37886">
        <ele>1069</ele>
        <time>2024-09-18T07:08:28Z</time>
      </trkpt>
      <trkpt lat="42.51366" lon="2.3789">
        <ele>1069</ele>
        <time>2024-09-18T07:08:33Z</time>
      </trkpt>
      <trkpt lat="42.51368" lon="2.37893">
        <ele>1071</ele>
        <time>2024-09-18T07:08:38Z</time>
      </trkpt>
      <trkpt lat="42.51369" lon="2.37896">
        <ele>1071</ele>
        <time>2024-09-18T07:08:42Z</time>
      </trkpt>
      <trkpt lat="42.51371" lon="2.37899">
        <ele>1073</ele>
        <time>2024-09-18T07:08:44Z</time>
      </trkpt>
      <trkpt lat="42.51372" lon="2.37902">
        <ele>1073</ele>
        <time>2024-09-18T07:08:49Z</time>
      </trkpt>
      <trkpt lat="42.51375" lon="2.37905">
        <ele>1074</ele>
        <time>2024-09-18T07:08:55Z</time>
      </trkpt>
      <trkpt lat="42.51377" lon="2.37908">
        <ele>1073</ele>
        <time>2024-09-18T07:09:02Z</time>
      </trkpt>
      <trkpt lat="42.51377" lon="2.37912">
        <ele>1073</ele>
        <time>2024-09-18T07:09:10Z</time>
      </trkpt>
      <trkpt lat="42.51379" lon="2.37915">
        <ele>1076</ele>
        <time>2024-09-18T07:09:16Z</time>
      </trkpt>
      <trkpt lat="42.51379" lon="2.37919">
        <ele>1076</ele>
        <time>2024-09-18T07:09:20Z</time>
      </trkpt>
      <trkpt lat="42.51381" lon="2.37921">
        <ele>1078</ele>
        <time>2024-09-18T07:09:25Z</time>
      </trkpt>
      <trkpt lat="42.51381" lon="2.37924">
        <ele>1078</ele>
        <time>2024-09-18T07:09:31Z</time>
      </trkpt>
      <trkpt lat="42.51383" lon="2.37927">
        <ele>1080</ele>
        <time>2024-09-18T07:09:36Z</time>
      </trkpt>
      <trkpt lat="42.51385" lon="2.37931">
        <ele>1081</ele>
        <time>2024-09-18T07:09:41Z</time>
      </trkpt>
      <trkpt lat="42.51387" lon="2.37934">
        <ele>1080</ele>
        <time>2024-09-18T07:09:46Z</time>
      </trkpt>
      <trkpt lat="42.5139" lon="2.37936">
        <ele>1081</ele>
        <time>2024-09-18T07:09:50Z</time>
      </trkpt>
      <trkpt lat="42.51392" lon="2.37939">
        <ele>1081</ele>
        <time>2024-09-18T07:09:55Z</time>
      </trkpt>
      <trkpt lat="42.51393" lon="2.37943">
        <ele>1081</ele>
        <time>2024-09-18T07:09:59Z</time>
      </trkpt>
      <trkpt lat="42.51394" lon="2.37946">
        <ele>1082</ele>
        <time>2024-09-18T07:10:05Z</time>
      </trkpt>
      <trkpt lat="42.51395" lon="2.37949">
        <ele>1081</ele>
        <time>2024-09-18T07:10:09Z</time>
      </trkpt>
      <trkpt lat="42.51397" lon="2.37953">
        <ele>1084</ele>
        <time>2024-09-18T07:10:12Z</time>
      </trkpt>
      <trkpt lat="42.51399" lon="2.37956">
        <ele>1085</ele>
        <time>2024-09-18T07:10:16Z</time>
      </trkpt>
      <trkpt lat="42.51401" lon="2.3796">
        <ele>1086</ele>
        <time>2024-09-18T07:10:22Z</time>
      </trkpt>
      <trkpt lat="42.51402" lon="2.37964">
        <ele>1084</ele>
        <time>2024-09-18T07:10:27Z</time>
      </trkpt>
      <trkpt lat="42.51404" lon="2.37966">
        <ele>1086</ele>
        <time>2024-09-18T07:10:31Z</time>
      </trkpt>
      <trkpt lat="42.51406" lon="2.37969">
        <ele>1086</ele>
        <time>2024-09-18T07:10:37Z</time>
      </trkpt>
      <trkpt lat="42.51408" lon="2.37971">
        <ele>1086</ele>
        <time>2024-09-18T07:10:41Z</time>
      </trkpt>
      <trkpt lat="42.51411" lon="2.37974">
        <ele>1085</ele>
        <time>2024-09-18T07:10:45Z</time>
      </trkpt>
      <trkpt lat="42.51413" lon="2.37975">
        <ele>1087</ele>
        <time>2024-09-18T07:10:48Z</time>
      </trkpt>
      <trkpt lat="42.51416" lon="2.37977">
        <ele>1087</ele>
        <time>2024-09-18T07:10:52Z</time>
      </trkpt>
      <trkpt lat="42.51418" lon="2.37979">
        <ele>1088</ele>
        <time>2024-09-18T07:10:55Z</time>
      </trkpt>
      <trkpt lat="42.5142" lon="2.37982">
        <ele>1088</ele>
        <time>2024-09-18T07:11:00Z</time>
      </trkpt>
      <trkpt lat="42.51422" lon="2.37985">
        <ele>1089</ele>
        <time>2024-09-18T07:11:06Z</time>
      </trkpt>
      <trkpt lat="42.51424" lon="2.37988">
        <ele>1092</ele>
        <time>2024-09-18T07:11:13Z</time>
      </trkpt>
      <trkpt lat="42.51425" lon="2.37991">
        <ele>1093</ele>
        <time>2024-09-18T07:11:19Z</time>
      </trkpt>
      <trkpt lat="42.51427" lon="2.37994">
        <ele>1095</ele>
        <time>2024-09-18T07:11:24Z</time>
      </trkpt>
      <trkpt lat="42.51429" lon="2.37997">
        <ele>1094</ele>
        <time>2024-09-18T07:11:31Z</time>
      </trkpt>
      <trkpt lat="42.51432" lon="2.37999">
        <ele>1095</ele>
        <time>2024-09-18T07:11:35Z</time>
      </trkpt>
      <trkpt lat="42.51434" lon="2.38001">
        <ele>1098</ele>
        <time>2024-09-18T07:11:42Z</time>
      </trkpt>
      <trkpt lat="42.51437" lon="2.38003">
        <ele>1099</ele>
        <time>2024-09-18T07:11:48Z</time>
      </trkpt>
      <trkpt lat="42.51438" lon="2.38007">
        <ele>1097</ele>
        <time>2024-09-18T07:11:54Z</time>
      </trkpt>
      <trkpt lat="42.5144" lon="2.3801">
        <ele>1097</ele>
        <time>2024-09-18T07:11:58Z</time>
      </trkpt>
      <trkpt lat="42.51442" lon="2.38013">
        <ele>1097</ele>
        <time>2024-09-18T07:12:03Z</time>
      </trkpt>
      <trkpt lat="42.51444" lon="2.38016">
        <ele>1098</ele>
        <time>2024-09-18T07:12:08Z</time>
      </trkpt>
      <trkpt lat="42.51447" lon="2.38019">
        <ele>1099</ele>
        <time>2024-09-18T07:12:14Z</time>
      </trkpt>
      <trkpt lat="42.51449" lon="2.38022">
        <ele>1100</ele>
        <time>2024-09-18T07:12:18Z</time>
      </trkpt>
      <trkpt lat="42.51451" lon="2.38025">
        <ele>1100</ele>
        <time>2024-09-18T07:12:22Z</time>
      </trkpt>
      <trkpt lat="42.51453" lon="2.38028">
        <ele>1101</ele>
        <time>2024-09-18T07:12:27Z</time>
      </trkpt>
      <trkpt lat="42.51455" lon="2.38031">
        <ele>1102</ele>
        <time>2024-09-18T07:12:33Z</time>
      </trkpt>
      <trkpt lat="42.51459" lon="2.38033">
        <ele>1103</ele>
        <time>2024-09-18T07:12:37Z</time>
      </trkpt>
      <trkpt lat="42.51462" lon="2.38033">
        <ele>1104</ele>
        <time>2024-09-18T07:12:41Z</time>
      </trkpt>
      <trkpt lat="42.51466" lon="2.38034">
        <ele>1105</ele>
        <time>2024-09-18T07:12:46Z</time>
      </trkpt>
      <trkpt lat="42.51469" lon="2.38033">
        <ele>1105</ele>
        <time>2024-09-18T07:12:51Z</time>
      </trkpt>
      <trkpt lat="42.51472" lon="2.38033">
        <ele>1107</ele>
        <time>2024-09-18T07:12:56Z</time>
      </trkpt>
      <trkpt lat="42.51475" lon="2.38033">
        <ele>1108</ele>
        <time>2024-09-18T07:13:00Z</time>
      </trkpt>
      <trkpt lat="42.51478" lon="2.38032">
        <ele>1108</ele>
        <time>2024-09-18T07:13:05Z</time>
      </trkpt>
      <trkpt lat="42.51481" lon="2.38031">
        <ele>1107</ele>
        <time>2024-09-18T07:13:09Z</time>
      </trkpt>
      <trkpt lat="42.51484" lon="2.38029">
        <ele>1108</ele>
        <time>2024-09-18T07:13:13Z</time>
      </trkpt>
      <trkpt lat="42.51486" lon="2.38027">
        <ele>1108</ele>
        <time>2024-09-18T07:13:18Z</time>
      </trkpt>
      <trkpt lat="42.51489" lon="2.38025">
        <ele>1108</ele>
        <time>2024-09-18T07:13:23Z</time>
      </trkpt>
      <trkpt lat="42.51491" lon="2.38022">
        <ele>1109</ele>
        <time>2024-09-18T07:13:27Z</time>
      </trkpt>
      <trkpt lat="42.51493" lon="2.38019">
        <ele>1110</ele>
        <time>2024-09-18T07:13:31Z</time>
      </trkpt>
      <trkpt lat="42.51495" lon="2.38017">
        <ele>1110</ele>
        <time>2024-09-18T07:13:36Z</time>
      </trkpt>
      <trkpt lat="42.51498" lon="2.38015">
        <ele>1111</ele>
        <time>2024-09-18T07:13:42Z</time>
      </trkpt>
      <trkpt lat="42.515" lon="2.38015">
        <ele>1111</ele>
        <time>2024-09-18T07:13:49Z</time>
      </trkpt>
      <trkpt lat="42.51502" lon="2.38018">
        <ele>1111</ele>
        <time>2024-09-18T07:13:54Z</time>
      </trkpt>
      <trkpt lat="42.51502" lon="2.38021">
        <ele>1111</ele>
        <time>2024-09-18T07:13:59Z</time>
      </trkpt>
      <trkpt lat="42.51501" lon="2.38025">
        <ele>1111</ele>
        <time>2024-09-18T07:14:04Z</time>
      </trkpt>
      <trkpt lat="42.51501" lon="2.38029">
        <ele>1113</ele>
        <time>2024-09-18T07:14:08Z</time>
      </trkpt>
      <trkpt lat="42.515" lon="2.38033">
        <ele>1112</ele>
        <time>2024-09-18T07:14:13Z</time>
      </trkpt>
      <trkpt lat="42.515" lon="2.38037">
        <ele>1112</ele>
        <time>2024-09-18T07:14:18Z</time>
      </trkpt>
      <trkpt lat="42.51499" lon="2.38041">
        <ele>1113</ele>
        <time>2024-09-18T07:14:22Z</time>
      </trkpt>
      <trkpt lat="42.51498" lon="2.38045">
        <ele>1115</ele>
        <time>2024-09-18T07:14:26Z</time>
      </trkpt>
      <trkpt lat="42.51498" lon="2.38049">
        <ele>1115</ele>
        <time>2024-09-18T07:14:29Z</time>
      </trkpt>
      <trkpt lat="42.51497" lon="2.38053">
        <ele>1116</ele>
        <time>2024-09-18T07:14:33Z</time>
      </trkpt>
      <trkpt lat="42.51496" lon="2.38057">
        <ele>1116</ele>
        <time>2024-09-18T07:14:36Z</time>
      </trkpt>
      <trkpt lat="42.51495" lon="2.38061">
        <ele>1117</ele>
        <time>2024-09-18T07:14:41Z</time>
      </trkpt>
      <trkpt lat="42.51495" lon="2.38065">
        <ele>1118</ele>
        <time>2024-09-18T07:14:45Z</time>
      </trkpt>
      <trkpt lat="42.51494" lon="2.38069">
        <ele>1119</ele>
        <time>2024-09-18T07:14:48Z</time>
      </trkpt>
      <trkpt lat="42.51494" lon="2.38074">
        <ele>1120</ele>
        <time>2024-09-18T07:14:51Z</time>
      </trkpt>
      <trkpt lat="42.51494" lon="2.38078">
        <ele>1120</ele>
        <time>2024-09-18T07:14:55Z</time>
      </trkpt>
      <trkpt lat="42.51493" lon="2.38083">
        <ele>1120</ele>
        <time>2024-09-18T07:14:58Z</time>
      </trkpt>
      <trkpt lat="42.51493" lon="2.38088">
        <ele>1122</ele>
        <time>2024-09-18T07:15:05Z</time>
      </trkpt>
      <trkpt lat="42.51495" lon="2.38091">
        <ele>1122</ele>
        <time>2024-09-18T07:15:08Z</time>
      </trkpt>
      <trkpt lat="42.51497" lon="2.38094">
        <ele>1122</ele>
        <time>2024-09-18T07:15:13Z</time>
      </trkpt>
      <trkpt lat="42.51498" lon="2.38098">
        <ele>1122</ele>
        <time>2024-09-18T07:15:16Z</time>
      </trkpt>
      <trkpt lat="42.51498" lon="2.38102">
        <ele>1123</ele>
        <time>2024-09-18T07:15:25Z</time>
      </trkpt>
      <trkpt lat="42.51498" lon="2.38105">
        <ele>1123</ele>
        <time>2024-09-18T07:15:34Z</time>
      </trkpt>
      <trkpt lat="42.51499" lon="2.38108">
        <ele>1121</ele>
        <time>2024-09-18T07:15:41Z</time>
      </trkpt>
      <trkpt lat="42.51501" lon="2.3811">
        <ele>1124</ele>
        <time>2024-09-18T07:17:36Z</time>
      </trkpt>
      <trkpt lat="42.51504" lon="2.38112">
        <ele>1123</ele>
        <time>2024-09-18T07:17:41Z</time>
      </trkpt>
      <trkpt lat="42.51504" lon="2.38114">
        <ele>1122</ele>
        <time>2024-09-18T07:17:51Z</time>
      </trkpt>
      <trkpt lat="42.51502" lon="2.38114">
        <ele>1122</ele>
        <time>2024-09-18T07:17:55Z</time>
      </trkpt>
      <trkpt lat="42.51503" lon="2.38115">
        <ele>1123</ele>
        <time>2024-09-18T07:18:20Z</time>
      </trkpt>
      <trkpt lat="42.51505" lon="2.38115">
        <ele>1121</ele>
        <time>2024-09-18T07:18:24Z</time>
      </trkpt>
      <trkpt lat="42.51508" lon="2.38113">
        <ele>1121</ele>
        <time>2024-09-18T07:18:31Z</time>
      </trkpt>
      <trkpt lat="42.51511" lon="2.38111">
        <ele>1120</ele>
        <time>2024-09-18T07:18:34Z</time>
      </trkpt>
      <trkpt lat="42.51513" lon="2.38108">
        <ele>1121</ele>
        <time>2024-09-18T07:18:37Z</time>
      </trkpt>
      <trkpt lat="42.51511" lon="2.38106">
        <ele>1122</ele>
        <time>2024-09-18T07:18:40Z</time>
      </trkpt>
      <trkpt lat="42.51509" lon="2.38105">
        <ele>1122</ele>
        <time>2024-09-18T07:18:43Z</time>
      </trkpt>
      <trkpt lat="42.51506" lon="2.38104">
        <ele>1123</ele>
        <time>2024-09-18T07:18:46Z</time>
      </trkpt>
      <trkpt lat="42.51502" lon="2.38105">
        <ele>1122</ele>
        <time>2024-09-18T07:18:51Z</time>
      </trkpt>
      <trkpt lat="42.51499" lon="2.38107">
        <ele>1123</ele>
        <time>2024-09-18T07:18:54Z</time>
      </trkpt>
      <trkpt lat="42.51496" lon="2.38109">
        <ele>1125</ele>
        <time>2024-09-18T07:18:58Z</time>
      </trkpt>
      <trkpt lat="42.51494" lon="2.3811">
        <ele>1125</ele>
        <time>2024-09-18T07:19:01Z</time>
      </trkpt>
      <trkpt lat="42.51491" lon="2.38112">
        <ele>1126</ele>
        <time>2024-09-18T07:19:05Z</time>
      </trkpt>
      <trkpt lat="42.51488" lon="2.38114">
        <ele>1127</ele>
        <time>2024-09-18T07:19:08Z</time>
      </trkpt>
      <trkpt lat="42.51485" lon="2.38115">
        <ele>1128</ele>
        <time>2024-09-18T07:19:11Z</time>
      </trkpt>
      <trkpt lat="42.51482" lon="2.38115">
        <ele>1129</ele>
        <time>2024-09-18T07:19:15Z</time>
      </trkpt>
      <trkpt lat="42.51479" lon="2.38116">
        <ele>1130</ele>
        <time>2024-09-18T07:19:19Z</time>
      </trkpt>
      <trkpt lat="42.51477" lon="2.38118">
        <ele>1130</ele>
        <time>2024-09-18T07:19:22Z</time>
      </trkpt>
      <trkpt lat="42.51474" lon="2.38121">
        <ele>1132</ele>
        <time>2024-09-18T07:19:29Z</time>
      </trkpt>
      <trkpt lat="42.51472" lon="2.38123">
        <ele>1132</ele>
        <time>2024-09-18T07:19:33Z</time>
      </trkpt>
      <trkpt lat="42.5147" lon="2.38127">
        <ele>1134</ele>
        <time>2024-09-18T07:19:38Z</time>
      </trkpt>
      <trkpt lat="42.51468" lon="2.3813">
        <ele>1134</ele>
        <time>2024-09-18T07:19:41Z</time>
      </trkpt>
      <trkpt lat="42.51467" lon="2.38134">
        <ele>1134</ele>
        <time>2024-09-18T07:19:44Z</time>
      </trkpt>
      <trkpt lat="42.51466" lon="2.38138">
        <ele>1134</ele>
        <time>2024-09-18T07:19:46Z</time>
      </trkpt>
      <trkpt lat="42.51466" lon="2.38142">
        <ele>1133</ele>
        <time>2024-09-18T07:19:50Z</time>
      </trkpt>
      <trkpt lat="42.51466" lon="2.38145">
        <ele>1134</ele>
        <time>2024-09-18T07:19:54Z</time>
      </trkpt>
      <trkpt lat="42.51466" lon="2.38149">
        <ele>1133</ele>
        <time>2024-09-18T07:19:57Z</time>
      </trkpt>
      <trkpt lat="42.51466" lon="2.38154">
        <ele>1132</ele>
        <time>2024-09-18T07:20:00Z</time>
      </trkpt>
      <trkpt lat="42.51466" lon="2.38158">
        <ele>1133</ele>
        <time>2024-09-18T07:20:04Z</time>
      </trkpt>
      <trkpt lat="42.51467" lon="2.38162">
        <ele>1133</ele>
        <time>2024-09-18T07:20:09Z</time>
      </trkpt>
      <trkpt lat="42.51467" lon="2.38166">
        <ele>1134</ele>
        <time>2024-09-18T07:20:14Z</time>
      </trkpt>
      <trkpt lat="42.51467" lon="2.38171">
        <ele>1134</ele>
        <time>2024-09-18T07:20:18Z</time>
      </trkpt>
      <trkpt lat="42.51466" lon="2.38174">
        <ele>1134</ele>
        <time>2024-09-18T07:20:21Z</time>
      </trkpt>
      <trkpt lat="42.51466" lon="2.38178">
        <ele>1136</ele>
        <time>2024-09-18T07:20:25Z</time>
      </trkpt>
      <trkpt lat="42.51465" lon="2.38182">
        <ele>1136</ele>
        <time>2024-09-18T07:20:29Z</time>
      </trkpt>
      <trkpt lat="42.51465" lon="2.38186">
        <ele>1138</ele>
        <time>2024-09-18T07:20:32Z</time>
      </trkpt>
      <trkpt lat="42.51464" lon="2.3819">
        <ele>1138</ele>
        <time>2024-09-18T07:20:35Z</time>
      </trkpt>
      <trkpt lat="42.51462" lon="2.38193">
        <ele>1137</ele>
        <time>2024-09-18T07:20:38Z</time>
      </trkpt>
      <trkpt lat="42.51461" lon="2.38197">
        <ele>1139</ele>
        <time>2024-09-18T07:20:43Z</time>
      </trkpt>
      <trkpt lat="42.51461" lon="2.38201">
        <ele>1140</ele>
        <time>2024-09-18T07:20:47Z</time>
      </trkpt>
      <trkpt lat="42.5146" lon="2.38204">
        <ele>1139</ele>
        <time>2024-09-18T07:20:50Z</time>
      </trkpt>
      <trkpt lat="42.51461" lon="2.38208">
        <ele>1142</ele>
        <time>2024-09-18T07:20:54Z</time>
      </trkpt>
      <trkpt lat="42.51462" lon="2.38212">
        <ele>1144</ele>
        <time>2024-09-18T07:21:00Z</time>
      </trkpt>
      <trkpt lat="42.51463" lon="2.38216">
        <ele>1145</ele>
        <time>2024-09-18T07:21:05Z</time>
      </trkpt>
      <trkpt lat="42.51463" lon="2.3822">
        <ele>1145</ele>
        <time>2024-09-18T07:21:09Z</time>
      </trkpt>
      <trkpt lat="42.51463" lon="2.38224">
        <ele>1146</ele>
        <time>2024-09-18T07:21:13Z</time>
      </trkpt>
      <trkpt lat="42.51461" lon="2.38228">
        <ele>1146</ele>
        <time>2024-09-18T07:21:17Z</time>
      </trkpt>
      <trkpt lat="42.51461" lon="2.38232">
        <ele>1148</ele>
        <time>2024-09-18T07:21:20Z</time>
      </trkpt>
      <trkpt lat="42.5146" lon="2.38236">
        <ele>1147</ele>
        <time>2024-09-18T07:21:24Z</time>
      </trkpt>
      <trkpt lat="42.5146" lon="2.38241">
        <ele>1148</ele>
        <time>2024-09-18T07:21:29Z</time>
      </trkpt>
      <trkpt lat="42.51459" lon="2.38245">
        <ele>1150</ele>
        <time>2024-09-18T07:21:33Z</time>
      </trkpt>
      <trkpt lat="42.51458" lon="2.38249">
        <ele>1149</ele>
        <time>2024-09-18T07:21:37Z</time>
      </trkpt>
      <trkpt lat="42.51457" lon="2.38253">
        <ele>1150</ele>
        <time>2024-09-18T07:21:44Z</time>
      </trkpt>
      <trkpt lat="42.51457" lon="2.38257">
        <ele>1150</ele>
        <time>2024-09-18T07:21:49Z</time>
      </trkpt>
      <trkpt lat="42.51458" lon="2.38261">
        <ele>1153</ele>
        <time>2024-09-18T07:21:56Z</time>
      </trkpt>
      <trkpt lat="42.51457" lon="2.38265">
        <ele>1153</ele>
        <time>2024-09-18T07:22:00Z</time>
      </trkpt>
      <trkpt lat="42.51456" lon="2.38269">
        <ele>1153</ele>
        <time>2024-09-18T07:22:04Z</time>
      </trkpt>
      <trkpt lat="42.51454" lon="2.38273">
        <ele>1155</ele>
        <time>2024-09-18T07:22:10Z</time>
      </trkpt>
      <trkpt lat="42.51453" lon="2.38277">
        <ele>1155</ele>
        <time>2024-09-18T07:22:15Z</time>
      </trkpt>
      <trkpt lat="42.51453" lon="2.38282">
        <ele>1155</ele>
        <time>2024-09-18T07:22:21Z</time>
      </trkpt>
      <trkpt lat="42.51452" lon="2.38286">
        <ele>1156</ele>
        <time>2024-09-18T07:22:24Z</time>
      </trkpt>
      <trkpt lat="42.51453" lon="2.3829">
        <ele>1158</ele>
        <time>2024-09-18T07:22:28Z</time>
      </trkpt>
      <trkpt lat="42.51454" lon="2.38294">
        <ele>1160</ele>
        <time>2024-09-18T07:22:32Z</time>
      </trkpt>
      <trkpt lat="42.51454" lon="2.38299">
        <ele>1161</ele>
        <time>2024-09-18T07:22:38Z</time>
      </trkpt>
      <trkpt lat="42.51455" lon="2.38302">
        <ele>1161</ele>
        <time>2024-09-18T07:22:42Z</time>
      </trkpt>
      <trkpt lat="42.51454" lon="2.38306">
        <ele>1160</ele>
        <time>2024-09-18T07:22:46Z</time>
      </trkpt>
      <trkpt lat="42.51454" lon="2.3831">
        <ele>1162</ele>
        <time>2024-09-18T07:22:50Z</time>
      </trkpt>
      <trkpt lat="42.51453" lon="2.38314">
        <ele>1162</ele>
        <time>2024-09-18T07:22:54Z</time>
      </trkpt>
      <trkpt lat="42.51454" lon="2.38318">
        <ele>1165</ele>
        <time>2024-09-18T07:22:59Z</time>
      </trkpt>
      <trkpt lat="42.51453" lon="2.38322">
        <ele>1164</ele>
        <time>2024-09-18T07:23:02Z</time>
      </trkpt>
      <trkpt lat="42.51452" lon="2.38325">
        <ele>1165</ele>
        <time>2024-09-18T07:23:07Z</time>
      </trkpt>
      <trkpt lat="42.51452" lon="2.38329">
        <ele>1167</ele>
        <time>2024-09-18T07:23:13Z</time>
      </trkpt>
      <trkpt lat="42.51451" lon="2.38333">
        <ele>1168</ele>
        <time>2024-09-18T07:23:19Z</time>
      </trkpt>
      <trkpt lat="42.51451" lon="2.38337">
        <ele>1168</ele>
        <time>2024-09-18T07:23:23Z</time>
      </trkpt>
      <trkpt lat="42.5145" lon="2.3834">
        <ele>1168</ele>
        <time>2024-09-18T07:23:29Z</time>
      </trkpt>
      <trkpt lat="42.51449" lon="2.38344">
        <ele>1169</ele>
        <time>2024-09-18T07:23:34Z</time>
      </trkpt>
      <trkpt lat="42.5145" lon="2.38348">
        <ele>1170</ele>
        <time>2024-09-18T07:23:38Z</time>
      </trkpt>
      <trkpt lat="42.51451" lon="2.38352">
        <ele>1171</ele>
        <time>2024-09-18T07:23:41Z</time>
      </trkpt>
      <trkpt lat="42.51451" lon="2.38355">
        <ele>1173</ele>
        <time>2024-09-18T07:23:49Z</time>
      </trkpt>
      <trkpt lat="42.51453" lon="2.38359">
        <ele>1173</ele>
        <time>2024-09-18T07:23:54Z</time>
      </trkpt>
      <trkpt lat="42.51454" lon="2.38363">
        <ele>1173</ele>
        <time>2024-09-18T07:23:56Z</time>
      </trkpt>
      <trkpt lat="42.51455" lon="2.38367">
        <ele>1174</ele>
        <time>2024-09-18T07:24:00Z</time>
      </trkpt>
      <trkpt lat="42.51456" lon="2.3837">
        <ele>1175</ele>
        <time>2024-09-18T07:24:04Z</time>
      </trkpt>
      <trkpt lat="42.51457" lon="2.38374">
        <ele>1175</ele>
        <time>2024-09-18T07:24:09Z</time>
      </trkpt>
      <trkpt lat="42.51456" lon="2.38377">
        <ele>1175</ele>
        <time>2024-09-18T07:24:12Z</time>
      </trkpt>
      <trkpt lat="42.51455" lon="2.38381">
        <ele>1174</ele>
        <time>2024-09-18T07:24:14Z</time>
      </trkpt>
      <trkpt lat="42.51456" lon="2.38384">
        <ele>1173</ele>
        <time>2024-09-18T07:24:17Z</time>
      </trkpt>
      <trkpt lat="42.51457" lon="2.38387">
        <ele>1172</ele>
        <time>2024-09-18T07:24:20Z</time>
      </trkpt>
      <trkpt lat="42.51459" lon="2.3839">
        <ele>1172</ele>
        <time>2024-09-18T07:24:23Z</time>
      </trkpt>
      <trkpt lat="42.5146" lon="2.38394">
        <ele>1171</ele>
        <time>2024-09-18T07:24:26Z</time>
      </trkpt>
      <trkpt lat="42.51462" lon="2.38396">
        <ele>1174</ele>
        <time>2024-09-18T07:24:29Z</time>
      </trkpt>
      <trkpt lat="42.51463" lon="2.384">
        <ele>1175</ele>
        <time>2024-09-18T07:24:32Z</time>
      </trkpt>
      <trkpt lat="42.51465" lon="2.38404">
        <ele>1174</ele>
        <time>2024-09-18T07:24:35Z</time>
      </trkpt>
      <trkpt lat="42.51466" lon="2.38408">
        <ele>1176</ele>
        <time>2024-09-18T07:24:38Z</time>
      </trkpt>
      <trkpt lat="42.51468" lon="2.38412">
        <ele>1175</ele>
        <time>2024-09-18T07:24:42Z</time>
      </trkpt>
      <trkpt lat="42.51469" lon="2.38416">
        <ele>1178</ele>
        <time>2024-09-18T07:24:46Z</time>
      </trkpt>
      <trkpt lat="42.51471" lon="2.38419">
        <ele>1181</ele>
        <time>2024-09-18T07:24:48Z</time>
      </trkpt>
      <trkpt lat="42.51474" lon="2.38422">
        <ele>1182</ele>
        <time>2024-09-18T07:24:50Z</time>
      </trkpt>
      <trkpt lat="42.51473" lon="2.38424">
        <ele>1179</ele>
        <time>2024-09-18T07:24:51Z</time>
      </trkpt>
      <trkpt lat="42.51473" lon="2.38427">
        <ele>1180</ele>
        <time>2024-09-18T07:24:56Z</time>
      </trkpt>
      <trkpt lat="42.51474" lon="2.38431">
        <ele>1179</ele>
        <time>2024-09-18T07:25:02Z</time>
      </trkpt>
      <trkpt lat="42.51476" lon="2.38433">
        <ele>1183</ele>
        <time>2024-09-18T07:25:05Z</time>
      </trkpt>
      <trkpt lat="42.51478" lon="2.38437">
        <ele>1183</ele>
        <time>2024-09-18T07:25:08Z</time>
      </trkpt>
      <trkpt lat="42.51479" lon="2.38441">
        <ele>1183</ele>
        <time>2024-09-18T07:25:12Z</time>
      </trkpt>
      <trkpt lat="42.51481" lon="2.38444">
        <ele>1183</ele>
        <time>2024-09-18T07:25:16Z</time>
      </trkpt>
      <trkpt lat="42.51483" lon="2.38448">
        <ele>1182</ele>
        <time>2024-09-18T07:25:20Z</time>
      </trkpt>
      <trkpt lat="42.51486" lon="2.38451">
        <ele>1184</ele>
        <time>2024-09-18T07:25:23Z</time>
      </trkpt>
      <trkpt lat="42.51487" lon="2.38454">
        <ele>1183</ele>
        <time>2024-09-18T07:25:28Z</time>
      </trkpt>
      <trkpt lat="42.51489" lon="2.38458">
        <ele>1185</ele>
        <time>2024-09-18T07:25:32Z</time>
      </trkpt>
      <trkpt lat="42.51488" lon="2.38461">
        <ele>1184</ele>
        <time>2024-09-18T07:25:36Z</time>
      </trkpt>
      <trkpt lat="42.51488" lon="2.38465">
        <ele>1185</ele>
        <time>2024-09-18T07:25:39Z</time>
      </trkpt>
      <trkpt lat="42.51488" lon="2.38468">
        <ele>1186</ele>
        <time>2024-09-18T07:25:43Z</time>
      </trkpt>
      <trkpt lat="42.51489" lon="2.38473">
        <ele>1185</ele>
        <time>2024-09-18T07:25:50Z</time>
      </trkpt>
      <trkpt lat="42.5149" lon="2.38477">
        <ele>1187</ele>
        <time>2024-09-18T07:25:53Z</time>
      </trkpt>
      <trkpt lat="42.5149" lon="2.38481">
        <ele>1187</ele>
        <time>2024-09-18T07:25:54Z</time>
      </trkpt>
      <trkpt lat="42.5149" lon="2.38485">
        <ele>1187</ele>
        <time>2024-09-18T07:25:59Z</time>
      </trkpt>
      <trkpt lat="42.51492" lon="2.38488">
        <ele>1190</ele>
        <time>2024-09-18T07:26:04Z</time>
      </trkpt>
      <trkpt lat="42.51492" lon="2.38492">
        <ele>1191</ele>
        <time>2024-09-18T07:26:08Z</time>
      </trkpt>
      <trkpt lat="42.51493" lon="2.38494">
        <ele>1193</ele>
        <time>2024-09-18T07:26:12Z</time>
      </trkpt>
      <trkpt lat="42.51496" lon="2.38497">
        <ele>1196</ele>
        <time>2024-09-18T07:26:16Z</time>
      </trkpt>
      <trkpt lat="42.51498" lon="2.385">
        <ele>1196</ele>
        <time>2024-09-18T07:26:19Z</time>
      </trkpt>
      <trkpt lat="42.515" lon="2.38505">
        <ele>1196</ele>
        <time>2024-09-18T07:26:23Z</time>
      </trkpt>
      <trkpt lat="42.515" lon="2.38509">
        <ele>1195</ele>
        <time>2024-09-18T07:26:28Z</time>
      </trkpt>
      <trkpt lat="42.51502" lon="2.38512">
        <ele>1197</ele>
        <time>2024-09-18T07:26:29Z</time>
      </trkpt>
      <trkpt lat="42.51504" lon="2.38516">
        <ele>1197</ele>
        <time>2024-09-18T07:26:33Z</time>
      </trkpt>
      <trkpt lat="42.51503" lon="2.38519">
        <ele>1195</ele>
        <time>2024-09-18T07:26:36Z</time>
      </trkpt>
      <trkpt lat="42.51504" lon="2.38524">
        <ele>1195</ele>
        <time>2024-09-18T07:26:41Z</time>
      </trkpt>
      <trkpt lat="42.51505" lon="2.38528">
        <ele>1195</ele>
        <time>2024-09-18T07:26:44Z</time>
      </trkpt>
      <trkpt lat="42.51506" lon="2.38531">
        <ele>1196</ele>
        <time>2024-09-18T07:26:47Z</time>
      </trkpt>
      <trkpt lat="42.51506" lon="2.38535">
        <ele>1194</ele>
        <time>2024-09-18T07:26:51Z</time>
      </trkpt>
      <trkpt lat="42.51506" lon="2.38538">
        <ele>1195</ele>
        <time>2024-09-18T07:26:55Z</time>
      </trkpt>
      <trkpt lat="42.51506" lon="2.38542">
        <ele>1194</ele>
        <time>2024-09-18T07:27:00Z</time>
      </trkpt>
      <trkpt lat="42.51506" lon="2.38546">
        <ele>1195</ele>
        <time>2024-09-18T07:27:04Z</time>
      </trkpt>
      <trkpt lat="42.51506" lon="2.3855">
        <ele>1196</ele>
        <time>2024-09-18T07:27:08Z</time>
      </trkpt>
      <trkpt lat="42.51505" lon="2.38553">
        <ele>1195</ele>
        <time>2024-09-18T07:27:16Z</time>
      </trkpt>
      <trkpt lat="42.51505" lon="2.38557">
        <ele>1195</ele>
        <time>2024-09-18T07:27:22Z</time>
      </trkpt>
      <trkpt lat="42.51504" lon="2.38561">
        <ele>1196</ele>
        <time>2024-09-18T07:27:28Z</time>
      </trkpt>
      <trkpt lat="42.51504" lon="2.38565">
        <ele>1197</ele>
        <time>2024-09-18T07:27:32Z</time>
      </trkpt>
      <trkpt lat="42.51504" lon="2.38569">
        <ele>1197</ele>
        <time>2024-09-18T07:27:35Z</time>
      </trkpt>
      <trkpt lat="42.51505" lon="2.38573">
        <ele>1196</ele>
        <time>2024-09-18T07:27:38Z</time>
      </trkpt>
      <trkpt lat="42.51505" lon="2.38576">
        <ele>1197</ele>
        <time>2024-09-18T07:27:43Z</time>
      </trkpt>
      <trkpt lat="42.51506" lon="2.3858">
        <ele>1198</ele>
        <time>2024-09-18T07:27:46Z</time>
      </trkpt>
      <trkpt lat="42.51507" lon="2.38584">
        <ele>1198</ele>
        <time>2024-09-18T07:27:50Z</time>
      </trkpt>
      <trkpt lat="42.51507" lon="2.38588">
        <ele>1200</ele>
        <time>2024-09-18T07:27:56Z</time>
      </trkpt>
      <trkpt lat="42.51507" lon="2.38593">
        <ele>1200</ele>
        <time>2024-09-18T07:28:01Z</time>
      </trkpt>
      <trkpt lat="42.51507" lon="2.38597">
        <ele>1201</ele>
        <time>2024-09-18T07:28:07Z</time>
      </trkpt>
      <trkpt lat="42.51507" lon="2.38601">
        <ele>1203</ele>
        <time>2024-09-18T07:28:12Z</time>
      </trkpt>
      <trkpt lat="42.51509" lon="2.38605">
        <ele>1203</ele>
        <time>2024-09-18T07:28:16Z</time>
      </trkpt>
      <trkpt lat="42.51511" lon="2.38608">
        <ele>1204</ele>
        <time>2024-09-18T07:28:19Z</time>
      </trkpt>
      <trkpt lat="42.51512" lon="2.38611">
        <ele>1205</ele>
        <time>2024-09-18T07:28:22Z</time>
      </trkpt>
      <trkpt lat="42.51514" lon="2.38614">
        <ele>1206</ele>
        <time>2024-09-18T07:28:25Z</time>
      </trkpt>
      <trkpt lat="42.51516" lon="2.38618">
        <ele>1204</ele>
        <time>2024-09-18T07:28:28Z</time>
      </trkpt>
      <trkpt lat="42.51518" lon="2.3862">
        <ele>1206</ele>
        <time>2024-09-18T07:28:32Z</time>
      </trkpt>
      <trkpt lat="42.5152" lon="2.38623">
        <ele>1205</ele>
        <time>2024-09-18T07:28:37Z</time>
      </trkpt>
      <trkpt lat="42.51523" lon="2.38626">
        <ele>1207</ele>
        <time>2024-09-18T07:28:40Z</time>
      </trkpt>
      <trkpt lat="42.51524" lon="2.3863">
        <ele>1208</ele>
        <time>2024-09-18T07:28:44Z</time>
      </trkpt>
      <trkpt lat="42.51526" lon="2.38634">
        <ele>1206</ele>
        <time>2024-09-18T07:28:48Z</time>
      </trkpt>
      <trkpt lat="42.51527" lon="2.38638">
        <ele>1206</ele>
        <time>2024-09-18T07:28:52Z</time>
      </trkpt>
      <trkpt lat="42.51529" lon="2.3864">
        <ele>1205</ele>
        <time>2024-09-18T07:28:56Z</time>
      </trkpt>
      <trkpt lat="42.51531" lon="2.38643">
        <ele>1205</ele>
        <time>2024-09-18T07:29:00Z</time>
      </trkpt>
      <trkpt lat="42.51534" lon="2.38646">
        <ele>1206</ele>
        <time>2024-09-18T07:29:05Z</time>
      </trkpt>
      <trkpt lat="42.51536" lon="2.3865">
        <ele>1205</ele>
        <time>2024-09-18T07:29:10Z</time>
      </trkpt>
      <trkpt lat="42.51538" lon="2.38654">
        <ele>1207</ele>
        <time>2024-09-18T07:29:14Z</time>
      </trkpt>
      <trkpt lat="42.51539" lon="2.38658">
        <ele>1208</ele>
        <time>2024-09-18T07:29:17Z</time>
      </trkpt>
      <trkpt lat="42.5154" lon="2.38662">
        <ele>1208</ele>
        <time>2024-09-18T07:29:21Z</time>
      </trkpt>
      <trkpt lat="42.5154" lon="2.38667">
        <ele>1209</ele>
        <time>2024-09-18T07:29:25Z</time>
      </trkpt>
      <trkpt lat="42.5154" lon="2.38671">
        <ele>1209</ele>
        <time>2024-09-18T07:29:28Z</time>
      </trkpt>
      <trkpt lat="42.51539" lon="2.38675">
        <ele>1210</ele>
        <time>2024-09-18T07:29:31Z</time>
      </trkpt>
      <trkpt lat="42.51537" lon="2.38678">
        <ele>1210</ele>
        <time>2024-09-18T07:29:35Z</time>
      </trkpt>
      <trkpt lat="42.51535" lon="2.38681">
        <ele>1211</ele>
        <time>2024-09-18T07:29:39Z</time>
      </trkpt>
      <trkpt lat="42.51533" lon="2.38684">
        <ele>1212</ele>
        <time>2024-09-18T07:29:42Z</time>
      </trkpt>
      <trkpt lat="42.51531" lon="2.38687">
        <ele>1212</ele>
        <time>2024-09-18T07:29:47Z</time>
      </trkpt>
      <trkpt lat="42.51528" lon="2.38688">
        <ele>1213</ele>
        <time>2024-09-18T07:29:51Z</time>
      </trkpt>
      <trkpt lat="42.51525" lon="2.3869">
        <ele>1212</ele>
        <time>2024-09-18T07:29:56Z</time>
      </trkpt>
      <trkpt lat="42.51523" lon="2.38692">
        <ele>1213</ele>
        <time>2024-09-18T07:30:00Z</time>
      </trkpt>
      <trkpt lat="42.51522" lon="2.38696">
        <ele>1212</ele>
        <time>2024-09-18T07:30:04Z</time>
      </trkpt>
      <trkpt lat="42.51522" lon="2.387">
        <ele>1208</ele>
        <time>2024-09-18T07:30:07Z</time>
      </trkpt>
      <trkpt lat="42.51523" lon="2.38704">
        <ele>1208</ele>
        <time>2024-09-18T07:30:09Z</time>
      </trkpt>
      <trkpt lat="42.51524" lon="2.38708">
        <ele>1208</ele>
        <time>2024-09-18T07:30:11Z</time>
      </trkpt>
      <trkpt lat="42.51524" lon="2.38706">
        <ele>1209</ele>
        <time>2024-09-18T07:30:35Z</time>
      </trkpt>
      <trkpt lat="42.51524" lon="2.38703">
        <ele>1210</ele>
        <time>2024-09-18T07:30:39Z</time>
      </trkpt>
      <trkpt lat="42.51523" lon="2.38699">
        <ele>1211</ele>
        <time>2024-09-18T07:30:44Z</time>
      </trkpt>
      <trkpt lat="42.51522" lon="2.38695">
        <ele>1212</ele>
        <time>2024-09-18T07:30:48Z</time>
      </trkpt>
      <trkpt lat="42.5152" lon="2.38692">
        <ele>1214</ele>
        <time>2024-09-18T07:30:52Z</time>
      </trkpt>
      <trkpt lat="42.51519" lon="2.38688">
        <ele>1216</ele>
        <time>2024-09-18T07:30:55Z</time>
      </trkpt>
      <trkpt lat="42.51515" lon="2.38686">
        <ele>1216</ele>
        <time>2024-09-18T07:30:59Z</time>
      </trkpt>
      <trkpt lat="42.51512" lon="2.38682">
        <ele>1217</ele>
        <time>2024-09-18T07:31:02Z</time>
      </trkpt>
      <trkpt lat="42.51509" lon="2.38681">
        <ele>1219</ele>
        <time>2024-09-18T07:31:05Z</time>
      </trkpt>
      <trkpt lat="42.51505" lon="2.38679">
        <ele>1219</ele>
        <time>2024-09-18T07:31:09Z</time>
      </trkpt>
      <trkpt lat="42.51502" lon="2.38677">
        <ele>1220</ele>
        <time>2024-09-18T07:31:13Z</time>
      </trkpt>
      <trkpt lat="42.51498" lon="2.38676">
        <ele>1223</ele>
        <time>2024-09-18T07:31:16Z</time>
      </trkpt>
      <trkpt lat="42.51494" lon="2.38674">
        <ele>1224</ele>
        <time>2024-09-18T07:31:19Z</time>
      </trkpt>
      <trkpt lat="42.5149" lon="2.38675">
        <ele>1224</ele>
        <time>2024-09-18T07:31:22Z</time>
      </trkpt>
      <trkpt lat="42.51486" lon="2.38675">
        <ele>1225</ele>
        <time>2024-09-18T07:31:26Z</time>
      </trkpt>
      <trkpt lat="42.51483" lon="2.38676">
        <ele>1225</ele>
        <time>2024-09-18T07:31:30Z</time>
      </trkpt>
      <trkpt lat="42.51479" lon="2.38678">
        <ele>1225</ele>
        <time>2024-09-18T07:31:33Z</time>
      </trkpt>
      <trkpt lat="42.51477" lon="2.3868">
        <ele>1225</ele>
        <time>2024-09-18T07:31:35Z</time>
      </trkpt>
      <trkpt lat="42.51475" lon="2.38682">
        <ele>1224</ele>
        <time>2024-09-18T07:31:38Z</time>
      </trkpt>
      <trkpt lat="42.51472" lon="2.38685">
        <ele>1225</ele>
        <time>2024-09-18T07:31:41Z</time>
      </trkpt>
      <trkpt lat="42.5147" lon="2.38687">
        <ele>1225</ele>
        <time>2024-09-18T07:31:44Z</time>
      </trkpt>
      <trkpt lat="42.51467" lon="2.38688">
        <ele>1225</ele>
        <time>2024-09-18T07:31:47Z</time>
      </trkpt>
      <trkpt lat="42.51464" lon="2.3869">
        <ele>1226</ele>
        <time>2024-09-18T07:31:54Z</time>
      </trkpt>
      <trkpt lat="42.5146" lon="2.38691">
        <ele>1226</ele>
        <time>2024-09-18T07:31:57Z</time>
      </trkpt>
      <trkpt lat="42.51457" lon="2.38692">
        <ele>1228</ele>
        <time>2024-09-18T07:32:00Z</time>
      </trkpt>
      <trkpt lat="42.51452" lon="2.38692">
        <ele>1227</ele>
        <time>2024-09-18T07:32:03Z</time>
      </trkpt>
      <trkpt lat="42.51448" lon="2.38692">
        <ele>1228</ele>
        <time>2024-09-18T07:32:08Z</time>
      </trkpt>
      <trkpt lat="42.51444" lon="2.38693">
        <ele>1228</ele>
        <time>2024-09-18T07:32:12Z</time>
      </trkpt>
      <trkpt lat="42.5144" lon="2.38694">
        <ele>1229</ele>
        <time>2024-09-18T07:32:15Z</time>
      </trkpt>
      <trkpt lat="42.51437" lon="2.38694">
        <ele>1229</ele>
        <time>2024-09-18T07:32:17Z</time>
      </trkpt>
      <trkpt lat="42.51434" lon="2.38695">
        <ele>1230</ele>
        <time>2024-09-18T07:32:20Z</time>
      </trkpt>
      <trkpt lat="42.51431" lon="2.38695">
        <ele>1229</ele>
        <time>2024-09-18T07:32:22Z</time>
      </trkpt>
      <trkpt lat="42.51428" lon="2.38696">
        <ele>1229</ele>
        <time>2024-09-18T07:32:25Z</time>
      </trkpt>
      <trkpt lat="42.51425" lon="2.38697">
        <ele>1232</ele>
        <time>2024-09-18T07:32:26Z</time>
      </trkpt>
      <trkpt lat="42.51422" lon="2.38698">
        <ele>1231</ele>
        <time>2024-09-18T07:32:30Z</time>
      </trkpt>
      <trkpt lat="42.51418" lon="2.387">
        <ele>1232</ele>
        <time>2024-09-18T07:32:34Z</time>
      </trkpt>
      <trkpt lat="42.51416" lon="2.38703">
        <ele>1232</ele>
        <time>2024-09-18T07:32:36Z</time>
      </trkpt>
      <trkpt lat="42.51413" lon="2.38706">
        <ele>1233</ele>
        <time>2024-09-18T07:32:39Z</time>
      </trkpt>
      <trkpt lat="42.51411" lon="2.3871">
        <ele>1232</ele>
        <time>2024-09-18T07:32:42Z</time>
      </trkpt>
      <trkpt lat="42.51408" lon="2.38712">
        <ele>1232</ele>
        <time>2024-09-18T07:32:44Z</time>
      </trkpt>
      <trkpt lat="42.51405" lon="2.38715">
        <ele>1231</ele>
        <time>2024-09-18T07:32:48Z</time>
      </trkpt>
      <trkpt lat="42.51403" lon="2.38718">
        <ele>1230</ele>
        <time>2024-09-18T07:32:51Z</time>
      </trkpt>
      <trkpt lat="42.514" lon="2.38721">
        <ele>1230</ele>
        <time>2024-09-18T07:32:54Z</time>
      </trkpt>
      <trkpt lat="42.51397" lon="2.38723">
        <ele>1230</ele>
        <time>2024-09-18T07:32:57Z</time>
      </trkpt>
      <trkpt lat="42.51394" lon="2.38726">
        <ele>1231</ele>
        <time>2024-09-18T07:32:59Z</time>
      </trkpt>
      <trkpt lat="42.51391" lon="2.38728">
        <ele>1229</ele>
        <time>2024-09-18T07:33:03Z</time>
      </trkpt>
      <trkpt lat="42.51388" lon="2.38731">
        <ele>1230</ele>
        <time>2024-09-18T07:33:06Z</time>
      </trkpt>
      <trkpt lat="42.51386" lon="2.38734">
        <ele>1231</ele>
        <time>2024-09-18T07:33:09Z</time>
      </trkpt>
      <trkpt lat="42.51383" lon="2.38737">
        <ele>1231</ele>
        <time>2024-09-18T07:33:12Z</time>
      </trkpt>
      <trkpt lat="42.5138" lon="2.3874">
        <ele>1231</ele>
        <time>2024-09-18T07:33:16Z</time>
      </trkpt>
      <trkpt lat="42.51378" lon="2.38743">
        <ele>1232</ele>
        <time>2024-09-18T07:33:19Z</time>
      </trkpt>
      <trkpt lat="42.51375" lon="2.38745">
        <ele>1233</ele>
        <time>2024-09-18T07:33:23Z</time>
      </trkpt>
      <trkpt lat="42.51373" lon="2.38746">
        <ele>1232</ele>
        <time>2024-09-18T07:33:26Z</time>
      </trkpt>
      <trkpt lat="42.5137" lon="2.38747">
        <ele>1232</ele>
        <time>2024-09-18T07:33:30Z</time>
      </trkpt>
      <trkpt lat="42.51368" lon="2.38751">
        <ele>1234</ele>
        <time>2024-09-18T07:33:33Z</time>
      </trkpt>
      <trkpt lat="42.51366" lon="2.38756">
        <ele>1234</ele>
        <time>2024-09-18T07:33:38Z</time>
      </trkpt>
      <trkpt lat="42.51364" lon="2.38758">
        <ele>1233</ele>
        <time>2024-09-18T07:33:41Z</time>
      </trkpt>
      <trkpt lat="42.51361" lon="2.3876">
        <ele>1234</ele>
        <time>2024-09-18T07:33:45Z</time>
      </trkpt>
      <trkpt lat="42.5136" lon="2.38763">
        <ele>1235</ele>
        <time>2024-09-18T07:33:49Z</time>
      </trkpt>
      <trkpt lat="42.51358" lon="2.38766">
        <ele>1235</ele>
        <time>2024-09-18T07:33:51Z</time>
      </trkpt>
      <trkpt lat="42.51356" lon="2.38768">
        <ele>1236</ele>
        <time>2024-09-18T07:33:54Z</time>
      </trkpt>
      <trkpt lat="42.51354" lon="2.38771">
        <ele>1237</ele>
        <time>2024-09-18T07:33:57Z</time>
      </trkpt>
      <trkpt lat="42.51351" lon="2.38774">
        <ele>1239</ele>
        <time>2024-09-18T07:34:00Z</time>
      </trkpt>
      <trkpt lat="42.51349" lon="2.38777">
        <ele>1240</ele>
        <time>2024-09-18T07:34:04Z</time>
      </trkpt>
      <trkpt lat="42.51346" lon="2.3878">
        <ele>1238</ele>
        <time>2024-09-18T07:34:09Z</time>
      </trkpt>
      <trkpt lat="42.51344" lon="2.38782">
        <ele>1238</ele>
        <time>2024-09-18T07:34:12Z</time>
      </trkpt>
      <trkpt lat="42.51341" lon="2.38784">
        <ele>1239</ele>
        <time>2024-09-18T07:34:16Z</time>
      </trkpt>
      <trkpt lat="42.51338" lon="2.38786">
        <ele>1239</ele>
        <time>2024-09-18T07:34:21Z</time>
      </trkpt>
      <trkpt lat="42.51335" lon="2.3879">
        <ele>1239</ele>
        <time>2024-09-18T07:34:25Z</time>
      </trkpt>
      <trkpt lat="42.51334" lon="2.38793">
        <ele>1241</ele>
        <time>2024-09-18T07:34:32Z</time>
      </trkpt>
      <trkpt lat="42.51331" lon="2.38796">
        <ele>1242</ele>
        <time>2024-09-18T07:34:38Z</time>
      </trkpt>
      <trkpt lat="42.51328" lon="2.388">
        <ele>1243</ele>
        <time>2024-09-18T07:34:43Z</time>
      </trkpt>
      <trkpt lat="42.51326" lon="2.38803">
        <ele>1245</ele>
        <time>2024-09-18T07:34:47Z</time>
      </trkpt>
      <trkpt lat="42.51323" lon="2.38805">
        <ele>1245</ele>
        <time>2024-09-18T07:34:50Z</time>
      </trkpt>
      <trkpt lat="42.5132" lon="2.38808">
        <ele>1246</ele>
        <time>2024-09-18T07:34:54Z</time>
      </trkpt>
      <trkpt lat="42.51316" lon="2.38808">
        <ele>1246</ele>
        <time>2024-09-18T07:34:57Z</time>
      </trkpt>
      <trkpt lat="42.51313" lon="2.3881">
        <ele>1246</ele>
        <time>2024-09-18T07:35:03Z</time>
      </trkpt>
      <trkpt lat="42.51311" lon="2.38812">
        <ele>1246</ele>
        <time>2024-09-18T07:35:08Z</time>
      </trkpt>
      <trkpt lat="42.51308" lon="2.38814">
        <ele>1246</ele>
        <time>2024-09-18T07:35:14Z</time>
      </trkpt>
      <trkpt lat="42.51304" lon="2.38814">
        <ele>1246</ele>
        <time>2024-09-18T07:35:19Z</time>
      </trkpt>
      <trkpt lat="42.51301" lon="2.38811">
        <ele>1255</ele>
        <time>2024-09-18T07:35:45Z</time>
      </trkpt>
      <trkpt lat="42.51303" lon="2.38811">
        <ele>1255</ele>
        <time>2024-09-18T07:36:08Z</time>
      </trkpt>
      <trkpt lat="42.51302" lon="2.38811">
        <ele>1249</ele>
        <time>2024-09-18T07:36:57Z</time>
      </trkpt>
      <trkpt lat="42.51299" lon="2.38812">
        <ele>1249</ele>
        <time>2024-09-18T07:36:59Z</time>
      </trkpt>
      <trkpt lat="42.51296" lon="2.38814">
        <ele>1252</ele>
        <time>2024-09-18T07:37:04Z</time>
      </trkpt>
      <trkpt lat="42.51293" lon="2.38815">
        <ele>1254</ele>
        <time>2024-09-18T07:37:07Z</time>
      </trkpt>
      <trkpt lat="42.51291" lon="2.38817">
        <ele>1256</ele>
        <time>2024-09-18T07:37:09Z</time>
      </trkpt>
      <trkpt lat="42.51289" lon="2.3882">
        <ele>1257</ele>
        <time>2024-09-18T07:37:12Z</time>
      </trkpt>
      <trkpt lat="42.51286" lon="2.38823">
        <ele>1256</ele>
        <time>2024-09-18T07:37:14Z</time>
      </trkpt>
      <trkpt lat="42.51283" lon="2.38824">
        <ele>1257</ele>
        <time>2024-09-18T07:37:17Z</time>
      </trkpt>
      <trkpt lat="42.5128" lon="2.38826">
        <ele>1259</ele>
        <time>2024-09-18T07:37:21Z</time>
      </trkpt>
      <trkpt lat="42.51279" lon="2.38829">
        <ele>1259</ele>
        <time>2024-09-18T07:37:24Z</time>
      </trkpt>
      <trkpt lat="42.51276" lon="2.38831">
        <ele>1259</ele>
        <time>2024-09-18T07:37:30Z</time>
      </trkpt>
      <trkpt lat="42.51273" lon="2.38834">
        <ele>1260</ele>
        <time>2024-09-18T07:37:35Z</time>
      </trkpt>
      <trkpt lat="42.51271" lon="2.38838">
        <ele>1261</ele>
        <time>2024-09-18T07:37:38Z</time>
      </trkpt>
      <trkpt lat="42.51269" lon="2.38841">
        <ele>1261</ele>
        <time>2024-09-18T07:37:41Z</time>
      </trkpt>
      <trkpt lat="42.51268" lon="2.38845">
        <ele>1263</ele>
        <time>2024-09-18T07:37:45Z</time>
      </trkpt>
      <trkpt lat="42.51267" lon="2.38849">
        <ele>1265</ele>
        <time>2024-09-18T07:37:48Z</time>
      </trkpt>
      <trkpt lat="42.51265" lon="2.38852">
        <ele>1264</ele>
        <time>2024-09-18T07:37:50Z</time>
      </trkpt>
      <trkpt lat="42.51262" lon="2.38855">
        <ele>1264</ele>
        <time>2024-09-18T07:37:53Z</time>
      </trkpt>
      <trkpt lat="42.51262" lon="2.38858">
        <ele>1263</ele>
        <time>2024-09-18T07:37:56Z</time>
      </trkpt>
      <trkpt lat="42.51261" lon="2.38862">
        <ele>1262</ele>
        <time>2024-09-18T07:38:01Z</time>
      </trkpt>
      <trkpt lat="42.51261" lon="2.38866">
        <ele>1264</ele>
        <time>2024-09-18T07:38:07Z</time>
      </trkpt>
      <trkpt lat="42.51259" lon="2.3887">
        <ele>1263</ele>
        <time>2024-09-18T07:38:12Z</time>
      </trkpt>
      <trkpt lat="42.51257" lon="2.38874">
        <ele>1263</ele>
        <time>2024-09-18T07:38:16Z</time>
      </trkpt>
      <trkpt lat="42.51254" lon="2.38878">
        <ele>1263</ele>
        <time>2024-09-18T07:38:24Z</time>
      </trkpt>
      <trkpt lat="42.51253" lon="2.38882">
        <ele>1264</ele>
        <time>2024-09-18T07:38:28Z</time>
      </trkpt>
      <trkpt lat="42.51253" lon="2.38887">
        <ele>1264</ele>
        <time>2024-09-18T07:38:31Z</time>
      </trkpt>
      <trkpt lat="42.51253" lon="2.38891">
        <ele>1264</ele>
        <time>2024-09-18T07:38:34Z</time>
      </trkpt>
      <trkpt lat="42.51251" lon="2.38894">
        <ele>1263</ele>
        <time>2024-09-18T07:38:38Z</time>
      </trkpt>
      <trkpt lat="42.51248" lon="2.38896">
        <ele>1264</ele>
        <time>2024-09-18T07:38:43Z</time>
      </trkpt>
      <trkpt lat="42.51245" lon="2.38897">
        <ele>1265</ele>
        <time>2024-09-18T07:38:49Z</time>
      </trkpt>
      <trkpt lat="42.51242" lon="2.38899">
        <ele>1266</ele>
        <time>2024-09-18T07:38:53Z</time>
      </trkpt>
      <trkpt lat="42.5124" lon="2.38901">
        <ele>1265</ele>
        <time>2024-09-18T07:39:00Z</time>
      </trkpt>
      <trkpt lat="42.51237" lon="2.38904">
        <ele>1266</ele>
        <time>2024-09-18T07:39:06Z</time>
      </trkpt>
      <trkpt lat="42.51235" lon="2.38907">
        <ele>1268</ele>
        <time>2024-09-18T07:39:12Z</time>
      </trkpt>
      <trkpt lat="42.51232" lon="2.38908">
        <ele>1270</ele>
        <time>2024-09-18T07:39:17Z</time>
      </trkpt>
      <trkpt lat="42.51229" lon="2.38909">
        <ele>1270</ele>
        <time>2024-09-18T07:39:23Z</time>
      </trkpt>
      <trkpt lat="42.51226" lon="2.38912">
        <ele>1272</ele>
        <time>2024-09-18T07:39:30Z</time>
      </trkpt>
      <trkpt lat="42.51224" lon="2.38913">
        <ele>1271</ele>
        <time>2024-09-18T07:39:33Z</time>
      </trkpt>
      <trkpt lat="42.51221" lon="2.38916">
        <ele>1274</ele>
        <time>2024-09-18T07:39:39Z</time>
      </trkpt>
      <trkpt lat="42.51219" lon="2.38918">
        <ele>1273</ele>
        <time>2024-09-18T07:39:44Z</time>
      </trkpt>
      <trkpt lat="42.51217" lon="2.38921">
        <ele>1275</ele>
        <time>2024-09-18T07:39:50Z</time>
      </trkpt>
      <trkpt lat="42.51215" lon="2.38925">
        <ele>1277</ele>
        <time>2024-09-18T07:39:56Z</time>
      </trkpt>
      <trkpt lat="42.51213" lon="2.38929">
        <ele>1277</ele>
        <time>2024-09-18T07:40:02Z</time>
      </trkpt>
      <trkpt lat="42.51211" lon="2.38932">
        <ele>1277</ele>
        <time>2024-09-18T07:40:06Z</time>
      </trkpt>
      <trkpt lat="42.51209" lon="2.38935">
        <ele>1278</ele>
        <time>2024-09-18T07:40:13Z</time>
      </trkpt>
      <trkpt lat="42.51207" lon="2.38939">
        <ele>1277</ele>
        <time>2024-09-18T07:40:17Z</time>
      </trkpt>
      <trkpt lat="42.51205" lon="2.38942">
        <ele>1278</ele>
        <time>2024-09-18T07:40:21Z</time>
      </trkpt>
      <trkpt lat="42.51203" lon="2.38945">
        <ele>1279</ele>
        <time>2024-09-18T07:40:24Z</time>
      </trkpt>
      <trkpt lat="42.51201" lon="2.38948">
        <ele>1280</ele>
        <time>2024-09-18T07:40:30Z</time>
      </trkpt>
      <trkpt lat="42.51199" lon="2.38951">
        <ele>1282</ele>
        <time>2024-09-18T07:40:35Z</time>
      </trkpt>
      <trkpt lat="42.51196" lon="2.38954">
        <ele>1282</ele>
        <time>2024-09-18T07:40:38Z</time>
      </trkpt>
      <trkpt lat="42.51194" lon="2.38955">
        <ele>1283</ele>
        <time>2024-09-18T07:40:45Z</time>
      </trkpt>
      <trkpt lat="42.51191" lon="2.38958">
        <ele>1285</ele>
        <time>2024-09-18T07:40:52Z</time>
      </trkpt>
      <trkpt lat="42.51189" lon="2.38959">
        <ele>1286</ele>
        <time>2024-09-18T07:40:56Z</time>
      </trkpt>
      <trkpt lat="42.51187" lon="2.38962">
        <ele>1286</ele>
        <time>2024-09-18T07:41:04Z</time>
      </trkpt>
      <trkpt lat="42.51185" lon="2.38966">
        <ele>1288</ele>
        <time>2024-09-18T07:41:10Z</time>
      </trkpt>
      <trkpt lat="42.51184" lon="2.3897">
        <ele>1288</ele>
        <time>2024-09-18T07:41:15Z</time>
      </trkpt>
      <trkpt lat="42.51182" lon="2.38973">
        <ele>1288</ele>
        <time>2024-09-18T07:41:19Z</time>
      </trkpt>
      <trkpt lat="42.5118" lon="2.38977">
        <ele>1289</ele>
        <time>2024-09-18T07:41:24Z</time>
      </trkpt>
      <trkpt lat="42.51178" lon="2.3898">
        <ele>1291</ele>
        <time>2024-09-18T07:41:29Z</time>
      </trkpt>
      <trkpt lat="42.51177" lon="2.38984">
        <ele>1292</ele>
        <time>2024-09-18T07:41:34Z</time>
      </trkpt>
      <trkpt lat="42.51175" lon="2.38987">
        <ele>1293</ele>
        <time>2024-09-18T07:41:40Z</time>
      </trkpt>
      <trkpt lat="42.51173" lon="2.38988">
        <ele>1294</ele>
        <time>2024-09-18T07:41:43Z</time>
      </trkpt>
      <trkpt lat="42.5117" lon="2.38988">
        <ele>1294</ele>
        <time>2024-09-18T07:41:48Z</time>
      </trkpt>
      <trkpt lat="42.51168" lon="2.38988">
        <ele>1293</ele>
        <time>2024-09-18T07:41:51Z</time>
      </trkpt>
      <trkpt lat="42.51166" lon="2.38991">
        <ele>1292</ele>
        <time>2024-09-18T07:41:54Z</time>
      </trkpt>
      <trkpt lat="42.51165" lon="2.38995">
        <ele>1293</ele>
        <time>2024-09-18T07:41:58Z</time>
      </trkpt>
      <trkpt lat="42.51163" lon="2.39">
        <ele>1294</ele>
        <time>2024-09-18T07:42:00Z</time>
      </trkpt>
      <trkpt lat="42.51162" lon="2.39003">
        <ele>1294</ele>
        <time>2024-09-18T07:42:04Z</time>
      </trkpt>
      <trkpt lat="42.51162" lon="2.39007">
        <ele>1296</ele>
        <time>2024-09-18T07:42:07Z</time>
      </trkpt>
      <trkpt lat="42.51161" lon="2.39011">
        <ele>1296</ele>
        <time>2024-09-18T07:42:09Z</time>
      </trkpt>
      <trkpt lat="42.51161" lon="2.39016">
        <ele>1298</ele>
        <time>2024-09-18T07:42:13Z</time>
      </trkpt>
      <trkpt lat="42.51162" lon="2.3902">
        <ele>1300</ele>
        <time>2024-09-18T07:42:15Z</time>
      </trkpt>
      <trkpt lat="42.51165" lon="2.3902">
        <ele>1299</ele>
        <time>2024-09-18T07:42:20Z</time>
      </trkpt>
      <trkpt lat="42.51169" lon="2.3902">
        <ele>1298</ele>
        <time>2024-09-18T07:42:26Z</time>
      </trkpt>
      <trkpt lat="42.5117" lon="2.39023">
        <ele>1299</ele>
        <time>2024-09-18T07:42:29Z</time>
      </trkpt>
      <trkpt lat="42.5117" lon="2.39027">
        <ele>1301</ele>
        <time>2024-09-18T07:42:31Z</time>
      </trkpt>
      <trkpt lat="42.51168" lon="2.3903">
        <ele>1299</ele>
        <time>2024-09-18T07:42:33Z</time>
      </trkpt>
      <trkpt lat="42.51168" lon="2.39033">
        <ele>1300</ele>
        <time>2024-09-18T07:42:35Z</time>
      </trkpt>
      <trkpt lat="42.51167" lon="2.39037">
        <ele>1300</ele>
        <time>2024-09-18T07:42:38Z</time>
      </trkpt>
      <trkpt lat="42.51164" lon="2.3904">
        <ele>1300</ele>
        <time>2024-09-18T07:42:41Z</time>
      </trkpt>
      <trkpt lat="42.51161" lon="2.39042">
        <ele>1300</ele>
        <time>2024-09-18T07:42:43Z</time>
      </trkpt>
      <trkpt lat="42.51159" lon="2.39045">
        <ele>1300</ele>
        <time>2024-09-18T07:42:45Z</time>
      </trkpt>
      <trkpt lat="42.51158" lon="2.39049">
        <ele>1301</ele>
        <time>2024-09-18T07:42:48Z</time>
      </trkpt>
      <trkpt lat="42.51159" lon="2.39054">
        <ele>1301</ele>
        <time>2024-09-18T07:42:51Z</time>
      </trkpt>
      <trkpt lat="42.51157" lon="2.39055">
        <ele>1304</ele>
        <time>2024-09-18T07:42:55Z</time>
      </trkpt>
      <trkpt lat="42.51154" lon="2.39057">
        <ele>1303</ele>
        <time>2024-09-18T07:42:59Z</time>
      </trkpt>
      <trkpt lat="42.51151" lon="2.39061">
        <ele>1303</ele>
        <time>2024-09-18T07:43:01Z</time>
      </trkpt>
      <trkpt lat="42.51148" lon="2.39064">
        <ele>1303</ele>
        <time>2024-09-18T07:43:05Z</time>
      </trkpt>
      <trkpt lat="42.51145" lon="2.39067">
        <ele>1305</ele>
        <time>2024-09-18T07:43:07Z</time>
      </trkpt>
      <trkpt lat="42.51142" lon="2.3907">
        <ele>1305</ele>
        <time>2024-09-18T07:43:10Z</time>
      </trkpt>
      <trkpt lat="42.5114" lon="2.39074">
        <ele>1305</ele>
        <time>2024-09-18T07:43:12Z</time>
      </trkpt>
      <trkpt lat="42.51137" lon="2.39077">
        <ele>1307</ele>
        <time>2024-09-18T07:43:18Z</time>
      </trkpt>
      <trkpt lat="42.51136" lon="2.39081">
        <ele>1309</ele>
        <time>2024-09-18T07:43:20Z</time>
      </trkpt>
      <trkpt lat="42.51136" lon="2.39085">
        <ele>1307</ele>
        <time>2024-09-18T07:43:24Z</time>
      </trkpt>
      <trkpt lat="42.51135" lon="2.39088">
        <ele>1307</ele>
        <time>2024-09-18T07:43:26Z</time>
      </trkpt>
      <trkpt lat="42.51137" lon="2.3909">
        <ele>1306</ele>
        <time>2024-09-18T07:43:28Z</time>
      </trkpt>
      <trkpt lat="42.51139" lon="2.39091">
        <ele>1304</ele>
        <time>2024-09-18T07:43:32Z</time>
      </trkpt>
      <trkpt lat="42.51143" lon="2.39091">
        <ele>1301</ele>
        <time>2024-09-18T07:43:34Z</time>
      </trkpt>
      <trkpt lat="42.51145" lon="2.3909">
        <ele>1302</ele>
        <time>2024-09-18T07:43:38Z</time>
      </trkpt>
      <trkpt lat="42.51148" lon="2.39088">
        <ele>1305</ele>
        <time>2024-09-18T07:43:43Z</time>
      </trkpt>
      <trkpt lat="42.51151" lon="2.39089">
        <ele>1304</ele>
        <time>2024-09-18T07:43:45Z</time>
      </trkpt>
      <trkpt lat="42.51153" lon="2.39091">
        <ele>1304</ele>
        <time>2024-09-18T07:43:51Z</time>
      </trkpt>
      <trkpt lat="42.51156" lon="2.39093">
        <ele>1304</ele>
        <time>2024-09-18T07:44:03Z</time>
      </trkpt>
      <trkpt lat="42.51159" lon="2.39095">
        <ele>1305</ele>
        <time>2024-09-18T07:44:09Z</time>
      </trkpt>
      <trkpt lat="42.51162" lon="2.39097">
        <ele>1304</ele>
        <time>2024-09-18T07:44:14Z</time>
      </trkpt>
      <trkpt lat="42.51165" lon="2.39098">
        <ele>1303</ele>
        <time>2024-09-18T07:44:17Z</time>
      </trkpt>
      <trkpt lat="42.51165" lon="2.39095">
        <ele>1302</ele>
        <time>2024-09-18T07:44:19Z</time>
      </trkpt>
      <trkpt lat="42.51167" lon="2.39097">
        <ele>1303</ele>
        <time>2024-09-18T07:44:22Z</time>
      </trkpt>
      <trkpt lat="42.51169" lon="2.39099">
        <ele>1303</ele>
        <time>2024-09-18T07:44:24Z</time>
      </trkpt>
      <trkpt lat="42.51172" lon="2.391">
        <ele>1304</ele>
        <time>2024-09-18T07:44:28Z</time>
      </trkpt>
      <trkpt lat="42.51175" lon="2.39101">
        <ele>1305</ele>
        <time>2024-09-18T07:44:32Z</time>
      </trkpt>
      <trkpt lat="42.51174" lon="2.39102">
        <ele>1305</ele>
        <time>2024-09-18T07:44:38Z</time>
      </trkpt>
      <trkpt lat="42.51172" lon="2.39102">
        <ele>1306</ele>
        <time>2024-09-18T07:44:43Z</time>
      </trkpt>
      <trkpt lat="42.51168" lon="2.39102">
        <ele>1309</ele>
        <time>2024-09-18T07:44:48Z</time>
      </trkpt>
      <trkpt lat="42.51166" lon="2.39104">
        <ele>1308</ele>
        <time>2024-09-18T07:44:59Z</time>
      </trkpt>
      <trkpt lat="42.51163" lon="2.39105">
        <ele>1307</ele>
        <time>2024-09-18T07:45:05Z</time>
      </trkpt>
      <trkpt lat="42.51159" lon="2.39106">
        <ele>1308</ele>
        <time>2024-09-18T07:45:10Z</time>
      </trkpt>
      <trkpt lat="42.51156" lon="2.39107">
        <ele>1308</ele>
        <time>2024-09-18T07:45:14Z</time>
      </trkpt>
      <trkpt lat="42.51153" lon="2.39109">
        <ele>1309</ele>
        <time>2024-09-18T07:45:17Z</time>
      </trkpt>
      <trkpt lat="42.5115" lon="2.39109">
        <ele>1309</ele>
        <time>2024-09-18T07:45:21Z</time>
      </trkpt>
      <trkpt lat="42.51147" lon="2.3911">
        <ele>1309</ele>
        <time>2024-09-18T07:45:25Z</time>
      </trkpt>
      <trkpt lat="42.51146" lon="2.39112">
        <ele>1308</ele>
        <time>2024-09-18T07:45:30Z</time>
      </trkpt>
      <trkpt lat="42.51144" lon="2.39114">
        <ele>1310</ele>
        <time>2024-09-18T07:45:36Z</time>
      </trkpt>
      <trkpt lat="42.51141" lon="2.39115">
        <ele>1312</ele>
        <time>2024-09-18T07:45:40Z</time>
      </trkpt>
      <trkpt lat="42.51138" lon="2.39116">
        <ele>1314</ele>
        <time>2024-09-18T07:45:45Z</time>
      </trkpt>
      <trkpt lat="42.51136" lon="2.39117">
        <ele>1315</ele>
        <time>2024-09-18T07:45:50Z</time>
      </trkpt>
      <trkpt lat="42.51133" lon="2.39118">
        <ele>1316</ele>
        <time>2024-09-18T07:45:56Z</time>
      </trkpt>
      <trkpt lat="42.5113" lon="2.39119">
        <ele>1316</ele>
        <time>2024-09-18T07:46:02Z</time>
      </trkpt>
      <trkpt lat="42.51127" lon="2.3912">
        <ele>1317</ele>
        <time>2024-09-18T07:46:09Z</time>
      </trkpt>
      <trkpt lat="42.51123" lon="2.3912">
        <ele>1317</ele>
        <time>2024-09-18T07:46:15Z</time>
      </trkpt>
      <trkpt lat="42.51121" lon="2.39123">
        <ele>1317</ele>
        <time>2024-09-18T07:46:24Z</time>
      </trkpt>
      <trkpt lat="42.51122" lon="2.39126">
        <ele>1319</ele>
        <time>2024-09-18T07:46:31Z</time>
      </trkpt>
      <trkpt lat="42.51121" lon="2.39129">
        <ele>1319</ele>
        <time>2024-09-18T07:46:38Z</time>
      </trkpt>
      <trkpt lat="42.51118" lon="2.39129">
        <ele>1319</ele>
        <time>2024-09-18T07:46:42Z</time>
      </trkpt>
      <trkpt lat="42.51116" lon="2.39129">
        <ele>1321</ele>
        <time>2024-09-18T07:46:47Z</time>
      </trkpt>
      <trkpt lat="42.51113" lon="2.3913">
        <ele>1321</ele>
        <time>2024-09-18T07:47:10Z</time>
      </trkpt>
      <trkpt lat="42.5111" lon="2.3913">
        <ele>1321</ele>
        <time>2024-09-18T07:47:14Z</time>
      </trkpt>
      <trkpt lat="42.51107" lon="2.39129">
        <ele>1324</ele>
        <time>2024-09-18T07:47:19Z</time>
      </trkpt>
      <trkpt lat="42.51104" lon="2.39129">
        <ele>1326</ele>
        <time>2024-09-18T07:47:28Z</time>
      </trkpt>
      <trkpt lat="42.51101" lon="2.39129">
        <ele>1326</ele>
        <time>2024-09-18T07:47:32Z</time>
      </trkpt>
      <trkpt lat="42.51099" lon="2.39129">
        <ele>1327</ele>
        <time>2024-09-18T07:47:38Z</time>
      </trkpt>
      <trkpt lat="42.51095" lon="2.3913">
        <ele>1328</ele>
        <time>2024-09-18T07:47:45Z</time>
      </trkpt>
      <trkpt lat="42.51093" lon="2.3913">
        <ele>1330</ele>
        <time>2024-09-18T07:47:50Z</time>
      </trkpt>
      <trkpt lat="42.5109" lon="2.39129">
        <ele>1332</ele>
        <time>2024-09-18T07:47:56Z</time>
      </trkpt>
      <trkpt lat="42.51088" lon="2.39128">
        <ele>1334</ele>
        <time>2024-09-18T07:47:59Z</time>
      </trkpt>
      <trkpt lat="42.51085" lon="2.39127">
        <ele>1335</ele>
        <time>2024-09-18T07:48:05Z</time>
      </trkpt>
      <trkpt lat="42.51082" lon="2.39127">
        <ele>1337</ele>
        <time>2024-09-18T07:48:13Z</time>
      </trkpt>
      <trkpt lat="42.5108" lon="2.39129">
        <ele>1337</ele>
        <time>2024-09-18T07:48:18Z</time>
      </trkpt>
      <trkpt lat="42.51078" lon="2.39132">
        <ele>1337</ele>
        <time>2024-09-18T07:48:24Z</time>
      </trkpt>
      <trkpt lat="42.51075" lon="2.39135">
        <ele>1338</ele>
        <time>2024-09-18T07:48:34Z</time>
      </trkpt>
      <trkpt lat="42.51073" lon="2.39138">
        <ele>1338</ele>
        <time>2024-09-18T07:48:39Z</time>
      </trkpt>
      <trkpt lat="42.5107" lon="2.3914">
        <ele>1340</ele>
        <time>2024-09-18T07:48:51Z</time>
      </trkpt>
      <trkpt lat="42.5107" lon="2.39143">
        <ele>1340</ele>
        <time>2024-09-18T07:48:52Z</time>
      </trkpt>
      <trkpt lat="42.51073" lon="2.39145">
        <ele>1342</ele>
        <time>2024-09-18T07:48:56Z</time>
      </trkpt>
      <trkpt lat="42.51076" lon="2.39146">
        <ele>1342</ele>
        <time>2024-09-18T07:49:01Z</time>
      </trkpt>
      <trkpt lat="42.51079" lon="2.39148">
        <ele>1343</ele>
        <time>2024-09-18T07:49:06Z</time>
      </trkpt>
      <trkpt lat="42.51081" lon="2.3915">
        <ele>1344</ele>
        <time>2024-09-18T07:49:14Z</time>
      </trkpt>
      <trkpt lat="42.51083" lon="2.39153">
        <ele>1344</ele>
        <time>2024-09-18T07:49:23Z</time>
      </trkpt>
      <trkpt lat="42.51085" lon="2.39157">
        <ele>1344</ele>
        <time>2024-09-18T07:49:31Z</time>
      </trkpt>
      <trkpt lat="42.51087" lon="2.39162">
        <ele>1344</ele>
        <time>2024-09-18T07:49:37Z</time>
      </trkpt>
      <trkpt lat="42.51089" lon="2.39166">
        <ele>1344</ele>
        <time>2024-09-18T07:49:43Z</time>
      </trkpt>
      <trkpt lat="42.51092" lon="2.39168">
        <ele>1348</ele>
        <time>2024-09-18T07:49:50Z</time>
      </trkpt>
      <trkpt lat="42.51091" lon="2.39168">
        <ele>1350</ele>
        <time>2024-09-18T07:50:06Z</time>
      </trkpt>
      <trkpt lat="42.51089" lon="2.39167">
        <ele>1352</ele>
        <time>2024-09-18T07:50:13Z</time>
      </trkpt>
      <trkpt lat="42.51087" lon="2.39166">
        <ele>1354</ele>
        <time>2024-09-18T07:50:20Z</time>
      </trkpt>
      <trkpt lat="42.51084" lon="2.39165">
        <ele>1355</ele>
        <time>2024-09-18T07:50:26Z</time>
      </trkpt>
      <trkpt lat="42.51081" lon="2.39164">
        <ele>1355</ele>
        <time>2024-09-18T07:50:31Z</time>
      </trkpt>
      <trkpt lat="42.51078" lon="2.39165">
        <ele>1356</ele>
        <time>2024-09-18T07:50:37Z</time>
      </trkpt>
      <trkpt lat="42.51076" lon="2.39166">
        <ele>1356</ele>
        <time>2024-09-18T07:50:45Z</time>
      </trkpt>
      <trkpt lat="42.51073" lon="2.39167">
        <ele>1356</ele>
        <time>2024-09-18T07:50:52Z</time>
      </trkpt>
      <trkpt lat="42.51072" lon="2.3917">
        <ele>1354</ele>
        <time>2024-09-18T07:51:00Z</time>
      </trkpt>
      <trkpt lat="42.51072" lon="2.39173">
        <ele>1353</ele>
        <time>2024-09-18T07:51:19Z</time>
      </trkpt>
      <trkpt lat="42.51073" lon="2.39172">
        <ele>1357</ele>
        <time>2024-09-18T07:51:43Z</time>
      </trkpt>
      <trkpt lat="42.51074" lon="2.39173">
        <ele>1359</ele>
        <time>2024-09-18T07:51:52Z</time>
      </trkpt>
      <trkpt lat="42.51076" lon="2.39174">
        <ele>1359</ele>
        <time>2024-09-18T07:51:52Z</time>
      </trkpt>
      <trkpt lat="42.51077" lon="2.39176">
        <ele>1359</ele>
        <time>2024-09-18T07:52:00Z</time>
      </trkpt>
      <trkpt lat="42.51078" lon="2.3918">
        <ele>1361</ele>
        <time>2024-09-18T07:52:05Z</time>
      </trkpt>
      <trkpt lat="42.51077" lon="2.3918">
        <ele>1361</ele>
        <time>2024-09-18T07:52:15Z</time>
      </trkpt>
      <trkpt lat="42.51074" lon="2.39181">
        <ele>1360</ele>
        <time>2024-09-18T07:52:19Z</time>
      </trkpt>
      <trkpt lat="42.51072" lon="2.39182">
        <ele>1361</ele>
        <time>2024-09-18T07:52:23Z</time>
      </trkpt>
      <trkpt lat="42.51068" lon="2.39185">
        <ele>1362</ele>
        <time>2024-09-18T07:52:28Z</time>
      </trkpt>
      <trkpt lat="42.51068" lon="2.39186">
        <ele>1362</ele>
        <time>2024-09-18T07:52:30Z</time>
      </trkpt>
      <trkpt lat="42.5107" lon="2.39187">
        <ele>1363</ele>
        <time>2024-09-18T07:52:35Z</time>
      </trkpt>
      <trkpt lat="42.51073" lon="2.39188">
        <ele>1365</ele>
        <time>2024-09-18T07:52:38Z</time>
      </trkpt>
      <trkpt lat="42.51076" lon="2.39188">
        <ele>1365</ele>
        <time>2024-09-18T07:52:42Z</time>
      </trkpt>
      <trkpt lat="42.51079" lon="2.39189">
        <ele>1367</ele>
        <time>2024-09-18T07:52:48Z</time>
      </trkpt>
      <trkpt lat="42.51082" lon="2.39191">
        <ele>1366</ele>
        <time>2024-09-18T07:52:52Z</time>
      </trkpt>
      <trkpt lat="42.51084" lon="2.39194">
        <ele>1368</ele>
        <time>2024-09-18T07:52:57Z</time>
      </trkpt>
      <trkpt lat="42.51086" lon="2.39195">
        <ele>1368</ele>
        <time>2024-09-18T07:53:02Z</time>
      </trkpt>
      <trkpt lat="42.5109" lon="2.39196">
        <ele>1368</ele>
        <time>2024-09-18T07:53:05Z</time>
      </trkpt>
      <trkpt lat="42.51093" lon="2.39197">
        <ele>1368</ele>
        <time>2024-09-18T07:53:06Z</time>
      </trkpt>
      <trkpt lat="42.51096" lon="2.39198">
        <ele>1368</ele>
        <time>2024-09-18T07:53:13Z</time>
      </trkpt>
      <trkpt lat="42.51099" lon="2.39197">
        <ele>1368</ele>
        <time>2024-09-18T07:53:17Z</time>
      </trkpt>
      <trkpt lat="42.511" lon="2.39199">
        <ele>1368</ele>
        <time>2024-09-18T07:53:25Z</time>
      </trkpt>
      <trkpt lat="42.51102" lon="2.39202">
        <ele>1369</ele>
        <time>2024-09-18T07:53:33Z</time>
      </trkpt>
      <trkpt lat="42.51105" lon="2.39204">
        <ele>1371</ele>
        <time>2024-09-18T07:53:42Z</time>
      </trkpt>
      <trkpt lat="42.51107" lon="2.39206">
        <ele>1373</ele>
        <time>2024-09-18T07:53:53Z</time>
      </trkpt>
      <trkpt lat="42.5111" lon="2.39208">
        <ele>1375</ele>
        <time>2024-09-18T07:53:59Z</time>
      </trkpt>
      <trkpt lat="42.51112" lon="2.39211">
        <ele>1376</ele>
        <time>2024-09-18T07:54:06Z</time>
      </trkpt>
      <trkpt lat="42.51115" lon="2.39213">
        <ele>1376</ele>
        <time>2024-09-18T07:54:11Z</time>
      </trkpt>
      <trkpt lat="42.51118" lon="2.39213">
        <ele>1376</ele>
        <time>2024-09-18T07:54:16Z</time>
      </trkpt>
      <trkpt lat="42.5112" lon="2.39215">
        <ele>1377</ele>
        <time>2024-09-18T07:54:20Z</time>
      </trkpt>
      <trkpt lat="42.51122" lon="2.39218">
        <ele>1377</ele>
        <time>2024-09-18T07:54:25Z</time>
      </trkpt>
      <trkpt lat="42.51124" lon="2.39221">
        <ele>1377</ele>
        <time>2024-09-18T07:54:28Z</time>
      </trkpt>
      <trkpt lat="42.51127" lon="2.39223">
        <ele>1378</ele>
        <time>2024-09-18T07:54:35Z</time>
      </trkpt>
      <trkpt lat="42.5113" lon="2.39225">
        <ele>1378</ele>
        <time>2024-09-18T07:54:39Z</time>
      </trkpt>
      <trkpt lat="42.51133" lon="2.39225">
        <ele>1380</ele>
        <time>2024-09-18T07:54:47Z</time>
      </trkpt>
      <trkpt lat="42.51136" lon="2.39227">
        <ele>1379</ele>
        <time>2024-09-18T07:54:52Z</time>
      </trkpt>
      <trkpt lat="42.51139" lon="2.39228">
        <ele>1380</ele>
        <time>2024-09-18T07:54:55Z</time>
      </trkpt>
      <trkpt lat="42.51142" lon="2.39229">
        <ele>1381</ele>
        <time>2024-09-18T07:54:59Z</time>
      </trkpt>
      <trkpt lat="42.51144" lon="2.39231">
        <ele>1382</ele>
        <time>2024-09-18T07:55:24Z</time>
      </trkpt>
      <trkpt lat="42.51147" lon="2.39234">
        <ele>1383</ele>
        <time>2024-09-18T07:55:29Z</time>
      </trkpt>
      <trkpt lat="42.51147" lon="2.39236">
        <ele>1384</ele>
        <time>2024-09-18T07:55:45Z</time>
      </trkpt>
      <trkpt lat="42.51146" lon="2.39238">
        <ele>1385</ele>
        <time>2024-09-18T07:55:51Z</time>
      </trkpt>
      <trkpt lat="42.51146" lon="2.39241">
        <ele>1386</ele>
        <time>2024-09-18T07:55:56Z</time>
      </trkpt>
      <trkpt lat="42.51147" lon="2.39242">
        <ele>1386</ele>
        <time>2024-09-18T07:56:03Z</time>
      </trkpt>
      <trkpt lat="42.51147" lon="2.39245">
        <ele>1385</ele>
        <time>2024-09-18T07:56:13Z</time>
      </trkpt>
      <trkpt lat="42.51149" lon="2.39247">
        <ele>1385</ele>
        <time>2024-09-18T07:56:20Z</time>
      </trkpt>
      <trkpt lat="42.51149" lon="2.39251">
        <ele>1385</ele>
        <time>2024-09-18T07:56:25Z</time>
      </trkpt>
      <trkpt lat="42.51146" lon="2.39252">
        <ele>1385</ele>
        <time>2024-09-18T07:56:39Z</time>
      </trkpt>
      <trkpt lat="42.51143" lon="2.39252">
        <ele>1387</ele>
        <time>2024-09-18T07:56:45Z</time>
      </trkpt>
      <trkpt lat="42.51141" lon="2.39253">
        <ele>1386</ele>
        <time>2024-09-18T07:56:48Z</time>
      </trkpt>
      <trkpt lat="42.51138" lon="2.39254">
        <ele>1387</ele>
        <time>2024-09-18T07:56:57Z</time>
      </trkpt>
      <trkpt lat="42.51135" lon="2.39256">
        <ele>1387</ele>
        <time>2024-09-18T07:57:04Z</time>
      </trkpt>
      <trkpt lat="42.51132" lon="2.39258">
        <ele>1389</ele>
        <time>2024-09-18T07:57:12Z</time>
      </trkpt>
      <trkpt lat="42.51129" lon="2.39259">
        <ele>1390</ele>
        <time>2024-09-18T07:57:21Z</time>
      </trkpt>
      <trkpt lat="42.51128" lon="2.39261">
        <ele>1391</ele>
        <time>2024-09-18T07:57:32Z</time>
      </trkpt>
      <trkpt lat="42.5113" lon="2.39263">
        <ele>1393</ele>
        <time>2024-09-18T07:57:41Z</time>
      </trkpt>
      <trkpt lat="42.51132" lon="2.39266">
        <ele>1394</ele>
        <time>2024-09-18T07:57:48Z</time>
      </trkpt>
      <trkpt lat="42.5113" lon="2.39267">
        <ele>1397</ele>
        <time>2024-09-18T07:57:56Z</time>
      </trkpt>
      <trkpt lat="42.51128" lon="2.39267">
        <ele>1398</ele>
        <time>2024-09-18T07:58:03Z</time>
      </trkpt>
      <trkpt lat="42.51126" lon="2.39267">
        <ele>1400</ele>
        <time>2024-09-18T07:58:08Z</time>
      </trkpt>
      <trkpt lat="42.51123" lon="2.39265">
        <ele>1401</ele>
        <time>2024-09-18T07:58:12Z</time>
      </trkpt>
      <trkpt lat="42.5112" lon="2.39264">
        <ele>1403</ele>
        <time>2024-09-18T07:58:20Z</time>
      </trkpt>
      <trkpt lat="42.51117" lon="2.39264">
        <ele>1403</ele>
        <time>2024-09-18T07:58:28Z</time>
      </trkpt>
      <trkpt lat="42.51114" lon="2.39267">
        <ele>1403</ele>
        <time>2024-09-18T07:58:33Z</time>
      </trkpt>
      <trkpt lat="42.51114" lon="2.3927">
        <ele>1405</ele>
        <time>2024-09-18T07:58:43Z</time>
      </trkpt>
      <trkpt lat="42.51115" lon="2.39274">
        <ele>1406</ele>
        <time>2024-09-18T07:58:48Z</time>
      </trkpt>
      <trkpt lat="42.51118" lon="2.39275">
        <ele>1406</ele>
        <time>2024-09-18T07:58:53Z</time>
      </trkpt>
      <trkpt lat="42.51121" lon="2.39277">
        <ele>1406</ele>
        <time>2024-09-18T07:58:56Z</time>
      </trkpt>
      <trkpt lat="42.51124" lon="2.39279">
        <ele>1409</ele>
        <time>2024-09-18T07:59:02Z</time>
      </trkpt>
      <trkpt lat="42.51126" lon="2.39282">
        <ele>1409</ele>
        <time>2024-09-18T07:59:06Z</time>
      </trkpt>
      <trkpt lat="42.51128" lon="2.39286">
        <ele>1408</ele>
        <time>2024-09-18T07:59:11Z</time>
      </trkpt>
      <trkpt lat="42.51131" lon="2.39288">
        <ele>1410</ele>
        <time>2024-09-18T07:59:14Z</time>
      </trkpt>
      <trkpt lat="42.51134" lon="2.3929">
        <ele>1408</ele>
        <time>2024-09-18T07:59:20Z</time>
      </trkpt>
      <trkpt lat="42.51138" lon="2.39291">
        <ele>1409</ele>
        <time>2024-09-18T07:59:24Z</time>
      </trkpt>
      <trkpt lat="42.51141" lon="2.39292">
        <ele>1411</ele>
        <time>2024-09-18T07:59:27Z</time>
      </trkpt>
      <trkpt lat="42.51144" lon="2.39294">
        <ele>1410</ele>
        <time>2024-09-18T07:59:32Z</time>
      </trkpt>
      <trkpt lat="42.51146" lon="2.39296">
        <ele>1409</ele>
        <time>2024-09-18T07:59:36Z</time>
      </trkpt>
      <trkpt lat="42.51149" lon="2.39299">
        <ele>1410</ele>
        <time>2024-09-18T07:59:42Z</time>
      </trkpt>
      <trkpt lat="42.51152" lon="2.39301">
        <ele>1410</ele>
        <time>2024-09-18T07:59:47Z</time>
      </trkpt>
      <trkpt lat="42.51154" lon="2.39304">
        <ele>1410</ele>
        <time>2024-09-18T07:59:50Z</time>
      </trkpt>
      <trkpt lat="42.51157" lon="2.39306">
        <ele>1411</ele>
        <time>2024-09-18T07:59:55Z</time>
      </trkpt>
      <trkpt lat="42.51157" lon="2.39306">
        <ele>1413</ele>
        <time>2024-09-18T08:00:05Z</time>
      </trkpt>
      <trkpt lat="42.51154" lon="2.39306">
        <ele>1414</ele>
        <time>2024-09-18T08:00:09Z</time>
      </trkpt>
      <trkpt lat="42.51151" lon="2.39307">
        <ele>1416</ele>
        <time>2024-09-18T08:00:14Z</time>
      </trkpt>
      <trkpt lat="42.51152" lon="2.39309">
        <ele>1416</ele>
        <time>2024-09-18T08:00:17Z</time>
      </trkpt>
      <trkpt lat="42.51154" lon="2.39311">
        <ele>1416</ele>
        <time>2024-09-18T08:00:21Z</time>
      </trkpt>
      <trkpt lat="42.51155" lon="2.39314">
        <ele>1416</ele>
        <time>2024-09-18T08:00:25Z</time>
      </trkpt>
      <trkpt lat="42.51155" lon="2.39318">
        <ele>1417</ele>
        <time>2024-09-18T08:00:34Z</time>
      </trkpt>
      <trkpt lat="42.51153" lon="2.39318">
        <ele>1420</ele>
        <time>2024-09-18T08:01:00Z</time>
      </trkpt>
      <trkpt lat="42.5115" lon="2.39318">
        <ele>1421</ele>
        <time>2024-09-18T08:01:03Z</time>
      </trkpt>
      <trkpt lat="42.51147" lon="2.39317">
        <ele>1423</ele>
        <time>2024-09-18T08:01:11Z</time>
      </trkpt>
      <trkpt lat="42.51144" lon="2.39318">
        <ele>1425</ele>
        <time>2024-09-18T08:01:18Z</time>
      </trkpt>
      <trkpt lat="42.51142" lon="2.39318">
        <ele>1426</ele>
        <time>2024-09-18T08:01:26Z</time>
      </trkpt>
      <trkpt lat="42.51139" lon="2.39318">
        <ele>1426</ele>
        <time>2024-09-18T08:01:32Z</time>
      </trkpt>
      <trkpt lat="42.51136" lon="2.39317">
        <ele>1427</ele>
        <time>2024-09-18T08:01:36Z</time>
      </trkpt>
      <trkpt lat="42.51134" lon="2.39317">
        <ele>1427</ele>
        <time>2024-09-18T08:01:40Z</time>
      </trkpt>
      <trkpt lat="42.51131" lon="2.39315">
        <ele>1427</ele>
        <time>2024-09-18T08:01:43Z</time>
      </trkpt>
      <trkpt lat="42.51128" lon="2.39315">
        <ele>1427</ele>
        <time>2024-09-18T08:01:46Z</time>
      </trkpt>
      <trkpt lat="42.51125" lon="2.39316">
        <ele>1426</ele>
        <time>2024-09-18T08:01:52Z</time>
      </trkpt>
      <trkpt lat="42.51122" lon="2.39317">
        <ele>1427</ele>
        <time>2024-09-18T08:01:56Z</time>
      </trkpt>
      <trkpt lat="42.51119" lon="2.39317">
        <ele>1428</ele>
        <time>2024-09-18T08:02:01Z</time>
      </trkpt>
      <trkpt lat="42.51117" lon="2.39317">
        <ele>1429</ele>
        <time>2024-09-18T08:02:05Z</time>
      </trkpt>
      <trkpt lat="42.51113" lon="2.39317">
        <ele>1431</ele>
        <time>2024-09-18T08:02:11Z</time>
      </trkpt>
      <trkpt lat="42.5111" lon="2.39318">
        <ele>1430</ele>
        <time>2024-09-18T08:02:16Z</time>
      </trkpt>
      <trkpt lat="42.51107" lon="2.39319">
        <ele>1431</ele>
        <time>2024-09-18T08:02:21Z</time>
      </trkpt>
      <trkpt lat="42.51104" lon="2.39318">
        <ele>1431</ele>
        <time>2024-09-18T08:02:26Z</time>
      </trkpt>
      <trkpt lat="42.51101" lon="2.39319">
        <ele>1432</ele>
        <time>2024-09-18T08:02:31Z</time>
      </trkpt>
      <trkpt lat="42.51099" lon="2.3932">
        <ele>1433</ele>
        <time>2024-09-18T08:02:35Z</time>
      </trkpt>
      <trkpt lat="42.51096" lon="2.39322">
        <ele>1433</ele>
        <time>2024-09-18T08:02:39Z</time>
      </trkpt>
      <trkpt lat="42.51093" lon="2.39323">
        <ele>1434</ele>
        <time>2024-09-18T08:02:45Z</time>
      </trkpt>
      <trkpt lat="42.5109" lon="2.39325">
        <ele>1436</ele>
        <time>2024-09-18T08:02:54Z</time>
      </trkpt>
      <trkpt lat="42.5109" lon="2.39327">
        <ele>1437</ele>
        <time>2024-09-18T08:03:01Z</time>
      </trkpt>
      <trkpt lat="42.51092" lon="2.39329">
        <ele>1437</ele>
        <time>2024-09-18T08:03:05Z</time>
      </trkpt>
      <trkpt lat="42.51095" lon="2.3933">
        <ele>1437</ele>
        <time>2024-09-18T08:03:09Z</time>
      </trkpt>
      <trkpt lat="42.51098" lon="2.39332">
        <ele>1438</ele>
        <time>2024-09-18T08:03:12Z</time>
      </trkpt>
      <trkpt lat="42.511" lon="2.39332">
        <ele>1438</ele>
        <time>2024-09-18T08:03:17Z</time>
      </trkpt>
      <trkpt lat="42.51103" lon="2.39334">
        <ele>1438</ele>
        <time>2024-09-18T08:03:19Z</time>
      </trkpt>
      <trkpt lat="42.51106" lon="2.39335">
        <ele>1439</ele>
        <time>2024-09-18T08:03:24Z</time>
      </trkpt>
      <trkpt lat="42.51106" lon="2.39338">
        <ele>1440</ele>
        <time>2024-09-18T08:03:31Z</time>
      </trkpt>
      <trkpt lat="42.51104" lon="2.39339">
        <ele>1441</ele>
        <time>2024-09-18T08:03:37Z</time>
      </trkpt>
      <trkpt lat="42.51102" lon="2.39342">
        <ele>1442</ele>
        <time>2024-09-18T08:03:43Z</time>
      </trkpt>
      <trkpt lat="42.511" lon="2.39343">
        <ele>1443</ele>
        <time>2024-09-18T08:03:48Z</time>
      </trkpt>
      <trkpt lat="42.51097" lon="2.39343">
        <ele>1443</ele>
        <time>2024-09-18T08:03:53Z</time>
      </trkpt>
      <trkpt lat="42.51094" lon="2.39344">
        <ele>1442</ele>
        <time>2024-09-18T08:04:06Z</time>
      </trkpt>
      <trkpt lat="42.51092" lon="2.39346">
        <ele>1443</ele>
        <time>2024-09-18T08:04:14Z</time>
      </trkpt>
      <trkpt lat="42.5109" lon="2.39349">
        <ele>1442</ele>
        <time>2024-09-18T08:04:20Z</time>
      </trkpt>
      <trkpt lat="42.51088" lon="2.39348">
        <ele>1443</ele>
        <time>2024-09-18T08:04:23Z</time>
      </trkpt>
      <trkpt lat="42.51085" lon="2.39348">
        <ele>1445</ele>
        <time>2024-09-18T08:04:30Z</time>
      </trkpt>
      <trkpt lat="42.51083" lon="2.39348">
        <ele>1446</ele>
        <time>2024-09-18T08:04:38Z</time>
      </trkpt>
      <trkpt lat="42.51082" lon="2.39351">
        <ele>1448</ele>
        <time>2024-09-18T08:04:46Z</time>
      </trkpt>
      <trkpt lat="42.51081" lon="2.3935">
        <ele>1447</ele>
        <time>2024-09-18T08:04:53Z</time>
      </trkpt>
      <trkpt lat="42.51079" lon="2.39347">
        <ele>1447</ele>
        <time>2024-09-18T08:04:57Z</time>
      </trkpt>
      <trkpt lat="42.51077" lon="2.39344">
        <ele>1449</ele>
        <time>2024-09-18T08:05:00Z</time>
      </trkpt>
      <trkpt lat="42.51075" lon="2.39345">
        <ele>1451</ele>
        <time>2024-09-18T08:05:10Z</time>
      </trkpt>
      <trkpt lat="42.51072" lon="2.39346">
        <ele>1451</ele>
        <time>2024-09-18T08:05:13Z</time>
      </trkpt>
      <trkpt lat="42.51069" lon="2.39347">
        <ele>1451</ele>
        <time>2024-09-18T08:05:17Z</time>
      </trkpt>
      <trkpt lat="42.51067" lon="2.39349">
        <ele>1451</ele>
        <time>2024-09-18T08:05:24Z</time>
      </trkpt>
      <trkpt lat="42.51066" lon="2.39352">
        <ele>1451</ele>
        <time>2024-09-18T08:05:32Z</time>
      </trkpt>
      <trkpt lat="42.51064" lon="2.39353">
        <ele>1454</ele>
        <time>2024-09-18T08:06:43Z</time>
      </trkpt>
      <trkpt lat="42.51062" lon="2.39353">
        <ele>1454</ele>
        <time>2024-09-18T08:06:47Z</time>
      </trkpt>
      <trkpt lat="42.51059" lon="2.39353">
        <ele>1455</ele>
        <time>2024-09-18T08:07:18Z</time>
      </trkpt>
      <trkpt lat="42.51056" lon="2.39353">
        <ele>1454</ele>
        <time>2024-09-18T08:07:22Z</time>
      </trkpt>
      <trkpt lat="42.51053" lon="2.39352">
        <ele>1454</ele>
        <time>2024-09-18T08:07:25Z</time>
      </trkpt>
      <trkpt lat="42.5105" lon="2.39353">
        <ele>1454</ele>
        <time>2024-09-18T08:07:30Z</time>
      </trkpt>
      <trkpt lat="42.51046" lon="2.39355">
        <ele>1455</ele>
        <time>2024-09-18T08:07:36Z</time>
      </trkpt>
      <trkpt lat="42.51044" lon="2.39356">
        <ele>1456</ele>
        <time>2024-09-18T08:07:40Z</time>
      </trkpt>
      <trkpt lat="42.51041" lon="2.39357">
        <ele>1455</ele>
        <time>2024-09-18T08:07:43Z</time>
      </trkpt>
      <trkpt lat="42.51037" lon="2.39358">
        <ele>1455</ele>
        <time>2024-09-18T08:07:46Z</time>
      </trkpt>
      <trkpt lat="42.51035" lon="2.39361">
        <ele>1456</ele>
        <time>2024-09-18T08:07:51Z</time>
      </trkpt>
      <trkpt lat="42.51032" lon="2.39362">
        <ele>1457</ele>
        <time>2024-09-18T08:07:55Z</time>
      </trkpt>
      <trkpt lat="42.51029" lon="2.39364">
        <ele>1457</ele>
        <time>2024-09-18T08:08:00Z</time>
      </trkpt>
      <trkpt lat="42.51026" lon="2.39365">
        <ele>1458</ele>
        <time>2024-09-18T08:08:04Z</time>
      </trkpt>
      <trkpt lat="42.51023" lon="2.39365">
        <ele>1458</ele>
        <time>2024-09-18T08:08:08Z</time>
      </trkpt>
      <trkpt lat="42.5102" lon="2.39365">
        <ele>1457</ele>
        <time>2024-09-18T08:08:12Z</time>
      </trkpt>
      <trkpt lat="42.51017" lon="2.39366">
        <ele>1458</ele>
        <time>2024-09-18T08:08:15Z</time>
      </trkpt>
      <trkpt lat="42.51014" lon="2.39366">
        <ele>1457</ele>
        <time>2024-09-18T08:08:17Z</time>
      </trkpt>
      <trkpt lat="42.51011" lon="2.39366">
        <ele>1460</ele>
        <time>2024-09-18T08:08:20Z</time>
      </trkpt>
      <trkpt lat="42.51008" lon="2.39367">
        <ele>1459</ele>
        <time>2024-09-18T08:08:30Z</time>
      </trkpt>
      <trkpt lat="42.51005" lon="2.39366">
        <ele>1460</ele>
        <time>2024-09-18T08:08:33Z</time>
      </trkpt>
      <trkpt lat="42.51001" lon="2.39367">
        <ele>1455</ele>
        <time>2024-09-18T08:08:37Z</time>
      </trkpt>
      <trkpt lat="42.50999" lon="2.39369">
        <ele>1455</ele>
        <time>2024-09-18T08:08:40Z</time>
      </trkpt>
      <trkpt lat="42.50996" lon="2.39372">
        <ele>1456</ele>
        <time>2024-09-18T08:08:45Z</time>
      </trkpt>
      <trkpt lat="42.50992" lon="2.39374">
        <ele>1454</ele>
        <time>2024-09-18T08:08:48Z</time>
      </trkpt>
      <trkpt lat="42.50989" lon="2.39377">
        <ele>1454</ele>
        <time>2024-09-18T08:08:52Z</time>
      </trkpt>
      <trkpt lat="42.50986" lon="2.3938">
        <ele>1455</ele>
        <time>2024-09-18T08:08:55Z</time>
      </trkpt>
      <trkpt lat="42.50984" lon="2.39383">
        <ele>1454</ele>
        <time>2024-09-18T08:09:00Z</time>
      </trkpt>
      <trkpt lat="42.50984" lon="2.39386">
        <ele>1451</ele>
        <time>2024-09-18T08:09:03Z</time>
      </trkpt>
      <trkpt lat="42.50985" lon="2.39387">
        <ele>1451</ele>
        <time>2024-09-18T08:09:05Z</time>
      </trkpt>
      <trkpt lat="42.50988" lon="2.39387">
        <ele>1453</ele>
        <time>2024-09-18T08:09:07Z</time>
      </trkpt>
      <trkpt lat="42.50991" lon="2.39387">
        <ele>1454</ele>
        <time>2024-09-18T08:09:09Z</time>
      </trkpt>
      <trkpt lat="42.50994" lon="2.39385">
        <ele>1455</ele>
        <time>2024-09-18T08:09:14Z</time>
      </trkpt>
      <trkpt lat="42.50997" lon="2.39383">
        <ele>1457</ele>
        <time>2024-09-18T08:09:16Z</time>
      </trkpt>
      <trkpt lat="42.51" lon="2.39382">
        <ele>1457</ele>
        <time>2024-09-18T08:09:21Z</time>
      </trkpt>
      <trkpt lat="42.51003" lon="2.3938">
        <ele>1460</ele>
        <time>2024-09-18T08:09:28Z</time>
      </trkpt>
      <trkpt lat="42.51006" lon="2.3938">
        <ele>1458</ele>
        <time>2024-09-18T08:09:32Z</time>
      </trkpt>
      <trkpt lat="42.51008" lon="2.39382">
        <ele>1459</ele>
        <time>2024-09-18T08:09:38Z</time>
      </trkpt>
      <trkpt lat="42.5101" lon="2.39381">
        <ele>1460</ele>
        <time>2024-09-18T08:09:52Z</time>
      </trkpt>
      <trkpt lat="42.51012" lon="2.39383">
        <ele>1465</ele>
        <time>2024-09-18T08:10:23Z</time>
      </trkpt>
      <trkpt lat="42.51014" lon="2.39384">
        <ele>1465</ele>
        <time>2024-09-18T08:10:47Z</time>
      </trkpt>
      <trkpt lat="42.51013" lon="2.39383">
        <ele>1462</ele>
        <time>2024-09-18T08:11:26Z</time>
      </trkpt>
      <trkpt lat="42.51011" lon="2.39383">
        <ele>1465</ele>
        <time>2024-09-18T08:13:42Z</time>
      </trkpt>
      <trkpt lat="42.51012" lon="2.39384">
        <ele>1464</ele>
        <time>2024-09-18T08:14:04Z</time>
      </trkpt>
      <trkpt lat="42.51012" lon="2.39388">
        <ele>1462</ele>
        <time>2024-09-18T08:14:10Z</time>
      </trkpt>
      <trkpt lat="42.51011" lon="2.39387">
        <ele>1462</ele>
        <time>2024-09-18T08:14:48Z</time>
      </trkpt>
      <trkpt lat="42.51013" lon="2.39385">
        <ele>1465</ele>
        <time>2024-09-18T08:16:13Z</time>
      </trkpt>
      <trkpt lat="42.51012" lon="2.39386">
        <ele>1463</ele>
        <time>2024-09-18T08:16:55Z</time>
      </trkpt>
      <trkpt lat="42.51012" lon="2.39383">
        <ele>1466</ele>
        <time>2024-09-18T08:18:16Z</time>
      </trkpt>
      <trkpt lat="42.5101" lon="2.3938">
        <ele>1464</ele>
        <time>2024-09-18T08:21:15Z</time>
      </trkpt>
      <trkpt lat="42.51008" lon="2.39378">
        <ele>1462</ele>
        <time>2024-09-18T08:21:18Z</time>
      </trkpt>
      <trkpt lat="42.51006" lon="2.39377">
        <ele>1461</ele>
        <time>2024-09-18T08:21:22Z</time>
      </trkpt>
      <trkpt lat="42.51003" lon="2.39376">
        <ele>1460</ele>
        <time>2024-09-18T08:21:24Z</time>
      </trkpt>
      <trkpt lat="42.51" lon="2.39374">
        <ele>1458</ele>
        <time>2024-09-18T08:21:28Z</time>
      </trkpt>
      <trkpt lat="42.50998" lon="2.39375">
        <ele>1458</ele>
        <time>2024-09-18T08:21:30Z</time>
      </trkpt>
      <trkpt lat="42.50996" lon="2.39378">
        <ele>1456</ele>
        <time>2024-09-18T08:21:34Z</time>
      </trkpt>
      <trkpt lat="42.50994" lon="2.3938">
        <ele>1455</ele>
        <time>2024-09-18T08:21:37Z</time>
      </trkpt>
      <trkpt lat="42.50991" lon="2.39382">
        <ele>1455</ele>
        <time>2024-09-18T08:21:40Z</time>
      </trkpt>
      <trkpt lat="42.50988" lon="2.39383">
        <ele>1454</ele>
        <time>2024-09-18T08:21:44Z</time>
      </trkpt>
      <trkpt lat="42.50985" lon="2.39384">
        <ele>1454</ele>
        <time>2024-09-18T08:21:48Z</time>
      </trkpt>
      <trkpt lat="42.50982" lon="2.39384">
        <ele>1455</ele>
        <time>2024-09-18T08:21:51Z</time>
      </trkpt>
      <trkpt lat="42.50978" lon="2.39384">
        <ele>1453</ele>
        <time>2024-09-18T08:21:55Z</time>
      </trkpt>
      <trkpt lat="42.50974" lon="2.39387">
        <ele>1453</ele>
        <time>2024-09-18T08:21:58Z</time>
      </trkpt>
      <trkpt lat="42.50971" lon="2.39389">
        <ele>1453</ele>
        <time>2024-09-18T08:22:00Z</time>
      </trkpt>
      <trkpt lat="42.50969" lon="2.39393">
        <ele>1454</ele>
        <time>2024-09-18T08:22:02Z</time>
      </trkpt>
      <trkpt lat="42.50967" lon="2.39394">
        <ele>1454</ele>
        <time>2024-09-18T08:22:05Z</time>
      </trkpt>
      <trkpt lat="42.50963" lon="2.39396">
        <ele>1454</ele>
        <time>2024-09-18T08:22:08Z</time>
      </trkpt>
      <trkpt lat="42.50961" lon="2.39399">
        <ele>1454</ele>
        <time>2024-09-18T08:22:11Z</time>
      </trkpt>
      <trkpt lat="42.50958" lon="2.39402">
        <ele>1453</ele>
        <time>2024-09-18T08:22:13Z</time>
      </trkpt>
      <trkpt lat="42.50955" lon="2.39404">
        <ele>1455</ele>
        <time>2024-09-18T08:22:15Z</time>
      </trkpt>
      <trkpt lat="42.50952" lon="2.39406">
        <ele>1453</ele>
        <time>2024-09-18T08:22:19Z</time>
      </trkpt>
      <trkpt lat="42.50951" lon="2.39409">
        <ele>1452</ele>
        <time>2024-09-18T08:22:22Z</time>
      </trkpt>
      <trkpt lat="42.50949" lon="2.39412">
        <ele>1452</ele>
        <time>2024-09-18T08:22:24Z</time>
      </trkpt>
      <trkpt lat="42.50947" lon="2.39414">
        <ele>1451</ele>
        <time>2024-09-18T08:22:27Z</time>
      </trkpt>
      <trkpt lat="42.50944" lon="2.39416">
        <ele>1453</ele>
        <time>2024-09-18T08:22:29Z</time>
      </trkpt>
      <trkpt lat="42.50942" lon="2.39418">
        <ele>1454</ele>
        <time>2024-09-18T08:22:32Z</time>
      </trkpt>
      <trkpt lat="42.5094" lon="2.39422">
        <ele>1453</ele>
        <time>2024-09-18T08:22:36Z</time>
      </trkpt>
      <trkpt lat="42.50938" lon="2.39424">
        <ele>1453</ele>
        <time>2024-09-18T08:22:41Z</time>
      </trkpt>
      <trkpt lat="42.50937" lon="2.39427">
        <ele>1451</ele>
        <time>2024-09-18T08:22:44Z</time>
      </trkpt>
      <trkpt lat="42.50936" lon="2.39432">
        <ele>1452</ele>
        <time>2024-09-18T08:22:46Z</time>
      </trkpt>
      <trkpt lat="42.50933" lon="2.39434">
        <ele>1450</ele>
        <time>2024-09-18T08:22:52Z</time>
      </trkpt>
      <trkpt lat="42.50932" lon="2.39437">
        <ele>1449</ele>
        <time>2024-09-18T08:22:57Z</time>
      </trkpt>
      <trkpt lat="42.50932" lon="2.39441">
        <ele>1449</ele>
        <time>2024-09-18T08:22:59Z</time>
      </trkpt>
      <trkpt lat="42.50932" lon="2.39445">
        <ele>1448</ele>
        <time>2024-09-18T08:23:02Z</time>
      </trkpt>
      <trkpt lat="42.5093" lon="2.39447">
        <ele>1446</ele>
        <time>2024-09-18T08:23:06Z</time>
      </trkpt>
      <trkpt lat="42.50929" lon="2.39451">
        <ele>1446</ele>
        <time>2024-09-18T08:23:09Z</time>
      </trkpt>
      <trkpt lat="42.50928" lon="2.39456">
        <ele>1444</ele>
        <time>2024-09-18T08:23:13Z</time>
      </trkpt>
      <trkpt lat="42.50927" lon="2.3946">
        <ele>1446</ele>
        <time>2024-09-18T08:23:15Z</time>
      </trkpt>
      <trkpt lat="42.50926" lon="2.39464">
        <ele>1444</ele>
        <time>2024-09-18T08:23:19Z</time>
      </trkpt>
      <trkpt lat="42.50924" lon="2.39468">
        <ele>1444</ele>
        <time>2024-09-18T08:23:22Z</time>
      </trkpt>
      <trkpt lat="42.50922" lon="2.39473">
        <ele>1443</ele>
        <time>2024-09-18T08:23:24Z</time>
      </trkpt>
      <trkpt lat="42.5092" lon="2.39477">
        <ele>1443</ele>
        <time>2024-09-18T08:23:24Z</time>
      </trkpt>
      <trkpt lat="42.5092" lon="2.39482">
        <ele>1442</ele>
        <time>2024-09-18T08:23:28Z</time>
      </trkpt>
      <trkpt lat="42.50919" lon="2.39486">
        <ele>1442</ele>
        <time>2024-09-18T08:23:32Z</time>
      </trkpt>
      <trkpt lat="42.50917" lon="2.39491">
        <ele>1442</ele>
        <time>2024-09-18T08:23:35Z</time>
      </trkpt>
      <trkpt lat="42.50916" lon="2.39495">
        <ele>1441</ele>
        <time>2024-09-18T08:23:36Z</time>
      </trkpt>
      <trkpt lat="42.50915" lon="2.39498">
        <ele>1441</ele>
        <time>2024-09-18T08:23:39Z</time>
      </trkpt>
      <trkpt lat="42.50914" lon="2.39502">
        <ele>1441</ele>
        <time>2024-09-18T08:23:41Z</time>
      </trkpt>
      <trkpt lat="42.50914" lon="2.39507">
        <ele>1440</ele>
        <time>2024-09-18T08:23:44Z</time>
      </trkpt>
      <trkpt lat="42.50912" lon="2.3951">
        <ele>1441</ele>
        <time>2024-09-18T08:23:47Z</time>
      </trkpt>
      <trkpt lat="42.50909" lon="2.39513">
        <ele>1442</ele>
        <time>2024-09-18T08:23:52Z</time>
      </trkpt>
      <trkpt lat="42.50906" lon="2.39515">
        <ele>1443</ele>
        <time>2024-09-18T08:23:55Z</time>
      </trkpt>
      <trkpt lat="42.50904" lon="2.39519">
        <ele>1443</ele>
        <time>2024-09-18T08:23:59Z</time>
      </trkpt>
      <trkpt lat="42.50903" lon="2.39523">
        <ele>1443</ele>
        <time>2024-09-18T08:24:02Z</time>
      </trkpt>
      <trkpt lat="42.50901" lon="2.39527">
        <ele>1443</ele>
        <time>2024-09-18T08:24:05Z</time>
      </trkpt>
      <trkpt lat="42.509" lon="2.39532">
        <ele>1442</ele>
        <time>2024-09-18T08:24:08Z</time>
      </trkpt>
      <trkpt lat="42.50899" lon="2.39536">
        <ele>1442</ele>
        <time>2024-09-18T08:24:11Z</time>
      </trkpt>
      <trkpt lat="42.50897" lon="2.3954">
        <ele>1441</ele>
        <time>2024-09-18T08:24:16Z</time>
      </trkpt>
      <trkpt lat="42.50896" lon="2.39543">
        <ele>1442</ele>
        <time>2024-09-18T08:24:20Z</time>
      </trkpt>
      <trkpt lat="42.50892" lon="2.39546">
        <ele>1441</ele>
        <time>2024-09-18T08:24:23Z</time>
      </trkpt>
      <trkpt lat="42.50891" lon="2.3955">
        <ele>1440</ele>
        <time>2024-09-18T08:24:28Z</time>
      </trkpt>
      <trkpt lat="42.5089" lon="2.39554">
        <ele>1440</ele>
        <time>2024-09-18T08:24:30Z</time>
      </trkpt>
      <trkpt lat="42.50889" lon="2.39559">
        <ele>1439</ele>
        <time>2024-09-18T08:24:33Z</time>
      </trkpt>
      <trkpt lat="42.50887" lon="2.39562">
        <ele>1439</ele>
        <time>2024-09-18T08:24:36Z</time>
      </trkpt>
      <trkpt lat="42.50884" lon="2.39565">
        <ele>1440</ele>
        <time>2024-09-18T08:24:41Z</time>
      </trkpt>
      <trkpt lat="42.50883" lon="2.39568">
        <ele>1440</ele>
        <time>2024-09-18T08:24:44Z</time>
      </trkpt>
      <trkpt lat="42.50881" lon="2.39567">
        <ele>1442</ele>
        <time>2024-09-18T08:24:50Z</time>
      </trkpt>
      <trkpt lat="42.5088" lon="2.39564">
        <ele>1445</ele>
        <time>2024-09-18T08:25:15Z</time>
      </trkpt>
      <trkpt lat="42.50879" lon="2.3956">
        <ele>1444</ele>
        <time>2024-09-18T08:25:20Z</time>
      </trkpt>
      <trkpt lat="42.50877" lon="2.39556">
        <ele>1446</ele>
        <time>2024-09-18T08:25:27Z</time>
      </trkpt>
      <trkpt lat="42.50874" lon="2.39555">
        <ele>1446</ele>
        <time>2024-09-18T08:25:31Z</time>
      </trkpt>
      <trkpt lat="42.50872" lon="2.39557">
        <ele>1448</ele>
        <time>2024-09-18T08:25:36Z</time>
      </trkpt>
      <trkpt lat="42.50868" lon="2.39557">
        <ele>1449</ele>
        <time>2024-09-18T08:25:43Z</time>
      </trkpt>
      <trkpt lat="42.50864" lon="2.39558">
        <ele>1450</ele>
        <time>2024-09-18T08:25:49Z</time>
      </trkpt>
      <trkpt lat="42.50861" lon="2.39559">
        <ele>1451</ele>
        <time>2024-09-18T08:25:55Z</time>
      </trkpt>
      <trkpt lat="42.50858" lon="2.39558">
        <ele>1452</ele>
        <time>2024-09-18T08:26:00Z</time>
      </trkpt>
      <trkpt lat="42.50855" lon="2.39557">
        <ele>1454</ele>
        <time>2024-09-18T08:26:10Z</time>
      </trkpt>
      <trkpt lat="42.50852" lon="2.39556">
        <ele>1454</ele>
        <time>2024-09-18T08:26:14Z</time>
      </trkpt>
      <trkpt lat="42.50849" lon="2.39556">
        <ele>1455</ele>
        <time>2024-09-18T08:26:18Z</time>
      </trkpt>
      <trkpt lat="42.50846" lon="2.39555">
        <ele>1455</ele>
        <time>2024-09-18T08:26:21Z</time>
      </trkpt>
      <trkpt lat="42.50843" lon="2.39556">
        <ele>1457</ele>
        <time>2024-09-18T08:26:23Z</time>
      </trkpt>
      <trkpt lat="42.50839" lon="2.39558">
        <ele>1458</ele>
        <time>2024-09-18T08:26:25Z</time>
      </trkpt>
      <trkpt lat="42.5084" lon="2.3956">
        <ele>1463</ele>
        <time>2024-09-18T08:26:49Z</time>
      </trkpt>
      <trkpt lat="42.50838" lon="2.3956">
        <ele>1462</ele>
        <time>2024-09-18T08:26:52Z</time>
      </trkpt>
      <trkpt lat="42.50836" lon="2.39561">
        <ele>1462</ele>
        <time>2024-09-18T08:26:54Z</time>
      </trkpt>
      <trkpt lat="42.50833" lon="2.39562">
        <ele>1462</ele>
        <time>2024-09-18T08:26:56Z</time>
      </trkpt>
      <trkpt lat="42.5083" lon="2.39562">
        <ele>1461</ele>
        <time>2024-09-18T08:27:00Z</time>
      </trkpt>
      <trkpt lat="42.50827" lon="2.39563">
        <ele>1460</ele>
        <time>2024-09-18T08:27:02Z</time>
      </trkpt>
      <trkpt lat="42.50824" lon="2.39565">
        <ele>1460</ele>
        <time>2024-09-18T08:27:05Z</time>
      </trkpt>
      <trkpt lat="42.50821" lon="2.39566">
        <ele>1460</ele>
        <time>2024-09-18T08:27:08Z</time>
      </trkpt>
      <trkpt lat="42.50817" lon="2.39568">
        <ele>1458</ele>
        <time>2024-09-18T08:27:12Z</time>
      </trkpt>
      <trkpt lat="42.50816" lon="2.39566">
        <ele>1458</ele>
        <time>2024-09-18T08:27:17Z</time>
      </trkpt>
      <trkpt lat="42.50815" lon="2.39565">
        <ele>1459</ele>
        <time>2024-09-18T08:27:28Z</time>
      </trkpt>
      <trkpt lat="42.50811" lon="2.39564">
        <ele>1458</ele>
        <time>2024-09-18T08:27:30Z</time>
      </trkpt>
      <trkpt lat="42.50808" lon="2.39563">
        <ele>1458</ele>
        <time>2024-09-18T08:27:32Z</time>
      </trkpt>
      <trkpt lat="42.50804" lon="2.39565">
        <ele>1459</ele>
        <time>2024-09-18T08:27:34Z</time>
      </trkpt>
      <trkpt lat="42.50801" lon="2.39566">
        <ele>1459</ele>
        <time>2024-09-18T08:27:36Z</time>
      </trkpt>
      <trkpt lat="42.50798" lon="2.39566">
        <ele>1459</ele>
        <time>2024-09-18T08:27:40Z</time>
      </trkpt>
      <trkpt lat="42.50795" lon="2.39565">
        <ele>1460</ele>
        <time>2024-09-18T08:27:42Z</time>
      </trkpt>
      <trkpt lat="42.50791" lon="2.39565">
        <ele>1461</ele>
        <time>2024-09-18T08:27:45Z</time>
      </trkpt>
      <trkpt lat="42.50787" lon="2.39565">
        <ele>1461</ele>
        <time>2024-09-18T08:27:48Z</time>
      </trkpt>
      <trkpt lat="42.50784" lon="2.39566">
        <ele>1460</ele>
        <time>2024-09-18T08:27:50Z</time>
      </trkpt>
      <trkpt lat="42.50781" lon="2.39568">
        <ele>1461</ele>
        <time>2024-09-18T08:27:52Z</time>
      </trkpt>
      <trkpt lat="42.50777" lon="2.39569">
        <ele>1461</ele>
        <time>2024-09-18T08:27:53Z</time>
      </trkpt>
      <trkpt lat="42.50774" lon="2.39569">
        <ele>1460</ele>
        <time>2024-09-18T08:27:57Z</time>
      </trkpt>
      <trkpt lat="42.5077" lon="2.39568">
        <ele>1461</ele>
        <time>2024-09-18T08:28:01Z</time>
      </trkpt>
      <trkpt lat="42.50767" lon="2.39568">
        <ele>1461</ele>
        <time>2024-09-18T08:28:05Z</time>
      </trkpt>
      <trkpt lat="42.50764" lon="2.39568">
        <ele>1461</ele>
        <time>2024-09-18T08:28:07Z</time>
      </trkpt>
      <trkpt lat="42.50761" lon="2.39568">
        <ele>1462</ele>
        <time>2024-09-18T08:28:10Z</time>
      </trkpt>
      <trkpt lat="42.50759" lon="2.39569">
        <ele>1462</ele>
        <time>2024-09-18T08:28:12Z</time>
      </trkpt>
      <trkpt lat="42.50754" lon="2.3957">
        <ele>1461</ele>
        <time>2024-09-18T08:28:15Z</time>
      </trkpt>
      <trkpt lat="42.50751" lon="2.39571">
        <ele>1462</ele>
        <time>2024-09-18T08:28:18Z</time>
      </trkpt>
      <trkpt lat="42.50748" lon="2.39571">
        <ele>1462</ele>
        <time>2024-09-18T08:28:20Z</time>
      </trkpt>
      <trkpt lat="42.50745" lon="2.39571">
        <ele>1462</ele>
        <time>2024-09-18T08:28:24Z</time>
      </trkpt>
      <trkpt lat="42.50742" lon="2.39571">
        <ele>1463</ele>
        <time>2024-09-18T08:28:26Z</time>
      </trkpt>
      <trkpt lat="42.50739" lon="2.39571">
        <ele>1463</ele>
        <time>2024-09-18T08:28:28Z</time>
      </trkpt>
      <trkpt lat="42.50735" lon="2.39573">
        <ele>1464</ele>
        <time>2024-09-18T08:28:30Z</time>
      </trkpt>
      <trkpt lat="42.50731" lon="2.39575">
        <ele>1466</ele>
        <time>2024-09-18T08:28:32Z</time>
      </trkpt>
      <trkpt lat="42.50728" lon="2.39577">
        <ele>1462</ele>
        <time>2024-09-18T08:28:34Z</time>
      </trkpt>
      <trkpt lat="42.50726" lon="2.3958">
        <ele>1462</ele>
        <time>2024-09-18T08:28:38Z</time>
      </trkpt>
      <trkpt lat="42.50723" lon="2.39584">
        <ele>1465</ele>
        <time>2024-09-18T08:28:41Z</time>
      </trkpt>
      <trkpt lat="42.50719" lon="2.39587">
        <ele>1464</ele>
        <time>2024-09-18T08:28:43Z</time>
      </trkpt>
      <trkpt lat="42.50716" lon="2.3959">
        <ele>1464</ele>
        <time>2024-09-18T08:28:46Z</time>
      </trkpt>
      <trkpt lat="42.50713" lon="2.39593">
        <ele>1464</ele>
        <time>2024-09-18T08:28:49Z</time>
      </trkpt>
      <trkpt lat="42.50712" lon="2.39597">
        <ele>1465</ele>
        <time>2024-09-18T08:28:51Z</time>
      </trkpt>
      <trkpt lat="42.5071" lon="2.396">
        <ele>1465</ele>
        <time>2024-09-18T08:28:53Z</time>
      </trkpt>
      <trkpt lat="42.50706" lon="2.39602">
        <ele>1465</ele>
        <time>2024-09-18T08:28:55Z</time>
      </trkpt>
      <trkpt lat="42.50703" lon="2.39603">
        <ele>1465</ele>
        <time>2024-09-18T08:29:00Z</time>
      </trkpt>
      <trkpt lat="42.50699" lon="2.39602">
        <ele>1463</ele>
        <time>2024-09-18T08:29:02Z</time>
      </trkpt>
      <trkpt lat="42.50697" lon="2.39599">
        <ele>1463</ele>
        <time>2024-09-18T08:29:05Z</time>
      </trkpt>
      <trkpt lat="42.50693" lon="2.39598">
        <ele>1463</ele>
        <time>2024-09-18T08:29:07Z</time>
      </trkpt>
      <trkpt lat="42.5069" lon="2.39598">
        <ele>1463</ele>
        <time>2024-09-18T08:29:11Z</time>
      </trkpt>
      <trkpt lat="42.50687" lon="2.39595">
        <ele>1465</ele>
        <time>2024-09-18T08:29:14Z</time>
      </trkpt>
      <trkpt lat="42.50684" lon="2.39592">
        <ele>1464</ele>
        <time>2024-09-18T08:29:17Z</time>
      </trkpt>
      <trkpt lat="42.50681" lon="2.39588">
        <ele>1465</ele>
        <time>2024-09-18T08:29:19Z</time>
      </trkpt>
      <trkpt lat="42.50678" lon="2.39588">
        <ele>1464</ele>
        <time>2024-09-18T08:29:21Z</time>
      </trkpt>
      <trkpt lat="42.50674" lon="2.39585">
        <ele>1465</ele>
        <time>2024-09-18T08:29:26Z</time>
      </trkpt>
      <trkpt lat="42.50671" lon="2.39583">
        <ele>1465</ele>
        <time>2024-09-18T08:29:28Z</time>
      </trkpt>
      <trkpt lat="42.50669" lon="2.3958">
        <ele>1465</ele>
        <time>2024-09-18T08:29:31Z</time>
      </trkpt>
      <trkpt lat="42.50666" lon="2.39579">
        <ele>1466</ele>
        <time>2024-09-18T08:29:34Z</time>
      </trkpt>
      <trkpt lat="42.50663" lon="2.39576">
        <ele>1466</ele>
        <time>2024-09-18T08:29:37Z</time>
      </trkpt>
      <trkpt lat="42.50664" lon="2.39576">
        <ele>1467</ele>
        <time>2024-09-18T08:29:39Z</time>
      </trkpt>
      <trkpt lat="42.50664" lon="2.39573">
        <ele>1466</ele>
        <time>2024-09-18T08:29:41Z</time>
      </trkpt>
      <trkpt lat="42.50662" lon="2.39572">
        <ele>1467</ele>
        <time>2024-09-18T08:29:43Z</time>
      </trkpt>
      <trkpt lat="42.50661" lon="2.39574">
        <ele>1466</ele>
        <time>2024-09-18T08:29:44Z</time>
      </trkpt>
      <trkpt lat="42.50657" lon="2.39575">
        <ele>1466</ele>
        <time>2024-09-18T08:29:46Z</time>
      </trkpt>
      <trkpt lat="42.50654" lon="2.39573">
        <ele>1466</ele>
        <time>2024-09-18T08:29:48Z</time>
      </trkpt>
      <trkpt lat="42.50651" lon="2.39573">
        <ele>1466</ele>
        <time>2024-09-18T08:29:50Z</time>
      </trkpt>
      <trkpt lat="42.50649" lon="2.39571">
        <ele>1465</ele>
        <time>2024-09-18T08:29:52Z</time>
      </trkpt>
      <trkpt lat="42.50647" lon="2.39567">
        <ele>1468</ele>
        <time>2024-09-18T08:29:57Z</time>
      </trkpt>
      <trkpt lat="42.50649" lon="2.39566">
        <ele>1469</ele>
        <time>2024-09-18T08:30:01Z</time>
      </trkpt>
      <trkpt lat="42.50647" lon="2.39566">
        <ele>1467</ele>
        <time>2024-09-18T08:30:10Z</time>
      </trkpt>
      <trkpt lat="42.50645" lon="2.39565">
        <ele>1466</ele>
        <time>2024-09-18T08:30:13Z</time>
      </trkpt>
      <trkpt lat="42.50642" lon="2.39563">
        <ele>1467</ele>
        <time>2024-09-18T08:30:15Z</time>
      </trkpt>
      <trkpt lat="42.50638" lon="2.39559">
        <ele>1468</ele>
        <time>2024-09-18T08:30:18Z</time>
      </trkpt>
      <trkpt lat="42.50635" lon="2.39559">
        <ele>1466</ele>
        <time>2024-09-18T08:30:21Z</time>
      </trkpt>
      <trkpt lat="42.50633" lon="2.39562">
        <ele>1467</ele>
        <time>2024-09-18T08:30:23Z</time>
      </trkpt>
      <trkpt lat="42.50629" lon="2.39563">
        <ele>1468</ele>
        <time>2024-09-18T08:30:25Z</time>
      </trkpt>
      <trkpt lat="42.50626" lon="2.39564">
        <ele>1467</ele>
        <time>2024-09-18T08:30:27Z</time>
      </trkpt>
      <trkpt lat="42.50623" lon="2.39566">
        <ele>1467</ele>
        <time>2024-09-18T08:30:30Z</time>
      </trkpt>
      <trkpt lat="42.5062" lon="2.39568">
        <ele>1466</ele>
        <time>2024-09-18T08:30:33Z</time>
      </trkpt>
      <trkpt lat="42.50616" lon="2.39567">
        <ele>1466</ele>
        <time>2024-09-18T08:30:35Z</time>
      </trkpt>
      <trkpt lat="42.50613" lon="2.39565">
        <ele>1465</ele>
        <time>2024-09-18T08:30:39Z</time>
      </trkpt>
      <trkpt lat="42.50614" lon="2.39566">
        <ele>1464</ele>
        <time>2024-09-18T08:30:46Z</time>
      </trkpt>
      <trkpt lat="42.50613" lon="2.39563">
        <ele>1465</ele>
        <time>2024-09-18T08:30:49Z</time>
      </trkpt>
      <trkpt lat="42.50611" lon="2.39564">
        <ele>1466</ele>
        <time>2024-09-18T08:30:51Z</time>
      </trkpt>
      <trkpt lat="42.5061" lon="2.39561">
        <ele>1466</ele>
        <time>2024-09-18T08:30:53Z</time>
      </trkpt>
      <trkpt lat="42.50608" lon="2.39561">
        <ele>1466</ele>
        <time>2024-09-18T08:30:55Z</time>
      </trkpt>
      <trkpt lat="42.50605" lon="2.39559">
        <ele>1465</ele>
        <time>2024-09-18T08:31:00Z</time>
      </trkpt>
      <trkpt lat="42.50602" lon="2.39557">
        <ele>1464</ele>
        <time>2024-09-18T08:31:06Z</time>
      </trkpt>
      <trkpt lat="42.50599" lon="2.39556">
        <ele>1463</ele>
        <time>2024-09-18T08:31:10Z</time>
      </trkpt>
      <trkpt lat="42.50597" lon="2.3956">
        <ele>1463</ele>
        <time>2024-09-18T08:31:14Z</time>
      </trkpt>
      <trkpt lat="42.50594" lon="2.3956">
        <ele>1463</ele>
        <time>2024-09-18T08:31:16Z</time>
      </trkpt>
      <trkpt lat="42.50591" lon="2.39559">
        <ele>1464</ele>
        <time>2024-09-18T08:31:18Z</time>
      </trkpt>
      <trkpt lat="42.50588" lon="2.39556">
        <ele>1464</ele>
        <time>2024-09-18T08:31:20Z</time>
      </trkpt>
      <trkpt lat="42.50585" lon="2.39557">
        <ele>1466</ele>
        <time>2024-09-18T08:31:23Z</time>
      </trkpt>
      <trkpt lat="42.50584" lon="2.39554">
        <ele>1466</ele>
        <time>2024-09-18T08:31:25Z</time>
      </trkpt>
      <trkpt lat="42.50582" lon="2.39553">
        <ele>1466</ele>
        <time>2024-09-18T08:31:31Z</time>
      </trkpt>
      <trkpt lat="42.5058" lon="2.39551">
        <ele>1466</ele>
        <time>2024-09-18T08:31:35Z</time>
      </trkpt>
      <trkpt lat="42.50578" lon="2.39553">
        <ele>1466</ele>
        <time>2024-09-18T08:31:40Z</time>
      </trkpt>
      <trkpt lat="42.50578" lon="2.3956">
        <ele>1466</ele>
        <time>2024-09-18T08:31:42Z</time>
      </trkpt>
      <trkpt lat="42.5058" lon="2.39565">
        <ele>1467</ele>
        <time>2024-09-18T08:31:45Z</time>
      </trkpt>
      <trkpt lat="42.50582" lon="2.39569">
        <ele>1468</ele>
        <time>2024-09-18T08:31:52Z</time>
      </trkpt>
      <trkpt lat="42.50583" lon="2.39574">
        <ele>1469</ele>
        <time>2024-09-18T08:31:55Z</time>
      </trkpt>
      <trkpt lat="42.50585" lon="2.3958">
        <ele>1470</ele>
        <time>2024-09-18T08:31:57Z</time>
      </trkpt>
      <trkpt lat="42.50586" lon="2.39584">
        <ele>1469</ele>
        <time>2024-09-18T08:31:59Z</time>
      </trkpt>
      <trkpt lat="42.50587" lon="2.39588">
        <ele>1470</ele>
        <time>2024-09-18T08:32:02Z</time>
      </trkpt>
      <trkpt lat="42.50588" lon="2.39592">
        <ele>1471</ele>
        <time>2024-09-18T08:32:04Z</time>
      </trkpt>
      <trkpt lat="42.5059" lon="2.39595">
        <ele>1472</ele>
        <time>2024-09-18T08:32:08Z</time>
      </trkpt>
      <trkpt lat="42.50592" lon="2.39599">
        <ele>1472</ele>
        <time>2024-09-18T08:32:11Z</time>
      </trkpt>
      <trkpt lat="42.50595" lon="2.39602">
        <ele>1473</ele>
        <time>2024-09-18T08:32:14Z</time>
      </trkpt>
      <trkpt lat="42.50596" lon="2.39606">
        <ele>1472</ele>
        <time>2024-09-18T08:32:18Z</time>
      </trkpt>
      <trkpt lat="42.50598" lon="2.3961">
        <ele>1472</ele>
        <time>2024-09-18T08:32:20Z</time>
      </trkpt>
      <trkpt lat="42.50599" lon="2.39614">
        <ele>1472</ele>
        <time>2024-09-18T08:32:24Z</time>
      </trkpt>
      <trkpt lat="42.50601" lon="2.39617">
        <ele>1472</ele>
        <time>2024-09-18T08:32:29Z</time>
      </trkpt>
      <trkpt lat="42.50603" lon="2.39621">
        <ele>1474</ele>
        <time>2024-09-18T08:32:33Z</time>
      </trkpt>
      <trkpt lat="42.50603" lon="2.39625">
        <ele>1475</ele>
        <time>2024-09-18T08:32:37Z</time>
      </trkpt>
      <trkpt lat="42.50602" lon="2.39629">
        <ele>1477</ele>
        <time>2024-09-18T08:32:41Z</time>
      </trkpt>
      <trkpt lat="42.50602" lon="2.39633">
        <ele>1474</ele>
        <time>2024-09-18T08:32:45Z</time>
      </trkpt>
      <trkpt lat="42.50602" lon="2.39638">
        <ele>1473</ele>
        <time>2024-09-18T08:32:48Z</time>
      </trkpt>
      <trkpt lat="42.50603" lon="2.39643">
        <ele>1474</ele>
        <time>2024-09-18T08:32:53Z</time>
      </trkpt>
      <trkpt lat="42.50603" lon="2.39648">
        <ele>1476</ele>
        <time>2024-09-18T08:32:55Z</time>
      </trkpt>
      <trkpt lat="42.50603" lon="2.39652">
        <ele>1478</ele>
        <time>2024-09-18T08:33:00Z</time>
      </trkpt>
      <trkpt lat="42.50604" lon="2.39656">
        <ele>1479</ele>
        <time>2024-09-18T08:33:04Z</time>
      </trkpt>
      <trkpt lat="42.50605" lon="2.39659">
        <ele>1479</ele>
        <time>2024-09-18T08:33:09Z</time>
      </trkpt>
      <trkpt lat="42.50605" lon="2.39663">
        <ele>1478</ele>
        <time>2024-09-18T08:33:16Z</time>
      </trkpt>
      <trkpt lat="42.50604" lon="2.39663">
        <ele>1478</ele>
        <time>2024-09-18T08:33:27Z</time>
      </trkpt>
      <trkpt lat="42.50605" lon="2.39661">
        <ele>1478</ele>
        <time>2024-09-18T08:33:31Z</time>
      </trkpt>
      <trkpt lat="42.50603" lon="2.39661">
        <ele>1478</ele>
        <time>2024-09-18T08:33:34Z</time>
      </trkpt>
      <trkpt lat="42.50601" lon="2.39658">
        <ele>1477</ele>
        <time>2024-09-18T08:33:40Z</time>
      </trkpt>
      <trkpt lat="42.50599" lon="2.39655">
        <ele>1478</ele>
        <time>2024-09-18T08:33:43Z</time>
      </trkpt>
      <trkpt lat="42.50598" lon="2.39651">
        <ele>1479</ele>
        <time>2024-09-18T08:33:48Z</time>
      </trkpt>
      <trkpt lat="42.50597" lon="2.39648">
        <ele>1481</ele>
        <time>2024-09-18T08:33:53Z</time>
      </trkpt>
      <trkpt lat="42.50597" lon="2.39644">
        <ele>1483</ele>
        <time>2024-09-18T08:33:57Z</time>
      </trkpt>
      <trkpt lat="42.50595" lon="2.39644">
        <ele>1483</ele>
        <time>2024-09-18T08:34:03Z</time>
      </trkpt>
      <trkpt lat="42.50593" lon="2.39645">
        <ele>1481</ele>
        <time>2024-09-18T08:34:07Z</time>
      </trkpt>
      <trkpt lat="42.50591" lon="2.39648">
        <ele>1482</ele>
        <time>2024-09-18T08:34:11Z</time>
      </trkpt>
      <trkpt lat="42.50589" lon="2.3965">
        <ele>1481</ele>
        <time>2024-09-18T08:34:15Z</time>
      </trkpt>
      <trkpt lat="42.50589" lon="2.39654">
        <ele>1481</ele>
        <time>2024-09-18T08:34:20Z</time>
      </trkpt>
      <trkpt lat="42.50588" lon="2.39658">
        <ele>1483</ele>
        <time>2024-09-18T08:34:25Z</time>
      </trkpt>
      <trkpt lat="42.50588" lon="2.39663">
        <ele>1484</ele>
        <time>2024-09-18T08:34:30Z</time>
      </trkpt>
      <trkpt lat="42.50588" lon="2.39666">
        <ele>1486</ele>
        <time>2024-09-18T08:34:34Z</time>
      </trkpt>
      <trkpt lat="42.50589" lon="2.3967">
        <ele>1486</ele>
        <time>2024-09-18T08:34:37Z</time>
      </trkpt>
      <trkpt lat="42.50588" lon="2.39674">
        <ele>1487</ele>
        <time>2024-09-18T08:34:43Z</time>
      </trkpt>
      <trkpt lat="42.50588" lon="2.39672">
        <ele>1488</ele>
        <time>2024-09-18T08:34:51Z</time>
      </trkpt>
      <trkpt lat="42.50587" lon="2.39669">
        <ele>1488</ele>
        <time>2024-09-18T08:34:57Z</time>
      </trkpt>
      <trkpt lat="42.50585" lon="2.39665">
        <ele>1490</ele>
        <time>2024-09-18T08:35:07Z</time>
      </trkpt>
      <trkpt lat="42.50584" lon="2.39662">
        <ele>1490</ele>
        <time>2024-09-18T08:35:11Z</time>
      </trkpt>
      <trkpt lat="42.50583" lon="2.39658">
        <ele>1493</ele>
        <time>2024-09-18T08:35:17Z</time>
      </trkpt>
      <trkpt lat="42.50581" lon="2.39654">
        <ele>1494</ele>
        <time>2024-09-18T08:35:23Z</time>
      </trkpt>
      <trkpt lat="42.50579" lon="2.39651">
        <ele>1496</ele>
        <time>2024-09-18T08:35:32Z</time>
      </trkpt>
      <trkpt lat="42.50576" lon="2.39651">
        <ele>1496</ele>
        <time>2024-09-18T08:35:37Z</time>
      </trkpt>
      <trkpt lat="42.50575" lon="2.39653">
        <ele>1496</ele>
        <time>2024-09-18T08:35:43Z</time>
      </trkpt>
      <trkpt lat="42.50573" lon="2.39656">
        <ele>1496</ele>
        <time>2024-09-18T08:35:47Z</time>
      </trkpt>
      <trkpt lat="42.50572" lon="2.3966">
        <ele>1496</ele>
        <time>2024-09-18T08:35:51Z</time>
      </trkpt>
      <trkpt lat="42.50571" lon="2.39663">
        <ele>1495</ele>
        <time>2024-09-18T08:35:56Z</time>
      </trkpt>
      <trkpt lat="42.50569" lon="2.39662">
        <ele>1496</ele>
        <time>2024-09-18T08:36:03Z</time>
      </trkpt>
      <trkpt lat="42.50568" lon="2.39659">
        <ele>1497</ele>
        <time>2024-09-18T08:36:07Z</time>
      </trkpt>
      <trkpt lat="42.50567" lon="2.39656">
        <ele>1498</ele>
        <time>2024-09-18T08:36:16Z</time>
      </trkpt>
      <trkpt lat="42.50567" lon="2.39653">
        <ele>1500</ele>
        <time>2024-09-18T08:36:24Z</time>
      </trkpt>
      <trkpt lat="42.50565" lon="2.39652">
        <ele>1501</ele>
        <time>2024-09-18T08:36:28Z</time>
      </trkpt>
      <trkpt lat="42.50563" lon="2.39653">
        <ele>1500</ele>
        <time>2024-09-18T08:36:34Z</time>
      </trkpt>
      <trkpt lat="42.5056" lon="2.39655">
        <ele>1500</ele>
        <time>2024-09-18T08:36:39Z</time>
      </trkpt>
      <trkpt lat="42.50558" lon="2.39654">
        <ele>1502</ele>
        <time>2024-09-18T08:36:51Z</time>
      </trkpt>
      <trkpt lat="42.50558" lon="2.39651">
        <ele>1504</ele>
        <time>2024-09-18T08:36:58Z</time>
      </trkpt>
      <trkpt lat="42.50557" lon="2.39647">
        <ele>1506</ele>
        <time>2024-09-18T08:37:05Z</time>
      </trkpt>
      <trkpt lat="42.50556" lon="2.39643">
        <ele>1506</ele>
        <time>2024-09-18T08:37:09Z</time>
      </trkpt>
      <trkpt lat="42.50556" lon="2.39639">
        <ele>1506</ele>
        <time>2024-09-18T08:37:13Z</time>
      </trkpt>
      <trkpt lat="42.50554" lon="2.39635">
        <ele>1507</ele>
        <time>2024-09-18T08:37:18Z</time>
      </trkpt>
      <trkpt lat="42.50552" lon="2.39633">
        <ele>1509</ele>
        <time>2024-09-18T08:37:22Z</time>
      </trkpt>
      <trkpt lat="42.5055" lon="2.3963">
        <ele>1510</ele>
        <time>2024-09-18T08:37:26Z</time>
      </trkpt>
      <trkpt lat="42.50548" lon="2.39626">
        <ele>1511</ele>
        <time>2024-09-18T08:37:32Z</time>
      </trkpt>
      <trkpt lat="42.50546" lon="2.39623">
        <ele>1511</ele>
        <time>2024-09-18T08:37:38Z</time>
      </trkpt>
      <trkpt lat="42.50543" lon="2.3962">
        <ele>1511</ele>
        <time>2024-09-18T08:37:46Z</time>
      </trkpt>
      <trkpt lat="42.50541" lon="2.39616">
        <ele>1511</ele>
        <time>2024-09-18T08:37:51Z</time>
      </trkpt>
      <trkpt lat="42.50538" lon="2.39615">
        <ele>1511</ele>
        <time>2024-09-18T08:37:54Z</time>
      </trkpt>
      <trkpt lat="42.50536" lon="2.39612">
        <ele>1512</ele>
        <time>2024-09-18T08:37:58Z</time>
      </trkpt>
      <trkpt lat="42.50533" lon="2.39611">
        <ele>1511</ele>
        <time>2024-09-18T08:38:01Z</time>
      </trkpt>
      <trkpt lat="42.50529" lon="2.39609">
        <ele>1512</ele>
        <time>2024-09-18T08:38:05Z</time>
      </trkpt>
      <trkpt lat="42.50526" lon="2.39609">
        <ele>1512</ele>
        <time>2024-09-18T08:38:07Z</time>
      </trkpt>
      <trkpt lat="42.50523" lon="2.39609">
        <ele>1513</ele>
        <time>2024-09-18T08:38:11Z</time>
      </trkpt>
      <trkpt lat="42.5052" lon="2.3961">
        <ele>1512</ele>
        <time>2024-09-18T08:38:13Z</time>
      </trkpt>
      <trkpt lat="42.50517" lon="2.39611">
        <ele>1511</ele>
        <time>2024-09-18T08:38:18Z</time>
      </trkpt>
      <trkpt lat="42.50515" lon="2.39613">
        <ele>1510</ele>
        <time>2024-09-18T08:38:26Z</time>
      </trkpt>
      <trkpt lat="42.50512" lon="2.39615">
        <ele>1510</ele>
        <time>2024-09-18T08:38:28Z</time>
      </trkpt>
      <trkpt lat="42.50509" lon="2.39616">
        <ele>1510</ele>
        <time>2024-09-18T08:38:32Z</time>
      </trkpt>
      <trkpt lat="42.50506" lon="2.39618">
        <ele>1512</ele>
        <time>2024-09-18T08:38:41Z</time>
      </trkpt>
      <trkpt lat="42.50503" lon="2.39619">
        <ele>1513</ele>
        <time>2024-09-18T08:38:43Z</time>
      </trkpt>
      <trkpt lat="42.505" lon="2.3962">
        <ele>1512</ele>
        <time>2024-09-18T08:38:45Z</time>
      </trkpt>
      <trkpt lat="42.50497" lon="2.3962">
        <ele>1512</ele>
        <time>2024-09-18T08:38:48Z</time>
      </trkpt>
      <trkpt lat="42.50494" lon="2.3962">
        <ele>1511</ele>
        <time>2024-09-18T08:38:51Z</time>
      </trkpt>
      <trkpt lat="42.50491" lon="2.39619">
        <ele>1513</ele>
        <time>2024-09-18T08:38:54Z</time>
      </trkpt>
      <trkpt lat="42.50488" lon="2.39619">
        <ele>1512</ele>
        <time>2024-09-18T08:38:57Z</time>
      </trkpt>
      <trkpt lat="42.50485" lon="2.3962">
        <ele>1513</ele>
        <time>2024-09-18T08:39:01Z</time>
      </trkpt>
      <trkpt lat="42.50481" lon="2.39621">
        <ele>1512</ele>
        <time>2024-09-18T08:39:05Z</time>
      </trkpt>
      <trkpt lat="42.50478" lon="2.39622">
        <ele>1513</ele>
        <time>2024-09-18T08:39:08Z</time>
      </trkpt>
      <trkpt lat="42.50474" lon="2.39623">
        <ele>1515</ele>
        <time>2024-09-18T08:39:13Z</time>
      </trkpt>
      <trkpt lat="42.50471" lon="2.39624">
        <ele>1517</ele>
        <time>2024-09-18T08:39:16Z</time>
      </trkpt>
      <trkpt lat="42.50469" lon="2.39627">
        <ele>1517</ele>
        <time>2024-09-18T08:39:19Z</time>
      </trkpt>
      <trkpt lat="42.50466" lon="2.39631">
        <ele>1517</ele>
        <time>2024-09-18T08:39:22Z</time>
      </trkpt>
      <trkpt lat="42.50463" lon="2.39633">
        <ele>1516</ele>
        <time>2024-09-18T08:39:42Z</time>
      </trkpt>
      <trkpt lat="42.50459" lon="2.39633">
        <ele>1516</ele>
        <time>2024-09-18T08:39:43Z</time>
      </trkpt>
      <trkpt lat="42.50456" lon="2.39634">
        <ele>1516</ele>
        <time>2024-09-18T08:39:47Z</time>
      </trkpt>
      <trkpt lat="42.50454" lon="2.39637">
        <ele>1516</ele>
        <time>2024-09-18T08:39:48Z</time>
      </trkpt>
      <trkpt lat="42.50451" lon="2.39638">
        <ele>1516</ele>
        <time>2024-09-18T08:39:50Z</time>
      </trkpt>
      <trkpt lat="42.50448" lon="2.39639">
        <ele>1516</ele>
        <time>2024-09-18T08:39:53Z</time>
      </trkpt>
      <trkpt lat="42.50445" lon="2.39641">
        <ele>1517</ele>
        <time>2024-09-18T08:39:58Z</time>
      </trkpt>
      <trkpt lat="42.50442" lon="2.39644">
        <ele>1519</ele>
        <time>2024-09-18T08:40:02Z</time>
      </trkpt>
      <trkpt lat="42.50439" lon="2.39647">
        <ele>1518</ele>
        <time>2024-09-18T08:40:05Z</time>
      </trkpt>
      <trkpt lat="42.50437" lon="2.3965">
        <ele>1518</ele>
        <time>2024-09-18T08:40:07Z</time>
      </trkpt>
      <trkpt lat="42.50433" lon="2.39651">
        <ele>1519</ele>
        <time>2024-09-18T08:40:09Z</time>
      </trkpt>
      <trkpt lat="42.50431" lon="2.39653">
        <ele>1519</ele>
        <time>2024-09-18T08:40:12Z</time>
      </trkpt>
      <trkpt lat="42.50427" lon="2.39654">
        <ele>1518</ele>
        <time>2024-09-18T08:40:15Z</time>
      </trkpt>
      <trkpt lat="42.50424" lon="2.39656">
        <ele>1518</ele>
        <time>2024-09-18T08:40:18Z</time>
      </trkpt>
      <trkpt lat="42.50423" lon="2.39659">
        <ele>1519</ele>
        <time>2024-09-18T08:40:22Z</time>
      </trkpt>
      <trkpt lat="42.5042" lon="2.39663">
        <ele>1519</ele>
        <time>2024-09-18T08:40:24Z</time>
      </trkpt>
      <trkpt lat="42.50417" lon="2.39666">
        <ele>1520</ele>
        <time>2024-09-18T08:40:27Z</time>
      </trkpt>
      <trkpt lat="42.50414" lon="2.3967">
        <ele>1521</ele>
        <time>2024-09-18T08:40:30Z</time>
      </trkpt>
      <trkpt lat="42.50411" lon="2.39672">
        <ele>1520</ele>
        <time>2024-09-18T08:40:32Z</time>
      </trkpt>
      <trkpt lat="42.50408" lon="2.39675">
        <ele>1521</ele>
        <time>2024-09-18T08:40:35Z</time>
      </trkpt>
      <trkpt lat="42.50406" lon="2.39677">
        <ele>1520</ele>
        <time>2024-09-18T08:40:39Z</time>
      </trkpt>
      <trkpt lat="42.50403" lon="2.39678">
        <ele>1522</ele>
        <time>2024-09-18T08:40:43Z</time>
      </trkpt>
      <trkpt lat="42.504" lon="2.39677">
        <ele>1522</ele>
        <time>2024-09-18T08:40:46Z</time>
      </trkpt>
      <trkpt lat="42.50398" lon="2.39678">
        <ele>1524</ele>
        <time>2024-09-18T08:40:49Z</time>
      </trkpt>
      <trkpt lat="42.50396" lon="2.3968">
        <ele>1523</ele>
        <time>2024-09-18T08:40:51Z</time>
      </trkpt>
      <trkpt lat="42.50393" lon="2.39681">
        <ele>1524</ele>
        <time>2024-09-18T08:40:53Z</time>
      </trkpt>
      <trkpt lat="42.5039" lon="2.39682">
        <ele>1525</ele>
        <time>2024-09-18T08:40:57Z</time>
      </trkpt>
      <trkpt lat="42.50387" lon="2.39684">
        <ele>1525</ele>
        <time>2024-09-18T08:40:58Z</time>
      </trkpt>
      <trkpt lat="42.50384" lon="2.39684">
        <ele>1524</ele>
        <time>2024-09-18T08:41:06Z</time>
      </trkpt>
      <trkpt lat="42.50381" lon="2.39685">
        <ele>1525</ele>
        <time>2024-09-18T08:41:11Z</time>
      </trkpt>
      <trkpt lat="42.50377" lon="2.39686">
        <ele>1524</ele>
        <time>2024-09-18T08:41:13Z</time>
      </trkpt>
      <trkpt lat="42.50375" lon="2.39688">
        <ele>1525</ele>
        <time>2024-09-18T08:41:17Z</time>
      </trkpt>
      <trkpt lat="42.50372" lon="2.39691">
        <ele>1525</ele>
        <time>2024-09-18T08:41:19Z</time>
      </trkpt>
      <trkpt lat="42.5037" lon="2.39693">
        <ele>1524</ele>
        <time>2024-09-18T08:41:22Z</time>
      </trkpt>
      <trkpt lat="42.50367" lon="2.39695">
        <ele>1524</ele>
        <time>2024-09-18T08:41:25Z</time>
      </trkpt>
      <trkpt lat="42.50365" lon="2.39698">
        <ele>1523</ele>
        <time>2024-09-18T08:41:29Z</time>
      </trkpt>
      <trkpt lat="42.50362" lon="2.39701">
        <ele>1524</ele>
        <time>2024-09-18T08:41:34Z</time>
      </trkpt>
      <trkpt lat="42.50359" lon="2.39703">
        <ele>1523</ele>
        <time>2024-09-18T08:41:37Z</time>
      </trkpt>
      <trkpt lat="42.50356" lon="2.39703">
        <ele>1523</ele>
        <time>2024-09-18T08:41:39Z</time>
      </trkpt>
      <trkpt lat="42.50353" lon="2.39705">
        <ele>1523</ele>
        <time>2024-09-18T08:41:41Z</time>
      </trkpt>
      <trkpt lat="42.5035" lon="2.39705">
        <ele>1523</ele>
        <time>2024-09-18T08:41:43Z</time>
      </trkpt>
      <trkpt lat="42.50348" lon="2.39707">
        <ele>1522</ele>
        <time>2024-09-18T08:41:47Z</time>
      </trkpt>
      <trkpt lat="42.50346" lon="2.3971">
        <ele>1524</ele>
        <time>2024-09-18T08:41:50Z</time>
      </trkpt>
      <trkpt lat="42.50343" lon="2.39711">
        <ele>1525</ele>
        <time>2024-09-18T08:41:54Z</time>
      </trkpt>
      <trkpt lat="42.5034" lon="2.39713">
        <ele>1525</ele>
        <time>2024-09-18T08:41:58Z</time>
      </trkpt>
      <trkpt lat="42.50338" lon="2.39716">
        <ele>1526</ele>
        <time>2024-09-18T08:42:01Z</time>
      </trkpt>
      <trkpt lat="42.50336" lon="2.39719">
        <ele>1525</ele>
        <time>2024-09-18T08:42:03Z</time>
      </trkpt>
      <trkpt lat="42.50334" lon="2.39722">
        <ele>1526</ele>
        <time>2024-09-18T08:42:07Z</time>
      </trkpt>
      <trkpt lat="42.50331" lon="2.39723">
        <ele>1527</ele>
        <time>2024-09-18T08:42:09Z</time>
      </trkpt>
      <trkpt lat="42.50329" lon="2.39724">
        <ele>1527</ele>
        <time>2024-09-18T08:42:11Z</time>
      </trkpt>
      <trkpt lat="42.50327" lon="2.39728">
        <ele>1528</ele>
        <time>2024-09-18T08:42:15Z</time>
      </trkpt>
      <trkpt lat="42.50324" lon="2.3973">
        <ele>1529</ele>
        <time>2024-09-18T08:42:16Z</time>
      </trkpt>
      <trkpt lat="42.50323" lon="2.39735">
        <ele>1529</ele>
        <time>2024-09-18T08:42:19Z</time>
      </trkpt>
      <trkpt lat="42.50322" lon="2.39739">
        <ele>1528</ele>
        <time>2024-09-18T08:42:24Z</time>
      </trkpt>
      <trkpt lat="42.5032" lon="2.39743">
        <ele>1528</ele>
        <time>2024-09-18T08:42:26Z</time>
      </trkpt>
      <trkpt lat="42.50318" lon="2.39746">
        <ele>1530</ele>
        <time>2024-09-18T08:42:29Z</time>
      </trkpt>
      <trkpt lat="42.50314" lon="2.39748">
        <ele>1531</ele>
        <time>2024-09-18T08:42:33Z</time>
      </trkpt>
      <trkpt lat="42.5031" lon="2.39749">
        <ele>1530</ele>
        <time>2024-09-18T08:42:39Z</time>
      </trkpt>
      <trkpt lat="42.50307" lon="2.39749">
        <ele>1532</ele>
        <time>2024-09-18T08:42:52Z</time>
      </trkpt>
      <trkpt lat="42.50304" lon="2.39748">
        <ele>1532</ele>
        <time>2024-09-18T08:42:54Z</time>
      </trkpt>
      <trkpt lat="42.50301" lon="2.39747">
        <ele>1532</ele>
        <time>2024-09-18T08:42:55Z</time>
      </trkpt>
      <trkpt lat="42.50298" lon="2.39748">
        <ele>1531</ele>
        <time>2024-09-18T08:42:59Z</time>
      </trkpt>
      <trkpt lat="42.50294" lon="2.3975">
        <ele>1532</ele>
        <time>2024-09-18T08:43:02Z</time>
      </trkpt>
      <trkpt lat="42.50291" lon="2.39752">
        <ele>1533</ele>
        <time>2024-09-18T08:43:07Z</time>
      </trkpt>
      <trkpt lat="42.5029" lon="2.39755">
        <ele>1536</ele>
        <time>2024-09-18T08:43:15Z</time>
      </trkpt>
      <trkpt lat="42.50288" lon="2.39758">
        <ele>1535</ele>
        <time>2024-09-18T08:43:17Z</time>
      </trkpt>
      <trkpt lat="42.50285" lon="2.39762">
        <ele>1535</ele>
        <time>2024-09-18T08:43:20Z</time>
      </trkpt>
      <trkpt lat="42.50283" lon="2.39765">
        <ele>1535</ele>
        <time>2024-09-18T08:43:23Z</time>
      </trkpt>
      <trkpt lat="42.50284" lon="2.39768">
        <ele>1536</ele>
        <time>2024-09-18T08:43:27Z</time>
      </trkpt>
      <trkpt lat="42.50286" lon="2.3977">
        <ele>1537</ele>
        <time>2024-09-18T08:43:31Z</time>
      </trkpt>
      <trkpt lat="42.50288" lon="2.39773">
        <ele>1539</ele>
        <time>2024-09-18T08:43:36Z</time>
      </trkpt>
      <trkpt lat="42.50291" lon="2.39775">
        <ele>1540</ele>
        <time>2024-09-18T08:43:38Z</time>
      </trkpt>
      <trkpt lat="42.50294" lon="2.39777">
        <ele>1540</ele>
        <time>2024-09-18T08:43:41Z</time>
      </trkpt>
      <trkpt lat="42.50297" lon="2.39777">
        <ele>1539</ele>
        <time>2024-09-18T08:43:45Z</time>
      </trkpt>
      <trkpt lat="42.50299" lon="2.3978">
        <ele>1539</ele>
        <time>2024-09-18T08:43:47Z</time>
      </trkpt>
      <trkpt lat="42.50301" lon="2.39784">
        <ele>1539</ele>
        <time>2024-09-18T08:43:53Z</time>
      </trkpt>
      <trkpt lat="42.50303" lon="2.39787">
        <ele>1540</ele>
        <time>2024-09-18T08:43:59Z</time>
      </trkpt>
      <trkpt lat="42.50307" lon="2.39789">
        <ele>1542</ele>
        <time>2024-09-18T08:44:03Z</time>
      </trkpt>
      <trkpt lat="42.5031" lon="2.39789">
        <ele>1543</ele>
        <time>2024-09-18T08:44:11Z</time>
      </trkpt>
      <trkpt lat="42.50313" lon="2.39788">
        <ele>1542</ele>
        <time>2024-09-18T08:44:14Z</time>
      </trkpt>
      <trkpt lat="42.50314" lon="2.3979">
        <ele>1540</ele>
        <time>2024-09-18T08:44:16Z</time>
      </trkpt>
      <trkpt lat="42.50315" lon="2.39793">
        <ele>1539</ele>
        <time>2024-09-18T08:44:19Z</time>
      </trkpt>
      <trkpt lat="42.50317" lon="2.39797">
        <ele>1538</ele>
        <time>2024-09-18T08:44:24Z</time>
      </trkpt>
      <trkpt lat="42.5032" lon="2.39799">
        <ele>1537</ele>
        <time>2024-09-18T08:44:26Z</time>
      </trkpt>
      <trkpt lat="42.50324" lon="2.398">
        <ele>1538</ele>
        <time>2024-09-18T08:44:28Z</time>
      </trkpt>
      <trkpt lat="42.50327" lon="2.39799">
        <ele>1538</ele>
        <time>2024-09-18T08:44:31Z</time>
      </trkpt>
      <trkpt lat="42.5033" lon="2.39801">
        <ele>1539</ele>
        <time>2024-09-18T08:44:36Z</time>
      </trkpt>
      <trkpt lat="42.50332" lon="2.39805">
        <ele>1540</ele>
        <time>2024-09-18T08:44:40Z</time>
      </trkpt>
      <trkpt lat="42.50335" lon="2.39807">
        <ele>1540</ele>
        <time>2024-09-18T08:44:45Z</time>
      </trkpt>
      <trkpt lat="42.50338" lon="2.39808">
        <ele>1540</ele>
        <time>2024-09-18T08:44:48Z</time>
      </trkpt>
      <trkpt lat="42.50341" lon="2.3981">
        <ele>1541</ele>
        <time>2024-09-18T08:44:52Z</time>
      </trkpt>
      <trkpt lat="42.50345" lon="2.39811">
        <ele>1540</ele>
        <time>2024-09-18T08:44:55Z</time>
      </trkpt>
      <trkpt lat="42.50344" lon="2.39814">
        <ele>1540</ele>
        <time>2024-09-18T08:44:59Z</time>
      </trkpt>
      <trkpt lat="42.50346" lon="2.39816">
        <ele>1541</ele>
        <time>2024-09-18T08:45:03Z</time>
      </trkpt>
      <trkpt lat="42.50349" lon="2.39819">
        <ele>1543</ele>
        <time>2024-09-18T08:45:06Z</time>
      </trkpt>
      <trkpt lat="42.50351" lon="2.39824">
        <ele>1545</ele>
        <time>2024-09-18T08:45:09Z</time>
      </trkpt>
      <trkpt lat="42.50353" lon="2.39827">
        <ele>1546</ele>
        <time>2024-09-18T08:45:13Z</time>
      </trkpt>
      <trkpt lat="42.50354" lon="2.39831">
        <ele>1547</ele>
        <time>2024-09-18T08:45:16Z</time>
      </trkpt>
      <trkpt lat="42.50356" lon="2.39835">
        <ele>1547</ele>
        <time>2024-09-18T08:45:21Z</time>
      </trkpt>
      <trkpt lat="42.50357" lon="2.39839">
        <ele>1545</ele>
        <time>2024-09-18T08:45:23Z</time>
      </trkpt>
      <trkpt lat="42.50357" lon="2.39842">
        <ele>1543</ele>
        <time>2024-09-18T08:45:25Z</time>
      </trkpt>
      <trkpt lat="42.50358" lon="2.39846">
        <ele>1543</ele>
        <time>2024-09-18T08:45:28Z</time>
      </trkpt>
      <trkpt lat="42.5036" lon="2.39851">
        <ele>1544</ele>
        <time>2024-09-18T08:45:32Z</time>
      </trkpt>
      <trkpt lat="42.50361" lon="2.39855">
        <ele>1543</ele>
        <time>2024-09-18T08:45:36Z</time>
      </trkpt>
      <trkpt lat="42.50362" lon="2.39859">
        <ele>1545</ele>
        <time>2024-09-18T08:45:42Z</time>
      </trkpt>
      <trkpt lat="42.50363" lon="2.39863">
        <ele>1545</ele>
        <time>2024-09-18T08:45:45Z</time>
      </trkpt>
      <trkpt lat="42.50365" lon="2.39867">
        <ele>1546</ele>
        <time>2024-09-18T08:45:47Z</time>
      </trkpt>
      <trkpt lat="42.50364" lon="2.39871">
        <ele>1547</ele>
        <time>2024-09-18T08:45:51Z</time>
      </trkpt>
      <trkpt lat="42.50364" lon="2.39875">
        <ele>1547</ele>
        <time>2024-09-18T08:45:56Z</time>
      </trkpt>
      <trkpt lat="42.50365" lon="2.3988">
        <ele>1548</ele>
        <time>2024-09-18T08:46:01Z</time>
      </trkpt>
      <trkpt lat="42.50366" lon="2.39884">
        <ele>1548</ele>
        <time>2024-09-18T08:46:04Z</time>
      </trkpt>
      <trkpt lat="42.50365" lon="2.39888">
        <ele>1548</ele>
        <time>2024-09-18T08:46:07Z</time>
      </trkpt>
      <trkpt lat="42.50365" lon="2.39893">
        <ele>1549</ele>
        <time>2024-09-18T08:46:10Z</time>
      </trkpt>
      <trkpt lat="42.50365" lon="2.39897">
        <ele>1549</ele>
        <time>2024-09-18T08:46:15Z</time>
      </trkpt>
      <trkpt lat="42.50365" lon="2.399">
        <ele>1549</ele>
        <time>2024-09-18T08:46:20Z</time>
      </trkpt>
      <trkpt lat="42.50367" lon="2.39903">
        <ele>1549</ele>
        <time>2024-09-18T08:46:23Z</time>
      </trkpt>
      <trkpt lat="42.50367" lon="2.39907">
        <ele>1550</ele>
        <time>2024-09-18T08:46:26Z</time>
      </trkpt>
      <trkpt lat="42.50368" lon="2.39911">
        <ele>1550</ele>
        <time>2024-09-18T08:46:34Z</time>
      </trkpt>
      <trkpt lat="42.50368" lon="2.39915">
        <ele>1551</ele>
        <time>2024-09-18T08:46:40Z</time>
      </trkpt>
      <trkpt lat="42.50368" lon="2.39919">
        <ele>1551</ele>
        <time>2024-09-18T08:46:45Z</time>
      </trkpt>
      <trkpt lat="42.50368" lon="2.39923">
        <ele>1552</ele>
        <time>2024-09-18T08:46:51Z</time>
      </trkpt>
      <trkpt lat="42.50369" lon="2.39926">
        <ele>1554</ele>
        <time>2024-09-18T08:46:55Z</time>
      </trkpt>
      <trkpt lat="42.50368" lon="2.39929">
        <ele>1553</ele>
        <time>2024-09-18T08:46:58Z</time>
      </trkpt>
      <trkpt lat="42.5037" lon="2.39932">
        <ele>1555</ele>
        <time>2024-09-18T08:47:03Z</time>
      </trkpt>
      <trkpt lat="42.50372" lon="2.39935">
        <ele>1554</ele>
        <time>2024-09-18T08:47:06Z</time>
      </trkpt>
      <trkpt lat="42.50374" lon="2.39939">
        <ele>1554</ele>
        <time>2024-09-18T08:47:09Z</time>
      </trkpt>
      <trkpt lat="42.50375" lon="2.39944">
        <ele>1555</ele>
        <time>2024-09-18T08:47:13Z</time>
      </trkpt>
      <trkpt lat="42.50374" lon="2.39949">
        <ele>1556</ele>
        <time>2024-09-18T08:47:18Z</time>
      </trkpt>
      <trkpt lat="42.50375" lon="2.39952">
        <ele>1558</ele>
        <time>2024-09-18T08:47:23Z</time>
      </trkpt>
      <trkpt lat="42.50376" lon="2.39956">
        <ele>1559</ele>
        <time>2024-09-18T08:47:29Z</time>
      </trkpt>
      <trkpt lat="42.50377" lon="2.3996">
        <ele>1558</ele>
        <time>2024-09-18T08:47:37Z</time>
      </trkpt>
      <trkpt lat="42.50377" lon="2.39963">
        <ele>1560</ele>
        <time>2024-09-18T08:47:40Z</time>
      </trkpt>
      <trkpt lat="42.50377" lon="2.39967">
        <ele>1558</ele>
        <time>2024-09-18T08:47:44Z</time>
      </trkpt>
      <trkpt lat="42.50378" lon="2.3997">
        <ele>1559</ele>
        <time>2024-09-18T08:47:46Z</time>
      </trkpt>
      <trkpt lat="42.50377" lon="2.39974">
        <ele>1560</ele>
        <time>2024-09-18T08:47:50Z</time>
      </trkpt>
      <trkpt lat="42.50375" lon="2.39977">
        <ele>1560</ele>
        <time>2024-09-18T08:47:54Z</time>
      </trkpt>
      <trkpt lat="42.50374" lon="2.39981">
        <ele>1560</ele>
        <time>2024-09-18T08:47:58Z</time>
      </trkpt>
      <trkpt lat="42.50371" lon="2.39984">
        <ele>1561</ele>
        <time>2024-09-18T08:48:01Z</time>
      </trkpt>
      <trkpt lat="42.50369" lon="2.39989">
        <ele>1558</ele>
        <time>2024-09-18T08:48:07Z</time>
      </trkpt>
      <trkpt lat="42.50366" lon="2.39992">
        <ele>1559</ele>
        <time>2024-09-18T08:48:12Z</time>
      </trkpt>
      <trkpt lat="42.50363" lon="2.39996">
        <ele>1561</ele>
        <time>2024-09-18T08:48:17Z</time>
      </trkpt>
      <trkpt lat="42.50361" lon="2.39999">
        <ele>1560</ele>
        <time>2024-09-18T08:48:20Z</time>
      </trkpt>
      <trkpt lat="42.50359" lon="2.40003">
        <ele>1561</ele>
        <time>2024-09-18T08:48:25Z</time>
      </trkpt>
      <trkpt lat="42.50357" lon="2.40007">
        <ele>1562</ele>
        <time>2024-09-18T08:48:32Z</time>
      </trkpt>
      <trkpt lat="42.50356" lon="2.4001">
        <ele>1562</ele>
        <time>2024-09-18T08:48:35Z</time>
      </trkpt>
      <trkpt lat="42.50355" lon="2.40013">
        <ele>1563</ele>
        <time>2024-09-18T08:48:39Z</time>
      </trkpt>
      <trkpt lat="42.50353" lon="2.40017">
        <ele>1565</ele>
        <time>2024-09-18T08:48:41Z</time>
      </trkpt>
      <trkpt lat="42.50351" lon="2.4002">
        <ele>1564</ele>
        <time>2024-09-18T08:48:46Z</time>
      </trkpt>
      <trkpt lat="42.5035" lon="2.40023">
        <ele>1563</ele>
        <time>2024-09-18T08:48:52Z</time>
      </trkpt>
      <trkpt lat="42.50347" lon="2.40027">
        <ele>1563</ele>
        <time>2024-09-18T08:48:55Z</time>
      </trkpt>
      <trkpt lat="42.50344" lon="2.4003">
        <ele>1566</ele>
        <time>2024-09-18T08:49:03Z</time>
      </trkpt>
      <trkpt lat="42.50341" lon="2.40034">
        <ele>1566</ele>
        <time>2024-09-18T08:49:08Z</time>
      </trkpt>
      <trkpt lat="42.50339" lon="2.40037">
        <ele>1566</ele>
        <time>2024-09-18T08:49:12Z</time>
      </trkpt>
      <trkpt lat="42.50337" lon="2.4004">
        <ele>1568</ele>
        <time>2024-09-18T08:49:18Z</time>
      </trkpt>
      <trkpt lat="42.50334" lon="2.40042">
        <ele>1567</ele>
        <time>2024-09-18T08:49:25Z</time>
      </trkpt>
      <trkpt lat="42.50332" lon="2.40045">
        <ele>1570</ele>
        <time>2024-09-18T08:49:31Z</time>
      </trkpt>
      <trkpt lat="42.50329" lon="2.40047">
        <ele>1572</ele>
        <time>2024-09-18T08:49:38Z</time>
      </trkpt>
      <trkpt lat="42.50327" lon="2.40049">
        <ele>1571</ele>
        <time>2024-09-18T08:49:46Z</time>
      </trkpt>
      <trkpt lat="42.50325" lon="2.40053">
        <ele>1570</ele>
        <time>2024-09-18T08:49:49Z</time>
      </trkpt>
      <trkpt lat="42.50325" lon="2.40057">
        <ele>1570</ele>
        <time>2024-09-18T08:49:53Z</time>
      </trkpt>
      <trkpt lat="42.50324" lon="2.40055">
        <ele>1574</ele>
        <time>2024-09-18T08:50:04Z</time>
      </trkpt>
      <trkpt lat="42.50321" lon="2.40055">
        <ele>1575</ele>
        <time>2024-09-18T08:50:07Z</time>
      </trkpt>
      <trkpt lat="42.5032" lon="2.40053">
        <ele>1575</ele>
        <time>2024-09-18T08:50:11Z</time>
      </trkpt>
      <trkpt lat="42.50321" lon="2.40056">
        <ele>1575</ele>
        <time>2024-09-18T08:50:18Z</time>
      </trkpt>
      <trkpt lat="42.50319" lon="2.40058">
        <ele>1575</ele>
        <time>2024-09-18T08:50:22Z</time>
      </trkpt>
      <trkpt lat="42.50318" lon="2.40062">
        <ele>1574</ele>
        <time>2024-09-18T08:50:26Z</time>
      </trkpt>
      <trkpt lat="42.50316" lon="2.40064">
        <ele>1574</ele>
        <time>2024-09-18T08:50:28Z</time>
      </trkpt>
      <trkpt lat="42.50313" lon="2.40066">
        <ele>1574</ele>
        <time>2024-09-18T08:50:31Z</time>
      </trkpt>
      <trkpt lat="42.5031" lon="2.40068">
        <ele>1573</ele>
        <time>2024-09-18T08:50:34Z</time>
      </trkpt>
      <trkpt lat="42.50307" lon="2.4007">
        <ele>1573</ele>
        <time>2024-09-18T08:50:37Z</time>
      </trkpt>
      <trkpt lat="42.50305" lon="2.40073">
        <ele>1574</ele>
        <time>2024-09-18T08:50:40Z</time>
      </trkpt>
      <trkpt lat="42.50302" lon="2.40076">
        <ele>1574</ele>
        <time>2024-09-18T08:50:42Z</time>
      </trkpt>
      <trkpt lat="42.503" lon="2.4008">
        <ele>1575</ele>
        <time>2024-09-18T08:50:45Z</time>
      </trkpt>
      <trkpt lat="42.50299" lon="2.40086">
        <ele>1574</ele>
        <time>2024-09-18T08:50:49Z</time>
      </trkpt>
      <trkpt lat="42.50296" lon="2.4009">
        <ele>1574</ele>
        <time>2024-09-18T08:50:55Z</time>
      </trkpt>
      <trkpt lat="42.50295" lon="2.40094">
        <ele>1576</ele>
        <time>2024-09-18T08:51:05Z</time>
      </trkpt>
      <trkpt lat="42.50294" lon="2.40099">
        <ele>1577</ele>
        <time>2024-09-18T08:51:08Z</time>
      </trkpt>
      <trkpt lat="42.50292" lon="2.40102">
        <ele>1579</ele>
        <time>2024-09-18T08:51:15Z</time>
      </trkpt>
      <trkpt lat="42.50291" lon="2.40106">
        <ele>1580</ele>
        <time>2024-09-18T08:51:19Z</time>
      </trkpt>
      <trkpt lat="42.5029" lon="2.4011">
        <ele>1581</ele>
        <time>2024-09-18T08:51:23Z</time>
      </trkpt>
      <trkpt lat="42.50288" lon="2.40114">
        <ele>1581</ele>
        <time>2024-09-18T08:51:26Z</time>
      </trkpt>
      <trkpt lat="42.50286" lon="2.40118">
        <ele>1581</ele>
        <time>2024-09-18T08:51:37Z</time>
      </trkpt>
      <trkpt lat="42.50283" lon="2.40121">
        <ele>1580</ele>
        <time>2024-09-18T08:51:43Z</time>
      </trkpt>
      <trkpt lat="42.50281" lon="2.40123">
        <ele>1581</ele>
        <time>2024-09-18T08:51:48Z</time>
      </trkpt>
      <trkpt lat="42.50279" lon="2.40126">
        <ele>1582</ele>
        <time>2024-09-18T08:51:54Z</time>
      </trkpt>
      <trkpt lat="42.50277" lon="2.40129">
        <ele>1583</ele>
        <time>2024-09-18T08:51:58Z</time>
      </trkpt>
      <trkpt lat="42.50275" lon="2.40131">
        <ele>1583</ele>
        <time>2024-09-18T08:52:03Z</time>
      </trkpt>
      <trkpt lat="42.50272" lon="2.40133">
        <ele>1584</ele>
        <time>2024-09-18T08:52:07Z</time>
      </trkpt>
      <trkpt lat="42.50269" lon="2.40135">
        <ele>1583</ele>
        <time>2024-09-18T08:52:11Z</time>
      </trkpt>
      <trkpt lat="42.50267" lon="2.40138">
        <ele>1582</ele>
        <time>2024-09-18T08:52:16Z</time>
      </trkpt>
      <trkpt lat="42.50264" lon="2.40142">
        <ele>1585</ele>
        <time>2024-09-18T08:52:21Z</time>
      </trkpt>
      <trkpt lat="42.50262" lon="2.40143">
        <ele>1584</ele>
        <time>2024-09-18T08:52:23Z</time>
      </trkpt>
      <trkpt lat="42.50259" lon="2.40146">
        <ele>1586</ele>
        <time>2024-09-18T08:52:28Z</time>
      </trkpt>
      <trkpt lat="42.50256" lon="2.40148">
        <ele>1586</ele>
        <time>2024-09-18T08:52:31Z</time>
      </trkpt>
      <trkpt lat="42.50253" lon="2.4015">
        <ele>1587</ele>
        <time>2024-09-18T08:52:33Z</time>
      </trkpt>
      <trkpt lat="42.50251" lon="2.40152">
        <ele>1587</ele>
        <time>2024-09-18T08:52:37Z</time>
      </trkpt>
      <trkpt lat="42.50248" lon="2.40152">
        <ele>1586</ele>
        <time>2024-09-18T08:52:39Z</time>
      </trkpt>
      <trkpt lat="42.50245" lon="2.40154">
        <ele>1585</ele>
        <time>2024-09-18T08:52:41Z</time>
      </trkpt>
      <trkpt lat="42.50242" lon="2.40154">
        <ele>1586</ele>
        <time>2024-09-18T08:52:44Z</time>
      </trkpt>
      <trkpt lat="42.50239" lon="2.40156">
        <ele>1587</ele>
        <time>2024-09-18T08:52:48Z</time>
      </trkpt>
      <trkpt lat="42.50237" lon="2.40158">
        <ele>1587</ele>
        <time>2024-09-18T08:52:50Z</time>
      </trkpt>
      <trkpt lat="42.50234" lon="2.4016">
        <ele>1587</ele>
        <time>2024-09-18T08:52:52Z</time>
      </trkpt>
      <trkpt lat="42.50232" lon="2.40162">
        <ele>1589</ele>
        <time>2024-09-18T08:52:55Z</time>
      </trkpt>
      <trkpt lat="42.50229" lon="2.40164">
        <ele>1589</ele>
        <time>2024-09-18T08:52:56Z</time>
      </trkpt>
      <trkpt lat="42.50227" lon="2.40166">
        <ele>1589</ele>
        <time>2024-09-18T08:52:59Z</time>
      </trkpt>
      <trkpt lat="42.50224" lon="2.40169">
        <ele>1589</ele>
        <time>2024-09-18T08:53:02Z</time>
      </trkpt>
      <trkpt lat="42.50221" lon="2.4017">
        <ele>1589</ele>
        <time>2024-09-18T08:53:04Z</time>
      </trkpt>
      <trkpt lat="42.50219" lon="2.40173">
        <ele>1594</ele>
        <time>2024-09-18T08:53:14Z</time>
      </trkpt>
      <trkpt lat="42.50216" lon="2.40175">
        <ele>1595</ele>
        <time>2024-09-18T08:53:16Z</time>
      </trkpt>
      <trkpt lat="42.50214" lon="2.40178">
        <ele>1596</ele>
        <time>2024-09-18T08:53:19Z</time>
      </trkpt>
      <trkpt lat="42.50212" lon="2.40182">
        <ele>1597</ele>
        <time>2024-09-18T08:53:22Z</time>
      </trkpt>
      <trkpt lat="42.5021" lon="2.40186">
        <ele>1598</ele>
        <time>2024-09-18T08:53:29Z</time>
      </trkpt>
      <trkpt lat="42.50208" lon="2.40187">
        <ele>1596</ele>
        <time>2024-09-18T08:53:32Z</time>
      </trkpt>
      <trkpt lat="42.50205" lon="2.40187">
        <ele>1596</ele>
        <time>2024-09-18T08:53:35Z</time>
      </trkpt>
      <trkpt lat="42.50202" lon="2.40188">
        <ele>1596</ele>
        <time>2024-09-18T08:53:38Z</time>
      </trkpt>
      <trkpt lat="42.50201" lon="2.40191">
        <ele>1595</ele>
        <time>2024-09-18T08:53:41Z</time>
      </trkpt>
      <trkpt lat="42.502" lon="2.40194">
        <ele>1596</ele>
        <time>2024-09-18T08:53:44Z</time>
      </trkpt>
      <trkpt lat="42.50198" lon="2.40198">
        <ele>1596</ele>
        <time>2024-09-18T08:53:47Z</time>
      </trkpt>
      <trkpt lat="42.50196" lon="2.40201">
        <ele>1597</ele>
        <time>2024-09-18T08:53:51Z</time>
      </trkpt>
      <trkpt lat="42.50194" lon="2.40205">
        <ele>1597</ele>
        <time>2024-09-18T08:53:53Z</time>
      </trkpt>
      <trkpt lat="42.50192" lon="2.40208">
        <ele>1596</ele>
        <time>2024-09-18T08:53:55Z</time>
      </trkpt>
      <trkpt lat="42.5019" lon="2.40211">
        <ele>1597</ele>
        <time>2024-09-18T08:53:59Z</time>
      </trkpt>
      <trkpt lat="42.50189" lon="2.40214">
        <ele>1597</ele>
        <time>2024-09-18T08:54:04Z</time>
      </trkpt>
      <trkpt lat="42.50186" lon="2.40216">
        <ele>1597</ele>
        <time>2024-09-18T08:54:07Z</time>
      </trkpt>
      <trkpt lat="42.50185" lon="2.4022">
        <ele>1598</ele>
        <time>2024-09-18T08:54:11Z</time>
      </trkpt>
      <trkpt lat="42.50183" lon="2.40222">
        <ele>1598</ele>
        <time>2024-09-18T08:54:17Z</time>
      </trkpt>
      <trkpt lat="42.50181" lon="2.40225">
        <ele>1598</ele>
        <time>2024-09-18T08:54:20Z</time>
      </trkpt>
      <trkpt lat="42.50178" lon="2.40226">
        <ele>1600</ele>
        <time>2024-09-18T08:54:25Z</time>
      </trkpt>
      <trkpt lat="42.50175" lon="2.40228">
        <ele>1601</ele>
        <time>2024-09-18T08:54:27Z</time>
      </trkpt>
      <trkpt lat="42.50173" lon="2.40231">
        <ele>1603</ele>
        <time>2024-09-18T08:54:32Z</time>
      </trkpt>
      <trkpt lat="42.50171" lon="2.40233">
        <ele>1601</ele>
        <time>2024-09-18T08:54:35Z</time>
      </trkpt>
      <trkpt lat="42.50168" lon="2.40235">
        <ele>1601</ele>
        <time>2024-09-18T08:54:39Z</time>
      </trkpt>
      <trkpt lat="42.50165" lon="2.40236">
        <ele>1601</ele>
        <time>2024-09-18T08:54:41Z</time>
      </trkpt>
      <trkpt lat="42.50162" lon="2.40239">
        <ele>1600</ele>
        <time>2024-09-18T08:54:45Z</time>
      </trkpt>
      <trkpt lat="42.5016" lon="2.4024">
        <ele>1600</ele>
        <time>2024-09-18T08:54:47Z</time>
      </trkpt>
      <trkpt lat="42.50157" lon="2.40243">
        <ele>1599</ele>
        <time>2024-09-18T08:54:53Z</time>
      </trkpt>
      <trkpt lat="42.50155" lon="2.40245">
        <ele>1601</ele>
        <time>2024-09-18T08:54:58Z</time>
      </trkpt>
      <trkpt lat="42.50152" lon="2.40247">
        <ele>1600</ele>
        <time>2024-09-18T08:55:01Z</time>
      </trkpt>
      <trkpt lat="42.50149" lon="2.40248">
        <ele>1601</ele>
        <time>2024-09-18T08:55:10Z</time>
      </trkpt>
      <trkpt lat="42.50146" lon="2.40249">
        <ele>1602</ele>
        <time>2024-09-18T08:55:16Z</time>
      </trkpt>
      <trkpt lat="42.50143" lon="2.40248">
        <ele>1603</ele>
        <time>2024-09-18T08:55:23Z</time>
      </trkpt>
      <trkpt lat="42.5014" lon="2.40248">
        <ele>1603</ele>
        <time>2024-09-18T08:55:27Z</time>
      </trkpt>
      <trkpt lat="42.50137" lon="2.4025">
        <ele>1604</ele>
        <time>2024-09-18T08:55:29Z</time>
      </trkpt>
      <trkpt lat="42.50134" lon="2.40252">
        <ele>1605</ele>
        <time>2024-09-18T08:55:34Z</time>
      </trkpt>
      <trkpt lat="42.50131" lon="2.40254">
        <ele>1604</ele>
        <time>2024-09-18T08:55:38Z</time>
      </trkpt>
      <trkpt lat="42.50128" lon="2.40256">
        <ele>1606</ele>
        <time>2024-09-18T08:55:42Z</time>
      </trkpt>
      <trkpt lat="42.50125" lon="2.40258">
        <ele>1605</ele>
        <time>2024-09-18T08:55:45Z</time>
      </trkpt>
      <trkpt lat="42.50122" lon="2.4026">
        <ele>1606</ele>
        <time>2024-09-18T08:55:49Z</time>
      </trkpt>
      <trkpt lat="42.50119" lon="2.40263">
        <ele>1612</ele>
        <time>2024-09-18T08:55:59Z</time>
      </trkpt>
      <trkpt lat="42.50116" lon="2.40264">
        <ele>1612</ele>
        <time>2024-09-18T08:56:02Z</time>
      </trkpt>
      <trkpt lat="42.50113" lon="2.40265">
        <ele>1613</ele>
        <time>2024-09-18T08:56:07Z</time>
      </trkpt>
      <trkpt lat="42.50109" lon="2.40267">
        <ele>1613</ele>
        <time>2024-09-18T08:56:10Z</time>
      </trkpt>
      <trkpt lat="42.50106" lon="2.40269">
        <ele>1612</ele>
        <time>2024-09-18T08:56:15Z</time>
      </trkpt>
      <trkpt lat="42.50102" lon="2.40272">
        <ele>1611</ele>
        <time>2024-09-18T08:56:19Z</time>
      </trkpt>
      <trkpt lat="42.50099" lon="2.40274">
        <ele>1612</ele>
        <time>2024-09-18T08:56:21Z</time>
      </trkpt>
      <trkpt lat="42.50097" lon="2.40276">
        <ele>1613</ele>
        <time>2024-09-18T08:56:26Z</time>
      </trkpt>
      <trkpt lat="42.50095" lon="2.40279">
        <ele>1613</ele>
        <time>2024-09-18T08:56:30Z</time>
      </trkpt>
      <trkpt lat="42.50092" lon="2.40281">
        <ele>1612</ele>
        <time>2024-09-18T08:56:34Z</time>
      </trkpt>
      <trkpt lat="42.50089" lon="2.40283">
        <ele>1612</ele>
        <time>2024-09-18T08:56:36Z</time>
      </trkpt>
      <trkpt lat="42.50086" lon="2.40285">
        <ele>1611</ele>
        <time>2024-09-18T08:56:40Z</time>
      </trkpt>
      <trkpt lat="42.50083" lon="2.40287">
        <ele>1610</ele>
        <time>2024-09-18T08:56:43Z</time>
      </trkpt>
      <trkpt lat="42.50082" lon="2.4029">
        <ele>1612</ele>
        <time>2024-09-18T08:56:49Z</time>
      </trkpt>
      <trkpt lat="42.50079" lon="2.40293">
        <ele>1613</ele>
        <time>2024-09-18T08:56:53Z</time>
      </trkpt>
      <trkpt lat="42.50077" lon="2.40293">
        <ele>1613</ele>
        <time>2024-09-18T08:56:56Z</time>
      </trkpt>
      <trkpt lat="42.50074" lon="2.40293">
        <ele>1613</ele>
        <time>2024-09-18T08:56:59Z</time>
      </trkpt>
      <trkpt lat="42.50071" lon="2.40295">
        <ele>1611</ele>
        <time>2024-09-18T08:57:05Z</time>
      </trkpt>
      <trkpt lat="42.50068" lon="2.40295">
        <ele>1612</ele>
        <time>2024-09-18T08:57:13Z</time>
      </trkpt>
      <trkpt lat="42.50066" lon="2.40296">
        <ele>1612</ele>
        <time>2024-09-18T08:57:20Z</time>
      </trkpt>
      <trkpt lat="42.50063" lon="2.40298">
        <ele>1615</ele>
        <time>2024-09-18T08:57:24Z</time>
      </trkpt>
      <trkpt lat="42.50061" lon="2.403">
        <ele>1615</ele>
        <time>2024-09-18T08:57:28Z</time>
      </trkpt>
      <trkpt lat="42.50059" lon="2.40304">
        <ele>1616</ele>
        <time>2024-09-18T08:57:32Z</time>
      </trkpt>
      <trkpt lat="42.50056" lon="2.40306">
        <ele>1615</ele>
        <time>2024-09-18T08:57:34Z</time>
      </trkpt>
      <trkpt lat="42.50054" lon="2.40309">
        <ele>1616</ele>
        <time>2024-09-18T08:57:36Z</time>
      </trkpt>
      <trkpt lat="42.50052" lon="2.40311">
        <ele>1615</ele>
        <time>2024-09-18T08:57:38Z</time>
      </trkpt>
      <trkpt lat="42.50049" lon="2.40312">
        <ele>1614</ele>
        <time>2024-09-18T08:57:41Z</time>
      </trkpt>
      <trkpt lat="42.50046" lon="2.40315">
        <ele>1614</ele>
        <time>2024-09-18T08:57:44Z</time>
      </trkpt>
      <trkpt lat="42.50043" lon="2.40316">
        <ele>1615</ele>
        <time>2024-09-18T08:57:47Z</time>
      </trkpt>
      <trkpt lat="42.5004" lon="2.40319">
        <ele>1615</ele>
        <time>2024-09-18T08:57:51Z</time>
      </trkpt>
      <trkpt lat="42.50037" lon="2.40321">
        <ele>1617</ele>
        <time>2024-09-18T08:57:55Z</time>
      </trkpt>
      <trkpt lat="42.50033" lon="2.40325">
        <ele>1617</ele>
        <time>2024-09-18T08:57:57Z</time>
      </trkpt>
      <trkpt lat="42.50029" lon="2.40329">
        <ele>1615</ele>
        <time>2024-09-18T08:58:05Z</time>
      </trkpt>
      <trkpt lat="42.50026" lon="2.40331">
        <ele>1616</ele>
        <time>2024-09-18T08:58:09Z</time>
      </trkpt>
      <trkpt lat="42.50023" lon="2.40331">
        <ele>1619</ele>
        <time>2024-09-18T08:58:14Z</time>
      </trkpt>
      <trkpt lat="42.50021" lon="2.40329">
        <ele>1616</ele>
        <time>2024-09-18T08:58:21Z</time>
      </trkpt>
      <trkpt lat="42.50018" lon="2.40331">
        <ele>1616</ele>
        <time>2024-09-18T08:58:24Z</time>
      </trkpt>
      <trkpt lat="42.50016" lon="2.40334">
        <ele>1617</ele>
        <time>2024-09-18T08:58:26Z</time>
      </trkpt>
      <trkpt lat="42.50014" lon="2.40337">
        <ele>1618</ele>
        <time>2024-09-18T08:58:29Z</time>
      </trkpt>
      <trkpt lat="42.50013" lon="2.40341">
        <ele>1619</ele>
        <time>2024-09-18T08:58:32Z</time>
      </trkpt>
      <trkpt lat="42.50013" lon="2.40346">
        <ele>1622</ele>
        <time>2024-09-18T08:58:39Z</time>
      </trkpt>
      <trkpt lat="42.5001" lon="2.40347">
        <ele>1622</ele>
        <time>2024-09-18T08:58:46Z</time>
      </trkpt>
      <trkpt lat="42.50008" lon="2.40351">
        <ele>1624</ele>
        <time>2024-09-18T08:58:54Z</time>
      </trkpt>
      <trkpt lat="42.50007" lon="2.40355">
        <ele>1625</ele>
        <time>2024-09-18T08:58:59Z</time>
      </trkpt>
      <trkpt lat="42.50005" lon="2.40358">
        <ele>1625</ele>
        <time>2024-09-18T08:59:07Z</time>
      </trkpt>
      <trkpt lat="42.50002" lon="2.4036">
        <ele>1624</ele>
        <time>2024-09-18T08:59:11Z</time>
      </trkpt>
      <trkpt lat="42.5" lon="2.40362">
        <ele>1624</ele>
        <time>2024-09-18T08:59:18Z</time>
      </trkpt>
      <trkpt lat="42.49997" lon="2.40363">
        <ele>1624</ele>
        <time>2024-09-18T08:59:23Z</time>
      </trkpt>
      <trkpt lat="42.49994" lon="2.40364">
        <ele>1626</ele>
        <time>2024-09-18T08:59:29Z</time>
      </trkpt>
      <trkpt lat="42.49992" lon="2.40367">
        <ele>1625</ele>
        <time>2024-09-18T08:59:32Z</time>
      </trkpt>
      <trkpt lat="42.49989" lon="2.4037">
        <ele>1626</ele>
        <time>2024-09-18T08:59:34Z</time>
      </trkpt>
      <trkpt lat="42.49986" lon="2.40373">
        <ele>1627</ele>
        <time>2024-09-18T08:59:40Z</time>
      </trkpt>
      <trkpt lat="42.49984" lon="2.40379">
        <ele>1626</ele>
        <time>2024-09-18T08:59:44Z</time>
      </trkpt>
      <trkpt lat="42.49984" lon="2.40384">
        <ele>1627</ele>
        <time>2024-09-18T08:59:49Z</time>
      </trkpt>
      <trkpt lat="42.49983" lon="2.40388">
        <ele>1626</ele>
        <time>2024-09-18T08:59:51Z</time>
      </trkpt>
      <trkpt lat="42.49983" lon="2.40392">
        <ele>1628</ele>
        <time>2024-09-18T08:59:55Z</time>
      </trkpt>
      <trkpt lat="42.49985" lon="2.40395">
        <ele>1628</ele>
        <time>2024-09-18T08:59:57Z</time>
      </trkpt>
      <trkpt lat="42.49987" lon="2.40397">
        <ele>1629</ele>
        <time>2024-09-18T09:00:00Z</time>
      </trkpt>
      <trkpt lat="42.49987" lon="2.40401">
        <ele>1633</ele>
        <time>2024-09-18T09:00:09Z</time>
      </trkpt>
      <trkpt lat="42.49989" lon="2.40404">
        <ele>1633</ele>
        <time>2024-09-18T09:00:12Z</time>
      </trkpt>
      <trkpt lat="42.49991" lon="2.40407">
        <ele>1633</ele>
        <time>2024-09-18T09:00:15Z</time>
      </trkpt>
      <trkpt lat="42.49992" lon="2.40411">
        <ele>1633</ele>
        <time>2024-09-18T09:00:19Z</time>
      </trkpt>
      <trkpt lat="42.49995" lon="2.40414">
        <ele>1633</ele>
        <time>2024-09-18T09:00:21Z</time>
      </trkpt>
      <trkpt lat="42.49999" lon="2.40414">
        <ele>1633</ele>
        <time>2024-09-18T09:00:28Z</time>
      </trkpt>
      <trkpt lat="42.50003" lon="2.40414">
        <ele>1631</ele>
        <time>2024-09-18T09:00:31Z</time>
      </trkpt>
      <trkpt lat="42.50005" lon="2.40417">
        <ele>1630</ele>
        <time>2024-09-18T09:00:34Z</time>
      </trkpt>
      <trkpt lat="42.50008" lon="2.40417">
        <ele>1630</ele>
        <time>2024-09-18T09:00:38Z</time>
      </trkpt>
      <trkpt lat="42.50011" lon="2.40419">
        <ele>1628</ele>
        <time>2024-09-18T09:00:45Z</time>
      </trkpt>
      <trkpt lat="42.50013" lon="2.40421">
        <ele>1628</ele>
        <time>2024-09-18T09:00:59Z</time>
      </trkpt>
      <trkpt lat="42.50016" lon="2.40423">
        <ele>1628</ele>
        <time>2024-09-18T09:01:01Z</time>
      </trkpt>
      <trkpt lat="42.50017" lon="2.40426">
        <ele>1629</ele>
        <time>2024-09-18T09:01:06Z</time>
      </trkpt>
      <trkpt lat="42.50019" lon="2.40428">
        <ele>1629</ele>
        <time>2024-09-18T09:01:11Z</time>
      </trkpt>
      <trkpt lat="42.50022" lon="2.40431">
        <ele>1630</ele>
        <time>2024-09-18T09:01:18Z</time>
      </trkpt>
      <trkpt lat="42.50025" lon="2.40432">
        <ele>1631</ele>
        <time>2024-09-18T09:01:25Z</time>
      </trkpt>
      <trkpt lat="42.50028" lon="2.40431">
        <ele>1632</ele>
        <time>2024-09-18T09:01:27Z</time>
      </trkpt>
      <trkpt lat="42.50031" lon="2.40431">
        <ele>1633</ele>
        <time>2024-09-18T09:01:29Z</time>
      </trkpt>
      <trkpt lat="42.50034" lon="2.40431">
        <ele>1633</ele>
        <time>2024-09-18T09:01:35Z</time>
      </trkpt>
      <trkpt lat="42.50037" lon="2.40431">
        <ele>1634</ele>
        <time>2024-09-18T09:01:38Z</time>
      </trkpt>
      <trkpt lat="42.50041" lon="2.40432">
        <ele>1635</ele>
        <time>2024-09-18T09:01:42Z</time>
      </trkpt>
      <trkpt lat="42.50044" lon="2.40431">
        <ele>1636</ele>
        <time>2024-09-18T09:01:46Z</time>
      </trkpt>
      <trkpt lat="42.50046" lon="2.40433">
        <ele>1637</ele>
        <time>2024-09-18T09:02:01Z</time>
      </trkpt>
      <trkpt lat="42.50049" lon="2.40433">
        <ele>1637</ele>
        <time>2024-09-18T09:02:05Z</time>
      </trkpt>
      <trkpt lat="42.50051" lon="2.40436">
        <ele>1637</ele>
        <time>2024-09-18T09:02:08Z</time>
      </trkpt>
      <trkpt lat="42.50053" lon="2.40439">
        <ele>1636</ele>
        <time>2024-09-18T09:02:13Z</time>
      </trkpt>
      <trkpt lat="42.50055" lon="2.40442">
        <ele>1637</ele>
        <time>2024-09-18T09:02:16Z</time>
      </trkpt>
      <trkpt lat="42.50057" lon="2.40446">
        <ele>1638</ele>
        <time>2024-09-18T09:02:19Z</time>
      </trkpt>
      <trkpt lat="42.50059" lon="2.40449">
        <ele>1640</ele>
        <time>2024-09-18T09:02:24Z</time>
      </trkpt>
      <trkpt lat="42.50061" lon="2.40452">
        <ele>1639</ele>
        <time>2024-09-18T09:02:26Z</time>
      </trkpt>
      <trkpt lat="42.50063" lon="2.40456">
        <ele>1639</ele>
        <time>2024-09-18T09:02:30Z</time>
      </trkpt>
      <trkpt lat="42.50065" lon="2.4046">
        <ele>1641</ele>
        <time>2024-09-18T09:02:35Z</time>
      </trkpt>
      <trkpt lat="42.50067" lon="2.40463">
        <ele>1641</ele>
        <time>2024-09-18T09:02:38Z</time>
      </trkpt>
      <trkpt lat="42.50068" lon="2.40469">
        <ele>1643</ele>
        <time>2024-09-18T09:02:42Z</time>
      </trkpt>
      <trkpt lat="42.5007" lon="2.40473">
        <ele>1643</ele>
        <time>2024-09-18T09:02:47Z</time>
      </trkpt>
      <trkpt lat="42.5007" lon="2.40477">
        <ele>1644</ele>
        <time>2024-09-18T09:02:55Z</time>
      </trkpt>
      <trkpt lat="42.50071" lon="2.4048">
        <ele>1643</ele>
        <time>2024-09-18T09:02:59Z</time>
      </trkpt>
      <trkpt lat="42.50072" lon="2.40485">
        <ele>1644</ele>
        <time>2024-09-18T09:03:04Z</time>
      </trkpt>
      <trkpt lat="42.50074" lon="2.40488">
        <ele>1645</ele>
        <time>2024-09-18T09:03:09Z</time>
      </trkpt>
      <trkpt lat="42.50075" lon="2.40493">
        <ele>1645</ele>
        <time>2024-09-18T09:03:14Z</time>
      </trkpt>
      <trkpt lat="42.50078" lon="2.40497">
        <ele>1644</ele>
        <time>2024-09-18T09:03:18Z</time>
      </trkpt>
      <trkpt lat="42.5008" lon="2.40499">
        <ele>1645</ele>
        <time>2024-09-18T09:03:21Z</time>
      </trkpt>
      <trkpt lat="42.50082" lon="2.40502">
        <ele>1645</ele>
        <time>2024-09-18T09:03:23Z</time>
      </trkpt>
      <trkpt lat="42.50082" lon="2.40507">
        <ele>1647</ele>
        <time>2024-09-18T09:03:26Z</time>
      </trkpt>
      <trkpt lat="42.50083" lon="2.40511">
        <ele>1647</ele>
        <time>2024-09-18T09:03:30Z</time>
      </trkpt>
      <trkpt lat="42.50084" lon="2.40515">
        <ele>1647</ele>
        <time>2024-09-18T09:03:34Z</time>
      </trkpt>
      <trkpt lat="42.50084" lon="2.4052">
        <ele>1649</ele>
        <time>2024-09-18T09:03:39Z</time>
      </trkpt>
      <trkpt lat="42.50085" lon="2.40524">
        <ele>1649</ele>
        <time>2024-09-18T09:03:43Z</time>
      </trkpt>
      <trkpt lat="42.50086" lon="2.40529">
        <ele>1651</ele>
        <time>2024-09-18T09:03:46Z</time>
      </trkpt>
      <trkpt lat="42.50086" lon="2.40533">
        <ele>1652</ele>
        <time>2024-09-18T09:03:52Z</time>
      </trkpt>
      <trkpt lat="42.50087" lon="2.40536">
        <ele>1651</ele>
        <time>2024-09-18T09:03:56Z</time>
      </trkpt>
      <trkpt lat="42.50088" lon="2.4054">
        <ele>1653</ele>
        <time>2024-09-18T09:03:59Z</time>
      </trkpt>
      <trkpt lat="42.50089" lon="2.40545">
        <ele>1653</ele>
        <time>2024-09-18T09:04:04Z</time>
      </trkpt>
      <trkpt lat="42.50089" lon="2.40549">
        <ele>1654</ele>
        <time>2024-09-18T09:04:09Z</time>
      </trkpt>
      <trkpt lat="42.50089" lon="2.40553">
        <ele>1653</ele>
        <time>2024-09-18T09:04:14Z</time>
      </trkpt>
      <trkpt lat="42.50089" lon="2.40557">
        <ele>1652</ele>
        <time>2024-09-18T09:04:20Z</time>
      </trkpt>
      <trkpt lat="42.50088" lon="2.4056">
        <ele>1653</ele>
        <time>2024-09-18T09:04:22Z</time>
      </trkpt>
      <trkpt lat="42.50089" lon="2.40563">
        <ele>1652</ele>
        <time>2024-09-18T09:04:25Z</time>
      </trkpt>
      <trkpt lat="42.50088" lon="2.40567">
        <ele>1655</ele>
        <time>2024-09-18T09:04:36Z</time>
      </trkpt>
      <trkpt lat="42.50089" lon="2.40571">
        <ele>1654</ele>
        <time>2024-09-18T09:04:39Z</time>
      </trkpt>
      <trkpt lat="42.50088" lon="2.40574">
        <ele>1656</ele>
        <time>2024-09-18T09:04:42Z</time>
      </trkpt>
      <trkpt lat="42.50086" lon="2.40577">
        <ele>1657</ele>
        <time>2024-09-18T09:04:52Z</time>
      </trkpt>
      <trkpt lat="42.50085" lon="2.40581">
        <ele>1659</ele>
        <time>2024-09-18T09:04:57Z</time>
      </trkpt>
      <trkpt lat="42.50084" lon="2.40586">
        <ele>1660</ele>
        <time>2024-09-18T09:05:02Z</time>
      </trkpt>
      <trkpt lat="42.50082" lon="2.40589">
        <ele>1660</ele>
        <time>2024-09-18T09:05:08Z</time>
      </trkpt>
      <trkpt lat="42.5008" lon="2.40592">
        <ele>1660</ele>
        <time>2024-09-18T09:05:12Z</time>
      </trkpt>
      <trkpt lat="42.50079" lon="2.40595">
        <ele>1663</ele>
        <time>2024-09-18T09:05:18Z</time>
      </trkpt>
      <trkpt lat="42.50078" lon="2.406">
        <ele>1665</ele>
        <time>2024-09-18T09:05:25Z</time>
      </trkpt>
      <trkpt lat="42.50076" lon="2.40604">
        <ele>1666</ele>
        <time>2024-09-18T09:05:31Z</time>
      </trkpt>
      <trkpt lat="42.50074" lon="2.40607">
        <ele>1667</ele>
        <time>2024-09-18T09:05:44Z</time>
      </trkpt>
      <trkpt lat="42.50072" lon="2.4061">
        <ele>1668</ele>
        <time>2024-09-18T09:05:51Z</time>
      </trkpt>
      <trkpt lat="42.5007" lon="2.40613">
        <ele>1669</ele>
        <time>2024-09-18T09:05:58Z</time>
      </trkpt>
      <trkpt lat="42.5007" lon="2.40617">
        <ele>1670</ele>
        <time>2024-09-18T09:06:03Z</time>
      </trkpt>
      <trkpt lat="42.50069" lon="2.40621">
        <ele>1671</ele>
        <time>2024-09-18T09:06:06Z</time>
      </trkpt>
      <trkpt lat="42.50068" lon="2.40625">
        <ele>1671</ele>
        <time>2024-09-18T09:06:09Z</time>
      </trkpt>
      <trkpt lat="42.50067" lon="2.40629">
        <ele>1672</ele>
        <time>2024-09-18T09:06:13Z</time>
      </trkpt>
      <trkpt lat="42.50065" lon="2.40632">
        <ele>1673</ele>
        <time>2024-09-18T09:06:18Z</time>
      </trkpt>
      <trkpt lat="42.50063" lon="2.40634">
        <ele>1674</ele>
        <time>2024-09-18T09:06:23Z</time>
      </trkpt>
      <trkpt lat="42.50062" lon="2.40637">
        <ele>1674</ele>
        <time>2024-09-18T09:06:28Z</time>
      </trkpt>
      <trkpt lat="42.50062" lon="2.40641">
        <ele>1675</ele>
        <time>2024-09-18T09:06:31Z</time>
      </trkpt>
      <trkpt lat="42.50061" lon="2.40645">
        <ele>1677</ele>
        <time>2024-09-18T09:06:35Z</time>
      </trkpt>
      <trkpt lat="42.50061" lon="2.40649">
        <ele>1677</ele>
        <time>2024-09-18T09:06:42Z</time>
      </trkpt>
      <trkpt lat="42.50061" lon="2.40653">
        <ele>1677</ele>
        <time>2024-09-18T09:06:46Z</time>
      </trkpt>
      <trkpt lat="42.50062" lon="2.40657">
        <ele>1677</ele>
        <time>2024-09-18T09:06:49Z</time>
      </trkpt>
      <trkpt lat="42.50063" lon="2.40661">
        <ele>1677</ele>
        <time>2024-09-18T09:06:51Z</time>
      </trkpt>
      <trkpt lat="42.50064" lon="2.40665">
        <ele>1677</ele>
        <time>2024-09-18T09:06:55Z</time>
      </trkpt>
      <trkpt lat="42.50065" lon="2.40668">
        <ele>1677</ele>
        <time>2024-09-18T09:07:00Z</time>
      </trkpt>
      <trkpt lat="42.50065" lon="2.40672">
        <ele>1678</ele>
        <time>2024-09-18T09:07:05Z</time>
      </trkpt>
      <trkpt lat="42.50066" lon="2.40677">
        <ele>1680</ele>
        <time>2024-09-18T09:07:10Z</time>
      </trkpt>
      <trkpt lat="42.50066" lon="2.40681">
        <ele>1681</ele>
        <time>2024-09-18T09:07:13Z</time>
      </trkpt>
      <trkpt lat="42.50067" lon="2.40685">
        <ele>1682</ele>
        <time>2024-09-18T09:07:16Z</time>
      </trkpt>
      <trkpt lat="42.50068" lon="2.40689">
        <ele>1681</ele>
        <time>2024-09-18T09:07:20Z</time>
      </trkpt>
      <trkpt lat="42.5007" lon="2.40694">
        <ele>1681</ele>
        <time>2024-09-18T09:07:27Z</time>
      </trkpt>
      <trkpt lat="42.50071" lon="2.40699">
        <ele>1681</ele>
        <time>2024-09-18T09:07:29Z</time>
      </trkpt>
      <trkpt lat="42.50072" lon="2.40703">
        <ele>1682</ele>
        <time>2024-09-18T09:07:31Z</time>
      </trkpt>
      <trkpt lat="42.50074" lon="2.40707">
        <ele>1682</ele>
        <time>2024-09-18T09:07:34Z</time>
      </trkpt>
      <trkpt lat="42.50074" lon="2.40711">
        <ele>1682</ele>
        <time>2024-09-18T09:07:39Z</time>
      </trkpt>
      <trkpt lat="42.50075" lon="2.40715">
        <ele>1683</ele>
        <time>2024-09-18T09:07:42Z</time>
      </trkpt>
      <trkpt lat="42.50077" lon="2.40718">
        <ele>1684</ele>
        <time>2024-09-18T09:07:45Z</time>
      </trkpt>
      <trkpt lat="42.50078" lon="2.40722">
        <ele>1684</ele>
        <time>2024-09-18T09:07:48Z</time>
      </trkpt>
      <trkpt lat="42.50079" lon="2.40726">
        <ele>1685</ele>
        <time>2024-09-18T09:07:52Z</time>
      </trkpt>
      <trkpt lat="42.50081" lon="2.40729">
        <ele>1684</ele>
        <time>2024-09-18T09:07:55Z</time>
      </trkpt>
      <trkpt lat="42.50083" lon="2.40733">
        <ele>1684</ele>
        <time>2024-09-18T09:07:58Z</time>
      </trkpt>
      <trkpt lat="42.50086" lon="2.40735">
        <ele>1683</ele>
        <time>2024-09-18T09:08:01Z</time>
      </trkpt>
      <trkpt lat="42.50088" lon="2.40738">
        <ele>1683</ele>
        <time>2024-09-18T09:08:04Z</time>
      </trkpt>
      <trkpt lat="42.5009" lon="2.40742">
        <ele>1684</ele>
        <time>2024-09-18T09:08:07Z</time>
      </trkpt>
      <trkpt lat="42.50092" lon="2.40746">
        <ele>1685</ele>
        <time>2024-09-18T09:08:11Z</time>
      </trkpt>
      <trkpt lat="42.50094" lon="2.40749">
        <ele>1685</ele>
        <time>2024-09-18T09:08:13Z</time>
      </trkpt>
      <trkpt lat="42.50096" lon="2.40753">
        <ele>1686</ele>
        <time>2024-09-18T09:08:16Z</time>
      </trkpt>
      <trkpt lat="42.50099" lon="2.40757">
        <ele>1686</ele>
        <time>2024-09-18T09:08:19Z</time>
      </trkpt>
      <trkpt lat="42.50101" lon="2.4076">
        <ele>1687</ele>
        <time>2024-09-18T09:08:22Z</time>
      </trkpt>
      <trkpt lat="42.50104" lon="2.40763">
        <ele>1687</ele>
        <time>2024-09-18T09:08:25Z</time>
      </trkpt>
      <trkpt lat="42.50106" lon="2.40765">
        <ele>1687</ele>
        <time>2024-09-18T09:08:29Z</time>
      </trkpt>
      <trkpt lat="42.50109" lon="2.40769">
        <ele>1688</ele>
        <time>2024-09-18T09:08:32Z</time>
      </trkpt>
      <trkpt lat="42.50111" lon="2.40772">
        <ele>1689</ele>
        <time>2024-09-18T09:08:35Z</time>
      </trkpt>
      <trkpt lat="42.50113" lon="2.40775">
        <ele>1689</ele>
        <time>2024-09-18T09:08:39Z</time>
      </trkpt>
      <trkpt lat="42.50115" lon="2.40779">
        <ele>1688</ele>
        <time>2024-09-18T09:08:43Z</time>
      </trkpt>
      <trkpt lat="42.50118" lon="2.40781">
        <ele>1688</ele>
        <time>2024-09-18T09:08:46Z</time>
      </trkpt>
      <trkpt lat="42.50121" lon="2.40782">
        <ele>1688</ele>
        <time>2024-09-18T09:08:49Z</time>
      </trkpt>
      <trkpt lat="42.50124" lon="2.40784">
        <ele>1687</ele>
        <time>2024-09-18T09:08:52Z</time>
      </trkpt>
      <trkpt lat="42.50126" lon="2.40787">
        <ele>1686</ele>
        <time>2024-09-18T09:08:56Z</time>
      </trkpt>
      <trkpt lat="42.50128" lon="2.4079">
        <ele>1687</ele>
        <time>2024-09-18T09:09:01Z</time>
      </trkpt>
      <trkpt lat="42.50129" lon="2.40794">
        <ele>1688</ele>
        <time>2024-09-18T09:09:07Z</time>
      </trkpt>
      <trkpt lat="42.50132" lon="2.40795">
        <ele>1691</ele>
        <time>2024-09-18T09:09:28Z</time>
      </trkpt>
      <trkpt lat="42.50132" lon="2.40798">
        <ele>1690</ele>
        <time>2024-09-18T09:09:50Z</time>
      </trkpt>
      <trkpt lat="42.50131" lon="2.40798">
        <ele>1690</ele>
        <time>2024-09-18T09:10:00Z</time>
      </trkpt>
      <trkpt lat="42.5013" lon="2.40801">
        <ele>1689</ele>
        <time>2024-09-18T09:10:22Z</time>
      </trkpt>
      <trkpt lat="42.50128" lon="2.40804">
        <ele>1690</ele>
        <time>2024-09-18T09:10:27Z</time>
      </trkpt>
      <trkpt lat="42.50126" lon="2.40806">
        <ele>1693</ele>
        <time>2024-09-18T09:11:02Z</time>
      </trkpt>
      <trkpt lat="42.50123" lon="2.40808">
        <ele>1694</ele>
        <time>2024-09-18T09:11:06Z</time>
      </trkpt>
      <trkpt lat="42.5012" lon="2.40809">
        <ele>1695</ele>
        <time>2024-09-18T09:11:11Z</time>
      </trkpt>
      <trkpt lat="42.50117" lon="2.40811">
        <ele>1696</ele>
        <time>2024-09-18T09:11:15Z</time>
      </trkpt>
      <trkpt lat="42.50115" lon="2.40812">
        <ele>1697</ele>
        <time>2024-09-18T09:11:19Z</time>
      </trkpt>
      <trkpt lat="42.50112" lon="2.40813">
        <ele>1697</ele>
        <time>2024-09-18T09:11:23Z</time>
      </trkpt>
      <trkpt lat="42.50109" lon="2.40814">
        <ele>1697</ele>
        <time>2024-09-18T09:11:25Z</time>
      </trkpt>
      <trkpt lat="42.50106" lon="2.40816">
        <ele>1697</ele>
        <time>2024-09-18T09:11:32Z</time>
      </trkpt>
      <trkpt lat="42.50103" lon="2.40817">
        <ele>1698</ele>
        <time>2024-09-18T09:11:36Z</time>
      </trkpt>
      <trkpt lat="42.501" lon="2.40818">
        <ele>1699</ele>
        <time>2024-09-18T09:11:43Z</time>
      </trkpt>
      <trkpt lat="42.50097" lon="2.40819">
        <ele>1699</ele>
        <time>2024-09-18T09:11:47Z</time>
      </trkpt>
      <trkpt lat="42.50094" lon="2.40821">
        <ele>1700</ele>
        <time>2024-09-18T09:11:53Z</time>
      </trkpt>
      <trkpt lat="42.50092" lon="2.40823">
        <ele>1700</ele>
        <time>2024-09-18T09:11:58Z</time>
      </trkpt>
      <trkpt lat="42.50089" lon="2.40824">
        <ele>1700</ele>
        <time>2024-09-18T09:12:02Z</time>
      </trkpt>
      <trkpt lat="42.50086" lon="2.40825">
        <ele>1700</ele>
        <time>2024-09-18T09:12:07Z</time>
      </trkpt>
      <trkpt lat="42.50083" lon="2.40825">
        <ele>1702</ele>
        <time>2024-09-18T09:12:15Z</time>
      </trkpt>
      <trkpt lat="42.5008" lon="2.40826">
        <ele>1702</ele>
        <time>2024-09-18T09:12:19Z</time>
      </trkpt>
      <trkpt lat="42.50077" lon="2.40827">
        <ele>1702</ele>
        <time>2024-09-18T09:12:23Z</time>
      </trkpt>
      <trkpt lat="42.50075" lon="2.40828">
        <ele>1703</ele>
        <time>2024-09-18T09:12:27Z</time>
      </trkpt>
      <trkpt lat="42.50072" lon="2.40829">
        <ele>1704</ele>
        <time>2024-09-18T09:12:34Z</time>
      </trkpt>
      <trkpt lat="42.50069" lon="2.4083">
        <ele>1705</ele>
        <time>2024-09-18T09:12:38Z</time>
      </trkpt>
      <trkpt lat="42.50066" lon="2.40832">
        <ele>1705</ele>
        <time>2024-09-18T09:12:42Z</time>
      </trkpt>
      <trkpt lat="42.50064" lon="2.40833">
        <ele>1706</ele>
        <time>2024-09-18T09:12:46Z</time>
      </trkpt>
      <trkpt lat="42.50061" lon="2.40835">
        <ele>1707</ele>
        <time>2024-09-18T09:12:51Z</time>
      </trkpt>
      <trkpt lat="42.50058" lon="2.40837">
        <ele>1707</ele>
        <time>2024-09-18T09:12:56Z</time>
      </trkpt>
      <trkpt lat="42.50055" lon="2.40839">
        <ele>1707</ele>
        <time>2024-09-18T09:13:01Z</time>
      </trkpt>
      <trkpt lat="42.50052" lon="2.40841">
        <ele>1708</ele>
        <time>2024-09-18T09:13:05Z</time>
      </trkpt>
      <trkpt lat="42.5005" lon="2.40842">
        <ele>1709</ele>
        <time>2024-09-18T09:13:09Z</time>
      </trkpt>
      <trkpt lat="42.50047" lon="2.40843">
        <ele>1709</ele>
        <time>2024-09-18T09:13:16Z</time>
      </trkpt>
      <trkpt lat="42.50044" lon="2.40845">
        <ele>1710</ele>
        <time>2024-09-18T09:13:20Z</time>
      </trkpt>
      <trkpt lat="42.50041" lon="2.40846">
        <ele>1711</ele>
        <time>2024-09-18T09:13:24Z</time>
      </trkpt>
      <trkpt lat="42.50038" lon="2.40848">
        <ele>1712</ele>
        <time>2024-09-18T09:13:28Z</time>
      </trkpt>
      <trkpt lat="42.50036" lon="2.40849">
        <ele>1712</ele>
        <time>2024-09-18T09:13:32Z</time>
      </trkpt>
      <trkpt lat="42.50033" lon="2.40852">
        <ele>1713</ele>
        <time>2024-09-18T09:13:40Z</time>
      </trkpt>
      <trkpt lat="42.5003" lon="2.40854">
        <ele>1714</ele>
        <time>2024-09-18T09:13:44Z</time>
      </trkpt>
      <trkpt lat="42.50028" lon="2.40856">
        <ele>1714</ele>
        <time>2024-09-18T09:13:46Z</time>
      </trkpt>
      <trkpt lat="42.50025" lon="2.40858">
        <ele>1715</ele>
        <time>2024-09-18T09:13:53Z</time>
      </trkpt>
      <trkpt lat="42.50022" lon="2.40861">
        <ele>1715</ele>
        <time>2024-09-18T09:13:57Z</time>
      </trkpt>
      <trkpt lat="42.5002" lon="2.40863">
        <ele>1715</ele>
        <time>2024-09-18T09:14:00Z</time>
      </trkpt>
      <trkpt lat="42.50017" lon="2.40865">
        <ele>1716</ele>
        <time>2024-09-18T09:14:05Z</time>
      </trkpt>
      <trkpt lat="42.50014" lon="2.40866">
        <ele>1715</ele>
        <time>2024-09-18T09:14:48Z</time>
      </trkpt>
      <trkpt lat="42.50013" lon="2.4087">
        <ele>1716</ele>
        <time>2024-09-18T09:14:59Z</time>
      </trkpt>
      <trkpt lat="42.50011" lon="2.40873">
        <ele>1716</ele>
        <time>2024-09-18T09:15:02Z</time>
      </trkpt>
      <trkpt lat="42.50009" lon="2.40876">
        <ele>1715</ele>
        <time>2024-09-18T09:15:05Z</time>
      </trkpt>
      <trkpt lat="42.50006" lon="2.40879">
        <ele>1716</ele>
        <time>2024-09-18T09:15:10Z</time>
      </trkpt>
      <trkpt lat="42.50003" lon="2.4088">
        <ele>1716</ele>
        <time>2024-09-18T09:15:12Z</time>
      </trkpt>
      <trkpt lat="42.5" lon="2.40881">
        <ele>1716</ele>
        <time>2024-09-18T09:15:15Z</time>
      </trkpt>
      <trkpt lat="42.49996" lon="2.40883">
        <ele>1715</ele>
        <time>2024-09-18T09:15:18Z</time>
      </trkpt>
      <trkpt lat="42.49993" lon="2.40885">
        <ele>1715</ele>
        <time>2024-09-18T09:15:22Z</time>
      </trkpt>
      <trkpt lat="42.4999" lon="2.40886">
        <ele>1715</ele>
        <time>2024-09-18T09:15:25Z</time>
      </trkpt>
      <trkpt lat="42.49987" lon="2.40887">
        <ele>1715</ele>
        <time>2024-09-18T09:15:28Z</time>
      </trkpt>
      <trkpt lat="42.49983" lon="2.40889">
        <ele>1715</ele>
        <time>2024-09-18T09:15:31Z</time>
      </trkpt>
      <trkpt lat="42.4998" lon="2.4089">
        <ele>1715</ele>
        <time>2024-09-18T09:15:34Z</time>
      </trkpt>
      <trkpt lat="42.49977" lon="2.4089">
        <ele>1715</ele>
        <time>2024-09-18T09:15:37Z</time>
      </trkpt>
      <trkpt lat="42.49974" lon="2.40891">
        <ele>1714</ele>
        <time>2024-09-18T09:15:40Z</time>
      </trkpt>
      <trkpt lat="42.49971" lon="2.40892">
        <ele>1714</ele>
        <time>2024-09-18T09:15:43Z</time>
      </trkpt>
      <trkpt lat="42.49967" lon="2.40893">
        <ele>1713</ele>
        <time>2024-09-18T09:15:46Z</time>
      </trkpt>
      <trkpt lat="42.49964" lon="2.40894">
        <ele>1713</ele>
        <time>2024-09-18T09:15:50Z</time>
      </trkpt>
      <trkpt lat="42.49962" lon="2.40896">
        <ele>1713</ele>
        <time>2024-09-18T09:15:52Z</time>
      </trkpt>
      <trkpt lat="42.49959" lon="2.40897">
        <ele>1714</ele>
        <time>2024-09-18T09:15:54Z</time>
      </trkpt>
      <trkpt lat="42.49956" lon="2.40899">
        <ele>1713</ele>
        <time>2024-09-18T09:15:57Z</time>
      </trkpt>
      <trkpt lat="42.49953" lon="2.40901">
        <ele>1712</ele>
        <time>2024-09-18T09:15:59Z</time>
      </trkpt>
      <trkpt lat="42.4995" lon="2.40902">
        <ele>1713</ele>
        <time>2024-09-18T09:16:02Z</time>
      </trkpt>
      <trkpt lat="42.49947" lon="2.40902">
        <ele>1712</ele>
        <time>2024-09-18T09:16:04Z</time>
      </trkpt>
      <trkpt lat="42.49944" lon="2.40903">
        <ele>1713</ele>
        <time>2024-09-18T09:16:07Z</time>
      </trkpt>
      <trkpt lat="42.49941" lon="2.40906">
        <ele>1713</ele>
        <time>2024-09-18T09:16:09Z</time>
      </trkpt>
      <trkpt lat="42.49938" lon="2.40907">
        <ele>1712</ele>
        <time>2024-09-18T09:16:12Z</time>
      </trkpt>
      <trkpt lat="42.49935" lon="2.40909">
        <ele>1712</ele>
        <time>2024-09-18T09:16:15Z</time>
      </trkpt>
      <trkpt lat="42.49931" lon="2.40909">
        <ele>1713</ele>
        <time>2024-09-18T09:16:18Z</time>
      </trkpt>
      <trkpt lat="42.49928" lon="2.4091">
        <ele>1712</ele>
        <time>2024-09-18T09:16:22Z</time>
      </trkpt>
      <trkpt lat="42.49925" lon="2.40911">
        <ele>1711</ele>
        <time>2024-09-18T09:16:25Z</time>
      </trkpt>
      <trkpt lat="42.49921" lon="2.40912">
        <ele>1711</ele>
        <time>2024-09-18T09:16:29Z</time>
      </trkpt>
      <trkpt lat="42.49918" lon="2.40913">
        <ele>1712</ele>
        <time>2024-09-18T09:16:31Z</time>
      </trkpt>
      <trkpt lat="42.49915" lon="2.40914">
        <ele>1710</ele>
        <time>2024-09-18T09:16:33Z</time>
      </trkpt>
      <trkpt lat="42.49912" lon="2.40915">
        <ele>1712</ele>
        <time>2024-09-18T09:16:36Z</time>
      </trkpt>
      <trkpt lat="42.49908" lon="2.40916">
        <ele>1712</ele>
        <time>2024-09-18T09:16:39Z</time>
      </trkpt>
      <trkpt lat="42.49905" lon="2.40918">
        <ele>1711</ele>
        <time>2024-09-18T09:16:43Z</time>
      </trkpt>
      <trkpt lat="42.49903" lon="2.4092">
        <ele>1711</ele>
        <time>2024-09-18T09:16:46Z</time>
      </trkpt>
      <trkpt lat="42.499" lon="2.40921">
        <ele>1712</ele>
        <time>2024-09-18T09:16:48Z</time>
      </trkpt>
      <trkpt lat="42.49896" lon="2.40921">
        <ele>1712</ele>
        <time>2024-09-18T09:16:53Z</time>
      </trkpt>
      <trkpt lat="42.49893" lon="2.40922">
        <ele>1712</ele>
        <time>2024-09-18T09:16:55Z</time>
      </trkpt>
      <trkpt lat="42.4989" lon="2.40925">
        <ele>1710</ele>
        <time>2024-09-18T09:16:59Z</time>
      </trkpt>
      <trkpt lat="42.49887" lon="2.40925">
        <ele>1711</ele>
        <time>2024-09-18T09:17:02Z</time>
      </trkpt>
      <trkpt lat="42.49884" lon="2.40926">
        <ele>1711</ele>
        <time>2024-09-18T09:17:04Z</time>
      </trkpt>
      <trkpt lat="42.49881" lon="2.40928">
        <ele>1712</ele>
        <time>2024-09-18T09:17:07Z</time>
      </trkpt>
      <trkpt lat="42.49878" lon="2.4093">
        <ele>1713</ele>
        <time>2024-09-18T09:17:09Z</time>
      </trkpt>
      <trkpt lat="42.49875" lon="2.40931">
        <ele>1710</ele>
        <time>2024-09-18T09:17:12Z</time>
      </trkpt>
      <trkpt lat="42.49872" lon="2.40932">
        <ele>1709</ele>
        <time>2024-09-18T09:17:15Z</time>
      </trkpt>
      <trkpt lat="42.49869" lon="2.40934">
        <ele>1710</ele>
        <time>2024-09-18T09:17:18Z</time>
      </trkpt>
      <trkpt lat="42.49867" lon="2.40937">
        <ele>1711</ele>
        <time>2024-09-18T09:17:21Z</time>
      </trkpt>
      <trkpt lat="42.49864" lon="2.40939">
        <ele>1712</ele>
        <time>2024-09-18T09:17:23Z</time>
      </trkpt>
      <trkpt lat="42.4986" lon="2.4094">
        <ele>1713</ele>
        <time>2024-09-18T09:17:28Z</time>
      </trkpt>
      <trkpt lat="42.49857" lon="2.40942">
        <ele>1715</ele>
        <time>2024-09-18T09:17:31Z</time>
      </trkpt>
      <trkpt lat="42.49854" lon="2.40943">
        <ele>1714</ele>
        <time>2024-09-18T09:17:35Z</time>
      </trkpt>
      <trkpt lat="42.49851" lon="2.40945">
        <ele>1714</ele>
        <time>2024-09-18T09:17:38Z</time>
      </trkpt>
      <trkpt lat="42.49848" lon="2.40947">
        <ele>1713</ele>
        <time>2024-09-18T09:17:41Z</time>
      </trkpt>
      <trkpt lat="42.49845" lon="2.40949">
        <ele>1714</ele>
        <time>2024-09-18T09:17:43Z</time>
      </trkpt>
      <trkpt lat="42.49842" lon="2.40952">
        <ele>1714</ele>
        <time>2024-09-18T09:17:46Z</time>
      </trkpt>
      <trkpt lat="42.49839" lon="2.40954">
        <ele>1712</ele>
        <time>2024-09-18T09:17:50Z</time>
      </trkpt>
      <trkpt lat="42.49837" lon="2.40957">
        <ele>1712</ele>
        <time>2024-09-18T09:17:53Z</time>
      </trkpt>
      <trkpt lat="42.49835" lon="2.4096">
        <ele>1711</ele>
        <time>2024-09-18T09:17:56Z</time>
      </trkpt>
      <trkpt lat="42.49833" lon="2.40963">
        <ele>1711</ele>
        <time>2024-09-18T09:17:58Z</time>
      </trkpt>
      <trkpt lat="42.4983" lon="2.40965">
        <ele>1708</ele>
        <time>2024-09-18T09:18:01Z</time>
      </trkpt>
      <trkpt lat="42.49828" lon="2.40967">
        <ele>1708</ele>
        <time>2024-09-18T09:18:03Z</time>
      </trkpt>
      <trkpt lat="42.49826" lon="2.4097">
        <ele>1709</ele>
        <time>2024-09-18T09:18:06Z</time>
      </trkpt>
      <trkpt lat="42.49824" lon="2.40973">
        <ele>1708</ele>
        <time>2024-09-18T09:18:09Z</time>
      </trkpt>
      <trkpt lat="42.49822" lon="2.40977">
        <ele>1707</ele>
        <time>2024-09-18T09:18:11Z</time>
      </trkpt>
      <trkpt lat="42.4982" lon="2.40982">
        <ele>1709</ele>
        <time>2024-09-18T09:18:15Z</time>
      </trkpt>
      <trkpt lat="42.49818" lon="2.40985">
        <ele>1709</ele>
        <time>2024-09-18T09:18:18Z</time>
      </trkpt>
      <trkpt lat="42.49816" lon="2.40989">
        <ele>1708</ele>
        <time>2024-09-18T09:18:22Z</time>
      </trkpt>
      <trkpt lat="42.49813" lon="2.40991">
        <ele>1708</ele>
        <time>2024-09-18T09:18:24Z</time>
      </trkpt>
      <trkpt lat="42.49811" lon="2.40993">
        <ele>1709</ele>
        <time>2024-09-18T09:18:27Z</time>
      </trkpt>
      <trkpt lat="42.49808" lon="2.40995">
        <ele>1709</ele>
        <time>2024-09-18T09:18:30Z</time>
      </trkpt>
      <trkpt lat="42.49805" lon="2.40999">
        <ele>1710</ele>
        <time>2024-09-18T09:18:33Z</time>
      </trkpt>
      <trkpt lat="42.49804" lon="2.41003">
        <ele>1709</ele>
        <time>2024-09-18T09:18:35Z</time>
      </trkpt>
      <trkpt lat="42.49802" lon="2.41006">
        <ele>1710</ele>
        <time>2024-09-18T09:18:39Z</time>
      </trkpt>
      <trkpt lat="42.498" lon="2.41009">
        <ele>1708</ele>
        <time>2024-09-18T09:18:43Z</time>
      </trkpt>
      <trkpt lat="42.49798" lon="2.41012">
        <ele>1708</ele>
        <time>2024-09-18T09:18:46Z</time>
      </trkpt>
      <trkpt lat="42.49796" lon="2.41016">
        <ele>1707</ele>
        <time>2024-09-18T09:18:50Z</time>
      </trkpt>
      <trkpt lat="42.49793" lon="2.41019">
        <ele>1707</ele>
        <time>2024-09-18T09:18:54Z</time>
      </trkpt>
      <trkpt lat="42.4979" lon="2.41022">
        <ele>1706</ele>
        <time>2024-09-18T09:18:57Z</time>
      </trkpt>
      <trkpt lat="42.49788" lon="2.41026">
        <ele>1707</ele>
        <time>2024-09-18T09:18:59Z</time>
      </trkpt>
      <trkpt lat="42.49786" lon="2.41028">
        <ele>1707</ele>
        <time>2024-09-18T09:19:02Z</time>
      </trkpt>
      <trkpt lat="42.49784" lon="2.41032">
        <ele>1707</ele>
        <time>2024-09-18T09:19:05Z</time>
      </trkpt>
      <trkpt lat="42.4978" lon="2.41036">
        <ele>1707</ele>
        <time>2024-09-18T09:19:10Z</time>
      </trkpt>
      <trkpt lat="42.4978" lon="2.41039">
        <ele>1708</ele>
        <time>2024-09-18T09:19:13Z</time>
      </trkpt>
      <trkpt lat="42.49781" lon="2.41042">
        <ele>1707</ele>
        <time>2024-09-18T09:19:17Z</time>
      </trkpt>
      <trkpt lat="42.4978" lon="2.41044">
        <ele>1706</ele>
        <time>2024-09-18T09:19:20Z</time>
      </trkpt>
      <trkpt lat="42.49778" lon="2.41046">
        <ele>1705</ele>
        <time>2024-09-18T09:19:23Z</time>
      </trkpt>
      <trkpt lat="42.49776" lon="2.41049">
        <ele>1705</ele>
        <time>2024-09-18T09:19:25Z</time>
      </trkpt>
      <trkpt lat="42.49774" lon="2.41052">
        <ele>1705</ele>
        <time>2024-09-18T09:19:27Z</time>
      </trkpt>
      <trkpt lat="42.49772" lon="2.41054">
        <ele>1705</ele>
        <time>2024-09-18T09:19:29Z</time>
      </trkpt>
      <trkpt lat="42.49769" lon="2.41055">
        <ele>1706</ele>
        <time>2024-09-18T09:19:31Z</time>
      </trkpt>
      <trkpt lat="42.49768" lon="2.41058">
        <ele>1707</ele>
        <time>2024-09-18T09:19:34Z</time>
      </trkpt>
      <trkpt lat="42.49766" lon="2.41061">
        <ele>1706</ele>
        <time>2024-09-18T09:19:38Z</time>
      </trkpt>
      <trkpt lat="42.49765" lon="2.41064">
        <ele>1707</ele>
        <time>2024-09-18T09:19:40Z</time>
      </trkpt>
      <trkpt lat="42.49762" lon="2.41067">
        <ele>1706</ele>
        <time>2024-09-18T09:19:43Z</time>
      </trkpt>
      <trkpt lat="42.49761" lon="2.41071">
        <ele>1707</ele>
        <time>2024-09-18T09:19:46Z</time>
      </trkpt>
      <trkpt lat="42.49761" lon="2.41076">
        <ele>1706</ele>
        <time>2024-09-18T09:19:48Z</time>
      </trkpt>
      <trkpt lat="42.4976" lon="2.4108">
        <ele>1707</ele>
        <time>2024-09-18T09:19:51Z</time>
      </trkpt>
      <trkpt lat="42.49757" lon="2.41083">
        <ele>1706</ele>
        <time>2024-09-18T09:19:54Z</time>
      </trkpt>
      <trkpt lat="42.49755" lon="2.41085">
        <ele>1706</ele>
        <time>2024-09-18T09:19:56Z</time>
      </trkpt>
      <trkpt lat="42.49752" lon="2.41089">
        <ele>1706</ele>
        <time>2024-09-18T09:19:59Z</time>
      </trkpt>
      <trkpt lat="42.4975" lon="2.41093">
        <ele>1706</ele>
        <time>2024-09-18T09:20:02Z</time>
      </trkpt>
      <trkpt lat="42.49749" lon="2.41098">
        <ele>1706</ele>
        <time>2024-09-18T09:20:05Z</time>
      </trkpt>
      <trkpt lat="42.49747" lon="2.411">
        <ele>1706</ele>
        <time>2024-09-18T09:20:07Z</time>
      </trkpt>
      <trkpt lat="42.49744" lon="2.41103">
        <ele>1704</ele>
        <time>2024-09-18T09:20:10Z</time>
      </trkpt>
      <trkpt lat="42.49741" lon="2.41107">
        <ele>1704</ele>
        <time>2024-09-18T09:20:13Z</time>
      </trkpt>
      <trkpt lat="42.49739" lon="2.41111">
        <ele>1704</ele>
        <time>2024-09-18T09:20:15Z</time>
      </trkpt>
      <trkpt lat="42.49738" lon="2.41115">
        <ele>1704</ele>
        <time>2024-09-18T09:20:18Z</time>
      </trkpt>
      <trkpt lat="42.49737" lon="2.41119">
        <ele>1705</ele>
        <time>2024-09-18T09:20:21Z</time>
      </trkpt>
      <trkpt lat="42.49735" lon="2.41122">
        <ele>1704</ele>
        <time>2024-09-18T09:20:23Z</time>
      </trkpt>
      <trkpt lat="42.49733" lon="2.41126">
        <ele>1705</ele>
        <time>2024-09-18T09:20:26Z</time>
      </trkpt>
      <trkpt lat="42.49731" lon="2.4113">
        <ele>1704</ele>
        <time>2024-09-18T09:20:29Z</time>
      </trkpt>
      <trkpt lat="42.49728" lon="2.41134">
        <ele>1704</ele>
        <time>2024-09-18T09:20:33Z</time>
      </trkpt>
      <trkpt lat="42.49726" lon="2.41138">
        <ele>1704</ele>
        <time>2024-09-18T09:20:36Z</time>
      </trkpt>
      <trkpt lat="42.49723" lon="2.41142">
        <ele>1704</ele>
        <time>2024-09-18T09:20:39Z</time>
      </trkpt>
      <trkpt lat="42.49721" lon="2.41144">
        <ele>1704</ele>
        <time>2024-09-18T09:20:44Z</time>
      </trkpt>
      <trkpt lat="42.49718" lon="2.41145">
        <ele>1704</ele>
        <time>2024-09-18T09:20:47Z</time>
      </trkpt>
      <trkpt lat="42.49715" lon="2.41144">
        <ele>1705</ele>
        <time>2024-09-18T09:20:50Z</time>
      </trkpt>
      <trkpt lat="42.49714" lon="2.41142">
        <ele>1705</ele>
        <time>2024-09-18T09:20:54Z</time>
      </trkpt>
      <trkpt lat="42.49713" lon="2.41138">
        <ele>1704</ele>
        <time>2024-09-18T09:20:57Z</time>
      </trkpt>
      <trkpt lat="42.49711" lon="2.41135">
        <ele>1703</ele>
        <time>2024-09-18T09:20:59Z</time>
      </trkpt>
      <trkpt lat="42.49709" lon="2.41132">
        <ele>1703</ele>
        <time>2024-09-18T09:21:01Z</time>
      </trkpt>
      <trkpt lat="42.49706" lon="2.4113">
        <ele>1703</ele>
        <time>2024-09-18T09:21:04Z</time>
      </trkpt>
      <trkpt lat="42.49703" lon="2.41129">
        <ele>1703</ele>
        <time>2024-09-18T09:21:08Z</time>
      </trkpt>
      <trkpt lat="42.497" lon="2.41127">
        <ele>1704</ele>
        <time>2024-09-18T09:21:11Z</time>
      </trkpt>
      <trkpt lat="42.49696" lon="2.41126">
        <ele>1703</ele>
        <time>2024-09-18T09:21:14Z</time>
      </trkpt>
      <trkpt lat="42.49693" lon="2.41124">
        <ele>1703</ele>
        <time>2024-09-18T09:21:19Z</time>
      </trkpt>
      <trkpt lat="42.49691" lon="2.41122">
        <ele>1703</ele>
        <time>2024-09-18T09:21:22Z</time>
      </trkpt>
      <trkpt lat="42.49688" lon="2.41121">
        <ele>1703</ele>
        <time>2024-09-18T09:21:24Z</time>
      </trkpt>
      <trkpt lat="42.49685" lon="2.4112">
        <ele>1702</ele>
        <time>2024-09-18T09:21:27Z</time>
      </trkpt>
      <trkpt lat="42.49682" lon="2.41118">
        <ele>1701</ele>
        <time>2024-09-18T09:21:31Z</time>
      </trkpt>
      <trkpt lat="42.49679" lon="2.41116">
        <ele>1701</ele>
        <time>2024-09-18T09:21:34Z</time>
      </trkpt>
      <trkpt lat="42.49676" lon="2.41114">
        <ele>1700</ele>
        <time>2024-09-18T09:21:37Z</time>
      </trkpt>
      <trkpt lat="42.49673" lon="2.41112">
        <ele>1700</ele>
        <time>2024-09-18T09:21:40Z</time>
      </trkpt>
      <trkpt lat="42.4967" lon="2.41111">
        <ele>1700</ele>
        <time>2024-09-18T09:21:43Z</time>
      </trkpt>
      <trkpt lat="42.49667" lon="2.41109">
        <ele>1700</ele>
        <time>2024-09-18T09:21:46Z</time>
      </trkpt>
      <trkpt lat="42.49665" lon="2.41106">
        <ele>1700</ele>
        <time>2024-09-18T09:21:50Z</time>
      </trkpt>
      <trkpt lat="42.49663" lon="2.41104">
        <ele>1702</ele>
        <time>2024-09-18T09:21:55Z</time>
      </trkpt>
      <trkpt lat="42.4966" lon="2.41102">
        <ele>1703</ele>
        <time>2024-09-18T09:21:58Z</time>
      </trkpt>
      <trkpt lat="42.49657" lon="2.411">
        <ele>1702</ele>
        <time>2024-09-18T09:22:02Z</time>
      </trkpt>
      <trkpt lat="42.49654" lon="2.41099">
        <ele>1701</ele>
        <time>2024-09-18T09:22:05Z</time>
      </trkpt>
      <trkpt lat="42.49651" lon="2.41097">
        <ele>1701</ele>
        <time>2024-09-18T09:22:09Z</time>
      </trkpt>
      <trkpt lat="42.49649" lon="2.41094">
        <ele>1702</ele>
        <time>2024-09-18T09:22:12Z</time>
      </trkpt>
      <trkpt lat="42.49646" lon="2.41091">
        <ele>1701</ele>
        <time>2024-09-18T09:22:14Z</time>
      </trkpt>
      <trkpt lat="42.49644" lon="2.41089">
        <ele>1701</ele>
        <time>2024-09-18T09:22:17Z</time>
      </trkpt>
      <trkpt lat="42.49641" lon="2.41087">
        <ele>1701</ele>
        <time>2024-09-18T09:22:19Z</time>
      </trkpt>
      <trkpt lat="42.49639" lon="2.41084">
        <ele>1703</ele>
        <time>2024-09-18T09:22:22Z</time>
      </trkpt>
      <trkpt lat="42.49637" lon="2.41081">
        <ele>1702</ele>
        <time>2024-09-18T09:22:27Z</time>
      </trkpt>
      <trkpt lat="42.49636" lon="2.41077">
        <ele>1702</ele>
        <time>2024-09-18T09:22:28Z</time>
      </trkpt>
      <trkpt lat="42.49634" lon="2.41074">
        <ele>1702</ele>
        <time>2024-09-18T09:22:29Z</time>
      </trkpt>
      <trkpt lat="42.49632" lon="2.41072">
        <ele>1701</ele>
        <time>2024-09-18T09:22:33Z</time>
      </trkpt>
      <trkpt lat="42.49629" lon="2.41071">
        <ele>1701</ele>
        <time>2024-09-18T09:22:37Z</time>
      </trkpt>
      <trkpt lat="42.49626" lon="2.4107">
        <ele>1701</ele>
        <time>2024-09-18T09:22:39Z</time>
      </trkpt>
      <trkpt lat="42.49622" lon="2.41069">
        <ele>1700</ele>
        <time>2024-09-18T09:22:41Z</time>
      </trkpt>
      <trkpt lat="42.49618" lon="2.41069">
        <ele>1700</ele>
        <time>2024-09-18T09:22:44Z</time>
      </trkpt>
      <trkpt lat="42.49615" lon="2.41071">
        <ele>1701</ele>
        <time>2024-09-18T09:22:46Z</time>
      </trkpt>
      <trkpt lat="42.49612" lon="2.41069">
        <ele>1701</ele>
        <time>2024-09-18T09:22:48Z</time>
      </trkpt>
      <trkpt lat="42.49609" lon="2.41069">
        <ele>1699</ele>
        <time>2024-09-18T09:22:52Z</time>
      </trkpt>
      <trkpt lat="42.49607" lon="2.41066">
        <ele>1699</ele>
        <time>2024-09-18T09:22:55Z</time>
      </trkpt>
      <trkpt lat="42.49603" lon="2.41064">
        <ele>1698</ele>
        <time>2024-09-18T09:22:58Z</time>
      </trkpt>
      <trkpt lat="42.496" lon="2.41063">
        <ele>1699</ele>
        <time>2024-09-18T09:23:03Z</time>
      </trkpt>
      <trkpt lat="42.49597" lon="2.41061">
        <ele>1699</ele>
        <time>2024-09-18T09:23:05Z</time>
      </trkpt>
      <trkpt lat="42.49593" lon="2.41059">
        <ele>1699</ele>
        <time>2024-09-18T09:23:08Z</time>
      </trkpt>
      <trkpt lat="42.49589" lon="2.41059">
        <ele>1698</ele>
        <time>2024-09-18T09:23:11Z</time>
      </trkpt>
      <trkpt lat="42.49586" lon="2.4106">
        <ele>1698</ele>
        <time>2024-09-18T09:23:14Z</time>
      </trkpt>
      <trkpt lat="42.49582" lon="2.41061">
        <ele>1698</ele>
        <time>2024-09-18T09:23:16Z</time>
      </trkpt>
      <trkpt lat="42.49579" lon="2.41062">
        <ele>1697</ele>
        <time>2024-09-18T09:23:18Z</time>
      </trkpt>
      <trkpt lat="42.49576" lon="2.41064">
        <ele>1697</ele>
        <time>2024-09-18T09:23:21Z</time>
      </trkpt>
      <trkpt lat="42.49573" lon="2.41063">
        <ele>1697</ele>
        <time>2024-09-18T09:23:24Z</time>
      </trkpt>
      <trkpt lat="42.4957" lon="2.41064">
        <ele>1698</ele>
        <time>2024-09-18T09:23:27Z</time>
      </trkpt>
      <trkpt lat="42.49567" lon="2.41064">
        <ele>1697</ele>
        <time>2024-09-18T09:23:29Z</time>
      </trkpt>
      <trkpt lat="42.49564" lon="2.41065">
        <ele>1697</ele>
        <time>2024-09-18T09:23:31Z</time>
      </trkpt>
      <trkpt lat="42.49561" lon="2.41065">
        <ele>1696</ele>
        <time>2024-09-18T09:23:33Z</time>
      </trkpt>
      <trkpt lat="42.49558" lon="2.41065">
        <ele>1696</ele>
        <time>2024-09-18T09:23:37Z</time>
      </trkpt>
      <trkpt lat="42.49554" lon="2.41066">
        <ele>1696</ele>
        <time>2024-09-18T09:23:40Z</time>
      </trkpt>
      <trkpt lat="42.49551" lon="2.41066">
        <ele>1695</ele>
        <time>2024-09-18T09:23:45Z</time>
      </trkpt>
      <trkpt lat="42.49547" lon="2.41066">
        <ele>1697</ele>
        <time>2024-09-18T09:23:48Z</time>
      </trkpt>
      <trkpt lat="42.49544" lon="2.41068">
        <ele>1695</ele>
        <time>2024-09-18T09:23:51Z</time>
      </trkpt>
      <trkpt lat="42.49541" lon="2.41071">
        <ele>1696</ele>
        <time>2024-09-18T09:23:59Z</time>
      </trkpt>
      <trkpt lat="42.49538" lon="2.41073">
        <ele>1694</ele>
        <time>2024-09-18T09:24:03Z</time>
      </trkpt>
      <trkpt lat="42.49535" lon="2.41073">
        <ele>1693</ele>
        <time>2024-09-18T09:24:07Z</time>
      </trkpt>
      <trkpt lat="42.49531" lon="2.41073">
        <ele>1693</ele>
        <time>2024-09-18T09:24:10Z</time>
      </trkpt>
      <trkpt lat="42.49527" lon="2.41073">
        <ele>1694</ele>
        <time>2024-09-18T09:24:15Z</time>
      </trkpt>
      <trkpt lat="42.49523" lon="2.41074">
        <ele>1692</ele>
        <time>2024-09-18T09:24:17Z</time>
      </trkpt>
      <trkpt lat="42.4952" lon="2.41076">
        <ele>1692</ele>
        <time>2024-09-18T09:24:18Z</time>
      </trkpt>
      <trkpt lat="42.49518" lon="2.41079">
        <ele>1693</ele>
        <time>2024-09-18T09:24:18Z</time>
      </trkpt>
      <trkpt lat="42.49515" lon="2.41081">
        <ele>1692</ele>
        <time>2024-09-18T09:24:22Z</time>
      </trkpt>
      <trkpt lat="42.49513" lon="2.41084">
        <ele>1692</ele>
        <time>2024-09-18T09:24:24Z</time>
      </trkpt>
      <trkpt lat="42.4951" lon="2.41085">
        <ele>1691</ele>
        <time>2024-09-18T09:24:27Z</time>
      </trkpt>
      <trkpt lat="42.49508" lon="2.41088">
        <ele>1691</ele>
        <time>2024-09-18T09:24:29Z</time>
      </trkpt>
      <trkpt lat="42.49505" lon="2.41091">
        <ele>1690</ele>
        <time>2024-09-18T09:24:32Z</time>
      </trkpt>
      <trkpt lat="42.49502" lon="2.41094">
        <ele>1689</ele>
        <time>2024-09-18T09:24:35Z</time>
      </trkpt>
      <trkpt lat="42.495" lon="2.41097">
        <ele>1688</ele>
        <time>2024-09-18T09:24:48Z</time>
      </trkpt>
      <trkpt lat="42.49498" lon="2.411">
        <ele>1689</ele>
        <time>2024-09-18T09:24:50Z</time>
      </trkpt>
      <trkpt lat="42.49495" lon="2.41102">
        <ele>1688</ele>
        <time>2024-09-18T09:24:56Z</time>
      </trkpt>
      <trkpt lat="42.49492" lon="2.41105">
        <ele>1689</ele>
        <time>2024-09-18T09:24:59Z</time>
      </trkpt>
      <trkpt lat="42.49489" lon="2.41106">
        <ele>1688</ele>
        <time>2024-09-18T09:25:02Z</time>
      </trkpt>
      <trkpt lat="42.49486" lon="2.41109">
        <ele>1688</ele>
        <time>2024-09-18T09:25:05Z</time>
      </trkpt>
      <trkpt lat="42.49484" lon="2.41113">
        <ele>1688</ele>
        <time>2024-09-18T09:25:10Z</time>
      </trkpt>
      <trkpt lat="42.49481" lon="2.41115">
        <ele>1688</ele>
        <time>2024-09-18T09:25:14Z</time>
      </trkpt>
      <trkpt lat="42.49478" lon="2.41117">
        <ele>1688</ele>
        <time>2024-09-18T09:25:18Z</time>
      </trkpt>
      <trkpt lat="42.49475" lon="2.41119">
        <ele>1689</ele>
        <time>2024-09-18T09:25:21Z</time>
      </trkpt>
      <trkpt lat="42.49471" lon="2.4112">
        <ele>1690</ele>
        <time>2024-09-18T09:25:24Z</time>
      </trkpt>
      <trkpt lat="42.49468" lon="2.41121">
        <ele>1688</ele>
        <time>2024-09-18T09:25:29Z</time>
      </trkpt>
      <trkpt lat="42.49466" lon="2.41123">
        <ele>1689</ele>
        <time>2024-09-18T09:25:33Z</time>
      </trkpt>
      <trkpt lat="42.49462" lon="2.41125">
        <ele>1688</ele>
        <time>2024-09-18T09:25:36Z</time>
      </trkpt>
      <trkpt lat="42.49459" lon="2.41127">
        <ele>1688</ele>
        <time>2024-09-18T09:25:38Z</time>
      </trkpt>
      <trkpt lat="42.49457" lon="2.4113">
        <ele>1690</ele>
        <time>2024-09-18T09:25:43Z</time>
      </trkpt>
      <trkpt lat="42.49455" lon="2.4113">
        <ele>1689</ele>
        <time>2024-09-18T09:25:45Z</time>
      </trkpt>
      <trkpt lat="42.49454" lon="2.41132">
        <ele>1690</ele>
        <time>2024-09-18T09:25:49Z</time>
      </trkpt>
      <trkpt lat="42.49451" lon="2.41137">
        <ele>1691</ele>
        <time>2024-09-18T09:25:52Z</time>
      </trkpt>
      <trkpt lat="42.49449" lon="2.41142">
        <ele>1690</ele>
        <time>2024-09-18T09:25:56Z</time>
      </trkpt>
      <trkpt lat="42.49449" lon="2.41146">
        <ele>1688</ele>
        <time>2024-09-18T09:26:00Z</time>
      </trkpt>
      <trkpt lat="42.4945" lon="2.41151">
        <ele>1687</ele>
        <time>2024-09-18T09:26:04Z</time>
      </trkpt>
      <trkpt lat="42.4945" lon="2.41155">
        <ele>1687</ele>
        <time>2024-09-18T09:26:09Z</time>
      </trkpt>
      <trkpt lat="42.4945" lon="2.4116">
        <ele>1688</ele>
        <time>2024-09-18T09:26:12Z</time>
      </trkpt>
      <trkpt lat="42.49451" lon="2.41162">
        <ele>1688</ele>
        <time>2024-09-18T09:26:17Z</time>
      </trkpt>
      <trkpt lat="42.49454" lon="2.41164">
        <ele>1688</ele>
        <time>2024-09-18T09:26:18Z</time>
      </trkpt>
      <trkpt lat="42.49457" lon="2.41165">
        <ele>1689</ele>
        <time>2024-09-18T09:26:22Z</time>
      </trkpt>
      <trkpt lat="42.4946" lon="2.41167">
        <ele>1689</ele>
        <time>2024-09-18T09:26:26Z</time>
      </trkpt>
      <trkpt lat="42.49463" lon="2.41169">
        <ele>1689</ele>
        <time>2024-09-18T09:26:31Z</time>
      </trkpt>
      <trkpt lat="42.49465" lon="2.4117">
        <ele>1691</ele>
        <time>2024-09-18T09:26:35Z</time>
      </trkpt>
      <trkpt lat="42.49468" lon="2.41171">
        <ele>1691</ele>
        <time>2024-09-18T09:26:39Z</time>
      </trkpt>
      <trkpt lat="42.49471" lon="2.41172">
        <ele>1689</ele>
        <time>2024-09-18T09:26:43Z</time>
      </trkpt>
      <trkpt lat="42.49474" lon="2.41172">
        <ele>1689</ele>
        <time>2024-09-18T09:26:48Z</time>
      </trkpt>
      <trkpt lat="42.49477" lon="2.41172">
        <ele>1690</ele>
        <time>2024-09-18T09:26:53Z</time>
      </trkpt>
      <trkpt lat="42.4948" lon="2.41172">
        <ele>1691</ele>
        <time>2024-09-18T09:26:56Z</time>
      </trkpt>
      <trkpt lat="42.49483" lon="2.41173">
        <ele>1691</ele>
        <time>2024-09-18T09:26:59Z</time>
      </trkpt>
      <trkpt lat="42.49486" lon="2.41172">
        <ele>1692</ele>
        <time>2024-09-18T09:27:04Z</time>
      </trkpt>
      <trkpt lat="42.4949" lon="2.41171">
        <ele>1692</ele>
        <time>2024-09-18T09:27:08Z</time>
      </trkpt>
      <trkpt lat="42.49493" lon="2.4117">
        <ele>1692</ele>
        <time>2024-09-18T09:27:12Z</time>
      </trkpt>
      <trkpt lat="42.49496" lon="2.4117">
        <ele>1693</ele>
        <time>2024-09-18T09:27:15Z</time>
      </trkpt>
      <trkpt lat="42.49499" lon="2.41169">
        <ele>1694</ele>
        <time>2024-09-18T09:27:18Z</time>
      </trkpt>
      <trkpt lat="42.49501" lon="2.41168">
        <ele>1694</ele>
        <time>2024-09-18T09:27:23Z</time>
      </trkpt>
      <trkpt lat="42.49504" lon="2.41167">
        <ele>1694</ele>
        <time>2024-09-18T09:27:26Z</time>
      </trkpt>
      <trkpt lat="42.49507" lon="2.41166">
        <ele>1694</ele>
        <time>2024-09-18T09:27:28Z</time>
      </trkpt>
      <trkpt lat="42.4951" lon="2.41166">
        <ele>1694</ele>
        <time>2024-09-18T09:27:34Z</time>
      </trkpt>
      <trkpt lat="42.49512" lon="2.41168">
        <ele>1696</ele>
        <time>2024-09-18T09:27:37Z</time>
      </trkpt>
      <trkpt lat="42.49515" lon="2.4117">
        <ele>1696</ele>
        <time>2024-09-18T09:27:42Z</time>
      </trkpt>
      <trkpt lat="42.49517" lon="2.41171">
        <ele>1696</ele>
        <time>2024-09-18T09:27:44Z</time>
      </trkpt>
      <trkpt lat="42.49521" lon="2.41173">
        <ele>1697</ele>
        <time>2024-09-18T09:27:48Z</time>
      </trkpt>
      <trkpt lat="42.49524" lon="2.41174">
        <ele>1698</ele>
        <time>2024-09-18T09:27:53Z</time>
      </trkpt>
      <trkpt lat="42.49526" lon="2.41175">
        <ele>1698</ele>
        <time>2024-09-18T09:27:58Z</time>
      </trkpt>
      <trkpt lat="42.4953" lon="2.41176">
        <ele>1699</ele>
        <time>2024-09-18T09:28:00Z</time>
      </trkpt>
      <trkpt lat="42.49531" lon="2.41178">
        <ele>1698</ele>
        <time>2024-09-18T09:28:04Z</time>
      </trkpt>
      <trkpt lat="42.49532" lon="2.41181">
        <ele>1698</ele>
        <time>2024-09-18T09:28:07Z</time>
      </trkpt>
      <trkpt lat="42.49534" lon="2.41184">
        <ele>1699</ele>
        <time>2024-09-18T09:28:10Z</time>
      </trkpt>
      <trkpt lat="42.49536" lon="2.41186">
        <ele>1699</ele>
        <time>2024-09-18T09:28:13Z</time>
      </trkpt>
      <trkpt lat="42.49539" lon="2.41187">
        <ele>1700</ele>
        <time>2024-09-18T09:28:16Z</time>
      </trkpt>
      <trkpt lat="42.49541" lon="2.4119">
        <ele>1701</ele>
        <time>2024-09-18T09:28:20Z</time>
      </trkpt>
      <trkpt lat="42.49542" lon="2.41194">
        <ele>1700</ele>
        <time>2024-09-18T09:28:22Z</time>
      </trkpt>
      <trkpt lat="42.49543" lon="2.41197">
        <ele>1699</ele>
        <time>2024-09-18T09:28:27Z</time>
      </trkpt>
      <trkpt lat="42.49543" lon="2.41202">
        <ele>1699</ele>
        <time>2024-09-18T09:28:30Z</time>
      </trkpt>
      <trkpt lat="42.49544" lon="2.41205">
        <ele>1701</ele>
        <time>2024-09-18T09:28:34Z</time>
      </trkpt>
      <trkpt lat="42.49544" lon="2.4121">
        <ele>1701</ele>
        <time>2024-09-18T09:28:40Z</time>
      </trkpt>
      <trkpt lat="42.49545" lon="2.41215">
        <ele>1701</ele>
        <time>2024-09-18T09:28:45Z</time>
      </trkpt>
      <trkpt lat="42.49545" lon="2.41219">
        <ele>1703</ele>
        <time>2024-09-18T09:28:49Z</time>
      </trkpt>
      <trkpt lat="42.49547" lon="2.41223">
        <ele>1702</ele>
        <time>2024-09-18T09:28:52Z</time>
      </trkpt>
      <trkpt lat="42.49548" lon="2.41227">
        <ele>1703</ele>
        <time>2024-09-18T09:28:55Z</time>
      </trkpt>
      <trkpt lat="42.4955" lon="2.4123">
        <ele>1703</ele>
        <time>2024-09-18T09:28:59Z</time>
      </trkpt>
      <trkpt lat="42.4955" lon="2.41235">
        <ele>1704</ele>
        <time>2024-09-18T09:29:04Z</time>
      </trkpt>
      <trkpt lat="42.49552" lon="2.41238">
        <ele>1705</ele>
        <time>2024-09-18T09:29:06Z</time>
      </trkpt>
      <trkpt lat="42.49553" lon="2.41241">
        <ele>1704</ele>
        <time>2024-09-18T09:29:09Z</time>
      </trkpt>
      <trkpt lat="42.49554" lon="2.41245">
        <ele>1706</ele>
        <time>2024-09-18T09:29:15Z</time>
      </trkpt>
      <trkpt lat="42.49554" lon="2.41249">
        <ele>1706</ele>
        <time>2024-09-18T09:29:18Z</time>
      </trkpt>
      <trkpt lat="42.49554" lon="2.41253">
        <ele>1704</ele>
        <time>2024-09-18T09:29:22Z</time>
      </trkpt>
      <trkpt lat="42.49555" lon="2.41257">
        <ele>1707</ele>
        <time>2024-09-18T09:29:26Z</time>
      </trkpt>
      <trkpt lat="42.49556" lon="2.41261">
        <ele>1707</ele>
        <time>2024-09-18T09:29:29Z</time>
      </trkpt>
      <trkpt lat="42.49558" lon="2.41265">
        <ele>1708</ele>
        <time>2024-09-18T09:29:34Z</time>
      </trkpt>
      <trkpt lat="42.49557" lon="2.41269">
        <ele>1709</ele>
        <time>2024-09-18T09:29:39Z</time>
      </trkpt>
      <trkpt lat="42.49557" lon="2.41272">
        <ele>1707</ele>
        <time>2024-09-18T09:29:43Z</time>
      </trkpt>
      <trkpt lat="42.49557" lon="2.41276">
        <ele>1708</ele>
        <time>2024-09-18T09:29:46Z</time>
      </trkpt>
      <trkpt lat="42.49558" lon="2.4128">
        <ele>1708</ele>
        <time>2024-09-18T09:29:49Z</time>
      </trkpt>
      <trkpt lat="42.49559" lon="2.41284">
        <ele>1708</ele>
        <time>2024-09-18T09:29:52Z</time>
      </trkpt>
      <trkpt lat="42.4956" lon="2.41288">
        <ele>1709</ele>
        <time>2024-09-18T09:29:58Z</time>
      </trkpt>
      <trkpt lat="42.4956" lon="2.41293">
        <ele>1710</ele>
        <time>2024-09-18T09:30:03Z</time>
      </trkpt>
      <trkpt lat="42.49561" lon="2.41297">
        <ele>1712</ele>
        <time>2024-09-18T09:30:21Z</time>
      </trkpt>
      <trkpt lat="42.49562" lon="2.41301">
        <ele>1712</ele>
        <time>2024-09-18T09:30:23Z</time>
      </trkpt>
      <trkpt lat="42.49563" lon="2.41305">
        <ele>1712</ele>
        <time>2024-09-18T09:30:27Z</time>
      </trkpt>
      <trkpt lat="42.49563" lon="2.41309">
        <ele>1713</ele>
        <time>2024-09-18T09:30:33Z</time>
      </trkpt>
      <trkpt lat="42.49563" lon="2.41313">
        <ele>1713</ele>
        <time>2024-09-18T09:30:35Z</time>
      </trkpt>
      <trkpt lat="42.49564" lon="2.41318">
        <ele>1712</ele>
        <time>2024-09-18T09:30:47Z</time>
      </trkpt>
      <trkpt lat="42.49562" lon="2.4132">
        <ele>1714</ele>
        <time>2024-09-18T09:30:53Z</time>
      </trkpt>
      <trkpt lat="42.49564" lon="2.41321">
        <ele>1717</ele>
        <time>2024-09-18T09:31:04Z</time>
      </trkpt>
      <trkpt lat="42.49564" lon="2.41323">
        <ele>1718</ele>
        <time>2024-09-18T09:31:12Z</time>
      </trkpt>
      <trkpt lat="42.49566" lon="2.41325">
        <ele>1719</ele>
        <time>2024-09-18T09:31:27Z</time>
      </trkpt>
      <trkpt lat="42.49569" lon="2.41323">
        <ele>1720</ele>
        <time>2024-09-18T09:31:32Z</time>
      </trkpt>
      <trkpt lat="42.49572" lon="2.41321">
        <ele>1718</ele>
        <time>2024-09-18T09:31:43Z</time>
      </trkpt>
      <trkpt lat="42.49572" lon="2.41323">
        <ele>1717</ele>
        <time>2024-09-18T09:31:50Z</time>
      </trkpt>
      <trkpt lat="42.4957" lon="2.41321">
        <ele>1715</ele>
        <time>2024-09-18T09:32:24Z</time>
      </trkpt>
      <trkpt lat="42.49567" lon="2.41319">
        <ele>1713</ele>
        <time>2024-09-18T09:32:30Z</time>
      </trkpt>
      <trkpt lat="42.49566" lon="2.41321">
        <ele>1712</ele>
        <time>2024-09-18T09:32:36Z</time>
      </trkpt>
      <trkpt lat="42.49565" lon="2.41324">
        <ele>1713</ele>
        <time>2024-09-18T09:32:39Z</time>
      </trkpt>
      <trkpt lat="42.49566" lon="2.41328">
        <ele>1712</ele>
        <time>2024-09-18T09:32:40Z</time>
      </trkpt>
      <trkpt lat="42.49566" lon="2.41332">
        <ele>1712</ele>
        <time>2024-09-18T09:32:43Z</time>
      </trkpt>
      <trkpt lat="42.49567" lon="2.41335">
        <ele>1712</ele>
        <time>2024-09-18T09:32:47Z</time>
      </trkpt>
      <trkpt lat="42.49568" lon="2.41339">
        <ele>1714</ele>
        <time>2024-09-18T09:32:51Z</time>
      </trkpt>
      <trkpt lat="42.49569" lon="2.41343">
        <ele>1713</ele>
        <time>2024-09-18T09:32:54Z</time>
      </trkpt>
      <trkpt lat="42.4957" lon="2.41346">
        <ele>1714</ele>
        <time>2024-09-18T09:32:57Z</time>
      </trkpt>
      <trkpt lat="42.4957" lon="2.4135">
        <ele>1713</ele>
        <time>2024-09-18T09:33:01Z</time>
      </trkpt>
      <trkpt lat="42.49572" lon="2.41354">
        <ele>1714</ele>
        <time>2024-09-18T09:33:05Z</time>
      </trkpt>
      <trkpt lat="42.49573" lon="2.41358">
        <ele>1713</ele>
        <time>2024-09-18T09:33:08Z</time>
      </trkpt>
      <trkpt lat="42.49573" lon="2.41363">
        <ele>1712</ele>
        <time>2024-09-18T09:33:12Z</time>
      </trkpt>
      <trkpt lat="42.49573" lon="2.41367">
        <ele>1715</ele>
        <time>2024-09-18T09:33:16Z</time>
      </trkpt>
      <trkpt lat="42.49574" lon="2.41371">
        <ele>1715</ele>
        <time>2024-09-18T09:33:20Z</time>
      </trkpt>
      <trkpt lat="42.49576" lon="2.41375">
        <ele>1717</ele>
        <time>2024-09-18T09:33:25Z</time>
      </trkpt>
      <trkpt lat="42.49577" lon="2.41379">
        <ele>1717</ele>
        <time>2024-09-18T09:33:29Z</time>
      </trkpt>
      <trkpt lat="42.49578" lon="2.41383">
        <ele>1719</ele>
        <time>2024-09-18T09:33:32Z</time>
      </trkpt>
      <trkpt lat="42.49578" lon="2.41387">
        <ele>1719</ele>
        <time>2024-09-18T09:33:36Z</time>
      </trkpt>
      <trkpt lat="42.4958" lon="2.4139">
        <ele>1719</ele>
        <time>2024-09-18T09:33:39Z</time>
      </trkpt>
      <trkpt lat="42.49582" lon="2.41394">
        <ele>1717</ele>
        <time>2024-09-18T09:33:41Z</time>
      </trkpt>
      <trkpt lat="42.49584" lon="2.41397">
        <ele>1718</ele>
        <time>2024-09-18T09:33:46Z</time>
      </trkpt>
      <trkpt lat="42.49586" lon="2.41401">
        <ele>1717</ele>
        <time>2024-09-18T09:33:50Z</time>
      </trkpt>
      <trkpt lat="42.49586" lon="2.41405">
        <ele>1720</ele>
        <time>2024-09-18T09:33:54Z</time>
      </trkpt>
      <trkpt lat="42.49586" lon="2.41409">
        <ele>1720</ele>
        <time>2024-09-18T09:33:57Z</time>
      </trkpt>
      <trkpt lat="42.49587" lon="2.41412">
        <ele>1720</ele>
        <time>2024-09-18T09:34:00Z</time>
      </trkpt>
      <trkpt lat="42.49589" lon="2.41416">
        <ele>1721</ele>
        <time>2024-09-18T09:34:06Z</time>
      </trkpt>
      <trkpt lat="42.49591" lon="2.41421">
        <ele>1723</ele>
        <time>2024-09-18T09:34:15Z</time>
      </trkpt>
      <trkpt lat="42.49593" lon="2.41425">
        <ele>1724</ele>
        <time>2024-09-18T09:34:18Z</time>
      </trkpt>
      <trkpt lat="42.49593" lon="2.4143">
        <ele>1724</ele>
        <time>2024-09-18T09:34:21Z</time>
      </trkpt>
      <trkpt lat="42.49592" lon="2.41435">
        <ele>1724</ele>
        <time>2024-09-18T09:34:28Z</time>
      </trkpt>
      <trkpt lat="42.49591" lon="2.41439">
        <ele>1723</ele>
        <time>2024-09-18T09:34:31Z</time>
      </trkpt>
      <trkpt lat="42.49591" lon="2.41443">
        <ele>1724</ele>
        <time>2024-09-18T09:34:34Z</time>
      </trkpt>
      <trkpt lat="42.49591" lon="2.41447">
        <ele>1724</ele>
        <time>2024-09-18T09:34:37Z</time>
      </trkpt>
      <trkpt lat="42.49592" lon="2.41451">
        <ele>1725</ele>
        <time>2024-09-18T09:34:42Z</time>
      </trkpt>
      <trkpt lat="42.49595" lon="2.41454">
        <ele>1725</ele>
        <time>2024-09-18T09:34:45Z</time>
      </trkpt>
      <trkpt lat="42.49596" lon="2.41457">
        <ele>1725</ele>
        <time>2024-09-18T09:34:48Z</time>
      </trkpt>
      <trkpt lat="42.49597" lon="2.4146">
        <ele>1725</ele>
        <time>2024-09-18T09:34:51Z</time>
      </trkpt>
      <trkpt lat="42.49599" lon="2.41463">
        <ele>1726</ele>
        <time>2024-09-18T09:34:54Z</time>
      </trkpt>
      <trkpt lat="42.49599" lon="2.41466">
        <ele>1727</ele>
        <time>2024-09-18T09:34:56Z</time>
      </trkpt>
      <trkpt lat="42.496" lon="2.41469">
        <ele>1728</ele>
        <time>2024-09-18T09:34:59Z</time>
      </trkpt>
      <trkpt lat="42.49601" lon="2.41472">
        <ele>1729</ele>
        <time>2024-09-18T09:35:01Z</time>
      </trkpt>
      <trkpt lat="42.49603" lon="2.41473">
        <ele>1730</ele>
        <time>2024-09-18T09:35:05Z</time>
      </trkpt>
      <trkpt lat="42.49606" lon="2.41475">
        <ele>1731</ele>
        <time>2024-09-18T09:35:08Z</time>
      </trkpt>
      <trkpt lat="42.49608" lon="2.41478">
        <ele>1731</ele>
        <time>2024-09-18T09:35:12Z</time>
      </trkpt>
      <trkpt lat="42.4961" lon="2.41478">
        <ele>1732</ele>
        <time>2024-09-18T09:35:15Z</time>
      </trkpt>
      <trkpt lat="42.49613" lon="2.4148">
        <ele>1732</ele>
        <time>2024-09-18T09:35:18Z</time>
      </trkpt>
      <trkpt lat="42.49614" lon="2.41483">
        <ele>1732</ele>
        <time>2024-09-18T09:35:20Z</time>
      </trkpt>
      <trkpt lat="42.49617" lon="2.41485">
        <ele>1732</ele>
        <time>2024-09-18T09:35:22Z</time>
      </trkpt>
      <trkpt lat="42.4962" lon="2.41488">
        <ele>1731</ele>
        <time>2024-09-18T09:35:25Z</time>
      </trkpt>
      <trkpt lat="42.4962" lon="2.41492">
        <ele>1732</ele>
        <time>2024-09-18T09:35:28Z</time>
      </trkpt>
      <trkpt lat="42.49622" lon="2.41495">
        <ele>1732</ele>
        <time>2024-09-18T09:35:34Z</time>
      </trkpt>
      <trkpt lat="42.49624" lon="2.41498">
        <ele>1733</ele>
        <time>2024-09-18T09:35:37Z</time>
      </trkpt>
      <trkpt lat="42.49626" lon="2.41502">
        <ele>1733</ele>
        <time>2024-09-18T09:35:42Z</time>
      </trkpt>
      <trkpt lat="42.49627" lon="2.41506">
        <ele>1734</ele>
        <time>2024-09-18T09:35:45Z</time>
      </trkpt>
      <trkpt lat="42.49629" lon="2.4151">
        <ele>1734</ele>
        <time>2024-09-18T09:35:48Z</time>
      </trkpt>
      <trkpt lat="42.49628" lon="2.41514">
        <ele>1734</ele>
        <time>2024-09-18T09:35:52Z</time>
      </trkpt>
      <trkpt lat="42.4963" lon="2.41518">
        <ele>1734</ele>
        <time>2024-09-18T09:35:55Z</time>
      </trkpt>
      <trkpt lat="42.49632" lon="2.41521">
        <ele>1735</ele>
        <time>2024-09-18T09:35:58Z</time>
      </trkpt>
      <trkpt lat="42.49635" lon="2.41523">
        <ele>1735</ele>
        <time>2024-09-18T09:36:02Z</time>
      </trkpt>
      <trkpt lat="42.49638" lon="2.41524">
        <ele>1734</ele>
        <time>2024-09-18T09:36:05Z</time>
      </trkpt>
      <trkpt lat="42.49641" lon="2.41526">
        <ele>1734</ele>
        <time>2024-09-18T09:36:07Z</time>
      </trkpt>
      <trkpt lat="42.49643" lon="2.41528">
        <ele>1734</ele>
        <time>2024-09-18T09:36:10Z</time>
      </trkpt>
      <trkpt lat="42.49644" lon="2.41532">
        <ele>1734</ele>
        <time>2024-09-18T09:36:14Z</time>
      </trkpt>
      <trkpt lat="42.49645" lon="2.41536">
        <ele>1735</ele>
        <time>2024-09-18T09:36:17Z</time>
      </trkpt>
      <trkpt lat="42.49646" lon="2.4154">
        <ele>1735</ele>
        <time>2024-09-18T09:36:21Z</time>
      </trkpt>
      <trkpt lat="42.49646" lon="2.41544">
        <ele>1735</ele>
        <time>2024-09-18T09:36:24Z</time>
      </trkpt>
      <trkpt lat="42.49649" lon="2.41545">
        <ele>1735</ele>
        <time>2024-09-18T09:36:26Z</time>
      </trkpt>
      <trkpt lat="42.49651" lon="2.41547">
        <ele>1735</ele>
        <time>2024-09-18T09:36:33Z</time>
      </trkpt>
      <trkpt lat="42.49654" lon="2.41548">
        <ele>1737</ele>
        <time>2024-09-18T09:36:37Z</time>
      </trkpt>
      <trkpt lat="42.49657" lon="2.41548">
        <ele>1739</ele>
        <time>2024-09-18T09:36:42Z</time>
      </trkpt>
      <trkpt lat="42.49659" lon="2.4155">
        <ele>1740</ele>
        <time>2024-09-18T09:36:44Z</time>
      </trkpt>
      <trkpt lat="42.49662" lon="2.41552">
        <ele>1739</ele>
        <time>2024-09-18T09:36:48Z</time>
      </trkpt>
      <trkpt lat="42.49664" lon="2.41555">
        <ele>1740</ele>
        <time>2024-09-18T09:36:52Z</time>
      </trkpt>
      <trkpt lat="42.49665" lon="2.41558">
        <ele>1742</ele>
        <time>2024-09-18T09:36:54Z</time>
      </trkpt>
      <trkpt lat="42.49667" lon="2.41561">
        <ele>1742</ele>
        <time>2024-09-18T09:36:58Z</time>
      </trkpt>
      <trkpt lat="42.49669" lon="2.41564">
        <ele>1741</ele>
        <time>2024-09-18T09:37:01Z</time>
      </trkpt>
      <trkpt lat="42.49671" lon="2.41567">
        <ele>1741</ele>
        <time>2024-09-18T09:37:04Z</time>
      </trkpt>
      <trkpt lat="42.49673" lon="2.41571">
        <ele>1741</ele>
        <time>2024-09-18T09:37:05Z</time>
      </trkpt>
      <trkpt lat="42.49674" lon="2.41571">
        <ele>1741</ele>
        <time>2024-09-18T09:37:07Z</time>
      </trkpt>
      <trkpt lat="42.49677" lon="2.41571">
        <ele>1742</ele>
        <time>2024-09-18T09:37:10Z</time>
      </trkpt>
      <trkpt lat="42.49679" lon="2.41574">
        <ele>1742</ele>
        <time>2024-09-18T09:37:16Z</time>
      </trkpt>
      <trkpt lat="42.49681" lon="2.41576">
        <ele>1742</ele>
        <time>2024-09-18T09:37:19Z</time>
      </trkpt>
      <trkpt lat="42.49684" lon="2.41577">
        <ele>1744</ele>
        <time>2024-09-18T09:37:24Z</time>
      </trkpt>
      <trkpt lat="42.49687" lon="2.41579">
        <ele>1744</ele>
        <time>2024-09-18T09:37:29Z</time>
      </trkpt>
      <trkpt lat="42.49689" lon="2.41582">
        <ele>1744</ele>
        <time>2024-09-18T09:37:34Z</time>
      </trkpt>
      <trkpt lat="42.49691" lon="2.41586">
        <ele>1744</ele>
        <time>2024-09-18T09:37:37Z</time>
      </trkpt>
      <trkpt lat="42.49692" lon="2.41589">
        <ele>1743</ele>
        <time>2024-09-18T09:37:40Z</time>
      </trkpt>
      <trkpt lat="42.49694" lon="2.41592">
        <ele>1745</ele>
        <time>2024-09-18T09:37:44Z</time>
      </trkpt>
      <trkpt lat="42.49696" lon="2.41593">
        <ele>1746</ele>
        <time>2024-09-18T09:37:46Z</time>
      </trkpt>
      <trkpt lat="42.49699" lon="2.41594">
        <ele>1746</ele>
        <time>2024-09-18T09:37:50Z</time>
      </trkpt>
      <trkpt lat="42.49702" lon="2.41596">
        <ele>1745</ele>
        <time>2024-09-18T09:37:53Z</time>
      </trkpt>
      <trkpt lat="42.49704" lon="2.41598">
        <ele>1746</ele>
        <time>2024-09-18T09:37:56Z</time>
      </trkpt>
      <trkpt lat="42.49707" lon="2.416">
        <ele>1748</ele>
        <time>2024-09-18T09:38:02Z</time>
      </trkpt>
      <trkpt lat="42.4971" lon="2.41602">
        <ele>1749</ele>
        <time>2024-09-18T09:38:08Z</time>
      </trkpt>
      <trkpt lat="42.49713" lon="2.41604">
        <ele>1750</ele>
        <time>2024-09-18T09:38:12Z</time>
      </trkpt>
      <trkpt lat="42.49716" lon="2.41607">
        <ele>1750</ele>
        <time>2024-09-18T09:38:15Z</time>
      </trkpt>
      <trkpt lat="42.49718" lon="2.4161">
        <ele>1750</ele>
        <time>2024-09-18T09:38:18Z</time>
      </trkpt>
      <trkpt lat="42.4972" lon="2.41613">
        <ele>1750</ele>
        <time>2024-09-18T09:38:23Z</time>
      </trkpt>
      <trkpt lat="42.49723" lon="2.41615">
        <ele>1750</ele>
        <time>2024-09-18T09:38:25Z</time>
      </trkpt>
      <trkpt lat="42.49726" lon="2.41617">
        <ele>1750</ele>
        <time>2024-09-18T09:38:32Z</time>
      </trkpt>
      <trkpt lat="42.49729" lon="2.41619">
        <ele>1751</ele>
        <time>2024-09-18T09:38:34Z</time>
      </trkpt>
      <trkpt lat="42.49732" lon="2.41622">
        <ele>1751</ele>
        <time>2024-09-18T09:38:37Z</time>
      </trkpt>
      <trkpt lat="42.49734" lon="2.41625">
        <ele>1752</ele>
        <time>2024-09-18T09:38:40Z</time>
      </trkpt>
      <trkpt lat="42.49735" lon="2.4163">
        <ele>1750</ele>
        <time>2024-09-18T09:38:44Z</time>
      </trkpt>
      <trkpt lat="42.49737" lon="2.41631">
        <ele>1750</ele>
        <time>2024-09-18T09:38:46Z</time>
      </trkpt>
      <trkpt lat="42.49739" lon="2.41632">
        <ele>1750</ele>
        <time>2024-09-18T09:38:50Z</time>
      </trkpt>
      <trkpt lat="42.49742" lon="2.41634">
        <ele>1749</ele>
        <time>2024-09-18T09:38:56Z</time>
      </trkpt>
      <trkpt lat="42.49744" lon="2.41637">
        <ele>1750</ele>
        <time>2024-09-18T09:38:59Z</time>
      </trkpt>
      <trkpt lat="42.49747" lon="2.41641">
        <ele>1751</ele>
        <time>2024-09-18T09:39:03Z</time>
      </trkpt>
      <trkpt lat="42.49748" lon="2.41645">
        <ele>1751</ele>
        <time>2024-09-18T09:39:06Z</time>
      </trkpt>
      <trkpt lat="42.4975" lon="2.41647">
        <ele>1753</ele>
        <time>2024-09-18T09:39:10Z</time>
      </trkpt>
      <trkpt lat="42.49751" lon="2.41652">
        <ele>1752</ele>
        <time>2024-09-18T09:39:18Z</time>
      </trkpt>
      <trkpt lat="42.49752" lon="2.41656">
        <ele>1752</ele>
        <time>2024-09-18T09:39:21Z</time>
      </trkpt>
      <trkpt lat="42.49751" lon="2.4166">
        <ele>1752</ele>
        <time>2024-09-18T09:39:24Z</time>
      </trkpt>
      <trkpt lat="42.49751" lon="2.41665">
        <ele>1751</ele>
        <time>2024-09-18T09:39:28Z</time>
      </trkpt>
      <trkpt lat="42.4975" lon="2.41669">
        <ele>1754</ele>
        <time>2024-09-18T09:39:33Z</time>
      </trkpt>
      <trkpt lat="42.4975" lon="2.41674">
        <ele>1754</ele>
        <time>2024-09-18T09:39:36Z</time>
      </trkpt>
      <trkpt lat="42.4975" lon="2.41678">
        <ele>1752</ele>
        <time>2024-09-18T09:39:38Z</time>
      </trkpt>
      <trkpt lat="42.49749" lon="2.41682">
        <ele>1753</ele>
        <time>2024-09-18T09:39:41Z</time>
      </trkpt>
      <trkpt lat="42.49749" lon="2.41686">
        <ele>1754</ele>
        <time>2024-09-18T09:39:43Z</time>
      </trkpt>
      <trkpt lat="42.49751" lon="2.41686">
        <ele>1754</ele>
        <time>2024-09-18T09:39:46Z</time>
      </trkpt>
      <trkpt lat="42.4975" lon="2.41688">
        <ele>1756</ele>
        <time>2024-09-18T09:39:51Z</time>
      </trkpt>
      <trkpt lat="42.49748" lon="2.4169">
        <ele>1756</ele>
        <time>2024-09-18T09:39:53Z</time>
      </trkpt>
      <trkpt lat="42.49747" lon="2.41694">
        <ele>1755</ele>
        <time>2024-09-18T09:39:55Z</time>
      </trkpt>
      <trkpt lat="42.49746" lon="2.41698">
        <ele>1756</ele>
        <time>2024-09-18T09:39:58Z</time>
      </trkpt>
      <trkpt lat="42.49747" lon="2.41701">
        <ele>1758</ele>
        <time>2024-09-18T09:40:02Z</time>
      </trkpt>
      <trkpt lat="42.49748" lon="2.41706">
        <ele>1758</ele>
        <time>2024-09-18T09:40:06Z</time>
      </trkpt>
      <trkpt lat="42.49747" lon="2.41711">
        <ele>1759</ele>
        <time>2024-09-18T09:40:10Z</time>
      </trkpt>
      <trkpt lat="42.49746" lon="2.41715">
        <ele>1759</ele>
        <time>2024-09-18T09:40:13Z</time>
      </trkpt>
      <trkpt lat="42.49746" lon="2.41719">
        <ele>1759</ele>
        <time>2024-09-18T09:40:18Z</time>
      </trkpt>
      <trkpt lat="42.49745" lon="2.41723">
        <ele>1759</ele>
        <time>2024-09-18T09:40:20Z</time>
      </trkpt>
      <trkpt lat="42.49744" lon="2.41727">
        <ele>1758</ele>
        <time>2024-09-18T09:40:21Z</time>
      </trkpt>
      <trkpt lat="42.49743" lon="2.41731">
        <ele>1758</ele>
        <time>2024-09-18T09:40:26Z</time>
      </trkpt>
      <trkpt lat="42.49744" lon="2.41735">
        <ele>1758</ele>
        <time>2024-09-18T09:40:33Z</time>
      </trkpt>
      <trkpt lat="42.49743" lon="2.41738">
        <ele>1759</ele>
        <time>2024-09-18T09:40:35Z</time>
      </trkpt>
      <trkpt lat="42.49741" lon="2.41744">
        <ele>1758</ele>
        <time>2024-09-18T09:40:37Z</time>
      </trkpt>
      <trkpt lat="42.49742" lon="2.41744">
        <ele>1760</ele>
        <time>2024-09-18T09:40:40Z</time>
      </trkpt>
      <trkpt lat="42.49742" lon="2.41747">
        <ele>1758</ele>
        <time>2024-09-18T09:40:43Z</time>
      </trkpt>
      <trkpt lat="42.49741" lon="2.4175">
        <ele>1761</ele>
        <time>2024-09-18T09:40:48Z</time>
      </trkpt>
      <trkpt lat="42.49739" lon="2.41754">
        <ele>1761</ele>
        <time>2024-09-18T09:40:51Z</time>
      </trkpt>
      <trkpt lat="42.49737" lon="2.41758">
        <ele>1762</ele>
        <time>2024-09-18T09:40:54Z</time>
      </trkpt>
      <trkpt lat="42.49737" lon="2.41762">
        <ele>1761</ele>
        <time>2024-09-18T09:40:59Z</time>
      </trkpt>
      <trkpt lat="42.49736" lon="2.41766">
        <ele>1763</ele>
        <time>2024-09-18T09:41:02Z</time>
      </trkpt>
      <trkpt lat="42.49735" lon="2.4177">
        <ele>1762</ele>
        <time>2024-09-18T09:41:05Z</time>
      </trkpt>
      <trkpt lat="42.49734" lon="2.41774">
        <ele>1763</ele>
        <time>2024-09-18T09:41:09Z</time>
      </trkpt>
      <trkpt lat="42.49731" lon="2.41778">
        <ele>1763</ele>
        <time>2024-09-18T09:41:12Z</time>
      </trkpt>
      <trkpt lat="42.49731" lon="2.41781">
        <ele>1765</ele>
        <time>2024-09-18T09:41:19Z</time>
      </trkpt>
      <trkpt lat="42.4973" lon="2.41785">
        <ele>1766</ele>
        <time>2024-09-18T09:41:21Z</time>
      </trkpt>
      <trkpt lat="42.49728" lon="2.41789">
        <ele>1765</ele>
        <time>2024-09-18T09:41:25Z</time>
      </trkpt>
      <trkpt lat="42.49727" lon="2.41794">
        <ele>1765</ele>
        <time>2024-09-18T09:41:31Z</time>
      </trkpt>
      <trkpt lat="42.49726" lon="2.418">
        <ele>1766</ele>
        <time>2024-09-18T09:41:34Z</time>
      </trkpt>
      <trkpt lat="42.49725" lon="2.41804">
        <ele>1767</ele>
        <time>2024-09-18T09:41:41Z</time>
      </trkpt>
      <trkpt lat="42.49722" lon="2.41807">
        <ele>1769</ele>
        <time>2024-09-18T09:41:46Z</time>
      </trkpt>
      <trkpt lat="42.49722" lon="2.41811">
        <ele>1767</ele>
        <time>2024-09-18T09:41:50Z</time>
      </trkpt>
      <trkpt lat="42.4972" lon="2.41814">
        <ele>1766</ele>
        <time>2024-09-18T09:41:53Z</time>
      </trkpt>
      <trkpt lat="42.49719" lon="2.41817">
        <ele>1767</ele>
        <time>2024-09-18T09:41:57Z</time>
      </trkpt>
      <trkpt lat="42.49717" lon="2.4182">
        <ele>1768</ele>
        <time>2024-09-18T09:41:59Z</time>
      </trkpt>
      <trkpt lat="42.49715" lon="2.41824">
        <ele>1768</ele>
        <time>2024-09-18T09:42:04Z</time>
      </trkpt>
      <trkpt lat="42.49714" lon="2.41828">
        <ele>1768</ele>
        <time>2024-09-18T09:42:06Z</time>
      </trkpt>
      <trkpt lat="42.49713" lon="2.41832">
        <ele>1769</ele>
        <time>2024-09-18T09:42:10Z</time>
      </trkpt>
      <trkpt lat="42.49713" lon="2.41836">
        <ele>1771</ele>
        <time>2024-09-18T09:42:18Z</time>
      </trkpt>
      <trkpt lat="42.49714" lon="2.4184">
        <ele>1773</ele>
        <time>2024-09-18T09:42:24Z</time>
      </trkpt>
      <trkpt lat="42.49713" lon="2.41844">
        <ele>1774</ele>
        <time>2024-09-18T09:42:26Z</time>
      </trkpt>
      <trkpt lat="42.49711" lon="2.41848">
        <ele>1774</ele>
        <time>2024-09-18T09:42:30Z</time>
      </trkpt>
      <trkpt lat="42.4971" lon="2.41852">
        <ele>1774</ele>
        <time>2024-09-18T09:42:39Z</time>
      </trkpt>
      <trkpt lat="42.49711" lon="2.41852">
        <ele>1778</ele>
        <time>2024-09-18T09:42:48Z</time>
      </trkpt>
      <trkpt lat="42.49711" lon="2.41849">
        <ele>1779</ele>
        <time>2024-09-18T09:42:54Z</time>
      </trkpt>
      <trkpt lat="42.49712" lon="2.41846">
        <ele>1780</ele>
        <time>2024-09-18T09:42:57Z</time>
      </trkpt>
      <trkpt lat="42.49712" lon="2.41842">
        <ele>1780</ele>
        <time>2024-09-18T09:43:00Z</time>
      </trkpt>
      <trkpt lat="42.49711" lon="2.41838">
        <ele>1779</ele>
        <time>2024-09-18T09:43:02Z</time>
      </trkpt>
      <trkpt lat="42.4971" lon="2.41834">
        <ele>1777</ele>
        <time>2024-09-18T09:43:05Z</time>
      </trkpt>
      <trkpt lat="42.49708" lon="2.4183">
        <ele>1775</ele>
        <time>2024-09-18T09:43:08Z</time>
      </trkpt>
      <trkpt lat="42.49708" lon="2.41825">
        <ele>1775</ele>
        <time>2024-09-18T09:43:11Z</time>
      </trkpt>
      <trkpt lat="42.49708" lon="2.41821">
        <ele>1776</ele>
        <time>2024-09-18T09:43:15Z</time>
      </trkpt>
      <trkpt lat="42.49708" lon="2.41816">
        <ele>1777</ele>
        <time>2024-09-18T09:43:20Z</time>
      </trkpt>
      <trkpt lat="42.49707" lon="2.41812">
        <ele>1778</ele>
        <time>2024-09-18T09:43:24Z</time>
      </trkpt>
      <trkpt lat="42.49707" lon="2.41807">
        <ele>1777</ele>
        <time>2024-09-18T09:43:27Z</time>
      </trkpt>
      <trkpt lat="42.49706" lon="2.41802">
        <ele>1776</ele>
        <time>2024-09-18T09:43:31Z</time>
      </trkpt>
      <trkpt lat="42.49706" lon="2.41798">
        <ele>1778</ele>
        <time>2024-09-18T09:43:36Z</time>
      </trkpt>
      <trkpt lat="42.49706" lon="2.41794">
        <ele>1778</ele>
        <time>2024-09-18T09:43:40Z</time>
      </trkpt>
      <trkpt lat="42.49705" lon="2.4179">
        <ele>1777</ele>
        <time>2024-09-18T09:43:44Z</time>
      </trkpt>
      <trkpt lat="42.49704" lon="2.41786">
        <ele>1776</ele>
        <time>2024-09-18T09:43:49Z</time>
      </trkpt>
      <trkpt lat="42.49705" lon="2.41781">
        <ele>1777</ele>
        <time>2024-09-18T09:43:53Z</time>
      </trkpt>
      <trkpt lat="42.49705" lon="2.41777">
        <ele>1778</ele>
        <time>2024-09-18T09:43:55Z</time>
      </trkpt>
      <trkpt lat="42.49704" lon="2.41774">
        <ele>1779</ele>
        <time>2024-09-18T09:44:00Z</time>
      </trkpt>
      <trkpt lat="42.49703" lon="2.4177">
        <ele>1779</ele>
        <time>2024-09-18T09:44:03Z</time>
      </trkpt>
      <trkpt lat="42.49703" lon="2.41766">
        <ele>1778</ele>
        <time>2024-09-18T09:44:07Z</time>
      </trkpt>
      <trkpt lat="42.49702" lon="2.41766">
        <ele>1778</ele>
        <time>2024-09-18T09:44:17Z</time>
      </trkpt>
      <trkpt lat="42.49701" lon="2.41769">
        <ele>1779</ele>
        <time>2024-09-18T09:44:21Z</time>
      </trkpt>
      <trkpt lat="42.49699" lon="2.41771">
        <ele>1780</ele>
        <time>2024-09-18T09:44:24Z</time>
      </trkpt>
      <trkpt lat="42.49697" lon="2.41773">
        <ele>1780</ele>
        <time>2024-09-18T09:44:27Z</time>
      </trkpt>
      <trkpt lat="42.49695" lon="2.41776">
        <ele>1780</ele>
        <time>2024-09-18T09:44:29Z</time>
      </trkpt>
      <trkpt lat="42.49694" lon="2.41779">
        <ele>1781</ele>
        <time>2024-09-18T09:44:31Z</time>
      </trkpt>
      <trkpt lat="42.49694" lon="2.41783">
        <ele>1781</ele>
        <time>2024-09-18T09:44:38Z</time>
      </trkpt>
      <trkpt lat="42.49693" lon="2.41787">
        <ele>1785</ele>
        <time>2024-09-18T09:44:42Z</time>
      </trkpt>
      <trkpt lat="42.49692" lon="2.41792">
        <ele>1786</ele>
        <time>2024-09-18T09:44:48Z</time>
      </trkpt>
      <trkpt lat="42.49692" lon="2.41797">
        <ele>1786</ele>
        <time>2024-09-18T09:44:51Z</time>
      </trkpt>
      <trkpt lat="42.49691" lon="2.41801">
        <ele>1787</ele>
        <time>2024-09-18T09:44:55Z</time>
      </trkpt>
      <trkpt lat="42.49691" lon="2.41805">
        <ele>1787</ele>
        <time>2024-09-18T09:44:58Z</time>
      </trkpt>
      <trkpt lat="42.49691" lon="2.41808">
        <ele>1788</ele>
        <time>2024-09-18T09:45:06Z</time>
      </trkpt>
      <trkpt lat="42.49689" lon="2.41812">
        <ele>1788</ele>
        <time>2024-09-18T09:45:09Z</time>
      </trkpt>
      <trkpt lat="42.49688" lon="2.41816">
        <ele>1790</ele>
        <time>2024-09-18T09:45:12Z</time>
      </trkpt>
      <trkpt lat="42.49687" lon="2.41819">
        <ele>1790</ele>
        <time>2024-09-18T09:45:19Z</time>
      </trkpt>
      <trkpt lat="42.49686" lon="2.41823">
        <ele>1792</ele>
        <time>2024-09-18T09:45:22Z</time>
      </trkpt>
      <trkpt lat="42.49684" lon="2.41827">
        <ele>1793</ele>
        <time>2024-09-18T09:45:28Z</time>
      </trkpt>
      <trkpt lat="42.49682" lon="2.4183">
        <ele>1793</ele>
        <time>2024-09-18T09:45:33Z</time>
      </trkpt>
      <trkpt lat="42.49682" lon="2.41834">
        <ele>1794</ele>
        <time>2024-09-18T09:45:41Z</time>
      </trkpt>
      <trkpt lat="42.49682" lon="2.41838">
        <ele>1795</ele>
        <time>2024-09-18T09:45:45Z</time>
      </trkpt>
      <trkpt lat="42.4968" lon="2.41842">
        <ele>1796</ele>
        <time>2024-09-18T09:46:18Z</time>
      </trkpt>
      <trkpt lat="42.4968" lon="2.41846">
        <ele>1797</ele>
        <time>2024-09-18T09:46:22Z</time>
      </trkpt>
      <trkpt lat="42.49677" lon="2.41849">
        <ele>1798</ele>
        <time>2024-09-18T09:46:26Z</time>
      </trkpt>
      <trkpt lat="42.49674" lon="2.41852">
        <ele>1798</ele>
        <time>2024-09-18T09:46:32Z</time>
      </trkpt>
      <trkpt lat="42.49672" lon="2.41854">
        <ele>1798</ele>
        <time>2024-09-18T09:46:36Z</time>
      </trkpt>
      <trkpt lat="42.49671" lon="2.41857">
        <ele>1798</ele>
        <time>2024-09-18T09:46:40Z</time>
      </trkpt>
      <trkpt lat="42.49669" lon="2.41859">
        <ele>1798</ele>
        <time>2024-09-18T09:46:42Z</time>
      </trkpt>
      <trkpt lat="42.49667" lon="2.41862">
        <ele>1797</ele>
        <time>2024-09-18T09:46:46Z</time>
      </trkpt>
      <trkpt lat="42.49664" lon="2.41864">
        <ele>1797</ele>
        <time>2024-09-18T09:46:55Z</time>
      </trkpt>
      <trkpt lat="42.49662" lon="2.41867">
        <ele>1796</ele>
        <time>2024-09-18T09:46:59Z</time>
      </trkpt>
      <trkpt lat="42.4966" lon="2.41871">
        <ele>1797</ele>
        <time>2024-09-18T09:47:04Z</time>
      </trkpt>
      <trkpt lat="42.49658" lon="2.41873">
        <ele>1798</ele>
        <time>2024-09-18T09:47:07Z</time>
      </trkpt>
      <trkpt lat="42.49656" lon="2.41875">
        <ele>1800</ele>
        <time>2024-09-18T09:47:12Z</time>
      </trkpt>
      <trkpt lat="42.49654" lon="2.41878">
        <ele>1800</ele>
        <time>2024-09-18T09:47:15Z</time>
      </trkpt>
      <trkpt lat="42.49649" lon="2.41881">
        <ele>1800</ele>
        <time>2024-09-18T09:47:20Z</time>
      </trkpt>
      <trkpt lat="42.49647" lon="2.41884">
        <ele>1801</ele>
        <time>2024-09-18T09:47:24Z</time>
      </trkpt>
      <trkpt lat="42.49646" lon="2.41888">
        <ele>1803</ele>
        <time>2024-09-18T09:47:30Z</time>
      </trkpt>
      <trkpt lat="42.49644" lon="2.41892">
        <ele>1802</ele>
        <time>2024-09-18T09:47:33Z</time>
      </trkpt>
      <trkpt lat="42.49642" lon="2.41895">
        <ele>1803</ele>
        <time>2024-09-18T09:47:37Z</time>
      </trkpt>
      <trkpt lat="42.49639" lon="2.41898">
        <ele>1802</ele>
        <time>2024-09-18T09:47:43Z</time>
      </trkpt>
      <trkpt lat="42.49637" lon="2.419">
        <ele>1804</ele>
        <time>2024-09-18T09:47:52Z</time>
      </trkpt>
      <trkpt lat="42.49636" lon="2.41903">
        <ele>1804</ele>
        <time>2024-09-18T09:47:57Z</time>
      </trkpt>
      <trkpt lat="42.49633" lon="2.41906">
        <ele>1805</ele>
        <time>2024-09-18T09:48:01Z</time>
      </trkpt>
      <trkpt lat="42.49633" lon="2.4191">
        <ele>1805</ele>
        <time>2024-09-18T09:48:04Z</time>
      </trkpt>
      <trkpt lat="42.4963" lon="2.41913">
        <ele>1804</ele>
        <time>2024-09-18T09:48:08Z</time>
      </trkpt>
      <trkpt lat="42.49628" lon="2.41916">
        <ele>1805</ele>
        <time>2024-09-18T09:48:10Z</time>
      </trkpt>
      <trkpt lat="42.49626" lon="2.41919">
        <ele>1804</ele>
        <time>2024-09-18T09:48:14Z</time>
      </trkpt>
      <trkpt lat="42.49624" lon="2.41922">
        <ele>1805</ele>
        <time>2024-09-18T09:48:20Z</time>
      </trkpt>
      <trkpt lat="42.49623" lon="2.41925">
        <ele>1807</ele>
        <time>2024-09-18T09:48:24Z</time>
      </trkpt>
      <trkpt lat="42.49621" lon="2.41928">
        <ele>1807</ele>
        <time>2024-09-18T09:48:26Z</time>
      </trkpt>
      <trkpt lat="42.49619" lon="2.41931">
        <ele>1807</ele>
        <time>2024-09-18T09:48:31Z</time>
      </trkpt>
      <trkpt lat="42.49617" lon="2.41935">
        <ele>1808</ele>
        <time>2024-09-18T09:48:35Z</time>
      </trkpt>
      <trkpt lat="42.49615" lon="2.41938">
        <ele>1807</ele>
        <time>2024-09-18T09:48:40Z</time>
      </trkpt>
      <trkpt lat="42.49613" lon="2.41938">
        <ele>1807</ele>
        <time>2024-09-18T09:48:45Z</time>
      </trkpt>
      <trkpt lat="42.49611" lon="2.41941">
        <ele>1807</ele>
        <time>2024-09-18T09:48:50Z</time>
      </trkpt>
      <trkpt lat="42.49609" lon="2.41945">
        <ele>1807</ele>
        <time>2024-09-18T09:48:54Z</time>
      </trkpt>
      <trkpt lat="42.49608" lon="2.41949">
        <ele>1808</ele>
        <time>2024-09-18T09:49:01Z</time>
      </trkpt>
      <trkpt lat="42.49607" lon="2.41953">
        <ele>1809</ele>
        <time>2024-09-18T09:49:06Z</time>
      </trkpt>
      <trkpt lat="42.49605" lon="2.41956">
        <ele>1809</ele>
        <time>2024-09-18T09:49:10Z</time>
      </trkpt>
      <trkpt lat="42.49602" lon="2.41959">
        <ele>1809</ele>
        <time>2024-09-18T09:49:14Z</time>
      </trkpt>
      <trkpt lat="42.49602" lon="2.41964">
        <ele>1809</ele>
        <time>2024-09-18T09:49:19Z</time>
      </trkpt>
      <trkpt lat="42.496" lon="2.41966">
        <ele>1810</ele>
        <time>2024-09-18T09:49:23Z</time>
      </trkpt>
      <trkpt lat="42.49597" lon="2.41968">
        <ele>1810</ele>
        <time>2024-09-18T09:49:27Z</time>
      </trkpt>
      <trkpt lat="42.49595" lon="2.41971">
        <ele>1811</ele>
        <time>2024-09-18T09:49:30Z</time>
      </trkpt>
      <trkpt lat="42.49595" lon="2.41974">
        <ele>1813</ele>
        <time>2024-09-18T09:49:37Z</time>
      </trkpt>
      <trkpt lat="42.49598" lon="2.41977">
        <ele>1819</ele>
        <time>2024-09-18T09:49:49Z</time>
      </trkpt>
      <trkpt lat="42.496" lon="2.41978">
        <ele>1817</ele>
        <time>2024-09-18T09:49:58Z</time>
      </trkpt>
      <trkpt lat="42.49603" lon="2.41979">
        <ele>1818</ele>
        <time>2024-09-18T09:50:05Z</time>
      </trkpt>
      <trkpt lat="42.49606" lon="2.4198">
        <ele>1818</ele>
        <time>2024-09-18T09:50:13Z</time>
      </trkpt>
      <trkpt lat="42.49609" lon="2.41982">
        <ele>1819</ele>
        <time>2024-09-18T09:50:18Z</time>
      </trkpt>
      <trkpt lat="42.49612" lon="2.41981">
        <ele>1819</ele>
        <time>2024-09-18T09:50:21Z</time>
      </trkpt>
      <trkpt lat="42.49615" lon="2.41982">
        <ele>1821</ele>
        <time>2024-09-18T09:50:26Z</time>
      </trkpt>
      <trkpt lat="42.49618" lon="2.41982">
        <ele>1819</ele>
        <time>2024-09-18T09:50:30Z</time>
      </trkpt>
      <trkpt lat="42.49621" lon="2.41982">
        <ele>1819</ele>
        <time>2024-09-18T09:50:33Z</time>
      </trkpt>
      <trkpt lat="42.49624" lon="2.41982">
        <ele>1820</ele>
        <time>2024-09-18T09:50:37Z</time>
      </trkpt>
      <trkpt lat="42.49627" lon="2.41982">
        <ele>1820</ele>
        <time>2024-09-18T09:50:41Z</time>
      </trkpt>
      <trkpt lat="42.49631" lon="2.41981">
        <ele>1821</ele>
        <time>2024-09-18T09:50:46Z</time>
      </trkpt>
      <trkpt lat="42.49634" lon="2.4198">
        <ele>1822</ele>
        <time>2024-09-18T09:50:49Z</time>
      </trkpt>
      <trkpt lat="42.49636" lon="2.41979">
        <ele>1823</ele>
        <time>2024-09-18T09:50:53Z</time>
      </trkpt>
      <trkpt lat="42.49639" lon="2.41978">
        <ele>1821</ele>
        <time>2024-09-18T09:50:58Z</time>
      </trkpt>
      <trkpt lat="42.49642" lon="2.41978">
        <ele>1822</ele>
        <time>2024-09-18T09:51:03Z</time>
      </trkpt>
      <trkpt lat="42.49646" lon="2.41978">
        <ele>1823</ele>
        <time>2024-09-18T09:51:08Z</time>
      </trkpt>
      <trkpt lat="42.49648" lon="2.41977">
        <ele>1823</ele>
        <time>2024-09-18T09:51:15Z</time>
      </trkpt>
      <trkpt lat="42.49651" lon="2.41975">
        <ele>1824</ele>
        <time>2024-09-18T09:51:20Z</time>
      </trkpt>
      <trkpt lat="42.49653" lon="2.41976">
        <ele>1825</ele>
        <time>2024-09-18T09:51:25Z</time>
      </trkpt>
      <trkpt lat="42.49655" lon="2.41979">
        <ele>1825</ele>
        <time>2024-09-18T09:51:33Z</time>
      </trkpt>
      <trkpt lat="42.49657" lon="2.41979">
        <ele>1827</ele>
        <time>2024-09-18T09:51:39Z</time>
      </trkpt>
      <trkpt lat="42.49659" lon="2.41977">
        <ele>1826</ele>
        <time>2024-09-18T09:51:44Z</time>
      </trkpt>
      <trkpt lat="42.49661" lon="2.41974">
        <ele>1827</ele>
        <time>2024-09-18T09:51:51Z</time>
      </trkpt>
      <trkpt lat="42.4966" lon="2.41975">
        <ele>1826</ele>
        <time>2024-09-18T09:52:02Z</time>
      </trkpt>
      <trkpt lat="42.49659" lon="2.41978">
        <ele>1827</ele>
        <time>2024-09-18T09:52:07Z</time>
      </trkpt>
      <trkpt lat="42.49661" lon="2.4198">
        <ele>1825</ele>
        <time>2024-09-18T09:52:10Z</time>
      </trkpt>
      <trkpt lat="42.49662" lon="2.41983">
        <ele>1826</ele>
        <time>2024-09-18T09:52:14Z</time>
      </trkpt>
      <trkpt lat="42.49664" lon="2.41986">
        <ele>1828</ele>
        <time>2024-09-18T09:52:19Z</time>
      </trkpt>
      <trkpt lat="42.49664" lon="2.4198">
        <ele>1837</ele>
        <time>2024-09-18T09:52:49Z</time>
      </trkpt>
      <trkpt lat="42.49664" lon="2.4198">
        <ele>1837</ele>
        <time>2024-09-18T09:52:52Z</time>
      </trkpt>
      <trkpt lat="42.49664" lon="2.41983">
        <ele>1837</ele>
        <time>2024-09-18T09:52:55Z</time>
      </trkpt>
      <trkpt lat="42.49666" lon="2.41986">
        <ele>1836</ele>
        <time>2024-09-18T09:52:58Z</time>
      </trkpt>
      <trkpt lat="42.49667" lon="2.41989">
        <ele>1835</ele>
        <time>2024-09-18T09:53:01Z</time>
      </trkpt>
      <trkpt lat="42.49669" lon="2.41992">
        <ele>1835</ele>
        <time>2024-09-18T09:53:07Z</time>
      </trkpt>
      <trkpt lat="42.49672" lon="2.41996">
        <ele>1835</ele>
        <time>2024-09-18T09:53:11Z</time>
      </trkpt>
      <trkpt lat="42.49674" lon="2.42">
        <ele>1835</ele>
        <time>2024-09-18T09:53:15Z</time>
      </trkpt>
      <trkpt lat="42.49676" lon="2.42002">
        <ele>1835</ele>
        <time>2024-09-18T09:53:19Z</time>
      </trkpt>
      <trkpt lat="42.49679" lon="2.42005">
        <ele>1834</ele>
        <time>2024-09-18T09:53:24Z</time>
      </trkpt>
      <trkpt lat="42.49681" lon="2.42008">
        <ele>1836</ele>
        <time>2024-09-18T09:53:27Z</time>
      </trkpt>
      <trkpt lat="42.49682" lon="2.42012">
        <ele>1836</ele>
        <time>2024-09-18T09:53:31Z</time>
      </trkpt>
      <trkpt lat="42.49685" lon="2.42015">
        <ele>1837</ele>
        <time>2024-09-18T09:53:34Z</time>
      </trkpt>
      <trkpt lat="42.49687" lon="2.42017">
        <ele>1838</ele>
        <time>2024-09-18T09:53:40Z</time>
      </trkpt>
      <trkpt lat="42.4969" lon="2.42018">
        <ele>1840</ele>
        <time>2024-09-18T09:53:45Z</time>
      </trkpt>
      <trkpt lat="42.49693" lon="2.4202">
        <ele>1841</ele>
        <time>2024-09-18T09:53:48Z</time>
      </trkpt>
      <trkpt lat="42.49696" lon="2.42022">
        <ele>1840</ele>
        <time>2024-09-18T09:53:52Z</time>
      </trkpt>
      <trkpt lat="42.49698" lon="2.42023">
        <ele>1840</ele>
        <time>2024-09-18T09:53:57Z</time>
      </trkpt>
      <trkpt lat="42.497" lon="2.42026">
        <ele>1840</ele>
        <time>2024-09-18T09:54:00Z</time>
      </trkpt>
      <trkpt lat="42.49701" lon="2.42029">
        <ele>1840</ele>
        <time>2024-09-18T09:54:06Z</time>
      </trkpt>
      <trkpt lat="42.49704" lon="2.42032">
        <ele>1840</ele>
        <time>2024-09-18T09:54:08Z</time>
      </trkpt>
      <trkpt lat="42.49706" lon="2.42034">
        <ele>1842</ele>
        <time>2024-09-18T09:54:13Z</time>
      </trkpt>
      <trkpt lat="42.49709" lon="2.42036">
        <ele>1841</ele>
        <time>2024-09-18T09:54:15Z</time>
      </trkpt>
      <trkpt lat="42.4971" lon="2.42039">
        <ele>1842</ele>
        <time>2024-09-18T09:54:19Z</time>
      </trkpt>
      <trkpt lat="42.49712" lon="2.42043">
        <ele>1842</ele>
        <time>2024-09-18T09:54:25Z</time>
      </trkpt>
      <trkpt lat="42.49714" lon="2.42046">
        <ele>1842</ele>
        <time>2024-09-18T09:54:29Z</time>
      </trkpt>
      <trkpt lat="42.49716" lon="2.42049">
        <ele>1845</ele>
        <time>2024-09-18T09:54:38Z</time>
      </trkpt>
      <trkpt lat="42.49719" lon="2.42051">
        <ele>1846</ele>
        <time>2024-09-18T09:54:41Z</time>
      </trkpt>
      <trkpt lat="42.49722" lon="2.42053">
        <ele>1847</ele>
        <time>2024-09-18T09:54:45Z</time>
      </trkpt>
      <trkpt lat="42.49724" lon="2.42056">
        <ele>1847</ele>
        <time>2024-09-18T09:54:50Z</time>
      </trkpt>
      <trkpt lat="42.49727" lon="2.42059">
        <ele>1848</ele>
        <time>2024-09-18T09:54:56Z</time>
      </trkpt>
      <trkpt lat="42.4973" lon="2.42061">
        <ele>1849</ele>
        <time>2024-09-18T09:55:01Z</time>
      </trkpt>
      <trkpt lat="42.49733" lon="2.42064">
        <ele>1849</ele>
        <time>2024-09-18T09:55:06Z</time>
      </trkpt>
      <trkpt lat="42.49736" lon="2.42066">
        <ele>1852</ele>
        <time>2024-09-18T09:55:13Z</time>
      </trkpt>
      <trkpt lat="42.49739" lon="2.42068">
        <ele>1852</ele>
        <time>2024-09-18T09:55:17Z</time>
      </trkpt>
      <trkpt lat="42.49742" lon="2.4207">
        <ele>1851</ele>
        <time>2024-09-18T09:55:23Z</time>
      </trkpt>
      <trkpt lat="42.49745" lon="2.42072">
        <ele>1853</ele>
        <time>2024-09-18T09:55:28Z</time>
      </trkpt>
      <trkpt lat="42.49748" lon="2.42075">
        <ele>1854</ele>
        <time>2024-09-18T09:55:32Z</time>
      </trkpt>
      <trkpt lat="42.49748" lon="2.4208">
        <ele>1854</ele>
        <time>2024-09-18T09:55:36Z</time>
      </trkpt>
      <trkpt lat="42.4975" lon="2.42081">
        <ele>1855</ele>
        <time>2024-09-18T09:55:38Z</time>
      </trkpt>
      <trkpt lat="42.49753" lon="2.42082">
        <ele>1856</ele>
        <time>2024-09-18T09:55:44Z</time>
      </trkpt>
      <trkpt lat="42.49756" lon="2.42084">
        <ele>1855</ele>
        <time>2024-09-18T09:55:48Z</time>
      </trkpt>
      <trkpt lat="42.49758" lon="2.42088">
        <ele>1856</ele>
        <time>2024-09-18T09:55:51Z</time>
      </trkpt>
      <trkpt lat="42.4976" lon="2.42089">
        <ele>1856</ele>
        <time>2024-09-18T09:55:53Z</time>
      </trkpt>
      <trkpt lat="42.49764" lon="2.4209">
        <ele>1856</ele>
        <time>2024-09-18T09:55:58Z</time>
      </trkpt>
      <trkpt lat="42.49766" lon="2.4209">
        <ele>1856</ele>
        <time>2024-09-18T09:56:02Z</time>
      </trkpt>
      <trkpt lat="42.49769" lon="2.42092">
        <ele>1858</ele>
        <time>2024-09-18T09:56:06Z</time>
      </trkpt>
      <trkpt lat="42.49773" lon="2.42092">
        <ele>1858</ele>
        <time>2024-09-18T09:56:10Z</time>
      </trkpt>
      <trkpt lat="42.49776" lon="2.42092">
        <ele>1859</ele>
        <time>2024-09-18T09:56:13Z</time>
      </trkpt>
      <trkpt lat="42.49778" lon="2.42093">
        <ele>1860</ele>
        <time>2024-09-18T09:56:17Z</time>
      </trkpt>
      <trkpt lat="42.4978" lon="2.42094">
        <ele>1860</ele>
        <time>2024-09-18T09:56:19Z</time>
      </trkpt>
      <trkpt lat="42.49782" lon="2.42096">
        <ele>1859</ele>
        <time>2024-09-18T09:56:23Z</time>
      </trkpt>
      <trkpt lat="42.49785" lon="2.42097">
        <ele>1858</ele>
        <time>2024-09-18T09:56:27Z</time>
      </trkpt>
      <trkpt lat="42.49788" lon="2.42098">
        <ele>1857</ele>
        <time>2024-09-18T09:56:29Z</time>
      </trkpt>
      <trkpt lat="42.49792" lon="2.42099">
        <ele>1857</ele>
        <time>2024-09-18T09:56:32Z</time>
      </trkpt>
      <trkpt lat="42.49794" lon="2.421">
        <ele>1858</ele>
        <time>2024-09-18T09:56:34Z</time>
      </trkpt>
      <trkpt lat="42.49797" lon="2.42103">
        <ele>1860</ele>
        <time>2024-09-18T09:56:39Z</time>
      </trkpt>
      <trkpt lat="42.49799" lon="2.42107">
        <ele>1859</ele>
        <time>2024-09-18T09:56:45Z</time>
      </trkpt>
      <trkpt lat="42.49801" lon="2.4211">
        <ele>1858</ele>
        <time>2024-09-18T09:56:49Z</time>
      </trkpt>
      <trkpt lat="42.49804" lon="2.42111">
        <ele>1856</ele>
        <time>2024-09-18T09:56:51Z</time>
      </trkpt>
      <trkpt lat="42.49807" lon="2.42112">
        <ele>1857</ele>
        <time>2024-09-18T09:56:58Z</time>
      </trkpt>
      <trkpt lat="42.4981" lon="2.42113">
        <ele>1856</ele>
        <time>2024-09-18T09:57:00Z</time>
      </trkpt>
      <trkpt lat="42.49813" lon="2.42114">
        <ele>1856</ele>
        <time>2024-09-18T09:57:02Z</time>
      </trkpt>
      <trkpt lat="42.49816" lon="2.42115">
        <ele>1857</ele>
        <time>2024-09-18T09:57:07Z</time>
      </trkpt>
      <trkpt lat="42.49818" lon="2.42118">
        <ele>1857</ele>
        <time>2024-09-18T09:57:11Z</time>
      </trkpt>
      <trkpt lat="42.4982" lon="2.42121">
        <ele>1858</ele>
        <time>2024-09-18T09:57:14Z</time>
      </trkpt>
      <trkpt lat="42.49823" lon="2.42123">
        <ele>1859</ele>
        <time>2024-09-18T09:57:22Z</time>
      </trkpt>
      <trkpt lat="42.49826" lon="2.42126">
        <ele>1859</ele>
        <time>2024-09-18T09:57:27Z</time>
      </trkpt>
      <trkpt lat="42.49828" lon="2.4213">
        <ele>1858</ele>
        <time>2024-09-18T09:57:37Z</time>
      </trkpt>
      <trkpt lat="42.49829" lon="2.42133">
        <ele>1857</ele>
        <time>2024-09-18T09:57:58Z</time>
      </trkpt>
      <trkpt lat="42.49831" lon="2.42137">
        <ele>1857</ele>
        <time>2024-09-18T09:58:02Z</time>
      </trkpt>
      <trkpt lat="42.4983" lon="2.4214">
        <ele>1859</ele>
        <time>2024-09-18T09:58:06Z</time>
      </trkpt>
      <trkpt lat="42.49829" lon="2.42144">
        <ele>1858</ele>
        <time>2024-09-18T09:58:08Z</time>
      </trkpt>
      <trkpt lat="42.49829" lon="2.42148">
        <ele>1859</ele>
        <time>2024-09-18T09:58:13Z</time>
      </trkpt>
      <trkpt lat="42.49827" lon="2.42152">
        <ele>1860</ele>
        <time>2024-09-18T09:58:16Z</time>
      </trkpt>
      <trkpt lat="42.49826" lon="2.42156">
        <ele>1860</ele>
        <time>2024-09-18T09:58:19Z</time>
      </trkpt>
      <trkpt lat="42.49825" lon="2.4216">
        <ele>1862</ele>
        <time>2024-09-18T09:58:25Z</time>
      </trkpt>
      <trkpt lat="42.49824" lon="2.42165">
        <ele>1862</ele>
        <time>2024-09-18T09:58:28Z</time>
      </trkpt>
      <trkpt lat="42.49822" lon="2.4217">
        <ele>1861</ele>
        <time>2024-09-18T09:58:31Z</time>
      </trkpt>
      <trkpt lat="42.49821" lon="2.42175">
        <ele>1863</ele>
        <time>2024-09-18T09:58:34Z</time>
      </trkpt>
      <trkpt lat="42.4982" lon="2.42178">
        <ele>1862</ele>
        <time>2024-09-18T09:58:36Z</time>
      </trkpt>
      <trkpt lat="42.49821" lon="2.42182">
        <ele>1862</ele>
        <time>2024-09-18T09:58:40Z</time>
      </trkpt>
      <trkpt lat="42.49821" lon="2.42187">
        <ele>1862</ele>
        <time>2024-09-18T09:58:46Z</time>
      </trkpt>
      <trkpt lat="42.49821" lon="2.42192">
        <ele>1863</ele>
        <time>2024-09-18T09:58:50Z</time>
      </trkpt>
      <trkpt lat="42.49819" lon="2.42196">
        <ele>1863</ele>
        <time>2024-09-18T09:58:53Z</time>
      </trkpt>
      <trkpt lat="42.49818" lon="2.422">
        <ele>1864</ele>
        <time>2024-09-18T09:58:56Z</time>
      </trkpt>
      <trkpt lat="42.49819" lon="2.42204">
        <ele>1865</ele>
        <time>2024-09-18T09:58:59Z</time>
      </trkpt>
      <trkpt lat="42.49819" lon="2.42207">
        <ele>1866</ele>
        <time>2024-09-18T09:59:03Z</time>
      </trkpt>
      <trkpt lat="42.49818" lon="2.42212">
        <ele>1867</ele>
        <time>2024-09-18T09:59:08Z</time>
      </trkpt>
      <trkpt lat="42.49816" lon="2.42217">
        <ele>1869</ele>
        <time>2024-09-18T09:59:15Z</time>
      </trkpt>
      <trkpt lat="42.49817" lon="2.42221">
        <ele>1869</ele>
        <time>2024-09-18T09:59:19Z</time>
      </trkpt>
      <trkpt lat="42.49816" lon="2.42226">
        <ele>1871</ele>
        <time>2024-09-18T09:59:23Z</time>
      </trkpt>
      <trkpt lat="42.49815" lon="2.4223">
        <ele>1869</ele>
        <time>2024-09-18T09:59:25Z</time>
      </trkpt>
      <trkpt lat="42.49814" lon="2.42235">
        <ele>1872</ele>
        <time>2024-09-18T09:59:30Z</time>
      </trkpt>
      <trkpt lat="42.49814" lon="2.42239">
        <ele>1872</ele>
        <time>2024-09-18T09:59:35Z</time>
      </trkpt>
      <trkpt lat="42.49814" lon="2.42243">
        <ele>1873</ele>
        <time>2024-09-18T09:59:38Z</time>
      </trkpt>
      <trkpt lat="42.49815" lon="2.42246">
        <ele>1875</ele>
        <time>2024-09-18T09:59:44Z</time>
      </trkpt>
      <trkpt lat="42.49816" lon="2.4225">
        <ele>1874</ele>
        <time>2024-09-18T09:59:46Z</time>
      </trkpt>
      <trkpt lat="42.49816" lon="2.42254">
        <ele>1872</ele>
        <time>2024-09-18T09:59:50Z</time>
      </trkpt>
      <trkpt lat="42.49816" lon="2.42258">
        <ele>1873</ele>
        <time>2024-09-18T09:59:53Z</time>
      </trkpt>
      <trkpt lat="42.49815" lon="2.42262">
        <ele>1872</ele>
        <time>2024-09-18T09:59:56Z</time>
      </trkpt>
      <trkpt lat="42.49814" lon="2.42265">
        <ele>1873</ele>
        <time>2024-09-18T09:59:59Z</time>
      </trkpt>
      <trkpt lat="42.49815" lon="2.4227">
        <ele>1872</ele>
        <time>2024-09-18T10:00:04Z</time>
      </trkpt>
      <trkpt lat="42.49814" lon="2.42273">
        <ele>1873</ele>
        <time>2024-09-18T10:00:07Z</time>
      </trkpt>
      <trkpt lat="42.49813" lon="2.42277">
        <ele>1874</ele>
        <time>2024-09-18T10:00:10Z</time>
      </trkpt>
      <trkpt lat="42.49813" lon="2.42281">
        <ele>1874</ele>
        <time>2024-09-18T10:00:12Z</time>
      </trkpt>
      <trkpt lat="42.49812" lon="2.42285">
        <ele>1873</ele>
        <time>2024-09-18T10:00:16Z</time>
      </trkpt>
      <trkpt lat="42.49812" lon="2.4229">
        <ele>1873</ele>
        <time>2024-09-18T10:00:20Z</time>
      </trkpt>
      <trkpt lat="42.49811" lon="2.42295">
        <ele>1873</ele>
        <time>2024-09-18T10:00:25Z</time>
      </trkpt>
      <trkpt lat="42.49812" lon="2.42299">
        <ele>1873</ele>
        <time>2024-09-18T10:00:27Z</time>
      </trkpt>
      <trkpt lat="42.49811" lon="2.42303">
        <ele>1872</ele>
        <time>2024-09-18T10:00:29Z</time>
      </trkpt>
      <trkpt lat="42.4981" lon="2.42306">
        <ele>1873</ele>
        <time>2024-09-18T10:00:31Z</time>
      </trkpt>
      <trkpt lat="42.4981" lon="2.4231">
        <ele>1875</ele>
        <time>2024-09-18T10:00:34Z</time>
      </trkpt>
      <trkpt lat="42.49812" lon="2.42312">
        <ele>1875</ele>
        <time>2024-09-18T10:00:36Z</time>
      </trkpt>
      <trkpt lat="42.49814" lon="2.42315">
        <ele>1876</ele>
        <time>2024-09-18T10:00:40Z</time>
      </trkpt>
      <trkpt lat="42.49812" lon="2.42318">
        <ele>1877</ele>
        <time>2024-09-18T10:00:42Z</time>
      </trkpt>
      <trkpt lat="42.49813" lon="2.4232">
        <ele>1878</ele>
        <time>2024-09-18T10:00:44Z</time>
      </trkpt>
      <trkpt lat="42.49815" lon="2.42323">
        <ele>1877</ele>
        <time>2024-09-18T10:00:50Z</time>
      </trkpt>
      <trkpt lat="42.49818" lon="2.42326">
        <ele>1877</ele>
        <time>2024-09-18T10:00:53Z</time>
      </trkpt>
      <trkpt lat="42.49819" lon="2.4233">
        <ele>1877</ele>
        <time>2024-09-18T10:00:56Z</time>
      </trkpt>
      <trkpt lat="42.49819" lon="2.42334">
        <ele>1878</ele>
        <time>2024-09-18T10:00:59Z</time>
      </trkpt>
      <trkpt lat="42.49819" lon="2.42338">
        <ele>1878</ele>
        <time>2024-09-18T10:01:03Z</time>
      </trkpt>
      <trkpt lat="42.49819" lon="2.42342">
        <ele>1877</ele>
        <time>2024-09-18T10:01:07Z</time>
      </trkpt>
      <trkpt lat="42.49819" lon="2.42346">
        <ele>1880</ele>
        <time>2024-09-18T10:01:12Z</time>
      </trkpt>
      <trkpt lat="42.49819" lon="2.4235">
        <ele>1878</ele>
        <time>2024-09-18T10:01:15Z</time>
      </trkpt>
      <trkpt lat="42.49819" lon="2.42354">
        <ele>1878</ele>
        <time>2024-09-18T10:01:19Z</time>
      </trkpt>
      <trkpt lat="42.4982" lon="2.42357">
        <ele>1879</ele>
        <time>2024-09-18T10:01:24Z</time>
      </trkpt>
      <trkpt lat="42.49823" lon="2.42361">
        <ele>1879</ele>
        <time>2024-09-18T10:01:28Z</time>
      </trkpt>
      <trkpt lat="42.49823" lon="2.42365">
        <ele>1879</ele>
        <time>2024-09-18T10:01:33Z</time>
      </trkpt>
      <trkpt lat="42.49824" lon="2.42368">
        <ele>1881</ele>
        <time>2024-09-18T10:01:36Z</time>
      </trkpt>
      <trkpt lat="42.49824" lon="2.42372">
        <ele>1880</ele>
        <time>2024-09-18T10:01:41Z</time>
      </trkpt>
      <trkpt lat="42.49825" lon="2.42377">
        <ele>1881</ele>
        <time>2024-09-18T10:01:46Z</time>
      </trkpt>
      <trkpt lat="42.49826" lon="2.4238">
        <ele>1881</ele>
        <time>2024-09-18T10:01:49Z</time>
      </trkpt>
      <trkpt lat="42.49828" lon="2.42385">
        <ele>1881</ele>
        <time>2024-09-18T10:01:54Z</time>
      </trkpt>
      <trkpt lat="42.49828" lon="2.42389">
        <ele>1882</ele>
        <time>2024-09-18T10:01:58Z</time>
      </trkpt>
      <trkpt lat="42.49829" lon="2.42393">
        <ele>1881</ele>
        <time>2024-09-18T10:02:02Z</time>
      </trkpt>
      <trkpt lat="42.4983" lon="2.42398">
        <ele>1882</ele>
        <time>2024-09-18T10:02:04Z</time>
      </trkpt>
      <trkpt lat="42.4983" lon="2.42403">
        <ele>1882</ele>
        <time>2024-09-18T10:02:07Z</time>
      </trkpt>
      <trkpt lat="42.49831" lon="2.42407">
        <ele>1882</ele>
        <time>2024-09-18T10:02:10Z</time>
      </trkpt>
      <trkpt lat="42.49831" lon="2.42412">
        <ele>1882</ele>
        <time>2024-09-18T10:02:13Z</time>
      </trkpt>
      <trkpt lat="42.49833" lon="2.42415">
        <ele>1883</ele>
        <time>2024-09-18T10:02:16Z</time>
      </trkpt>
      <trkpt lat="42.49834" lon="2.42418">
        <ele>1882</ele>
        <time>2024-09-18T10:02:21Z</time>
      </trkpt>
      <trkpt lat="42.49835" lon="2.42422">
        <ele>1884</ele>
        <time>2024-09-18T10:02:25Z</time>
      </trkpt>
      <trkpt lat="42.49836" lon="2.42427">
        <ele>1883</ele>
        <time>2024-09-18T10:02:32Z</time>
      </trkpt>
      <trkpt lat="42.49837" lon="2.42426">
        <ele>1884</ele>
        <time>2024-09-18T10:02:42Z</time>
      </trkpt>
      <trkpt lat="42.49837" lon="2.42428">
        <ele>1884</ele>
        <time>2024-09-18T10:03:04Z</time>
      </trkpt>
      <trkpt lat="42.49838" lon="2.42432">
        <ele>1886</ele>
        <time>2024-09-18T10:03:22Z</time>
      </trkpt>
      <trkpt lat="42.49837" lon="2.42436">
        <ele>1886</ele>
        <time>2024-09-18T10:03:29Z</time>
      </trkpt>
      <trkpt lat="42.49836" lon="2.42441">
        <ele>1886</ele>
        <time>2024-09-18T10:03:32Z</time>
      </trkpt>
      <trkpt lat="42.49835" lon="2.42445">
        <ele>1886</ele>
        <time>2024-09-18T10:03:34Z</time>
      </trkpt>
      <trkpt lat="42.49836" lon="2.42448">
        <ele>1886</ele>
        <time>2024-09-18T10:03:37Z</time>
      </trkpt>
      <trkpt lat="42.49836" lon="2.42452">
        <ele>1886</ele>
        <time>2024-09-18T10:03:41Z</time>
      </trkpt>
      <trkpt lat="42.49837" lon="2.42455">
        <ele>1886</ele>
        <time>2024-09-18T10:03:48Z</time>
      </trkpt>
      <trkpt lat="42.49838" lon="2.4246">
        <ele>1886</ele>
        <time>2024-09-18T10:03:52Z</time>
      </trkpt>
      <trkpt lat="42.49838" lon="2.42464">
        <ele>1887</ele>
        <time>2024-09-18T10:03:56Z</time>
      </trkpt>
      <trkpt lat="42.49839" lon="2.42467">
        <ele>1887</ele>
        <time>2024-09-18T10:04:01Z</time>
      </trkpt>
      <trkpt lat="42.49839" lon="2.42471">
        <ele>1887</ele>
        <time>2024-09-18T10:04:09Z</time>
      </trkpt>
      <trkpt lat="42.49839" lon="2.42475">
        <ele>1887</ele>
        <time>2024-09-18T10:04:14Z</time>
      </trkpt>
      <trkpt lat="42.49839" lon="2.42479">
        <ele>1887</ele>
        <time>2024-09-18T10:04:19Z</time>
      </trkpt>
      <trkpt lat="42.49837" lon="2.42482">
        <ele>1887</ele>
        <time>2024-09-18T10:04:23Z</time>
      </trkpt>
      <trkpt lat="42.49836" lon="2.42486">
        <ele>1888</ele>
        <time>2024-09-18T10:04:28Z</time>
      </trkpt>
      <trkpt lat="42.49835" lon="2.42491">
        <ele>1889</ele>
        <time>2024-09-18T10:04:33Z</time>
      </trkpt>
      <trkpt lat="42.49833" lon="2.42495">
        <ele>1890</ele>
        <time>2024-09-18T10:04:38Z</time>
      </trkpt>
      <trkpt lat="42.49832" lon="2.42499">
        <ele>1889</ele>
        <time>2024-09-18T10:04:42Z</time>
      </trkpt>
      <trkpt lat="42.49831" lon="2.42503">
        <ele>1890</ele>
        <time>2024-09-18T10:04:46Z</time>
      </trkpt>
      <trkpt lat="42.4983" lon="2.42507">
        <ele>1892</ele>
        <time>2024-09-18T10:04:53Z</time>
      </trkpt>
      <trkpt lat="42.49829" lon="2.42511">
        <ele>1892</ele>
        <time>2024-09-18T10:04:57Z</time>
      </trkpt>
      <trkpt lat="42.49829" lon="2.42515">
        <ele>1892</ele>
        <time>2024-09-18T10:05:01Z</time>
      </trkpt>
      <trkpt lat="42.49829" lon="2.42519">
        <ele>1891</ele>
        <time>2024-09-18T10:05:06Z</time>
      </trkpt>
      <trkpt lat="42.49829" lon="2.42523">
        <ele>1892</ele>
        <time>2024-09-18T10:05:09Z</time>
      </trkpt>
      <trkpt lat="42.49828" lon="2.42527">
        <ele>1893</ele>
        <time>2024-09-18T10:05:14Z</time>
      </trkpt>
      <trkpt lat="42.49827" lon="2.42531">
        <ele>1893</ele>
        <time>2024-09-18T10:05:18Z</time>
      </trkpt>
      <trkpt lat="42.49827" lon="2.42535">
        <ele>1894</ele>
        <time>2024-09-18T10:05:20Z</time>
      </trkpt>
      <trkpt lat="42.49828" lon="2.4254">
        <ele>1895</ele>
        <time>2024-09-18T10:05:25Z</time>
      </trkpt>
      <trkpt lat="42.49829" lon="2.42543">
        <ele>1894</ele>
        <time>2024-09-18T10:05:29Z</time>
      </trkpt>
      <trkpt lat="42.4983" lon="2.42547">
        <ele>1895</ele>
        <time>2024-09-18T10:05:33Z</time>
      </trkpt>
      <trkpt lat="42.49832" lon="2.4255">
        <ele>1896</ele>
        <time>2024-09-18T10:05:37Z</time>
      </trkpt>
      <trkpt lat="42.49833" lon="2.42554">
        <ele>1897</ele>
        <time>2024-09-18T10:05:42Z</time>
      </trkpt>
      <trkpt lat="42.49835" lon="2.42558">
        <ele>1897</ele>
        <time>2024-09-18T10:05:46Z</time>
      </trkpt>
      <trkpt lat="42.49837" lon="2.4256">
        <ele>1898</ele>
        <time>2024-09-18T10:05:50Z</time>
      </trkpt>
      <trkpt lat="42.49838" lon="2.42563">
        <ele>1898</ele>
        <time>2024-09-18T10:05:53Z</time>
      </trkpt>
      <trkpt lat="42.49838" lon="2.42567">
        <ele>1898</ele>
        <time>2024-09-18T10:05:57Z</time>
      </trkpt>
      <trkpt lat="42.4984" lon="2.42571">
        <ele>1898</ele>
        <time>2024-09-18T10:06:00Z</time>
      </trkpt>
      <trkpt lat="42.49841" lon="2.42575">
        <ele>1899</ele>
        <time>2024-09-18T10:06:04Z</time>
      </trkpt>
      <trkpt lat="42.49841" lon="2.4258">
        <ele>1898</ele>
        <time>2024-09-18T10:06:10Z</time>
      </trkpt>
      <trkpt lat="42.49843" lon="2.42582">
        <ele>1899</ele>
        <time>2024-09-18T10:06:13Z</time>
      </trkpt>
      <trkpt lat="42.49845" lon="2.42586">
        <ele>1899</ele>
        <time>2024-09-18T10:06:16Z</time>
      </trkpt>
      <trkpt lat="42.49845" lon="2.42589">
        <ele>1899</ele>
        <time>2024-09-18T10:06:19Z</time>
      </trkpt>
      <trkpt lat="42.49847" lon="2.42593">
        <ele>1900</ele>
        <time>2024-09-18T10:06:23Z</time>
      </trkpt>
      <trkpt lat="42.49848" lon="2.42597">
        <ele>1901</ele>
        <time>2024-09-18T10:06:27Z</time>
      </trkpt>
      <trkpt lat="42.49849" lon="2.42601">
        <ele>1902</ele>
        <time>2024-09-18T10:06:31Z</time>
      </trkpt>
      <trkpt lat="42.49851" lon="2.42605">
        <ele>1902</ele>
        <time>2024-09-18T10:06:36Z</time>
      </trkpt>
      <trkpt lat="42.49852" lon="2.42609">
        <ele>1903</ele>
        <time>2024-09-18T10:06:39Z</time>
      </trkpt>
      <trkpt lat="42.49852" lon="2.42613">
        <ele>1903</ele>
        <time>2024-09-18T10:06:43Z</time>
      </trkpt>
      <trkpt lat="42.49853" lon="2.42618">
        <ele>1903</ele>
        <time>2024-09-18T10:06:47Z</time>
      </trkpt>
      <trkpt lat="42.49854" lon="2.42622">
        <ele>1903</ele>
        <time>2024-09-18T10:06:51Z</time>
      </trkpt>
      <trkpt lat="42.49856" lon="2.42626">
        <ele>1903</ele>
        <time>2024-09-18T10:06:54Z</time>
      </trkpt>
      <trkpt lat="42.49856" lon="2.4263">
        <ele>1905</ele>
        <time>2024-09-18T10:06:58Z</time>
      </trkpt>
      <trkpt lat="42.49857" lon="2.42635">
        <ele>1905</ele>
        <time>2024-09-18T10:07:03Z</time>
      </trkpt>
      <trkpt lat="42.49858" lon="2.42639">
        <ele>1905</ele>
        <time>2024-09-18T10:07:06Z</time>
      </trkpt>
      <trkpt lat="42.49859" lon="2.42643">
        <ele>1905</ele>
        <time>2024-09-18T10:07:10Z</time>
      </trkpt>
      <trkpt lat="42.49859" lon="2.42647">
        <ele>1905</ele>
        <time>2024-09-18T10:07:13Z</time>
      </trkpt>
      <trkpt lat="42.49859" lon="2.42652">
        <ele>1904</ele>
        <time>2024-09-18T10:07:17Z</time>
      </trkpt>
      <trkpt lat="42.4986" lon="2.42656">
        <ele>1906</ele>
        <time>2024-09-18T10:07:21Z</time>
      </trkpt>
      <trkpt lat="42.4986" lon="2.4266">
        <ele>1907</ele>
        <time>2024-09-18T10:07:25Z</time>
      </trkpt>
      <trkpt lat="42.49859" lon="2.42664">
        <ele>1907</ele>
        <time>2024-09-18T10:07:28Z</time>
      </trkpt>
      <trkpt lat="42.49859" lon="2.42668">
        <ele>1908</ele>
        <time>2024-09-18T10:07:33Z</time>
      </trkpt>
      <trkpt lat="42.49857" lon="2.42671">
        <ele>1908</ele>
        <time>2024-09-18T10:07:37Z</time>
      </trkpt>
      <trkpt lat="42.49855" lon="2.42673">
        <ele>1907</ele>
        <time>2024-09-18T10:07:41Z</time>
      </trkpt>
      <trkpt lat="42.49852" lon="2.42675">
        <ele>1907</ele>
        <time>2024-09-18T10:07:45Z</time>
      </trkpt>
      <trkpt lat="42.49852" lon="2.42678">
        <ele>1907</ele>
        <time>2024-09-18T10:07:49Z</time>
      </trkpt>
      <trkpt lat="42.49852" lon="2.42682">
        <ele>1907</ele>
        <time>2024-09-18T10:07:53Z</time>
      </trkpt>
      <trkpt lat="42.49851" lon="2.42685">
        <ele>1907</ele>
        <time>2024-09-18T10:07:55Z</time>
      </trkpt>
      <trkpt lat="42.49851" lon="2.42688">
        <ele>1908</ele>
        <time>2024-09-18T10:07:58Z</time>
      </trkpt>
      <trkpt lat="42.49853" lon="2.42691">
        <ele>1909</ele>
        <time>2024-09-18T10:08:02Z</time>
      </trkpt>
      <trkpt lat="42.49855" lon="2.42694">
        <ele>1909</ele>
        <time>2024-09-18T10:08:09Z</time>
      </trkpt>
      <trkpt lat="42.49857" lon="2.42696">
        <ele>1910</ele>
        <time>2024-09-18T10:08:11Z</time>
      </trkpt>
      <trkpt lat="42.4986" lon="2.42698">
        <ele>1911</ele>
        <time>2024-09-18T10:08:15Z</time>
      </trkpt>
      <trkpt lat="42.49861" lon="2.42701">
        <ele>1911</ele>
        <time>2024-09-18T10:08:19Z</time>
      </trkpt>
      <trkpt lat="42.49863" lon="2.42704">
        <ele>1911</ele>
        <time>2024-09-18T10:08:22Z</time>
      </trkpt>
      <trkpt lat="42.49866" lon="2.42706">
        <ele>1910</ele>
        <time>2024-09-18T10:08:25Z</time>
      </trkpt>
      <trkpt lat="42.49867" lon="2.4271">
        <ele>1911</ele>
        <time>2024-09-18T10:08:28Z</time>
      </trkpt>
      <trkpt lat="42.49869" lon="2.42713">
        <ele>1911</ele>
        <time>2024-09-18T10:08:31Z</time>
      </trkpt>
      <trkpt lat="42.49871" lon="2.42717">
        <ele>1912</ele>
        <time>2024-09-18T10:08:35Z</time>
      </trkpt>
      <trkpt lat="42.49872" lon="2.42721">
        <ele>1912</ele>
        <time>2024-09-18T10:08:38Z</time>
      </trkpt>
      <trkpt lat="42.49874" lon="2.42724">
        <ele>1913</ele>
        <time>2024-09-18T10:08:42Z</time>
      </trkpt>
      <trkpt lat="42.49875" lon="2.42728">
        <ele>1913</ele>
        <time>2024-09-18T10:08:45Z</time>
      </trkpt>
      <trkpt lat="42.49877" lon="2.42732">
        <ele>1914</ele>
        <time>2024-09-18T10:08:49Z</time>
      </trkpt>
      <trkpt lat="42.49878" lon="2.42736">
        <ele>1914</ele>
        <time>2024-09-18T10:08:53Z</time>
      </trkpt>
      <trkpt lat="42.4988" lon="2.42739">
        <ele>1915</ele>
        <time>2024-09-18T10:08:56Z</time>
      </trkpt>
      <trkpt lat="42.4988" lon="2.42743">
        <ele>1914</ele>
        <time>2024-09-18T10:08:59Z</time>
      </trkpt>
      <trkpt lat="42.49881" lon="2.42746">
        <ele>1915</ele>
        <time>2024-09-18T10:09:02Z</time>
      </trkpt>
      <trkpt lat="42.49882" lon="2.42751">
        <ele>1915</ele>
        <time>2024-09-18T10:09:07Z</time>
      </trkpt>
      <trkpt lat="42.49883" lon="2.42755">
        <ele>1915</ele>
        <time>2024-09-18T10:09:10Z</time>
      </trkpt>
      <trkpt lat="42.49884" lon="2.42759">
        <ele>1916</ele>
        <time>2024-09-18T10:09:14Z</time>
      </trkpt>
      <trkpt lat="42.49886" lon="2.42763">
        <ele>1916</ele>
        <time>2024-09-18T10:09:17Z</time>
      </trkpt>
      <trkpt lat="42.49887" lon="2.42767">
        <ele>1916</ele>
        <time>2024-09-18T10:09:22Z</time>
      </trkpt>
      <trkpt lat="42.49888" lon="2.42771">
        <ele>1916</ele>
        <time>2024-09-18T10:09:26Z</time>
      </trkpt>
      <trkpt lat="42.49889" lon="2.42776">
        <ele>1918</ele>
        <time>2024-09-18T10:09:31Z</time>
      </trkpt>
      <trkpt lat="42.4989" lon="2.4278">
        <ele>1918</ele>
        <time>2024-09-18T10:09:36Z</time>
      </trkpt>
      <trkpt lat="42.49891" lon="2.42784">
        <ele>1919</ele>
        <time>2024-09-18T10:09:40Z</time>
      </trkpt>
      <trkpt lat="42.49891" lon="2.42788">
        <ele>1918</ele>
        <time>2024-09-18T10:09:43Z</time>
      </trkpt>
      <trkpt lat="42.49891" lon="2.42792">
        <ele>1918</ele>
        <time>2024-09-18T10:09:46Z</time>
      </trkpt>
      <trkpt lat="42.4989" lon="2.42796">
        <ele>1918</ele>
        <time>2024-09-18T10:09:50Z</time>
      </trkpt>
      <trkpt lat="42.49891" lon="2.428">
        <ele>1918</ele>
        <time>2024-09-18T10:09:53Z</time>
      </trkpt>
      <trkpt lat="42.49893" lon="2.42802">
        <ele>1919</ele>
        <time>2024-09-18T10:10:42Z</time>
      </trkpt>
      <trkpt lat="42.49894" lon="2.42805">
        <ele>1918</ele>
        <time>2024-09-18T10:11:08Z</time>
      </trkpt>
      <trkpt lat="42.49893" lon="2.42807">
        <ele>1917</ele>
        <time>2024-09-18T10:11:19Z</time>
      </trkpt>
      <trkpt lat="42.49893" lon="2.4281">
        <ele>1917</ele>
        <time>2024-09-18T10:11:28Z</time>
      </trkpt>
      <trkpt lat="42.49893" lon="2.42813">
        <ele>1917</ele>
        <time>2024-09-18T10:11:30Z</time>
      </trkpt>
      <trkpt lat="42.49892" lon="2.42817">
        <ele>1918</ele>
        <time>2024-09-18T10:11:32Z</time>
      </trkpt>
      <trkpt lat="42.49892" lon="2.4282">
        <ele>1917</ele>
        <time>2024-09-18T10:11:36Z</time>
      </trkpt>
      <trkpt lat="42.49893" lon="2.42824">
        <ele>1918</ele>
        <time>2024-09-18T10:11:39Z</time>
      </trkpt>
      <trkpt lat="42.49893" lon="2.42828">
        <ele>1918</ele>
        <time>2024-09-18T10:11:44Z</time>
      </trkpt>
      <trkpt lat="42.49893" lon="2.42832">
        <ele>1918</ele>
        <time>2024-09-18T10:11:47Z</time>
      </trkpt>
      <trkpt lat="42.49893" lon="2.42836">
        <ele>1919</ele>
        <time>2024-09-18T10:11:51Z</time>
      </trkpt>
      <trkpt lat="42.49893" lon="2.4284">
        <ele>1919</ele>
        <time>2024-09-18T10:11:55Z</time>
      </trkpt>
      <trkpt lat="42.49892" lon="2.42844">
        <ele>1920</ele>
        <time>2024-09-18T10:11:59Z</time>
      </trkpt>
      <trkpt lat="42.49892" lon="2.42848">
        <ele>1919</ele>
        <time>2024-09-18T10:12:03Z</time>
      </trkpt>
      <trkpt lat="42.49893" lon="2.42852">
        <ele>1920</ele>
        <time>2024-09-18T10:12:07Z</time>
      </trkpt>
      <trkpt lat="42.49893" lon="2.42857">
        <ele>1919</ele>
        <time>2024-09-18T10:12:11Z</time>
      </trkpt>
      <trkpt lat="42.49893" lon="2.42861">
        <ele>1920</ele>
        <time>2024-09-18T10:12:14Z</time>
      </trkpt>
      <trkpt lat="42.49892" lon="2.42866">
        <ele>1919</ele>
        <time>2024-09-18T10:12:18Z</time>
      </trkpt>
      <trkpt lat="42.49893" lon="2.4287">
        <ele>1919</ele>
        <time>2024-09-18T10:12:21Z</time>
      </trkpt>
      <trkpt lat="42.49894" lon="2.42874">
        <ele>1920</ele>
        <time>2024-09-18T10:12:25Z</time>
      </trkpt>
      <trkpt lat="42.49895" lon="2.42878">
        <ele>1921</ele>
        <time>2024-09-18T10:12:27Z</time>
      </trkpt>
      <trkpt lat="42.49895" lon="2.42882">
        <ele>1923</ele>
        <time>2024-09-18T10:12:30Z</time>
      </trkpt>
      <trkpt lat="42.49897" lon="2.42885">
        <ele>1922</ele>
        <time>2024-09-18T10:12:33Z</time>
      </trkpt>
      <trkpt lat="42.49899" lon="2.42889">
        <ele>1923</ele>
        <time>2024-09-18T10:12:36Z</time>
      </trkpt>
      <trkpt lat="42.49902" lon="2.42892">
        <ele>1923</ele>
        <time>2024-09-18T10:12:40Z</time>
      </trkpt>
      <trkpt lat="42.49904" lon="2.42896">
        <ele>1922</ele>
        <time>2024-09-18T10:12:43Z</time>
      </trkpt>
      <trkpt lat="42.49905" lon="2.42899">
        <ele>1923</ele>
        <time>2024-09-18T10:12:46Z</time>
      </trkpt>
      <trkpt lat="42.49907" lon="2.42903">
        <ele>1923</ele>
        <time>2024-09-18T10:12:49Z</time>
      </trkpt>
      <trkpt lat="42.49908" lon="2.42908">
        <ele>1921</ele>
        <time>2024-09-18T10:13:11Z</time>
      </trkpt>
      <trkpt lat="42.49907" lon="2.42911">
        <ele>1923</ele>
        <time>2024-09-18T10:13:16Z</time>
      </trkpt>
      <trkpt lat="42.49905" lon="2.42915">
        <ele>1923</ele>
        <time>2024-09-18T10:13:21Z</time>
      </trkpt>
      <trkpt lat="42.49902" lon="2.42918">
        <ele>1923</ele>
        <time>2024-09-18T10:13:23Z</time>
      </trkpt>
      <trkpt lat="42.499" lon="2.42919">
        <ele>1924</ele>
        <time>2024-09-18T10:13:29Z</time>
      </trkpt>
      <trkpt lat="42.49897" lon="2.42921">
        <ele>1925</ele>
        <time>2024-09-18T10:13:34Z</time>
      </trkpt>
      <trkpt lat="42.49894" lon="2.42923">
        <ele>1924</ele>
        <time>2024-09-18T10:13:37Z</time>
      </trkpt>
      <trkpt lat="42.49892" lon="2.42926">
        <ele>1926</ele>
        <time>2024-09-18T10:13:42Z</time>
      </trkpt>
      <trkpt lat="42.49889" lon="2.42929">
        <ele>1926</ele>
        <time>2024-09-18T10:13:46Z</time>
      </trkpt>
      <trkpt lat="42.49886" lon="2.42933">
        <ele>1926</ele>
        <time>2024-09-18T10:13:50Z</time>
      </trkpt>
      <trkpt lat="42.49884" lon="2.42936">
        <ele>1926</ele>
        <time>2024-09-18T10:13:53Z</time>
      </trkpt>
      <trkpt lat="42.49882" lon="2.42941">
        <ele>1926</ele>
        <time>2024-09-18T10:13:57Z</time>
      </trkpt>
      <trkpt lat="42.49882" lon="2.42945">
        <ele>1926</ele>
        <time>2024-09-18T10:14:00Z</time>
      </trkpt>
      <trkpt lat="42.49882" lon="2.4295">
        <ele>1926</ele>
        <time>2024-09-18T10:14:03Z</time>
      </trkpt>
      <trkpt lat="42.49882" lon="2.42955">
        <ele>1926</ele>
        <time>2024-09-18T10:14:06Z</time>
      </trkpt>
      <trkpt lat="42.49882" lon="2.42959">
        <ele>1926</ele>
        <time>2024-09-18T10:14:10Z</time>
      </trkpt>
      <trkpt lat="42.49881" lon="2.42964">
        <ele>1927</ele>
        <time>2024-09-18T10:14:13Z</time>
      </trkpt>
      <trkpt lat="42.4988" lon="2.42968">
        <ele>1927</ele>
        <time>2024-09-18T10:14:16Z</time>
      </trkpt>
      <trkpt lat="42.4988" lon="2.42972">
        <ele>1926</ele>
        <time>2024-09-18T10:14:20Z</time>
      </trkpt>
      <trkpt lat="42.4988" lon="2.42975">
        <ele>1928</ele>
        <time>2024-09-18T10:14:23Z</time>
      </trkpt>
      <trkpt lat="42.49879" lon="2.42979">
        <ele>1929</ele>
        <time>2024-09-18T10:14:29Z</time>
      </trkpt>
      <trkpt lat="42.49879" lon="2.42984">
        <ele>1930</ele>
        <time>2024-09-18T10:14:34Z</time>
      </trkpt>
      <trkpt lat="42.49881" lon="2.42987">
        <ele>1931</ele>
        <time>2024-09-18T10:14:37Z</time>
      </trkpt>
      <trkpt lat="42.49883" lon="2.42989">
        <ele>1931</ele>
        <time>2024-09-18T10:14:40Z</time>
      </trkpt>
      <trkpt lat="42.49885" lon="2.42993">
        <ele>1931</ele>
        <time>2024-09-18T10:14:44Z</time>
      </trkpt>
      <trkpt lat="42.49887" lon="2.42997">
        <ele>1931</ele>
        <time>2024-09-18T10:14:47Z</time>
      </trkpt>
      <trkpt lat="42.49888" lon="2.43001">
        <ele>1930</ele>
        <time>2024-09-18T10:14:51Z</time>
      </trkpt>
      <trkpt lat="42.49888" lon="2.43005">
        <ele>1929</ele>
        <time>2024-09-18T10:14:56Z</time>
      </trkpt>
      <trkpt lat="42.49886" lon="2.4301">
        <ele>1930</ele>
        <time>2024-09-18T10:15:00Z</time>
      </trkpt>
      <trkpt lat="42.49887" lon="2.43014">
        <ele>1931</ele>
        <time>2024-09-18T10:15:04Z</time>
      </trkpt>
      <trkpt lat="42.49888" lon="2.43018">
        <ele>1932</ele>
        <time>2024-09-18T10:15:08Z</time>
      </trkpt>
      <trkpt lat="42.4989" lon="2.43021">
        <ele>1933</ele>
        <time>2024-09-18T10:15:11Z</time>
      </trkpt>
      <trkpt lat="42.49891" lon="2.43025">
        <ele>1932</ele>
        <time>2024-09-18T10:15:15Z</time>
      </trkpt>
      <trkpt lat="42.49894" lon="2.43027">
        <ele>1934</ele>
        <time>2024-09-18T10:15:21Z</time>
      </trkpt>
      <trkpt lat="42.49897" lon="2.43029">
        <ele>1933</ele>
        <time>2024-09-18T10:15:23Z</time>
      </trkpt>
      <trkpt lat="42.49899" lon="2.43031">
        <ele>1935</ele>
        <time>2024-09-18T10:15:26Z</time>
      </trkpt>
      <trkpt lat="42.49902" lon="2.43034">
        <ele>1934</ele>
        <time>2024-09-18T10:15:29Z</time>
      </trkpt>
      <trkpt lat="42.49906" lon="2.43036">
        <ele>1934</ele>
        <time>2024-09-18T10:15:33Z</time>
      </trkpt>
      <trkpt lat="42.49909" lon="2.43038">
        <ele>1936</ele>
        <time>2024-09-18T10:15:37Z</time>
      </trkpt>
      <trkpt lat="42.49911" lon="2.43041">
        <ele>1937</ele>
        <time>2024-09-18T10:15:41Z</time>
      </trkpt>
      <trkpt lat="42.49913" lon="2.43044">
        <ele>1936</ele>
        <time>2024-09-18T10:15:44Z</time>
      </trkpt>
      <trkpt lat="42.49916" lon="2.43046">
        <ele>1935</ele>
        <time>2024-09-18T10:15:46Z</time>
      </trkpt>
      <trkpt lat="42.49917" lon="2.43049">
        <ele>1935</ele>
        <time>2024-09-18T10:15:50Z</time>
      </trkpt>
      <trkpt lat="42.49919" lon="2.43052">
        <ele>1936</ele>
        <time>2024-09-18T10:15:53Z</time>
      </trkpt>
      <trkpt lat="42.49921" lon="2.43055">
        <ele>1934</ele>
        <time>2024-09-18T10:15:56Z</time>
      </trkpt>
      <trkpt lat="42.49923" lon="2.43057">
        <ele>1934</ele>
        <time>2024-09-18T10:15:59Z</time>
      </trkpt>
      <trkpt lat="42.49924" lon="2.4306">
        <ele>1934</ele>
        <time>2024-09-18T10:16:02Z</time>
      </trkpt>
      <trkpt lat="42.49926" lon="2.43063">
        <ele>1934</ele>
        <time>2024-09-18T10:16:05Z</time>
      </trkpt>
      <trkpt lat="42.49929" lon="2.43064">
        <ele>1931</ele>
        <time>2024-09-18T10:16:11Z</time>
      </trkpt>
      <trkpt lat="42.49932" lon="2.43068">
        <ele>1932</ele>
        <time>2024-09-18T10:16:16Z</time>
      </trkpt>
      <trkpt lat="42.49933" lon="2.43072">
        <ele>1932</ele>
        <time>2024-09-18T10:16:20Z</time>
      </trkpt>
      <trkpt lat="42.49935" lon="2.43076">
        <ele>1932</ele>
        <time>2024-09-18T10:16:24Z</time>
      </trkpt>
      <trkpt lat="42.49936" lon="2.43079">
        <ele>1932</ele>
        <time>2024-09-18T10:16:27Z</time>
      </trkpt>
      <trkpt lat="42.49937" lon="2.43083">
        <ele>1932</ele>
        <time>2024-09-18T10:16:30Z</time>
      </trkpt>
      <trkpt lat="42.49939" lon="2.43086">
        <ele>1931</ele>
        <time>2024-09-18T10:16:32Z</time>
      </trkpt>
      <trkpt lat="42.4994" lon="2.4309">
        <ele>1932</ele>
        <time>2024-09-18T10:16:36Z</time>
      </trkpt>
      <trkpt lat="42.49941" lon="2.43093">
        <ele>1932</ele>
        <time>2024-09-18T10:16:39Z</time>
      </trkpt>
      <trkpt lat="42.49942" lon="2.43097">
        <ele>1932</ele>
        <time>2024-09-18T10:16:43Z</time>
      </trkpt>
      <trkpt lat="42.49943" lon="2.43101">
        <ele>1931</ele>
        <time>2024-09-18T10:16:46Z</time>
      </trkpt>
      <trkpt lat="42.49944" lon="2.43106">
        <ele>1933</ele>
        <time>2024-09-18T10:16:49Z</time>
      </trkpt>
      <trkpt lat="42.49943" lon="2.4311">
        <ele>1932</ele>
        <time>2024-09-18T10:16:51Z</time>
      </trkpt>
      <trkpt lat="42.49943" lon="2.43113">
        <ele>1933</ele>
        <time>2024-09-18T10:16:54Z</time>
      </trkpt>
      <trkpt lat="42.49943" lon="2.43117">
        <ele>1933</ele>
        <time>2024-09-18T10:16:57Z</time>
      </trkpt>
      <trkpt lat="42.49943" lon="2.43121">
        <ele>1933</ele>
        <time>2024-09-18T10:17:00Z</time>
      </trkpt>
      <trkpt lat="42.49943" lon="2.43126">
        <ele>1934</ele>
        <time>2024-09-18T10:17:03Z</time>
      </trkpt>
      <trkpt lat="42.49944" lon="2.4313">
        <ele>1934</ele>
        <time>2024-09-18T10:17:07Z</time>
      </trkpt>
      <trkpt lat="42.49946" lon="2.43134">
        <ele>1933</ele>
        <time>2024-09-18T10:17:10Z</time>
      </trkpt>
      <trkpt lat="42.49948" lon="2.43139">
        <ele>1932</ele>
        <time>2024-09-18T10:17:13Z</time>
      </trkpt>
      <trkpt lat="42.49947" lon="2.43143">
        <ele>1932</ele>
        <time>2024-09-18T10:17:16Z</time>
      </trkpt>
      <trkpt lat="42.49946" lon="2.43147">
        <ele>1933</ele>
        <time>2024-09-18T10:17:20Z</time>
      </trkpt>
      <trkpt lat="42.49946" lon="2.43152">
        <ele>1933</ele>
        <time>2024-09-18T10:17:24Z</time>
      </trkpt>
      <trkpt lat="42.49947" lon="2.43156">
        <ele>1932</ele>
        <time>2024-09-18T10:17:28Z</time>
      </trkpt>
      <trkpt lat="42.49948" lon="2.4316">
        <ele>1931</ele>
        <time>2024-09-18T10:17:32Z</time>
      </trkpt>
      <trkpt lat="42.49948" lon="2.43165">
        <ele>1931</ele>
        <time>2024-09-18T10:17:37Z</time>
      </trkpt>
      <trkpt lat="42.49947" lon="2.43169">
        <ele>1930</ele>
        <time>2024-09-18T10:17:41Z</time>
      </trkpt>
      <trkpt lat="42.49947" lon="2.43174">
        <ele>1930</ele>
        <time>2024-09-18T10:17:44Z</time>
      </trkpt>
      <trkpt lat="42.49947" lon="2.43179">
        <ele>1930</ele>
        <time>2024-09-18T10:17:49Z</time>
      </trkpt>
      <trkpt lat="42.49947" lon="2.43183">
        <ele>1930</ele>
        <time>2024-09-18T10:17:52Z</time>
      </trkpt>
      <trkpt lat="42.49948" lon="2.43188">
        <ele>1931</ele>
        <time>2024-09-18T10:17:57Z</time>
      </trkpt>
      <trkpt lat="42.49948" lon="2.43192">
        <ele>1932</ele>
        <time>2024-09-18T10:18:01Z</time>
      </trkpt>
      <trkpt lat="42.49949" lon="2.43196">
        <ele>1932</ele>
        <time>2024-09-18T10:18:05Z</time>
      </trkpt>
      <trkpt lat="42.49949" lon="2.432">
        <ele>1932</ele>
        <time>2024-09-18T10:18:09Z</time>
      </trkpt>
      <trkpt lat="42.49947" lon="2.43204">
        <ele>1932</ele>
        <time>2024-09-18T10:18:14Z</time>
      </trkpt>
      <trkpt lat="42.49947" lon="2.43207">
        <ele>1932</ele>
        <time>2024-09-18T10:18:17Z</time>
      </trkpt>
      <trkpt lat="42.49948" lon="2.43212">
        <ele>1931</ele>
        <time>2024-09-18T10:18:23Z</time>
      </trkpt>
      <trkpt lat="42.49949" lon="2.43216">
        <ele>1933</ele>
        <time>2024-09-18T10:18:25Z</time>
      </trkpt>
      <trkpt lat="42.49949" lon="2.43219">
        <ele>1933</ele>
        <time>2024-09-18T10:18:28Z</time>
      </trkpt>
      <trkpt lat="42.49949" lon="2.43223">
        <ele>1932</ele>
        <time>2024-09-18T10:18:32Z</time>
      </trkpt>
      <trkpt lat="42.49948" lon="2.43227">
        <ele>1932</ele>
        <time>2024-09-18T10:18:37Z</time>
      </trkpt>
      <trkpt lat="42.4995" lon="2.43231">
        <ele>1931</ele>
        <time>2024-09-18T10:18:44Z</time>
      </trkpt>
      <trkpt lat="42.49951" lon="2.43235">
        <ele>1930</ele>
        <time>2024-09-18T10:18:48Z</time>
      </trkpt>
      <trkpt lat="42.49951" lon="2.43239">
        <ele>1931</ele>
        <time>2024-09-18T10:18:54Z</time>
      </trkpt>
      <trkpt lat="42.4995" lon="2.43242">
        <ele>1931</ele>
        <time>2024-09-18T10:18:59Z</time>
      </trkpt>
      <trkpt lat="42.4995" lon="2.43247">
        <ele>1932</ele>
        <time>2024-09-18T10:19:03Z</time>
      </trkpt>
      <trkpt lat="42.49949" lon="2.4325">
        <ele>1932</ele>
        <time>2024-09-18T10:19:09Z</time>
      </trkpt>
      <trkpt lat="42.49951" lon="2.43252">
        <ele>1932</ele>
        <time>2024-09-18T10:19:11Z</time>
      </trkpt>
      <trkpt lat="42.49953" lon="2.43253">
        <ele>1932</ele>
        <time>2024-09-18T10:19:14Z</time>
      </trkpt>
      <trkpt lat="42.49956" lon="2.43256">
        <ele>1933</ele>
        <time>2024-09-18T10:19:19Z</time>
      </trkpt>
      <trkpt lat="42.49956" lon="2.43259">
        <ele>1934</ele>
        <time>2024-09-18T10:19:24Z</time>
      </trkpt>
      <trkpt lat="42.49955" lon="2.43263">
        <ele>1932</ele>
        <time>2024-09-18T10:19:35Z</time>
      </trkpt>
      <trkpt lat="42.49955" lon="2.43267">
        <ele>1932</ele>
        <time>2024-09-18T10:19:39Z</time>
      </trkpt>
      <trkpt lat="42.49957" lon="2.43269">
        <ele>1933</ele>
        <time>2024-09-18T10:19:43Z</time>
      </trkpt>
      <trkpt lat="42.4996" lon="2.43272">
        <ele>1935</ele>
        <time>2024-09-18T10:19:50Z</time>
      </trkpt>
      <trkpt lat="42.49961" lon="2.43275">
        <ele>1936</ele>
        <time>2024-09-18T10:19:54Z</time>
      </trkpt>
      <trkpt lat="42.49963" lon="2.43278">
        <ele>1936</ele>
        <time>2024-09-18T10:19:58Z</time>
      </trkpt>
      <trkpt lat="42.49965" lon="2.43282">
        <ele>1939</ele>
        <time>2024-09-18T10:20:05Z</time>
      </trkpt>
      <trkpt lat="42.49967" lon="2.43284">
        <ele>1939</ele>
        <time>2024-09-18T10:20:09Z</time>
      </trkpt>
      <trkpt lat="42.49968" lon="2.43288">
        <ele>1940</ele>
        <time>2024-09-18T10:20:14Z</time>
      </trkpt>
      <trkpt lat="42.4997" lon="2.43292">
        <ele>1941</ele>
        <time>2024-09-18T10:20:20Z</time>
      </trkpt>
      <trkpt lat="42.49971" lon="2.43295">
        <ele>1942</ele>
        <time>2024-09-18T10:20:25Z</time>
      </trkpt>
      <trkpt lat="42.49972" lon="2.43299">
        <ele>1943</ele>
        <time>2024-09-18T10:20:30Z</time>
      </trkpt>
      <trkpt lat="42.49972" lon="2.43304">
        <ele>1942</ele>
        <time>2024-09-18T10:20:34Z</time>
      </trkpt>
      <trkpt lat="42.49972" lon="2.43307">
        <ele>1941</ele>
        <time>2024-09-18T10:20:47Z</time>
      </trkpt>
      <trkpt lat="42.49971" lon="2.4331">
        <ele>1940</ele>
        <time>2024-09-18T10:21:00Z</time>
      </trkpt>
      <trkpt lat="42.49971" lon="2.43314">
        <ele>1938</ele>
        <time>2024-09-18T10:21:05Z</time>
      </trkpt>
      <trkpt lat="42.4997" lon="2.43318">
        <ele>1939</ele>
        <time>2024-09-18T10:21:09Z</time>
      </trkpt>
      <trkpt lat="42.4997" lon="2.43323">
        <ele>1940</ele>
        <time>2024-09-18T10:21:14Z</time>
      </trkpt>
      <trkpt lat="42.4997" lon="2.43327">
        <ele>1941</ele>
        <time>2024-09-18T10:21:21Z</time>
      </trkpt>
      <trkpt lat="42.4997" lon="2.43332">
        <ele>1942</ele>
        <time>2024-09-18T10:21:26Z</time>
      </trkpt>
      <trkpt lat="42.49969" lon="2.43336">
        <ele>1942</ele>
        <time>2024-09-18T10:21:31Z</time>
      </trkpt>
      <trkpt lat="42.49968" lon="2.4334">
        <ele>1942</ele>
        <time>2024-09-18T10:21:34Z</time>
      </trkpt>
      <trkpt lat="42.49967" lon="2.43344">
        <ele>1942</ele>
        <time>2024-09-18T10:21:36Z</time>
      </trkpt>
      <trkpt lat="42.49968" lon="2.43347">
        <ele>1944</ele>
        <time>2024-09-18T10:21:38Z</time>
      </trkpt>
      <trkpt lat="42.49969" lon="2.43351">
        <ele>1944</ele>
        <time>2024-09-18T10:21:41Z</time>
      </trkpt>
      <trkpt lat="42.4997" lon="2.43355">
        <ele>1945</ele>
        <time>2024-09-18T10:21:46Z</time>
      </trkpt>
      <trkpt lat="42.4997" lon="2.43359">
        <ele>1946</ele>
        <time>2024-09-18T10:21:51Z</time>
      </trkpt>
      <trkpt lat="42.4997" lon="2.43363">
        <ele>1946</ele>
        <time>2024-09-18T10:21:57Z</time>
      </trkpt>
      <trkpt lat="42.4997" lon="2.43366">
        <ele>1945</ele>
        <time>2024-09-18T10:22:00Z</time>
      </trkpt>
      <trkpt lat="42.49972" lon="2.4337">
        <ele>1945</ele>
        <time>2024-09-18T10:22:04Z</time>
      </trkpt>
      <trkpt lat="42.49973" lon="2.43374">
        <ele>1946</ele>
        <time>2024-09-18T10:22:07Z</time>
      </trkpt>
      <trkpt lat="42.49974" lon="2.43378">
        <ele>1946</ele>
        <time>2024-09-18T10:22:10Z</time>
      </trkpt>
      <trkpt lat="42.49975" lon="2.43382">
        <ele>1946</ele>
        <time>2024-09-18T10:22:15Z</time>
      </trkpt>
      <trkpt lat="42.49976" lon="2.43386">
        <ele>1947</ele>
        <time>2024-09-18T10:22:19Z</time>
      </trkpt>
      <trkpt lat="42.49975" lon="2.43389">
        <ele>1947</ele>
        <time>2024-09-18T10:22:23Z</time>
      </trkpt>
      <trkpt lat="42.49974" lon="2.43393">
        <ele>1948</ele>
        <time>2024-09-18T10:22:28Z</time>
      </trkpt>
      <trkpt lat="42.49974" lon="2.43396">
        <ele>1948</ele>
        <time>2024-09-18T10:22:33Z</time>
      </trkpt>
      <trkpt lat="42.49975" lon="2.434">
        <ele>1950</ele>
        <time>2024-09-18T10:22:36Z</time>
      </trkpt>
      <trkpt lat="42.49977" lon="2.43403">
        <ele>1950</ele>
        <time>2024-09-18T10:22:40Z</time>
      </trkpt>
      <trkpt lat="42.49977" lon="2.43407">
        <ele>1949</ele>
        <time>2024-09-18T10:22:45Z</time>
      </trkpt>
      <trkpt lat="42.49977" lon="2.43411">
        <ele>1949</ele>
        <time>2024-09-18T10:22:51Z</time>
      </trkpt>
      <trkpt lat="42.49977" lon="2.43415">
        <ele>1949</ele>
        <time>2024-09-18T10:22:54Z</time>
      </trkpt>
      <trkpt lat="42.49977" lon="2.43419">
        <ele>1950</ele>
        <time>2024-09-18T10:22:57Z</time>
      </trkpt>
      <trkpt lat="42.49978" lon="2.43423">
        <ele>1950</ele>
        <time>2024-09-18T10:23:01Z</time>
      </trkpt>
      <trkpt lat="42.49979" lon="2.43426">
        <ele>1951</ele>
        <time>2024-09-18T10:23:04Z</time>
      </trkpt>
      <trkpt lat="42.4998" lon="2.43431">
        <ele>1953</ele>
        <time>2024-09-18T10:23:08Z</time>
      </trkpt>
      <trkpt lat="42.49981" lon="2.43435">
        <ele>1952</ele>
        <time>2024-09-18T10:23:13Z</time>
      </trkpt>
      <trkpt lat="42.49981" lon="2.43439">
        <ele>1953</ele>
        <time>2024-09-18T10:23:17Z</time>
      </trkpt>
      <trkpt lat="42.49983" lon="2.43443">
        <ele>1954</ele>
        <time>2024-09-18T10:23:20Z</time>
      </trkpt>
      <trkpt lat="42.49984" lon="2.43446">
        <ele>1953</ele>
        <time>2024-09-18T10:23:23Z</time>
      </trkpt>
      <trkpt lat="42.49985" lon="2.4345">
        <ele>1954</ele>
        <time>2024-09-18T10:23:27Z</time>
      </trkpt>
      <trkpt lat="42.49987" lon="2.43455">
        <ele>1954</ele>
        <time>2024-09-18T10:23:32Z</time>
      </trkpt>
      <trkpt lat="42.49989" lon="2.4346">
        <ele>1955</ele>
        <time>2024-09-18T10:23:36Z</time>
      </trkpt>
      <trkpt lat="42.4999" lon="2.43464">
        <ele>1955</ele>
        <time>2024-09-18T10:23:40Z</time>
      </trkpt>
      <trkpt lat="42.4999" lon="2.43468">
        <ele>1955</ele>
        <time>2024-09-18T10:23:43Z</time>
      </trkpt>
      <trkpt lat="42.4999" lon="2.43472">
        <ele>1955</ele>
        <time>2024-09-18T10:23:48Z</time>
      </trkpt>
      <trkpt lat="42.49988" lon="2.43475">
        <ele>1956</ele>
        <time>2024-09-18T10:23:54Z</time>
      </trkpt>
      <trkpt lat="42.49987" lon="2.43479">
        <ele>1957</ele>
        <time>2024-09-18T10:23:58Z</time>
      </trkpt>
      <trkpt lat="42.49986" lon="2.43482">
        <ele>1958</ele>
        <time>2024-09-18T10:24:02Z</time>
      </trkpt>
      <trkpt lat="42.49983" lon="2.43485">
        <ele>1958</ele>
        <time>2024-09-18T10:24:07Z</time>
      </trkpt>
      <trkpt lat="42.49982" lon="2.43488">
        <ele>1957</ele>
        <time>2024-09-18T10:24:11Z</time>
      </trkpt>
      <trkpt lat="42.49984" lon="2.4349">
        <ele>1957</ele>
        <time>2024-09-18T10:24:15Z</time>
      </trkpt>
      <trkpt lat="42.49986" lon="2.43493">
        <ele>1958</ele>
        <time>2024-09-18T10:24:18Z</time>
      </trkpt>
      <trkpt lat="42.49988" lon="2.43494">
        <ele>1957</ele>
        <time>2024-09-18T10:24:20Z</time>
      </trkpt>
      <trkpt lat="42.4999" lon="2.43497">
        <ele>1958</ele>
        <time>2024-09-18T10:24:24Z</time>
      </trkpt>
      <trkpt lat="42.4999" lon="2.43501">
        <ele>1958</ele>
        <time>2024-09-18T10:24:28Z</time>
      </trkpt>
      <trkpt lat="42.49989" lon="2.43506">
        <ele>1958</ele>
        <time>2024-09-18T10:24:33Z</time>
      </trkpt>
      <trkpt lat="42.49988" lon="2.43508">
        <ele>1958</ele>
        <time>2024-09-18T10:24:37Z</time>
      </trkpt>
      <trkpt lat="42.49986" lon="2.43511">
        <ele>1958</ele>
        <time>2024-09-18T10:24:42Z</time>
      </trkpt>
      <trkpt lat="42.49985" lon="2.43514">
        <ele>1961</ele>
        <time>2024-09-18T10:25:02Z</time>
      </trkpt>
      <trkpt lat="42.49984" lon="2.43518">
        <ele>1960</ele>
        <time>2024-09-18T10:25:06Z</time>
      </trkpt>
      <trkpt lat="42.49983" lon="2.43522">
        <ele>1959</ele>
        <time>2024-09-18T10:25:09Z</time>
      </trkpt>
      <trkpt lat="42.49983" lon="2.43526">
        <ele>1959</ele>
        <time>2024-09-18T10:25:13Z</time>
      </trkpt>
      <trkpt lat="42.49982" lon="2.4353">
        <ele>1958</ele>
        <time>2024-09-18T10:25:34Z</time>
      </trkpt>
      <trkpt lat="42.49981" lon="2.43534">
        <ele>1956</ele>
        <time>2024-09-18T10:26:29Z</time>
      </trkpt>
      <trkpt lat="42.49981" lon="2.43539">
        <ele>1957</ele>
        <time>2024-09-18T10:26:33Z</time>
      </trkpt>
      <trkpt lat="42.49982" lon="2.43543">
        <ele>1958</ele>
        <time>2024-09-18T10:26:37Z</time>
      </trkpt>
      <trkpt lat="42.49982" lon="2.43547">
        <ele>1959</ele>
        <time>2024-09-18T10:26:39Z</time>
      </trkpt>
      <trkpt lat="42.49982" lon="2.43551">
        <ele>1960</ele>
        <time>2024-09-18T10:26:45Z</time>
      </trkpt>
      <trkpt lat="42.49981" lon="2.43556">
        <ele>1960</ele>
        <time>2024-09-18T10:26:48Z</time>
      </trkpt>
      <trkpt lat="42.4998" lon="2.4356">
        <ele>1960</ele>
        <time>2024-09-18T10:26:52Z</time>
      </trkpt>
      <trkpt lat="42.4998" lon="2.43564">
        <ele>1960</ele>
        <time>2024-09-18T10:26:55Z</time>
      </trkpt>
      <trkpt lat="42.49979" lon="2.43568">
        <ele>1960</ele>
        <time>2024-09-18T10:26:58Z</time>
      </trkpt>
      <trkpt lat="42.49978" lon="2.43572">
        <ele>1961</ele>
        <time>2024-09-18T10:27:02Z</time>
      </trkpt>
      <trkpt lat="42.49978" lon="2.43576">
        <ele>1961</ele>
        <time>2024-09-18T10:27:06Z</time>
      </trkpt>
      <trkpt lat="42.49976" lon="2.4358">
        <ele>1963</ele>
        <time>2024-09-18T10:27:09Z</time>
      </trkpt>
      <trkpt lat="42.49975" lon="2.43584">
        <ele>1962</ele>
        <time>2024-09-18T10:27:13Z</time>
      </trkpt>
      <trkpt lat="42.49974" lon="2.43587">
        <ele>1962</ele>
        <time>2024-09-18T10:27:15Z</time>
      </trkpt>
      <trkpt lat="42.49973" lon="2.43591">
        <ele>1963</ele>
        <time>2024-09-18T10:27:18Z</time>
      </trkpt>
      <trkpt lat="42.49973" lon="2.43596">
        <ele>1963</ele>
        <time>2024-09-18T10:27:22Z</time>
      </trkpt>
      <trkpt lat="42.49975" lon="2.436">
        <ele>1962</ele>
        <time>2024-09-18T10:27:25Z</time>
      </trkpt>
      <trkpt lat="42.49976" lon="2.43604">
        <ele>1962</ele>
        <time>2024-09-18T10:27:28Z</time>
      </trkpt>
      <trkpt lat="42.49978" lon="2.43606">
        <ele>1963</ele>
        <time>2024-09-18T10:27:31Z</time>
      </trkpt>
      <trkpt lat="42.49979" lon="2.4361">
        <ele>1963</ele>
        <time>2024-09-18T10:27:35Z</time>
      </trkpt>
      <trkpt lat="42.49979" lon="2.43614">
        <ele>1963</ele>
        <time>2024-09-18T10:27:41Z</time>
      </trkpt>
      <trkpt lat="42.49979" lon="2.43618">
        <ele>1963</ele>
        <time>2024-09-18T10:27:44Z</time>
      </trkpt>
      <trkpt lat="42.49979" lon="2.43622">
        <ele>1964</ele>
        <time>2024-09-18T10:27:48Z</time>
      </trkpt>
      <trkpt lat="42.49979" lon="2.43627">
        <ele>1964</ele>
        <time>2024-09-18T10:27:52Z</time>
      </trkpt>
      <trkpt lat="42.49979" lon="2.43632">
        <ele>1964</ele>
        <time>2024-09-18T10:27:57Z</time>
      </trkpt>
      <trkpt lat="42.4998" lon="2.43636">
        <ele>1964</ele>
        <time>2024-09-18T10:28:01Z</time>
      </trkpt>
      <trkpt lat="42.49981" lon="2.4364">
        <ele>1964</ele>
        <time>2024-09-18T10:28:04Z</time>
      </trkpt>
      <trkpt lat="42.49982" lon="2.43644">
        <ele>1965</ele>
        <time>2024-09-18T10:28:07Z</time>
      </trkpt>
      <trkpt lat="42.49982" lon="2.43648">
        <ele>1965</ele>
        <time>2024-09-18T10:28:10Z</time>
      </trkpt>
      <trkpt lat="42.49983" lon="2.43652">
        <ele>1966</ele>
        <time>2024-09-18T10:28:15Z</time>
      </trkpt>
      <trkpt lat="42.49985" lon="2.43656">
        <ele>1965</ele>
        <time>2024-09-18T10:28:20Z</time>
      </trkpt>
      <trkpt lat="42.49986" lon="2.4366">
        <ele>1965</ele>
        <time>2024-09-18T10:28:24Z</time>
      </trkpt>
      <trkpt lat="42.49986" lon="2.43665">
        <ele>1966</ele>
        <time>2024-09-18T10:28:28Z</time>
      </trkpt>
      <trkpt lat="42.49987" lon="2.43669">
        <ele>1966</ele>
        <time>2024-09-18T10:28:31Z</time>
      </trkpt>
      <trkpt lat="42.49987" lon="2.43674">
        <ele>1965</ele>
        <time>2024-09-18T10:28:35Z</time>
      </trkpt>
      <trkpt lat="42.49987" lon="2.43679">
        <ele>1967</ele>
        <time>2024-09-18T10:28:38Z</time>
      </trkpt>
      <trkpt lat="42.49987" lon="2.43684">
        <ele>1966</ele>
        <time>2024-09-18T10:28:42Z</time>
      </trkpt>
      <trkpt lat="42.49986" lon="2.43688">
        <ele>1967</ele>
        <time>2024-09-18T10:28:46Z</time>
      </trkpt>
      <trkpt lat="42.49986" lon="2.43692">
        <ele>1967</ele>
        <time>2024-09-18T10:28:49Z</time>
      </trkpt>
      <trkpt lat="42.49984" lon="2.43695">
        <ele>1966</ele>
        <time>2024-09-18T10:28:55Z</time>
      </trkpt>
      <trkpt lat="42.49982" lon="2.43699">
        <ele>1965</ele>
        <time>2024-09-18T10:28:59Z</time>
      </trkpt>
      <trkpt lat="42.4998" lon="2.43702">
        <ele>1965</ele>
        <time>2024-09-18T10:29:03Z</time>
      </trkpt>
      <trkpt lat="42.49978" lon="2.43706">
        <ele>1966</ele>
        <time>2024-09-18T10:29:06Z</time>
      </trkpt>
      <trkpt lat="42.49977" lon="2.4371">
        <ele>1965</ele>
        <time>2024-09-18T10:29:09Z</time>
      </trkpt>
      <trkpt lat="42.49975" lon="2.43713">
        <ele>1964</ele>
        <time>2024-09-18T10:29:12Z</time>
      </trkpt>
      <trkpt lat="42.49973" lon="2.43717">
        <ele>1966</ele>
        <time>2024-09-18T10:29:17Z</time>
      </trkpt>
      <trkpt lat="42.49974" lon="2.4372">
        <ele>1968</ele>
        <time>2024-09-18T10:29:26Z</time>
      </trkpt>
      <trkpt lat="42.49973" lon="2.43724">
        <ele>1968</ele>
        <time>2024-09-18T10:29:31Z</time>
      </trkpt>
      <trkpt lat="42.49972" lon="2.43727">
        <ele>1968</ele>
        <time>2024-09-18T10:29:34Z</time>
      </trkpt>
      <trkpt lat="42.49972" lon="2.43731">
        <ele>1967</ele>
        <time>2024-09-18T10:29:38Z</time>
      </trkpt>
      <trkpt lat="42.49972" lon="2.43735">
        <ele>1968</ele>
        <time>2024-09-18T10:29:41Z</time>
      </trkpt>
      <trkpt lat="42.49972" lon="2.43739">
        <ele>1968</ele>
        <time>2024-09-18T10:29:45Z</time>
      </trkpt>
      <trkpt lat="42.49971" lon="2.43743">
        <ele>1967</ele>
        <time>2024-09-18T10:29:48Z</time>
      </trkpt>
      <trkpt lat="42.49971" lon="2.43747">
        <ele>1967</ele>
        <time>2024-09-18T10:29:50Z</time>
      </trkpt>
      <trkpt lat="42.49971" lon="2.43751">
        <ele>1967</ele>
        <time>2024-09-18T10:29:53Z</time>
      </trkpt>
      <trkpt lat="42.49971" lon="2.43755">
        <ele>1968</ele>
        <time>2024-09-18T10:29:56Z</time>
      </trkpt>
      <trkpt lat="42.49971" lon="2.43759">
        <ele>1967</ele>
        <time>2024-09-18T10:29:59Z</time>
      </trkpt>
      <trkpt lat="42.49971" lon="2.43764">
        <ele>1967</ele>
        <time>2024-09-18T10:30:03Z</time>
      </trkpt>
      <trkpt lat="42.4997" lon="2.43769">
        <ele>1966</ele>
        <time>2024-09-18T10:30:06Z</time>
      </trkpt>
      <trkpt lat="42.4997" lon="2.43774">
        <ele>1966</ele>
        <time>2024-09-18T10:30:10Z</time>
      </trkpt>
      <trkpt lat="42.4997" lon="2.43778">
        <ele>1967</ele>
        <time>2024-09-18T10:30:13Z</time>
      </trkpt>
      <trkpt lat="42.49969" lon="2.43782">
        <ele>1966</ele>
        <time>2024-09-18T10:30:16Z</time>
      </trkpt>
      <trkpt lat="42.49969" lon="2.43787">
        <ele>1965</ele>
        <time>2024-09-18T10:30:19Z</time>
      </trkpt>
      <trkpt lat="42.49969" lon="2.43791">
        <ele>1966</ele>
        <time>2024-09-18T10:30:22Z</time>
      </trkpt>
      <trkpt lat="42.49967" lon="2.43794">
        <ele>1967</ele>
        <time>2024-09-18T10:30:25Z</time>
      </trkpt>
      <trkpt lat="42.49966" lon="2.43798">
        <ele>1966</ele>
        <time>2024-09-18T10:30:28Z</time>
      </trkpt>
      <trkpt lat="42.49965" lon="2.43801">
        <ele>1967</ele>
        <time>2024-09-18T10:30:30Z</time>
      </trkpt>
      <trkpt lat="42.49965" lon="2.43805">
        <ele>1967</ele>
        <time>2024-09-18T10:30:33Z</time>
      </trkpt>
      <trkpt lat="42.49964" lon="2.4381">
        <ele>1967</ele>
        <time>2024-09-18T10:30:36Z</time>
      </trkpt>
      <trkpt lat="42.49964" lon="2.43814">
        <ele>1968</ele>
        <time>2024-09-18T10:30:38Z</time>
      </trkpt>
      <trkpt lat="42.49963" lon="2.43818">
        <ele>1968</ele>
        <time>2024-09-18T10:30:42Z</time>
      </trkpt>
      <trkpt lat="42.49963" lon="2.43822">
        <ele>1967</ele>
        <time>2024-09-18T10:30:45Z</time>
      </trkpt>
      <trkpt lat="42.49963" lon="2.43826">
        <ele>1966</ele>
        <time>2024-09-18T10:30:48Z</time>
      </trkpt>
      <trkpt lat="42.49962" lon="2.4383">
        <ele>1966</ele>
        <time>2024-09-18T10:30:52Z</time>
      </trkpt>
      <trkpt lat="42.4996" lon="2.43833">
        <ele>1966</ele>
        <time>2024-09-18T10:30:57Z</time>
      </trkpt>
      <trkpt lat="42.49959" lon="2.43837">
        <ele>1966</ele>
        <time>2024-09-18T10:30:59Z</time>
      </trkpt>
      <trkpt lat="42.49957" lon="2.43841">
        <ele>1966</ele>
        <time>2024-09-18T10:31:02Z</time>
      </trkpt>
      <trkpt lat="42.49956" lon="2.43846">
        <ele>1966</ele>
        <time>2024-09-18T10:31:04Z</time>
      </trkpt>
      <trkpt lat="42.49954" lon="2.43849">
        <ele>1964</ele>
        <time>2024-09-18T10:31:08Z</time>
      </trkpt>
      <trkpt lat="42.49952" lon="2.43851">
        <ele>1965</ele>
        <time>2024-09-18T10:31:11Z</time>
      </trkpt>
      <trkpt lat="42.49951" lon="2.43854">
        <ele>1964</ele>
        <time>2024-09-18T10:31:14Z</time>
      </trkpt>
      <trkpt lat="42.4995" lon="2.43858">
        <ele>1964</ele>
        <time>2024-09-18T10:31:18Z</time>
      </trkpt>
      <trkpt lat="42.49949" lon="2.43861">
        <ele>1963</ele>
        <time>2024-09-18T10:31:21Z</time>
      </trkpt>
      <trkpt lat="42.49947" lon="2.43863">
        <ele>1967</ele>
        <time>2024-09-18T10:31:27Z</time>
      </trkpt>
      <trkpt lat="42.49946" lon="2.43866">
        <ele>1967</ele>
        <time>2024-09-18T10:31:30Z</time>
      </trkpt>
      <trkpt lat="42.49944" lon="2.4387">
        <ele>1966</ele>
        <time>2024-09-18T10:31:34Z</time>
      </trkpt>
      <trkpt lat="42.49943" lon="2.43874">
        <ele>1966</ele>
        <time>2024-09-18T10:31:37Z</time>
      </trkpt>
      <trkpt lat="42.49941" lon="2.43878">
        <ele>1968</ele>
        <time>2024-09-18T10:31:42Z</time>
      </trkpt>
      <trkpt lat="42.4994" lon="2.43883">
        <ele>1969</ele>
        <time>2024-09-18T10:31:47Z</time>
      </trkpt>
      <trkpt lat="42.4994" lon="2.43887">
        <ele>1968</ele>
        <time>2024-09-18T10:31:51Z</time>
      </trkpt>
      <trkpt lat="42.4994" lon="2.43891">
        <ele>1967</ele>
        <time>2024-09-18T10:31:54Z</time>
      </trkpt>
      <trkpt lat="42.4994" lon="2.43895">
        <ele>1967</ele>
        <time>2024-09-18T10:31:58Z</time>
      </trkpt>
      <trkpt lat="42.4994" lon="2.439">
        <ele>1965</ele>
        <time>2024-09-18T10:32:02Z</time>
      </trkpt>
      <trkpt lat="42.49941" lon="2.43904">
        <ele>1964</ele>
        <time>2024-09-18T10:32:06Z</time>
      </trkpt>
      <trkpt lat="42.49941" lon="2.43908">
        <ele>1965</ele>
        <time>2024-09-18T10:32:10Z</time>
      </trkpt>
      <trkpt lat="42.4994" lon="2.43912">
        <ele>1965</ele>
        <time>2024-09-18T10:32:14Z</time>
      </trkpt>
      <trkpt lat="42.49939" lon="2.43916">
        <ele>1966</ele>
        <time>2024-09-18T10:32:19Z</time>
      </trkpt>
      <trkpt lat="42.49939" lon="2.43919">
        <ele>1966</ele>
        <time>2024-09-18T10:32:23Z</time>
      </trkpt>
      <trkpt lat="42.4994" lon="2.43922">
        <ele>1966</ele>
        <time>2024-09-18T10:32:27Z</time>
      </trkpt>
      <trkpt lat="42.49942" lon="2.43924">
        <ele>1967</ele>
        <time>2024-09-18T10:32:32Z</time>
      </trkpt>
      <trkpt lat="42.49945" lon="2.43926">
        <ele>1966</ele>
        <time>2024-09-18T10:32:34Z</time>
      </trkpt>
      <trkpt lat="42.49947" lon="2.43929">
        <ele>1964</ele>
        <time>2024-09-18T10:32:39Z</time>
      </trkpt>
      <trkpt lat="42.49949" lon="2.43932">
        <ele>1963</ele>
        <time>2024-09-18T10:32:42Z</time>
      </trkpt>
      <trkpt lat="42.49952" lon="2.43935">
        <ele>1964</ele>
        <time>2024-09-18T10:32:46Z</time>
      </trkpt>
      <trkpt lat="42.49953" lon="2.43939">
        <ele>1963</ele>
        <time>2024-09-18T10:32:51Z</time>
      </trkpt>
      <trkpt lat="42.49954" lon="2.43943">
        <ele>1962</ele>
        <time>2024-09-18T10:32:55Z</time>
      </trkpt>
      <trkpt lat="42.49957" lon="2.43945">
        <ele>1963</ele>
        <time>2024-09-18T10:33:06Z</time>
      </trkpt>
      <trkpt lat="42.49959" lon="2.43946">
        <ele>1960</ele>
        <time>2024-09-18T10:33:14Z</time>
      </trkpt>
      <trkpt lat="42.49962" lon="2.43947">
        <ele>1959</ele>
        <time>2024-09-18T10:33:23Z</time>
      </trkpt>
      <trkpt lat="42.49964" lon="2.43949">
        <ele>1958</ele>
        <time>2024-09-18T10:34:15Z</time>
      </trkpt>
      <trkpt lat="42.49968" lon="2.4395">
        <ele>1959</ele>
        <time>2024-09-18T10:34:19Z</time>
      </trkpt>
      <trkpt lat="42.4997" lon="2.43953">
        <ele>1958</ele>
        <time>2024-09-18T10:34:24Z</time>
      </trkpt>
      <trkpt lat="42.49972" lon="2.43954">
        <ele>1959</ele>
        <time>2024-09-18T10:35:04Z</time>
      </trkpt>
      <trkpt lat="42.49972" lon="2.43957">
        <ele>1964</ele>
        <time>2024-09-18T10:35:50Z</time>
      </trkpt>
      <trkpt lat="42.49974" lon="2.43957">
        <ele>1962</ele>
        <time>2024-09-18T10:36:10Z</time>
      </trkpt>
      <trkpt lat="42.49975" lon="2.43954">
        <ele>1961</ele>
        <time>2024-09-18T10:36:13Z</time>
      </trkpt>
      <trkpt lat="42.49977" lon="2.4395">
        <ele>1961</ele>
        <time>2024-09-18T10:36:15Z</time>
      </trkpt>
      <trkpt lat="42.49977" lon="2.43946">
        <ele>1961</ele>
        <time>2024-09-18T10:36:19Z</time>
      </trkpt>
      <trkpt lat="42.49979" lon="2.43944">
        <ele>1959</ele>
        <time>2024-09-18T10:36:25Z</time>
      </trkpt>
      <trkpt lat="42.49982" lon="2.43943">
        <ele>1958</ele>
        <time>2024-09-18T10:36:27Z</time>
      </trkpt>
      <trkpt lat="42.49981" lon="2.43942">
        <ele>1963</ele>
        <time>2024-09-18T10:36:53Z</time>
      </trkpt>
      <trkpt lat="42.49982" lon="2.43942">
        <ele>1964</ele>
        <time>2024-09-18T10:37:24Z</time>
      </trkpt>
      <trkpt lat="42.49984" lon="2.4394">
        <ele>1962</ele>
        <time>2024-09-18T10:37:47Z</time>
      </trkpt>
      <trkpt lat="42.49986" lon="2.43938">
        <ele>1961</ele>
        <time>2024-09-18T10:38:00Z</time>
      </trkpt>
      <trkpt lat="42.49986" lon="2.43939">
        <ele>1964</ele>
        <time>2024-09-18T10:39:46Z</time>
      </trkpt>
      <trkpt lat="42.49987" lon="2.43938">
        <ele>1964</ele>
        <time>2024-09-18T10:40:23Z</time>
      </trkpt>
      <trkpt lat="42.49986" lon="2.43939">
        <ele>1961</ele>
        <time>2024-09-18T10:40:47Z</time>
      </trkpt>
      <trkpt lat="42.49984" lon="2.43941">
        <ele>1960</ele>
        <time>2024-09-18T10:40:55Z</time>
      </trkpt>
      <trkpt lat="42.49983" lon="2.43938">
        <ele>1960</ele>
        <time>2024-09-18T10:41:09Z</time>
      </trkpt>
      <trkpt lat="42.49981" lon="2.43938">
        <ele>1960</ele>
        <time>2024-09-18T10:41:12Z</time>
      </trkpt>
      <trkpt lat="42.49978" lon="2.43941">
        <ele>1961</ele>
        <time>2024-09-18T10:41:14Z</time>
      </trkpt>
      <trkpt lat="42.49977" lon="2.43945">
        <ele>1961</ele>
        <time>2024-09-18T10:41:18Z</time>
      </trkpt>
      <trkpt lat="42.49976" lon="2.4395">
        <ele>1960</ele>
        <time>2024-09-18T10:41:21Z</time>
      </trkpt>
      <trkpt lat="42.49975" lon="2.43954">
        <ele>1963</ele>
        <time>2024-09-18T10:41:34Z</time>
      </trkpt>
      <trkpt lat="42.49975" lon="2.43953">
        <ele>1959</ele>
        <time>2024-09-18T10:41:51Z</time>
      </trkpt>
      <trkpt lat="42.49974" lon="2.43952">
        <ele>1959</ele>
        <time>2024-09-18T10:41:53Z</time>
      </trkpt>
      <trkpt lat="42.49974" lon="2.43953">
        <ele>1957</ele>
        <time>2024-09-18T10:42:41Z</time>
      </trkpt>
      <trkpt lat="42.49974" lon="2.43956">
        <ele>1958</ele>
        <time>2024-09-18T10:42:49Z</time>
      </trkpt>
      <trkpt lat="42.49974" lon="2.43955">
        <ele>1960</ele>
        <time>2024-09-18T10:43:30Z</time>
      </trkpt>
      <trkpt lat="42.49975" lon="2.43956">
        <ele>1961</ele>
        <time>2024-09-18T10:44:14Z</time>
      </trkpt>
      <trkpt lat="42.49976" lon="2.43958">
        <ele>1962</ele>
        <time>2024-09-18T10:46:30Z</time>
      </trkpt>
      <trkpt lat="42.49976" lon="2.43956">
        <ele>1964</ele>
        <time>2024-09-18T10:48:49Z</time>
      </trkpt>
      <trkpt lat="42.49977" lon="2.43958">
        <ele>1959</ele>
        <time>2024-09-18T10:49:14Z</time>
      </trkpt>
      <trkpt lat="42.49976" lon="2.43955">
        <ele>1958</ele>
        <time>2024-09-18T10:49:35Z</time>
      </trkpt>
      <trkpt lat="42.49976" lon="2.43952">
        <ele>1966</ele>
        <time>2024-09-18T10:50:54Z</time>
      </trkpt>
      <trkpt lat="42.49975" lon="2.43953">
        <ele>1962</ele>
        <time>2024-09-18T10:51:39Z</time>
      </trkpt>
      <trkpt lat="42.49977" lon="2.43955">
        <ele>1967</ele>
        <time>2024-09-18T10:53:11Z</time>
      </trkpt>
      <trkpt lat="42.49975" lon="2.43955">
        <ele>1967</ele>
        <time>2024-09-18T10:54:22Z</time>
      </trkpt>
      <trkpt lat="42.49976" lon="2.43958">
        <ele>1965</ele>
        <time>2024-09-18T10:55:49Z</time>
      </trkpt>
      <trkpt lat="42.49976" lon="2.43957">
        <ele>1965</ele>
        <time>2024-09-18T10:57:26Z</time>
      </trkpt>
      <trkpt lat="42.49975" lon="2.43956">
        <ele>1968</ele>
        <time>2024-09-18T10:57:34Z</time>
      </trkpt>
      <trkpt lat="42.49974" lon="2.43958">
        <ele>1975</ele>
        <time>2024-09-18T10:58:17Z</time>
      </trkpt>
      <trkpt lat="42.49975" lon="2.43957">
        <ele>1972</ele>
        <time>2024-09-18T10:58:36Z</time>
      </trkpt>
      <trkpt lat="42.49975" lon="2.43955">
        <ele>1967</ele>
        <time>2024-09-18T10:58:45Z</time>
      </trkpt>
      <trkpt lat="42.49976" lon="2.43955">
        <ele>1966</ele>
        <time>2024-09-18T10:59:27Z</time>
      </trkpt>
      <trkpt lat="42.49977" lon="2.43953">
        <ele>1973</ele>
        <time>2024-09-18T10:59:55Z</time>
      </trkpt>
      <trkpt lat="42.49979" lon="2.43956">
        <ele>1962</ele>
        <time>2024-09-18T11:00:42Z</time>
      </trkpt>
      <trkpt lat="42.49979" lon="2.43958">
        <ele>1964</ele>
        <time>2024-09-18T11:00:48Z</time>
      </trkpt>
      <trkpt lat="42.49977" lon="2.43957">
        <ele>1967</ele>
        <time>2024-09-18T11:00:53Z</time>
      </trkpt>
      <trkpt lat="42.49978" lon="2.43955">
        <ele>1965</ele>
        <time>2024-09-18T11:01:03Z</time>
      </trkpt>
      <trkpt lat="42.49979" lon="2.43957">
        <ele>1966</ele>
        <time>2024-09-18T11:01:28Z</time>
      </trkpt>
      <trkpt lat="42.49979" lon="2.43955">
        <ele>1966</ele>
        <time>2024-09-18T11:02:14Z</time>
      </trkpt>
      <trkpt lat="42.49978" lon="2.43955">
        <ele>1966</ele>
        <time>2024-09-18T11:02:20Z</time>
      </trkpt>
      <trkpt lat="42.49975" lon="2.43954">
        <ele>1971</ele>
        <time>2024-09-18T11:02:27Z</time>
      </trkpt>
      <trkpt lat="42.49976" lon="2.43955">
        <ele>1968</ele>
        <time>2024-09-18T11:02:41Z</time>
      </trkpt>
      <trkpt lat="42.49974" lon="2.43957">
        <ele>1971</ele>
        <time>2024-09-18T11:03:18Z</time>
      </trkpt>
      <trkpt lat="42.49976" lon="2.43957">
        <ele>1967</ele>
        <time>2024-09-18T11:03:27Z</time>
      </trkpt>
      <trkpt lat="42.49978" lon="2.43956">
        <ele>1966</ele>
        <time>2024-09-18T11:03:59Z</time>
      </trkpt>
      <trkpt lat="42.49977" lon="2.43956">
        <ele>1967</ele>
        <time>2024-09-18T11:05:06Z</time>
      </trkpt>
      <trkpt lat="42.49975" lon="2.43958">
        <ele>1969</ele>
        <time>2024-09-18T11:05:35Z</time>
      </trkpt>
      <trkpt lat="42.49976" lon="2.43957">
        <ele>1970</ele>
        <time>2024-09-18T11:06:52Z</time>
      </trkpt>
      <trkpt lat="42.49976" lon="2.43959">
        <ele>1968</ele>
        <time>2024-09-18T11:08:59Z</time>
      </trkpt>
      <trkpt lat="42.49979" lon="2.4396">
        <ele>1966</ele>
        <time>2024-09-18T11:09:03Z</time>
      </trkpt>
      <trkpt lat="42.49982" lon="2.43959">
        <ele>1966</ele>
        <time>2024-09-18T11:09:06Z</time>
      </trkpt>
      <trkpt lat="42.49984" lon="2.43959">
        <ele>1967</ele>
        <time>2024-09-18T11:09:13Z</time>
      </trkpt>
      <trkpt lat="42.49987" lon="2.43961">
        <ele>1967</ele>
        <time>2024-09-18T11:09:17Z</time>
      </trkpt>
      <trkpt lat="42.49991" lon="2.43962">
        <ele>1966</ele>
        <time>2024-09-18T11:09:21Z</time>
      </trkpt>
      <trkpt lat="42.49994" lon="2.43963">
        <ele>1967</ele>
        <time>2024-09-18T11:09:26Z</time>
      </trkpt>
      <trkpt lat="42.49996" lon="2.43964">
        <ele>1967</ele>
        <time>2024-09-18T11:09:29Z</time>
      </trkpt>
      <trkpt lat="42.49999" lon="2.43965">
        <ele>1968</ele>
        <time>2024-09-18T11:09:35Z</time>
      </trkpt>
      <trkpt lat="42.50002" lon="2.43967">
        <ele>1969</ele>
        <time>2024-09-18T11:09:38Z</time>
      </trkpt>
      <trkpt lat="42.50004" lon="2.43969">
        <ele>1970</ele>
        <time>2024-09-18T11:09:42Z</time>
      </trkpt>
      <trkpt lat="42.50007" lon="2.4397">
        <ele>1969</ele>
        <time>2024-09-18T11:09:48Z</time>
      </trkpt>
      <trkpt lat="42.50009" lon="2.4397">
        <ele>1968</ele>
        <time>2024-09-18T11:09:52Z</time>
      </trkpt>
      <trkpt lat="42.50013" lon="2.43969">
        <ele>1969</ele>
        <time>2024-09-18T11:09:56Z</time>
      </trkpt>
      <trkpt lat="42.50016" lon="2.43967">
        <ele>1970</ele>
        <time>2024-09-18T11:10:01Z</time>
      </trkpt>
      <trkpt lat="42.50018" lon="2.43964">
        <ele>1970</ele>
        <time>2024-09-18T11:10:06Z</time>
      </trkpt>
      <trkpt lat="42.50021" lon="2.43962">
        <ele>1972</ele>
        <time>2024-09-18T11:10:11Z</time>
      </trkpt>
      <trkpt lat="42.50022" lon="2.43959">
        <ele>1973</ele>
        <time>2024-09-18T11:10:25Z</time>
      </trkpt>
      <trkpt lat="42.50022" lon="2.43955">
        <ele>1975</ele>
        <time>2024-09-18T11:11:03Z</time>
      </trkpt>
      <trkpt lat="42.50022" lon="2.4395">
        <ele>1976</ele>
        <time>2024-09-18T11:11:06Z</time>
      </trkpt>
      <trkpt lat="42.50023" lon="2.43945">
        <ele>1976</ele>
        <time>2024-09-18T11:11:09Z</time>
      </trkpt>
      <trkpt lat="42.50023" lon="2.4394">
        <ele>1976</ele>
        <time>2024-09-18T11:11:13Z</time>
      </trkpt>
      <trkpt lat="42.50024" lon="2.43935">
        <ele>1975</ele>
        <time>2024-09-18T11:11:16Z</time>
      </trkpt>
      <trkpt lat="42.50026" lon="2.43931">
        <ele>1975</ele>
        <time>2024-09-18T11:11:18Z</time>
      </trkpt>
      <trkpt lat="42.50027" lon="2.43927">
        <ele>1975</ele>
        <time>2024-09-18T11:11:21Z</time>
      </trkpt>
      <trkpt lat="42.50028" lon="2.43923">
        <ele>1974</ele>
        <time>2024-09-18T11:11:22Z</time>
      </trkpt>
      <trkpt lat="42.50029" lon="2.43918">
        <ele>1974</ele>
        <time>2024-09-18T11:11:26Z</time>
      </trkpt>
      <trkpt lat="42.50031" lon="2.43915">
        <ele>1974</ele>
        <time>2024-09-18T11:11:30Z</time>
      </trkpt>
      <trkpt lat="42.50034" lon="2.43914">
        <ele>1973</ele>
        <time>2024-09-18T11:11:34Z</time>
      </trkpt>
      <trkpt lat="42.50036" lon="2.4391">
        <ele>1974</ele>
        <time>2024-09-18T11:11:37Z</time>
      </trkpt>
      <trkpt lat="42.50039" lon="2.43908">
        <ele>1975</ele>
        <time>2024-09-18T11:11:40Z</time>
      </trkpt>
      <trkpt lat="42.50041" lon="2.43905">
        <ele>1973</ele>
        <time>2024-09-18T11:11:43Z</time>
      </trkpt>
      <trkpt lat="42.50043" lon="2.43902">
        <ele>1973</ele>
        <time>2024-09-18T11:11:46Z</time>
      </trkpt>
      <trkpt lat="42.50045" lon="2.43899">
        <ele>1974</ele>
        <time>2024-09-18T11:11:48Z</time>
      </trkpt>
      <trkpt lat="42.50046" lon="2.43895">
        <ele>1974</ele>
        <time>2024-09-18T11:11:52Z</time>
      </trkpt>
      <trkpt lat="42.50048" lon="2.43891">
        <ele>1974</ele>
        <time>2024-09-18T11:11:57Z</time>
      </trkpt>
      <trkpt lat="42.5005" lon="2.43888">
        <ele>1975</ele>
        <time>2024-09-18T11:12:03Z</time>
      </trkpt>
      <trkpt lat="42.50053" lon="2.43885">
        <ele>1978</ele>
        <time>2024-09-18T11:12:19Z</time>
      </trkpt>
      <trkpt lat="42.50054" lon="2.43882">
        <ele>1977</ele>
        <time>2024-09-18T11:12:46Z</time>
      </trkpt>
      <trkpt lat="42.50055" lon="2.43878">
        <ele>1977</ele>
        <time>2024-09-18T11:12:48Z</time>
      </trkpt>
      <trkpt lat="42.50056" lon="2.43874">
        <ele>1978</ele>
        <time>2024-09-18T11:12:52Z</time>
      </trkpt>
      <trkpt lat="42.50058" lon="2.43871">
        <ele>1978</ele>
        <time>2024-09-18T11:12:56Z</time>
      </trkpt>
      <trkpt lat="42.5006" lon="2.43867">
        <ele>1977</ele>
        <time>2024-09-18T11:13:00Z</time>
      </trkpt>
      <trkpt lat="42.50061" lon="2.43863">
        <ele>1977</ele>
        <time>2024-09-18T11:13:03Z</time>
      </trkpt>
      <trkpt lat="42.50063" lon="2.43859">
        <ele>1977</ele>
        <time>2024-09-18T11:13:06Z</time>
      </trkpt>
      <trkpt lat="42.50065" lon="2.43856">
        <ele>1978</ele>
        <time>2024-09-18T11:13:09Z</time>
      </trkpt>
      <trkpt lat="42.50067" lon="2.43853">
        <ele>1977</ele>
        <time>2024-09-18T11:13:12Z</time>
      </trkpt>
      <trkpt lat="42.50069" lon="2.4385">
        <ele>1978</ele>
        <time>2024-09-18T11:13:14Z</time>
      </trkpt>
      <trkpt lat="42.50071" lon="2.43847">
        <ele>1977</ele>
        <time>2024-09-18T11:13:17Z</time>
      </trkpt>
      <trkpt lat="42.50073" lon="2.43844">
        <ele>1979</ele>
        <time>2024-09-18T11:13:19Z</time>
      </trkpt>
      <trkpt lat="42.50075" lon="2.4384">
        <ele>1979</ele>
        <time>2024-09-18T11:13:22Z</time>
      </trkpt>
      <trkpt lat="42.50077" lon="2.43836">
        <ele>1979</ele>
        <time>2024-09-18T11:13:26Z</time>
      </trkpt>
      <trkpt lat="42.50079" lon="2.43832">
        <ele>1979</ele>
        <time>2024-09-18T11:13:28Z</time>
      </trkpt>
      <trkpt lat="42.50081" lon="2.43828">
        <ele>1978</ele>
        <time>2024-09-18T11:13:31Z</time>
      </trkpt>
      <trkpt lat="42.50083" lon="2.43824">
        <ele>1979</ele>
        <time>2024-09-18T11:13:34Z</time>
      </trkpt>
      <trkpt lat="42.50085" lon="2.43821">
        <ele>1980</ele>
        <time>2024-09-18T11:13:37Z</time>
      </trkpt>
      <trkpt lat="42.50088" lon="2.43818">
        <ele>1980</ele>
        <time>2024-09-18T11:13:41Z</time>
      </trkpt>
      <trkpt lat="42.50091" lon="2.43816">
        <ele>1980</ele>
        <time>2024-09-18T11:13:44Z</time>
      </trkpt>
      <trkpt lat="42.50094" lon="2.43813">
        <ele>1979</ele>
        <time>2024-09-18T11:13:48Z</time>
      </trkpt>
      <trkpt lat="42.50097" lon="2.43812">
        <ele>1980</ele>
        <time>2024-09-18T11:13:50Z</time>
      </trkpt>
      <trkpt lat="42.501" lon="2.4381">
        <ele>1980</ele>
        <time>2024-09-18T11:13:53Z</time>
      </trkpt>
      <trkpt lat="42.50102" lon="2.43808">
        <ele>1980</ele>
        <time>2024-09-18T11:13:56Z</time>
      </trkpt>
      <trkpt lat="42.50105" lon="2.43807">
        <ele>1981</ele>
        <time>2024-09-18T11:13:59Z</time>
      </trkpt>
      <trkpt lat="42.50107" lon="2.43805">
        <ele>1981</ele>
        <time>2024-09-18T11:14:02Z</time>
      </trkpt>
      <trkpt lat="42.5011" lon="2.43802">
        <ele>1983</ele>
        <time>2024-09-18T11:14:05Z</time>
      </trkpt>
      <trkpt lat="42.50113" lon="2.438">
        <ele>1983</ele>
        <time>2024-09-18T11:14:08Z</time>
      </trkpt>
      <trkpt lat="42.50116" lon="2.438">
        <ele>1983</ele>
        <time>2024-09-18T11:14:11Z</time>
      </trkpt>
      <trkpt lat="42.5012" lon="2.43799">
        <ele>1983</ele>
        <time>2024-09-18T11:14:14Z</time>
      </trkpt>
      <trkpt lat="42.50123" lon="2.43798">
        <ele>1984</ele>
        <time>2024-09-18T11:14:19Z</time>
      </trkpt>
      <trkpt lat="42.50126" lon="2.43796">
        <ele>1986</ele>
        <time>2024-09-18T11:14:23Z</time>
      </trkpt>
      <trkpt lat="42.50129" lon="2.43795">
        <ele>1986</ele>
        <time>2024-09-18T11:14:25Z</time>
      </trkpt>
      <trkpt lat="42.50132" lon="2.43794">
        <ele>1986</ele>
        <time>2024-09-18T11:14:29Z</time>
      </trkpt>
      <trkpt lat="42.50136" lon="2.43793">
        <ele>1986</ele>
        <time>2024-09-18T11:14:32Z</time>
      </trkpt>
      <trkpt lat="42.50139" lon="2.43792">
        <ele>1988</ele>
        <time>2024-09-18T11:14:34Z</time>
      </trkpt>
      <trkpt lat="42.50142" lon="2.43791">
        <ele>1988</ele>
        <time>2024-09-18T11:14:37Z</time>
      </trkpt>
      <trkpt lat="42.50145" lon="2.43789">
        <ele>1989</ele>
        <time>2024-09-18T11:14:40Z</time>
      </trkpt>
      <trkpt lat="42.50148" lon="2.43789">
        <ele>1987</ele>
        <time>2024-09-18T11:14:45Z</time>
      </trkpt>
      <trkpt lat="42.50151" lon="2.43789">
        <ele>1987</ele>
        <time>2024-09-18T11:14:47Z</time>
      </trkpt>
      <trkpt lat="42.50154" lon="2.43788">
        <ele>1987</ele>
        <time>2024-09-18T11:14:50Z</time>
      </trkpt>
      <trkpt lat="42.50156" lon="2.43786">
        <ele>1988</ele>
        <time>2024-09-18T11:14:53Z</time>
      </trkpt>
      <trkpt lat="42.50159" lon="2.43784">
        <ele>1987</ele>
        <time>2024-09-18T11:14:56Z</time>
      </trkpt>
      <trkpt lat="42.50162" lon="2.43782">
        <ele>1987</ele>
        <time>2024-09-18T11:15:00Z</time>
      </trkpt>
      <trkpt lat="42.50164" lon="2.43779">
        <ele>1987</ele>
        <time>2024-09-18T11:15:04Z</time>
      </trkpt>
      <trkpt lat="42.50167" lon="2.43776">
        <ele>1988</ele>
        <time>2024-09-18T11:15:07Z</time>
      </trkpt>
      <trkpt lat="42.5017" lon="2.43774">
        <ele>1988</ele>
        <time>2024-09-18T11:15:10Z</time>
      </trkpt>
      <trkpt lat="42.50172" lon="2.43771">
        <ele>1988</ele>
        <time>2024-09-18T11:15:13Z</time>
      </trkpt>
      <trkpt lat="42.50174" lon="2.43767">
        <ele>1987</ele>
        <time>2024-09-18T11:15:16Z</time>
      </trkpt>
      <trkpt lat="42.50176" lon="2.43765">
        <ele>1988</ele>
        <time>2024-09-18T11:15:19Z</time>
      </trkpt>
      <trkpt lat="42.50178" lon="2.43762">
        <ele>1988</ele>
        <time>2024-09-18T11:15:24Z</time>
      </trkpt>
      <trkpt lat="42.50181" lon="2.4376">
        <ele>1988</ele>
        <time>2024-09-18T11:15:27Z</time>
      </trkpt>
      <trkpt lat="42.50184" lon="2.43757">
        <ele>1989</ele>
        <time>2024-09-18T11:15:30Z</time>
      </trkpt>
      <trkpt lat="42.50186" lon="2.43754">
        <ele>1990</ele>
        <time>2024-09-18T11:15:33Z</time>
      </trkpt>
      <trkpt lat="42.50188" lon="2.43751">
        <ele>1991</ele>
        <time>2024-09-18T11:15:35Z</time>
      </trkpt>
      <trkpt lat="42.50191" lon="2.43748">
        <ele>1991</ele>
        <time>2024-09-18T11:15:39Z</time>
      </trkpt>
      <trkpt lat="42.50194" lon="2.43745">
        <ele>1991</ele>
        <time>2024-09-18T11:15:42Z</time>
      </trkpt>
      <trkpt lat="42.50196" lon="2.43741">
        <ele>1991</ele>
        <time>2024-09-18T11:15:45Z</time>
      </trkpt>
      <trkpt lat="42.50198" lon="2.43737">
        <ele>1991</ele>
        <time>2024-09-18T11:15:49Z</time>
      </trkpt>
      <trkpt lat="42.502" lon="2.43733">
        <ele>1992</ele>
        <time>2024-09-18T11:15:52Z</time>
      </trkpt>
      <trkpt lat="42.50203" lon="2.43732">
        <ele>1991</ele>
        <time>2024-09-18T11:15:57Z</time>
      </trkpt>
      <trkpt lat="42.50206" lon="2.43731">
        <ele>1992</ele>
        <time>2024-09-18T11:16:00Z</time>
      </trkpt>
      <trkpt lat="42.50209" lon="2.43731">
        <ele>1993</ele>
        <time>2024-09-18T11:16:04Z</time>
      </trkpt>
      <trkpt lat="42.50213" lon="2.43731">
        <ele>1993</ele>
        <time>2024-09-18T11:16:06Z</time>
      </trkpt>
      <trkpt lat="42.50216" lon="2.43732">
        <ele>1994</ele>
        <time>2024-09-18T11:16:09Z</time>
      </trkpt>
      <trkpt lat="42.50219" lon="2.43733">
        <ele>1994</ele>
        <time>2024-09-18T11:16:12Z</time>
      </trkpt>
      <trkpt lat="42.50222" lon="2.43733">
        <ele>1994</ele>
        <time>2024-09-18T11:16:14Z</time>
      </trkpt>
      <trkpt lat="42.50226" lon="2.43732">
        <ele>1993</ele>
        <time>2024-09-18T11:16:18Z</time>
      </trkpt>
      <trkpt lat="42.50229" lon="2.43733">
        <ele>1994</ele>
        <time>2024-09-18T11:16:22Z</time>
      </trkpt>
      <trkpt lat="42.50232" lon="2.43733">
        <ele>1992</ele>
        <time>2024-09-18T11:16:26Z</time>
      </trkpt>
      <trkpt lat="42.50235" lon="2.43733">
        <ele>1994</ele>
        <time>2024-09-18T11:16:28Z</time>
      </trkpt>
      <trkpt lat="42.50239" lon="2.43733">
        <ele>1994</ele>
        <time>2024-09-18T11:16:31Z</time>
      </trkpt>
      <trkpt lat="42.50242" lon="2.43733">
        <ele>1993</ele>
        <time>2024-09-18T11:16:33Z</time>
      </trkpt>
      <trkpt lat="42.50245" lon="2.43732">
        <ele>1993</ele>
        <time>2024-09-18T11:16:37Z</time>
      </trkpt>
      <trkpt lat="42.50248" lon="2.43732">
        <ele>1993</ele>
        <time>2024-09-18T11:16:40Z</time>
      </trkpt>
      <trkpt lat="42.50251" lon="2.43731">
        <ele>1993</ele>
        <time>2024-09-18T11:16:43Z</time>
      </trkpt>
      <trkpt lat="42.50254" lon="2.43729">
        <ele>1994</ele>
        <time>2024-09-18T11:16:50Z</time>
      </trkpt>
      <trkpt lat="42.50256" lon="2.43727">
        <ele>1996</ele>
        <time>2024-09-18T11:16:55Z</time>
      </trkpt>
      <trkpt lat="42.50257" lon="2.43723">
        <ele>1997</ele>
        <time>2024-09-18T11:17:02Z</time>
      </trkpt>
      <trkpt lat="42.50257" lon="2.43719">
        <ele>1998</ele>
        <time>2024-09-18T11:17:08Z</time>
      </trkpt>
      <trkpt lat="42.50258" lon="2.43715">
        <ele>1999</ele>
        <time>2024-09-18T11:17:13Z</time>
      </trkpt>
      <trkpt lat="42.50258" lon="2.43711">
        <ele>1999</ele>
        <time>2024-09-18T11:17:22Z</time>
      </trkpt>
      <trkpt lat="42.50256" lon="2.43707">
        <ele>2000</ele>
        <time>2024-09-18T11:17:26Z</time>
      </trkpt>
      <trkpt lat="42.50256" lon="2.43704">
        <ele>2001</ele>
        <time>2024-09-18T11:17:29Z</time>
      </trkpt>
      <trkpt lat="42.50256" lon="2.437">
        <ele>2000</ele>
        <time>2024-09-18T11:17:34Z</time>
      </trkpt>
      <trkpt lat="42.50257" lon="2.43697">
        <ele>2001</ele>
        <time>2024-09-18T11:17:37Z</time>
      </trkpt>
      <trkpt lat="42.50257" lon="2.43694">
        <ele>2002</ele>
        <time>2024-09-18T11:17:39Z</time>
      </trkpt>
      <trkpt lat="42.50258" lon="2.43689">
        <ele>2001</ele>
        <time>2024-09-18T11:17:42Z</time>
      </trkpt>
      <trkpt lat="42.50257" lon="2.43684">
        <ele>2004</ele>
        <time>2024-09-18T11:17:46Z</time>
      </trkpt>
      <trkpt lat="42.50258" lon="2.4368">
        <ele>2003</ele>
        <time>2024-09-18T11:17:49Z</time>
      </trkpt>
      <trkpt lat="42.5026" lon="2.43676">
        <ele>2002</ele>
        <time>2024-09-18T11:17:52Z</time>
      </trkpt>
      <trkpt lat="42.50262" lon="2.43674">
        <ele>2001</ele>
        <time>2024-09-18T11:17:55Z</time>
      </trkpt>
      <trkpt lat="42.50264" lon="2.4367">
        <ele>2001</ele>
        <time>2024-09-18T11:17:58Z</time>
      </trkpt>
      <trkpt lat="42.50266" lon="2.43667">
        <ele>2002</ele>
        <time>2024-09-18T11:18:01Z</time>
      </trkpt>
      <trkpt lat="42.50268" lon="2.43664">
        <ele>2003</ele>
        <time>2024-09-18T11:18:06Z</time>
      </trkpt>
      <trkpt lat="42.5027" lon="2.43661">
        <ele>2002</ele>
        <time>2024-09-18T11:18:09Z</time>
      </trkpt>
      <trkpt lat="42.50272" lon="2.43658">
        <ele>2002</ele>
        <time>2024-09-18T11:18:12Z</time>
      </trkpt>
      <trkpt lat="42.50273" lon="2.43654">
        <ele>2003</ele>
        <time>2024-09-18T11:18:16Z</time>
      </trkpt>
      <trkpt lat="42.50274" lon="2.4365">
        <ele>2003</ele>
        <time>2024-09-18T11:18:19Z</time>
      </trkpt>
      <trkpt lat="42.50276" lon="2.43648">
        <ele>2004</ele>
        <time>2024-09-18T11:18:23Z</time>
      </trkpt>
      <trkpt lat="42.50277" lon="2.43645">
        <ele>2005</ele>
        <time>2024-09-18T11:18:26Z</time>
      </trkpt>
      <trkpt lat="42.50279" lon="2.43642">
        <ele>2005</ele>
        <time>2024-09-18T11:18:29Z</time>
      </trkpt>
      <trkpt lat="42.50281" lon="2.43639">
        <ele>2005</ele>
        <time>2024-09-18T11:18:31Z</time>
      </trkpt>
      <trkpt lat="42.50283" lon="2.43635">
        <ele>2006</ele>
        <time>2024-09-18T11:18:36Z</time>
      </trkpt>
      <trkpt lat="42.50283" lon="2.4363">
        <ele>2005</ele>
        <time>2024-09-18T11:18:37Z</time>
      </trkpt>
      <trkpt lat="42.50286" lon="2.43627">
        <ele>2006</ele>
        <time>2024-09-18T11:18:44Z</time>
      </trkpt>
      <trkpt lat="42.50287" lon="2.43624">
        <ele>2007</ele>
        <time>2024-09-18T11:18:47Z</time>
      </trkpt>
      <trkpt lat="42.5029" lon="2.43621">
        <ele>2007</ele>
        <time>2024-09-18T11:18:52Z</time>
      </trkpt>
      <trkpt lat="42.50291" lon="2.43618">
        <ele>2008</ele>
        <time>2024-09-18T11:18:55Z</time>
      </trkpt>
      <trkpt lat="42.50293" lon="2.43615">
        <ele>2010</ele>
        <time>2024-09-18T11:18:57Z</time>
      </trkpt>
      <trkpt lat="42.50295" lon="2.43612">
        <ele>2009</ele>
        <time>2024-09-18T11:19:00Z</time>
      </trkpt>
      <trkpt lat="42.50296" lon="2.43608">
        <ele>2009</ele>
        <time>2024-09-18T11:19:03Z</time>
      </trkpt>
      <trkpt lat="42.50297" lon="2.43604">
        <ele>2009</ele>
        <time>2024-09-18T11:19:06Z</time>
      </trkpt>
      <trkpt lat="42.50299" lon="2.436">
        <ele>2009</ele>
        <time>2024-09-18T11:19:12Z</time>
      </trkpt>
      <trkpt lat="42.503" lon="2.43595">
        <ele>2009</ele>
        <time>2024-09-18T11:19:16Z</time>
      </trkpt>
      <trkpt lat="42.50301" lon="2.43591">
        <ele>2009</ele>
        <time>2024-09-18T11:19:20Z</time>
      </trkpt>
      <trkpt lat="42.50302" lon="2.43587">
        <ele>2009</ele>
        <time>2024-09-18T11:19:23Z</time>
      </trkpt>
      <trkpt lat="42.50302" lon="2.43582">
        <ele>2011</ele>
        <time>2024-09-18T11:19:26Z</time>
      </trkpt>
      <trkpt lat="42.50304" lon="2.43579">
        <ele>2010</ele>
        <time>2024-09-18T11:19:30Z</time>
      </trkpt>
      <trkpt lat="42.50305" lon="2.43575">
        <ele>2012</ele>
        <time>2024-09-18T11:19:32Z</time>
      </trkpt>
      <trkpt lat="42.50306" lon="2.43571">
        <ele>2012</ele>
        <time>2024-09-18T11:19:36Z</time>
      </trkpt>
      <trkpt lat="42.50307" lon="2.43568">
        <ele>2011</ele>
        <time>2024-09-18T11:19:39Z</time>
      </trkpt>
      <trkpt lat="42.50309" lon="2.43564">
        <ele>2011</ele>
        <time>2024-09-18T11:19:41Z</time>
      </trkpt>
      <trkpt lat="42.50311" lon="2.4356">
        <ele>2012</ele>
        <time>2024-09-18T11:19:44Z</time>
      </trkpt>
      <trkpt lat="42.50313" lon="2.43556">
        <ele>2011</ele>
        <time>2024-09-18T11:19:47Z</time>
      </trkpt>
      <trkpt lat="42.50315" lon="2.43552">
        <ele>2011</ele>
        <time>2024-09-18T11:19:50Z</time>
      </trkpt>
      <trkpt lat="42.50317" lon="2.43548">
        <ele>2012</ele>
        <time>2024-09-18T11:19:53Z</time>
      </trkpt>
      <trkpt lat="42.50318" lon="2.43544">
        <ele>2011</ele>
        <time>2024-09-18T11:19:56Z</time>
      </trkpt>
      <trkpt lat="42.5032" lon="2.43541">
        <ele>2010</ele>
        <time>2024-09-18T11:20:00Z</time>
      </trkpt>
      <trkpt lat="42.50322" lon="2.43537">
        <ele>2012</ele>
        <time>2024-09-18T11:20:03Z</time>
      </trkpt>
      <trkpt lat="42.50323" lon="2.43534">
        <ele>2013</ele>
        <time>2024-09-18T11:20:07Z</time>
      </trkpt>
      <trkpt lat="42.50325" lon="2.4353">
        <ele>2014</ele>
        <time>2024-09-18T11:20:11Z</time>
      </trkpt>
      <trkpt lat="42.50327" lon="2.43527">
        <ele>2014</ele>
        <time>2024-09-18T11:20:17Z</time>
      </trkpt>
      <trkpt lat="42.50328" lon="2.43523">
        <ele>2015</ele>
        <time>2024-09-18T11:20:20Z</time>
      </trkpt>
      <trkpt lat="42.50329" lon="2.43518">
        <ele>2015</ele>
        <time>2024-09-18T11:20:23Z</time>
      </trkpt>
      <trkpt lat="42.50331" lon="2.43515">
        <ele>2015</ele>
        <time>2024-09-18T11:20:25Z</time>
      </trkpt>
      <trkpt lat="42.50333" lon="2.43512">
        <ele>2016</ele>
        <time>2024-09-18T11:20:28Z</time>
      </trkpt>
      <trkpt lat="42.50334" lon="2.43508">
        <ele>2017</ele>
        <time>2024-09-18T11:20:31Z</time>
      </trkpt>
      <trkpt lat="42.50336" lon="2.43503">
        <ele>2017</ele>
        <time>2024-09-18T11:20:36Z</time>
      </trkpt>
      <trkpt lat="42.50337" lon="2.43498">
        <ele>2017</ele>
        <time>2024-09-18T11:20:39Z</time>
      </trkpt>
      <trkpt lat="42.50338" lon="2.43494">
        <ele>2017</ele>
        <time>2024-09-18T11:20:44Z</time>
      </trkpt>
      <trkpt lat="42.50338" lon="2.4349">
        <ele>2017</ele>
        <time>2024-09-18T11:20:47Z</time>
      </trkpt>
      <trkpt lat="42.5034" lon="2.43487">
        <ele>2016</ele>
        <time>2024-09-18T11:21:11Z</time>
      </trkpt>
      <trkpt lat="42.50339" lon="2.43483">
        <ele>2017</ele>
        <time>2024-09-18T11:21:20Z</time>
      </trkpt>
      <trkpt lat="42.5034" lon="2.43481">
        <ele>2017</ele>
        <time>2024-09-18T11:21:23Z</time>
      </trkpt>
      <trkpt lat="42.50342" lon="2.43477">
        <ele>2016</ele>
        <time>2024-09-18T11:21:26Z</time>
      </trkpt>
      <trkpt lat="42.50344" lon="2.43473">
        <ele>2016</ele>
        <time>2024-09-18T11:21:29Z</time>
      </trkpt>
      <trkpt lat="42.50346" lon="2.43469">
        <ele>2014</ele>
        <time>2024-09-18T11:21:31Z</time>
      </trkpt>
      <trkpt lat="42.50348" lon="2.43465">
        <ele>2015</ele>
        <time>2024-09-18T11:21:34Z</time>
      </trkpt>
      <trkpt lat="42.50348" lon="2.43461">
        <ele>2016</ele>
        <time>2024-09-18T11:21:36Z</time>
      </trkpt>
      <trkpt lat="42.5035" lon="2.43457">
        <ele>2017</ele>
        <time>2024-09-18T11:21:39Z</time>
      </trkpt>
      <trkpt lat="42.50351" lon="2.43453">
        <ele>2018</ele>
        <time>2024-09-18T11:21:42Z</time>
      </trkpt>
      <trkpt lat="42.50353" lon="2.43449">
        <ele>2016</ele>
        <time>2024-09-18T11:21:46Z</time>
      </trkpt>
      <trkpt lat="42.50355" lon="2.43445">
        <ele>2016</ele>
        <time>2024-09-18T11:21:48Z</time>
      </trkpt>
      <trkpt lat="42.50357" lon="2.43442">
        <ele>2014</ele>
        <time>2024-09-18T11:21:52Z</time>
      </trkpt>
      <trkpt lat="42.50357" lon="2.43438">
        <ele>2015</ele>
        <time>2024-09-18T11:21:52Z</time>
      </trkpt>
      <trkpt lat="42.50358" lon="2.43434">
        <ele>2015</ele>
        <time>2024-09-18T11:21:55Z</time>
      </trkpt>
      <trkpt lat="42.5036" lon="2.4343">
        <ele>2015</ele>
        <time>2024-09-18T11:21:59Z</time>
      </trkpt>
      <trkpt lat="42.50362" lon="2.43425">
        <ele>2017</ele>
        <time>2024-09-18T11:22:02Z</time>
      </trkpt>
      <trkpt lat="42.50364" lon="2.43421">
        <ele>2018</ele>
        <time>2024-09-18T11:22:05Z</time>
      </trkpt>
      <trkpt lat="42.50366" lon="2.43415">
        <ele>2019</ele>
        <time>2024-09-18T11:22:08Z</time>
      </trkpt>
      <trkpt lat="42.50366" lon="2.4341">
        <ele>2018</ele>
        <time>2024-09-18T11:22:12Z</time>
      </trkpt>
      <trkpt lat="42.50367" lon="2.43407">
        <ele>2018</ele>
        <time>2024-09-18T11:22:15Z</time>
      </trkpt>
      <trkpt lat="42.50368" lon="2.43403">
        <ele>2018</ele>
        <time>2024-09-18T11:22:18Z</time>
      </trkpt>
      <trkpt lat="42.5037" lon="2.43399">
        <ele>2019</ele>
        <time>2024-09-18T11:22:21Z</time>
      </trkpt>
      <trkpt lat="42.5037" lon="2.43394">
        <ele>2020</ele>
        <time>2024-09-18T11:22:26Z</time>
      </trkpt>
      <trkpt lat="42.5037" lon="2.4339">
        <ele>2021</ele>
        <time>2024-09-18T11:22:29Z</time>
      </trkpt>
      <trkpt lat="42.50371" lon="2.43385">
        <ele>2019</ele>
        <time>2024-09-18T11:22:33Z</time>
      </trkpt>
      <trkpt lat="42.50371" lon="2.4338">
        <ele>2020</ele>
        <time>2024-09-18T11:22:35Z</time>
      </trkpt>
      <trkpt lat="42.50372" lon="2.43376">
        <ele>2020</ele>
        <time>2024-09-18T11:22:38Z</time>
      </trkpt>
      <trkpt lat="42.50374" lon="2.43372">
        <ele>2020</ele>
        <time>2024-09-18T11:22:41Z</time>
      </trkpt>
      <trkpt lat="42.50376" lon="2.43368">
        <ele>2020</ele>
        <time>2024-09-18T11:22:45Z</time>
      </trkpt>
      <trkpt lat="42.50377" lon="2.43365">
        <ele>2021</ele>
        <time>2024-09-18T11:22:47Z</time>
      </trkpt>
      <trkpt lat="42.50379" lon="2.43362">
        <ele>2021</ele>
        <time>2024-09-18T11:22:52Z</time>
      </trkpt>
      <trkpt lat="42.50381" lon="2.43359">
        <ele>2021</ele>
        <time>2024-09-18T11:22:55Z</time>
      </trkpt>
      <trkpt lat="42.50384" lon="2.43356">
        <ele>2021</ele>
        <time>2024-09-18T11:22:58Z</time>
      </trkpt>
      <trkpt lat="42.50386" lon="2.43355">
        <ele>2021</ele>
        <time>2024-09-18T11:23:00Z</time>
      </trkpt>
      <trkpt lat="42.50388" lon="2.43353">
        <ele>2021</ele>
        <time>2024-09-18T11:23:03Z</time>
      </trkpt>
      <trkpt lat="42.50391" lon="2.43352">
        <ele>2021</ele>
        <time>2024-09-18T11:23:06Z</time>
      </trkpt>
      <trkpt lat="42.50394" lon="2.43351">
        <ele>2021</ele>
        <time>2024-09-18T11:23:09Z</time>
      </trkpt>
      <trkpt lat="42.50398" lon="2.43349">
        <ele>2022</ele>
        <time>2024-09-18T11:23:12Z</time>
      </trkpt>
      <trkpt lat="42.50401" lon="2.43347">
        <ele>2022</ele>
        <time>2024-09-18T11:23:16Z</time>
      </trkpt>
      <trkpt lat="42.50404" lon="2.43346">
        <ele>2023</ele>
        <time>2024-09-18T11:23:20Z</time>
      </trkpt>
      <trkpt lat="42.50407" lon="2.43345">
        <ele>2023</ele>
        <time>2024-09-18T11:23:26Z</time>
      </trkpt>
      <trkpt lat="42.5041" lon="2.43345">
        <ele>2024</ele>
        <time>2024-09-18T11:23:30Z</time>
      </trkpt>
      <trkpt lat="42.50414" lon="2.43346">
        <ele>2025</ele>
        <time>2024-09-18T11:23:34Z</time>
      </trkpt>
      <trkpt lat="42.50417" lon="2.43348">
        <ele>2023</ele>
        <time>2024-09-18T11:23:38Z</time>
      </trkpt>
      <trkpt lat="42.5042" lon="2.43348">
        <ele>2023</ele>
        <time>2024-09-18T11:23:42Z</time>
      </trkpt>
      <trkpt lat="42.50423" lon="2.4335">
        <ele>2023</ele>
        <time>2024-09-18T11:23:47Z</time>
      </trkpt>
      <trkpt lat="42.50426" lon="2.43351">
        <ele>2024</ele>
        <time>2024-09-18T11:23:51Z</time>
      </trkpt>
      <trkpt lat="42.50429" lon="2.43353">
        <ele>2024</ele>
        <time>2024-09-18T11:23:57Z</time>
      </trkpt>
      <trkpt lat="42.50431" lon="2.43355">
        <ele>2023</ele>
        <time>2024-09-18T11:24:00Z</time>
      </trkpt>
      <trkpt lat="42.50434" lon="2.43357">
        <ele>2024</ele>
        <time>2024-09-18T11:24:03Z</time>
      </trkpt>
      <trkpt lat="42.50437" lon="2.43359">
        <ele>2025</ele>
        <time>2024-09-18T11:24:07Z</time>
      </trkpt>
      <trkpt lat="42.50439" lon="2.43362">
        <ele>2027</ele>
        <time>2024-09-18T11:24:11Z</time>
      </trkpt>
      <trkpt lat="42.50442" lon="2.43364">
        <ele>2028</ele>
        <time>2024-09-18T11:24:13Z</time>
      </trkpt>
      <trkpt lat="42.50444" lon="2.43366">
        <ele>2028</ele>
        <time>2024-09-18T11:24:15Z</time>
      </trkpt>
      <trkpt lat="42.50447" lon="2.43368">
        <ele>2027</ele>
        <time>2024-09-18T11:24:19Z</time>
      </trkpt>
      <trkpt lat="42.5045" lon="2.4337">
        <ele>2026</ele>
        <time>2024-09-18T11:24:24Z</time>
      </trkpt>
      <trkpt lat="42.50453" lon="2.43372">
        <ele>2026</ele>
        <time>2024-09-18T11:24:28Z</time>
      </trkpt>
      <trkpt lat="42.50456" lon="2.43375">
        <ele>2027</ele>
        <time>2024-09-18T11:24:31Z</time>
      </trkpt>
      <trkpt lat="42.50459" lon="2.43377">
        <ele>2024</ele>
        <time>2024-09-18T11:24:34Z</time>
      </trkpt>
      <trkpt lat="42.50462" lon="2.43379">
        <ele>2026</ele>
        <time>2024-09-18T11:24:38Z</time>
      </trkpt>
      <trkpt lat="42.50464" lon="2.43381">
        <ele>2026</ele>
        <time>2024-09-18T11:24:41Z</time>
      </trkpt>
      <trkpt lat="42.50466" lon="2.43383">
        <ele>2026</ele>
        <time>2024-09-18T11:24:45Z</time>
      </trkpt>
      <trkpt lat="42.50469" lon="2.43386">
        <ele>2028</ele>
        <time>2024-09-18T11:24:48Z</time>
      </trkpt>
      <trkpt lat="42.50472" lon="2.43388">
        <ele>2028</ele>
        <time>2024-09-18T11:24:52Z</time>
      </trkpt>
      <trkpt lat="42.50475" lon="2.4339">
        <ele>2029</ele>
        <time>2024-09-18T11:24:54Z</time>
      </trkpt>
      <trkpt lat="42.50477" lon="2.43392">
        <ele>2031</ele>
        <time>2024-09-18T11:24:58Z</time>
      </trkpt>
      <trkpt lat="42.5048" lon="2.43395">
        <ele>2028</ele>
        <time>2024-09-18T11:25:00Z</time>
      </trkpt>
      <trkpt lat="42.50482" lon="2.43396">
        <ele>2029</ele>
        <time>2024-09-18T11:25:04Z</time>
      </trkpt>
      <trkpt lat="42.50485" lon="2.43398">
        <ele>2030</ele>
        <time>2024-09-18T11:25:06Z</time>
      </trkpt>
      <trkpt lat="42.50488" lon="2.43399">
        <ele>2028</ele>
        <time>2024-09-18T11:25:10Z</time>
      </trkpt>
      <trkpt lat="42.50491" lon="2.43401">
        <ele>2028</ele>
        <time>2024-09-18T11:25:13Z</time>
      </trkpt>
      <trkpt lat="42.50494" lon="2.43403">
        <ele>2030</ele>
        <time>2024-09-18T11:25:17Z</time>
      </trkpt>
      <trkpt lat="42.50497" lon="2.43406">
        <ele>2031</ele>
        <time>2024-09-18T11:25:21Z</time>
      </trkpt>
      <trkpt lat="42.505" lon="2.43408">
        <ele>2030</ele>
        <time>2024-09-18T11:25:24Z</time>
      </trkpt>
      <trkpt lat="42.50503" lon="2.4341">
        <ele>2031</ele>
        <time>2024-09-18T11:25:27Z</time>
      </trkpt>
      <trkpt lat="42.50506" lon="2.43413">
        <ele>2030</ele>
        <time>2024-09-18T11:25:30Z</time>
      </trkpt>
      <trkpt lat="42.5051" lon="2.43414">
        <ele>2030</ele>
        <time>2024-09-18T11:25:35Z</time>
      </trkpt>
      <trkpt lat="42.50514" lon="2.43415">
        <ele>2032</ele>
        <time>2024-09-18T11:25:38Z</time>
      </trkpt>
      <trkpt lat="42.50517" lon="2.43417">
        <ele>2031</ele>
        <time>2024-09-18T11:25:43Z</time>
      </trkpt>
      <trkpt lat="42.5052" lon="2.4342">
        <ele>2030</ele>
        <time>2024-09-18T11:25:47Z</time>
      </trkpt>
      <trkpt lat="42.50523" lon="2.43423">
        <ele>2032</ele>
        <time>2024-09-18T11:25:51Z</time>
      </trkpt>
      <trkpt lat="42.50525" lon="2.43425">
        <ele>2033</ele>
        <time>2024-09-18T11:25:54Z</time>
      </trkpt>
      <trkpt lat="42.50528" lon="2.43426">
        <ele>2032</ele>
        <time>2024-09-18T11:25:57Z</time>
      </trkpt>
      <trkpt lat="42.5053" lon="2.43429">
        <ele>2033</ele>
        <time>2024-09-18T11:26:01Z</time>
      </trkpt>
      <trkpt lat="42.50534" lon="2.4343">
        <ele>2033</ele>
        <time>2024-09-18T11:26:23Z</time>
      </trkpt>
      <trkpt lat="42.50536" lon="2.43432">
        <ele>2033</ele>
        <time>2024-09-18T11:26:27Z</time>
      </trkpt>
      <trkpt lat="42.50539" lon="2.43434">
        <ele>2033</ele>
        <time>2024-09-18T11:26:30Z</time>
      </trkpt>
      <trkpt lat="42.50542" lon="2.43437">
        <ele>2033</ele>
        <time>2024-09-18T11:26:33Z</time>
      </trkpt>
      <trkpt lat="42.50545" lon="2.4344">
        <ele>2033</ele>
        <time>2024-09-18T11:26:36Z</time>
      </trkpt>
      <trkpt lat="42.50547" lon="2.43442">
        <ele>2034</ele>
        <time>2024-09-18T11:26:40Z</time>
      </trkpt>
      <trkpt lat="42.5055" lon="2.43445">
        <ele>2033</ele>
        <time>2024-09-18T11:26:53Z</time>
      </trkpt>
      <trkpt lat="42.50554" lon="2.43447">
        <ele>2034</ele>
        <time>2024-09-18T11:26:57Z</time>
      </trkpt>
      <trkpt lat="42.50556" lon="2.43447">
        <ele>2032</ele>
        <time>2024-09-18T11:27:02Z</time>
      </trkpt>
      <trkpt lat="42.50559" lon="2.43448">
        <ele>2033</ele>
        <time>2024-09-18T11:27:05Z</time>
      </trkpt>
      <trkpt lat="42.5056" lon="2.43451">
        <ele>2033</ele>
        <time>2024-09-18T11:27:07Z</time>
      </trkpt>
      <trkpt lat="42.50563" lon="2.43453">
        <ele>2035</ele>
        <time>2024-09-18T11:27:11Z</time>
      </trkpt>
      <trkpt lat="42.50566" lon="2.43454">
        <ele>2035</ele>
        <time>2024-09-18T11:27:14Z</time>
      </trkpt>
      <trkpt lat="42.50568" lon="2.43455">
        <ele>2036</ele>
        <time>2024-09-18T11:27:17Z</time>
      </trkpt>
      <trkpt lat="42.50572" lon="2.43457">
        <ele>2037</ele>
        <time>2024-09-18T11:27:20Z</time>
      </trkpt>
      <trkpt lat="42.50575" lon="2.43459">
        <ele>2037</ele>
        <time>2024-09-18T11:27:23Z</time>
      </trkpt>
      <trkpt lat="42.50576" lon="2.43462">
        <ele>2039</ele>
        <time>2024-09-18T11:27:58Z</time>
      </trkpt>
      <trkpt lat="42.50578" lon="2.43464">
        <ele>2038</ele>
        <time>2024-09-18T11:28:00Z</time>
      </trkpt>
      <trkpt lat="42.50581" lon="2.43466">
        <ele>2038</ele>
        <time>2024-09-18T11:28:02Z</time>
      </trkpt>
      <trkpt lat="42.50584" lon="2.43467">
        <ele>2038</ele>
        <time>2024-09-18T11:28:06Z</time>
      </trkpt>
      <trkpt lat="42.50586" lon="2.43468">
        <ele>2038</ele>
        <time>2024-09-18T11:28:08Z</time>
      </trkpt>
      <trkpt lat="42.50589" lon="2.4347">
        <ele>2038</ele>
        <time>2024-09-18T11:28:11Z</time>
      </trkpt>
      <trkpt lat="42.50592" lon="2.43472">
        <ele>2038</ele>
        <time>2024-09-18T11:28:14Z</time>
      </trkpt>
      <trkpt lat="42.50596" lon="2.43472">
        <ele>2040</ele>
        <time>2024-09-18T11:28:19Z</time>
      </trkpt>
      <trkpt lat="42.50599" lon="2.43471">
        <ele>2039</ele>
        <time>2024-09-18T11:28:22Z</time>
      </trkpt>
      <trkpt lat="42.50602" lon="2.43469">
        <ele>2038</ele>
        <time>2024-09-18T11:28:24Z</time>
      </trkpt>
      <trkpt lat="42.50605" lon="2.43468">
        <ele>2039</ele>
        <time>2024-09-18T11:28:28Z</time>
      </trkpt>
      <trkpt lat="42.50609" lon="2.43467">
        <ele>2039</ele>
        <time>2024-09-18T11:28:34Z</time>
      </trkpt>
      <trkpt lat="42.50612" lon="2.43466">
        <ele>2039</ele>
        <time>2024-09-18T11:28:37Z</time>
      </trkpt>
      <trkpt lat="42.50616" lon="2.43465">
        <ele>2039</ele>
        <time>2024-09-18T11:28:41Z</time>
      </trkpt>
      <trkpt lat="42.50618" lon="2.43466">
        <ele>2039</ele>
        <time>2024-09-18T11:28:43Z</time>
      </trkpt>
      <trkpt lat="42.50621" lon="2.43468">
        <ele>2043</ele>
        <time>2024-09-18T11:28:48Z</time>
      </trkpt>
      <trkpt lat="42.50624" lon="2.4347">
        <ele>2042</ele>
        <time>2024-09-18T11:28:50Z</time>
      </trkpt>
      <trkpt lat="42.50627" lon="2.4347">
        <ele>2041</ele>
        <time>2024-09-18T11:28:52Z</time>
      </trkpt>
      <trkpt lat="42.5063" lon="2.4347">
        <ele>2041</ele>
        <time>2024-09-18T11:28:54Z</time>
      </trkpt>
      <trkpt lat="42.50633" lon="2.4347">
        <ele>2041</ele>
        <time>2024-09-18T11:28:57Z</time>
      </trkpt>
      <trkpt lat="42.50636" lon="2.4347">
        <ele>2041</ele>
        <time>2024-09-18T11:28:59Z</time>
      </trkpt>
      <trkpt lat="42.50639" lon="2.43472">
        <ele>2039</ele>
        <time>2024-09-18T11:29:02Z</time>
      </trkpt>
      <trkpt lat="42.50643" lon="2.43473">
        <ele>2039</ele>
        <time>2024-09-18T11:29:06Z</time>
      </trkpt>
      <trkpt lat="42.50646" lon="2.43473">
        <ele>2039</ele>
        <time>2024-09-18T11:29:10Z</time>
      </trkpt>
      <trkpt lat="42.5065" lon="2.43473">
        <ele>2039</ele>
        <time>2024-09-18T11:29:12Z</time>
      </trkpt>
      <trkpt lat="42.50653" lon="2.43474">
        <ele>2039</ele>
        <time>2024-09-18T11:29:17Z</time>
      </trkpt>
      <trkpt lat="42.50656" lon="2.43474">
        <ele>2039</ele>
        <time>2024-09-18T11:29:20Z</time>
      </trkpt>
      <trkpt lat="42.50659" lon="2.43473">
        <ele>2040</ele>
        <time>2024-09-18T11:29:25Z</time>
      </trkpt>
      <trkpt lat="42.50662" lon="2.43474">
        <ele>2040</ele>
        <time>2024-09-18T11:29:29Z</time>
      </trkpt>
      <trkpt lat="42.50665" lon="2.43476">
        <ele>2040</ele>
        <time>2024-09-18T11:29:34Z</time>
      </trkpt>
      <trkpt lat="42.50668" lon="2.43477">
        <ele>2040</ele>
        <time>2024-09-18T11:29:37Z</time>
      </trkpt>
      <trkpt lat="42.50671" lon="2.43476">
        <ele>2039</ele>
        <time>2024-09-18T11:29:45Z</time>
      </trkpt>
      <trkpt lat="42.50675" lon="2.43476">
        <ele>2040</ele>
        <time>2024-09-18T11:29:50Z</time>
      </trkpt>
      <trkpt lat="42.50678" lon="2.43477">
        <ele>2040</ele>
        <time>2024-09-18T11:29:52Z</time>
      </trkpt>
      <trkpt lat="42.50682" lon="2.43477">
        <ele>2041</ele>
        <time>2024-09-18T11:29:54Z</time>
      </trkpt>
      <trkpt lat="42.50685" lon="2.43475">
        <ele>2041</ele>
        <time>2024-09-18T11:29:57Z</time>
      </trkpt>
      <trkpt lat="42.50688" lon="2.43474">
        <ele>2043</ele>
        <time>2024-09-18T11:30:02Z</time>
      </trkpt>
      <trkpt lat="42.50691" lon="2.43473">
        <ele>2041</ele>
        <time>2024-09-18T11:30:07Z</time>
      </trkpt>
      <trkpt lat="42.50694" lon="2.43474">
        <ele>2042</ele>
        <time>2024-09-18T11:30:11Z</time>
      </trkpt>
      <trkpt lat="42.50696" lon="2.43472">
        <ele>2042</ele>
        <time>2024-09-18T11:30:15Z</time>
      </trkpt>
      <trkpt lat="42.50699" lon="2.4347">
        <ele>2043</ele>
        <time>2024-09-18T11:30:20Z</time>
      </trkpt>
      <trkpt lat="42.50703" lon="2.43469">
        <ele>2044</ele>
        <time>2024-09-18T11:30:24Z</time>
      </trkpt>
      <trkpt lat="42.50707" lon="2.43468">
        <ele>2042</ele>
        <time>2024-09-18T11:30:30Z</time>
      </trkpt>
      <trkpt lat="42.5071" lon="2.43467">
        <ele>2041</ele>
        <time>2024-09-18T11:30:32Z</time>
      </trkpt>
      <trkpt lat="42.50713" lon="2.43465">
        <ele>2041</ele>
        <time>2024-09-18T11:30:35Z</time>
      </trkpt>
      <trkpt lat="42.50716" lon="2.43463">
        <ele>2042</ele>
        <time>2024-09-18T11:30:38Z</time>
      </trkpt>
      <trkpt lat="42.50719" lon="2.43463">
        <ele>2042</ele>
        <time>2024-09-18T11:30:42Z</time>
      </trkpt>
      <trkpt lat="42.50722" lon="2.43462">
        <ele>2045</ele>
        <time>2024-09-18T11:30:45Z</time>
      </trkpt>
      <trkpt lat="42.50726" lon="2.43461">
        <ele>2044</ele>
        <time>2024-09-18T11:30:48Z</time>
      </trkpt>
      <trkpt lat="42.5073" lon="2.43459">
        <ele>2046</ele>
        <time>2024-09-18T11:30:51Z</time>
      </trkpt>
      <trkpt lat="42.50732" lon="2.4346">
        <ele>2045</ele>
        <time>2024-09-18T11:30:53Z</time>
      </trkpt>
      <trkpt lat="42.50734" lon="2.43458">
        <ele>2045</ele>
        <time>2024-09-18T11:30:59Z</time>
      </trkpt>
      <trkpt lat="42.50737" lon="2.43458">
        <ele>2042</ele>
        <time>2024-09-18T11:31:04Z</time>
      </trkpt>
      <trkpt lat="42.50739" lon="2.43456">
        <ele>2044</ele>
        <time>2024-09-18T11:31:08Z</time>
      </trkpt>
      <trkpt lat="42.50743" lon="2.43455">
        <ele>2045</ele>
        <time>2024-09-18T11:31:11Z</time>
      </trkpt>
      <trkpt lat="42.50746" lon="2.43454">
        <ele>2047</ele>
        <time>2024-09-18T11:31:14Z</time>
      </trkpt>
      <trkpt lat="42.50749" lon="2.43453">
        <ele>2045</ele>
        <time>2024-09-18T11:31:17Z</time>
      </trkpt>
      <trkpt lat="42.50752" lon="2.43453">
        <ele>2045</ele>
        <time>2024-09-18T11:31:20Z</time>
      </trkpt>
      <trkpt lat="42.50756" lon="2.43451">
        <ele>2045</ele>
        <time>2024-09-18T11:31:23Z</time>
      </trkpt>
      <trkpt lat="42.50758" lon="2.43451">
        <ele>2044</ele>
        <time>2024-09-18T11:31:26Z</time>
      </trkpt>
      <trkpt lat="42.50761" lon="2.43452">
        <ele>2045</ele>
        <time>2024-09-18T11:31:29Z</time>
      </trkpt>
      <trkpt lat="42.50764" lon="2.43453">
        <ele>2044</ele>
        <time>2024-09-18T11:31:32Z</time>
      </trkpt>
      <trkpt lat="42.50767" lon="2.43453">
        <ele>2045</ele>
        <time>2024-09-18T11:31:36Z</time>
      </trkpt>
      <trkpt lat="42.5077" lon="2.43453">
        <ele>2044</ele>
        <time>2024-09-18T11:31:41Z</time>
      </trkpt>
      <trkpt lat="42.50773" lon="2.43454">
        <ele>2045</ele>
        <time>2024-09-18T11:31:44Z</time>
      </trkpt>
      <trkpt lat="42.50776" lon="2.43456">
        <ele>2046</ele>
        <time>2024-09-18T11:31:47Z</time>
      </trkpt>
      <trkpt lat="42.50778" lon="2.43459">
        <ele>2046</ele>
        <time>2024-09-18T11:31:52Z</time>
      </trkpt>
      <trkpt lat="42.5078" lon="2.43462">
        <ele>2047</ele>
        <time>2024-09-18T11:31:57Z</time>
      </trkpt>
      <trkpt lat="42.50782" lon="2.43464">
        <ele>2048</ele>
        <time>2024-09-18T11:32:03Z</time>
      </trkpt>
      <trkpt lat="42.50784" lon="2.43467">
        <ele>2050</ele>
        <time>2024-09-18T11:32:09Z</time>
      </trkpt>
      <trkpt lat="42.50786" lon="2.43467">
        <ele>2049</ele>
        <time>2024-09-18T11:32:12Z</time>
      </trkpt>
      <trkpt lat="42.50788" lon="2.43464">
        <ele>2050</ele>
        <time>2024-09-18T11:32:18Z</time>
      </trkpt>
      <trkpt lat="42.50789" lon="2.43461">
        <ele>2051</ele>
        <time>2024-09-18T11:32:22Z</time>
      </trkpt>
      <trkpt lat="42.5079" lon="2.43457">
        <ele>2051</ele>
        <time>2024-09-18T11:32:24Z</time>
      </trkpt>
      <trkpt lat="42.50792" lon="2.43454">
        <ele>2051</ele>
        <time>2024-09-18T11:32:28Z</time>
      </trkpt>
      <trkpt lat="42.50793" lon="2.4345">
        <ele>2052</ele>
        <time>2024-09-18T11:32:31Z</time>
      </trkpt>
      <trkpt lat="42.50794" lon="2.43446">
        <ele>2052</ele>
        <time>2024-09-18T11:32:35Z</time>
      </trkpt>
      <trkpt lat="42.50796" lon="2.43442">
        <ele>2052</ele>
        <time>2024-09-18T11:32:38Z</time>
      </trkpt>
      <trkpt lat="42.50797" lon="2.43438">
        <ele>2052</ele>
        <time>2024-09-18T11:32:41Z</time>
      </trkpt>
      <trkpt lat="42.50801" lon="2.43436">
        <ele>2048</ele>
        <time>2024-09-18T11:32:46Z</time>
      </trkpt>
      <trkpt lat="42.50803" lon="2.43434">
        <ele>2050</ele>
        <time>2024-09-18T11:32:53Z</time>
      </trkpt>
      <trkpt lat="42.50806" lon="2.43432">
        <ele>2051</ele>
        <time>2024-09-18T11:32:56Z</time>
      </trkpt>
      <trkpt lat="42.50809" lon="2.43429">
        <ele>2050</ele>
        <time>2024-09-18T11:33:00Z</time>
      </trkpt>
      <trkpt lat="42.50811" lon="2.43427">
        <ele>2050</ele>
        <time>2024-09-18T11:33:03Z</time>
      </trkpt>
      <trkpt lat="42.50813" lon="2.43424">
        <ele>2051</ele>
        <time>2024-09-18T11:33:07Z</time>
      </trkpt>
      <trkpt lat="42.50816" lon="2.43421">
        <ele>2051</ele>
        <time>2024-09-18T11:33:11Z</time>
      </trkpt>
      <trkpt lat="42.50818" lon="2.43418">
        <ele>2052</ele>
        <time>2024-09-18T11:33:17Z</time>
      </trkpt>
      <trkpt lat="42.5082" lon="2.43414">
        <ele>2052</ele>
        <time>2024-09-18T11:33:20Z</time>
      </trkpt>
      <trkpt lat="42.50822" lon="2.43411">
        <ele>2052</ele>
        <time>2024-09-18T11:33:24Z</time>
      </trkpt>
      <trkpt lat="42.50825" lon="2.43408">
        <ele>2052</ele>
        <time>2024-09-18T11:33:27Z</time>
      </trkpt>
      <trkpt lat="42.50827" lon="2.43405">
        <ele>2052</ele>
        <time>2024-09-18T11:33:30Z</time>
      </trkpt>
      <trkpt lat="42.50829" lon="2.43402">
        <ele>2051</ele>
        <time>2024-09-18T11:33:33Z</time>
      </trkpt>
      <trkpt lat="42.50831" lon="2.43398">
        <ele>2051</ele>
        <time>2024-09-18T11:33:36Z</time>
      </trkpt>
      <trkpt lat="42.50833" lon="2.43395">
        <ele>2051</ele>
        <time>2024-09-18T11:33:40Z</time>
      </trkpt>
      <trkpt lat="42.50835" lon="2.43392">
        <ele>2052</ele>
        <time>2024-09-18T11:33:44Z</time>
      </trkpt>
      <trkpt lat="42.50837" lon="2.43389">
        <ele>2052</ele>
        <time>2024-09-18T11:33:46Z</time>
      </trkpt>
      <trkpt lat="42.50839" lon="2.43386">
        <ele>2052</ele>
        <time>2024-09-18T11:33:50Z</time>
      </trkpt>
      <trkpt lat="42.50841" lon="2.43382">
        <ele>2052</ele>
        <time>2024-09-18T11:33:53Z</time>
      </trkpt>
      <trkpt lat="42.50842" lon="2.43378">
        <ele>2053</ele>
        <time>2024-09-18T11:33:57Z</time>
      </trkpt>
      <trkpt lat="42.50843" lon="2.43373">
        <ele>2052</ele>
        <time>2024-09-18T11:34:06Z</time>
      </trkpt>
      <trkpt lat="42.50844" lon="2.43369">
        <ele>2051</ele>
        <time>2024-09-18T11:34:09Z</time>
      </trkpt>
      <trkpt lat="42.50845" lon="2.43365">
        <ele>2052</ele>
        <time>2024-09-18T11:34:12Z</time>
      </trkpt>
      <trkpt lat="42.50846" lon="2.4336">
        <ele>2054</ele>
        <time>2024-09-18T11:34:16Z</time>
      </trkpt>
      <trkpt lat="42.50847" lon="2.43355">
        <ele>2055</ele>
        <time>2024-09-18T11:34:19Z</time>
      </trkpt>
      <trkpt lat="42.50846" lon="2.43352">
        <ele>2055</ele>
        <time>2024-09-18T11:34:36Z</time>
      </trkpt>
      <trkpt lat="42.50847" lon="2.43349">
        <ele>2055</ele>
        <time>2024-09-18T11:34:39Z</time>
      </trkpt>
      <trkpt lat="42.50849" lon="2.43345">
        <ele>2054</ele>
        <time>2024-09-18T11:34:42Z</time>
      </trkpt>
      <trkpt lat="42.5085" lon="2.43341">
        <ele>2054</ele>
        <time>2024-09-18T11:34:45Z</time>
      </trkpt>
      <trkpt lat="42.50852" lon="2.43336">
        <ele>2054</ele>
        <time>2024-09-18T11:34:47Z</time>
      </trkpt>
      <trkpt lat="42.50853" lon="2.43332">
        <ele>2053</ele>
        <time>2024-09-18T11:34:49Z</time>
      </trkpt>
      <trkpt lat="42.50855" lon="2.43329">
        <ele>2053</ele>
        <time>2024-09-18T11:34:52Z</time>
      </trkpt>
      <trkpt lat="42.50856" lon="2.43324">
        <ele>2052</ele>
        <time>2024-09-18T11:34:55Z</time>
      </trkpt>
      <trkpt lat="42.50857" lon="2.43319">
        <ele>2052</ele>
        <time>2024-09-18T11:34:58Z</time>
      </trkpt>
      <trkpt lat="42.50859" lon="2.43316">
        <ele>2051</ele>
        <time>2024-09-18T11:35:01Z</time>
      </trkpt>
      <trkpt lat="42.5086" lon="2.4331">
        <ele>2053</ele>
        <time>2024-09-18T11:35:04Z</time>
      </trkpt>
      <trkpt lat="42.50861" lon="2.43306">
        <ele>2053</ele>
        <time>2024-09-18T11:35:08Z</time>
      </trkpt>
      <trkpt lat="42.50862" lon="2.43301">
        <ele>2052</ele>
        <time>2024-09-18T11:35:12Z</time>
      </trkpt>
      <trkpt lat="42.50863" lon="2.43297">
        <ele>2053</ele>
        <time>2024-09-18T11:35:15Z</time>
      </trkpt>
      <trkpt lat="42.50864" lon="2.43293">
        <ele>2052</ele>
        <time>2024-09-18T11:35:19Z</time>
      </trkpt>
      <trkpt lat="42.50864" lon="2.43289">
        <ele>2052</ele>
        <time>2024-09-18T11:35:22Z</time>
      </trkpt>
      <trkpt lat="42.50865" lon="2.43284">
        <ele>2052</ele>
        <time>2024-09-18T11:35:25Z</time>
      </trkpt>
      <trkpt lat="42.50866" lon="2.43281">
        <ele>2053</ele>
        <time>2024-09-18T11:35:28Z</time>
      </trkpt>
      <trkpt lat="42.50865" lon="2.43276">
        <ele>2053</ele>
        <time>2024-09-18T11:35:31Z</time>
      </trkpt>
      <trkpt lat="42.50863" lon="2.43274">
        <ele>2053</ele>
        <time>2024-09-18T11:35:39Z</time>
      </trkpt>
      <trkpt lat="42.50862" lon="2.43271">
        <ele>2054</ele>
        <time>2024-09-18T11:35:44Z</time>
      </trkpt>
      <trkpt lat="42.50864" lon="2.43267">
        <ele>2054</ele>
        <time>2024-09-18T11:35:48Z</time>
      </trkpt>
      <trkpt lat="42.50867" lon="2.43265">
        <ele>2053</ele>
        <time>2024-09-18T11:35:54Z</time>
      </trkpt>
      <trkpt lat="42.50869" lon="2.43262">
        <ele>2056</ele>
        <time>2024-09-18T11:36:03Z</time>
      </trkpt>
      <trkpt lat="42.50871" lon="2.43258">
        <ele>2056</ele>
        <time>2024-09-18T11:36:08Z</time>
      </trkpt>
      <trkpt lat="42.50872" lon="2.43254">
        <ele>2057</ele>
        <time>2024-09-18T11:36:14Z</time>
      </trkpt>
      <trkpt lat="42.50871" lon="2.4325">
        <ele>2056</ele>
        <time>2024-09-18T11:36:20Z</time>
      </trkpt>
      <trkpt lat="42.50871" lon="2.43247">
        <ele>2057</ele>
        <time>2024-09-18T11:36:24Z</time>
      </trkpt>
      <trkpt lat="42.50869" lon="2.43242">
        <ele>2056</ele>
        <time>2024-09-18T11:36:28Z</time>
      </trkpt>
      <trkpt lat="42.50867" lon="2.4324">
        <ele>2056</ele>
        <time>2024-09-18T11:36:29Z</time>
      </trkpt>
      <trkpt lat="42.50865" lon="2.43238">
        <ele>2058</ele>
        <time>2024-09-18T11:36:33Z</time>
      </trkpt>
      <trkpt lat="42.50863" lon="2.43235">
        <ele>2058</ele>
        <time>2024-09-18T11:36:37Z</time>
      </trkpt>
      <trkpt lat="42.50861" lon="2.43231">
        <ele>2053</ele>
        <time>2024-09-18T11:36:41Z</time>
      </trkpt>
      <trkpt lat="42.50858" lon="2.43228">
        <ele>2052</ele>
        <time>2024-09-18T11:36:45Z</time>
      </trkpt>
      <trkpt lat="42.50855" lon="2.43225">
        <ele>2052</ele>
        <time>2024-09-18T11:36:54Z</time>
      </trkpt>
      <trkpt lat="42.50853" lon="2.43226">
        <ele>2052</ele>
        <time>2024-09-18T11:37:03Z</time>
      </trkpt>
      <trkpt lat="42.50852" lon="2.43224">
        <ele>2052</ele>
        <time>2024-09-18T11:37:07Z</time>
      </trkpt>
      <trkpt lat="42.50852" lon="2.43221">
        <ele>2051</ele>
        <time>2024-09-18T11:37:10Z</time>
      </trkpt>
      <trkpt lat="42.50852" lon="2.43217">
        <ele>2050</ele>
        <time>2024-09-18T11:37:13Z</time>
      </trkpt>
      <trkpt lat="42.50851" lon="2.43214">
        <ele>2051</ele>
        <time>2024-09-18T11:37:15Z</time>
      </trkpt>
      <trkpt lat="42.5085" lon="2.43209">
        <ele>2052</ele>
        <time>2024-09-18T11:37:19Z</time>
      </trkpt>
      <trkpt lat="42.50851" lon="2.43205">
        <ele>2053</ele>
        <time>2024-09-18T11:37:22Z</time>
      </trkpt>
      <trkpt lat="42.5085" lon="2.432">
        <ele>2052</ele>
        <time>2024-09-18T11:37:24Z</time>
      </trkpt>
      <trkpt lat="42.50849" lon="2.43195">
        <ele>2052</ele>
        <time>2024-09-18T11:37:27Z</time>
      </trkpt>
      <trkpt lat="42.50848" lon="2.43191">
        <ele>2053</ele>
        <time>2024-09-18T11:37:29Z</time>
      </trkpt>
      <trkpt lat="42.50847" lon="2.43186">
        <ele>2054</ele>
        <time>2024-09-18T11:37:31Z</time>
      </trkpt>
      <trkpt lat="42.50846" lon="2.43183">
        <ele>2055</ele>
        <time>2024-09-18T11:37:34Z</time>
      </trkpt>
      <trkpt lat="42.50845" lon="2.43179">
        <ele>2054</ele>
        <time>2024-09-18T11:37:37Z</time>
      </trkpt>
      <trkpt lat="42.50845" lon="2.43175">
        <ele>2055</ele>
        <time>2024-09-18T11:37:41Z</time>
      </trkpt>
      <trkpt lat="42.50845" lon="2.43171">
        <ele>2055</ele>
        <time>2024-09-18T11:37:44Z</time>
      </trkpt>
      <trkpt lat="42.50844" lon="2.43167">
        <ele>2054</ele>
        <time>2024-09-18T11:37:45Z</time>
      </trkpt>
      <trkpt lat="42.50843" lon="2.43163">
        <ele>2055</ele>
        <time>2024-09-18T11:37:50Z</time>
      </trkpt>
      <trkpt lat="42.50843" lon="2.43158">
        <ele>2056</ele>
        <time>2024-09-18T11:37:53Z</time>
      </trkpt>
      <trkpt lat="42.50842" lon="2.43152">
        <ele>2054</ele>
        <time>2024-09-18T11:37:57Z</time>
      </trkpt>
      <trkpt lat="42.5084" lon="2.43145">
        <ele>2052</ele>
        <time>2024-09-18T11:38:01Z</time>
      </trkpt>
      <trkpt lat="42.50841" lon="2.43139">
        <ele>2053</ele>
        <time>2024-09-18T11:38:06Z</time>
      </trkpt>
      <trkpt lat="42.50841" lon="2.43135">
        <ele>2053</ele>
        <time>2024-09-18T11:38:10Z</time>
      </trkpt>
      <trkpt lat="42.5084" lon="2.4313">
        <ele>2054</ele>
        <time>2024-09-18T11:38:13Z</time>
      </trkpt>
      <trkpt lat="42.50839" lon="2.43126">
        <ele>2055</ele>
        <time>2024-09-18T11:38:17Z</time>
      </trkpt>
      <trkpt lat="42.50839" lon="2.43122">
        <ele>2055</ele>
        <time>2024-09-18T11:38:18Z</time>
      </trkpt>
      <trkpt lat="42.50838" lon="2.43118">
        <ele>2056</ele>
        <time>2024-09-18T11:38:23Z</time>
      </trkpt>
      <trkpt lat="42.50838" lon="2.43113">
        <ele>2056</ele>
        <time>2024-09-18T11:38:26Z</time>
      </trkpt>
      <trkpt lat="42.50837" lon="2.43108">
        <ele>2058</ele>
        <time>2024-09-18T11:38:30Z</time>
      </trkpt>
      <trkpt lat="42.50836" lon="2.43104">
        <ele>2059</ele>
        <time>2024-09-18T11:38:32Z</time>
      </trkpt>
      <trkpt lat="42.50835" lon="2.431">
        <ele>2059</ele>
        <time>2024-09-18T11:38:36Z</time>
      </trkpt>
      <trkpt lat="42.50835" lon="2.43095">
        <ele>2060</ele>
        <time>2024-09-18T11:38:40Z</time>
      </trkpt>
      <trkpt lat="42.50836" lon="2.43091">
        <ele>2059</ele>
        <time>2024-09-18T11:38:43Z</time>
      </trkpt>
      <trkpt lat="42.50836" lon="2.43087">
        <ele>2058</ele>
        <time>2024-09-18T11:38:44Z</time>
      </trkpt>
      <trkpt lat="42.50835" lon="2.43083">
        <ele>2057</ele>
        <time>2024-09-18T11:38:48Z</time>
      </trkpt>
      <trkpt lat="42.50832" lon="2.43079">
        <ele>2057</ele>
        <time>2024-09-18T11:38:51Z</time>
      </trkpt>
      <trkpt lat="42.50829" lon="2.43075">
        <ele>2057</ele>
        <time>2024-09-18T11:38:54Z</time>
      </trkpt>
      <trkpt lat="42.50827" lon="2.43072">
        <ele>2057</ele>
        <time>2024-09-18T11:38:56Z</time>
      </trkpt>
      <trkpt lat="42.50825" lon="2.4307">
        <ele>2058</ele>
        <time>2024-09-18T11:39:00Z</time>
      </trkpt>
      <trkpt lat="42.50823" lon="2.43065">
        <ele>2059</ele>
        <time>2024-09-18T11:39:02Z</time>
      </trkpt>
      <trkpt lat="42.50822" lon="2.43061">
        <ele>2059</ele>
        <time>2024-09-18T11:39:06Z</time>
      </trkpt>
      <trkpt lat="42.5082" lon="2.43057">
        <ele>2060</ele>
        <time>2024-09-18T11:39:09Z</time>
      </trkpt>
      <trkpt lat="42.50818" lon="2.43054">
        <ele>2059</ele>
        <time>2024-09-18T11:39:12Z</time>
      </trkpt>
      <trkpt lat="42.50816" lon="2.4305">
        <ele>2062</ele>
        <time>2024-09-18T11:39:15Z</time>
      </trkpt>
      <trkpt lat="42.50814" lon="2.43047">
        <ele>2061</ele>
        <time>2024-09-18T11:39:17Z</time>
      </trkpt>
      <trkpt lat="42.50813" lon="2.43043">
        <ele>2061</ele>
        <time>2024-09-18T11:39:20Z</time>
      </trkpt>
      <trkpt lat="42.50811" lon="2.43039">
        <ele>2062</ele>
        <time>2024-09-18T11:39:23Z</time>
      </trkpt>
      <trkpt lat="42.50809" lon="2.43034">
        <ele>2063</ele>
        <time>2024-09-18T11:39:26Z</time>
      </trkpt>
      <trkpt lat="42.50807" lon="2.4303">
        <ele>2063</ele>
        <time>2024-09-18T11:39:29Z</time>
      </trkpt>
      <trkpt lat="42.50806" lon="2.43025">
        <ele>2062</ele>
        <time>2024-09-18T11:39:32Z</time>
      </trkpt>
      <trkpt lat="42.50804" lon="2.43021">
        <ele>2062</ele>
        <time>2024-09-18T11:39:34Z</time>
      </trkpt>
      <trkpt lat="42.50803" lon="2.43017">
        <ele>2062</ele>
        <time>2024-09-18T11:39:37Z</time>
      </trkpt>
      <trkpt lat="42.50802" lon="2.43013">
        <ele>2064</ele>
        <time>2024-09-18T11:39:40Z</time>
      </trkpt>
      <trkpt lat="42.50801" lon="2.43007">
        <ele>2064</ele>
        <time>2024-09-18T11:39:42Z</time>
      </trkpt>
      <trkpt lat="42.50799" lon="2.43003">
        <ele>2064</ele>
        <time>2024-09-18T11:39:47Z</time>
      </trkpt>
      <trkpt lat="42.50797" lon="2.42999">
        <ele>2065</ele>
        <time>2024-09-18T11:39:50Z</time>
      </trkpt>
      <trkpt lat="42.50795" lon="2.42994">
        <ele>2064</ele>
        <time>2024-09-18T11:39:54Z</time>
      </trkpt>
      <trkpt lat="42.50793" lon="2.4299">
        <ele>2065</ele>
        <time>2024-09-18T11:39:57Z</time>
      </trkpt>
      <trkpt lat="42.50791" lon="2.42986">
        <ele>2064</ele>
        <time>2024-09-18T11:40:00Z</time>
      </trkpt>
      <trkpt lat="42.5079" lon="2.42982">
        <ele>2065</ele>
        <time>2024-09-18T11:40:02Z</time>
      </trkpt>
      <trkpt lat="42.50788" lon="2.42977">
        <ele>2064</ele>
        <time>2024-09-18T11:40:04Z</time>
      </trkpt>
      <trkpt lat="42.50786" lon="2.42974">
        <ele>2065</ele>
        <time>2024-09-18T11:40:08Z</time>
      </trkpt>
      <trkpt lat="42.50784" lon="2.4297">
        <ele>2067</ele>
        <time>2024-09-18T11:40:11Z</time>
      </trkpt>
      <trkpt lat="42.50781" lon="2.42967">
        <ele>2064</ele>
        <time>2024-09-18T11:40:17Z</time>
      </trkpt>
      <trkpt lat="42.50779" lon="2.42963">
        <ele>2062</ele>
        <time>2024-09-18T11:40:20Z</time>
      </trkpt>
      <trkpt lat="42.50776" lon="2.42959">
        <ele>2063</ele>
        <time>2024-09-18T11:40:24Z</time>
      </trkpt>
      <trkpt lat="42.50774" lon="2.42955">
        <ele>2063</ele>
        <time>2024-09-18T11:40:27Z</time>
      </trkpt>
      <trkpt lat="42.50772" lon="2.42952">
        <ele>2063</ele>
        <time>2024-09-18T11:40:29Z</time>
      </trkpt>
      <trkpt lat="42.5077" lon="2.42949">
        <ele>2063</ele>
        <time>2024-09-18T11:40:32Z</time>
      </trkpt>
      <trkpt lat="42.50767" lon="2.42945">
        <ele>2062</ele>
        <time>2024-09-18T11:40:34Z</time>
      </trkpt>
      <trkpt lat="42.50765" lon="2.42942">
        <ele>2063</ele>
        <time>2024-09-18T11:40:37Z</time>
      </trkpt>
      <trkpt lat="42.50762" lon="2.42939">
        <ele>2061</ele>
        <time>2024-09-18T11:40:40Z</time>
      </trkpt>
      <trkpt lat="42.5076" lon="2.42936">
        <ele>2063</ele>
        <time>2024-09-18T11:40:42Z</time>
      </trkpt>
      <trkpt lat="42.50759" lon="2.42931">
        <ele>2064</ele>
        <time>2024-09-18T11:40:45Z</time>
      </trkpt>
      <trkpt lat="42.50757" lon="2.42927">
        <ele>2063</ele>
        <time>2024-09-18T11:40:47Z</time>
      </trkpt>
      <trkpt lat="42.50756" lon="2.42923">
        <ele>2062</ele>
        <time>2024-09-18T11:40:50Z</time>
      </trkpt>
      <trkpt lat="42.50754" lon="2.42919">
        <ele>2063</ele>
        <time>2024-09-18T11:40:52Z</time>
      </trkpt>
      <trkpt lat="42.50751" lon="2.42916">
        <ele>2064</ele>
        <time>2024-09-18T11:40:55Z</time>
      </trkpt>
      <trkpt lat="42.50749" lon="2.42913">
        <ele>2064</ele>
        <time>2024-09-18T11:40:58Z</time>
      </trkpt>
      <trkpt lat="42.50747" lon="2.4291">
        <ele>2065</ele>
        <time>2024-09-18T11:41:00Z</time>
      </trkpt>
      <trkpt lat="42.50745" lon="2.42907">
        <ele>2064</ele>
        <time>2024-09-18T11:41:02Z</time>
      </trkpt>
      <trkpt lat="42.50744" lon="2.42902">
        <ele>2065</ele>
        <time>2024-09-18T11:41:06Z</time>
      </trkpt>
      <trkpt lat="42.50743" lon="2.42898">
        <ele>2064</ele>
        <time>2024-09-18T11:41:09Z</time>
      </trkpt>
      <trkpt lat="42.50742" lon="2.42895">
        <ele>2063</ele>
        <time>2024-09-18T11:41:12Z</time>
      </trkpt>
      <trkpt lat="42.50739" lon="2.42892">
        <ele>2063</ele>
        <time>2024-09-18T11:41:15Z</time>
      </trkpt>
      <trkpt lat="42.50738" lon="2.42888">
        <ele>2062</ele>
        <time>2024-09-18T11:41:18Z</time>
      </trkpt>
      <trkpt lat="42.50737" lon="2.42883">
        <ele>2063</ele>
        <time>2024-09-18T11:41:21Z</time>
      </trkpt>
      <trkpt lat="42.50736" lon="2.42879">
        <ele>2061</ele>
        <time>2024-09-18T11:41:24Z</time>
      </trkpt>
      <trkpt lat="42.50736" lon="2.42875">
        <ele>2062</ele>
        <time>2024-09-18T11:41:26Z</time>
      </trkpt>
      <trkpt lat="42.50734" lon="2.42872">
        <ele>2062</ele>
        <time>2024-09-18T11:41:29Z</time>
      </trkpt>
      <trkpt lat="42.50733" lon="2.42868">
        <ele>2063</ele>
        <time>2024-09-18T11:41:31Z</time>
      </trkpt>
      <trkpt lat="42.50732" lon="2.42864">
        <ele>2062</ele>
        <time>2024-09-18T11:41:33Z</time>
      </trkpt>
      <trkpt lat="42.50732" lon="2.4286">
        <ele>2062</ele>
        <time>2024-09-18T11:41:36Z</time>
      </trkpt>
      <trkpt lat="42.50731" lon="2.42855">
        <ele>2062</ele>
        <time>2024-09-18T11:41:39Z</time>
      </trkpt>
      <trkpt lat="42.5073" lon="2.4285">
        <ele>2061</ele>
        <time>2024-09-18T11:41:42Z</time>
      </trkpt>
      <trkpt lat="42.50729" lon="2.42845">
        <ele>2062</ele>
        <time>2024-09-18T11:41:45Z</time>
      </trkpt>
      <trkpt lat="42.50729" lon="2.42841">
        <ele>2063</ele>
        <time>2024-09-18T11:41:48Z</time>
      </trkpt>
      <trkpt lat="42.50729" lon="2.42837">
        <ele>2063</ele>
        <time>2024-09-18T11:41:50Z</time>
      </trkpt>
      <trkpt lat="42.50729" lon="2.42833">
        <ele>2062</ele>
        <time>2024-09-18T11:41:53Z</time>
      </trkpt>
      <trkpt lat="42.50729" lon="2.42829">
        <ele>2063</ele>
        <time>2024-09-18T11:41:56Z</time>
      </trkpt>
      <trkpt lat="42.50728" lon="2.42825">
        <ele>2062</ele>
        <time>2024-09-18T11:41:58Z</time>
      </trkpt>
      <trkpt lat="42.50726" lon="2.4282">
        <ele>2063</ele>
        <time>2024-09-18T11:42:01Z</time>
      </trkpt>
      <trkpt lat="42.50726" lon="2.42815">
        <ele>2063</ele>
        <time>2024-09-18T11:42:05Z</time>
      </trkpt>
      <trkpt lat="42.50727" lon="2.42811">
        <ele>2064</ele>
        <time>2024-09-18T11:42:07Z</time>
      </trkpt>
      <trkpt lat="42.50727" lon="2.42806">
        <ele>2066</ele>
        <time>2024-09-18T11:42:10Z</time>
      </trkpt>
      <trkpt lat="42.50728" lon="2.42802">
        <ele>2066</ele>
        <time>2024-09-18T11:42:12Z</time>
      </trkpt>
      <trkpt lat="42.50726" lon="2.42798">
        <ele>2065</ele>
        <time>2024-09-18T11:42:15Z</time>
      </trkpt>
      <trkpt lat="42.50726" lon="2.42794">
        <ele>2065</ele>
        <time>2024-09-18T11:42:17Z</time>
      </trkpt>
      <trkpt lat="42.50726" lon="2.4279">
        <ele>2064</ele>
        <time>2024-09-18T11:42:20Z</time>
      </trkpt>
      <trkpt lat="42.50727" lon="2.42786">
        <ele>2064</ele>
        <time>2024-09-18T11:42:23Z</time>
      </trkpt>
      <trkpt lat="42.50728" lon="2.42782">
        <ele>2064</ele>
        <time>2024-09-18T11:42:26Z</time>
      </trkpt>
      <trkpt lat="42.50728" lon="2.42776">
        <ele>2063</ele>
        <time>2024-09-18T11:42:29Z</time>
      </trkpt>
      <trkpt lat="42.50728" lon="2.42771">
        <ele>2064</ele>
        <time>2024-09-18T11:42:32Z</time>
      </trkpt>
      <trkpt lat="42.50727" lon="2.42767">
        <ele>2063</ele>
        <time>2024-09-18T11:42:36Z</time>
      </trkpt>
      <trkpt lat="42.50727" lon="2.42763">
        <ele>2061</ele>
        <time>2024-09-18T11:42:38Z</time>
      </trkpt>
      <trkpt lat="42.50727" lon="2.42759">
        <ele>2061</ele>
        <time>2024-09-18T11:42:41Z</time>
      </trkpt>
      <trkpt lat="42.50727" lon="2.42754">
        <ele>2060</ele>
        <time>2024-09-18T11:42:45Z</time>
      </trkpt>
      <trkpt lat="42.50727" lon="2.42751">
        <ele>2062</ele>
        <time>2024-09-18T11:42:47Z</time>
      </trkpt>
      <trkpt lat="42.50726" lon="2.42746">
        <ele>2063</ele>
        <time>2024-09-18T11:42:49Z</time>
      </trkpt>
      <trkpt lat="42.50726" lon="2.42742">
        <ele>2063</ele>
        <time>2024-09-18T11:42:51Z</time>
      </trkpt>
      <trkpt lat="42.50727" lon="2.42738">
        <ele>2062</ele>
        <time>2024-09-18T11:42:54Z</time>
      </trkpt>
      <trkpt lat="42.50725" lon="2.42734">
        <ele>2062</ele>
        <time>2024-09-18T11:42:55Z</time>
      </trkpt>
      <trkpt lat="42.50723" lon="2.4273">
        <ele>2064</ele>
        <time>2024-09-18T11:42:57Z</time>
      </trkpt>
      <trkpt lat="42.50723" lon="2.42725">
        <ele>2064</ele>
        <time>2024-09-18T11:43:00Z</time>
      </trkpt>
      <trkpt lat="42.50723" lon="2.42721">
        <ele>2064</ele>
        <time>2024-09-18T11:43:03Z</time>
      </trkpt>
      <trkpt lat="42.50721" lon="2.42717">
        <ele>2065</ele>
        <time>2024-09-18T11:43:06Z</time>
      </trkpt>
      <trkpt lat="42.50721" lon="2.42712">
        <ele>2063</ele>
        <time>2024-09-18T11:43:09Z</time>
      </trkpt>
      <trkpt lat="42.50721" lon="2.42707">
        <ele>2063</ele>
        <time>2024-09-18T11:43:12Z</time>
      </trkpt>
      <trkpt lat="42.5072" lon="2.42703">
        <ele>2063</ele>
        <time>2024-09-18T11:43:16Z</time>
      </trkpt>
      <trkpt lat="42.50719" lon="2.42699">
        <ele>2062</ele>
        <time>2024-09-18T11:43:18Z</time>
      </trkpt>
      <trkpt lat="42.50718" lon="2.42695">
        <ele>2062</ele>
        <time>2024-09-18T11:43:21Z</time>
      </trkpt>
      <trkpt lat="42.50717" lon="2.42691">
        <ele>2062</ele>
        <time>2024-09-18T11:43:23Z</time>
      </trkpt>
      <trkpt lat="42.50716" lon="2.42687">
        <ele>2062</ele>
        <time>2024-09-18T11:43:25Z</time>
      </trkpt>
      <trkpt lat="42.50716" lon="2.42682">
        <ele>2061</ele>
        <time>2024-09-18T11:43:28Z</time>
      </trkpt>
      <trkpt lat="42.50716" lon="2.42676">
        <ele>2061</ele>
        <time>2024-09-18T11:43:31Z</time>
      </trkpt>
      <trkpt lat="42.50716" lon="2.42671">
        <ele>2061</ele>
        <time>2024-09-18T11:43:34Z</time>
      </trkpt>
      <trkpt lat="42.50716" lon="2.42667">
        <ele>2061</ele>
        <time>2024-09-18T11:43:36Z</time>
      </trkpt>
      <trkpt lat="42.50715" lon="2.42663">
        <ele>2064</ele>
        <time>2024-09-18T11:43:38Z</time>
      </trkpt>
      <trkpt lat="42.50715" lon="2.42658">
        <ele>2062</ele>
        <time>2024-09-18T11:43:42Z</time>
      </trkpt>
      <trkpt lat="42.50716" lon="2.42653">
        <ele>2063</ele>
        <time>2024-09-18T11:43:46Z</time>
      </trkpt>
      <trkpt lat="42.50715" lon="2.42649">
        <ele>2062</ele>
        <time>2024-09-18T11:43:49Z</time>
      </trkpt>
      <trkpt lat="42.50714" lon="2.42646">
        <ele>2064</ele>
        <time>2024-09-18T11:43:52Z</time>
      </trkpt>
      <trkpt lat="42.50713" lon="2.42641">
        <ele>2063</ele>
        <time>2024-09-18T11:43:55Z</time>
      </trkpt>
      <trkpt lat="42.50712" lon="2.42636">
        <ele>2064</ele>
        <time>2024-09-18T11:43:58Z</time>
      </trkpt>
      <trkpt lat="42.50712" lon="2.42632">
        <ele>2064</ele>
        <time>2024-09-18T11:44:00Z</time>
      </trkpt>
      <trkpt lat="42.50711" lon="2.42627">
        <ele>2063</ele>
        <time>2024-09-18T11:44:03Z</time>
      </trkpt>
      <trkpt lat="42.50711" lon="2.42623">
        <ele>2063</ele>
        <time>2024-09-18T11:44:05Z</time>
      </trkpt>
      <trkpt lat="42.50711" lon="2.42619">
        <ele>2063</ele>
        <time>2024-09-18T11:44:08Z</time>
      </trkpt>
      <trkpt lat="42.50713" lon="2.42615">
        <ele>2063</ele>
        <time>2024-09-18T11:44:11Z</time>
      </trkpt>
      <trkpt lat="42.50712" lon="2.42611">
        <ele>2063</ele>
        <time>2024-09-18T11:44:14Z</time>
      </trkpt>
      <trkpt lat="42.50713" lon="2.42607">
        <ele>2064</ele>
        <time>2024-09-18T11:44:18Z</time>
      </trkpt>
      <trkpt lat="42.50714" lon="2.42603">
        <ele>2065</ele>
        <time>2024-09-18T11:44:20Z</time>
      </trkpt>
      <trkpt lat="42.50714" lon="2.42599">
        <ele>2066</ele>
        <time>2024-09-18T11:44:22Z</time>
      </trkpt>
      <trkpt lat="42.50715" lon="2.42594">
        <ele>2064</ele>
        <time>2024-09-18T11:44:27Z</time>
      </trkpt>
      <trkpt lat="42.50714" lon="2.42589">
        <ele>2065</ele>
        <time>2024-09-18T11:44:29Z</time>
      </trkpt>
      <trkpt lat="42.50714" lon="2.42585">
        <ele>2065</ele>
        <time>2024-09-18T11:44:32Z</time>
      </trkpt>
      <trkpt lat="42.50714" lon="2.42581">
        <ele>2065</ele>
        <time>2024-09-18T11:44:34Z</time>
      </trkpt>
      <trkpt lat="42.50713" lon="2.42576">
        <ele>2065</ele>
        <time>2024-09-18T11:44:37Z</time>
      </trkpt>
      <trkpt lat="42.50713" lon="2.42571">
        <ele>2065</ele>
        <time>2024-09-18T11:44:40Z</time>
      </trkpt>
      <trkpt lat="42.50712" lon="2.42568">
        <ele>2064</ele>
        <time>2024-09-18T11:44:42Z</time>
      </trkpt>
      <trkpt lat="42.50711" lon="2.42563">
        <ele>2062</ele>
        <time>2024-09-18T11:44:46Z</time>
      </trkpt>
      <trkpt lat="42.50712" lon="2.42558">
        <ele>2064</ele>
        <time>2024-09-18T11:44:49Z</time>
      </trkpt>
      <trkpt lat="42.50713" lon="2.42554">
        <ele>2065</ele>
        <time>2024-09-18T11:44:53Z</time>
      </trkpt>
      <trkpt lat="42.50713" lon="2.4255">
        <ele>2065</ele>
        <time>2024-09-18T11:44:56Z</time>
      </trkpt>
      <trkpt lat="42.50712" lon="2.42545">
        <ele>2066</ele>
        <time>2024-09-18T11:44:58Z</time>
      </trkpt>
      <trkpt lat="42.50712" lon="2.4254">
        <ele>2065</ele>
        <time>2024-09-18T11:45:00Z</time>
      </trkpt>
      <trkpt lat="42.50713" lon="2.42534">
        <ele>2064</ele>
        <time>2024-09-18T11:45:01Z</time>
      </trkpt>
      <trkpt lat="42.50713" lon="2.42529">
        <ele>2062</ele>
        <time>2024-09-18T11:45:05Z</time>
      </trkpt>
      <trkpt lat="42.50713" lon="2.42525">
        <ele>2062</ele>
        <time>2024-09-18T11:45:07Z</time>
      </trkpt>
      <trkpt lat="42.50712" lon="2.42521">
        <ele>2061</ele>
        <time>2024-09-18T11:45:12Z</time>
      </trkpt>
      <trkpt lat="42.50712" lon="2.42516">
        <ele>2062</ele>
        <time>2024-09-18T11:45:16Z</time>
      </trkpt>
      <trkpt lat="42.50713" lon="2.4251">
        <ele>2060</ele>
        <time>2024-09-18T11:45:19Z</time>
      </trkpt>
      <trkpt lat="42.50713" lon="2.42506">
        <ele>2062</ele>
        <time>2024-09-18T11:45:21Z</time>
      </trkpt>
      <trkpt lat="42.50713" lon="2.42501">
        <ele>2062</ele>
        <time>2024-09-18T11:45:24Z</time>
      </trkpt>
      <trkpt lat="42.50714" lon="2.42497">
        <ele>2060</ele>
        <time>2024-09-18T11:45:27Z</time>
      </trkpt>
      <trkpt lat="42.50713" lon="2.42492">
        <ele>2061</ele>
        <time>2024-09-18T11:45:30Z</time>
      </trkpt>
      <trkpt lat="42.50714" lon="2.42487">
        <ele>2060</ele>
        <time>2024-09-18T11:45:34Z</time>
      </trkpt>
      <trkpt lat="42.50714" lon="2.42483">
        <ele>2061</ele>
        <time>2024-09-18T11:45:37Z</time>
      </trkpt>
      <trkpt lat="42.50713" lon="2.42478">
        <ele>2061</ele>
        <time>2024-09-18T11:45:40Z</time>
      </trkpt>
      <trkpt lat="42.50712" lon="2.42474">
        <ele>2061</ele>
        <time>2024-09-18T11:45:42Z</time>
      </trkpt>
      <trkpt lat="42.50712" lon="2.4247">
        <ele>2061</ele>
        <time>2024-09-18T11:45:44Z</time>
      </trkpt>
      <trkpt lat="42.50712" lon="2.42466">
        <ele>2058</ele>
        <time>2024-09-18T11:45:46Z</time>
      </trkpt>
      <trkpt lat="42.50712" lon="2.42462">
        <ele>2059</ele>
        <time>2024-09-18T11:45:49Z</time>
      </trkpt>
      <trkpt lat="42.50711" lon="2.42459">
        <ele>2060</ele>
        <time>2024-09-18T11:45:52Z</time>
      </trkpt>
      <trkpt lat="42.5071" lon="2.42455">
        <ele>2058</ele>
        <time>2024-09-18T11:45:55Z</time>
      </trkpt>
      <trkpt lat="42.50709" lon="2.42451">
        <ele>2058</ele>
        <time>2024-09-18T11:45:58Z</time>
      </trkpt>
      <trkpt lat="42.50708" lon="2.42447">
        <ele>2059</ele>
        <time>2024-09-18T11:46:00Z</time>
      </trkpt>
      <trkpt lat="42.50707" lon="2.42444">
        <ele>2059</ele>
        <time>2024-09-18T11:46:02Z</time>
      </trkpt>
      <trkpt lat="42.50707" lon="2.4244">
        <ele>2058</ele>
        <time>2024-09-18T11:46:05Z</time>
      </trkpt>
      <trkpt lat="42.50706" lon="2.42435">
        <ele>2059</ele>
        <time>2024-09-18T11:46:08Z</time>
      </trkpt>
      <trkpt lat="42.50704" lon="2.42431">
        <ele>2059</ele>
        <time>2024-09-18T11:46:10Z</time>
      </trkpt>
      <trkpt lat="42.50703" lon="2.42427">
        <ele>2058</ele>
        <time>2024-09-18T11:46:13Z</time>
      </trkpt>
      <trkpt lat="42.50702" lon="2.42423">
        <ele>2059</ele>
        <time>2024-09-18T11:46:15Z</time>
      </trkpt>
      <trkpt lat="42.507" lon="2.42418">
        <ele>2060</ele>
        <time>2024-09-18T11:46:20Z</time>
      </trkpt>
      <trkpt lat="42.50699" lon="2.42413">
        <ele>2059</ele>
        <time>2024-09-18T11:46:22Z</time>
      </trkpt>
      <trkpt lat="42.507" lon="2.42413">
        <ele>2059</ele>
        <time>2024-09-18T11:46:27Z</time>
      </trkpt>
      <trkpt lat="42.50699" lon="2.42411">
        <ele>2060</ele>
        <time>2024-09-18T11:46:29Z</time>
      </trkpt>
      <trkpt lat="42.50699" lon="2.42406">
        <ele>2058</ele>
        <time>2024-09-18T11:46:32Z</time>
      </trkpt>
      <trkpt lat="42.50697" lon="2.42404">
        <ele>2059</ele>
        <time>2024-09-18T11:46:34Z</time>
      </trkpt>
      <trkpt lat="42.50696" lon="2.424">
        <ele>2059</ele>
        <time>2024-09-18T11:46:36Z</time>
      </trkpt>
      <trkpt lat="42.50694" lon="2.42396">
        <ele>2058</ele>
        <time>2024-09-18T11:46:39Z</time>
      </trkpt>
      <trkpt lat="42.50693" lon="2.42392">
        <ele>2060</ele>
        <time>2024-09-18T11:46:41Z</time>
      </trkpt>
      <trkpt lat="42.50691" lon="2.42386">
        <ele>2060</ele>
        <time>2024-09-18T11:46:46Z</time>
      </trkpt>
      <trkpt lat="42.5069" lon="2.42382">
        <ele>2059</ele>
        <time>2024-09-18T11:46:49Z</time>
      </trkpt>
      <trkpt lat="42.50689" lon="2.42378">
        <ele>2059</ele>
        <time>2024-09-18T11:46:51Z</time>
      </trkpt>
      <trkpt lat="42.50687" lon="2.42374">
        <ele>2059</ele>
        <time>2024-09-18T11:46:55Z</time>
      </trkpt>
      <trkpt lat="42.50685" lon="2.4237">
        <ele>2060</ele>
        <time>2024-09-18T11:46:57Z</time>
      </trkpt>
      <trkpt lat="42.50683" lon="2.42366">
        <ele>2062</ele>
        <time>2024-09-18T11:47:00Z</time>
      </trkpt>
      <trkpt lat="42.50681" lon="2.42361">
        <ele>2060</ele>
        <time>2024-09-18T11:47:02Z</time>
      </trkpt>
      <trkpt lat="42.50679" lon="2.42357">
        <ele>2060</ele>
        <time>2024-09-18T11:47:04Z</time>
      </trkpt>
      <trkpt lat="42.50677" lon="2.42353">
        <ele>2062</ele>
        <time>2024-09-18T11:47:07Z</time>
      </trkpt>
      <trkpt lat="42.50676" lon="2.42349">
        <ele>2060</ele>
        <time>2024-09-18T11:47:10Z</time>
      </trkpt>
      <trkpt lat="42.50675" lon="2.42344">
        <ele>2061</ele>
        <time>2024-09-18T11:47:14Z</time>
      </trkpt>
      <trkpt lat="42.50675" lon="2.4234">
        <ele>2060</ele>
        <time>2024-09-18T11:47:18Z</time>
      </trkpt>
      <trkpt lat="42.50673" lon="2.42337">
        <ele>2061</ele>
        <time>2024-09-18T11:47:20Z</time>
      </trkpt>
      <trkpt lat="42.50672" lon="2.42333">
        <ele>2060</ele>
        <time>2024-09-18T11:47:22Z</time>
      </trkpt>
      <trkpt lat="42.50671" lon="2.4233">
        <ele>2060</ele>
        <time>2024-09-18T11:47:24Z</time>
      </trkpt>
      <trkpt lat="42.5067" lon="2.42326">
        <ele>2061</ele>
        <time>2024-09-18T11:47:27Z</time>
      </trkpt>
      <trkpt lat="42.50668" lon="2.42321">
        <ele>2061</ele>
        <time>2024-09-18T11:47:30Z</time>
      </trkpt>
      <trkpt lat="42.50668" lon="2.42317">
        <ele>2061</ele>
        <time>2024-09-18T11:47:33Z</time>
      </trkpt>
      <trkpt lat="42.50667" lon="2.42313">
        <ele>2061</ele>
        <time>2024-09-18T11:47:37Z</time>
      </trkpt>
      <trkpt lat="42.50668" lon="2.42308">
        <ele>2061</ele>
        <time>2024-09-18T11:47:40Z</time>
      </trkpt>
      <trkpt lat="42.50668" lon="2.42303">
        <ele>2061</ele>
        <time>2024-09-18T11:47:42Z</time>
      </trkpt>
      <trkpt lat="42.50667" lon="2.42298">
        <ele>2059</ele>
        <time>2024-09-18T11:47:45Z</time>
      </trkpt>
      <trkpt lat="42.50666" lon="2.42294">
        <ele>2059</ele>
        <time>2024-09-18T11:47:47Z</time>
      </trkpt>
      <trkpt lat="42.50665" lon="2.4229">
        <ele>2060</ele>
        <time>2024-09-18T11:47:49Z</time>
      </trkpt>
      <trkpt lat="42.50664" lon="2.42286">
        <ele>2061</ele>
        <time>2024-09-18T11:47:51Z</time>
      </trkpt>
      <trkpt lat="42.50664" lon="2.42281">
        <ele>2061</ele>
        <time>2024-09-18T11:47:53Z</time>
      </trkpt>
      <trkpt lat="42.50664" lon="2.42277">
        <ele>2060</ele>
        <time>2024-09-18T11:47:56Z</time>
      </trkpt>
      <trkpt lat="42.50665" lon="2.42272">
        <ele>2060</ele>
        <time>2024-09-18T11:48:00Z</time>
      </trkpt>
      <trkpt lat="42.50666" lon="2.42268">
        <ele>2061</ele>
        <time>2024-09-18T11:48:03Z</time>
      </trkpt>
      <trkpt lat="42.50668" lon="2.42265">
        <ele>2060</ele>
        <time>2024-09-18T11:48:05Z</time>
      </trkpt>
      <trkpt lat="42.50668" lon="2.42261">
        <ele>2061</ele>
        <time>2024-09-18T11:48:07Z</time>
      </trkpt>
      <trkpt lat="42.50669" lon="2.42257">
        <ele>2060</ele>
        <time>2024-09-18T11:48:09Z</time>
      </trkpt>
      <trkpt lat="42.50669" lon="2.42252">
        <ele>2060</ele>
        <time>2024-09-18T11:48:12Z</time>
      </trkpt>
      <trkpt lat="42.50671" lon="2.42247">
        <ele>2059</ele>
        <time>2024-09-18T11:48:15Z</time>
      </trkpt>
      <trkpt lat="42.50672" lon="2.42243">
        <ele>2060</ele>
        <time>2024-09-18T11:48:17Z</time>
      </trkpt>
      <trkpt lat="42.50671" lon="2.42239">
        <ele>2060</ele>
        <time>2024-09-18T11:48:21Z</time>
      </trkpt>
      <trkpt lat="42.50671" lon="2.42234">
        <ele>2061</ele>
        <time>2024-09-18T11:48:23Z</time>
      </trkpt>
      <trkpt lat="42.50671" lon="2.4223">
        <ele>2061</ele>
        <time>2024-09-18T11:48:25Z</time>
      </trkpt>
      <trkpt lat="42.50671" lon="2.42227">
        <ele>2061</ele>
        <time>2024-09-18T11:48:28Z</time>
      </trkpt>
      <trkpt lat="42.5067" lon="2.42222">
        <ele>2061</ele>
        <time>2024-09-18T11:48:31Z</time>
      </trkpt>
      <trkpt lat="42.5067" lon="2.42218">
        <ele>2060</ele>
        <time>2024-09-18T11:48:34Z</time>
      </trkpt>
      <trkpt lat="42.5067" lon="2.42213">
        <ele>2059</ele>
        <time>2024-09-18T11:48:40Z</time>
      </trkpt>
      <trkpt lat="42.5067" lon="2.42208">
        <ele>2061</ele>
        <time>2024-09-18T11:48:44Z</time>
      </trkpt>
      <trkpt lat="42.50671" lon="2.42203">
        <ele>2064</ele>
        <time>2024-09-18T11:48:46Z</time>
      </trkpt>
      <trkpt lat="42.5067" lon="2.42198">
        <ele>2064</ele>
        <time>2024-09-18T11:48:49Z</time>
      </trkpt>
      <trkpt lat="42.50671" lon="2.42193">
        <ele>2062</ele>
        <time>2024-09-18T11:48:52Z</time>
      </trkpt>
      <trkpt lat="42.50671" lon="2.42188">
        <ele>2062</ele>
        <time>2024-09-18T11:48:55Z</time>
      </trkpt>
      <trkpt lat="42.5067" lon="2.42184">
        <ele>2062</ele>
        <time>2024-09-18T11:48:58Z</time>
      </trkpt>
      <trkpt lat="42.5067" lon="2.42179">
        <ele>2063</ele>
        <time>2024-09-18T11:49:00Z</time>
      </trkpt>
      <trkpt lat="42.50669" lon="2.42174">
        <ele>2063</ele>
        <time>2024-09-18T11:49:03Z</time>
      </trkpt>
      <trkpt lat="42.50668" lon="2.42169">
        <ele>2062</ele>
        <time>2024-09-18T11:49:05Z</time>
      </trkpt>
      <trkpt lat="42.50668" lon="2.42165">
        <ele>2062</ele>
        <time>2024-09-18T11:49:07Z</time>
      </trkpt>
      <trkpt lat="42.50666" lon="2.42161">
        <ele>2062</ele>
        <time>2024-09-18T11:49:09Z</time>
      </trkpt>
      <trkpt lat="42.50664" lon="2.42158">
        <ele>2062</ele>
        <time>2024-09-18T11:49:10Z</time>
      </trkpt>
      <trkpt lat="42.50664" lon="2.42154">
        <ele>2060</ele>
        <time>2024-09-18T11:49:13Z</time>
      </trkpt>
      <trkpt lat="42.50663" lon="2.4215">
        <ele>2060</ele>
        <time>2024-09-18T11:49:16Z</time>
      </trkpt>
      <trkpt lat="42.50661" lon="2.42145">
        <ele>2062</ele>
        <time>2024-09-18T11:49:19Z</time>
      </trkpt>
      <trkpt lat="42.50659" lon="2.42143">
        <ele>2064</ele>
        <time>2024-09-18T11:49:25Z</time>
      </trkpt>
      <trkpt lat="42.50658" lon="2.4214">
        <ele>2062</ele>
        <time>2024-09-18T11:49:28Z</time>
      </trkpt>
      <trkpt lat="42.50657" lon="2.42136">
        <ele>2062</ele>
        <time>2024-09-18T11:49:30Z</time>
      </trkpt>
      <trkpt lat="42.50657" lon="2.42132">
        <ele>2060</ele>
        <time>2024-09-18T11:49:33Z</time>
      </trkpt>
      <trkpt lat="42.50657" lon="2.42127">
        <ele>2057</ele>
        <time>2024-09-18T11:49:36Z</time>
      </trkpt>
      <trkpt lat="42.50656" lon="2.42123">
        <ele>2056</ele>
        <time>2024-09-18T11:49:39Z</time>
      </trkpt>
      <trkpt lat="42.50656" lon="2.42118">
        <ele>2054</ele>
        <time>2024-09-18T11:49:42Z</time>
      </trkpt>
      <trkpt lat="42.50656" lon="2.42114">
        <ele>2054</ele>
        <time>2024-09-18T11:49:46Z</time>
      </trkpt>
      <trkpt lat="42.50656" lon="2.42109">
        <ele>2053</ele>
        <time>2024-09-18T11:49:49Z</time>
      </trkpt>
      <trkpt lat="42.50656" lon="2.42104">
        <ele>2052</ele>
        <time>2024-09-18T11:49:51Z</time>
      </trkpt>
      <trkpt lat="42.50656" lon="2.421">
        <ele>2051</ele>
        <time>2024-09-18T11:49:53Z</time>
      </trkpt>
      <trkpt lat="42.50657" lon="2.42096">
        <ele>2052</ele>
        <time>2024-09-18T11:49:55Z</time>
      </trkpt>
      <trkpt lat="42.50658" lon="2.42092">
        <ele>2051</ele>
        <time>2024-09-18T11:49:57Z</time>
      </trkpt>
      <trkpt lat="42.50659" lon="2.42088">
        <ele>2051</ele>
        <time>2024-09-18T11:50:00Z</time>
      </trkpt>
      <trkpt lat="42.50659" lon="2.42083">
        <ele>2050</ele>
        <time>2024-09-18T11:50:04Z</time>
      </trkpt>
      <trkpt lat="42.5066" lon="2.42079">
        <ele>2049</ele>
        <time>2024-09-18T11:50:06Z</time>
      </trkpt>
      <trkpt lat="42.50662" lon="2.42074">
        <ele>2048</ele>
        <time>2024-09-18T11:50:09Z</time>
      </trkpt>
      <trkpt lat="42.50663" lon="2.42069">
        <ele>2049</ele>
        <time>2024-09-18T11:50:13Z</time>
      </trkpt>
      <trkpt lat="42.50664" lon="2.42065">
        <ele>2048</ele>
        <time>2024-09-18T11:50:16Z</time>
      </trkpt>
      <trkpt lat="42.50665" lon="2.4206">
        <ele>2048</ele>
        <time>2024-09-18T11:50:21Z</time>
      </trkpt>
      <trkpt lat="42.50666" lon="2.42056">
        <ele>2047</ele>
        <time>2024-09-18T11:50:23Z</time>
      </trkpt>
      <trkpt lat="42.50668" lon="2.42052">
        <ele>2045</ele>
        <time>2024-09-18T11:50:26Z</time>
      </trkpt>
      <trkpt lat="42.5067" lon="2.42048">
        <ele>2043</ele>
        <time>2024-09-18T11:50:29Z</time>
      </trkpt>
      <trkpt lat="42.50672" lon="2.42045">
        <ele>2043</ele>
        <time>2024-09-18T11:50:31Z</time>
      </trkpt>
      <trkpt lat="42.50673" lon="2.4204">
        <ele>2046</ele>
        <time>2024-09-18T11:50:34Z</time>
      </trkpt>
      <trkpt lat="42.50675" lon="2.42036">
        <ele>2043</ele>
        <time>2024-09-18T11:50:38Z</time>
      </trkpt>
      <trkpt lat="42.50677" lon="2.42033">
        <ele>2045</ele>
        <time>2024-09-18T11:50:42Z</time>
      </trkpt>
      <trkpt lat="42.50679" lon="2.4203">
        <ele>2042</ele>
        <time>2024-09-18T11:50:47Z</time>
      </trkpt>
      <trkpt lat="42.50681" lon="2.42028">
        <ele>2040</ele>
        <time>2024-09-18T11:50:50Z</time>
      </trkpt>
      <trkpt lat="42.50684" lon="2.42024">
        <ele>2040</ele>
        <time>2024-09-18T11:50:52Z</time>
      </trkpt>
      <trkpt lat="42.50686" lon="2.42022">
        <ele>2039</ele>
        <time>2024-09-18T11:50:55Z</time>
      </trkpt>
      <trkpt lat="42.50689" lon="2.42019">
        <ele>2038</ele>
        <time>2024-09-18T11:50:57Z</time>
      </trkpt>
      <trkpt lat="42.50692" lon="2.42017">
        <ele>2036</ele>
        <time>2024-09-18T11:51:01Z</time>
      </trkpt>
      <trkpt lat="42.50695" lon="2.42015">
        <ele>2036</ele>
        <time>2024-09-18T11:51:02Z</time>
      </trkpt>
      <trkpt lat="42.50697" lon="2.42015">
        <ele>2034</ele>
        <time>2024-09-18T11:51:06Z</time>
      </trkpt>
      <trkpt lat="42.507" lon="2.42016">
        <ele>2034</ele>
        <time>2024-09-18T11:51:08Z</time>
      </trkpt>
      <trkpt lat="42.50703" lon="2.42016">
        <ele>2034</ele>
        <time>2024-09-18T11:51:11Z</time>
      </trkpt>
      <trkpt lat="42.50706" lon="2.42017">
        <ele>2034</ele>
        <time>2024-09-18T11:51:14Z</time>
      </trkpt>
      <trkpt lat="42.5071" lon="2.42018">
        <ele>2034</ele>
        <time>2024-09-18T11:51:16Z</time>
      </trkpt>
      <trkpt lat="42.50713" lon="2.42017">
        <ele>2034</ele>
        <time>2024-09-18T11:51:19Z</time>
      </trkpt>
      <trkpt lat="42.50716" lon="2.42016">
        <ele>2033</ele>
        <time>2024-09-18T11:51:22Z</time>
      </trkpt>
      <trkpt lat="42.50719" lon="2.42016">
        <ele>2032</ele>
        <time>2024-09-18T11:51:25Z</time>
      </trkpt>
      <trkpt lat="42.50722" lon="2.42017">
        <ele>2032</ele>
        <time>2024-09-18T11:51:27Z</time>
      </trkpt>
      <trkpt lat="42.50726" lon="2.42017">
        <ele>2032</ele>
        <time>2024-09-18T11:51:30Z</time>
      </trkpt>
      <trkpt lat="42.50729" lon="2.42017">
        <ele>2032</ele>
        <time>2024-09-18T11:51:33Z</time>
      </trkpt>
      <trkpt lat="42.50732" lon="2.42019">
        <ele>2032</ele>
        <time>2024-09-18T11:51:36Z</time>
      </trkpt>
      <trkpt lat="42.50736" lon="2.42019">
        <ele>2031</ele>
        <time>2024-09-18T11:51:40Z</time>
      </trkpt>
      <trkpt lat="42.50739" lon="2.42019">
        <ele>2031</ele>
        <time>2024-09-18T11:51:43Z</time>
      </trkpt>
      <trkpt lat="42.50742" lon="2.4202">
        <ele>2031</ele>
        <time>2024-09-18T11:51:46Z</time>
      </trkpt>
      <trkpt lat="42.50746" lon="2.42022">
        <ele>2032</ele>
        <time>2024-09-18T11:51:49Z</time>
      </trkpt>
      <trkpt lat="42.50749" lon="2.42024">
        <ele>2033</ele>
        <time>2024-09-18T11:51:51Z</time>
      </trkpt>
      <trkpt lat="42.50752" lon="2.42024">
        <ele>2034</ele>
        <time>2024-09-18T11:51:59Z</time>
      </trkpt>
      <trkpt lat="42.50754" lon="2.42027">
        <ele>2034</ele>
        <time>2024-09-18T11:52:02Z</time>
      </trkpt>
      <trkpt lat="42.50757" lon="2.42029">
        <ele>2034</ele>
        <time>2024-09-18T11:52:04Z</time>
      </trkpt>
      <trkpt lat="42.50758" lon="2.42032">
        <ele>2033</ele>
        <time>2024-09-18T11:52:07Z</time>
      </trkpt>
      <trkpt lat="42.5076" lon="2.42036">
        <ele>2033</ele>
        <time>2024-09-18T11:52:10Z</time>
      </trkpt>
      <trkpt lat="42.50762" lon="2.42039">
        <ele>2034</ele>
        <time>2024-09-18T11:52:12Z</time>
      </trkpt>
      <trkpt lat="42.50764" lon="2.42041">
        <ele>2034</ele>
        <time>2024-09-18T11:52:14Z</time>
      </trkpt>
      <trkpt lat="42.50767" lon="2.42043">
        <ele>2036</ele>
        <time>2024-09-18T11:52:16Z</time>
      </trkpt>
      <trkpt lat="42.5077" lon="2.42045">
        <ele>2034</ele>
        <time>2024-09-18T11:52:40Z</time>
      </trkpt>
      <trkpt lat="42.50772" lon="2.42048">
        <ele>2034</ele>
        <time>2024-09-18T11:52:43Z</time>
      </trkpt>
      <trkpt lat="42.50773" lon="2.42053">
        <ele>2033</ele>
        <time>2024-09-18T11:52:46Z</time>
      </trkpt>
      <trkpt lat="42.50773" lon="2.42057">
        <ele>2033</ele>
        <time>2024-09-18T11:52:50Z</time>
      </trkpt>
      <trkpt lat="42.50775" lon="2.42062">
        <ele>2033</ele>
        <time>2024-09-18T11:52:54Z</time>
      </trkpt>
      <trkpt lat="42.50776" lon="2.42066">
        <ele>2034</ele>
        <time>2024-09-18T11:52:57Z</time>
      </trkpt>
      <trkpt lat="42.50778" lon="2.4207">
        <ele>2035</ele>
        <time>2024-09-18T11:53:00Z</time>
      </trkpt>
      <trkpt lat="42.5078" lon="2.42074">
        <ele>2036</ele>
        <time>2024-09-18T11:53:03Z</time>
      </trkpt>
      <trkpt lat="42.50782" lon="2.42077">
        <ele>2040</ele>
        <time>2024-09-18T11:53:06Z</time>
      </trkpt>
      <trkpt lat="42.50784" lon="2.42081">
        <ele>2039</ele>
        <time>2024-09-18T11:53:09Z</time>
      </trkpt>
      <trkpt lat="42.50786" lon="2.42084">
        <ele>2039</ele>
        <time>2024-09-18T11:53:11Z</time>
      </trkpt>
      <trkpt lat="42.50788" lon="2.42087">
        <ele>2039</ele>
        <time>2024-09-18T11:53:14Z</time>
      </trkpt>
      <trkpt lat="42.50789" lon="2.42091">
        <ele>2037</ele>
        <time>2024-09-18T11:53:17Z</time>
      </trkpt>
      <trkpt lat="42.50791" lon="2.42096">
        <ele>2037</ele>
        <time>2024-09-18T11:53:20Z</time>
      </trkpt>
      <trkpt lat="42.50792" lon="2.421">
        <ele>2038</ele>
        <time>2024-09-18T11:53:23Z</time>
      </trkpt>
      <trkpt lat="42.50794" lon="2.42104">
        <ele>2037</ele>
        <time>2024-09-18T11:53:24Z</time>
      </trkpt>
      <trkpt lat="42.50796" lon="2.42107">
        <ele>2038</ele>
        <time>2024-09-18T11:53:28Z</time>
      </trkpt>
      <trkpt lat="42.50797" lon="2.42111">
        <ele>2038</ele>
        <time>2024-09-18T11:53:30Z</time>
      </trkpt>
      <trkpt lat="42.50799" lon="2.42116">
        <ele>2039</ele>
        <time>2024-09-18T11:53:31Z</time>
      </trkpt>
      <trkpt lat="42.50801" lon="2.42119">
        <ele>2039</ele>
        <time>2024-09-18T11:53:35Z</time>
      </trkpt>
      <trkpt lat="42.50804" lon="2.42121">
        <ele>2040</ele>
        <time>2024-09-18T11:53:37Z</time>
      </trkpt>
      <trkpt lat="42.50806" lon="2.42125">
        <ele>2039</ele>
        <time>2024-09-18T11:53:40Z</time>
      </trkpt>
      <trkpt lat="42.50808" lon="2.42128">
        <ele>2038</ele>
        <time>2024-09-18T11:53:45Z</time>
      </trkpt>
      <trkpt lat="42.5081" lon="2.42131">
        <ele>2038</ele>
        <time>2024-09-18T11:53:48Z</time>
      </trkpt>
      <trkpt lat="42.50812" lon="2.42134">
        <ele>2039</ele>
        <time>2024-09-18T11:53:50Z</time>
      </trkpt>
      <trkpt lat="42.50815" lon="2.42138">
        <ele>2038</ele>
        <time>2024-09-18T11:53:55Z</time>
      </trkpt>
      <trkpt lat="42.50818" lon="2.42142">
        <ele>2037</ele>
        <time>2024-09-18T11:53:59Z</time>
      </trkpt>
      <trkpt lat="42.50821" lon="2.42146">
        <ele>2038</ele>
        <time>2024-09-18T11:54:04Z</time>
      </trkpt>
      <trkpt lat="42.50823" lon="2.4215">
        <ele>2037</ele>
        <time>2024-09-18T11:54:07Z</time>
      </trkpt>
      <trkpt lat="42.50824" lon="2.42154">
        <ele>2037</ele>
        <time>2024-09-18T11:54:10Z</time>
      </trkpt>
      <trkpt lat="42.50827" lon="2.42157">
        <ele>2039</ele>
        <time>2024-09-18T11:54:13Z</time>
      </trkpt>
      <trkpt lat="42.5083" lon="2.4216">
        <ele>2039</ele>
        <time>2024-09-18T11:54:16Z</time>
      </trkpt>
      <trkpt lat="42.50832" lon="2.42163">
        <ele>2039</ele>
        <time>2024-09-18T11:54:18Z</time>
      </trkpt>
      <trkpt lat="42.50835" lon="2.42167">
        <ele>2038</ele>
        <time>2024-09-18T11:54:22Z</time>
      </trkpt>
      <trkpt lat="42.50837" lon="2.42172">
        <ele>2038</ele>
        <time>2024-09-18T11:54:26Z</time>
      </trkpt>
      <trkpt lat="42.5084" lon="2.42175">
        <ele>2038</ele>
        <time>2024-09-18T11:54:30Z</time>
      </trkpt>
      <trkpt lat="42.50844" lon="2.42177">
        <ele>2040</ele>
        <time>2024-09-18T11:54:33Z</time>
      </trkpt>
      <trkpt lat="42.50847" lon="2.42179">
        <ele>2040</ele>
        <time>2024-09-18T11:54:37Z</time>
      </trkpt>
      <trkpt lat="42.50848" lon="2.42183">
        <ele>2039</ele>
        <time>2024-09-18T11:54:43Z</time>
      </trkpt>
      <trkpt lat="42.5085" lon="2.42186">
        <ele>2037</ele>
        <time>2024-09-18T11:55:58Z</time>
      </trkpt>
      <trkpt lat="42.50853" lon="2.42188">
        <ele>2037</ele>
        <time>2024-09-18T11:56:01Z</time>
      </trkpt>
      <trkpt lat="42.50856" lon="2.4219">
        <ele>2037</ele>
        <time>2024-09-18T11:56:04Z</time>
      </trkpt>
      <trkpt lat="42.50859" lon="2.42191">
        <ele>2037</ele>
        <time>2024-09-18T11:56:06Z</time>
      </trkpt>
      <trkpt lat="42.50862" lon="2.42193">
        <ele>2038</ele>
        <time>2024-09-18T11:56:09Z</time>
      </trkpt>
      <trkpt lat="42.50866" lon="2.42196">
        <ele>2039</ele>
        <time>2024-09-18T11:56:12Z</time>
      </trkpt>
      <trkpt lat="42.50869" lon="2.42198">
        <ele>2039</ele>
        <time>2024-09-18T11:56:16Z</time>
      </trkpt>
      <trkpt lat="42.50872" lon="2.422">
        <ele>2039</ele>
        <time>2024-09-18T11:56:18Z</time>
      </trkpt>
      <trkpt lat="42.50875" lon="2.42199">
        <ele>2040</ele>
        <time>2024-09-18T11:56:21Z</time>
      </trkpt>
      <trkpt lat="42.50878" lon="2.42199">
        <ele>2042</ele>
        <time>2024-09-18T11:56:24Z</time>
      </trkpt>
      <trkpt lat="42.50881" lon="2.422">
        <ele>2041</ele>
        <time>2024-09-18T11:56:27Z</time>
      </trkpt>
      <trkpt lat="42.50885" lon="2.42201">
        <ele>2042</ele>
        <time>2024-09-18T11:56:30Z</time>
      </trkpt>
      <trkpt lat="42.50888" lon="2.42202">
        <ele>2042</ele>
        <time>2024-09-18T11:56:32Z</time>
      </trkpt>
      <trkpt lat="42.50891" lon="2.42202">
        <ele>2043</ele>
        <time>2024-09-18T11:56:35Z</time>
      </trkpt>
      <trkpt lat="42.50894" lon="2.42203">
        <ele>2044</ele>
        <time>2024-09-18T11:56:37Z</time>
      </trkpt>
      <trkpt lat="42.50897" lon="2.42204">
        <ele>2044</ele>
        <time>2024-09-18T11:56:41Z</time>
      </trkpt>
      <trkpt lat="42.509" lon="2.42206">
        <ele>2044</ele>
        <time>2024-09-18T11:56:44Z</time>
      </trkpt>
      <trkpt lat="42.50903" lon="2.42207">
        <ele>2045</ele>
        <time>2024-09-18T11:56:48Z</time>
      </trkpt>
      <trkpt lat="42.50906" lon="2.42207">
        <ele>2045</ele>
        <time>2024-09-18T11:56:51Z</time>
      </trkpt>
      <trkpt lat="42.50909" lon="2.42206">
        <ele>2046</ele>
        <time>2024-09-18T11:56:53Z</time>
      </trkpt>
      <trkpt lat="42.50913" lon="2.42205">
        <ele>2046</ele>
        <time>2024-09-18T11:56:56Z</time>
      </trkpt>
      <trkpt lat="42.50916" lon="2.42205">
        <ele>2046</ele>
        <time>2024-09-18T11:56:59Z</time>
      </trkpt>
      <trkpt lat="42.50919" lon="2.42206">
        <ele>2047</ele>
        <time>2024-09-18T11:57:02Z</time>
      </trkpt>
      <trkpt lat="42.50922" lon="2.42207">
        <ele>2046</ele>
        <time>2024-09-18T11:57:05Z</time>
      </trkpt>
      <trkpt lat="42.50925" lon="2.42206">
        <ele>2046</ele>
        <time>2024-09-18T11:57:09Z</time>
      </trkpt>
      <trkpt lat="42.50928" lon="2.42207">
        <ele>2048</ele>
        <time>2024-09-18T11:57:12Z</time>
      </trkpt>
      <trkpt lat="42.5093" lon="2.42209">
        <ele>2047</ele>
        <time>2024-09-18T11:57:16Z</time>
      </trkpt>
      <trkpt lat="42.50933" lon="2.4221">
        <ele>2046</ele>
        <time>2024-09-18T11:57:20Z</time>
      </trkpt>
      <trkpt lat="42.50935" lon="2.42211">
        <ele>2046</ele>
        <time>2024-09-18T11:57:22Z</time>
      </trkpt>
      <trkpt lat="42.50939" lon="2.42214">
        <ele>2047</ele>
        <time>2024-09-18T11:57:26Z</time>
      </trkpt>
      <trkpt lat="42.50942" lon="2.42216">
        <ele>2047</ele>
        <time>2024-09-18T11:57:28Z</time>
      </trkpt>
      <trkpt lat="42.50945" lon="2.42217">
        <ele>2047</ele>
        <time>2024-09-18T11:57:30Z</time>
      </trkpt>
      <trkpt lat="42.50949" lon="2.42218">
        <ele>2048</ele>
        <time>2024-09-18T11:57:32Z</time>
      </trkpt>
      <trkpt lat="42.50953" lon="2.42221">
        <ele>2049</ele>
        <time>2024-09-18T11:57:35Z</time>
      </trkpt>
      <trkpt lat="42.50956" lon="2.42224">
        <ele>2050</ele>
        <time>2024-09-18T11:57:38Z</time>
      </trkpt>
      <trkpt lat="42.5096" lon="2.42226">
        <ele>2049</ele>
        <time>2024-09-18T11:57:43Z</time>
      </trkpt>
      <trkpt lat="42.50963" lon="2.42228">
        <ele>2049</ele>
        <time>2024-09-18T11:57:47Z</time>
      </trkpt>
      <trkpt lat="42.50966" lon="2.42229">
        <ele>2049</ele>
        <time>2024-09-18T11:57:51Z</time>
      </trkpt>
      <trkpt lat="42.50969" lon="2.42229">
        <ele>2049</ele>
        <time>2024-09-18T11:57:54Z</time>
      </trkpt>
      <trkpt lat="42.50972" lon="2.4223">
        <ele>2048</ele>
        <time>2024-09-18T11:57:57Z</time>
      </trkpt>
      <trkpt lat="42.50976" lon="2.4223">
        <ele>2047</ele>
        <time>2024-09-18T11:58:01Z</time>
      </trkpt>
      <trkpt lat="42.50979" lon="2.4223">
        <ele>2050</ele>
        <time>2024-09-18T11:58:04Z</time>
      </trkpt>
      <trkpt lat="42.50982" lon="2.4223">
        <ele>2049</ele>
        <time>2024-09-18T11:58:07Z</time>
      </trkpt>
      <trkpt lat="42.50986" lon="2.42229">
        <ele>2050</ele>
        <time>2024-09-18T11:58:10Z</time>
      </trkpt>
      <trkpt lat="42.5099" lon="2.42229">
        <ele>2051</ele>
        <time>2024-09-18T11:58:13Z</time>
      </trkpt>
      <trkpt lat="42.50993" lon="2.42228">
        <ele>2052</ele>
        <time>2024-09-18T11:58:18Z</time>
      </trkpt>
      <trkpt lat="42.50996" lon="2.42227">
        <ele>2051</ele>
        <time>2024-09-18T11:58:21Z</time>
      </trkpt>
      <trkpt lat="42.50999" lon="2.42225">
        <ele>2051</ele>
        <time>2024-09-18T11:58:25Z</time>
      </trkpt>
      <trkpt lat="42.51002" lon="2.42226">
        <ele>2053</ele>
        <time>2024-09-18T11:58:28Z</time>
      </trkpt>
      <trkpt lat="42.51005" lon="2.42228">
        <ele>2054</ele>
        <time>2024-09-18T11:58:31Z</time>
      </trkpt>
      <trkpt lat="42.51007" lon="2.4223">
        <ele>2055</ele>
        <time>2024-09-18T11:58:34Z</time>
      </trkpt>
      <trkpt lat="42.51009" lon="2.42233">
        <ele>2054</ele>
        <time>2024-09-18T11:58:37Z</time>
      </trkpt>
      <trkpt lat="42.51011" lon="2.42236">
        <ele>2054</ele>
        <time>2024-09-18T11:58:40Z</time>
      </trkpt>
      <trkpt lat="42.51014" lon="2.42238">
        <ele>2053</ele>
        <time>2024-09-18T11:58:43Z</time>
      </trkpt>
      <trkpt lat="42.51017" lon="2.4224">
        <ele>2053</ele>
        <time>2024-09-18T11:58:47Z</time>
      </trkpt>
      <trkpt lat="42.5102" lon="2.42243">
        <ele>2054</ele>
        <time>2024-09-18T11:58:51Z</time>
      </trkpt>
      <trkpt lat="42.51023" lon="2.42246">
        <ele>2055</ele>
        <time>2024-09-18T11:58:54Z</time>
      </trkpt>
      <trkpt lat="42.51025" lon="2.42249">
        <ele>2055</ele>
        <time>2024-09-18T11:58:57Z</time>
      </trkpt>
      <trkpt lat="42.51028" lon="2.42252">
        <ele>2055</ele>
        <time>2024-09-18T11:59:01Z</time>
      </trkpt>
      <trkpt lat="42.5103" lon="2.42256">
        <ele>2055</ele>
        <time>2024-09-18T11:59:05Z</time>
      </trkpt>
      <trkpt lat="42.51032" lon="2.42259">
        <ele>2055</ele>
        <time>2024-09-18T11:59:09Z</time>
      </trkpt>
      <trkpt lat="42.51035" lon="2.42262">
        <ele>2055</ele>
        <time>2024-09-18T11:59:12Z</time>
      </trkpt>
      <trkpt lat="42.51037" lon="2.42265">
        <ele>2056</ele>
        <time>2024-09-18T11:59:14Z</time>
      </trkpt>
      <trkpt lat="42.51039" lon="2.42267">
        <ele>2056</ele>
        <time>2024-09-18T11:59:18Z</time>
      </trkpt>
      <trkpt lat="42.51041" lon="2.4227">
        <ele>2056</ele>
        <time>2024-09-18T11:59:21Z</time>
      </trkpt>
      <trkpt lat="42.51045" lon="2.42273">
        <ele>2057</ele>
        <time>2024-09-18T11:59:24Z</time>
      </trkpt>
      <trkpt lat="42.51047" lon="2.42277">
        <ele>2056</ele>
        <time>2024-09-18T11:59:29Z</time>
      </trkpt>
      <trkpt lat="42.51049" lon="2.4228">
        <ele>2057</ele>
        <time>2024-09-18T11:59:34Z</time>
      </trkpt>
      <trkpt lat="42.51051" lon="2.42283">
        <ele>2058</ele>
        <time>2024-09-18T11:59:37Z</time>
      </trkpt>
      <trkpt lat="42.51054" lon="2.42287">
        <ele>2058</ele>
        <time>2024-09-18T11:59:39Z</time>
      </trkpt>
      <trkpt lat="42.51056" lon="2.42292">
        <ele>2058</ele>
        <time>2024-09-18T11:59:44Z</time>
      </trkpt>
      <trkpt lat="42.51058" lon="2.42295">
        <ele>2058</ele>
        <time>2024-09-18T11:59:48Z</time>
      </trkpt>
      <trkpt lat="42.51061" lon="2.42298">
        <ele>2058</ele>
        <time>2024-09-18T11:59:51Z</time>
      </trkpt>
      <trkpt lat="42.51063" lon="2.42302">
        <ele>2058</ele>
        <time>2024-09-18T11:59:55Z</time>
      </trkpt>
      <trkpt lat="42.51065" lon="2.42306">
        <ele>2057</ele>
        <time>2024-09-18T11:59:58Z</time>
      </trkpt>
      <trkpt lat="42.51066" lon="2.4231">
        <ele>2057</ele>
        <time>2024-09-18T12:00:03Z</time>
      </trkpt>
      <trkpt lat="42.51068" lon="2.42314">
        <ele>2057</ele>
        <time>2024-09-18T12:00:06Z</time>
      </trkpt>
      <trkpt lat="42.51071" lon="2.42317">
        <ele>2058</ele>
        <time>2024-09-18T12:00:09Z</time>
      </trkpt>
      <trkpt lat="42.51073" lon="2.4232">
        <ele>2058</ele>
        <time>2024-09-18T12:00:12Z</time>
      </trkpt>
      <trkpt lat="42.51074" lon="2.42324">
        <ele>2058</ele>
        <time>2024-09-18T12:00:16Z</time>
      </trkpt>
      <trkpt lat="42.51076" lon="2.42327">
        <ele>2059</ele>
        <time>2024-09-18T12:00:20Z</time>
      </trkpt>
      <trkpt lat="42.51078" lon="2.4233">
        <ele>2059</ele>
        <time>2024-09-18T12:00:24Z</time>
      </trkpt>
      <trkpt lat="42.5108" lon="2.42332">
        <ele>2058</ele>
        <time>2024-09-18T12:00:27Z</time>
      </trkpt>
      <trkpt lat="42.51082" lon="2.42336">
        <ele>2058</ele>
        <time>2024-09-18T12:00:30Z</time>
      </trkpt>
      <trkpt lat="42.51084" lon="2.42338">
        <ele>2060</ele>
        <time>2024-09-18T12:00:34Z</time>
      </trkpt>
      <trkpt lat="42.51086" lon="2.42341">
        <ele>2060</ele>
        <time>2024-09-18T12:00:36Z</time>
      </trkpt>
      <trkpt lat="42.51088" lon="2.42344">
        <ele>2061</ele>
        <time>2024-09-18T12:00:42Z</time>
      </trkpt>
      <trkpt lat="42.51091" lon="2.42345">
        <ele>2060</ele>
        <time>2024-09-18T12:00:44Z</time>
      </trkpt>
      <trkpt lat="42.51094" lon="2.42347">
        <ele>2060</ele>
        <time>2024-09-18T12:00:47Z</time>
      </trkpt>
      <trkpt lat="42.51096" lon="2.42349">
        <ele>2060</ele>
        <time>2024-09-18T12:00:49Z</time>
      </trkpt>
      <trkpt lat="42.51098" lon="2.42353">
        <ele>2061</ele>
        <time>2024-09-18T12:00:53Z</time>
      </trkpt>
      <trkpt lat="42.51099" lon="2.42357">
        <ele>2063</ele>
        <time>2024-09-18T12:00:58Z</time>
      </trkpt>
      <trkpt lat="42.511" lon="2.42361">
        <ele>2063</ele>
        <time>2024-09-18T12:01:02Z</time>
      </trkpt>
      <trkpt lat="42.51101" lon="2.42365">
        <ele>2063</ele>
        <time>2024-09-18T12:01:04Z</time>
      </trkpt>
      <trkpt lat="42.51104" lon="2.42368">
        <ele>2063</ele>
        <time>2024-09-18T12:01:07Z</time>
      </trkpt>
      <trkpt lat="42.51106" lon="2.42371">
        <ele>2064</ele>
        <time>2024-09-18T12:01:11Z</time>
      </trkpt>
      <trkpt lat="42.51108" lon="2.42375">
        <ele>2064</ele>
        <time>2024-09-18T12:01:16Z</time>
      </trkpt>
      <trkpt lat="42.51109" lon="2.42379">
        <ele>2064</ele>
        <time>2024-09-18T12:01:20Z</time>
      </trkpt>
      <trkpt lat="42.51112" lon="2.42381">
        <ele>2065</ele>
        <time>2024-09-18T12:01:24Z</time>
      </trkpt>
      <trkpt lat="42.51115" lon="2.42381">
        <ele>2065</ele>
        <time>2024-09-18T12:01:27Z</time>
      </trkpt>
      <trkpt lat="42.51118" lon="2.4238">
        <ele>2068</ele>
        <time>2024-09-18T12:01:33Z</time>
      </trkpt>
      <trkpt lat="42.51122" lon="2.42379">
        <ele>2065</ele>
        <time>2024-09-18T12:01:38Z</time>
      </trkpt>
      <trkpt lat="42.51126" lon="2.42378">
        <ele>2064</ele>
        <time>2024-09-18T12:01:41Z</time>
      </trkpt>
      <trkpt lat="42.51129" lon="2.42379">
        <ele>2064</ele>
        <time>2024-09-18T12:01:44Z</time>
      </trkpt>
      <trkpt lat="42.51133" lon="2.42379">
        <ele>2064</ele>
        <time>2024-09-18T12:01:46Z</time>
      </trkpt>
      <trkpt lat="42.51136" lon="2.4238">
        <ele>2064</ele>
        <time>2024-09-18T12:01:49Z</time>
      </trkpt>
      <trkpt lat="42.51139" lon="2.42382">
        <ele>2062</ele>
        <time>2024-09-18T12:01:54Z</time>
      </trkpt>
      <trkpt lat="42.51142" lon="2.42382">
        <ele>2063</ele>
        <time>2024-09-18T12:01:56Z</time>
      </trkpt>
      <trkpt lat="42.51145" lon="2.42384">
        <ele>2062</ele>
        <time>2024-09-18T12:01:59Z</time>
      </trkpt>
      <trkpt lat="42.51148" lon="2.42387">
        <ele>2062</ele>
        <time>2024-09-18T12:02:01Z</time>
      </trkpt>
      <trkpt lat="42.51151" lon="2.42388">
        <ele>2063</ele>
        <time>2024-09-18T12:02:07Z</time>
      </trkpt>
      <trkpt lat="42.51154" lon="2.42388">
        <ele>2061</ele>
        <time>2024-09-18T12:02:10Z</time>
      </trkpt>
      <trkpt lat="42.51157" lon="2.42387">
        <ele>2061</ele>
        <time>2024-09-18T12:02:12Z</time>
      </trkpt>
      <trkpt lat="42.5116" lon="2.42385">
        <ele>2060</ele>
        <time>2024-09-18T12:02:15Z</time>
      </trkpt>
      <trkpt lat="42.51163" lon="2.42383">
        <ele>2061</ele>
        <time>2024-09-18T12:02:18Z</time>
      </trkpt>
      <trkpt lat="42.51166" lon="2.42382">
        <ele>2061</ele>
        <time>2024-09-18T12:02:20Z</time>
      </trkpt>
      <trkpt lat="42.5117" lon="2.42381">
        <ele>2064</ele>
        <time>2024-09-18T12:02:23Z</time>
      </trkpt>
      <trkpt lat="42.51173" lon="2.4238">
        <ele>2063</ele>
        <time>2024-09-18T12:02:26Z</time>
      </trkpt>
      <trkpt lat="42.51176" lon="2.42379">
        <ele>2062</ele>
        <time>2024-09-18T12:02:29Z</time>
      </trkpt>
      <trkpt lat="42.51179" lon="2.42376">
        <ele>2063</ele>
        <time>2024-09-18T12:02:31Z</time>
      </trkpt>
      <trkpt lat="42.51182" lon="2.42375">
        <ele>2062</ele>
        <time>2024-09-18T12:02:34Z</time>
      </trkpt>
      <trkpt lat="42.51185" lon="2.42374">
        <ele>2061</ele>
        <time>2024-09-18T12:02:37Z</time>
      </trkpt>
      <trkpt lat="42.51187" lon="2.42372">
        <ele>2062</ele>
        <time>2024-09-18T12:02:39Z</time>
      </trkpt>
      <trkpt lat="42.5119" lon="2.4237">
        <ele>2062</ele>
        <time>2024-09-18T12:02:41Z</time>
      </trkpt>
      <trkpt lat="42.51192" lon="2.42367">
        <ele>2061</ele>
        <time>2024-09-18T12:02:44Z</time>
      </trkpt>
      <trkpt lat="42.51195" lon="2.42366">
        <ele>2061</ele>
        <time>2024-09-18T12:02:46Z</time>
      </trkpt>
      <trkpt lat="42.51198" lon="2.42365">
        <ele>2061</ele>
        <time>2024-09-18T12:02:50Z</time>
      </trkpt>
      <trkpt lat="42.51201" lon="2.42364">
        <ele>2062</ele>
        <time>2024-09-18T12:02:53Z</time>
      </trkpt>
      <trkpt lat="42.51204" lon="2.42363">
        <ele>2063</ele>
        <time>2024-09-18T12:02:56Z</time>
      </trkpt>
      <trkpt lat="42.51208" lon="2.42362">
        <ele>2063</ele>
        <time>2024-09-18T12:02:59Z</time>
      </trkpt>
      <trkpt lat="42.5121" lon="2.42361">
        <ele>2064</ele>
        <time>2024-09-18T12:03:01Z</time>
      </trkpt>
      <trkpt lat="42.51213" lon="2.4236">
        <ele>2064</ele>
        <time>2024-09-18T12:03:04Z</time>
      </trkpt>
      <trkpt lat="42.51216" lon="2.4236">
        <ele>2064</ele>
        <time>2024-09-18T12:03:07Z</time>
      </trkpt>
      <trkpt lat="42.51219" lon="2.42361">
        <ele>2064</ele>
        <time>2024-09-18T12:03:10Z</time>
      </trkpt>
      <trkpt lat="42.51223" lon="2.4236">
        <ele>2065</ele>
        <time>2024-09-18T12:03:14Z</time>
      </trkpt>
      <trkpt lat="42.51226" lon="2.42359">
        <ele>2066</ele>
        <time>2024-09-18T12:03:15Z</time>
      </trkpt>
      <trkpt lat="42.51229" lon="2.42359">
        <ele>2066</ele>
        <time>2024-09-18T12:03:21Z</time>
      </trkpt>
      <trkpt lat="42.51232" lon="2.42358">
        <ele>2066</ele>
        <time>2024-09-18T12:03:24Z</time>
      </trkpt>
      <trkpt lat="42.51235" lon="2.42358">
        <ele>2067</ele>
        <time>2024-09-18T12:03:28Z</time>
      </trkpt>
      <trkpt lat="42.51238" lon="2.42357">
        <ele>2069</ele>
        <time>2024-09-18T12:03:32Z</time>
      </trkpt>
      <trkpt lat="42.51241" lon="2.42356">
        <ele>2069</ele>
        <time>2024-09-18T12:03:38Z</time>
      </trkpt>
      <trkpt lat="42.51244" lon="2.42357">
        <ele>2069</ele>
        <time>2024-09-18T12:03:43Z</time>
      </trkpt>
      <trkpt lat="42.51245" lon="2.4236">
        <ele>2066</ele>
        <time>2024-09-18T12:03:47Z</time>
      </trkpt>
      <trkpt lat="42.51248" lon="2.42362">
        <ele>2067</ele>
        <time>2024-09-18T12:03:51Z</time>
      </trkpt>
      <trkpt lat="42.5125" lon="2.42364">
        <ele>2067</ele>
        <time>2024-09-18T12:03:53Z</time>
      </trkpt>
      <trkpt lat="42.51253" lon="2.42366">
        <ele>2067</ele>
        <time>2024-09-18T12:03:57Z</time>
      </trkpt>
      <trkpt lat="42.51255" lon="2.42365">
        <ele>2068</ele>
        <time>2024-09-18T12:04:01Z</time>
      </trkpt>
      <trkpt lat="42.51258" lon="2.42364">
        <ele>2068</ele>
        <time>2024-09-18T12:04:04Z</time>
      </trkpt>
      <trkpt lat="42.51262" lon="2.42362">
        <ele>2069</ele>
        <time>2024-09-18T12:04:08Z</time>
      </trkpt>
      <trkpt lat="42.51265" lon="2.42361">
        <ele>2069</ele>
        <time>2024-09-18T12:04:11Z</time>
      </trkpt>
      <trkpt lat="42.51268" lon="2.4236">
        <ele>2069</ele>
        <time>2024-09-18T12:04:14Z</time>
      </trkpt>
      <trkpt lat="42.5127" lon="2.42359">
        <ele>2069</ele>
        <time>2024-09-18T12:04:16Z</time>
      </trkpt>
      <trkpt lat="42.51273" lon="2.42356">
        <ele>2068</ele>
        <time>2024-09-18T12:04:20Z</time>
      </trkpt>
      <trkpt lat="42.51276" lon="2.42354">
        <ele>2068</ele>
        <time>2024-09-18T12:04:23Z</time>
      </trkpt>
      <trkpt lat="42.51278" lon="2.42354">
        <ele>2070</ele>
        <time>2024-09-18T12:04:26Z</time>
      </trkpt>
      <trkpt lat="42.51281" lon="2.42355">
        <ele>2073</ele>
        <time>2024-09-18T12:04:30Z</time>
      </trkpt>
      <trkpt lat="42.51284" lon="2.42357">
        <ele>2074</ele>
        <time>2024-09-18T12:04:33Z</time>
      </trkpt>
      <trkpt lat="42.51286" lon="2.4236">
        <ele>2073</ele>
        <time>2024-09-18T12:04:36Z</time>
      </trkpt>
      <trkpt lat="42.51289" lon="2.42363">
        <ele>2072</ele>
        <time>2024-09-18T12:04:39Z</time>
      </trkpt>
      <trkpt lat="42.51292" lon="2.42366">
        <ele>2072</ele>
        <time>2024-09-18T12:04:42Z</time>
      </trkpt>
      <trkpt lat="42.51294" lon="2.42366">
        <ele>2073</ele>
        <time>2024-09-18T12:04:46Z</time>
      </trkpt>
      <trkpt lat="42.51297" lon="2.42368">
        <ele>2073</ele>
        <time>2024-09-18T12:04:50Z</time>
      </trkpt>
      <trkpt lat="42.513" lon="2.4237">
        <ele>2073</ele>
        <time>2024-09-18T12:04:52Z</time>
      </trkpt>
      <trkpt lat="42.51303" lon="2.42372">
        <ele>2074</ele>
        <time>2024-09-18T12:04:55Z</time>
      </trkpt>
      <trkpt lat="42.51306" lon="2.42374">
        <ele>2074</ele>
        <time>2024-09-18T12:04:58Z</time>
      </trkpt>
      <trkpt lat="42.51309" lon="2.42376">
        <ele>2073</ele>
        <time>2024-09-18T12:05:01Z</time>
      </trkpt>
      <trkpt lat="42.51312" lon="2.4238">
        <ele>2073</ele>
        <time>2024-09-18T12:05:03Z</time>
      </trkpt>
      <trkpt lat="42.51314" lon="2.42382">
        <ele>2074</ele>
        <time>2024-09-18T12:05:05Z</time>
      </trkpt>
      <trkpt lat="42.51317" lon="2.42384">
        <ele>2073</ele>
        <time>2024-09-18T12:05:08Z</time>
      </trkpt>
      <trkpt lat="42.5132" lon="2.42387">
        <ele>2072</ele>
        <time>2024-09-18T12:05:12Z</time>
      </trkpt>
      <trkpt lat="42.51322" lon="2.42389">
        <ele>2072</ele>
        <time>2024-09-18T12:05:15Z</time>
      </trkpt>
      <trkpt lat="42.51325" lon="2.4239">
        <ele>2072</ele>
        <time>2024-09-18T12:05:19Z</time>
      </trkpt>
      <trkpt lat="42.51328" lon="2.42392">
        <ele>2071</ele>
        <time>2024-09-18T12:05:23Z</time>
      </trkpt>
      <trkpt lat="42.51331" lon="2.42394">
        <ele>2072</ele>
        <time>2024-09-18T12:05:27Z</time>
      </trkpt>
      <trkpt lat="42.51334" lon="2.42397">
        <ele>2072</ele>
        <time>2024-09-18T12:05:30Z</time>
      </trkpt>
      <trkpt lat="42.51337" lon="2.424">
        <ele>2073</ele>
        <time>2024-09-18T12:05:33Z</time>
      </trkpt>
      <trkpt lat="42.51341" lon="2.42403">
        <ele>2073</ele>
        <time>2024-09-18T12:05:36Z</time>
      </trkpt>
      <trkpt lat="42.51344" lon="2.42406">
        <ele>2074</ele>
        <time>2024-09-18T12:05:41Z</time>
      </trkpt>
      <trkpt lat="42.51346" lon="2.42408">
        <ele>2073</ele>
        <time>2024-09-18T12:05:44Z</time>
      </trkpt>
      <trkpt lat="42.51349" lon="2.4241">
        <ele>2074</ele>
        <time>2024-09-18T12:05:47Z</time>
      </trkpt>
      <trkpt lat="42.51352" lon="2.42411">
        <ele>2074</ele>
        <time>2024-09-18T12:05:51Z</time>
      </trkpt>
      <trkpt lat="42.51354" lon="2.42412">
        <ele>2073</ele>
        <time>2024-09-18T12:05:55Z</time>
      </trkpt>
      <trkpt lat="42.51357" lon="2.42414">
        <ele>2072</ele>
        <time>2024-09-18T12:05:59Z</time>
      </trkpt>
      <trkpt lat="42.51359" lon="2.42417">
        <ele>2071</ele>
        <time>2024-09-18T12:06:02Z</time>
      </trkpt>
      <trkpt lat="42.51362" lon="2.42419">
        <ele>2072</ele>
        <time>2024-09-18T12:06:05Z</time>
      </trkpt>
      <trkpt lat="42.51364" lon="2.42418">
        <ele>2072</ele>
        <time>2024-09-18T12:06:08Z</time>
      </trkpt>
      <trkpt lat="42.51367" lon="2.42418">
        <ele>2073</ele>
        <time>2024-09-18T12:06:12Z</time>
      </trkpt>
      <trkpt lat="42.5137" lon="2.42418">
        <ele>2074</ele>
        <time>2024-09-18T12:06:16Z</time>
      </trkpt>
      <trkpt lat="42.51374" lon="2.42418">
        <ele>2074</ele>
        <time>2024-09-18T12:06:20Z</time>
      </trkpt>
      <trkpt lat="42.51377" lon="2.42416">
        <ele>2074</ele>
        <time>2024-09-18T12:06:24Z</time>
      </trkpt>
      <trkpt lat="42.5138" lon="2.42414">
        <ele>2075</ele>
        <time>2024-09-18T12:06:27Z</time>
      </trkpt>
      <trkpt lat="42.51382" lon="2.42411">
        <ele>2074</ele>
        <time>2024-09-18T12:06:32Z</time>
      </trkpt>
      <trkpt lat="42.51384" lon="2.4241">
        <ele>2075</ele>
        <time>2024-09-18T12:06:38Z</time>
      </trkpt>
      <trkpt lat="42.51387" lon="2.4241">
        <ele>2075</ele>
        <time>2024-09-18T12:06:42Z</time>
      </trkpt>
      <trkpt lat="42.5139" lon="2.4241">
        <ele>2076</ele>
        <time>2024-09-18T12:06:45Z</time>
      </trkpt>
      <trkpt lat="42.51393" lon="2.42411">
        <ele>2077</ele>
        <time>2024-09-18T12:06:49Z</time>
      </trkpt>
      <trkpt lat="42.51396" lon="2.42411">
        <ele>2078</ele>
        <time>2024-09-18T12:06:52Z</time>
      </trkpt>
      <trkpt lat="42.514" lon="2.42411">
        <ele>2078</ele>
        <time>2024-09-18T12:06:56Z</time>
      </trkpt>
      <trkpt lat="42.51403" lon="2.42411">
        <ele>2078</ele>
        <time>2024-09-18T12:07:00Z</time>
      </trkpt>
      <trkpt lat="42.51406" lon="2.42411">
        <ele>2078</ele>
        <time>2024-09-18T12:07:03Z</time>
      </trkpt>
      <trkpt lat="42.51409" lon="2.42408">
        <ele>2080</ele>
        <time>2024-09-18T12:07:27Z</time>
      </trkpt>
      <trkpt lat="42.51412" lon="2.42408">
        <ele>2081</ele>
        <time>2024-09-18T12:07:30Z</time>
      </trkpt>
      <trkpt lat="42.51416" lon="2.42408">
        <ele>2084</ele>
        <time>2024-09-18T12:07:35Z</time>
      </trkpt>
      <trkpt lat="42.51418" lon="2.42409">
        <ele>2084</ele>
        <time>2024-09-18T12:07:37Z</time>
      </trkpt>
      <trkpt lat="42.51422" lon="2.42411">
        <ele>2083</ele>
        <time>2024-09-18T12:07:40Z</time>
      </trkpt>
      <trkpt lat="42.51425" lon="2.42413">
        <ele>2084</ele>
        <time>2024-09-18T12:07:43Z</time>
      </trkpt>
      <trkpt lat="42.51428" lon="2.42413">
        <ele>2083</ele>
        <time>2024-09-18T12:07:47Z</time>
      </trkpt>
      <trkpt lat="42.51431" lon="2.42415">
        <ele>2084</ele>
        <time>2024-09-18T12:07:49Z</time>
      </trkpt>
      <trkpt lat="42.51434" lon="2.42416">
        <ele>2083</ele>
        <time>2024-09-18T12:07:54Z</time>
      </trkpt>
      <trkpt lat="42.51437" lon="2.42416">
        <ele>2083</ele>
        <time>2024-09-18T12:07:57Z</time>
      </trkpt>
      <trkpt lat="42.5144" lon="2.42416">
        <ele>2084</ele>
        <time>2024-09-18T12:08:00Z</time>
      </trkpt>
      <trkpt lat="42.51443" lon="2.42416">
        <ele>2084</ele>
        <time>2024-09-18T12:08:03Z</time>
      </trkpt>
      <trkpt lat="42.51446" lon="2.42415">
        <ele>2084</ele>
        <time>2024-09-18T12:08:07Z</time>
      </trkpt>
      <trkpt lat="42.51449" lon="2.42414">
        <ele>2085</ele>
        <time>2024-09-18T12:08:10Z</time>
      </trkpt>
      <trkpt lat="42.51453" lon="2.42413">
        <ele>2085</ele>
        <time>2024-09-18T12:08:13Z</time>
      </trkpt>
      <trkpt lat="42.51456" lon="2.42412">
        <ele>2087</ele>
        <time>2024-09-18T12:08:16Z</time>
      </trkpt>
      <trkpt lat="42.51458" lon="2.42412">
        <ele>2086</ele>
        <time>2024-09-18T12:08:18Z</time>
      </trkpt>
      <trkpt lat="42.51462" lon="2.42411">
        <ele>2085</ele>
        <time>2024-09-18T12:08:21Z</time>
      </trkpt>
      <trkpt lat="42.51465" lon="2.42409">
        <ele>2084</ele>
        <time>2024-09-18T12:08:24Z</time>
      </trkpt>
      <trkpt lat="42.51469" lon="2.42408">
        <ele>2082</ele>
        <time>2024-09-18T12:08:27Z</time>
      </trkpt>
      <trkpt lat="42.51473" lon="2.42407">
        <ele>2082</ele>
        <time>2024-09-18T12:08:31Z</time>
      </trkpt>
      <trkpt lat="42.51477" lon="2.42406">
        <ele>2082</ele>
        <time>2024-09-18T12:08:35Z</time>
      </trkpt>
      <trkpt lat="42.51481" lon="2.42404">
        <ele>2081</ele>
        <time>2024-09-18T12:08:39Z</time>
      </trkpt>
      <trkpt lat="42.51485" lon="2.42403">
        <ele>2082</ele>
        <time>2024-09-18T12:08:42Z</time>
      </trkpt>
      <trkpt lat="42.51488" lon="2.42402">
        <ele>2082</ele>
        <time>2024-09-18T12:08:46Z</time>
      </trkpt>
      <trkpt lat="42.51491" lon="2.424">
        <ele>2083</ele>
        <time>2024-09-18T12:08:49Z</time>
      </trkpt>
      <trkpt lat="42.51494" lon="2.424">
        <ele>2083</ele>
        <time>2024-09-18T12:08:51Z</time>
      </trkpt>
      <trkpt lat="42.51497" lon="2.42399">
        <ele>2082</ele>
        <time>2024-09-18T12:08:54Z</time>
      </trkpt>
      <trkpt lat="42.51501" lon="2.42398">
        <ele>2082</ele>
        <time>2024-09-18T12:08:57Z</time>
      </trkpt>
      <trkpt lat="42.51505" lon="2.42398">
        <ele>2082</ele>
        <time>2024-09-18T12:09:00Z</time>
      </trkpt>
      <trkpt lat="42.51508" lon="2.42396">
        <ele>2082</ele>
        <time>2024-09-18T12:09:04Z</time>
      </trkpt>
      <trkpt lat="42.51511" lon="2.42395">
        <ele>2083</ele>
        <time>2024-09-18T12:09:07Z</time>
      </trkpt>
      <trkpt lat="42.51515" lon="2.42395">
        <ele>2083</ele>
        <time>2024-09-18T12:09:09Z</time>
      </trkpt>
      <trkpt lat="42.51518" lon="2.42395">
        <ele>2082</ele>
        <time>2024-09-18T12:09:11Z</time>
      </trkpt>
      <trkpt lat="42.51521" lon="2.42394">
        <ele>2082</ele>
        <time>2024-09-18T12:09:15Z</time>
      </trkpt>
      <trkpt lat="42.51525" lon="2.42393">
        <ele>2083</ele>
        <time>2024-09-18T12:09:17Z</time>
      </trkpt>
      <trkpt lat="42.51529" lon="2.42393">
        <ele>2083</ele>
        <time>2024-09-18T12:09:21Z</time>
      </trkpt>
      <trkpt lat="42.51532" lon="2.42392">
        <ele>2082</ele>
        <time>2024-09-18T12:09:23Z</time>
      </trkpt>
      <trkpt lat="42.51535" lon="2.42392">
        <ele>2082</ele>
        <time>2024-09-18T12:09:26Z</time>
      </trkpt>
      <trkpt lat="42.51539" lon="2.42392">
        <ele>2081</ele>
        <time>2024-09-18T12:09:31Z</time>
      </trkpt>
      <trkpt lat="42.51542" lon="2.42391">
        <ele>2082</ele>
        <time>2024-09-18T12:09:33Z</time>
      </trkpt>
      <trkpt lat="42.51545" lon="2.4239">
        <ele>2081</ele>
        <time>2024-09-18T12:09:36Z</time>
      </trkpt>
      <trkpt lat="42.51549" lon="2.42389">
        <ele>2082</ele>
        <time>2024-09-18T12:09:40Z</time>
      </trkpt>
      <trkpt lat="42.51553" lon="2.4239">
        <ele>2082</ele>
        <time>2024-09-18T12:09:43Z</time>
      </trkpt>
      <trkpt lat="42.51556" lon="2.42388">
        <ele>2083</ele>
        <time>2024-09-18T12:09:46Z</time>
      </trkpt>
      <trkpt lat="42.51559" lon="2.42388">
        <ele>2083</ele>
        <time>2024-09-18T12:09:49Z</time>
      </trkpt>
      <trkpt lat="42.51561" lon="2.42387">
        <ele>2082</ele>
        <time>2024-09-18T12:09:52Z</time>
      </trkpt>
      <trkpt lat="42.51565" lon="2.42387">
        <ele>2082</ele>
        <time>2024-09-18T12:09:56Z</time>
      </trkpt>
      <trkpt lat="42.51568" lon="2.42385">
        <ele>2083</ele>
        <time>2024-09-18T12:09:58Z</time>
      </trkpt>
      <trkpt lat="42.51571" lon="2.42383">
        <ele>2083</ele>
        <time>2024-09-18T12:10:01Z</time>
      </trkpt>
      <trkpt lat="42.51574" lon="2.42382">
        <ele>2083</ele>
        <time>2024-09-18T12:10:04Z</time>
      </trkpt>
      <trkpt lat="42.51578" lon="2.42383">
        <ele>2084</ele>
        <time>2024-09-18T12:10:08Z</time>
      </trkpt>
      <trkpt lat="42.5158" lon="2.42385">
        <ele>2083</ele>
        <time>2024-09-18T12:10:10Z</time>
      </trkpt>
      <trkpt lat="42.51581" lon="2.42388">
        <ele>2082</ele>
        <time>2024-09-18T12:10:13Z</time>
      </trkpt>
      <trkpt lat="42.51583" lon="2.42392">
        <ele>2082</ele>
        <time>2024-09-18T12:10:17Z</time>
      </trkpt>
      <trkpt lat="42.51584" lon="2.42397">
        <ele>2082</ele>
        <time>2024-09-18T12:10:20Z</time>
      </trkpt>
      <trkpt lat="42.51586" lon="2.42401">
        <ele>2082</ele>
        <time>2024-09-18T12:10:22Z</time>
      </trkpt>
      <trkpt lat="42.51587" lon="2.42404">
        <ele>2081</ele>
        <time>2024-09-18T12:10:24Z</time>
      </trkpt>
      <trkpt lat="42.51588" lon="2.42408">
        <ele>2081</ele>
        <time>2024-09-18T12:10:26Z</time>
      </trkpt>
      <trkpt lat="42.51589" lon="2.42411">
        <ele>2081</ele>
        <time>2024-09-18T12:10:30Z</time>
      </trkpt>
      <trkpt lat="42.51592" lon="2.42415">
        <ele>2080</ele>
        <time>2024-09-18T12:10:32Z</time>
      </trkpt>
      <trkpt lat="42.51595" lon="2.42417">
        <ele>2082</ele>
        <time>2024-09-18T12:10:35Z</time>
      </trkpt>
      <trkpt lat="42.51597" lon="2.42421">
        <ele>2081</ele>
        <time>2024-09-18T12:10:39Z</time>
      </trkpt>
      <trkpt lat="42.51598" lon="2.42425">
        <ele>2081</ele>
        <time>2024-09-18T12:10:41Z</time>
      </trkpt>
      <trkpt lat="42.51598" lon="2.4243">
        <ele>2080</ele>
        <time>2024-09-18T12:10:44Z</time>
      </trkpt>
      <trkpt lat="42.51599" lon="2.42435">
        <ele>2080</ele>
        <time>2024-09-18T12:10:47Z</time>
      </trkpt>
      <trkpt lat="42.51601" lon="2.42438">
        <ele>2080</ele>
        <time>2024-09-18T12:10:50Z</time>
      </trkpt>
      <trkpt lat="42.51603" lon="2.42442">
        <ele>2080</ele>
        <time>2024-09-18T12:10:53Z</time>
      </trkpt>
      <trkpt lat="42.51604" lon="2.42446">
        <ele>2080</ele>
        <time>2024-09-18T12:10:55Z</time>
      </trkpt>
      <trkpt lat="42.51605" lon="2.4245">
        <ele>2080</ele>
        <time>2024-09-18T12:10:58Z</time>
      </trkpt>
      <trkpt lat="42.51607" lon="2.42454">
        <ele>2080</ele>
        <time>2024-09-18T12:11:00Z</time>
      </trkpt>
      <trkpt lat="42.51608" lon="2.42458">
        <ele>2079</ele>
        <time>2024-09-18T12:11:04Z</time>
      </trkpt>
      <trkpt lat="42.51609" lon="2.42462">
        <ele>2080</ele>
        <time>2024-09-18T12:11:08Z</time>
      </trkpt>
      <trkpt lat="42.51611" lon="2.42466">
        <ele>2081</ele>
        <time>2024-09-18T12:11:11Z</time>
      </trkpt>
      <trkpt lat="42.51614" lon="2.42469">
        <ele>2080</ele>
        <time>2024-09-18T12:11:15Z</time>
      </trkpt>
      <trkpt lat="42.51615" lon="2.42473">
        <ele>2079</ele>
        <time>2024-09-18T12:11:18Z</time>
      </trkpt>
      <trkpt lat="42.51617" lon="2.42477">
        <ele>2079</ele>
        <time>2024-09-18T12:11:22Z</time>
      </trkpt>
      <trkpt lat="42.51618" lon="2.42482">
        <ele>2078</ele>
        <time>2024-09-18T12:11:25Z</time>
      </trkpt>
      <trkpt lat="42.51619" lon="2.42486">
        <ele>2078</ele>
        <time>2024-09-18T12:11:27Z</time>
      </trkpt>
      <trkpt lat="42.5162" lon="2.42489">
        <ele>2078</ele>
        <time>2024-09-18T12:11:29Z</time>
      </trkpt>
      <trkpt lat="42.51622" lon="2.42492">
        <ele>2078</ele>
        <time>2024-09-18T12:11:33Z</time>
      </trkpt>
      <trkpt lat="42.51623" lon="2.42496">
        <ele>2079</ele>
        <time>2024-09-18T12:11:37Z</time>
      </trkpt>
      <trkpt lat="42.51623" lon="2.425">
        <ele>2078</ele>
        <time>2024-09-18T12:11:40Z</time>
      </trkpt>
      <trkpt lat="42.51624" lon="2.42503">
        <ele>2078</ele>
        <time>2024-09-18T12:11:44Z</time>
      </trkpt>
      <trkpt lat="42.51625" lon="2.42507">
        <ele>2080</ele>
        <time>2024-09-18T12:11:48Z</time>
      </trkpt>
      <trkpt lat="42.51627" lon="2.42511">
        <ele>2080</ele>
        <time>2024-09-18T12:11:52Z</time>
      </trkpt>
      <trkpt lat="42.51628" lon="2.42516">
        <ele>2079</ele>
        <time>2024-09-18T12:11:56Z</time>
      </trkpt>
      <trkpt lat="42.51629" lon="2.4252">
        <ele>2079</ele>
        <time>2024-09-18T12:11:58Z</time>
      </trkpt>
      <trkpt lat="42.51629" lon="2.42524">
        <ele>2079</ele>
        <time>2024-09-18T12:12:01Z</time>
      </trkpt>
      <trkpt lat="42.51629" lon="2.42529">
        <ele>2079</ele>
        <time>2024-09-18T12:12:03Z</time>
      </trkpt>
      <trkpt lat="42.51629" lon="2.42533">
        <ele>2079</ele>
        <time>2024-09-18T12:12:06Z</time>
      </trkpt>
      <trkpt lat="42.5163" lon="2.42537">
        <ele>2080</ele>
        <time>2024-09-18T12:12:08Z</time>
      </trkpt>
      <trkpt lat="42.51631" lon="2.42541">
        <ele>2080</ele>
        <time>2024-09-18T12:12:11Z</time>
      </trkpt>
      <trkpt lat="42.51632" lon="2.42545">
        <ele>2079</ele>
        <time>2024-09-18T12:12:15Z</time>
      </trkpt>
      <trkpt lat="42.51633" lon="2.42549">
        <ele>2080</ele>
        <time>2024-09-18T12:12:17Z</time>
      </trkpt>
      <trkpt lat="42.51635" lon="2.42552">
        <ele>2083</ele>
        <time>2024-09-18T12:12:29Z</time>
      </trkpt>
      <trkpt lat="42.51635" lon="2.42556">
        <ele>2081</ele>
        <time>2024-09-18T12:12:32Z</time>
      </trkpt>
      <trkpt lat="42.51636" lon="2.4256">
        <ele>2079</ele>
        <time>2024-09-18T12:12:36Z</time>
      </trkpt>
      <trkpt lat="42.51637" lon="2.42566">
        <ele>2080</ele>
        <time>2024-09-18T12:12:39Z</time>
      </trkpt>
      <trkpt lat="42.51637" lon="2.42571">
        <ele>2080</ele>
        <time>2024-09-18T12:12:42Z</time>
      </trkpt>
      <trkpt lat="42.51637" lon="2.42575">
        <ele>2080</ele>
        <time>2024-09-18T12:12:44Z</time>
      </trkpt>
      <trkpt lat="42.51637" lon="2.42579">
        <ele>2081</ele>
        <time>2024-09-18T12:12:46Z</time>
      </trkpt>
      <trkpt lat="42.51637" lon="2.42583">
        <ele>2080</ele>
        <time>2024-09-18T12:12:48Z</time>
      </trkpt>
      <trkpt lat="42.51637" lon="2.42588">
        <ele>2080</ele>
        <time>2024-09-18T12:12:52Z</time>
      </trkpt>
      <trkpt lat="42.51637" lon="2.42591">
        <ele>2079</ele>
        <time>2024-09-18T12:12:57Z</time>
      </trkpt>
      <trkpt lat="42.51635" lon="2.42594">
        <ele>2079</ele>
        <time>2024-09-18T12:12:59Z</time>
      </trkpt>
      <trkpt lat="42.51635" lon="2.42598">
        <ele>2077</ele>
        <time>2024-09-18T12:13:03Z</time>
      </trkpt>
      <trkpt lat="42.51637" lon="2.42602">
        <ele>2076</ele>
        <time>2024-09-18T12:13:08Z</time>
      </trkpt>
      <trkpt lat="42.51639" lon="2.42604">
        <ele>2073</ele>
        <time>2024-09-18T12:13:14Z</time>
      </trkpt>
      <trkpt lat="42.51642" lon="2.42606">
        <ele>2074</ele>
        <time>2024-09-18T12:13:19Z</time>
      </trkpt>
      <trkpt lat="42.51645" lon="2.42608">
        <ele>2073</ele>
        <time>2024-09-18T12:13:26Z</time>
      </trkpt>
      <trkpt lat="42.51647" lon="2.42611">
        <ele>2073</ele>
        <time>2024-09-18T12:13:30Z</time>
      </trkpt>
      <trkpt lat="42.51648" lon="2.42615">
        <ele>2073</ele>
        <time>2024-09-18T12:13:34Z</time>
      </trkpt>
      <trkpt lat="42.5165" lon="2.42619">
        <ele>2074</ele>
        <time>2024-09-18T12:13:38Z</time>
      </trkpt>
      <trkpt lat="42.51652" lon="2.42622">
        <ele>2073</ele>
        <time>2024-09-18T12:13:41Z</time>
      </trkpt>
      <trkpt lat="42.51654" lon="2.42626">
        <ele>2074</ele>
        <time>2024-09-18T12:13:45Z</time>
      </trkpt>
      <trkpt lat="42.51657" lon="2.42629">
        <ele>2074</ele>
        <time>2024-09-18T12:13:50Z</time>
      </trkpt>
      <trkpt lat="42.51659" lon="2.42632">
        <ele>2073</ele>
        <time>2024-09-18T12:13:52Z</time>
      </trkpt>
      <trkpt lat="42.51661" lon="2.42635">
        <ele>2073</ele>
        <time>2024-09-18T12:13:54Z</time>
      </trkpt>
      <trkpt lat="42.51663" lon="2.42638">
        <ele>2074</ele>
        <time>2024-09-18T12:13:57Z</time>
      </trkpt>
      <trkpt lat="42.51665" lon="2.42641">
        <ele>2075</ele>
        <time>2024-09-18T12:14:00Z</time>
      </trkpt>
      <trkpt lat="42.51667" lon="2.42644">
        <ele>2075</ele>
        <time>2024-09-18T12:14:03Z</time>
      </trkpt>
      <trkpt lat="42.5167" lon="2.42646">
        <ele>2075</ele>
        <time>2024-09-18T12:14:07Z</time>
      </trkpt>
      <trkpt lat="42.51673" lon="2.42648">
        <ele>2076</ele>
        <time>2024-09-18T12:14:09Z</time>
      </trkpt>
      <trkpt lat="42.51675" lon="2.4265">
        <ele>2076</ele>
        <time>2024-09-18T12:14:12Z</time>
      </trkpt>
      <trkpt lat="42.51678" lon="2.42654">
        <ele>2076</ele>
        <time>2024-09-18T12:14:15Z</time>
      </trkpt>
      <trkpt lat="42.51679" lon="2.42658">
        <ele>2077</ele>
        <time>2024-09-18T12:14:19Z</time>
      </trkpt>
      <trkpt lat="42.5168" lon="2.42663">
        <ele>2077</ele>
        <time>2024-09-18T12:14:22Z</time>
      </trkpt>
      <trkpt lat="42.51682" lon="2.42666">
        <ele>2077</ele>
        <time>2024-09-18T12:14:24Z</time>
      </trkpt>
      <trkpt lat="42.51682" lon="2.42671">
        <ele>2077</ele>
        <time>2024-09-18T12:14:27Z</time>
      </trkpt>
      <trkpt lat="42.51684" lon="2.42675">
        <ele>2078</ele>
        <time>2024-09-18T12:14:30Z</time>
      </trkpt>
      <trkpt lat="42.51686" lon="2.42678">
        <ele>2077</ele>
        <time>2024-09-18T12:14:34Z</time>
      </trkpt>
      <trkpt lat="42.51688" lon="2.42682">
        <ele>2077</ele>
        <time>2024-09-18T12:14:39Z</time>
      </trkpt>
      <trkpt lat="42.51691" lon="2.42685">
        <ele>2076</ele>
        <time>2024-09-18T12:14:41Z</time>
      </trkpt>
      <trkpt lat="42.51693" lon="2.42688">
        <ele>2077</ele>
        <time>2024-09-18T12:14:44Z</time>
      </trkpt>
      <trkpt lat="42.51695" lon="2.42692">
        <ele>2076</ele>
        <time>2024-09-18T12:14:47Z</time>
      </trkpt>
      <trkpt lat="42.51696" lon="2.42696">
        <ele>2077</ele>
        <time>2024-09-18T12:14:50Z</time>
      </trkpt>
      <trkpt lat="42.51697" lon="2.42701">
        <ele>2076</ele>
        <time>2024-09-18T12:14:54Z</time>
      </trkpt>
      <trkpt lat="42.51698" lon="2.42705">
        <ele>2076</ele>
        <time>2024-09-18T12:14:59Z</time>
      </trkpt>
      <trkpt lat="42.51699" lon="2.4271">
        <ele>2076</ele>
        <time>2024-09-18T12:15:03Z</time>
      </trkpt>
      <trkpt lat="42.51699" lon="2.42715">
        <ele>2076</ele>
        <time>2024-09-18T12:15:06Z</time>
      </trkpt>
      <trkpt lat="42.51699" lon="2.42719">
        <ele>2077</ele>
        <time>2024-09-18T12:15:09Z</time>
      </trkpt>
      <trkpt lat="42.51701" lon="2.42722">
        <ele>2079</ele>
        <time>2024-09-18T12:15:11Z</time>
      </trkpt>
      <trkpt lat="42.51701" lon="2.42726">
        <ele>2078</ele>
        <time>2024-09-18T12:15:15Z</time>
      </trkpt>
      <trkpt lat="42.51701" lon="2.42731">
        <ele>2077</ele>
        <time>2024-09-18T12:15:18Z</time>
      </trkpt>
      <trkpt lat="42.51702" lon="2.42735">
        <ele>2076</ele>
        <time>2024-09-18T12:15:20Z</time>
      </trkpt>
      <trkpt lat="42.51703" lon="2.42739">
        <ele>2076</ele>
        <time>2024-09-18T12:15:23Z</time>
      </trkpt>
      <trkpt lat="42.51704" lon="2.42743">
        <ele>2077</ele>
        <time>2024-09-18T12:15:27Z</time>
      </trkpt>
      <trkpt lat="42.51705" lon="2.42748">
        <ele>2078</ele>
        <time>2024-09-18T12:15:31Z</time>
      </trkpt>
      <trkpt lat="42.51705" lon="2.42753">
        <ele>2077</ele>
        <time>2024-09-18T12:15:34Z</time>
      </trkpt>
      <trkpt lat="42.51705" lon="2.42758">
        <ele>2077</ele>
        <time>2024-09-18T12:15:37Z</time>
      </trkpt>
      <trkpt lat="42.51707" lon="2.42761">
        <ele>2078</ele>
        <time>2024-09-18T12:15:40Z</time>
      </trkpt>
      <trkpt lat="42.51708" lon="2.42765">
        <ele>2079</ele>
        <time>2024-09-18T12:15:44Z</time>
      </trkpt>
      <trkpt lat="42.51709" lon="2.42769">
        <ele>2079</ele>
        <time>2024-09-18T12:15:47Z</time>
      </trkpt>
      <trkpt lat="42.5171" lon="2.42773">
        <ele>2080</ele>
        <time>2024-09-18T12:15:51Z</time>
      </trkpt>
      <trkpt lat="42.51712" lon="2.42777">
        <ele>2080</ele>
        <time>2024-09-18T12:15:52Z</time>
      </trkpt>
      <trkpt lat="42.51714" lon="2.4278">
        <ele>2079</ele>
        <time>2024-09-18T12:16:07Z</time>
      </trkpt>
      <trkpt lat="42.51714" lon="2.42785">
        <ele>2078</ele>
        <time>2024-09-18T12:16:11Z</time>
      </trkpt>
      <trkpt lat="42.51715" lon="2.42788">
        <ele>2080</ele>
        <time>2024-09-18T12:16:16Z</time>
      </trkpt>
      <trkpt lat="42.51714" lon="2.42793">
        <ele>2081</ele>
        <time>2024-09-18T12:16:21Z</time>
      </trkpt>
      <trkpt lat="42.51715" lon="2.42797">
        <ele>2081</ele>
        <time>2024-09-18T12:16:28Z</time>
      </trkpt>
      <trkpt lat="42.51715" lon="2.428">
        <ele>2081</ele>
        <time>2024-09-18T12:16:38Z</time>
      </trkpt>
      <trkpt lat="42.51717" lon="2.42802">
        <ele>2079</ele>
        <time>2024-09-18T12:16:46Z</time>
      </trkpt>
      <trkpt lat="42.5172" lon="2.42802">
        <ele>2079</ele>
        <time>2024-09-18T12:16:54Z</time>
      </trkpt>
      <trkpt lat="42.51722" lon="2.42799">
        <ele>2078</ele>
        <time>2024-09-18T12:16:57Z</time>
      </trkpt>
      <trkpt lat="42.51724" lon="2.42797">
        <ele>2076</ele>
        <time>2024-09-18T12:17:02Z</time>
      </trkpt>
      <trkpt lat="42.51727" lon="2.42795">
        <ele>2077</ele>
        <time>2024-09-18T12:17:07Z</time>
      </trkpt>
      <trkpt lat="42.51729" lon="2.42792">
        <ele>2079</ele>
        <time>2024-09-18T12:17:40Z</time>
      </trkpt>
      <trkpt lat="42.51729" lon="2.42792">
        <ele>2082</ele>
        <time>2024-09-18T12:18:00Z</time>
      </trkpt>
      <trkpt lat="42.5173" lon="2.42791">
        <ele>2079</ele>
        <time>2024-09-18T12:18:37Z</time>
      </trkpt>
      <trkpt lat="42.51733" lon="2.42792">
        <ele>2078</ele>
        <time>2024-09-18T12:18:41Z</time>
      </trkpt>
      <trkpt lat="42.51736" lon="2.42792">
        <ele>2077</ele>
        <time>2024-09-18T12:18:44Z</time>
      </trkpt>
      <trkpt lat="42.51739" lon="2.42792">
        <ele>2077</ele>
        <time>2024-09-18T12:18:46Z</time>
      </trkpt>
      <trkpt lat="42.51741" lon="2.42792">
        <ele>2077</ele>
        <time>2024-09-18T12:18:49Z</time>
      </trkpt>
      <trkpt lat="42.51745" lon="2.42792">
        <ele>2076</ele>
        <time>2024-09-18T12:18:54Z</time>
      </trkpt>
      <trkpt lat="42.51748" lon="2.42793">
        <ele>2075</ele>
        <time>2024-09-18T12:18:58Z</time>
      </trkpt>
      <trkpt lat="42.51751" lon="2.42793">
        <ele>2075</ele>
        <time>2024-09-18T12:19:03Z</time>
      </trkpt>
      <trkpt lat="42.51754" lon="2.42793">
        <ele>2076</ele>
        <time>2024-09-18T12:19:09Z</time>
      </trkpt>
      <trkpt lat="42.51757" lon="2.42793">
        <ele>2075</ele>
        <time>2024-09-18T12:19:12Z</time>
      </trkpt>
      <trkpt lat="42.51759" lon="2.42795">
        <ele>2073</ele>
        <time>2024-09-18T12:19:16Z</time>
      </trkpt>
      <trkpt lat="42.51763" lon="2.42795">
        <ele>2073</ele>
        <time>2024-09-18T12:19:22Z</time>
      </trkpt>
      <trkpt lat="42.51766" lon="2.42795">
        <ele>2072</ele>
        <time>2024-09-18T12:19:25Z</time>
      </trkpt>
      <trkpt lat="42.5177" lon="2.42794">
        <ele>2072</ele>
        <time>2024-09-18T12:19:28Z</time>
      </trkpt>
      <trkpt lat="42.51773" lon="2.42794">
        <ele>2072</ele>
        <time>2024-09-18T12:19:32Z</time>
      </trkpt>
      <trkpt lat="42.51776" lon="2.42792">
        <ele>2071</ele>
        <time>2024-09-18T12:19:35Z</time>
      </trkpt>
      <trkpt lat="42.51779" lon="2.42789">
        <ele>2072</ele>
        <time>2024-09-18T12:19:39Z</time>
      </trkpt>
      <trkpt lat="42.51783" lon="2.42788">
        <ele>2073</ele>
        <time>2024-09-18T12:19:43Z</time>
      </trkpt>
      <trkpt lat="42.51786" lon="2.42788">
        <ele>2071</ele>
        <time>2024-09-18T12:19:46Z</time>
      </trkpt>
      <trkpt lat="42.51789" lon="2.42789">
        <ele>2070</ele>
        <time>2024-09-18T12:19:50Z</time>
      </trkpt>
      <trkpt lat="42.51793" lon="2.42789">
        <ele>2071</ele>
        <time>2024-09-18T12:19:53Z</time>
      </trkpt>
      <trkpt lat="42.51796" lon="2.4279">
        <ele>2070</ele>
        <time>2024-09-18T12:19:57Z</time>
      </trkpt>
      <trkpt lat="42.51799" lon="2.42789">
        <ele>2069</ele>
        <time>2024-09-18T12:20:00Z</time>
      </trkpt>
      <trkpt lat="42.51802" lon="2.42788">
        <ele>2069</ele>
        <time>2024-09-18T12:20:05Z</time>
      </trkpt>
      <trkpt lat="42.51805" lon="2.42789">
        <ele>2069</ele>
        <time>2024-09-18T12:20:08Z</time>
      </trkpt>
      <trkpt lat="42.51808" lon="2.42788">
        <ele>2070</ele>
        <time>2024-09-18T12:20:10Z</time>
      </trkpt>
      <trkpt lat="42.51811" lon="2.42788">
        <ele>2069</ele>
        <time>2024-09-18T12:20:12Z</time>
      </trkpt>
      <trkpt lat="42.51815" lon="2.42787">
        <ele>2068</ele>
        <time>2024-09-18T12:20:16Z</time>
      </trkpt>
      <trkpt lat="42.51818" lon="2.42787">
        <ele>2069</ele>
        <time>2024-09-18T12:20:19Z</time>
      </trkpt>
      <trkpt lat="42.51822" lon="2.42788">
        <ele>2069</ele>
        <time>2024-09-18T12:20:22Z</time>
      </trkpt>
      <trkpt lat="42.51826" lon="2.42787">
        <ele>2066</ele>
        <time>2024-09-18T12:20:26Z</time>
      </trkpt>
      <trkpt lat="42.51829" lon="2.42787">
        <ele>2065</ele>
        <time>2024-09-18T12:20:30Z</time>
      </trkpt>
      <trkpt lat="42.51833" lon="2.42787">
        <ele>2063</ele>
        <time>2024-09-18T12:20:35Z</time>
      </trkpt>
      <trkpt lat="42.51836" lon="2.42786">
        <ele>2063</ele>
        <time>2024-09-18T12:20:38Z</time>
      </trkpt>
      <trkpt lat="42.5184" lon="2.42786">
        <ele>2062</ele>
        <time>2024-09-18T12:20:42Z</time>
      </trkpt>
      <trkpt lat="42.51843" lon="2.42786">
        <ele>2063</ele>
        <time>2024-09-18T12:20:46Z</time>
      </trkpt>
      <trkpt lat="42.51847" lon="2.42786">
        <ele>2063</ele>
        <time>2024-09-18T12:20:48Z</time>
      </trkpt>
      <trkpt lat="42.5185" lon="2.42787">
        <ele>2062</ele>
        <time>2024-09-18T12:20:51Z</time>
      </trkpt>
      <trkpt lat="42.51853" lon="2.42788">
        <ele>2062</ele>
        <time>2024-09-18T12:20:53Z</time>
      </trkpt>
      <trkpt lat="42.51856" lon="2.42789">
        <ele>2061</ele>
        <time>2024-09-18T12:20:56Z</time>
      </trkpt>
      <trkpt lat="42.5186" lon="2.42789">
        <ele>2063</ele>
        <time>2024-09-18T12:20:58Z</time>
      </trkpt>
      <trkpt lat="42.51863" lon="2.42788">
        <ele>2061</ele>
        <time>2024-09-18T12:21:01Z</time>
      </trkpt>
      <trkpt lat="42.51866" lon="2.42785">
        <ele>2060</ele>
        <time>2024-09-18T12:21:04Z</time>
      </trkpt>
      <trkpt lat="42.51869" lon="2.42782">
        <ele>2061</ele>
        <time>2024-09-18T12:21:07Z</time>
      </trkpt>
      <trkpt lat="42.51872" lon="2.4278">
        <ele>2059</ele>
        <time>2024-09-18T12:21:11Z</time>
      </trkpt>
      <trkpt lat="42.51875" lon="2.42778">
        <ele>2058</ele>
        <time>2024-09-18T12:21:14Z</time>
      </trkpt>
      <trkpt lat="42.51876" lon="2.42776">
        <ele>2058</ele>
        <time>2024-09-18T12:21:16Z</time>
      </trkpt>
      <trkpt lat="42.51877" lon="2.42772">
        <ele>2057</ele>
        <time>2024-09-18T12:21:18Z</time>
      </trkpt>
      <trkpt lat="42.51879" lon="2.4277">
        <ele>2056</ele>
        <time>2024-09-18T12:21:21Z</time>
      </trkpt>
      <trkpt lat="42.51882" lon="2.42767">
        <ele>2057</ele>
        <time>2024-09-18T12:21:24Z</time>
      </trkpt>
      <trkpt lat="42.51885" lon="2.42765">
        <ele>2055</ele>
        <time>2024-09-18T12:21:29Z</time>
      </trkpt>
      <trkpt lat="42.51888" lon="2.42763">
        <ele>2056</ele>
        <time>2024-09-18T12:21:31Z</time>
      </trkpt>
      <trkpt lat="42.51891" lon="2.42761">
        <ele>2055</ele>
        <time>2024-09-18T12:21:34Z</time>
      </trkpt>
      <trkpt lat="42.51894" lon="2.4276">
        <ele>2056</ele>
        <time>2024-09-18T12:21:37Z</time>
      </trkpt>
      <trkpt lat="42.51897" lon="2.4276">
        <ele>2055</ele>
        <time>2024-09-18T12:21:39Z</time>
      </trkpt>
      <trkpt lat="42.519" lon="2.42759">
        <ele>2055</ele>
        <time>2024-09-18T12:21:41Z</time>
      </trkpt>
      <trkpt lat="42.51902" lon="2.42757">
        <ele>2055</ele>
        <time>2024-09-18T12:21:43Z</time>
      </trkpt>
      <trkpt lat="42.51906" lon="2.42756">
        <ele>2054</ele>
        <time>2024-09-18T12:21:46Z</time>
      </trkpt>
      <trkpt lat="42.51909" lon="2.42755">
        <ele>2053</ele>
        <time>2024-09-18T12:21:50Z</time>
      </trkpt>
      <trkpt lat="42.51912" lon="2.42755">
        <ele>2053</ele>
        <time>2024-09-18T12:21:52Z</time>
      </trkpt>
      <trkpt lat="42.51915" lon="2.42754">
        <ele>2052</ele>
        <time>2024-09-18T12:21:57Z</time>
      </trkpt>
      <trkpt lat="42.51919" lon="2.42754">
        <ele>2051</ele>
        <time>2024-09-18T12:21:59Z</time>
      </trkpt>
      <trkpt lat="42.51923" lon="2.42753">
        <ele>2051</ele>
        <time>2024-09-18T12:22:02Z</time>
      </trkpt>
      <trkpt lat="42.51927" lon="2.42752">
        <ele>2053</ele>
        <time>2024-09-18T12:22:04Z</time>
      </trkpt>
      <trkpt lat="42.51931" lon="2.4275">
        <ele>2053</ele>
        <time>2024-09-18T12:22:06Z</time>
      </trkpt>
      <trkpt lat="42.51934" lon="2.42748">
        <ele>2053</ele>
        <time>2024-09-18T12:22:09Z</time>
      </trkpt>
      <trkpt lat="42.51937" lon="2.42747">
        <ele>2052</ele>
        <time>2024-09-18T12:22:12Z</time>
      </trkpt>
      <trkpt lat="42.5194" lon="2.42746">
        <ele>2052</ele>
        <time>2024-09-18T12:22:17Z</time>
      </trkpt>
      <trkpt lat="42.51943" lon="2.42745">
        <ele>2051</ele>
        <time>2024-09-18T12:22:20Z</time>
      </trkpt>
      <trkpt lat="42.51946" lon="2.42745">
        <ele>2050</ele>
        <time>2024-09-18T12:22:23Z</time>
      </trkpt>
      <trkpt lat="42.51949" lon="2.42743">
        <ele>2049</ele>
        <time>2024-09-18T12:22:26Z</time>
      </trkpt>
      <trkpt lat="42.51952" lon="2.42742">
        <ele>2047</ele>
        <time>2024-09-18T12:22:30Z</time>
      </trkpt>
      <trkpt lat="42.51955" lon="2.42741">
        <ele>2048</ele>
        <time>2024-09-18T12:22:32Z</time>
      </trkpt>
      <trkpt lat="42.51958" lon="2.42741">
        <ele>2047</ele>
        <time>2024-09-18T12:22:35Z</time>
      </trkpt>
      <trkpt lat="42.5196" lon="2.4274">
        <ele>2047</ele>
        <time>2024-09-18T12:22:38Z</time>
      </trkpt>
      <trkpt lat="42.51964" lon="2.4274">
        <ele>2047</ele>
        <time>2024-09-18T12:22:40Z</time>
      </trkpt>
      <trkpt lat="42.51967" lon="2.4274">
        <ele>2046</ele>
        <time>2024-09-18T12:22:43Z</time>
      </trkpt>
      <trkpt lat="42.5197" lon="2.42739">
        <ele>2045</ele>
        <time>2024-09-18T12:22:46Z</time>
      </trkpt>
      <trkpt lat="42.51973" lon="2.42738">
        <ele>2044</ele>
        <time>2024-09-18T12:22:50Z</time>
      </trkpt>
      <trkpt lat="42.51977" lon="2.42737">
        <ele>2044</ele>
        <time>2024-09-18T12:22:55Z</time>
      </trkpt>
      <trkpt lat="42.51981" lon="2.42736">
        <ele>2045</ele>
        <time>2024-09-18T12:22:57Z</time>
      </trkpt>
      <trkpt lat="42.51984" lon="2.42736">
        <ele>2045</ele>
        <time>2024-09-18T12:22:59Z</time>
      </trkpt>
      <trkpt lat="42.51988" lon="2.42735">
        <ele>2045</ele>
        <time>2024-09-18T12:23:02Z</time>
      </trkpt>
      <trkpt lat="42.51991" lon="2.42735">
        <ele>2043</ele>
        <time>2024-09-18T12:23:10Z</time>
      </trkpt>
      <trkpt lat="42.51994" lon="2.42735">
        <ele>2043</ele>
        <time>2024-09-18T12:23:12Z</time>
      </trkpt>
      <trkpt lat="42.51997" lon="2.42735">
        <ele>2042</ele>
        <time>2024-09-18T12:23:16Z</time>
      </trkpt>
      <trkpt lat="42.52" lon="2.42735">
        <ele>2042</ele>
        <time>2024-09-18T12:23:18Z</time>
      </trkpt>
      <trkpt lat="42.52003" lon="2.42733">
        <ele>2042</ele>
        <time>2024-09-18T12:23:21Z</time>
      </trkpt>
      <trkpt lat="42.52006" lon="2.42732">
        <ele>2042</ele>
        <time>2024-09-18T12:23:23Z</time>
      </trkpt>
      <trkpt lat="42.52009" lon="2.42731">
        <ele>2042</ele>
        <time>2024-09-18T12:23:26Z</time>
      </trkpt>
      <trkpt lat="42.52012" lon="2.42729">
        <ele>2043</ele>
        <time>2024-09-18T12:23:28Z</time>
      </trkpt>
      <trkpt lat="42.52014" lon="2.42729">
        <ele>2043</ele>
        <time>2024-09-18T12:23:30Z</time>
      </trkpt>
      <trkpt lat="42.52017" lon="2.4273">
        <ele>2042</ele>
        <time>2024-09-18T12:23:33Z</time>
      </trkpt>
      <trkpt lat="42.5202" lon="2.4273">
        <ele>2042</ele>
        <time>2024-09-18T12:23:35Z</time>
      </trkpt>
      <trkpt lat="42.52023" lon="2.42729">
        <ele>2042</ele>
        <time>2024-09-18T12:23:38Z</time>
      </trkpt>
      <trkpt lat="42.52026" lon="2.42729">
        <ele>2042</ele>
        <time>2024-09-18T12:23:41Z</time>
      </trkpt>
      <trkpt lat="42.5203" lon="2.42728">
        <ele>2042</ele>
        <time>2024-09-18T12:23:44Z</time>
      </trkpt>
      <trkpt lat="42.52033" lon="2.42727">
        <ele>2042</ele>
        <time>2024-09-18T12:23:47Z</time>
      </trkpt>
      <trkpt lat="42.52036" lon="2.42726">
        <ele>2042</ele>
        <time>2024-09-18T12:23:50Z</time>
      </trkpt>
      <trkpt lat="42.52039" lon="2.42726">
        <ele>2042</ele>
        <time>2024-09-18T12:23:54Z</time>
      </trkpt>
      <trkpt lat="42.52041" lon="2.42727">
        <ele>2042</ele>
        <time>2024-09-18T12:23:58Z</time>
      </trkpt>
      <trkpt lat="42.52045" lon="2.42726">
        <ele>2040</ele>
        <time>2024-09-18T12:24:04Z</time>
      </trkpt>
      <trkpt lat="42.52048" lon="2.42726">
        <ele>2040</ele>
        <time>2024-09-18T12:24:07Z</time>
      </trkpt>
      <trkpt lat="42.52052" lon="2.42726">
        <ele>2040</ele>
        <time>2024-09-18T12:24:10Z</time>
      </trkpt>
      <trkpt lat="42.52055" lon="2.42725">
        <ele>2040</ele>
        <time>2024-09-18T12:24:13Z</time>
      </trkpt>
      <trkpt lat="42.52058" lon="2.42726">
        <ele>2039</ele>
        <time>2024-09-18T12:24:16Z</time>
      </trkpt>
      <trkpt lat="42.52061" lon="2.42726">
        <ele>2039</ele>
        <time>2024-09-18T12:24:20Z</time>
      </trkpt>
      <trkpt lat="42.52065" lon="2.42726">
        <ele>2039</ele>
        <time>2024-09-18T12:24:24Z</time>
      </trkpt>
      <trkpt lat="42.52068" lon="2.42725">
        <ele>2040</ele>
        <time>2024-09-18T12:24:27Z</time>
      </trkpt>
      <trkpt lat="42.52071" lon="2.42726">
        <ele>2039</ele>
        <time>2024-09-18T12:24:30Z</time>
      </trkpt>
      <trkpt lat="42.52074" lon="2.42726">
        <ele>2038</ele>
        <time>2024-09-18T12:24:33Z</time>
      </trkpt>
      <trkpt lat="42.52077" lon="2.42726">
        <ele>2038</ele>
        <time>2024-09-18T12:24:35Z</time>
      </trkpt>
      <trkpt lat="42.5208" lon="2.42726">
        <ele>2038</ele>
        <time>2024-09-18T12:24:39Z</time>
      </trkpt>
      <trkpt lat="42.52083" lon="2.42726">
        <ele>2039</ele>
        <time>2024-09-18T12:24:42Z</time>
      </trkpt>
      <trkpt lat="42.52087" lon="2.42727">
        <ele>2039</ele>
        <time>2024-09-18T12:24:50Z</time>
      </trkpt>
      <trkpt lat="42.5209" lon="2.42726">
        <ele>2039</ele>
        <time>2024-09-18T12:24:52Z</time>
      </trkpt>
      <trkpt lat="42.52094" lon="2.42726">
        <ele>2038</ele>
        <time>2024-09-18T12:24:55Z</time>
      </trkpt>
      <trkpt lat="42.52097" lon="2.42727">
        <ele>2039</ele>
        <time>2024-09-18T12:24:58Z</time>
      </trkpt>
      <trkpt lat="42.521" lon="2.42728">
        <ele>2037</ele>
        <time>2024-09-18T12:25:02Z</time>
      </trkpt>
      <trkpt lat="42.52103" lon="2.42729">
        <ele>2036</ele>
        <time>2024-09-18T12:25:06Z</time>
      </trkpt>
      <trkpt lat="42.52108" lon="2.4273">
        <ele>2036</ele>
        <time>2024-09-18T12:25:09Z</time>
      </trkpt>
      <trkpt lat="42.52111" lon="2.42731">
        <ele>2036</ele>
        <time>2024-09-18T12:25:16Z</time>
      </trkpt>
      <trkpt lat="42.52115" lon="2.42732">
        <ele>2035</ele>
        <time>2024-09-18T12:25:19Z</time>
      </trkpt>
      <trkpt lat="42.5212" lon="2.42733">
        <ele>2034</ele>
        <time>2024-09-18T12:25:21Z</time>
      </trkpt>
      <trkpt lat="42.52124" lon="2.42734">
        <ele>2034</ele>
        <time>2024-09-18T12:25:24Z</time>
      </trkpt>
      <trkpt lat="42.52127" lon="2.42734">
        <ele>2034</ele>
        <time>2024-09-18T12:25:28Z</time>
      </trkpt>
      <trkpt lat="42.5213" lon="2.42734">
        <ele>2035</ele>
        <time>2024-09-18T12:25:32Z</time>
      </trkpt>
      <trkpt lat="42.52134" lon="2.42733">
        <ele>2035</ele>
        <time>2024-09-18T12:25:34Z</time>
      </trkpt>
      <trkpt lat="42.52137" lon="2.42734">
        <ele>2036</ele>
        <time>2024-09-18T12:25:37Z</time>
      </trkpt>
      <trkpt lat="42.52141" lon="2.42733">
        <ele>2035</ele>
        <time>2024-09-18T12:25:42Z</time>
      </trkpt>
      <trkpt lat="42.52145" lon="2.42733">
        <ele>2034</ele>
        <time>2024-09-18T12:25:44Z</time>
      </trkpt>
      <trkpt lat="42.52148" lon="2.42731">
        <ele>2035</ele>
        <time>2024-09-18T12:25:47Z</time>
      </trkpt>
      <trkpt lat="42.52151" lon="2.42729">
        <ele>2035</ele>
        <time>2024-09-18T12:25:50Z</time>
      </trkpt>
      <trkpt lat="42.52153" lon="2.42726">
        <ele>2035</ele>
        <time>2024-09-18T12:25:52Z</time>
      </trkpt>
      <trkpt lat="42.52155" lon="2.42723">
        <ele>2034</ele>
        <time>2024-09-18T12:25:54Z</time>
      </trkpt>
      <trkpt lat="42.52157" lon="2.4272">
        <ele>2034</ele>
        <time>2024-09-18T12:25:57Z</time>
      </trkpt>
      <trkpt lat="42.52159" lon="2.42718">
        <ele>2034</ele>
        <time>2024-09-18T12:26:00Z</time>
      </trkpt>
      <trkpt lat="42.52161" lon="2.42714">
        <ele>2033</ele>
        <time>2024-09-18T12:26:04Z</time>
      </trkpt>
      <trkpt lat="42.52163" lon="2.42712">
        <ele>2033</ele>
        <time>2024-09-18T12:26:06Z</time>
      </trkpt>
      <trkpt lat="42.52166" lon="2.42712">
        <ele>2031</ele>
        <time>2024-09-18T12:26:13Z</time>
      </trkpt>
      <trkpt lat="42.5217" lon="2.42713">
        <ele>2032</ele>
        <time>2024-09-18T12:26:15Z</time>
      </trkpt>
      <trkpt lat="42.52173" lon="2.42712">
        <ele>2031</ele>
        <time>2024-09-18T12:26:18Z</time>
      </trkpt>
      <trkpt lat="42.52177" lon="2.42712">
        <ele>2032</ele>
        <time>2024-09-18T12:26:21Z</time>
      </trkpt>
      <trkpt lat="42.52178" lon="2.42715">
        <ele>2030</ele>
        <time>2024-09-18T12:26:26Z</time>
      </trkpt>
      <trkpt lat="42.52177" lon="2.42718">
        <ele>2030</ele>
        <time>2024-09-18T12:26:29Z</time>
      </trkpt>
      <trkpt lat="42.52177" lon="2.42722">
        <ele>2030</ele>
        <time>2024-09-18T12:26:33Z</time>
      </trkpt>
      <trkpt lat="42.52176" lon="2.42726">
        <ele>2028</ele>
        <time>2024-09-18T12:26:36Z</time>
      </trkpt>
      <trkpt lat="42.52176" lon="2.4273">
        <ele>2028</ele>
        <time>2024-09-18T12:26:39Z</time>
      </trkpt>
      <trkpt lat="42.52175" lon="2.42734">
        <ele>2028</ele>
        <time>2024-09-18T12:26:42Z</time>
      </trkpt>
      <trkpt lat="42.52174" lon="2.42738">
        <ele>2028</ele>
        <time>2024-09-18T12:26:44Z</time>
      </trkpt>
      <trkpt lat="42.52173" lon="2.42742">
        <ele>2027</ele>
        <time>2024-09-18T12:26:47Z</time>
      </trkpt>
      <trkpt lat="42.52172" lon="2.42746">
        <ele>2026</ele>
        <time>2024-09-18T12:26:50Z</time>
      </trkpt>
      <trkpt lat="42.52172" lon="2.4275">
        <ele>2027</ele>
        <time>2024-09-18T12:26:52Z</time>
      </trkpt>
      <trkpt lat="42.52172" lon="2.42754">
        <ele>2026</ele>
        <time>2024-09-18T12:26:55Z</time>
      </trkpt>
      <trkpt lat="42.52171" lon="2.42758">
        <ele>2026</ele>
        <time>2024-09-18T12:26:57Z</time>
      </trkpt>
      <trkpt lat="42.52171" lon="2.42762">
        <ele>2025</ele>
        <time>2024-09-18T12:26:59Z</time>
      </trkpt>
      <trkpt lat="42.52171" lon="2.42767">
        <ele>2026</ele>
        <time>2024-09-18T12:27:02Z</time>
      </trkpt>
      <trkpt lat="42.52171" lon="2.42771">
        <ele>2025</ele>
        <time>2024-09-18T12:27:05Z</time>
      </trkpt>
      <trkpt lat="42.52171" lon="2.42776">
        <ele>2023</ele>
        <time>2024-09-18T12:27:10Z</time>
      </trkpt>
      <trkpt lat="42.5217" lon="2.4278">
        <ele>2022</ele>
        <time>2024-09-18T12:27:12Z</time>
      </trkpt>
      <trkpt lat="42.52171" lon="2.42785">
        <ele>2023</ele>
        <time>2024-09-18T12:27:14Z</time>
      </trkpt>
      <trkpt lat="42.52171" lon="2.42789">
        <ele>2022</ele>
        <time>2024-09-18T12:27:17Z</time>
      </trkpt>
      <trkpt lat="42.5217" lon="2.42793">
        <ele>2023</ele>
        <time>2024-09-18T12:27:19Z</time>
      </trkpt>
      <trkpt lat="42.5217" lon="2.42797">
        <ele>2022</ele>
        <time>2024-09-18T12:27:21Z</time>
      </trkpt>
      <trkpt lat="42.52169" lon="2.42801">
        <ele>2021</ele>
        <time>2024-09-18T12:27:25Z</time>
      </trkpt>
      <trkpt lat="42.52168" lon="2.42806">
        <ele>2021</ele>
        <time>2024-09-18T12:27:28Z</time>
      </trkpt>
      <trkpt lat="42.52169" lon="2.42811">
        <ele>2022</ele>
        <time>2024-09-18T12:27:31Z</time>
      </trkpt>
      <trkpt lat="42.52169" lon="2.42815">
        <ele>2022</ele>
        <time>2024-09-18T12:27:34Z</time>
      </trkpt>
      <trkpt lat="42.52169" lon="2.4282">
        <ele>2022</ele>
        <time>2024-09-18T12:27:37Z</time>
      </trkpt>
      <trkpt lat="42.5217" lon="2.42823">
        <ele>2022</ele>
        <time>2024-09-18T12:27:40Z</time>
      </trkpt>
      <trkpt lat="42.5217" lon="2.42828">
        <ele>2020</ele>
        <time>2024-09-18T12:27:44Z</time>
      </trkpt>
      <trkpt lat="42.5217" lon="2.42833">
        <ele>2016</ele>
        <time>2024-09-18T12:27:47Z</time>
      </trkpt>
      <trkpt lat="42.5217" lon="2.42837">
        <ele>2017</ele>
        <time>2024-09-18T12:27:50Z</time>
      </trkpt>
      <trkpt lat="42.5217" lon="2.42842">
        <ele>2018</ele>
        <time>2024-09-18T12:27:53Z</time>
      </trkpt>
      <trkpt lat="42.52169" lon="2.42846">
        <ele>2017</ele>
        <time>2024-09-18T12:27:56Z</time>
      </trkpt>
      <trkpt lat="42.52169" lon="2.42851">
        <ele>2016</ele>
        <time>2024-09-18T12:28:00Z</time>
      </trkpt>
      <trkpt lat="42.52169" lon="2.42855">
        <ele>2014</ele>
        <time>2024-09-18T12:28:04Z</time>
      </trkpt>
      <trkpt lat="42.52169" lon="2.42859">
        <ele>2016</ele>
        <time>2024-09-18T12:28:06Z</time>
      </trkpt>
      <trkpt lat="42.52169" lon="2.42864">
        <ele>2015</ele>
        <time>2024-09-18T12:28:10Z</time>
      </trkpt>
      <trkpt lat="42.5217" lon="2.42867">
        <ele>2015</ele>
        <time>2024-09-18T12:28:14Z</time>
      </trkpt>
      <trkpt lat="42.52171" lon="2.42871">
        <ele>2014</ele>
        <time>2024-09-18T12:28:18Z</time>
      </trkpt>
      <trkpt lat="42.52171" lon="2.42875">
        <ele>2013</ele>
        <time>2024-09-18T12:28:22Z</time>
      </trkpt>
      <trkpt lat="42.52171" lon="2.42879">
        <ele>2013</ele>
        <time>2024-09-18T12:28:25Z</time>
      </trkpt>
      <trkpt lat="42.52172" lon="2.42882">
        <ele>2013</ele>
        <time>2024-09-18T12:28:28Z</time>
      </trkpt>
      <trkpt lat="42.52173" lon="2.42888">
        <ele>2012</ele>
        <time>2024-09-18T12:28:32Z</time>
      </trkpt>
      <trkpt lat="42.52172" lon="2.42892">
        <ele>2012</ele>
        <time>2024-09-18T12:28:34Z</time>
      </trkpt>
      <trkpt lat="42.52172" lon="2.42896">
        <ele>2010</ele>
        <time>2024-09-18T12:28:38Z</time>
      </trkpt>
      <trkpt lat="42.52172" lon="2.429">
        <ele>2010</ele>
        <time>2024-09-18T12:28:40Z</time>
      </trkpt>
      <trkpt lat="42.52172" lon="2.42904">
        <ele>2010</ele>
        <time>2024-09-18T12:28:42Z</time>
      </trkpt>
      <trkpt lat="42.52172" lon="2.42907">
        <ele>2009</ele>
        <time>2024-09-18T12:28:45Z</time>
      </trkpt>
      <trkpt lat="42.52172" lon="2.42912">
        <ele>2010</ele>
        <time>2024-09-18T12:28:49Z</time>
      </trkpt>
      <trkpt lat="42.52172" lon="2.42916">
        <ele>2009</ele>
        <time>2024-09-18T12:28:53Z</time>
      </trkpt>
      <trkpt lat="42.52173" lon="2.4292">
        <ele>2009</ele>
        <time>2024-09-18T12:28:56Z</time>
      </trkpt>
      <trkpt lat="42.52173" lon="2.42925">
        <ele>2009</ele>
        <time>2024-09-18T12:28:59Z</time>
      </trkpt>
      <trkpt lat="42.52174" lon="2.42929">
        <ele>2008</ele>
        <time>2024-09-18T12:29:02Z</time>
      </trkpt>
      <trkpt lat="42.52175" lon="2.42933">
        <ele>2006</ele>
        <time>2024-09-18T12:29:05Z</time>
      </trkpt>
      <trkpt lat="42.52175" lon="2.42937">
        <ele>2006</ele>
        <time>2024-09-18T12:29:08Z</time>
      </trkpt>
      <trkpt lat="42.52174" lon="2.42942">
        <ele>2006</ele>
        <time>2024-09-18T12:29:11Z</time>
      </trkpt>
      <trkpt lat="42.52173" lon="2.42946">
        <ele>2005</ele>
        <time>2024-09-18T12:29:14Z</time>
      </trkpt>
      <trkpt lat="42.52172" lon="2.4295">
        <ele>2006</ele>
        <time>2024-09-18T12:29:18Z</time>
      </trkpt>
      <trkpt lat="42.52171" lon="2.42954">
        <ele>2004</ele>
        <time>2024-09-18T12:29:22Z</time>
      </trkpt>
      <trkpt lat="42.5217" lon="2.42958">
        <ele>2004</ele>
        <time>2024-09-18T12:29:25Z</time>
      </trkpt>
      <trkpt lat="42.52169" lon="2.42961">
        <ele>2003</ele>
        <time>2024-09-18T12:29:27Z</time>
      </trkpt>
      <trkpt lat="42.52167" lon="2.42964">
        <ele>2003</ele>
        <time>2024-09-18T12:29:38Z</time>
      </trkpt>
      <trkpt lat="42.52166" lon="2.42968">
        <ele>2002</ele>
        <time>2024-09-18T12:29:44Z</time>
      </trkpt>
      <trkpt lat="42.52163" lon="2.42972">
        <ele>2000</ele>
        <time>2024-09-18T12:29:48Z</time>
      </trkpt>
      <trkpt lat="42.52163" lon="2.42976">
        <ele>2000</ele>
        <time>2024-09-18T12:29:52Z</time>
      </trkpt>
      <trkpt lat="42.52161" lon="2.42981">
        <ele>1999</ele>
        <time>2024-09-18T12:29:55Z</time>
      </trkpt>
      <trkpt lat="42.52161" lon="2.42985">
        <ele>1999</ele>
        <time>2024-09-18T12:29:57Z</time>
      </trkpt>
      <trkpt lat="42.5216" lon="2.42989">
        <ele>1998</ele>
        <time>2024-09-18T12:30:00Z</time>
      </trkpt>
      <trkpt lat="42.52162" lon="2.4299">
        <ele>1996</ele>
        <time>2024-09-18T12:30:04Z</time>
      </trkpt>
      <trkpt lat="42.52164" lon="2.42988">
        <ele>1996</ele>
        <time>2024-09-18T12:30:07Z</time>
      </trkpt>
      <trkpt lat="42.52166" lon="2.42987">
        <ele>1997</ele>
        <time>2024-09-18T12:30:08Z</time>
      </trkpt>
      <trkpt lat="42.52168" lon="2.42984">
        <ele>1996</ele>
        <time>2024-09-18T12:30:12Z</time>
      </trkpt>
      <trkpt lat="42.52169" lon="2.42981">
        <ele>1995</ele>
        <time>2024-09-18T12:30:15Z</time>
      </trkpt>
      <trkpt lat="42.52171" lon="2.42978">
        <ele>1994</ele>
        <time>2024-09-18T12:30:18Z</time>
      </trkpt>
      <trkpt lat="42.52174" lon="2.42976">
        <ele>1994</ele>
        <time>2024-09-18T12:30:21Z</time>
      </trkpt>
      <trkpt lat="42.52177" lon="2.42974">
        <ele>1994</ele>
        <time>2024-09-18T12:30:23Z</time>
      </trkpt>
      <trkpt lat="42.5218" lon="2.42971">
        <ele>1993</ele>
        <time>2024-09-18T12:30:26Z</time>
      </trkpt>
      <trkpt lat="42.52183" lon="2.42969">
        <ele>1992</ele>
        <time>2024-09-18T12:30:29Z</time>
      </trkpt>
      <trkpt lat="42.52186" lon="2.42967">
        <ele>1992</ele>
        <time>2024-09-18T12:30:32Z</time>
      </trkpt>
      <trkpt lat="42.52189" lon="2.42965">
        <ele>1991</ele>
        <time>2024-09-18T12:30:35Z</time>
      </trkpt>
      <trkpt lat="42.52192" lon="2.42962">
        <ele>1988</ele>
        <time>2024-09-18T12:30:41Z</time>
      </trkpt>
      <trkpt lat="42.52194" lon="2.4296">
        <ele>1988</ele>
        <time>2024-09-18T12:30:43Z</time>
      </trkpt>
      <trkpt lat="42.52197" lon="2.42959">
        <ele>1987</ele>
        <time>2024-09-18T12:30:45Z</time>
      </trkpt>
      <trkpt lat="42.522" lon="2.42956">
        <ele>1986</ele>
        <time>2024-09-18T12:30:49Z</time>
      </trkpt>
      <trkpt lat="42.52202" lon="2.42953">
        <ele>1986</ele>
        <time>2024-09-18T12:30:51Z</time>
      </trkpt>
      <trkpt lat="42.52204" lon="2.42948">
        <ele>1985</ele>
        <time>2024-09-18T12:30:54Z</time>
      </trkpt>
      <trkpt lat="42.52206" lon="2.42944">
        <ele>1985</ele>
        <time>2024-09-18T12:30:57Z</time>
      </trkpt>
      <trkpt lat="42.52206" lon="2.4294">
        <ele>1984</ele>
        <time>2024-09-18T12:31:00Z</time>
      </trkpt>
      <trkpt lat="42.52208" lon="2.42936">
        <ele>1984</ele>
        <time>2024-09-18T12:31:04Z</time>
      </trkpt>
      <trkpt lat="42.52209" lon="2.42932">
        <ele>1983</ele>
        <time>2024-09-18T12:31:08Z</time>
      </trkpt>
      <trkpt lat="42.5221" lon="2.42927">
        <ele>1982</ele>
        <time>2024-09-18T12:31:11Z</time>
      </trkpt>
      <trkpt lat="42.5221" lon="2.42929">
        <ele>1982</ele>
        <time>2024-09-18T12:31:15Z</time>
      </trkpt>
      <trkpt lat="42.5221" lon="2.42931">
        <ele>1980</ele>
        <time>2024-09-18T12:31:19Z</time>
      </trkpt>
      <trkpt lat="42.52211" lon="2.42935">
        <ele>1980</ele>
        <time>2024-09-18T12:31:22Z</time>
      </trkpt>
      <trkpt lat="42.52211" lon="2.42938">
        <ele>1980</ele>
        <time>2024-09-18T12:31:25Z</time>
      </trkpt>
      <trkpt lat="42.52211" lon="2.42943">
        <ele>1980</ele>
        <time>2024-09-18T12:31:28Z</time>
      </trkpt>
      <trkpt lat="42.52211" lon="2.42948">
        <ele>1979</ele>
        <time>2024-09-18T12:31:30Z</time>
      </trkpt>
      <trkpt lat="42.52212" lon="2.42952">
        <ele>1979</ele>
        <time>2024-09-18T12:31:33Z</time>
      </trkpt>
      <trkpt lat="42.52212" lon="2.42957">
        <ele>1978</ele>
        <time>2024-09-18T12:31:37Z</time>
      </trkpt>
      <trkpt lat="42.52212" lon="2.42961">
        <ele>1979</ele>
        <time>2024-09-18T12:31:39Z</time>
      </trkpt>
      <trkpt lat="42.52212" lon="2.42965">
        <ele>1978</ele>
        <time>2024-09-18T12:31:41Z</time>
      </trkpt>
      <trkpt lat="42.52211" lon="2.42969">
        <ele>1976</ele>
        <time>2024-09-18T12:31:45Z</time>
      </trkpt>
      <trkpt lat="42.52208" lon="2.42971">
        <ele>1975</ele>
        <time>2024-09-18T12:31:48Z</time>
      </trkpt>
      <trkpt lat="42.52206" lon="2.42973">
        <ele>1974</ele>
        <time>2024-09-18T12:31:52Z</time>
      </trkpt>
      <trkpt lat="42.52204" lon="2.42976">
        <ele>1973</ele>
        <time>2024-09-18T12:31:55Z</time>
      </trkpt>
      <trkpt lat="42.52203" lon="2.42979">
        <ele>1973</ele>
        <time>2024-09-18T12:31:57Z</time>
      </trkpt>
      <trkpt lat="42.52201" lon="2.42983">
        <ele>1973</ele>
        <time>2024-09-18T12:32:00Z</time>
      </trkpt>
      <trkpt lat="42.52199" lon="2.42986">
        <ele>1972</ele>
        <time>2024-09-18T12:32:03Z</time>
      </trkpt>
      <trkpt lat="42.52198" lon="2.42991">
        <ele>1970</ele>
        <time>2024-09-18T12:32:08Z</time>
      </trkpt>
      <trkpt lat="42.52197" lon="2.42995">
        <ele>1970</ele>
        <time>2024-09-18T12:32:11Z</time>
      </trkpt>
      <trkpt lat="42.52195" lon="2.42999">
        <ele>1969</ele>
        <time>2024-09-18T12:32:14Z</time>
      </trkpt>
      <trkpt lat="42.52194" lon="2.43002">
        <ele>1969</ele>
        <time>2024-09-18T12:32:17Z</time>
      </trkpt>
      <trkpt lat="42.52192" lon="2.43006">
        <ele>1968</ele>
        <time>2024-09-18T12:32:19Z</time>
      </trkpt>
      <trkpt lat="42.52191" lon="2.4301">
        <ele>1969</ele>
        <time>2024-09-18T12:32:22Z</time>
      </trkpt>
      <trkpt lat="42.52189" lon="2.43013">
        <ele>1969</ele>
        <time>2024-09-18T12:32:25Z</time>
      </trkpt>
      <trkpt lat="42.52186" lon="2.43016">
        <ele>1970</ele>
        <time>2024-09-18T12:32:30Z</time>
      </trkpt>
      <trkpt lat="42.52185" lon="2.4302">
        <ele>1970</ele>
        <time>2024-09-18T12:32:37Z</time>
      </trkpt>
      <trkpt lat="42.52182" lon="2.43022">
        <ele>1970</ele>
        <time>2024-09-18T12:32:44Z</time>
      </trkpt>
      <trkpt lat="42.5218" lon="2.43025">
        <ele>1966</ele>
        <time>2024-09-18T12:32:48Z</time>
      </trkpt>
      <trkpt lat="42.52179" lon="2.43028">
        <ele>1966</ele>
        <time>2024-09-18T12:32:51Z</time>
      </trkpt>
      <trkpt lat="42.52181" lon="2.4303">
        <ele>1965</ele>
        <time>2024-09-18T12:32:54Z</time>
      </trkpt>
      <trkpt lat="42.52183" lon="2.43032">
        <ele>1963</ele>
        <time>2024-09-18T12:32:59Z</time>
      </trkpt>
      <trkpt lat="42.52186" lon="2.43034">
        <ele>1961</ele>
        <time>2024-09-18T12:33:03Z</time>
      </trkpt>
      <trkpt lat="42.52189" lon="2.43037">
        <ele>1961</ele>
        <time>2024-09-18T12:33:07Z</time>
      </trkpt>
      <trkpt lat="42.52193" lon="2.43039">
        <ele>1961</ele>
        <time>2024-09-18T12:33:15Z</time>
      </trkpt>
      <trkpt lat="42.52196" lon="2.43038">
        <ele>1963</ele>
        <time>2024-09-18T12:33:32Z</time>
      </trkpt>
      <trkpt lat="42.52198" lon="2.43039">
        <ele>1964</ele>
        <time>2024-09-18T12:33:35Z</time>
      </trkpt>
      <trkpt lat="42.522" lon="2.43042">
        <ele>1964</ele>
        <time>2024-09-18T12:33:38Z</time>
      </trkpt>
      <trkpt lat="42.52201" lon="2.43046">
        <ele>1963</ele>
        <time>2024-09-18T12:33:43Z</time>
      </trkpt>
      <trkpt lat="42.52202" lon="2.43051">
        <ele>1962</ele>
        <time>2024-09-18T12:33:46Z</time>
      </trkpt>
      <trkpt lat="42.52203" lon="2.43055">
        <ele>1962</ele>
        <time>2024-09-18T12:33:49Z</time>
      </trkpt>
      <trkpt lat="42.52206" lon="2.43058">
        <ele>1962</ele>
        <time>2024-09-18T12:33:53Z</time>
      </trkpt>
      <trkpt lat="42.52208" lon="2.43062">
        <ele>1960</ele>
        <time>2024-09-18T12:33:56Z</time>
      </trkpt>
      <trkpt lat="42.52211" lon="2.43064">
        <ele>1959</ele>
        <time>2024-09-18T12:33:59Z</time>
      </trkpt>
      <trkpt lat="42.52213" lon="2.43068">
        <ele>1958</ele>
        <time>2024-09-18T12:34:02Z</time>
      </trkpt>
      <trkpt lat="42.52214" lon="2.43071">
        <ele>1957</ele>
        <time>2024-09-18T12:34:06Z</time>
      </trkpt>
      <trkpt lat="42.52217" lon="2.43074">
        <ele>1958</ele>
        <time>2024-09-18T12:34:08Z</time>
      </trkpt>
      <trkpt lat="42.52218" lon="2.43078">
        <ele>1957</ele>
        <time>2024-09-18T12:34:11Z</time>
      </trkpt>
      <trkpt lat="42.5222" lon="2.43081">
        <ele>1956</ele>
        <time>2024-09-18T12:34:15Z</time>
      </trkpt>
      <trkpt lat="42.52222" lon="2.43086">
        <ele>1956</ele>
        <time>2024-09-18T12:34:18Z</time>
      </trkpt>
      <trkpt lat="42.52223" lon="2.4309">
        <ele>1955</ele>
        <time>2024-09-18T12:34:22Z</time>
      </trkpt>
      <trkpt lat="42.52225" lon="2.43093">
        <ele>1954</ele>
        <time>2024-09-18T12:34:25Z</time>
      </trkpt>
      <trkpt lat="42.52228" lon="2.43096">
        <ele>1955</ele>
        <time>2024-09-18T12:34:27Z</time>
      </trkpt>
      <trkpt lat="42.52229" lon="2.431">
        <ele>1954</ele>
        <time>2024-09-18T12:34:31Z</time>
      </trkpt>
      <trkpt lat="42.52231" lon="2.43103">
        <ele>1954</ele>
        <time>2024-09-18T12:34:34Z</time>
      </trkpt>
      <trkpt lat="42.52233" lon="2.43107">
        <ele>1955</ele>
        <time>2024-09-18T12:34:38Z</time>
      </trkpt>
      <trkpt lat="42.52235" lon="2.4311">
        <ele>1952</ele>
        <time>2024-09-18T12:34:42Z</time>
      </trkpt>
      <trkpt lat="42.52237" lon="2.43113">
        <ele>1953</ele>
        <time>2024-09-18T12:34:45Z</time>
      </trkpt>
      <trkpt lat="42.52237" lon="2.43117">
        <ele>1952</ele>
        <time>2024-09-18T12:34:47Z</time>
      </trkpt>
      <trkpt lat="42.52237" lon="2.43121">
        <ele>1951</ele>
        <time>2024-09-18T12:34:52Z</time>
      </trkpt>
      <trkpt lat="42.52238" lon="2.43125">
        <ele>1949</ele>
        <time>2024-09-18T12:34:59Z</time>
      </trkpt>
      <trkpt lat="42.52239" lon="2.43129">
        <ele>1949</ele>
        <time>2024-09-18T12:35:01Z</time>
      </trkpt>
      <trkpt lat="42.5224" lon="2.43133">
        <ele>1948</ele>
        <time>2024-09-18T12:35:05Z</time>
      </trkpt>
      <trkpt lat="42.52242" lon="2.43136">
        <ele>1948</ele>
        <time>2024-09-18T12:35:08Z</time>
      </trkpt>
      <trkpt lat="42.52243" lon="2.43139">
        <ele>1947</ele>
        <time>2024-09-18T12:35:11Z</time>
      </trkpt>
      <trkpt lat="42.52245" lon="2.43143">
        <ele>1947</ele>
        <time>2024-09-18T12:35:16Z</time>
      </trkpt>
      <trkpt lat="42.52246" lon="2.43147">
        <ele>1947</ele>
        <time>2024-09-18T12:35:19Z</time>
      </trkpt>
      <trkpt lat="42.52247" lon="2.43151">
        <ele>1946</ele>
        <time>2024-09-18T12:35:21Z</time>
      </trkpt>
      <trkpt lat="42.52248" lon="2.43155">
        <ele>1942</ele>
        <time>2024-09-18T12:35:26Z</time>
      </trkpt>
      <trkpt lat="42.5225" lon="2.43157">
        <ele>1943</ele>
        <time>2024-09-18T12:35:31Z</time>
      </trkpt>
      <trkpt lat="42.52253" lon="2.43158">
        <ele>1944</ele>
        <time>2024-09-18T12:35:35Z</time>
      </trkpt>
      <trkpt lat="42.52256" lon="2.43159">
        <ele>1944</ele>
        <time>2024-09-18T12:35:37Z</time>
      </trkpt>
      <trkpt lat="42.52259" lon="2.43161">
        <ele>1944</ele>
        <time>2024-09-18T12:35:40Z</time>
      </trkpt>
      <trkpt lat="42.52263" lon="2.43163">
        <ele>1944</ele>
        <time>2024-09-18T12:35:43Z</time>
      </trkpt>
      <trkpt lat="42.52266" lon="2.43165">
        <ele>1941</ele>
        <time>2024-09-18T12:35:48Z</time>
      </trkpt>
      <trkpt lat="42.52268" lon="2.43166">
        <ele>1940</ele>
        <time>2024-09-18T12:35:52Z</time>
      </trkpt>
      <trkpt lat="42.52271" lon="2.43166">
        <ele>1941</ele>
        <time>2024-09-18T12:35:57Z</time>
      </trkpt>
      <trkpt lat="42.52274" lon="2.43166">
        <ele>1941</ele>
        <time>2024-09-18T12:36:05Z</time>
      </trkpt>
      <trkpt lat="42.52277" lon="2.43169">
        <ele>1940</ele>
        <time>2024-09-18T12:36:09Z</time>
      </trkpt>
      <trkpt lat="42.52281" lon="2.4317">
        <ele>1942</ele>
        <time>2024-09-18T12:36:11Z</time>
      </trkpt>
      <trkpt lat="42.52285" lon="2.4317">
        <ele>1940</ele>
        <time>2024-09-18T12:36:15Z</time>
      </trkpt>
      <trkpt lat="42.52288" lon="2.43172">
        <ele>1938</ele>
        <time>2024-09-18T12:36:18Z</time>
      </trkpt>
      <trkpt lat="42.52291" lon="2.43171">
        <ele>1936</ele>
        <time>2024-09-18T12:36:22Z</time>
      </trkpt>
      <trkpt lat="42.52294" lon="2.43173">
        <ele>1935</ele>
        <time>2024-09-18T12:36:23Z</time>
      </trkpt>
      <trkpt lat="42.52296" lon="2.43175">
        <ele>1933</ele>
        <time>2024-09-18T12:36:25Z</time>
      </trkpt>
      <trkpt lat="42.52299" lon="2.43174">
        <ele>1933</ele>
        <time>2024-09-18T12:36:28Z</time>
      </trkpt>
      <trkpt lat="42.52302" lon="2.43173">
        <ele>1933</ele>
        <time>2024-09-18T12:36:32Z</time>
      </trkpt>
      <trkpt lat="42.52305" lon="2.43174">
        <ele>1932</ele>
        <time>2024-09-18T12:36:35Z</time>
      </trkpt>
      <trkpt lat="42.52308" lon="2.43176">
        <ele>1931</ele>
        <time>2024-09-18T12:36:37Z</time>
      </trkpt>
      <trkpt lat="42.5231" lon="2.43177">
        <ele>1930</ele>
        <time>2024-09-18T12:36:40Z</time>
      </trkpt>
      <trkpt lat="42.52313" lon="2.43179">
        <ele>1930</ele>
        <time>2024-09-18T12:36:42Z</time>
      </trkpt>
      <trkpt lat="42.52315" lon="2.43182">
        <ele>1929</ele>
        <time>2024-09-18T12:36:45Z</time>
      </trkpt>
      <trkpt lat="42.52317" lon="2.43184">
        <ele>1928</ele>
        <time>2024-09-18T12:36:48Z</time>
      </trkpt>
      <trkpt lat="42.5232" lon="2.43186">
        <ele>1928</ele>
        <time>2024-09-18T12:36:51Z</time>
      </trkpt>
      <trkpt lat="42.52323" lon="2.43189">
        <ele>1927</ele>
        <time>2024-09-18T12:36:54Z</time>
      </trkpt>
      <trkpt lat="42.52325" lon="2.43191">
        <ele>1929</ele>
        <time>2024-09-18T12:36:58Z</time>
      </trkpt>
      <trkpt lat="42.52328" lon="2.43192">
        <ele>1929</ele>
        <time>2024-09-18T12:37:01Z</time>
      </trkpt>
      <trkpt lat="42.52331" lon="2.43194">
        <ele>1927</ele>
        <time>2024-09-18T12:37:04Z</time>
      </trkpt>
      <trkpt lat="42.52333" lon="2.43197">
        <ele>1926</ele>
        <time>2024-09-18T12:37:08Z</time>
      </trkpt>
      <trkpt lat="42.52335" lon="2.432">
        <ele>1925</ele>
        <time>2024-09-18T12:37:11Z</time>
      </trkpt>
      <trkpt lat="42.52337" lon="2.43203">
        <ele>1925</ele>
        <time>2024-09-18T12:37:13Z</time>
      </trkpt>
      <trkpt lat="42.52339" lon="2.43206">
        <ele>1924</ele>
        <time>2024-09-18T12:37:16Z</time>
      </trkpt>
      <trkpt lat="42.52342" lon="2.43209">
        <ele>1923</ele>
        <time>2024-09-18T12:37:19Z</time>
      </trkpt>
      <trkpt lat="42.52344" lon="2.43211">
        <ele>1922</ele>
        <time>2024-09-18T12:37:22Z</time>
      </trkpt>
      <trkpt lat="42.52347" lon="2.43214">
        <ele>1922</ele>
        <time>2024-09-18T12:37:25Z</time>
      </trkpt>
      <trkpt lat="42.52349" lon="2.43217">
        <ele>1922</ele>
        <time>2024-09-18T12:37:27Z</time>
      </trkpt>
      <trkpt lat="42.52351" lon="2.43219">
        <ele>1921</ele>
        <time>2024-09-18T12:37:30Z</time>
      </trkpt>
      <trkpt lat="42.52354" lon="2.43222">
        <ele>1921</ele>
        <time>2024-09-18T12:37:33Z</time>
      </trkpt>
      <trkpt lat="42.52356" lon="2.43225">
        <ele>1920</ele>
        <time>2024-09-18T12:37:38Z</time>
      </trkpt>
      <trkpt lat="42.52358" lon="2.43228">
        <ele>1919</ele>
        <time>2024-09-18T12:37:42Z</time>
      </trkpt>
      <trkpt lat="42.52361" lon="2.43231">
        <ele>1917</ele>
        <time>2024-09-18T12:37:45Z</time>
      </trkpt>
      <trkpt lat="42.52363" lon="2.43233">
        <ele>1918</ele>
        <time>2024-09-18T12:37:48Z</time>
      </trkpt>
      <trkpt lat="42.52367" lon="2.43233">
        <ele>1919</ele>
        <time>2024-09-18T12:37:50Z</time>
      </trkpt>
      <trkpt lat="42.5237" lon="2.43234">
        <ele>1919</ele>
        <time>2024-09-18T12:37:53Z</time>
      </trkpt>
      <trkpt lat="42.52371" lon="2.43238">
        <ele>1918</ele>
        <time>2024-09-18T12:37:58Z</time>
      </trkpt>
      <trkpt lat="42.52371" lon="2.43241">
        <ele>1916</ele>
        <time>2024-09-18T12:38:01Z</time>
      </trkpt>
      <trkpt lat="42.52371" lon="2.43244">
        <ele>1915</ele>
        <time>2024-09-18T12:38:04Z</time>
      </trkpt>
      <trkpt lat="42.52371" lon="2.43249">
        <ele>1915</ele>
        <time>2024-09-18T12:38:08Z</time>
      </trkpt>
      <trkpt lat="42.52373" lon="2.43253">
        <ele>1914</ele>
        <time>2024-09-18T12:38:12Z</time>
      </trkpt>
      <trkpt lat="42.52373" lon="2.43258">
        <ele>1913</ele>
        <time>2024-09-18T12:38:15Z</time>
      </trkpt>
      <trkpt lat="42.52374" lon="2.43261">
        <ele>1912</ele>
        <time>2024-09-18T12:38:19Z</time>
      </trkpt>
      <trkpt lat="42.52375" lon="2.43266">
        <ele>1913</ele>
        <time>2024-09-18T12:38:22Z</time>
      </trkpt>
      <trkpt lat="42.52377" lon="2.43269">
        <ele>1914</ele>
        <time>2024-09-18T12:38:25Z</time>
      </trkpt>
      <trkpt lat="42.52379" lon="2.43273">
        <ele>1912</ele>
        <time>2024-09-18T12:38:28Z</time>
      </trkpt>
      <trkpt lat="42.52381" lon="2.43277">
        <ele>1912</ele>
        <time>2024-09-18T12:38:32Z</time>
      </trkpt>
      <trkpt lat="42.52383" lon="2.43281">
        <ele>1912</ele>
        <time>2024-09-18T12:38:34Z</time>
      </trkpt>
      <trkpt lat="42.52385" lon="2.43285">
        <ele>1912</ele>
        <time>2024-09-18T12:38:39Z</time>
      </trkpt>
      <trkpt lat="42.52386" lon="2.43289">
        <ele>1910</ele>
        <time>2024-09-18T12:38:42Z</time>
      </trkpt>
      <trkpt lat="42.52388" lon="2.43294">
        <ele>1910</ele>
        <time>2024-09-18T12:38:45Z</time>
      </trkpt>
      <trkpt lat="42.52389" lon="2.43298">
        <ele>1908</ele>
        <time>2024-09-18T12:38:48Z</time>
      </trkpt>
      <trkpt lat="42.5239" lon="2.43302">
        <ele>1908</ele>
        <time>2024-09-18T12:38:50Z</time>
      </trkpt>
      <trkpt lat="42.52391" lon="2.43307">
        <ele>1907</ele>
        <time>2024-09-18T12:38:55Z</time>
      </trkpt>
      <trkpt lat="42.52393" lon="2.43311">
        <ele>1906</ele>
        <time>2024-09-18T12:38:59Z</time>
      </trkpt>
      <trkpt lat="42.52395" lon="2.43315">
        <ele>1905</ele>
        <time>2024-09-18T12:39:03Z</time>
      </trkpt>
      <trkpt lat="42.52397" lon="2.43318">
        <ele>1904</ele>
        <time>2024-09-18T12:39:06Z</time>
      </trkpt>
      <trkpt lat="42.52399" lon="2.4332">
        <ele>1905</ele>
        <time>2024-09-18T12:39:08Z</time>
      </trkpt>
      <trkpt lat="42.524" lon="2.43324">
        <ele>1902</ele>
        <time>2024-09-18T12:39:14Z</time>
      </trkpt>
      <trkpt lat="42.52402" lon="2.43328">
        <ele>1901</ele>
        <time>2024-09-18T12:39:17Z</time>
      </trkpt>
      <trkpt lat="42.52403" lon="2.43332">
        <ele>1901</ele>
        <time>2024-09-18T12:39:21Z</time>
      </trkpt>
      <trkpt lat="42.52404" lon="2.43336">
        <ele>1900</ele>
        <time>2024-09-18T12:39:24Z</time>
      </trkpt>
      <trkpt lat="42.52405" lon="2.43339">
        <ele>1899</ele>
        <time>2024-09-18T12:39:27Z</time>
      </trkpt>
      <trkpt lat="42.52406" lon="2.43343">
        <ele>1899</ele>
        <time>2024-09-18T12:39:30Z</time>
      </trkpt>
      <trkpt lat="42.52407" lon="2.43347">
        <ele>1899</ele>
        <time>2024-09-18T12:39:33Z</time>
      </trkpt>
      <trkpt lat="42.52409" lon="2.43351">
        <ele>1899</ele>
        <time>2024-09-18T12:39:36Z</time>
      </trkpt>
      <trkpt lat="42.5241" lon="2.43355">
        <ele>1898</ele>
        <time>2024-09-18T12:39:39Z</time>
      </trkpt>
      <trkpt lat="42.52411" lon="2.43359">
        <ele>1898</ele>
        <time>2024-09-18T12:39:43Z</time>
      </trkpt>
      <trkpt lat="42.52412" lon="2.43364">
        <ele>1898</ele>
        <time>2024-09-18T12:39:46Z</time>
      </trkpt>
      <trkpt lat="42.52413" lon="2.43368">
        <ele>1897</ele>
        <time>2024-09-18T12:39:49Z</time>
      </trkpt>
      <trkpt lat="42.52414" lon="2.43372">
        <ele>1897</ele>
        <time>2024-09-18T12:39:52Z</time>
      </trkpt>
      <trkpt lat="42.52416" lon="2.43376">
        <ele>1896</ele>
        <time>2024-09-18T12:39:55Z</time>
      </trkpt>
      <trkpt lat="42.52418" lon="2.43379">
        <ele>1896</ele>
        <time>2024-09-18T12:39:59Z</time>
      </trkpt>
      <trkpt lat="42.5242" lon="2.43382">
        <ele>1895</ele>
        <time>2024-09-18T12:40:02Z</time>
      </trkpt>
      <trkpt lat="42.52422" lon="2.43385">
        <ele>1894</ele>
        <time>2024-09-18T12:40:06Z</time>
      </trkpt>
      <trkpt lat="42.52423" lon="2.43389">
        <ele>1893</ele>
        <time>2024-09-18T12:40:10Z</time>
      </trkpt>
      <trkpt lat="42.52425" lon="2.43393">
        <ele>1892</ele>
        <time>2024-09-18T12:40:13Z</time>
      </trkpt>
      <trkpt lat="42.52426" lon="2.43397">
        <ele>1891</ele>
        <time>2024-09-18T12:40:16Z</time>
      </trkpt>
      <trkpt lat="42.52426" lon="2.434">
        <ele>1890</ele>
        <time>2024-09-18T12:40:19Z</time>
      </trkpt>
      <trkpt lat="42.52425" lon="2.43404">
        <ele>1889</ele>
        <time>2024-09-18T12:40:22Z</time>
      </trkpt>
      <trkpt lat="42.52426" lon="2.43409">
        <ele>1888</ele>
        <time>2024-09-18T12:40:26Z</time>
      </trkpt>
      <trkpt lat="42.52426" lon="2.43413">
        <ele>1888</ele>
        <time>2024-09-18T12:40:29Z</time>
      </trkpt>
      <trkpt lat="42.52426" lon="2.43418">
        <ele>1887</ele>
        <time>2024-09-18T12:40:33Z</time>
      </trkpt>
      <trkpt lat="42.52426" lon="2.43423">
        <ele>1887</ele>
        <time>2024-09-18T12:40:35Z</time>
      </trkpt>
      <trkpt lat="42.52426" lon="2.43427">
        <ele>1884</ele>
        <time>2024-09-18T12:40:39Z</time>
      </trkpt>
      <trkpt lat="42.52426" lon="2.43431">
        <ele>1883</ele>
        <time>2024-09-18T12:40:41Z</time>
      </trkpt>
      <trkpt lat="42.52426" lon="2.43436">
        <ele>1882</ele>
        <time>2024-09-18T12:40:46Z</time>
      </trkpt>
      <trkpt lat="42.52427" lon="2.4344">
        <ele>1882</ele>
        <time>2024-09-18T12:40:48Z</time>
      </trkpt>
      <trkpt lat="42.52427" lon="2.43444">
        <ele>1881</ele>
        <time>2024-09-18T12:40:51Z</time>
      </trkpt>
      <trkpt lat="42.52428" lon="2.43448">
        <ele>1881</ele>
        <time>2024-09-18T12:40:55Z</time>
      </trkpt>
      <trkpt lat="42.52428" lon="2.43452">
        <ele>1880</ele>
        <time>2024-09-18T12:40:58Z</time>
      </trkpt>
      <trkpt lat="42.52429" lon="2.43456">
        <ele>1880</ele>
        <time>2024-09-18T12:41:01Z</time>
      </trkpt>
      <trkpt lat="42.52429" lon="2.43461">
        <ele>1883</ele>
        <time>2024-09-18T12:41:06Z</time>
      </trkpt>
      <trkpt lat="42.5243" lon="2.43465">
        <ele>1882</ele>
        <time>2024-09-18T12:41:10Z</time>
      </trkpt>
      <trkpt lat="42.52432" lon="2.43468">
        <ele>1881</ele>
        <time>2024-09-18T12:41:12Z</time>
      </trkpt>
      <trkpt lat="42.52433" lon="2.43472">
        <ele>1880</ele>
        <time>2024-09-18T12:41:15Z</time>
      </trkpt>
      <trkpt lat="42.52433" lon="2.43477">
        <ele>1878</ele>
        <time>2024-09-18T12:41:17Z</time>
      </trkpt>
      <trkpt lat="42.52435" lon="2.4348">
        <ele>1878</ele>
        <time>2024-09-18T12:41:20Z</time>
      </trkpt>
      <trkpt lat="42.52437" lon="2.43484">
        <ele>1878</ele>
        <time>2024-09-18T12:41:22Z</time>
      </trkpt>
      <trkpt lat="42.52437" lon="2.43488">
        <ele>1877</ele>
        <time>2024-09-18T12:41:25Z</time>
      </trkpt>
      <trkpt lat="42.52437" lon="2.43492">
        <ele>1876</ele>
        <time>2024-09-18T12:41:29Z</time>
      </trkpt>
      <trkpt lat="42.52437" lon="2.43496">
        <ele>1876</ele>
        <time>2024-09-18T12:41:32Z</time>
      </trkpt>
      <trkpt lat="42.52436" lon="2.435">
        <ele>1876</ele>
        <time>2024-09-18T12:41:35Z</time>
      </trkpt>
      <trkpt lat="42.52435" lon="2.43504">
        <ele>1875</ele>
        <time>2024-09-18T12:41:39Z</time>
      </trkpt>
      <trkpt lat="42.52434" lon="2.43509">
        <ele>1874</ele>
        <time>2024-09-18T12:41:41Z</time>
      </trkpt>
      <trkpt lat="42.52432" lon="2.43512">
        <ele>1873</ele>
        <time>2024-09-18T12:41:44Z</time>
      </trkpt>
      <trkpt lat="42.5243" lon="2.43517">
        <ele>1873</ele>
        <time>2024-09-18T12:41:47Z</time>
      </trkpt>
      <trkpt lat="42.52429" lon="2.43521">
        <ele>1873</ele>
        <time>2024-09-18T12:41:50Z</time>
      </trkpt>
      <trkpt lat="42.52429" lon="2.43526">
        <ele>1874</ele>
        <time>2024-09-18T12:41:53Z</time>
      </trkpt>
      <trkpt lat="42.52428" lon="2.4353">
        <ele>1875</ele>
        <time>2024-09-18T12:41:55Z</time>
      </trkpt>
      <trkpt lat="42.52428" lon="2.43534">
        <ele>1875</ele>
        <time>2024-09-18T12:41:58Z</time>
      </trkpt>
      <trkpt lat="42.52428" lon="2.43539">
        <ele>1874</ele>
        <time>2024-09-18T12:42:01Z</time>
      </trkpt>
      <trkpt lat="42.52428" lon="2.43543">
        <ele>1874</ele>
        <time>2024-09-18T12:42:04Z</time>
      </trkpt>
      <trkpt lat="42.52429" lon="2.43548">
        <ele>1874</ele>
        <time>2024-09-18T12:42:08Z</time>
      </trkpt>
      <trkpt lat="42.52429" lon="2.43552">
        <ele>1873</ele>
        <time>2024-09-18T12:42:12Z</time>
      </trkpt>
      <trkpt lat="42.52428" lon="2.43556">
        <ele>1872</ele>
        <time>2024-09-18T12:42:15Z</time>
      </trkpt>
      <trkpt lat="42.52426" lon="2.43559">
        <ele>1872</ele>
        <time>2024-09-18T12:42:18Z</time>
      </trkpt>
      <trkpt lat="42.52423" lon="2.43562">
        <ele>1872</ele>
        <time>2024-09-18T12:42:22Z</time>
      </trkpt>
      <trkpt lat="42.52421" lon="2.43565">
        <ele>1872</ele>
        <time>2024-09-18T12:42:25Z</time>
      </trkpt>
      <trkpt lat="42.52419" lon="2.43569">
        <ele>1873</ele>
        <time>2024-09-18T12:42:28Z</time>
      </trkpt>
      <trkpt lat="42.52417" lon="2.43572">
        <ele>1871</ele>
        <time>2024-09-18T12:42:32Z</time>
      </trkpt>
      <trkpt lat="42.52415" lon="2.43575">
        <ele>1870</ele>
        <time>2024-09-18T12:42:35Z</time>
      </trkpt>
      <trkpt lat="42.52413" lon="2.43578">
        <ele>1871</ele>
        <time>2024-09-18T12:42:38Z</time>
      </trkpt>
      <trkpt lat="42.52411" lon="2.4358">
        <ele>1870</ele>
        <time>2024-09-18T12:42:41Z</time>
      </trkpt>
      <trkpt lat="42.52409" lon="2.43583">
        <ele>1871</ele>
        <time>2024-09-18T12:42:44Z</time>
      </trkpt>
      <trkpt lat="42.52408" lon="2.43587">
        <ele>1873</ele>
        <time>2024-09-18T12:42:48Z</time>
      </trkpt>
      <trkpt lat="42.52406" lon="2.4359">
        <ele>1873</ele>
        <time>2024-09-18T12:42:51Z</time>
      </trkpt>
      <trkpt lat="42.52404" lon="2.43594">
        <ele>1872</ele>
        <time>2024-09-18T12:42:55Z</time>
      </trkpt>
      <trkpt lat="42.52403" lon="2.43598">
        <ele>1873</ele>
        <time>2024-09-18T12:42:58Z</time>
      </trkpt>
      <trkpt lat="42.52401" lon="2.43601">
        <ele>1874</ele>
        <time>2024-09-18T12:43:01Z</time>
      </trkpt>
      <trkpt lat="42.52398" lon="2.43604">
        <ele>1875</ele>
        <time>2024-09-18T12:43:05Z</time>
      </trkpt>
      <trkpt lat="42.52396" lon="2.43607">
        <ele>1875</ele>
        <time>2024-09-18T12:43:10Z</time>
      </trkpt>
      <trkpt lat="42.52394" lon="2.43611">
        <ele>1879</ele>
        <time>2024-09-18T12:43:46Z</time>
      </trkpt>
      <trkpt lat="42.52392" lon="2.43615">
        <ele>1878</ele>
        <time>2024-09-18T12:43:50Z</time>
      </trkpt>
      <trkpt lat="42.5239" lon="2.43617">
        <ele>1877</ele>
        <time>2024-09-18T12:43:54Z</time>
      </trkpt>
      <trkpt lat="42.52387" lon="2.4362">
        <ele>1878</ele>
        <time>2024-09-18T12:43:58Z</time>
      </trkpt>
      <trkpt lat="42.52385" lon="2.43623">
        <ele>1878</ele>
        <time>2024-09-18T12:44:02Z</time>
      </trkpt>
      <trkpt lat="42.52382" lon="2.43626">
        <ele>1878</ele>
        <time>2024-09-18T12:44:05Z</time>
      </trkpt>
      <trkpt lat="42.5238" lon="2.43629">
        <ele>1878</ele>
        <time>2024-09-18T12:44:08Z</time>
      </trkpt>
      <trkpt lat="42.52378" lon="2.43633">
        <ele>1877</ele>
        <time>2024-09-18T12:44:11Z</time>
      </trkpt>
      <trkpt lat="42.52376" lon="2.43636">
        <ele>1878</ele>
        <time>2024-09-18T12:44:15Z</time>
      </trkpt>
      <trkpt lat="42.52373" lon="2.43638">
        <ele>1877</ele>
        <time>2024-09-18T12:44:18Z</time>
      </trkpt>
      <trkpt lat="42.5237" lon="2.43639">
        <ele>1879</ele>
        <time>2024-09-18T12:44:21Z</time>
      </trkpt>
      <trkpt lat="42.52368" lon="2.43642">
        <ele>1879</ele>
        <time>2024-09-18T12:44:25Z</time>
      </trkpt>
      <trkpt lat="42.52366" lon="2.43646">
        <ele>1879</ele>
        <time>2024-09-18T12:44:28Z</time>
      </trkpt>
      <trkpt lat="42.52365" lon="2.43649">
        <ele>1879</ele>
        <time>2024-09-18T12:44:31Z</time>
      </trkpt>
      <trkpt lat="42.52363" lon="2.43651">
        <ele>1881</ele>
        <time>2024-09-18T12:44:34Z</time>
      </trkpt>
      <trkpt lat="42.5236" lon="2.43653">
        <ele>1880</ele>
        <time>2024-09-18T12:44:39Z</time>
      </trkpt>
      <trkpt lat="42.52357" lon="2.43655">
        <ele>1882</ele>
        <time>2024-09-18T12:44:43Z</time>
      </trkpt>
      <trkpt lat="42.52354" lon="2.43656">
        <ele>1883</ele>
        <time>2024-09-18T12:44:48Z</time>
      </trkpt>
      <trkpt lat="42.52352" lon="2.43659">
        <ele>1884</ele>
        <time>2024-09-18T12:44:51Z</time>
      </trkpt>
      <trkpt lat="42.52351" lon="2.43662">
        <ele>1885</ele>
        <time>2024-09-18T12:45:01Z</time>
      </trkpt>
      <trkpt lat="42.52348" lon="2.43665">
        <ele>1885</ele>
        <time>2024-09-18T12:45:06Z</time>
      </trkpt>
      <trkpt lat="42.52346" lon="2.43669">
        <ele>1885</ele>
        <time>2024-09-18T12:45:10Z</time>
      </trkpt>
      <trkpt lat="42.52343" lon="2.43671">
        <ele>1886</ele>
        <time>2024-09-18T12:45:43Z</time>
      </trkpt>
      <trkpt lat="42.5234" lon="2.43673">
        <ele>1886</ele>
        <time>2024-09-18T12:45:47Z</time>
      </trkpt>
      <trkpt lat="42.52337" lon="2.43676">
        <ele>1886</ele>
        <time>2024-09-18T12:45:51Z</time>
      </trkpt>
      <trkpt lat="42.52335" lon="2.43678">
        <ele>1887</ele>
        <time>2024-09-18T12:45:54Z</time>
      </trkpt>
      <trkpt lat="42.52334" lon="2.43682">
        <ele>1887</ele>
        <time>2024-09-18T12:45:57Z</time>
      </trkpt>
      <trkpt lat="42.52333" lon="2.43687">
        <ele>1887</ele>
        <time>2024-09-18T12:46:01Z</time>
      </trkpt>
      <trkpt lat="42.52333" lon="2.43691">
        <ele>1890</ele>
        <time>2024-09-18T12:46:06Z</time>
      </trkpt>
      <trkpt lat="42.52335" lon="2.43695">
        <ele>1892</ele>
        <time>2024-09-18T12:46:12Z</time>
      </trkpt>
      <trkpt lat="42.52334" lon="2.43698">
        <ele>1894</ele>
        <time>2024-09-18T12:46:16Z</time>
      </trkpt>
      <trkpt lat="42.52332" lon="2.43701">
        <ele>1894</ele>
        <time>2024-09-18T12:46:21Z</time>
      </trkpt>
      <trkpt lat="42.52331" lon="2.43705">
        <ele>1895</ele>
        <time>2024-09-18T12:46:27Z</time>
      </trkpt>
      <trkpt lat="42.52331" lon="2.43709">
        <ele>1895</ele>
        <time>2024-09-18T12:46:32Z</time>
      </trkpt>
      <trkpt lat="42.5233" lon="2.43712">
        <ele>1895</ele>
        <time>2024-09-18T12:46:36Z</time>
      </trkpt>
      <trkpt lat="42.52329" lon="2.43716">
        <ele>1895</ele>
        <time>2024-09-18T12:46:40Z</time>
      </trkpt>
      <trkpt lat="42.52329" lon="2.43721">
        <ele>1895</ele>
        <time>2024-09-18T12:46:45Z</time>
      </trkpt>
      <trkpt lat="42.52327" lon="2.43724">
        <ele>1896</ele>
        <time>2024-09-18T12:46:49Z</time>
      </trkpt>
      <trkpt lat="42.52325" lon="2.43728">
        <ele>1897</ele>
        <time>2024-09-18T12:46:53Z</time>
      </trkpt>
      <trkpt lat="42.52323" lon="2.43731">
        <ele>1897</ele>
        <time>2024-09-18T12:46:57Z</time>
      </trkpt>
      <trkpt lat="42.52321" lon="2.43733">
        <ele>1897</ele>
        <time>2024-09-18T12:47:00Z</time>
      </trkpt>
      <trkpt lat="42.52318" lon="2.43734">
        <ele>1897</ele>
        <time>2024-09-18T12:47:04Z</time>
      </trkpt>
      <trkpt lat="42.52315" lon="2.43735">
        <ele>1897</ele>
        <time>2024-09-18T12:47:09Z</time>
      </trkpt>
      <trkpt lat="42.52314" lon="2.43738">
        <ele>1898</ele>
        <time>2024-09-18T12:47:13Z</time>
      </trkpt>
      <trkpt lat="42.52311" lon="2.4374">
        <ele>1899</ele>
        <time>2024-09-18T12:47:16Z</time>
      </trkpt>
      <trkpt lat="42.52308" lon="2.43742">
        <ele>1899</ele>
        <time>2024-09-18T12:47:20Z</time>
      </trkpt>
      <trkpt lat="42.52306" lon="2.43744">
        <ele>1900</ele>
        <time>2024-09-18T12:47:23Z</time>
      </trkpt>
      <trkpt lat="42.52302" lon="2.43745">
        <ele>1900</ele>
        <time>2024-09-18T12:47:29Z</time>
      </trkpt>
      <trkpt lat="42.523" lon="2.43747">
        <ele>1901</ele>
        <time>2024-09-18T12:47:33Z</time>
      </trkpt>
      <trkpt lat="42.52297" lon="2.43748">
        <ele>1901</ele>
        <time>2024-09-18T12:47:37Z</time>
      </trkpt>
      <trkpt lat="42.52294" lon="2.4375">
        <ele>1903</ele>
        <time>2024-09-18T12:47:42Z</time>
      </trkpt>
      <trkpt lat="42.52292" lon="2.43752">
        <ele>1903</ele>
        <time>2024-09-18T12:47:47Z</time>
      </trkpt>
      <trkpt lat="42.52289" lon="2.43755">
        <ele>1903</ele>
        <time>2024-09-18T12:47:54Z</time>
      </trkpt>
      <trkpt lat="42.52287" lon="2.43758">
        <ele>1904</ele>
        <time>2024-09-18T12:47:59Z</time>
      </trkpt>
      <trkpt lat="42.52285" lon="2.43761">
        <ele>1905</ele>
        <time>2024-09-18T12:48:03Z</time>
      </trkpt>
      <trkpt lat="42.52283" lon="2.43764">
        <ele>1906</ele>
        <time>2024-09-18T12:48:08Z</time>
      </trkpt>
      <trkpt lat="42.52281" lon="2.43767">
        <ele>1907</ele>
        <time>2024-09-18T12:48:14Z</time>
      </trkpt>
      <trkpt lat="42.52278" lon="2.43769">
        <ele>1908</ele>
        <time>2024-09-18T12:48:20Z</time>
      </trkpt>
      <trkpt lat="42.52276" lon="2.4377">
        <ele>1908</ele>
        <time>2024-09-18T12:48:25Z</time>
      </trkpt>
      <trkpt lat="42.52273" lon="2.43772">
        <ele>1909</ele>
        <time>2024-09-18T12:48:30Z</time>
      </trkpt>
      <trkpt lat="42.52271" lon="2.43775">
        <ele>1910</ele>
        <time>2024-09-18T12:48:37Z</time>
      </trkpt>
      <trkpt lat="42.52269" lon="2.43777">
        <ele>1912</ele>
        <time>2024-09-18T12:48:43Z</time>
      </trkpt>
      <trkpt lat="42.52268" lon="2.4378">
        <ele>1913</ele>
        <time>2024-09-18T12:48:49Z</time>
      </trkpt>
      <trkpt lat="42.52266" lon="2.43783">
        <ele>1912</ele>
        <time>2024-09-18T12:48:54Z</time>
      </trkpt>
      <trkpt lat="42.52266" lon="2.43787">
        <ele>1913</ele>
        <time>2024-09-18T12:49:00Z</time>
      </trkpt>
      <trkpt lat="42.52265" lon="2.43791">
        <ele>1913</ele>
        <time>2024-09-18T12:49:05Z</time>
      </trkpt>
      <trkpt lat="42.52263" lon="2.43794">
        <ele>1914</ele>
        <time>2024-09-18T12:49:10Z</time>
      </trkpt>
      <trkpt lat="42.52262" lon="2.43797">
        <ele>1915</ele>
        <time>2024-09-18T12:49:14Z</time>
      </trkpt>
      <trkpt lat="42.5226" lon="2.43801">
        <ele>1915</ele>
        <time>2024-09-18T12:49:19Z</time>
      </trkpt>
      <trkpt lat="42.5226" lon="2.43804">
        <ele>1917</ele>
        <time>2024-09-18T12:49:27Z</time>
      </trkpt>
      <trkpt lat="42.5226" lon="2.43808">
        <ele>1917</ele>
        <time>2024-09-18T12:49:33Z</time>
      </trkpt>
      <trkpt lat="42.5226" lon="2.43812">
        <ele>1916</ele>
        <time>2024-09-18T12:49:37Z</time>
      </trkpt>
      <trkpt lat="42.5226" lon="2.43816">
        <ele>1917</ele>
        <time>2024-09-18T12:49:42Z</time>
      </trkpt>
      <trkpt lat="42.52259" lon="2.4382">
        <ele>1918</ele>
        <time>2024-09-18T12:49:46Z</time>
      </trkpt>
      <trkpt lat="42.5226" lon="2.43824">
        <ele>1919</ele>
        <time>2024-09-18T12:49:51Z</time>
      </trkpt>
      <trkpt lat="42.52261" lon="2.43828">
        <ele>1920</ele>
        <time>2024-09-18T12:49:57Z</time>
      </trkpt>
      <trkpt lat="42.52261" lon="2.43831">
        <ele>1920</ele>
        <time>2024-09-18T12:50:03Z</time>
      </trkpt>
      <trkpt lat="42.52262" lon="2.43835">
        <ele>1921</ele>
        <time>2024-09-18T12:50:07Z</time>
      </trkpt>
      <trkpt lat="42.52262" lon="2.43839">
        <ele>1922</ele>
        <time>2024-09-18T12:50:11Z</time>
      </trkpt>
      <trkpt lat="42.52262" lon="2.43843">
        <ele>1923</ele>
        <time>2024-09-18T12:50:17Z</time>
      </trkpt>
      <trkpt lat="42.52262" lon="2.43847">
        <ele>1925</ele>
        <time>2024-09-18T12:51:08Z</time>
      </trkpt>
      <trkpt lat="42.52264" lon="2.43849">
        <ele>1928</ele>
        <time>2024-09-18T12:53:29Z</time>
      </trkpt>
      <trkpt lat="42.52263" lon="2.4385">
        <ele>1924</ele>
        <time>2024-09-18T12:54:35Z</time>
      </trkpt>
      <trkpt lat="42.52262" lon="2.43852">
        <ele>1928</ele>
        <time>2024-09-18T12:56:00Z</time>
      </trkpt>
      <trkpt lat="42.52263" lon="2.43852">
        <ele>1928</ele>
        <time>2024-09-18T12:57:08Z</time>
      </trkpt>
      <trkpt lat="42.52263" lon="2.43854">
        <ele>1928</ele>
        <time>2024-09-18T12:57:34Z</time>
      </trkpt>
      <trkpt lat="42.52265" lon="2.43858">
        <ele>1928</ele>
        <time>2024-09-18T12:57:37Z</time>
      </trkpt>
      <trkpt lat="42.52266" lon="2.43861">
        <ele>1927</ele>
        <time>2024-09-18T12:57:40Z</time>
      </trkpt>
      <trkpt lat="42.52267" lon="2.43865">
        <ele>1926</ele>
        <time>2024-09-18T12:57:43Z</time>
      </trkpt>
      <trkpt lat="42.52268" lon="2.43869">
        <ele>1927</ele>
        <time>2024-09-18T12:57:46Z</time>
      </trkpt>
      <trkpt lat="42.52269" lon="2.43872">
        <ele>1927</ele>
        <time>2024-09-18T12:57:49Z</time>
      </trkpt>
      <trkpt lat="42.52272" lon="2.43875">
        <ele>1927</ele>
        <time>2024-09-18T12:57:52Z</time>
      </trkpt>
      <trkpt lat="42.52275" lon="2.43876">
        <ele>1927</ele>
        <time>2024-09-18T12:57:58Z</time>
      </trkpt>
      <trkpt lat="42.52278" lon="2.43877">
        <ele>1927</ele>
        <time>2024-09-18T12:58:03Z</time>
      </trkpt>
      <trkpt lat="42.52281" lon="2.43879">
        <ele>1928</ele>
        <time>2024-09-18T12:58:07Z</time>
      </trkpt>
      <trkpt lat="42.52284" lon="2.4388">
        <ele>1928</ele>
        <time>2024-09-18T12:58:10Z</time>
      </trkpt>
      <trkpt lat="42.52287" lon="2.43881">
        <ele>1929</ele>
        <time>2024-09-18T12:58:15Z</time>
      </trkpt>
      <trkpt lat="42.5229" lon="2.43883">
        <ele>1928</ele>
        <time>2024-09-18T12:58:19Z</time>
      </trkpt>
      <trkpt lat="42.52292" lon="2.43885">
        <ele>1929</ele>
        <time>2024-09-18T12:58:22Z</time>
      </trkpt>
      <trkpt lat="42.52295" lon="2.43888">
        <ele>1930</ele>
        <time>2024-09-18T12:58:26Z</time>
      </trkpt>
      <trkpt lat="42.52297" lon="2.4389">
        <ele>1929</ele>
        <time>2024-09-18T12:58:27Z</time>
      </trkpt>
      <trkpt lat="42.523" lon="2.43892">
        <ele>1929</ele>
        <time>2024-09-18T12:58:31Z</time>
      </trkpt>
      <trkpt lat="42.52303" lon="2.43895">
        <ele>1929</ele>
        <time>2024-09-18T12:58:36Z</time>
      </trkpt>
      <trkpt lat="42.52305" lon="2.43897">
        <ele>1928</ele>
        <time>2024-09-18T12:58:40Z</time>
      </trkpt>
      <trkpt lat="42.52308" lon="2.43899">
        <ele>1930</ele>
        <time>2024-09-18T12:58:47Z</time>
      </trkpt>
      <trkpt lat="42.52311" lon="2.43899">
        <ele>1930</ele>
        <time>2024-09-18T12:58:50Z</time>
      </trkpt>
      <trkpt lat="42.52314" lon="2.43899">
        <ele>1931</ele>
        <time>2024-09-18T12:58:54Z</time>
      </trkpt>
      <trkpt lat="42.52318" lon="2.43899">
        <ele>1932</ele>
        <time>2024-09-18T12:58:59Z</time>
      </trkpt>
      <trkpt lat="42.5232" lon="2.439">
        <ele>1932</ele>
        <time>2024-09-18T12:59:03Z</time>
      </trkpt>
      <trkpt lat="42.52323" lon="2.43901">
        <ele>1933</ele>
        <time>2024-09-18T12:59:07Z</time>
      </trkpt>
      <trkpt lat="42.52326" lon="2.43902">
        <ele>1932</ele>
        <time>2024-09-18T12:59:11Z</time>
      </trkpt>
      <trkpt lat="42.52329" lon="2.43903">
        <ele>1933</ele>
        <time>2024-09-18T12:59:15Z</time>
      </trkpt>
      <trkpt lat="42.52331" lon="2.43905">
        <ele>1933</ele>
        <time>2024-09-18T12:59:18Z</time>
      </trkpt>
      <trkpt lat="42.52334" lon="2.43908">
        <ele>1933</ele>
        <time>2024-09-18T12:59:22Z</time>
      </trkpt>
      <trkpt lat="42.52336" lon="2.43911">
        <ele>1933</ele>
        <time>2024-09-18T12:59:25Z</time>
      </trkpt>
      <trkpt lat="42.52339" lon="2.43912">
        <ele>1933</ele>
        <time>2024-09-18T12:59:29Z</time>
      </trkpt>
      <trkpt lat="42.52341" lon="2.43914">
        <ele>1934</ele>
        <time>2024-09-18T12:59:32Z</time>
      </trkpt>
      <trkpt lat="42.52344" lon="2.43916">
        <ele>1935</ele>
        <time>2024-09-18T12:59:36Z</time>
      </trkpt>
      <trkpt lat="42.52346" lon="2.43919">
        <ele>1936</ele>
        <time>2024-09-18T12:59:41Z</time>
      </trkpt>
      <trkpt lat="42.52349" lon="2.43921">
        <ele>1935</ele>
        <time>2024-09-18T12:59:44Z</time>
      </trkpt>
      <trkpt lat="42.52351" lon="2.43923">
        <ele>1936</ele>
        <time>2024-09-18T12:59:48Z</time>
      </trkpt>
      <trkpt lat="42.52354" lon="2.43926">
        <ele>1936</ele>
        <time>2024-09-18T12:59:52Z</time>
      </trkpt>
      <trkpt lat="42.52357" lon="2.43928">
        <ele>1936</ele>
        <time>2024-09-18T12:59:55Z</time>
      </trkpt>
      <trkpt lat="42.5236" lon="2.4393">
        <ele>1936</ele>
        <time>2024-09-18T12:59:58Z</time>
      </trkpt>
      <trkpt lat="42.52361" lon="2.43933">
        <ele>1935</ele>
        <time>2024-09-18T13:00:02Z</time>
      </trkpt>
      <trkpt lat="42.52363" lon="2.43936">
        <ele>1935</ele>
        <time>2024-09-18T13:00:05Z</time>
      </trkpt>
      <trkpt lat="42.52364" lon="2.4394">
        <ele>1935</ele>
        <time>2024-09-18T13:00:08Z</time>
      </trkpt>
      <trkpt lat="42.52366" lon="2.43943">
        <ele>1936</ele>
        <time>2024-09-18T13:00:12Z</time>
      </trkpt>
      <trkpt lat="42.52367" lon="2.43946">
        <ele>1936</ele>
        <time>2024-09-18T13:00:18Z</time>
      </trkpt>
      <trkpt lat="42.52369" lon="2.4395">
        <ele>1937</ele>
        <time>2024-09-18T13:00:22Z</time>
      </trkpt>
      <trkpt lat="42.52368" lon="2.43953">
        <ele>1939</ele>
        <time>2024-09-18T13:00:32Z</time>
      </trkpt>
      <trkpt lat="42.52366" lon="2.43955">
        <ele>1940</ele>
        <time>2024-09-18T13:00:36Z</time>
      </trkpt>
      <trkpt lat="42.52365" lon="2.43958">
        <ele>1941</ele>
        <time>2024-09-18T13:00:41Z</time>
      </trkpt>
      <trkpt lat="42.52365" lon="2.43962">
        <ele>1942</ele>
        <time>2024-09-18T13:00:51Z</time>
      </trkpt>
      <trkpt lat="42.52365" lon="2.43965">
        <ele>1940</ele>
        <time>2024-09-18T13:01:01Z</time>
      </trkpt>
      <trkpt lat="42.52366" lon="2.43969">
        <ele>1940</ele>
        <time>2024-09-18T13:01:04Z</time>
      </trkpt>
      <trkpt lat="42.52367" lon="2.43972">
        <ele>1940</ele>
        <time>2024-09-18T13:01:09Z</time>
      </trkpt>
      <trkpt lat="42.5237" lon="2.43974">
        <ele>1940</ele>
        <time>2024-09-18T13:01:12Z</time>
      </trkpt>
      <trkpt lat="42.52372" lon="2.43973">
        <ele>1941</ele>
        <time>2024-09-18T13:01:16Z</time>
      </trkpt>
      <trkpt lat="42.52375" lon="2.43971">
        <ele>1941</ele>
        <time>2024-09-18T13:01:20Z</time>
      </trkpt>
      <trkpt lat="42.52378" lon="2.43969">
        <ele>1941</ele>
        <time>2024-09-18T13:01:24Z</time>
      </trkpt>
      <trkpt lat="42.52381" lon="2.43966">
        <ele>1941</ele>
        <time>2024-09-18T13:01:27Z</time>
      </trkpt>
      <trkpt lat="42.52383" lon="2.43966">
        <ele>1942</ele>
        <time>2024-09-18T13:01:31Z</time>
      </trkpt>
      <trkpt lat="42.52386" lon="2.43965">
        <ele>1941</ele>
        <time>2024-09-18T13:01:34Z</time>
      </trkpt>
      <trkpt lat="42.52389" lon="2.43966">
        <ele>1940</ele>
        <time>2024-09-18T13:01:38Z</time>
      </trkpt>
      <trkpt lat="42.52392" lon="2.43967">
        <ele>1940</ele>
        <time>2024-09-18T13:01:41Z</time>
      </trkpt>
      <trkpt lat="42.52395" lon="2.43968">
        <ele>1939</ele>
        <time>2024-09-18T13:01:45Z</time>
      </trkpt>
      <trkpt lat="42.52398" lon="2.43969">
        <ele>1939</ele>
        <time>2024-09-18T13:01:49Z</time>
      </trkpt>
      <trkpt lat="42.52402" lon="2.4397">
        <ele>1939</ele>
        <time>2024-09-18T13:01:53Z</time>
      </trkpt>
      <trkpt lat="42.52405" lon="2.43971">
        <ele>1939</ele>
        <time>2024-09-18T13:01:56Z</time>
      </trkpt>
      <trkpt lat="42.52408" lon="2.43971">
        <ele>1939</ele>
        <time>2024-09-18T13:01:59Z</time>
      </trkpt>
      <trkpt lat="42.52411" lon="2.43971">
        <ele>1938</ele>
        <time>2024-09-18T13:02:03Z</time>
      </trkpt>
      <trkpt lat="42.52414" lon="2.4397">
        <ele>1937</ele>
        <time>2024-09-18T13:02:08Z</time>
      </trkpt>
      <trkpt lat="42.52417" lon="2.4397">
        <ele>1937</ele>
        <time>2024-09-18T13:02:11Z</time>
      </trkpt>
      <trkpt lat="42.52421" lon="2.4397">
        <ele>1935</ele>
        <time>2024-09-18T13:02:15Z</time>
      </trkpt>
      <trkpt lat="42.52424" lon="2.4397">
        <ele>1934</ele>
        <time>2024-09-18T13:02:19Z</time>
      </trkpt>
      <trkpt lat="42.52427" lon="2.43971">
        <ele>1933</ele>
        <time>2024-09-18T13:02:23Z</time>
      </trkpt>
      <trkpt lat="42.52428" lon="2.43974">
        <ele>1934</ele>
        <time>2024-09-18T13:02:27Z</time>
      </trkpt>
      <trkpt lat="42.52428" lon="2.43978">
        <ele>1935</ele>
        <time>2024-09-18T13:02:31Z</time>
      </trkpt>
      <trkpt lat="42.52427" lon="2.43983">
        <ele>1935</ele>
        <time>2024-09-18T13:02:35Z</time>
      </trkpt>
      <trkpt lat="42.52426" lon="2.43987">
        <ele>1934</ele>
        <time>2024-09-18T13:02:38Z</time>
      </trkpt>
      <trkpt lat="42.52427" lon="2.4399">
        <ele>1935</ele>
        <time>2024-09-18T13:02:41Z</time>
      </trkpt>
      <trkpt lat="42.52429" lon="2.43993">
        <ele>1935</ele>
        <time>2024-09-18T13:02:43Z</time>
      </trkpt>
      <trkpt lat="42.52432" lon="2.43992">
        <ele>1935</ele>
        <time>2024-09-18T13:02:46Z</time>
      </trkpt>
      <trkpt lat="42.52434" lon="2.4399">
        <ele>1936</ele>
        <time>2024-09-18T13:02:49Z</time>
      </trkpt>
      <trkpt lat="42.52437" lon="2.43988">
        <ele>1937</ele>
        <time>2024-09-18T13:02:53Z</time>
      </trkpt>
      <trkpt lat="42.52439" lon="2.43986">
        <ele>1937</ele>
        <time>2024-09-18T13:02:56Z</time>
      </trkpt>
      <trkpt lat="42.52442" lon="2.43983">
        <ele>1937</ele>
        <time>2024-09-18T13:02:59Z</time>
      </trkpt>
      <trkpt lat="42.52444" lon="2.43981">
        <ele>1937</ele>
        <time>2024-09-18T13:03:02Z</time>
      </trkpt>
      <trkpt lat="42.52447" lon="2.43979">
        <ele>1936</ele>
        <time>2024-09-18T13:03:06Z</time>
      </trkpt>
      <trkpt lat="42.5245" lon="2.43978">
        <ele>1935</ele>
        <time>2024-09-18T13:03:09Z</time>
      </trkpt>
      <trkpt lat="42.52453" lon="2.43977">
        <ele>1934</ele>
        <time>2024-09-18T13:03:13Z</time>
      </trkpt>
      <trkpt lat="42.52456" lon="2.43977">
        <ele>1933</ele>
        <time>2024-09-18T13:03:16Z</time>
      </trkpt>
      <trkpt lat="42.52459" lon="2.43977">
        <ele>1933</ele>
        <time>2024-09-18T13:03:20Z</time>
      </trkpt>
      <trkpt lat="42.52463" lon="2.43976">
        <ele>1931</ele>
        <time>2024-09-18T13:03:24Z</time>
      </trkpt>
      <trkpt lat="42.52466" lon="2.43974">
        <ele>1930</ele>
        <time>2024-09-18T13:03:28Z</time>
      </trkpt>
      <trkpt lat="42.52469" lon="2.43973">
        <ele>1929</ele>
        <time>2024-09-18T13:03:32Z</time>
      </trkpt>
      <trkpt lat="42.52473" lon="2.43972">
        <ele>1929</ele>
        <time>2024-09-18T13:03:36Z</time>
      </trkpt>
      <trkpt lat="42.52476" lon="2.4397">
        <ele>1927</ele>
        <time>2024-09-18T13:03:43Z</time>
      </trkpt>
      <trkpt lat="42.52478" lon="2.43968">
        <ele>1927</ele>
        <time>2024-09-18T13:03:47Z</time>
      </trkpt>
      <trkpt lat="42.52481" lon="2.43966">
        <ele>1926</ele>
        <time>2024-09-18T13:03:51Z</time>
      </trkpt>
      <trkpt lat="42.52483" lon="2.43963">
        <ele>1926</ele>
        <time>2024-09-18T13:03:55Z</time>
      </trkpt>
      <trkpt lat="42.52483" lon="2.4396">
        <ele>1926</ele>
        <time>2024-09-18T13:03:59Z</time>
      </trkpt>
      <trkpt lat="42.52481" lon="2.43957">
        <ele>1925</ele>
        <time>2024-09-18T13:04:03Z</time>
      </trkpt>
      <trkpt lat="42.52481" lon="2.43954">
        <ele>1924</ele>
        <time>2024-09-18T13:04:09Z</time>
      </trkpt>
      <trkpt lat="42.52481" lon="2.4395">
        <ele>1924</ele>
        <time>2024-09-18T13:04:14Z</time>
      </trkpt>
      <trkpt lat="42.5248" lon="2.43946">
        <ele>1926</ele>
        <time>2024-09-18T13:04:18Z</time>
      </trkpt>
      <trkpt lat="42.52478" lon="2.43944">
        <ele>1925</ele>
        <time>2024-09-18T13:04:20Z</time>
      </trkpt>
      <trkpt lat="42.52476" lon="2.43941">
        <ele>1923</ele>
        <time>2024-09-18T13:04:29Z</time>
      </trkpt>
      <trkpt lat="42.52473" lon="2.43938">
        <ele>1923</ele>
        <time>2024-09-18T13:04:32Z</time>
      </trkpt>
      <trkpt lat="42.52471" lon="2.43935">
        <ele>1922</ele>
        <time>2024-09-18T13:04:36Z</time>
      </trkpt>
      <trkpt lat="42.52469" lon="2.43932">
        <ele>1920</ele>
        <time>2024-09-18T13:04:39Z</time>
      </trkpt>
      <trkpt lat="42.52468" lon="2.43928">
        <ele>1920</ele>
        <time>2024-09-18T13:04:47Z</time>
      </trkpt>
      <trkpt lat="42.52469" lon="2.43926">
        <ele>1919</ele>
        <time>2024-09-18T13:04:50Z</time>
      </trkpt>
      <trkpt lat="42.52471" lon="2.43926">
        <ele>1917</ele>
        <time>2024-09-18T13:04:54Z</time>
      </trkpt>
      <trkpt lat="42.52474" lon="2.43925">
        <ele>1917</ele>
        <time>2024-09-18T13:04:58Z</time>
      </trkpt>
      <trkpt lat="42.52476" lon="2.43924">
        <ele>1916</ele>
        <time>2024-09-18T13:05:02Z</time>
      </trkpt>
      <trkpt lat="42.52479" lon="2.43922">
        <ele>1916</ele>
        <time>2024-09-18T13:05:07Z</time>
      </trkpt>
      <trkpt lat="42.52483" lon="2.4392">
        <ele>1916</ele>
        <time>2024-09-18T13:05:13Z</time>
      </trkpt>
      <trkpt lat="42.52484" lon="2.43917">
        <ele>1916</ele>
        <time>2024-09-18T13:05:16Z</time>
      </trkpt>
      <trkpt lat="42.52483" lon="2.43914">
        <ele>1916</ele>
        <time>2024-09-18T13:05:20Z</time>
      </trkpt>
      <trkpt lat="42.52482" lon="2.43911">
        <ele>1915</ele>
        <time>2024-09-18T13:05:23Z</time>
      </trkpt>
      <trkpt lat="42.5248" lon="2.43908">
        <ele>1915</ele>
        <time>2024-09-18T13:05:26Z</time>
      </trkpt>
      <trkpt lat="42.52478" lon="2.43906">
        <ele>1915</ele>
        <time>2024-09-18T13:05:30Z</time>
      </trkpt>
      <trkpt lat="42.52477" lon="2.43903">
        <ele>1914</ele>
        <time>2024-09-18T13:05:34Z</time>
      </trkpt>
      <trkpt lat="42.52477" lon="2.43899">
        <ele>1912</ele>
        <time>2024-09-18T13:05:39Z</time>
      </trkpt>
      <trkpt lat="42.52479" lon="2.43897">
        <ele>1910</ele>
        <time>2024-09-18T13:05:46Z</time>
      </trkpt>
      <trkpt lat="42.52481" lon="2.43896">
        <ele>1908</ele>
        <time>2024-09-18T13:05:49Z</time>
      </trkpt>
      <trkpt lat="42.52485" lon="2.43895">
        <ele>1907</ele>
        <time>2024-09-18T13:05:53Z</time>
      </trkpt>
      <trkpt lat="42.52488" lon="2.43895">
        <ele>1907</ele>
        <time>2024-09-18T13:05:55Z</time>
      </trkpt>
      <trkpt lat="42.5249" lon="2.43894">
        <ele>1905</ele>
        <time>2024-09-18T13:05:59Z</time>
      </trkpt>
      <trkpt lat="42.52493" lon="2.43893">
        <ele>1904</ele>
        <time>2024-09-18T13:06:02Z</time>
      </trkpt>
      <trkpt lat="42.52496" lon="2.43893">
        <ele>1904</ele>
        <time>2024-09-18T13:06:06Z</time>
      </trkpt>
      <trkpt lat="42.52499" lon="2.43894">
        <ele>1903</ele>
        <time>2024-09-18T13:06:09Z</time>
      </trkpt>
      <trkpt lat="42.52502" lon="2.43896">
        <ele>1903</ele>
        <time>2024-09-18T13:06:14Z</time>
      </trkpt>
      <trkpt lat="42.52505" lon="2.43897">
        <ele>1903</ele>
        <time>2024-09-18T13:06:17Z</time>
      </trkpt>
      <trkpt lat="42.52508" lon="2.43898">
        <ele>1904</ele>
        <time>2024-09-18T13:06:21Z</time>
      </trkpt>
      <trkpt lat="42.5251" lon="2.43897">
        <ele>1904</ele>
        <time>2024-09-18T13:06:24Z</time>
      </trkpt>
      <trkpt lat="42.52513" lon="2.43896">
        <ele>1905</ele>
        <time>2024-09-18T13:06:28Z</time>
      </trkpt>
      <trkpt lat="42.52517" lon="2.43895">
        <ele>1905</ele>
        <time>2024-09-18T13:06:32Z</time>
      </trkpt>
      <trkpt lat="42.52521" lon="2.43894">
        <ele>1905</ele>
        <time>2024-09-18T13:06:36Z</time>
      </trkpt>
      <trkpt lat="42.52524" lon="2.43893">
        <ele>1903</ele>
        <time>2024-09-18T13:06:39Z</time>
      </trkpt>
      <trkpt lat="42.52527" lon="2.43894">
        <ele>1903</ele>
        <time>2024-09-18T13:06:42Z</time>
      </trkpt>
      <trkpt lat="42.52529" lon="2.43894">
        <ele>1902</ele>
        <time>2024-09-18T13:06:45Z</time>
      </trkpt>
      <trkpt lat="42.52532" lon="2.43896">
        <ele>1900</ele>
        <time>2024-09-18T13:06:49Z</time>
      </trkpt>
      <trkpt lat="42.52535" lon="2.43898">
        <ele>1900</ele>
        <time>2024-09-18T13:06:52Z</time>
      </trkpt>
      <trkpt lat="42.52538" lon="2.439">
        <ele>1900</ele>
        <time>2024-09-18T13:06:54Z</time>
      </trkpt>
      <trkpt lat="42.52541" lon="2.43902">
        <ele>1900</ele>
        <time>2024-09-18T13:06:57Z</time>
      </trkpt>
      <trkpt lat="42.52544" lon="2.43903">
        <ele>1900</ele>
        <time>2024-09-18T13:07:00Z</time>
      </trkpt>
      <trkpt lat="42.52547" lon="2.43905">
        <ele>1899</ele>
        <time>2024-09-18T13:07:04Z</time>
      </trkpt>
      <trkpt lat="42.5255" lon="2.43906">
        <ele>1900</ele>
        <time>2024-09-18T13:07:07Z</time>
      </trkpt>
      <trkpt lat="42.52553" lon="2.43908">
        <ele>1899</ele>
        <time>2024-09-18T13:07:10Z</time>
      </trkpt>
      <trkpt lat="42.52556" lon="2.43911">
        <ele>1900</ele>
        <time>2024-09-18T13:07:14Z</time>
      </trkpt>
      <trkpt lat="42.52558" lon="2.43914">
        <ele>1899</ele>
        <time>2024-09-18T13:07:19Z</time>
      </trkpt>
      <trkpt lat="42.52561" lon="2.43916">
        <ele>1899</ele>
        <time>2024-09-18T13:07:23Z</time>
      </trkpt>
      <trkpt lat="42.52563" lon="2.43919">
        <ele>1900</ele>
        <time>2024-09-18T13:07:28Z</time>
      </trkpt>
      <trkpt lat="42.52566" lon="2.43921">
        <ele>1900</ele>
        <time>2024-09-18T13:07:31Z</time>
      </trkpt>
      <trkpt lat="42.52568" lon="2.43925">
        <ele>1900</ele>
        <time>2024-09-18T13:07:35Z</time>
      </trkpt>
      <trkpt lat="42.52571" lon="2.43928">
        <ele>1902</ele>
        <time>2024-09-18T13:07:53Z</time>
      </trkpt>
      <trkpt lat="42.52572" lon="2.43931">
        <ele>1899</ele>
        <time>2024-09-18T13:08:23Z</time>
      </trkpt>
      <trkpt lat="42.52573" lon="2.43935">
        <ele>1899</ele>
        <time>2024-09-18T13:08:29Z</time>
      </trkpt>
      <trkpt lat="42.52575" lon="2.43938">
        <ele>1898</ele>
        <time>2024-09-18T13:08:44Z</time>
      </trkpt>
      <trkpt lat="42.52576" lon="2.43942">
        <ele>1898</ele>
        <time>2024-09-18T13:08:47Z</time>
      </trkpt>
      <trkpt lat="42.52577" lon="2.43945">
        <ele>1898</ele>
        <time>2024-09-18T13:08:50Z</time>
      </trkpt>
      <trkpt lat="42.52578" lon="2.4395">
        <ele>1896</ele>
        <time>2024-09-18T13:08:54Z</time>
      </trkpt>
      <trkpt lat="42.52579" lon="2.43954">
        <ele>1897</ele>
        <time>2024-09-18T13:08:58Z</time>
      </trkpt>
      <trkpt lat="42.52579" lon="2.43958">
        <ele>1898</ele>
        <time>2024-09-18T13:08:59Z</time>
      </trkpt>
      <trkpt lat="42.52582" lon="2.43961">
        <ele>1899</ele>
        <time>2024-09-18T13:09:02Z</time>
      </trkpt>
      <trkpt lat="42.52583" lon="2.43966">
        <ele>1897</ele>
        <time>2024-09-18T13:09:08Z</time>
      </trkpt>
      <trkpt lat="42.52585" lon="2.43969">
        <ele>1898</ele>
        <time>2024-09-18T13:09:10Z</time>
      </trkpt>
      <trkpt lat="42.52588" lon="2.43972">
        <ele>1898</ele>
        <time>2024-09-18T13:09:13Z</time>
      </trkpt>
      <trkpt lat="42.5259" lon="2.43976">
        <ele>1899</ele>
        <time>2024-09-18T13:09:16Z</time>
      </trkpt>
      <trkpt lat="42.52592" lon="2.4398">
        <ele>1899</ele>
        <time>2024-09-18T13:09:20Z</time>
      </trkpt>
      <trkpt lat="42.52595" lon="2.43983">
        <ele>1898</ele>
        <time>2024-09-18T13:09:23Z</time>
      </trkpt>
      <trkpt lat="42.52597" lon="2.43986">
        <ele>1897</ele>
        <time>2024-09-18T13:09:26Z</time>
      </trkpt>
      <trkpt lat="42.526" lon="2.4399">
        <ele>1897</ele>
        <time>2024-09-18T13:09:30Z</time>
      </trkpt>
      <trkpt lat="42.52602" lon="2.43993">
        <ele>1898</ele>
        <time>2024-09-18T13:09:32Z</time>
      </trkpt>
      <trkpt lat="42.52604" lon="2.43998">
        <ele>1898</ele>
        <time>2024-09-18T13:09:35Z</time>
      </trkpt>
      <trkpt lat="42.52606" lon="2.44002">
        <ele>1896</ele>
        <time>2024-09-18T13:09:39Z</time>
      </trkpt>
      <trkpt lat="42.52608" lon="2.44005">
        <ele>1896</ele>
        <time>2024-09-18T13:09:42Z</time>
      </trkpt>
      <trkpt lat="42.52611" lon="2.44007">
        <ele>1896</ele>
        <time>2024-09-18T13:09:45Z</time>
      </trkpt>
      <trkpt lat="42.52614" lon="2.44009">
        <ele>1897</ele>
        <time>2024-09-18T13:09:48Z</time>
      </trkpt>
      <trkpt lat="42.52617" lon="2.4401">
        <ele>1898</ele>
        <time>2024-09-18T13:09:53Z</time>
      </trkpt>
      <trkpt lat="42.5262" lon="2.44011">
        <ele>1897</ele>
        <time>2024-09-18T13:09:58Z</time>
      </trkpt>
      <trkpt lat="42.52623" lon="2.44013">
        <ele>1898</ele>
        <time>2024-09-18T13:10:04Z</time>
      </trkpt>
      <trkpt lat="42.52626" lon="2.44014">
        <ele>1897</ele>
        <time>2024-09-18T13:10:07Z</time>
      </trkpt>
      <trkpt lat="42.52629" lon="2.44014">
        <ele>1896</ele>
        <time>2024-09-18T13:10:10Z</time>
      </trkpt>
      <trkpt lat="42.52632" lon="2.44015">
        <ele>1895</ele>
        <time>2024-09-18T13:10:13Z</time>
      </trkpt>
      <trkpt lat="42.52636" lon="2.44016">
        <ele>1895</ele>
        <time>2024-09-18T13:10:18Z</time>
      </trkpt>
      <trkpt lat="42.52639" lon="2.44015">
        <ele>1896</ele>
        <time>2024-09-18T13:10:20Z</time>
      </trkpt>
      <trkpt lat="42.52643" lon="2.44014">
        <ele>1895</ele>
        <time>2024-09-18T13:10:23Z</time>
      </trkpt>
      <trkpt lat="42.52646" lon="2.44014">
        <ele>1894</ele>
        <time>2024-09-18T13:10:26Z</time>
      </trkpt>
      <trkpt lat="42.52649" lon="2.44015">
        <ele>1894</ele>
        <time>2024-09-18T13:10:29Z</time>
      </trkpt>
      <trkpt lat="42.52653" lon="2.44016">
        <ele>1894</ele>
        <time>2024-09-18T13:10:33Z</time>
      </trkpt>
      <trkpt lat="42.52656" lon="2.44018">
        <ele>1894</ele>
        <time>2024-09-18T13:10:36Z</time>
      </trkpt>
      <trkpt lat="42.52659" lon="2.44019">
        <ele>1894</ele>
        <time>2024-09-18T13:10:40Z</time>
      </trkpt>
      <trkpt lat="42.52662" lon="2.4402">
        <ele>1893</ele>
        <time>2024-09-18T13:10:43Z</time>
      </trkpt>
      <trkpt lat="42.52664" lon="2.44022">
        <ele>1893</ele>
        <time>2024-09-18T13:10:46Z</time>
      </trkpt>
      <trkpt lat="42.52668" lon="2.44024">
        <ele>1893</ele>
        <time>2024-09-18T13:10:51Z</time>
      </trkpt>
      <trkpt lat="42.52671" lon="2.44025">
        <ele>1892</ele>
        <time>2024-09-18T13:10:54Z</time>
      </trkpt>
      <trkpt lat="42.52674" lon="2.44029">
        <ele>1892</ele>
        <time>2024-09-18T13:10:57Z</time>
      </trkpt>
      <trkpt lat="42.52677" lon="2.44032">
        <ele>1892</ele>
        <time>2024-09-18T13:10:59Z</time>
      </trkpt>
      <trkpt lat="42.52678" lon="2.44035">
        <ele>1891</ele>
        <time>2024-09-18T13:11:02Z</time>
      </trkpt>
      <trkpt lat="42.5268" lon="2.44038">
        <ele>1891</ele>
        <time>2024-09-18T13:11:04Z</time>
      </trkpt>
      <trkpt lat="42.52682" lon="2.44042">
        <ele>1891</ele>
        <time>2024-09-18T13:11:08Z</time>
      </trkpt>
      <trkpt lat="42.52685" lon="2.44045">
        <ele>1890</ele>
        <time>2024-09-18T13:11:10Z</time>
      </trkpt>
      <trkpt lat="42.52687" lon="2.44048">
        <ele>1890</ele>
        <time>2024-09-18T13:11:13Z</time>
      </trkpt>
      <trkpt lat="42.52689" lon="2.44051">
        <ele>1889</ele>
        <time>2024-09-18T13:11:15Z</time>
      </trkpt>
      <trkpt lat="42.52692" lon="2.44054">
        <ele>1889</ele>
        <time>2024-09-18T13:11:19Z</time>
      </trkpt>
      <trkpt lat="42.52694" lon="2.44057">
        <ele>1889</ele>
        <time>2024-09-18T13:11:22Z</time>
      </trkpt>
      <trkpt lat="42.52696" lon="2.4406">
        <ele>1888</ele>
        <time>2024-09-18T13:11:25Z</time>
      </trkpt>
      <trkpt lat="42.52699" lon="2.44063">
        <ele>1888</ele>
        <time>2024-09-18T13:11:29Z</time>
      </trkpt>
      <trkpt lat="42.52701" lon="2.44065">
        <ele>1887</ele>
        <time>2024-09-18T13:11:33Z</time>
      </trkpt>
      <trkpt lat="42.52704" lon="2.44068">
        <ele>1887</ele>
        <time>2024-09-18T13:11:36Z</time>
      </trkpt>
      <trkpt lat="42.52707" lon="2.4407">
        <ele>1887</ele>
        <time>2024-09-18T13:11:40Z</time>
      </trkpt>
      <trkpt lat="42.5271" lon="2.44072">
        <ele>1887</ele>
        <time>2024-09-18T13:11:43Z</time>
      </trkpt>
      <trkpt lat="42.52712" lon="2.44074">
        <ele>1887</ele>
        <time>2024-09-18T13:11:46Z</time>
      </trkpt>
      <trkpt lat="42.52715" lon="2.44076">
        <ele>1886</ele>
        <time>2024-09-18T13:11:49Z</time>
      </trkpt>
      <trkpt lat="42.52718" lon="2.44079">
        <ele>1885</ele>
        <time>2024-09-18T13:11:52Z</time>
      </trkpt>
      <trkpt lat="42.52721" lon="2.44081">
        <ele>1885</ele>
        <time>2024-09-18T13:11:56Z</time>
      </trkpt>
      <trkpt lat="42.52723" lon="2.44084">
        <ele>1885</ele>
        <time>2024-09-18T13:12:00Z</time>
      </trkpt>
      <trkpt lat="42.52726" lon="2.44086">
        <ele>1886</ele>
        <time>2024-09-18T13:12:03Z</time>
      </trkpt>
      <trkpt lat="42.52729" lon="2.44088">
        <ele>1888</ele>
        <time>2024-09-18T13:12:06Z</time>
      </trkpt>
      <trkpt lat="42.52731" lon="2.44089">
        <ele>1888</ele>
        <time>2024-09-18T13:12:11Z</time>
      </trkpt>
      <trkpt lat="42.52735" lon="2.4409">
        <ele>1887</ele>
        <time>2024-09-18T13:12:16Z</time>
      </trkpt>
      <trkpt lat="42.52738" lon="2.44092">
        <ele>1887</ele>
        <time>2024-09-18T13:12:19Z</time>
      </trkpt>
      <trkpt lat="42.52741" lon="2.44092">
        <ele>1885</ele>
        <time>2024-09-18T13:12:24Z</time>
      </trkpt>
      <trkpt lat="42.52745" lon="2.44093">
        <ele>1885</ele>
        <time>2024-09-18T13:12:28Z</time>
      </trkpt>
      <trkpt lat="42.52748" lon="2.44095">
        <ele>1884</ele>
        <time>2024-09-18T13:12:33Z</time>
      </trkpt>
      <trkpt lat="42.52751" lon="2.44095">
        <ele>1884</ele>
        <time>2024-09-18T13:12:36Z</time>
      </trkpt>
      <trkpt lat="42.52754" lon="2.44095">
        <ele>1885</ele>
        <time>2024-09-18T13:12:40Z</time>
      </trkpt>
      <trkpt lat="42.52757" lon="2.44093">
        <ele>1885</ele>
        <time>2024-09-18T13:12:43Z</time>
      </trkpt>
      <trkpt lat="42.5276" lon="2.44094">
        <ele>1885</ele>
        <time>2024-09-18T13:12:47Z</time>
      </trkpt>
      <trkpt lat="42.52763" lon="2.44093">
        <ele>1883</ele>
        <time>2024-09-18T13:12:51Z</time>
      </trkpt>
      <trkpt lat="42.52766" lon="2.4409">
        <ele>1882</ele>
        <time>2024-09-18T13:12:55Z</time>
      </trkpt>
      <trkpt lat="42.52769" lon="2.44089">
        <ele>1882</ele>
        <time>2024-09-18T13:12:59Z</time>
      </trkpt>
      <trkpt lat="42.52772" lon="2.44089">
        <ele>1881</ele>
        <time>2024-09-18T13:13:03Z</time>
      </trkpt>
      <trkpt lat="42.52776" lon="2.44089">
        <ele>1880</ele>
        <time>2024-09-18T13:13:08Z</time>
      </trkpt>
      <trkpt lat="42.52779" lon="2.44088">
        <ele>1880</ele>
        <time>2024-09-18T13:13:11Z</time>
      </trkpt>
      <trkpt lat="42.52782" lon="2.44087">
        <ele>1879</ele>
        <time>2024-09-18T13:13:16Z</time>
      </trkpt>
      <trkpt lat="42.52785" lon="2.44086">
        <ele>1879</ele>
        <time>2024-09-18T13:13:21Z</time>
      </trkpt>
      <trkpt lat="42.52789" lon="2.44086">
        <ele>1879</ele>
        <time>2024-09-18T13:13:27Z</time>
      </trkpt>
      <trkpt lat="42.52792" lon="2.44085">
        <ele>1879</ele>
        <time>2024-09-18T13:13:32Z</time>
      </trkpt>
      <trkpt lat="42.52795" lon="2.44083">
        <ele>1879</ele>
        <time>2024-09-18T13:13:37Z</time>
      </trkpt>
      <trkpt lat="42.52798" lon="2.44083">
        <ele>1879</ele>
        <time>2024-09-18T13:13:41Z</time>
      </trkpt>
      <trkpt lat="42.52801" lon="2.44082">
        <ele>1879</ele>
        <time>2024-09-18T13:13:47Z</time>
      </trkpt>
      <trkpt lat="42.52804" lon="2.44082">
        <ele>1879</ele>
        <time>2024-09-18T13:13:50Z</time>
      </trkpt>
      <trkpt lat="42.52808" lon="2.44081">
        <ele>1879</ele>
        <time>2024-09-18T13:13:54Z</time>
      </trkpt>
      <trkpt lat="42.52811" lon="2.44081">
        <ele>1879</ele>
        <time>2024-09-18T13:13:58Z</time>
      </trkpt>
      <trkpt lat="42.52814" lon="2.44081">
        <ele>1878</ele>
        <time>2024-09-18T13:14:01Z</time>
      </trkpt>
      <trkpt lat="42.52816" lon="2.44083">
        <ele>1878</ele>
        <time>2024-09-18T13:14:05Z</time>
      </trkpt>
      <trkpt lat="42.52817" lon="2.44086">
        <ele>1879</ele>
        <time>2024-09-18T13:14:10Z</time>
      </trkpt>
      <trkpt lat="42.52819" lon="2.44091">
        <ele>1878</ele>
        <time>2024-09-18T13:14:15Z</time>
      </trkpt>
      <trkpt lat="42.52821" lon="2.44094">
        <ele>1878</ele>
        <time>2024-09-18T13:14:19Z</time>
      </trkpt>
      <trkpt lat="42.52822" lon="2.44098">
        <ele>1878</ele>
        <time>2024-09-18T13:14:23Z</time>
      </trkpt>
      <trkpt lat="42.52824" lon="2.44102">
        <ele>1880</ele>
        <time>2024-09-18T13:14:27Z</time>
      </trkpt>
      <trkpt lat="42.52826" lon="2.44102">
        <ele>1881</ele>
        <time>2024-09-18T13:14:45Z</time>
      </trkpt>
      <trkpt lat="42.52829" lon="2.44103">
        <ele>1882</ele>
        <time>2024-09-18T13:14:54Z</time>
      </trkpt>
      <trkpt lat="42.52827" lon="2.44104">
        <ele>1880</ele>
        <time>2024-09-18T13:14:55Z</time>
      </trkpt>
      <trkpt lat="42.52828" lon="2.44106">
        <ele>1880</ele>
        <time>2024-09-18T13:14:57Z</time>
      </trkpt>
      <trkpt lat="42.52829" lon="2.44109">
        <ele>1879</ele>
        <time>2024-09-18T13:15:00Z</time>
      </trkpt>
      <trkpt lat="42.52829" lon="2.44113">
        <ele>1879</ele>
        <time>2024-09-18T13:15:03Z</time>
      </trkpt>
      <trkpt lat="42.5283" lon="2.44117">
        <ele>1879</ele>
        <time>2024-09-18T13:15:06Z</time>
      </trkpt>
      <trkpt lat="42.52831" lon="2.44121">
        <ele>1881</ele>
        <time>2024-09-18T13:15:10Z</time>
      </trkpt>
      <trkpt lat="42.52832" lon="2.44125">
        <ele>1881</ele>
        <time>2024-09-18T13:15:14Z</time>
      </trkpt>
      <trkpt lat="42.52834" lon="2.44129">
        <ele>1882</ele>
        <time>2024-09-18T13:15:17Z</time>
      </trkpt>
      <trkpt lat="42.52835" lon="2.44134">
        <ele>1883</ele>
        <time>2024-09-18T13:15:22Z</time>
      </trkpt>
      <trkpt lat="42.52838" lon="2.44138">
        <ele>1884</ele>
        <time>2024-09-18T13:15:30Z</time>
      </trkpt>
      <trkpt lat="42.5284" lon="2.44138">
        <ele>1886</ele>
        <time>2024-09-18T13:15:33Z</time>
      </trkpt>
      <trkpt lat="42.52843" lon="2.44136">
        <ele>1886</ele>
        <time>2024-09-18T13:15:37Z</time>
      </trkpt>
      <trkpt lat="42.52843" lon="2.44133">
        <ele>1886</ele>
        <time>2024-09-18T13:15:41Z</time>
      </trkpt>
      <trkpt lat="42.52844" lon="2.44129">
        <ele>1886</ele>
        <time>2024-09-18T13:15:44Z</time>
      </trkpt>
      <trkpt lat="42.52846" lon="2.44126">
        <ele>1886</ele>
        <time>2024-09-18T13:15:47Z</time>
      </trkpt>
      <trkpt lat="42.52847" lon="2.44122">
        <ele>1887</ele>
        <time>2024-09-18T13:15:51Z</time>
      </trkpt>
      <trkpt lat="42.52848" lon="2.44118">
        <ele>1886</ele>
        <time>2024-09-18T13:15:54Z</time>
      </trkpt>
      <trkpt lat="42.52849" lon="2.44115">
        <ele>1888</ele>
        <time>2024-09-18T13:15:58Z</time>
      </trkpt>
      <trkpt lat="42.52851" lon="2.44111">
        <ele>1888</ele>
        <time>2024-09-18T13:16:03Z</time>
      </trkpt>
      <trkpt lat="42.5285" lon="2.44108">
        <ele>1889</ele>
        <time>2024-09-18T13:16:13Z</time>
      </trkpt>
      <trkpt lat="42.52851" lon="2.44104">
        <ele>1889</ele>
        <time>2024-09-18T13:16:16Z</time>
      </trkpt>
      <trkpt lat="42.52852" lon="2.441">
        <ele>1887</ele>
        <time>2024-09-18T13:16:21Z</time>
      </trkpt>
      <trkpt lat="42.52852" lon="2.44096">
        <ele>1887</ele>
        <time>2024-09-18T13:16:25Z</time>
      </trkpt>
      <trkpt lat="42.52855" lon="2.44093">
        <ele>1887</ele>
        <time>2024-09-18T13:16:29Z</time>
      </trkpt>
      <trkpt lat="42.52857" lon="2.4409">
        <ele>1887</ele>
        <time>2024-09-18T13:16:32Z</time>
      </trkpt>
      <trkpt lat="42.5286" lon="2.44087">
        <ele>1887</ele>
        <time>2024-09-18T13:16:35Z</time>
      </trkpt>
      <trkpt lat="42.52861" lon="2.44083">
        <ele>1888</ele>
        <time>2024-09-18T13:16:39Z</time>
      </trkpt>
      <trkpt lat="42.52862" lon="2.4408">
        <ele>1888</ele>
        <time>2024-09-18T13:16:43Z</time>
      </trkpt>
      <trkpt lat="42.52864" lon="2.44076">
        <ele>1887</ele>
        <time>2024-09-18T13:16:50Z</time>
      </trkpt>
      <trkpt lat="42.52866" lon="2.44072">
        <ele>1886</ele>
        <time>2024-09-18T13:16:54Z</time>
      </trkpt>
      <trkpt lat="42.52867" lon="2.44068">
        <ele>1885</ele>
        <time>2024-09-18T13:16:58Z</time>
      </trkpt>
      <trkpt lat="42.52866" lon="2.44065">
        <ele>1885</ele>
        <time>2024-09-18T13:17:01Z</time>
      </trkpt>
      <trkpt lat="42.52865" lon="2.44061">
        <ele>1883</ele>
        <time>2024-09-18T13:17:06Z</time>
      </trkpt>
      <trkpt lat="42.52863" lon="2.44058">
        <ele>1882</ele>
        <time>2024-09-18T13:17:09Z</time>
      </trkpt>
      <trkpt lat="42.52861" lon="2.44055">
        <ele>1881</ele>
        <time>2024-09-18T13:17:12Z</time>
      </trkpt>
      <trkpt lat="42.5286" lon="2.4405">
        <ele>1881</ele>
        <time>2024-09-18T13:17:16Z</time>
      </trkpt>
      <trkpt lat="42.52861" lon="2.44046">
        <ele>1880</ele>
        <time>2024-09-18T13:17:19Z</time>
      </trkpt>
      <trkpt lat="42.52861" lon="2.44042">
        <ele>1878</ele>
        <time>2024-09-18T13:17:22Z</time>
      </trkpt>
      <trkpt lat="42.52863" lon="2.44037">
        <ele>1877</ele>
        <time>2024-09-18T13:17:27Z</time>
      </trkpt>
      <trkpt lat="42.52865" lon="2.44034">
        <ele>1877</ele>
        <time>2024-09-18T13:17:29Z</time>
      </trkpt>
      <trkpt lat="42.52866" lon="2.4403">
        <ele>1877</ele>
        <time>2024-09-18T13:17:32Z</time>
      </trkpt>
      <trkpt lat="42.52866" lon="2.44025">
        <ele>1879</ele>
        <time>2024-09-18T13:17:35Z</time>
      </trkpt>
      <trkpt lat="42.52866" lon="2.44021">
        <ele>1879</ele>
        <time>2024-09-18T13:17:38Z</time>
      </trkpt>
      <trkpt lat="42.52867" lon="2.44018">
        <ele>1879</ele>
        <time>2024-09-18T13:17:41Z</time>
      </trkpt>
      <trkpt lat="42.52868" lon="2.44014">
        <ele>1879</ele>
        <time>2024-09-18T13:17:43Z</time>
      </trkpt>
      <trkpt lat="42.52868" lon="2.4401">
        <ele>1878</ele>
        <time>2024-09-18T13:17:46Z</time>
      </trkpt>
      <trkpt lat="42.52869" lon="2.44006">
        <ele>1877</ele>
        <time>2024-09-18T13:17:50Z</time>
      </trkpt>
      <trkpt lat="42.5287" lon="2.44002">
        <ele>1877</ele>
        <time>2024-09-18T13:17:53Z</time>
      </trkpt>
      <trkpt lat="42.5287" lon="2.43997">
        <ele>1877</ele>
        <time>2024-09-18T13:17:57Z</time>
      </trkpt>
      <trkpt lat="42.5287" lon="2.43992">
        <ele>1877</ele>
        <time>2024-09-18T13:18:01Z</time>
      </trkpt>
      <trkpt lat="42.52869" lon="2.43989">
        <ele>1876</ele>
        <time>2024-09-18T13:18:06Z</time>
      </trkpt>
      <trkpt lat="42.52867" lon="2.4399">
        <ele>1875</ele>
        <time>2024-09-18T13:18:09Z</time>
      </trkpt>
      <trkpt lat="42.52865" lon="2.43991">
        <ele>1874</ele>
        <time>2024-09-18T13:18:15Z</time>
      </trkpt>
      <trkpt lat="42.52863" lon="2.43994">
        <ele>1873</ele>
        <time>2024-09-18T13:18:27Z</time>
      </trkpt>
      <trkpt lat="42.52861" lon="2.43996">
        <ele>1874</ele>
        <time>2024-09-18T13:18:30Z</time>
      </trkpt>
      <trkpt lat="42.52859" lon="2.43999">
        <ele>1872</ele>
        <time>2024-09-18T13:18:33Z</time>
      </trkpt>
      <trkpt lat="42.52856" lon="2.44002">
        <ele>1871</ele>
        <time>2024-09-18T13:18:36Z</time>
      </trkpt>
      <trkpt lat="42.52854" lon="2.44004">
        <ele>1870</ele>
        <time>2024-09-18T13:18:40Z</time>
      </trkpt>
      <trkpt lat="42.52851" lon="2.44006">
        <ele>1870</ele>
        <time>2024-09-18T13:18:43Z</time>
      </trkpt>
      <trkpt lat="42.52848" lon="2.44009">
        <ele>1870</ele>
        <time>2024-09-18T13:18:46Z</time>
      </trkpt>
      <trkpt lat="42.52845" lon="2.44009">
        <ele>1869</ele>
        <time>2024-09-18T13:18:50Z</time>
      </trkpt>
      <trkpt lat="42.52845" lon="2.44007">
        <ele>1868</ele>
        <time>2024-09-18T13:18:52Z</time>
      </trkpt>
      <trkpt lat="42.52846" lon="2.44004">
        <ele>1865</ele>
        <time>2024-09-18T13:18:58Z</time>
      </trkpt>
      <trkpt lat="42.52845" lon="2.44">
        <ele>1865</ele>
        <time>2024-09-18T13:19:01Z</time>
      </trkpt>
      <trkpt lat="42.52846" lon="2.43997">
        <ele>1862</ele>
        <time>2024-09-18T13:19:05Z</time>
      </trkpt>
      <trkpt lat="42.52847" lon="2.43993">
        <ele>1862</ele>
        <time>2024-09-18T13:19:08Z</time>
      </trkpt>
      <trkpt lat="42.52848" lon="2.43988">
        <ele>1861</ele>
        <time>2024-09-18T13:19:12Z</time>
      </trkpt>
      <trkpt lat="42.52848" lon="2.43984">
        <ele>1861</ele>
        <time>2024-09-18T13:19:15Z</time>
      </trkpt>
      <trkpt lat="42.52848" lon="2.4398">
        <ele>1861</ele>
        <time>2024-09-18T13:19:19Z</time>
      </trkpt>
      <trkpt lat="42.52848" lon="2.43976">
        <ele>1860</ele>
        <time>2024-09-18T13:19:24Z</time>
      </trkpt>
      <trkpt lat="42.52849" lon="2.43971">
        <ele>1860</ele>
        <time>2024-09-18T13:19:26Z</time>
      </trkpt>
      <trkpt lat="42.52848" lon="2.43968">
        <ele>1860</ele>
        <time>2024-09-18T13:19:29Z</time>
      </trkpt>
      <trkpt lat="42.52847" lon="2.43964">
        <ele>1859</ele>
        <time>2024-09-18T13:19:32Z</time>
      </trkpt>
      <trkpt lat="42.52847" lon="2.4396">
        <ele>1858</ele>
        <time>2024-09-18T13:19:37Z</time>
      </trkpt>
      <trkpt lat="42.52849" lon="2.43959">
        <ele>1855</ele>
        <time>2024-09-18T13:20:23Z</time>
      </trkpt>
      <trkpt lat="42.52849" lon="2.43957">
        <ele>1856</ele>
        <time>2024-09-18T13:20:27Z</time>
      </trkpt>
      <trkpt lat="42.52849" lon="2.43953">
        <ele>1854</ele>
        <time>2024-09-18T13:20:31Z</time>
      </trkpt>
      <trkpt lat="42.52848" lon="2.43949">
        <ele>1853</ele>
        <time>2024-09-18T13:20:35Z</time>
      </trkpt>
      <trkpt lat="42.52847" lon="2.43945">
        <ele>1853</ele>
        <time>2024-09-18T13:20:38Z</time>
      </trkpt>
      <trkpt lat="42.52847" lon="2.43941">
        <ele>1853</ele>
        <time>2024-09-18T13:20:41Z</time>
      </trkpt>
      <trkpt lat="42.52847" lon="2.43937">
        <ele>1852</ele>
        <time>2024-09-18T13:20:45Z</time>
      </trkpt>
      <trkpt lat="42.52847" lon="2.43933">
        <ele>1852</ele>
        <time>2024-09-18T13:20:48Z</time>
      </trkpt>
      <trkpt lat="42.52846" lon="2.43929">
        <ele>1852</ele>
        <time>2024-09-18T13:20:51Z</time>
      </trkpt>
      <trkpt lat="42.52847" lon="2.43925">
        <ele>1852</ele>
        <time>2024-09-18T13:20:54Z</time>
      </trkpt>
      <trkpt lat="42.52846" lon="2.43921">
        <ele>1852</ele>
        <time>2024-09-18T13:20:58Z</time>
      </trkpt>
      <trkpt lat="42.52847" lon="2.43916">
        <ele>1851</ele>
        <time>2024-09-18T13:21:02Z</time>
      </trkpt>
      <trkpt lat="42.52847" lon="2.43911">
        <ele>1850</ele>
        <time>2024-09-18T13:21:05Z</time>
      </trkpt>
      <trkpt lat="42.52847" lon="2.43907">
        <ele>1849</ele>
        <time>2024-09-18T13:21:09Z</time>
      </trkpt>
      <trkpt lat="42.52846" lon="2.43903">
        <ele>1849</ele>
        <time>2024-09-18T13:21:12Z</time>
      </trkpt>
      <trkpt lat="42.52847" lon="2.43899">
        <ele>1849</ele>
        <time>2024-09-18T13:21:17Z</time>
      </trkpt>
      <trkpt lat="42.52849" lon="2.43896">
        <ele>1849</ele>
        <time>2024-09-18T13:21:21Z</time>
      </trkpt>
      <trkpt lat="42.52849" lon="2.43892">
        <ele>1848</ele>
        <time>2024-09-18T13:21:24Z</time>
      </trkpt>
      <trkpt lat="42.52849" lon="2.43888">
        <ele>1849</ele>
        <time>2024-09-18T13:21:26Z</time>
      </trkpt>
      <trkpt lat="42.5285" lon="2.43883">
        <ele>1848</ele>
        <time>2024-09-18T13:21:30Z</time>
      </trkpt>
      <trkpt lat="42.5285" lon="2.43879">
        <ele>1848</ele>
        <time>2024-09-18T13:21:33Z</time>
      </trkpt>
      <trkpt lat="42.5285" lon="2.43875">
        <ele>1847</ele>
        <time>2024-09-18T13:21:35Z</time>
      </trkpt>
      <trkpt lat="42.52849" lon="2.43871">
        <ele>1847</ele>
        <time>2024-09-18T13:21:38Z</time>
      </trkpt>
      <trkpt lat="42.52849" lon="2.43867">
        <ele>1847</ele>
        <time>2024-09-18T13:21:40Z</time>
      </trkpt>
      <trkpt lat="42.52851" lon="2.43863">
        <ele>1847</ele>
        <time>2024-09-18T13:21:42Z</time>
      </trkpt>
      <trkpt lat="42.52853" lon="2.43859">
        <ele>1845</ele>
        <time>2024-09-18T13:21:46Z</time>
      </trkpt>
      <trkpt lat="42.52854" lon="2.43855">
        <ele>1844</ele>
        <time>2024-09-18T13:21:49Z</time>
      </trkpt>
      <trkpt lat="42.52855" lon="2.43852">
        <ele>1843</ele>
        <time>2024-09-18T13:21:53Z</time>
      </trkpt>
      <trkpt lat="42.52856" lon="2.43847">
        <ele>1843</ele>
        <time>2024-09-18T13:21:56Z</time>
      </trkpt>
      <trkpt lat="42.52857" lon="2.43844">
        <ele>1841</ele>
        <time>2024-09-18T13:22:00Z</time>
      </trkpt>
      <trkpt lat="42.52858" lon="2.43839">
        <ele>1839</ele>
        <time>2024-09-18T13:22:05Z</time>
      </trkpt>
      <trkpt lat="42.52859" lon="2.43835">
        <ele>1840</ele>
        <time>2024-09-18T13:22:07Z</time>
      </trkpt>
      <trkpt lat="42.5286" lon="2.43831">
        <ele>1838</ele>
        <time>2024-09-18T13:22:12Z</time>
      </trkpt>
      <trkpt lat="42.52861" lon="2.43827">
        <ele>1838</ele>
        <time>2024-09-18T13:22:15Z</time>
      </trkpt>
      <trkpt lat="42.52861" lon="2.43823">
        <ele>1838</ele>
        <time>2024-09-18T13:22:18Z</time>
      </trkpt>
      <trkpt lat="42.52861" lon="2.43819">
        <ele>1837</ele>
        <time>2024-09-18T13:22:22Z</time>
      </trkpt>
      <trkpt lat="42.52862" lon="2.43816">
        <ele>1837</ele>
        <time>2024-09-18T13:22:25Z</time>
      </trkpt>
      <trkpt lat="42.52864" lon="2.43813">
        <ele>1838</ele>
        <time>2024-09-18T13:22:30Z</time>
      </trkpt>
      <trkpt lat="42.52865" lon="2.4381">
        <ele>1840</ele>
        <time>2024-09-18T13:22:44Z</time>
      </trkpt>
      <trkpt lat="42.52865" lon="2.43806">
        <ele>1842</ele>
        <time>2024-09-18T13:23:00Z</time>
      </trkpt>
      <trkpt lat="42.52866" lon="2.43803">
        <ele>1838</ele>
        <time>2024-09-18T13:23:24Z</time>
      </trkpt>
      <trkpt lat="42.52868" lon="2.43799">
        <ele>1835</ele>
        <time>2024-09-18T13:23:30Z</time>
      </trkpt>
      <trkpt lat="42.52868" lon="2.43796">
        <ele>1835</ele>
        <time>2024-09-18T13:23:37Z</time>
      </trkpt>
      <trkpt lat="42.52866" lon="2.43794">
        <ele>1835</ele>
        <time>2024-09-18T13:23:40Z</time>
      </trkpt>
      <trkpt lat="42.52863" lon="2.43793">
        <ele>1833</ele>
        <time>2024-09-18T13:23:46Z</time>
      </trkpt>
      <trkpt lat="42.52862" lon="2.43796">
        <ele>1833</ele>
        <time>2024-09-18T13:23:49Z</time>
      </trkpt>
      <trkpt lat="42.52859" lon="2.43798">
        <ele>1832</ele>
        <time>2024-09-18T13:23:52Z</time>
      </trkpt>
      <trkpt lat="42.52857" lon="2.43801">
        <ele>1830</ele>
        <time>2024-09-18T13:23:59Z</time>
      </trkpt>
      <trkpt lat="42.52854" lon="2.43802">
        <ele>1831</ele>
        <time>2024-09-18T13:24:04Z</time>
      </trkpt>
      <trkpt lat="42.52851" lon="2.43803">
        <ele>1830</ele>
        <time>2024-09-18T13:24:08Z</time>
      </trkpt>
      <trkpt lat="42.52848" lon="2.43805">
        <ele>1829</ele>
        <time>2024-09-18T13:24:12Z</time>
      </trkpt>
      <trkpt lat="42.52845" lon="2.43807">
        <ele>1827</ele>
        <time>2024-09-18T13:24:23Z</time>
      </trkpt>
      <trkpt lat="42.52843" lon="2.43807">
        <ele>1829</ele>
        <time>2024-09-18T13:24:26Z</time>
      </trkpt>
      <trkpt lat="42.52839" lon="2.43807">
        <ele>1828</ele>
        <time>2024-09-18T13:24:31Z</time>
      </trkpt>
      <trkpt lat="42.52836" lon="2.43807">
        <ele>1828</ele>
        <time>2024-09-18T13:24:35Z</time>
      </trkpt>
      <trkpt lat="42.52834" lon="2.4381">
        <ele>1826</ele>
        <time>2024-09-18T13:24:37Z</time>
      </trkpt>
      <trkpt lat="42.52831" lon="2.43813">
        <ele>1826</ele>
        <time>2024-09-18T13:24:41Z</time>
      </trkpt>
      <trkpt lat="42.52829" lon="2.43815">
        <ele>1825</ele>
        <time>2024-09-18T13:24:44Z</time>
      </trkpt>
      <trkpt lat="42.52826" lon="2.43817">
        <ele>1823</ele>
        <time>2024-09-18T13:24:47Z</time>
      </trkpt>
      <trkpt lat="42.52823" lon="2.43818">
        <ele>1824</ele>
        <time>2024-09-18T13:24:55Z</time>
      </trkpt>
      <trkpt lat="42.5282" lon="2.43819">
        <ele>1823</ele>
        <time>2024-09-18T13:24:58Z</time>
      </trkpt>
      <trkpt lat="42.52817" lon="2.43819">
        <ele>1824</ele>
        <time>2024-09-18T13:25:02Z</time>
      </trkpt>
      <trkpt lat="42.52815" lon="2.43817">
        <ele>1824</ele>
        <time>2024-09-18T13:25:05Z</time>
      </trkpt>
      <trkpt lat="42.52812" lon="2.43814">
        <ele>1824</ele>
        <time>2024-09-18T13:25:08Z</time>
      </trkpt>
      <trkpt lat="42.5281" lon="2.43812">
        <ele>1823</ele>
        <time>2024-09-18T13:25:11Z</time>
      </trkpt>
      <trkpt lat="42.52808" lon="2.43809">
        <ele>1822</ele>
        <time>2024-09-18T13:25:15Z</time>
      </trkpt>
      <trkpt lat="42.52807" lon="2.43806">
        <ele>1820</ele>
        <time>2024-09-18T13:25:19Z</time>
      </trkpt>
      <trkpt lat="42.52805" lon="2.43802">
        <ele>1820</ele>
        <time>2024-09-18T13:25:22Z</time>
      </trkpt>
      <trkpt lat="42.52803" lon="2.43799">
        <ele>1819</ele>
        <time>2024-09-18T13:25:25Z</time>
      </trkpt>
      <trkpt lat="42.528" lon="2.43799">
        <ele>1817</ele>
        <time>2024-09-18T13:25:28Z</time>
      </trkpt>
      <trkpt lat="42.52798" lon="2.43801">
        <ele>1816</ele>
        <time>2024-09-18T13:25:31Z</time>
      </trkpt>
      <trkpt lat="42.52796" lon="2.43804">
        <ele>1814</ele>
        <time>2024-09-18T13:25:36Z</time>
      </trkpt>
      <trkpt lat="42.52794" lon="2.43807">
        <ele>1813</ele>
        <time>2024-09-18T13:25:42Z</time>
      </trkpt>
      <trkpt lat="42.52792" lon="2.43811">
        <ele>1813</ele>
        <time>2024-09-18T13:25:45Z</time>
      </trkpt>
      <trkpt lat="42.5279" lon="2.43814">
        <ele>1812</ele>
        <time>2024-09-18T13:25:48Z</time>
      </trkpt>
      <trkpt lat="42.52789" lon="2.43818">
        <ele>1812</ele>
        <time>2024-09-18T13:25:54Z</time>
      </trkpt>
      <trkpt lat="42.52788" lon="2.43821">
        <ele>1810</ele>
        <time>2024-09-18T13:25:58Z</time>
      </trkpt>
      <trkpt lat="42.52788" lon="2.43825">
        <ele>1809</ele>
        <time>2024-09-18T13:26:08Z</time>
      </trkpt>
      <trkpt lat="42.52786" lon="2.43828">
        <ele>1809</ele>
        <time>2024-09-18T13:26:14Z</time>
      </trkpt>
      <trkpt lat="42.52784" lon="2.43832">
        <ele>1809</ele>
        <time>2024-09-18T13:26:18Z</time>
      </trkpt>
      <trkpt lat="42.52782" lon="2.43836">
        <ele>1808</ele>
        <time>2024-09-18T13:26:22Z</time>
      </trkpt>
      <trkpt lat="42.5278" lon="2.43838">
        <ele>1807</ele>
        <time>2024-09-18T13:26:27Z</time>
      </trkpt>
      <trkpt lat="42.52779" lon="2.43836">
        <ele>1807</ele>
        <time>2024-09-18T13:26:32Z</time>
      </trkpt>
      <trkpt lat="42.52779" lon="2.43833">
        <ele>1806</ele>
        <time>2024-09-18T13:26:35Z</time>
      </trkpt>
      <trkpt lat="42.52778" lon="2.43829">
        <ele>1806</ele>
        <time>2024-09-18T13:26:37Z</time>
      </trkpt>
      <trkpt lat="42.52778" lon="2.43825">
        <ele>1805</ele>
        <time>2024-09-18T13:26:40Z</time>
      </trkpt>
      <trkpt lat="42.52779" lon="2.43821">
        <ele>1805</ele>
        <time>2024-09-18T13:26:43Z</time>
      </trkpt>
      <trkpt lat="42.5278" lon="2.43817">
        <ele>1804</ele>
        <time>2024-09-18T13:26:46Z</time>
      </trkpt>
      <trkpt lat="42.52779" lon="2.43814">
        <ele>1803</ele>
        <time>2024-09-18T13:26:50Z</time>
      </trkpt>
      <trkpt lat="42.52779" lon="2.43809">
        <ele>1801</ele>
        <time>2024-09-18T13:26:55Z</time>
      </trkpt>
      <trkpt lat="42.52779" lon="2.43805">
        <ele>1802</ele>
        <time>2024-09-18T13:26:59Z</time>
      </trkpt>
      <trkpt lat="42.52779" lon="2.43801">
        <ele>1801</ele>
        <time>2024-09-18T13:27:02Z</time>
      </trkpt>
      <trkpt lat="42.52779" lon="2.43797">
        <ele>1800</ele>
        <time>2024-09-18T13:27:05Z</time>
      </trkpt>
      <trkpt lat="42.52779" lon="2.43792">
        <ele>1799</ele>
        <time>2024-09-18T13:27:09Z</time>
      </trkpt>
      <trkpt lat="42.52778" lon="2.43788">
        <ele>1799</ele>
        <time>2024-09-18T13:27:13Z</time>
      </trkpt>
      <trkpt lat="42.52779" lon="2.43783">
        <ele>1798</ele>
        <time>2024-09-18T13:27:16Z</time>
      </trkpt>
      <trkpt lat="42.52779" lon="2.43779">
        <ele>1798</ele>
        <time>2024-09-18T13:27:20Z</time>
      </trkpt>
      <trkpt lat="42.52778" lon="2.43775">
        <ele>1797</ele>
        <time>2024-09-18T13:27:24Z</time>
      </trkpt>
      <trkpt lat="42.52779" lon="2.43771">
        <ele>1796</ele>
        <time>2024-09-18T13:27:28Z</time>
      </trkpt>
      <trkpt lat="42.52781" lon="2.43767">
        <ele>1796</ele>
        <time>2024-09-18T13:27:32Z</time>
      </trkpt>
      <trkpt lat="42.52784" lon="2.43764">
        <ele>1795</ele>
        <time>2024-09-18T13:27:35Z</time>
      </trkpt>
      <trkpt lat="42.52786" lon="2.4376">
        <ele>1794</ele>
        <time>2024-09-18T13:27:38Z</time>
      </trkpt>
      <trkpt lat="42.52788" lon="2.43757">
        <ele>1794</ele>
        <time>2024-09-18T13:27:41Z</time>
      </trkpt>
      <trkpt lat="42.5279" lon="2.43753">
        <ele>1793</ele>
        <time>2024-09-18T13:27:44Z</time>
      </trkpt>
      <trkpt lat="42.52793" lon="2.43751">
        <ele>1792</ele>
        <time>2024-09-18T13:27:48Z</time>
      </trkpt>
      <trkpt lat="42.52796" lon="2.43748">
        <ele>1791</ele>
        <time>2024-09-18T13:27:52Z</time>
      </trkpt>
      <trkpt lat="42.52798" lon="2.43746">
        <ele>1791</ele>
        <time>2024-09-18T13:27:54Z</time>
      </trkpt>
      <trkpt lat="42.52801" lon="2.43744">
        <ele>1791</ele>
        <time>2024-09-18T13:27:57Z</time>
      </trkpt>
      <trkpt lat="42.52804" lon="2.43742">
        <ele>1789</ele>
        <time>2024-09-18T13:28:00Z</time>
      </trkpt>
      <trkpt lat="42.52806" lon="2.43739">
        <ele>1788</ele>
        <time>2024-09-18T13:28:05Z</time>
      </trkpt>
      <trkpt lat="42.52807" lon="2.43735">
        <ele>1787</ele>
        <time>2024-09-18T13:28:09Z</time>
      </trkpt>
      <trkpt lat="42.52808" lon="2.43731">
        <ele>1788</ele>
        <time>2024-09-18T13:28:12Z</time>
      </trkpt>
      <trkpt lat="42.52809" lon="2.43727">
        <ele>1786</ele>
        <time>2024-09-18T13:28:16Z</time>
      </trkpt>
      <trkpt lat="42.52811" lon="2.43725">
        <ele>1786</ele>
        <time>2024-09-18T13:28:22Z</time>
      </trkpt>
      <trkpt lat="42.52813" lon="2.43722">
        <ele>1784</ele>
        <time>2024-09-18T13:28:26Z</time>
      </trkpt>
      <trkpt lat="42.52814" lon="2.43718">
        <ele>1785</ele>
        <time>2024-09-18T13:28:29Z</time>
      </trkpt>
      <trkpt lat="42.52816" lon="2.43715">
        <ele>1784</ele>
        <time>2024-09-18T13:28:33Z</time>
      </trkpt>
      <trkpt lat="42.52817" lon="2.43712">
        <ele>1784</ele>
        <time>2024-09-18T13:28:37Z</time>
      </trkpt>
      <trkpt lat="42.52819" lon="2.43709">
        <ele>1783</ele>
        <time>2024-09-18T13:28:41Z</time>
      </trkpt>
      <trkpt lat="42.52821" lon="2.43706">
        <ele>1781</ele>
        <time>2024-09-18T13:28:45Z</time>
      </trkpt>
      <trkpt lat="42.52823" lon="2.43702">
        <ele>1781</ele>
        <time>2024-09-18T13:28:49Z</time>
      </trkpt>
      <trkpt lat="42.52825" lon="2.43699">
        <ele>1780</ele>
        <time>2024-09-18T13:28:52Z</time>
      </trkpt>
      <trkpt lat="42.52827" lon="2.43695">
        <ele>1780</ele>
        <time>2024-09-18T13:28:55Z</time>
      </trkpt>
      <trkpt lat="42.52829" lon="2.43692">
        <ele>1779</ele>
        <time>2024-09-18T13:28:59Z</time>
      </trkpt>
      <trkpt lat="42.52832" lon="2.43689">
        <ele>1776</ele>
        <time>2024-09-18T13:29:05Z</time>
      </trkpt>
      <trkpt lat="42.52834" lon="2.43687">
        <ele>1776</ele>
        <time>2024-09-18T13:29:08Z</time>
      </trkpt>
      <trkpt lat="42.52837" lon="2.43686">
        <ele>1774</ele>
        <time>2024-09-18T13:29:11Z</time>
      </trkpt>
      <trkpt lat="42.52841" lon="2.43685">
        <ele>1773</ele>
        <time>2024-09-18T13:29:15Z</time>
      </trkpt>
      <trkpt lat="42.52843" lon="2.43682">
        <ele>1774</ele>
        <time>2024-09-18T13:29:17Z</time>
      </trkpt>
      <trkpt lat="42.52845" lon="2.43678">
        <ele>1773</ele>
        <time>2024-09-18T13:29:21Z</time>
      </trkpt>
      <trkpt lat="42.52847" lon="2.43674">
        <ele>1774</ele>
        <time>2024-09-18T13:29:24Z</time>
      </trkpt>
      <trkpt lat="42.52848" lon="2.4367">
        <ele>1775</ele>
        <time>2024-09-18T13:29:27Z</time>
      </trkpt>
      <trkpt lat="42.5285" lon="2.43668">
        <ele>1773</ele>
        <time>2024-09-18T13:29:31Z</time>
      </trkpt>
      <trkpt lat="42.52853" lon="2.43667">
        <ele>1770</ele>
        <time>2024-09-18T13:29:36Z</time>
      </trkpt>
      <trkpt lat="42.52856" lon="2.43667">
        <ele>1769</ele>
        <time>2024-09-18T13:29:39Z</time>
      </trkpt>
      <trkpt lat="42.52859" lon="2.43667">
        <ele>1767</ele>
        <time>2024-09-18T13:29:44Z</time>
      </trkpt>
      <trkpt lat="42.52862" lon="2.43667">
        <ele>1768</ele>
        <time>2024-09-18T13:29:47Z</time>
      </trkpt>
      <trkpt lat="42.52865" lon="2.43665">
        <ele>1767</ele>
        <time>2024-09-18T13:29:50Z</time>
      </trkpt>
      <trkpt lat="42.52868" lon="2.43663">
        <ele>1767</ele>
        <time>2024-09-18T13:29:54Z</time>
      </trkpt>
      <trkpt lat="42.52871" lon="2.43661">
        <ele>1766</ele>
        <time>2024-09-18T13:29:58Z</time>
      </trkpt>
      <trkpt lat="42.52874" lon="2.4366">
        <ele>1766</ele>
        <time>2024-09-18T13:29:59Z</time>
      </trkpt>
      <trkpt lat="42.52877" lon="2.43661">
        <ele>1764</ele>
        <time>2024-09-18T13:30:03Z</time>
      </trkpt>
      <trkpt lat="42.52881" lon="2.43662">
        <ele>1763</ele>
        <time>2024-09-18T13:30:09Z</time>
      </trkpt>
      <trkpt lat="42.52883" lon="2.4366">
        <ele>1763</ele>
        <time>2024-09-18T13:30:11Z</time>
      </trkpt>
      <trkpt lat="42.52887" lon="2.4366">
        <ele>1762</ele>
        <time>2024-09-18T13:30:14Z</time>
      </trkpt>
      <trkpt lat="42.5289" lon="2.4366">
        <ele>1762</ele>
        <time>2024-09-18T13:30:18Z</time>
      </trkpt>
      <trkpt lat="42.52893" lon="2.43659">
        <ele>1762</ele>
        <time>2024-09-18T13:30:20Z</time>
      </trkpt>
      <trkpt lat="42.52897" lon="2.43658">
        <ele>1761</ele>
        <time>2024-09-18T13:30:23Z</time>
      </trkpt>
      <trkpt lat="42.529" lon="2.43656">
        <ele>1760</ele>
        <time>2024-09-18T13:30:26Z</time>
      </trkpt>
      <trkpt lat="42.52903" lon="2.43655">
        <ele>1760</ele>
        <time>2024-09-18T13:30:28Z</time>
      </trkpt>
      <trkpt lat="42.52906" lon="2.43654">
        <ele>1760</ele>
        <time>2024-09-18T13:30:31Z</time>
      </trkpt>
      <trkpt lat="42.52909" lon="2.43653">
        <ele>1762</ele>
        <time>2024-09-18T13:30:39Z</time>
      </trkpt>
      <trkpt lat="42.52912" lon="2.43652">
        <ele>1763</ele>
        <time>2024-09-18T13:30:42Z</time>
      </trkpt>
      <trkpt lat="42.52915" lon="2.43651">
        <ele>1762</ele>
        <time>2024-09-18T13:30:44Z</time>
      </trkpt>
      <trkpt lat="42.52918" lon="2.43647">
        <ele>1762</ele>
        <time>2024-09-18T13:30:46Z</time>
      </trkpt>
      <trkpt lat="42.52921" lon="2.43644">
        <ele>1760</ele>
        <time>2024-09-18T13:30:52Z</time>
      </trkpt>
      <trkpt lat="42.52923" lon="2.43641">
        <ele>1759</ele>
        <time>2024-09-18T13:30:55Z</time>
      </trkpt>
      <trkpt lat="42.52924" lon="2.43637">
        <ele>1760</ele>
        <time>2024-09-18T13:30:57Z</time>
      </trkpt>
      <trkpt lat="42.52925" lon="2.43632">
        <ele>1760</ele>
        <time>2024-09-18T13:31:00Z</time>
      </trkpt>
      <trkpt lat="42.52925" lon="2.43628">
        <ele>1760</ele>
        <time>2024-09-18T13:31:02Z</time>
      </trkpt>
      <trkpt lat="42.52925" lon="2.43624">
        <ele>1759</ele>
        <time>2024-09-18T13:31:05Z</time>
      </trkpt>
      <trkpt lat="42.52925" lon="2.4362">
        <ele>1759</ele>
        <time>2024-09-18T13:31:07Z</time>
      </trkpt>
      <trkpt lat="42.52926" lon="2.43617">
        <ele>1758</ele>
        <time>2024-09-18T13:31:11Z</time>
      </trkpt>
      <trkpt lat="42.52928" lon="2.43613">
        <ele>1756</ele>
        <time>2024-09-18T13:31:15Z</time>
      </trkpt>
      <trkpt lat="42.52931" lon="2.4361">
        <ele>1756</ele>
        <time>2024-09-18T13:31:18Z</time>
      </trkpt>
      <trkpt lat="42.52934" lon="2.43609">
        <ele>1754</ele>
        <time>2024-09-18T13:31:21Z</time>
      </trkpt>
      <trkpt lat="42.52937" lon="2.43607">
        <ele>1753</ele>
        <time>2024-09-18T13:31:23Z</time>
      </trkpt>
      <trkpt lat="42.5294" lon="2.43604">
        <ele>1753</ele>
        <time>2024-09-18T13:31:27Z</time>
      </trkpt>
      <trkpt lat="42.52942" lon="2.43601">
        <ele>1753</ele>
        <time>2024-09-18T13:31:29Z</time>
      </trkpt>
      <trkpt lat="42.52945" lon="2.43598">
        <ele>1752</ele>
        <time>2024-09-18T13:31:34Z</time>
      </trkpt>
      <trkpt lat="42.52946" lon="2.43595">
        <ele>1752</ele>
        <time>2024-09-18T13:31:37Z</time>
      </trkpt>
      <trkpt lat="42.52948" lon="2.43591">
        <ele>1752</ele>
        <time>2024-09-18T13:31:40Z</time>
      </trkpt>
      <trkpt lat="42.52951" lon="2.4359">
        <ele>1749</ele>
        <time>2024-09-18T13:31:45Z</time>
      </trkpt>
      <trkpt lat="42.52953" lon="2.43587">
        <ele>1750</ele>
        <time>2024-09-18T13:31:51Z</time>
      </trkpt>
      <trkpt lat="42.52956" lon="2.43585">
        <ele>1749</ele>
        <time>2024-09-18T13:31:59Z</time>
      </trkpt>
      <trkpt lat="42.52959" lon="2.43586">
        <ele>1747</ele>
        <time>2024-09-18T13:32:01Z</time>
      </trkpt>
      <trkpt lat="42.52962" lon="2.43586">
        <ele>1747</ele>
        <time>2024-09-18T13:32:03Z</time>
      </trkpt>
      <trkpt lat="42.52965" lon="2.43584">
        <ele>1747</ele>
        <time>2024-09-18T13:32:06Z</time>
      </trkpt>
      <trkpt lat="42.52967" lon="2.43582">
        <ele>1745</ele>
        <time>2024-09-18T13:32:09Z</time>
      </trkpt>
      <trkpt lat="42.52969" lon="2.43579">
        <ele>1745</ele>
        <time>2024-09-18T13:32:12Z</time>
      </trkpt>
      <trkpt lat="42.52971" lon="2.43575">
        <ele>1746</ele>
        <time>2024-09-18T13:32:15Z</time>
      </trkpt>
      <trkpt lat="42.52972" lon="2.4357">
        <ele>1746</ele>
        <time>2024-09-18T13:32:22Z</time>
      </trkpt>
      <trkpt lat="42.52974" lon="2.43566">
        <ele>1746</ele>
        <time>2024-09-18T13:32:25Z</time>
      </trkpt>
      <trkpt lat="42.52975" lon="2.43562">
        <ele>1745</ele>
        <time>2024-09-18T13:32:29Z</time>
      </trkpt>
      <trkpt lat="42.52977" lon="2.43558">
        <ele>1745</ele>
        <time>2024-09-18T13:32:35Z</time>
      </trkpt>
      <trkpt lat="42.52978" lon="2.43555">
        <ele>1745</ele>
        <time>2024-09-18T13:32:40Z</time>
      </trkpt>
      <trkpt lat="42.52978" lon="2.43551">
        <ele>1745</ele>
        <time>2024-09-18T13:32:48Z</time>
      </trkpt>
      <trkpt lat="42.52976" lon="2.43551">
        <ele>1743</ele>
        <time>2024-09-18T13:32:53Z</time>
      </trkpt>
      <trkpt lat="42.52975" lon="2.43548">
        <ele>1744</ele>
        <time>2024-09-18T13:32:58Z</time>
      </trkpt>
      <trkpt lat="42.52975" lon="2.43545">
        <ele>1745</ele>
        <time>2024-09-18T13:33:00Z</time>
      </trkpt>
      <trkpt lat="42.52977" lon="2.43544">
        <ele>1742</ele>
        <time>2024-09-18T13:33:17Z</time>
      </trkpt>
      <trkpt lat="42.52977" lon="2.43541">
        <ele>1747</ele>
        <time>2024-09-18T13:34:19Z</time>
      </trkpt>
      <trkpt lat="42.52977" lon="2.43541">
        <ele>1746</ele>
        <time>2024-09-18T13:34:27Z</time>
      </trkpt>
      <trkpt lat="42.52975" lon="2.43542">
        <ele>1743</ele>
        <time>2024-09-18T13:34:42Z</time>
      </trkpt>
      <trkpt lat="42.52973" lon="2.4354">
        <ele>1744</ele>
        <time>2024-09-18T13:34:52Z</time>
      </trkpt>
      <trkpt lat="42.52974" lon="2.43541">
        <ele>1743</ele>
        <time>2024-09-18T13:36:09Z</time>
      </trkpt>
      <trkpt lat="42.52973" lon="2.43541">
        <ele>1746</ele>
        <time>2024-09-18T13:37:05Z</time>
      </trkpt>
      <trkpt lat="42.52972" lon="2.43539">
        <ele>1746</ele>
        <time>2024-09-18T13:39:03Z</time>
      </trkpt>
      <trkpt lat="42.52971" lon="2.43541">
        <ele>1746</ele>
        <time>2024-09-18T13:39:24Z</time>
      </trkpt>
      <trkpt lat="42.52973" lon="2.43542">
        <ele>1744</ele>
        <time>2024-09-18T13:39:48Z</time>
      </trkpt>
      <trkpt lat="42.52976" lon="2.43541">
        <ele>1743</ele>
        <time>2024-09-18T13:39:51Z</time>
      </trkpt>
      <trkpt lat="42.52979" lon="2.43539">
        <ele>1743</ele>
        <time>2024-09-18T13:39:53Z</time>
      </trkpt>
      <trkpt lat="42.52982" lon="2.43536">
        <ele>1742</ele>
        <time>2024-09-18T13:39:57Z</time>
      </trkpt>
      <trkpt lat="42.52985" lon="2.43534">
        <ele>1743</ele>
        <time>2024-09-18T13:39:59Z</time>
      </trkpt>
      <trkpt lat="42.52987" lon="2.43531">
        <ele>1743</ele>
        <time>2024-09-18T13:40:02Z</time>
      </trkpt>
      <trkpt lat="42.5299" lon="2.43527">
        <ele>1743</ele>
        <time>2024-09-18T13:40:05Z</time>
      </trkpt>
      <trkpt lat="42.52992" lon="2.43524">
        <ele>1743</ele>
        <time>2024-09-18T13:40:08Z</time>
      </trkpt>
      <trkpt lat="42.52995" lon="2.4352">
        <ele>1742</ele>
        <time>2024-09-18T13:40:12Z</time>
      </trkpt>
      <trkpt lat="42.52997" lon="2.43517">
        <ele>1743</ele>
        <time>2024-09-18T13:40:15Z</time>
      </trkpt>
      <trkpt lat="42.53" lon="2.43514">
        <ele>1742</ele>
        <time>2024-09-18T13:40:19Z</time>
      </trkpt>
      <trkpt lat="42.53002" lon="2.4351">
        <ele>1744</ele>
        <time>2024-09-18T13:40:22Z</time>
      </trkpt>
      <trkpt lat="42.53006" lon="2.43507">
        <ele>1744</ele>
        <time>2024-09-18T13:40:25Z</time>
      </trkpt>
      <trkpt lat="42.53009" lon="2.43506">
        <ele>1744</ele>
        <time>2024-09-18T13:40:27Z</time>
      </trkpt>
      <trkpt lat="42.53011" lon="2.43504">
        <ele>1745</ele>
        <time>2024-09-18T13:40:29Z</time>
      </trkpt>
      <trkpt lat="42.53014" lon="2.43502">
        <ele>1744</ele>
        <time>2024-09-18T13:40:31Z</time>
      </trkpt>
      <trkpt lat="42.53017" lon="2.435">
        <ele>1744</ele>
        <time>2024-09-18T13:40:33Z</time>
      </trkpt>
      <trkpt lat="42.5302" lon="2.43498">
        <ele>1743</ele>
        <time>2024-09-18T13:40:36Z</time>
      </trkpt>
      <trkpt lat="42.53023" lon="2.43497">
        <ele>1742</ele>
        <time>2024-09-18T13:40:38Z</time>
      </trkpt>
      <trkpt lat="42.53026" lon="2.43496">
        <ele>1742</ele>
        <time>2024-09-18T13:40:41Z</time>
      </trkpt>
      <trkpt lat="42.53029" lon="2.43493">
        <ele>1743</ele>
        <time>2024-09-18T13:40:44Z</time>
      </trkpt>
      <trkpt lat="42.53032" lon="2.43491">
        <ele>1743</ele>
        <time>2024-09-18T13:40:47Z</time>
      </trkpt>
      <trkpt lat="42.53035" lon="2.43488">
        <ele>1744</ele>
        <time>2024-09-18T13:40:49Z</time>
      </trkpt>
      <trkpt lat="42.53039" lon="2.43487">
        <ele>1744</ele>
        <time>2024-09-18T13:40:53Z</time>
      </trkpt>
      <trkpt lat="42.53042" lon="2.43486">
        <ele>1745</ele>
        <time>2024-09-18T13:40:55Z</time>
      </trkpt>
      <trkpt lat="42.53045" lon="2.43485">
        <ele>1744</ele>
        <time>2024-09-18T13:40:58Z</time>
      </trkpt>
      <trkpt lat="42.53048" lon="2.43485">
        <ele>1745</ele>
        <time>2024-09-18T13:41:00Z</time>
      </trkpt>
      <trkpt lat="42.53051" lon="2.43487">
        <ele>1743</ele>
        <time>2024-09-18T13:41:03Z</time>
      </trkpt>
      <trkpt lat="42.53055" lon="2.43488">
        <ele>1744</ele>
        <time>2024-09-18T13:41:06Z</time>
      </trkpt>
      <trkpt lat="42.53059" lon="2.43488">
        <ele>1744</ele>
        <time>2024-09-18T13:41:09Z</time>
      </trkpt>
      <trkpt lat="42.53062" lon="2.43491">
        <ele>1744</ele>
        <time>2024-09-18T13:41:12Z</time>
      </trkpt>
      <trkpt lat="42.53064" lon="2.43494">
        <ele>1743</ele>
        <time>2024-09-18T13:41:15Z</time>
      </trkpt>
      <trkpt lat="42.53067" lon="2.43496">
        <ele>1743</ele>
        <time>2024-09-18T13:41:18Z</time>
      </trkpt>
      <trkpt lat="42.53069" lon="2.435">
        <ele>1743</ele>
        <time>2024-09-18T13:41:20Z</time>
      </trkpt>
      <trkpt lat="42.53071" lon="2.43502">
        <ele>1744</ele>
        <time>2024-09-18T13:41:23Z</time>
      </trkpt>
      <trkpt lat="42.53073" lon="2.43505">
        <ele>1745</ele>
        <time>2024-09-18T13:41:25Z</time>
      </trkpt>
      <trkpt lat="42.53075" lon="2.43508">
        <ele>1745</ele>
        <time>2024-09-18T13:41:28Z</time>
      </trkpt>
      <trkpt lat="42.53077" lon="2.43512">
        <ele>1745</ele>
        <time>2024-09-18T13:41:31Z</time>
      </trkpt>
      <trkpt lat="42.53079" lon="2.43515">
        <ele>1744</ele>
        <time>2024-09-18T13:41:33Z</time>
      </trkpt>
      <trkpt lat="42.53081" lon="2.43518">
        <ele>1745</ele>
        <time>2024-09-18T13:41:36Z</time>
      </trkpt>
      <trkpt lat="42.53083" lon="2.43521">
        <ele>1745</ele>
        <time>2024-09-18T13:41:38Z</time>
      </trkpt>
      <trkpt lat="42.53085" lon="2.43525">
        <ele>1744</ele>
        <time>2024-09-18T13:41:42Z</time>
      </trkpt>
      <trkpt lat="42.53087" lon="2.43529">
        <ele>1744</ele>
        <time>2024-09-18T13:41:44Z</time>
      </trkpt>
      <trkpt lat="42.5309" lon="2.43532">
        <ele>1744</ele>
        <time>2024-09-18T13:41:47Z</time>
      </trkpt>
      <trkpt lat="42.53092" lon="2.43535">
        <ele>1745</ele>
        <time>2024-09-18T13:41:49Z</time>
      </trkpt>
      <trkpt lat="42.53094" lon="2.43539">
        <ele>1745</ele>
        <time>2024-09-18T13:41:52Z</time>
      </trkpt>
      <trkpt lat="42.53097" lon="2.43542">
        <ele>1746</ele>
        <time>2024-09-18T13:41:55Z</time>
      </trkpt>
      <trkpt lat="42.531" lon="2.43545">
        <ele>1747</ele>
        <time>2024-09-18T13:41:58Z</time>
      </trkpt>
      <trkpt lat="42.53102" lon="2.43548">
        <ele>1747</ele>
        <time>2024-09-18T13:42:00Z</time>
      </trkpt>
      <trkpt lat="42.53104" lon="2.43551">
        <ele>1746</ele>
        <time>2024-09-18T13:42:05Z</time>
      </trkpt>
      <trkpt lat="42.53107" lon="2.43554">
        <ele>1747</ele>
        <time>2024-09-18T13:42:07Z</time>
      </trkpt>
      <trkpt lat="42.5311" lon="2.43557">
        <ele>1747</ele>
        <time>2024-09-18T13:42:10Z</time>
      </trkpt>
      <trkpt lat="42.5311" lon="2.43561">
        <ele>1747</ele>
        <time>2024-09-18T13:42:12Z</time>
      </trkpt>
      <trkpt lat="42.53112" lon="2.43564">
        <ele>1746</ele>
        <time>2024-09-18T13:42:15Z</time>
      </trkpt>
      <trkpt lat="42.53114" lon="2.43568">
        <ele>1747</ele>
        <time>2024-09-18T13:42:17Z</time>
      </trkpt>
      <trkpt lat="42.53117" lon="2.43571">
        <ele>1748</ele>
        <time>2024-09-18T13:42:20Z</time>
      </trkpt>
      <trkpt lat="42.53119" lon="2.43574">
        <ele>1748</ele>
        <time>2024-09-18T13:42:23Z</time>
      </trkpt>
      <trkpt lat="42.53122" lon="2.43577">
        <ele>1749</ele>
        <time>2024-09-18T13:42:25Z</time>
      </trkpt>
      <trkpt lat="42.53124" lon="2.4358">
        <ele>1749</ele>
        <time>2024-09-18T13:42:29Z</time>
      </trkpt>
      <trkpt lat="42.53126" lon="2.43583">
        <ele>1751</ele>
        <time>2024-09-18T13:42:31Z</time>
      </trkpt>
      <trkpt lat="42.53129" lon="2.43586">
        <ele>1753</ele>
        <time>2024-09-18T13:42:34Z</time>
      </trkpt>
      <trkpt lat="42.53133" lon="2.43589">
        <ele>1753</ele>
        <time>2024-09-18T13:42:36Z</time>
      </trkpt>
      <trkpt lat="42.53135" lon="2.43593">
        <ele>1750</ele>
        <time>2024-09-18T13:42:38Z</time>
      </trkpt>
      <trkpt lat="42.53137" lon="2.43596">
        <ele>1750</ele>
        <time>2024-09-18T13:42:42Z</time>
      </trkpt>
      <trkpt lat="42.5314" lon="2.43598">
        <ele>1749</ele>
        <time>2024-09-18T13:42:44Z</time>
      </trkpt>
      <trkpt lat="42.53143" lon="2.43599">
        <ele>1750</ele>
        <time>2024-09-18T13:42:46Z</time>
      </trkpt>
      <trkpt lat="42.53145" lon="2.43598">
        <ele>1750</ele>
        <time>2024-09-18T13:42:49Z</time>
      </trkpt>
      <trkpt lat="42.53149" lon="2.43598">
        <ele>1751</ele>
        <time>2024-09-18T13:42:51Z</time>
      </trkpt>
      <trkpt lat="42.53152" lon="2.43597">
        <ele>1751</ele>
        <time>2024-09-18T13:42:53Z</time>
      </trkpt>
      <trkpt lat="42.53155" lon="2.43594">
        <ele>1751</ele>
        <time>2024-09-18T13:42:56Z</time>
      </trkpt>
      <trkpt lat="42.53158" lon="2.43593">
        <ele>1750</ele>
        <time>2024-09-18T13:42:59Z</time>
      </trkpt>
      <trkpt lat="42.53161" lon="2.43594">
        <ele>1750</ele>
        <time>2024-09-18T13:43:01Z</time>
      </trkpt>
      <trkpt lat="42.53163" lon="2.43593">
        <ele>1750</ele>
        <time>2024-09-18T13:43:03Z</time>
      </trkpt>
      <trkpt lat="42.53167" lon="2.43591">
        <ele>1751</ele>
        <time>2024-09-18T13:43:05Z</time>
      </trkpt>
      <trkpt lat="42.53169" lon="2.43589">
        <ele>1749</ele>
        <time>2024-09-18T13:43:08Z</time>
      </trkpt>
      <trkpt lat="42.53173" lon="2.43587">
        <ele>1751</ele>
        <time>2024-09-18T13:43:11Z</time>
      </trkpt>
      <trkpt lat="42.53175" lon="2.43585">
        <ele>1750</ele>
        <time>2024-09-18T13:43:13Z</time>
      </trkpt>
      <trkpt lat="42.53179" lon="2.43583">
        <ele>1749</ele>
        <time>2024-09-18T13:43:17Z</time>
      </trkpt>
      <trkpt lat="42.53182" lon="2.4358">
        <ele>1750</ele>
        <time>2024-09-18T13:43:19Z</time>
      </trkpt>
      <trkpt lat="42.53185" lon="2.43578">
        <ele>1749</ele>
        <time>2024-09-18T13:43:23Z</time>
      </trkpt>
      <trkpt lat="42.53188" lon="2.43577">
        <ele>1748</ele>
        <time>2024-09-18T13:43:26Z</time>
      </trkpt>
      <trkpt lat="42.53191" lon="2.4358">
        <ele>1746</ele>
        <time>2024-09-18T13:43:29Z</time>
      </trkpt>
      <trkpt lat="42.53192" lon="2.43583">
        <ele>1746</ele>
        <time>2024-09-18T13:43:32Z</time>
      </trkpt>
      <trkpt lat="42.53195" lon="2.43586">
        <ele>1745</ele>
        <time>2024-09-18T13:43:35Z</time>
      </trkpt>
      <trkpt lat="42.53197" lon="2.43589">
        <ele>1745</ele>
        <time>2024-09-18T13:43:39Z</time>
      </trkpt>
      <trkpt lat="42.532" lon="2.43592">
        <ele>1746</ele>
        <time>2024-09-18T13:43:42Z</time>
      </trkpt>
      <trkpt lat="42.53204" lon="2.43595">
        <ele>1746</ele>
        <time>2024-09-18T13:43:46Z</time>
      </trkpt>
      <trkpt lat="42.53206" lon="2.43599">
        <ele>1745</ele>
        <time>2024-09-18T13:43:47Z</time>
      </trkpt>
      <trkpt lat="42.53209" lon="2.43603">
        <ele>1746</ele>
        <time>2024-09-18T13:43:51Z</time>
      </trkpt>
      <trkpt lat="42.53212" lon="2.43604">
        <ele>1746</ele>
        <time>2024-09-18T13:43:53Z</time>
      </trkpt>
      <trkpt lat="42.53215" lon="2.43606">
        <ele>1748</ele>
        <time>2024-09-18T13:43:55Z</time>
      </trkpt>
      <trkpt lat="42.53217" lon="2.43609">
        <ele>1750</ele>
        <time>2024-09-18T13:43:58Z</time>
      </trkpt>
      <trkpt lat="42.53221" lon="2.43611">
        <ele>1749</ele>
        <time>2024-09-18T13:44:00Z</time>
      </trkpt>
      <trkpt lat="42.53224" lon="2.43614">
        <ele>1749</ele>
        <time>2024-09-18T13:44:03Z</time>
      </trkpt>
      <trkpt lat="42.53226" lon="2.43617">
        <ele>1747</ele>
        <time>2024-09-18T13:44:06Z</time>
      </trkpt>
      <trkpt lat="42.53228" lon="2.43622">
        <ele>1747</ele>
        <time>2024-09-18T13:44:11Z</time>
      </trkpt>
      <trkpt lat="42.5323" lon="2.43626">
        <ele>1746</ele>
        <time>2024-09-18T13:44:14Z</time>
      </trkpt>
      <trkpt lat="42.53231" lon="2.43629">
        <ele>1747</ele>
        <time>2024-09-18T13:44:16Z</time>
      </trkpt>
      <trkpt lat="42.53232" lon="2.43634">
        <ele>1747</ele>
        <time>2024-09-18T13:44:20Z</time>
      </trkpt>
      <trkpt lat="42.53234" lon="2.43639">
        <ele>1748</ele>
        <time>2024-09-18T13:44:23Z</time>
      </trkpt>
      <trkpt lat="42.53235" lon="2.43643">
        <ele>1748</ele>
        <time>2024-09-18T13:44:25Z</time>
      </trkpt>
      <trkpt lat="42.53236" lon="2.43647">
        <ele>1749</ele>
        <time>2024-09-18T13:44:27Z</time>
      </trkpt>
      <trkpt lat="42.53238" lon="2.43651">
        <ele>1749</ele>
        <time>2024-09-18T13:44:30Z</time>
      </trkpt>
      <trkpt lat="42.53239" lon="2.43656">
        <ele>1750</ele>
        <time>2024-09-18T13:44:32Z</time>
      </trkpt>
      <trkpt lat="42.53242" lon="2.43659">
        <ele>1751</ele>
        <time>2024-09-18T13:44:34Z</time>
      </trkpt>
      <trkpt lat="42.53246" lon="2.43661">
        <ele>1753</ele>
        <time>2024-09-18T13:44:38Z</time>
      </trkpt>
      <trkpt lat="42.53249" lon="2.43663">
        <ele>1752</ele>
        <time>2024-09-18T13:44:41Z</time>
      </trkpt>
      <trkpt lat="42.53252" lon="2.43664">
        <ele>1753</ele>
        <time>2024-09-18T13:44:43Z</time>
      </trkpt>
      <trkpt lat="42.53256" lon="2.43664">
        <ele>1751</ele>
        <time>2024-09-18T13:44:47Z</time>
      </trkpt>
      <trkpt lat="42.5326" lon="2.43663">
        <ele>1752</ele>
        <time>2024-09-18T13:44:48Z</time>
      </trkpt>
      <trkpt lat="42.53264" lon="2.43665">
        <ele>1751</ele>
        <time>2024-09-18T13:44:53Z</time>
      </trkpt>
      <trkpt lat="42.53267" lon="2.43668">
        <ele>1748</ele>
        <time>2024-09-18T13:44:56Z</time>
      </trkpt>
      <trkpt lat="42.5327" lon="2.43671">
        <ele>1749</ele>
        <time>2024-09-18T13:44:58Z</time>
      </trkpt>
      <trkpt lat="42.53273" lon="2.43673">
        <ele>1748</ele>
        <time>2024-09-18T13:45:00Z</time>
      </trkpt>
      <trkpt lat="42.53278" lon="2.43675">
        <ele>1748</ele>
        <time>2024-09-18T13:45:03Z</time>
      </trkpt>
      <trkpt lat="42.53281" lon="2.43677">
        <ele>1746</ele>
        <time>2024-09-18T13:45:04Z</time>
      </trkpt>
      <trkpt lat="42.53283" lon="2.43679">
        <ele>1746</ele>
        <time>2024-09-18T13:45:07Z</time>
      </trkpt>
      <trkpt lat="42.53285" lon="2.43683">
        <ele>1746</ele>
        <time>2024-09-18T13:45:11Z</time>
      </trkpt>
      <trkpt lat="42.53287" lon="2.43686">
        <ele>1745</ele>
        <time>2024-09-18T13:45:14Z</time>
      </trkpt>
      <trkpt lat="42.53289" lon="2.43689">
        <ele>1745</ele>
        <time>2024-09-18T13:45:17Z</time>
      </trkpt>
      <trkpt lat="42.53292" lon="2.43692">
        <ele>1745</ele>
        <time>2024-09-18T13:45:19Z</time>
      </trkpt>
      <trkpt lat="42.53295" lon="2.43693">
        <ele>1748</ele>
        <time>2024-09-18T13:45:22Z</time>
      </trkpt>
      <trkpt lat="42.53298" lon="2.43692">
        <ele>1746</ele>
        <time>2024-09-18T13:45:25Z</time>
      </trkpt>
      <trkpt lat="42.53301" lon="2.43691">
        <ele>1748</ele>
        <time>2024-09-18T13:45:27Z</time>
      </trkpt>
      <trkpt lat="42.53304" lon="2.43688">
        <ele>1748</ele>
        <time>2024-09-18T13:45:30Z</time>
      </trkpt>
      <trkpt lat="42.53306" lon="2.43684">
        <ele>1749</ele>
        <time>2024-09-18T13:45:33Z</time>
      </trkpt>
      <trkpt lat="42.53308" lon="2.43679">
        <ele>1748</ele>
        <time>2024-09-18T13:45:37Z</time>
      </trkpt>
      <trkpt lat="42.53309" lon="2.43675">
        <ele>1750</ele>
        <time>2024-09-18T13:45:39Z</time>
      </trkpt>
      <trkpt lat="42.53311" lon="2.43671">
        <ele>1749</ele>
        <time>2024-09-18T13:45:42Z</time>
      </trkpt>
      <trkpt lat="42.53312" lon="2.43667">
        <ele>1750</ele>
        <time>2024-09-18T13:45:45Z</time>
      </trkpt>
      <trkpt lat="42.53313" lon="2.43662">
        <ele>1750</ele>
        <time>2024-09-18T13:45:48Z</time>
      </trkpt>
      <trkpt lat="42.53315" lon="2.43659">
        <ele>1752</ele>
        <time>2024-09-18T13:45:51Z</time>
      </trkpt>
      <trkpt lat="42.53317" lon="2.43655">
        <ele>1752</ele>
        <time>2024-09-18T13:45:53Z</time>
      </trkpt>
      <trkpt lat="42.53318" lon="2.43652">
        <ele>1751</ele>
        <time>2024-09-18T13:45:55Z</time>
      </trkpt>
      <trkpt lat="42.5332" lon="2.43648">
        <ele>1752</ele>
        <time>2024-09-18T13:45:58Z</time>
      </trkpt>
      <trkpt lat="42.53323" lon="2.43645">
        <ele>1752</ele>
        <time>2024-09-18T13:46:00Z</time>
      </trkpt>
      <trkpt lat="42.53324" lon="2.43642">
        <ele>1753</ele>
        <time>2024-09-18T13:46:02Z</time>
      </trkpt>
      <trkpt lat="42.53326" lon="2.43639">
        <ele>1753</ele>
        <time>2024-09-18T13:46:04Z</time>
      </trkpt>
      <trkpt lat="42.53327" lon="2.43635">
        <ele>1752</ele>
        <time>2024-09-18T13:46:08Z</time>
      </trkpt>
      <trkpt lat="42.53329" lon="2.43632">
        <ele>1751</ele>
        <time>2024-09-18T13:46:11Z</time>
      </trkpt>
      <trkpt lat="42.5333" lon="2.43627">
        <ele>1753</ele>
        <time>2024-09-18T13:46:15Z</time>
      </trkpt>
      <trkpt lat="42.53331" lon="2.43622">
        <ele>1752</ele>
        <time>2024-09-18T13:46:19Z</time>
      </trkpt>
      <trkpt lat="42.53332" lon="2.43619">
        <ele>1752</ele>
        <time>2024-09-18T13:46:21Z</time>
      </trkpt>
      <trkpt lat="42.53333" lon="2.43615">
        <ele>1753</ele>
        <time>2024-09-18T13:46:23Z</time>
      </trkpt>
      <trkpt lat="42.53335" lon="2.43611">
        <ele>1753</ele>
        <time>2024-09-18T13:46:26Z</time>
      </trkpt>
      <trkpt lat="42.53336" lon="2.43607">
        <ele>1754</ele>
        <time>2024-09-18T13:46:28Z</time>
      </trkpt>
      <trkpt lat="42.53337" lon="2.43604">
        <ele>1753</ele>
        <time>2024-09-18T13:46:31Z</time>
      </trkpt>
      <trkpt lat="42.53338" lon="2.43599">
        <ele>1755</ele>
        <time>2024-09-18T13:46:34Z</time>
      </trkpt>
      <trkpt lat="42.53339" lon="2.43596">
        <ele>1755</ele>
        <time>2024-09-18T13:46:37Z</time>
      </trkpt>
      <trkpt lat="42.5334" lon="2.43591">
        <ele>1754</ele>
        <time>2024-09-18T13:46:40Z</time>
      </trkpt>
      <trkpt lat="42.5334" lon="2.43587">
        <ele>1756</ele>
        <time>2024-09-18T13:46:43Z</time>
      </trkpt>
      <trkpt lat="42.53342" lon="2.43583">
        <ele>1756</ele>
        <time>2024-09-18T13:46:46Z</time>
      </trkpt>
      <trkpt lat="42.53343" lon="2.43579">
        <ele>1757</ele>
        <time>2024-09-18T13:46:48Z</time>
      </trkpt>
      <trkpt lat="42.53346" lon="2.43575">
        <ele>1757</ele>
        <time>2024-09-18T13:46:52Z</time>
      </trkpt>
      <trkpt lat="42.53349" lon="2.43573">
        <ele>1756</ele>
        <time>2024-09-18T13:46:55Z</time>
      </trkpt>
      <trkpt lat="42.53352" lon="2.43571">
        <ele>1756</ele>
        <time>2024-09-18T13:46:58Z</time>
      </trkpt>
      <trkpt lat="42.53354" lon="2.43568">
        <ele>1756</ele>
        <time>2024-09-18T13:47:01Z</time>
      </trkpt>
      <trkpt lat="42.53357" lon="2.43567">
        <ele>1755</ele>
        <time>2024-09-18T13:47:03Z</time>
      </trkpt>
      <trkpt lat="42.5336" lon="2.43565">
        <ele>1755</ele>
        <time>2024-09-18T13:47:06Z</time>
      </trkpt>
      <trkpt lat="42.53363" lon="2.43563">
        <ele>1755</ele>
        <time>2024-09-18T13:47:09Z</time>
      </trkpt>
      <trkpt lat="42.53365" lon="2.43562">
        <ele>1756</ele>
        <time>2024-09-18T13:47:11Z</time>
      </trkpt>
      <trkpt lat="42.53368" lon="2.4356">
        <ele>1755</ele>
        <time>2024-09-18T13:47:14Z</time>
      </trkpt>
      <trkpt lat="42.53371" lon="2.43558">
        <ele>1755</ele>
        <time>2024-09-18T13:47:16Z</time>
      </trkpt>
      <trkpt lat="42.53374" lon="2.43556">
        <ele>1754</ele>
        <time>2024-09-18T13:47:20Z</time>
      </trkpt>
      <trkpt lat="42.53377" lon="2.43553">
        <ele>1757</ele>
        <time>2024-09-18T13:47:37Z</time>
      </trkpt>
      <trkpt lat="42.53379" lon="2.43552">
        <ele>1757</ele>
        <time>2024-09-18T13:47:40Z</time>
      </trkpt>
      <trkpt lat="42.53382" lon="2.43551">
        <ele>1755</ele>
        <time>2024-09-18T13:47:43Z</time>
      </trkpt>
      <trkpt lat="42.53386" lon="2.43551">
        <ele>1755</ele>
        <time>2024-09-18T13:47:45Z</time>
      </trkpt>
      <trkpt lat="42.53389" lon="2.43552">
        <ele>1755</ele>
        <time>2024-09-18T13:47:47Z</time>
      </trkpt>
      <trkpt lat="42.53392" lon="2.43552">
        <ele>1755</ele>
        <time>2024-09-18T13:47:50Z</time>
      </trkpt>
      <trkpt lat="42.53395" lon="2.43551">
        <ele>1755</ele>
        <time>2024-09-18T13:47:53Z</time>
      </trkpt>
      <trkpt lat="42.53399" lon="2.43551">
        <ele>1755</ele>
        <time>2024-09-18T13:47:56Z</time>
      </trkpt>
      <trkpt lat="42.53402" lon="2.4355">
        <ele>1756</ele>
        <time>2024-09-18T13:47:58Z</time>
      </trkpt>
      <trkpt lat="42.53405" lon="2.43549">
        <ele>1757</ele>
        <time>2024-09-18T13:48:01Z</time>
      </trkpt>
      <trkpt lat="42.53408" lon="2.43548">
        <ele>1757</ele>
        <time>2024-09-18T13:48:03Z</time>
      </trkpt>
      <trkpt lat="42.53411" lon="2.43547">
        <ele>1757</ele>
        <time>2024-09-18T13:48:05Z</time>
      </trkpt>
      <trkpt lat="42.53414" lon="2.43546">
        <ele>1757</ele>
        <time>2024-09-18T13:48:08Z</time>
      </trkpt>
      <trkpt lat="42.53417" lon="2.43543">
        <ele>1758</ele>
        <time>2024-09-18T13:48:10Z</time>
      </trkpt>
      <trkpt lat="42.5342" lon="2.43542">
        <ele>1758</ele>
        <time>2024-09-18T13:48:13Z</time>
      </trkpt>
      <trkpt lat="42.53423" lon="2.4354">
        <ele>1758</ele>
        <time>2024-09-18T13:48:15Z</time>
      </trkpt>
      <trkpt lat="42.53426" lon="2.43538">
        <ele>1757</ele>
        <time>2024-09-18T13:48:22Z</time>
      </trkpt>
      <trkpt lat="42.53429" lon="2.43536">
        <ele>1758</ele>
        <time>2024-09-18T13:48:24Z</time>
      </trkpt>
      <trkpt lat="42.53432" lon="2.43535">
        <ele>1758</ele>
        <time>2024-09-18T13:48:27Z</time>
      </trkpt>
      <trkpt lat="42.53435" lon="2.43534">
        <ele>1757</ele>
        <time>2024-09-18T13:48:30Z</time>
      </trkpt>
      <trkpt lat="42.5344" lon="2.43533">
        <ele>1758</ele>
        <time>2024-09-18T13:48:33Z</time>
      </trkpt>
      <trkpt lat="42.53443" lon="2.43531">
        <ele>1759</ele>
        <time>2024-09-18T13:48:36Z</time>
      </trkpt>
      <trkpt lat="42.53447" lon="2.43529">
        <ele>1759</ele>
        <time>2024-09-18T13:48:39Z</time>
      </trkpt>
      <trkpt lat="42.5345" lon="2.43528">
        <ele>1758</ele>
        <time>2024-09-18T13:48:41Z</time>
      </trkpt>
      <trkpt lat="42.53452" lon="2.43527">
        <ele>1758</ele>
        <time>2024-09-18T13:48:43Z</time>
      </trkpt>
      <trkpt lat="42.53456" lon="2.43526">
        <ele>1758</ele>
        <time>2024-09-18T13:48:46Z</time>
      </trkpt>
      <trkpt lat="42.5346" lon="2.43524">
        <ele>1757</ele>
        <time>2024-09-18T13:48:49Z</time>
      </trkpt>
      <trkpt lat="42.53463" lon="2.43522">
        <ele>1757</ele>
        <time>2024-09-18T13:48:52Z</time>
      </trkpt>
      <trkpt lat="42.53466" lon="2.43522">
        <ele>1757</ele>
        <time>2024-09-18T13:48:54Z</time>
      </trkpt>
      <trkpt lat="42.53469" lon="2.43521">
        <ele>1756</ele>
        <time>2024-09-18T13:48:57Z</time>
      </trkpt>
      <trkpt lat="42.53472" lon="2.4352">
        <ele>1756</ele>
        <time>2024-09-18T13:48:59Z</time>
      </trkpt>
      <trkpt lat="42.53475" lon="2.43518">
        <ele>1755</ele>
        <time>2024-09-18T13:49:01Z</time>
      </trkpt>
      <trkpt lat="42.53478" lon="2.43518">
        <ele>1755</ele>
        <time>2024-09-18T13:49:04Z</time>
      </trkpt>
      <trkpt lat="42.53481" lon="2.43517">
        <ele>1755</ele>
        <time>2024-09-18T13:49:06Z</time>
      </trkpt>
      <trkpt lat="42.53485" lon="2.43517">
        <ele>1755</ele>
        <time>2024-09-18T13:49:09Z</time>
      </trkpt>
      <trkpt lat="42.53488" lon="2.43518">
        <ele>1754</ele>
        <time>2024-09-18T13:49:12Z</time>
      </trkpt>
      <trkpt lat="42.53491" lon="2.43517">
        <ele>1755</ele>
        <time>2024-09-18T13:49:15Z</time>
      </trkpt>
      <trkpt lat="42.53495" lon="2.43518">
        <ele>1754</ele>
        <time>2024-09-18T13:49:18Z</time>
      </trkpt>
      <trkpt lat="42.53498" lon="2.43519">
        <ele>1754</ele>
        <time>2024-09-18T13:49:21Z</time>
      </trkpt>
      <trkpt lat="42.53501" lon="2.4352">
        <ele>1753</ele>
        <time>2024-09-18T13:49:23Z</time>
      </trkpt>
      <trkpt lat="42.53504" lon="2.4352">
        <ele>1754</ele>
        <time>2024-09-18T13:49:25Z</time>
      </trkpt>
      <trkpt lat="42.53507" lon="2.4352">
        <ele>1753</ele>
        <time>2024-09-18T13:49:28Z</time>
      </trkpt>
      <trkpt lat="42.53511" lon="2.4352">
        <ele>1754</ele>
        <time>2024-09-18T13:49:31Z</time>
      </trkpt>
      <trkpt lat="42.53514" lon="2.4352">
        <ele>1753</ele>
        <time>2024-09-18T13:49:33Z</time>
      </trkpt>
      <trkpt lat="42.53517" lon="2.43521">
        <ele>1754</ele>
        <time>2024-09-18T13:49:38Z</time>
      </trkpt>
      <trkpt lat="42.53521" lon="2.43522">
        <ele>1754</ele>
        <time>2024-09-18T13:49:41Z</time>
      </trkpt>
      <trkpt lat="42.53525" lon="2.43522">
        <ele>1754</ele>
        <time>2024-09-18T13:49:44Z</time>
      </trkpt>
      <trkpt lat="42.53528" lon="2.43523">
        <ele>1753</ele>
        <time>2024-09-18T13:49:46Z</time>
      </trkpt>
      <trkpt lat="42.53532" lon="2.43524">
        <ele>1753</ele>
        <time>2024-09-18T13:49:50Z</time>
      </trkpt>
      <trkpt lat="42.53536" lon="2.43525">
        <ele>1753</ele>
        <time>2024-09-18T13:49:53Z</time>
      </trkpt>
      <trkpt lat="42.53539" lon="2.43525">
        <ele>1754</ele>
        <time>2024-09-18T13:49:55Z</time>
      </trkpt>
      <trkpt lat="42.53542" lon="2.43524">
        <ele>1755</ele>
        <time>2024-09-18T13:49:59Z</time>
      </trkpt>
      <trkpt lat="42.53545" lon="2.43522">
        <ele>1756</ele>
        <time>2024-09-18T13:50:02Z</time>
      </trkpt>
      <trkpt lat="42.53549" lon="2.43522">
        <ele>1755</ele>
        <time>2024-09-18T13:50:04Z</time>
      </trkpt>
      <trkpt lat="42.53548" lon="2.43523">
        <ele>1754</ele>
        <time>2024-09-18T13:50:05Z</time>
      </trkpt>
      <trkpt lat="42.5355" lon="2.43523">
        <ele>1754</ele>
        <time>2024-09-18T13:50:08Z</time>
      </trkpt>
      <trkpt lat="42.53552" lon="2.43524">
        <ele>1754</ele>
        <time>2024-09-18T13:50:09Z</time>
      </trkpt>
      <trkpt lat="42.53556" lon="2.43523">
        <ele>1755</ele>
        <time>2024-09-18T13:50:11Z</time>
      </trkpt>
      <trkpt lat="42.5356" lon="2.43522">
        <ele>1755</ele>
        <time>2024-09-18T13:50:14Z</time>
      </trkpt>
      <trkpt lat="42.53563" lon="2.4352">
        <ele>1756</ele>
        <time>2024-09-18T13:50:16Z</time>
      </trkpt>
      <trkpt lat="42.53566" lon="2.43517">
        <ele>1756</ele>
        <time>2024-09-18T13:50:17Z</time>
      </trkpt>
      <trkpt lat="42.53569" lon="2.43514">
        <ele>1757</ele>
        <time>2024-09-18T13:50:20Z</time>
      </trkpt>
      <trkpt lat="42.53573" lon="2.43513">
        <ele>1757</ele>
        <time>2024-09-18T13:50:23Z</time>
      </trkpt>
      <trkpt lat="42.53577" lon="2.43512">
        <ele>1757</ele>
        <time>2024-09-18T13:50:28Z</time>
      </trkpt>
      <trkpt lat="42.5358" lon="2.4351">
        <ele>1757</ele>
        <time>2024-09-18T13:50:31Z</time>
      </trkpt>
      <trkpt lat="42.53584" lon="2.43507">
        <ele>1757</ele>
        <time>2024-09-18T13:50:34Z</time>
      </trkpt>
      <trkpt lat="42.53587" lon="2.43505">
        <ele>1758</ele>
        <time>2024-09-18T13:50:37Z</time>
      </trkpt>
      <trkpt lat="42.5359" lon="2.43504">
        <ele>1756</ele>
        <time>2024-09-18T13:50:39Z</time>
      </trkpt>
      <trkpt lat="42.53593" lon="2.43503">
        <ele>1756</ele>
        <time>2024-09-18T13:50:41Z</time>
      </trkpt>
      <trkpt lat="42.53596" lon="2.43501">
        <ele>1758</ele>
        <time>2024-09-18T13:50:44Z</time>
      </trkpt>
      <trkpt lat="42.53599" lon="2.43498">
        <ele>1756</ele>
        <time>2024-09-18T13:50:47Z</time>
      </trkpt>
      <trkpt lat="42.53601" lon="2.43496">
        <ele>1756</ele>
        <time>2024-09-18T13:50:49Z</time>
      </trkpt>
      <trkpt lat="42.53604" lon="2.43492">
        <ele>1757</ele>
        <time>2024-09-18T13:50:52Z</time>
      </trkpt>
      <trkpt lat="42.53606" lon="2.43489">
        <ele>1757</ele>
        <time>2024-09-18T13:50:55Z</time>
      </trkpt>
      <trkpt lat="42.53609" lon="2.43486">
        <ele>1756</ele>
        <time>2024-09-18T13:50:58Z</time>
      </trkpt>
      <trkpt lat="42.53611" lon="2.43482">
        <ele>1757</ele>
        <time>2024-09-18T13:51:00Z</time>
      </trkpt>
      <trkpt lat="42.53614" lon="2.43478">
        <ele>1756</ele>
        <time>2024-09-18T13:51:03Z</time>
      </trkpt>
      <trkpt lat="42.53615" lon="2.43475">
        <ele>1756</ele>
        <time>2024-09-18T13:51:05Z</time>
      </trkpt>
      <trkpt lat="42.53618" lon="2.43471">
        <ele>1756</ele>
        <time>2024-09-18T13:51:09Z</time>
      </trkpt>
      <trkpt lat="42.5362" lon="2.43468">
        <ele>1756</ele>
        <time>2024-09-18T13:51:11Z</time>
      </trkpt>
      <trkpt lat="42.53622" lon="2.43465">
        <ele>1756</ele>
        <time>2024-09-18T13:51:13Z</time>
      </trkpt>
      <trkpt lat="42.53625" lon="2.43462">
        <ele>1756</ele>
        <time>2024-09-18T13:51:16Z</time>
      </trkpt>
      <trkpt lat="42.53627" lon="2.43459">
        <ele>1755</ele>
        <time>2024-09-18T13:51:19Z</time>
      </trkpt>
      <trkpt lat="42.53629" lon="2.43456">
        <ele>1755</ele>
        <time>2024-09-18T13:51:21Z</time>
      </trkpt>
      <trkpt lat="42.53632" lon="2.43453">
        <ele>1754</ele>
        <time>2024-09-18T13:51:24Z</time>
      </trkpt>
      <trkpt lat="42.53635" lon="2.43449">
        <ele>1753</ele>
        <time>2024-09-18T13:51:27Z</time>
      </trkpt>
      <trkpt lat="42.53637" lon="2.43446">
        <ele>1753</ele>
        <time>2024-09-18T13:51:30Z</time>
      </trkpt>
      <trkpt lat="42.53639" lon="2.43442">
        <ele>1753</ele>
        <time>2024-09-18T13:51:32Z</time>
      </trkpt>
      <trkpt lat="42.53641" lon="2.43439">
        <ele>1751</ele>
        <time>2024-09-18T13:51:35Z</time>
      </trkpt>
      <trkpt lat="42.53643" lon="2.43435">
        <ele>1751</ele>
        <time>2024-09-18T13:51:38Z</time>
      </trkpt>
      <trkpt lat="42.53645" lon="2.43432">
        <ele>1751</ele>
        <time>2024-09-18T13:51:40Z</time>
      </trkpt>
      <trkpt lat="42.53648" lon="2.43428">
        <ele>1751</ele>
        <time>2024-09-18T13:51:43Z</time>
      </trkpt>
      <trkpt lat="42.53649" lon="2.43424">
        <ele>1751</ele>
        <time>2024-09-18T13:51:45Z</time>
      </trkpt>
      <trkpt lat="42.53651" lon="2.43421">
        <ele>1750</ele>
        <time>2024-09-18T13:51:47Z</time>
      </trkpt>
      <trkpt lat="42.53652" lon="2.43417">
        <ele>1751</ele>
        <time>2024-09-18T13:51:50Z</time>
      </trkpt>
      <trkpt lat="42.53655" lon="2.43413">
        <ele>1750</ele>
        <time>2024-09-18T13:51:53Z</time>
      </trkpt>
      <trkpt lat="42.53657" lon="2.4341">
        <ele>1749</ele>
        <time>2024-09-18T13:51:56Z</time>
      </trkpt>
      <trkpt lat="42.5366" lon="2.43406">
        <ele>1749</ele>
        <time>2024-09-18T13:51:58Z</time>
      </trkpt>
      <trkpt lat="42.53662" lon="2.43403">
        <ele>1748</ele>
        <time>2024-09-18T13:52:01Z</time>
      </trkpt>
      <trkpt lat="42.53664" lon="2.43399">
        <ele>1748</ele>
        <time>2024-09-18T13:52:03Z</time>
      </trkpt>
      <trkpt lat="42.53665" lon="2.43395">
        <ele>1748</ele>
        <time>2024-09-18T13:52:06Z</time>
      </trkpt>
      <trkpt lat="42.53667" lon="2.4339">
        <ele>1748</ele>
        <time>2024-09-18T13:52:09Z</time>
      </trkpt>
      <trkpt lat="42.53667" lon="2.43385">
        <ele>1748</ele>
        <time>2024-09-18T13:52:12Z</time>
      </trkpt>
      <trkpt lat="42.53668" lon="2.4338">
        <ele>1748</ele>
        <time>2024-09-18T13:52:15Z</time>
      </trkpt>
      <trkpt lat="42.5367" lon="2.43375">
        <ele>1749</ele>
        <time>2024-09-18T13:52:18Z</time>
      </trkpt>
      <trkpt lat="42.5367" lon="2.43371">
        <ele>1749</ele>
        <time>2024-09-18T13:52:21Z</time>
      </trkpt>
      <trkpt lat="42.53671" lon="2.43367">
        <ele>1748</ele>
        <time>2024-09-18T13:52:23Z</time>
      </trkpt>
      <trkpt lat="42.53672" lon="2.43363">
        <ele>1748</ele>
        <time>2024-09-18T13:52:26Z</time>
      </trkpt>
      <trkpt lat="42.53674" lon="2.43359">
        <ele>1748</ele>
        <time>2024-09-18T13:52:29Z</time>
      </trkpt>
      <trkpt lat="42.53676" lon="2.43355">
        <ele>1748</ele>
        <time>2024-09-18T13:52:32Z</time>
      </trkpt>
      <trkpt lat="42.53678" lon="2.43352">
        <ele>1748</ele>
        <time>2024-09-18T13:52:35Z</time>
      </trkpt>
      <trkpt lat="42.5368" lon="2.43349">
        <ele>1749</ele>
        <time>2024-09-18T13:52:37Z</time>
      </trkpt>
      <trkpt lat="42.53683" lon="2.43346">
        <ele>1749</ele>
        <time>2024-09-18T13:52:45Z</time>
      </trkpt>
      <trkpt lat="42.53686" lon="2.43343">
        <ele>1749</ele>
        <time>2024-09-18T13:52:49Z</time>
      </trkpt>
      <trkpt lat="42.53689" lon="2.43342">
        <ele>1749</ele>
        <time>2024-09-18T13:52:51Z</time>
      </trkpt>
      <trkpt lat="42.53693" lon="2.43343">
        <ele>1749</ele>
        <time>2024-09-18T13:52:54Z</time>
      </trkpt>
      <trkpt lat="42.53696" lon="2.43344">
        <ele>1748</ele>
        <time>2024-09-18T13:52:57Z</time>
      </trkpt>
      <trkpt lat="42.53698" lon="2.43346">
        <ele>1747</ele>
        <time>2024-09-18T13:53:00Z</time>
      </trkpt>
      <trkpt lat="42.53701" lon="2.43348">
        <ele>1747</ele>
        <time>2024-09-18T13:53:03Z</time>
      </trkpt>
      <trkpt lat="42.53704" lon="2.43351">
        <ele>1747</ele>
        <time>2024-09-18T13:53:05Z</time>
      </trkpt>
      <trkpt lat="42.53706" lon="2.43353">
        <ele>1747</ele>
        <time>2024-09-18T13:53:07Z</time>
      </trkpt>
      <trkpt lat="42.53709" lon="2.43356">
        <ele>1747</ele>
        <time>2024-09-18T13:53:10Z</time>
      </trkpt>
      <trkpt lat="42.53712" lon="2.43358">
        <ele>1746</ele>
        <time>2024-09-18T13:53:13Z</time>
      </trkpt>
      <trkpt lat="42.53714" lon="2.43362">
        <ele>1746</ele>
        <time>2024-09-18T13:53:16Z</time>
      </trkpt>
      <trkpt lat="42.53713" lon="2.43362">
        <ele>1750</ele>
        <time>2024-09-18T13:53:24Z</time>
      </trkpt>
      <trkpt lat="42.53713" lon="2.43365">
        <ele>1749</ele>
        <time>2024-09-18T13:53:27Z</time>
      </trkpt>
      <trkpt lat="42.53714" lon="2.43368">
        <ele>1749</ele>
        <time>2024-09-18T13:53:29Z</time>
      </trkpt>
      <trkpt lat="42.53716" lon="2.43372">
        <ele>1748</ele>
        <time>2024-09-18T13:53:32Z</time>
      </trkpt>
      <trkpt lat="42.53718" lon="2.43377">
        <ele>1750</ele>
        <time>2024-09-18T13:53:35Z</time>
      </trkpt>
      <trkpt lat="42.5372" lon="2.4338">
        <ele>1749</ele>
        <time>2024-09-18T13:53:38Z</time>
      </trkpt>
      <trkpt lat="42.53721" lon="2.43384">
        <ele>1750</ele>
        <time>2024-09-18T13:53:41Z</time>
      </trkpt>
      <trkpt lat="42.53723" lon="2.43388">
        <ele>1748</ele>
        <time>2024-09-18T13:53:44Z</time>
      </trkpt>
      <trkpt lat="42.53724" lon="2.43392">
        <ele>1748</ele>
        <time>2024-09-18T13:53:48Z</time>
      </trkpt>
      <trkpt lat="42.53725" lon="2.43397">
        <ele>1749</ele>
        <time>2024-09-18T13:53:51Z</time>
      </trkpt>
      <trkpt lat="42.53726" lon="2.43401">
        <ele>1748</ele>
        <time>2024-09-18T13:53:55Z</time>
      </trkpt>
      <trkpt lat="42.53725" lon="2.43406">
        <ele>1748</ele>
        <time>2024-09-18T13:53:58Z</time>
      </trkpt>
      <trkpt lat="42.53725" lon="2.43411">
        <ele>1748</ele>
        <time>2024-09-18T13:54:02Z</time>
      </trkpt>
      <trkpt lat="42.53725" lon="2.43415">
        <ele>1748</ele>
        <time>2024-09-18T13:54:04Z</time>
      </trkpt>
      <trkpt lat="42.53723" lon="2.43414">
        <ele>1759</ele>
        <time>2024-09-18T13:54:42Z</time>
      </trkpt>
      <trkpt lat="42.53721" lon="2.43416">
        <ele>1759</ele>
        <time>2024-09-18T13:54:46Z</time>
      </trkpt>
      <trkpt lat="42.53721" lon="2.43419">
        <ele>1758</ele>
        <time>2024-09-18T13:54:49Z</time>
      </trkpt>
      <trkpt lat="42.53721" lon="2.43423">
        <ele>1757</ele>
        <time>2024-09-18T13:54:53Z</time>
      </trkpt>
      <trkpt lat="42.53721" lon="2.43427">
        <ele>1756</ele>
        <time>2024-09-18T13:54:58Z</time>
      </trkpt>
      <trkpt lat="42.5372" lon="2.43431">
        <ele>1758</ele>
        <time>2024-09-18T13:55:06Z</time>
      </trkpt>
      <trkpt lat="42.53719" lon="2.43434">
        <ele>1759</ele>
        <time>2024-09-18T13:55:09Z</time>
      </trkpt>
      <trkpt lat="42.53717" lon="2.43436">
        <ele>1758</ele>
        <time>2024-09-18T13:55:11Z</time>
      </trkpt>
      <trkpt lat="42.53716" lon="2.4344">
        <ele>1758</ele>
        <time>2024-09-18T13:55:14Z</time>
      </trkpt>
      <trkpt lat="42.53716" lon="2.43444">
        <ele>1757</ele>
        <time>2024-09-18T13:55:16Z</time>
      </trkpt>
      <trkpt lat="42.53716" lon="2.43448">
        <ele>1756</ele>
        <time>2024-09-18T13:55:19Z</time>
      </trkpt>
      <trkpt lat="42.53714" lon="2.43453">
        <ele>1757</ele>
        <time>2024-09-18T13:55:26Z</time>
      </trkpt>
      <trkpt lat="42.53714" lon="2.43456">
        <ele>1757</ele>
        <time>2024-09-18T13:55:28Z</time>
      </trkpt>
      <trkpt lat="42.53712" lon="2.43459">
        <ele>1758</ele>
        <time>2024-09-18T13:55:33Z</time>
      </trkpt>
      <trkpt lat="42.53711" lon="2.43463">
        <ele>1758</ele>
        <time>2024-09-18T13:55:36Z</time>
      </trkpt>
      <trkpt lat="42.5371" lon="2.43467">
        <ele>1761</ele>
        <time>2024-09-18T13:55:42Z</time>
      </trkpt>
      <trkpt lat="42.53709" lon="2.4347">
        <ele>1762</ele>
        <time>2024-09-18T13:55:47Z</time>
      </trkpt>
      <trkpt lat="42.53707" lon="2.43474">
        <ele>1763</ele>
        <time>2024-09-18T13:55:54Z</time>
      </trkpt>
      <trkpt lat="42.53705" lon="2.43477">
        <ele>1765</ele>
        <time>2024-09-18T13:56:02Z</time>
      </trkpt>
      <trkpt lat="42.53704" lon="2.43481">
        <ele>1765</ele>
        <time>2024-09-18T13:56:13Z</time>
      </trkpt>
      <trkpt lat="42.53703" lon="2.43485">
        <ele>1766</ele>
        <time>2024-09-18T13:56:17Z</time>
      </trkpt>
      <trkpt lat="42.53702" lon="2.43489">
        <ele>1767</ele>
        <time>2024-09-18T13:56:25Z</time>
      </trkpt>
      <trkpt lat="42.53701" lon="2.43488">
        <ele>1769</ele>
        <time>2024-09-18T13:56:31Z</time>
      </trkpt>
      <trkpt lat="42.537" lon="2.43486">
        <ele>1771</ele>
        <time>2024-09-18T13:56:40Z</time>
      </trkpt>
      <trkpt lat="42.53699" lon="2.43483">
        <ele>1769</ele>
        <time>2024-09-18T13:56:44Z</time>
      </trkpt>
      <trkpt lat="42.53698" lon="2.4348">
        <ele>1770</ele>
        <time>2024-09-18T13:56:51Z</time>
      </trkpt>
      <trkpt lat="42.53698" lon="2.43476">
        <ele>1769</ele>
        <time>2024-09-18T13:56:56Z</time>
      </trkpt>
      <trkpt lat="42.53696" lon="2.43476">
        <ele>1771</ele>
        <time>2024-09-18T13:57:07Z</time>
      </trkpt>
      <trkpt lat="42.53696" lon="2.43478">
        <ele>1771</ele>
        <time>2024-09-18T13:57:10Z</time>
      </trkpt>
      <trkpt lat="42.53693" lon="2.43479">
        <ele>1773</ele>
        <time>2024-09-18T13:57:15Z</time>
      </trkpt>
      <trkpt lat="42.53691" lon="2.43481">
        <ele>1773</ele>
        <time>2024-09-18T13:57:20Z</time>
      </trkpt>
      <trkpt lat="42.53691" lon="2.43485">
        <ele>1772</ele>
        <time>2024-09-18T13:57:24Z</time>
      </trkpt>
      <trkpt lat="42.5369" lon="2.43488">
        <ele>1774</ele>
        <time>2024-09-18T13:57:28Z</time>
      </trkpt>
      <trkpt lat="42.53689" lon="2.43492">
        <ele>1774</ele>
        <time>2024-09-18T13:57:32Z</time>
      </trkpt>
      <trkpt lat="42.53689" lon="2.43496">
        <ele>1774</ele>
        <time>2024-09-18T13:57:36Z</time>
      </trkpt>
      <trkpt lat="42.53687" lon="2.43499">
        <ele>1774</ele>
        <time>2024-09-18T13:57:39Z</time>
      </trkpt>
      <trkpt lat="42.53688" lon="2.43501">
        <ele>1775</ele>
        <time>2024-09-18T13:57:41Z</time>
      </trkpt>
      <trkpt lat="42.53688" lon="2.43504">
        <ele>1775</ele>
        <time>2024-09-18T13:57:48Z</time>
      </trkpt>
      <trkpt lat="42.53687" lon="2.43507">
        <ele>1776</ele>
        <time>2024-09-18T13:57:55Z</time>
      </trkpt>
      <trkpt lat="42.53686" lon="2.4351">
        <ele>1777</ele>
        <time>2024-09-18T13:58:03Z</time>
      </trkpt>
      <trkpt lat="42.53685" lon="2.43514">
        <ele>1775</ele>
        <time>2024-09-18T13:58:08Z</time>
      </trkpt>
      <trkpt lat="42.53685" lon="2.43518">
        <ele>1776</ele>
        <time>2024-09-18T13:58:15Z</time>
      </trkpt>
      <trkpt lat="42.53683" lon="2.4352">
        <ele>1778</ele>
        <time>2024-09-18T13:58:18Z</time>
      </trkpt>
      <trkpt lat="42.53681" lon="2.43523">
        <ele>1779</ele>
        <time>2024-09-18T13:58:24Z</time>
      </trkpt>
      <trkpt lat="42.53681" lon="2.43526">
        <ele>1780</ele>
        <time>2024-09-18T13:58:29Z</time>
      </trkpt>
      <trkpt lat="42.53679" lon="2.43529">
        <ele>1781</ele>
        <time>2024-09-18T13:58:36Z</time>
      </trkpt>
      <trkpt lat="42.5368" lon="2.43532">
        <ele>1783</ele>
        <time>2024-09-18T13:58:40Z</time>
      </trkpt>
      <trkpt lat="42.53679" lon="2.43536">
        <ele>1782</ele>
        <time>2024-09-18T13:58:43Z</time>
      </trkpt>
      <trkpt lat="42.53678" lon="2.4354">
        <ele>1782</ele>
        <time>2024-09-18T13:58:48Z</time>
      </trkpt>
      <trkpt lat="42.53676" lon="2.43543">
        <ele>1784</ele>
        <time>2024-09-18T13:58:55Z</time>
      </trkpt>
      <trkpt lat="42.53675" lon="2.43547">
        <ele>1783</ele>
        <time>2024-09-18T13:59:00Z</time>
      </trkpt>
      <trkpt lat="42.53675" lon="2.43551">
        <ele>1785</ele>
        <time>2024-09-18T13:59:06Z</time>
      </trkpt>
      <trkpt lat="42.53675" lon="2.43555">
        <ele>1784</ele>
        <time>2024-09-18T13:59:11Z</time>
      </trkpt>
      <trkpt lat="42.53676" lon="2.43559">
        <ele>1784</ele>
        <time>2024-09-18T13:59:21Z</time>
      </trkpt>
      <trkpt lat="42.53676" lon="2.43562">
        <ele>1784</ele>
        <time>2024-09-18T13:59:27Z</time>
      </trkpt>
      <trkpt lat="42.53675" lon="2.43565">
        <ele>1787</ele>
        <time>2024-09-18T13:59:34Z</time>
      </trkpt>
      <trkpt lat="42.53673" lon="2.43568">
        <ele>1787</ele>
        <time>2024-09-18T13:59:35Z</time>
      </trkpt>
      <trkpt lat="42.53672" lon="2.43571">
        <ele>1789</ele>
        <time>2024-09-18T13:59:39Z</time>
      </trkpt>
      <trkpt lat="42.53671" lon="2.43575">
        <ele>1789</ele>
        <time>2024-09-18T13:59:47Z</time>
      </trkpt>
      <trkpt lat="42.53671" lon="2.4358">
        <ele>1791</ele>
        <time>2024-09-18T13:59:54Z</time>
      </trkpt>
      <trkpt lat="42.53669" lon="2.43583">
        <ele>1788</ele>
        <time>2024-09-18T13:59:58Z</time>
      </trkpt>
      <trkpt lat="42.53669" lon="2.43586">
        <ele>1790</ele>
        <time>2024-09-18T14:00:10Z</time>
      </trkpt>
      <trkpt lat="42.53669" lon="2.43589">
        <ele>1791</ele>
        <time>2024-09-18T14:00:17Z</time>
      </trkpt>
      <trkpt lat="42.53667" lon="2.43591">
        <ele>1790</ele>
        <time>2024-09-18T14:00:22Z</time>
      </trkpt>
      <trkpt lat="42.53665" lon="2.43595">
        <ele>1792</ele>
        <time>2024-09-18T14:00:27Z</time>
      </trkpt>
      <trkpt lat="42.53664" lon="2.436">
        <ele>1791</ele>
        <time>2024-09-18T14:00:35Z</time>
      </trkpt>
      <trkpt lat="42.53663" lon="2.43604">
        <ele>1793</ele>
        <time>2024-09-18T14:00:38Z</time>
      </trkpt>
      <trkpt lat="42.53662" lon="2.43607">
        <ele>1794</ele>
        <time>2024-09-18T14:00:42Z</time>
      </trkpt>
      <trkpt lat="42.53661" lon="2.43611">
        <ele>1795</ele>
        <time>2024-09-18T14:00:48Z</time>
      </trkpt>
      <trkpt lat="42.5366" lon="2.43615">
        <ele>1796</ele>
        <time>2024-09-18T14:00:56Z</time>
      </trkpt>
      <trkpt lat="42.53658" lon="2.43615">
        <ele>1798</ele>
        <time>2024-09-18T14:01:04Z</time>
      </trkpt>
      <trkpt lat="42.53658" lon="2.43612">
        <ele>1800</ele>
        <time>2024-09-18T14:01:07Z</time>
      </trkpt>
      <trkpt lat="42.53657" lon="2.43609">
        <ele>1801</ele>
        <time>2024-09-18T14:01:12Z</time>
      </trkpt>
      <trkpt lat="42.53656" lon="2.43606">
        <ele>1801</ele>
        <time>2024-09-18T14:01:18Z</time>
      </trkpt>
      <trkpt lat="42.53657" lon="2.43602">
        <ele>1804</ele>
        <time>2024-09-18T14:01:30Z</time>
      </trkpt>
      <trkpt lat="42.53654" lon="2.43601">
        <ele>1804</ele>
        <time>2024-09-18T14:01:33Z</time>
      </trkpt>
      <trkpt lat="42.53651" lon="2.436">
        <ele>1805</ele>
        <time>2024-09-18T14:01:35Z</time>
      </trkpt>
      <trkpt lat="42.53649" lon="2.43597">
        <ele>1804</ele>
        <time>2024-09-18T14:01:42Z</time>
      </trkpt>
      <trkpt lat="42.53649" lon="2.43598">
        <ele>1807</ele>
        <time>2024-09-18T14:01:55Z</time>
      </trkpt>
      <trkpt lat="42.53648" lon="2.43601">
        <ele>1806</ele>
        <time>2024-09-18T14:02:05Z</time>
      </trkpt>
      <trkpt lat="42.53647" lon="2.43605">
        <ele>1807</ele>
        <time>2024-09-18T14:02:12Z</time>
      </trkpt>
      <trkpt lat="42.53647" lon="2.43609">
        <ele>1807</ele>
        <time>2024-09-18T14:02:16Z</time>
      </trkpt>
      <trkpt lat="42.53646" lon="2.43612">
        <ele>1806</ele>
        <time>2024-09-18T14:02:18Z</time>
      </trkpt>
      <trkpt lat="42.53645" lon="2.43616">
        <ele>1808</ele>
        <time>2024-09-18T14:02:27Z</time>
      </trkpt>
      <trkpt lat="42.53644" lon="2.43619">
        <ele>1808</ele>
        <time>2024-09-18T14:02:31Z</time>
      </trkpt>
      <trkpt lat="42.53643" lon="2.43623">
        <ele>1809</ele>
        <time>2024-09-18T14:02:36Z</time>
      </trkpt>
      <trkpt lat="42.53641" lon="2.43623">
        <ele>1813</ele>
        <time>2024-09-18T14:02:47Z</time>
      </trkpt>
      <trkpt lat="42.53642" lon="2.43626">
        <ele>1811</ele>
        <time>2024-09-18T14:03:19Z</time>
      </trkpt>
      <trkpt lat="42.53642" lon="2.43625">
        <ele>1810</ele>
        <time>2024-09-18T14:03:22Z</time>
      </trkpt>
      <trkpt lat="42.5364" lon="2.43624">
        <ele>1810</ele>
        <time>2024-09-18T14:03:38Z</time>
      </trkpt>
      <trkpt lat="42.53639" lon="2.43627">
        <ele>1809</ele>
        <time>2024-09-18T14:03:46Z</time>
      </trkpt>
      <trkpt lat="42.53637" lon="2.4363">
        <ele>1810</ele>
        <time>2024-09-18T14:03:57Z</time>
      </trkpt>
      <trkpt lat="42.53638" lon="2.43632">
        <ele>1812</ele>
        <time>2024-09-18T14:04:01Z</time>
      </trkpt>
      <trkpt lat="42.53638" lon="2.43635">
        <ele>1812</ele>
        <time>2024-09-18T14:04:09Z</time>
      </trkpt>
      <trkpt lat="42.53641" lon="2.43635">
        <ele>1810</ele>
        <time>2024-09-18T14:04:10Z</time>
      </trkpt>
      <trkpt lat="42.53641" lon="2.43637">
        <ele>1812</ele>
        <time>2024-09-18T14:04:11Z</time>
      </trkpt>
      <trkpt lat="42.53639" lon="2.43639">
        <ele>1813</ele>
        <time>2024-09-18T14:04:23Z</time>
      </trkpt>
      <trkpt lat="42.53638" lon="2.43637">
        <ele>1813</ele>
        <time>2024-09-18T14:04:27Z</time>
      </trkpt>
      <trkpt lat="42.53638" lon="2.43633">
        <ele>1818</ele>
        <time>2024-09-18T14:04:32Z</time>
      </trkpt>
      <trkpt lat="42.53636" lon="2.43629">
        <ele>1819</ele>
        <time>2024-09-18T14:04:37Z</time>
      </trkpt>
      <trkpt lat="42.53635" lon="2.43625">
        <ele>1819</ele>
        <time>2024-09-18T14:04:42Z</time>
      </trkpt>
      <trkpt lat="42.53633" lon="2.43623">
        <ele>1819</ele>
        <time>2024-09-18T14:04:48Z</time>
      </trkpt>
      <trkpt lat="42.5363" lon="2.4362">
        <ele>1821</ele>
        <time>2024-09-18T14:04:54Z</time>
      </trkpt>
      <trkpt lat="42.53628" lon="2.43617">
        <ele>1823</ele>
        <time>2024-09-18T14:05:01Z</time>
      </trkpt>
      <trkpt lat="42.53626" lon="2.43614">
        <ele>1823</ele>
        <time>2024-09-18T14:05:04Z</time>
      </trkpt>
      <trkpt lat="42.53625" lon="2.43615">
        <ele>1824</ele>
        <time>2024-09-18T14:05:13Z</time>
      </trkpt>
      <trkpt lat="42.53624" lon="2.43618">
        <ele>1824</ele>
        <time>2024-09-18T14:05:19Z</time>
      </trkpt>
      <trkpt lat="42.53624" lon="2.43621">
        <ele>1822</ele>
        <time>2024-09-18T14:05:22Z</time>
      </trkpt>
      <trkpt lat="42.53624" lon="2.43625">
        <ele>1823</ele>
        <time>2024-09-18T14:05:26Z</time>
      </trkpt>
      <trkpt lat="42.53622" lon="2.43628">
        <ele>1825</ele>
        <time>2024-09-18T14:05:30Z</time>
      </trkpt>
      <trkpt lat="42.53622" lon="2.43632">
        <ele>1825</ele>
        <time>2024-09-18T14:05:37Z</time>
      </trkpt>
      <trkpt lat="42.53621" lon="2.43636">
        <ele>1826</ele>
        <time>2024-09-18T14:05:40Z</time>
      </trkpt>
      <trkpt lat="42.53622" lon="2.4364">
        <ele>1827</ele>
        <time>2024-09-18T14:05:44Z</time>
      </trkpt>
      <trkpt lat="42.53623" lon="2.43643">
        <ele>1828</ele>
        <time>2024-09-18T14:05:48Z</time>
      </trkpt>
      <trkpt lat="42.53623" lon="2.43647">
        <ele>1828</ele>
        <time>2024-09-18T14:05:53Z</time>
      </trkpt>
      <trkpt lat="42.53622" lon="2.43651">
        <ele>1828</ele>
        <time>2024-09-18T14:05:58Z</time>
      </trkpt>
      <trkpt lat="42.53622" lon="2.43655">
        <ele>1828</ele>
        <time>2024-09-18T14:06:07Z</time>
      </trkpt>
      <trkpt lat="42.5362" lon="2.43657">
        <ele>1828</ele>
        <time>2024-09-18T14:06:09Z</time>
      </trkpt>
      <trkpt lat="42.53619" lon="2.43661">
        <ele>1830</ele>
        <time>2024-09-18T14:06:14Z</time>
      </trkpt>
      <trkpt lat="42.53618" lon="2.43665">
        <ele>1831</ele>
        <time>2024-09-18T14:06:19Z</time>
      </trkpt>
      <trkpt lat="42.53619" lon="2.43669">
        <ele>1833</ele>
        <time>2024-09-18T14:06:32Z</time>
      </trkpt>
      <trkpt lat="42.53617" lon="2.43671">
        <ele>1833</ele>
        <time>2024-09-18T14:06:39Z</time>
      </trkpt>
      <trkpt lat="42.53617" lon="2.43674">
        <ele>1833</ele>
        <time>2024-09-18T14:06:47Z</time>
      </trkpt>
      <trkpt lat="42.53616" lon="2.43678">
        <ele>1833</ele>
        <time>2024-09-18T14:06:58Z</time>
      </trkpt>
      <trkpt lat="42.53616" lon="2.43682">
        <ele>1834</ele>
        <time>2024-09-18T14:07:04Z</time>
      </trkpt>
      <trkpt lat="42.53614" lon="2.43686">
        <ele>1836</ele>
        <time>2024-09-18T14:07:08Z</time>
      </trkpt>
      <trkpt lat="42.53613" lon="2.43689">
        <ele>1837</ele>
        <time>2024-09-18T14:07:12Z</time>
      </trkpt>
      <trkpt lat="42.53611" lon="2.43693">
        <ele>1837</ele>
        <time>2024-09-18T14:07:16Z</time>
      </trkpt>
      <trkpt lat="42.53612" lon="2.43696">
        <ele>1837</ele>
        <time>2024-09-18T14:07:22Z</time>
      </trkpt>
      <trkpt lat="42.53614" lon="2.43699">
        <ele>1837</ele>
        <time>2024-09-18T14:07:30Z</time>
      </trkpt>
      <trkpt lat="42.53613" lon="2.43701">
        <ele>1839</ele>
        <time>2024-09-18T14:07:36Z</time>
      </trkpt>
      <trkpt lat="42.53612" lon="2.43705">
        <ele>1841</ele>
        <time>2024-09-18T14:07:41Z</time>
      </trkpt>
      <trkpt lat="42.53612" lon="2.43709">
        <ele>1839</ele>
        <time>2024-09-18T14:07:45Z</time>
      </trkpt>
      <trkpt lat="42.53613" lon="2.43713">
        <ele>1842</ele>
        <time>2024-09-18T14:07:49Z</time>
      </trkpt>
      <trkpt lat="42.53613" lon="2.43717">
        <ele>1845</ele>
        <time>2024-09-18T14:07:57Z</time>
      </trkpt>
      <trkpt lat="42.53613" lon="2.43721">
        <ele>1846</ele>
        <time>2024-09-18T14:08:01Z</time>
      </trkpt>
      <trkpt lat="42.53615" lon="2.43724">
        <ele>1847</ele>
        <time>2024-09-18T14:08:05Z</time>
      </trkpt>
      <trkpt lat="42.53615" lon="2.43729">
        <ele>1846</ele>
        <time>2024-09-18T14:08:11Z</time>
      </trkpt>
      <trkpt lat="42.53616" lon="2.43733">
        <ele>1848</ele>
        <time>2024-09-18T14:08:18Z</time>
      </trkpt>
      <trkpt lat="42.53616" lon="2.43737">
        <ele>1849</ele>
        <time>2024-09-18T14:08:27Z</time>
      </trkpt>
      <trkpt lat="42.53616" lon="2.43741">
        <ele>1849</ele>
        <time>2024-09-18T14:08:31Z</time>
      </trkpt>
      <trkpt lat="42.53614" lon="2.43744">
        <ele>1849</ele>
        <time>2024-09-18T14:08:37Z</time>
      </trkpt>
      <trkpt lat="42.53614" lon="2.43747">
        <ele>1850</ele>
        <time>2024-09-18T14:08:50Z</time>
      </trkpt>
      <trkpt lat="42.53614" lon="2.43752">
        <ele>1849</ele>
        <time>2024-09-18T14:08:53Z</time>
      </trkpt>
      <trkpt lat="42.53612" lon="2.43753">
        <ele>1852</ele>
        <time>2024-09-18T14:09:02Z</time>
      </trkpt>
      <trkpt lat="42.53611" lon="2.4375">
        <ele>1855</ele>
        <time>2024-09-18T14:09:06Z</time>
      </trkpt>
      <trkpt lat="42.53609" lon="2.43747">
        <ele>1857</ele>
        <time>2024-09-18T14:09:10Z</time>
      </trkpt>
      <trkpt lat="42.53609" lon="2.43742">
        <ele>1859</ele>
        <time>2024-09-18T14:09:16Z</time>
      </trkpt>
      <trkpt lat="42.53607" lon="2.43739">
        <ele>1858</ele>
        <time>2024-09-18T14:09:20Z</time>
      </trkpt>
      <trkpt lat="42.53605" lon="2.43736">
        <ele>1859</ele>
        <time>2024-09-18T14:09:24Z</time>
      </trkpt>
      <trkpt lat="42.53603" lon="2.43733">
        <ele>1862</ele>
        <time>2024-09-18T14:09:29Z</time>
      </trkpt>
      <trkpt lat="42.53599" lon="2.43729">
        <ele>1861</ele>
        <time>2024-09-18T14:09:35Z</time>
      </trkpt>
      <trkpt lat="42.53599" lon="2.4373">
        <ele>1860</ele>
        <time>2024-09-18T14:09:38Z</time>
      </trkpt>
      <trkpt lat="42.53597" lon="2.43731">
        <ele>1859</ele>
        <time>2024-09-18T14:09:54Z</time>
      </trkpt>
      <trkpt lat="42.53596" lon="2.43728">
        <ele>1860</ele>
        <time>2024-09-18T14:09:59Z</time>
      </trkpt>
      <trkpt lat="42.53594" lon="2.43725">
        <ele>1862</ele>
        <time>2024-09-18T14:10:04Z</time>
      </trkpt>
      <trkpt lat="42.53596" lon="2.43722">
        <ele>1863</ele>
        <time>2024-09-18T14:10:09Z</time>
      </trkpt>
      <trkpt lat="42.53594" lon="2.43717">
        <ele>1863</ele>
        <time>2024-09-18T14:10:17Z</time>
      </trkpt>
      <trkpt lat="42.53592" lon="2.43715">
        <ele>1864</ele>
        <time>2024-09-18T14:10:18Z</time>
      </trkpt>
      <trkpt lat="42.53592" lon="2.43712">
        <ele>1865</ele>
        <time>2024-09-18T14:10:21Z</time>
      </trkpt>
      <trkpt lat="42.53591" lon="2.43708">
        <ele>1868</ele>
        <time>2024-09-18T14:10:24Z</time>
      </trkpt>
      <trkpt lat="42.53588" lon="2.43704">
        <ele>1867</ele>
        <time>2024-09-18T14:10:29Z</time>
      </trkpt>
      <trkpt lat="42.53587" lon="2.43705">
        <ele>1866</ele>
        <time>2024-09-18T14:10:32Z</time>
      </trkpt>
      <trkpt lat="42.53588" lon="2.43708">
        <ele>1865</ele>
        <time>2024-09-18T14:10:35Z</time>
      </trkpt>
      <trkpt lat="42.53589" lon="2.43711">
        <ele>1864</ele>
        <time>2024-09-18T14:10:38Z</time>
      </trkpt>
      <trkpt lat="42.53588" lon="2.43712">
        <ele>1863</ele>
        <time>2024-09-18T14:10:39Z</time>
      </trkpt>
      <trkpt lat="42.53589" lon="2.43716">
        <ele>1865</ele>
        <time>2024-09-18T14:10:44Z</time>
      </trkpt>
      <trkpt lat="42.5359" lon="2.43719">
        <ele>1864</ele>
        <time>2024-09-18T14:10:48Z</time>
      </trkpt>
      <trkpt lat="42.53591" lon="2.43723">
        <ele>1864</ele>
        <time>2024-09-18T14:10:51Z</time>
      </trkpt>
      <trkpt lat="42.53591" lon="2.43726">
        <ele>1865</ele>
        <time>2024-09-18T14:10:55Z</time>
      </trkpt>
      <trkpt lat="42.5359" lon="2.43731">
        <ele>1863</ele>
        <time>2024-09-18T14:10:59Z</time>
      </trkpt>
      <trkpt lat="42.53589" lon="2.43734">
        <ele>1864</ele>
        <time>2024-09-18T14:11:03Z</time>
      </trkpt>
      <trkpt lat="42.53587" lon="2.43735">
        <ele>1864</ele>
        <time>2024-09-18T14:11:09Z</time>
      </trkpt>
      <trkpt lat="42.53585" lon="2.43733">
        <ele>1865</ele>
        <time>2024-09-18T14:11:13Z</time>
      </trkpt>
      <trkpt lat="42.53584" lon="2.4373">
        <ele>1867</ele>
        <time>2024-09-18T14:11:18Z</time>
      </trkpt>
      <trkpt lat="42.53583" lon="2.43726">
        <ele>1870</ele>
        <time>2024-09-18T14:11:21Z</time>
      </trkpt>
      <trkpt lat="42.53583" lon="2.43722">
        <ele>1873</ele>
        <time>2024-09-18T14:11:27Z</time>
      </trkpt>
      <trkpt lat="42.53581" lon="2.43719">
        <ele>1874</ele>
        <time>2024-09-18T14:11:32Z</time>
      </trkpt>
      <trkpt lat="42.53578" lon="2.43716">
        <ele>1877</ele>
        <time>2024-09-18T14:11:37Z</time>
      </trkpt>
      <trkpt lat="42.53575" lon="2.43714">
        <ele>1880</ele>
        <time>2024-09-18T14:11:45Z</time>
      </trkpt>
      <trkpt lat="42.53573" lon="2.43711">
        <ele>1881</ele>
        <time>2024-09-18T14:11:51Z</time>
      </trkpt>
      <trkpt lat="42.5357" lon="2.43708">
        <ele>1883</ele>
        <time>2024-09-18T14:11:57Z</time>
      </trkpt>
      <trkpt lat="42.53567" lon="2.43707">
        <ele>1886</ele>
        <time>2024-09-18T14:12:03Z</time>
      </trkpt>
      <trkpt lat="42.53565" lon="2.43704">
        <ele>1890</ele>
        <time>2024-09-18T14:12:11Z</time>
      </trkpt>
      <trkpt lat="42.53562" lon="2.43702">
        <ele>1890</ele>
        <time>2024-09-18T14:12:18Z</time>
      </trkpt>
      <trkpt lat="42.53561" lon="2.43703">
        <ele>1888</ele>
        <time>2024-09-18T14:12:25Z</time>
      </trkpt>
      <trkpt lat="42.5356" lon="2.43706">
        <ele>1887</ele>
        <time>2024-09-18T14:12:29Z</time>
      </trkpt>
      <trkpt lat="42.53558" lon="2.43707">
        <ele>1892</ele>
        <time>2024-09-18T14:12:41Z</time>
      </trkpt>
      <trkpt lat="42.53555" lon="2.43709">
        <ele>1893</ele>
        <time>2024-09-18T14:12:49Z</time>
      </trkpt>
      <trkpt lat="42.53554" lon="2.43712">
        <ele>1890</ele>
        <time>2024-09-18T14:12:52Z</time>
      </trkpt>
      <trkpt lat="42.53554" lon="2.43716">
        <ele>1888</ele>
        <time>2024-09-18T14:13:00Z</time>
      </trkpt>
      <trkpt lat="42.53553" lon="2.43717">
        <ele>1888</ele>
        <time>2024-09-18T14:13:05Z</time>
      </trkpt>
      <trkpt lat="42.5355" lon="2.43716">
        <ele>1892</ele>
        <time>2024-09-18T14:13:09Z</time>
      </trkpt>
      <trkpt lat="42.53547" lon="2.43715">
        <ele>1892</ele>
        <time>2024-09-18T14:13:14Z</time>
      </trkpt>
      <trkpt lat="42.53545" lon="2.43716">
        <ele>1894</ele>
        <time>2024-09-18T14:13:20Z</time>
      </trkpt>
      <trkpt lat="42.53544" lon="2.4372">
        <ele>1894</ele>
        <time>2024-09-18T14:13:25Z</time>
      </trkpt>
      <trkpt lat="42.53541" lon="2.4372">
        <ele>1899</ele>
        <time>2024-09-18T14:13:29Z</time>
      </trkpt>
      <trkpt lat="42.53541" lon="2.43722">
        <ele>1897</ele>
        <time>2024-09-18T14:13:34Z</time>
      </trkpt>
      <trkpt lat="42.5354" lon="2.43727">
        <ele>1896</ele>
        <time>2024-09-18T14:13:39Z</time>
      </trkpt>
      <trkpt lat="42.53541" lon="2.4373">
        <ele>1894</ele>
        <time>2024-09-18T14:13:44Z</time>
      </trkpt>
      <trkpt lat="42.53543" lon="2.43733">
        <ele>1893</ele>
        <time>2024-09-18T14:13:50Z</time>
      </trkpt>
      <trkpt lat="42.53544" lon="2.43737">
        <ele>1894</ele>
        <time>2024-09-18T14:13:58Z</time>
      </trkpt>
      <trkpt lat="42.53545" lon="2.43741">
        <ele>1893</ele>
        <time>2024-09-18T14:14:06Z</time>
      </trkpt>
      <trkpt lat="42.53544" lon="2.43745">
        <ele>1892</ele>
        <time>2024-09-18T14:14:14Z</time>
      </trkpt>
      <trkpt lat="42.53545" lon="2.43749">
        <ele>1892</ele>
        <time>2024-09-18T14:14:18Z</time>
      </trkpt>
      <trkpt lat="42.53544" lon="2.43748">
        <ele>1899</ele>
        <time>2024-09-18T14:14:29Z</time>
      </trkpt>
      <trkpt lat="42.53544" lon="2.43745">
        <ele>1904</ele>
        <time>2024-09-18T14:14:40Z</time>
      </trkpt>
      <trkpt lat="42.53546" lon="2.43745">
        <ele>1906</ele>
        <time>2024-09-18T14:15:03Z</time>
      </trkpt>
      <trkpt lat="42.53547" lon="2.43747">
        <ele>1909</ele>
        <time>2024-09-18T14:15:19Z</time>
      </trkpt>
      <trkpt lat="42.5355" lon="2.43749">
        <ele>1901</ele>
        <time>2024-09-18T14:15:35Z</time>
      </trkpt>
      <trkpt lat="42.53552" lon="2.43752">
        <ele>1897</ele>
        <time>2024-09-18T14:15:52Z</time>
      </trkpt>
      <trkpt lat="42.53551" lon="2.43751">
        <ele>1896</ele>
        <time>2024-09-18T14:16:08Z</time>
      </trkpt>
      <trkpt lat="42.53548" lon="2.43751">
        <ele>1897</ele>
        <time>2024-09-18T14:16:10Z</time>
      </trkpt>
      <trkpt lat="42.53545" lon="2.43749">
        <ele>1897</ele>
        <time>2024-09-18T14:16:12Z</time>
      </trkpt>
      <trkpt lat="42.53542" lon="2.43747">
        <ele>1898</ele>
        <time>2024-09-18T14:16:16Z</time>
      </trkpt>
      <trkpt lat="42.53539" lon="2.43746">
        <ele>1900</ele>
        <time>2024-09-18T14:16:20Z</time>
      </trkpt>
      <trkpt lat="42.53537" lon="2.43748">
        <ele>1900</ele>
        <time>2024-09-18T14:16:28Z</time>
      </trkpt>
      <trkpt lat="42.53536" lon="2.43751">
        <ele>1901</ele>
        <time>2024-09-18T14:16:34Z</time>
      </trkpt>
      <trkpt lat="42.53535" lon="2.43754">
        <ele>1903</ele>
        <time>2024-09-18T14:16:46Z</time>
      </trkpt>
      <trkpt lat="42.53532" lon="2.43756">
        <ele>1906</ele>
        <time>2024-09-18T14:16:54Z</time>
      </trkpt>
      <trkpt lat="42.53531" lon="2.43759">
        <ele>1907</ele>
        <time>2024-09-18T14:17:01Z</time>
      </trkpt>
      <trkpt lat="42.53531" lon="2.43762">
        <ele>1908</ele>
        <time>2024-09-18T14:17:05Z</time>
      </trkpt>
      <trkpt lat="42.53532" lon="2.43765">
        <ele>1908</ele>
        <time>2024-09-18T14:17:10Z</time>
      </trkpt>
      <trkpt lat="42.53533" lon="2.43768">
        <ele>1909</ele>
        <time>2024-09-18T14:17:14Z</time>
      </trkpt>
      <trkpt lat="42.53534" lon="2.43771">
        <ele>1909</ele>
        <time>2024-09-18T14:17:17Z</time>
      </trkpt>
      <trkpt lat="42.53535" lon="2.43775">
        <ele>1908</ele>
        <time>2024-09-18T14:17:23Z</time>
      </trkpt>
      <trkpt lat="42.53535" lon="2.43779">
        <ele>1910</ele>
        <time>2024-09-18T14:17:33Z</time>
      </trkpt>
      <trkpt lat="42.53536" lon="2.43783">
        <ele>1911</ele>
        <time>2024-09-18T14:17:38Z</time>
      </trkpt>
      <trkpt lat="42.53537" lon="2.43786">
        <ele>1912</ele>
        <time>2024-09-18T14:17:42Z</time>
      </trkpt>
      <trkpt lat="42.53539" lon="2.43789">
        <ele>1913</ele>
        <time>2024-09-18T14:17:48Z</time>
      </trkpt>
      <trkpt lat="42.53539" lon="2.43793">
        <ele>1916</ele>
        <time>2024-09-18T14:17:57Z</time>
      </trkpt>
      <trkpt lat="42.53537" lon="2.43795">
        <ele>1916</ele>
        <time>2024-09-18T14:18:08Z</time>
      </trkpt>
      <trkpt lat="42.53535" lon="2.43794">
        <ele>1917</ele>
        <time>2024-09-18T14:18:12Z</time>
      </trkpt>
      <trkpt lat="42.53533" lon="2.43792">
        <ele>1918</ele>
        <time>2024-09-18T14:18:17Z</time>
      </trkpt>
      <trkpt lat="42.53531" lon="2.4379">
        <ele>1919</ele>
        <time>2024-09-18T14:18:22Z</time>
      </trkpt>
      <trkpt lat="42.53529" lon="2.43791">
        <ele>1920</ele>
        <time>2024-09-18T14:18:27Z</time>
      </trkpt>
      <trkpt lat="42.53529" lon="2.43795">
        <ele>1920</ele>
        <time>2024-09-18T14:18:32Z</time>
      </trkpt>
      <trkpt lat="42.5353" lon="2.43797">
        <ele>1919</ele>
        <time>2024-09-18T14:18:36Z</time>
      </trkpt>
      <trkpt lat="42.53532" lon="2.438">
        <ele>1919</ele>
        <time>2024-09-18T14:18:39Z</time>
      </trkpt>
      <trkpt lat="42.53532" lon="2.43804">
        <ele>1921</ele>
        <time>2024-09-18T14:18:45Z</time>
      </trkpt>
      <trkpt lat="42.53533" lon="2.43808">
        <ele>1923</ele>
        <time>2024-09-18T14:18:54Z</time>
      </trkpt>
      <trkpt lat="42.53533" lon="2.43812">
        <ele>1924</ele>
        <time>2024-09-18T14:18:59Z</time>
      </trkpt>
      <trkpt lat="42.53534" lon="2.43816">
        <ele>1925</ele>
        <time>2024-09-18T14:19:06Z</time>
      </trkpt>
      <trkpt lat="42.53535" lon="2.43819">
        <ele>1926</ele>
        <time>2024-09-18T14:19:10Z</time>
      </trkpt>
      <trkpt lat="42.53535" lon="2.43823">
        <ele>1928</ele>
        <time>2024-09-18T14:19:16Z</time>
      </trkpt>
      <trkpt lat="42.53535" lon="2.43827">
        <ele>1929</ele>
        <time>2024-09-18T14:19:23Z</time>
      </trkpt>
      <trkpt lat="42.53536" lon="2.43831">
        <ele>1929</ele>
        <time>2024-09-18T14:19:29Z</time>
      </trkpt>
      <trkpt lat="42.53538" lon="2.43835">
        <ele>1930</ele>
        <time>2024-09-18T14:19:34Z</time>
      </trkpt>
      <trkpt lat="42.53538" lon="2.43838">
        <ele>1930</ele>
        <time>2024-09-18T14:19:40Z</time>
      </trkpt>
      <trkpt lat="42.53539" lon="2.43841">
        <ele>1931</ele>
        <time>2024-09-18T14:19:43Z</time>
      </trkpt>
      <trkpt lat="42.53539" lon="2.43844">
        <ele>1931</ele>
        <time>2024-09-18T14:19:52Z</time>
      </trkpt>
      <trkpt lat="42.53539" lon="2.43848">
        <ele>1932</ele>
        <time>2024-09-18T14:19:58Z</time>
      </trkpt>
      <trkpt lat="42.5354" lon="2.43851">
        <ele>1931</ele>
        <time>2024-09-18T14:20:03Z</time>
      </trkpt>
      <trkpt lat="42.5354" lon="2.43855">
        <ele>1932</ele>
        <time>2024-09-18T14:20:09Z</time>
      </trkpt>
      <trkpt lat="42.5354" lon="2.43859">
        <ele>1932</ele>
        <time>2024-09-18T14:20:15Z</time>
      </trkpt>
      <trkpt lat="42.53541" lon="2.43863">
        <ele>1931</ele>
        <time>2024-09-18T14:20:19Z</time>
      </trkpt>
      <trkpt lat="42.53542" lon="2.43866">
        <ele>1934</ele>
        <time>2024-09-18T14:20:26Z</time>
      </trkpt>
      <trkpt lat="42.53541" lon="2.43866">
        <ele>1935</ele>
        <time>2024-09-18T14:20:36Z</time>
      </trkpt>
      <trkpt lat="42.53539" lon="2.43865">
        <ele>1937</ele>
        <time>2024-09-18T14:20:41Z</time>
      </trkpt>
      <trkpt lat="42.53536" lon="2.43864">
        <ele>1938</ele>
        <time>2024-09-18T14:20:44Z</time>
      </trkpt>
      <trkpt lat="42.53534" lon="2.43862">
        <ele>1938</ele>
        <time>2024-09-18T14:20:49Z</time>
      </trkpt>
      <trkpt lat="42.53531" lon="2.43861">
        <ele>1937</ele>
        <time>2024-09-18T14:20:56Z</time>
      </trkpt>
      <trkpt lat="42.53528" lon="2.43859">
        <ele>1939</ele>
        <time>2024-09-18T14:21:01Z</time>
      </trkpt>
      <trkpt lat="42.53525" lon="2.43859">
        <ele>1940</ele>
        <time>2024-09-18T14:21:05Z</time>
      </trkpt>
      <trkpt lat="42.53523" lon="2.43857">
        <ele>1939</ele>
        <time>2024-09-18T14:21:09Z</time>
      </trkpt>
      <trkpt lat="42.5352" lon="2.43856">
        <ele>1941</ele>
        <time>2024-09-18T14:21:13Z</time>
      </trkpt>
      <trkpt lat="42.53517" lon="2.43853">
        <ele>1941</ele>
        <time>2024-09-18T14:21:16Z</time>
      </trkpt>
      <trkpt lat="42.53515" lon="2.43853">
        <ele>1942</ele>
        <time>2024-09-18T14:21:20Z</time>
      </trkpt>
      <trkpt lat="42.53514" lon="2.43855">
        <ele>1942</ele>
        <time>2024-09-18T14:21:25Z</time>
      </trkpt>
      <trkpt lat="42.53513" lon="2.43859">
        <ele>1944</ele>
        <time>2024-09-18T14:21:31Z</time>
      </trkpt>
      <trkpt lat="42.53514" lon="2.43862">
        <ele>1944</ele>
        <time>2024-09-18T14:21:37Z</time>
      </trkpt>
      <trkpt lat="42.53515" lon="2.43865">
        <ele>1944</ele>
        <time>2024-09-18T14:21:44Z</time>
      </trkpt>
      <trkpt lat="42.53516" lon="2.43869">
        <ele>1946</ele>
        <time>2024-09-18T14:21:56Z</time>
      </trkpt>
      <trkpt lat="42.53517" lon="2.43873">
        <ele>1946</ele>
        <time>2024-09-18T14:22:06Z</time>
      </trkpt>
      <trkpt lat="42.53518" lon="2.43877">
        <ele>1947</ele>
        <time>2024-09-18T14:22:18Z</time>
      </trkpt>
      <trkpt lat="42.53519" lon="2.4388">
        <ele>1948</ele>
        <time>2024-09-18T14:22:25Z</time>
      </trkpt>
      <trkpt lat="42.5352" lon="2.43884">
        <ele>1948</ele>
        <time>2024-09-18T14:22:30Z</time>
      </trkpt>
      <trkpt lat="42.53522" lon="2.43887">
        <ele>1949</ele>
        <time>2024-09-18T14:22:35Z</time>
      </trkpt>
      <trkpt lat="42.53524" lon="2.4389">
        <ele>1950</ele>
        <time>2024-09-18T14:22:55Z</time>
      </trkpt>
      <trkpt lat="42.53523" lon="2.4389">
        <ele>1947</ele>
        <time>2024-09-18T14:23:39Z</time>
      </trkpt>
      <trkpt lat="42.53523" lon="2.43892">
        <ele>1949</ele>
        <time>2024-09-18T14:23:45Z</time>
      </trkpt>
      <trkpt lat="42.53523" lon="2.43896">
        <ele>1950</ele>
        <time>2024-09-18T14:23:50Z</time>
      </trkpt>
      <trkpt lat="42.53524" lon="2.439">
        <ele>1952</ele>
        <time>2024-09-18T14:23:54Z</time>
      </trkpt>
      <trkpt lat="42.53524" lon="2.43904">
        <ele>1953</ele>
        <time>2024-09-18T14:23:59Z</time>
      </trkpt>
      <trkpt lat="42.53523" lon="2.43907">
        <ele>1953</ele>
        <time>2024-09-18T14:24:06Z</time>
      </trkpt>
      <trkpt lat="42.53521" lon="2.4391">
        <ele>1955</ele>
        <time>2024-09-18T14:24:09Z</time>
      </trkpt>
      <trkpt lat="42.5352" lon="2.43914">
        <ele>1956</ele>
        <time>2024-09-18T14:24:15Z</time>
      </trkpt>
      <trkpt lat="42.5352" lon="2.43919">
        <ele>1956</ele>
        <time>2024-09-18T14:24:23Z</time>
      </trkpt>
      <trkpt lat="42.53519" lon="2.43922">
        <ele>1957</ele>
        <time>2024-09-18T14:24:29Z</time>
      </trkpt>
      <trkpt lat="42.53518" lon="2.43927">
        <ele>1958</ele>
        <time>2024-09-18T14:24:35Z</time>
      </trkpt>
      <trkpt lat="42.53518" lon="2.43931">
        <ele>1958</ele>
        <time>2024-09-18T14:24:40Z</time>
      </trkpt>
      <trkpt lat="42.53518" lon="2.43935">
        <ele>1959</ele>
        <time>2024-09-18T14:24:44Z</time>
      </trkpt>
      <trkpt lat="42.53517" lon="2.43939">
        <ele>1960</ele>
        <time>2024-09-18T14:24:49Z</time>
      </trkpt>
      <trkpt lat="42.53516" lon="2.43944">
        <ele>1960</ele>
        <time>2024-09-18T14:24:55Z</time>
      </trkpt>
      <trkpt lat="42.53515" lon="2.43947">
        <ele>1963</ele>
        <time>2024-09-18T14:25:01Z</time>
      </trkpt>
      <trkpt lat="42.53513" lon="2.43951">
        <ele>1963</ele>
        <time>2024-09-18T14:25:07Z</time>
      </trkpt>
      <trkpt lat="42.53512" lon="2.43955">
        <ele>1964</ele>
        <time>2024-09-18T14:25:12Z</time>
      </trkpt>
      <trkpt lat="42.53511" lon="2.43959">
        <ele>1965</ele>
        <time>2024-09-18T14:25:19Z</time>
      </trkpt>
      <trkpt lat="42.53511" lon="2.43963">
        <ele>1966</ele>
        <time>2024-09-18T14:25:25Z</time>
      </trkpt>
      <trkpt lat="42.5351" lon="2.43967">
        <ele>1968</ele>
        <time>2024-09-18T14:25:32Z</time>
      </trkpt>
      <trkpt lat="42.5351" lon="2.43971">
        <ele>1968</ele>
        <time>2024-09-18T14:25:37Z</time>
      </trkpt>
      <trkpt lat="42.5351" lon="2.43975">
        <ele>1968</ele>
        <time>2024-09-18T14:25:43Z</time>
      </trkpt>
      <trkpt lat="42.53509" lon="2.43978">
        <ele>1969</ele>
        <time>2024-09-18T14:25:50Z</time>
      </trkpt>
      <trkpt lat="42.53509" lon="2.43982">
        <ele>1969</ele>
        <time>2024-09-18T14:25:56Z</time>
      </trkpt>
      <trkpt lat="42.53509" lon="2.43987">
        <ele>1970</ele>
        <time>2024-09-18T14:26:02Z</time>
      </trkpt>
      <trkpt lat="42.53509" lon="2.43991">
        <ele>1971</ele>
        <time>2024-09-18T14:26:08Z</time>
      </trkpt>
      <trkpt lat="42.53508" lon="2.43994">
        <ele>1972</ele>
        <time>2024-09-18T14:26:14Z</time>
      </trkpt>
      <trkpt lat="42.53508" lon="2.43998">
        <ele>1971</ele>
        <time>2024-09-18T14:26:19Z</time>
      </trkpt>
      <trkpt lat="42.53508" lon="2.44002">
        <ele>1973</ele>
        <time>2024-09-18T14:26:24Z</time>
      </trkpt>
      <trkpt lat="42.53508" lon="2.44006">
        <ele>1974</ele>
        <time>2024-09-18T14:26:30Z</time>
      </trkpt>
      <trkpt lat="42.53508" lon="2.4401">
        <ele>1974</ele>
        <time>2024-09-18T14:26:36Z</time>
      </trkpt>
      <trkpt lat="42.53507" lon="2.44014">
        <ele>1974</ele>
        <time>2024-09-18T14:26:40Z</time>
      </trkpt>
      <trkpt lat="42.53506" lon="2.44018">
        <ele>1977</ele>
        <time>2024-09-18T14:27:16Z</time>
      </trkpt>
      <trkpt lat="42.53505" lon="2.44022">
        <ele>1977</ele>
        <time>2024-09-18T14:27:20Z</time>
      </trkpt>
      <trkpt lat="42.53505" lon="2.44026">
        <ele>1978</ele>
        <time>2024-09-18T14:27:25Z</time>
      </trkpt>
      <trkpt lat="42.53504" lon="2.4403">
        <ele>1978</ele>
        <time>2024-09-18T14:27:29Z</time>
      </trkpt>
      <trkpt lat="42.53503" lon="2.44033">
        <ele>1980</ele>
        <time>2024-09-18T14:27:34Z</time>
      </trkpt>
      <trkpt lat="42.53502" lon="2.44037">
        <ele>1980</ele>
        <time>2024-09-18T14:27:39Z</time>
      </trkpt>
      <trkpt lat="42.53502" lon="2.44041">
        <ele>1980</ele>
        <time>2024-09-18T14:27:49Z</time>
      </trkpt>
      <trkpt lat="42.53503" lon="2.44045">
        <ele>1980</ele>
        <time>2024-09-18T14:27:53Z</time>
      </trkpt>
      <trkpt lat="42.53503" lon="2.44049">
        <ele>1982</ele>
        <time>2024-09-18T14:27:57Z</time>
      </trkpt>
      <trkpt lat="42.53502" lon="2.44053">
        <ele>1981</ele>
        <time>2024-09-18T14:28:02Z</time>
      </trkpt>
      <trkpt lat="42.53502" lon="2.44057">
        <ele>1982</ele>
        <time>2024-09-18T14:28:06Z</time>
      </trkpt>
      <trkpt lat="42.53502" lon="2.44061">
        <ele>1983</ele>
        <time>2024-09-18T14:28:11Z</time>
      </trkpt>
      <trkpt lat="42.53502" lon="2.44065">
        <ele>1983</ele>
        <time>2024-09-18T14:28:16Z</time>
      </trkpt>
      <trkpt lat="42.53501" lon="2.44068">
        <ele>1984</ele>
        <time>2024-09-18T14:28:20Z</time>
      </trkpt>
      <trkpt lat="42.53501" lon="2.44072">
        <ele>1985</ele>
        <time>2024-09-18T14:28:25Z</time>
      </trkpt>
      <trkpt lat="42.535" lon="2.44076">
        <ele>1987</ele>
        <time>2024-09-18T14:28:32Z</time>
      </trkpt>
      <trkpt lat="42.53499" lon="2.4408">
        <ele>1987</ele>
        <time>2024-09-18T14:28:37Z</time>
      </trkpt>
      <trkpt lat="42.53498" lon="2.44085">
        <ele>1989</ele>
        <time>2024-09-18T14:28:43Z</time>
      </trkpt>
      <trkpt lat="42.53498" lon="2.44089">
        <ele>1989</ele>
        <time>2024-09-18T14:28:46Z</time>
      </trkpt>
      <trkpt lat="42.53497" lon="2.44092">
        <ele>1990</ele>
        <time>2024-09-18T14:28:51Z</time>
      </trkpt>
      <trkpt lat="42.53496" lon="2.44096">
        <ele>1995</ele>
        <time>2024-09-18T14:29:44Z</time>
      </trkpt>
      <trkpt lat="42.53496" lon="2.441">
        <ele>1995</ele>
        <time>2024-09-18T14:29:51Z</time>
      </trkpt>
      <trkpt lat="42.53496" lon="2.44104">
        <ele>1995</ele>
        <time>2024-09-18T14:29:54Z</time>
      </trkpt>
      <trkpt lat="42.53497" lon="2.44108">
        <ele>1994</ele>
        <time>2024-09-18T14:29:58Z</time>
      </trkpt>
      <trkpt lat="42.53497" lon="2.44112">
        <ele>1995</ele>
        <time>2024-09-18T14:30:02Z</time>
      </trkpt>
      <trkpt lat="42.53497" lon="2.44116">
        <ele>1996</ele>
        <time>2024-09-18T14:30:07Z</time>
      </trkpt>
      <trkpt lat="42.53497" lon="2.4412">
        <ele>1997</ele>
        <time>2024-09-18T14:30:13Z</time>
      </trkpt>
      <trkpt lat="42.53498" lon="2.44124">
        <ele>1998</ele>
        <time>2024-09-18T14:30:22Z</time>
      </trkpt>
      <trkpt lat="42.53498" lon="2.44128">
        <ele>1998</ele>
        <time>2024-09-18T14:30:27Z</time>
      </trkpt>
      <trkpt lat="42.53498" lon="2.44132">
        <ele>1998</ele>
        <time>2024-09-18T14:30:31Z</time>
      </trkpt>
      <trkpt lat="42.53497" lon="2.44135">
        <ele>1998</ele>
        <time>2024-09-18T14:30:35Z</time>
      </trkpt>
      <trkpt lat="42.53496" lon="2.44139">
        <ele>1999</ele>
        <time>2024-09-18T14:30:40Z</time>
      </trkpt>
      <trkpt lat="42.53495" lon="2.44143">
        <ele>1999</ele>
        <time>2024-09-18T14:30:44Z</time>
      </trkpt>
      <trkpt lat="42.53496" lon="2.44147">
        <ele>2002</ele>
        <time>2024-09-18T14:30:50Z</time>
      </trkpt>
      <trkpt lat="42.53497" lon="2.4415">
        <ele>2002</ele>
        <time>2024-09-18T14:30:53Z</time>
      </trkpt>
      <trkpt lat="42.53499" lon="2.44154">
        <ele>2002</ele>
        <time>2024-09-18T14:30:58Z</time>
      </trkpt>
      <trkpt lat="42.535" lon="2.44157">
        <ele>2002</ele>
        <time>2024-09-18T14:31:03Z</time>
      </trkpt>
      <trkpt lat="42.53501" lon="2.44161">
        <ele>2002</ele>
        <time>2024-09-18T14:31:07Z</time>
      </trkpt>
      <trkpt lat="42.53502" lon="2.44165">
        <ele>2003</ele>
        <time>2024-09-18T14:31:12Z</time>
      </trkpt>
      <trkpt lat="42.53502" lon="2.44169">
        <ele>2003</ele>
        <time>2024-09-18T14:31:18Z</time>
      </trkpt>
      <trkpt lat="42.53501" lon="2.44173">
        <ele>2004</ele>
        <time>2024-09-18T14:31:23Z</time>
      </trkpt>
      <trkpt lat="42.535" lon="2.44177">
        <ele>2005</ele>
        <time>2024-09-18T14:31:30Z</time>
      </trkpt>
      <trkpt lat="42.53501" lon="2.4418">
        <ele>2006</ele>
        <time>2024-09-18T14:31:41Z</time>
      </trkpt>
      <trkpt lat="42.53503" lon="2.44182">
        <ele>2007</ele>
        <time>2024-09-18T14:31:45Z</time>
      </trkpt>
      <trkpt lat="42.53504" lon="2.44185">
        <ele>2008</ele>
        <time>2024-09-18T14:32:11Z</time>
      </trkpt>
      <trkpt lat="42.53505" lon="2.44189">
        <ele>2009</ele>
        <time>2024-09-18T14:32:17Z</time>
      </trkpt>
      <trkpt lat="42.53506" lon="2.44193">
        <ele>2009</ele>
        <time>2024-09-18T14:32:20Z</time>
      </trkpt>
      <trkpt lat="42.53507" lon="2.44196">
        <ele>2009</ele>
        <time>2024-09-18T14:32:24Z</time>
      </trkpt>
      <trkpt lat="42.53509" lon="2.44199">
        <ele>2011</ele>
        <time>2024-09-18T14:32:29Z</time>
      </trkpt>
      <trkpt lat="42.53512" lon="2.44201">
        <ele>2011</ele>
        <time>2024-09-18T14:32:34Z</time>
      </trkpt>
      <trkpt lat="42.53515" lon="2.44203">
        <ele>2010</ele>
        <time>2024-09-18T14:32:38Z</time>
      </trkpt>
      <trkpt lat="42.53517" lon="2.44206">
        <ele>2012</ele>
        <time>2024-09-18T14:32:44Z</time>
      </trkpt>
      <trkpt lat="42.53519" lon="2.44209">
        <ele>2012</ele>
        <time>2024-09-18T14:32:47Z</time>
      </trkpt>
      <trkpt lat="42.53522" lon="2.44211">
        <ele>2013</ele>
        <time>2024-09-18T14:32:53Z</time>
      </trkpt>
      <trkpt lat="42.53523" lon="2.44214">
        <ele>2014</ele>
        <time>2024-09-18T14:32:57Z</time>
      </trkpt>
      <trkpt lat="42.53524" lon="2.44218">
        <ele>2015</ele>
        <time>2024-09-18T14:33:00Z</time>
      </trkpt>
      <trkpt lat="42.53524" lon="2.44222">
        <ele>2016</ele>
        <time>2024-09-18T14:33:05Z</time>
      </trkpt>
      <trkpt lat="42.53526" lon="2.44226">
        <ele>2018</ele>
        <time>2024-09-18T14:33:13Z</time>
      </trkpt>
      <trkpt lat="42.53528" lon="2.44229">
        <ele>2018</ele>
        <time>2024-09-18T14:33:16Z</time>
      </trkpt>
      <trkpt lat="42.53531" lon="2.44232">
        <ele>2020</ele>
        <time>2024-09-18T14:33:23Z</time>
      </trkpt>
      <trkpt lat="42.53533" lon="2.44235">
        <ele>2020</ele>
        <time>2024-09-18T14:33:29Z</time>
      </trkpt>
      <trkpt lat="42.53535" lon="2.44237">
        <ele>2021</ele>
        <time>2024-09-18T14:33:33Z</time>
      </trkpt>
      <trkpt lat="42.53537" lon="2.4424">
        <ele>2023</ele>
        <time>2024-09-18T14:33:40Z</time>
      </trkpt>
      <trkpt lat="42.5354" lon="2.44242">
        <ele>2024</ele>
        <time>2024-09-18T14:33:45Z</time>
      </trkpt>
      <trkpt lat="42.53542" lon="2.44243">
        <ele>2025</ele>
        <time>2024-09-18T14:33:51Z</time>
      </trkpt>
      <trkpt lat="42.53545" lon="2.44245">
        <ele>2025</ele>
        <time>2024-09-18T14:33:54Z</time>
      </trkpt>
      <trkpt lat="42.53547" lon="2.44248">
        <ele>2027</ele>
        <time>2024-09-18T14:34:04Z</time>
      </trkpt>
      <trkpt lat="42.5355" lon="2.4425">
        <ele>2028</ele>
        <time>2024-09-18T14:34:09Z</time>
      </trkpt>
      <trkpt lat="42.53552" lon="2.44253">
        <ele>2029</ele>
        <time>2024-09-18T14:34:13Z</time>
      </trkpt>
      <trkpt lat="42.53554" lon="2.44256">
        <ele>2030</ele>
        <time>2024-09-18T14:34:19Z</time>
      </trkpt>
      <trkpt lat="42.53557" lon="2.44257">
        <ele>2031</ele>
        <time>2024-09-18T14:34:25Z</time>
      </trkpt>
      <trkpt lat="42.53559" lon="2.44259">
        <ele>2031</ele>
        <time>2024-09-18T14:34:30Z</time>
      </trkpt>
      <trkpt lat="42.53562" lon="2.44261">
        <ele>2031</ele>
        <time>2024-09-18T14:34:36Z</time>
      </trkpt>
      <trkpt lat="42.53565" lon="2.44263">
        <ele>2031</ele>
        <time>2024-09-18T14:34:40Z</time>
      </trkpt>
      <trkpt lat="42.53568" lon="2.44265">
        <ele>2032</ele>
        <time>2024-09-18T14:34:45Z</time>
      </trkpt>
      <trkpt lat="42.53571" lon="2.44266">
        <ele>2032</ele>
        <time>2024-09-18T14:34:52Z</time>
      </trkpt>
      <trkpt lat="42.53574" lon="2.44267">
        <ele>2034</ele>
        <time>2024-09-18T14:34:56Z</time>
      </trkpt>
      <trkpt lat="42.53576" lon="2.44269">
        <ele>2034</ele>
        <time>2024-09-18T14:35:02Z</time>
      </trkpt>
      <trkpt lat="42.53579" lon="2.4427">
        <ele>2034</ele>
        <time>2024-09-18T14:35:07Z</time>
      </trkpt>
      <trkpt lat="42.53581" lon="2.44273">
        <ele>2036</ele>
        <time>2024-09-18T14:35:15Z</time>
      </trkpt>
      <trkpt lat="42.53584" lon="2.44275">
        <ele>2035</ele>
        <time>2024-09-18T14:35:19Z</time>
      </trkpt>
      <trkpt lat="42.53586" lon="2.44278">
        <ele>2037</ele>
        <time>2024-09-18T14:35:25Z</time>
      </trkpt>
      <trkpt lat="42.53589" lon="2.44279">
        <ele>2037</ele>
        <time>2024-09-18T14:35:30Z</time>
      </trkpt>
      <trkpt lat="42.53592" lon="2.44281">
        <ele>2037</ele>
        <time>2024-09-18T14:35:36Z</time>
      </trkpt>
      <trkpt lat="42.53594" lon="2.44283">
        <ele>2038</ele>
        <time>2024-09-18T14:35:43Z</time>
      </trkpt>
      <trkpt lat="42.53596" lon="2.44286">
        <ele>2039</ele>
        <time>2024-09-18T14:35:48Z</time>
      </trkpt>
      <trkpt lat="42.53599" lon="2.44287">
        <ele>2038</ele>
        <time>2024-09-18T14:35:54Z</time>
      </trkpt>
      <trkpt lat="42.53602" lon="2.44289">
        <ele>2040</ele>
        <time>2024-09-18T14:36:04Z</time>
      </trkpt>
      <trkpt lat="42.53604" lon="2.44291">
        <ele>2040</ele>
        <time>2024-09-18T14:36:09Z</time>
      </trkpt>
      <trkpt lat="42.53607" lon="2.44293">
        <ele>2040</ele>
        <time>2024-09-18T14:36:14Z</time>
      </trkpt>
      <trkpt lat="42.53609" lon="2.44296">
        <ele>2040</ele>
        <time>2024-09-18T14:36:25Z</time>
      </trkpt>
      <trkpt lat="42.53611" lon="2.44298">
        <ele>2040</ele>
        <time>2024-09-18T14:36:30Z</time>
      </trkpt>
      <trkpt lat="42.53614" lon="2.443">
        <ele>2042</ele>
        <time>2024-09-18T14:36:36Z</time>
      </trkpt>
      <trkpt lat="42.53617" lon="2.44301">
        <ele>2042</ele>
        <time>2024-09-18T14:36:42Z</time>
      </trkpt>
      <trkpt lat="42.5362" lon="2.44303">
        <ele>2043</ele>
        <time>2024-09-18T14:36:47Z</time>
      </trkpt>
      <trkpt lat="42.53624" lon="2.44303">
        <ele>2043</ele>
        <time>2024-09-18T14:36:51Z</time>
      </trkpt>
      <trkpt lat="42.53626" lon="2.44305">
        <ele>2044</ele>
        <time>2024-09-18T14:36:57Z</time>
      </trkpt>
      <trkpt lat="42.53629" lon="2.44307">
        <ele>2045</ele>
        <time>2024-09-18T14:37:01Z</time>
      </trkpt>
      <trkpt lat="42.53632" lon="2.44309">
        <ele>2046</ele>
        <time>2024-09-18T14:37:05Z</time>
      </trkpt>
      <trkpt lat="42.53634" lon="2.4431">
        <ele>2048</ele>
        <time>2024-09-18T14:37:10Z</time>
      </trkpt>
      <trkpt lat="42.53637" lon="2.4431">
        <ele>2047</ele>
        <time>2024-09-18T14:37:19Z</time>
      </trkpt>
      <trkpt lat="42.5364" lon="2.44311">
        <ele>2048</ele>
        <time>2024-09-18T14:37:24Z</time>
      </trkpt>
      <trkpt lat="42.53642" lon="2.44314">
        <ele>2049</ele>
        <time>2024-09-18T14:37:29Z</time>
      </trkpt>
      <trkpt lat="42.53645" lon="2.44317">
        <ele>2049</ele>
        <time>2024-09-18T14:37:32Z</time>
      </trkpt>
      <trkpt lat="42.53649" lon="2.44318">
        <ele>2050</ele>
        <time>2024-09-18T14:37:37Z</time>
      </trkpt>
      <trkpt lat="42.53652" lon="2.4432">
        <ele>2050</ele>
        <time>2024-09-18T14:37:43Z</time>
      </trkpt>
      <trkpt lat="42.53656" lon="2.44322">
        <ele>2050</ele>
        <time>2024-09-18T14:37:51Z</time>
      </trkpt>
      <trkpt lat="42.53658" lon="2.44324">
        <ele>2052</ele>
        <time>2024-09-18T14:37:57Z</time>
      </trkpt>
      <trkpt lat="42.53661" lon="2.44326">
        <ele>2053</ele>
        <time>2024-09-18T14:38:03Z</time>
      </trkpt>
      <trkpt lat="42.53664" lon="2.44327">
        <ele>2054</ele>
        <time>2024-09-18T14:38:07Z</time>
      </trkpt>
      <trkpt lat="42.53667" lon="2.44328">
        <ele>2053</ele>
        <time>2024-09-18T14:38:12Z</time>
      </trkpt>
      <trkpt lat="42.5367" lon="2.4433">
        <ele>2053</ele>
        <time>2024-09-18T14:38:21Z</time>
      </trkpt>
      <trkpt lat="42.53673" lon="2.44331">
        <ele>2053</ele>
        <time>2024-09-18T14:38:24Z</time>
      </trkpt>
      <trkpt lat="42.53676" lon="2.44333">
        <ele>2053</ele>
        <time>2024-09-18T14:38:29Z</time>
      </trkpt>
      <trkpt lat="42.53679" lon="2.44336">
        <ele>2054</ele>
        <time>2024-09-18T14:38:34Z</time>
      </trkpt>
      <trkpt lat="42.53682" lon="2.44336">
        <ele>2055</ele>
        <time>2024-09-18T14:38:38Z</time>
      </trkpt>
      <trkpt lat="42.53684" lon="2.44338">
        <ele>2055</ele>
        <time>2024-09-18T14:38:44Z</time>
      </trkpt>
      <trkpt lat="42.53687" lon="2.4434">
        <ele>2056</ele>
        <time>2024-09-18T14:38:50Z</time>
      </trkpt>
      <trkpt lat="42.5369" lon="2.44341">
        <ele>2056</ele>
        <time>2024-09-18T14:38:56Z</time>
      </trkpt>
      <trkpt lat="42.53693" lon="2.44343">
        <ele>2058</ele>
        <time>2024-09-18T14:39:17Z</time>
      </trkpt>
      <trkpt lat="42.53696" lon="2.44345">
        <ele>2059</ele>
        <time>2024-09-18T14:39:22Z</time>
      </trkpt>
      <trkpt lat="42.53699" lon="2.44346">
        <ele>2060</ele>
        <time>2024-09-18T14:39:27Z</time>
      </trkpt>
      <trkpt lat="42.53702" lon="2.44348">
        <ele>2060</ele>
        <time>2024-09-18T14:39:32Z</time>
      </trkpt>
      <trkpt lat="42.53704" lon="2.4435">
        <ele>2061</ele>
        <time>2024-09-18T14:39:37Z</time>
      </trkpt>
      <trkpt lat="42.53707" lon="2.44353">
        <ele>2061</ele>
        <time>2024-09-18T14:39:42Z</time>
      </trkpt>
      <trkpt lat="42.5371" lon="2.44354">
        <ele>2062</ele>
        <time>2024-09-18T14:39:46Z</time>
      </trkpt>
      <trkpt lat="42.53712" lon="2.44357">
        <ele>2063</ele>
        <time>2024-09-18T14:39:51Z</time>
      </trkpt>
      <trkpt lat="42.53713" lon="2.4436">
        <ele>2063</ele>
        <time>2024-09-18T14:39:56Z</time>
      </trkpt>
      <trkpt lat="42.53713" lon="2.44364">
        <ele>2064</ele>
        <time>2024-09-18T14:40:01Z</time>
      </trkpt>
      <trkpt lat="42.53713" lon="2.44367">
        <ele>2064</ele>
        <time>2024-09-18T14:40:06Z</time>
      </trkpt>
      <trkpt lat="42.53712" lon="2.44371">
        <ele>2061</ele>
        <time>2024-09-18T14:40:56Z</time>
      </trkpt>
      <trkpt lat="42.5371" lon="2.44374">
        <ele>2062</ele>
        <time>2024-09-18T14:42:45Z</time>
      </trkpt>
      <trkpt lat="42.53709" lon="2.44377">
        <ele>2062</ele>
        <time>2024-09-18T14:42:49Z</time>
      </trkpt>
      <trkpt lat="42.53707" lon="2.44381">
        <ele>2063</ele>
        <time>2024-09-18T14:42:53Z</time>
      </trkpt>
      <trkpt lat="42.53706" lon="2.44384">
        <ele>2063</ele>
        <time>2024-09-18T14:42:58Z</time>
      </trkpt>
      <trkpt lat="42.53705" lon="2.44388">
        <ele>2063</ele>
        <time>2024-09-18T14:43:01Z</time>
      </trkpt>
      <trkpt lat="42.53703" lon="2.44391">
        <ele>2063</ele>
        <time>2024-09-18T14:43:06Z</time>
      </trkpt>
      <trkpt lat="42.53701" lon="2.44394">
        <ele>2065</ele>
        <time>2024-09-18T14:43:11Z</time>
      </trkpt>
      <trkpt lat="42.53699" lon="2.44398">
        <ele>2066</ele>
        <time>2024-09-18T14:43:16Z</time>
      </trkpt>
      <trkpt lat="42.53697" lon="2.44401">
        <ele>2066</ele>
        <time>2024-09-18T14:43:20Z</time>
      </trkpt>
      <trkpt lat="42.53695" lon="2.44404">
        <ele>2068</ele>
        <time>2024-09-18T14:43:25Z</time>
      </trkpt>
      <trkpt lat="42.53693" lon="2.44407">
        <ele>2068</ele>
        <time>2024-09-18T14:43:28Z</time>
      </trkpt>
      <trkpt lat="42.53691" lon="2.44411">
        <ele>2069</ele>
        <time>2024-09-18T14:43:32Z</time>
      </trkpt>
      <trkpt lat="42.5369" lon="2.44415">
        <ele>2070</ele>
        <time>2024-09-18T14:43:36Z</time>
      </trkpt>
      <trkpt lat="42.53688" lon="2.44418">
        <ele>2070</ele>
        <time>2024-09-18T14:43:40Z</time>
      </trkpt>
      <trkpt lat="42.53687" lon="2.44422">
        <ele>2070</ele>
        <time>2024-09-18T14:43:44Z</time>
      </trkpt>
      <trkpt lat="42.53686" lon="2.44426">
        <ele>2071</ele>
        <time>2024-09-18T14:43:50Z</time>
      </trkpt>
      <trkpt lat="42.53684" lon="2.44429">
        <ele>2072</ele>
        <time>2024-09-18T14:43:54Z</time>
      </trkpt>
      <trkpt lat="42.53683" lon="2.44433">
        <ele>2071</ele>
        <time>2024-09-18T14:43:57Z</time>
      </trkpt>
      <trkpt lat="42.53681" lon="2.44436">
        <ele>2073</ele>
        <time>2024-09-18T14:44:02Z</time>
      </trkpt>
      <trkpt lat="42.53681" lon="2.4444">
        <ele>2072</ele>
        <time>2024-09-18T14:44:06Z</time>
      </trkpt>
      <trkpt lat="42.5368" lon="2.44444">
        <ele>2073</ele>
        <time>2024-09-18T14:44:11Z</time>
      </trkpt>
      <trkpt lat="42.53679" lon="2.44448">
        <ele>2074</ele>
        <time>2024-09-18T14:44:15Z</time>
      </trkpt>
      <trkpt lat="42.53678" lon="2.44452">
        <ele>2074</ele>
        <time>2024-09-18T14:44:20Z</time>
      </trkpt>
      <trkpt lat="42.53678" lon="2.44455">
        <ele>2074</ele>
        <time>2024-09-18T14:44:23Z</time>
      </trkpt>
      <trkpt lat="42.53676" lon="2.44459">
        <ele>2074</ele>
        <time>2024-09-18T14:44:27Z</time>
      </trkpt>
      <trkpt lat="42.53674" lon="2.44462">
        <ele>2075</ele>
        <time>2024-09-18T14:44:30Z</time>
      </trkpt>
      <trkpt lat="42.53673" lon="2.44465">
        <ele>2076</ele>
        <time>2024-09-18T14:44:34Z</time>
      </trkpt>
      <trkpt lat="42.53673" lon="2.44469">
        <ele>2077</ele>
        <time>2024-09-18T14:44:37Z</time>
      </trkpt>
      <trkpt lat="42.53671" lon="2.44472">
        <ele>2079</ele>
        <time>2024-09-18T14:44:41Z</time>
      </trkpt>
      <trkpt lat="42.5367" lon="2.44475">
        <ele>2079</ele>
        <time>2024-09-18T14:44:45Z</time>
      </trkpt>
      <trkpt lat="42.53669" lon="2.44479">
        <ele>2080</ele>
        <time>2024-09-18T14:44:49Z</time>
      </trkpt>
      <trkpt lat="42.53669" lon="2.44483">
        <ele>2080</ele>
        <time>2024-09-18T14:44:54Z</time>
      </trkpt>
      <trkpt lat="42.5367" lon="2.44486">
        <ele>2081</ele>
        <time>2024-09-18T14:44:57Z</time>
      </trkpt>
      <trkpt lat="42.5367" lon="2.4449">
        <ele>2080</ele>
        <time>2024-09-18T14:45:00Z</time>
      </trkpt>
      <trkpt lat="42.5367" lon="2.44494">
        <ele>2081</ele>
        <time>2024-09-18T14:45:04Z</time>
      </trkpt>
      <trkpt lat="42.53669" lon="2.44498">
        <ele>2080</ele>
        <time>2024-09-18T14:45:07Z</time>
      </trkpt>
      <trkpt lat="42.53671" lon="2.44503">
        <ele>2080</ele>
        <time>2024-09-18T14:45:11Z</time>
      </trkpt>
      <trkpt lat="42.53671" lon="2.44506">
        <ele>2083</ele>
        <time>2024-09-18T14:45:17Z</time>
      </trkpt>
      <trkpt lat="42.5367" lon="2.4451">
        <ele>2083</ele>
        <time>2024-09-18T14:45:22Z</time>
      </trkpt>
      <trkpt lat="42.5367" lon="2.44515">
        <ele>2084</ele>
        <time>2024-09-18T14:45:26Z</time>
      </trkpt>
      <trkpt lat="42.53671" lon="2.4452">
        <ele>2085</ele>
        <time>2024-09-18T14:45:30Z</time>
      </trkpt>
      <trkpt lat="42.5367" lon="2.44523">
        <ele>2085</ele>
        <time>2024-09-18T14:45:38Z</time>
      </trkpt>
      <trkpt lat="42.53671" lon="2.44527">
        <ele>2087</ele>
        <time>2024-09-18T14:45:44Z</time>
      </trkpt>
      <trkpt lat="42.5367" lon="2.44531">
        <ele>2085</ele>
        <time>2024-09-18T14:45:48Z</time>
      </trkpt>
      <trkpt lat="42.53671" lon="2.44534">
        <ele>2086</ele>
        <time>2024-09-18T14:45:51Z</time>
      </trkpt>
      <trkpt lat="42.5367" lon="2.44538">
        <ele>2088</ele>
        <time>2024-09-18T14:45:58Z</time>
      </trkpt>
      <trkpt lat="42.5367" lon="2.44543">
        <ele>2089</ele>
        <time>2024-09-18T14:46:02Z</time>
      </trkpt>
      <trkpt lat="42.5367" lon="2.44546">
        <ele>2089</ele>
        <time>2024-09-18T14:46:06Z</time>
      </trkpt>
      <trkpt lat="42.5367" lon="2.44551">
        <ele>2090</ele>
        <time>2024-09-18T14:46:10Z</time>
      </trkpt>
      <trkpt lat="42.5367" lon="2.44554">
        <ele>2091</ele>
        <time>2024-09-18T14:46:13Z</time>
      </trkpt>
      <trkpt lat="42.5367" lon="2.44558">
        <ele>2091</ele>
        <time>2024-09-18T14:46:17Z</time>
      </trkpt>
      <trkpt lat="42.5367" lon="2.44563">
        <ele>2093</ele>
        <time>2024-09-18T14:46:23Z</time>
      </trkpt>
      <trkpt lat="42.5367" lon="2.44568">
        <ele>2092</ele>
        <time>2024-09-18T14:46:27Z</time>
      </trkpt>
      <trkpt lat="42.5367" lon="2.44572">
        <ele>2092</ele>
        <time>2024-09-18T14:46:30Z</time>
      </trkpt>
      <trkpt lat="42.53671" lon="2.44577">
        <ele>2094</ele>
        <time>2024-09-18T14:46:36Z</time>
      </trkpt>
      <trkpt lat="42.53672" lon="2.44581">
        <ele>2093</ele>
        <time>2024-09-18T14:46:40Z</time>
      </trkpt>
      <trkpt lat="42.53673" lon="2.44585">
        <ele>2093</ele>
        <time>2024-09-18T14:46:44Z</time>
      </trkpt>
      <trkpt lat="42.53674" lon="2.44589">
        <ele>2092</ele>
        <time>2024-09-18T14:46:49Z</time>
      </trkpt>
      <trkpt lat="42.53675" lon="2.44593">
        <ele>2092</ele>
        <time>2024-09-18T14:46:53Z</time>
      </trkpt>
      <trkpt lat="42.53677" lon="2.44597">
        <ele>2093</ele>
        <time>2024-09-18T14:46:57Z</time>
      </trkpt>
      <trkpt lat="42.53679" lon="2.446">
        <ele>2092</ele>
        <time>2024-09-18T14:47:01Z</time>
      </trkpt>
      <trkpt lat="42.5368" lon="2.44604">
        <ele>2092</ele>
        <time>2024-09-18T14:47:04Z</time>
      </trkpt>
      <trkpt lat="42.53681" lon="2.44608">
        <ele>2093</ele>
        <time>2024-09-18T14:47:09Z</time>
      </trkpt>
      <trkpt lat="42.53681" lon="2.44612">
        <ele>2092</ele>
        <time>2024-09-18T14:47:14Z</time>
      </trkpt>
      <trkpt lat="42.5368" lon="2.44616">
        <ele>2094</ele>
        <time>2024-09-18T14:47:19Z</time>
      </trkpt>
      <trkpt lat="42.53679" lon="2.44619">
        <ele>2094</ele>
        <time>2024-09-18T14:47:23Z</time>
      </trkpt>
      <trkpt lat="42.53679" lon="2.44623">
        <ele>2095</ele>
        <time>2024-09-18T14:47:39Z</time>
      </trkpt>
      <trkpt lat="42.53678" lon="2.44626">
        <ele>2097</ele>
        <time>2024-09-18T14:48:24Z</time>
      </trkpt>
      <trkpt lat="42.53676" lon="2.44629">
        <ele>2096</ele>
        <time>2024-09-18T14:48:28Z</time>
      </trkpt>
      <trkpt lat="42.53674" lon="2.44632">
        <ele>2096</ele>
        <time>2024-09-18T14:48:32Z</time>
      </trkpt>
      <trkpt lat="42.53672" lon="2.44635">
        <ele>2098</ele>
        <time>2024-09-18T14:48:36Z</time>
      </trkpt>
      <trkpt lat="42.5367" lon="2.44639">
        <ele>2097</ele>
        <time>2024-09-18T14:48:41Z</time>
      </trkpt>
      <trkpt lat="42.53667" lon="2.44641">
        <ele>2098</ele>
        <time>2024-09-18T14:48:48Z</time>
      </trkpt>
      <trkpt lat="42.53665" lon="2.44645">
        <ele>2099</ele>
        <time>2024-09-18T14:48:52Z</time>
      </trkpt>
      <trkpt lat="42.53663" lon="2.44648">
        <ele>2099</ele>
        <time>2024-09-18T14:48:57Z</time>
      </trkpt>
      <trkpt lat="42.53661" lon="2.44651">
        <ele>2100</ele>
        <time>2024-09-18T14:49:07Z</time>
      </trkpt>
      <trkpt lat="42.5366" lon="2.44654">
        <ele>2100</ele>
        <time>2024-09-18T14:49:11Z</time>
      </trkpt>
      <trkpt lat="42.53657" lon="2.44657">
        <ele>2101</ele>
        <time>2024-09-18T14:49:17Z</time>
      </trkpt>
      <trkpt lat="42.53655" lon="2.4466">
        <ele>2101</ele>
        <time>2024-09-18T14:49:21Z</time>
      </trkpt>
      <trkpt lat="42.53653" lon="2.44663">
        <ele>2101</ele>
        <time>2024-09-18T14:49:25Z</time>
      </trkpt>
      <trkpt lat="42.5365" lon="2.44665">
        <ele>2102</ele>
        <time>2024-09-18T14:49:29Z</time>
      </trkpt>
      <trkpt lat="42.53648" lon="2.44667">
        <ele>2103</ele>
        <time>2024-09-18T14:49:35Z</time>
      </trkpt>
      <trkpt lat="42.53646" lon="2.4467">
        <ele>2104</ele>
        <time>2024-09-18T14:49:39Z</time>
      </trkpt>
      <trkpt lat="42.53644" lon="2.44673">
        <ele>2104</ele>
        <time>2024-09-18T14:49:43Z</time>
      </trkpt>
      <trkpt lat="42.53643" lon="2.44677">
        <ele>2105</ele>
        <time>2024-09-18T14:49:46Z</time>
      </trkpt>
      <trkpt lat="42.53642" lon="2.44681">
        <ele>2106</ele>
        <time>2024-09-18T14:49:50Z</time>
      </trkpt>
      <trkpt lat="42.53641" lon="2.44685">
        <ele>2106</ele>
        <time>2024-09-18T14:49:53Z</time>
      </trkpt>
      <trkpt lat="42.5364" lon="2.44688">
        <ele>2107</ele>
        <time>2024-09-18T14:49:58Z</time>
      </trkpt>
      <trkpt lat="42.53638" lon="2.44691">
        <ele>2109</ele>
        <time>2024-09-18T14:50:03Z</time>
      </trkpt>
      <trkpt lat="42.53637" lon="2.44694">
        <ele>2109</ele>
        <time>2024-09-18T14:50:07Z</time>
      </trkpt>
      <trkpt lat="42.53636" lon="2.44698">
        <ele>2110</ele>
        <time>2024-09-18T14:50:10Z</time>
      </trkpt>
      <trkpt lat="42.53636" lon="2.44702">
        <ele>2108</ele>
        <time>2024-09-18T14:50:14Z</time>
      </trkpt>
      <trkpt lat="42.53635" lon="2.44705">
        <ele>2109</ele>
        <time>2024-09-18T14:50:21Z</time>
      </trkpt>
      <trkpt lat="42.53635" lon="2.44709">
        <ele>2110</ele>
        <time>2024-09-18T14:50:26Z</time>
      </trkpt>
      <trkpt lat="42.53633" lon="2.44712">
        <ele>2111</ele>
        <time>2024-09-18T14:50:34Z</time>
      </trkpt>
      <trkpt lat="42.53634" lon="2.44715">
        <ele>2111</ele>
        <time>2024-09-18T14:50:39Z</time>
      </trkpt>
      <trkpt lat="42.53632" lon="2.44718">
        <ele>2112</ele>
        <time>2024-09-18T14:50:43Z</time>
      </trkpt>
      <trkpt lat="42.53631" lon="2.44722">
        <ele>2113</ele>
        <time>2024-09-18T14:50:49Z</time>
      </trkpt>
      <trkpt lat="42.5363" lon="2.44726">
        <ele>2113</ele>
        <time>2024-09-18T14:50:53Z</time>
      </trkpt>
      <trkpt lat="42.53628" lon="2.44729">
        <ele>2113</ele>
        <time>2024-09-18T14:50:58Z</time>
      </trkpt>
      <trkpt lat="42.53626" lon="2.44733">
        <ele>2113</ele>
        <time>2024-09-18T14:51:02Z</time>
      </trkpt>
      <trkpt lat="42.53623" lon="2.44736">
        <ele>2112</ele>
        <time>2024-09-18T14:51:06Z</time>
      </trkpt>
      <trkpt lat="42.53621" lon="2.44739">
        <ele>2114</ele>
        <time>2024-09-18T14:51:15Z</time>
      </trkpt>
      <trkpt lat="42.5362" lon="2.44743">
        <ele>2116</ele>
        <time>2024-09-18T14:51:25Z</time>
      </trkpt>
      <trkpt lat="42.53618" lon="2.44746">
        <ele>2116</ele>
        <time>2024-09-18T14:51:32Z</time>
      </trkpt>
      <trkpt lat="42.53617" lon="2.44749">
        <ele>2117</ele>
        <time>2024-09-18T14:51:38Z</time>
      </trkpt>
      <trkpt lat="42.53616" lon="2.44753">
        <ele>2118</ele>
        <time>2024-09-18T14:51:42Z</time>
      </trkpt>
      <trkpt lat="42.53615" lon="2.44757">
        <ele>2120</ele>
        <time>2024-09-18T14:51:49Z</time>
      </trkpt>
      <trkpt lat="42.53614" lon="2.44761">
        <ele>2121</ele>
        <time>2024-09-18T14:51:54Z</time>
      </trkpt>
      <trkpt lat="42.53613" lon="2.44765">
        <ele>2122</ele>
        <time>2024-09-18T14:52:02Z</time>
      </trkpt>
      <trkpt lat="42.53613" lon="2.44769">
        <ele>2124</ele>
        <time>2024-09-18T14:52:08Z</time>
      </trkpt>
      <trkpt lat="42.53613" lon="2.44774">
        <ele>2125</ele>
        <time>2024-09-18T14:52:12Z</time>
      </trkpt>
      <trkpt lat="42.53612" lon="2.44779">
        <ele>2123</ele>
        <time>2024-09-18T14:52:18Z</time>
      </trkpt>
      <trkpt lat="42.53611" lon="2.44783">
        <ele>2124</ele>
        <time>2024-09-18T14:52:24Z</time>
      </trkpt>
      <trkpt lat="42.53611" lon="2.44787">
        <ele>2124</ele>
        <time>2024-09-18T14:52:30Z</time>
      </trkpt>
      <trkpt lat="42.53611" lon="2.44791">
        <ele>2125</ele>
        <time>2024-09-18T14:52:34Z</time>
      </trkpt>
      <trkpt lat="42.53611" lon="2.44794">
        <ele>2125</ele>
        <time>2024-09-18T14:52:41Z</time>
      </trkpt>
      <trkpt lat="42.5361" lon="2.44798">
        <ele>2126</ele>
        <time>2024-09-18T14:52:47Z</time>
      </trkpt>
      <trkpt lat="42.5361" lon="2.44803">
        <ele>2127</ele>
        <time>2024-09-18T14:52:55Z</time>
      </trkpt>
      <trkpt lat="42.5361" lon="2.44806">
        <ele>2127</ele>
        <time>2024-09-18T14:53:00Z</time>
      </trkpt>
      <trkpt lat="42.5361" lon="2.4481">
        <ele>2129</ele>
        <time>2024-09-18T14:53:06Z</time>
      </trkpt>
      <trkpt lat="42.53612" lon="2.44813">
        <ele>2132</ele>
        <time>2024-09-18T14:53:13Z</time>
      </trkpt>
      <trkpt lat="42.53612" lon="2.44817">
        <ele>2133</ele>
        <time>2024-09-18T14:53:17Z</time>
      </trkpt>
      <trkpt lat="42.53615" lon="2.44821">
        <ele>2133</ele>
        <time>2024-09-18T14:53:35Z</time>
      </trkpt>
      <trkpt lat="42.53619" lon="2.44825">
        <ele>2134</ele>
        <time>2024-09-18T14:53:54Z</time>
      </trkpt>
      <trkpt lat="42.53619" lon="2.44827">
        <ele>2133</ele>
        <time>2024-09-18T14:53:58Z</time>
      </trkpt>
      <trkpt lat="42.53617" lon="2.44829">
        <ele>2132</ele>
        <time>2024-09-18T14:54:02Z</time>
      </trkpt>
      <trkpt lat="42.53617" lon="2.44833">
        <ele>2133</ele>
        <time>2024-09-18T14:54:05Z</time>
      </trkpt>
      <trkpt lat="42.53617" lon="2.44836">
        <ele>2135</ele>
        <time>2024-09-18T14:54:09Z</time>
      </trkpt>
      <trkpt lat="42.53617" lon="2.4484">
        <ele>2135</ele>
        <time>2024-09-18T14:54:17Z</time>
      </trkpt>
      <trkpt lat="42.53618" lon="2.44844">
        <ele>2135</ele>
        <time>2024-09-18T14:54:21Z</time>
      </trkpt>
      <trkpt lat="42.53619" lon="2.44848">
        <ele>2137</ele>
        <time>2024-09-18T14:54:26Z</time>
      </trkpt>
      <trkpt lat="42.53619" lon="2.44852">
        <ele>2137</ele>
        <time>2024-09-18T14:54:31Z</time>
      </trkpt>
      <trkpt lat="42.53621" lon="2.44856">
        <ele>2138</ele>
        <time>2024-09-18T14:54:35Z</time>
      </trkpt>
      <trkpt lat="42.53622" lon="2.4486">
        <ele>2140</ele>
        <time>2024-09-18T14:54:38Z</time>
      </trkpt>
      <trkpt lat="42.53622" lon="2.44864">
        <ele>2140</ele>
        <time>2024-09-18T14:54:42Z</time>
      </trkpt>
      <trkpt lat="42.53622" lon="2.44868">
        <ele>2140</ele>
        <time>2024-09-18T14:54:45Z</time>
      </trkpt>
      <trkpt lat="42.53622" lon="2.44871">
        <ele>2140</ele>
        <time>2024-09-18T14:54:48Z</time>
      </trkpt>
      <trkpt lat="42.53623" lon="2.44876">
        <ele>2140</ele>
        <time>2024-09-18T14:54:52Z</time>
      </trkpt>
      <trkpt lat="42.53623" lon="2.44881">
        <ele>2140</ele>
        <time>2024-09-18T14:54:57Z</time>
      </trkpt>
      <trkpt lat="42.53623" lon="2.44885">
        <ele>2141</ele>
        <time>2024-09-18T14:55:02Z</time>
      </trkpt>
      <trkpt lat="42.53622" lon="2.44889">
        <ele>2142</ele>
        <time>2024-09-18T14:55:07Z</time>
      </trkpt>
      <trkpt lat="42.53621" lon="2.44894">
        <ele>2143</ele>
        <time>2024-09-18T14:55:11Z</time>
      </trkpt>
      <trkpt lat="42.5362" lon="2.44898">
        <ele>2141</ele>
        <time>2024-09-18T14:55:16Z</time>
      </trkpt>
      <trkpt lat="42.53618" lon="2.44901">
        <ele>2142</ele>
        <time>2024-09-18T14:55:21Z</time>
      </trkpt>
      <trkpt lat="42.53616" lon="2.44905">
        <ele>2142</ele>
        <time>2024-09-18T14:55:24Z</time>
      </trkpt>
      <trkpt lat="42.53615" lon="2.44908">
        <ele>2143</ele>
        <time>2024-09-18T14:55:29Z</time>
      </trkpt>
      <trkpt lat="42.53613" lon="2.44912">
        <ele>2143</ele>
        <time>2024-09-18T14:55:34Z</time>
      </trkpt>
      <trkpt lat="42.53612" lon="2.44916">
        <ele>2143</ele>
        <time>2024-09-18T14:55:38Z</time>
      </trkpt>
      <trkpt lat="42.53611" lon="2.4492">
        <ele>2145</ele>
        <time>2024-09-18T14:55:42Z</time>
      </trkpt>
      <trkpt lat="42.53609" lon="2.44923">
        <ele>2145</ele>
        <time>2024-09-18T14:55:47Z</time>
      </trkpt>
      <trkpt lat="42.53607" lon="2.44925">
        <ele>2146</ele>
        <time>2024-09-18T14:55:52Z</time>
      </trkpt>
      <trkpt lat="42.53604" lon="2.44927">
        <ele>2146</ele>
        <time>2024-09-18T14:55:57Z</time>
      </trkpt>
      <trkpt lat="42.53602" lon="2.4493">
        <ele>2147</ele>
        <time>2024-09-18T14:56:02Z</time>
      </trkpt>
      <trkpt lat="42.536" lon="2.44933">
        <ele>2147</ele>
        <time>2024-09-18T14:56:04Z</time>
      </trkpt>
      <trkpt lat="42.53597" lon="2.44935">
        <ele>2147</ele>
        <time>2024-09-18T14:56:08Z</time>
      </trkpt>
      <trkpt lat="42.53594" lon="2.44938">
        <ele>2150</ele>
        <time>2024-09-18T14:56:13Z</time>
      </trkpt>
      <trkpt lat="42.53592" lon="2.4494">
        <ele>2151</ele>
        <time>2024-09-18T14:56:17Z</time>
      </trkpt>
      <trkpt lat="42.53589" lon="2.44941">
        <ele>2151</ele>
        <time>2024-09-18T14:56:23Z</time>
      </trkpt>
      <trkpt lat="42.53587" lon="2.44944">
        <ele>2150</ele>
        <time>2024-09-18T14:56:43Z</time>
      </trkpt>
      <trkpt lat="42.53584" lon="2.44947">
        <ele>2150</ele>
        <time>2024-09-18T14:57:58Z</time>
      </trkpt>
      <trkpt lat="42.53582" lon="2.44948">
        <ele>2151</ele>
        <time>2024-09-18T14:58:03Z</time>
      </trkpt>
      <trkpt lat="42.53579" lon="2.4495">
        <ele>2152</ele>
        <time>2024-09-18T14:58:09Z</time>
      </trkpt>
      <trkpt lat="42.53576" lon="2.44953">
        <ele>2152</ele>
        <time>2024-09-18T14:58:13Z</time>
      </trkpt>
      <trkpt lat="42.53574" lon="2.44955">
        <ele>2152</ele>
        <time>2024-09-18T14:58:19Z</time>
      </trkpt>
      <trkpt lat="42.53571" lon="2.44957">
        <ele>2153</ele>
        <time>2024-09-18T14:58:24Z</time>
      </trkpt>
      <trkpt lat="42.53569" lon="2.44959">
        <ele>2154</ele>
        <time>2024-09-18T14:58:29Z</time>
      </trkpt>
      <trkpt lat="42.53566" lon="2.4496">
        <ele>2155</ele>
        <time>2024-09-18T14:58:34Z</time>
      </trkpt>
      <trkpt lat="42.53563" lon="2.44962">
        <ele>2157</ele>
        <time>2024-09-18T14:58:39Z</time>
      </trkpt>
      <trkpt lat="42.53559" lon="2.44964">
        <ele>2156</ele>
        <time>2024-09-18T14:58:42Z</time>
      </trkpt>
      <trkpt lat="42.53557" lon="2.44966">
        <ele>2156</ele>
        <time>2024-09-18T14:58:46Z</time>
      </trkpt>
      <trkpt lat="42.53555" lon="2.4497">
        <ele>2157</ele>
        <time>2024-09-18T14:58:49Z</time>
      </trkpt>
      <trkpt lat="42.53554" lon="2.44973">
        <ele>2156</ele>
        <time>2024-09-18T14:58:55Z</time>
      </trkpt>
      <trkpt lat="42.53552" lon="2.44976">
        <ele>2157</ele>
        <time>2024-09-18T14:59:01Z</time>
      </trkpt>
      <trkpt lat="42.53551" lon="2.4498">
        <ele>2156</ele>
        <time>2024-09-18T14:59:07Z</time>
      </trkpt>
      <trkpt lat="42.5355" lon="2.44985">
        <ele>2157</ele>
        <time>2024-09-18T14:59:12Z</time>
      </trkpt>
      <trkpt lat="42.53548" lon="2.44988">
        <ele>2156</ele>
        <time>2024-09-18T14:59:17Z</time>
      </trkpt>
      <trkpt lat="42.53546" lon="2.44991">
        <ele>2157</ele>
        <time>2024-09-18T14:59:23Z</time>
      </trkpt>
      <trkpt lat="42.53545" lon="2.44995">
        <ele>2159</ele>
        <time>2024-09-18T14:59:30Z</time>
      </trkpt>
      <trkpt lat="42.53545" lon="2.44999">
        <ele>2160</ele>
        <time>2024-09-18T14:59:34Z</time>
      </trkpt>
      <trkpt lat="42.53543" lon="2.45003">
        <ele>2160</ele>
        <time>2024-09-18T14:59:40Z</time>
      </trkpt>
      <trkpt lat="42.53542" lon="2.45006">
        <ele>2161</ele>
        <time>2024-09-18T14:59:45Z</time>
      </trkpt>
      <trkpt lat="42.5354" lon="2.45009">
        <ele>2161</ele>
        <time>2024-09-18T14:59:49Z</time>
      </trkpt>
      <trkpt lat="42.53539" lon="2.45014">
        <ele>2162</ele>
        <time>2024-09-18T14:59:55Z</time>
      </trkpt>
      <trkpt lat="42.53538" lon="2.45018">
        <ele>2161</ele>
        <time>2024-09-18T14:59:59Z</time>
      </trkpt>
      <trkpt lat="42.53536" lon="2.45021">
        <ele>2164</ele>
        <time>2024-09-18T15:00:04Z</time>
      </trkpt>
      <trkpt lat="42.53534" lon="2.45025">
        <ele>2165</ele>
        <time>2024-09-18T15:00:10Z</time>
      </trkpt>
      <trkpt lat="42.53534" lon="2.45028">
        <ele>2165</ele>
        <time>2024-09-18T15:00:15Z</time>
      </trkpt>
      <trkpt lat="42.53535" lon="2.45032">
        <ele>2164</ele>
        <time>2024-09-18T15:00:19Z</time>
      </trkpt>
      <trkpt lat="42.53536" lon="2.45036">
        <ele>2165</ele>
        <time>2024-09-18T15:00:23Z</time>
      </trkpt>
      <trkpt lat="42.53536" lon="2.4504">
        <ele>2165</ele>
        <time>2024-09-18T15:00:27Z</time>
      </trkpt>
      <trkpt lat="42.53534" lon="2.45043">
        <ele>2165</ele>
        <time>2024-09-18T15:00:32Z</time>
      </trkpt>
      <trkpt lat="42.53534" lon="2.45046">
        <ele>2165</ele>
        <time>2024-09-18T15:00:36Z</time>
      </trkpt>
      <trkpt lat="42.53535" lon="2.4505">
        <ele>2167</ele>
        <time>2024-09-18T15:00:42Z</time>
      </trkpt>
      <trkpt lat="42.53536" lon="2.45054">
        <ele>2167</ele>
        <time>2024-09-18T15:00:46Z</time>
      </trkpt>
      <trkpt lat="42.53536" lon="2.45058">
        <ele>2168</ele>
        <time>2024-09-18T15:00:50Z</time>
      </trkpt>
      <trkpt lat="42.53535" lon="2.45062">
        <ele>2168</ele>
        <time>2024-09-18T15:00:55Z</time>
      </trkpt>
      <trkpt lat="42.53535" lon="2.45065">
        <ele>2169</ele>
        <time>2024-09-18T15:00:59Z</time>
      </trkpt>
      <trkpt lat="42.53534" lon="2.45069">
        <ele>2168</ele>
        <time>2024-09-18T15:01:03Z</time>
      </trkpt>
      <trkpt lat="42.53534" lon="2.45074">
        <ele>2169</ele>
        <time>2024-09-18T15:01:08Z</time>
      </trkpt>
      <trkpt lat="42.53535" lon="2.45078">
        <ele>2170</ele>
        <time>2024-09-18T15:01:12Z</time>
      </trkpt>
      <trkpt lat="42.53535" lon="2.45082">
        <ele>2171</ele>
        <time>2024-09-18T15:01:18Z</time>
      </trkpt>
      <trkpt lat="42.53535" lon="2.45086">
        <ele>2171</ele>
        <time>2024-09-18T15:01:31Z</time>
      </trkpt>
      <trkpt lat="42.53534" lon="2.4509">
        <ele>2172</ele>
        <time>2024-09-18T15:01:37Z</time>
      </trkpt>
      <trkpt lat="42.53534" lon="2.45093">
        <ele>2172</ele>
        <time>2024-09-18T15:01:43Z</time>
      </trkpt>
      <trkpt lat="42.53533" lon="2.45097">
        <ele>2173</ele>
        <time>2024-09-18T15:01:47Z</time>
      </trkpt>
      <trkpt lat="42.53531" lon="2.451">
        <ele>2174</ele>
        <time>2024-09-18T15:01:55Z</time>
      </trkpt>
      <trkpt lat="42.53529" lon="2.45102">
        <ele>2173</ele>
        <time>2024-09-18T15:02:00Z</time>
      </trkpt>
      <trkpt lat="42.53527" lon="2.45105">
        <ele>2174</ele>
        <time>2024-09-18T15:02:06Z</time>
      </trkpt>
      <trkpt lat="42.53525" lon="2.45108">
        <ele>2176</ele>
        <time>2024-09-18T15:02:11Z</time>
      </trkpt>
      <trkpt lat="42.53524" lon="2.45111">
        <ele>2176</ele>
        <time>2024-09-18T15:02:16Z</time>
      </trkpt>
      <trkpt lat="42.53523" lon="2.45114">
        <ele>2176</ele>
        <time>2024-09-18T15:02:22Z</time>
      </trkpt>
      <trkpt lat="42.53521" lon="2.45117">
        <ele>2175</ele>
        <time>2024-09-18T15:02:25Z</time>
      </trkpt>
      <trkpt lat="42.53519" lon="2.4512">
        <ele>2176</ele>
        <time>2024-09-18T15:02:31Z</time>
      </trkpt>
      <trkpt lat="42.53517" lon="2.45123">
        <ele>2177</ele>
        <time>2024-09-18T15:02:38Z</time>
      </trkpt>
      <trkpt lat="42.53515" lon="2.45126">
        <ele>2178</ele>
        <time>2024-09-18T15:02:45Z</time>
      </trkpt>
      <trkpt lat="42.53513" lon="2.45129">
        <ele>2178</ele>
        <time>2024-09-18T15:02:52Z</time>
      </trkpt>
      <trkpt lat="42.53511" lon="2.45132">
        <ele>2180</ele>
        <time>2024-09-18T15:02:58Z</time>
      </trkpt>
      <trkpt lat="42.53509" lon="2.45135">
        <ele>2180</ele>
        <time>2024-09-18T15:03:04Z</time>
      </trkpt>
      <trkpt lat="42.53507" lon="2.45138">
        <ele>2180</ele>
        <time>2024-09-18T15:03:09Z</time>
      </trkpt>
      <trkpt lat="42.53506" lon="2.45142">
        <ele>2182</ele>
        <time>2024-09-18T15:03:14Z</time>
      </trkpt>
      <trkpt lat="42.53503" lon="2.45145">
        <ele>2183</ele>
        <time>2024-09-18T15:03:21Z</time>
      </trkpt>
      <trkpt lat="42.53501" lon="2.45147">
        <ele>2183</ele>
        <time>2024-09-18T15:03:30Z</time>
      </trkpt>
      <trkpt lat="42.53498" lon="2.45149">
        <ele>2186</ele>
        <time>2024-09-18T15:03:45Z</time>
      </trkpt>
      <trkpt lat="42.53496" lon="2.45152">
        <ele>2187</ele>
        <time>2024-09-18T15:03:53Z</time>
      </trkpt>
      <trkpt lat="42.53495" lon="2.45156">
        <ele>2187</ele>
        <time>2024-09-18T15:04:00Z</time>
      </trkpt>
      <trkpt lat="42.53494" lon="2.45159">
        <ele>2187</ele>
        <time>2024-09-18T15:04:05Z</time>
      </trkpt>
      <trkpt lat="42.53494" lon="2.45163">
        <ele>2187</ele>
        <time>2024-09-18T15:04:11Z</time>
      </trkpt>
      <trkpt lat="42.53492" lon="2.45167">
        <ele>2188</ele>
        <time>2024-09-18T15:04:19Z</time>
      </trkpt>
      <trkpt lat="42.53491" lon="2.45171">
        <ele>2188</ele>
        <time>2024-09-18T15:04:25Z</time>
      </trkpt>
      <trkpt lat="42.53489" lon="2.45174">
        <ele>2188</ele>
        <time>2024-09-18T15:04:29Z</time>
      </trkpt>
      <trkpt lat="42.53487" lon="2.45177">
        <ele>2188</ele>
        <time>2024-09-18T15:04:37Z</time>
      </trkpt>
      <trkpt lat="42.53486" lon="2.4518">
        <ele>2189</ele>
        <time>2024-09-18T15:04:43Z</time>
      </trkpt>
      <trkpt lat="42.53486" lon="2.45184">
        <ele>2190</ele>
        <time>2024-09-18T15:04:48Z</time>
      </trkpt>
      <trkpt lat="42.53485" lon="2.45188">
        <ele>2192</ele>
        <time>2024-09-18T15:04:56Z</time>
      </trkpt>
      <trkpt lat="42.53484" lon="2.45191">
        <ele>2192</ele>
        <time>2024-09-18T15:05:02Z</time>
      </trkpt>
      <trkpt lat="42.53482" lon="2.45194">
        <ele>2192</ele>
        <time>2024-09-18T15:05:08Z</time>
      </trkpt>
      <trkpt lat="42.53481" lon="2.45197">
        <ele>2193</ele>
        <time>2024-09-18T15:05:14Z</time>
      </trkpt>
      <trkpt lat="42.5348" lon="2.45201">
        <ele>2194</ele>
        <time>2024-09-18T15:05:19Z</time>
      </trkpt>
      <trkpt lat="42.53479" lon="2.45205">
        <ele>2193</ele>
        <time>2024-09-18T15:05:26Z</time>
      </trkpt>
      <trkpt lat="42.53478" lon="2.45209">
        <ele>2193</ele>
        <time>2024-09-18T15:05:34Z</time>
      </trkpt>
      <trkpt lat="42.53478" lon="2.45213">
        <ele>2193</ele>
        <time>2024-09-18T15:05:41Z</time>
      </trkpt>
      <trkpt lat="42.53477" lon="2.45217">
        <ele>2194</ele>
        <time>2024-09-18T15:05:46Z</time>
      </trkpt>
      <trkpt lat="42.53475" lon="2.4522">
        <ele>2195</ele>
        <time>2024-09-18T15:05:53Z</time>
      </trkpt>
      <trkpt lat="42.53473" lon="2.45223">
        <ele>2196</ele>
        <time>2024-09-18T15:05:59Z</time>
      </trkpt>
      <trkpt lat="42.53472" lon="2.45227">
        <ele>2197</ele>
        <time>2024-09-18T15:06:05Z</time>
      </trkpt>
      <trkpt lat="42.5347" lon="2.4523">
        <ele>2198</ele>
        <time>2024-09-18T15:06:11Z</time>
      </trkpt>
      <trkpt lat="42.5347" lon="2.45234">
        <ele>2200</ele>
        <time>2024-09-18T15:06:17Z</time>
      </trkpt>
      <trkpt lat="42.53469" lon="2.45237">
        <ele>2200</ele>
        <time>2024-09-18T15:06:24Z</time>
      </trkpt>
      <trkpt lat="42.53467" lon="2.4524">
        <ele>2199</ele>
        <time>2024-09-18T15:06:32Z</time>
      </trkpt>
      <trkpt lat="42.53466" lon="2.45244">
        <ele>2200</ele>
        <time>2024-09-18T15:06:37Z</time>
      </trkpt>
      <trkpt lat="42.53465" lon="2.45248">
        <ele>2200</ele>
        <time>2024-09-18T15:06:43Z</time>
      </trkpt>
      <trkpt lat="42.53464" lon="2.45251">
        <ele>2201</ele>
        <time>2024-09-18T15:06:49Z</time>
      </trkpt>
      <trkpt lat="42.53463" lon="2.45255">
        <ele>2201</ele>
        <time>2024-09-18T15:06:54Z</time>
      </trkpt>
      <trkpt lat="42.53462" lon="2.45258">
        <ele>2202</ele>
        <time>2024-09-18T15:07:01Z</time>
      </trkpt>
      <trkpt lat="42.53461" lon="2.45262">
        <ele>2203</ele>
        <time>2024-09-18T15:07:07Z</time>
      </trkpt>
      <trkpt lat="42.53461" lon="2.45267">
        <ele>2204</ele>
        <time>2024-09-18T15:07:12Z</time>
      </trkpt>
      <trkpt lat="42.53462" lon="2.4527">
        <ele>2205</ele>
        <time>2024-09-18T15:07:17Z</time>
      </trkpt>
      <trkpt lat="42.53462" lon="2.45274">
        <ele>2205</ele>
        <time>2024-09-18T15:07:23Z</time>
      </trkpt>
      <trkpt lat="42.53464" lon="2.45277">
        <ele>2207</ele>
        <time>2024-09-18T15:07:32Z</time>
      </trkpt>
      <trkpt lat="42.53465" lon="2.45281">
        <ele>2208</ele>
        <time>2024-09-18T15:07:40Z</time>
      </trkpt>
      <trkpt lat="42.53468" lon="2.45283">
        <ele>2211</ele>
        <time>2024-09-18T15:07:56Z</time>
      </trkpt>
      <trkpt lat="42.53468" lon="2.45286">
        <ele>2210</ele>
        <time>2024-09-18T15:08:02Z</time>
      </trkpt>
      <trkpt lat="42.53468" lon="2.4529">
        <ele>2210</ele>
        <time>2024-09-18T15:08:08Z</time>
      </trkpt>
      <trkpt lat="42.53469" lon="2.45293">
        <ele>2211</ele>
        <time>2024-09-18T15:08:12Z</time>
      </trkpt>
      <trkpt lat="42.53469" lon="2.45298">
        <ele>2210</ele>
        <time>2024-09-18T15:08:17Z</time>
      </trkpt>
      <trkpt lat="42.5347" lon="2.45301">
        <ele>2212</ele>
        <time>2024-09-18T15:08:23Z</time>
      </trkpt>
      <trkpt lat="42.53472" lon="2.45305">
        <ele>2213</ele>
        <time>2024-09-18T15:08:29Z</time>
      </trkpt>
      <trkpt lat="42.53473" lon="2.45308">
        <ele>2214</ele>
        <time>2024-09-18T15:08:33Z</time>
      </trkpt>
      <trkpt lat="42.53474" lon="2.45313">
        <ele>2215</ele>
        <time>2024-09-18T15:08:38Z</time>
      </trkpt>
      <trkpt lat="42.53475" lon="2.45317">
        <ele>2217</ele>
        <time>2024-09-18T15:08:43Z</time>
      </trkpt>
      <trkpt lat="42.53477" lon="2.4532">
        <ele>2218</ele>
        <time>2024-09-18T15:08:47Z</time>
      </trkpt>
      <trkpt lat="42.53478" lon="2.45324">
        <ele>2218</ele>
        <time>2024-09-18T15:08:51Z</time>
      </trkpt>
      <trkpt lat="42.53478" lon="2.45328">
        <ele>2218</ele>
        <time>2024-09-18T15:08:57Z</time>
      </trkpt>
      <trkpt lat="42.53479" lon="2.45332">
        <ele>2217</ele>
        <time>2024-09-18T15:09:02Z</time>
      </trkpt>
      <trkpt lat="42.53479" lon="2.45336">
        <ele>2218</ele>
        <time>2024-09-18T15:09:09Z</time>
      </trkpt>
      <trkpt lat="42.5348" lon="2.4534">
        <ele>2219</ele>
        <time>2024-09-18T15:09:13Z</time>
      </trkpt>
      <trkpt lat="42.5348" lon="2.45343">
        <ele>2219</ele>
        <time>2024-09-18T15:09:18Z</time>
      </trkpt>
      <trkpt lat="42.53481" lon="2.45347">
        <ele>2219</ele>
        <time>2024-09-18T15:09:23Z</time>
      </trkpt>
      <trkpt lat="42.53482" lon="2.45351">
        <ele>2220</ele>
        <time>2024-09-18T15:09:30Z</time>
      </trkpt>
      <trkpt lat="42.53483" lon="2.45355">
        <ele>2219</ele>
        <time>2024-09-18T15:09:35Z</time>
      </trkpt>
      <trkpt lat="42.53483" lon="2.45359">
        <ele>2220</ele>
        <time>2024-09-18T15:09:41Z</time>
      </trkpt>
      <trkpt lat="42.53483" lon="2.45363">
        <ele>2220</ele>
        <time>2024-09-18T15:09:46Z</time>
      </trkpt>
      <trkpt lat="42.53483" lon="2.45367">
        <ele>2219</ele>
        <time>2024-09-18T15:09:52Z</time>
      </trkpt>
      <trkpt lat="42.53483" lon="2.45371">
        <ele>2221</ele>
        <time>2024-09-18T15:09:58Z</time>
      </trkpt>
      <trkpt lat="42.53483" lon="2.45374">
        <ele>2221</ele>
        <time>2024-09-18T15:10:02Z</time>
      </trkpt>
      <trkpt lat="42.53483" lon="2.45378">
        <ele>2222</ele>
        <time>2024-09-18T15:10:05Z</time>
      </trkpt>
      <trkpt lat="42.53483" lon="2.45382">
        <ele>2224</ele>
        <time>2024-09-18T15:10:12Z</time>
      </trkpt>
      <trkpt lat="42.53482" lon="2.45386">
        <ele>2224</ele>
        <time>2024-09-18T15:10:19Z</time>
      </trkpt>
      <trkpt lat="42.5348" lon="2.4539">
        <ele>2225</ele>
        <time>2024-09-18T15:10:26Z</time>
      </trkpt>
      <trkpt lat="42.5348" lon="2.45394">
        <ele>2226</ele>
        <time>2024-09-18T15:10:31Z</time>
      </trkpt>
      <trkpt lat="42.53479" lon="2.45398">
        <ele>2226</ele>
        <time>2024-09-18T15:10:37Z</time>
      </trkpt>
      <trkpt lat="42.53478" lon="2.45402">
        <ele>2227</ele>
        <time>2024-09-18T15:10:43Z</time>
      </trkpt>
      <trkpt lat="42.53477" lon="2.45406">
        <ele>2228</ele>
        <time>2024-09-18T15:10:49Z</time>
      </trkpt>
      <trkpt lat="42.53476" lon="2.4541">
        <ele>2229</ele>
        <time>2024-09-18T15:10:54Z</time>
      </trkpt>
      <trkpt lat="42.53475" lon="2.45414">
        <ele>2229</ele>
        <time>2024-09-18T15:11:00Z</time>
      </trkpt>
      <trkpt lat="42.53474" lon="2.45417">
        <ele>2230</ele>
        <time>2024-09-18T15:11:05Z</time>
      </trkpt>
      <trkpt lat="42.53472" lon="2.45421">
        <ele>2230</ele>
        <time>2024-09-18T15:11:10Z</time>
      </trkpt>
      <trkpt lat="42.53471" lon="2.45424">
        <ele>2231</ele>
        <time>2024-09-18T15:11:16Z</time>
      </trkpt>
      <trkpt lat="42.5347" lon="2.45428">
        <ele>2232</ele>
        <time>2024-09-18T15:11:33Z</time>
      </trkpt>
      <trkpt lat="42.53469" lon="2.45432">
        <ele>2233</ele>
        <time>2024-09-18T15:11:39Z</time>
      </trkpt>
      <trkpt lat="42.53468" lon="2.45436">
        <ele>2233</ele>
        <time>2024-09-18T15:11:43Z</time>
      </trkpt>
      <trkpt lat="42.53468" lon="2.45439">
        <ele>2233</ele>
        <time>2024-09-18T15:11:47Z</time>
      </trkpt>
      <trkpt lat="42.53467" lon="2.45443">
        <ele>2234</ele>
        <time>2024-09-18T15:11:52Z</time>
      </trkpt>
      <trkpt lat="42.53466" lon="2.45447">
        <ele>2235</ele>
        <time>2024-09-18T15:11:57Z</time>
      </trkpt>
      <trkpt lat="42.53463" lon="2.4545">
        <ele>2234</ele>
        <time>2024-09-18T15:12:02Z</time>
      </trkpt>
      <trkpt lat="42.53462" lon="2.45453">
        <ele>2234</ele>
        <time>2024-09-18T15:12:07Z</time>
      </trkpt>
      <trkpt lat="42.5346" lon="2.45457">
        <ele>2235</ele>
        <time>2024-09-18T15:12:12Z</time>
      </trkpt>
      <trkpt lat="42.53458" lon="2.4546">
        <ele>2236</ele>
        <time>2024-09-18T15:12:17Z</time>
      </trkpt>
      <trkpt lat="42.53457" lon="2.45463">
        <ele>2237</ele>
        <time>2024-09-18T15:12:23Z</time>
      </trkpt>
      <trkpt lat="42.53455" lon="2.45466">
        <ele>2238</ele>
        <time>2024-09-18T15:12:27Z</time>
      </trkpt>
      <trkpt lat="42.53453" lon="2.45469">
        <ele>2239</ele>
        <time>2024-09-18T15:12:32Z</time>
      </trkpt>
      <trkpt lat="42.53451" lon="2.45472">
        <ele>2239</ele>
        <time>2024-09-18T15:12:37Z</time>
      </trkpt>
      <trkpt lat="42.5345" lon="2.45475">
        <ele>2241</ele>
        <time>2024-09-18T15:12:42Z</time>
      </trkpt>
      <trkpt lat="42.53448" lon="2.45478">
        <ele>2242</ele>
        <time>2024-09-18T15:12:47Z</time>
      </trkpt>
      <trkpt lat="42.53445" lon="2.4548">
        <ele>2242</ele>
        <time>2024-09-18T15:12:51Z</time>
      </trkpt>
      <trkpt lat="42.53443" lon="2.45483">
        <ele>2243</ele>
        <time>2024-09-18T15:12:56Z</time>
      </trkpt>
      <trkpt lat="42.53441" lon="2.45486">
        <ele>2245</ele>
        <time>2024-09-18T15:13:01Z</time>
      </trkpt>
      <trkpt lat="42.53438" lon="2.45489">
        <ele>2245</ele>
        <time>2024-09-18T15:13:07Z</time>
      </trkpt>
      <trkpt lat="42.53436" lon="2.45492">
        <ele>2247</ele>
        <time>2024-09-18T15:14:04Z</time>
      </trkpt>
      <trkpt lat="42.53434" lon="2.45493">
        <ele>2248</ele>
        <time>2024-09-18T15:14:09Z</time>
      </trkpt>
      <trkpt lat="42.53431" lon="2.45493">
        <ele>2247</ele>
        <time>2024-09-18T15:14:13Z</time>
      </trkpt>
      <trkpt lat="42.53428" lon="2.45495">
        <ele>2249</ele>
        <time>2024-09-18T15:14:17Z</time>
      </trkpt>
      <trkpt lat="42.53425" lon="2.45497">
        <ele>2249</ele>
        <time>2024-09-18T15:14:22Z</time>
      </trkpt>
      <trkpt lat="42.53422" lon="2.45498">
        <ele>2249</ele>
        <time>2024-09-18T15:14:26Z</time>
      </trkpt>
      <trkpt lat="42.5342" lon="2.45499">
        <ele>2250</ele>
        <time>2024-09-18T15:14:29Z</time>
      </trkpt>
      <trkpt lat="42.53417" lon="2.455">
        <ele>2250</ele>
        <time>2024-09-18T15:14:32Z</time>
      </trkpt>
      <trkpt lat="42.53414" lon="2.45502">
        <ele>2251</ele>
        <time>2024-09-18T15:14:36Z</time>
      </trkpt>
      <trkpt lat="42.53412" lon="2.45504">
        <ele>2252</ele>
        <time>2024-09-18T15:14:40Z</time>
      </trkpt>
      <trkpt lat="42.53409" lon="2.45506">
        <ele>2251</ele>
        <time>2024-09-18T15:14:44Z</time>
      </trkpt>
      <trkpt lat="42.53406" lon="2.45507">
        <ele>2252</ele>
        <time>2024-09-18T15:14:48Z</time>
      </trkpt>
      <trkpt lat="42.53403" lon="2.45507">
        <ele>2253</ele>
        <time>2024-09-18T15:14:52Z</time>
      </trkpt>
      <trkpt lat="42.534" lon="2.45508">
        <ele>2253</ele>
        <time>2024-09-18T15:14:56Z</time>
      </trkpt>
      <trkpt lat="42.53397" lon="2.45508">
        <ele>2254</ele>
        <time>2024-09-18T15:14:59Z</time>
      </trkpt>
      <trkpt lat="42.53394" lon="2.45509">
        <ele>2254</ele>
        <time>2024-09-18T15:15:02Z</time>
      </trkpt>
      <trkpt lat="42.53391" lon="2.4551">
        <ele>2255</ele>
        <time>2024-09-18T15:15:07Z</time>
      </trkpt>
      <trkpt lat="42.53388" lon="2.45511">
        <ele>2256</ele>
        <time>2024-09-18T15:15:11Z</time>
      </trkpt>
      <trkpt lat="42.53385" lon="2.45512">
        <ele>2255</ele>
        <time>2024-09-18T15:15:15Z</time>
      </trkpt>
      <trkpt lat="42.53382" lon="2.45514">
        <ele>2257</ele>
        <time>2024-09-18T15:15:21Z</time>
      </trkpt>
      <trkpt lat="42.53379" lon="2.45516">
        <ele>2258</ele>
        <time>2024-09-18T15:15:26Z</time>
      </trkpt>
      <trkpt lat="42.53376" lon="2.45518">
        <ele>2258</ele>
        <time>2024-09-18T15:15:32Z</time>
      </trkpt>
      <trkpt lat="42.53374" lon="2.4552">
        <ele>2259</ele>
        <time>2024-09-18T15:15:37Z</time>
      </trkpt>
      <trkpt lat="42.53371" lon="2.45522">
        <ele>2260</ele>
        <time>2024-09-18T15:15:42Z</time>
      </trkpt>
      <trkpt lat="42.53368" lon="2.45524">
        <ele>2261</ele>
        <time>2024-09-18T15:15:47Z</time>
      </trkpt>
      <trkpt lat="42.53365" lon="2.45525">
        <ele>2260</ele>
        <time>2024-09-18T15:15:52Z</time>
      </trkpt>
      <trkpt lat="42.53364" lon="2.45528">
        <ele>2263</ele>
        <time>2024-09-18T15:16:33Z</time>
      </trkpt>
      <trkpt lat="42.53362" lon="2.45531">
        <ele>2261</ele>
        <time>2024-09-18T15:17:54Z</time>
      </trkpt>
      <trkpt lat="42.5336" lon="2.45535">
        <ele>2260</ele>
        <time>2024-09-18T15:17:59Z</time>
      </trkpt>
      <trkpt lat="42.53359" lon="2.45538">
        <ele>2259</ele>
        <time>2024-09-18T15:18:02Z</time>
      </trkpt>
      <trkpt lat="42.53357" lon="2.45542">
        <ele>2258</ele>
        <time>2024-09-18T15:18:05Z</time>
      </trkpt>
      <trkpt lat="42.53356" lon="2.45546">
        <ele>2258</ele>
        <time>2024-09-18T15:18:07Z</time>
      </trkpt>
      <trkpt lat="42.53354" lon="2.45551">
        <ele>2256</ele>
        <time>2024-09-18T15:18:11Z</time>
      </trkpt>
      <trkpt lat="42.53353" lon="2.45556">
        <ele>2256</ele>
        <time>2024-09-18T15:18:14Z</time>
      </trkpt>
      <trkpt lat="42.53352" lon="2.4556">
        <ele>2255</ele>
        <time>2024-09-18T15:18:17Z</time>
      </trkpt>
      <trkpt lat="42.53351" lon="2.45564">
        <ele>2254</ele>
        <time>2024-09-18T15:18:20Z</time>
      </trkpt>
      <trkpt lat="42.5335" lon="2.45568">
        <ele>2254</ele>
        <time>2024-09-18T15:18:23Z</time>
      </trkpt>
      <trkpt lat="42.53348" lon="2.45571">
        <ele>2254</ele>
        <time>2024-09-18T15:18:26Z</time>
      </trkpt>
      <trkpt lat="42.53346" lon="2.45575">
        <ele>2252</ele>
        <time>2024-09-18T15:18:30Z</time>
      </trkpt>
      <trkpt lat="42.53344" lon="2.45579">
        <ele>2251</ele>
        <time>2024-09-18T15:18:32Z</time>
      </trkpt>
      <trkpt lat="42.53343" lon="2.45582">
        <ele>2251</ele>
        <time>2024-09-18T15:18:34Z</time>
      </trkpt>
      <trkpt lat="42.53341" lon="2.45586">
        <ele>2250</ele>
        <time>2024-09-18T15:18:38Z</time>
      </trkpt>
      <trkpt lat="42.5334" lon="2.4559">
        <ele>2249</ele>
        <time>2024-09-18T15:18:42Z</time>
      </trkpt>
      <trkpt lat="42.53338" lon="2.45594">
        <ele>2248</ele>
        <time>2024-09-18T15:18:45Z</time>
      </trkpt>
      <trkpt lat="42.53338" lon="2.45598">
        <ele>2247</ele>
        <time>2024-09-18T15:18:48Z</time>
      </trkpt>
      <trkpt lat="42.53336" lon="2.45602">
        <ele>2247</ele>
        <time>2024-09-18T15:18:51Z</time>
      </trkpt>
      <trkpt lat="42.53335" lon="2.45606">
        <ele>2247</ele>
        <time>2024-09-18T15:18:53Z</time>
      </trkpt>
      <trkpt lat="42.53335" lon="2.4561">
        <ele>2247</ele>
        <time>2024-09-18T15:18:56Z</time>
      </trkpt>
      <trkpt lat="42.53335" lon="2.45615">
        <ele>2246</ele>
        <time>2024-09-18T15:19:00Z</time>
      </trkpt>
      <trkpt lat="42.53334" lon="2.45619">
        <ele>2245</ele>
        <time>2024-09-18T15:19:04Z</time>
      </trkpt>
      <trkpt lat="42.53332" lon="2.45623">
        <ele>2245</ele>
        <time>2024-09-18T15:19:07Z</time>
      </trkpt>
      <trkpt lat="42.53332" lon="2.45627">
        <ele>2243</ele>
        <time>2024-09-18T15:19:09Z</time>
      </trkpt>
      <trkpt lat="42.53331" lon="2.45631">
        <ele>2244</ele>
        <time>2024-09-18T15:19:11Z</time>
      </trkpt>
      <trkpt lat="42.5333" lon="2.45635">
        <ele>2242</ele>
        <time>2024-09-18T15:19:14Z</time>
      </trkpt>
      <trkpt lat="42.53329" lon="2.4564">
        <ele>2242</ele>
        <time>2024-09-18T15:19:18Z</time>
      </trkpt>
      <trkpt lat="42.53328" lon="2.45644">
        <ele>2240</ele>
        <time>2024-09-18T15:19:22Z</time>
      </trkpt>
      <trkpt lat="42.53326" lon="2.45647">
        <ele>2240</ele>
        <time>2024-09-18T15:19:24Z</time>
      </trkpt>
      <trkpt lat="42.53324" lon="2.45651">
        <ele>2240</ele>
        <time>2024-09-18T15:19:27Z</time>
      </trkpt>
      <trkpt lat="42.53323" lon="2.45654">
        <ele>2240</ele>
        <time>2024-09-18T15:19:30Z</time>
      </trkpt>
      <trkpt lat="42.53322" lon="2.45658">
        <ele>2240</ele>
        <time>2024-09-18T15:19:33Z</time>
      </trkpt>
      <trkpt lat="42.53321" lon="2.45662">
        <ele>2239</ele>
        <time>2024-09-18T15:19:38Z</time>
      </trkpt>
      <trkpt lat="42.53321" lon="2.45666">
        <ele>2239</ele>
        <time>2024-09-18T15:19:41Z</time>
      </trkpt>
      <trkpt lat="42.5332" lon="2.4567">
        <ele>2238</ele>
        <time>2024-09-18T15:19:45Z</time>
      </trkpt>
      <trkpt lat="42.53319" lon="2.45675">
        <ele>2237</ele>
        <time>2024-09-18T15:19:48Z</time>
      </trkpt>
      <trkpt lat="42.53319" lon="2.45679">
        <ele>2236</ele>
        <time>2024-09-18T15:19:51Z</time>
      </trkpt>
      <trkpt lat="42.53319" lon="2.45684">
        <ele>2235</ele>
        <time>2024-09-18T15:19:55Z</time>
      </trkpt>
      <trkpt lat="42.53318" lon="2.45688">
        <ele>2234</ele>
        <time>2024-09-18T15:19:59Z</time>
      </trkpt>
      <trkpt lat="42.53317" lon="2.45691">
        <ele>2233</ele>
        <time>2024-09-18T15:20:02Z</time>
      </trkpt>
      <trkpt lat="42.53316" lon="2.45696">
        <ele>2233</ele>
        <time>2024-09-18T15:20:05Z</time>
      </trkpt>
      <trkpt lat="42.53315" lon="2.45699">
        <ele>2234</ele>
        <time>2024-09-18T15:20:08Z</time>
      </trkpt>
      <trkpt lat="42.53314" lon="2.45703">
        <ele>2231</ele>
        <time>2024-09-18T15:20:12Z</time>
      </trkpt>
      <trkpt lat="42.53313" lon="2.45707">
        <ele>2231</ele>
        <time>2024-09-18T15:20:16Z</time>
      </trkpt>
      <trkpt lat="42.53311" lon="2.45711">
        <ele>2230</ele>
        <time>2024-09-18T15:20:20Z</time>
      </trkpt>
      <trkpt lat="42.53309" lon="2.45715">
        <ele>2230</ele>
        <time>2024-09-18T15:20:23Z</time>
      </trkpt>
      <trkpt lat="42.53307" lon="2.45718">
        <ele>2229</ele>
        <time>2024-09-18T15:20:27Z</time>
      </trkpt>
      <trkpt lat="42.53305" lon="2.45721">
        <ele>2229</ele>
        <time>2024-09-18T15:20:31Z</time>
      </trkpt>
      <trkpt lat="42.53302" lon="2.45725">
        <ele>2229</ele>
        <time>2024-09-18T15:20:34Z</time>
      </trkpt>
      <trkpt lat="42.533" lon="2.45728">
        <ele>2228</ele>
        <time>2024-09-18T15:20:36Z</time>
      </trkpt>
      <trkpt lat="42.53299" lon="2.45732">
        <ele>2228</ele>
        <time>2024-09-18T15:20:39Z</time>
      </trkpt>
      <trkpt lat="42.53298" lon="2.45736">
        <ele>2227</ele>
        <time>2024-09-18T15:20:42Z</time>
      </trkpt>
      <trkpt lat="42.53297" lon="2.4574">
        <ele>2227</ele>
        <time>2024-09-18T15:20:45Z</time>
      </trkpt>
      <trkpt lat="42.53295" lon="2.45743">
        <ele>2227</ele>
        <time>2024-09-18T15:20:48Z</time>
      </trkpt>
      <trkpt lat="42.53293" lon="2.45747">
        <ele>2226</ele>
        <time>2024-09-18T15:20:51Z</time>
      </trkpt>
      <trkpt lat="42.53291" lon="2.4575">
        <ele>2224</ele>
        <time>2024-09-18T15:20:54Z</time>
      </trkpt>
      <trkpt lat="42.53289" lon="2.45754">
        <ele>2224</ele>
        <time>2024-09-18T15:20:57Z</time>
      </trkpt>
      <trkpt lat="42.53287" lon="2.45758">
        <ele>2223</ele>
        <time>2024-09-18T15:21:00Z</time>
      </trkpt>
      <trkpt lat="42.53285" lon="2.45761">
        <ele>2224</ele>
        <time>2024-09-18T15:21:03Z</time>
      </trkpt>
      <trkpt lat="42.53282" lon="2.45764">
        <ele>2223</ele>
        <time>2024-09-18T15:21:06Z</time>
      </trkpt>
      <trkpt lat="42.53279" lon="2.45766">
        <ele>2223</ele>
        <time>2024-09-18T15:21:09Z</time>
      </trkpt>
      <trkpt lat="42.53276" lon="2.45768">
        <ele>2222</ele>
        <time>2024-09-18T15:21:12Z</time>
      </trkpt>
      <trkpt lat="42.53273" lon="2.45769">
        <ele>2221</ele>
        <time>2024-09-18T15:21:15Z</time>
      </trkpt>
      <trkpt lat="42.53271" lon="2.45772">
        <ele>2221</ele>
        <time>2024-09-18T15:21:17Z</time>
      </trkpt>
      <trkpt lat="42.53269" lon="2.45774">
        <ele>2222</ele>
        <time>2024-09-18T15:21:20Z</time>
      </trkpt>
      <trkpt lat="42.53266" lon="2.45776">
        <ele>2222</ele>
        <time>2024-09-18T15:21:24Z</time>
      </trkpt>
      <trkpt lat="42.53263" lon="2.45778">
        <ele>2223</ele>
        <time>2024-09-18T15:21:27Z</time>
      </trkpt>
      <trkpt lat="42.53259" lon="2.4578">
        <ele>2223</ele>
        <time>2024-09-18T15:21:31Z</time>
      </trkpt>
      <trkpt lat="42.53256" lon="2.45782">
        <ele>2224</ele>
        <time>2024-09-18T15:21:33Z</time>
      </trkpt>
      <trkpt lat="42.53253" lon="2.45784">
        <ele>2223</ele>
        <time>2024-09-18T15:21:36Z</time>
      </trkpt>
      <trkpt lat="42.5325" lon="2.45786">
        <ele>2223</ele>
        <time>2024-09-18T15:21:39Z</time>
      </trkpt>
      <trkpt lat="42.53247" lon="2.45787">
        <ele>2223</ele>
        <time>2024-09-18T15:21:43Z</time>
      </trkpt>
      <trkpt lat="42.53244" lon="2.45789">
        <ele>2223</ele>
        <time>2024-09-18T15:21:46Z</time>
      </trkpt>
      <trkpt lat="42.53241" lon="2.45792">
        <ele>2224</ele>
        <time>2024-09-18T15:21:49Z</time>
      </trkpt>
      <trkpt lat="42.53239" lon="2.45794">
        <ele>2223</ele>
        <time>2024-09-18T15:21:52Z</time>
      </trkpt>
      <trkpt lat="42.53236" lon="2.45796">
        <ele>2223</ele>
        <time>2024-09-18T15:21:55Z</time>
      </trkpt>
      <trkpt lat="42.53233" lon="2.45798">
        <ele>2223</ele>
        <time>2024-09-18T15:21:57Z</time>
      </trkpt>
      <trkpt lat="42.5323" lon="2.458">
        <ele>2223</ele>
        <time>2024-09-18T15:22:00Z</time>
      </trkpt>
      <trkpt lat="42.53227" lon="2.45802">
        <ele>2223</ele>
        <time>2024-09-18T15:22:03Z</time>
      </trkpt>
      <trkpt lat="42.53224" lon="2.45803">
        <ele>2222</ele>
        <time>2024-09-18T15:22:06Z</time>
      </trkpt>
      <trkpt lat="42.53221" lon="2.45805">
        <ele>2222</ele>
        <time>2024-09-18T15:22:10Z</time>
      </trkpt>
      <trkpt lat="42.53218" lon="2.45807">
        <ele>2221</ele>
        <time>2024-09-18T15:22:14Z</time>
      </trkpt>
      <trkpt lat="42.53215" lon="2.45809">
        <ele>2221</ele>
        <time>2024-09-18T15:22:18Z</time>
      </trkpt>
      <trkpt lat="42.53213" lon="2.4581">
        <ele>2221</ele>
        <time>2024-09-18T15:22:21Z</time>
      </trkpt>
      <trkpt lat="42.5321" lon="2.4581">
        <ele>2221</ele>
        <time>2024-09-18T15:22:24Z</time>
      </trkpt>
      <trkpt lat="42.53207" lon="2.45811">
        <ele>2220</ele>
        <time>2024-09-18T15:22:28Z</time>
      </trkpt>
      <trkpt lat="42.53204" lon="2.45812">
        <ele>2220</ele>
        <time>2024-09-18T15:22:31Z</time>
      </trkpt>
      <trkpt lat="42.53201" lon="2.45813">
        <ele>2221</ele>
        <time>2024-09-18T15:22:33Z</time>
      </trkpt>
      <trkpt lat="42.53198" lon="2.45815">
        <ele>2220</ele>
        <time>2024-09-18T15:22:37Z</time>
      </trkpt>
      <trkpt lat="42.53195" lon="2.45816">
        <ele>2220</ele>
        <time>2024-09-18T15:22:40Z</time>
      </trkpt>
      <trkpt lat="42.53192" lon="2.45819">
        <ele>2219</ele>
        <time>2024-09-18T15:22:45Z</time>
      </trkpt>
      <trkpt lat="42.53189" lon="2.45822">
        <ele>2218</ele>
        <time>2024-09-18T15:22:48Z</time>
      </trkpt>
      <trkpt lat="42.53187" lon="2.45825">
        <ele>2217</ele>
        <time>2024-09-18T15:22:52Z</time>
      </trkpt>
      <trkpt lat="42.53185" lon="2.45828">
        <ele>2216</ele>
        <time>2024-09-18T15:22:55Z</time>
      </trkpt>
      <trkpt lat="42.53182" lon="2.45831">
        <ele>2215</ele>
        <time>2024-09-18T15:22:58Z</time>
      </trkpt>
      <trkpt lat="42.5318" lon="2.45834">
        <ele>2214</ele>
        <time>2024-09-18T15:23:00Z</time>
      </trkpt>
      <trkpt lat="42.53178" lon="2.45837">
        <ele>2214</ele>
        <time>2024-09-18T15:23:02Z</time>
      </trkpt>
      <trkpt lat="42.53176" lon="2.45841">
        <ele>2213</ele>
        <time>2024-09-18T15:23:05Z</time>
      </trkpt>
      <trkpt lat="42.53175" lon="2.45845">
        <ele>2211</ele>
        <time>2024-09-18T15:23:08Z</time>
      </trkpt>
      <trkpt lat="42.53172" lon="2.45848">
        <ele>2211</ele>
        <time>2024-09-18T15:23:11Z</time>
      </trkpt>
      <trkpt lat="42.53171" lon="2.45852">
        <ele>2209</ele>
        <time>2024-09-18T15:23:14Z</time>
      </trkpt>
      <trkpt lat="42.53168" lon="2.45855">
        <ele>2209</ele>
        <time>2024-09-18T15:23:17Z</time>
      </trkpt>
      <trkpt lat="42.53166" lon="2.45859">
        <ele>2209</ele>
        <time>2024-09-18T15:23:20Z</time>
      </trkpt>
      <trkpt lat="42.53164" lon="2.45862">
        <ele>2209</ele>
        <time>2024-09-18T15:23:22Z</time>
      </trkpt>
      <trkpt lat="42.53161" lon="2.45865">
        <ele>2208</ele>
        <time>2024-09-18T15:23:26Z</time>
      </trkpt>
      <trkpt lat="42.53159" lon="2.45868">
        <ele>2208</ele>
        <time>2024-09-18T15:23:29Z</time>
      </trkpt>
      <trkpt lat="42.53157" lon="2.45871">
        <ele>2207</ele>
        <time>2024-09-18T15:23:32Z</time>
      </trkpt>
      <trkpt lat="42.53156" lon="2.45874">
        <ele>2205</ele>
        <time>2024-09-18T15:23:36Z</time>
      </trkpt>
      <trkpt lat="42.53155" lon="2.45878">
        <ele>2204</ele>
        <time>2024-09-18T15:23:38Z</time>
      </trkpt>
      <trkpt lat="42.53153" lon="2.45882">
        <ele>2204</ele>
        <time>2024-09-18T15:23:41Z</time>
      </trkpt>
      <trkpt lat="42.53151" lon="2.45885">
        <ele>2203</ele>
        <time>2024-09-18T15:23:44Z</time>
      </trkpt>
      <trkpt lat="42.53149" lon="2.45888">
        <ele>2203</ele>
        <time>2024-09-18T15:23:47Z</time>
      </trkpt>
      <trkpt lat="42.53147" lon="2.45891">
        <ele>2203</ele>
        <time>2024-09-18T15:23:50Z</time>
      </trkpt>
      <trkpt lat="42.53145" lon="2.45895">
        <ele>2204</ele>
        <time>2024-09-18T15:23:53Z</time>
      </trkpt>
      <trkpt lat="42.53143" lon="2.45899">
        <ele>2203</ele>
        <time>2024-09-18T15:23:56Z</time>
      </trkpt>
      <trkpt lat="42.53142" lon="2.45902">
        <ele>2202</ele>
        <time>2024-09-18T15:24:00Z</time>
      </trkpt>
      <trkpt lat="42.53141" lon="2.45906">
        <ele>2202</ele>
        <time>2024-09-18T15:24:04Z</time>
      </trkpt>
      <trkpt lat="42.53139" lon="2.4591">
        <ele>2201</ele>
        <time>2024-09-18T15:24:08Z</time>
      </trkpt>
      <trkpt lat="42.53139" lon="2.45914">
        <ele>2199</ele>
        <time>2024-09-18T15:24:15Z</time>
      </trkpt>
      <trkpt lat="42.53139" lon="2.45918">
        <ele>2197</ele>
        <time>2024-09-18T15:24:20Z</time>
      </trkpt>
      <trkpt lat="42.53138" lon="2.45922">
        <ele>2196</ele>
        <time>2024-09-18T15:24:24Z</time>
      </trkpt>
      <trkpt lat="42.53137" lon="2.45926">
        <ele>2195</ele>
        <time>2024-09-18T15:24:28Z</time>
      </trkpt>
      <trkpt lat="42.53135" lon="2.45928">
        <ele>2194</ele>
        <time>2024-09-18T15:24:32Z</time>
      </trkpt>
      <trkpt lat="42.53134" lon="2.45932">
        <ele>2193</ele>
        <time>2024-09-18T15:24:37Z</time>
      </trkpt>
      <trkpt lat="42.53132" lon="2.45935">
        <ele>2192</ele>
        <time>2024-09-18T15:24:40Z</time>
      </trkpt>
      <trkpt lat="42.5313" lon="2.45939">
        <ele>2192</ele>
        <time>2024-09-18T15:24:43Z</time>
      </trkpt>
      <trkpt lat="42.53128" lon="2.45942">
        <ele>2191</ele>
        <time>2024-09-18T15:24:47Z</time>
      </trkpt>
      <trkpt lat="42.53127" lon="2.45946">
        <ele>2191</ele>
        <time>2024-09-18T15:24:50Z</time>
      </trkpt>
      <trkpt lat="42.53126" lon="2.4595">
        <ele>2190</ele>
        <time>2024-09-18T15:24:54Z</time>
      </trkpt>
      <trkpt lat="42.53127" lon="2.45953">
        <ele>2189</ele>
        <time>2024-09-18T15:25:01Z</time>
      </trkpt>
      <trkpt lat="42.53127" lon="2.45957">
        <ele>2188</ele>
        <time>2024-09-18T15:25:07Z</time>
      </trkpt>
      <trkpt lat="42.53126" lon="2.45961">
        <ele>2188</ele>
        <time>2024-09-18T15:25:11Z</time>
      </trkpt>
      <trkpt lat="42.53126" lon="2.45965">
        <ele>2188</ele>
        <time>2024-09-18T15:25:15Z</time>
      </trkpt>
      <trkpt lat="42.53127" lon="2.45967">
        <ele>2188</ele>
        <time>2024-09-18T15:25:19Z</time>
      </trkpt>
      <trkpt lat="42.5313" lon="2.45969">
        <ele>2187</ele>
        <time>2024-09-18T15:25:28Z</time>
      </trkpt>
      <trkpt lat="42.53132" lon="2.45973">
        <ele>2187</ele>
        <time>2024-09-18T15:25:31Z</time>
      </trkpt>
      <trkpt lat="42.53135" lon="2.45975">
        <ele>2186</ele>
        <time>2024-09-18T15:25:34Z</time>
      </trkpt>
      <trkpt lat="42.53137" lon="2.45977">
        <ele>2186</ele>
        <time>2024-09-18T15:25:38Z</time>
      </trkpt>
      <trkpt lat="42.5314" lon="2.45979">
        <ele>2185</ele>
        <time>2024-09-18T15:25:40Z</time>
      </trkpt>
      <trkpt lat="42.53143" lon="2.4598">
        <ele>2185</ele>
        <time>2024-09-18T15:25:43Z</time>
      </trkpt>
      <trkpt lat="42.53146" lon="2.45981">
        <ele>2184</ele>
        <time>2024-09-18T15:25:46Z</time>
      </trkpt>
      <trkpt lat="42.53148" lon="2.45984">
        <ele>2184</ele>
        <time>2024-09-18T15:25:49Z</time>
      </trkpt>
      <trkpt lat="42.53148" lon="2.45988">
        <ele>2184</ele>
        <time>2024-09-18T15:25:52Z</time>
      </trkpt>
      <trkpt lat="42.5315" lon="2.45992">
        <ele>2183</ele>
        <time>2024-09-18T15:25:56Z</time>
      </trkpt>
      <trkpt lat="42.53151" lon="2.45995">
        <ele>2184</ele>
        <time>2024-09-18T15:26:03Z</time>
      </trkpt>
      <trkpt lat="42.53153" lon="2.46">
        <ele>2184</ele>
        <time>2024-09-18T15:26:06Z</time>
      </trkpt>
      <trkpt lat="42.53155" lon="2.46003">
        <ele>2183</ele>
        <time>2024-09-18T15:26:09Z</time>
      </trkpt>
      <trkpt lat="42.53157" lon="2.46007">
        <ele>2184</ele>
        <time>2024-09-18T15:26:12Z</time>
      </trkpt>
      <trkpt lat="42.53159" lon="2.4601">
        <ele>2183</ele>
        <time>2024-09-18T15:26:14Z</time>
      </trkpt>
      <trkpt lat="42.53161" lon="2.46014">
        <ele>2184</ele>
        <time>2024-09-18T15:26:17Z</time>
      </trkpt>
      <trkpt lat="42.53162" lon="2.46018">
        <ele>2183</ele>
        <time>2024-09-18T15:26:20Z</time>
      </trkpt>
      <trkpt lat="42.53164" lon="2.46023">
        <ele>2182</ele>
        <time>2024-09-18T15:26:23Z</time>
      </trkpt>
      <trkpt lat="42.53165" lon="2.46027">
        <ele>2182</ele>
        <time>2024-09-18T15:26:26Z</time>
      </trkpt>
      <trkpt lat="42.53167" lon="2.46033">
        <ele>2183</ele>
        <time>2024-09-18T15:26:30Z</time>
      </trkpt>
      <trkpt lat="42.5317" lon="2.46035">
        <ele>2181</ele>
        <time>2024-09-18T15:26:33Z</time>
      </trkpt>
      <trkpt lat="42.53172" lon="2.46039">
        <ele>2180</ele>
        <time>2024-09-18T15:26:36Z</time>
      </trkpt>
      <trkpt lat="42.53173" lon="2.46043">
        <ele>2179</ele>
        <time>2024-09-18T15:26:40Z</time>
      </trkpt>
      <trkpt lat="42.53174" lon="2.46048">
        <ele>2178</ele>
        <time>2024-09-18T15:26:44Z</time>
      </trkpt>
      <trkpt lat="42.53174" lon="2.46052">
        <ele>2178</ele>
        <time>2024-09-18T15:26:47Z</time>
      </trkpt>
      <trkpt lat="42.53174" lon="2.46057">
        <ele>2177</ele>
        <time>2024-09-18T15:26:51Z</time>
      </trkpt>
      <trkpt lat="42.53174" lon="2.46062">
        <ele>2177</ele>
        <time>2024-09-18T15:26:54Z</time>
      </trkpt>
      <trkpt lat="42.53177" lon="2.46065">
        <ele>2177</ele>
        <time>2024-09-18T15:26:57Z</time>
      </trkpt>
      <trkpt lat="42.5318" lon="2.46065">
        <ele>2176</ele>
        <time>2024-09-18T15:27:00Z</time>
      </trkpt>
      <trkpt lat="42.53183" lon="2.46066">
        <ele>2175</ele>
        <time>2024-09-18T15:27:04Z</time>
      </trkpt>
      <trkpt lat="42.53186" lon="2.46066">
        <ele>2175</ele>
        <time>2024-09-18T15:27:07Z</time>
      </trkpt>
      <trkpt lat="42.5319" lon="2.46066">
        <ele>2175</ele>
        <time>2024-09-18T15:27:10Z</time>
      </trkpt>
      <trkpt lat="42.53193" lon="2.46065">
        <ele>2176</ele>
        <time>2024-09-18T15:27:34Z</time>
      </trkpt>
      <trkpt lat="42.53195" lon="2.46067">
        <ele>2176</ele>
        <time>2024-09-18T15:28:10Z</time>
      </trkpt>
      <trkpt lat="42.53198" lon="2.46067">
        <ele>2175</ele>
        <time>2024-09-18T15:28:15Z</time>
      </trkpt>
      <trkpt lat="42.53201" lon="2.46068">
        <ele>2174</ele>
        <time>2024-09-18T15:28:18Z</time>
      </trkpt>
      <trkpt lat="42.53204" lon="2.4607">
        <ele>2173</ele>
        <time>2024-09-18T15:28:21Z</time>
      </trkpt>
      <trkpt lat="42.53207" lon="2.46073">
        <ele>2172</ele>
        <time>2024-09-18T15:28:26Z</time>
      </trkpt>
      <trkpt lat="42.5321" lon="2.46075">
        <ele>2171</ele>
        <time>2024-09-18T15:28:30Z</time>
      </trkpt>
      <trkpt lat="42.53212" lon="2.46078">
        <ele>2171</ele>
        <time>2024-09-18T15:28:35Z</time>
      </trkpt>
      <trkpt lat="42.53215" lon="2.46081">
        <ele>2171</ele>
        <time>2024-09-18T15:28:39Z</time>
      </trkpt>
      <trkpt lat="42.53217" lon="2.46083">
        <ele>2171</ele>
        <time>2024-09-18T15:28:42Z</time>
      </trkpt>
      <trkpt lat="42.5322" lon="2.46083">
        <ele>2170</ele>
        <time>2024-09-18T15:28:45Z</time>
      </trkpt>
      <trkpt lat="42.53223" lon="2.46083">
        <ele>2170</ele>
        <time>2024-09-18T15:28:48Z</time>
      </trkpt>
      <trkpt lat="42.53226" lon="2.46084">
        <ele>2170</ele>
        <time>2024-09-18T15:28:58Z</time>
      </trkpt>
      <trkpt lat="42.53229" lon="2.46085">
        <ele>2168</ele>
        <time>2024-09-18T15:29:02Z</time>
      </trkpt>
      <trkpt lat="42.53231" lon="2.46088">
        <ele>2168</ele>
        <time>2024-09-18T15:29:06Z</time>
      </trkpt>
      <trkpt lat="42.53234" lon="2.46091">
        <ele>2168</ele>
        <time>2024-09-18T15:29:10Z</time>
      </trkpt>
      <trkpt lat="42.53237" lon="2.46092">
        <ele>2167</ele>
        <time>2024-09-18T15:29:13Z</time>
      </trkpt>
      <trkpt lat="42.53241" lon="2.46094">
        <ele>2167</ele>
        <time>2024-09-18T15:29:16Z</time>
      </trkpt>
      <trkpt lat="42.53244" lon="2.46095">
        <ele>2165</ele>
        <time>2024-09-18T15:29:19Z</time>
      </trkpt>
      <trkpt lat="42.53247" lon="2.46095">
        <ele>2166</ele>
        <time>2024-09-18T15:29:21Z</time>
      </trkpt>
      <trkpt lat="42.5325" lon="2.46095">
        <ele>2165</ele>
        <time>2024-09-18T15:29:23Z</time>
      </trkpt>
      <trkpt lat="42.53253" lon="2.46096">
        <ele>2165</ele>
        <time>2024-09-18T15:29:25Z</time>
      </trkpt>
      <trkpt lat="42.53256" lon="2.46097">
        <ele>2165</ele>
        <time>2024-09-18T15:29:28Z</time>
      </trkpt>
      <trkpt lat="42.53258" lon="2.461">
        <ele>2164</ele>
        <time>2024-09-18T15:29:35Z</time>
      </trkpt>
      <trkpt lat="42.53261" lon="2.46103">
        <ele>2164</ele>
        <time>2024-09-18T15:29:38Z</time>
      </trkpt>
      <trkpt lat="42.53263" lon="2.46105">
        <ele>2163</ele>
        <time>2024-09-18T15:29:40Z</time>
      </trkpt>
      <trkpt lat="42.53265" lon="2.46108">
        <ele>2163</ele>
        <time>2024-09-18T15:29:43Z</time>
      </trkpt>
      <trkpt lat="42.53267" lon="2.46111">
        <ele>2163</ele>
        <time>2024-09-18T15:29:47Z</time>
      </trkpt>
      <trkpt lat="42.53269" lon="2.46113">
        <ele>2162</ele>
        <time>2024-09-18T15:29:50Z</time>
      </trkpt>
      <trkpt lat="42.53271" lon="2.46117">
        <ele>2162</ele>
        <time>2024-09-18T15:29:54Z</time>
      </trkpt>
      <trkpt lat="42.53273" lon="2.46121">
        <ele>2161</ele>
        <time>2024-09-18T15:29:57Z</time>
      </trkpt>
      <trkpt lat="42.53275" lon="2.46124">
        <ele>2161</ele>
        <time>2024-09-18T15:29:59Z</time>
      </trkpt>
      <trkpt lat="42.53277" lon="2.46127">
        <ele>2161</ele>
        <time>2024-09-18T15:30:01Z</time>
      </trkpt>
      <trkpt lat="42.53279" lon="2.46131">
        <ele>2162</ele>
        <time>2024-09-18T15:30:04Z</time>
      </trkpt>
      <trkpt lat="42.53281" lon="2.46135">
        <ele>2161</ele>
        <time>2024-09-18T15:30:07Z</time>
      </trkpt>
      <trkpt lat="42.53283" lon="2.46139">
        <ele>2161</ele>
        <time>2024-09-18T15:30:10Z</time>
      </trkpt>
      <trkpt lat="42.53285" lon="2.46142">
        <ele>2162</ele>
        <time>2024-09-18T15:30:13Z</time>
      </trkpt>
      <trkpt lat="42.53286" lon="2.46146">
        <ele>2161</ele>
        <time>2024-09-18T15:30:16Z</time>
      </trkpt>
      <trkpt lat="42.53286" lon="2.4615">
        <ele>2161</ele>
        <time>2024-09-18T15:30:19Z</time>
      </trkpt>
      <trkpt lat="42.53287" lon="2.46155">
        <ele>2161</ele>
        <time>2024-09-18T15:30:22Z</time>
      </trkpt>
      <trkpt lat="42.53287" lon="2.46159">
        <ele>2161</ele>
        <time>2024-09-18T15:30:25Z</time>
      </trkpt>
      <trkpt lat="42.53287" lon="2.46163">
        <ele>2162</ele>
        <time>2024-09-18T15:30:28Z</time>
      </trkpt>
      <trkpt lat="42.53288" lon="2.46168">
        <ele>2162</ele>
        <time>2024-09-18T15:30:32Z</time>
      </trkpt>
      <trkpt lat="42.53288" lon="2.46174">
        <ele>2161</ele>
        <time>2024-09-18T15:30:36Z</time>
      </trkpt>
      <trkpt lat="42.53287" lon="2.46179">
        <ele>2162</ele>
        <time>2024-09-18T15:30:39Z</time>
      </trkpt>
      <trkpt lat="42.53287" lon="2.46183">
        <ele>2162</ele>
        <time>2024-09-18T15:30:42Z</time>
      </trkpt>
      <trkpt lat="42.53287" lon="2.46188">
        <ele>2161</ele>
        <time>2024-09-18T15:30:45Z</time>
      </trkpt>
      <trkpt lat="42.53288" lon="2.46193">
        <ele>2161</ele>
        <time>2024-09-18T15:30:48Z</time>
      </trkpt>
      <trkpt lat="42.53288" lon="2.46197">
        <ele>2161</ele>
        <time>2024-09-18T15:30:51Z</time>
      </trkpt>
      <trkpt lat="42.53289" lon="2.46201">
        <ele>2162</ele>
        <time>2024-09-18T15:30:54Z</time>
      </trkpt>
      <trkpt lat="42.53289" lon="2.46205">
        <ele>2163</ele>
        <time>2024-09-18T15:30:57Z</time>
      </trkpt>
      <trkpt lat="42.53291" lon="2.46209">
        <ele>2162</ele>
        <time>2024-09-18T15:31:00Z</time>
      </trkpt>
      <trkpt lat="42.53293" lon="2.46211">
        <ele>2163</ele>
        <time>2024-09-18T15:31:03Z</time>
      </trkpt>
      <trkpt lat="42.53295" lon="2.46213">
        <ele>2163</ele>
        <time>2024-09-18T15:31:05Z</time>
      </trkpt>
      <trkpt lat="42.53298" lon="2.46213">
        <ele>2162</ele>
        <time>2024-09-18T15:31:09Z</time>
      </trkpt>
      <trkpt lat="42.53301" lon="2.46215">
        <ele>2160</ele>
        <time>2024-09-18T15:31:12Z</time>
      </trkpt>
      <trkpt lat="42.53304" lon="2.46216">
        <ele>2160</ele>
        <time>2024-09-18T15:31:17Z</time>
      </trkpt>
      <trkpt lat="42.53306" lon="2.46218">
        <ele>2159</ele>
        <time>2024-09-18T15:31:20Z</time>
      </trkpt>
      <trkpt lat="42.5331" lon="2.4622">
        <ele>2159</ele>
        <time>2024-09-18T15:31:23Z</time>
      </trkpt>
      <trkpt lat="42.53312" lon="2.46223">
        <ele>2160</ele>
        <time>2024-09-18T15:31:26Z</time>
      </trkpt>
      <trkpt lat="42.53315" lon="2.46225">
        <ele>2160</ele>
        <time>2024-09-18T15:31:29Z</time>
      </trkpt>
      <trkpt lat="42.53318" lon="2.46228">
        <ele>2160</ele>
        <time>2024-09-18T15:31:33Z</time>
      </trkpt>
      <trkpt lat="42.53319" lon="2.46232">
        <ele>2160</ele>
        <time>2024-09-18T15:31:37Z</time>
      </trkpt>
      <trkpt lat="42.53322" lon="2.46235">
        <ele>2161</ele>
        <time>2024-09-18T15:31:41Z</time>
      </trkpt>
      <trkpt lat="42.53324" lon="2.46239">
        <ele>2161</ele>
        <time>2024-09-18T15:31:44Z</time>
      </trkpt>
      <trkpt lat="42.53325" lon="2.46242">
        <ele>2161</ele>
        <time>2024-09-18T15:31:47Z</time>
      </trkpt>
      <trkpt lat="42.53326" lon="2.46246">
        <ele>2160</ele>
        <time>2024-09-18T15:31:50Z</time>
      </trkpt>
      <trkpt lat="42.53328" lon="2.46249">
        <ele>2161</ele>
        <time>2024-09-18T15:31:53Z</time>
      </trkpt>
      <trkpt lat="42.53328" lon="2.46254">
        <ele>2160</ele>
        <time>2024-09-18T15:31:56Z</time>
      </trkpt>
      <trkpt lat="42.53328" lon="2.46258">
        <ele>2160</ele>
        <time>2024-09-18T15:31:59Z</time>
      </trkpt>
      <trkpt lat="42.53328" lon="2.46263">
        <ele>2159</ele>
        <time>2024-09-18T15:32:03Z</time>
      </trkpt>
      <trkpt lat="42.53328" lon="2.46268">
        <ele>2159</ele>
        <time>2024-09-18T15:32:05Z</time>
      </trkpt>
      <trkpt lat="42.53327" lon="2.46272">
        <ele>2159</ele>
        <time>2024-09-18T15:32:08Z</time>
      </trkpt>
      <trkpt lat="42.53327" lon="2.46278">
        <ele>2159</ele>
        <time>2024-09-18T15:32:13Z</time>
      </trkpt>
      <trkpt lat="42.53327" lon="2.46282">
        <ele>2158</ele>
        <time>2024-09-18T15:32:17Z</time>
      </trkpt>
      <trkpt lat="42.53326" lon="2.46286">
        <ele>2156</ele>
        <time>2024-09-18T15:32:22Z</time>
      </trkpt>
      <trkpt lat="42.53324" lon="2.4629">
        <ele>2156</ele>
        <time>2024-09-18T15:32:26Z</time>
      </trkpt>
      <trkpt lat="42.53322" lon="2.46293">
        <ele>2156</ele>
        <time>2024-09-18T15:32:29Z</time>
      </trkpt>
      <trkpt lat="42.53321" lon="2.46297">
        <ele>2156</ele>
        <time>2024-09-18T15:32:32Z</time>
      </trkpt>
      <trkpt lat="42.53319" lon="2.46299">
        <ele>2155</ele>
        <time>2024-09-18T15:32:36Z</time>
      </trkpt>
      <trkpt lat="42.53316" lon="2.46301">
        <ele>2155</ele>
        <time>2024-09-18T15:32:39Z</time>
      </trkpt>
      <trkpt lat="42.53313" lon="2.46303">
        <ele>2156</ele>
        <time>2024-09-18T15:32:43Z</time>
      </trkpt>
      <trkpt lat="42.5331" lon="2.46305">
        <ele>2156</ele>
        <time>2024-09-18T15:32:46Z</time>
      </trkpt>
      <trkpt lat="42.53308" lon="2.46307">
        <ele>2156</ele>
        <time>2024-09-18T15:32:50Z</time>
      </trkpt>
      <trkpt lat="42.53305" lon="2.46309">
        <ele>2156</ele>
        <time>2024-09-18T15:32:53Z</time>
      </trkpt>
      <trkpt lat="42.53302" lon="2.46311">
        <ele>2156</ele>
        <time>2024-09-18T15:32:57Z</time>
      </trkpt>
      <trkpt lat="42.53299" lon="2.46314">
        <ele>2155</ele>
        <time>2024-09-18T15:33:01Z</time>
      </trkpt>
      <trkpt lat="42.53297" lon="2.46318">
        <ele>2155</ele>
        <time>2024-09-18T15:33:05Z</time>
      </trkpt>
      <trkpt lat="42.53295" lon="2.46322">
        <ele>2154</ele>
        <time>2024-09-18T15:33:09Z</time>
      </trkpt>
      <trkpt lat="42.53295" lon="2.46326">
        <ele>2154</ele>
        <time>2024-09-18T15:33:12Z</time>
      </trkpt>
      <trkpt lat="42.53295" lon="2.46331">
        <ele>2153</ele>
        <time>2024-09-18T15:33:16Z</time>
      </trkpt>
      <trkpt lat="42.53294" lon="2.46334">
        <ele>2153</ele>
        <time>2024-09-18T15:33:18Z</time>
      </trkpt>
      <trkpt lat="42.53293" lon="2.46339">
        <ele>2152</ele>
        <time>2024-09-18T15:33:23Z</time>
      </trkpt>
      <trkpt lat="42.53293" lon="2.46343">
        <ele>2153</ele>
        <time>2024-09-18T15:33:25Z</time>
      </trkpt>
      <trkpt lat="42.53294" lon="2.46348">
        <ele>2152</ele>
        <time>2024-09-18T15:33:29Z</time>
      </trkpt>
      <trkpt lat="42.53293" lon="2.46352">
        <ele>2151</ele>
        <time>2024-09-18T15:33:32Z</time>
      </trkpt>
      <trkpt lat="42.53292" lon="2.46356">
        <ele>2152</ele>
        <time>2024-09-18T15:33:35Z</time>
      </trkpt>
      <trkpt lat="42.5329" lon="2.4636">
        <ele>2152</ele>
        <time>2024-09-18T15:33:39Z</time>
      </trkpt>
      <trkpt lat="42.53288" lon="2.46363">
        <ele>2151</ele>
        <time>2024-09-18T15:33:41Z</time>
      </trkpt>
      <trkpt lat="42.53288" lon="2.46368">
        <ele>2151</ele>
        <time>2024-09-18T15:33:44Z</time>
      </trkpt>
      <trkpt lat="42.53289" lon="2.46371">
        <ele>2150</ele>
        <time>2024-09-18T15:33:49Z</time>
      </trkpt>
      <trkpt lat="42.5329" lon="2.46371">
        <ele>2149</ele>
        <time>2024-09-18T15:33:56Z</time>
      </trkpt>
      <trkpt lat="42.53291" lon="2.46372">
        <ele>2148</ele>
        <time>2024-09-18T15:34:04Z</time>
      </trkpt>
      <trkpt lat="42.53293" lon="2.46373">
        <ele>2148</ele>
        <time>2024-09-18T15:34:06Z</time>
      </trkpt>
      <trkpt lat="42.53296" lon="2.46375">
        <ele>2149</ele>
        <time>2024-09-18T15:34:08Z</time>
      </trkpt>
      <trkpt lat="42.53299" lon="2.46377">
        <ele>2148</ele>
        <time>2024-09-18T15:34:11Z</time>
      </trkpt>
      <trkpt lat="42.533" lon="2.4638">
        <ele>2148</ele>
        <time>2024-09-18T15:34:13Z</time>
      </trkpt>
      <trkpt lat="42.53301" lon="2.46384">
        <ele>2147</ele>
        <time>2024-09-18T15:34:16Z</time>
      </trkpt>
      <trkpt lat="42.53302" lon="2.46388">
        <ele>2148</ele>
        <time>2024-09-18T15:34:19Z</time>
      </trkpt>
      <trkpt lat="42.53303" lon="2.46392">
        <ele>2148</ele>
        <time>2024-09-18T15:34:22Z</time>
      </trkpt>
      <trkpt lat="42.53305" lon="2.46397">
        <ele>2148</ele>
        <time>2024-09-18T15:34:25Z</time>
      </trkpt>
      <trkpt lat="42.53306" lon="2.46401">
        <ele>2148</ele>
        <time>2024-09-18T15:34:31Z</time>
      </trkpt>
      <trkpt lat="42.53308" lon="2.46403">
        <ele>2148</ele>
        <time>2024-09-18T15:34:34Z</time>
      </trkpt>
      <trkpt lat="42.53311" lon="2.46405">
        <ele>2147</ele>
        <time>2024-09-18T15:34:37Z</time>
      </trkpt>
      <trkpt lat="42.53314" lon="2.46406">
        <ele>2147</ele>
        <time>2024-09-18T15:34:40Z</time>
      </trkpt>
      <trkpt lat="42.53318" lon="2.46407">
        <ele>2147</ele>
        <time>2024-09-18T15:34:43Z</time>
      </trkpt>
      <trkpt lat="42.53321" lon="2.46408">
        <ele>2146</ele>
        <time>2024-09-18T15:34:46Z</time>
      </trkpt>
      <trkpt lat="42.53324" lon="2.46407">
        <ele>2147</ele>
        <time>2024-09-18T15:34:49Z</time>
      </trkpt>
      <trkpt lat="42.53327" lon="2.46407">
        <ele>2147</ele>
        <time>2024-09-18T15:34:51Z</time>
      </trkpt>
      <trkpt lat="42.5333" lon="2.46407">
        <ele>2147</ele>
        <time>2024-09-18T15:34:53Z</time>
      </trkpt>
      <trkpt lat="42.53333" lon="2.46407">
        <ele>2148</ele>
        <time>2024-09-18T15:34:56Z</time>
      </trkpt>
      <trkpt lat="42.53336" lon="2.46409">
        <ele>2148</ele>
        <time>2024-09-18T15:34:59Z</time>
      </trkpt>
      <trkpt lat="42.53339" lon="2.46412">
        <ele>2148</ele>
        <time>2024-09-18T15:35:02Z</time>
      </trkpt>
      <trkpt lat="42.53342" lon="2.46415">
        <ele>2147</ele>
        <time>2024-09-18T15:35:05Z</time>
      </trkpt>
      <trkpt lat="42.53343" lon="2.46419">
        <ele>2147</ele>
        <time>2024-09-18T15:35:08Z</time>
      </trkpt>
      <trkpt lat="42.53345" lon="2.46423">
        <ele>2148</ele>
        <time>2024-09-18T15:35:11Z</time>
      </trkpt>
      <trkpt lat="42.53347" lon="2.46427">
        <ele>2147</ele>
        <time>2024-09-18T15:35:14Z</time>
      </trkpt>
      <trkpt lat="42.53348" lon="2.4643">
        <ele>2148</ele>
        <time>2024-09-18T15:35:16Z</time>
      </trkpt>
      <trkpt lat="42.5335" lon="2.46433">
        <ele>2148</ele>
        <time>2024-09-18T15:35:19Z</time>
      </trkpt>
      <trkpt lat="42.53353" lon="2.46436">
        <ele>2149</ele>
        <time>2024-09-18T15:35:22Z</time>
      </trkpt>
      <trkpt lat="42.53355" lon="2.46437">
        <ele>2148</ele>
        <time>2024-09-18T15:35:26Z</time>
      </trkpt>
      <trkpt lat="42.53358" lon="2.46439">
        <ele>2148</ele>
        <time>2024-09-18T15:35:29Z</time>
      </trkpt>
      <trkpt lat="42.53361" lon="2.46442">
        <ele>2148</ele>
        <time>2024-09-18T15:35:33Z</time>
      </trkpt>
      <trkpt lat="42.53364" lon="2.46445">
        <ele>2149</ele>
        <time>2024-09-18T15:35:36Z</time>
      </trkpt>
      <trkpt lat="42.53368" lon="2.46447">
        <ele>2149</ele>
        <time>2024-09-18T15:35:39Z</time>
      </trkpt>
      <trkpt lat="42.53371" lon="2.46449">
        <ele>2149</ele>
        <time>2024-09-18T15:35:42Z</time>
      </trkpt>
      <trkpt lat="42.53374" lon="2.4645">
        <ele>2150</ele>
        <time>2024-09-18T15:35:45Z</time>
      </trkpt>
      <trkpt lat="42.53377" lon="2.46452">
        <ele>2150</ele>
        <time>2024-09-18T15:35:48Z</time>
      </trkpt>
      <trkpt lat="42.5338" lon="2.46453">
        <ele>2150</ele>
        <time>2024-09-18T15:35:51Z</time>
      </trkpt>
      <trkpt lat="42.53383" lon="2.46455">
        <ele>2150</ele>
        <time>2024-09-18T15:35:54Z</time>
      </trkpt>
      <trkpt lat="42.53387" lon="2.46456">
        <ele>2150</ele>
        <time>2024-09-18T15:35:57Z</time>
      </trkpt>
      <trkpt lat="42.5339" lon="2.46457">
        <ele>2149</ele>
        <time>2024-09-18T15:35:59Z</time>
      </trkpt>
      <trkpt lat="42.53393" lon="2.46458">
        <ele>2149</ele>
        <time>2024-09-18T15:36:01Z</time>
      </trkpt>
      <trkpt lat="42.53395" lon="2.4646">
        <ele>2149</ele>
        <time>2024-09-18T15:36:03Z</time>
      </trkpt>
      <trkpt lat="42.53398" lon="2.46462">
        <ele>2148</ele>
        <time>2024-09-18T15:36:06Z</time>
      </trkpt>
      <trkpt lat="42.534" lon="2.46464">
        <ele>2148</ele>
        <time>2024-09-18T15:36:08Z</time>
      </trkpt>
      <trkpt lat="42.53403" lon="2.46468">
        <ele>2148</ele>
        <time>2024-09-18T15:36:11Z</time>
      </trkpt>
      <trkpt lat="42.53405" lon="2.46471">
        <ele>2149</ele>
        <time>2024-09-18T15:36:16Z</time>
      </trkpt>
      <trkpt lat="42.53408" lon="2.46474">
        <ele>2151</ele>
        <time>2024-09-18T15:36:19Z</time>
      </trkpt>
      <trkpt lat="42.53411" lon="2.46478">
        <ele>2151</ele>
        <time>2024-09-18T15:36:22Z</time>
      </trkpt>
      <trkpt lat="42.53413" lon="2.46481">
        <ele>2151</ele>
        <time>2024-09-18T15:36:25Z</time>
      </trkpt>
      <trkpt lat="42.53415" lon="2.46484">
        <ele>2150</ele>
        <time>2024-09-18T15:36:28Z</time>
      </trkpt>
      <trkpt lat="42.53418" lon="2.46487">
        <ele>2149</ele>
        <time>2024-09-18T15:36:31Z</time>
      </trkpt>
      <trkpt lat="42.53422" lon="2.46488">
        <ele>2149</ele>
        <time>2024-09-18T15:36:34Z</time>
      </trkpt>
      <trkpt lat="42.53425" lon="2.46488">
        <ele>2149</ele>
        <time>2024-09-18T15:36:36Z</time>
      </trkpt>
      <trkpt lat="42.53428" lon="2.46489">
        <ele>2150</ele>
        <time>2024-09-18T15:36:39Z</time>
      </trkpt>
      <trkpt lat="42.53431" lon="2.4649">
        <ele>2151</ele>
        <time>2024-09-18T15:36:42Z</time>
      </trkpt>
      <trkpt lat="42.53434" lon="2.46491">
        <ele>2151</ele>
        <time>2024-09-18T15:36:45Z</time>
      </trkpt>
      <trkpt lat="42.53434" lon="2.46489">
        <ele>2151</ele>
        <time>2024-09-18T15:37:17Z</time>
      </trkpt>
      <trkpt lat="42.53432" lon="2.46495">
        <ele>2153</ele>
        <time>2024-09-18T15:41:34Z</time>
      </trkpt>
      <trkpt lat="42.53433" lon="2.46495">
        <ele>2152</ele>
        <time>2024-09-18T15:41:34Z</time>
      </trkpt>
      <trkpt lat="42.53432" lon="2.46493">
        <ele>2151</ele>
        <time>2024-09-18T15:41:37Z</time>
      </trkpt>
      <trkpt lat="42.53431" lon="2.4649">
        <ele>2150</ele>
        <time>2024-09-18T15:41:39Z</time>
      </trkpt>
      <trkpt lat="42.53429" lon="2.46488">
        <ele>2151</ele>
        <time>2024-09-18T15:41:51Z</time>
      </trkpt>
      <trkpt lat="42.53434" lon="2.46512">
        <ele>2153</ele>
        <time>2024-09-18T15:42:12Z</time>
      </trkpt>
      <trkpt lat="42.53421" lon="2.46501">
        <ele>2152</ele>
        <time>2024-09-18T15:42:14Z</time>
      </trkpt>
      <trkpt lat="42.53425" lon="2.46483">
        <ele>2152</ele>
        <time>2024-09-18T15:42:15Z</time>
      </trkpt>
      <trkpt lat="42.53424" lon="2.46492">
        <ele>2151</ele>
        <time>2024-09-18T15:42:16Z</time>
      </trkpt>
      <trkpt lat="42.53428" lon="2.46497">
        <ele>2152</ele>
        <time>2024-09-18T15:42:18Z</time>
      </trkpt>
      <trkpt lat="42.53428" lon="2.46497">
        <ele>2152</ele>
        <time>2024-09-18T15:42:19Z</time>
      </trkpt>
      <trkpt lat="42.53428" lon="2.46495">
        <ele>2151</ele>
        <time>2024-09-18T15:42:21Z</time>
      </trkpt>
      <trkpt lat="42.53423" lon="2.46494">
        <ele>2153</ele>
        <time>2024-09-18T15:42:27Z</time>
      </trkpt>
      <trkpt lat="42.53423" lon="2.46497">
        <ele>2151</ele>
        <time>2024-09-18T15:42:28Z</time>
      </trkpt>
      <trkpt lat="42.53424" lon="2.46509">
        <ele>2149</ele>
        <time>2024-09-19T05:40:28Z</time>
      </trkpt>
      <trkpt lat="42.53424" lon="2.46509">
        <ele>2159</ele>
        <time>2024-09-19T05:40:32Z</time>
      </trkpt>
      <trkpt lat="42.53424" lon="2.46513">
        <ele>2160</ele>
        <time>2024-09-19T05:40:35Z</time>
      </trkpt>
      <trkpt lat="42.53424" lon="2.46516">
        <ele>2159</ele>
        <time>2024-09-19T05:40:36Z</time>
      </trkpt>
      <trkpt lat="42.53424" lon="2.46515">
        <ele>2157</ele>
        <time>2024-09-19T05:40:39Z</time>
      </trkpt>
      <trkpt lat="42.53425" lon="2.46517">
        <ele>2155</ele>
        <time>2024-09-19T05:40:44Z</time>
      </trkpt>
      <trkpt lat="42.53426" lon="2.46515">
        <ele>2155</ele>
        <time>2024-09-19T05:40:50Z</time>
      </trkpt>
      <trkpt lat="42.53428" lon="2.46511">
        <ele>2156</ele>
        <time>2024-09-19T05:40:54Z</time>
      </trkpt>
      <trkpt lat="42.53429" lon="2.46508">
        <ele>2156</ele>
        <time>2024-09-19T05:40:58Z</time>
      </trkpt>
      <trkpt lat="42.53427" lon="2.46506">
        <ele>2157</ele>
        <time>2024-09-19T05:41:02Z</time>
      </trkpt>
      <trkpt lat="42.53425" lon="2.46507">
        <ele>2157</ele>
        <time>2024-09-19T05:41:04Z</time>
      </trkpt>
      <trkpt lat="42.53424" lon="2.4651">
        <ele>2157</ele>
        <time>2024-09-19T05:41:06Z</time>
      </trkpt>
      <trkpt lat="42.53434" lon="2.46507">
        <ele>2138</ele>
        <time>2024-09-19T05:41:11Z</time>
      </trkpt>
      <trkpt lat="42.53441" lon="2.46505">
        <ele>2149</ele>
        <time>2024-09-19T05:41:17Z</time>
      </trkpt>
      <trkpt lat="42.5344" lon="2.46504">
        <ele>2150</ele>
        <time>2024-09-19T05:41:18Z</time>
      </trkpt>
      <trkpt lat="42.53434" lon="2.46502">
        <ele>2150</ele>
        <time>2024-09-19T05:41:19Z</time>
      </trkpt>
      <trkpt lat="42.53427" lon="2.46502">
        <ele>2151</ele>
        <time>2024-09-19T05:41:20Z</time>
      </trkpt>
      <trkpt lat="42.53424" lon="2.46504">
        <ele>2149</ele>
        <time>2024-09-19T05:41:21Z</time>
      </trkpt>
      <trkpt lat="42.53425" lon="2.46505">
        <ele>2158</ele>
        <time>2024-09-19T05:41:25Z</time>
      </trkpt>
      <trkpt lat="42.53425" lon="2.46505">
        <ele>2159</ele>
        <time>2024-09-19T05:41:27Z</time>
      </trkpt>
      <trkpt lat="42.53425" lon="2.4651">
        <ele>2156</ele>
        <time>2024-09-19T05:41:43Z</time>
      </trkpt>
      <trkpt lat="42.53424" lon="2.4651">
        <ele>2156</ele>
        <time>2024-09-19T05:41:46Z</time>
      </trkpt>
      <trkpt lat="42.53424" lon="2.46509">
        <ele>2156</ele>
        <time>2024-09-19T05:42:05Z</time>
      </trkpt>
      <trkpt lat="42.53426" lon="2.46507">
        <ele>2157</ele>
        <time>2024-09-19T05:42:08Z</time>
      </trkpt>
      <trkpt lat="42.53424" lon="2.46504">
        <ele>2157</ele>
        <time>2024-09-19T05:42:15Z</time>
      </trkpt>
      <trkpt lat="42.53422" lon="2.46505">
        <ele>2158</ele>
        <time>2024-09-19T05:42:20Z</time>
      </trkpt>
      <trkpt lat="42.53423" lon="2.46508">
        <ele>2158</ele>
        <time>2024-09-19T05:42:21Z</time>
      </trkpt>
      <trkpt lat="42.53422" lon="2.4651">
        <ele>2158</ele>
        <time>2024-09-19T05:42:23Z</time>
      </trkpt>
      <trkpt lat="42.53423" lon="2.4651">
        <ele>2158</ele>
        <time>2024-09-19T05:42:24Z</time>
      </trkpt>
      <trkpt lat="42.53425" lon="2.4651">
        <ele>2158</ele>
        <time>2024-09-19T05:42:27Z</time>
      </trkpt>
      <trkpt lat="42.53426" lon="2.46507">
        <ele>2158</ele>
        <time>2024-09-19T05:42:28Z</time>
      </trkpt>
      <trkpt lat="42.53421" lon="2.46508">
        <ele>2158</ele>
        <time>2024-09-19T05:42:44Z</time>
      </trkpt>
      <trkpt lat="42.53419" lon="2.46508">
        <ele>2158</ele>
        <time>2024-09-19T05:42:46Z</time>
      </trkpt>
      <trkpt lat="42.53422" lon="2.46503">
        <ele>2158</ele>
        <time>2024-09-19T05:43:02Z</time>
      </trkpt>
      <trkpt lat="42.53424" lon="2.46503">
        <ele>2158</ele>
        <time>2024-09-19T05:43:07Z</time>
      </trkpt>
      <trkpt lat="42.53425" lon="2.46506">
        <ele>2158</ele>
        <time>2024-09-19T05:43:12Z</time>
      </trkpt>
      <trkpt lat="42.53428" lon="2.46507">
        <ele>2159</ele>
        <time>2024-09-19T05:43:15Z</time>
      </trkpt>
      <trkpt lat="42.53433" lon="2.46503">
        <ele>2158</ele>
        <time>2024-09-19T05:43:18Z</time>
      </trkpt>
      <trkpt lat="42.53435" lon="2.46497">
        <ele>2158</ele>
        <time>2024-09-19T05:43:19Z</time>
      </trkpt>
      <trkpt lat="42.53434" lon="2.46496">
        <ele>2158</ele>
        <time>2024-09-19T05:43:22Z</time>
      </trkpt>
      <trkpt lat="42.53433" lon="2.46496">
        <ele>2158</ele>
        <time>2024-09-19T05:43:29Z</time>
      </trkpt>
      <trkpt lat="42.53432" lon="2.465">
        <ele>2158</ele>
        <time>2024-09-19T05:43:32Z</time>
      </trkpt>
      <trkpt lat="42.53431" lon="2.46506">
        <ele>2157</ele>
        <time>2024-09-19T05:43:57Z</time>
      </trkpt>
      <trkpt lat="42.53432" lon="2.46507">
        <ele>2157</ele>
        <time>2024-09-19T05:43:59Z</time>
      </trkpt>
      <trkpt lat="42.5343" lon="2.46509">
        <ele>2157</ele>
        <time>2024-09-19T05:44:25Z</time>
      </trkpt>
      <trkpt lat="42.53423" lon="2.46509">
        <ele>2157</ele>
        <time>2024-09-19T05:44:42Z</time>
      </trkpt>
      <trkpt lat="42.53422" lon="2.46509">
        <ele>2157</ele>
        <time>2024-09-19T05:44:44Z</time>
      </trkpt>
      <trkpt lat="42.53423" lon="2.46507">
        <ele>2157</ele>
        <time>2024-09-19T05:44:48Z</time>
      </trkpt>
      <trkpt lat="42.53425" lon="2.46508">
        <ele>2153</ele>
        <time>2024-09-19T05:45:01Z</time>
      </trkpt>
      <trkpt lat="42.53428" lon="2.46506">
        <ele>2153</ele>
        <time>2024-09-19T05:45:09Z</time>
      </trkpt>
      <trkpt lat="42.5343" lon="2.46506">
        <ele>2152</ele>
        <time>2024-09-19T05:45:21Z</time>
      </trkpt>
      <trkpt lat="42.5343" lon="2.46503">
        <ele>2151</ele>
        <time>2024-09-19T05:45:30Z</time>
      </trkpt>
      <trkpt lat="42.53432" lon="2.46505">
        <ele>2151</ele>
        <time>2024-09-19T05:45:31Z</time>
      </trkpt>
      <trkpt lat="42.53429" lon="2.46506">
        <ele>2151</ele>
        <time>2024-09-19T05:45:33Z</time>
      </trkpt>
      <trkpt lat="42.53427" lon="2.46505">
        <ele>2152</ele>
        <time>2024-09-19T05:45:44Z</time>
      </trkpt>
      <trkpt lat="42.53425" lon="2.46505">
        <ele>2151</ele>
        <time>2024-09-19T05:45:48Z</time>
      </trkpt>
      <trkpt lat="42.53432" lon="2.46479">
        <ele>2149</ele>
        <time>2024-09-19T05:46:03Z</time>
      </trkpt>
      <trkpt lat="42.53431" lon="2.46496">
        <ele>2147</ele>
        <time>2024-09-19T05:49:07Z</time>
      </trkpt>
      <trkpt lat="42.53432" lon="2.46503">
        <ele>2147</ele>
        <time>2024-09-19T05:49:23Z</time>
      </trkpt>
      <trkpt lat="42.53433" lon="2.46507">
        <ele>2147</ele>
        <time>2024-09-19T05:49:25Z</time>
      </trkpt>
      <trkpt lat="42.53431" lon="2.46508">
        <ele>2147</ele>
        <time>2024-09-19T05:49:26Z</time>
      </trkpt>
      <trkpt lat="42.53428" lon="2.46511">
        <ele>2147</ele>
        <time>2024-09-19T05:49:27Z</time>
      </trkpt>
      <trkpt lat="42.53428" lon="2.4651">
        <ele>2147</ele>
        <time>2024-09-19T05:49:30Z</time>
      </trkpt>
      <trkpt lat="42.53428" lon="2.46513">
        <ele>2146</ele>
        <time>2024-09-19T05:49:38Z</time>
      </trkpt>
      <trkpt lat="42.53432" lon="2.46516">
        <ele>2146</ele>
        <time>2024-09-19T05:49:43Z</time>
      </trkpt>
      <trkpt lat="42.5343" lon="2.46516">
        <ele>2146</ele>
        <time>2024-09-19T05:51:10Z</time>
      </trkpt>
      <trkpt lat="42.53429" lon="2.46517">
        <ele>2147</ele>
        <time>2024-09-19T05:51:11Z</time>
      </trkpt>
      <trkpt lat="42.5343" lon="2.46515">
        <ele>2147</ele>
        <time>2024-09-19T05:51:12Z</time>
      </trkpt>
      <trkpt lat="42.5343" lon="2.46504">
        <ele>2144</ele>
        <time>2024-09-19T05:51:19Z</time>
      </trkpt>
      <trkpt lat="42.5343" lon="2.465">
        <ele>2144</ele>
        <time>2024-09-19T05:51:20Z</time>
      </trkpt>
      <trkpt lat="42.53431" lon="2.46494">
        <ele>2147</ele>
        <time>2024-09-19T05:51:21Z</time>
      </trkpt>
      <trkpt lat="42.53433" lon="2.46491">
        <ele>2149</ele>
        <time>2024-09-19T05:51:30Z</time>
      </trkpt>
      <trkpt lat="42.53435" lon="2.46493">
        <ele>2148</ele>
        <time>2024-09-19T05:51:32Z</time>
      </trkpt>
      <trkpt lat="42.52947" lon="2.47265">
        <ele>2166</ele>
        <time>2024-09-19T06:09:50Z</time>
      </trkpt>
      <trkpt lat="42.52932" lon="2.47355">
        <ele>2162</ele>
        <time>2024-09-19T06:12:52Z</time>
      </trkpt>
      <trkpt lat="42.52925" lon="2.47406">
        <ele>2167</ele>
        <time>2024-09-19T06:12:55Z</time>
      </trkpt>
      <trkpt lat="42.52922" lon="2.47425">
        <ele>2165</ele>
        <time>2024-09-19T06:12:57Z</time>
      </trkpt>
      <trkpt lat="42.52921" lon="2.47436">
        <ele>2162</ele>
        <time>2024-09-19T06:13:08Z</time>
      </trkpt>
      <trkpt lat="42.52921" lon="2.47442">
        <ele>2162</ele>
        <time>2024-09-19T06:13:13Z</time>
      </trkpt>
      <trkpt lat="42.52922" lon="2.47448">
        <ele>2161</ele>
        <time>2024-09-19T06:13:16Z</time>
      </trkpt>
      <trkpt lat="42.52923" lon="2.47452">
        <ele>2160</ele>
        <time>2024-09-19T06:13:19Z</time>
      </trkpt>
      <trkpt lat="42.52925" lon="2.47456">
        <ele>2160</ele>
        <time>2024-09-19T06:13:21Z</time>
      </trkpt>
      <trkpt lat="42.52926" lon="2.4746">
        <ele>2158</ele>
        <time>2024-09-19T06:13:23Z</time>
      </trkpt>
      <trkpt lat="42.52929" lon="2.47463">
        <ele>2163</ele>
        <time>2024-09-19T06:13:27Z</time>
      </trkpt>
      <trkpt lat="42.52932" lon="2.47465">
        <ele>2165</ele>
        <time>2024-09-19T06:13:29Z</time>
      </trkpt>
      <trkpt lat="42.52934" lon="2.47468">
        <ele>2166</ele>
        <time>2024-09-19T06:13:31Z</time>
      </trkpt>
      <trkpt lat="42.52936" lon="2.47471">
        <ele>2165</ele>
        <time>2024-09-19T06:13:34Z</time>
      </trkpt>
      <trkpt lat="42.52937" lon="2.47475">
        <ele>2165</ele>
        <time>2024-09-19T06:13:36Z</time>
      </trkpt>
      <trkpt lat="42.52939" lon="2.47479">
        <ele>2165</ele>
        <time>2024-09-19T06:13:39Z</time>
      </trkpt>
      <trkpt lat="42.5294" lon="2.47484">
        <ele>2164</ele>
        <time>2024-09-19T06:13:42Z</time>
      </trkpt>
      <trkpt lat="42.52941" lon="2.47488">
        <ele>2164</ele>
        <time>2024-09-19T06:13:45Z</time>
      </trkpt>
      <trkpt lat="42.52942" lon="2.47492">
        <ele>2164</ele>
        <time>2024-09-19T06:13:47Z</time>
      </trkpt>
      <trkpt lat="42.52944" lon="2.47495">
        <ele>2164</ele>
        <time>2024-09-19T06:13:49Z</time>
      </trkpt>
      <trkpt lat="42.52945" lon="2.47498">
        <ele>2163</ele>
        <time>2024-09-19T06:13:51Z</time>
      </trkpt>
      <trkpt lat="42.52947" lon="2.47501">
        <ele>2163</ele>
        <time>2024-09-19T06:13:54Z</time>
      </trkpt>
      <trkpt lat="42.52949" lon="2.47504">
        <ele>2162</ele>
        <time>2024-09-19T06:13:56Z</time>
      </trkpt>
      <trkpt lat="42.52952" lon="2.47506">
        <ele>2163</ele>
        <time>2024-09-19T06:13:58Z</time>
      </trkpt>
      <trkpt lat="42.52955" lon="2.47509">
        <ele>2163</ele>
        <time>2024-09-19T06:14:01Z</time>
      </trkpt>
      <trkpt lat="42.52957" lon="2.47512">
        <ele>2163</ele>
        <time>2024-09-19T06:14:03Z</time>
      </trkpt>
      <trkpt lat="42.5296" lon="2.47514">
        <ele>2163</ele>
        <time>2024-09-19T06:14:05Z</time>
      </trkpt>
      <trkpt lat="42.52962" lon="2.47517">
        <ele>2161</ele>
        <time>2024-09-19T06:14:09Z</time>
      </trkpt>
      <trkpt lat="42.52965" lon="2.47519">
        <ele>2160</ele>
        <time>2024-09-19T06:14:13Z</time>
      </trkpt>
      <trkpt lat="42.52969" lon="2.47522">
        <ele>2157</ele>
        <time>2024-09-19T06:14:19Z</time>
      </trkpt>
      <trkpt lat="42.52971" lon="2.47524">
        <ele>2157</ele>
        <time>2024-09-19T06:14:21Z</time>
      </trkpt>
      <trkpt lat="42.52974" lon="2.47526">
        <ele>2155</ele>
        <time>2024-09-19T06:14:25Z</time>
      </trkpt>
      <trkpt lat="42.52978" lon="2.47528">
        <ele>2155</ele>
        <time>2024-09-19T06:14:29Z</time>
      </trkpt>
      <trkpt lat="42.5298" lon="2.4753">
        <ele>2155</ele>
        <time>2024-09-19T06:14:32Z</time>
      </trkpt>
      <trkpt lat="42.52983" lon="2.47533">
        <ele>2154</ele>
        <time>2024-09-19T06:14:35Z</time>
      </trkpt>
      <trkpt lat="42.52986" lon="2.47535">
        <ele>2153</ele>
        <time>2024-09-19T06:14:37Z</time>
      </trkpt>
      <trkpt lat="42.52989" lon="2.47537">
        <ele>2154</ele>
        <time>2024-09-19T06:14:40Z</time>
      </trkpt>
      <trkpt lat="42.52991" lon="2.47539">
        <ele>2156</ele>
        <time>2024-09-19T06:14:43Z</time>
      </trkpt>
      <trkpt lat="42.52992" lon="2.47543">
        <ele>2156</ele>
        <time>2024-09-19T06:14:48Z</time>
      </trkpt>
      <trkpt lat="42.52995" lon="2.47545">
        <ele>2156</ele>
        <time>2024-09-19T06:14:52Z</time>
      </trkpt>
      <trkpt lat="42.52997" lon="2.47546">
        <ele>2155</ele>
        <time>2024-09-19T06:14:55Z</time>
      </trkpt>
      <trkpt lat="42.53" lon="2.47547">
        <ele>2156</ele>
        <time>2024-09-19T06:14:57Z</time>
      </trkpt>
      <trkpt lat="42.53004" lon="2.47548">
        <ele>2156</ele>
        <time>2024-09-19T06:15:00Z</time>
      </trkpt>
      <trkpt lat="42.53006" lon="2.4755">
        <ele>2155</ele>
        <time>2024-09-19T06:15:05Z</time>
      </trkpt>
      <trkpt lat="42.53007" lon="2.47555">
        <ele>2155</ele>
        <time>2024-09-19T06:15:11Z</time>
      </trkpt>
      <trkpt lat="42.53009" lon="2.47558">
        <ele>2156</ele>
        <time>2024-09-19T06:15:16Z</time>
      </trkpt>
      <trkpt lat="42.53011" lon="2.47561">
        <ele>2156</ele>
        <time>2024-09-19T06:15:19Z</time>
      </trkpt>
      <trkpt lat="42.53014" lon="2.47562">
        <ele>2156</ele>
        <time>2024-09-19T06:15:22Z</time>
      </trkpt>
      <trkpt lat="42.53017" lon="2.47561">
        <ele>2156</ele>
        <time>2024-09-19T06:15:24Z</time>
      </trkpt>
      <trkpt lat="42.5302" lon="2.47559">
        <ele>2157</ele>
        <time>2024-09-19T06:15:27Z</time>
      </trkpt>
      <trkpt lat="42.53023" lon="2.4756">
        <ele>2157</ele>
        <time>2024-09-19T06:15:32Z</time>
      </trkpt>
      <trkpt lat="42.53025" lon="2.47562">
        <ele>2156</ele>
        <time>2024-09-19T06:15:37Z</time>
      </trkpt>
      <trkpt lat="42.53027" lon="2.47566">
        <ele>2156</ele>
        <time>2024-09-19T06:15:41Z</time>
      </trkpt>
      <trkpt lat="42.53028" lon="2.47569">
        <ele>2157</ele>
        <time>2024-09-19T06:15:43Z</time>
      </trkpt>
      <trkpt lat="42.53031" lon="2.47571">
        <ele>2157</ele>
        <time>2024-09-19T06:15:46Z</time>
      </trkpt>
      <trkpt lat="42.53033" lon="2.47574">
        <ele>2158</ele>
        <time>2024-09-19T06:15:50Z</time>
      </trkpt>
      <trkpt lat="42.53035" lon="2.47576">
        <ele>2158</ele>
        <time>2024-09-19T06:15:54Z</time>
      </trkpt>
      <trkpt lat="42.53038" lon="2.47577">
        <ele>2156</ele>
        <time>2024-09-19T06:15:59Z</time>
      </trkpt>
      <trkpt lat="42.5304" lon="2.47579">
        <ele>2156</ele>
        <time>2024-09-19T06:16:03Z</time>
      </trkpt>
      <trkpt lat="42.53043" lon="2.4758">
        <ele>2156</ele>
        <time>2024-09-19T06:16:06Z</time>
      </trkpt>
      <trkpt lat="42.53046" lon="2.47581">
        <ele>2155</ele>
        <time>2024-09-19T06:16:11Z</time>
      </trkpt>
      <trkpt lat="42.53048" lon="2.47583">
        <ele>2154</ele>
        <time>2024-09-19T06:16:14Z</time>
      </trkpt>
      <trkpt lat="42.5305" lon="2.47586">
        <ele>2154</ele>
        <time>2024-09-19T06:16:18Z</time>
      </trkpt>
      <trkpt lat="42.53052" lon="2.47589">
        <ele>2154</ele>
        <time>2024-09-19T06:16:20Z</time>
      </trkpt>
      <trkpt lat="42.53055" lon="2.47592">
        <ele>2154</ele>
        <time>2024-09-19T06:16:25Z</time>
      </trkpt>
      <trkpt lat="42.53058" lon="2.47593">
        <ele>2153</ele>
        <time>2024-09-19T06:16:31Z</time>
      </trkpt>
      <trkpt lat="42.5306" lon="2.47596">
        <ele>2153</ele>
        <time>2024-09-19T06:16:35Z</time>
      </trkpt>
      <trkpt lat="42.53062" lon="2.476">
        <ele>2153</ele>
        <time>2024-09-19T06:16:42Z</time>
      </trkpt>
      <trkpt lat="42.53062" lon="2.47604">
        <ele>2153</ele>
        <time>2024-09-19T06:16:47Z</time>
      </trkpt>
      <trkpt lat="42.53063" lon="2.47607">
        <ele>2153</ele>
        <time>2024-09-19T06:16:50Z</time>
      </trkpt>
      <trkpt lat="42.53065" lon="2.4761">
        <ele>2154</ele>
        <time>2024-09-19T06:16:55Z</time>
      </trkpt>
      <trkpt lat="42.53067" lon="2.47612">
        <ele>2155</ele>
        <time>2024-09-19T06:16:57Z</time>
      </trkpt>
      <trkpt lat="42.53069" lon="2.4761">
        <ele>2155</ele>
        <time>2024-09-19T06:17:20Z</time>
      </trkpt>
      <trkpt lat="42.53068" lon="2.47607">
        <ele>2154</ele>
        <time>2024-09-19T06:17:43Z</time>
      </trkpt>
      <trkpt lat="42.53069" lon="2.47608">
        <ele>2155</ele>
        <time>2024-09-19T06:17:50Z</time>
      </trkpt>
      <trkpt lat="42.53069" lon="2.47611">
        <ele>2155</ele>
        <time>2024-09-19T06:18:24Z</time>
      </trkpt>
      <trkpt lat="42.53069" lon="2.47615">
        <ele>2157</ele>
        <time>2024-09-19T06:18:31Z</time>
      </trkpt>
      <trkpt lat="42.5307" lon="2.47619">
        <ele>2159</ele>
        <time>2024-09-19T06:18:37Z</time>
      </trkpt>
      <trkpt lat="42.5307" lon="2.47623">
        <ele>2159</ele>
        <time>2024-09-19T06:18:42Z</time>
      </trkpt>
      <trkpt lat="42.53071" lon="2.47627">
        <ele>2161</ele>
        <time>2024-09-19T06:18:46Z</time>
      </trkpt>
      <trkpt lat="42.53073" lon="2.47629">
        <ele>2163</ele>
        <time>2024-09-19T06:18:52Z</time>
      </trkpt>
      <trkpt lat="42.53075" lon="2.47631">
        <ele>2163</ele>
        <time>2024-09-19T06:18:55Z</time>
      </trkpt>
      <trkpt lat="42.53074" lon="2.47633">
        <ele>2164</ele>
        <time>2024-09-19T06:19:00Z</time>
      </trkpt>
      <trkpt lat="42.53073" lon="2.47636">
        <ele>2164</ele>
        <time>2024-09-19T06:19:07Z</time>
      </trkpt>
      <trkpt lat="42.53074" lon="2.47638">
        <ele>2165</ele>
        <time>2024-09-19T06:19:11Z</time>
      </trkpt>
      <trkpt lat="42.53075" lon="2.47641">
        <ele>2167</ele>
        <time>2024-09-19T06:19:18Z</time>
      </trkpt>
      <trkpt lat="42.53075" lon="2.47644">
        <ele>2166</ele>
        <time>2024-09-19T06:19:23Z</time>
      </trkpt>
      <trkpt lat="42.53074" lon="2.47648">
        <ele>2168</ele>
        <time>2024-09-19T06:19:27Z</time>
      </trkpt>
      <trkpt lat="42.53073" lon="2.47652">
        <ele>2168</ele>
        <time>2024-09-19T06:19:33Z</time>
      </trkpt>
      <trkpt lat="42.53071" lon="2.47655">
        <ele>2170</ele>
        <time>2024-09-19T06:19:42Z</time>
      </trkpt>
      <trkpt lat="42.5307" lon="2.47659">
        <ele>2168</ele>
        <time>2024-09-19T06:19:46Z</time>
      </trkpt>
      <trkpt lat="42.53069" lon="2.47663">
        <ele>2169</ele>
        <time>2024-09-19T06:19:50Z</time>
      </trkpt>
      <trkpt lat="42.53069" lon="2.47667">
        <ele>2170</ele>
        <time>2024-09-19T06:19:59Z</time>
      </trkpt>
      <trkpt lat="42.53069" lon="2.47671">
        <ele>2171</ele>
        <time>2024-09-19T06:20:03Z</time>
      </trkpt>
      <trkpt lat="42.53069" lon="2.47675">
        <ele>2170</ele>
        <time>2024-09-19T06:20:08Z</time>
      </trkpt>
      <trkpt lat="42.5307" lon="2.47679">
        <ele>2170</ele>
        <time>2024-09-19T06:20:14Z</time>
      </trkpt>
      <trkpt lat="42.53069" lon="2.47682">
        <ele>2173</ele>
        <time>2024-09-19T06:20:30Z</time>
      </trkpt>
      <trkpt lat="42.53069" lon="2.47687">
        <ele>2174</ele>
        <time>2024-09-19T06:20:35Z</time>
      </trkpt>
      <trkpt lat="42.5307" lon="2.47691">
        <ele>2173</ele>
        <time>2024-09-19T06:20:39Z</time>
      </trkpt>
      <trkpt lat="42.53071" lon="2.47695">
        <ele>2173</ele>
        <time>2024-09-19T06:20:44Z</time>
      </trkpt>
      <trkpt lat="42.53072" lon="2.47699">
        <ele>2173</ele>
        <time>2024-09-19T06:20:50Z</time>
      </trkpt>
      <trkpt lat="42.53072" lon="2.47703">
        <ele>2173</ele>
        <time>2024-09-19T06:20:56Z</time>
      </trkpt>
      <trkpt lat="42.53071" lon="2.47707">
        <ele>2173</ele>
        <time>2024-09-19T06:21:06Z</time>
      </trkpt>
      <trkpt lat="42.5307" lon="2.4771">
        <ele>2172</ele>
        <time>2024-09-19T06:21:09Z</time>
      </trkpt>
      <trkpt lat="42.5307" lon="2.47714">
        <ele>2173</ele>
        <time>2024-09-19T06:21:16Z</time>
      </trkpt>
      <trkpt lat="42.53071" lon="2.47718">
        <ele>2173</ele>
        <time>2024-09-19T06:21:22Z</time>
      </trkpt>
      <trkpt lat="42.53071" lon="2.47722">
        <ele>2174</ele>
        <time>2024-09-19T06:21:26Z</time>
      </trkpt>
      <trkpt lat="42.53072" lon="2.47726">
        <ele>2173</ele>
        <time>2024-09-19T06:21:36Z</time>
      </trkpt>
      <trkpt lat="42.53073" lon="2.4773">
        <ele>2173</ele>
        <time>2024-09-19T06:21:40Z</time>
      </trkpt>
      <trkpt lat="42.53073" lon="2.47734">
        <ele>2173</ele>
        <time>2024-09-19T06:21:44Z</time>
      </trkpt>
      <trkpt lat="42.53073" lon="2.47737">
        <ele>2172</ele>
        <time>2024-09-19T06:21:47Z</time>
      </trkpt>
      <trkpt lat="42.53074" lon="2.47741">
        <ele>2172</ele>
        <time>2024-09-19T06:21:51Z</time>
      </trkpt>
      <trkpt lat="42.53074" lon="2.47745">
        <ele>2170</ele>
        <time>2024-09-19T06:21:59Z</time>
      </trkpt>
      <trkpt lat="42.53074" lon="2.47748">
        <ele>2171</ele>
        <time>2024-09-19T06:22:03Z</time>
      </trkpt>
      <trkpt lat="42.53074" lon="2.47752">
        <ele>2171</ele>
        <time>2024-09-19T06:22:07Z</time>
      </trkpt>
      <trkpt lat="42.53074" lon="2.47756">
        <ele>2170</ele>
        <time>2024-09-19T06:22:12Z</time>
      </trkpt>
      <trkpt lat="42.53074" lon="2.4776">
        <ele>2169</ele>
        <time>2024-09-19T06:22:15Z</time>
      </trkpt>
      <trkpt lat="42.53075" lon="2.47764">
        <ele>2169</ele>
        <time>2024-09-19T06:22:19Z</time>
      </trkpt>
      <trkpt lat="42.53076" lon="2.47767">
        <ele>2168</ele>
        <time>2024-09-19T06:22:24Z</time>
      </trkpt>
      <trkpt lat="42.53075" lon="2.4777">
        <ele>2167</ele>
        <time>2024-09-19T06:22:27Z</time>
      </trkpt>
      <trkpt lat="42.53074" lon="2.47774">
        <ele>2168</ele>
        <time>2024-09-19T06:22:30Z</time>
      </trkpt>
      <trkpt lat="42.53073" lon="2.4778">
        <ele>2168</ele>
        <time>2024-09-19T06:22:34Z</time>
      </trkpt>
      <trkpt lat="42.53073" lon="2.47785">
        <ele>2169</ele>
        <time>2024-09-19T06:22:39Z</time>
      </trkpt>
      <trkpt lat="42.53073" lon="2.4779">
        <ele>2170</ele>
        <time>2024-09-19T06:22:43Z</time>
      </trkpt>
      <trkpt lat="42.53072" lon="2.47794">
        <ele>2170</ele>
        <time>2024-09-19T06:22:47Z</time>
      </trkpt>
      <trkpt lat="42.53071" lon="2.47799">
        <ele>2170</ele>
        <time>2024-09-19T06:22:50Z</time>
      </trkpt>
      <trkpt lat="42.5307" lon="2.47803">
        <ele>2169</ele>
        <time>2024-09-19T06:22:55Z</time>
      </trkpt>
      <trkpt lat="42.5307" lon="2.47806">
        <ele>2170</ele>
        <time>2024-09-19T06:22:59Z</time>
      </trkpt>
      <trkpt lat="42.53069" lon="2.47811">
        <ele>2169</ele>
        <time>2024-09-19T06:23:04Z</time>
      </trkpt>
      <trkpt lat="42.53069" lon="2.47815">
        <ele>2169</ele>
        <time>2024-09-19T06:23:07Z</time>
      </trkpt>
      <trkpt lat="42.53069" lon="2.47819">
        <ele>2169</ele>
        <time>2024-09-19T06:23:11Z</time>
      </trkpt>
      <trkpt lat="42.53068" lon="2.47822">
        <ele>2168</ele>
        <time>2024-09-19T06:23:17Z</time>
      </trkpt>
      <trkpt lat="42.53067" lon="2.47826">
        <ele>2167</ele>
        <time>2024-09-19T06:23:20Z</time>
      </trkpt>
      <trkpt lat="42.53066" lon="2.4783">
        <ele>2167</ele>
        <time>2024-09-19T06:23:23Z</time>
      </trkpt>
      <trkpt lat="42.53065" lon="2.47835">
        <ele>2167</ele>
        <time>2024-09-19T06:23:26Z</time>
      </trkpt>
      <trkpt lat="42.53064" lon="2.47839">
        <ele>2166</ele>
        <time>2024-09-19T06:23:33Z</time>
      </trkpt>
      <trkpt lat="42.53063" lon="2.47844">
        <ele>2166</ele>
        <time>2024-09-19T06:23:37Z</time>
      </trkpt>
      <trkpt lat="42.53061" lon="2.47848">
        <ele>2166</ele>
        <time>2024-09-19T06:23:40Z</time>
      </trkpt>
      <trkpt lat="42.5306" lon="2.47852">
        <ele>2166</ele>
        <time>2024-09-19T06:23:43Z</time>
      </trkpt>
      <trkpt lat="42.53059" lon="2.47856">
        <ele>2165</ele>
        <time>2024-09-19T06:23:47Z</time>
      </trkpt>
      <trkpt lat="42.53058" lon="2.4786">
        <ele>2165</ele>
        <time>2024-09-19T06:23:50Z</time>
      </trkpt>
      <trkpt lat="42.53056" lon="2.47863">
        <ele>2165</ele>
        <time>2024-09-19T06:23:54Z</time>
      </trkpt>
      <trkpt lat="42.53055" lon="2.47867">
        <ele>2164</ele>
        <time>2024-09-19T06:23:58Z</time>
      </trkpt>
      <trkpt lat="42.53053" lon="2.4787">
        <ele>2162</ele>
        <time>2024-09-19T06:24:01Z</time>
      </trkpt>
      <trkpt lat="42.53052" lon="2.47874">
        <ele>2162</ele>
        <time>2024-09-19T06:24:03Z</time>
      </trkpt>
      <trkpt lat="42.5305" lon="2.47878">
        <ele>2161</ele>
        <time>2024-09-19T06:24:08Z</time>
      </trkpt>
      <trkpt lat="42.53049" lon="2.47882">
        <ele>2160</ele>
        <time>2024-09-19T06:24:12Z</time>
      </trkpt>
      <trkpt lat="42.53046" lon="2.47884">
        <ele>2160</ele>
        <time>2024-09-19T06:24:15Z</time>
      </trkpt>
      <trkpt lat="42.53044" lon="2.47886">
        <ele>2160</ele>
        <time>2024-09-19T06:25:57Z</time>
      </trkpt>
      <trkpt lat="42.53042" lon="2.47888">
        <ele>2160</ele>
        <time>2024-09-19T06:26:01Z</time>
      </trkpt>
      <trkpt lat="42.53039" lon="2.47891">
        <ele>2160</ele>
        <time>2024-09-19T06:26:04Z</time>
      </trkpt>
      <trkpt lat="42.53036" lon="2.47894">
        <ele>2159</ele>
        <time>2024-09-19T06:26:06Z</time>
      </trkpt>
      <trkpt lat="42.53033" lon="2.47897">
        <ele>2159</ele>
        <time>2024-09-19T06:26:09Z</time>
      </trkpt>
      <trkpt lat="42.53031" lon="2.479">
        <ele>2159</ele>
        <time>2024-09-19T06:26:12Z</time>
      </trkpt>
      <trkpt lat="42.53029" lon="2.47904">
        <ele>2159</ele>
        <time>2024-09-19T06:26:15Z</time>
      </trkpt>
      <trkpt lat="42.53026" lon="2.47907">
        <ele>2158</ele>
        <time>2024-09-19T06:26:18Z</time>
      </trkpt>
      <trkpt lat="42.53025" lon="2.4791">
        <ele>2158</ele>
        <time>2024-09-19T06:26:20Z</time>
      </trkpt>
      <trkpt lat="42.53024" lon="2.47914">
        <ele>2158</ele>
        <time>2024-09-19T06:26:23Z</time>
      </trkpt>
      <trkpt lat="42.53022" lon="2.47917">
        <ele>2158</ele>
        <time>2024-09-19T06:26:26Z</time>
      </trkpt>
      <trkpt lat="42.53021" lon="2.47921">
        <ele>2158</ele>
        <time>2024-09-19T06:26:29Z</time>
      </trkpt>
      <trkpt lat="42.53018" lon="2.47921">
        <ele>2158</ele>
        <time>2024-09-19T06:26:32Z</time>
      </trkpt>
      <trkpt lat="42.53016" lon="2.47924">
        <ele>2158</ele>
        <time>2024-09-19T06:26:35Z</time>
      </trkpt>
      <trkpt lat="42.53015" lon="2.47927">
        <ele>2156</ele>
        <time>2024-09-19T06:26:37Z</time>
      </trkpt>
      <trkpt lat="42.53013" lon="2.47931">
        <ele>2156</ele>
        <time>2024-09-19T06:26:40Z</time>
      </trkpt>
      <trkpt lat="42.53011" lon="2.47934">
        <ele>2156</ele>
        <time>2024-09-19T06:26:43Z</time>
      </trkpt>
      <trkpt lat="42.53009" lon="2.47937">
        <ele>2158</ele>
        <time>2024-09-19T06:26:46Z</time>
      </trkpt>
      <trkpt lat="42.53007" lon="2.4794">
        <ele>2157</ele>
        <time>2024-09-19T06:26:49Z</time>
      </trkpt>
      <trkpt lat="42.53006" lon="2.47944">
        <ele>2157</ele>
        <time>2024-09-19T06:26:52Z</time>
      </trkpt>
      <trkpt lat="42.53005" lon="2.47948">
        <ele>2157</ele>
        <time>2024-09-19T06:26:57Z</time>
      </trkpt>
      <trkpt lat="42.53003" lon="2.47952">
        <ele>2156</ele>
        <time>2024-09-19T06:27:01Z</time>
      </trkpt>
      <trkpt lat="42.53002" lon="2.47956">
        <ele>2156</ele>
        <time>2024-09-19T06:27:04Z</time>
      </trkpt>
      <trkpt lat="42.53001" lon="2.4796">
        <ele>2157</ele>
        <time>2024-09-19T06:27:08Z</time>
      </trkpt>
      <trkpt lat="42.52999" lon="2.47964">
        <ele>2157</ele>
        <time>2024-09-19T06:27:11Z</time>
      </trkpt>
      <trkpt lat="42.52998" lon="2.47968">
        <ele>2156</ele>
        <time>2024-09-19T06:27:14Z</time>
      </trkpt>
      <trkpt lat="42.52997" lon="2.47972">
        <ele>2155</ele>
        <time>2024-09-19T06:27:19Z</time>
      </trkpt>
      <trkpt lat="42.52996" lon="2.47976">
        <ele>2154</ele>
        <time>2024-09-19T06:27:23Z</time>
      </trkpt>
      <trkpt lat="42.52994" lon="2.4798">
        <ele>2153</ele>
        <time>2024-09-19T06:27:27Z</time>
      </trkpt>
      <trkpt lat="42.52993" lon="2.47983">
        <ele>2153</ele>
        <time>2024-09-19T06:27:30Z</time>
      </trkpt>
      <trkpt lat="42.52992" lon="2.47988">
        <ele>2153</ele>
        <time>2024-09-19T06:27:33Z</time>
      </trkpt>
      <trkpt lat="42.52991" lon="2.47992">
        <ele>2152</ele>
        <time>2024-09-19T06:27:37Z</time>
      </trkpt>
      <trkpt lat="42.5299" lon="2.47996">
        <ele>2151</ele>
        <time>2024-09-19T06:27:41Z</time>
      </trkpt>
      <trkpt lat="42.52988" lon="2.47999">
        <ele>2151</ele>
        <time>2024-09-19T06:27:45Z</time>
      </trkpt>
      <trkpt lat="42.52986" lon="2.48003">
        <ele>2149</ele>
        <time>2024-09-19T06:27:48Z</time>
      </trkpt>
      <trkpt lat="42.52985" lon="2.48006">
        <ele>2148</ele>
        <time>2024-09-19T06:27:52Z</time>
      </trkpt>
      <trkpt lat="42.52983" lon="2.48009">
        <ele>2148</ele>
        <time>2024-09-19T06:27:55Z</time>
      </trkpt>
      <trkpt lat="42.52981" lon="2.48013">
        <ele>2148</ele>
        <time>2024-09-19T06:27:58Z</time>
      </trkpt>
      <trkpt lat="42.5298" lon="2.48016">
        <ele>2148</ele>
        <time>2024-09-19T06:28:01Z</time>
      </trkpt>
      <trkpt lat="42.52979" lon="2.4802">
        <ele>2149</ele>
        <time>2024-09-19T06:28:04Z</time>
      </trkpt>
      <trkpt lat="42.52978" lon="2.48024">
        <ele>2148</ele>
        <time>2024-09-19T06:28:08Z</time>
      </trkpt>
      <trkpt lat="42.52977" lon="2.48027">
        <ele>2148</ele>
        <time>2024-09-19T06:28:10Z</time>
      </trkpt>
      <trkpt lat="42.52976" lon="2.48031">
        <ele>2148</ele>
        <time>2024-09-19T06:28:12Z</time>
      </trkpt>
      <trkpt lat="42.52974" lon="2.48034">
        <ele>2148</ele>
        <time>2024-09-19T06:28:15Z</time>
      </trkpt>
      <trkpt lat="42.52973" lon="2.48039">
        <ele>2147</ele>
        <time>2024-09-19T06:28:18Z</time>
      </trkpt>
      <trkpt lat="42.52972" lon="2.48043">
        <ele>2146</ele>
        <time>2024-09-19T06:28:22Z</time>
      </trkpt>
      <trkpt lat="42.52969" lon="2.48047">
        <ele>2145</ele>
        <time>2024-09-19T06:28:25Z</time>
      </trkpt>
      <trkpt lat="42.52967" lon="2.48049">
        <ele>2144</ele>
        <time>2024-09-19T06:28:28Z</time>
      </trkpt>
      <trkpt lat="42.52965" lon="2.48052">
        <ele>2145</ele>
        <time>2024-09-19T06:28:31Z</time>
      </trkpt>
      <trkpt lat="42.52964" lon="2.48056">
        <ele>2146</ele>
        <time>2024-09-19T06:28:34Z</time>
      </trkpt>
      <trkpt lat="42.52963" lon="2.48061">
        <ele>2147</ele>
        <time>2024-09-19T06:28:42Z</time>
      </trkpt>
      <trkpt lat="42.52962" lon="2.48065">
        <ele>2146</ele>
        <time>2024-09-19T06:28:46Z</time>
      </trkpt>
      <trkpt lat="42.52961" lon="2.48069">
        <ele>2146</ele>
        <time>2024-09-19T06:28:49Z</time>
      </trkpt>
      <trkpt lat="42.5296" lon="2.48073">
        <ele>2147</ele>
        <time>2024-09-19T06:28:52Z</time>
      </trkpt>
      <trkpt lat="42.5296" lon="2.48077">
        <ele>2146</ele>
        <time>2024-09-19T06:28:56Z</time>
      </trkpt>
      <trkpt lat="42.52959" lon="2.48081">
        <ele>2145</ele>
        <time>2024-09-19T06:28:59Z</time>
      </trkpt>
      <trkpt lat="42.5296" lon="2.48086">
        <ele>2146</ele>
        <time>2024-09-19T06:29:02Z</time>
      </trkpt>
      <trkpt lat="42.52959" lon="2.4809">
        <ele>2145</ele>
        <time>2024-09-19T06:29:05Z</time>
      </trkpt>
      <trkpt lat="42.52958" lon="2.48094">
        <ele>2144</ele>
        <time>2024-09-19T06:29:08Z</time>
      </trkpt>
      <trkpt lat="42.52958" lon="2.48098">
        <ele>2144</ele>
        <time>2024-09-19T06:29:11Z</time>
      </trkpt>
      <trkpt lat="42.52959" lon="2.48102">
        <ele>2144</ele>
        <time>2024-09-19T06:29:14Z</time>
      </trkpt>
      <trkpt lat="42.52959" lon="2.48106">
        <ele>2143</ele>
        <time>2024-09-19T06:29:20Z</time>
      </trkpt>
      <trkpt lat="42.52958" lon="2.4811">
        <ele>2142</ele>
        <time>2024-09-19T06:29:24Z</time>
      </trkpt>
      <trkpt lat="42.52958" lon="2.48115">
        <ele>2141</ele>
        <time>2024-09-19T06:29:28Z</time>
      </trkpt>
      <trkpt lat="42.52958" lon="2.48119">
        <ele>2141</ele>
        <time>2024-09-19T06:29:32Z</time>
      </trkpt>
      <trkpt lat="42.52958" lon="2.48124">
        <ele>2140</ele>
        <time>2024-09-19T06:29:35Z</time>
      </trkpt>
      <trkpt lat="42.52958" lon="2.48128">
        <ele>2140</ele>
        <time>2024-09-19T06:29:37Z</time>
      </trkpt>
      <trkpt lat="42.52957" lon="2.48133">
        <ele>2139</ele>
        <time>2024-09-19T06:29:41Z</time>
      </trkpt>
      <trkpt lat="42.52959" lon="2.48136">
        <ele>2136</ele>
        <time>2024-09-19T06:29:49Z</time>
      </trkpt>
      <trkpt lat="42.52959" lon="2.4814">
        <ele>2136</ele>
        <time>2024-09-19T06:29:53Z</time>
      </trkpt>
      <trkpt lat="42.52958" lon="2.48144">
        <ele>2133</ele>
        <time>2024-09-19T06:29:58Z</time>
      </trkpt>
      <trkpt lat="42.52957" lon="2.48148">
        <ele>2133</ele>
        <time>2024-09-19T06:30:01Z</time>
      </trkpt>
      <trkpt lat="42.52957" lon="2.48152">
        <ele>2131</ele>
        <time>2024-09-19T06:30:08Z</time>
      </trkpt>
      <trkpt lat="42.52958" lon="2.48157">
        <ele>2129</ele>
        <time>2024-09-19T06:30:13Z</time>
      </trkpt>
      <trkpt lat="42.52958" lon="2.48161">
        <ele>2129</ele>
        <time>2024-09-19T06:30:18Z</time>
      </trkpt>
      <trkpt lat="42.52957" lon="2.48166">
        <ele>2128</ele>
        <time>2024-09-19T06:30:20Z</time>
      </trkpt>
      <trkpt lat="42.52957" lon="2.4817">
        <ele>2124</ele>
        <time>2024-09-19T06:30:32Z</time>
      </trkpt>
      <trkpt lat="42.52957" lon="2.48174">
        <ele>2124</ele>
        <time>2024-09-19T06:30:36Z</time>
      </trkpt>
      <trkpt lat="42.52958" lon="2.48179">
        <ele>2124</ele>
        <time>2024-09-19T06:30:40Z</time>
      </trkpt>
      <trkpt lat="42.52958" lon="2.48183">
        <ele>2123</ele>
        <time>2024-09-19T06:30:43Z</time>
      </trkpt>
      <trkpt lat="42.52957" lon="2.48187">
        <ele>2123</ele>
        <time>2024-09-19T06:30:46Z</time>
      </trkpt>
      <trkpt lat="42.52957" lon="2.48191">
        <ele>2122</ele>
        <time>2024-09-19T06:30:50Z</time>
      </trkpt>
      <trkpt lat="42.52956" lon="2.48195">
        <ele>2122</ele>
        <time>2024-09-19T06:30:53Z</time>
      </trkpt>
      <trkpt lat="42.52958" lon="2.48197">
        <ele>2119</ele>
        <time>2024-09-19T06:31:00Z</time>
      </trkpt>
      <trkpt lat="42.52958" lon="2.48201">
        <ele>2118</ele>
        <time>2024-09-19T06:31:04Z</time>
      </trkpt>
      <trkpt lat="42.52957" lon="2.48204">
        <ele>2118</ele>
        <time>2024-09-19T06:31:10Z</time>
      </trkpt>
      <trkpt lat="42.52957" lon="2.48208">
        <ele>2118</ele>
        <time>2024-09-19T06:31:15Z</time>
      </trkpt>
      <trkpt lat="42.52957" lon="2.48213">
        <ele>2119</ele>
        <time>2024-09-19T06:31:18Z</time>
      </trkpt>
      <trkpt lat="42.52955" lon="2.48216">
        <ele>2119</ele>
        <time>2024-09-19T06:31:22Z</time>
      </trkpt>
      <trkpt lat="42.52954" lon="2.48219">
        <ele>2119</ele>
        <time>2024-09-19T06:31:24Z</time>
      </trkpt>
      <trkpt lat="42.52952" lon="2.48224">
        <ele>2118</ele>
        <time>2024-09-19T06:31:29Z</time>
      </trkpt>
      <trkpt lat="42.52951" lon="2.48228">
        <ele>2116</ele>
        <time>2024-09-19T06:31:33Z</time>
      </trkpt>
      <trkpt lat="42.52951" lon="2.48233">
        <ele>2115</ele>
        <time>2024-09-19T06:31:38Z</time>
      </trkpt>
      <trkpt lat="42.52949" lon="2.48237">
        <ele>2114</ele>
        <time>2024-09-19T06:31:41Z</time>
      </trkpt>
      <trkpt lat="42.52948" lon="2.48241">
        <ele>2111</ele>
        <time>2024-09-19T06:31:44Z</time>
      </trkpt>
      <trkpt lat="42.52946" lon="2.48245">
        <ele>2112</ele>
        <time>2024-09-19T06:31:47Z</time>
      </trkpt>
      <trkpt lat="42.52944" lon="2.48249">
        <ele>2110</ele>
        <time>2024-09-19T06:31:52Z</time>
      </trkpt>
      <trkpt lat="42.52942" lon="2.48252">
        <ele>2110</ele>
        <time>2024-09-19T06:31:56Z</time>
      </trkpt>
      <trkpt lat="42.52943" lon="2.48255">
        <ele>2110</ele>
        <time>2024-09-19T06:32:00Z</time>
      </trkpt>
      <trkpt lat="42.52945" lon="2.48257">
        <ele>2110</ele>
        <time>2024-09-19T06:32:03Z</time>
      </trkpt>
      <trkpt lat="42.52947" lon="2.48259">
        <ele>2110</ele>
        <time>2024-09-19T06:32:09Z</time>
      </trkpt>
      <trkpt lat="42.52948" lon="2.48264">
        <ele>2110</ele>
        <time>2024-09-19T06:32:13Z</time>
      </trkpt>
      <trkpt lat="42.5295" lon="2.48266">
        <ele>2109</ele>
        <time>2024-09-19T06:32:16Z</time>
      </trkpt>
      <trkpt lat="42.52952" lon="2.48267">
        <ele>2108</ele>
        <time>2024-09-19T06:32:22Z</time>
      </trkpt>
      <trkpt lat="42.52955" lon="2.48267">
        <ele>2107</ele>
        <time>2024-09-19T06:32:26Z</time>
      </trkpt>
      <trkpt lat="42.52958" lon="2.48267">
        <ele>2107</ele>
        <time>2024-09-19T06:32:27Z</time>
      </trkpt>
      <trkpt lat="42.5296" lon="2.48268">
        <ele>2104</ele>
        <time>2024-09-19T06:32:35Z</time>
      </trkpt>
      <trkpt lat="42.5296" lon="2.48271">
        <ele>2103</ele>
        <time>2024-09-19T06:32:38Z</time>
      </trkpt>
      <trkpt lat="42.5296" lon="2.48274">
        <ele>2102</ele>
        <time>2024-09-19T06:32:43Z</time>
      </trkpt>
      <trkpt lat="42.52959" lon="2.48278">
        <ele>2101</ele>
        <time>2024-09-19T06:32:46Z</time>
      </trkpt>
      <trkpt lat="42.52959" lon="2.48282">
        <ele>2099</ele>
        <time>2024-09-19T06:32:49Z</time>
      </trkpt>
      <trkpt lat="42.52959" lon="2.48286">
        <ele>2100</ele>
        <time>2024-09-19T06:32:52Z</time>
      </trkpt>
      <trkpt lat="42.5296" lon="2.4829">
        <ele>2099</ele>
        <time>2024-09-19T06:32:55Z</time>
      </trkpt>
      <trkpt lat="42.5296" lon="2.48295">
        <ele>2098</ele>
        <time>2024-09-19T06:32:58Z</time>
      </trkpt>
      <trkpt lat="42.52961" lon="2.48298">
        <ele>2097</ele>
        <time>2024-09-19T06:33:01Z</time>
      </trkpt>
      <trkpt lat="42.52962" lon="2.48301">
        <ele>2096</ele>
        <time>2024-09-19T06:33:05Z</time>
      </trkpt>
      <trkpt lat="42.52962" lon="2.48305">
        <ele>2095</ele>
        <time>2024-09-19T06:33:08Z</time>
      </trkpt>
      <trkpt lat="42.5296" lon="2.48309">
        <ele>2093</ele>
        <time>2024-09-19T06:33:12Z</time>
      </trkpt>
      <trkpt lat="42.52958" lon="2.48312">
        <ele>2093</ele>
        <time>2024-09-19T06:33:15Z</time>
      </trkpt>
      <trkpt lat="42.52956" lon="2.48315">
        <ele>2090</ele>
        <time>2024-09-19T06:33:19Z</time>
      </trkpt>
      <trkpt lat="42.52954" lon="2.48317">
        <ele>2090</ele>
        <time>2024-09-19T06:33:22Z</time>
      </trkpt>
      <trkpt lat="42.52951" lon="2.4832">
        <ele>2090</ele>
        <time>2024-09-19T06:33:26Z</time>
      </trkpt>
      <trkpt lat="42.52948" lon="2.48323">
        <ele>2089</ele>
        <time>2024-09-19T06:33:29Z</time>
      </trkpt>
      <trkpt lat="42.52946" lon="2.48326">
        <ele>2089</ele>
        <time>2024-09-19T06:33:32Z</time>
      </trkpt>
      <trkpt lat="42.52943" lon="2.48328">
        <ele>2088</ele>
        <time>2024-09-19T06:33:35Z</time>
      </trkpt>
      <trkpt lat="42.5294" lon="2.48329">
        <ele>2087</ele>
        <time>2024-09-19T06:33:39Z</time>
      </trkpt>
      <trkpt lat="42.52937" lon="2.4833">
        <ele>2086</ele>
        <time>2024-09-19T06:33:42Z</time>
      </trkpt>
      <trkpt lat="42.52934" lon="2.48332">
        <ele>2085</ele>
        <time>2024-09-19T06:33:45Z</time>
      </trkpt>
      <trkpt lat="42.52931" lon="2.48333">
        <ele>2086</ele>
        <time>2024-09-19T06:33:47Z</time>
      </trkpt>
      <trkpt lat="42.52928" lon="2.48334">
        <ele>2087</ele>
        <time>2024-09-19T06:33:50Z</time>
      </trkpt>
      <trkpt lat="42.52924" lon="2.48336">
        <ele>2087</ele>
        <time>2024-09-19T06:33:54Z</time>
      </trkpt>
      <trkpt lat="42.52921" lon="2.48336">
        <ele>2086</ele>
        <time>2024-09-19T06:34:00Z</time>
      </trkpt>
      <trkpt lat="42.52918" lon="2.48336">
        <ele>2086</ele>
        <time>2024-09-19T06:34:04Z</time>
      </trkpt>
      <trkpt lat="42.52915" lon="2.48338">
        <ele>2085</ele>
        <time>2024-09-19T06:34:07Z</time>
      </trkpt>
      <trkpt lat="42.52912" lon="2.4834">
        <ele>2084</ele>
        <time>2024-09-19T06:34:10Z</time>
      </trkpt>
      <trkpt lat="42.5291" lon="2.48341">
        <ele>2084</ele>
        <time>2024-09-19T06:34:13Z</time>
      </trkpt>
      <trkpt lat="42.52907" lon="2.48342">
        <ele>2082</ele>
        <time>2024-09-19T06:34:16Z</time>
      </trkpt>
      <trkpt lat="42.52904" lon="2.48342">
        <ele>2082</ele>
        <time>2024-09-19T06:34:20Z</time>
      </trkpt>
      <trkpt lat="42.52901" lon="2.48341">
        <ele>2081</ele>
        <time>2024-09-19T06:34:38Z</time>
      </trkpt>
      <trkpt lat="42.52899" lon="2.48342">
        <ele>2080</ele>
        <time>2024-09-19T06:35:23Z</time>
      </trkpt>
      <trkpt lat="42.52897" lon="2.48344">
        <ele>2081</ele>
        <time>2024-09-19T06:35:39Z</time>
      </trkpt>
      <trkpt lat="42.52898" lon="2.48344">
        <ele>2081</ele>
        <time>2024-09-19T06:36:16Z</time>
      </trkpt>
      <trkpt lat="42.52897" lon="2.48345">
        <ele>2080</ele>
        <time>2024-09-19T06:37:00Z</time>
      </trkpt>
      <trkpt lat="42.52894" lon="2.48347">
        <ele>2080</ele>
        <time>2024-09-19T06:37:03Z</time>
      </trkpt>
      <trkpt lat="42.52892" lon="2.48348">
        <ele>2080</ele>
        <time>2024-09-19T06:37:06Z</time>
      </trkpt>
      <trkpt lat="42.52888" lon="2.48348">
        <ele>2079</ele>
        <time>2024-09-19T06:37:10Z</time>
      </trkpt>
      <trkpt lat="42.52885" lon="2.48348">
        <ele>2079</ele>
        <time>2024-09-19T06:37:12Z</time>
      </trkpt>
      <trkpt lat="42.52882" lon="2.48347">
        <ele>2080</ele>
        <time>2024-09-19T06:37:15Z</time>
      </trkpt>
      <trkpt lat="42.52879" lon="2.48348">
        <ele>2078</ele>
        <time>2024-09-19T06:37:19Z</time>
      </trkpt>
      <trkpt lat="42.52875" lon="2.48349">
        <ele>2078</ele>
        <time>2024-09-19T06:37:22Z</time>
      </trkpt>
      <trkpt lat="42.52872" lon="2.4835">
        <ele>2078</ele>
        <time>2024-09-19T06:37:25Z</time>
      </trkpt>
      <trkpt lat="42.52868" lon="2.48351">
        <ele>2076</ele>
        <time>2024-09-19T06:37:29Z</time>
      </trkpt>
      <trkpt lat="42.52865" lon="2.48352">
        <ele>2076</ele>
        <time>2024-09-19T06:37:32Z</time>
      </trkpt>
      <trkpt lat="42.52862" lon="2.48352">
        <ele>2076</ele>
        <time>2024-09-19T06:37:34Z</time>
      </trkpt>
      <trkpt lat="42.52859" lon="2.48353">
        <ele>2075</ele>
        <time>2024-09-19T06:37:37Z</time>
      </trkpt>
      <trkpt lat="42.52856" lon="2.48353">
        <ele>2075</ele>
        <time>2024-09-19T06:37:39Z</time>
      </trkpt>
      <trkpt lat="42.52853" lon="2.48352">
        <ele>2074</ele>
        <time>2024-09-19T06:37:43Z</time>
      </trkpt>
      <trkpt lat="42.5285" lon="2.48353">
        <ele>2075</ele>
        <time>2024-09-19T06:37:46Z</time>
      </trkpt>
      <trkpt lat="42.52847" lon="2.48352">
        <ele>2074</ele>
        <time>2024-09-19T06:37:49Z</time>
      </trkpt>
      <trkpt lat="42.52844" lon="2.48352">
        <ele>2073</ele>
        <time>2024-09-19T06:37:52Z</time>
      </trkpt>
      <trkpt lat="42.52842" lon="2.48351">
        <ele>2072</ele>
        <time>2024-09-19T06:37:56Z</time>
      </trkpt>
      <trkpt lat="42.52839" lon="2.48349">
        <ele>2073</ele>
        <time>2024-09-19T06:37:59Z</time>
      </trkpt>
      <trkpt lat="42.52836" lon="2.48348">
        <ele>2073</ele>
        <time>2024-09-19T06:38:01Z</time>
      </trkpt>
      <trkpt lat="42.52833" lon="2.48347">
        <ele>2072</ele>
        <time>2024-09-19T06:38:04Z</time>
      </trkpt>
      <trkpt lat="42.5283" lon="2.48348">
        <ele>2074</ele>
        <time>2024-09-19T06:38:10Z</time>
      </trkpt>
      <trkpt lat="42.52828" lon="2.48347">
        <ele>2072</ele>
        <time>2024-09-19T06:38:12Z</time>
      </trkpt>
      <trkpt lat="42.52825" lon="2.48346">
        <ele>2074</ele>
        <time>2024-09-19T06:38:16Z</time>
      </trkpt>
      <trkpt lat="42.52822" lon="2.48345">
        <ele>2073</ele>
        <time>2024-09-19T06:38:19Z</time>
      </trkpt>
      <trkpt lat="42.52819" lon="2.48345">
        <ele>2073</ele>
        <time>2024-09-19T06:38:24Z</time>
      </trkpt>
      <trkpt lat="42.52815" lon="2.48345">
        <ele>2071</ele>
        <time>2024-09-19T06:38:28Z</time>
      </trkpt>
      <trkpt lat="42.52812" lon="2.48344">
        <ele>2073</ele>
        <time>2024-09-19T06:38:31Z</time>
      </trkpt>
      <trkpt lat="42.52809" lon="2.48342">
        <ele>2072</ele>
        <time>2024-09-19T06:38:36Z</time>
      </trkpt>
      <trkpt lat="42.52807" lon="2.4834">
        <ele>2074</ele>
        <time>2024-09-19T06:38:39Z</time>
      </trkpt>
      <trkpt lat="42.52804" lon="2.48339">
        <ele>2073</ele>
        <time>2024-09-19T06:38:42Z</time>
      </trkpt>
      <trkpt lat="42.52801" lon="2.48339">
        <ele>2072</ele>
        <time>2024-09-19T06:38:45Z</time>
      </trkpt>
      <trkpt lat="42.52798" lon="2.48338">
        <ele>2072</ele>
        <time>2024-09-19T06:38:48Z</time>
      </trkpt>
      <trkpt lat="42.52795" lon="2.48339">
        <ele>2072</ele>
        <time>2024-09-19T06:38:51Z</time>
      </trkpt>
      <trkpt lat="42.52792" lon="2.48339">
        <ele>2071</ele>
        <time>2024-09-19T06:38:55Z</time>
      </trkpt>
      <trkpt lat="42.52789" lon="2.48338">
        <ele>2070</ele>
        <time>2024-09-19T06:38:59Z</time>
      </trkpt>
      <trkpt lat="42.52785" lon="2.48338">
        <ele>2071</ele>
        <time>2024-09-19T06:39:03Z</time>
      </trkpt>
      <trkpt lat="42.52782" lon="2.48338">
        <ele>2071</ele>
        <time>2024-09-19T06:39:06Z</time>
      </trkpt>
      <trkpt lat="42.52778" lon="2.48338">
        <ele>2070</ele>
        <time>2024-09-19T06:39:10Z</time>
      </trkpt>
      <trkpt lat="42.52775" lon="2.48337">
        <ele>2070</ele>
        <time>2024-09-19T06:39:13Z</time>
      </trkpt>
      <trkpt lat="42.52772" lon="2.48335">
        <ele>2071</ele>
        <time>2024-09-19T06:39:17Z</time>
      </trkpt>
      <trkpt lat="42.52769" lon="2.48334">
        <ele>2071</ele>
        <time>2024-09-19T06:39:22Z</time>
      </trkpt>
      <trkpt lat="42.52767" lon="2.48332">
        <ele>2073</ele>
        <time>2024-09-19T06:39:26Z</time>
      </trkpt>
      <trkpt lat="42.52764" lon="2.4833">
        <ele>2073</ele>
        <time>2024-09-19T06:39:30Z</time>
      </trkpt>
      <trkpt lat="42.52761" lon="2.48331">
        <ele>2074</ele>
        <time>2024-09-19T06:39:33Z</time>
      </trkpt>
      <trkpt lat="42.52758" lon="2.48333">
        <ele>2072</ele>
        <time>2024-09-19T06:39:38Z</time>
      </trkpt>
      <trkpt lat="42.52756" lon="2.48334">
        <ele>2071</ele>
        <time>2024-09-19T06:39:41Z</time>
      </trkpt>
      <trkpt lat="42.52753" lon="2.48335">
        <ele>2071</ele>
        <time>2024-09-19T06:39:45Z</time>
      </trkpt>
      <trkpt lat="42.5275" lon="2.48337">
        <ele>2071</ele>
        <time>2024-09-19T06:39:48Z</time>
      </trkpt>
      <trkpt lat="42.52747" lon="2.48337">
        <ele>2070</ele>
        <time>2024-09-19T06:39:52Z</time>
      </trkpt>
      <trkpt lat="42.52744" lon="2.48338">
        <ele>2070</ele>
        <time>2024-09-19T06:39:54Z</time>
      </trkpt>
      <trkpt lat="42.52741" lon="2.48338">
        <ele>2070</ele>
        <time>2024-09-19T06:39:58Z</time>
      </trkpt>
      <trkpt lat="42.52738" lon="2.48339">
        <ele>2069</ele>
        <time>2024-09-19T06:40:01Z</time>
      </trkpt>
      <trkpt lat="42.52735" lon="2.4834">
        <ele>2069</ele>
        <time>2024-09-19T06:40:04Z</time>
      </trkpt>
      <trkpt lat="42.52732" lon="2.48342">
        <ele>2070</ele>
        <time>2024-09-19T06:40:07Z</time>
      </trkpt>
      <trkpt lat="42.52729" lon="2.48342">
        <ele>2070</ele>
        <time>2024-09-19T06:40:10Z</time>
      </trkpt>
      <trkpt lat="42.52726" lon="2.48344">
        <ele>2071</ele>
        <time>2024-09-19T06:40:13Z</time>
      </trkpt>
      <trkpt lat="42.52723" lon="2.48345">
        <ele>2072</ele>
        <time>2024-09-19T06:40:18Z</time>
      </trkpt>
      <trkpt lat="42.5272" lon="2.48345">
        <ele>2074</ele>
        <time>2024-09-19T06:40:24Z</time>
      </trkpt>
      <trkpt lat="42.52717" lon="2.48347">
        <ele>2075</ele>
        <time>2024-09-19T06:40:28Z</time>
      </trkpt>
      <trkpt lat="42.52714" lon="2.48347">
        <ele>2075</ele>
        <time>2024-09-19T06:40:32Z</time>
      </trkpt>
      <trkpt lat="42.52711" lon="2.48349">
        <ele>2074</ele>
        <time>2024-09-19T06:40:35Z</time>
      </trkpt>
      <trkpt lat="42.52709" lon="2.48351">
        <ele>2074</ele>
        <time>2024-09-19T06:40:38Z</time>
      </trkpt>
      <trkpt lat="42.52707" lon="2.48354">
        <ele>2074</ele>
        <time>2024-09-19T06:40:40Z</time>
      </trkpt>
      <trkpt lat="42.52706" lon="2.48357">
        <ele>2072</ele>
        <time>2024-09-19T06:40:43Z</time>
      </trkpt>
      <trkpt lat="42.52704" lon="2.48359">
        <ele>2072</ele>
        <time>2024-09-19T06:40:46Z</time>
      </trkpt>
      <trkpt lat="42.52701" lon="2.4836">
        <ele>2071</ele>
        <time>2024-09-19T06:40:49Z</time>
      </trkpt>
      <trkpt lat="42.52698" lon="2.48362">
        <ele>2070</ele>
        <time>2024-09-19T06:40:52Z</time>
      </trkpt>
      <trkpt lat="42.52695" lon="2.48363">
        <ele>2070</ele>
        <time>2024-09-19T06:40:55Z</time>
      </trkpt>
      <trkpt lat="42.52693" lon="2.48365">
        <ele>2070</ele>
        <time>2024-09-19T06:40:57Z</time>
      </trkpt>
      <trkpt lat="42.5269" lon="2.48367">
        <ele>2070</ele>
        <time>2024-09-19T06:41:00Z</time>
      </trkpt>
      <trkpt lat="42.52687" lon="2.48367">
        <ele>2069</ele>
        <time>2024-09-19T06:41:03Z</time>
      </trkpt>
      <trkpt lat="42.52684" lon="2.4837">
        <ele>2070</ele>
        <time>2024-09-19T06:41:06Z</time>
      </trkpt>
      <trkpt lat="42.52682" lon="2.48373">
        <ele>2069</ele>
        <time>2024-09-19T06:41:09Z</time>
      </trkpt>
      <trkpt lat="42.5268" lon="2.48376">
        <ele>2069</ele>
        <time>2024-09-19T06:41:12Z</time>
      </trkpt>
      <trkpt lat="42.52677" lon="2.48378">
        <ele>2069</ele>
        <time>2024-09-19T06:41:15Z</time>
      </trkpt>
      <trkpt lat="42.52675" lon="2.48382">
        <ele>2070</ele>
        <time>2024-09-19T06:41:19Z</time>
      </trkpt>
      <trkpt lat="42.52672" lon="2.48385">
        <ele>2070</ele>
        <time>2024-09-19T06:41:23Z</time>
      </trkpt>
      <trkpt lat="42.52669" lon="2.48387">
        <ele>2070</ele>
        <time>2024-09-19T06:41:27Z</time>
      </trkpt>
      <trkpt lat="42.52667" lon="2.48388">
        <ele>2069</ele>
        <time>2024-09-19T06:41:31Z</time>
      </trkpt>
      <trkpt lat="42.52664" lon="2.48389">
        <ele>2069</ele>
        <time>2024-09-19T06:41:35Z</time>
      </trkpt>
      <trkpt lat="42.52661" lon="2.48389">
        <ele>2068</ele>
        <time>2024-09-19T06:41:38Z</time>
      </trkpt>
      <trkpt lat="42.52658" lon="2.4839">
        <ele>2068</ele>
        <time>2024-09-19T06:41:44Z</time>
      </trkpt>
      <trkpt lat="42.52655" lon="2.48392">
        <ele>2071</ele>
        <time>2024-09-19T06:42:01Z</time>
      </trkpt>
      <trkpt lat="42.52652" lon="2.48395">
        <ele>2072</ele>
        <time>2024-09-19T06:42:03Z</time>
      </trkpt>
      <trkpt lat="42.5265" lon="2.48397">
        <ele>2073</ele>
        <time>2024-09-19T06:42:06Z</time>
      </trkpt>
      <trkpt lat="42.52647" lon="2.48398">
        <ele>2073</ele>
        <time>2024-09-19T06:42:10Z</time>
      </trkpt>
      <trkpt lat="42.52644" lon="2.484">
        <ele>2073</ele>
        <time>2024-09-19T06:42:14Z</time>
      </trkpt>
      <trkpt lat="42.5264" lon="2.48402">
        <ele>2071</ele>
        <time>2024-09-19T06:42:18Z</time>
      </trkpt>
      <trkpt lat="42.52637" lon="2.48405">
        <ele>2073</ele>
        <time>2024-09-19T06:42:23Z</time>
      </trkpt>
      <trkpt lat="42.52635" lon="2.48408">
        <ele>2073</ele>
        <time>2024-09-19T06:42:27Z</time>
      </trkpt>
      <trkpt lat="42.52632" lon="2.48411">
        <ele>2072</ele>
        <time>2024-09-19T06:42:31Z</time>
      </trkpt>
      <trkpt lat="42.52629" lon="2.48414">
        <ele>2073</ele>
        <time>2024-09-19T06:42:34Z</time>
      </trkpt>
      <trkpt lat="42.52626" lon="2.48417">
        <ele>2072</ele>
        <time>2024-09-19T06:42:38Z</time>
      </trkpt>
      <trkpt lat="42.52623" lon="2.48419">
        <ele>2071</ele>
        <time>2024-09-19T06:42:42Z</time>
      </trkpt>
      <trkpt lat="42.52621" lon="2.48421">
        <ele>2070</ele>
        <time>2024-09-19T06:42:46Z</time>
      </trkpt>
      <trkpt lat="42.52619" lon="2.48424">
        <ele>2070</ele>
        <time>2024-09-19T06:42:49Z</time>
      </trkpt>
      <trkpt lat="42.52617" lon="2.48428">
        <ele>2069</ele>
        <time>2024-09-19T06:42:52Z</time>
      </trkpt>
      <trkpt lat="42.52615" lon="2.48432">
        <ele>2069</ele>
        <time>2024-09-19T06:42:54Z</time>
      </trkpt>
      <trkpt lat="42.52613" lon="2.48434">
        <ele>2068</ele>
        <time>2024-09-19T06:42:57Z</time>
      </trkpt>
      <trkpt lat="42.52609" lon="2.48436">
        <ele>2068</ele>
        <time>2024-09-19T06:43:00Z</time>
      </trkpt>
      <trkpt lat="42.52606" lon="2.48438">
        <ele>2067</ele>
        <time>2024-09-19T06:43:04Z</time>
      </trkpt>
      <trkpt lat="42.52603" lon="2.4844">
        <ele>2068</ele>
        <time>2024-09-19T06:43:07Z</time>
      </trkpt>
      <trkpt lat="42.526" lon="2.48442">
        <ele>2067</ele>
        <time>2024-09-19T06:43:11Z</time>
      </trkpt>
      <trkpt lat="42.52597" lon="2.48445">
        <ele>2067</ele>
        <time>2024-09-19T06:43:14Z</time>
      </trkpt>
      <trkpt lat="42.52594" lon="2.48446">
        <ele>2067</ele>
        <time>2024-09-19T06:43:17Z</time>
      </trkpt>
      <trkpt lat="42.5259" lon="2.48448">
        <ele>2065</ele>
        <time>2024-09-19T06:43:21Z</time>
      </trkpt>
      <trkpt lat="42.52587" lon="2.48448">
        <ele>2065</ele>
        <time>2024-09-19T06:43:24Z</time>
      </trkpt>
      <trkpt lat="42.52583" lon="2.48447">
        <ele>2066</ele>
        <time>2024-09-19T06:43:27Z</time>
      </trkpt>
      <trkpt lat="42.5258" lon="2.48446">
        <ele>2066</ele>
        <time>2024-09-19T06:43:30Z</time>
      </trkpt>
      <trkpt lat="42.52577" lon="2.48445">
        <ele>2066</ele>
        <time>2024-09-19T06:43:33Z</time>
      </trkpt>
      <trkpt lat="42.52574" lon="2.48443">
        <ele>2066</ele>
        <time>2024-09-19T06:43:37Z</time>
      </trkpt>
      <trkpt lat="42.52572" lon="2.48443">
        <ele>2067</ele>
        <time>2024-09-19T06:43:40Z</time>
      </trkpt>
      <trkpt lat="42.52568" lon="2.48443">
        <ele>2068</ele>
        <time>2024-09-19T06:43:43Z</time>
      </trkpt>
      <trkpt lat="42.52565" lon="2.48442">
        <ele>2065</ele>
        <time>2024-09-19T06:43:48Z</time>
      </trkpt>
      <trkpt lat="42.52562" lon="2.48442">
        <ele>2065</ele>
        <time>2024-09-19T06:43:50Z</time>
      </trkpt>
      <trkpt lat="42.52558" lon="2.48443">
        <ele>2065</ele>
        <time>2024-09-19T06:43:54Z</time>
      </trkpt>
      <trkpt lat="42.52555" lon="2.48443">
        <ele>2064</ele>
        <time>2024-09-19T06:43:57Z</time>
      </trkpt>
      <trkpt lat="42.52551" lon="2.48443">
        <ele>2064</ele>
        <time>2024-09-19T06:44:00Z</time>
      </trkpt>
      <trkpt lat="42.52548" lon="2.48442">
        <ele>2063</ele>
        <time>2024-09-19T06:44:06Z</time>
      </trkpt>
      <trkpt lat="42.52545" lon="2.48441">
        <ele>2064</ele>
        <time>2024-09-19T06:44:10Z</time>
      </trkpt>
      <trkpt lat="42.52541" lon="2.48441">
        <ele>2064</ele>
        <time>2024-09-19T06:44:14Z</time>
      </trkpt>
      <trkpt lat="42.52538" lon="2.4844">
        <ele>2063</ele>
        <time>2024-09-19T06:44:20Z</time>
      </trkpt>
      <trkpt lat="42.52535" lon="2.48441">
        <ele>2062</ele>
        <time>2024-09-19T06:44:23Z</time>
      </trkpt>
      <trkpt lat="42.52533" lon="2.48442">
        <ele>2059</ele>
        <time>2024-09-19T06:44:28Z</time>
      </trkpt>
      <trkpt lat="42.52531" lon="2.48445">
        <ele>2057</ele>
        <time>2024-09-19T06:44:32Z</time>
      </trkpt>
      <trkpt lat="42.5253" lon="2.48449">
        <ele>2057</ele>
        <time>2024-09-19T06:44:36Z</time>
      </trkpt>
      <trkpt lat="42.52529" lon="2.48453">
        <ele>2056</ele>
        <time>2024-09-19T06:44:40Z</time>
      </trkpt>
      <trkpt lat="42.52529" lon="2.48458">
        <ele>2056</ele>
        <time>2024-09-19T06:44:43Z</time>
      </trkpt>
      <trkpt lat="42.52531" lon="2.48461">
        <ele>2058</ele>
        <time>2024-09-19T06:44:46Z</time>
      </trkpt>
      <trkpt lat="42.52533" lon="2.48462">
        <ele>2059</ele>
        <time>2024-09-19T06:44:50Z</time>
      </trkpt>
      <trkpt lat="42.52536" lon="2.48464">
        <ele>2059</ele>
        <time>2024-09-19T06:44:53Z</time>
      </trkpt>
      <trkpt lat="42.52538" lon="2.48466">
        <ele>2060</ele>
        <time>2024-09-19T06:44:56Z</time>
      </trkpt>
      <trkpt lat="42.52541" lon="2.48468">
        <ele>2060</ele>
        <time>2024-09-19T06:44:59Z</time>
      </trkpt>
      <trkpt lat="42.52544" lon="2.4847">
        <ele>2061</ele>
        <time>2024-09-19T06:45:01Z</time>
      </trkpt>
      <trkpt lat="42.52547" lon="2.48471">
        <ele>2060</ele>
        <time>2024-09-19T06:45:04Z</time>
      </trkpt>
      <trkpt lat="42.5255" lon="2.48472">
        <ele>2061</ele>
        <time>2024-09-19T06:45:07Z</time>
      </trkpt>
      <trkpt lat="42.52553" lon="2.48475">
        <ele>2060</ele>
        <time>2024-09-19T06:45:11Z</time>
      </trkpt>
      <trkpt lat="42.52555" lon="2.48478">
        <ele>2060</ele>
        <time>2024-09-19T06:45:15Z</time>
      </trkpt>
      <trkpt lat="42.52557" lon="2.4848">
        <ele>2060</ele>
        <time>2024-09-19T06:45:19Z</time>
      </trkpt>
      <trkpt lat="42.5256" lon="2.48481">
        <ele>2061</ele>
        <time>2024-09-19T06:45:22Z</time>
      </trkpt>
      <trkpt lat="42.52563" lon="2.48483">
        <ele>2061</ele>
        <time>2024-09-19T06:45:25Z</time>
      </trkpt>
      <trkpt lat="42.52566" lon="2.48483">
        <ele>2060</ele>
        <time>2024-09-19T06:45:28Z</time>
      </trkpt>
      <trkpt lat="42.5257" lon="2.48484">
        <ele>2059</ele>
        <time>2024-09-19T06:45:31Z</time>
      </trkpt>
      <trkpt lat="42.52573" lon="2.48485">
        <ele>2060</ele>
        <time>2024-09-19T06:45:34Z</time>
      </trkpt>
      <trkpt lat="42.52576" lon="2.48487">
        <ele>2060</ele>
        <time>2024-09-19T06:45:37Z</time>
      </trkpt>
      <trkpt lat="42.52578" lon="2.48489">
        <ele>2058</ele>
        <time>2024-09-19T06:45:40Z</time>
      </trkpt>
      <trkpt lat="42.52581" lon="2.48491">
        <ele>2057</ele>
        <time>2024-09-19T06:45:43Z</time>
      </trkpt>
      <trkpt lat="42.52584" lon="2.48492">
        <ele>2058</ele>
        <time>2024-09-19T06:45:47Z</time>
      </trkpt>
      <trkpt lat="42.52587" lon="2.48494">
        <ele>2056</ele>
        <time>2024-09-19T06:45:51Z</time>
      </trkpt>
      <trkpt lat="42.5259" lon="2.48497">
        <ele>2054</ele>
        <time>2024-09-19T06:45:56Z</time>
      </trkpt>
      <trkpt lat="42.52593" lon="2.485">
        <ele>2054</ele>
        <time>2024-09-19T06:45:59Z</time>
      </trkpt>
      <trkpt lat="42.52596" lon="2.48501">
        <ele>2054</ele>
        <time>2024-09-19T06:46:02Z</time>
      </trkpt>
      <trkpt lat="42.52599" lon="2.48501">
        <ele>2055</ele>
        <time>2024-09-19T06:46:06Z</time>
      </trkpt>
      <trkpt lat="42.52602" lon="2.48502">
        <ele>2054</ele>
        <time>2024-09-19T06:46:09Z</time>
      </trkpt>
      <trkpt lat="42.52605" lon="2.48502">
        <ele>2053</ele>
        <time>2024-09-19T06:46:13Z</time>
      </trkpt>
      <trkpt lat="42.52609" lon="2.48503">
        <ele>2053</ele>
        <time>2024-09-19T06:46:16Z</time>
      </trkpt>
      <trkpt lat="42.52612" lon="2.48503">
        <ele>2053</ele>
        <time>2024-09-19T06:46:20Z</time>
      </trkpt>
      <trkpt lat="42.52615" lon="2.48504">
        <ele>2053</ele>
        <time>2024-09-19T06:46:22Z</time>
      </trkpt>
      <trkpt lat="42.52618" lon="2.48503">
        <ele>2052</ele>
        <time>2024-09-19T06:46:24Z</time>
      </trkpt>
      <trkpt lat="42.52621" lon="2.48504">
        <ele>2051</ele>
        <time>2024-09-19T06:46:27Z</time>
      </trkpt>
      <trkpt lat="42.52624" lon="2.48504">
        <ele>2050</ele>
        <time>2024-09-19T06:46:30Z</time>
      </trkpt>
      <trkpt lat="42.52628" lon="2.48504">
        <ele>2047</ele>
        <time>2024-09-19T06:46:34Z</time>
      </trkpt>
      <trkpt lat="42.52631" lon="2.48502">
        <ele>2046</ele>
        <time>2024-09-19T06:46:36Z</time>
      </trkpt>
      <trkpt lat="42.52634" lon="2.48502">
        <ele>2045</ele>
        <time>2024-09-19T06:46:39Z</time>
      </trkpt>
      <trkpt lat="42.52636" lon="2.48504">
        <ele>2044</ele>
        <time>2024-09-19T06:46:42Z</time>
      </trkpt>
      <trkpt lat="42.52639" lon="2.48506">
        <ele>2043</ele>
        <time>2024-09-19T06:46:45Z</time>
      </trkpt>
      <trkpt lat="42.52642" lon="2.48506">
        <ele>2042</ele>
        <time>2024-09-19T06:46:49Z</time>
      </trkpt>
      <trkpt lat="42.52645" lon="2.48506">
        <ele>2042</ele>
        <time>2024-09-19T06:46:52Z</time>
      </trkpt>
      <trkpt lat="42.52648" lon="2.48505">
        <ele>2041</ele>
        <time>2024-09-19T06:46:56Z</time>
      </trkpt>
      <trkpt lat="42.52652" lon="2.48506">
        <ele>2041</ele>
        <time>2024-09-19T06:47:00Z</time>
      </trkpt>
      <trkpt lat="42.52655" lon="2.48506">
        <ele>2042</ele>
        <time>2024-09-19T06:47:02Z</time>
      </trkpt>
      <trkpt lat="42.52658" lon="2.48507">
        <ele>2040</ele>
        <time>2024-09-19T06:47:05Z</time>
      </trkpt>
      <trkpt lat="42.5266" lon="2.48509">
        <ele>2040</ele>
        <time>2024-09-19T06:47:08Z</time>
      </trkpt>
      <trkpt lat="42.52661" lon="2.48512">
        <ele>2039</ele>
        <time>2024-09-19T06:47:11Z</time>
      </trkpt>
      <trkpt lat="42.52663" lon="2.48516">
        <ele>2039</ele>
        <time>2024-09-19T06:47:16Z</time>
      </trkpt>
      <trkpt lat="42.52663" lon="2.4852">
        <ele>2036</ele>
        <time>2024-09-19T06:47:23Z</time>
      </trkpt>
      <trkpt lat="42.52664" lon="2.48523">
        <ele>2035</ele>
        <time>2024-09-19T06:47:26Z</time>
      </trkpt>
      <trkpt lat="42.52667" lon="2.48525">
        <ele>2033</ele>
        <time>2024-09-19T06:47:31Z</time>
      </trkpt>
      <trkpt lat="42.52669" lon="2.48527">
        <ele>2032</ele>
        <time>2024-09-19T06:47:35Z</time>
      </trkpt>
      <trkpt lat="42.52671" lon="2.4853">
        <ele>2031</ele>
        <time>2024-09-19T06:47:40Z</time>
      </trkpt>
      <trkpt lat="42.52673" lon="2.48532">
        <ele>2031</ele>
        <time>2024-09-19T06:47:44Z</time>
      </trkpt>
      <trkpt lat="42.52675" lon="2.48536">
        <ele>2032</ele>
        <time>2024-09-19T06:47:49Z</time>
      </trkpt>
      <trkpt lat="42.52677" lon="2.48538">
        <ele>2032</ele>
        <time>2024-09-19T06:47:53Z</time>
      </trkpt>
      <trkpt lat="42.5268" lon="2.48539">
        <ele>2031</ele>
        <time>2024-09-19T06:47:55Z</time>
      </trkpt>
      <trkpt lat="42.52684" lon="2.4854">
        <ele>2031</ele>
        <time>2024-09-19T06:47:58Z</time>
      </trkpt>
      <trkpt lat="42.52687" lon="2.48539">
        <ele>2029</ele>
        <time>2024-09-19T06:48:02Z</time>
      </trkpt>
      <trkpt lat="42.52687" lon="2.48542">
        <ele>2027</ele>
        <time>2024-09-19T06:48:08Z</time>
      </trkpt>
      <trkpt lat="42.52689" lon="2.48544">
        <ele>2025</ele>
        <time>2024-09-19T06:48:15Z</time>
      </trkpt>
      <trkpt lat="42.52692" lon="2.48546">
        <ele>2024</ele>
        <time>2024-09-19T06:48:20Z</time>
      </trkpt>
      <trkpt lat="42.52694" lon="2.48549">
        <ele>2024</ele>
        <time>2024-09-19T06:48:23Z</time>
      </trkpt>
      <trkpt lat="42.52696" lon="2.48551">
        <ele>2023</ele>
        <time>2024-09-19T06:48:27Z</time>
      </trkpt>
      <trkpt lat="42.52696" lon="2.48556">
        <ele>2019</ele>
        <time>2024-09-19T06:48:32Z</time>
      </trkpt>
      <trkpt lat="42.52696" lon="2.4856">
        <ele>2019</ele>
        <time>2024-09-19T06:48:35Z</time>
      </trkpt>
      <trkpt lat="42.52695" lon="2.48565">
        <ele>2018</ele>
        <time>2024-09-19T06:48:43Z</time>
      </trkpt>
      <trkpt lat="42.52693" lon="2.48569">
        <ele>2017</ele>
        <time>2024-09-19T06:48:46Z</time>
      </trkpt>
      <trkpt lat="42.52693" lon="2.48573">
        <ele>2015</ele>
        <time>2024-09-19T06:48:51Z</time>
      </trkpt>
      <trkpt lat="42.52693" lon="2.48577">
        <ele>2015</ele>
        <time>2024-09-19T06:48:53Z</time>
      </trkpt>
      <trkpt lat="42.52693" lon="2.48581">
        <ele>2013</ele>
        <time>2024-09-19T06:48:57Z</time>
      </trkpt>
      <trkpt lat="42.52692" lon="2.48584">
        <ele>2013</ele>
        <time>2024-09-19T06:48:59Z</time>
      </trkpt>
      <trkpt lat="42.5269" lon="2.48587">
        <ele>2010</ele>
        <time>2024-09-19T06:49:06Z</time>
      </trkpt>
      <trkpt lat="42.52688" lon="2.4859">
        <ele>2007</ele>
        <time>2024-09-19T06:49:12Z</time>
      </trkpt>
      <trkpt lat="42.52687" lon="2.48594">
        <ele>2007</ele>
        <time>2024-09-19T06:49:15Z</time>
      </trkpt>
      <trkpt lat="42.52684" lon="2.48597">
        <ele>2005</ele>
        <time>2024-09-19T06:49:21Z</time>
      </trkpt>
      <trkpt lat="42.52684" lon="2.48601">
        <ele>2006</ele>
        <time>2024-09-19T06:49:29Z</time>
      </trkpt>
      <trkpt lat="42.52682" lon="2.48603">
        <ele>2005</ele>
        <time>2024-09-19T06:49:34Z</time>
      </trkpt>
      <trkpt lat="42.52681" lon="2.48607">
        <ele>2003</ele>
        <time>2024-09-19T06:49:42Z</time>
      </trkpt>
      <trkpt lat="42.52679" lon="2.4861">
        <ele>2003</ele>
        <time>2024-09-19T06:49:47Z</time>
      </trkpt>
      <trkpt lat="42.52679" lon="2.48615">
        <ele>2001</ele>
        <time>2024-09-19T06:49:52Z</time>
      </trkpt>
      <trkpt lat="42.52681" lon="2.48618">
        <ele>2002</ele>
        <time>2024-09-19T06:49:55Z</time>
      </trkpt>
      <trkpt lat="42.52683" lon="2.4862">
        <ele>2001</ele>
        <time>2024-09-19T06:49:59Z</time>
      </trkpt>
      <trkpt lat="42.52685" lon="2.48623">
        <ele>2001</ele>
        <time>2024-09-19T06:50:03Z</time>
      </trkpt>
      <trkpt lat="42.52687" lon="2.48627">
        <ele>2000</ele>
        <time>2024-09-19T06:50:07Z</time>
      </trkpt>
      <trkpt lat="42.52689" lon="2.4863">
        <ele>2000</ele>
        <time>2024-09-19T06:50:11Z</time>
      </trkpt>
      <trkpt lat="42.52692" lon="2.48633">
        <ele>1998</ele>
        <time>2024-09-19T06:50:14Z</time>
      </trkpt>
      <trkpt lat="42.52694" lon="2.48634">
        <ele>1997</ele>
        <time>2024-09-19T06:50:18Z</time>
      </trkpt>
      <trkpt lat="42.52697" lon="2.48636">
        <ele>1995</ele>
        <time>2024-09-19T06:50:22Z</time>
      </trkpt>
      <trkpt lat="42.527" lon="2.48636">
        <ele>1994</ele>
        <time>2024-09-19T06:50:28Z</time>
      </trkpt>
      <trkpt lat="42.52704" lon="2.48637">
        <ele>1993</ele>
        <time>2024-09-19T06:50:32Z</time>
      </trkpt>
      <trkpt lat="42.52707" lon="2.48637">
        <ele>1992</ele>
        <time>2024-09-19T06:50:35Z</time>
      </trkpt>
      <trkpt lat="42.52706" lon="2.48639">
        <ele>1991</ele>
        <time>2024-09-19T06:50:38Z</time>
      </trkpt>
      <trkpt lat="42.52704" lon="2.48641">
        <ele>1991</ele>
        <time>2024-09-19T06:50:40Z</time>
      </trkpt>
      <trkpt lat="42.52704" lon="2.48644">
        <ele>1990</ele>
        <time>2024-09-19T06:50:45Z</time>
      </trkpt>
      <trkpt lat="42.52706" lon="2.48646">
        <ele>1990</ele>
        <time>2024-09-19T06:50:49Z</time>
      </trkpt>
      <trkpt lat="42.52708" lon="2.48648">
        <ele>1989</ele>
        <time>2024-09-19T06:50:53Z</time>
      </trkpt>
      <trkpt lat="42.52709" lon="2.48652">
        <ele>1989</ele>
        <time>2024-09-19T06:50:56Z</time>
      </trkpt>
      <trkpt lat="42.52711" lon="2.48654">
        <ele>1987</ele>
        <time>2024-09-19T06:51:01Z</time>
      </trkpt>
      <trkpt lat="42.52713" lon="2.48658">
        <ele>1985</ele>
        <time>2024-09-19T06:51:08Z</time>
      </trkpt>
      <trkpt lat="42.52713" lon="2.48662">
        <ele>1984</ele>
        <time>2024-09-19T06:51:15Z</time>
      </trkpt>
      <trkpt lat="42.52713" lon="2.48665">
        <ele>1982</ele>
        <time>2024-09-19T06:51:19Z</time>
      </trkpt>
      <trkpt lat="42.52714" lon="2.48668">
        <ele>1981</ele>
        <time>2024-09-19T06:51:23Z</time>
      </trkpt>
      <trkpt lat="42.52714" lon="2.48672">
        <ele>1979</ele>
        <time>2024-09-19T06:51:32Z</time>
      </trkpt>
      <trkpt lat="42.52714" lon="2.48676">
        <ele>1978</ele>
        <time>2024-09-19T06:51:37Z</time>
      </trkpt>
      <trkpt lat="42.52714" lon="2.48679">
        <ele>1977</ele>
        <time>2024-09-19T06:51:41Z</time>
      </trkpt>
      <trkpt lat="42.52715" lon="2.48683">
        <ele>1976</ele>
        <time>2024-09-19T06:51:45Z</time>
      </trkpt>
      <trkpt lat="42.52717" lon="2.48686">
        <ele>1975</ele>
        <time>2024-09-19T06:51:49Z</time>
      </trkpt>
      <trkpt lat="42.5272" lon="2.48689">
        <ele>1973</ele>
        <time>2024-09-19T06:51:53Z</time>
      </trkpt>
      <trkpt lat="42.52722" lon="2.48691">
        <ele>1972</ele>
        <time>2024-09-19T06:51:57Z</time>
      </trkpt>
      <trkpt lat="42.52724" lon="2.48694">
        <ele>1970</ele>
        <time>2024-09-19T06:52:13Z</time>
      </trkpt>
      <trkpt lat="42.52724" lon="2.48698">
        <ele>1968</ele>
        <time>2024-09-19T06:52:17Z</time>
      </trkpt>
      <trkpt lat="42.52723" lon="2.48701">
        <ele>1967</ele>
        <time>2024-09-19T06:52:22Z</time>
      </trkpt>
      <trkpt lat="42.52721" lon="2.48704">
        <ele>1966</ele>
        <time>2024-09-19T06:52:26Z</time>
      </trkpt>
      <trkpt lat="42.52719" lon="2.48706">
        <ele>1965</ele>
        <time>2024-09-19T06:52:29Z</time>
      </trkpt>
      <trkpt lat="42.52716" lon="2.48708">
        <ele>1965</ele>
        <time>2024-09-19T06:52:33Z</time>
      </trkpt>
      <trkpt lat="42.52713" lon="2.4871">
        <ele>1965</ele>
        <time>2024-09-19T06:52:36Z</time>
      </trkpt>
      <trkpt lat="42.5271" lon="2.48712">
        <ele>1965</ele>
        <time>2024-09-19T06:52:41Z</time>
      </trkpt>
      <trkpt lat="42.52708" lon="2.48714">
        <ele>1965</ele>
        <time>2024-09-19T06:52:44Z</time>
      </trkpt>
      <trkpt lat="42.52708" lon="2.48717">
        <ele>1964</ele>
        <time>2024-09-19T06:52:49Z</time>
      </trkpt>
      <trkpt lat="42.5271" lon="2.48718">
        <ele>1963</ele>
        <time>2024-09-19T06:52:56Z</time>
      </trkpt>
      <trkpt lat="42.52712" lon="2.4872">
        <ele>1963</ele>
        <time>2024-09-19T06:53:01Z</time>
      </trkpt>
      <trkpt lat="42.52715" lon="2.48722">
        <ele>1962</ele>
        <time>2024-09-19T06:53:05Z</time>
      </trkpt>
      <trkpt lat="42.52717" lon="2.48725">
        <ele>1961</ele>
        <time>2024-09-19T06:53:11Z</time>
      </trkpt>
      <trkpt lat="42.52719" lon="2.48728">
        <ele>1960</ele>
        <time>2024-09-19T06:53:17Z</time>
      </trkpt>
      <trkpt lat="42.52721" lon="2.48731">
        <ele>1958</ele>
        <time>2024-09-19T06:53:21Z</time>
      </trkpt>
      <trkpt lat="42.52724" lon="2.48733">
        <ele>1957</ele>
        <time>2024-09-19T06:53:50Z</time>
      </trkpt>
      <trkpt lat="42.52727" lon="2.48734">
        <ele>1957</ele>
        <time>2024-09-19T06:54:02Z</time>
      </trkpt>
      <trkpt lat="42.5273" lon="2.48736">
        <ele>1955</ele>
        <time>2024-09-19T06:54:09Z</time>
      </trkpt>
      <trkpt lat="42.52733" lon="2.48737">
        <ele>1955</ele>
        <time>2024-09-19T06:54:13Z</time>
      </trkpt>
      <trkpt lat="42.52736" lon="2.48738">
        <ele>1954</ele>
        <time>2024-09-19T06:54:17Z</time>
      </trkpt>
      <trkpt lat="42.5274" lon="2.48738">
        <ele>1954</ele>
        <time>2024-09-19T06:54:19Z</time>
      </trkpt>
      <trkpt lat="42.52742" lon="2.48741">
        <ele>1953</ele>
        <time>2024-09-19T06:54:23Z</time>
      </trkpt>
      <trkpt lat="42.52743" lon="2.48745">
        <ele>1951</ele>
        <time>2024-09-19T06:54:28Z</time>
      </trkpt>
      <trkpt lat="42.52744" lon="2.48749">
        <ele>1950</ele>
        <time>2024-09-19T06:54:33Z</time>
      </trkpt>
      <trkpt lat="42.52745" lon="2.48753">
        <ele>1949</ele>
        <time>2024-09-19T06:54:37Z</time>
      </trkpt>
      <trkpt lat="42.52745" lon="2.48757">
        <ele>1948</ele>
        <time>2024-09-19T06:54:40Z</time>
      </trkpt>
      <trkpt lat="42.52743" lon="2.4876">
        <ele>1947</ele>
        <time>2024-09-19T06:54:43Z</time>
      </trkpt>
      <trkpt lat="42.52741" lon="2.48763">
        <ele>1946</ele>
        <time>2024-09-19T06:54:47Z</time>
      </trkpt>
      <trkpt lat="42.52739" lon="2.48767">
        <ele>1945</ele>
        <time>2024-09-19T06:54:57Z</time>
      </trkpt>
      <trkpt lat="42.5274" lon="2.4877">
        <ele>1944</ele>
        <time>2024-09-19T06:55:26Z</time>
      </trkpt>
      <trkpt lat="42.52742" lon="2.48773">
        <ele>1944</ele>
        <time>2024-09-19T06:56:24Z</time>
      </trkpt>
      <trkpt lat="42.52741" lon="2.48778">
        <ele>1943</ele>
        <time>2024-09-19T06:56:51Z</time>
      </trkpt>
      <trkpt lat="42.52741" lon="2.48778">
        <ele>1943</ele>
        <time>2024-09-19T06:57:11Z</time>
      </trkpt>
      <trkpt lat="42.52741" lon="2.48776">
        <ele>1945</ele>
        <time>2024-09-19T06:57:51Z</time>
      </trkpt>
      <trkpt lat="42.52743" lon="2.48776">
        <ele>1943</ele>
        <time>2024-09-19T06:58:39Z</time>
      </trkpt>
      <trkpt lat="42.52742" lon="2.48778">
        <ele>1943</ele>
        <time>2024-09-19T06:59:25Z</time>
      </trkpt>
      <trkpt lat="42.5274" lon="2.4878">
        <ele>1942</ele>
        <time>2024-09-19T06:59:30Z</time>
      </trkpt>
      <trkpt lat="42.52737" lon="2.48783">
        <ele>1941</ele>
        <time>2024-09-19T06:59:34Z</time>
      </trkpt>
      <trkpt lat="42.52734" lon="2.48784">
        <ele>1942</ele>
        <time>2024-09-19T06:59:37Z</time>
      </trkpt>
      <trkpt lat="42.52733" lon="2.48788">
        <ele>1941</ele>
        <time>2024-09-19T06:59:42Z</time>
      </trkpt>
      <trkpt lat="42.52734" lon="2.48791">
        <ele>1939</ele>
        <time>2024-09-19T06:59:46Z</time>
      </trkpt>
      <trkpt lat="42.52732" lon="2.48794">
        <ele>1937</ele>
        <time>2024-09-19T06:59:51Z</time>
      </trkpt>
      <trkpt lat="42.52731" lon="2.48798">
        <ele>1936</ele>
        <time>2024-09-19T06:59:55Z</time>
      </trkpt>
      <trkpt lat="42.52729" lon="2.48801">
        <ele>1936</ele>
        <time>2024-09-19T06:59:58Z</time>
      </trkpt>
      <trkpt lat="42.52728" lon="2.48805">
        <ele>1936</ele>
        <time>2024-09-19T07:00:01Z</time>
      </trkpt>
      <trkpt lat="42.52726" lon="2.48808">
        <ele>1935</ele>
        <time>2024-09-19T07:00:04Z</time>
      </trkpt>
      <trkpt lat="42.52726" lon="2.48813">
        <ele>1934</ele>
        <time>2024-09-19T07:00:07Z</time>
      </trkpt>
      <trkpt lat="42.52727" lon="2.48816">
        <ele>1933</ele>
        <time>2024-09-19T07:00:10Z</time>
      </trkpt>
      <trkpt lat="42.5273" lon="2.48819">
        <ele>1932</ele>
        <time>2024-09-19T07:00:13Z</time>
      </trkpt>
      <trkpt lat="42.52732" lon="2.4882">
        <ele>1932</ele>
        <time>2024-09-19T07:00:16Z</time>
      </trkpt>
      <trkpt lat="42.52734" lon="2.48823">
        <ele>1930</ele>
        <time>2024-09-19T07:00:19Z</time>
      </trkpt>
      <trkpt lat="42.52736" lon="2.48826">
        <ele>1930</ele>
        <time>2024-09-19T07:00:22Z</time>
      </trkpt>
      <trkpt lat="42.52738" lon="2.48829">
        <ele>1928</ele>
        <time>2024-09-19T07:00:25Z</time>
      </trkpt>
      <trkpt lat="42.5274" lon="2.48831">
        <ele>1928</ele>
        <time>2024-09-19T07:00:28Z</time>
      </trkpt>
      <trkpt lat="42.52743" lon="2.48834">
        <ele>1925</ele>
        <time>2024-09-19T07:00:33Z</time>
      </trkpt>
      <trkpt lat="42.52744" lon="2.48837">
        <ele>1925</ele>
        <time>2024-09-19T07:00:36Z</time>
      </trkpt>
      <trkpt lat="42.52742" lon="2.4884">
        <ele>1924</ele>
        <time>2024-09-19T07:00:39Z</time>
      </trkpt>
      <trkpt lat="42.5274" lon="2.48844">
        <ele>1923</ele>
        <time>2024-09-19T07:00:44Z</time>
      </trkpt>
      <trkpt lat="42.52739" lon="2.48848">
        <ele>1922</ele>
        <time>2024-09-19T07:00:48Z</time>
      </trkpt>
      <trkpt lat="42.52737" lon="2.48851">
        <ele>1920</ele>
        <time>2024-09-19T07:00:55Z</time>
      </trkpt>
      <trkpt lat="42.52737" lon="2.48855">
        <ele>1918</ele>
        <time>2024-09-19T07:01:00Z</time>
      </trkpt>
      <trkpt lat="42.52738" lon="2.48858">
        <ele>1918</ele>
        <time>2024-09-19T07:01:04Z</time>
      </trkpt>
      <trkpt lat="42.5274" lon="2.48862">
        <ele>1916</ele>
        <time>2024-09-19T07:01:08Z</time>
      </trkpt>
      <trkpt lat="42.52742" lon="2.48865">
        <ele>1916</ele>
        <time>2024-09-19T07:01:11Z</time>
      </trkpt>
      <trkpt lat="42.52742" lon="2.48868">
        <ele>1914</ele>
        <time>2024-09-19T07:01:22Z</time>
      </trkpt>
      <trkpt lat="42.52743" lon="2.48872">
        <ele>1912</ele>
        <time>2024-09-19T07:01:28Z</time>
      </trkpt>
      <trkpt lat="42.52744" lon="2.48875">
        <ele>1911</ele>
        <time>2024-09-19T07:01:35Z</time>
      </trkpt>
      <trkpt lat="42.52746" lon="2.48879">
        <ele>1909</ele>
        <time>2024-09-19T07:01:40Z</time>
      </trkpt>
      <trkpt lat="42.52747" lon="2.48882">
        <ele>1908</ele>
        <time>2024-09-19T07:01:44Z</time>
      </trkpt>
      <trkpt lat="42.52745" lon="2.48885">
        <ele>1908</ele>
        <time>2024-09-19T07:01:46Z</time>
      </trkpt>
      <trkpt lat="42.52746" lon="2.48888">
        <ele>1907</ele>
        <time>2024-09-19T07:01:53Z</time>
      </trkpt>
      <trkpt lat="42.52748" lon="2.4889">
        <ele>1906</ele>
        <time>2024-09-19T07:01:57Z</time>
      </trkpt>
      <trkpt lat="42.52751" lon="2.48893">
        <ele>1905</ele>
        <time>2024-09-19T07:02:01Z</time>
      </trkpt>
      <trkpt lat="42.52753" lon="2.48896">
        <ele>1903</ele>
        <time>2024-09-19T07:02:07Z</time>
      </trkpt>
      <trkpt lat="42.52754" lon="2.489">
        <ele>1902</ele>
        <time>2024-09-19T07:02:11Z</time>
      </trkpt>
      <trkpt lat="42.52755" lon="2.48904">
        <ele>1901</ele>
        <time>2024-09-19T07:02:14Z</time>
      </trkpt>
      <trkpt lat="42.52757" lon="2.48906">
        <ele>1901</ele>
        <time>2024-09-19T07:02:17Z</time>
      </trkpt>
      <trkpt lat="42.52758" lon="2.48909">
        <ele>1900</ele>
        <time>2024-09-19T07:02:21Z</time>
      </trkpt>
      <trkpt lat="42.52759" lon="2.48913">
        <ele>1899</ele>
        <time>2024-09-19T07:02:28Z</time>
      </trkpt>
      <trkpt lat="42.52761" lon="2.48915">
        <ele>1897</ele>
        <time>2024-09-19T07:02:36Z</time>
      </trkpt>
      <trkpt lat="42.52763" lon="2.48919">
        <ele>1896</ele>
        <time>2024-09-19T07:02:40Z</time>
      </trkpt>
      <trkpt lat="42.52762" lon="2.48921">
        <ele>1895</ele>
        <time>2024-09-19T07:02:49Z</time>
      </trkpt>
      <trkpt lat="42.52761" lon="2.48924">
        <ele>1894</ele>
        <time>2024-09-19T07:02:59Z</time>
      </trkpt>
      <trkpt lat="42.52762" lon="2.48927">
        <ele>1893</ele>
        <time>2024-09-19T07:03:04Z</time>
      </trkpt>
      <trkpt lat="42.52764" lon="2.4893">
        <ele>1893</ele>
        <time>2024-09-19T07:03:08Z</time>
      </trkpt>
      <trkpt lat="42.52766" lon="2.48932">
        <ele>1892</ele>
        <time>2024-09-19T07:03:12Z</time>
      </trkpt>
      <trkpt lat="42.52769" lon="2.48934">
        <ele>1891</ele>
        <time>2024-09-19T07:03:16Z</time>
      </trkpt>
      <trkpt lat="42.52771" lon="2.48937">
        <ele>1891</ele>
        <time>2024-09-19T07:03:19Z</time>
      </trkpt>
      <trkpt lat="42.52774" lon="2.48939">
        <ele>1889</ele>
        <time>2024-09-19T07:03:25Z</time>
      </trkpt>
      <trkpt lat="42.52775" lon="2.48943">
        <ele>1888</ele>
        <time>2024-09-19T07:03:31Z</time>
      </trkpt>
      <trkpt lat="42.52776" lon="2.48947">
        <ele>1887</ele>
        <time>2024-09-19T07:03:35Z</time>
      </trkpt>
      <trkpt lat="42.52777" lon="2.4895">
        <ele>1886</ele>
        <time>2024-09-19T07:03:39Z</time>
      </trkpt>
      <trkpt lat="42.52778" lon="2.48954">
        <ele>1885</ele>
        <time>2024-09-19T07:03:42Z</time>
      </trkpt>
      <trkpt lat="42.52779" lon="2.48958">
        <ele>1884</ele>
        <time>2024-09-19T07:03:45Z</time>
      </trkpt>
      <trkpt lat="42.5278" lon="2.48962">
        <ele>1883</ele>
        <time>2024-09-19T07:03:52Z</time>
      </trkpt>
      <trkpt lat="42.52781" lon="2.48967">
        <ele>1882</ele>
        <time>2024-09-19T07:03:56Z</time>
      </trkpt>
      <trkpt lat="42.52783" lon="2.4897">
        <ele>1880</ele>
        <time>2024-09-19T07:04:00Z</time>
      </trkpt>
      <trkpt lat="42.52785" lon="2.48974">
        <ele>1880</ele>
        <time>2024-09-19T07:04:04Z</time>
      </trkpt>
      <trkpt lat="42.52786" lon="2.48978">
        <ele>1879</ele>
        <time>2024-09-19T07:04:08Z</time>
      </trkpt>
      <trkpt lat="42.52787" lon="2.48982">
        <ele>1878</ele>
        <time>2024-09-19T07:04:12Z</time>
      </trkpt>
      <trkpt lat="42.52788" lon="2.48986">
        <ele>1877</ele>
        <time>2024-09-19T07:04:17Z</time>
      </trkpt>
      <trkpt lat="42.5279" lon="2.4899">
        <ele>1876</ele>
        <time>2024-09-19T07:04:20Z</time>
      </trkpt>
      <trkpt lat="42.52792" lon="2.48993">
        <ele>1876</ele>
        <time>2024-09-19T07:04:23Z</time>
      </trkpt>
      <trkpt lat="42.52793" lon="2.48997">
        <ele>1875</ele>
        <time>2024-09-19T07:04:26Z</time>
      </trkpt>
      <trkpt lat="42.52795" lon="2.49001">
        <ele>1875</ele>
        <time>2024-09-19T07:04:28Z</time>
      </trkpt>
      <trkpt lat="42.52796" lon="2.49005">
        <ele>1874</ele>
        <time>2024-09-19T07:04:31Z</time>
      </trkpt>
      <trkpt lat="42.52798" lon="2.49009">
        <ele>1873</ele>
        <time>2024-09-19T07:04:35Z</time>
      </trkpt>
      <trkpt lat="42.52799" lon="2.49013">
        <ele>1871</ele>
        <time>2024-09-19T07:04:45Z</time>
      </trkpt>
      <trkpt lat="42.528" lon="2.49017">
        <ele>1871</ele>
        <time>2024-09-19T07:04:49Z</time>
      </trkpt>
      <trkpt lat="42.52802" lon="2.49021">
        <ele>1870</ele>
        <time>2024-09-19T07:04:54Z</time>
      </trkpt>
      <trkpt lat="42.52803" lon="2.49025">
        <ele>1869</ele>
        <time>2024-09-19T07:04:57Z</time>
      </trkpt>
      <trkpt lat="42.52804" lon="2.49029">
        <ele>1869</ele>
        <time>2024-09-19T07:05:00Z</time>
      </trkpt>
      <trkpt lat="42.52805" lon="2.49033">
        <ele>1868</ele>
        <time>2024-09-19T07:05:03Z</time>
      </trkpt>
      <trkpt lat="42.52806" lon="2.49037">
        <ele>1868</ele>
        <time>2024-09-19T07:05:06Z</time>
      </trkpt>
      <trkpt lat="42.52807" lon="2.49041">
        <ele>1868</ele>
        <time>2024-09-19T07:05:09Z</time>
      </trkpt>
      <trkpt lat="42.52809" lon="2.49045">
        <ele>1867</ele>
        <time>2024-09-19T07:05:12Z</time>
      </trkpt>
      <trkpt lat="42.52812" lon="2.49048">
        <ele>1866</ele>
        <time>2024-09-19T07:05:17Z</time>
      </trkpt>
      <trkpt lat="42.52814" lon="2.49051">
        <ele>1865</ele>
        <time>2024-09-19T07:05:21Z</time>
      </trkpt>
      <trkpt lat="42.52816" lon="2.49054">
        <ele>1864</ele>
        <time>2024-09-19T07:05:24Z</time>
      </trkpt>
      <trkpt lat="42.52818" lon="2.49056">
        <ele>1864</ele>
        <time>2024-09-19T07:05:29Z</time>
      </trkpt>
      <trkpt lat="42.5282" lon="2.4906">
        <ele>1863</ele>
        <time>2024-09-19T07:05:34Z</time>
      </trkpt>
      <trkpt lat="42.5282" lon="2.49065">
        <ele>1863</ele>
        <time>2024-09-19T07:05:38Z</time>
      </trkpt>
      <trkpt lat="42.5282" lon="2.49069">
        <ele>1863</ele>
        <time>2024-09-19T07:05:40Z</time>
      </trkpt>
      <trkpt lat="42.5282" lon="2.49073">
        <ele>1863</ele>
        <time>2024-09-19T07:05:43Z</time>
      </trkpt>
      <trkpt lat="42.52821" lon="2.49076">
        <ele>1864</ele>
        <time>2024-09-19T07:05:46Z</time>
      </trkpt>
      <trkpt lat="42.52823" lon="2.4908">
        <ele>1864</ele>
        <time>2024-09-19T07:05:50Z</time>
      </trkpt>
      <trkpt lat="42.52825" lon="2.49084">
        <ele>1864</ele>
        <time>2024-09-19T07:05:54Z</time>
      </trkpt>
      <trkpt lat="42.52827" lon="2.49084">
        <ele>1863</ele>
        <time>2024-09-19T07:05:59Z</time>
      </trkpt>
      <trkpt lat="42.52829" lon="2.49087">
        <ele>1863</ele>
        <time>2024-09-19T07:06:07Z</time>
      </trkpt>
      <trkpt lat="42.52831" lon="2.4909">
        <ele>1863</ele>
        <time>2024-09-19T07:06:09Z</time>
      </trkpt>
      <trkpt lat="42.52834" lon="2.49093">
        <ele>1862</ele>
        <time>2024-09-19T07:06:12Z</time>
      </trkpt>
      <trkpt lat="42.52835" lon="2.49098">
        <ele>1862</ele>
        <time>2024-09-19T07:06:15Z</time>
      </trkpt>
      <trkpt lat="42.52836" lon="2.49102">
        <ele>1862</ele>
        <time>2024-09-19T07:06:18Z</time>
      </trkpt>
      <trkpt lat="42.52838" lon="2.49106">
        <ele>1861</ele>
        <time>2024-09-19T07:06:22Z</time>
      </trkpt>
      <trkpt lat="42.5284" lon="2.49109">
        <ele>1860</ele>
        <time>2024-09-19T07:06:25Z</time>
      </trkpt>
      <trkpt lat="42.52841" lon="2.49113">
        <ele>1860</ele>
        <time>2024-09-19T07:06:28Z</time>
      </trkpt>
      <trkpt lat="42.52843" lon="2.49116">
        <ele>1860</ele>
        <time>2024-09-19T07:06:31Z</time>
      </trkpt>
      <trkpt lat="42.52844" lon="2.49119">
        <ele>1859</ele>
        <time>2024-09-19T07:06:34Z</time>
      </trkpt>
      <trkpt lat="42.52845" lon="2.49123">
        <ele>1859</ele>
        <time>2024-09-19T07:06:37Z</time>
      </trkpt>
      <trkpt lat="42.52846" lon="2.49127">
        <ele>1858</ele>
        <time>2024-09-19T07:06:41Z</time>
      </trkpt>
      <trkpt lat="42.52847" lon="2.4913">
        <ele>1858</ele>
        <time>2024-09-19T07:06:46Z</time>
      </trkpt>
      <trkpt lat="42.52848" lon="2.49135">
        <ele>1857</ele>
        <time>2024-09-19T07:06:49Z</time>
      </trkpt>
      <trkpt lat="42.52848" lon="2.49139">
        <ele>1856</ele>
        <time>2024-09-19T07:06:53Z</time>
      </trkpt>
      <trkpt lat="42.52849" lon="2.49144">
        <ele>1856</ele>
        <time>2024-09-19T07:06:57Z</time>
      </trkpt>
      <trkpt lat="42.52849" lon="2.49149">
        <ele>1855</ele>
        <time>2024-09-19T07:07:00Z</time>
      </trkpt>
      <trkpt lat="42.5285" lon="2.49154">
        <ele>1855</ele>
        <time>2024-09-19T07:07:03Z</time>
      </trkpt>
      <trkpt lat="42.52851" lon="2.49158">
        <ele>1854</ele>
        <time>2024-09-19T07:07:06Z</time>
      </trkpt>
      <trkpt lat="42.52852" lon="2.49162">
        <ele>1854</ele>
        <time>2024-09-19T07:07:09Z</time>
      </trkpt>
      <trkpt lat="42.52853" lon="2.49165">
        <ele>1854</ele>
        <time>2024-09-19T07:07:12Z</time>
      </trkpt>
      <trkpt lat="42.52855" lon="2.49169">
        <ele>1853</ele>
        <time>2024-09-19T07:07:15Z</time>
      </trkpt>
      <trkpt lat="42.52857" lon="2.49173">
        <ele>1853</ele>
        <time>2024-09-19T07:07:18Z</time>
      </trkpt>
      <trkpt lat="42.52857" lon="2.49177">
        <ele>1853</ele>
        <time>2024-09-19T07:07:22Z</time>
      </trkpt>
      <trkpt lat="42.52858" lon="2.49181">
        <ele>1852</ele>
        <time>2024-09-19T07:07:25Z</time>
      </trkpt>
      <trkpt lat="42.52859" lon="2.49184">
        <ele>1851</ele>
        <time>2024-09-19T07:07:28Z</time>
      </trkpt>
      <trkpt lat="42.5286" lon="2.49189">
        <ele>1850</ele>
        <time>2024-09-19T07:07:31Z</time>
      </trkpt>
      <trkpt lat="42.52861" lon="2.49193">
        <ele>1850</ele>
        <time>2024-09-19T07:07:35Z</time>
      </trkpt>
      <trkpt lat="42.52862" lon="2.49197">
        <ele>1850</ele>
        <time>2024-09-19T07:07:40Z</time>
      </trkpt>
      <trkpt lat="42.52861" lon="2.49201">
        <ele>1848</ele>
        <time>2024-09-19T07:07:46Z</time>
      </trkpt>
      <trkpt lat="42.52862" lon="2.49204">
        <ele>1847</ele>
        <time>2024-09-19T07:07:49Z</time>
      </trkpt>
      <trkpt lat="42.52864" lon="2.49208">
        <ele>1846</ele>
        <time>2024-09-19T07:07:53Z</time>
      </trkpt>
      <trkpt lat="42.52865" lon="2.49212">
        <ele>1846</ele>
        <time>2024-09-19T07:07:56Z</time>
      </trkpt>
      <trkpt lat="42.52866" lon="2.49216">
        <ele>1846</ele>
        <time>2024-09-19T07:07:59Z</time>
      </trkpt>
      <trkpt lat="42.52867" lon="2.4922">
        <ele>1845</ele>
        <time>2024-09-19T07:08:02Z</time>
      </trkpt>
      <trkpt lat="42.52868" lon="2.49224">
        <ele>1844</ele>
        <time>2024-09-19T07:08:04Z</time>
      </trkpt>
      <trkpt lat="42.5287" lon="2.49228">
        <ele>1844</ele>
        <time>2024-09-19T07:08:07Z</time>
      </trkpt>
      <trkpt lat="42.52871" lon="2.49232">
        <ele>1843</ele>
        <time>2024-09-19T07:08:12Z</time>
      </trkpt>
      <trkpt lat="42.52872" lon="2.49236">
        <ele>1841</ele>
        <time>2024-09-19T07:08:16Z</time>
      </trkpt>
      <trkpt lat="42.52873" lon="2.4924">
        <ele>1840</ele>
        <time>2024-09-19T07:08:19Z</time>
      </trkpt>
      <trkpt lat="42.52874" lon="2.49243">
        <ele>1839</ele>
        <time>2024-09-19T07:08:22Z</time>
      </trkpt>
      <trkpt lat="42.52876" lon="2.49247">
        <ele>1839</ele>
        <time>2024-09-19T07:08:25Z</time>
      </trkpt>
      <trkpt lat="42.52877" lon="2.49251">
        <ele>1838</ele>
        <time>2024-09-19T07:08:29Z</time>
      </trkpt>
      <trkpt lat="42.52878" lon="2.49256">
        <ele>1837</ele>
        <time>2024-09-19T07:08:33Z</time>
      </trkpt>
      <trkpt lat="42.52879" lon="2.4926">
        <ele>1837</ele>
        <time>2024-09-19T07:08:36Z</time>
      </trkpt>
      <trkpt lat="42.52879" lon="2.49264">
        <ele>1836</ele>
        <time>2024-09-19T07:08:40Z</time>
      </trkpt>
      <trkpt lat="42.5288" lon="2.49268">
        <ele>1835</ele>
        <time>2024-09-19T07:08:45Z</time>
      </trkpt>
      <trkpt lat="42.52881" lon="2.49272">
        <ele>1833</ele>
        <time>2024-09-19T07:08:48Z</time>
      </trkpt>
      <trkpt lat="42.52881" lon="2.49276">
        <ele>1832</ele>
        <time>2024-09-19T07:08:53Z</time>
      </trkpt>
      <trkpt lat="42.52882" lon="2.4928">
        <ele>1831</ele>
        <time>2024-09-19T07:08:57Z</time>
      </trkpt>
      <trkpt lat="42.52882" lon="2.49284">
        <ele>1829</ele>
        <time>2024-09-19T07:09:01Z</time>
      </trkpt>
      <trkpt lat="42.52883" lon="2.49288">
        <ele>1829</ele>
        <time>2024-09-19T07:09:05Z</time>
      </trkpt>
      <trkpt lat="42.52883" lon="2.49292">
        <ele>1828</ele>
        <time>2024-09-19T07:09:08Z</time>
      </trkpt>
      <trkpt lat="42.52884" lon="2.49296">
        <ele>1827</ele>
        <time>2024-09-19T07:09:11Z</time>
      </trkpt>
      <trkpt lat="42.52884" lon="2.493">
        <ele>1826</ele>
        <time>2024-09-19T07:09:15Z</time>
      </trkpt>
      <trkpt lat="42.52885" lon="2.49304">
        <ele>1824</ele>
        <time>2024-09-19T07:09:19Z</time>
      </trkpt>
      <trkpt lat="42.52885" lon="2.49308">
        <ele>1824</ele>
        <time>2024-09-19T07:09:21Z</time>
      </trkpt>
      <trkpt lat="42.52886" lon="2.49312">
        <ele>1823</ele>
        <time>2024-09-19T07:09:25Z</time>
      </trkpt>
      <trkpt lat="42.52887" lon="2.49316">
        <ele>1822</ele>
        <time>2024-09-19T07:09:29Z</time>
      </trkpt>
      <trkpt lat="42.52888" lon="2.4932">
        <ele>1821</ele>
        <time>2024-09-19T07:09:33Z</time>
      </trkpt>
      <trkpt lat="42.52888" lon="2.49325">
        <ele>1820</ele>
        <time>2024-09-19T07:09:36Z</time>
      </trkpt>
      <trkpt lat="42.52889" lon="2.49329">
        <ele>1819</ele>
        <time>2024-09-19T07:09:41Z</time>
      </trkpt>
      <trkpt lat="42.52888" lon="2.49333">
        <ele>1818</ele>
        <time>2024-09-19T07:09:44Z</time>
      </trkpt>
      <trkpt lat="42.52888" lon="2.49337">
        <ele>1817</ele>
        <time>2024-09-19T07:09:48Z</time>
      </trkpt>
      <trkpt lat="42.52888" lon="2.49341">
        <ele>1816</ele>
        <time>2024-09-19T07:09:51Z</time>
      </trkpt>
      <trkpt lat="42.52887" lon="2.49345">
        <ele>1814</ele>
        <time>2024-09-19T07:09:55Z</time>
      </trkpt>
      <trkpt lat="42.52886" lon="2.49349">
        <ele>1813</ele>
        <time>2024-09-19T07:10:01Z</time>
      </trkpt>
      <trkpt lat="42.52886" lon="2.49353">
        <ele>1811</ele>
        <time>2024-09-19T07:10:05Z</time>
      </trkpt>
      <trkpt lat="42.52885" lon="2.49357">
        <ele>1810</ele>
        <time>2024-09-19T07:10:08Z</time>
      </trkpt>
      <trkpt lat="42.52884" lon="2.49361">
        <ele>1809</ele>
        <time>2024-09-19T07:10:11Z</time>
      </trkpt>
      <trkpt lat="42.52884" lon="2.49365">
        <ele>1808</ele>
        <time>2024-09-19T07:10:14Z</time>
      </trkpt>
      <trkpt lat="42.52885" lon="2.49369">
        <ele>1807</ele>
        <time>2024-09-19T07:10:17Z</time>
      </trkpt>
      <trkpt lat="42.52887" lon="2.49371">
        <ele>1807</ele>
        <time>2024-09-19T07:10:37Z</time>
      </trkpt>
      <trkpt lat="42.52888" lon="2.49374">
        <ele>1805</ele>
        <time>2024-09-19T07:10:59Z</time>
      </trkpt>
      <trkpt lat="42.52888" lon="2.49378">
        <ele>1804</ele>
        <time>2024-09-19T07:11:03Z</time>
      </trkpt>
      <trkpt lat="42.52888" lon="2.49383">
        <ele>1803</ele>
        <time>2024-09-19T07:11:08Z</time>
      </trkpt>
      <trkpt lat="42.52889" lon="2.49388">
        <ele>1803</ele>
        <time>2024-09-19T07:11:12Z</time>
      </trkpt>
      <trkpt lat="42.52889" lon="2.49392">
        <ele>1802</ele>
        <time>2024-09-19T07:11:15Z</time>
      </trkpt>
      <trkpt lat="42.52888" lon="2.49396">
        <ele>1802</ele>
        <time>2024-09-19T07:11:19Z</time>
      </trkpt>
      <trkpt lat="42.52887" lon="2.494">
        <ele>1800</ele>
        <time>2024-09-19T07:11:25Z</time>
      </trkpt>
      <trkpt lat="42.52886" lon="2.49404">
        <ele>1800</ele>
        <time>2024-09-19T07:11:28Z</time>
      </trkpt>
      <trkpt lat="42.52885" lon="2.49408">
        <ele>1800</ele>
        <time>2024-09-19T07:11:31Z</time>
      </trkpt>
      <trkpt lat="42.52885" lon="2.49412">
        <ele>1799</ele>
        <time>2024-09-19T07:11:35Z</time>
      </trkpt>
      <trkpt lat="42.52886" lon="2.49415">
        <ele>1798</ele>
        <time>2024-09-19T07:11:38Z</time>
      </trkpt>
      <trkpt lat="42.52888" lon="2.49418">
        <ele>1797</ele>
        <time>2024-09-19T07:11:45Z</time>
      </trkpt>
      <trkpt lat="42.52887" lon="2.49422">
        <ele>1796</ele>
        <time>2024-09-19T07:11:50Z</time>
      </trkpt>
      <trkpt lat="42.52888" lon="2.49426">
        <ele>1795</ele>
        <time>2024-09-19T07:11:54Z</time>
      </trkpt>
      <trkpt lat="42.5289" lon="2.49428">
        <ele>1794</ele>
        <time>2024-09-19T07:11:57Z</time>
      </trkpt>
      <trkpt lat="42.52892" lon="2.49431">
        <ele>1793</ele>
        <time>2024-09-19T07:12:02Z</time>
      </trkpt>
      <trkpt lat="42.52893" lon="2.49436">
        <ele>1791</ele>
        <time>2024-09-19T07:12:06Z</time>
      </trkpt>
      <trkpt lat="42.52895" lon="2.49439">
        <ele>1789</ele>
        <time>2024-09-19T07:12:10Z</time>
      </trkpt>
      <trkpt lat="42.52897" lon="2.49442">
        <ele>1789</ele>
        <time>2024-09-19T07:12:14Z</time>
      </trkpt>
      <trkpt lat="42.52897" lon="2.49446">
        <ele>1787</ele>
        <time>2024-09-19T07:12:19Z</time>
      </trkpt>
      <trkpt lat="42.52899" lon="2.4945">
        <ele>1785</ele>
        <time>2024-09-19T07:12:25Z</time>
      </trkpt>
      <trkpt lat="42.529" lon="2.49453">
        <ele>1784</ele>
        <time>2024-09-19T07:12:28Z</time>
      </trkpt>
      <trkpt lat="42.52901" lon="2.49457">
        <ele>1781</ele>
        <time>2024-09-19T07:12:32Z</time>
      </trkpt>
      <trkpt lat="42.52902" lon="2.49461">
        <ele>1779</ele>
        <time>2024-09-19T07:12:37Z</time>
      </trkpt>
      <trkpt lat="42.52904" lon="2.49463">
        <ele>1778</ele>
        <time>2024-09-19T07:12:40Z</time>
      </trkpt>
      <trkpt lat="42.52906" lon="2.49466">
        <ele>1778</ele>
        <time>2024-09-19T07:12:44Z</time>
      </trkpt>
      <trkpt lat="42.52907" lon="2.4947">
        <ele>1776</ele>
        <time>2024-09-19T07:12:50Z</time>
      </trkpt>
      <trkpt lat="42.52908" lon="2.49474">
        <ele>1775</ele>
        <time>2024-09-19T07:12:54Z</time>
      </trkpt>
      <trkpt lat="42.52909" lon="2.49478">
        <ele>1772</ele>
        <time>2024-09-19T07:13:00Z</time>
      </trkpt>
      <trkpt lat="42.52912" lon="2.49481">
        <ele>1771</ele>
        <time>2024-09-19T07:13:04Z</time>
      </trkpt>
      <trkpt lat="42.52915" lon="2.49483">
        <ele>1772</ele>
        <time>2024-09-19T07:13:08Z</time>
      </trkpt>
      <trkpt lat="42.52917" lon="2.49483">
        <ele>1771</ele>
        <time>2024-09-19T07:13:11Z</time>
      </trkpt>
      <trkpt lat="42.5292" lon="2.49483">
        <ele>1770</ele>
        <time>2024-09-19T07:13:16Z</time>
      </trkpt>
      <trkpt lat="42.52922" lon="2.49484">
        <ele>1770</ele>
        <time>2024-09-19T07:13:20Z</time>
      </trkpt>
      <trkpt lat="42.52925" lon="2.49486">
        <ele>1769</ele>
        <time>2024-09-19T07:13:27Z</time>
      </trkpt>
      <trkpt lat="42.52928" lon="2.49487">
        <ele>1768</ele>
        <time>2024-09-19T07:13:33Z</time>
      </trkpt>
      <trkpt lat="42.52931" lon="2.49487">
        <ele>1768</ele>
        <time>2024-09-19T07:13:36Z</time>
      </trkpt>
      <trkpt lat="42.52933" lon="2.49489">
        <ele>1767</ele>
        <time>2024-09-19T07:13:43Z</time>
      </trkpt>
      <trkpt lat="42.52934" lon="2.49492">
        <ele>1765</ele>
        <time>2024-09-19T07:13:52Z</time>
      </trkpt>
      <trkpt lat="42.52932" lon="2.49495">
        <ele>1765</ele>
        <time>2024-09-19T07:13:56Z</time>
      </trkpt>
      <trkpt lat="42.5293" lon="2.49499">
        <ele>1764</ele>
        <time>2024-09-19T07:13:59Z</time>
      </trkpt>
      <trkpt lat="42.52928" lon="2.49502">
        <ele>1763</ele>
        <time>2024-09-19T07:14:02Z</time>
      </trkpt>
      <trkpt lat="42.52928" lon="2.49507">
        <ele>1761</ele>
        <time>2024-09-19T07:14:10Z</time>
      </trkpt>
      <trkpt lat="42.52927" lon="2.49511">
        <ele>1759</ele>
        <time>2024-09-19T07:14:18Z</time>
      </trkpt>
      <trkpt lat="42.52925" lon="2.49514">
        <ele>1759</ele>
        <time>2024-09-19T07:14:20Z</time>
      </trkpt>
      <trkpt lat="42.52925" lon="2.49517">
        <ele>1758</ele>
        <time>2024-09-19T07:14:25Z</time>
      </trkpt>
      <trkpt lat="42.52927" lon="2.49519">
        <ele>1758</ele>
        <time>2024-09-19T07:14:28Z</time>
      </trkpt>
      <trkpt lat="42.5293" lon="2.49522">
        <ele>1757</ele>
        <time>2024-09-19T07:14:33Z</time>
      </trkpt>
      <trkpt lat="42.52933" lon="2.49525">
        <ele>1756</ele>
        <time>2024-09-19T07:14:38Z</time>
      </trkpt>
      <trkpt lat="42.52936" lon="2.49526">
        <ele>1754</ele>
        <time>2024-09-19T07:14:45Z</time>
      </trkpt>
      <trkpt lat="42.5294" lon="2.49528">
        <ele>1753</ele>
        <time>2024-09-19T07:14:50Z</time>
      </trkpt>
      <trkpt lat="42.52942" lon="2.49531">
        <ele>1753</ele>
        <time>2024-09-19T07:14:53Z</time>
      </trkpt>
      <trkpt lat="42.52943" lon="2.49535">
        <ele>1751</ele>
        <time>2024-09-19T07:15:00Z</time>
      </trkpt>
      <trkpt lat="42.52943" lon="2.49539">
        <ele>1750</ele>
        <time>2024-09-19T07:15:06Z</time>
      </trkpt>
      <trkpt lat="42.52944" lon="2.49544">
        <ele>1750</ele>
        <time>2024-09-19T07:15:11Z</time>
      </trkpt>
      <trkpt lat="42.52945" lon="2.49547">
        <ele>1750</ele>
        <time>2024-09-19T07:15:19Z</time>
      </trkpt>
      <trkpt lat="42.52947" lon="2.49547">
        <ele>1749</ele>
        <time>2024-09-19T07:15:22Z</time>
      </trkpt>
      <trkpt lat="42.52948" lon="2.49549">
        <ele>1748</ele>
        <time>2024-09-19T07:15:24Z</time>
      </trkpt>
      <trkpt lat="42.52947" lon="2.49553">
        <ele>1746</ele>
        <time>2024-09-19T07:15:28Z</time>
      </trkpt>
      <trkpt lat="42.52948" lon="2.49558">
        <ele>1744</ele>
        <time>2024-09-19T07:15:32Z</time>
      </trkpt>
      <trkpt lat="42.52948" lon="2.49563">
        <ele>1743</ele>
        <time>2024-09-19T07:15:36Z</time>
      </trkpt>
      <trkpt lat="42.52945" lon="2.49567">
        <ele>1743</ele>
        <time>2024-09-19T07:15:41Z</time>
      </trkpt>
      <trkpt lat="42.52944" lon="2.49571">
        <ele>1742</ele>
        <time>2024-09-19T07:15:44Z</time>
      </trkpt>
      <trkpt lat="42.52943" lon="2.49574">
        <ele>1741</ele>
        <time>2024-09-19T07:15:48Z</time>
      </trkpt>
      <trkpt lat="42.52944" lon="2.49577">
        <ele>1740</ele>
        <time>2024-09-19T07:15:52Z</time>
      </trkpt>
      <trkpt lat="42.52946" lon="2.49577">
        <ele>1740</ele>
        <time>2024-09-19T07:15:55Z</time>
      </trkpt>
      <trkpt lat="42.52948" lon="2.49575">
        <ele>1739</ele>
        <time>2024-09-19T07:16:15Z</time>
      </trkpt>
      <trkpt lat="42.5295" lon="2.49576">
        <ele>1738</ele>
        <time>2024-09-19T07:16:19Z</time>
      </trkpt>
      <trkpt lat="42.52952" lon="2.49579">
        <ele>1738</ele>
        <time>2024-09-19T07:16:23Z</time>
      </trkpt>
      <trkpt lat="42.52953" lon="2.49583">
        <ele>1737</ele>
        <time>2024-09-19T07:16:26Z</time>
      </trkpt>
      <trkpt lat="42.52952" lon="2.49586">
        <ele>1737</ele>
        <time>2024-09-19T07:16:30Z</time>
      </trkpt>
      <trkpt lat="42.5295" lon="2.49589">
        <ele>1736</ele>
        <time>2024-09-19T07:16:34Z</time>
      </trkpt>
      <trkpt lat="42.52948" lon="2.49592">
        <ele>1737</ele>
        <time>2024-09-19T07:16:37Z</time>
      </trkpt>
      <trkpt lat="42.52946" lon="2.49596">
        <ele>1735</ele>
        <time>2024-09-19T07:16:41Z</time>
      </trkpt>
      <trkpt lat="42.52944" lon="2.49599">
        <ele>1735</ele>
        <time>2024-09-19T07:16:44Z</time>
      </trkpt>
      <trkpt lat="42.52943" lon="2.49603">
        <ele>1735</ele>
        <time>2024-09-19T07:17:09Z</time>
      </trkpt>
      <trkpt lat="42.52941" lon="2.49602">
        <ele>1735</ele>
        <time>2024-09-19T07:17:14Z</time>
      </trkpt>
      <trkpt lat="42.52939" lon="2.49601">
        <ele>1735</ele>
        <time>2024-09-19T07:17:20Z</time>
      </trkpt>
      <trkpt lat="42.52937" lon="2.49599">
        <ele>1734</ele>
        <time>2024-09-19T07:17:32Z</time>
      </trkpt>
      <trkpt lat="42.52935" lon="2.49595">
        <ele>1735</ele>
        <time>2024-09-19T07:17:54Z</time>
      </trkpt>
      <trkpt lat="42.52934" lon="2.49592">
        <ele>1735</ele>
        <time>2024-09-19T07:17:57Z</time>
      </trkpt>
      <trkpt lat="42.52931" lon="2.49588">
        <ele>1734</ele>
        <time>2024-09-19T07:18:00Z</time>
      </trkpt>
      <trkpt lat="42.52929" lon="2.49585">
        <ele>1734</ele>
        <time>2024-09-19T07:18:04Z</time>
      </trkpt>
      <trkpt lat="42.52926" lon="2.49582">
        <ele>1735</ele>
        <time>2024-09-19T07:18:06Z</time>
      </trkpt>
      <trkpt lat="42.52924" lon="2.4958">
        <ele>1735</ele>
        <time>2024-09-19T07:18:08Z</time>
      </trkpt>
      <trkpt lat="42.52921" lon="2.49579">
        <ele>1735</ele>
        <time>2024-09-19T07:18:11Z</time>
      </trkpt>
      <trkpt lat="42.52918" lon="2.49576">
        <ele>1735</ele>
        <time>2024-09-19T07:18:14Z</time>
      </trkpt>
      <trkpt lat="42.52916" lon="2.49574">
        <ele>1734</ele>
        <time>2024-09-19T07:18:17Z</time>
      </trkpt>
      <trkpt lat="42.52913" lon="2.49571">
        <ele>1735</ele>
        <time>2024-09-19T07:18:20Z</time>
      </trkpt>
      <trkpt lat="42.52911" lon="2.49568">
        <ele>1736</ele>
        <time>2024-09-19T07:18:23Z</time>
      </trkpt>
      <trkpt lat="42.52909" lon="2.49565">
        <ele>1735</ele>
        <time>2024-09-19T07:18:25Z</time>
      </trkpt>
      <trkpt lat="42.52906" lon="2.49563">
        <ele>1735</ele>
        <time>2024-09-19T07:18:28Z</time>
      </trkpt>
      <trkpt lat="42.52903" lon="2.49559">
        <ele>1737</ele>
        <time>2024-09-19T07:18:31Z</time>
      </trkpt>
      <trkpt lat="42.529" lon="2.49557">
        <ele>1736</ele>
        <time>2024-09-19T07:18:34Z</time>
      </trkpt>
      <trkpt lat="42.52897" lon="2.49555">
        <ele>1736</ele>
        <time>2024-09-19T07:18:35Z</time>
      </trkpt>
      <trkpt lat="42.52893" lon="2.49552">
        <ele>1735</ele>
        <time>2024-09-19T07:18:38Z</time>
      </trkpt>
      <trkpt lat="42.5289" lon="2.49551">
        <ele>1735</ele>
        <time>2024-09-19T07:18:42Z</time>
      </trkpt>
      <trkpt lat="42.52887" lon="2.49551">
        <ele>1736</ele>
        <time>2024-09-19T07:18:43Z</time>
      </trkpt>
      <trkpt lat="42.52885" lon="2.4955">
        <ele>1735</ele>
        <time>2024-09-19T07:18:46Z</time>
      </trkpt>
      <trkpt lat="42.52882" lon="2.4955">
        <ele>1734</ele>
        <time>2024-09-19T07:18:50Z</time>
      </trkpt>
      <trkpt lat="42.52879" lon="2.49548">
        <ele>1733</ele>
        <time>2024-09-19T07:18:53Z</time>
      </trkpt>
      <trkpt lat="42.52876" lon="2.49548">
        <ele>1734</ele>
        <time>2024-09-19T07:18:55Z</time>
      </trkpt>
      <trkpt lat="42.52873" lon="2.49548">
        <ele>1732</ele>
        <time>2024-09-19T07:18:59Z</time>
      </trkpt>
      <trkpt lat="42.5287" lon="2.49548">
        <ele>1732</ele>
        <time>2024-09-19T07:19:02Z</time>
      </trkpt>
      <trkpt lat="42.52867" lon="2.49549">
        <ele>1732</ele>
        <time>2024-09-19T07:19:05Z</time>
      </trkpt>
      <trkpt lat="42.52863" lon="2.49549">
        <ele>1732</ele>
        <time>2024-09-19T07:19:08Z</time>
      </trkpt>
      <trkpt lat="42.5286" lon="2.49548">
        <ele>1731</ele>
        <time>2024-09-19T07:19:12Z</time>
      </trkpt>
      <trkpt lat="42.52857" lon="2.49547">
        <ele>1731</ele>
        <time>2024-09-19T07:19:17Z</time>
      </trkpt>
      <trkpt lat="42.52854" lon="2.49545">
        <ele>1732</ele>
        <time>2024-09-19T07:20:22Z</time>
      </trkpt>
      <trkpt lat="42.52851" lon="2.49544">
        <ele>1730</ele>
        <time>2024-09-19T07:20:26Z</time>
      </trkpt>
      <trkpt lat="42.52848" lon="2.49542">
        <ele>1731</ele>
        <time>2024-09-19T07:20:28Z</time>
      </trkpt>
      <trkpt lat="42.52845" lon="2.49539">
        <ele>1729</ele>
        <time>2024-09-19T07:20:32Z</time>
      </trkpt>
      <trkpt lat="42.52842" lon="2.49537">
        <ele>1729</ele>
        <time>2024-09-19T07:20:36Z</time>
      </trkpt>
      <trkpt lat="42.52839" lon="2.49536">
        <ele>1729</ele>
        <time>2024-09-19T07:20:39Z</time>
      </trkpt>
      <trkpt lat="42.52836" lon="2.49533">
        <ele>1728</ele>
        <time>2024-09-19T07:20:44Z</time>
      </trkpt>
      <trkpt lat="42.52833" lon="2.49531">
        <ele>1729</ele>
        <time>2024-09-19T07:20:46Z</time>
      </trkpt>
      <trkpt lat="42.52831" lon="2.49528">
        <ele>1728</ele>
        <time>2024-09-19T07:20:49Z</time>
      </trkpt>
      <trkpt lat="42.52829" lon="2.49525">
        <ele>1728</ele>
        <time>2024-09-19T07:20:52Z</time>
      </trkpt>
      <trkpt lat="42.52826" lon="2.49522">
        <ele>1727</ele>
        <time>2024-09-19T07:20:55Z</time>
      </trkpt>
      <trkpt lat="42.52825" lon="2.49519">
        <ele>1727</ele>
        <time>2024-09-19T07:20:58Z</time>
      </trkpt>
      <trkpt lat="42.52825" lon="2.49515">
        <ele>1728</ele>
        <time>2024-09-19T07:21:01Z</time>
      </trkpt>
      <trkpt lat="42.52825" lon="2.49511">
        <ele>1728</ele>
        <time>2024-09-19T07:21:04Z</time>
      </trkpt>
      <trkpt lat="42.52824" lon="2.49507">
        <ele>1729</ele>
        <time>2024-09-19T07:21:07Z</time>
      </trkpt>
      <trkpt lat="42.52822" lon="2.49504">
        <ele>1730</ele>
        <time>2024-09-19T07:21:10Z</time>
      </trkpt>
      <trkpt lat="42.52819" lon="2.49502">
        <ele>1729</ele>
        <time>2024-09-19T07:21:13Z</time>
      </trkpt>
      <trkpt lat="42.52817" lon="2.49498">
        <ele>1728</ele>
        <time>2024-09-19T07:21:16Z</time>
      </trkpt>
      <trkpt lat="42.52814" lon="2.49495">
        <ele>1728</ele>
        <time>2024-09-19T07:21:19Z</time>
      </trkpt>
      <trkpt lat="42.52812" lon="2.49492">
        <ele>1728</ele>
        <time>2024-09-19T07:21:22Z</time>
      </trkpt>
      <trkpt lat="42.52809" lon="2.49489">
        <ele>1727</ele>
        <time>2024-09-19T07:21:25Z</time>
      </trkpt>
      <trkpt lat="42.52808" lon="2.49485">
        <ele>1726</ele>
        <time>2024-09-19T07:21:28Z</time>
      </trkpt>
      <trkpt lat="42.52806" lon="2.49482">
        <ele>1726</ele>
        <time>2024-09-19T07:21:30Z</time>
      </trkpt>
      <trkpt lat="42.52805" lon="2.49477">
        <ele>1726</ele>
        <time>2024-09-19T07:21:33Z</time>
      </trkpt>
      <trkpt lat="42.52804" lon="2.49473">
        <ele>1724</ele>
        <time>2024-09-19T07:21:39Z</time>
      </trkpt>
      <trkpt lat="42.52803" lon="2.4947">
        <ele>1724</ele>
        <time>2024-09-19T07:21:43Z</time>
      </trkpt>
      <trkpt lat="42.52804" lon="2.49466">
        <ele>1724</ele>
        <time>2024-09-19T07:21:46Z</time>
      </trkpt>
      <trkpt lat="42.52805" lon="2.49462">
        <ele>1724</ele>
        <time>2024-09-19T07:21:49Z</time>
      </trkpt>
      <trkpt lat="42.52805" lon="2.49458">
        <ele>1724</ele>
        <time>2024-09-19T07:21:51Z</time>
      </trkpt>
      <trkpt lat="42.52805" lon="2.49454">
        <ele>1726</ele>
        <time>2024-09-19T07:21:56Z</time>
      </trkpt>
      <trkpt lat="42.52804" lon="2.4945">
        <ele>1725</ele>
        <time>2024-09-19T07:22:02Z</time>
      </trkpt>
      <trkpt lat="42.52802" lon="2.49446">
        <ele>1726</ele>
        <time>2024-09-19T07:22:04Z</time>
      </trkpt>
      <trkpt lat="42.528" lon="2.49443">
        <ele>1726</ele>
        <time>2024-09-19T07:22:06Z</time>
      </trkpt>
      <trkpt lat="42.52797" lon="2.49441">
        <ele>1726</ele>
        <time>2024-09-19T07:22:09Z</time>
      </trkpt>
      <trkpt lat="42.52795" lon="2.49438">
        <ele>1725</ele>
        <time>2024-09-19T07:22:12Z</time>
      </trkpt>
      <trkpt lat="42.52792" lon="2.49436">
        <ele>1725</ele>
        <time>2024-09-19T07:22:15Z</time>
      </trkpt>
      <trkpt lat="42.5279" lon="2.49433">
        <ele>1723</ele>
        <time>2024-09-19T07:22:19Z</time>
      </trkpt>
      <trkpt lat="42.52787" lon="2.4943">
        <ele>1723</ele>
        <time>2024-09-19T07:22:23Z</time>
      </trkpt>
      <trkpt lat="42.52785" lon="2.49426">
        <ele>1722</ele>
        <time>2024-09-19T07:22:25Z</time>
      </trkpt>
      <trkpt lat="42.52782" lon="2.49424">
        <ele>1723</ele>
        <time>2024-09-19T07:22:31Z</time>
      </trkpt>
      <trkpt lat="42.52779" lon="2.49421">
        <ele>1724</ele>
        <time>2024-09-19T07:22:33Z</time>
      </trkpt>
      <trkpt lat="42.52777" lon="2.49417">
        <ele>1724</ele>
        <time>2024-09-19T07:22:37Z</time>
      </trkpt>
      <trkpt lat="42.52776" lon="2.49414">
        <ele>1724</ele>
        <time>2024-09-19T07:22:42Z</time>
      </trkpt>
      <trkpt lat="42.52775" lon="2.49409">
        <ele>1724</ele>
        <time>2024-09-19T07:22:46Z</time>
      </trkpt>
      <trkpt lat="42.52775" lon="2.49405">
        <ele>1723</ele>
        <time>2024-09-19T07:22:49Z</time>
      </trkpt>
      <trkpt lat="42.52774" lon="2.49401">
        <ele>1724</ele>
        <time>2024-09-19T07:22:52Z</time>
      </trkpt>
      <trkpt lat="42.52772" lon="2.49396">
        <ele>1723</ele>
        <time>2024-09-19T07:22:55Z</time>
      </trkpt>
      <trkpt lat="42.52771" lon="2.49393">
        <ele>1723</ele>
        <time>2024-09-19T07:22:57Z</time>
      </trkpt>
      <trkpt lat="42.52768" lon="2.4939">
        <ele>1723</ele>
        <time>2024-09-19T07:23:00Z</time>
      </trkpt>
      <trkpt lat="42.52766" lon="2.49387">
        <ele>1723</ele>
        <time>2024-09-19T07:23:03Z</time>
      </trkpt>
      <trkpt lat="42.52764" lon="2.49384">
        <ele>1723</ele>
        <time>2024-09-19T07:23:06Z</time>
      </trkpt>
      <trkpt lat="42.52764" lon="2.4938">
        <ele>1722</ele>
        <time>2024-09-19T07:23:09Z</time>
      </trkpt>
      <trkpt lat="42.52764" lon="2.49375">
        <ele>1722</ele>
        <time>2024-09-19T07:23:12Z</time>
      </trkpt>
      <trkpt lat="42.52762" lon="2.49371">
        <ele>1722</ele>
        <time>2024-09-19T07:23:15Z</time>
      </trkpt>
      <trkpt lat="42.5276" lon="2.49368">
        <ele>1722</ele>
        <time>2024-09-19T07:23:18Z</time>
      </trkpt>
      <trkpt lat="42.52757" lon="2.49366">
        <ele>1721</ele>
        <time>2024-09-19T07:23:21Z</time>
      </trkpt>
      <trkpt lat="42.52755" lon="2.49363">
        <ele>1721</ele>
        <time>2024-09-19T07:23:24Z</time>
      </trkpt>
      <trkpt lat="42.52753" lon="2.4936">
        <ele>1720</ele>
        <time>2024-09-19T07:23:27Z</time>
      </trkpt>
      <trkpt lat="42.5275" lon="2.49358">
        <ele>1719</ele>
        <time>2024-09-19T07:23:30Z</time>
      </trkpt>
      <trkpt lat="42.52748" lon="2.49355">
        <ele>1719</ele>
        <time>2024-09-19T07:23:34Z</time>
      </trkpt>
      <trkpt lat="42.52745" lon="2.49352">
        <ele>1718</ele>
        <time>2024-09-19T07:23:37Z</time>
      </trkpt>
      <trkpt lat="42.52743" lon="2.49351">
        <ele>1718</ele>
        <time>2024-09-19T07:23:40Z</time>
      </trkpt>
      <trkpt lat="42.5274" lon="2.49348">
        <ele>1718</ele>
        <time>2024-09-19T07:23:44Z</time>
      </trkpt>
      <trkpt lat="42.52737" lon="2.49347">
        <ele>1718</ele>
        <time>2024-09-19T07:23:48Z</time>
      </trkpt>
      <trkpt lat="42.52734" lon="2.49345">
        <ele>1718</ele>
        <time>2024-09-19T07:23:52Z</time>
      </trkpt>
      <trkpt lat="42.52731" lon="2.49343">
        <ele>1718</ele>
        <time>2024-09-19T07:23:55Z</time>
      </trkpt>
      <trkpt lat="42.52728" lon="2.49342">
        <ele>1718</ele>
        <time>2024-09-19T07:23:57Z</time>
      </trkpt>
      <trkpt lat="42.52725" lon="2.49341">
        <ele>1717</ele>
        <time>2024-09-19T07:24:01Z</time>
      </trkpt>
      <trkpt lat="42.52722" lon="2.49338">
        <ele>1716</ele>
        <time>2024-09-19T07:24:04Z</time>
      </trkpt>
      <trkpt lat="42.5272" lon="2.49335">
        <ele>1717</ele>
        <time>2024-09-19T07:24:07Z</time>
      </trkpt>
      <trkpt lat="42.52718" lon="2.49332">
        <ele>1716</ele>
        <time>2024-09-19T07:24:10Z</time>
      </trkpt>
      <trkpt lat="42.52716" lon="2.49328">
        <ele>1716</ele>
        <time>2024-09-19T07:24:13Z</time>
      </trkpt>
      <trkpt lat="42.52715" lon="2.49323">
        <ele>1715</ele>
        <time>2024-09-19T07:24:16Z</time>
      </trkpt>
      <trkpt lat="42.52715" lon="2.49316">
        <ele>1714</ele>
        <time>2024-09-19T07:24:21Z</time>
      </trkpt>
      <trkpt lat="42.52714" lon="2.49312">
        <ele>1714</ele>
        <time>2024-09-19T07:24:24Z</time>
      </trkpt>
      <trkpt lat="42.52715" lon="2.49307">
        <ele>1715</ele>
        <time>2024-09-19T07:24:26Z</time>
      </trkpt>
      <trkpt lat="42.52713" lon="2.49304">
        <ele>1714</ele>
        <time>2024-09-19T07:24:29Z</time>
      </trkpt>
      <trkpt lat="42.52711" lon="2.49301">
        <ele>1716</ele>
        <time>2024-09-19T07:24:31Z</time>
      </trkpt>
      <trkpt lat="42.5271" lon="2.49298">
        <ele>1715</ele>
        <time>2024-09-19T07:24:34Z</time>
      </trkpt>
      <trkpt lat="42.52708" lon="2.49295">
        <ele>1715</ele>
        <time>2024-09-19T07:24:38Z</time>
      </trkpt>
      <trkpt lat="42.52706" lon="2.49291">
        <ele>1715</ele>
        <time>2024-09-19T07:24:41Z</time>
      </trkpt>
      <trkpt lat="42.52704" lon="2.49287">
        <ele>1716</ele>
        <time>2024-09-19T07:24:45Z</time>
      </trkpt>
      <trkpt lat="42.52703" lon="2.49282">
        <ele>1714</ele>
        <time>2024-09-19T07:24:48Z</time>
      </trkpt>
      <trkpt lat="42.52701" lon="2.4928">
        <ele>1713</ele>
        <time>2024-09-19T07:24:54Z</time>
      </trkpt>
      <trkpt lat="42.52699" lon="2.49276">
        <ele>1713</ele>
        <time>2024-09-19T07:24:56Z</time>
      </trkpt>
      <trkpt lat="42.52698" lon="2.49272">
        <ele>1713</ele>
        <time>2024-09-19T07:24:59Z</time>
      </trkpt>
      <trkpt lat="42.52696" lon="2.49268">
        <ele>1713</ele>
        <time>2024-09-19T07:25:02Z</time>
      </trkpt>
      <trkpt lat="42.52695" lon="2.49263">
        <ele>1713</ele>
        <time>2024-09-19T07:25:06Z</time>
      </trkpt>
      <trkpt lat="42.52695" lon="2.49259">
        <ele>1712</ele>
        <time>2024-09-19T07:25:09Z</time>
      </trkpt>
      <trkpt lat="42.52694" lon="2.49254">
        <ele>1712</ele>
        <time>2024-09-19T07:25:12Z</time>
      </trkpt>
      <trkpt lat="42.52693" lon="2.4925">
        <ele>1712</ele>
        <time>2024-09-19T07:25:15Z</time>
      </trkpt>
      <trkpt lat="42.52691" lon="2.49247">
        <ele>1713</ele>
        <time>2024-09-19T07:25:18Z</time>
      </trkpt>
      <trkpt lat="42.52689" lon="2.49245">
        <ele>1713</ele>
        <time>2024-09-19T07:25:27Z</time>
      </trkpt>
      <trkpt lat="42.52687" lon="2.49242">
        <ele>1711</ele>
        <time>2024-09-19T07:25:32Z</time>
      </trkpt>
      <trkpt lat="42.52686" lon="2.49239">
        <ele>1713</ele>
        <time>2024-09-19T07:25:36Z</time>
      </trkpt>
      <trkpt lat="42.52684" lon="2.49239">
        <ele>1712</ele>
        <time>2024-09-19T07:25:44Z</time>
      </trkpt>
      <trkpt lat="42.52681" lon="2.49237">
        <ele>1712</ele>
        <time>2024-09-19T07:25:46Z</time>
      </trkpt>
      <trkpt lat="42.5268" lon="2.49234">
        <ele>1711</ele>
        <time>2024-09-19T07:25:57Z</time>
      </trkpt>
      <trkpt lat="42.52677" lon="2.49231">
        <ele>1711</ele>
        <time>2024-09-19T07:25:59Z</time>
      </trkpt>
      <trkpt lat="42.52675" lon="2.49229">
        <ele>1710</ele>
        <time>2024-09-19T07:26:02Z</time>
      </trkpt>
      <trkpt lat="42.52672" lon="2.49226">
        <ele>1710</ele>
        <time>2024-09-19T07:26:05Z</time>
      </trkpt>
      <trkpt lat="42.52669" lon="2.49225">
        <ele>1712</ele>
        <time>2024-09-19T07:26:08Z</time>
      </trkpt>
      <trkpt lat="42.52666" lon="2.49223">
        <ele>1712</ele>
        <time>2024-09-19T07:26:12Z</time>
      </trkpt>
      <trkpt lat="42.52663" lon="2.49223">
        <ele>1711</ele>
        <time>2024-09-19T07:26:15Z</time>
      </trkpt>
      <trkpt lat="42.5266" lon="2.49223">
        <ele>1711</ele>
        <time>2024-09-19T07:26:19Z</time>
      </trkpt>
      <trkpt lat="42.52657" lon="2.49223">
        <ele>1710</ele>
        <time>2024-09-19T07:26:30Z</time>
      </trkpt>
      <trkpt lat="42.52653" lon="2.49224">
        <ele>1710</ele>
        <time>2024-09-19T07:26:33Z</time>
      </trkpt>
      <trkpt lat="42.5265" lon="2.49225">
        <ele>1709</ele>
        <time>2024-09-19T07:26:36Z</time>
      </trkpt>
      <trkpt lat="42.52647" lon="2.49225">
        <ele>1708</ele>
        <time>2024-09-19T07:26:39Z</time>
      </trkpt>
      <trkpt lat="42.52644" lon="2.49226">
        <ele>1708</ele>
        <time>2024-09-19T07:26:41Z</time>
      </trkpt>
      <trkpt lat="42.52641" lon="2.49227">
        <ele>1708</ele>
        <time>2024-09-19T07:26:44Z</time>
      </trkpt>
      <trkpt lat="42.52637" lon="2.49228">
        <ele>1707</ele>
        <time>2024-09-19T07:26:47Z</time>
      </trkpt>
      <trkpt lat="42.52634" lon="2.49228">
        <ele>1706</ele>
        <time>2024-09-19T07:26:51Z</time>
      </trkpt>
      <trkpt lat="42.52631" lon="2.49229">
        <ele>1708</ele>
        <time>2024-09-19T07:26:53Z</time>
      </trkpt>
      <trkpt lat="42.52628" lon="2.49229">
        <ele>1707</ele>
        <time>2024-09-19T07:26:55Z</time>
      </trkpt>
      <trkpt lat="42.52625" lon="2.49229">
        <ele>1707</ele>
        <time>2024-09-19T07:26:57Z</time>
      </trkpt>
      <trkpt lat="42.52622" lon="2.49228">
        <ele>1707</ele>
        <time>2024-09-19T07:27:00Z</time>
      </trkpt>
      <trkpt lat="42.52619" lon="2.49227">
        <ele>1706</ele>
        <time>2024-09-19T07:27:02Z</time>
      </trkpt>
      <trkpt lat="42.52616" lon="2.49226">
        <ele>1706</ele>
        <time>2024-09-19T07:27:04Z</time>
      </trkpt>
      <trkpt lat="42.52612" lon="2.49225">
        <ele>1705</ele>
        <time>2024-09-19T07:27:07Z</time>
      </trkpt>
      <trkpt lat="42.52608" lon="2.49224">
        <ele>1705</ele>
        <time>2024-09-19T07:27:11Z</time>
      </trkpt>
      <trkpt lat="42.52605" lon="2.49223">
        <ele>1705</ele>
        <time>2024-09-19T07:27:14Z</time>
      </trkpt>
      <trkpt lat="42.52601" lon="2.49222">
        <ele>1704</ele>
        <time>2024-09-19T07:27:17Z</time>
      </trkpt>
      <trkpt lat="42.52598" lon="2.49222">
        <ele>1705</ele>
        <time>2024-09-19T07:27:19Z</time>
      </trkpt>
      <trkpt lat="42.52596" lon="2.49223">
        <ele>1705</ele>
        <time>2024-09-19T07:27:21Z</time>
      </trkpt>
      <trkpt lat="42.52592" lon="2.49223">
        <ele>1704</ele>
        <time>2024-09-19T07:27:24Z</time>
      </trkpt>
      <trkpt lat="42.52589" lon="2.49223">
        <ele>1704</ele>
        <time>2024-09-19T07:27:26Z</time>
      </trkpt>
      <trkpt lat="42.52586" lon="2.49224">
        <ele>1704</ele>
        <time>2024-09-19T07:27:28Z</time>
      </trkpt>
      <trkpt lat="42.52584" lon="2.49222">
        <ele>1704</ele>
        <time>2024-09-19T07:27:31Z</time>
      </trkpt>
      <trkpt lat="42.52581" lon="2.49222">
        <ele>1704</ele>
        <time>2024-09-19T07:27:33Z</time>
      </trkpt>
      <trkpt lat="42.52578" lon="2.49221">
        <ele>1704</ele>
        <time>2024-09-19T07:27:36Z</time>
      </trkpt>
      <trkpt lat="42.52574" lon="2.4922">
        <ele>1703</ele>
        <time>2024-09-19T07:27:39Z</time>
      </trkpt>
      <trkpt lat="42.52571" lon="2.49219">
        <ele>1704</ele>
        <time>2024-09-19T07:27:42Z</time>
      </trkpt>
      <trkpt lat="42.52567" lon="2.49217">
        <ele>1703</ele>
        <time>2024-09-19T07:27:46Z</time>
      </trkpt>
      <trkpt lat="42.52564" lon="2.49217">
        <ele>1703</ele>
        <time>2024-09-19T07:27:49Z</time>
      </trkpt>
      <trkpt lat="42.5256" lon="2.49215">
        <ele>1703</ele>
        <time>2024-09-19T07:27:52Z</time>
      </trkpt>
      <trkpt lat="42.52557" lon="2.49213">
        <ele>1702</ele>
        <time>2024-09-19T07:28:00Z</time>
      </trkpt>
      <trkpt lat="42.52554" lon="2.49212">
        <ele>1702</ele>
        <time>2024-09-19T07:28:03Z</time>
      </trkpt>
      <trkpt lat="42.52551" lon="2.49212">
        <ele>1702</ele>
        <time>2024-09-19T07:28:05Z</time>
      </trkpt>
      <trkpt lat="42.52547" lon="2.49211">
        <ele>1703</ele>
        <time>2024-09-19T07:28:07Z</time>
      </trkpt>
      <trkpt lat="42.52543" lon="2.4921">
        <ele>1702</ele>
        <time>2024-09-19T07:28:11Z</time>
      </trkpt>
      <trkpt lat="42.5254" lon="2.49209">
        <ele>1701</ele>
        <time>2024-09-19T07:28:14Z</time>
      </trkpt>
      <trkpt lat="42.52537" lon="2.49208">
        <ele>1701</ele>
        <time>2024-09-19T07:28:17Z</time>
      </trkpt>
      <trkpt lat="42.52534" lon="2.49206">
        <ele>1702</ele>
        <time>2024-09-19T07:28:19Z</time>
      </trkpt>
      <trkpt lat="42.52531" lon="2.49205">
        <ele>1699</ele>
        <time>2024-09-19T07:28:27Z</time>
      </trkpt>
      <trkpt lat="42.52529" lon="2.49204">
        <ele>1699</ele>
        <time>2024-09-19T07:28:29Z</time>
      </trkpt>
      <trkpt lat="42.52525" lon="2.49204">
        <ele>1699</ele>
        <time>2024-09-19T07:28:33Z</time>
      </trkpt>
      <trkpt lat="42.52523" lon="2.49202">
        <ele>1698</ele>
        <time>2024-09-19T07:28:36Z</time>
      </trkpt>
      <trkpt lat="42.52519" lon="2.49201">
        <ele>1699</ele>
        <time>2024-09-19T07:28:39Z</time>
      </trkpt>
      <trkpt lat="42.52515" lon="2.49201">
        <ele>1699</ele>
        <time>2024-09-19T07:28:41Z</time>
      </trkpt>
      <trkpt lat="42.52512" lon="2.49203">
        <ele>1699</ele>
        <time>2024-09-19T07:28:45Z</time>
      </trkpt>
      <trkpt lat="42.52509" lon="2.49205">
        <ele>1699</ele>
        <time>2024-09-19T07:28:48Z</time>
      </trkpt>
      <trkpt lat="42.52505" lon="2.49207">
        <ele>1698</ele>
        <time>2024-09-19T07:28:51Z</time>
      </trkpt>
      <trkpt lat="42.52503" lon="2.49209">
        <ele>1698</ele>
        <time>2024-09-19T07:28:54Z</time>
      </trkpt>
      <trkpt lat="42.525" lon="2.49212">
        <ele>1698</ele>
        <time>2024-09-19T07:28:57Z</time>
      </trkpt>
      <trkpt lat="42.52497" lon="2.49214">
        <ele>1698</ele>
        <time>2024-09-19T07:28:59Z</time>
      </trkpt>
      <trkpt lat="42.52494" lon="2.49217">
        <ele>1698</ele>
        <time>2024-09-19T07:29:02Z</time>
      </trkpt>
      <trkpt lat="42.52492" lon="2.4922">
        <ele>1698</ele>
        <time>2024-09-19T07:29:04Z</time>
      </trkpt>
      <trkpt lat="42.52489" lon="2.49222">
        <ele>1697</ele>
        <time>2024-09-19T07:29:07Z</time>
      </trkpt>
      <trkpt lat="42.52487" lon="2.49225">
        <ele>1696</ele>
        <time>2024-09-19T07:29:09Z</time>
      </trkpt>
      <trkpt lat="42.52484" lon="2.49226">
        <ele>1697</ele>
        <time>2024-09-19T07:29:12Z</time>
      </trkpt>
      <trkpt lat="42.52481" lon="2.49228">
        <ele>1696</ele>
        <time>2024-09-19T07:29:14Z</time>
      </trkpt>
      <trkpt lat="42.52479" lon="2.4923">
        <ele>1696</ele>
        <time>2024-09-19T07:29:16Z</time>
      </trkpt>
      <trkpt lat="42.52476" lon="2.49231">
        <ele>1696</ele>
        <time>2024-09-19T07:29:19Z</time>
      </trkpt>
      <trkpt lat="42.52472" lon="2.49232">
        <ele>1695</ele>
        <time>2024-09-19T07:29:23Z</time>
      </trkpt>
      <trkpt lat="42.52469" lon="2.49233">
        <ele>1694</ele>
        <time>2024-09-19T07:29:26Z</time>
      </trkpt>
      <trkpt lat="42.52465" lon="2.49233">
        <ele>1694</ele>
        <time>2024-09-19T07:29:30Z</time>
      </trkpt>
      <trkpt lat="42.52461" lon="2.49233">
        <ele>1695</ele>
        <time>2024-09-19T07:29:33Z</time>
      </trkpt>
      <trkpt lat="42.52458" lon="2.49232">
        <ele>1695</ele>
        <time>2024-09-19T07:29:35Z</time>
      </trkpt>
      <trkpt lat="42.52454" lon="2.49232">
        <ele>1695</ele>
        <time>2024-09-19T07:29:38Z</time>
      </trkpt>
      <trkpt lat="42.52451" lon="2.49232">
        <ele>1694</ele>
        <time>2024-09-19T07:29:41Z</time>
      </trkpt>
      <trkpt lat="42.52448" lon="2.4923">
        <ele>1694</ele>
        <time>2024-09-19T07:29:43Z</time>
      </trkpt>
      <trkpt lat="42.52446" lon="2.49229">
        <ele>1694</ele>
        <time>2024-09-19T07:29:45Z</time>
      </trkpt>
      <trkpt lat="42.52442" lon="2.49229">
        <ele>1694</ele>
        <time>2024-09-19T07:29:48Z</time>
      </trkpt>
      <trkpt lat="42.52438" lon="2.49227">
        <ele>1694</ele>
        <time>2024-09-19T07:29:51Z</time>
      </trkpt>
      <trkpt lat="42.52435" lon="2.49226">
        <ele>1692</ele>
        <time>2024-09-19T07:30:00Z</time>
      </trkpt>
      <trkpt lat="42.52432" lon="2.49224">
        <ele>1693</ele>
        <time>2024-09-19T07:30:02Z</time>
      </trkpt>
      <trkpt lat="42.5243" lon="2.49223">
        <ele>1692</ele>
        <time>2024-09-19T07:30:05Z</time>
      </trkpt>
      <trkpt lat="42.52427" lon="2.49221">
        <ele>1692</ele>
        <time>2024-09-19T07:30:07Z</time>
      </trkpt>
      <trkpt lat="42.52423" lon="2.49219">
        <ele>1690</ele>
        <time>2024-09-19T07:30:10Z</time>
      </trkpt>
      <trkpt lat="42.5242" lon="2.49217">
        <ele>1691</ele>
        <time>2024-09-19T07:30:13Z</time>
      </trkpt>
      <trkpt lat="42.52417" lon="2.49214">
        <ele>1691</ele>
        <time>2024-09-19T07:30:16Z</time>
      </trkpt>
      <trkpt lat="42.52414" lon="2.49211">
        <ele>1690</ele>
        <time>2024-09-19T07:30:19Z</time>
      </trkpt>
      <trkpt lat="42.52412" lon="2.49208">
        <ele>1690</ele>
        <time>2024-09-19T07:30:22Z</time>
      </trkpt>
      <trkpt lat="42.5241" lon="2.49204">
        <ele>1690</ele>
        <time>2024-09-19T07:30:25Z</time>
      </trkpt>
      <trkpt lat="42.52407" lon="2.49201">
        <ele>1690</ele>
        <time>2024-09-19T07:30:28Z</time>
      </trkpt>
      <trkpt lat="42.52405" lon="2.49198">
        <ele>1690</ele>
        <time>2024-09-19T07:30:31Z</time>
      </trkpt>
      <trkpt lat="42.52402" lon="2.49196">
        <ele>1690</ele>
        <time>2024-09-19T07:30:33Z</time>
      </trkpt>
      <trkpt lat="42.524" lon="2.49194">
        <ele>1690</ele>
        <time>2024-09-19T07:30:35Z</time>
      </trkpt>
      <trkpt lat="42.52397" lon="2.49191">
        <ele>1690</ele>
        <time>2024-09-19T07:30:40Z</time>
      </trkpt>
      <trkpt lat="42.52394" lon="2.49189">
        <ele>1689</ele>
        <time>2024-09-19T07:30:43Z</time>
      </trkpt>
      <trkpt lat="42.52391" lon="2.49185">
        <ele>1690</ele>
        <time>2024-09-19T07:30:46Z</time>
      </trkpt>
      <trkpt lat="42.52388" lon="2.49182">
        <ele>1690</ele>
        <time>2024-09-19T07:30:49Z</time>
      </trkpt>
      <trkpt lat="42.52386" lon="2.49178">
        <ele>1689</ele>
        <time>2024-09-19T07:30:52Z</time>
      </trkpt>
      <trkpt lat="42.52383" lon="2.49175">
        <ele>1689</ele>
        <time>2024-09-19T07:30:54Z</time>
      </trkpt>
      <trkpt lat="42.5238" lon="2.49174">
        <ele>1689</ele>
        <time>2024-09-19T07:30:57Z</time>
      </trkpt>
      <trkpt lat="42.52377" lon="2.49173">
        <ele>1689</ele>
        <time>2024-09-19T07:30:59Z</time>
      </trkpt>
      <trkpt lat="42.52374" lon="2.49171">
        <ele>1689</ele>
        <time>2024-09-19T07:31:02Z</time>
      </trkpt>
      <trkpt lat="42.5237" lon="2.49169">
        <ele>1688</ele>
        <time>2024-09-19T07:31:05Z</time>
      </trkpt>
      <trkpt lat="42.52367" lon="2.49169">
        <ele>1689</ele>
        <time>2024-09-19T07:31:07Z</time>
      </trkpt>
      <trkpt lat="42.52363" lon="2.49168">
        <ele>1688</ele>
        <time>2024-09-19T07:31:10Z</time>
      </trkpt>
      <trkpt lat="42.52361" lon="2.49167">
        <ele>1689</ele>
        <time>2024-09-19T07:31:12Z</time>
      </trkpt>
      <trkpt lat="42.52358" lon="2.49167">
        <ele>1687</ele>
        <time>2024-09-19T07:31:15Z</time>
      </trkpt>
      <trkpt lat="42.52354" lon="2.49166">
        <ele>1687</ele>
        <time>2024-09-19T07:31:18Z</time>
      </trkpt>
      <trkpt lat="42.52351" lon="2.49166">
        <ele>1687</ele>
        <time>2024-09-19T07:31:21Z</time>
      </trkpt>
      <trkpt lat="42.52347" lon="2.49166">
        <ele>1687</ele>
        <time>2024-09-19T07:32:02Z</time>
      </trkpt>
      <trkpt lat="42.52344" lon="2.49165">
        <ele>1686</ele>
        <time>2024-09-19T07:32:04Z</time>
      </trkpt>
      <trkpt lat="42.52341" lon="2.49164">
        <ele>1686</ele>
        <time>2024-09-19T07:32:06Z</time>
      </trkpt>
      <trkpt lat="42.52338" lon="2.49163">
        <ele>1685</ele>
        <time>2024-09-19T07:32:09Z</time>
      </trkpt>
      <trkpt lat="42.52335" lon="2.49161">
        <ele>1685</ele>
        <time>2024-09-19T07:32:12Z</time>
      </trkpt>
      <trkpt lat="42.52332" lon="2.49158">
        <ele>1684</ele>
        <time>2024-09-19T07:32:16Z</time>
      </trkpt>
      <trkpt lat="42.52329" lon="2.49156">
        <ele>1684</ele>
        <time>2024-09-19T07:32:18Z</time>
      </trkpt>
      <trkpt lat="42.52326" lon="2.49155">
        <ele>1684</ele>
        <time>2024-09-19T07:32:20Z</time>
      </trkpt>
      <trkpt lat="42.52323" lon="2.49154">
        <ele>1685</ele>
        <time>2024-09-19T07:32:23Z</time>
      </trkpt>
      <trkpt lat="42.52319" lon="2.49154">
        <ele>1684</ele>
        <time>2024-09-19T07:32:26Z</time>
      </trkpt>
      <trkpt lat="42.52316" lon="2.49155">
        <ele>1684</ele>
        <time>2024-09-19T07:32:28Z</time>
      </trkpt>
      <trkpt lat="42.52313" lon="2.49155">
        <ele>1684</ele>
        <time>2024-09-19T07:32:30Z</time>
      </trkpt>
      <trkpt lat="42.52311" lon="2.49155">
        <ele>1685</ele>
        <time>2024-09-19T07:32:32Z</time>
      </trkpt>
      <trkpt lat="42.52307" lon="2.49155">
        <ele>1684</ele>
        <time>2024-09-19T07:32:35Z</time>
      </trkpt>
      <trkpt lat="42.52305" lon="2.49155">
        <ele>1683</ele>
        <time>2024-09-19T07:32:37Z</time>
      </trkpt>
      <trkpt lat="42.52302" lon="2.49155">
        <ele>1682</ele>
        <time>2024-09-19T07:32:40Z</time>
      </trkpt>
      <trkpt lat="42.52298" lon="2.49155">
        <ele>1683</ele>
        <time>2024-09-19T07:32:43Z</time>
      </trkpt>
      <trkpt lat="42.52295" lon="2.49154">
        <ele>1682</ele>
        <time>2024-09-19T07:32:47Z</time>
      </trkpt>
      <trkpt lat="42.52292" lon="2.49154">
        <ele>1682</ele>
        <time>2024-09-19T07:32:49Z</time>
      </trkpt>
      <trkpt lat="42.52289" lon="2.49154">
        <ele>1683</ele>
        <time>2024-09-19T07:32:51Z</time>
      </trkpt>
      <trkpt lat="42.52286" lon="2.49154">
        <ele>1682</ele>
        <time>2024-09-19T07:32:54Z</time>
      </trkpt>
      <trkpt lat="42.52282" lon="2.49153">
        <ele>1681</ele>
        <time>2024-09-19T07:32:57Z</time>
      </trkpt>
      <trkpt lat="42.52279" lon="2.49153">
        <ele>1680</ele>
        <time>2024-09-19T07:33:00Z</time>
      </trkpt>
      <trkpt lat="42.52275" lon="2.49152">
        <ele>1680</ele>
        <time>2024-09-19T07:33:03Z</time>
      </trkpt>
      <trkpt lat="42.52272" lon="2.49151">
        <ele>1680</ele>
        <time>2024-09-19T07:33:06Z</time>
      </trkpt>
      <trkpt lat="42.52269" lon="2.49151">
        <ele>1680</ele>
        <time>2024-09-19T07:33:09Z</time>
      </trkpt>
      <trkpt lat="42.52266" lon="2.49151">
        <ele>1681</ele>
        <time>2024-09-19T07:33:11Z</time>
      </trkpt>
      <trkpt lat="42.52262" lon="2.49151">
        <ele>1679</ele>
        <time>2024-09-19T07:33:14Z</time>
      </trkpt>
      <trkpt lat="42.52261" lon="2.49148">
        <ele>1679</ele>
        <time>2024-09-19T07:33:17Z</time>
      </trkpt>
      <trkpt lat="42.52261" lon="2.49145">
        <ele>1679</ele>
        <time>2024-09-19T07:33:19Z</time>
      </trkpt>
      <trkpt lat="42.52261" lon="2.49141">
        <ele>1678</ele>
        <time>2024-09-19T07:33:21Z</time>
      </trkpt>
      <trkpt lat="42.52261" lon="2.49136">
        <ele>1679</ele>
        <time>2024-09-19T07:33:25Z</time>
      </trkpt>
      <trkpt lat="42.52261" lon="2.49131">
        <ele>1679</ele>
        <time>2024-09-19T07:33:28Z</time>
      </trkpt>
      <trkpt lat="42.52261" lon="2.49126">
        <ele>1679</ele>
        <time>2024-09-19T07:33:31Z</time>
      </trkpt>
      <trkpt lat="42.5226" lon="2.49121">
        <ele>1680</ele>
        <time>2024-09-19T07:33:34Z</time>
      </trkpt>
      <trkpt lat="42.5226" lon="2.49116">
        <ele>1679</ele>
        <time>2024-09-19T07:33:37Z</time>
      </trkpt>
      <trkpt lat="42.52259" lon="2.49111">
        <ele>1679</ele>
        <time>2024-09-19T07:33:40Z</time>
      </trkpt>
      <trkpt lat="42.52259" lon="2.49106">
        <ele>1679</ele>
        <time>2024-09-19T07:33:43Z</time>
      </trkpt>
      <trkpt lat="42.52258" lon="2.49102">
        <ele>1680</ele>
        <time>2024-09-19T07:33:45Z</time>
      </trkpt>
      <trkpt lat="42.52257" lon="2.49097">
        <ele>1679</ele>
        <time>2024-09-19T07:33:48Z</time>
      </trkpt>
      <trkpt lat="42.52257" lon="2.49093">
        <ele>1679</ele>
        <time>2024-09-19T07:33:51Z</time>
      </trkpt>
      <trkpt lat="42.52257" lon="2.49088">
        <ele>1680</ele>
        <time>2024-09-19T07:33:53Z</time>
      </trkpt>
      <trkpt lat="42.52256" lon="2.49083">
        <ele>1680</ele>
        <time>2024-09-19T07:33:56Z</time>
      </trkpt>
      <trkpt lat="42.52255" lon="2.49079">
        <ele>1679</ele>
        <time>2024-09-19T07:33:58Z</time>
      </trkpt>
      <trkpt lat="42.52253" lon="2.49077">
        <ele>1680</ele>
        <time>2024-09-19T07:34:01Z</time>
      </trkpt>
      <trkpt lat="42.52251" lon="2.49074">
        <ele>1680</ele>
        <time>2024-09-19T07:34:03Z</time>
      </trkpt>
      <trkpt lat="42.52249" lon="2.4907">
        <ele>1680</ele>
        <time>2024-09-19T07:34:05Z</time>
      </trkpt>
      <trkpt lat="42.52246" lon="2.49067">
        <ele>1681</ele>
        <time>2024-09-19T07:34:08Z</time>
      </trkpt>
      <trkpt lat="42.52244" lon="2.49063">
        <ele>1680</ele>
        <time>2024-09-19T07:34:11Z</time>
      </trkpt>
      <trkpt lat="42.52243" lon="2.49059">
        <ele>1679</ele>
        <time>2024-09-19T07:34:14Z</time>
      </trkpt>
      <trkpt lat="42.5224" lon="2.49058">
        <ele>1679</ele>
        <time>2024-09-19T07:34:17Z</time>
      </trkpt>
      <trkpt lat="42.52238" lon="2.49055">
        <ele>1679</ele>
        <time>2024-09-19T07:34:20Z</time>
      </trkpt>
      <trkpt lat="42.52236" lon="2.49052">
        <ele>1679</ele>
        <time>2024-09-19T07:34:22Z</time>
      </trkpt>
      <trkpt lat="42.52235" lon="2.49048">
        <ele>1678</ele>
        <time>2024-09-19T07:34:25Z</time>
      </trkpt>
      <trkpt lat="42.52232" lon="2.49045">
        <ele>1679</ele>
        <time>2024-09-19T07:34:28Z</time>
      </trkpt>
      <trkpt lat="42.52229" lon="2.49041">
        <ele>1679</ele>
        <time>2024-09-19T07:34:31Z</time>
      </trkpt>
      <trkpt lat="42.52225" lon="2.49039">
        <ele>1678</ele>
        <time>2024-09-19T07:34:34Z</time>
      </trkpt>
      <trkpt lat="42.52222" lon="2.49037">
        <ele>1677</ele>
        <time>2024-09-19T07:34:37Z</time>
      </trkpt>
      <trkpt lat="42.5222" lon="2.49034">
        <ele>1676</ele>
        <time>2024-09-19T07:34:40Z</time>
      </trkpt>
      <trkpt lat="42.52218" lon="2.49029">
        <ele>1676</ele>
        <time>2024-09-19T07:34:44Z</time>
      </trkpt>
      <trkpt lat="42.52217" lon="2.49024">
        <ele>1675</ele>
        <time>2024-09-19T07:34:47Z</time>
      </trkpt>
      <trkpt lat="42.52216" lon="2.49019">
        <ele>1675</ele>
        <time>2024-09-19T07:35:01Z</time>
      </trkpt>
      <trkpt lat="42.52214" lon="2.49015">
        <ele>1676</ele>
        <time>2024-09-19T07:35:04Z</time>
      </trkpt>
      <trkpt lat="42.52212" lon="2.49011">
        <ele>1676</ele>
        <time>2024-09-19T07:35:08Z</time>
      </trkpt>
      <trkpt lat="42.5221" lon="2.49008">
        <ele>1677</ele>
        <time>2024-09-19T07:35:15Z</time>
      </trkpt>
      <trkpt lat="42.52208" lon="2.49004">
        <ele>1677</ele>
        <time>2024-09-19T07:35:19Z</time>
      </trkpt>
      <trkpt lat="42.52208" lon="2.48999">
        <ele>1676</ele>
        <time>2024-09-19T07:35:22Z</time>
      </trkpt>
      <trkpt lat="42.52209" lon="2.48995">
        <ele>1676</ele>
        <time>2024-09-19T07:35:24Z</time>
      </trkpt>
      <trkpt lat="42.52209" lon="2.4899">
        <ele>1677</ele>
        <time>2024-09-19T07:35:26Z</time>
      </trkpt>
      <trkpt lat="42.52209" lon="2.48985">
        <ele>1676</ele>
        <time>2024-09-19T07:35:33Z</time>
      </trkpt>
      <trkpt lat="42.52209" lon="2.4898">
        <ele>1677</ele>
        <time>2024-09-19T07:35:36Z</time>
      </trkpt>
      <trkpt lat="42.52208" lon="2.48974">
        <ele>1678</ele>
        <time>2024-09-19T07:35:38Z</time>
      </trkpt>
      <trkpt lat="42.52207" lon="2.4897">
        <ele>1676</ele>
        <time>2024-09-19T07:35:41Z</time>
      </trkpt>
      <trkpt lat="42.52205" lon="2.48967">
        <ele>1676</ele>
        <time>2024-09-19T07:35:44Z</time>
      </trkpt>
      <trkpt lat="42.52203" lon="2.48962">
        <ele>1676</ele>
        <time>2024-09-19T07:35:47Z</time>
      </trkpt>
      <trkpt lat="42.52202" lon="2.48957">
        <ele>1676</ele>
        <time>2024-09-19T07:35:49Z</time>
      </trkpt>
      <trkpt lat="42.522" lon="2.48954">
        <ele>1677</ele>
        <time>2024-09-19T07:35:52Z</time>
      </trkpt>
      <trkpt lat="42.52199" lon="2.4895">
        <ele>1677</ele>
        <time>2024-09-19T07:35:54Z</time>
      </trkpt>
      <trkpt lat="42.52197" lon="2.48947">
        <ele>1677</ele>
        <time>2024-09-19T07:35:57Z</time>
      </trkpt>
      <trkpt lat="42.52195" lon="2.48945">
        <ele>1677</ele>
        <time>2024-09-19T07:36:00Z</time>
      </trkpt>
      <trkpt lat="42.52192" lon="2.48943">
        <ele>1677</ele>
        <time>2024-09-19T07:36:02Z</time>
      </trkpt>
      <trkpt lat="42.52189" lon="2.4894">
        <ele>1675</ele>
        <time>2024-09-19T07:36:05Z</time>
      </trkpt>
      <trkpt lat="42.52187" lon="2.48937">
        <ele>1676</ele>
        <time>2024-09-19T07:36:08Z</time>
      </trkpt>
      <trkpt lat="42.52185" lon="2.48935">
        <ele>1676</ele>
        <time>2024-09-19T07:36:11Z</time>
      </trkpt>
      <trkpt lat="42.52182" lon="2.48931">
        <ele>1675</ele>
        <time>2024-09-19T07:36:14Z</time>
      </trkpt>
      <trkpt lat="42.5218" lon="2.48928">
        <ele>1675</ele>
        <time>2024-09-19T07:36:17Z</time>
      </trkpt>
      <trkpt lat="42.52178" lon="2.48924">
        <ele>1675</ele>
        <time>2024-09-19T07:36:20Z</time>
      </trkpt>
      <trkpt lat="42.52176" lon="2.4892">
        <ele>1675</ele>
        <time>2024-09-19T07:36:23Z</time>
      </trkpt>
      <trkpt lat="42.52175" lon="2.48915">
        <ele>1675</ele>
        <time>2024-09-19T07:36:26Z</time>
      </trkpt>
      <trkpt lat="42.52174" lon="2.48912">
        <ele>1676</ele>
        <time>2024-09-19T07:36:28Z</time>
      </trkpt>
      <trkpt lat="42.52172" lon="2.48909">
        <ele>1675</ele>
        <time>2024-09-19T07:36:31Z</time>
      </trkpt>
      <trkpt lat="42.52168" lon="2.48907">
        <ele>1676</ele>
        <time>2024-09-19T07:36:35Z</time>
      </trkpt>
      <trkpt lat="42.52165" lon="2.48905">
        <ele>1676</ele>
        <time>2024-09-19T07:36:39Z</time>
      </trkpt>
      <trkpt lat="42.52163" lon="2.48903">
        <ele>1675</ele>
        <time>2024-09-19T07:36:41Z</time>
      </trkpt>
      <trkpt lat="42.5216" lon="2.48901">
        <ele>1675</ele>
        <time>2024-09-19T07:36:44Z</time>
      </trkpt>
      <trkpt lat="42.52157" lon="2.48898">
        <ele>1676</ele>
        <time>2024-09-19T07:36:48Z</time>
      </trkpt>
      <trkpt lat="42.52154" lon="2.48895">
        <ele>1675</ele>
        <time>2024-09-19T07:36:51Z</time>
      </trkpt>
      <trkpt lat="42.52152" lon="2.48892">
        <ele>1675</ele>
        <time>2024-09-19T07:36:54Z</time>
      </trkpt>
      <trkpt lat="42.5215" lon="2.48889">
        <ele>1676</ele>
        <time>2024-09-19T07:36:57Z</time>
      </trkpt>
      <trkpt lat="42.52148" lon="2.48885">
        <ele>1676</ele>
        <time>2024-09-19T07:37:01Z</time>
      </trkpt>
      <trkpt lat="42.52146" lon="2.48881">
        <ele>1677</ele>
        <time>2024-09-19T07:37:04Z</time>
      </trkpt>
      <trkpt lat="42.52144" lon="2.48878">
        <ele>1676</ele>
        <time>2024-09-19T07:37:08Z</time>
      </trkpt>
      <trkpt lat="42.52141" lon="2.48876">
        <ele>1676</ele>
        <time>2024-09-19T07:37:11Z</time>
      </trkpt>
      <trkpt lat="42.52139" lon="2.48873">
        <ele>1676</ele>
        <time>2024-09-19T07:37:14Z</time>
      </trkpt>
      <trkpt lat="42.52137" lon="2.4887">
        <ele>1676</ele>
        <time>2024-09-19T07:37:17Z</time>
      </trkpt>
      <trkpt lat="42.52134" lon="2.48869">
        <ele>1676</ele>
        <time>2024-09-19T07:37:22Z</time>
      </trkpt>
      <trkpt lat="42.52131" lon="2.48868">
        <ele>1675</ele>
        <time>2024-09-19T07:37:28Z</time>
      </trkpt>
      <trkpt lat="42.52128" lon="2.48867">
        <ele>1675</ele>
        <time>2024-09-19T07:37:29Z</time>
      </trkpt>
      <trkpt lat="42.52125" lon="2.48866">
        <ele>1675</ele>
        <time>2024-09-19T07:37:31Z</time>
      </trkpt>
      <trkpt lat="42.52122" lon="2.48865">
        <ele>1676</ele>
        <time>2024-09-19T07:37:33Z</time>
      </trkpt>
      <trkpt lat="42.52119" lon="2.48865">
        <ele>1674</ele>
        <time>2024-09-19T07:37:36Z</time>
      </trkpt>
      <trkpt lat="42.52116" lon="2.48863">
        <ele>1675</ele>
        <time>2024-09-19T07:37:39Z</time>
      </trkpt>
      <trkpt lat="42.52114" lon="2.48859">
        <ele>1674</ele>
        <time>2024-09-19T07:37:42Z</time>
      </trkpt>
      <trkpt lat="42.52112" lon="2.48856">
        <ele>1674</ele>
        <time>2024-09-19T07:37:45Z</time>
      </trkpt>
      <trkpt lat="42.52111" lon="2.48851">
        <ele>1674</ele>
        <time>2024-09-19T07:37:48Z</time>
      </trkpt>
      <trkpt lat="42.5211" lon="2.48847">
        <ele>1674</ele>
        <time>2024-09-19T07:37:50Z</time>
      </trkpt>
      <trkpt lat="42.5211" lon="2.48843">
        <ele>1675</ele>
        <time>2024-09-19T07:37:54Z</time>
      </trkpt>
      <trkpt lat="42.5211" lon="2.48839">
        <ele>1675</ele>
        <time>2024-09-19T07:37:57Z</time>
      </trkpt>
      <trkpt lat="42.5211" lon="2.48835">
        <ele>1676</ele>
        <time>2024-09-19T07:37:59Z</time>
      </trkpt>
      <trkpt lat="42.5211" lon="2.48831">
        <ele>1675</ele>
        <time>2024-09-19T07:38:01Z</time>
      </trkpt>
      <trkpt lat="42.5211" lon="2.48826">
        <ele>1677</ele>
        <time>2024-09-19T07:38:04Z</time>
      </trkpt>
      <trkpt lat="42.52109" lon="2.48822">
        <ele>1676</ele>
        <time>2024-09-19T07:38:09Z</time>
      </trkpt>
      <trkpt lat="42.52109" lon="2.48817">
        <ele>1676</ele>
        <time>2024-09-19T07:38:12Z</time>
      </trkpt>
      <trkpt lat="42.52108" lon="2.48813">
        <ele>1676</ele>
        <time>2024-09-19T07:38:14Z</time>
      </trkpt>
      <trkpt lat="42.52107" lon="2.48809">
        <ele>1676</ele>
        <time>2024-09-19T07:38:16Z</time>
      </trkpt>
      <trkpt lat="42.52107" lon="2.48805">
        <ele>1675</ele>
        <time>2024-09-19T07:38:18Z</time>
      </trkpt>
      <trkpt lat="42.52107" lon="2.48801">
        <ele>1677</ele>
        <time>2024-09-19T07:38:22Z</time>
      </trkpt>
      <trkpt lat="42.52107" lon="2.48793">
        <ele>1675</ele>
        <time>2024-09-19T07:38:24Z</time>
      </trkpt>
      <trkpt lat="42.52106" lon="2.48791">
        <ele>1677</ele>
        <time>2024-09-19T07:38:26Z</time>
      </trkpt>
      <trkpt lat="42.52103" lon="2.48792">
        <ele>1676</ele>
        <time>2024-09-19T07:38:29Z</time>
      </trkpt>
      <trkpt lat="42.521" lon="2.48792">
        <ele>1676</ele>
        <time>2024-09-19T07:38:31Z</time>
      </trkpt>
      <trkpt lat="42.52096" lon="2.48793">
        <ele>1676</ele>
        <time>2024-09-19T07:38:33Z</time>
      </trkpt>
      <trkpt lat="42.52093" lon="2.48793">
        <ele>1676</ele>
        <time>2024-09-19T07:38:37Z</time>
      </trkpt>
      <trkpt lat="42.5209" lon="2.48794">
        <ele>1676</ele>
        <time>2024-09-19T07:38:40Z</time>
      </trkpt>
      <trkpt lat="42.52086" lon="2.48793">
        <ele>1677</ele>
        <time>2024-09-19T07:38:43Z</time>
      </trkpt>
      <trkpt lat="42.52082" lon="2.48793">
        <ele>1676</ele>
        <time>2024-09-19T07:38:46Z</time>
      </trkpt>
      <trkpt lat="42.52079" lon="2.48794">
        <ele>1676</ele>
        <time>2024-09-19T07:38:49Z</time>
      </trkpt>
      <trkpt lat="42.52076" lon="2.48795">
        <ele>1676</ele>
        <time>2024-09-19T07:38:51Z</time>
      </trkpt>
      <trkpt lat="42.52073" lon="2.48795">
        <ele>1677</ele>
        <time>2024-09-19T07:38:54Z</time>
      </trkpt>
      <trkpt lat="42.52069" lon="2.48797">
        <ele>1676</ele>
        <time>2024-09-19T07:38:58Z</time>
      </trkpt>
      <trkpt lat="42.52066" lon="2.48799">
        <ele>1676</ele>
        <time>2024-09-19T07:39:01Z</time>
      </trkpt>
      <trkpt lat="42.52066" lon="2.48805">
        <ele>1678</ele>
        <time>2024-09-19T07:39:28Z</time>
      </trkpt>
      <trkpt lat="42.52064" lon="2.48806">
        <ele>1675</ele>
        <time>2024-09-19T07:40:24Z</time>
      </trkpt>
      <trkpt lat="42.52063" lon="2.48804">
        <ele>1677</ele>
        <time>2024-09-19T07:40:46Z</time>
      </trkpt>
      <trkpt lat="42.5206" lon="2.48805">
        <ele>1676</ele>
        <time>2024-09-19T07:40:48Z</time>
      </trkpt>
      <trkpt lat="42.52057" lon="2.48804">
        <ele>1677</ele>
        <time>2024-09-19T07:40:50Z</time>
      </trkpt>
      <trkpt lat="42.52054" lon="2.48807">
        <ele>1676</ele>
        <time>2024-09-19T07:40:54Z</time>
      </trkpt>
      <trkpt lat="42.52052" lon="2.4881">
        <ele>1676</ele>
        <time>2024-09-19T07:40:57Z</time>
      </trkpt>
      <trkpt lat="42.52048" lon="2.48812">
        <ele>1674</ele>
        <time>2024-09-19T07:41:01Z</time>
      </trkpt>
      <trkpt lat="42.52044" lon="2.48811">
        <ele>1675</ele>
        <time>2024-09-19T07:41:04Z</time>
      </trkpt>
      <trkpt lat="42.5204" lon="2.4881">
        <ele>1675</ele>
        <time>2024-09-19T07:41:10Z</time>
      </trkpt>
      <trkpt lat="42.52037" lon="2.48809">
        <ele>1677</ele>
        <time>2024-09-19T07:41:13Z</time>
      </trkpt>
      <trkpt lat="42.52033" lon="2.48808">
        <ele>1676</ele>
        <time>2024-09-19T07:41:16Z</time>
      </trkpt>
      <trkpt lat="42.5203" lon="2.48806">
        <ele>1675</ele>
        <time>2024-09-19T07:41:19Z</time>
      </trkpt>
      <trkpt lat="42.52027" lon="2.48805">
        <ele>1675</ele>
        <time>2024-09-19T07:41:22Z</time>
      </trkpt>
      <trkpt lat="42.52023" lon="2.48802">
        <ele>1674</ele>
        <time>2024-09-19T07:41:25Z</time>
      </trkpt>
      <trkpt lat="42.5202" lon="2.488">
        <ele>1674</ele>
        <time>2024-09-19T07:41:27Z</time>
      </trkpt>
      <trkpt lat="42.52018" lon="2.48798">
        <ele>1674</ele>
        <time>2024-09-19T07:41:30Z</time>
      </trkpt>
      <trkpt lat="42.52015" lon="2.48795">
        <ele>1674</ele>
        <time>2024-09-19T07:41:32Z</time>
      </trkpt>
      <trkpt lat="42.52012" lon="2.48794">
        <ele>1673</ele>
        <time>2024-09-19T07:41:35Z</time>
      </trkpt>
      <trkpt lat="42.52009" lon="2.48792">
        <ele>1673</ele>
        <time>2024-09-19T07:41:38Z</time>
      </trkpt>
      <trkpt lat="42.52007" lon="2.48789">
        <ele>1673</ele>
        <time>2024-09-19T07:41:41Z</time>
      </trkpt>
      <trkpt lat="42.52004" lon="2.48786">
        <ele>1672</ele>
        <time>2024-09-19T07:41:43Z</time>
      </trkpt>
      <trkpt lat="42.52002" lon="2.48782">
        <ele>1673</ele>
        <time>2024-09-19T07:41:46Z</time>
      </trkpt>
      <trkpt lat="42.52" lon="2.48779">
        <ele>1673</ele>
        <time>2024-09-19T07:41:49Z</time>
      </trkpt>
      <trkpt lat="42.51998" lon="2.48774">
        <ele>1674</ele>
        <time>2024-09-19T07:41:52Z</time>
      </trkpt>
      <trkpt lat="42.51996" lon="2.4877">
        <ele>1673</ele>
        <time>2024-09-19T07:41:55Z</time>
      </trkpt>
      <trkpt lat="42.51995" lon="2.48765">
        <ele>1672</ele>
        <time>2024-09-19T07:41:58Z</time>
      </trkpt>
      <trkpt lat="42.51994" lon="2.48761">
        <ele>1675</ele>
        <time>2024-09-19T07:42:00Z</time>
      </trkpt>
      <trkpt lat="42.51992" lon="2.48756">
        <ele>1674</ele>
        <time>2024-09-19T07:42:03Z</time>
      </trkpt>
      <trkpt lat="42.5199" lon="2.48751">
        <ele>1674</ele>
        <time>2024-09-19T07:42:06Z</time>
      </trkpt>
      <trkpt lat="42.51988" lon="2.48747">
        <ele>1676</ele>
        <time>2024-09-19T07:42:09Z</time>
      </trkpt>
      <trkpt lat="42.51985" lon="2.48744">
        <ele>1675</ele>
        <time>2024-09-19T07:42:12Z</time>
      </trkpt>
      <trkpt lat="42.51983" lon="2.4874">
        <ele>1675</ele>
        <time>2024-09-19T07:42:15Z</time>
      </trkpt>
      <trkpt lat="42.5198" lon="2.48737">
        <ele>1675</ele>
        <time>2024-09-19T07:42:17Z</time>
      </trkpt>
      <trkpt lat="42.51978" lon="2.48733">
        <ele>1675</ele>
        <time>2024-09-19T07:42:20Z</time>
      </trkpt>
      <trkpt lat="42.51975" lon="2.4873">
        <ele>1675</ele>
        <time>2024-09-19T07:42:23Z</time>
      </trkpt>
      <trkpt lat="42.51972" lon="2.48728">
        <ele>1676</ele>
        <time>2024-09-19T07:42:26Z</time>
      </trkpt>
      <trkpt lat="42.5197" lon="2.48724">
        <ele>1675</ele>
        <time>2024-09-19T07:42:29Z</time>
      </trkpt>
      <trkpt lat="42.51968" lon="2.48721">
        <ele>1676</ele>
        <time>2024-09-19T07:42:32Z</time>
      </trkpt>
      <trkpt lat="42.51966" lon="2.48717">
        <ele>1674</ele>
        <time>2024-09-19T07:42:35Z</time>
      </trkpt>
      <trkpt lat="42.51964" lon="2.48714">
        <ele>1674</ele>
        <time>2024-09-19T07:42:37Z</time>
      </trkpt>
      <trkpt lat="42.51961" lon="2.48711">
        <ele>1674</ele>
        <time>2024-09-19T07:42:39Z</time>
      </trkpt>
      <trkpt lat="42.5196" lon="2.48708">
        <ele>1674</ele>
        <time>2024-09-19T07:42:42Z</time>
      </trkpt>
      <trkpt lat="42.51958" lon="2.48705">
        <ele>1674</ele>
        <time>2024-09-19T07:42:45Z</time>
      </trkpt>
      <trkpt lat="42.51955" lon="2.48703">
        <ele>1674</ele>
        <time>2024-09-19T07:42:48Z</time>
      </trkpt>
      <trkpt lat="42.51953" lon="2.487">
        <ele>1674</ele>
        <time>2024-09-19T07:42:50Z</time>
      </trkpt>
      <trkpt lat="42.51951" lon="2.48697">
        <ele>1673</ele>
        <time>2024-09-19T07:42:53Z</time>
      </trkpt>
      <trkpt lat="42.51948" lon="2.48693">
        <ele>1674</ele>
        <time>2024-09-19T07:42:56Z</time>
      </trkpt>
      <trkpt lat="42.51946" lon="2.48691">
        <ele>1674</ele>
        <time>2024-09-19T07:42:58Z</time>
      </trkpt>
      <trkpt lat="42.51943" lon="2.48687">
        <ele>1674</ele>
        <time>2024-09-19T07:43:02Z</time>
      </trkpt>
      <trkpt lat="42.51944" lon="2.48684">
        <ele>1675</ele>
        <time>2024-09-19T07:43:04Z</time>
      </trkpt>
      <trkpt lat="42.51943" lon="2.4868">
        <ele>1673</ele>
        <time>2024-09-19T07:43:07Z</time>
      </trkpt>
      <trkpt lat="42.51942" lon="2.48677">
        <ele>1673</ele>
        <time>2024-09-19T07:43:11Z</time>
      </trkpt>
      <trkpt lat="42.51942" lon="2.48673">
        <ele>1672</ele>
        <time>2024-09-19T07:43:13Z</time>
      </trkpt>
      <trkpt lat="42.5194" lon="2.4867">
        <ele>1672</ele>
        <time>2024-09-19T07:43:16Z</time>
      </trkpt>
      <trkpt lat="42.51938" lon="2.48667">
        <ele>1672</ele>
        <time>2024-09-19T07:43:18Z</time>
      </trkpt>
      <trkpt lat="42.51935" lon="2.48665">
        <ele>1673</ele>
        <time>2024-09-19T07:43:21Z</time>
      </trkpt>
      <trkpt lat="42.51932" lon="2.48663">
        <ele>1674</ele>
        <time>2024-09-19T07:43:25Z</time>
      </trkpt>
      <trkpt lat="42.51929" lon="2.48662">
        <ele>1673</ele>
        <time>2024-09-19T07:43:28Z</time>
      </trkpt>
      <trkpt lat="42.51927" lon="2.48665">
        <ele>1672</ele>
        <time>2024-09-19T07:43:34Z</time>
      </trkpt>
      <trkpt lat="42.51926" lon="2.48668">
        <ele>1672</ele>
        <time>2024-09-19T07:43:38Z</time>
      </trkpt>
      <trkpt lat="42.51927" lon="2.48669">
        <ele>1672</ele>
        <time>2024-09-19T07:43:48Z</time>
      </trkpt>
      <trkpt lat="42.51926" lon="2.48669">
        <ele>1673</ele>
        <time>2024-09-19T07:43:54Z</time>
      </trkpt>
      <trkpt lat="42.51927" lon="2.48671">
        <ele>1676</ele>
        <time>2024-09-19T07:44:05Z</time>
      </trkpt>
      <trkpt lat="42.51927" lon="2.48675">
        <ele>1674</ele>
        <time>2024-09-19T07:44:10Z</time>
      </trkpt>
      <trkpt lat="42.51926" lon="2.48679">
        <ele>1672</ele>
        <time>2024-09-19T07:44:15Z</time>
      </trkpt>
      <trkpt lat="42.51925" lon="2.48683">
        <ele>1672</ele>
        <time>2024-09-19T07:44:17Z</time>
      </trkpt>
      <trkpt lat="42.51924" lon="2.48687">
        <ele>1671</ele>
        <time>2024-09-19T07:44:20Z</time>
      </trkpt>
      <trkpt lat="42.51923" lon="2.48691">
        <ele>1670</ele>
        <time>2024-09-19T07:44:22Z</time>
      </trkpt>
      <trkpt lat="42.51922" lon="2.48694">
        <ele>1670</ele>
        <time>2024-09-19T07:44:25Z</time>
      </trkpt>
      <trkpt lat="42.5192" lon="2.48698">
        <ele>1669</ele>
        <time>2024-09-19T07:44:28Z</time>
      </trkpt>
      <trkpt lat="42.51918" lon="2.487">
        <ele>1668</ele>
        <time>2024-09-19T07:44:31Z</time>
      </trkpt>
      <trkpt lat="42.51915" lon="2.48699">
        <ele>1669</ele>
        <time>2024-09-19T07:44:34Z</time>
      </trkpt>
      <trkpt lat="42.51912" lon="2.48697">
        <ele>1667</ele>
        <time>2024-09-19T07:44:37Z</time>
      </trkpt>
      <trkpt lat="42.51909" lon="2.48695">
        <ele>1668</ele>
        <time>2024-09-19T07:44:40Z</time>
      </trkpt>
      <trkpt lat="42.51905" lon="2.48693">
        <ele>1668</ele>
        <time>2024-09-19T07:44:43Z</time>
      </trkpt>
      <trkpt lat="42.51902" lon="2.48691">
        <ele>1666</ele>
        <time>2024-09-19T07:44:46Z</time>
      </trkpt>
      <trkpt lat="42.51899" lon="2.48689">
        <ele>1666</ele>
        <time>2024-09-19T07:44:48Z</time>
      </trkpt>
      <trkpt lat="42.51897" lon="2.48687">
        <ele>1667</ele>
        <time>2024-09-19T07:44:51Z</time>
      </trkpt>
      <trkpt lat="42.51893" lon="2.48687">
        <ele>1668</ele>
        <time>2024-09-19T07:44:54Z</time>
      </trkpt>
      <trkpt lat="42.5189" lon="2.48686">
        <ele>1667</ele>
        <time>2024-09-19T07:44:57Z</time>
      </trkpt>
      <trkpt lat="42.51887" lon="2.48687">
        <ele>1668</ele>
        <time>2024-09-19T07:44:59Z</time>
      </trkpt>
      <trkpt lat="42.51884" lon="2.48686">
        <ele>1668</ele>
        <time>2024-09-19T07:45:02Z</time>
      </trkpt>
      <trkpt lat="42.51882" lon="2.48684">
        <ele>1665</ele>
        <time>2024-09-19T07:45:06Z</time>
      </trkpt>
      <trkpt lat="42.5188" lon="2.48681">
        <ele>1666</ele>
        <time>2024-09-19T07:45:10Z</time>
      </trkpt>
      <trkpt lat="42.51876" lon="2.48679">
        <ele>1667</ele>
        <time>2024-09-19T07:45:13Z</time>
      </trkpt>
      <trkpt lat="42.51875" lon="2.48676">
        <ele>1666</ele>
        <time>2024-09-19T07:45:21Z</time>
      </trkpt>
      <trkpt lat="42.51873" lon="2.48676">
        <ele>1667</ele>
        <time>2024-09-19T07:45:22Z</time>
      </trkpt>
      <trkpt lat="42.5187" lon="2.48677">
        <ele>1667</ele>
        <time>2024-09-19T07:45:28Z</time>
      </trkpt>
      <trkpt lat="42.51868" lon="2.48679">
        <ele>1665</ele>
        <time>2024-09-19T07:45:31Z</time>
      </trkpt>
      <trkpt lat="42.51869" lon="2.48683">
        <ele>1665</ele>
        <time>2024-09-19T07:45:34Z</time>
      </trkpt>
      <trkpt lat="42.51871" lon="2.48684">
        <ele>1669</ele>
        <time>2024-09-19T07:45:46Z</time>
      </trkpt>
      <trkpt lat="42.51871" lon="2.48687">
        <ele>1668</ele>
        <time>2024-09-19T07:45:55Z</time>
      </trkpt>
      <trkpt lat="42.51872" lon="2.48689">
        <ele>1668</ele>
        <time>2024-09-19T07:45:55Z</time>
      </trkpt>
      <trkpt lat="42.51872" lon="2.48688">
        <ele>1668</ele>
        <time>2024-09-19T07:46:22Z</time>
      </trkpt>
      <trkpt lat="42.51871" lon="2.48686">
        <ele>1669</ele>
        <time>2024-09-19T07:46:38Z</time>
      </trkpt>
      <trkpt lat="42.51871" lon="2.48687">
        <ele>1670</ele>
        <time>2024-09-19T07:46:53Z</time>
      </trkpt>
      <trkpt lat="42.51873" lon="2.48686">
        <ele>1671</ele>
        <time>2024-09-19T07:46:58Z</time>
      </trkpt>
      <trkpt lat="42.51873" lon="2.48689">
        <ele>1671</ele>
        <time>2024-09-19T07:47:03Z</time>
      </trkpt>
      <trkpt lat="42.51875" lon="2.48687">
        <ele>1671</ele>
        <time>2024-09-19T07:47:19Z</time>
      </trkpt>
      <trkpt lat="42.51873" lon="2.48687">
        <ele>1671</ele>
        <time>2024-09-19T07:47:29Z</time>
      </trkpt>
      <trkpt lat="42.51873" lon="2.4869">
        <ele>1671</ele>
        <time>2024-09-19T07:47:40Z</time>
      </trkpt>
      <trkpt lat="42.51872" lon="2.48693">
        <ele>1670</ele>
        <time>2024-09-19T07:47:42Z</time>
      </trkpt>
      <trkpt lat="42.51872" lon="2.48697">
        <ele>1669</ele>
        <time>2024-09-19T07:47:45Z</time>
      </trkpt>
      <trkpt lat="42.51872" lon="2.48696">
        <ele>1667</ele>
        <time>2024-09-19T07:48:06Z</time>
      </trkpt>
      <trkpt lat="42.51871" lon="2.48699">
        <ele>1666</ele>
        <time>2024-09-19T07:48:08Z</time>
      </trkpt>
      <trkpt lat="42.51869" lon="2.48703">
        <ele>1666</ele>
        <time>2024-09-19T07:48:10Z</time>
      </trkpt>
      <trkpt lat="42.51867" lon="2.48706">
        <ele>1665</ele>
        <time>2024-09-19T07:48:13Z</time>
      </trkpt>
      <trkpt lat="42.51865" lon="2.48709">
        <ele>1667</ele>
        <time>2024-09-19T07:48:15Z</time>
      </trkpt>
      <trkpt lat="42.51863" lon="2.48712">
        <ele>1666</ele>
        <time>2024-09-19T07:48:17Z</time>
      </trkpt>
      <trkpt lat="42.51861" lon="2.48715">
        <ele>1666</ele>
        <time>2024-09-19T07:48:19Z</time>
      </trkpt>
      <trkpt lat="42.5186" lon="2.48719">
        <ele>1667</ele>
        <time>2024-09-19T07:48:22Z</time>
      </trkpt>
      <trkpt lat="42.51858" lon="2.48723">
        <ele>1667</ele>
        <time>2024-09-19T07:48:24Z</time>
      </trkpt>
      <trkpt lat="42.51858" lon="2.48727">
        <ele>1666</ele>
        <time>2024-09-19T07:48:27Z</time>
      </trkpt>
      <trkpt lat="42.5186" lon="2.48731">
        <ele>1666</ele>
        <time>2024-09-19T07:48:29Z</time>
      </trkpt>
      <trkpt lat="42.51861" lon="2.48735">
        <ele>1666</ele>
        <time>2024-09-19T07:48:33Z</time>
      </trkpt>
      <trkpt lat="42.51861" lon="2.48741">
        <ele>1666</ele>
        <time>2024-09-19T07:48:37Z</time>
      </trkpt>
      <trkpt lat="42.51862" lon="2.48746">
        <ele>1665</ele>
        <time>2024-09-19T07:48:40Z</time>
      </trkpt>
      <trkpt lat="42.51864" lon="2.48749">
        <ele>1664</ele>
        <time>2024-09-19T07:48:43Z</time>
      </trkpt>
      <trkpt lat="42.51863" lon="2.48753">
        <ele>1663</ele>
        <time>2024-09-19T07:48:46Z</time>
      </trkpt>
      <trkpt lat="42.51861" lon="2.48755">
        <ele>1664</ele>
        <time>2024-09-19T07:48:48Z</time>
      </trkpt>
      <trkpt lat="42.51858" lon="2.48756">
        <ele>1663</ele>
        <time>2024-09-19T07:48:51Z</time>
      </trkpt>
      <trkpt lat="42.51855" lon="2.48756">
        <ele>1662</ele>
        <time>2024-09-19T07:48:54Z</time>
      </trkpt>
      <trkpt lat="42.51851" lon="2.48758">
        <ele>1663</ele>
        <time>2024-09-19T07:48:57Z</time>
      </trkpt>
      <trkpt lat="42.51848" lon="2.48758">
        <ele>1663</ele>
        <time>2024-09-19T07:49:00Z</time>
      </trkpt>
      <trkpt lat="42.51844" lon="2.4876">
        <ele>1664</ele>
        <time>2024-09-19T07:49:03Z</time>
      </trkpt>
      <trkpt lat="42.51841" lon="2.48761">
        <ele>1664</ele>
        <time>2024-09-19T07:49:05Z</time>
      </trkpt>
      <trkpt lat="42.51837" lon="2.48763">
        <ele>1665</ele>
        <time>2024-09-19T07:49:08Z</time>
      </trkpt>
      <trkpt lat="42.51834" lon="2.48766">
        <ele>1666</ele>
        <time>2024-09-19T07:49:10Z</time>
      </trkpt>
      <trkpt lat="42.51831" lon="2.48767">
        <ele>1666</ele>
        <time>2024-09-19T07:49:12Z</time>
      </trkpt>
      <trkpt lat="42.51829" lon="2.4877">
        <ele>1666</ele>
        <time>2024-09-19T07:49:14Z</time>
      </trkpt>
      <trkpt lat="42.51826" lon="2.48772">
        <ele>1666</ele>
        <time>2024-09-19T07:49:17Z</time>
      </trkpt>
      <trkpt lat="42.51823" lon="2.48774">
        <ele>1666</ele>
        <time>2024-09-19T07:49:20Z</time>
      </trkpt>
      <trkpt lat="42.51821" lon="2.48777">
        <ele>1666</ele>
        <time>2024-09-19T07:49:22Z</time>
      </trkpt>
      <trkpt lat="42.51819" lon="2.4878">
        <ele>1666</ele>
        <time>2024-09-19T07:49:25Z</time>
      </trkpt>
      <trkpt lat="42.51816" lon="2.48783">
        <ele>1666</ele>
        <time>2024-09-19T07:49:28Z</time>
      </trkpt>
      <trkpt lat="42.51813" lon="2.48787">
        <ele>1666</ele>
        <time>2024-09-19T07:49:31Z</time>
      </trkpt>
      <trkpt lat="42.5181" lon="2.48789">
        <ele>1666</ele>
        <time>2024-09-19T07:49:34Z</time>
      </trkpt>
      <trkpt lat="42.51808" lon="2.48792">
        <ele>1666</ele>
        <time>2024-09-19T07:49:38Z</time>
      </trkpt>
      <trkpt lat="42.51805" lon="2.48795">
        <ele>1666</ele>
        <time>2024-09-19T07:49:40Z</time>
      </trkpt>
      <trkpt lat="42.51803" lon="2.488">
        <ele>1666</ele>
        <time>2024-09-19T07:49:42Z</time>
      </trkpt>
      <trkpt lat="42.51803" lon="2.48805">
        <ele>1666</ele>
        <time>2024-09-19T07:49:45Z</time>
      </trkpt>
      <trkpt lat="42.51804" lon="2.48809">
        <ele>1666</ele>
        <time>2024-09-19T07:49:48Z</time>
      </trkpt>
      <trkpt lat="42.51804" lon="2.48814">
        <ele>1665</ele>
        <time>2024-09-19T07:49:53Z</time>
      </trkpt>
      <trkpt lat="42.51805" lon="2.48819">
        <ele>1666</ele>
        <time>2024-09-19T07:49:55Z</time>
      </trkpt>
      <trkpt lat="42.51806" lon="2.48823">
        <ele>1667</ele>
        <time>2024-09-19T07:49:58Z</time>
      </trkpt>
      <trkpt lat="42.51808" lon="2.48826">
        <ele>1666</ele>
        <time>2024-09-19T07:50:02Z</time>
      </trkpt>
      <trkpt lat="42.5181" lon="2.48829">
        <ele>1666</ele>
        <time>2024-09-19T07:50:03Z</time>
      </trkpt>
      <trkpt lat="42.51812" lon="2.48832">
        <ele>1666</ele>
        <time>2024-09-19T07:50:06Z</time>
      </trkpt>
      <trkpt lat="42.51815" lon="2.48834">
        <ele>1665</ele>
        <time>2024-09-19T07:50:09Z</time>
      </trkpt>
      <trkpt lat="42.51818" lon="2.48836">
        <ele>1666</ele>
        <time>2024-09-19T07:50:12Z</time>
      </trkpt>
      <trkpt lat="42.5182" lon="2.48839">
        <ele>1666</ele>
        <time>2024-09-19T07:50:14Z</time>
      </trkpt>
      <trkpt lat="42.51823" lon="2.48842">
        <ele>1668</ele>
        <time>2024-09-19T07:50:16Z</time>
      </trkpt>
      <trkpt lat="42.51825" lon="2.48845">
        <ele>1666</ele>
        <time>2024-09-19T07:50:19Z</time>
      </trkpt>
      <trkpt lat="42.51826" lon="2.48849">
        <ele>1665</ele>
        <time>2024-09-19T07:50:22Z</time>
      </trkpt>
      <trkpt lat="42.51827" lon="2.48854">
        <ele>1664</ele>
        <time>2024-09-19T07:50:25Z</time>
      </trkpt>
      <trkpt lat="42.51829" lon="2.48858">
        <ele>1664</ele>
        <time>2024-09-19T07:50:27Z</time>
      </trkpt>
      <trkpt lat="42.51828" lon="2.48862">
        <ele>1662</ele>
        <time>2024-09-19T07:50:30Z</time>
      </trkpt>
      <trkpt lat="42.51829" lon="2.48866">
        <ele>1662</ele>
        <time>2024-09-19T07:50:33Z</time>
      </trkpt>
      <trkpt lat="42.51831" lon="2.48869">
        <ele>1661</ele>
        <time>2024-09-19T07:50:36Z</time>
      </trkpt>
      <trkpt lat="42.51833" lon="2.48873">
        <ele>1661</ele>
        <time>2024-09-19T07:50:38Z</time>
      </trkpt>
      <trkpt lat="42.51834" lon="2.48877">
        <ele>1660</ele>
        <time>2024-09-19T07:50:40Z</time>
      </trkpt>
      <trkpt lat="42.51837" lon="2.4888">
        <ele>1661</ele>
        <time>2024-09-19T07:50:43Z</time>
      </trkpt>
      <trkpt lat="42.5184" lon="2.48884">
        <ele>1661</ele>
        <time>2024-09-19T07:50:45Z</time>
      </trkpt>
      <trkpt lat="42.51841" lon="2.48889">
        <ele>1662</ele>
        <time>2024-09-19T07:50:49Z</time>
      </trkpt>
      <trkpt lat="42.51841" lon="2.48893">
        <ele>1660</ele>
        <time>2024-09-19T07:50:52Z</time>
      </trkpt>
      <trkpt lat="42.51841" lon="2.48897">
        <ele>1660</ele>
        <time>2024-09-19T07:50:54Z</time>
      </trkpt>
      <trkpt lat="42.51839" lon="2.48901">
        <ele>1660</ele>
        <time>2024-09-19T07:50:57Z</time>
      </trkpt>
      <trkpt lat="42.51838" lon="2.48905">
        <ele>1661</ele>
        <time>2024-09-19T07:50:59Z</time>
      </trkpt>
      <trkpt lat="42.51838" lon="2.48909">
        <ele>1660</ele>
        <time>2024-09-19T07:51:02Z</time>
      </trkpt>
      <trkpt lat="42.51837" lon="2.48913">
        <ele>1660</ele>
        <time>2024-09-19T07:51:04Z</time>
      </trkpt>
      <trkpt lat="42.51837" lon="2.48917">
        <ele>1660</ele>
        <time>2024-09-19T07:51:06Z</time>
      </trkpt>
      <trkpt lat="42.51838" lon="2.48921">
        <ele>1661</ele>
        <time>2024-09-19T07:51:08Z</time>
      </trkpt>
      <trkpt lat="42.51839" lon="2.48925">
        <ele>1660</ele>
        <time>2024-09-19T07:51:12Z</time>
      </trkpt>
      <trkpt lat="42.51838" lon="2.48929">
        <ele>1659</ele>
        <time>2024-09-19T07:51:15Z</time>
      </trkpt>
      <trkpt lat="42.51839" lon="2.48933">
        <ele>1661</ele>
        <time>2024-09-19T07:51:16Z</time>
      </trkpt>
      <trkpt lat="42.51838" lon="2.48938">
        <ele>1660</ele>
        <time>2024-09-19T07:51:19Z</time>
      </trkpt>
      <trkpt lat="42.51839" lon="2.48941">
        <ele>1660</ele>
        <time>2024-09-19T07:51:22Z</time>
      </trkpt>
      <trkpt lat="42.5184" lon="2.48945">
        <ele>1661</ele>
        <time>2024-09-19T07:51:25Z</time>
      </trkpt>
      <trkpt lat="42.51839" lon="2.48949">
        <ele>1661</ele>
        <time>2024-09-19T07:51:28Z</time>
      </trkpt>
      <trkpt lat="42.5184" lon="2.48954">
        <ele>1661</ele>
        <time>2024-09-19T07:51:30Z</time>
      </trkpt>
      <trkpt lat="42.51839" lon="2.48961">
        <ele>1660</ele>
        <time>2024-09-19T07:51:33Z</time>
      </trkpt>
      <trkpt lat="42.51838" lon="2.48965">
        <ele>1661</ele>
        <time>2024-09-19T07:51:37Z</time>
      </trkpt>
      <trkpt lat="42.51835" lon="2.48965">
        <ele>1660</ele>
        <time>2024-09-19T07:51:40Z</time>
      </trkpt>
      <trkpt lat="42.51832" lon="2.48964">
        <ele>1660</ele>
        <time>2024-09-19T07:51:43Z</time>
      </trkpt>
      <trkpt lat="42.5183" lon="2.48965">
        <ele>1661</ele>
        <time>2024-09-19T07:51:45Z</time>
      </trkpt>
      <trkpt lat="42.51826" lon="2.48966">
        <ele>1661</ele>
        <time>2024-09-19T07:51:48Z</time>
      </trkpt>
      <trkpt lat="42.51823" lon="2.48968">
        <ele>1662</ele>
        <time>2024-09-19T07:51:51Z</time>
      </trkpt>
      <trkpt lat="42.51821" lon="2.48971">
        <ele>1662</ele>
        <time>2024-09-19T07:51:54Z</time>
      </trkpt>
      <trkpt lat="42.5182" lon="2.48977">
        <ele>1664</ele>
        <time>2024-09-19T07:51:57Z</time>
      </trkpt>
      <trkpt lat="42.5182" lon="2.48982">
        <ele>1663</ele>
        <time>2024-09-19T07:52:00Z</time>
      </trkpt>
      <trkpt lat="42.5182" lon="2.48987">
        <ele>1663</ele>
        <time>2024-09-19T07:52:03Z</time>
      </trkpt>
      <trkpt lat="42.51821" lon="2.48991">
        <ele>1662</ele>
        <time>2024-09-19T07:52:05Z</time>
      </trkpt>
      <trkpt lat="42.51822" lon="2.48995">
        <ele>1663</ele>
        <time>2024-09-19T07:52:07Z</time>
      </trkpt>
      <trkpt lat="42.51822" lon="2.49">
        <ele>1664</ele>
        <time>2024-09-19T07:52:10Z</time>
      </trkpt>
      <trkpt lat="42.51822" lon="2.49004">
        <ele>1664</ele>
        <time>2024-09-19T07:52:12Z</time>
      </trkpt>
      <trkpt lat="42.51822" lon="2.49009">
        <ele>1665</ele>
        <time>2024-09-19T07:52:15Z</time>
      </trkpt>
      <trkpt lat="42.51821" lon="2.49014">
        <ele>1663</ele>
        <time>2024-09-19T07:52:17Z</time>
      </trkpt>
      <trkpt lat="42.5182" lon="2.49019">
        <ele>1665</ele>
        <time>2024-09-19T07:52:20Z</time>
      </trkpt>
      <trkpt lat="42.5182" lon="2.49024">
        <ele>1664</ele>
        <time>2024-09-19T07:52:22Z</time>
      </trkpt>
      <trkpt lat="42.51821" lon="2.49028">
        <ele>1665</ele>
        <time>2024-09-19T07:52:25Z</time>
      </trkpt>
      <trkpt lat="42.51823" lon="2.49032">
        <ele>1663</ele>
        <time>2024-09-19T07:52:27Z</time>
      </trkpt>
      <trkpt lat="42.51823" lon="2.49035">
        <ele>1663</ele>
        <time>2024-09-19T07:52:29Z</time>
      </trkpt>
      <trkpt lat="42.51823" lon="2.4904">
        <ele>1663</ele>
        <time>2024-09-19T07:52:32Z</time>
      </trkpt>
      <trkpt lat="42.51823" lon="2.49044">
        <ele>1663</ele>
        <time>2024-09-19T07:52:34Z</time>
      </trkpt>
      <trkpt lat="42.51824" lon="2.49048">
        <ele>1662</ele>
        <time>2024-09-19T07:52:35Z</time>
      </trkpt>
      <trkpt lat="42.51824" lon="2.49052">
        <ele>1660</ele>
        <time>2024-09-19T07:52:40Z</time>
      </trkpt>
      <trkpt lat="42.51824" lon="2.49057">
        <ele>1660</ele>
        <time>2024-09-19T07:52:42Z</time>
      </trkpt>
      <trkpt lat="42.51823" lon="2.49062">
        <ele>1661</ele>
        <time>2024-09-19T07:52:44Z</time>
      </trkpt>
      <trkpt lat="42.51823" lon="2.49066">
        <ele>1662</ele>
        <time>2024-09-19T07:52:46Z</time>
      </trkpt>
      <trkpt lat="42.51821" lon="2.4907">
        <ele>1662</ele>
        <time>2024-09-19T07:52:49Z</time>
      </trkpt>
      <trkpt lat="42.51821" lon="2.49074">
        <ele>1663</ele>
        <time>2024-09-19T07:52:52Z</time>
      </trkpt>
      <trkpt lat="42.51821" lon="2.49078">
        <ele>1662</ele>
        <time>2024-09-19T07:52:53Z</time>
      </trkpt>
      <trkpt lat="42.51821" lon="2.49082">
        <ele>1663</ele>
        <time>2024-09-19T07:52:55Z</time>
      </trkpt>
      <trkpt lat="42.5182" lon="2.49086">
        <ele>1663</ele>
        <time>2024-09-19T07:52:58Z</time>
      </trkpt>
      <trkpt lat="42.5182" lon="2.4909">
        <ele>1661</ele>
        <time>2024-09-19T07:52:59Z</time>
      </trkpt>
      <trkpt lat="42.51819" lon="2.49094">
        <ele>1662</ele>
        <time>2024-09-19T07:53:02Z</time>
      </trkpt>
      <trkpt lat="42.51819" lon="2.49098">
        <ele>1662</ele>
        <time>2024-09-19T07:53:04Z</time>
      </trkpt>
      <trkpt lat="42.51819" lon="2.49103">
        <ele>1662</ele>
        <time>2024-09-19T07:53:06Z</time>
      </trkpt>
      <trkpt lat="42.51819" lon="2.49107">
        <ele>1662</ele>
        <time>2024-09-19T07:53:09Z</time>
      </trkpt>
      <trkpt lat="42.51819" lon="2.49112">
        <ele>1662</ele>
        <time>2024-09-19T07:53:12Z</time>
      </trkpt>
      <trkpt lat="42.51818" lon="2.49116">
        <ele>1661</ele>
        <time>2024-09-19T07:53:14Z</time>
      </trkpt>
      <trkpt lat="42.51816" lon="2.49119">
        <ele>1662</ele>
        <time>2024-09-19T07:53:16Z</time>
      </trkpt>
      <trkpt lat="42.51817" lon="2.49124">
        <ele>1662</ele>
        <time>2024-09-19T07:53:19Z</time>
      </trkpt>
      <trkpt lat="42.51818" lon="2.49128">
        <ele>1662</ele>
        <time>2024-09-19T07:53:21Z</time>
      </trkpt>
      <trkpt lat="42.51819" lon="2.49132">
        <ele>1663</ele>
        <time>2024-09-19T07:53:24Z</time>
      </trkpt>
      <trkpt lat="42.5182" lon="2.49136">
        <ele>1663</ele>
        <time>2024-09-19T07:53:26Z</time>
      </trkpt>
      <trkpt lat="42.5182" lon="2.4914">
        <ele>1662</ele>
        <time>2024-09-19T07:53:28Z</time>
      </trkpt>
      <trkpt lat="42.51822" lon="2.49144">
        <ele>1662</ele>
        <time>2024-09-19T07:53:29Z</time>
      </trkpt>
      <trkpt lat="42.51823" lon="2.49148">
        <ele>1662</ele>
        <time>2024-09-19T07:53:32Z</time>
      </trkpt>
      <trkpt lat="42.51822" lon="2.49153">
        <ele>1661</ele>
        <time>2024-09-19T07:53:34Z</time>
      </trkpt>
      <trkpt lat="42.51821" lon="2.49157">
        <ele>1662</ele>
        <time>2024-09-19T07:53:37Z</time>
      </trkpt>
      <trkpt lat="42.51819" lon="2.4916">
        <ele>1660</ele>
        <time>2024-09-19T07:53:41Z</time>
      </trkpt>
      <trkpt lat="42.51818" lon="2.49164">
        <ele>1661</ele>
        <time>2024-09-19T07:53:43Z</time>
      </trkpt>
      <trkpt lat="42.51818" lon="2.49168">
        <ele>1661</ele>
        <time>2024-09-19T07:53:46Z</time>
      </trkpt>
      <trkpt lat="42.51818" lon="2.49173">
        <ele>1662</ele>
        <time>2024-09-19T07:53:49Z</time>
      </trkpt>
      <trkpt lat="42.51818" lon="2.49177">
        <ele>1659</ele>
        <time>2024-09-19T07:53:52Z</time>
      </trkpt>
      <trkpt lat="42.51819" lon="2.49181">
        <ele>1660</ele>
        <time>2024-09-19T07:53:54Z</time>
      </trkpt>
      <trkpt lat="42.5182" lon="2.49186">
        <ele>1660</ele>
        <time>2024-09-19T07:53:56Z</time>
      </trkpt>
      <trkpt lat="42.51822" lon="2.4919">
        <ele>1661</ele>
        <time>2024-09-19T07:53:58Z</time>
      </trkpt>
      <trkpt lat="42.51822" lon="2.49194">
        <ele>1659</ele>
        <time>2024-09-19T07:54:00Z</time>
      </trkpt>
      <trkpt lat="42.51822" lon="2.49198">
        <ele>1659</ele>
        <time>2024-09-19T07:54:02Z</time>
      </trkpt>
      <trkpt lat="42.51823" lon="2.49201">
        <ele>1659</ele>
        <time>2024-09-19T07:54:04Z</time>
      </trkpt>
      <trkpt lat="42.51824" lon="2.49206">
        <ele>1659</ele>
        <time>2024-09-19T07:54:06Z</time>
      </trkpt>
      <trkpt lat="42.51824" lon="2.49212">
        <ele>1659</ele>
        <time>2024-09-19T07:54:11Z</time>
      </trkpt>
      <trkpt lat="42.51825" lon="2.49217">
        <ele>1659</ele>
        <time>2024-09-19T07:54:16Z</time>
      </trkpt>
      <trkpt lat="42.51826" lon="2.49223">
        <ele>1659</ele>
        <time>2024-09-19T07:54:18Z</time>
      </trkpt>
      <trkpt lat="42.51827" lon="2.49229">
        <ele>1659</ele>
        <time>2024-09-19T07:54:21Z</time>
      </trkpt>
      <trkpt lat="42.51828" lon="2.49234">
        <ele>1659</ele>
        <time>2024-09-19T07:54:24Z</time>
      </trkpt>
      <trkpt lat="42.51828" lon="2.49239">
        <ele>1659</ele>
        <time>2024-09-19T07:54:27Z</time>
      </trkpt>
      <trkpt lat="42.51826" lon="2.49243">
        <ele>1656</ele>
        <time>2024-09-19T07:54:32Z</time>
      </trkpt>
      <trkpt lat="42.51824" lon="2.49246">
        <ele>1654</ele>
        <time>2024-09-19T07:54:34Z</time>
      </trkpt>
      <trkpt lat="42.51822" lon="2.49246">
        <ele>1655</ele>
        <time>2024-09-19T07:54:37Z</time>
      </trkpt>
      <trkpt lat="42.51819" lon="2.49245">
        <ele>1656</ele>
        <time>2024-09-19T07:54:39Z</time>
      </trkpt>
      <trkpt lat="42.51816" lon="2.49243">
        <ele>1655</ele>
        <time>2024-09-19T07:54:42Z</time>
      </trkpt>
      <trkpt lat="42.51813" lon="2.49242">
        <ele>1654</ele>
        <time>2024-09-19T07:54:44Z</time>
      </trkpt>
      <trkpt lat="42.5181" lon="2.49242">
        <ele>1655</ele>
        <time>2024-09-19T07:54:46Z</time>
      </trkpt>
      <trkpt lat="42.51806" lon="2.49241">
        <ele>1655</ele>
        <time>2024-09-19T07:54:49Z</time>
      </trkpt>
      <trkpt lat="42.51803" lon="2.49239">
        <ele>1655</ele>
        <time>2024-09-19T07:54:51Z</time>
      </trkpt>
      <trkpt lat="42.51801" lon="2.49238">
        <ele>1655</ele>
        <time>2024-09-19T07:54:54Z</time>
      </trkpt>
      <trkpt lat="42.51798" lon="2.49238">
        <ele>1656</ele>
        <time>2024-09-19T07:54:58Z</time>
      </trkpt>
      <trkpt lat="42.51795" lon="2.49238">
        <ele>1657</ele>
        <time>2024-09-19T07:55:00Z</time>
      </trkpt>
      <trkpt lat="42.51792" lon="2.49238">
        <ele>1656</ele>
        <time>2024-09-19T07:55:02Z</time>
      </trkpt>
      <trkpt lat="42.51789" lon="2.49238">
        <ele>1656</ele>
        <time>2024-09-19T07:55:04Z</time>
      </trkpt>
      <trkpt lat="42.51786" lon="2.49239">
        <ele>1659</ele>
        <time>2024-09-19T07:55:06Z</time>
      </trkpt>
      <trkpt lat="42.51782" lon="2.49239">
        <ele>1657</ele>
        <time>2024-09-19T07:55:09Z</time>
      </trkpt>
      <trkpt lat="42.51779" lon="2.49238">
        <ele>1658</ele>
        <time>2024-09-19T07:55:11Z</time>
      </trkpt>
      <trkpt lat="42.51775" lon="2.49237">
        <ele>1658</ele>
        <time>2024-09-19T07:55:14Z</time>
      </trkpt>
      <trkpt lat="42.51771" lon="2.49236">
        <ele>1659</ele>
        <time>2024-09-19T07:55:17Z</time>
      </trkpt>
      <trkpt lat="42.51768" lon="2.49235">
        <ele>1660</ele>
        <time>2024-09-19T07:55:19Z</time>
      </trkpt>
      <trkpt lat="42.51765" lon="2.49233">
        <ele>1658</ele>
        <time>2024-09-19T07:55:22Z</time>
      </trkpt>
      <trkpt lat="42.51762" lon="2.49233">
        <ele>1659</ele>
        <time>2024-09-19T07:55:25Z</time>
      </trkpt>
      <trkpt lat="42.51759" lon="2.49232">
        <ele>1658</ele>
        <time>2024-09-19T07:55:27Z</time>
      </trkpt>
      <trkpt lat="42.51756" lon="2.49232">
        <ele>1659</ele>
        <time>2024-09-19T07:55:29Z</time>
      </trkpt>
      <trkpt lat="42.51753" lon="2.49231">
        <ele>1659</ele>
        <time>2024-09-19T07:55:32Z</time>
      </trkpt>
      <trkpt lat="42.51749" lon="2.4923">
        <ele>1660</ele>
        <time>2024-09-19T07:55:35Z</time>
      </trkpt>
      <trkpt lat="42.51746" lon="2.49228">
        <ele>1660</ele>
        <time>2024-09-19T07:55:39Z</time>
      </trkpt>
      <trkpt lat="42.51743" lon="2.49226">
        <ele>1661</ele>
        <time>2024-09-19T07:55:42Z</time>
      </trkpt>
      <trkpt lat="42.51741" lon="2.49222">
        <ele>1659</ele>
        <time>2024-09-19T07:55:44Z</time>
      </trkpt>
      <trkpt lat="42.51738" lon="2.49221">
        <ele>1660</ele>
        <time>2024-09-19T07:55:47Z</time>
      </trkpt>
      <trkpt lat="42.51735" lon="2.4922">
        <ele>1660</ele>
        <time>2024-09-19T07:55:49Z</time>
      </trkpt>
      <trkpt lat="42.51732" lon="2.49219">
        <ele>1659</ele>
        <time>2024-09-19T07:55:53Z</time>
      </trkpt>
      <trkpt lat="42.51729" lon="2.49217">
        <ele>1660</ele>
        <time>2024-09-19T07:55:55Z</time>
      </trkpt>
      <trkpt lat="42.51726" lon="2.49217">
        <ele>1660</ele>
        <time>2024-09-19T07:55:57Z</time>
      </trkpt>
      <trkpt lat="42.51723" lon="2.49215">
        <ele>1660</ele>
        <time>2024-09-19T07:56:00Z</time>
      </trkpt>
      <trkpt lat="42.51721" lon="2.49215">
        <ele>1662</ele>
        <time>2024-09-19T07:56:01Z</time>
      </trkpt>
      <trkpt lat="42.51718" lon="2.49215">
        <ele>1660</ele>
        <time>2024-09-19T07:56:03Z</time>
      </trkpt>
      <trkpt lat="42.51715" lon="2.49213">
        <ele>1660</ele>
        <time>2024-09-19T07:56:06Z</time>
      </trkpt>
      <trkpt lat="42.51712" lon="2.49213">
        <ele>1661</ele>
        <time>2024-09-19T07:56:09Z</time>
      </trkpt>
      <trkpt lat="42.51709" lon="2.49215">
        <ele>1660</ele>
        <time>2024-09-19T07:56:12Z</time>
      </trkpt>
      <trkpt lat="42.51707" lon="2.49218">
        <ele>1660</ele>
        <time>2024-09-19T07:56:14Z</time>
      </trkpt>
      <trkpt lat="42.51704" lon="2.49221">
        <ele>1662</ele>
        <time>2024-09-19T07:56:17Z</time>
      </trkpt>
      <trkpt lat="42.51701" lon="2.49224">
        <ele>1661</ele>
        <time>2024-09-19T07:56:19Z</time>
      </trkpt>
      <trkpt lat="42.51699" lon="2.49227">
        <ele>1662</ele>
        <time>2024-09-19T07:56:22Z</time>
      </trkpt>
      <trkpt lat="42.51696" lon="2.4923">
        <ele>1662</ele>
        <time>2024-09-19T07:56:23Z</time>
      </trkpt>
      <trkpt lat="42.51693" lon="2.49232">
        <ele>1662</ele>
        <time>2024-09-19T07:56:26Z</time>
      </trkpt>
      <trkpt lat="42.5169" lon="2.49234">
        <ele>1662</ele>
        <time>2024-09-19T07:56:29Z</time>
      </trkpt>
      <trkpt lat="42.51688" lon="2.49237">
        <ele>1662</ele>
        <time>2024-09-19T07:56:32Z</time>
      </trkpt>
      <trkpt lat="42.51686" lon="2.49241">
        <ele>1662</ele>
        <time>2024-09-19T07:56:35Z</time>
      </trkpt>
      <trkpt lat="42.51685" lon="2.49245">
        <ele>1661</ele>
        <time>2024-09-19T07:56:38Z</time>
      </trkpt>
      <trkpt lat="42.51682" lon="2.49249">
        <ele>1661</ele>
        <time>2024-09-19T07:56:41Z</time>
      </trkpt>
      <trkpt lat="42.5168" lon="2.49253">
        <ele>1660</ele>
        <time>2024-09-19T07:56:44Z</time>
      </trkpt>
      <trkpt lat="42.51678" lon="2.49256">
        <ele>1660</ele>
        <time>2024-09-19T07:56:46Z</time>
      </trkpt>
      <trkpt lat="42.51676" lon="2.4926">
        <ele>1661</ele>
        <time>2024-09-19T07:56:49Z</time>
      </trkpt>
      <trkpt lat="42.51676" lon="2.49264">
        <ele>1661</ele>
        <time>2024-09-19T07:56:52Z</time>
      </trkpt>
      <trkpt lat="42.51674" lon="2.49268">
        <ele>1661</ele>
        <time>2024-09-19T07:56:55Z</time>
      </trkpt>
      <trkpt lat="42.51672" lon="2.49272">
        <ele>1662</ele>
        <time>2024-09-19T07:56:57Z</time>
      </trkpt>
      <trkpt lat="42.51671" lon="2.49276">
        <ele>1662</ele>
        <time>2024-09-19T07:57:00Z</time>
      </trkpt>
      <trkpt lat="42.5167" lon="2.4928">
        <ele>1662</ele>
        <time>2024-09-19T07:57:03Z</time>
      </trkpt>
      <trkpt lat="42.51669" lon="2.49285">
        <ele>1662</ele>
        <time>2024-09-19T07:57:06Z</time>
      </trkpt>
      <trkpt lat="42.51666" lon="2.49287">
        <ele>1661</ele>
        <time>2024-09-19T07:57:09Z</time>
      </trkpt>
      <trkpt lat="42.51663" lon="2.49288">
        <ele>1661</ele>
        <time>2024-09-19T07:57:12Z</time>
      </trkpt>
      <trkpt lat="42.5166" lon="2.49291">
        <ele>1661</ele>
        <time>2024-09-19T07:57:14Z</time>
      </trkpt>
      <trkpt lat="42.51659" lon="2.49296">
        <ele>1661</ele>
        <time>2024-09-19T07:57:17Z</time>
      </trkpt>
      <trkpt lat="42.51659" lon="2.49301">
        <ele>1661</ele>
        <time>2024-09-19T07:57:20Z</time>
      </trkpt>
      <trkpt lat="42.5166" lon="2.49304">
        <ele>1662</ele>
        <time>2024-09-19T07:57:24Z</time>
      </trkpt>
      <trkpt lat="42.51662" lon="2.49307">
        <ele>1662</ele>
        <time>2024-09-19T07:57:26Z</time>
      </trkpt>
      <trkpt lat="42.51666" lon="2.49309">
        <ele>1662</ele>
        <time>2024-09-19T07:57:29Z</time>
      </trkpt>
      <trkpt lat="42.51669" lon="2.4931">
        <ele>1662</ele>
        <time>2024-09-19T07:57:32Z</time>
      </trkpt>
      <trkpt lat="42.51672" lon="2.49314">
        <ele>1662</ele>
        <time>2024-09-19T07:57:37Z</time>
      </trkpt>
      <trkpt lat="42.51671" lon="2.49317">
        <ele>1661</ele>
        <time>2024-09-19T07:57:39Z</time>
      </trkpt>
      <trkpt lat="42.51671" lon="2.49321">
        <ele>1661</ele>
        <time>2024-09-19T07:57:42Z</time>
      </trkpt>
      <trkpt lat="42.5167" lon="2.49325">
        <ele>1661</ele>
        <time>2024-09-19T07:57:44Z</time>
      </trkpt>
      <trkpt lat="42.51669" lon="2.49329">
        <ele>1660</ele>
        <time>2024-09-19T07:57:47Z</time>
      </trkpt>
      <trkpt lat="42.51667" lon="2.49333">
        <ele>1660</ele>
        <time>2024-09-19T07:57:50Z</time>
      </trkpt>
      <trkpt lat="42.51665" lon="2.49337">
        <ele>1660</ele>
        <time>2024-09-19T07:57:53Z</time>
      </trkpt>
      <trkpt lat="42.51663" lon="2.4934">
        <ele>1659</ele>
        <time>2024-09-19T07:57:55Z</time>
      </trkpt>
      <trkpt lat="42.51661" lon="2.49342">
        <ele>1660</ele>
        <time>2024-09-19T07:57:59Z</time>
      </trkpt>
      <trkpt lat="42.51658" lon="2.49344">
        <ele>1659</ele>
        <time>2024-09-19T07:58:03Z</time>
      </trkpt>
      <trkpt lat="42.51655" lon="2.49346">
        <ele>1659</ele>
        <time>2024-09-19T07:58:06Z</time>
      </trkpt>
      <trkpt lat="42.51652" lon="2.49346">
        <ele>1658</ele>
        <time>2024-09-19T07:58:10Z</time>
      </trkpt>
      <trkpt lat="42.51649" lon="2.49344">
        <ele>1657</ele>
        <time>2024-09-19T07:58:15Z</time>
      </trkpt>
      <trkpt lat="42.51646" lon="2.49342">
        <ele>1657</ele>
        <time>2024-09-19T07:58:17Z</time>
      </trkpt>
      <trkpt lat="42.51643" lon="2.4934">
        <ele>1658</ele>
        <time>2024-09-19T07:58:20Z</time>
      </trkpt>
      <trkpt lat="42.5164" lon="2.49339">
        <ele>1658</ele>
        <time>2024-09-19T07:58:24Z</time>
      </trkpt>
      <trkpt lat="42.51637" lon="2.4934">
        <ele>1658</ele>
        <time>2024-09-19T07:58:27Z</time>
      </trkpt>
      <trkpt lat="42.51637" lon="2.49342">
        <ele>1658</ele>
        <time>2024-09-19T07:58:29Z</time>
      </trkpt>
      <trkpt lat="42.51637" lon="2.49346">
        <ele>1658</ele>
        <time>2024-09-19T07:58:32Z</time>
      </trkpt>
      <trkpt lat="42.51635" lon="2.4935">
        <ele>1659</ele>
        <time>2024-09-19T07:58:35Z</time>
      </trkpt>
      <trkpt lat="42.51633" lon="2.49352">
        <ele>1658</ele>
        <time>2024-09-19T07:58:38Z</time>
      </trkpt>
      <trkpt lat="42.5163" lon="2.49353">
        <ele>1657</ele>
        <time>2024-09-19T07:58:42Z</time>
      </trkpt>
      <trkpt lat="42.51627" lon="2.49354">
        <ele>1659</ele>
        <time>2024-09-19T07:58:44Z</time>
      </trkpt>
      <trkpt lat="42.51624" lon="2.49355">
        <ele>1660</ele>
        <time>2024-09-19T07:58:47Z</time>
      </trkpt>
      <trkpt lat="42.51621" lon="2.49356">
        <ele>1660</ele>
        <time>2024-09-19T07:58:51Z</time>
      </trkpt>
      <trkpt lat="42.51618" lon="2.49356">
        <ele>1661</ele>
        <time>2024-09-19T07:58:53Z</time>
      </trkpt>
      <trkpt lat="42.51616" lon="2.49359">
        <ele>1660</ele>
        <time>2024-09-19T07:58:57Z</time>
      </trkpt>
      <trkpt lat="42.51614" lon="2.49364">
        <ele>1662</ele>
        <time>2024-09-19T07:59:00Z</time>
      </trkpt>
      <trkpt lat="42.51614" lon="2.49368">
        <ele>1662</ele>
        <time>2024-09-19T07:59:03Z</time>
      </trkpt>
      <trkpt lat="42.51616" lon="2.49371">
        <ele>1661</ele>
        <time>2024-09-19T07:59:06Z</time>
      </trkpt>
      <trkpt lat="42.51618" lon="2.49373">
        <ele>1661</ele>
        <time>2024-09-19T07:59:08Z</time>
      </trkpt>
      <trkpt lat="42.51621" lon="2.49374">
        <ele>1660</ele>
        <time>2024-09-19T07:59:10Z</time>
      </trkpt>
      <trkpt lat="42.51624" lon="2.49374">
        <ele>1659</ele>
        <time>2024-09-19T07:59:14Z</time>
      </trkpt>
      <trkpt lat="42.51626" lon="2.49375">
        <ele>1660</ele>
        <time>2024-09-19T07:59:16Z</time>
      </trkpt>
      <trkpt lat="42.51628" lon="2.49378">
        <ele>1660</ele>
        <time>2024-09-19T07:59:20Z</time>
      </trkpt>
      <trkpt lat="42.5163" lon="2.49382">
        <ele>1660</ele>
        <time>2024-09-19T07:59:24Z</time>
      </trkpt>
      <trkpt lat="42.5163" lon="2.49386">
        <ele>1660</ele>
        <time>2024-09-19T07:59:30Z</time>
      </trkpt>
      <trkpt lat="42.5163" lon="2.4939">
        <ele>1658</ele>
        <time>2024-09-19T07:59:41Z</time>
      </trkpt>
      <trkpt lat="42.51629" lon="2.49394">
        <ele>1659</ele>
        <time>2024-09-19T07:59:43Z</time>
      </trkpt>
      <trkpt lat="42.51628" lon="2.49397">
        <ele>1659</ele>
        <time>2024-09-19T07:59:47Z</time>
      </trkpt>
      <trkpt lat="42.51627" lon="2.49401">
        <ele>1659</ele>
        <time>2024-09-19T07:59:50Z</time>
      </trkpt>
      <trkpt lat="42.51625" lon="2.49404">
        <ele>1659</ele>
        <time>2024-09-19T07:59:53Z</time>
      </trkpt>
      <trkpt lat="42.51623" lon="2.49407">
        <ele>1659</ele>
        <time>2024-09-19T07:59:56Z</time>
      </trkpt>
      <trkpt lat="42.5162" lon="2.49409">
        <ele>1659</ele>
        <time>2024-09-19T08:00:01Z</time>
      </trkpt>
      <trkpt lat="42.51617" lon="2.49412">
        <ele>1659</ele>
        <time>2024-09-19T08:00:05Z</time>
      </trkpt>
      <trkpt lat="42.51615" lon="2.49415">
        <ele>1659</ele>
        <time>2024-09-19T08:00:08Z</time>
      </trkpt>
      <trkpt lat="42.51614" lon="2.49418">
        <ele>1661</ele>
        <time>2024-09-19T08:00:14Z</time>
      </trkpt>
      <trkpt lat="42.51613" lon="2.49422">
        <ele>1662</ele>
        <time>2024-09-19T08:00:16Z</time>
      </trkpt>
      <trkpt lat="42.51612" lon="2.49426">
        <ele>1663</ele>
        <time>2024-09-19T08:00:19Z</time>
      </trkpt>
      <trkpt lat="42.5161" lon="2.49431">
        <ele>1662</ele>
        <time>2024-09-19T08:00:22Z</time>
      </trkpt>
      <trkpt lat="42.51609" lon="2.49434">
        <ele>1661</ele>
        <time>2024-09-19T08:00:25Z</time>
      </trkpt>
      <trkpt lat="42.51608" lon="2.49438">
        <ele>1661</ele>
        <time>2024-09-19T08:00:27Z</time>
      </trkpt>
      <trkpt lat="42.51607" lon="2.49442">
        <ele>1661</ele>
        <time>2024-09-19T08:00:30Z</time>
      </trkpt>
      <trkpt lat="42.51606" lon="2.49446">
        <ele>1660</ele>
        <time>2024-09-19T08:00:33Z</time>
      </trkpt>
      <trkpt lat="42.51604" lon="2.4945">
        <ele>1662</ele>
        <time>2024-09-19T08:00:37Z</time>
      </trkpt>
      <trkpt lat="42.51603" lon="2.49453">
        <ele>1661</ele>
        <time>2024-09-19T08:00:39Z</time>
      </trkpt>
      <trkpt lat="42.51601" lon="2.49456">
        <ele>1663</ele>
        <time>2024-09-19T08:00:41Z</time>
      </trkpt>
      <trkpt lat="42.516" lon="2.49459">
        <ele>1662</ele>
        <time>2024-09-19T08:00:44Z</time>
      </trkpt>
      <trkpt lat="42.51598" lon="2.49462">
        <ele>1663</ele>
        <time>2024-09-19T08:00:47Z</time>
      </trkpt>
      <trkpt lat="42.51597" lon="2.49466">
        <ele>1661</ele>
        <time>2024-09-19T08:00:50Z</time>
      </trkpt>
      <trkpt lat="42.51596" lon="2.4947">
        <ele>1662</ele>
        <time>2024-09-19T08:00:53Z</time>
      </trkpt>
      <trkpt lat="42.51596" lon="2.49475">
        <ele>1662</ele>
        <time>2024-09-19T08:00:56Z</time>
      </trkpt>
      <trkpt lat="42.51595" lon="2.4948">
        <ele>1663</ele>
        <time>2024-09-19T08:00:58Z</time>
      </trkpt>
      <trkpt lat="42.51595" lon="2.49485">
        <ele>1664</ele>
        <time>2024-09-19T08:01:01Z</time>
      </trkpt>
      <trkpt lat="42.51594" lon="2.49489">
        <ele>1663</ele>
        <time>2024-09-19T08:01:05Z</time>
      </trkpt>
      <trkpt lat="42.51594" lon="2.49493">
        <ele>1663</ele>
        <time>2024-09-19T08:01:07Z</time>
      </trkpt>
      <trkpt lat="42.51594" lon="2.49497">
        <ele>1665</ele>
        <time>2024-09-19T08:01:09Z</time>
      </trkpt>
      <trkpt lat="42.51594" lon="2.49501">
        <ele>1664</ele>
        <time>2024-09-19T08:01:12Z</time>
      </trkpt>
      <trkpt lat="42.51594" lon="2.49505">
        <ele>1664</ele>
        <time>2024-09-19T08:01:14Z</time>
      </trkpt>
      <trkpt lat="42.51595" lon="2.4951">
        <ele>1664</ele>
        <time>2024-09-19T08:01:17Z</time>
      </trkpt>
      <trkpt lat="42.51595" lon="2.49514">
        <ele>1665</ele>
        <time>2024-09-19T08:01:20Z</time>
      </trkpt>
      <trkpt lat="42.51595" lon="2.49519">
        <ele>1665</ele>
        <time>2024-09-19T08:01:23Z</time>
      </trkpt>
      <trkpt lat="42.51595" lon="2.49523">
        <ele>1663</ele>
        <time>2024-09-19T08:01:26Z</time>
      </trkpt>
      <trkpt lat="42.51595" lon="2.49528">
        <ele>1662</ele>
        <time>2024-09-19T08:01:29Z</time>
      </trkpt>
      <trkpt lat="42.51594" lon="2.49532">
        <ele>1662</ele>
        <time>2024-09-19T08:01:32Z</time>
      </trkpt>
      <trkpt lat="42.51591" lon="2.49536">
        <ele>1660</ele>
        <time>2024-09-19T08:01:36Z</time>
      </trkpt>
      <trkpt lat="42.51591" lon="2.49541">
        <ele>1660</ele>
        <time>2024-09-19T08:01:41Z</time>
      </trkpt>
      <trkpt lat="42.51594" lon="2.49545">
        <ele>1659</ele>
        <time>2024-09-19T08:01:43Z</time>
      </trkpt>
      <trkpt lat="42.51595" lon="2.49548">
        <ele>1658</ele>
        <time>2024-09-19T08:01:46Z</time>
      </trkpt>
      <trkpt lat="42.51598" lon="2.4955">
        <ele>1659</ele>
        <time>2024-09-19T08:01:49Z</time>
      </trkpt>
      <trkpt lat="42.516" lon="2.49553">
        <ele>1657</ele>
        <time>2024-09-19T08:01:52Z</time>
      </trkpt>
      <trkpt lat="42.51603" lon="2.49556">
        <ele>1658</ele>
        <time>2024-09-19T08:01:54Z</time>
      </trkpt>
      <trkpt lat="42.51606" lon="2.49558">
        <ele>1657</ele>
        <time>2024-09-19T08:01:57Z</time>
      </trkpt>
      <trkpt lat="42.51608" lon="2.49561">
        <ele>1658</ele>
        <time>2024-09-19T08:02:00Z</time>
      </trkpt>
      <trkpt lat="42.5161" lon="2.49565">
        <ele>1657</ele>
        <time>2024-09-19T08:02:03Z</time>
      </trkpt>
      <trkpt lat="42.51612" lon="2.49569">
        <ele>1660</ele>
        <time>2024-09-19T08:02:09Z</time>
      </trkpt>
      <trkpt lat="42.51614" lon="2.49573">
        <ele>1659</ele>
        <time>2024-09-19T08:02:12Z</time>
      </trkpt>
      <trkpt lat="42.51616" lon="2.49576">
        <ele>1659</ele>
        <time>2024-09-19T08:02:14Z</time>
      </trkpt>
      <trkpt lat="42.51618" lon="2.49579">
        <ele>1659</ele>
        <time>2024-09-19T08:02:16Z</time>
      </trkpt>
      <trkpt lat="42.5162" lon="2.49583">
        <ele>1659</ele>
        <time>2024-09-19T08:02:19Z</time>
      </trkpt>
      <trkpt lat="42.51623" lon="2.49586">
        <ele>1657</ele>
        <time>2024-09-19T08:02:22Z</time>
      </trkpt>
      <trkpt lat="42.51625" lon="2.49589">
        <ele>1659</ele>
        <time>2024-09-19T08:02:26Z</time>
      </trkpt>
      <trkpt lat="42.51628" lon="2.49592">
        <ele>1659</ele>
        <time>2024-09-19T08:02:28Z</time>
      </trkpt>
      <trkpt lat="42.51631" lon="2.49595">
        <ele>1659</ele>
        <time>2024-09-19T08:02:31Z</time>
      </trkpt>
      <trkpt lat="42.51632" lon="2.49599">
        <ele>1660</ele>
        <time>2024-09-19T08:02:33Z</time>
      </trkpt>
      <trkpt lat="42.51632" lon="2.49603">
        <ele>1659</ele>
        <time>2024-09-19T08:02:36Z</time>
      </trkpt>
      <trkpt lat="42.51634" lon="2.49606">
        <ele>1659</ele>
        <time>2024-09-19T08:02:39Z</time>
      </trkpt>
      <trkpt lat="42.51637" lon="2.49608">
        <ele>1657</ele>
        <time>2024-09-19T08:02:41Z</time>
      </trkpt>
      <trkpt lat="42.5164" lon="2.4961">
        <ele>1658</ele>
        <time>2024-09-19T08:02:43Z</time>
      </trkpt>
      <trkpt lat="42.51642" lon="2.49613">
        <ele>1657</ele>
        <time>2024-09-19T08:02:45Z</time>
      </trkpt>
      <trkpt lat="42.51644" lon="2.49617">
        <ele>1658</ele>
        <time>2024-09-19T08:02:49Z</time>
      </trkpt>
      <trkpt lat="42.51646" lon="2.4962">
        <ele>1657</ele>
        <time>2024-09-19T08:02:52Z</time>
      </trkpt>
      <trkpt lat="42.51646" lon="2.49624">
        <ele>1657</ele>
        <time>2024-09-19T08:02:54Z</time>
      </trkpt>
      <trkpt lat="42.51648" lon="2.49625">
        <ele>1656</ele>
        <time>2024-09-19T08:02:56Z</time>
      </trkpt>
      <trkpt lat="42.5165" lon="2.49628">
        <ele>1656</ele>
        <time>2024-09-19T08:02:59Z</time>
      </trkpt>
      <trkpt lat="42.51652" lon="2.49631">
        <ele>1656</ele>
        <time>2024-09-19T08:03:02Z</time>
      </trkpt>
      <trkpt lat="42.51653" lon="2.49635">
        <ele>1655</ele>
        <time>2024-09-19T08:03:05Z</time>
      </trkpt>
      <trkpt lat="42.51654" lon="2.4964">
        <ele>1656</ele>
        <time>2024-09-19T08:03:08Z</time>
      </trkpt>
      <trkpt lat="42.51654" lon="2.49644">
        <ele>1656</ele>
        <time>2024-09-19T08:03:11Z</time>
      </trkpt>
      <trkpt lat="42.51655" lon="2.49648">
        <ele>1655</ele>
        <time>2024-09-19T08:03:14Z</time>
      </trkpt>
      <trkpt lat="42.51657" lon="2.49651">
        <ele>1655</ele>
        <time>2024-09-19T08:03:16Z</time>
      </trkpt>
      <trkpt lat="42.51658" lon="2.49654">
        <ele>1654</ele>
        <time>2024-09-19T08:03:18Z</time>
      </trkpt>
      <trkpt lat="42.5166" lon="2.49658">
        <ele>1654</ele>
        <time>2024-09-19T08:03:21Z</time>
      </trkpt>
      <trkpt lat="42.5166" lon="2.49662">
        <ele>1655</ele>
        <time>2024-09-19T08:03:23Z</time>
      </trkpt>
      <trkpt lat="42.51661" lon="2.49667">
        <ele>1655</ele>
        <time>2024-09-19T08:03:26Z</time>
      </trkpt>
      <trkpt lat="42.51661" lon="2.49671">
        <ele>1655</ele>
        <time>2024-09-19T08:03:28Z</time>
      </trkpt>
      <trkpt lat="42.51662" lon="2.49674">
        <ele>1655</ele>
        <time>2024-09-19T08:03:30Z</time>
      </trkpt>
      <trkpt lat="42.51663" lon="2.49678">
        <ele>1655</ele>
        <time>2024-09-19T08:03:33Z</time>
      </trkpt>
      <trkpt lat="42.51664" lon="2.49681">
        <ele>1654</ele>
        <time>2024-09-19T08:03:36Z</time>
      </trkpt>
      <trkpt lat="42.51666" lon="2.49685">
        <ele>1656</ele>
        <time>2024-09-19T08:03:38Z</time>
      </trkpt>
      <trkpt lat="42.51667" lon="2.49689">
        <ele>1655</ele>
        <time>2024-09-19T08:03:42Z</time>
      </trkpt>
      <trkpt lat="42.51668" lon="2.49693">
        <ele>1655</ele>
        <time>2024-09-19T08:03:44Z</time>
      </trkpt>
      <trkpt lat="42.51668" lon="2.49698">
        <ele>1654</ele>
        <time>2024-09-19T08:03:47Z</time>
      </trkpt>
      <trkpt lat="42.51666" lon="2.49702">
        <ele>1654</ele>
        <time>2024-09-19T08:03:50Z</time>
      </trkpt>
      <trkpt lat="42.51664" lon="2.49707">
        <ele>1654</ele>
        <time>2024-09-19T08:03:53Z</time>
      </trkpt>
      <trkpt lat="42.51664" lon="2.49711">
        <ele>1655</ele>
        <time>2024-09-19T08:03:56Z</time>
      </trkpt>
      <trkpt lat="42.51663" lon="2.49717">
        <ele>1656</ele>
        <time>2024-09-19T08:04:00Z</time>
      </trkpt>
      <trkpt lat="42.51663" lon="2.49721">
        <ele>1656</ele>
        <time>2024-09-19T08:04:02Z</time>
      </trkpt>
      <trkpt lat="42.51665" lon="2.49725">
        <ele>1657</ele>
        <time>2024-09-19T08:04:04Z</time>
      </trkpt>
      <trkpt lat="42.51667" lon="2.49728">
        <ele>1656</ele>
        <time>2024-09-19T08:04:08Z</time>
      </trkpt>
      <trkpt lat="42.51671" lon="2.49732">
        <ele>1658</ele>
        <time>2024-09-19T08:04:11Z</time>
      </trkpt>
      <trkpt lat="42.51674" lon="2.49734">
        <ele>1656</ele>
        <time>2024-09-19T08:04:15Z</time>
      </trkpt>
      <trkpt lat="42.51677" lon="2.49737">
        <ele>1656</ele>
        <time>2024-09-19T08:04:18Z</time>
      </trkpt>
      <trkpt lat="42.51679" lon="2.49741">
        <ele>1656</ele>
        <time>2024-09-19T08:04:22Z</time>
      </trkpt>
      <trkpt lat="42.51681" lon="2.49744">
        <ele>1655</ele>
        <time>2024-09-19T08:04:25Z</time>
      </trkpt>
      <trkpt lat="42.51682" lon="2.49748">
        <ele>1656</ele>
        <time>2024-09-19T08:04:27Z</time>
      </trkpt>
      <trkpt lat="42.51683" lon="2.49752">
        <ele>1655</ele>
        <time>2024-09-19T08:04:30Z</time>
      </trkpt>
      <trkpt lat="42.51684" lon="2.49756">
        <ele>1655</ele>
        <time>2024-09-19T08:04:34Z</time>
      </trkpt>
      <trkpt lat="42.51685" lon="2.4976">
        <ele>1655</ele>
        <time>2024-09-19T08:04:37Z</time>
      </trkpt>
      <trkpt lat="42.51686" lon="2.49763">
        <ele>1654</ele>
        <time>2024-09-19T08:04:39Z</time>
      </trkpt>
      <trkpt lat="42.51688" lon="2.49766">
        <ele>1655</ele>
        <time>2024-09-19T08:04:40Z</time>
      </trkpt>
      <trkpt lat="42.5169" lon="2.49769">
        <ele>1654</ele>
        <time>2024-09-19T08:04:43Z</time>
      </trkpt>
      <trkpt lat="42.5169" lon="2.49774">
        <ele>1654</ele>
        <time>2024-09-19T08:04:46Z</time>
      </trkpt>
      <trkpt lat="42.51692" lon="2.49777">
        <ele>1656</ele>
        <time>2024-09-19T08:04:48Z</time>
      </trkpt>
      <trkpt lat="42.51693" lon="2.49781">
        <ele>1655</ele>
        <time>2024-09-19T08:04:51Z</time>
      </trkpt>
      <trkpt lat="42.51694" lon="2.49785">
        <ele>1655</ele>
        <time>2024-09-19T08:04:53Z</time>
      </trkpt>
      <trkpt lat="42.51694" lon="2.49789">
        <ele>1656</ele>
        <time>2024-09-19T08:04:55Z</time>
      </trkpt>
      <trkpt lat="42.51694" lon="2.49794">
        <ele>1655</ele>
        <time>2024-09-19T08:04:58Z</time>
      </trkpt>
      <trkpt lat="42.51695" lon="2.49798">
        <ele>1656</ele>
        <time>2024-09-19T08:05:01Z</time>
      </trkpt>
      <trkpt lat="42.51698" lon="2.498">
        <ele>1655</ele>
        <time>2024-09-19T08:05:04Z</time>
      </trkpt>
      <trkpt lat="42.517" lon="2.49803">
        <ele>1656</ele>
        <time>2024-09-19T08:05:06Z</time>
      </trkpt>
      <trkpt lat="42.51703" lon="2.49806">
        <ele>1656</ele>
        <time>2024-09-19T08:05:08Z</time>
      </trkpt>
      <trkpt lat="42.51705" lon="2.4981">
        <ele>1656</ele>
        <time>2024-09-19T08:05:12Z</time>
      </trkpt>
      <trkpt lat="42.51707" lon="2.49814">
        <ele>1655</ele>
        <time>2024-09-19T08:05:16Z</time>
      </trkpt>
      <trkpt lat="42.51708" lon="2.49818">
        <ele>1655</ele>
        <time>2024-09-19T08:05:19Z</time>
      </trkpt>
      <trkpt lat="42.5171" lon="2.49821">
        <ele>1655</ele>
        <time>2024-09-19T08:05:24Z</time>
      </trkpt>
      <trkpt lat="42.51711" lon="2.49825">
        <ele>1655</ele>
        <time>2024-09-19T08:05:27Z</time>
      </trkpt>
      <trkpt lat="42.51713" lon="2.49829">
        <ele>1655</ele>
        <time>2024-09-19T08:05:30Z</time>
      </trkpt>
      <trkpt lat="42.51715" lon="2.49832">
        <ele>1655</ele>
        <time>2024-09-19T08:05:33Z</time>
      </trkpt>
      <trkpt lat="42.51716" lon="2.49836">
        <ele>1655</ele>
        <time>2024-09-19T08:05:36Z</time>
      </trkpt>
      <trkpt lat="42.51716" lon="2.4984">
        <ele>1654</ele>
        <time>2024-09-19T08:05:40Z</time>
      </trkpt>
      <trkpt lat="42.51717" lon="2.49845">
        <ele>1656</ele>
        <time>2024-09-19T08:05:44Z</time>
      </trkpt>
      <trkpt lat="42.51717" lon="2.4985">
        <ele>1655</ele>
        <time>2024-09-19T08:05:48Z</time>
      </trkpt>
      <trkpt lat="42.51719" lon="2.49854">
        <ele>1654</ele>
        <time>2024-09-19T08:05:53Z</time>
      </trkpt>
      <trkpt lat="42.51719" lon="2.49859">
        <ele>1654</ele>
        <time>2024-09-19T08:05:57Z</time>
      </trkpt>
      <trkpt lat="42.5172" lon="2.49863">
        <ele>1655</ele>
        <time>2024-09-19T08:06:24Z</time>
      </trkpt>
      <trkpt lat="42.51721" lon="2.49867">
        <ele>1657</ele>
        <time>2024-09-19T08:06:48Z</time>
      </trkpt>
      <trkpt lat="42.51721" lon="2.49871">
        <ele>1657</ele>
        <time>2024-09-19T08:06:51Z</time>
      </trkpt>
      <trkpt lat="42.51721" lon="2.49875">
        <ele>1656</ele>
        <time>2024-09-19T08:06:53Z</time>
      </trkpt>
      <trkpt lat="42.51723" lon="2.49879">
        <ele>1657</ele>
        <time>2024-09-19T08:06:56Z</time>
      </trkpt>
      <trkpt lat="42.51725" lon="2.49882">
        <ele>1656</ele>
        <time>2024-09-19T08:06:58Z</time>
      </trkpt>
      <trkpt lat="42.51727" lon="2.49885">
        <ele>1656</ele>
        <time>2024-09-19T08:07:01Z</time>
      </trkpt>
      <trkpt lat="42.5173" lon="2.49887">
        <ele>1656</ele>
        <time>2024-09-19T08:07:04Z</time>
      </trkpt>
      <trkpt lat="42.51732" lon="2.4989">
        <ele>1656</ele>
        <time>2024-09-19T08:07:06Z</time>
      </trkpt>
      <trkpt lat="42.51734" lon="2.49893">
        <ele>1656</ele>
        <time>2024-09-19T08:07:08Z</time>
      </trkpt>
      <trkpt lat="42.51736" lon="2.49897">
        <ele>1655</ele>
        <time>2024-09-19T08:07:12Z</time>
      </trkpt>
      <trkpt lat="42.51738" lon="2.499">
        <ele>1656</ele>
        <time>2024-09-19T08:07:14Z</time>
      </trkpt>
      <trkpt lat="42.51739" lon="2.49903">
        <ele>1656</ele>
        <time>2024-09-19T08:07:17Z</time>
      </trkpt>
      <trkpt lat="42.5174" lon="2.49907">
        <ele>1656</ele>
        <time>2024-09-19T08:07:21Z</time>
      </trkpt>
      <trkpt lat="42.51742" lon="2.4991">
        <ele>1656</ele>
        <time>2024-09-19T08:07:26Z</time>
      </trkpt>
      <trkpt lat="42.51744" lon="2.49914">
        <ele>1656</ele>
        <time>2024-09-19T08:07:30Z</time>
      </trkpt>
      <trkpt lat="42.51744" lon="2.49918">
        <ele>1656</ele>
        <time>2024-09-19T08:07:33Z</time>
      </trkpt>
      <trkpt lat="42.51744" lon="2.49922">
        <ele>1655</ele>
        <time>2024-09-19T08:07:38Z</time>
      </trkpt>
      <trkpt lat="42.51745" lon="2.49925">
        <ele>1656</ele>
        <time>2024-09-19T08:07:42Z</time>
      </trkpt>
      <trkpt lat="42.51746" lon="2.49928">
        <ele>1654</ele>
        <time>2024-09-19T08:08:01Z</time>
      </trkpt>
      <trkpt lat="42.51747" lon="2.49932">
        <ele>1654</ele>
        <time>2024-09-19T08:08:04Z</time>
      </trkpt>
      <trkpt lat="42.51747" lon="2.49936">
        <ele>1654</ele>
        <time>2024-09-19T08:08:06Z</time>
      </trkpt>
      <trkpt lat="42.51747" lon="2.4994">
        <ele>1654</ele>
        <time>2024-09-19T08:08:08Z</time>
      </trkpt>
      <trkpt lat="42.51748" lon="2.49944">
        <ele>1654</ele>
        <time>2024-09-19T08:08:11Z</time>
      </trkpt>
      <trkpt lat="42.51749" lon="2.49948">
        <ele>1655</ele>
        <time>2024-09-19T08:08:14Z</time>
      </trkpt>
      <trkpt lat="42.51751" lon="2.49952">
        <ele>1656</ele>
        <time>2024-09-19T08:08:16Z</time>
      </trkpt>
      <trkpt lat="42.51751" lon="2.49957">
        <ele>1656</ele>
        <time>2024-09-19T08:08:19Z</time>
      </trkpt>
      <trkpt lat="42.51752" lon="2.49961">
        <ele>1658</ele>
        <time>2024-09-19T08:08:21Z</time>
      </trkpt>
      <trkpt lat="42.51754" lon="2.49965">
        <ele>1656</ele>
        <time>2024-09-19T08:08:23Z</time>
      </trkpt>
      <trkpt lat="42.51755" lon="2.49969">
        <ele>1654</ele>
        <time>2024-09-19T08:08:27Z</time>
      </trkpt>
      <trkpt lat="42.51757" lon="2.49973">
        <ele>1656</ele>
        <time>2024-09-19T08:08:29Z</time>
      </trkpt>
      <trkpt lat="42.51759" lon="2.49976">
        <ele>1656</ele>
        <time>2024-09-19T08:08:32Z</time>
      </trkpt>
      <trkpt lat="42.51761" lon="2.49979">
        <ele>1657</ele>
        <time>2024-09-19T08:08:35Z</time>
      </trkpt>
      <trkpt lat="42.51763" lon="2.49983">
        <ele>1657</ele>
        <time>2024-09-19T08:08:39Z</time>
      </trkpt>
      <trkpt lat="42.51764" lon="2.49987">
        <ele>1657</ele>
        <time>2024-09-19T08:08:42Z</time>
      </trkpt>
      <trkpt lat="42.51766" lon="2.49991">
        <ele>1658</ele>
        <time>2024-09-19T08:08:47Z</time>
      </trkpt>
      <trkpt lat="42.51768" lon="2.49996">
        <ele>1657</ele>
        <time>2024-09-19T08:08:50Z</time>
      </trkpt>
      <trkpt lat="42.5177" lon="2.49999">
        <ele>1657</ele>
        <time>2024-09-19T08:08:52Z</time>
      </trkpt>
      <trkpt lat="42.51772" lon="2.50002">
        <ele>1658</ele>
        <time>2024-09-19T08:08:54Z</time>
      </trkpt>
      <trkpt lat="42.51775" lon="2.50006">
        <ele>1660</ele>
        <time>2024-09-19T08:08:56Z</time>
      </trkpt>
      <trkpt lat="42.51777" lon="2.50009">
        <ele>1658</ele>
        <time>2024-09-19T08:08:58Z</time>
      </trkpt>
      <trkpt lat="42.51778" lon="2.50012">
        <ele>1656</ele>
        <time>2024-09-19T08:09:01Z</time>
      </trkpt>
      <trkpt lat="42.51781" lon="2.50015">
        <ele>1655</ele>
        <time>2024-09-19T08:09:04Z</time>
      </trkpt>
      <trkpt lat="42.51782" lon="2.5002">
        <ele>1656</ele>
        <time>2024-09-19T08:09:07Z</time>
      </trkpt>
      <trkpt lat="42.5178" lon="2.50022">
        <ele>1655</ele>
        <time>2024-09-19T08:09:10Z</time>
      </trkpt>
      <trkpt lat="42.5178" lon="2.50027">
        <ele>1656</ele>
        <time>2024-09-19T08:09:12Z</time>
      </trkpt>
      <trkpt lat="42.51777" lon="2.50026">
        <ele>1654</ele>
        <time>2024-09-19T08:09:14Z</time>
      </trkpt>
      <trkpt lat="42.51775" lon="2.50028">
        <ele>1654</ele>
        <time>2024-09-19T08:09:16Z</time>
      </trkpt>
      <trkpt lat="42.51773" lon="2.50031">
        <ele>1656</ele>
        <time>2024-09-19T08:09:19Z</time>
      </trkpt>
      <trkpt lat="42.51771" lon="2.50034">
        <ele>1656</ele>
        <time>2024-09-19T08:09:21Z</time>
      </trkpt>
      <trkpt lat="42.51769" lon="2.50037">
        <ele>1655</ele>
        <time>2024-09-19T08:09:24Z</time>
      </trkpt>
      <trkpt lat="42.51767" lon="2.50041">
        <ele>1656</ele>
        <time>2024-09-19T08:09:26Z</time>
      </trkpt>
      <trkpt lat="42.51765" lon="2.50045">
        <ele>1658</ele>
        <time>2024-09-19T08:09:30Z</time>
      </trkpt>
      <trkpt lat="42.51762" lon="2.50048">
        <ele>1657</ele>
        <time>2024-09-19T08:09:33Z</time>
      </trkpt>
      <trkpt lat="42.5176" lon="2.5005">
        <ele>1657</ele>
        <time>2024-09-19T08:09:36Z</time>
      </trkpt>
      <trkpt lat="42.51757" lon="2.50053">
        <ele>1657</ele>
        <time>2024-09-19T08:09:38Z</time>
      </trkpt>
      <trkpt lat="42.51753" lon="2.50056">
        <ele>1656</ele>
        <time>2024-09-19T08:09:41Z</time>
      </trkpt>
      <trkpt lat="42.5175" lon="2.50058">
        <ele>1657</ele>
        <time>2024-09-19T08:09:44Z</time>
      </trkpt>
      <trkpt lat="42.51747" lon="2.50061">
        <ele>1659</ele>
        <time>2024-09-19T08:09:49Z</time>
      </trkpt>
      <trkpt lat="42.51745" lon="2.50064">
        <ele>1657</ele>
        <time>2024-09-19T08:09:51Z</time>
      </trkpt>
      <trkpt lat="42.51743" lon="2.50068">
        <ele>1655</ele>
        <time>2024-09-19T08:09:56Z</time>
      </trkpt>
      <trkpt lat="42.51745" lon="2.50072">
        <ele>1657</ele>
        <time>2024-09-19T08:09:58Z</time>
      </trkpt>
      <trkpt lat="42.51746" lon="2.50075">
        <ele>1657</ele>
        <time>2024-09-19T08:10:01Z</time>
      </trkpt>
      <trkpt lat="42.51747" lon="2.50079">
        <ele>1658</ele>
        <time>2024-09-19T08:10:03Z</time>
      </trkpt>
      <trkpt lat="42.51746" lon="2.50082">
        <ele>1657</ele>
        <time>2024-09-19T08:10:05Z</time>
      </trkpt>
      <trkpt lat="42.51744" lon="2.50086">
        <ele>1658</ele>
        <time>2024-09-19T08:10:08Z</time>
      </trkpt>
      <trkpt lat="42.51741" lon="2.5009">
        <ele>1659</ele>
        <time>2024-09-19T08:10:11Z</time>
      </trkpt>
      <trkpt lat="42.51737" lon="2.50093">
        <ele>1657</ele>
        <time>2024-09-19T08:10:14Z</time>
      </trkpt>
      <trkpt lat="42.51734" lon="2.50095">
        <ele>1656</ele>
        <time>2024-09-19T08:10:16Z</time>
      </trkpt>
      <trkpt lat="42.51732" lon="2.50096">
        <ele>1656</ele>
        <time>2024-09-19T08:10:18Z</time>
      </trkpt>
      <trkpt lat="42.51729" lon="2.50099">
        <ele>1656</ele>
        <time>2024-09-19T08:10:20Z</time>
      </trkpt>
      <trkpt lat="42.51726" lon="2.50102">
        <ele>1656</ele>
        <time>2024-09-19T08:10:23Z</time>
      </trkpt>
      <trkpt lat="42.51726" lon="2.50106">
        <ele>1656</ele>
        <time>2024-09-19T08:10:29Z</time>
      </trkpt>
      <trkpt lat="42.51727" lon="2.50109">
        <ele>1657</ele>
        <time>2024-09-19T08:10:34Z</time>
      </trkpt>
      <trkpt lat="42.51726" lon="2.5011">
        <ele>1659</ele>
        <time>2024-09-19T08:10:36Z</time>
      </trkpt>
      <trkpt lat="42.51728" lon="2.50111">
        <ele>1659</ele>
        <time>2024-09-19T08:10:39Z</time>
      </trkpt>
      <trkpt lat="42.51732" lon="2.50112">
        <ele>1659</ele>
        <time>2024-09-19T08:10:42Z</time>
      </trkpt>
      <trkpt lat="42.51735" lon="2.50111">
        <ele>1658</ele>
        <time>2024-09-19T08:10:46Z</time>
      </trkpt>
      <trkpt lat="42.51739" lon="2.50112">
        <ele>1658</ele>
        <time>2024-09-19T08:10:49Z</time>
      </trkpt>
      <trkpt lat="42.51741" lon="2.50113">
        <ele>1658</ele>
        <time>2024-09-19T08:10:51Z</time>
      </trkpt>
      <trkpt lat="42.51744" lon="2.50116">
        <ele>1657</ele>
        <time>2024-09-19T08:10:55Z</time>
      </trkpt>
      <trkpt lat="42.51747" lon="2.50118">
        <ele>1658</ele>
        <time>2024-09-19T08:10:58Z</time>
      </trkpt>
      <trkpt lat="42.5175" lon="2.50121">
        <ele>1657</ele>
        <time>2024-09-19T08:11:01Z</time>
      </trkpt>
      <trkpt lat="42.51753" lon="2.50124">
        <ele>1658</ele>
        <time>2024-09-19T08:11:04Z</time>
      </trkpt>
      <trkpt lat="42.51756" lon="2.50126">
        <ele>1659</ele>
        <time>2024-09-19T08:11:06Z</time>
      </trkpt>
      <trkpt lat="42.51759" lon="2.50128">
        <ele>1658</ele>
        <time>2024-09-19T08:11:10Z</time>
      </trkpt>
      <trkpt lat="42.51761" lon="2.50132">
        <ele>1659</ele>
        <time>2024-09-19T08:11:13Z</time>
      </trkpt>
      <trkpt lat="42.51763" lon="2.50134">
        <ele>1658</ele>
        <time>2024-09-19T08:11:16Z</time>
      </trkpt>
      <trkpt lat="42.51766" lon="2.50136">
        <ele>1659</ele>
        <time>2024-09-19T08:11:18Z</time>
      </trkpt>
      <trkpt lat="42.51768" lon="2.50139">
        <ele>1657</ele>
        <time>2024-09-19T08:11:22Z</time>
      </trkpt>
      <trkpt lat="42.51771" lon="2.50141">
        <ele>1657</ele>
        <time>2024-09-19T08:11:25Z</time>
      </trkpt>
      <trkpt lat="42.51774" lon="2.50144">
        <ele>1657</ele>
        <time>2024-09-19T08:11:29Z</time>
      </trkpt>
      <trkpt lat="42.51778" lon="2.50146">
        <ele>1656</ele>
        <time>2024-09-19T08:11:32Z</time>
      </trkpt>
      <trkpt lat="42.51781" lon="2.50149">
        <ele>1657</ele>
        <time>2024-09-19T08:11:35Z</time>
      </trkpt>
      <trkpt lat="42.51783" lon="2.50152">
        <ele>1656</ele>
        <time>2024-09-19T08:11:38Z</time>
      </trkpt>
      <trkpt lat="42.51785" lon="2.50156">
        <ele>1655</ele>
        <time>2024-09-19T08:11:41Z</time>
      </trkpt>
      <trkpt lat="42.51787" lon="2.5016">
        <ele>1656</ele>
        <time>2024-09-19T08:11:44Z</time>
      </trkpt>
      <trkpt lat="42.51789" lon="2.50163">
        <ele>1656</ele>
        <time>2024-09-19T08:11:47Z</time>
      </trkpt>
      <trkpt lat="42.51792" lon="2.50167">
        <ele>1656</ele>
        <time>2024-09-19T08:11:50Z</time>
      </trkpt>
      <trkpt lat="42.51794" lon="2.50171">
        <ele>1655</ele>
        <time>2024-09-19T08:11:53Z</time>
      </trkpt>
      <trkpt lat="42.51796" lon="2.50174">
        <ele>1657</ele>
        <time>2024-09-19T08:11:55Z</time>
      </trkpt>
      <trkpt lat="42.51798" lon="2.50177">
        <ele>1657</ele>
        <time>2024-09-19T08:11:58Z</time>
      </trkpt>
      <trkpt lat="42.518" lon="2.5018">
        <ele>1657</ele>
        <time>2024-09-19T08:12:00Z</time>
      </trkpt>
      <trkpt lat="42.51802" lon="2.50183">
        <ele>1657</ele>
        <time>2024-09-19T08:12:03Z</time>
      </trkpt>
      <trkpt lat="42.51804" lon="2.50187">
        <ele>1658</ele>
        <time>2024-09-19T08:12:06Z</time>
      </trkpt>
      <trkpt lat="42.51807" lon="2.50191">
        <ele>1657</ele>
        <time>2024-09-19T08:12:09Z</time>
      </trkpt>
      <trkpt lat="42.51809" lon="2.50194">
        <ele>1657</ele>
        <time>2024-09-19T08:12:13Z</time>
      </trkpt>
      <trkpt lat="42.51811" lon="2.50198">
        <ele>1656</ele>
        <time>2024-09-19T08:12:16Z</time>
      </trkpt>
      <trkpt lat="42.51813" lon="2.50202">
        <ele>1656</ele>
        <time>2024-09-19T08:12:19Z</time>
      </trkpt>
      <trkpt lat="42.51814" lon="2.50206">
        <ele>1657</ele>
        <time>2024-09-19T08:12:22Z</time>
      </trkpt>
      <trkpt lat="42.51814" lon="2.50211">
        <ele>1657</ele>
        <time>2024-09-19T08:12:25Z</time>
      </trkpt>
      <trkpt lat="42.51815" lon="2.50215">
        <ele>1656</ele>
        <time>2024-09-19T08:12:28Z</time>
      </trkpt>
      <trkpt lat="42.51816" lon="2.50219">
        <ele>1657</ele>
        <time>2024-09-19T08:12:30Z</time>
      </trkpt>
      <trkpt lat="42.51818" lon="2.50222">
        <ele>1656</ele>
        <time>2024-09-19T08:12:33Z</time>
      </trkpt>
      <trkpt lat="42.5182" lon="2.50225">
        <ele>1657</ele>
        <time>2024-09-19T08:12:35Z</time>
      </trkpt>
      <trkpt lat="42.51823" lon="2.5023">
        <ele>1656</ele>
        <time>2024-09-19T08:12:39Z</time>
      </trkpt>
      <trkpt lat="42.51824" lon="2.50235">
        <ele>1656</ele>
        <time>2024-09-19T08:12:42Z</time>
      </trkpt>
      <trkpt lat="42.51825" lon="2.50239">
        <ele>1656</ele>
        <time>2024-09-19T08:12:44Z</time>
      </trkpt>
      <trkpt lat="42.51825" lon="2.50244">
        <ele>1657</ele>
        <time>2024-09-19T08:12:46Z</time>
      </trkpt>
      <trkpt lat="42.51824" lon="2.50248">
        <ele>1656</ele>
        <time>2024-09-19T08:12:49Z</time>
      </trkpt>
      <trkpt lat="42.51825" lon="2.50251">
        <ele>1656</ele>
        <time>2024-09-19T08:12:52Z</time>
      </trkpt>
      <trkpt lat="42.51826" lon="2.50255">
        <ele>1655</ele>
        <time>2024-09-19T08:12:54Z</time>
      </trkpt>
      <trkpt lat="42.51826" lon="2.50259">
        <ele>1655</ele>
        <time>2024-09-19T08:12:56Z</time>
      </trkpt>
      <trkpt lat="42.51827" lon="2.50264">
        <ele>1656</ele>
        <time>2024-09-19T08:12:58Z</time>
      </trkpt>
      <trkpt lat="42.51828" lon="2.50269">
        <ele>1655</ele>
        <time>2024-09-19T08:13:02Z</time>
      </trkpt>
      <trkpt lat="42.51829" lon="2.50273">
        <ele>1656</ele>
        <time>2024-09-19T08:13:04Z</time>
      </trkpt>
      <trkpt lat="42.51829" lon="2.50277">
        <ele>1658</ele>
        <time>2024-09-19T08:13:06Z</time>
      </trkpt>
      <trkpt lat="42.5183" lon="2.50281">
        <ele>1657</ele>
        <time>2024-09-19T08:13:09Z</time>
      </trkpt>
      <trkpt lat="42.51831" lon="2.50286">
        <ele>1657</ele>
        <time>2024-09-19T08:13:12Z</time>
      </trkpt>
      <trkpt lat="42.51832" lon="2.50289">
        <ele>1657</ele>
        <time>2024-09-19T08:13:13Z</time>
      </trkpt>
      <trkpt lat="42.51833" lon="2.50294">
        <ele>1656</ele>
        <time>2024-09-19T08:13:16Z</time>
      </trkpt>
      <trkpt lat="42.51834" lon="2.50298">
        <ele>1658</ele>
        <time>2024-09-19T08:13:17Z</time>
      </trkpt>
      <trkpt lat="42.51835" lon="2.50302">
        <ele>1658</ele>
        <time>2024-09-19T08:13:20Z</time>
      </trkpt>
      <trkpt lat="42.51837" lon="2.50306">
        <ele>1658</ele>
        <time>2024-09-19T08:13:23Z</time>
      </trkpt>
      <trkpt lat="42.51839" lon="2.5031">
        <ele>1659</ele>
        <time>2024-09-19T08:13:25Z</time>
      </trkpt>
      <trkpt lat="42.5184" lon="2.50314">
        <ele>1657</ele>
        <time>2024-09-19T08:13:28Z</time>
      </trkpt>
      <trkpt lat="42.51841" lon="2.50317">
        <ele>1657</ele>
        <time>2024-09-19T08:13:30Z</time>
      </trkpt>
      <trkpt lat="42.51844" lon="2.50321">
        <ele>1657</ele>
        <time>2024-09-19T08:13:33Z</time>
      </trkpt>
      <trkpt lat="42.51846" lon="2.50324">
        <ele>1658</ele>
        <time>2024-09-19T08:13:36Z</time>
      </trkpt>
      <trkpt lat="42.51845" lon="2.50326">
        <ele>1656</ele>
        <time>2024-09-19T08:13:40Z</time>
      </trkpt>
      <trkpt lat="42.51845" lon="2.5033">
        <ele>1655</ele>
        <time>2024-09-19T08:13:43Z</time>
      </trkpt>
      <trkpt lat="42.51846" lon="2.50334">
        <ele>1655</ele>
        <time>2024-09-19T08:13:46Z</time>
      </trkpt>
      <trkpt lat="42.51847" lon="2.50338">
        <ele>1655</ele>
        <time>2024-09-19T08:13:50Z</time>
      </trkpt>
      <trkpt lat="42.51847" lon="2.50342">
        <ele>1654</ele>
        <time>2024-09-19T08:13:54Z</time>
      </trkpt>
      <trkpt lat="42.51848" lon="2.50346">
        <ele>1654</ele>
        <time>2024-09-19T08:13:58Z</time>
      </trkpt>
      <trkpt lat="42.51849" lon="2.5035">
        <ele>1655</ele>
        <time>2024-09-19T08:14:01Z</time>
      </trkpt>
      <trkpt lat="42.51849" lon="2.50354">
        <ele>1654</ele>
        <time>2024-09-19T08:14:07Z</time>
      </trkpt>
      <trkpt lat="42.51848" lon="2.50359">
        <ele>1653</ele>
        <time>2024-09-19T08:14:12Z</time>
      </trkpt>
      <trkpt lat="42.51848" lon="2.50364">
        <ele>1654</ele>
        <time>2024-09-19T08:14:15Z</time>
      </trkpt>
      <trkpt lat="42.51848" lon="2.5037">
        <ele>1657</ele>
        <time>2024-09-19T08:14:17Z</time>
      </trkpt>
      <trkpt lat="42.51848" lon="2.50375">
        <ele>1657</ele>
        <time>2024-09-19T08:14:20Z</time>
      </trkpt>
      <trkpt lat="42.5185" lon="2.50377">
        <ele>1656</ele>
        <time>2024-09-19T08:14:23Z</time>
      </trkpt>
      <trkpt lat="42.51852" lon="2.50377">
        <ele>1657</ele>
        <time>2024-09-19T08:14:26Z</time>
      </trkpt>
      <trkpt lat="42.51854" lon="2.5038">
        <ele>1658</ele>
        <time>2024-09-19T08:14:30Z</time>
      </trkpt>
      <trkpt lat="42.51856" lon="2.50383">
        <ele>1658</ele>
        <time>2024-09-19T08:14:32Z</time>
      </trkpt>
      <trkpt lat="42.51858" lon="2.50386">
        <ele>1658</ele>
        <time>2024-09-19T08:14:34Z</time>
      </trkpt>
      <trkpt lat="42.51859" lon="2.50389">
        <ele>1656</ele>
        <time>2024-09-19T08:14:39Z</time>
      </trkpt>
      <trkpt lat="42.5186" lon="2.50393">
        <ele>1657</ele>
        <time>2024-09-19T08:14:42Z</time>
      </trkpt>
      <trkpt lat="42.51861" lon="2.50397">
        <ele>1657</ele>
        <time>2024-09-19T08:14:45Z</time>
      </trkpt>
      <trkpt lat="42.51861" lon="2.50402">
        <ele>1658</ele>
        <time>2024-09-19T08:14:47Z</time>
      </trkpt>
      <trkpt lat="42.51861" lon="2.50406">
        <ele>1659</ele>
        <time>2024-09-19T08:14:51Z</time>
      </trkpt>
      <trkpt lat="42.51862" lon="2.50411">
        <ele>1657</ele>
        <time>2024-09-19T08:14:56Z</time>
      </trkpt>
      <trkpt lat="42.51863" lon="2.50415">
        <ele>1659</ele>
        <time>2024-09-19T08:14:58Z</time>
      </trkpt>
      <trkpt lat="42.51864" lon="2.50419">
        <ele>1657</ele>
        <time>2024-09-19T08:15:01Z</time>
      </trkpt>
      <trkpt lat="42.51865" lon="2.50423">
        <ele>1658</ele>
        <time>2024-09-19T08:15:04Z</time>
      </trkpt>
      <trkpt lat="42.51866" lon="2.50426">
        <ele>1656</ele>
        <time>2024-09-19T08:15:07Z</time>
      </trkpt>
      <trkpt lat="42.51866" lon="2.5043">
        <ele>1655</ele>
        <time>2024-09-19T08:15:10Z</time>
      </trkpt>
      <trkpt lat="42.51868" lon="2.50433">
        <ele>1655</ele>
        <time>2024-09-19T08:15:13Z</time>
      </trkpt>
      <trkpt lat="42.5187" lon="2.50435">
        <ele>1655</ele>
        <time>2024-09-19T08:15:14Z</time>
      </trkpt>
      <trkpt lat="42.51871" lon="2.50438">
        <ele>1655</ele>
        <time>2024-09-19T08:15:17Z</time>
      </trkpt>
      <trkpt lat="42.51872" lon="2.50442">
        <ele>1654</ele>
        <time>2024-09-19T08:15:21Z</time>
      </trkpt>
      <trkpt lat="42.51874" lon="2.50446">
        <ele>1654</ele>
        <time>2024-09-19T08:15:24Z</time>
      </trkpt>
      <trkpt lat="42.51875" lon="2.5045">
        <ele>1655</ele>
        <time>2024-09-19T08:15:28Z</time>
      </trkpt>
      <trkpt lat="42.51876" lon="2.50456">
        <ele>1656</ele>
        <time>2024-09-19T08:15:31Z</time>
      </trkpt>
      <trkpt lat="42.51876" lon="2.50461">
        <ele>1656</ele>
        <time>2024-09-19T08:15:35Z</time>
      </trkpt>
      <trkpt lat="42.51878" lon="2.50466">
        <ele>1655</ele>
        <time>2024-09-19T08:15:38Z</time>
      </trkpt>
      <trkpt lat="42.5188" lon="2.50469">
        <ele>1656</ele>
        <time>2024-09-19T08:15:41Z</time>
      </trkpt>
      <trkpt lat="42.51882" lon="2.50472">
        <ele>1658</ele>
        <time>2024-09-19T08:15:43Z</time>
      </trkpt>
      <trkpt lat="42.51884" lon="2.50474">
        <ele>1657</ele>
        <time>2024-09-19T08:15:45Z</time>
      </trkpt>
      <trkpt lat="42.51886" lon="2.50478">
        <ele>1656</ele>
        <time>2024-09-19T08:15:48Z</time>
      </trkpt>
      <trkpt lat="42.51887" lon="2.50482">
        <ele>1657</ele>
        <time>2024-09-19T08:15:51Z</time>
      </trkpt>
      <trkpt lat="42.51887" lon="2.50486">
        <ele>1656</ele>
        <time>2024-09-19T08:15:55Z</time>
      </trkpt>
      <trkpt lat="42.51889" lon="2.5049">
        <ele>1656</ele>
        <time>2024-09-19T08:15:57Z</time>
      </trkpt>
      <trkpt lat="42.5189" lon="2.50494">
        <ele>1656</ele>
        <time>2024-09-19T08:16:00Z</time>
      </trkpt>
      <trkpt lat="42.5189" lon="2.50498">
        <ele>1657</ele>
        <time>2024-09-19T08:16:03Z</time>
      </trkpt>
      <trkpt lat="42.51889" lon="2.50502">
        <ele>1654</ele>
        <time>2024-09-19T08:16:05Z</time>
      </trkpt>
      <trkpt lat="42.51889" lon="2.50507">
        <ele>1654</ele>
        <time>2024-09-19T08:16:09Z</time>
      </trkpt>
      <trkpt lat="42.5189" lon="2.50512">
        <ele>1655</ele>
        <time>2024-09-19T08:16:13Z</time>
      </trkpt>
      <trkpt lat="42.5189" lon="2.50517">
        <ele>1655</ele>
        <time>2024-09-19T08:16:16Z</time>
      </trkpt>
      <trkpt lat="42.51892" lon="2.5052">
        <ele>1656</ele>
        <time>2024-09-19T08:16:18Z</time>
      </trkpt>
      <trkpt lat="42.51896" lon="2.50522">
        <ele>1657</ele>
        <time>2024-09-19T08:16:22Z</time>
      </trkpt>
      <trkpt lat="42.51898" lon="2.5052">
        <ele>1650</ele>
        <time>2024-09-19T08:16:53Z</time>
      </trkpt>
      <trkpt lat="42.51901" lon="2.5052">
        <ele>1657</ele>
        <time>2024-09-19T08:17:16Z</time>
      </trkpt>
      <trkpt lat="42.51901" lon="2.50522">
        <ele>1657</ele>
        <time>2024-09-19T08:17:19Z</time>
      </trkpt>
      <trkpt lat="42.51901" lon="2.50526">
        <ele>1657</ele>
        <time>2024-09-19T08:17:21Z</time>
      </trkpt>
      <trkpt lat="42.51899" lon="2.50529">
        <ele>1651</ele>
        <time>2024-09-19T08:17:23Z</time>
      </trkpt>
      <trkpt lat="42.51898" lon="2.50533">
        <ele>1654</ele>
        <time>2024-09-19T08:17:25Z</time>
      </trkpt>
      <trkpt lat="42.51897" lon="2.50537">
        <ele>1653</ele>
        <time>2024-09-19T08:17:27Z</time>
      </trkpt>
      <trkpt lat="42.51899" lon="2.50539">
        <ele>1656</ele>
        <time>2024-09-19T08:17:29Z</time>
      </trkpt>
      <trkpt lat="42.51902" lon="2.50543">
        <ele>1654</ele>
        <time>2024-09-19T08:17:32Z</time>
      </trkpt>
      <trkpt lat="42.51904" lon="2.50546">
        <ele>1655</ele>
        <time>2024-09-19T08:17:35Z</time>
      </trkpt>
      <trkpt lat="42.51907" lon="2.50545">
        <ele>1657</ele>
        <time>2024-09-19T08:17:37Z</time>
      </trkpt>
      <trkpt lat="42.51909" lon="2.50547">
        <ele>1656</ele>
        <time>2024-09-19T08:17:40Z</time>
      </trkpt>
      <trkpt lat="42.51911" lon="2.5055">
        <ele>1655</ele>
        <time>2024-09-19T08:17:42Z</time>
      </trkpt>
      <trkpt lat="42.51912" lon="2.50554">
        <ele>1655</ele>
        <time>2024-09-19T08:17:45Z</time>
      </trkpt>
      <trkpt lat="42.51913" lon="2.50557">
        <ele>1656</ele>
        <time>2024-09-19T08:17:47Z</time>
      </trkpt>
      <trkpt lat="42.51915" lon="2.50561">
        <ele>1655</ele>
        <time>2024-09-19T08:17:51Z</time>
      </trkpt>
      <trkpt lat="42.51917" lon="2.50565">
        <ele>1655</ele>
        <time>2024-09-19T08:17:55Z</time>
      </trkpt>
      <trkpt lat="42.51915" lon="2.50565">
        <ele>1654</ele>
        <time>2024-09-19T08:17:58Z</time>
      </trkpt>
      <trkpt lat="42.51916" lon="2.50568">
        <ele>1653</ele>
        <time>2024-09-19T08:18:01Z</time>
      </trkpt>
      <trkpt lat="42.51918" lon="2.5057">
        <ele>1653</ele>
        <time>2024-09-19T08:18:03Z</time>
      </trkpt>
      <trkpt lat="42.51919" lon="2.50573">
        <ele>1653</ele>
        <time>2024-09-19T08:18:06Z</time>
      </trkpt>
      <trkpt lat="42.51922" lon="2.50576">
        <ele>1655</ele>
        <time>2024-09-19T08:18:08Z</time>
      </trkpt>
      <trkpt lat="42.51924" lon="2.5058">
        <ele>1654</ele>
        <time>2024-09-19T08:18:11Z</time>
      </trkpt>
      <trkpt lat="42.51925" lon="2.50584">
        <ele>1653</ele>
        <time>2024-09-19T08:18:14Z</time>
      </trkpt>
      <trkpt lat="42.51928" lon="2.50587">
        <ele>1653</ele>
        <time>2024-09-19T08:18:17Z</time>
      </trkpt>
      <trkpt lat="42.5193" lon="2.5059">
        <ele>1652</ele>
        <time>2024-09-19T08:18:20Z</time>
      </trkpt>
      <trkpt lat="42.51931" lon="2.50594">
        <ele>1652</ele>
        <time>2024-09-19T08:18:24Z</time>
      </trkpt>
      <trkpt lat="42.51933" lon="2.50598">
        <ele>1653</ele>
        <time>2024-09-19T08:18:27Z</time>
      </trkpt>
      <trkpt lat="42.51935" lon="2.50602">
        <ele>1652</ele>
        <time>2024-09-19T08:18:31Z</time>
      </trkpt>
      <trkpt lat="42.51937" lon="2.50606">
        <ele>1653</ele>
        <time>2024-09-19T08:18:34Z</time>
      </trkpt>
      <trkpt lat="42.51939" lon="2.50609">
        <ele>1653</ele>
        <time>2024-09-19T08:18:36Z</time>
      </trkpt>
      <trkpt lat="42.5194" lon="2.50613">
        <ele>1653</ele>
        <time>2024-09-19T08:18:39Z</time>
      </trkpt>
      <trkpt lat="42.51942" lon="2.50617">
        <ele>1654</ele>
        <time>2024-09-19T08:18:42Z</time>
      </trkpt>
      <trkpt lat="42.51944" lon="2.50621">
        <ele>1654</ele>
        <time>2024-09-19T08:18:45Z</time>
      </trkpt>
      <trkpt lat="42.51944" lon="2.50624">
        <ele>1652</ele>
        <time>2024-09-19T08:18:48Z</time>
      </trkpt>
      <trkpt lat="42.51945" lon="2.50628">
        <ele>1652</ele>
        <time>2024-09-19T08:18:51Z</time>
      </trkpt>
      <trkpt lat="42.51946" lon="2.50632">
        <ele>1652</ele>
        <time>2024-09-19T08:18:54Z</time>
      </trkpt>
      <trkpt lat="42.51946" lon="2.50637">
        <ele>1652</ele>
        <time>2024-09-19T08:18:58Z</time>
      </trkpt>
      <trkpt lat="42.51945" lon="2.50642">
        <ele>1653</ele>
        <time>2024-09-19T08:19:01Z</time>
      </trkpt>
      <trkpt lat="42.51945" lon="2.50647">
        <ele>1654</ele>
        <time>2024-09-19T08:19:04Z</time>
      </trkpt>
      <trkpt lat="42.51945" lon="2.50651">
        <ele>1654</ele>
        <time>2024-09-19T08:19:06Z</time>
      </trkpt>
      <trkpt lat="42.51946" lon="2.50656">
        <ele>1657</ele>
        <time>2024-09-19T08:19:09Z</time>
      </trkpt>
      <trkpt lat="42.51945" lon="2.5066">
        <ele>1654</ele>
        <time>2024-09-19T08:19:12Z</time>
      </trkpt>
      <trkpt lat="42.51944" lon="2.50665">
        <ele>1654</ele>
        <time>2024-09-19T08:19:14Z</time>
      </trkpt>
      <trkpt lat="42.51944" lon="2.50669">
        <ele>1653</ele>
        <time>2024-09-19T08:19:18Z</time>
      </trkpt>
      <trkpt lat="42.51944" lon="2.50675">
        <ele>1654</ele>
        <time>2024-09-19T08:19:21Z</time>
      </trkpt>
      <trkpt lat="42.51944" lon="2.50679">
        <ele>1654</ele>
        <time>2024-09-19T08:19:23Z</time>
      </trkpt>
      <trkpt lat="42.51944" lon="2.50683">
        <ele>1654</ele>
        <time>2024-09-19T08:19:25Z</time>
      </trkpt>
      <trkpt lat="42.51944" lon="2.50688">
        <ele>1654</ele>
        <time>2024-09-19T08:19:28Z</time>
      </trkpt>
      <trkpt lat="42.51944" lon="2.50692">
        <ele>1657</ele>
        <time>2024-09-19T08:19:29Z</time>
      </trkpt>
      <trkpt lat="42.51943" lon="2.50696">
        <ele>1655</ele>
        <time>2024-09-19T08:19:32Z</time>
      </trkpt>
      <trkpt lat="42.51942" lon="2.50701">
        <ele>1654</ele>
        <time>2024-09-19T08:19:36Z</time>
      </trkpt>
      <trkpt lat="42.51941" lon="2.50706">
        <ele>1653</ele>
        <time>2024-09-19T08:19:38Z</time>
      </trkpt>
      <trkpt lat="42.51941" lon="2.50711">
        <ele>1655</ele>
        <time>2024-09-19T08:19:40Z</time>
      </trkpt>
      <trkpt lat="42.51941" lon="2.50716">
        <ele>1655</ele>
        <time>2024-09-19T08:19:42Z</time>
      </trkpt>
      <trkpt lat="42.5194" lon="2.5072">
        <ele>1656</ele>
        <time>2024-09-19T08:19:45Z</time>
      </trkpt>
      <trkpt lat="42.51939" lon="2.50725">
        <ele>1656</ele>
        <time>2024-09-19T08:19:47Z</time>
      </trkpt>
      <trkpt lat="42.51939" lon="2.50729">
        <ele>1657</ele>
        <time>2024-09-19T08:19:49Z</time>
      </trkpt>
      <trkpt lat="42.51938" lon="2.50732">
        <ele>1657</ele>
        <time>2024-09-19T08:19:52Z</time>
      </trkpt>
      <trkpt lat="42.51938" lon="2.50735">
        <ele>1657</ele>
        <time>2024-09-19T08:19:54Z</time>
      </trkpt>
      <trkpt lat="42.51938" lon="2.5074">
        <ele>1658</ele>
        <time>2024-09-19T08:19:57Z</time>
      </trkpt>
      <trkpt lat="42.51937" lon="2.50744">
        <ele>1658</ele>
        <time>2024-09-19T08:19:59Z</time>
      </trkpt>
      <trkpt lat="42.51936" lon="2.5075">
        <ele>1658</ele>
        <time>2024-09-19T08:20:04Z</time>
      </trkpt>
      <trkpt lat="42.51935" lon="2.50754">
        <ele>1659</ele>
        <time>2024-09-19T08:20:09Z</time>
      </trkpt>
      <trkpt lat="42.51934" lon="2.50759">
        <ele>1659</ele>
        <time>2024-09-19T08:20:12Z</time>
      </trkpt>
      <trkpt lat="42.51933" lon="2.50763">
        <ele>1657</ele>
        <time>2024-09-19T08:20:16Z</time>
      </trkpt>
      <trkpt lat="42.51932" lon="2.50767">
        <ele>1657</ele>
        <time>2024-09-19T08:20:19Z</time>
      </trkpt>
      <trkpt lat="42.51931" lon="2.5077">
        <ele>1657</ele>
        <time>2024-09-19T08:20:20Z</time>
      </trkpt>
      <trkpt lat="42.5193" lon="2.50773">
        <ele>1656</ele>
        <time>2024-09-19T08:20:23Z</time>
      </trkpt>
      <trkpt lat="42.51929" lon="2.50778">
        <ele>1657</ele>
        <time>2024-09-19T08:20:25Z</time>
      </trkpt>
      <trkpt lat="42.51929" lon="2.50782">
        <ele>1657</ele>
        <time>2024-09-19T08:20:27Z</time>
      </trkpt>
      <trkpt lat="42.51929" lon="2.50787">
        <ele>1658</ele>
        <time>2024-09-19T08:20:30Z</time>
      </trkpt>
      <trkpt lat="42.51927" lon="2.5079">
        <ele>1655</ele>
        <time>2024-09-19T08:20:33Z</time>
      </trkpt>
      <trkpt lat="42.51925" lon="2.50795">
        <ele>1656</ele>
        <time>2024-09-19T08:20:36Z</time>
      </trkpt>
      <trkpt lat="42.51924" lon="2.50799">
        <ele>1656</ele>
        <time>2024-09-19T08:20:39Z</time>
      </trkpt>
      <trkpt lat="42.51924" lon="2.50805">
        <ele>1655</ele>
        <time>2024-09-19T08:20:43Z</time>
      </trkpt>
      <trkpt lat="42.51924" lon="2.5081">
        <ele>1657</ele>
        <time>2024-09-19T08:20:45Z</time>
      </trkpt>
      <trkpt lat="42.51922" lon="2.50813">
        <ele>1655</ele>
        <time>2024-09-19T08:20:48Z</time>
      </trkpt>
      <trkpt lat="42.51921" lon="2.50816">
        <ele>1655</ele>
        <time>2024-09-19T08:20:51Z</time>
      </trkpt>
      <trkpt lat="42.51919" lon="2.5082">
        <ele>1656</ele>
        <time>2024-09-19T08:20:57Z</time>
      </trkpt>
      <trkpt lat="42.51919" lon="2.50825">
        <ele>1657</ele>
        <time>2024-09-19T08:21:00Z</time>
      </trkpt>
      <trkpt lat="42.51917" lon="2.50829">
        <ele>1656</ele>
        <time>2024-09-19T08:21:04Z</time>
      </trkpt>
      <trkpt lat="42.51916" lon="2.50833">
        <ele>1651</ele>
        <time>2024-09-19T08:21:21Z</time>
      </trkpt>
      <trkpt lat="42.51916" lon="2.50836">
        <ele>1651</ele>
        <time>2024-09-19T08:21:24Z</time>
      </trkpt>
      <trkpt lat="42.51916" lon="2.5084">
        <ele>1652</ele>
        <time>2024-09-19T08:21:26Z</time>
      </trkpt>
      <trkpt lat="42.51915" lon="2.50844">
        <ele>1654</ele>
        <time>2024-09-19T08:21:28Z</time>
      </trkpt>
      <trkpt lat="42.51914" lon="2.5085">
        <ele>1655</ele>
        <time>2024-09-19T08:21:32Z</time>
      </trkpt>
      <trkpt lat="42.51914" lon="2.50854">
        <ele>1654</ele>
        <time>2024-09-19T08:21:34Z</time>
      </trkpt>
      <trkpt lat="42.51913" lon="2.50859">
        <ele>1654</ele>
        <time>2024-09-19T08:21:37Z</time>
      </trkpt>
      <trkpt lat="42.51911" lon="2.50863">
        <ele>1655</ele>
        <time>2024-09-19T08:21:40Z</time>
      </trkpt>
      <trkpt lat="42.51911" lon="2.50868">
        <ele>1655</ele>
        <time>2024-09-19T08:21:44Z</time>
      </trkpt>
      <trkpt lat="42.51911" lon="2.50872">
        <ele>1655</ele>
        <time>2024-09-19T08:21:47Z</time>
      </trkpt>
      <trkpt lat="42.5191" lon="2.50876">
        <ele>1655</ele>
        <time>2024-09-19T08:21:50Z</time>
      </trkpt>
      <trkpt lat="42.51909" lon="2.50879">
        <ele>1654</ele>
        <time>2024-09-19T08:21:54Z</time>
      </trkpt>
      <trkpt lat="42.51906" lon="2.50881">
        <ele>1653</ele>
        <time>2024-09-19T08:21:58Z</time>
      </trkpt>
      <trkpt lat="42.51904" lon="2.50884">
        <ele>1654</ele>
        <time>2024-09-19T08:22:02Z</time>
      </trkpt>
      <trkpt lat="42.51902" lon="2.50886">
        <ele>1652</ele>
        <time>2024-09-19T08:22:05Z</time>
      </trkpt>
      <trkpt lat="42.519" lon="2.5089">
        <ele>1653</ele>
        <time>2024-09-19T08:22:07Z</time>
      </trkpt>
      <trkpt lat="42.51897" lon="2.50893">
        <ele>1653</ele>
        <time>2024-09-19T08:22:11Z</time>
      </trkpt>
      <trkpt lat="42.51894" lon="2.50896">
        <ele>1652</ele>
        <time>2024-09-19T08:22:18Z</time>
      </trkpt>
      <trkpt lat="42.51893" lon="2.509">
        <ele>1651</ele>
        <time>2024-09-19T08:22:28Z</time>
      </trkpt>
      <trkpt lat="42.51894" lon="2.50902">
        <ele>1650</ele>
        <time>2024-09-19T08:22:32Z</time>
      </trkpt>
      <trkpt lat="42.51894" lon="2.50905">
        <ele>1652</ele>
        <time>2024-09-19T08:22:40Z</time>
      </trkpt>
      <trkpt lat="42.51894" lon="2.50909">
        <ele>1651</ele>
        <time>2024-09-19T08:22:45Z</time>
      </trkpt>
      <trkpt lat="42.51892" lon="2.50911">
        <ele>1651</ele>
        <time>2024-09-19T08:22:57Z</time>
      </trkpt>
      <trkpt lat="42.51893" lon="2.50913">
        <ele>1652</ele>
        <time>2024-09-19T08:23:12Z</time>
      </trkpt>
      <trkpt lat="42.51895" lon="2.50913">
        <ele>1653</ele>
        <time>2024-09-19T08:23:14Z</time>
      </trkpt>
      <trkpt lat="42.51897" lon="2.50912">
        <ele>1652</ele>
        <time>2024-09-19T08:23:17Z</time>
      </trkpt>
      <trkpt lat="42.519" lon="2.50913">
        <ele>1650</ele>
        <time>2024-09-19T08:23:21Z</time>
      </trkpt>
      <trkpt lat="42.519" lon="2.50916">
        <ele>1648</ele>
        <time>2024-09-19T08:23:29Z</time>
      </trkpt>
      <trkpt lat="42.51899" lon="2.50919">
        <ele>1648</ele>
        <time>2024-09-19T08:23:33Z</time>
      </trkpt>
      <trkpt lat="42.51901" lon="2.50914">
        <ele>1647</ele>
        <time>2024-09-19T08:23:45Z</time>
      </trkpt>
      <trkpt lat="42.51904" lon="2.50911">
        <ele>1647</ele>
        <time>2024-09-19T08:23:49Z</time>
      </trkpt>
      <trkpt lat="42.51903" lon="2.5091">
        <ele>1646</ele>
        <time>2024-09-19T08:23:51Z</time>
      </trkpt>
      <trkpt lat="42.519" lon="2.50909">
        <ele>1646</ele>
        <time>2024-09-19T08:23:56Z</time>
      </trkpt>
      <trkpt lat="42.51897" lon="2.5091">
        <ele>1644</ele>
        <time>2024-09-19T08:23:57Z</time>
      </trkpt>
      <trkpt lat="42.51896" lon="2.50913">
        <ele>1645</ele>
        <time>2024-09-19T08:23:59Z</time>
      </trkpt>
      <trkpt lat="42.51898" lon="2.50914">
        <ele>1644</ele>
        <time>2024-09-19T08:24:04Z</time>
      </trkpt>
      <trkpt lat="42.51901" lon="2.50913">
        <ele>1643</ele>
        <time>2024-09-19T08:24:06Z</time>
      </trkpt>
      <trkpt lat="42.51901" lon="2.50911">
        <ele>1647</ele>
        <time>2024-09-19T08:24:09Z</time>
      </trkpt>
      <trkpt lat="42.51899" lon="2.5091">
        <ele>1647</ele>
        <time>2024-09-19T08:24:12Z</time>
      </trkpt>
      <trkpt lat="42.51897" lon="2.5091">
        <ele>1648</ele>
        <time>2024-09-19T08:24:16Z</time>
      </trkpt>
      <trkpt lat="42.51894" lon="2.50911">
        <ele>1648</ele>
        <time>2024-09-19T08:24:18Z</time>
      </trkpt>
      <trkpt lat="42.51892" lon="2.50913">
        <ele>1650</ele>
        <time>2024-09-19T08:24:28Z</time>
      </trkpt>
      <trkpt lat="42.51891" lon="2.50917">
        <ele>1651</ele>
        <time>2024-09-19T08:24:54Z</time>
      </trkpt>
      <trkpt lat="42.51891" lon="2.50915">
        <ele>1650</ele>
        <time>2024-09-19T08:25:37Z</time>
      </trkpt>
      <trkpt lat="42.51893" lon="2.50914">
        <ele>1652</ele>
        <time>2024-09-19T08:26:09Z</time>
      </trkpt>
      <trkpt lat="42.51892" lon="2.50914">
        <ele>1651</ele>
        <time>2024-09-19T08:26:31Z</time>
      </trkpt>
      <trkpt lat="42.51894" lon="2.50914">
        <ele>1653</ele>
        <time>2024-09-19T08:29:47Z</time>
      </trkpt>
      <trkpt lat="42.51892" lon="2.50914">
        <ele>1651</ele>
        <time>2024-09-19T08:30:38Z</time>
      </trkpt>
      <trkpt lat="42.51894" lon="2.50913">
        <ele>1651</ele>
        <time>2024-09-19T08:31:02Z</time>
      </trkpt>
      <trkpt lat="42.51892" lon="2.50912">
        <ele>1651</ele>
        <time>2024-09-19T08:31:09Z</time>
      </trkpt>
      <trkpt lat="42.5189" lon="2.50912">
        <ele>1651</ele>
        <time>2024-09-19T08:31:15Z</time>
      </trkpt>
      <trkpt lat="42.5189" lon="2.50909">
        <ele>1651</ele>
        <time>2024-09-19T08:31:20Z</time>
      </trkpt>
      <trkpt lat="42.51888" lon="2.50907">
        <ele>1651</ele>
        <time>2024-09-19T08:31:30Z</time>
      </trkpt>
      <trkpt lat="42.51886" lon="2.50906">
        <ele>1651</ele>
        <time>2024-09-19T08:31:34Z</time>
      </trkpt>
      <trkpt lat="42.51882" lon="2.50907">
        <ele>1651</ele>
        <time>2024-09-19T08:31:37Z</time>
      </trkpt>
      <trkpt lat="42.51879" lon="2.50908">
        <ele>1651</ele>
        <time>2024-09-19T08:31:39Z</time>
      </trkpt>
      <trkpt lat="42.51876" lon="2.50907">
        <ele>1652</ele>
        <time>2024-09-19T08:31:42Z</time>
      </trkpt>
      <trkpt lat="42.51873" lon="2.50909">
        <ele>1652</ele>
        <time>2024-09-19T08:31:45Z</time>
      </trkpt>
      <trkpt lat="42.5187" lon="2.50909">
        <ele>1654</ele>
        <time>2024-09-19T08:31:49Z</time>
      </trkpt>
      <trkpt lat="42.51867" lon="2.50909">
        <ele>1655</ele>
        <time>2024-09-19T08:32:01Z</time>
      </trkpt>
      <trkpt lat="42.51864" lon="2.50909">
        <ele>1656</ele>
        <time>2024-09-19T08:32:02Z</time>
      </trkpt>
      <trkpt lat="42.51862" lon="2.50907">
        <ele>1656</ele>
        <time>2024-09-19T08:32:12Z</time>
      </trkpt>
      <trkpt lat="42.51859" lon="2.50906">
        <ele>1656</ele>
        <time>2024-09-19T08:32:23Z</time>
      </trkpt>
      <trkpt lat="42.51855" lon="2.50906">
        <ele>1655</ele>
        <time>2024-09-19T08:32:31Z</time>
      </trkpt>
      <trkpt lat="42.51852" lon="2.50906">
        <ele>1655</ele>
        <time>2024-09-19T08:32:34Z</time>
      </trkpt>
      <trkpt lat="42.51848" lon="2.50906">
        <ele>1655</ele>
        <time>2024-09-19T08:32:39Z</time>
      </trkpt>
      <trkpt lat="42.51845" lon="2.50904">
        <ele>1656</ele>
        <time>2024-09-19T08:32:42Z</time>
      </trkpt>
      <trkpt lat="42.51841" lon="2.50903">
        <ele>1657</ele>
        <time>2024-09-19T08:32:45Z</time>
      </trkpt>
      <trkpt lat="42.51838" lon="2.50903">
        <ele>1657</ele>
        <time>2024-09-19T08:32:50Z</time>
      </trkpt>
      <trkpt lat="42.51834" lon="2.50903">
        <ele>1656</ele>
        <time>2024-09-19T08:32:53Z</time>
      </trkpt>
      <trkpt lat="42.51831" lon="2.50904">
        <ele>1655</ele>
        <time>2024-09-19T08:32:55Z</time>
      </trkpt>
      <trkpt lat="42.51828" lon="2.50905">
        <ele>1656</ele>
        <time>2024-09-19T08:32:57Z</time>
      </trkpt>
      <trkpt lat="42.51825" lon="2.50906">
        <ele>1657</ele>
        <time>2024-09-19T08:32:59Z</time>
      </trkpt>
      <trkpt lat="42.51822" lon="2.50909">
        <ele>1657</ele>
        <time>2024-09-19T08:33:02Z</time>
      </trkpt>
      <trkpt lat="42.51819" lon="2.5091">
        <ele>1656</ele>
        <time>2024-09-19T08:33:06Z</time>
      </trkpt>
      <trkpt lat="42.51815" lon="2.50912">
        <ele>1655</ele>
        <time>2024-09-19T08:33:08Z</time>
      </trkpt>
      <trkpt lat="42.51812" lon="2.50913">
        <ele>1657</ele>
        <time>2024-09-19T08:33:12Z</time>
      </trkpt>
      <trkpt lat="42.51807" lon="2.50914">
        <ele>1659</ele>
        <time>2024-09-19T08:33:15Z</time>
      </trkpt>
      <trkpt lat="42.51804" lon="2.50918">
        <ele>1660</ele>
        <time>2024-09-19T08:33:21Z</time>
      </trkpt>
      <trkpt lat="42.51802" lon="2.50921">
        <ele>1659</ele>
        <time>2024-09-19T08:33:23Z</time>
      </trkpt>
      <trkpt lat="42.51799" lon="2.50923">
        <ele>1659</ele>
        <time>2024-09-19T08:33:25Z</time>
      </trkpt>
      <trkpt lat="42.51796" lon="2.50925">
        <ele>1658</ele>
        <time>2024-09-19T08:33:29Z</time>
      </trkpt>
      <trkpt lat="42.51794" lon="2.50928">
        <ele>1657</ele>
        <time>2024-09-19T08:33:36Z</time>
      </trkpt>
      <trkpt lat="42.51791" lon="2.50929">
        <ele>1656</ele>
        <time>2024-09-19T08:33:39Z</time>
      </trkpt>
      <trkpt lat="42.51788" lon="2.50928">
        <ele>1655</ele>
        <time>2024-09-19T08:33:48Z</time>
      </trkpt>
      <trkpt lat="42.51786" lon="2.50929">
        <ele>1656</ele>
        <time>2024-09-19T08:33:53Z</time>
      </trkpt>
      <trkpt lat="42.51783" lon="2.50929">
        <ele>1657</ele>
        <time>2024-09-19T08:33:54Z</time>
      </trkpt>
      <trkpt lat="42.51781" lon="2.50929">
        <ele>1656</ele>
        <time>2024-09-19T08:33:56Z</time>
      </trkpt>
      <trkpt lat="42.51778" lon="2.5093">
        <ele>1656</ele>
        <time>2024-09-19T08:33:59Z</time>
      </trkpt>
      <trkpt lat="42.51775" lon="2.50929">
        <ele>1657</ele>
        <time>2024-09-19T08:34:02Z</time>
      </trkpt>
      <trkpt lat="42.51772" lon="2.50929">
        <ele>1658</ele>
        <time>2024-09-19T08:34:04Z</time>
      </trkpt>
      <trkpt lat="42.51768" lon="2.50931">
        <ele>1658</ele>
        <time>2024-09-19T08:34:06Z</time>
      </trkpt>
      <trkpt lat="42.51765" lon="2.50931">
        <ele>1659</ele>
        <time>2024-09-19T08:34:09Z</time>
      </trkpt>
      <trkpt lat="42.51762" lon="2.50933">
        <ele>1659</ele>
        <time>2024-09-19T08:34:11Z</time>
      </trkpt>
      <trkpt lat="42.51759" lon="2.50934">
        <ele>1658</ele>
        <time>2024-09-19T08:34:14Z</time>
      </trkpt>
      <trkpt lat="42.51755" lon="2.50934">
        <ele>1658</ele>
        <time>2024-09-19T08:34:15Z</time>
      </trkpt>
      <trkpt lat="42.51751" lon="2.50935">
        <ele>1656</ele>
        <time>2024-09-19T08:34:19Z</time>
      </trkpt>
      <trkpt lat="42.51748" lon="2.50936">
        <ele>1657</ele>
        <time>2024-09-19T08:34:23Z</time>
      </trkpt>
      <trkpt lat="42.51745" lon="2.50938">
        <ele>1652</ele>
        <time>2024-09-19T08:34:26Z</time>
      </trkpt>
      <trkpt lat="42.5174" lon="2.5094">
        <ele>1654</ele>
        <time>2024-09-19T08:34:28Z</time>
      </trkpt>
      <trkpt lat="42.51737" lon="2.50942">
        <ele>1655</ele>
        <time>2024-09-19T08:34:32Z</time>
      </trkpt>
      <trkpt lat="42.51733" lon="2.50942">
        <ele>1656</ele>
        <time>2024-09-19T08:34:35Z</time>
      </trkpt>
      <trkpt lat="42.5173" lon="2.50944">
        <ele>1656</ele>
        <time>2024-09-19T08:34:38Z</time>
      </trkpt>
      <trkpt lat="42.51727" lon="2.50946">
        <ele>1659</ele>
        <time>2024-09-19T08:34:41Z</time>
      </trkpt>
      <trkpt lat="42.51725" lon="2.50948">
        <ele>1659</ele>
        <time>2024-09-19T08:34:43Z</time>
      </trkpt>
      <trkpt lat="42.51723" lon="2.50953">
        <ele>1660</ele>
        <time>2024-09-19T08:34:46Z</time>
      </trkpt>
      <trkpt lat="42.51722" lon="2.50957">
        <ele>1659</ele>
        <time>2024-09-19T08:34:48Z</time>
      </trkpt>
      <trkpt lat="42.51722" lon="2.50961">
        <ele>1659</ele>
        <time>2024-09-19T08:34:50Z</time>
      </trkpt>
      <trkpt lat="42.51724" lon="2.50963">
        <ele>1659</ele>
        <time>2024-09-19T08:34:54Z</time>
      </trkpt>
      <trkpt lat="42.51726" lon="2.50962">
        <ele>1658</ele>
        <time>2024-09-19T08:35:21Z</time>
      </trkpt>
      <trkpt lat="42.51726" lon="2.50959">
        <ele>1654</ele>
        <time>2024-09-19T08:35:34Z</time>
      </trkpt>
      <trkpt lat="42.51724" lon="2.50957">
        <ele>1654</ele>
        <time>2024-09-19T08:35:39Z</time>
      </trkpt>
      <trkpt lat="42.51723" lon="2.50958">
        <ele>1655</ele>
        <time>2024-09-19T08:35:51Z</time>
      </trkpt>
      <trkpt lat="42.51724" lon="2.5096">
        <ele>1655</ele>
        <time>2024-09-19T08:35:54Z</time>
      </trkpt>
      <trkpt lat="42.51726" lon="2.50964">
        <ele>1655</ele>
        <time>2024-09-19T08:35:57Z</time>
      </trkpt>
      <trkpt lat="42.51727" lon="2.50968">
        <ele>1654</ele>
        <time>2024-09-19T08:36:00Z</time>
      </trkpt>
      <trkpt lat="42.51728" lon="2.50972">
        <ele>1655</ele>
        <time>2024-09-19T08:36:02Z</time>
      </trkpt>
      <trkpt lat="42.5173" lon="2.50976">
        <ele>1656</ele>
        <time>2024-09-19T08:36:04Z</time>
      </trkpt>
      <trkpt lat="42.51732" lon="2.50979">
        <ele>1656</ele>
        <time>2024-09-19T08:36:07Z</time>
      </trkpt>
      <trkpt lat="42.51734" lon="2.50982">
        <ele>1657</ele>
        <time>2024-09-19T08:36:09Z</time>
      </trkpt>
      <trkpt lat="42.51737" lon="2.50987">
        <ele>1656</ele>
        <time>2024-09-19T08:36:12Z</time>
      </trkpt>
      <trkpt lat="42.51738" lon="2.50991">
        <ele>1657</ele>
        <time>2024-09-19T08:36:14Z</time>
      </trkpt>
      <trkpt lat="42.51738" lon="2.50996">
        <ele>1656</ele>
        <time>2024-09-19T08:36:17Z</time>
      </trkpt>
      <trkpt lat="42.51738" lon="2.51">
        <ele>1657</ele>
        <time>2024-09-19T08:36:20Z</time>
      </trkpt>
      <trkpt lat="42.51739" lon="2.51005">
        <ele>1656</ele>
        <time>2024-09-19T08:36:23Z</time>
      </trkpt>
      <trkpt lat="42.51741" lon="2.51009">
        <ele>1656</ele>
        <time>2024-09-19T08:36:25Z</time>
      </trkpt>
      <trkpt lat="42.51742" lon="2.51013">
        <ele>1656</ele>
        <time>2024-09-19T08:36:27Z</time>
      </trkpt>
      <trkpt lat="42.51741" lon="2.51018">
        <ele>1654</ele>
        <time>2024-09-19T08:36:30Z</time>
      </trkpt>
      <trkpt lat="42.51741" lon="2.51023">
        <ele>1655</ele>
        <time>2024-09-19T08:36:32Z</time>
      </trkpt>
      <trkpt lat="42.51741" lon="2.51027">
        <ele>1655</ele>
        <time>2024-09-19T08:36:35Z</time>
      </trkpt>
      <trkpt lat="42.51741" lon="2.51032">
        <ele>1654</ele>
        <time>2024-09-19T08:36:38Z</time>
      </trkpt>
      <trkpt lat="42.5174" lon="2.51038">
        <ele>1656</ele>
        <time>2024-09-19T08:36:40Z</time>
      </trkpt>
      <trkpt lat="42.51741" lon="2.51043">
        <ele>1656</ele>
        <time>2024-09-19T08:36:43Z</time>
      </trkpt>
      <trkpt lat="42.51742" lon="2.51047">
        <ele>1657</ele>
        <time>2024-09-19T08:36:45Z</time>
      </trkpt>
      <trkpt lat="42.51741" lon="2.51051">
        <ele>1655</ele>
        <time>2024-09-19T08:36:48Z</time>
      </trkpt>
      <trkpt lat="42.51741" lon="2.51054">
        <ele>1654</ele>
        <time>2024-09-19T08:36:50Z</time>
      </trkpt>
      <trkpt lat="42.51741" lon="2.51059">
        <ele>1655</ele>
        <time>2024-09-19T08:36:52Z</time>
      </trkpt>
      <trkpt lat="42.5174" lon="2.51063">
        <ele>1655</ele>
        <time>2024-09-19T08:36:55Z</time>
      </trkpt>
      <trkpt lat="42.51741" lon="2.51068">
        <ele>1656</ele>
        <time>2024-09-19T08:36:57Z</time>
      </trkpt>
      <trkpt lat="42.51741" lon="2.51072">
        <ele>1656</ele>
        <time>2024-09-19T08:36:59Z</time>
      </trkpt>
      <trkpt lat="42.51741" lon="2.51076">
        <ele>1657</ele>
        <time>2024-09-19T08:37:01Z</time>
      </trkpt>
      <trkpt lat="42.51741" lon="2.5108">
        <ele>1656</ele>
        <time>2024-09-19T08:37:04Z</time>
      </trkpt>
      <trkpt lat="42.51741" lon="2.51085">
        <ele>1655</ele>
        <time>2024-09-19T08:37:08Z</time>
      </trkpt>
      <trkpt lat="42.51742" lon="2.51089">
        <ele>1655</ele>
        <time>2024-09-19T08:37:11Z</time>
      </trkpt>
      <trkpt lat="42.51742" lon="2.51093">
        <ele>1657</ele>
        <time>2024-09-19T08:37:14Z</time>
      </trkpt>
      <trkpt lat="42.51742" lon="2.51097">
        <ele>1656</ele>
        <time>2024-09-19T08:37:16Z</time>
      </trkpt>
      <trkpt lat="42.51742" lon="2.51101">
        <ele>1656</ele>
        <time>2024-09-19T08:37:18Z</time>
      </trkpt>
      <trkpt lat="42.51741" lon="2.51105">
        <ele>1656</ele>
        <time>2024-09-19T08:37:20Z</time>
      </trkpt>
      <trkpt lat="42.51741" lon="2.51109">
        <ele>1654</ele>
        <time>2024-09-19T08:37:23Z</time>
      </trkpt>
      <trkpt lat="42.51741" lon="2.51113">
        <ele>1655</ele>
        <time>2024-09-19T08:37:25Z</time>
      </trkpt>
      <trkpt lat="42.51741" lon="2.51117">
        <ele>1655</ele>
        <time>2024-09-19T08:37:28Z</time>
      </trkpt>
      <trkpt lat="42.51741" lon="2.51121">
        <ele>1655</ele>
        <time>2024-09-19T08:37:30Z</time>
      </trkpt>
      <trkpt lat="42.51742" lon="2.51127">
        <ele>1659</ele>
        <time>2024-09-19T08:37:32Z</time>
      </trkpt>
      <trkpt lat="42.51742" lon="2.51132">
        <ele>1657</ele>
        <time>2024-09-19T08:37:34Z</time>
      </trkpt>
      <trkpt lat="42.51741" lon="2.51137">
        <ele>1658</ele>
        <time>2024-09-19T08:37:36Z</time>
      </trkpt>
      <trkpt lat="42.5174" lon="2.51141">
        <ele>1657</ele>
        <time>2024-09-19T08:37:38Z</time>
      </trkpt>
      <trkpt lat="42.5174" lon="2.51147">
        <ele>1658</ele>
        <time>2024-09-19T08:37:41Z</time>
      </trkpt>
      <trkpt lat="42.5174" lon="2.51151">
        <ele>1657</ele>
        <time>2024-09-19T08:37:45Z</time>
      </trkpt>
      <trkpt lat="42.51739" lon="2.51156">
        <ele>1657</ele>
        <time>2024-09-19T08:37:48Z</time>
      </trkpt>
      <trkpt lat="42.51737" lon="2.5116">
        <ele>1657</ele>
        <time>2024-09-19T08:37:52Z</time>
      </trkpt>
      <trkpt lat="42.51734" lon="2.51163">
        <ele>1658</ele>
        <time>2024-09-19T08:37:56Z</time>
      </trkpt>
      <trkpt lat="42.51731" lon="2.51165">
        <ele>1658</ele>
        <time>2024-09-19T08:38:00Z</time>
      </trkpt>
      <trkpt lat="42.51728" lon="2.51167">
        <ele>1656</ele>
        <time>2024-09-19T08:38:02Z</time>
      </trkpt>
      <trkpt lat="42.51725" lon="2.5117">
        <ele>1655</ele>
        <time>2024-09-19T08:38:04Z</time>
      </trkpt>
      <trkpt lat="42.51723" lon="2.51175">
        <ele>1656</ele>
        <time>2024-09-19T08:38:06Z</time>
      </trkpt>
      <trkpt lat="42.51722" lon="2.51179">
        <ele>1658</ele>
        <time>2024-09-19T08:38:07Z</time>
      </trkpt>
      <trkpt lat="42.51721" lon="2.51182">
        <ele>1657</ele>
        <time>2024-09-19T08:38:09Z</time>
      </trkpt>
      <trkpt lat="42.51719" lon="2.51185">
        <ele>1659</ele>
        <time>2024-09-19T08:38:11Z</time>
      </trkpt>
      <trkpt lat="42.51716" lon="2.51187">
        <ele>1659</ele>
        <time>2024-09-19T08:38:13Z</time>
      </trkpt>
      <trkpt lat="42.51714" lon="2.51189">
        <ele>1660</ele>
        <time>2024-09-19T08:38:16Z</time>
      </trkpt>
      <trkpt lat="42.51712" lon="2.51193">
        <ele>1660</ele>
        <time>2024-09-19T08:38:17Z</time>
      </trkpt>
      <trkpt lat="42.51711" lon="2.51199">
        <ele>1660</ele>
        <time>2024-09-19T08:38:21Z</time>
      </trkpt>
      <trkpt lat="42.51709" lon="2.51203">
        <ele>1658</ele>
        <time>2024-09-19T08:38:23Z</time>
      </trkpt>
      <trkpt lat="42.51709" lon="2.51208">
        <ele>1658</ele>
        <time>2024-09-19T08:38:24Z</time>
      </trkpt>
      <trkpt lat="42.51707" lon="2.51212">
        <ele>1657</ele>
        <time>2024-09-19T08:38:27Z</time>
      </trkpt>
      <trkpt lat="42.51707" lon="2.51217">
        <ele>1658</ele>
        <time>2024-09-19T08:38:29Z</time>
      </trkpt>
      <trkpt lat="42.51706" lon="2.51221">
        <ele>1656</ele>
        <time>2024-09-19T08:38:32Z</time>
      </trkpt>
      <trkpt lat="42.51704" lon="2.51224">
        <ele>1655</ele>
        <time>2024-09-19T08:38:34Z</time>
      </trkpt>
      <trkpt lat="42.51702" lon="2.51227">
        <ele>1655</ele>
        <time>2024-09-19T08:38:36Z</time>
      </trkpt>
      <trkpt lat="42.51701" lon="2.51231">
        <ele>1655</ele>
        <time>2024-09-19T08:38:39Z</time>
      </trkpt>
      <trkpt lat="42.517" lon="2.51235">
        <ele>1655</ele>
        <time>2024-09-19T08:38:41Z</time>
      </trkpt>
      <trkpt lat="42.51698" lon="2.51239">
        <ele>1654</ele>
        <time>2024-09-19T08:38:43Z</time>
      </trkpt>
      <trkpt lat="42.51697" lon="2.51243">
        <ele>1654</ele>
        <time>2024-09-19T08:38:44Z</time>
      </trkpt>
      <trkpt lat="42.51697" lon="2.51248">
        <ele>1656</ele>
        <time>2024-09-19T08:38:47Z</time>
      </trkpt>
      <trkpt lat="42.51696" lon="2.51252">
        <ele>1655</ele>
        <time>2024-09-19T08:38:49Z</time>
      </trkpt>
      <trkpt lat="42.51694" lon="2.51257">
        <ele>1655</ele>
        <time>2024-09-19T08:38:52Z</time>
      </trkpt>
      <trkpt lat="42.51693" lon="2.51262">
        <ele>1655</ele>
        <time>2024-09-19T08:38:55Z</time>
      </trkpt>
      <trkpt lat="42.51691" lon="2.51266">
        <ele>1654</ele>
        <time>2024-09-19T08:38:59Z</time>
      </trkpt>
      <trkpt lat="42.5169" lon="2.5127">
        <ele>1654</ele>
        <time>2024-09-19T08:39:01Z</time>
      </trkpt>
      <trkpt lat="42.51688" lon="2.51275">
        <ele>1656</ele>
        <time>2024-09-19T08:39:05Z</time>
      </trkpt>
      <trkpt lat="42.51686" lon="2.5128">
        <ele>1658</ele>
        <time>2024-09-19T08:39:07Z</time>
      </trkpt>
      <trkpt lat="42.51683" lon="2.51285">
        <ele>1658</ele>
        <time>2024-09-19T08:39:11Z</time>
      </trkpt>
      <trkpt lat="42.51681" lon="2.51289">
        <ele>1658</ele>
        <time>2024-09-19T08:39:14Z</time>
      </trkpt>
      <trkpt lat="42.51679" lon="2.51293">
        <ele>1658</ele>
        <time>2024-09-19T08:39:17Z</time>
      </trkpt>
      <trkpt lat="42.51677" lon="2.51297">
        <ele>1658</ele>
        <time>2024-09-19T08:39:20Z</time>
      </trkpt>
      <trkpt lat="42.51674" lon="2.51301">
        <ele>1656</ele>
        <time>2024-09-19T08:39:24Z</time>
      </trkpt>
      <trkpt lat="42.51671" lon="2.51302">
        <ele>1657</ele>
        <time>2024-09-19T08:39:26Z</time>
      </trkpt>
      <trkpt lat="42.51667" lon="2.51304">
        <ele>1657</ele>
        <time>2024-09-19T08:39:28Z</time>
      </trkpt>
      <trkpt lat="42.51664" lon="2.51305">
        <ele>1657</ele>
        <time>2024-09-19T08:39:29Z</time>
      </trkpt>
      <trkpt lat="42.51661" lon="2.51305">
        <ele>1658</ele>
        <time>2024-09-19T08:39:30Z</time>
      </trkpt>
      <trkpt lat="42.51658" lon="2.51305">
        <ele>1659</ele>
        <time>2024-09-19T08:39:35Z</time>
      </trkpt>
      <trkpt lat="42.51654" lon="2.51304">
        <ele>1660</ele>
        <time>2024-09-19T08:39:38Z</time>
      </trkpt>
      <trkpt lat="42.51649" lon="2.51303">
        <ele>1659</ele>
        <time>2024-09-19T08:39:40Z</time>
      </trkpt>
      <trkpt lat="42.51645" lon="2.51302">
        <ele>1661</ele>
        <time>2024-09-19T08:39:45Z</time>
      </trkpt>
      <trkpt lat="42.51641" lon="2.513">
        <ele>1660</ele>
        <time>2024-09-19T08:39:47Z</time>
      </trkpt>
      <trkpt lat="42.51637" lon="2.51299">
        <ele>1661</ele>
        <time>2024-09-19T08:39:49Z</time>
      </trkpt>
      <trkpt lat="42.51634" lon="2.51299">
        <ele>1659</ele>
        <time>2024-09-19T08:39:51Z</time>
      </trkpt>
      <trkpt lat="42.5163" lon="2.51298">
        <ele>1660</ele>
        <time>2024-09-19T08:39:54Z</time>
      </trkpt>
      <trkpt lat="42.51627" lon="2.51299">
        <ele>1661</ele>
        <time>2024-09-19T08:39:58Z</time>
      </trkpt>
      <trkpt lat="42.51623" lon="2.513">
        <ele>1660</ele>
        <time>2024-09-19T08:40:00Z</time>
      </trkpt>
      <trkpt lat="42.51619" lon="2.513">
        <ele>1661</ele>
        <time>2024-09-19T08:40:03Z</time>
      </trkpt>
      <trkpt lat="42.51615" lon="2.51301">
        <ele>1663</ele>
        <time>2024-09-19T08:40:05Z</time>
      </trkpt>
      <trkpt lat="42.51612" lon="2.51302">
        <ele>1663</ele>
        <time>2024-09-19T08:40:08Z</time>
      </trkpt>
      <trkpt lat="42.51609" lon="2.51302">
        <ele>1659</ele>
        <time>2024-09-19T08:40:11Z</time>
      </trkpt>
      <trkpt lat="42.51605" lon="2.51302">
        <ele>1658</ele>
        <time>2024-09-19T08:40:14Z</time>
      </trkpt>
      <trkpt lat="42.516" lon="2.51303">
        <ele>1658</ele>
        <time>2024-09-19T08:40:17Z</time>
      </trkpt>
      <trkpt lat="42.51598" lon="2.51301">
        <ele>1657</ele>
        <time>2024-09-19T08:40:20Z</time>
      </trkpt>
      <trkpt lat="42.51594" lon="2.513">
        <ele>1657</ele>
        <time>2024-09-19T08:40:22Z</time>
      </trkpt>
      <trkpt lat="42.5159" lon="2.513">
        <ele>1658</ele>
        <time>2024-09-19T08:40:24Z</time>
      </trkpt>
      <trkpt lat="42.51587" lon="2.51299">
        <ele>1658</ele>
        <time>2024-09-19T08:40:26Z</time>
      </trkpt>
      <trkpt lat="42.51584" lon="2.513">
        <ele>1659</ele>
        <time>2024-09-19T08:40:28Z</time>
      </trkpt>
      <trkpt lat="42.51581" lon="2.51302">
        <ele>1658</ele>
        <time>2024-09-19T08:40:30Z</time>
      </trkpt>
      <trkpt lat="42.51577" lon="2.51303">
        <ele>1659</ele>
        <time>2024-09-19T08:40:34Z</time>
      </trkpt>
      <trkpt lat="42.51574" lon="2.51306">
        <ele>1660</ele>
        <time>2024-09-19T08:40:38Z</time>
      </trkpt>
      <trkpt lat="42.51572" lon="2.51305">
        <ele>1657</ele>
        <time>2024-09-19T08:40:41Z</time>
      </trkpt>
      <trkpt lat="42.51569" lon="2.51306">
        <ele>1657</ele>
        <time>2024-09-19T08:40:43Z</time>
      </trkpt>
      <trkpt lat="42.51566" lon="2.51308">
        <ele>1658</ele>
        <time>2024-09-19T08:40:46Z</time>
      </trkpt>
      <trkpt lat="42.51564" lon="2.51311">
        <ele>1657</ele>
        <time>2024-09-19T08:40:48Z</time>
      </trkpt>
      <trkpt lat="42.51561" lon="2.51314">
        <ele>1656</ele>
        <time>2024-09-19T08:40:50Z</time>
      </trkpt>
      <trkpt lat="42.51559" lon="2.51317">
        <ele>1660</ele>
        <time>2024-09-19T08:40:53Z</time>
      </trkpt>
      <trkpt lat="42.51557" lon="2.5132">
        <ele>1658</ele>
        <time>2024-09-19T08:40:56Z</time>
      </trkpt>
      <trkpt lat="42.51552" lon="2.51323">
        <ele>1658</ele>
        <time>2024-09-19T08:40:58Z</time>
      </trkpt>
      <trkpt lat="42.51548" lon="2.51325">
        <ele>1658</ele>
        <time>2024-09-19T08:41:03Z</time>
      </trkpt>
      <trkpt lat="42.51544" lon="2.51327">
        <ele>1659</ele>
        <time>2024-09-19T08:41:05Z</time>
      </trkpt>
      <trkpt lat="42.51541" lon="2.51325">
        <ele>1656</ele>
        <time>2024-09-19T08:41:07Z</time>
      </trkpt>
      <trkpt lat="42.51537" lon="2.51325">
        <ele>1656</ele>
        <time>2024-09-19T08:41:09Z</time>
      </trkpt>
      <trkpt lat="42.51534" lon="2.51328">
        <ele>1655</ele>
        <time>2024-09-19T08:41:11Z</time>
      </trkpt>
      <trkpt lat="42.51531" lon="2.51332">
        <ele>1657</ele>
        <time>2024-09-19T08:41:15Z</time>
      </trkpt>
      <trkpt lat="42.51528" lon="2.51336">
        <ele>1656</ele>
        <time>2024-09-19T08:41:17Z</time>
      </trkpt>
      <trkpt lat="42.51526" lon="2.5134">
        <ele>1657</ele>
        <time>2024-09-19T08:41:19Z</time>
      </trkpt>
      <trkpt lat="42.51524" lon="2.51343">
        <ele>1657</ele>
        <time>2024-09-19T08:41:23Z</time>
      </trkpt>
      <trkpt lat="42.51522" lon="2.51347">
        <ele>1658</ele>
        <time>2024-09-19T08:41:25Z</time>
      </trkpt>
      <trkpt lat="42.51519" lon="2.5135">
        <ele>1656</ele>
        <time>2024-09-19T08:41:28Z</time>
      </trkpt>
      <trkpt lat="42.51517" lon="2.51353">
        <ele>1653</ele>
        <time>2024-09-19T08:41:31Z</time>
      </trkpt>
      <trkpt lat="42.51514" lon="2.51354">
        <ele>1652</ele>
        <time>2024-09-19T08:41:34Z</time>
      </trkpt>
      <trkpt lat="42.5151" lon="2.51355">
        <ele>1652</ele>
        <time>2024-09-19T08:41:36Z</time>
      </trkpt>
      <trkpt lat="42.51506" lon="2.51356">
        <ele>1654</ele>
        <time>2024-09-19T08:41:40Z</time>
      </trkpt>
      <trkpt lat="42.51502" lon="2.51357">
        <ele>1653</ele>
        <time>2024-09-19T08:41:43Z</time>
      </trkpt>
      <trkpt lat="42.515" lon="2.5136">
        <ele>1655</ele>
        <time>2024-09-19T08:41:46Z</time>
      </trkpt>
      <trkpt lat="42.51497" lon="2.51363">
        <ele>1657</ele>
        <time>2024-09-19T08:41:49Z</time>
      </trkpt>
      <trkpt lat="42.51493" lon="2.51364">
        <ele>1654</ele>
        <time>2024-09-19T08:41:52Z</time>
      </trkpt>
      <trkpt lat="42.5149" lon="2.51365">
        <ele>1653</ele>
        <time>2024-09-19T08:41:56Z</time>
      </trkpt>
      <trkpt lat="42.51487" lon="2.51365">
        <ele>1654</ele>
        <time>2024-09-19T08:41:59Z</time>
      </trkpt>
      <trkpt lat="42.51484" lon="2.51366">
        <ele>1655</ele>
        <time>2024-09-19T08:42:03Z</time>
      </trkpt>
      <trkpt lat="42.51481" lon="2.51368">
        <ele>1655</ele>
        <time>2024-09-19T08:42:07Z</time>
      </trkpt>
      <trkpt lat="42.51478" lon="2.51368">
        <ele>1655</ele>
        <time>2024-09-19T08:42:10Z</time>
      </trkpt>
      <trkpt lat="42.51475" lon="2.51369">
        <ele>1657</ele>
        <time>2024-09-19T08:42:14Z</time>
      </trkpt>
      <trkpt lat="42.51471" lon="2.51368">
        <ele>1657</ele>
        <time>2024-09-19T08:42:18Z</time>
      </trkpt>
      <trkpt lat="42.51469" lon="2.5137">
        <ele>1657</ele>
        <time>2024-09-19T08:42:21Z</time>
      </trkpt>
      <trkpt lat="42.51466" lon="2.51373">
        <ele>1657</ele>
        <time>2024-09-19T08:42:23Z</time>
      </trkpt>
      <trkpt lat="42.51465" lon="2.51377">
        <ele>1658</ele>
        <time>2024-09-19T08:42:25Z</time>
      </trkpt>
      <trkpt lat="42.51464" lon="2.51382">
        <ele>1659</ele>
        <time>2024-09-19T08:42:28Z</time>
      </trkpt>
      <trkpt lat="42.51463" lon="2.51386">
        <ele>1661</ele>
        <time>2024-09-19T08:42:30Z</time>
      </trkpt>
      <trkpt lat="42.51463" lon="2.5139">
        <ele>1661</ele>
        <time>2024-09-19T08:42:32Z</time>
      </trkpt>
      <trkpt lat="42.51463" lon="2.51394">
        <ele>1661</ele>
        <time>2024-09-19T08:42:34Z</time>
      </trkpt>
      <trkpt lat="42.51462" lon="2.51398">
        <ele>1661</ele>
        <time>2024-09-19T08:42:37Z</time>
      </trkpt>
      <trkpt lat="42.51459" lon="2.514">
        <ele>1659</ele>
        <time>2024-09-19T08:42:40Z</time>
      </trkpt>
      <trkpt lat="42.51456" lon="2.51401">
        <ele>1659</ele>
        <time>2024-09-19T08:42:43Z</time>
      </trkpt>
      <trkpt lat="42.51453" lon="2.51403">
        <ele>1659</ele>
        <time>2024-09-19T08:42:46Z</time>
      </trkpt>
      <trkpt lat="42.5145" lon="2.51404">
        <ele>1659</ele>
        <time>2024-09-19T08:42:48Z</time>
      </trkpt>
      <trkpt lat="42.51446" lon="2.51406">
        <ele>1662</ele>
        <time>2024-09-19T08:42:51Z</time>
      </trkpt>
      <trkpt lat="42.51442" lon="2.51408">
        <ele>1660</ele>
        <time>2024-09-19T08:42:54Z</time>
      </trkpt>
      <trkpt lat="42.51439" lon="2.51413">
        <ele>1661</ele>
        <time>2024-09-19T08:42:58Z</time>
      </trkpt>
      <trkpt lat="42.51435" lon="2.51417">
        <ele>1660</ele>
        <time>2024-09-19T08:43:02Z</time>
      </trkpt>
      <trkpt lat="42.51433" lon="2.5142">
        <ele>1660</ele>
        <time>2024-09-19T08:43:04Z</time>
      </trkpt>
      <trkpt lat="42.51431" lon="2.51424">
        <ele>1659</ele>
        <time>2024-09-19T08:43:07Z</time>
      </trkpt>
      <trkpt lat="42.5143" lon="2.51428">
        <ele>1660</ele>
        <time>2024-09-19T08:43:10Z</time>
      </trkpt>
      <trkpt lat="42.51427" lon="2.5143">
        <ele>1658</ele>
        <time>2024-09-19T08:43:12Z</time>
      </trkpt>
      <trkpt lat="42.51425" lon="2.51434">
        <ele>1658</ele>
        <time>2024-09-19T08:43:16Z</time>
      </trkpt>
      <trkpt lat="42.51422" lon="2.51435">
        <ele>1657</ele>
        <time>2024-09-19T08:43:19Z</time>
      </trkpt>
      <trkpt lat="42.51419" lon="2.51437">
        <ele>1657</ele>
        <time>2024-09-19T08:43:21Z</time>
      </trkpt>
      <trkpt lat="42.51416" lon="2.51438">
        <ele>1657</ele>
        <time>2024-09-19T08:43:23Z</time>
      </trkpt>
      <trkpt lat="42.51414" lon="2.51443">
        <ele>1659</ele>
        <time>2024-09-19T08:43:26Z</time>
      </trkpt>
      <trkpt lat="42.51411" lon="2.51446">
        <ele>1658</ele>
        <time>2024-09-19T08:43:29Z</time>
      </trkpt>
      <trkpt lat="42.51409" lon="2.51448">
        <ele>1657</ele>
        <time>2024-09-19T08:43:30Z</time>
      </trkpt>
      <trkpt lat="42.51406" lon="2.51449">
        <ele>1659</ele>
        <time>2024-09-19T08:43:33Z</time>
      </trkpt>
      <trkpt lat="42.51403" lon="2.51449">
        <ele>1658</ele>
        <time>2024-09-19T08:43:36Z</time>
      </trkpt>
      <trkpt lat="42.514" lon="2.5145">
        <ele>1660</ele>
        <time>2024-09-19T08:43:40Z</time>
      </trkpt>
      <trkpt lat="42.51397" lon="2.5145">
        <ele>1661</ele>
        <time>2024-09-19T08:43:45Z</time>
      </trkpt>
      <trkpt lat="42.51395" lon="2.51448">
        <ele>1658</ele>
        <time>2024-09-19T08:43:49Z</time>
      </trkpt>
      <trkpt lat="42.51392" lon="2.51446">
        <ele>1658</ele>
        <time>2024-09-19T08:43:53Z</time>
      </trkpt>
      <trkpt lat="42.51389" lon="2.51445">
        <ele>1659</ele>
        <time>2024-09-19T08:43:56Z</time>
      </trkpt>
      <trkpt lat="42.51387" lon="2.51446">
        <ele>1655</ele>
        <time>2024-09-19T08:44:03Z</time>
      </trkpt>
      <trkpt lat="42.51386" lon="2.51449">
        <ele>1655</ele>
        <time>2024-09-19T08:44:21Z</time>
      </trkpt>
      <trkpt lat="42.51386" lon="2.51454">
        <ele>1656</ele>
        <time>2024-09-19T08:44:26Z</time>
      </trkpt>
      <trkpt lat="42.51387" lon="2.51458">
        <ele>1656</ele>
        <time>2024-09-19T08:44:31Z</time>
      </trkpt>
      <trkpt lat="42.51389" lon="2.51461">
        <ele>1656</ele>
        <time>2024-09-19T08:44:34Z</time>
      </trkpt>
      <trkpt lat="42.51391" lon="2.51465">
        <ele>1655</ele>
        <time>2024-09-19T08:44:37Z</time>
      </trkpt>
      <trkpt lat="42.51393" lon="2.51468">
        <ele>1656</ele>
        <time>2024-09-19T08:44:39Z</time>
      </trkpt>
      <trkpt lat="42.51396" lon="2.51471">
        <ele>1656</ele>
        <time>2024-09-19T08:44:41Z</time>
      </trkpt>
      <trkpt lat="42.51398" lon="2.51475">
        <ele>1656</ele>
        <time>2024-09-19T08:44:44Z</time>
      </trkpt>
      <trkpt lat="42.514" lon="2.51479">
        <ele>1656</ele>
        <time>2024-09-19T08:44:47Z</time>
      </trkpt>
      <trkpt lat="42.51402" lon="2.51481">
        <ele>1653</ele>
        <time>2024-09-19T08:44:52Z</time>
      </trkpt>
      <trkpt lat="42.51404" lon="2.51484">
        <ele>1653</ele>
        <time>2024-09-19T08:44:54Z</time>
      </trkpt>
      <trkpt lat="42.51407" lon="2.51486">
        <ele>1654</ele>
        <time>2024-09-19T08:44:57Z</time>
      </trkpt>
      <trkpt lat="42.51409" lon="2.51489">
        <ele>1652</ele>
        <time>2024-09-19T08:45:00Z</time>
      </trkpt>
      <trkpt lat="42.51412" lon="2.5149">
        <ele>1652</ele>
        <time>2024-09-19T08:45:03Z</time>
      </trkpt>
      <trkpt lat="42.51415" lon="2.51492">
        <ele>1652</ele>
        <time>2024-09-19T08:45:07Z</time>
      </trkpt>
      <trkpt lat="42.51417" lon="2.51494">
        <ele>1651</ele>
        <time>2024-09-19T08:45:10Z</time>
      </trkpt>
      <trkpt lat="42.51419" lon="2.51498">
        <ele>1650</ele>
        <time>2024-09-19T08:45:13Z</time>
      </trkpt>
      <trkpt lat="42.51421" lon="2.515">
        <ele>1650</ele>
        <time>2024-09-19T08:45:16Z</time>
      </trkpt>
      <trkpt lat="42.51423" lon="2.51504">
        <ele>1651</ele>
        <time>2024-09-19T08:45:19Z</time>
      </trkpt>
      <trkpt lat="42.51424" lon="2.51508">
        <ele>1649</ele>
        <time>2024-09-19T08:45:22Z</time>
      </trkpt>
      <trkpt lat="42.51425" lon="2.51512">
        <ele>1649</ele>
        <time>2024-09-19T08:45:25Z</time>
      </trkpt>
      <trkpt lat="42.51427" lon="2.51514">
        <ele>1649</ele>
        <time>2024-09-19T08:45:28Z</time>
      </trkpt>
      <trkpt lat="42.5143" lon="2.51517">
        <ele>1647</ele>
        <time>2024-09-19T08:45:31Z</time>
      </trkpt>
      <trkpt lat="42.51433" lon="2.51519">
        <ele>1646</ele>
        <time>2024-09-19T08:45:33Z</time>
      </trkpt>
      <trkpt lat="42.51436" lon="2.5152">
        <ele>1646</ele>
        <time>2024-09-19T08:45:36Z</time>
      </trkpt>
      <trkpt lat="42.51439" lon="2.5152">
        <ele>1647</ele>
        <time>2024-09-19T08:45:39Z</time>
      </trkpt>
      <trkpt lat="42.51442" lon="2.51522">
        <ele>1647</ele>
        <time>2024-09-19T08:45:43Z</time>
      </trkpt>
      <trkpt lat="42.51446" lon="2.51525">
        <ele>1647</ele>
        <time>2024-09-19T08:45:47Z</time>
      </trkpt>
      <trkpt lat="42.51449" lon="2.51526">
        <ele>1646</ele>
        <time>2024-09-19T08:45:50Z</time>
      </trkpt>
      <trkpt lat="42.51452" lon="2.51528">
        <ele>1648</ele>
        <time>2024-09-19T08:45:52Z</time>
      </trkpt>
      <trkpt lat="42.51455" lon="2.51527">
        <ele>1647</ele>
        <time>2024-09-19T08:45:56Z</time>
      </trkpt>
      <trkpt lat="42.51458" lon="2.51525">
        <ele>1649</ele>
        <time>2024-09-19T08:45:59Z</time>
      </trkpt>
      <trkpt lat="42.51461" lon="2.51525">
        <ele>1650</ele>
        <time>2024-09-19T08:46:02Z</time>
      </trkpt>
      <trkpt lat="42.51462" lon="2.51528">
        <ele>1649</ele>
        <time>2024-09-19T08:46:06Z</time>
      </trkpt>
      <trkpt lat="42.51462" lon="2.51532">
        <ele>1650</ele>
        <time>2024-09-19T08:46:09Z</time>
      </trkpt>
      <trkpt lat="42.51462" lon="2.51536">
        <ele>1650</ele>
        <time>2024-09-19T08:46:16Z</time>
      </trkpt>
      <trkpt lat="42.51461" lon="2.5154">
        <ele>1650</ele>
        <time>2024-09-19T08:46:19Z</time>
      </trkpt>
      <trkpt lat="42.51461" lon="2.51544">
        <ele>1651</ele>
        <time>2024-09-19T08:46:21Z</time>
      </trkpt>
      <trkpt lat="42.51461" lon="2.51548">
        <ele>1651</ele>
        <time>2024-09-19T08:46:26Z</time>
      </trkpt>
      <trkpt lat="42.51462" lon="2.51553">
        <ele>1652</ele>
        <time>2024-09-19T08:46:29Z</time>
      </trkpt>
      <trkpt lat="42.51461" lon="2.51558">
        <ele>1652</ele>
        <time>2024-09-19T08:46:33Z</time>
      </trkpt>
      <trkpt lat="42.5146" lon="2.51562">
        <ele>1651</ele>
        <time>2024-09-19T08:46:36Z</time>
      </trkpt>
      <trkpt lat="42.51459" lon="2.51566">
        <ele>1650</ele>
        <time>2024-09-19T08:46:40Z</time>
      </trkpt>
      <trkpt lat="42.51458" lon="2.5157">
        <ele>1650</ele>
        <time>2024-09-19T08:46:44Z</time>
      </trkpt>
      <trkpt lat="42.51457" lon="2.51574">
        <ele>1650</ele>
        <time>2024-09-19T08:46:46Z</time>
      </trkpt>
      <trkpt lat="42.51458" lon="2.51578">
        <ele>1651</ele>
        <time>2024-09-19T08:46:48Z</time>
      </trkpt>
      <trkpt lat="42.5146" lon="2.51582">
        <ele>1650</ele>
        <time>2024-09-19T08:46:51Z</time>
      </trkpt>
      <trkpt lat="42.51461" lon="2.51586">
        <ele>1650</ele>
        <time>2024-09-19T08:46:53Z</time>
      </trkpt>
      <trkpt lat="42.51461" lon="2.51591">
        <ele>1649</ele>
        <time>2024-09-19T08:46:56Z</time>
      </trkpt>
      <trkpt lat="42.51463" lon="2.51596">
        <ele>1650</ele>
        <time>2024-09-19T08:47:01Z</time>
      </trkpt>
      <trkpt lat="42.51464" lon="2.516">
        <ele>1649</ele>
        <time>2024-09-19T08:47:05Z</time>
      </trkpt>
      <trkpt lat="42.51465" lon="2.51605">
        <ele>1650</ele>
        <time>2024-09-19T08:47:07Z</time>
      </trkpt>
      <trkpt lat="42.51466" lon="2.5161">
        <ele>1649</ele>
        <time>2024-09-19T08:47:10Z</time>
      </trkpt>
      <trkpt lat="42.51467" lon="2.51615">
        <ele>1650</ele>
        <time>2024-09-19T08:47:13Z</time>
      </trkpt>
      <trkpt lat="42.51467" lon="2.51619">
        <ele>1647</ele>
        <time>2024-09-19T08:47:17Z</time>
      </trkpt>
      <trkpt lat="42.51469" lon="2.51621">
        <ele>1647</ele>
        <time>2024-09-19T08:47:20Z</time>
      </trkpt>
      <trkpt lat="42.51471" lon="2.51624">
        <ele>1647</ele>
        <time>2024-09-19T08:47:24Z</time>
      </trkpt>
      <trkpt lat="42.51473" lon="2.51627">
        <ele>1646</ele>
        <time>2024-09-19T08:47:28Z</time>
      </trkpt>
      <trkpt lat="42.51475" lon="2.51631">
        <ele>1646</ele>
        <time>2024-09-19T08:47:32Z</time>
      </trkpt>
      <trkpt lat="42.51477" lon="2.51635">
        <ele>1646</ele>
        <time>2024-09-19T08:47:35Z</time>
      </trkpt>
      <trkpt lat="42.5148" lon="2.51639">
        <ele>1645</ele>
        <time>2024-09-19T08:47:40Z</time>
      </trkpt>
      <trkpt lat="42.51482" lon="2.51641">
        <ele>1645</ele>
        <time>2024-09-19T08:47:42Z</time>
      </trkpt>
      <trkpt lat="42.51485" lon="2.51643">
        <ele>1644</ele>
        <time>2024-09-19T08:47:44Z</time>
      </trkpt>
      <trkpt lat="42.51489" lon="2.51645">
        <ele>1643</ele>
        <time>2024-09-19T08:47:48Z</time>
      </trkpt>
      <trkpt lat="42.51492" lon="2.51647">
        <ele>1642</ele>
        <time>2024-09-19T08:47:51Z</time>
      </trkpt>
      <trkpt lat="42.51496" lon="2.51649">
        <ele>1640</ele>
        <time>2024-09-19T08:47:56Z</time>
      </trkpt>
      <trkpt lat="42.51499" lon="2.51651">
        <ele>1638</ele>
        <time>2024-09-19T08:48:00Z</time>
      </trkpt>
      <trkpt lat="42.51502" lon="2.51654">
        <ele>1637</ele>
        <time>2024-09-19T08:48:03Z</time>
      </trkpt>
      <trkpt lat="42.51506" lon="2.51655">
        <ele>1636</ele>
        <time>2024-09-19T08:48:08Z</time>
      </trkpt>
      <trkpt lat="42.5151" lon="2.51656">
        <ele>1635</ele>
        <time>2024-09-19T08:48:10Z</time>
      </trkpt>
      <trkpt lat="42.51513" lon="2.51658">
        <ele>1635</ele>
        <time>2024-09-19T08:48:15Z</time>
      </trkpt>
      <trkpt lat="42.51517" lon="2.5166">
        <ele>1635</ele>
        <time>2024-09-19T08:48:19Z</time>
      </trkpt>
      <trkpt lat="42.5152" lon="2.51661">
        <ele>1634</ele>
        <time>2024-09-19T08:48:24Z</time>
      </trkpt>
      <trkpt lat="42.51523" lon="2.51662">
        <ele>1634</ele>
        <time>2024-09-19T08:48:26Z</time>
      </trkpt>
      <trkpt lat="42.51525" lon="2.51662">
        <ele>1634</ele>
        <time>2024-09-19T08:48:28Z</time>
      </trkpt>
      <trkpt lat="42.51527" lon="2.51666">
        <ele>1633</ele>
        <time>2024-09-19T08:48:31Z</time>
      </trkpt>
      <trkpt lat="42.51529" lon="2.51669">
        <ele>1632</ele>
        <time>2024-09-19T08:48:35Z</time>
      </trkpt>
      <trkpt lat="42.51531" lon="2.51672">
        <ele>1631</ele>
        <time>2024-09-19T08:48:38Z</time>
      </trkpt>
      <trkpt lat="42.51534" lon="2.51674">
        <ele>1630</ele>
        <time>2024-09-19T08:48:42Z</time>
      </trkpt>
      <trkpt lat="42.51536" lon="2.51676">
        <ele>1630</ele>
        <time>2024-09-19T08:48:45Z</time>
      </trkpt>
      <trkpt lat="42.51539" lon="2.51679">
        <ele>1628</ele>
        <time>2024-09-19T08:48:50Z</time>
      </trkpt>
      <trkpt lat="42.51542" lon="2.51683">
        <ele>1629</ele>
        <time>2024-09-19T08:48:54Z</time>
      </trkpt>
      <trkpt lat="42.51545" lon="2.51685">
        <ele>1629</ele>
        <time>2024-09-19T08:48:55Z</time>
      </trkpt>
      <trkpt lat="42.51547" lon="2.51686">
        <ele>1629</ele>
        <time>2024-09-19T08:48:58Z</time>
      </trkpt>
      <trkpt lat="42.5155" lon="2.51688">
        <ele>1629</ele>
        <time>2024-09-19T08:49:00Z</time>
      </trkpt>
      <trkpt lat="42.51553" lon="2.51689">
        <ele>1629</ele>
        <time>2024-09-19T08:49:02Z</time>
      </trkpt>
      <trkpt lat="42.51555" lon="2.51691">
        <ele>1628</ele>
        <time>2024-09-19T08:49:06Z</time>
      </trkpt>
      <trkpt lat="42.51558" lon="2.51694">
        <ele>1628</ele>
        <time>2024-09-19T08:49:09Z</time>
      </trkpt>
      <trkpt lat="42.51561" lon="2.51696">
        <ele>1627</ele>
        <time>2024-09-19T08:49:12Z</time>
      </trkpt>
      <trkpt lat="42.51563" lon="2.51699">
        <ele>1626</ele>
        <time>2024-09-19T08:49:16Z</time>
      </trkpt>
      <trkpt lat="42.51565" lon="2.51703">
        <ele>1626</ele>
        <time>2024-09-19T08:49:19Z</time>
      </trkpt>
      <trkpt lat="42.51567" lon="2.51706">
        <ele>1627</ele>
        <time>2024-09-19T08:49:22Z</time>
      </trkpt>
      <trkpt lat="42.5157" lon="2.51709">
        <ele>1628</ele>
        <time>2024-09-19T08:49:25Z</time>
      </trkpt>
      <trkpt lat="42.51574" lon="2.51711">
        <ele>1628</ele>
        <time>2024-09-19T08:49:29Z</time>
      </trkpt>
      <trkpt lat="42.51578" lon="2.51714">
        <ele>1629</ele>
        <time>2024-09-19T08:49:33Z</time>
      </trkpt>
      <trkpt lat="42.5158" lon="2.51717">
        <ele>1628</ele>
        <time>2024-09-19T08:49:37Z</time>
      </trkpt>
      <trkpt lat="42.51583" lon="2.5172">
        <ele>1627</ele>
        <time>2024-09-19T08:49:41Z</time>
      </trkpt>
      <trkpt lat="42.51584" lon="2.51724">
        <ele>1625</ele>
        <time>2024-09-19T08:49:45Z</time>
      </trkpt>
      <trkpt lat="42.51585" lon="2.51729">
        <ele>1625</ele>
        <time>2024-09-19T08:49:48Z</time>
      </trkpt>
      <trkpt lat="42.51586" lon="2.51733">
        <ele>1625</ele>
        <time>2024-09-19T08:49:51Z</time>
      </trkpt>
      <trkpt lat="42.51587" lon="2.51737">
        <ele>1624</ele>
        <time>2024-09-19T08:49:54Z</time>
      </trkpt>
      <trkpt lat="42.51587" lon="2.51742">
        <ele>1623</ele>
        <time>2024-09-19T08:49:58Z</time>
      </trkpt>
      <trkpt lat="42.51588" lon="2.51746">
        <ele>1623</ele>
        <time>2024-09-19T08:50:02Z</time>
      </trkpt>
      <trkpt lat="42.51588" lon="2.5175">
        <ele>1624</ele>
        <time>2024-09-19T08:50:04Z</time>
      </trkpt>
      <trkpt lat="42.51589" lon="2.51754">
        <ele>1624</ele>
        <time>2024-09-19T08:50:08Z</time>
      </trkpt>
      <trkpt lat="42.51588" lon="2.51759">
        <ele>1623</ele>
        <time>2024-09-19T08:50:13Z</time>
      </trkpt>
      <trkpt lat="42.51587" lon="2.51762">
        <ele>1623</ele>
        <time>2024-09-19T08:50:16Z</time>
      </trkpt>
      <trkpt lat="42.51586" lon="2.51767">
        <ele>1623</ele>
        <time>2024-09-19T08:50:19Z</time>
      </trkpt>
      <trkpt lat="42.51585" lon="2.5177">
        <ele>1621</ele>
        <time>2024-09-19T08:50:24Z</time>
      </trkpt>
      <trkpt lat="42.51585" lon="2.51774">
        <ele>1620</ele>
        <time>2024-09-19T08:50:28Z</time>
      </trkpt>
      <trkpt lat="42.51585" lon="2.51779">
        <ele>1618</ele>
        <time>2024-09-19T08:50:33Z</time>
      </trkpt>
      <trkpt lat="42.51585" lon="2.51783">
        <ele>1619</ele>
        <time>2024-09-19T08:50:37Z</time>
      </trkpt>
      <trkpt lat="42.51584" lon="2.51786">
        <ele>1618</ele>
        <time>2024-09-19T08:50:40Z</time>
      </trkpt>
      <trkpt lat="42.51584" lon="2.5179">
        <ele>1619</ele>
        <time>2024-09-19T08:50:42Z</time>
      </trkpt>
      <trkpt lat="42.51585" lon="2.51795">
        <ele>1618</ele>
        <time>2024-09-19T08:50:44Z</time>
      </trkpt>
      <trkpt lat="42.51584" lon="2.51799">
        <ele>1620</ele>
        <time>2024-09-19T08:50:46Z</time>
      </trkpt>
      <trkpt lat="42.51584" lon="2.51803">
        <ele>1619</ele>
        <time>2024-09-19T08:50:49Z</time>
      </trkpt>
      <trkpt lat="42.51585" lon="2.51806">
        <ele>1619</ele>
        <time>2024-09-19T08:50:52Z</time>
      </trkpt>
      <trkpt lat="42.51585" lon="2.51811">
        <ele>1618</ele>
        <time>2024-09-19T08:50:56Z</time>
      </trkpt>
      <trkpt lat="42.51584" lon="2.51815">
        <ele>1615</ele>
        <time>2024-09-19T08:50:58Z</time>
      </trkpt>
      <trkpt lat="42.51584" lon="2.5182">
        <ele>1615</ele>
        <time>2024-09-19T08:51:00Z</time>
      </trkpt>
      <trkpt lat="42.51584" lon="2.51825">
        <ele>1615</ele>
        <time>2024-09-19T08:51:02Z</time>
      </trkpt>
      <trkpt lat="42.51583" lon="2.51833">
        <ele>1614</ele>
        <time>2024-09-19T08:51:06Z</time>
      </trkpt>
      <trkpt lat="42.51581" lon="2.51836">
        <ele>1614</ele>
        <time>2024-09-19T08:51:10Z</time>
      </trkpt>
      <trkpt lat="42.51579" lon="2.51839">
        <ele>1611</ele>
        <time>2024-09-19T08:51:14Z</time>
      </trkpt>
      <trkpt lat="42.51577" lon="2.51842">
        <ele>1610</ele>
        <time>2024-09-19T08:51:18Z</time>
      </trkpt>
      <trkpt lat="42.51576" lon="2.51846">
        <ele>1610</ele>
        <time>2024-09-19T08:51:20Z</time>
      </trkpt>
      <trkpt lat="42.51576" lon="2.5185">
        <ele>1611</ele>
        <time>2024-09-19T08:51:24Z</time>
      </trkpt>
      <trkpt lat="42.51575" lon="2.51854">
        <ele>1612</ele>
        <time>2024-09-19T08:51:26Z</time>
      </trkpt>
      <trkpt lat="42.51574" lon="2.51858">
        <ele>1612</ele>
        <time>2024-09-19T08:51:28Z</time>
      </trkpt>
      <trkpt lat="42.51572" lon="2.51863">
        <ele>1613</ele>
        <time>2024-09-19T08:51:31Z</time>
      </trkpt>
      <trkpt lat="42.51572" lon="2.51869">
        <ele>1613</ele>
        <time>2024-09-19T08:51:33Z</time>
      </trkpt>
      <trkpt lat="42.5157" lon="2.51872">
        <ele>1612</ele>
        <time>2024-09-19T08:51:36Z</time>
      </trkpt>
      <trkpt lat="42.51568" lon="2.51876">
        <ele>1612</ele>
        <time>2024-09-19T08:51:39Z</time>
      </trkpt>
      <trkpt lat="42.51566" lon="2.5188">
        <ele>1615</ele>
        <time>2024-09-19T08:51:42Z</time>
      </trkpt>
      <trkpt lat="42.51563" lon="2.51885">
        <ele>1612</ele>
        <time>2024-09-19T08:51:46Z</time>
      </trkpt>
      <trkpt lat="42.51561" lon="2.5189">
        <ele>1613</ele>
        <time>2024-09-19T08:51:49Z</time>
      </trkpt>
      <trkpt lat="42.51562" lon="2.51893">
        <ele>1609</ele>
        <time>2024-09-19T08:51:53Z</time>
      </trkpt>
      <trkpt lat="42.51564" lon="2.51896">
        <ele>1608</ele>
        <time>2024-09-19T08:51:57Z</time>
      </trkpt>
      <trkpt lat="42.51566" lon="2.51901">
        <ele>1609</ele>
        <time>2024-09-19T08:52:00Z</time>
      </trkpt>
      <trkpt lat="42.5157" lon="2.51902">
        <ele>1609</ele>
        <time>2024-09-19T08:52:05Z</time>
      </trkpt>
      <trkpt lat="42.51573" lon="2.51905">
        <ele>1607</ele>
        <time>2024-09-19T08:52:10Z</time>
      </trkpt>
      <trkpt lat="42.51575" lon="2.51908">
        <ele>1607</ele>
        <time>2024-09-19T08:52:13Z</time>
      </trkpt>
      <trkpt lat="42.51577" lon="2.51911">
        <ele>1609</ele>
        <time>2024-09-19T08:52:15Z</time>
      </trkpt>
      <trkpt lat="42.5158" lon="2.51912">
        <ele>1608</ele>
        <time>2024-09-19T08:52:16Z</time>
      </trkpt>
      <trkpt lat="42.51582" lon="2.51914">
        <ele>1607</ele>
        <time>2024-09-19T08:52:19Z</time>
      </trkpt>
      <trkpt lat="42.51584" lon="2.51916">
        <ele>1609</ele>
        <time>2024-09-19T08:52:21Z</time>
      </trkpt>
      <trkpt lat="42.51587" lon="2.51919">
        <ele>1608</ele>
        <time>2024-09-19T08:52:24Z</time>
      </trkpt>
      <trkpt lat="42.51589" lon="2.51923">
        <ele>1607</ele>
        <time>2024-09-19T08:52:29Z</time>
      </trkpt>
      <trkpt lat="42.51591" lon="2.51927">
        <ele>1605</ele>
        <time>2024-09-19T08:52:31Z</time>
      </trkpt>
      <trkpt lat="42.51592" lon="2.51931">
        <ele>1605</ele>
        <time>2024-09-19T08:52:35Z</time>
      </trkpt>
      <trkpt lat="42.51594" lon="2.51935">
        <ele>1604</ele>
        <time>2024-09-19T08:52:38Z</time>
      </trkpt>
      <trkpt lat="42.51597" lon="2.51938">
        <ele>1605</ele>
        <time>2024-09-19T08:52:41Z</time>
      </trkpt>
      <trkpt lat="42.51599" lon="2.51941">
        <ele>1603</ele>
        <time>2024-09-19T08:52:44Z</time>
      </trkpt>
      <trkpt lat="42.51602" lon="2.51945">
        <ele>1602</ele>
        <time>2024-09-19T08:52:46Z</time>
      </trkpt>
      <trkpt lat="42.51605" lon="2.51948">
        <ele>1602</ele>
        <time>2024-09-19T08:52:49Z</time>
      </trkpt>
      <trkpt lat="42.51607" lon="2.51951">
        <ele>1603</ele>
        <time>2024-09-19T08:52:53Z</time>
      </trkpt>
      <trkpt lat="42.5161" lon="2.51954">
        <ele>1604</ele>
        <time>2024-09-19T08:52:56Z</time>
      </trkpt>
      <trkpt lat="42.51612" lon="2.51957">
        <ele>1603</ele>
        <time>2024-09-19T08:52:59Z</time>
      </trkpt>
      <trkpt lat="42.51615" lon="2.51958">
        <ele>1602</ele>
        <time>2024-09-19T08:53:03Z</time>
      </trkpt>
      <trkpt lat="42.51618" lon="2.51961">
        <ele>1603</ele>
        <time>2024-09-19T08:53:05Z</time>
      </trkpt>
      <trkpt lat="42.5162" lon="2.51963">
        <ele>1602</ele>
        <time>2024-09-19T08:53:08Z</time>
      </trkpt>
      <trkpt lat="42.51623" lon="2.51966">
        <ele>1601</ele>
        <time>2024-09-19T08:53:11Z</time>
      </trkpt>
      <trkpt lat="42.51626" lon="2.51967">
        <ele>1602</ele>
        <time>2024-09-19T08:53:14Z</time>
      </trkpt>
      <trkpt lat="42.51629" lon="2.51968">
        <ele>1599</ele>
        <time>2024-09-19T08:53:16Z</time>
      </trkpt>
      <trkpt lat="42.51632" lon="2.51969">
        <ele>1600</ele>
        <time>2024-09-19T08:53:18Z</time>
      </trkpt>
      <trkpt lat="42.51635" lon="2.5197">
        <ele>1599</ele>
        <time>2024-09-19T08:53:20Z</time>
      </trkpt>
      <trkpt lat="42.5164" lon="2.51969">
        <ele>1601</ele>
        <time>2024-09-19T08:53:23Z</time>
      </trkpt>
      <trkpt lat="42.51643" lon="2.51968">
        <ele>1600</ele>
        <time>2024-09-19T08:53:25Z</time>
      </trkpt>
      <trkpt lat="42.51646" lon="2.51968">
        <ele>1598</ele>
        <time>2024-09-19T08:53:30Z</time>
      </trkpt>
      <trkpt lat="42.5165" lon="2.51967">
        <ele>1597</ele>
        <time>2024-09-19T08:53:33Z</time>
      </trkpt>
      <trkpt lat="42.51653" lon="2.51968">
        <ele>1595</ele>
        <time>2024-09-19T08:53:35Z</time>
      </trkpt>
      <trkpt lat="42.51652" lon="2.51968">
        <ele>1596</ele>
        <time>2024-09-19T08:53:37Z</time>
      </trkpt>
      <trkpt lat="42.51653" lon="2.5197">
        <ele>1594</ele>
        <time>2024-09-19T08:53:40Z</time>
      </trkpt>
      <trkpt lat="42.51655" lon="2.51972">
        <ele>1594</ele>
        <time>2024-09-19T08:53:43Z</time>
      </trkpt>
      <trkpt lat="42.51657" lon="2.51976">
        <ele>1594</ele>
        <time>2024-09-19T08:53:46Z</time>
      </trkpt>
      <trkpt lat="42.5166" lon="2.51979">
        <ele>1595</ele>
        <time>2024-09-19T08:53:49Z</time>
      </trkpt>
      <trkpt lat="42.51662" lon="2.51982">
        <ele>1595</ele>
        <time>2024-09-19T08:53:51Z</time>
      </trkpt>
      <trkpt lat="42.51663" lon="2.51985">
        <ele>1594</ele>
        <time>2024-09-19T08:53:55Z</time>
      </trkpt>
      <trkpt lat="42.51665" lon="2.51988">
        <ele>1594</ele>
        <time>2024-09-19T08:53:57Z</time>
      </trkpt>
      <trkpt lat="42.51667" lon="2.51992">
        <ele>1595</ele>
        <time>2024-09-19T08:54:01Z</time>
      </trkpt>
      <trkpt lat="42.5167" lon="2.51995">
        <ele>1596</ele>
        <time>2024-09-19T08:54:04Z</time>
      </trkpt>
      <trkpt lat="42.51673" lon="2.51998">
        <ele>1595</ele>
        <time>2024-09-19T08:54:07Z</time>
      </trkpt>
      <trkpt lat="42.51677" lon="2.52">
        <ele>1595</ele>
        <time>2024-09-19T08:54:09Z</time>
      </trkpt>
      <trkpt lat="42.51679" lon="2.52003">
        <ele>1595</ele>
        <time>2024-09-19T08:54:12Z</time>
      </trkpt>
      <trkpt lat="42.51682" lon="2.52003">
        <ele>1596</ele>
        <time>2024-09-19T08:54:16Z</time>
      </trkpt>
      <trkpt lat="42.51685" lon="2.52002">
        <ele>1600</ele>
        <time>2024-09-19T08:54:44Z</time>
      </trkpt>
      <trkpt lat="42.51687" lon="2.52004">
        <ele>1597</ele>
        <time>2024-09-19T08:55:36Z</time>
      </trkpt>
      <trkpt lat="42.5169" lon="2.52006">
        <ele>1597</ele>
        <time>2024-09-19T08:55:40Z</time>
      </trkpt>
      <trkpt lat="42.51691" lon="2.52009">
        <ele>1595</ele>
        <time>2024-09-19T08:55:44Z</time>
      </trkpt>
      <trkpt lat="42.51692" lon="2.52013">
        <ele>1594</ele>
        <time>2024-09-19T08:55:47Z</time>
      </trkpt>
      <trkpt lat="42.51693" lon="2.52018">
        <ele>1592</ele>
        <time>2024-09-19T08:55:51Z</time>
      </trkpt>
      <trkpt lat="42.51694" lon="2.52022">
        <ele>1593</ele>
        <time>2024-09-19T08:55:53Z</time>
      </trkpt>
      <trkpt lat="42.51696" lon="2.52026">
        <ele>1593</ele>
        <time>2024-09-19T08:55:56Z</time>
      </trkpt>
      <trkpt lat="42.51697" lon="2.5203">
        <ele>1593</ele>
        <time>2024-09-19T08:55:58Z</time>
      </trkpt>
      <trkpt lat="42.51697" lon="2.52035">
        <ele>1594</ele>
        <time>2024-09-19T08:56:00Z</time>
      </trkpt>
      <trkpt lat="42.51698" lon="2.52038">
        <ele>1592</ele>
        <time>2024-09-19T08:56:03Z</time>
      </trkpt>
      <trkpt lat="42.51698" lon="2.52043">
        <ele>1591</ele>
        <time>2024-09-19T08:56:06Z</time>
      </trkpt>
      <trkpt lat="42.51699" lon="2.52048">
        <ele>1590</ele>
        <time>2024-09-19T08:56:10Z</time>
      </trkpt>
      <trkpt lat="42.517" lon="2.52053">
        <ele>1589</ele>
        <time>2024-09-19T08:56:13Z</time>
      </trkpt>
      <trkpt lat="42.51701" lon="2.52057">
        <ele>1589</ele>
        <time>2024-09-19T08:56:17Z</time>
      </trkpt>
      <trkpt lat="42.51702" lon="2.52061">
        <ele>1588</ele>
        <time>2024-09-19T08:56:20Z</time>
      </trkpt>
      <trkpt lat="42.51702" lon="2.52066">
        <ele>1587</ele>
        <time>2024-09-19T08:56:23Z</time>
      </trkpt>
      <trkpt lat="42.51702" lon="2.52072">
        <ele>1587</ele>
        <time>2024-09-19T08:56:26Z</time>
      </trkpt>
      <trkpt lat="42.51704" lon="2.52076">
        <ele>1587</ele>
        <time>2024-09-19T08:56:29Z</time>
      </trkpt>
      <trkpt lat="42.51703" lon="2.52081">
        <ele>1585</ele>
        <time>2024-09-19T08:56:33Z</time>
      </trkpt>
      <trkpt lat="42.51704" lon="2.52085">
        <ele>1584</ele>
        <time>2024-09-19T08:56:36Z</time>
      </trkpt>
      <trkpt lat="42.51704" lon="2.52089">
        <ele>1583</ele>
        <time>2024-09-19T08:56:38Z</time>
      </trkpt>
      <trkpt lat="42.51706" lon="2.52092">
        <ele>1584</ele>
        <time>2024-09-19T08:56:42Z</time>
      </trkpt>
      <trkpt lat="42.51706" lon="2.52097">
        <ele>1583</ele>
        <time>2024-09-19T08:56:46Z</time>
      </trkpt>
      <trkpt lat="42.51707" lon="2.52101">
        <ele>1583</ele>
        <time>2024-09-19T08:56:48Z</time>
      </trkpt>
      <trkpt lat="42.51708" lon="2.52105">
        <ele>1584</ele>
        <time>2024-09-19T08:56:50Z</time>
      </trkpt>
      <trkpt lat="42.51708" lon="2.52109">
        <ele>1583</ele>
        <time>2024-09-19T08:56:55Z</time>
      </trkpt>
      <trkpt lat="42.51708" lon="2.52113">
        <ele>1582</ele>
        <time>2024-09-19T08:56:58Z</time>
      </trkpt>
      <trkpt lat="42.51708" lon="2.52119">
        <ele>1582</ele>
        <time>2024-09-19T08:57:02Z</time>
      </trkpt>
      <trkpt lat="42.51709" lon="2.52123">
        <ele>1581</ele>
        <time>2024-09-19T08:57:05Z</time>
      </trkpt>
      <trkpt lat="42.51712" lon="2.52126">
        <ele>1584</ele>
        <time>2024-09-19T08:57:12Z</time>
      </trkpt>
      <trkpt lat="42.51713" lon="2.52129">
        <ele>1584</ele>
        <time>2024-09-19T08:57:14Z</time>
      </trkpt>
      <trkpt lat="42.51713" lon="2.52133">
        <ele>1583</ele>
        <time>2024-09-19T08:57:16Z</time>
      </trkpt>
      <trkpt lat="42.51714" lon="2.52137">
        <ele>1584</ele>
        <time>2024-09-19T08:57:18Z</time>
      </trkpt>
      <trkpt lat="42.51713" lon="2.52141">
        <ele>1581</ele>
        <time>2024-09-19T08:57:24Z</time>
      </trkpt>
      <trkpt lat="42.51712" lon="2.52145">
        <ele>1581</ele>
        <time>2024-09-19T08:57:26Z</time>
      </trkpt>
      <trkpt lat="42.51713" lon="2.52148">
        <ele>1582</ele>
        <time>2024-09-19T08:57:28Z</time>
      </trkpt>
      <trkpt lat="42.51712" lon="2.52152">
        <ele>1579</ele>
        <time>2024-09-19T08:57:31Z</time>
      </trkpt>
      <trkpt lat="42.51712" lon="2.52156">
        <ele>1577</ele>
        <time>2024-09-19T08:57:34Z</time>
      </trkpt>
      <trkpt lat="42.51713" lon="2.5216">
        <ele>1579</ele>
        <time>2024-09-19T08:57:36Z</time>
      </trkpt>
      <trkpt lat="42.51713" lon="2.52164">
        <ele>1578</ele>
        <time>2024-09-19T08:57:38Z</time>
      </trkpt>
      <trkpt lat="42.51712" lon="2.52168">
        <ele>1578</ele>
        <time>2024-09-19T08:57:40Z</time>
      </trkpt>
      <trkpt lat="42.51711" lon="2.52171">
        <ele>1577</ele>
        <time>2024-09-19T08:57:42Z</time>
      </trkpt>
      <trkpt lat="42.51712" lon="2.52175">
        <ele>1578</ele>
        <time>2024-09-19T08:57:45Z</time>
      </trkpt>
      <trkpt lat="42.51712" lon="2.5218">
        <ele>1577</ele>
        <time>2024-09-19T08:57:49Z</time>
      </trkpt>
      <trkpt lat="42.51712" lon="2.52184">
        <ele>1576</ele>
        <time>2024-09-19T08:57:54Z</time>
      </trkpt>
      <trkpt lat="42.51713" lon="2.52189">
        <ele>1576</ele>
        <time>2024-09-19T08:57:58Z</time>
      </trkpt>
      <trkpt lat="42.51714" lon="2.52193">
        <ele>1576</ele>
        <time>2024-09-19T08:58:01Z</time>
      </trkpt>
      <trkpt lat="42.51713" lon="2.52197">
        <ele>1574</ele>
        <time>2024-09-19T08:58:06Z</time>
      </trkpt>
      <trkpt lat="42.51713" lon="2.52202">
        <ele>1573</ele>
        <time>2024-09-19T08:58:10Z</time>
      </trkpt>
      <trkpt lat="42.51713" lon="2.52206">
        <ele>1573</ele>
        <time>2024-09-19T08:58:13Z</time>
      </trkpt>
      <trkpt lat="42.51713" lon="2.52212">
        <ele>1572</ele>
        <time>2024-09-19T08:58:16Z</time>
      </trkpt>
      <trkpt lat="42.51713" lon="2.52217">
        <ele>1571</ele>
        <time>2024-09-19T08:58:20Z</time>
      </trkpt>
      <trkpt lat="42.51712" lon="2.52221">
        <ele>1570</ele>
        <time>2024-09-19T08:58:23Z</time>
      </trkpt>
      <trkpt lat="42.51711" lon="2.52226">
        <ele>1569</ele>
        <time>2024-09-19T08:58:27Z</time>
      </trkpt>
      <trkpt lat="42.51711" lon="2.52231">
        <ele>1570</ele>
        <time>2024-09-19T08:58:29Z</time>
      </trkpt>
      <trkpt lat="42.51711" lon="2.52236">
        <ele>1569</ele>
        <time>2024-09-19T08:58:31Z</time>
      </trkpt>
      <trkpt lat="42.51711" lon="2.52241">
        <ele>1569</ele>
        <time>2024-09-19T08:58:34Z</time>
      </trkpt>
      <trkpt lat="42.51711" lon="2.52245">
        <ele>1568</ele>
        <time>2024-09-19T08:58:37Z</time>
      </trkpt>
      <trkpt lat="42.5171" lon="2.5225">
        <ele>1568</ele>
        <time>2024-09-19T08:58:41Z</time>
      </trkpt>
      <trkpt lat="42.51709" lon="2.52254">
        <ele>1568</ele>
        <time>2024-09-19T08:58:44Z</time>
      </trkpt>
      <trkpt lat="42.51709" lon="2.52259">
        <ele>1567</ele>
        <time>2024-09-19T08:58:48Z</time>
      </trkpt>
      <trkpt lat="42.51708" lon="2.52263">
        <ele>1566</ele>
        <time>2024-09-19T08:58:54Z</time>
      </trkpt>
      <trkpt lat="42.51708" lon="2.52267">
        <ele>1566</ele>
        <time>2024-09-19T08:58:57Z</time>
      </trkpt>
      <trkpt lat="42.51708" lon="2.52272">
        <ele>1566</ele>
        <time>2024-09-19T08:59:01Z</time>
      </trkpt>
      <trkpt lat="42.51708" lon="2.52276">
        <ele>1565</ele>
        <time>2024-09-19T08:59:05Z</time>
      </trkpt>
      <trkpt lat="42.51708" lon="2.5228">
        <ele>1564</ele>
        <time>2024-09-19T08:59:09Z</time>
      </trkpt>
      <trkpt lat="42.51708" lon="2.52285">
        <ele>1564</ele>
        <time>2024-09-19T08:59:12Z</time>
      </trkpt>
      <trkpt lat="42.51707" lon="2.52289">
        <ele>1563</ele>
        <time>2024-09-19T08:59:15Z</time>
      </trkpt>
      <trkpt lat="42.51707" lon="2.52293">
        <ele>1563</ele>
        <time>2024-09-19T08:59:18Z</time>
      </trkpt>
      <trkpt lat="42.51707" lon="2.52297">
        <ele>1563</ele>
        <time>2024-09-19T08:59:20Z</time>
      </trkpt>
      <trkpt lat="42.51708" lon="2.52301">
        <ele>1564</ele>
        <time>2024-09-19T08:59:23Z</time>
      </trkpt>
      <trkpt lat="42.51709" lon="2.52304">
        <ele>1563</ele>
        <time>2024-09-19T08:59:26Z</time>
      </trkpt>
      <trkpt lat="42.51709" lon="2.52308">
        <ele>1562</ele>
        <time>2024-09-19T08:59:29Z</time>
      </trkpt>
      <trkpt lat="42.51709" lon="2.52312">
        <ele>1562</ele>
        <time>2024-09-19T08:59:32Z</time>
      </trkpt>
      <trkpt lat="42.51709" lon="2.52316">
        <ele>1562</ele>
        <time>2024-09-19T08:59:35Z</time>
      </trkpt>
      <trkpt lat="42.51708" lon="2.52321">
        <ele>1561</ele>
        <time>2024-09-19T08:59:42Z</time>
      </trkpt>
      <trkpt lat="42.51707" lon="2.52326">
        <ele>1560</ele>
        <time>2024-09-19T08:59:44Z</time>
      </trkpt>
      <trkpt lat="42.51705" lon="2.5233">
        <ele>1561</ele>
        <time>2024-09-19T08:59:46Z</time>
      </trkpt>
      <trkpt lat="42.51704" lon="2.52335">
        <ele>1560</ele>
        <time>2024-09-19T08:59:49Z</time>
      </trkpt>
      <trkpt lat="42.51704" lon="2.52339">
        <ele>1560</ele>
        <time>2024-09-19T08:59:51Z</time>
      </trkpt>
      <trkpt lat="42.51703" lon="2.52344">
        <ele>1562</ele>
        <time>2024-09-19T08:59:53Z</time>
      </trkpt>
      <trkpt lat="42.51704" lon="2.52349">
        <ele>1561</ele>
        <time>2024-09-19T08:59:56Z</time>
      </trkpt>
      <trkpt lat="42.51702" lon="2.52352">
        <ele>1557</ele>
        <time>2024-09-19T09:00:00Z</time>
      </trkpt>
      <trkpt lat="42.51701" lon="2.52357">
        <ele>1556</ele>
        <time>2024-09-19T09:00:04Z</time>
      </trkpt>
      <trkpt lat="42.517" lon="2.52361">
        <ele>1556</ele>
        <time>2024-09-19T09:00:07Z</time>
      </trkpt>
      <trkpt lat="42.517" lon="2.52365">
        <ele>1557</ele>
        <time>2024-09-19T09:00:09Z</time>
      </trkpt>
      <trkpt lat="42.51701" lon="2.52369">
        <ele>1557</ele>
        <time>2024-09-19T09:00:13Z</time>
      </trkpt>
      <trkpt lat="42.51701" lon="2.52374">
        <ele>1557</ele>
        <time>2024-09-19T09:00:17Z</time>
      </trkpt>
      <trkpt lat="42.517" lon="2.52379">
        <ele>1555</ele>
        <time>2024-09-19T09:00:21Z</time>
      </trkpt>
      <trkpt lat="42.51699" lon="2.52385">
        <ele>1555</ele>
        <time>2024-09-19T09:00:24Z</time>
      </trkpt>
      <trkpt lat="42.517" lon="2.5239">
        <ele>1555</ele>
        <time>2024-09-19T09:00:28Z</time>
      </trkpt>
      <trkpt lat="42.51701" lon="2.52395">
        <ele>1555</ele>
        <time>2024-09-19T09:00:31Z</time>
      </trkpt>
      <trkpt lat="42.51703" lon="2.52398">
        <ele>1556</ele>
        <time>2024-09-19T09:00:36Z</time>
      </trkpt>
      <trkpt lat="42.51702" lon="2.52401">
        <ele>1553</ele>
        <time>2024-09-19T09:00:39Z</time>
      </trkpt>
      <trkpt lat="42.517" lon="2.52404">
        <ele>1552</ele>
        <time>2024-09-19T09:00:41Z</time>
      </trkpt>
      <trkpt lat="42.51698" lon="2.52407">
        <ele>1552</ele>
        <time>2024-09-19T09:00:45Z</time>
      </trkpt>
      <trkpt lat="42.51698" lon="2.52412">
        <ele>1551</ele>
        <time>2024-09-19T09:00:48Z</time>
      </trkpt>
      <trkpt lat="42.51697" lon="2.52417">
        <ele>1551</ele>
        <time>2024-09-19T09:00:51Z</time>
      </trkpt>
      <trkpt lat="42.51697" lon="2.52422">
        <ele>1550</ele>
        <time>2024-09-19T09:00:54Z</time>
      </trkpt>
      <trkpt lat="42.51697" lon="2.52427">
        <ele>1550</ele>
        <time>2024-09-19T09:00:57Z</time>
      </trkpt>
      <trkpt lat="42.51696" lon="2.52432">
        <ele>1551</ele>
        <time>2024-09-19T09:00:59Z</time>
      </trkpt>
      <trkpt lat="42.51696" lon="2.52437">
        <ele>1549</ele>
        <time>2024-09-19T09:01:03Z</time>
      </trkpt>
      <trkpt lat="42.51696" lon="2.52442">
        <ele>1548</ele>
        <time>2024-09-19T09:01:06Z</time>
      </trkpt>
      <trkpt lat="42.51696" lon="2.52447">
        <ele>1548</ele>
        <time>2024-09-19T09:01:09Z</time>
      </trkpt>
      <trkpt lat="42.51695" lon="2.52452">
        <ele>1548</ele>
        <time>2024-09-19T09:01:14Z</time>
      </trkpt>
      <trkpt lat="42.51695" lon="2.52457">
        <ele>1550</ele>
        <time>2024-09-19T09:01:15Z</time>
      </trkpt>
      <trkpt lat="42.51694" lon="2.52462">
        <ele>1549</ele>
        <time>2024-09-19T09:01:18Z</time>
      </trkpt>
      <trkpt lat="42.51694" lon="2.52466">
        <ele>1550</ele>
        <time>2024-09-19T09:01:20Z</time>
      </trkpt>
      <trkpt lat="42.51694" lon="2.5247">
        <ele>1548</ele>
        <time>2024-09-19T09:01:23Z</time>
      </trkpt>
      <trkpt lat="42.51695" lon="2.52469">
        <ele>1547</ele>
        <time>2024-09-19T09:01:26Z</time>
      </trkpt>
      <trkpt lat="42.51697" lon="2.52466">
        <ele>1546</ele>
        <time>2024-09-19T09:01:28Z</time>
      </trkpt>
      <trkpt lat="42.51699" lon="2.52462">
        <ele>1544</ele>
        <time>2024-09-19T09:01:29Z</time>
      </trkpt>
      <trkpt lat="42.517" lon="2.52457">
        <ele>1543</ele>
        <time>2024-09-19T09:01:32Z</time>
      </trkpt>
      <trkpt lat="42.51702" lon="2.52454">
        <ele>1540</ele>
        <time>2024-09-19T09:01:35Z</time>
      </trkpt>
      <trkpt lat="42.51706" lon="2.52451">
        <ele>1540</ele>
        <time>2024-09-19T09:01:38Z</time>
      </trkpt>
      <trkpt lat="42.51709" lon="2.52448">
        <ele>1541</ele>
        <time>2024-09-19T09:01:40Z</time>
      </trkpt>
      <trkpt lat="42.51711" lon="2.52445">
        <ele>1541</ele>
        <time>2024-09-19T09:01:43Z</time>
      </trkpt>
      <trkpt lat="42.51712" lon="2.52442">
        <ele>1540</ele>
        <time>2024-09-19T09:01:46Z</time>
      </trkpt>
      <trkpt lat="42.51712" lon="2.52437">
        <ele>1538</ele>
        <time>2024-09-19T09:01:49Z</time>
      </trkpt>
      <trkpt lat="42.51714" lon="2.52433">
        <ele>1537</ele>
        <time>2024-09-19T09:01:52Z</time>
      </trkpt>
      <trkpt lat="42.51715" lon="2.5243">
        <ele>1537</ele>
        <time>2024-09-19T09:01:54Z</time>
      </trkpt>
      <trkpt lat="42.51716" lon="2.52426">
        <ele>1537</ele>
        <time>2024-09-19T09:01:57Z</time>
      </trkpt>
      <trkpt lat="42.51719" lon="2.52424">
        <ele>1537</ele>
        <time>2024-09-19T09:01:59Z</time>
      </trkpt>
      <trkpt lat="42.51722" lon="2.5242">
        <ele>1536</ele>
        <time>2024-09-19T09:02:01Z</time>
      </trkpt>
      <trkpt lat="42.51723" lon="2.52416">
        <ele>1537</ele>
        <time>2024-09-19T09:02:04Z</time>
      </trkpt>
      <trkpt lat="42.51725" lon="2.52413">
        <ele>1538</ele>
        <time>2024-09-19T09:02:08Z</time>
      </trkpt>
      <trkpt lat="42.51726" lon="2.52408">
        <ele>1538</ele>
        <time>2024-09-19T09:02:12Z</time>
      </trkpt>
      <trkpt lat="42.51727" lon="2.52404">
        <ele>1537</ele>
        <time>2024-09-19T09:02:15Z</time>
      </trkpt>
      <trkpt lat="42.51727" lon="2.524">
        <ele>1537</ele>
        <time>2024-09-19T09:02:18Z</time>
      </trkpt>
      <trkpt lat="42.51727" lon="2.52397">
        <ele>1534</ele>
        <time>2024-09-19T09:02:22Z</time>
      </trkpt>
      <trkpt lat="42.51729" lon="2.52392">
        <ele>1534</ele>
        <time>2024-09-19T09:02:26Z</time>
      </trkpt>
      <trkpt lat="42.5173" lon="2.52387">
        <ele>1534</ele>
        <time>2024-09-19T09:02:29Z</time>
      </trkpt>
      <trkpt lat="42.51732" lon="2.52383">
        <ele>1534</ele>
        <time>2024-09-19T09:02:31Z</time>
      </trkpt>
      <trkpt lat="42.51734" lon="2.5238">
        <ele>1535</ele>
        <time>2024-09-19T09:02:33Z</time>
      </trkpt>
      <trkpt lat="42.51736" lon="2.52376">
        <ele>1534</ele>
        <time>2024-09-19T09:02:36Z</time>
      </trkpt>
      <trkpt lat="42.51737" lon="2.52372">
        <ele>1534</ele>
        <time>2024-09-19T09:02:39Z</time>
      </trkpt>
      <trkpt lat="42.51739" lon="2.52369">
        <ele>1533</ele>
        <time>2024-09-19T09:02:42Z</time>
      </trkpt>
      <trkpt lat="42.51741" lon="2.52366">
        <ele>1533</ele>
        <time>2024-09-19T09:02:45Z</time>
      </trkpt>
      <trkpt lat="42.51743" lon="2.52363">
        <ele>1534</ele>
        <time>2024-09-19T09:02:47Z</time>
      </trkpt>
      <trkpt lat="42.51745" lon="2.5236">
        <ele>1532</ele>
        <time>2024-09-19T09:02:51Z</time>
      </trkpt>
      <trkpt lat="42.51748" lon="2.52356">
        <ele>1532</ele>
        <time>2024-09-19T09:02:56Z</time>
      </trkpt>
      <trkpt lat="42.5175" lon="2.52352">
        <ele>1533</ele>
        <time>2024-09-19T09:02:59Z</time>
      </trkpt>
      <trkpt lat="42.51752" lon="2.52347">
        <ele>1531</ele>
        <time>2024-09-19T09:03:03Z</time>
      </trkpt>
      <trkpt lat="42.51753" lon="2.52344">
        <ele>1529</ele>
        <time>2024-09-19T09:03:07Z</time>
      </trkpt>
      <trkpt lat="42.51755" lon="2.5234">
        <ele>1528</ele>
        <time>2024-09-19T09:03:10Z</time>
      </trkpt>
      <trkpt lat="42.51758" lon="2.52337">
        <ele>1529</ele>
        <time>2024-09-19T09:03:12Z</time>
      </trkpt>
      <trkpt lat="42.5176" lon="2.52334">
        <ele>1528</ele>
        <time>2024-09-19T09:03:14Z</time>
      </trkpt>
      <trkpt lat="42.5176" lon="2.5233">
        <ele>1526</ele>
        <time>2024-09-19T09:03:18Z</time>
      </trkpt>
      <trkpt lat="42.51761" lon="2.52326">
        <ele>1527</ele>
        <time>2024-09-19T09:03:20Z</time>
      </trkpt>
      <trkpt lat="42.51763" lon="2.52323">
        <ele>1527</ele>
        <time>2024-09-19T09:03:22Z</time>
      </trkpt>
      <trkpt lat="42.51764" lon="2.52318">
        <ele>1526</ele>
        <time>2024-09-19T09:03:26Z</time>
      </trkpt>
      <trkpt lat="42.51766" lon="2.52315">
        <ele>1526</ele>
        <time>2024-09-19T09:03:29Z</time>
      </trkpt>
      <trkpt lat="42.51769" lon="2.52314">
        <ele>1527</ele>
        <time>2024-09-19T09:03:32Z</time>
      </trkpt>
      <trkpt lat="42.51772" lon="2.52311">
        <ele>1527</ele>
        <time>2024-09-19T09:03:35Z</time>
      </trkpt>
      <trkpt lat="42.51773" lon="2.52307">
        <ele>1527</ele>
        <time>2024-09-19T09:03:39Z</time>
      </trkpt>
      <trkpt lat="42.51775" lon="2.52303">
        <ele>1529</ele>
        <time>2024-09-19T09:03:41Z</time>
      </trkpt>
      <trkpt lat="42.51776" lon="2.52299">
        <ele>1526</ele>
        <time>2024-09-19T09:03:44Z</time>
      </trkpt>
      <trkpt lat="42.51776" lon="2.52294">
        <ele>1526</ele>
        <time>2024-09-19T09:03:48Z</time>
      </trkpt>
      <trkpt lat="42.51777" lon="2.5229">
        <ele>1525</ele>
        <time>2024-09-19T09:03:51Z</time>
      </trkpt>
      <trkpt lat="42.51778" lon="2.52286">
        <ele>1525</ele>
        <time>2024-09-19T09:03:53Z</time>
      </trkpt>
      <trkpt lat="42.51779" lon="2.52282">
        <ele>1525</ele>
        <time>2024-09-19T09:03:56Z</time>
      </trkpt>
      <trkpt lat="42.51781" lon="2.52278">
        <ele>1523</ele>
        <time>2024-09-19T09:03:59Z</time>
      </trkpt>
      <trkpt lat="42.51782" lon="2.52274">
        <ele>1524</ele>
        <time>2024-09-19T09:04:01Z</time>
      </trkpt>
      <trkpt lat="42.51783" lon="2.52269">
        <ele>1521</ele>
        <time>2024-09-19T09:04:04Z</time>
      </trkpt>
      <trkpt lat="42.51783" lon="2.52265">
        <ele>1521</ele>
        <time>2024-09-19T09:04:07Z</time>
      </trkpt>
      <trkpt lat="42.51785" lon="2.52261">
        <ele>1521</ele>
        <time>2024-09-19T09:04:10Z</time>
      </trkpt>
      <trkpt lat="42.51787" lon="2.52256">
        <ele>1521</ele>
        <time>2024-09-19T09:04:14Z</time>
      </trkpt>
      <trkpt lat="42.51789" lon="2.52251">
        <ele>1522</ele>
        <time>2024-09-19T09:04:17Z</time>
      </trkpt>
      <trkpt lat="42.51791" lon="2.52247">
        <ele>1520</ele>
        <time>2024-09-19T09:04:21Z</time>
      </trkpt>
      <trkpt lat="42.51792" lon="2.52243">
        <ele>1520</ele>
        <time>2024-09-19T09:04:24Z</time>
      </trkpt>
      <trkpt lat="42.51793" lon="2.52238">
        <ele>1517</ele>
        <time>2024-09-19T09:04:28Z</time>
      </trkpt>
      <trkpt lat="42.51796" lon="2.52234">
        <ele>1518</ele>
        <time>2024-09-19T09:04:31Z</time>
      </trkpt>
      <trkpt lat="42.51798" lon="2.5223">
        <ele>1517</ele>
        <time>2024-09-19T09:04:34Z</time>
      </trkpt>
      <trkpt lat="42.518" lon="2.52226">
        <ele>1516</ele>
        <time>2024-09-19T09:04:38Z</time>
      </trkpt>
      <trkpt lat="42.51801" lon="2.52223">
        <ele>1516</ele>
        <time>2024-09-19T09:04:40Z</time>
      </trkpt>
      <trkpt lat="42.51803" lon="2.52219">
        <ele>1514</ele>
        <time>2024-09-19T09:05:04Z</time>
      </trkpt>
      <trkpt lat="42.51805" lon="2.52217">
        <ele>1516</ele>
        <time>2024-09-19T09:05:06Z</time>
      </trkpt>
      <trkpt lat="42.51806" lon="2.52213">
        <ele>1515</ele>
        <time>2024-09-19T09:05:09Z</time>
      </trkpt>
      <trkpt lat="42.51808" lon="2.5221">
        <ele>1513</ele>
        <time>2024-09-19T09:05:13Z</time>
      </trkpt>
      <trkpt lat="42.5181" lon="2.52207">
        <ele>1513</ele>
        <time>2024-09-19T09:05:15Z</time>
      </trkpt>
      <trkpt lat="42.51811" lon="2.52204">
        <ele>1513</ele>
        <time>2024-09-19T09:05:17Z</time>
      </trkpt>
      <trkpt lat="42.51812" lon="2.52201">
        <ele>1511</ele>
        <time>2024-09-19T09:05:19Z</time>
      </trkpt>
      <trkpt lat="42.51812" lon="2.52197">
        <ele>1511</ele>
        <time>2024-09-19T09:05:21Z</time>
      </trkpt>
      <trkpt lat="42.51813" lon="2.52193">
        <ele>1511</ele>
        <time>2024-09-19T09:05:24Z</time>
      </trkpt>
      <trkpt lat="42.51815" lon="2.52189">
        <ele>1511</ele>
        <time>2024-09-19T09:05:26Z</time>
      </trkpt>
      <trkpt lat="42.51818" lon="2.52185">
        <ele>1512</ele>
        <time>2024-09-19T09:05:29Z</time>
      </trkpt>
      <trkpt lat="42.5182" lon="2.52188">
        <ele>1511</ele>
        <time>2024-09-19T09:05:36Z</time>
      </trkpt>
      <trkpt lat="42.5182" lon="2.52192">
        <ele>1510</ele>
        <time>2024-09-19T09:05:39Z</time>
      </trkpt>
      <trkpt lat="42.51819" lon="2.52196">
        <ele>1509</ele>
        <time>2024-09-19T09:05:40Z</time>
      </trkpt>
      <trkpt lat="42.51818" lon="2.522">
        <ele>1508</ele>
        <time>2024-09-19T09:05:44Z</time>
      </trkpt>
      <trkpt lat="42.51817" lon="2.52204">
        <ele>1508</ele>
        <time>2024-09-19T09:05:46Z</time>
      </trkpt>
      <trkpt lat="42.51817" lon="2.52209">
        <ele>1508</ele>
        <time>2024-09-19T09:05:48Z</time>
      </trkpt>
      <trkpt lat="42.51817" lon="2.52215">
        <ele>1509</ele>
        <time>2024-09-19T09:05:53Z</time>
      </trkpt>
      <trkpt lat="42.51816" lon="2.5222">
        <ele>1507</ele>
        <time>2024-09-19T09:05:56Z</time>
      </trkpt>
      <trkpt lat="42.51814" lon="2.52225">
        <ele>1506</ele>
        <time>2024-09-19T09:05:58Z</time>
      </trkpt>
      <trkpt lat="42.51815" lon="2.52229">
        <ele>1506</ele>
        <time>2024-09-19T09:06:00Z</time>
      </trkpt>
      <trkpt lat="42.51815" lon="2.52234">
        <ele>1508</ele>
        <time>2024-09-19T09:06:03Z</time>
      </trkpt>
      <trkpt lat="42.51814" lon="2.52238">
        <ele>1505</ele>
        <time>2024-09-19T09:06:09Z</time>
      </trkpt>
      <trkpt lat="42.51813" lon="2.52242">
        <ele>1504</ele>
        <time>2024-09-19T09:06:12Z</time>
      </trkpt>
      <trkpt lat="42.51813" lon="2.52246">
        <ele>1504</ele>
        <time>2024-09-19T09:06:16Z</time>
      </trkpt>
      <trkpt lat="42.51812" lon="2.5225">
        <ele>1502</ele>
        <time>2024-09-19T09:06:19Z</time>
      </trkpt>
      <trkpt lat="42.51811" lon="2.52254">
        <ele>1500</ele>
        <time>2024-09-19T09:06:22Z</time>
      </trkpt>
      <trkpt lat="42.5181" lon="2.52258">
        <ele>1500</ele>
        <time>2024-09-19T09:06:25Z</time>
      </trkpt>
      <trkpt lat="42.51809" lon="2.52262">
        <ele>1500</ele>
        <time>2024-09-19T09:06:28Z</time>
      </trkpt>
      <trkpt lat="42.51808" lon="2.52267">
        <ele>1499</ele>
        <time>2024-09-19T09:06:31Z</time>
      </trkpt>
      <trkpt lat="42.51808" lon="2.52271">
        <ele>1499</ele>
        <time>2024-09-19T09:06:34Z</time>
      </trkpt>
      <trkpt lat="42.51807" lon="2.52275">
        <ele>1501</ele>
        <time>2024-09-19T09:06:35Z</time>
      </trkpt>
      <trkpt lat="42.51808" lon="2.52279">
        <ele>1501</ele>
        <time>2024-09-19T09:06:37Z</time>
      </trkpt>
      <trkpt lat="42.5181" lon="2.52283">
        <ele>1501</ele>
        <time>2024-09-19T09:06:40Z</time>
      </trkpt>
      <trkpt lat="42.51809" lon="2.52288">
        <ele>1498</ele>
        <time>2024-09-19T09:06:45Z</time>
      </trkpt>
      <trkpt lat="42.5181" lon="2.52292">
        <ele>1499</ele>
        <time>2024-09-19T09:06:48Z</time>
      </trkpt>
      <trkpt lat="42.51811" lon="2.52296">
        <ele>1498</ele>
        <time>2024-09-19T09:06:50Z</time>
      </trkpt>
      <trkpt lat="42.51811" lon="2.52299">
        <ele>1499</ele>
        <time>2024-09-19T09:06:52Z</time>
      </trkpt>
      <trkpt lat="42.51812" lon="2.52303">
        <ele>1497</ele>
        <time>2024-09-19T09:06:55Z</time>
      </trkpt>
      <trkpt lat="42.51812" lon="2.52307">
        <ele>1498</ele>
        <time>2024-09-19T09:06:57Z</time>
      </trkpt>
      <trkpt lat="42.51811" lon="2.52312">
        <ele>1496</ele>
        <time>2024-09-19T09:07:02Z</time>
      </trkpt>
      <trkpt lat="42.5181" lon="2.52316">
        <ele>1495</ele>
        <time>2024-09-19T09:07:06Z</time>
      </trkpt>
      <trkpt lat="42.5181" lon="2.52321">
        <ele>1494</ele>
        <time>2024-09-19T09:07:09Z</time>
      </trkpt>
      <trkpt lat="42.51809" lon="2.52326">
        <ele>1493</ele>
        <time>2024-09-19T09:07:12Z</time>
      </trkpt>
      <trkpt lat="42.51808" lon="2.5233">
        <ele>1493</ele>
        <time>2024-09-19T09:07:16Z</time>
      </trkpt>
      <trkpt lat="42.51808" lon="2.52334">
        <ele>1493</ele>
        <time>2024-09-19T09:07:18Z</time>
      </trkpt>
      <trkpt lat="42.51808" lon="2.52339">
        <ele>1494</ele>
        <time>2024-09-19T09:07:21Z</time>
      </trkpt>
      <trkpt lat="42.51808" lon="2.52343">
        <ele>1493</ele>
        <time>2024-09-19T09:07:25Z</time>
      </trkpt>
      <trkpt lat="42.51809" lon="2.52347">
        <ele>1493</ele>
        <time>2024-09-19T09:07:28Z</time>
      </trkpt>
      <trkpt lat="42.51809" lon="2.52351">
        <ele>1492</ele>
        <time>2024-09-19T09:07:30Z</time>
      </trkpt>
      <trkpt lat="42.51808" lon="2.52356">
        <ele>1491</ele>
        <time>2024-09-19T09:07:34Z</time>
      </trkpt>
      <trkpt lat="42.51808" lon="2.5236">
        <ele>1490</ele>
        <time>2024-09-19T09:07:37Z</time>
      </trkpt>
      <trkpt lat="42.51808" lon="2.52364">
        <ele>1489</ele>
        <time>2024-09-19T09:07:40Z</time>
      </trkpt>
      <trkpt lat="42.51808" lon="2.52368">
        <ele>1487</ele>
        <time>2024-09-19T09:07:43Z</time>
      </trkpt>
      <trkpt lat="42.51808" lon="2.52372">
        <ele>1486</ele>
        <time>2024-09-19T09:07:45Z</time>
      </trkpt>
      <trkpt lat="42.51808" lon="2.52376">
        <ele>1485</ele>
        <time>2024-09-19T09:07:46Z</time>
      </trkpt>
      <trkpt lat="42.51806" lon="2.5238">
        <ele>1485</ele>
        <time>2024-09-19T09:07:49Z</time>
      </trkpt>
      <trkpt lat="42.51805" lon="2.52384">
        <ele>1485</ele>
        <time>2024-09-19T09:07:52Z</time>
      </trkpt>
      <trkpt lat="42.51804" lon="2.52388">
        <ele>1485</ele>
        <time>2024-09-19T09:07:54Z</time>
      </trkpt>
      <trkpt lat="42.51804" lon="2.52393">
        <ele>1486</ele>
        <time>2024-09-19T09:07:56Z</time>
      </trkpt>
      <trkpt lat="42.51803" lon="2.52397">
        <ele>1485</ele>
        <time>2024-09-19T09:07:59Z</time>
      </trkpt>
      <trkpt lat="42.51802" lon="2.524">
        <ele>1484</ele>
        <time>2024-09-19T09:08:01Z</time>
      </trkpt>
      <trkpt lat="42.51801" lon="2.52405">
        <ele>1484</ele>
        <time>2024-09-19T09:08:05Z</time>
      </trkpt>
      <trkpt lat="42.518" lon="2.5241">
        <ele>1485</ele>
        <time>2024-09-19T09:08:07Z</time>
      </trkpt>
      <trkpt lat="42.51799" lon="2.52414">
        <ele>1483</ele>
        <time>2024-09-19T09:08:11Z</time>
      </trkpt>
      <trkpt lat="42.51799" lon="2.52418">
        <ele>1484</ele>
        <time>2024-09-19T09:08:13Z</time>
      </trkpt>
      <trkpt lat="42.51801" lon="2.52422">
        <ele>1485</ele>
        <time>2024-09-19T09:08:14Z</time>
      </trkpt>
      <trkpt lat="42.518" lon="2.52426">
        <ele>1483</ele>
        <time>2024-09-19T09:08:16Z</time>
      </trkpt>
      <trkpt lat="42.518" lon="2.5243">
        <ele>1484</ele>
        <time>2024-09-19T09:08:18Z</time>
      </trkpt>
      <trkpt lat="42.518" lon="2.52434">
        <ele>1484</ele>
        <time>2024-09-19T09:08:20Z</time>
      </trkpt>
      <trkpt lat="42.518" lon="2.52439">
        <ele>1485</ele>
        <time>2024-09-19T09:08:23Z</time>
      </trkpt>
      <trkpt lat="42.51799" lon="2.52438">
        <ele>1484</ele>
        <time>2024-09-19T09:08:29Z</time>
      </trkpt>
      <trkpt lat="42.518" lon="2.52437">
        <ele>1483</ele>
        <time>2024-09-19T09:08:32Z</time>
      </trkpt>
      <trkpt lat="42.51803" lon="2.52437">
        <ele>1484</ele>
        <time>2024-09-19T09:08:34Z</time>
      </trkpt>
      <trkpt lat="42.51803" lon="2.5244">
        <ele>1483</ele>
        <time>2024-09-19T09:08:43Z</time>
      </trkpt>
      <trkpt lat="42.51803" lon="2.52443">
        <ele>1483</ele>
        <time>2024-09-19T09:08:45Z</time>
      </trkpt>
      <trkpt lat="42.51802" lon="2.52447">
        <ele>1483</ele>
        <time>2024-09-19T09:08:47Z</time>
      </trkpt>
      <trkpt lat="42.518" lon="2.5245">
        <ele>1482</ele>
        <time>2024-09-19T09:08:51Z</time>
      </trkpt>
      <trkpt lat="42.51798" lon="2.52453">
        <ele>1483</ele>
        <time>2024-09-19T09:08:55Z</time>
      </trkpt>
      <trkpt lat="42.51797" lon="2.52457">
        <ele>1482</ele>
        <time>2024-09-19T09:08:59Z</time>
      </trkpt>
      <trkpt lat="42.51795" lon="2.52461">
        <ele>1482</ele>
        <time>2024-09-19T09:09:02Z</time>
      </trkpt>
      <trkpt lat="42.51794" lon="2.52466">
        <ele>1482</ele>
        <time>2024-09-19T09:09:05Z</time>
      </trkpt>
      <trkpt lat="42.51793" lon="2.52472">
        <ele>1482</ele>
        <time>2024-09-19T09:09:09Z</time>
      </trkpt>
      <trkpt lat="42.51792" lon="2.52476">
        <ele>1481</ele>
        <time>2024-09-19T09:09:12Z</time>
      </trkpt>
      <trkpt lat="42.5179" lon="2.52481">
        <ele>1481</ele>
        <time>2024-09-19T09:09:15Z</time>
      </trkpt>
      <trkpt lat="42.51789" lon="2.52485">
        <ele>1481</ele>
        <time>2024-09-19T09:09:18Z</time>
      </trkpt>
      <trkpt lat="42.51789" lon="2.52489">
        <ele>1481</ele>
        <time>2024-09-19T09:09:21Z</time>
      </trkpt>
      <trkpt lat="42.51788" lon="2.52494">
        <ele>1481</ele>
        <time>2024-09-19T09:09:24Z</time>
      </trkpt>
      <trkpt lat="42.51788" lon="2.52499">
        <ele>1482</ele>
        <time>2024-09-19T09:09:27Z</time>
      </trkpt>
      <trkpt lat="42.51787" lon="2.52503">
        <ele>1482</ele>
        <time>2024-09-19T09:09:30Z</time>
      </trkpt>
      <trkpt lat="42.51786" lon="2.52507">
        <ele>1482</ele>
        <time>2024-09-19T09:09:33Z</time>
      </trkpt>
      <trkpt lat="42.51785" lon="2.52512">
        <ele>1483</ele>
        <time>2024-09-19T09:09:36Z</time>
      </trkpt>
      <trkpt lat="42.51785" lon="2.52516">
        <ele>1482</ele>
        <time>2024-09-19T09:09:38Z</time>
      </trkpt>
      <trkpt lat="42.51784" lon="2.5252">
        <ele>1481</ele>
        <time>2024-09-19T09:09:41Z</time>
      </trkpt>
      <trkpt lat="42.51783" lon="2.52525">
        <ele>1481</ele>
        <time>2024-09-19T09:09:43Z</time>
      </trkpt>
      <trkpt lat="42.51782" lon="2.52529">
        <ele>1480</ele>
        <time>2024-09-19T09:09:45Z</time>
      </trkpt>
      <trkpt lat="42.51782" lon="2.52533">
        <ele>1480</ele>
        <time>2024-09-19T09:09:47Z</time>
      </trkpt>
      <trkpt lat="42.5178" lon="2.52537">
        <ele>1480</ele>
        <time>2024-09-19T09:09:50Z</time>
      </trkpt>
      <trkpt lat="42.5178" lon="2.52542">
        <ele>1480</ele>
        <time>2024-09-19T09:09:53Z</time>
      </trkpt>
      <trkpt lat="42.51779" lon="2.52547">
        <ele>1480</ele>
        <time>2024-09-19T09:09:54Z</time>
      </trkpt>
      <trkpt lat="42.5178" lon="2.52551">
        <ele>1481</ele>
        <time>2024-09-19T09:09:56Z</time>
      </trkpt>
      <trkpt lat="42.51779" lon="2.52555">
        <ele>1481</ele>
        <time>2024-09-19T09:09:58Z</time>
      </trkpt>
      <trkpt lat="42.51779" lon="2.5256">
        <ele>1479</ele>
        <time>2024-09-19T09:10:01Z</time>
      </trkpt>
      <trkpt lat="42.51777" lon="2.52564">
        <ele>1480</ele>
        <time>2024-09-19T09:10:04Z</time>
      </trkpt>
      <trkpt lat="42.51776" lon="2.52568">
        <ele>1480</ele>
        <time>2024-09-19T09:10:07Z</time>
      </trkpt>
      <trkpt lat="42.51775" lon="2.52572">
        <ele>1478</ele>
        <time>2024-09-19T09:10:09Z</time>
      </trkpt>
      <trkpt lat="42.51774" lon="2.52576">
        <ele>1478</ele>
        <time>2024-09-19T09:10:10Z</time>
      </trkpt>
      <trkpt lat="42.51774" lon="2.5258">
        <ele>1478</ele>
        <time>2024-09-19T09:10:13Z</time>
      </trkpt>
      <trkpt lat="42.51773" lon="2.52585">
        <ele>1477</ele>
        <time>2024-09-19T09:10:16Z</time>
      </trkpt>
      <trkpt lat="42.51771" lon="2.52584">
        <ele>1478</ele>
        <time>2024-09-19T09:10:37Z</time>
      </trkpt>
      <trkpt lat="42.51771" lon="2.52586">
        <ele>1479</ele>
        <time>2024-09-19T09:11:03Z</time>
      </trkpt>
      <trkpt lat="42.51772" lon="2.52589">
        <ele>1480</ele>
        <time>2024-09-19T09:11:33Z</time>
      </trkpt>
      <trkpt lat="42.51771" lon="2.52594">
        <ele>1479</ele>
        <time>2024-09-19T09:11:36Z</time>
      </trkpt>
      <trkpt lat="42.51769" lon="2.52597">
        <ele>1480</ele>
        <time>2024-09-19T09:11:39Z</time>
      </trkpt>
      <trkpt lat="42.51766" lon="2.52599">
        <ele>1478</ele>
        <time>2024-09-19T09:11:43Z</time>
      </trkpt>
      <trkpt lat="42.51764" lon="2.52601">
        <ele>1477</ele>
        <time>2024-09-19T09:11:47Z</time>
      </trkpt>
      <trkpt lat="42.51761" lon="2.52603">
        <ele>1476</ele>
        <time>2024-09-19T09:11:50Z</time>
      </trkpt>
      <trkpt lat="42.51758" lon="2.52604">
        <ele>1477</ele>
        <time>2024-09-19T09:11:52Z</time>
      </trkpt>
      <trkpt lat="42.51755" lon="2.52605">
        <ele>1477</ele>
        <time>2024-09-19T09:11:54Z</time>
      </trkpt>
      <trkpt lat="42.51752" lon="2.52606">
        <ele>1476</ele>
        <time>2024-09-19T09:11:58Z</time>
      </trkpt>
      <trkpt lat="42.51749" lon="2.52607">
        <ele>1475</ele>
        <time>2024-09-19T09:12:00Z</time>
      </trkpt>
      <trkpt lat="42.51746" lon="2.52607">
        <ele>1474</ele>
        <time>2024-09-19T09:12:02Z</time>
      </trkpt>
      <trkpt lat="42.51742" lon="2.52608">
        <ele>1473</ele>
        <time>2024-09-19T09:12:05Z</time>
      </trkpt>
      <trkpt lat="42.51738" lon="2.52609">
        <ele>1472</ele>
        <time>2024-09-19T09:12:07Z</time>
      </trkpt>
      <trkpt lat="42.51735" lon="2.52611">
        <ele>1472</ele>
        <time>2024-09-19T09:12:10Z</time>
      </trkpt>
      <trkpt lat="42.51732" lon="2.52612">
        <ele>1470</ele>
        <time>2024-09-19T09:12:13Z</time>
      </trkpt>
      <trkpt lat="42.5173" lon="2.52614">
        <ele>1471</ele>
        <time>2024-09-19T09:12:15Z</time>
      </trkpt>
      <trkpt lat="42.51727" lon="2.52614">
        <ele>1471</ele>
        <time>2024-09-19T09:12:18Z</time>
      </trkpt>
      <trkpt lat="42.51723" lon="2.52616">
        <ele>1471</ele>
        <time>2024-09-19T09:12:22Z</time>
      </trkpt>
      <trkpt lat="42.5172" lon="2.52617">
        <ele>1471</ele>
        <time>2024-09-19T09:12:25Z</time>
      </trkpt>
      <trkpt lat="42.51715" lon="2.52618">
        <ele>1472</ele>
        <time>2024-09-19T09:12:32Z</time>
      </trkpt>
      <trkpt lat="42.51712" lon="2.52618">
        <ele>1472</ele>
        <time>2024-09-19T09:12:34Z</time>
      </trkpt>
      <trkpt lat="42.51709" lon="2.52618">
        <ele>1472</ele>
        <time>2024-09-19T09:12:36Z</time>
      </trkpt>
      <trkpt lat="42.51706" lon="2.5262">
        <ele>1472</ele>
        <time>2024-09-19T09:12:38Z</time>
      </trkpt>
      <trkpt lat="42.51703" lon="2.52621">
        <ele>1472</ele>
        <time>2024-09-19T09:12:41Z</time>
      </trkpt>
      <trkpt lat="42.517" lon="2.52621">
        <ele>1471</ele>
        <time>2024-09-19T09:12:43Z</time>
      </trkpt>
      <trkpt lat="42.51698" lon="2.52624">
        <ele>1472</ele>
        <time>2024-09-19T09:12:46Z</time>
      </trkpt>
      <trkpt lat="42.51696" lon="2.52626">
        <ele>1473</ele>
        <time>2024-09-19T09:12:48Z</time>
      </trkpt>
      <trkpt lat="42.51693" lon="2.52626">
        <ele>1472</ele>
        <time>2024-09-19T09:12:50Z</time>
      </trkpt>
      <trkpt lat="42.51691" lon="2.52627">
        <ele>1473</ele>
        <time>2024-09-19T09:12:56Z</time>
      </trkpt>
      <trkpt lat="42.51688" lon="2.52628">
        <ele>1472</ele>
        <time>2024-09-19T09:12:59Z</time>
      </trkpt>
      <trkpt lat="42.51684" lon="2.5263">
        <ele>1473</ele>
        <time>2024-09-19T09:13:03Z</time>
      </trkpt>
      <trkpt lat="42.51681" lon="2.52632">
        <ele>1474</ele>
        <time>2024-09-19T09:13:05Z</time>
      </trkpt>
      <trkpt lat="42.51677" lon="2.52633">
        <ele>1473</ele>
        <time>2024-09-19T09:13:09Z</time>
      </trkpt>
      <trkpt lat="42.51674" lon="2.52633">
        <ele>1475</ele>
        <time>2024-09-19T09:13:13Z</time>
      </trkpt>
      <trkpt lat="42.51671" lon="2.52632">
        <ele>1477</ele>
        <time>2024-09-19T09:13:18Z</time>
      </trkpt>
      <trkpt lat="42.51668" lon="2.52632">
        <ele>1476</ele>
        <time>2024-09-19T09:13:21Z</time>
      </trkpt>
      <trkpt lat="42.51665" lon="2.52633">
        <ele>1476</ele>
        <time>2024-09-19T09:13:24Z</time>
      </trkpt>
      <trkpt lat="42.51662" lon="2.52635">
        <ele>1478</ele>
        <time>2024-09-19T09:13:27Z</time>
      </trkpt>
      <trkpt lat="42.51659" lon="2.52638">
        <ele>1479</ele>
        <time>2024-09-19T09:13:33Z</time>
      </trkpt>
      <trkpt lat="42.51656" lon="2.5264">
        <ele>1478</ele>
        <time>2024-09-19T09:13:38Z</time>
      </trkpt>
      <trkpt lat="42.51653" lon="2.5264">
        <ele>1478</ele>
        <time>2024-09-19T09:13:43Z</time>
      </trkpt>
      <trkpt lat="42.51651" lon="2.52641">
        <ele>1480</ele>
        <time>2024-09-19T09:13:48Z</time>
      </trkpt>
      <trkpt lat="42.51652" lon="2.52641">
        <ele>1479</ele>
        <time>2024-09-19T09:13:59Z</time>
      </trkpt>
      <trkpt lat="42.51652" lon="2.52639">
        <ele>1481</ele>
        <time>2024-09-19T09:14:04Z</time>
      </trkpt>
      <trkpt lat="42.5165" lon="2.52638">
        <ele>1482</ele>
        <time>2024-09-19T09:14:09Z</time>
      </trkpt>
      <trkpt lat="42.51647" lon="2.52637">
        <ele>1483</ele>
        <time>2024-09-19T09:14:13Z</time>
      </trkpt>
      <trkpt lat="42.51644" lon="2.52637">
        <ele>1483</ele>
        <time>2024-09-19T09:14:18Z</time>
      </trkpt>
      <trkpt lat="42.51641" lon="2.52636">
        <ele>1483</ele>
        <time>2024-09-19T09:14:24Z</time>
      </trkpt>
      <trkpt lat="42.51637" lon="2.52635">
        <ele>1482</ele>
        <time>2024-09-19T09:14:30Z</time>
      </trkpt>
      <trkpt lat="42.51634" lon="2.52636">
        <ele>1483</ele>
        <time>2024-09-19T09:14:32Z</time>
      </trkpt>
      <trkpt lat="42.51632" lon="2.52638">
        <ele>1482</ele>
        <time>2024-09-19T09:14:36Z</time>
      </trkpt>
      <trkpt lat="42.5163" lon="2.5264">
        <ele>1482</ele>
        <time>2024-09-19T09:14:39Z</time>
      </trkpt>
      <trkpt lat="42.51628" lon="2.52643">
        <ele>1483</ele>
        <time>2024-09-19T09:14:42Z</time>
      </trkpt>
      <trkpt lat="42.51625" lon="2.52646">
        <ele>1483</ele>
        <time>2024-09-19T09:14:46Z</time>
      </trkpt>
      <trkpt lat="42.51623" lon="2.52648">
        <ele>1483</ele>
        <time>2024-09-19T09:14:49Z</time>
      </trkpt>
      <trkpt lat="42.5162" lon="2.52649">
        <ele>1483</ele>
        <time>2024-09-19T09:14:53Z</time>
      </trkpt>
      <trkpt lat="42.51617" lon="2.5265">
        <ele>1483</ele>
        <time>2024-09-19T09:14:55Z</time>
      </trkpt>
      <trkpt lat="42.51613" lon="2.52651">
        <ele>1484</ele>
        <time>2024-09-19T09:15:01Z</time>
      </trkpt>
      <trkpt lat="42.5161" lon="2.52653">
        <ele>1486</ele>
        <time>2024-09-19T09:15:05Z</time>
      </trkpt>
      <trkpt lat="42.51607" lon="2.52655">
        <ele>1485</ele>
        <time>2024-09-19T09:15:08Z</time>
      </trkpt>
      <trkpt lat="42.51605" lon="2.52659">
        <ele>1483</ele>
        <time>2024-09-19T09:15:10Z</time>
      </trkpt>
      <trkpt lat="42.51602" lon="2.5266">
        <ele>1484</ele>
        <time>2024-09-19T09:15:13Z</time>
      </trkpt>
      <trkpt lat="42.51599" lon="2.52661">
        <ele>1485</ele>
        <time>2024-09-19T09:15:18Z</time>
      </trkpt>
      <trkpt lat="42.51596" lon="2.52662">
        <ele>1486</ele>
        <time>2024-09-19T09:15:23Z</time>
      </trkpt>
      <trkpt lat="42.51593" lon="2.52664">
        <ele>1486</ele>
        <time>2024-09-19T09:15:28Z</time>
      </trkpt>
      <trkpt lat="42.5159" lon="2.52666">
        <ele>1487</ele>
        <time>2024-09-19T09:15:30Z</time>
      </trkpt>
      <trkpt lat="42.51587" lon="2.52668">
        <ele>1486</ele>
        <time>2024-09-19T09:15:33Z</time>
      </trkpt>
      <trkpt lat="42.51585" lon="2.5267">
        <ele>1487</ele>
        <time>2024-09-19T09:15:36Z</time>
      </trkpt>
      <trkpt lat="42.51582" lon="2.52672">
        <ele>1487</ele>
        <time>2024-09-19T09:15:40Z</time>
      </trkpt>
      <trkpt lat="42.51579" lon="2.52674">
        <ele>1487</ele>
        <time>2024-09-19T09:15:43Z</time>
      </trkpt>
      <trkpt lat="42.51577" lon="2.52674">
        <ele>1486</ele>
        <time>2024-09-19T09:15:46Z</time>
      </trkpt>
      <trkpt lat="42.51574" lon="2.52675">
        <ele>1487</ele>
        <time>2024-09-19T09:15:50Z</time>
      </trkpt>
      <trkpt lat="42.51571" lon="2.52676">
        <ele>1488</ele>
        <time>2024-09-19T09:15:53Z</time>
      </trkpt>
      <trkpt lat="42.51568" lon="2.52675">
        <ele>1489</ele>
        <time>2024-09-19T09:15:57Z</time>
      </trkpt>
      <trkpt lat="42.51565" lon="2.52677">
        <ele>1489</ele>
        <time>2024-09-19T09:15:59Z</time>
      </trkpt>
      <trkpt lat="42.51562" lon="2.52677">
        <ele>1488</ele>
        <time>2024-09-19T09:16:02Z</time>
      </trkpt>
      <trkpt lat="42.5156" lon="2.52681">
        <ele>1489</ele>
        <time>2024-09-19T09:16:05Z</time>
      </trkpt>
      <trkpt lat="42.51558" lon="2.52684">
        <ele>1489</ele>
        <time>2024-09-19T09:16:08Z</time>
      </trkpt>
      <trkpt lat="42.51554" lon="2.52686">
        <ele>1490</ele>
        <time>2024-09-19T09:16:12Z</time>
      </trkpt>
      <trkpt lat="42.51552" lon="2.52685">
        <ele>1490</ele>
        <time>2024-09-19T09:16:15Z</time>
      </trkpt>
      <trkpt lat="42.51549" lon="2.52686">
        <ele>1492</ele>
        <time>2024-09-19T09:16:17Z</time>
      </trkpt>
      <trkpt lat="42.51547" lon="2.52686">
        <ele>1491</ele>
        <time>2024-09-19T09:16:19Z</time>
      </trkpt>
      <trkpt lat="42.51544" lon="2.52687">
        <ele>1491</ele>
        <time>2024-09-19T09:16:22Z</time>
      </trkpt>
      <trkpt lat="42.51542" lon="2.52689">
        <ele>1490</ele>
        <time>2024-09-19T09:16:25Z</time>
      </trkpt>
      <trkpt lat="42.51538" lon="2.52693">
        <ele>1489</ele>
        <time>2024-09-19T09:16:28Z</time>
      </trkpt>
      <trkpt lat="42.51535" lon="2.52696">
        <ele>1490</ele>
        <time>2024-09-19T09:16:31Z</time>
      </trkpt>
      <trkpt lat="42.51531" lon="2.52699">
        <ele>1491</ele>
        <time>2024-09-19T09:16:36Z</time>
      </trkpt>
      <trkpt lat="42.51527" lon="2.52703">
        <ele>1492</ele>
        <time>2024-09-19T09:16:38Z</time>
      </trkpt>
      <trkpt lat="42.51525" lon="2.52706">
        <ele>1494</ele>
        <time>2024-09-19T09:16:41Z</time>
      </trkpt>
      <trkpt lat="42.51523" lon="2.52709">
        <ele>1495</ele>
        <time>2024-09-19T09:16:44Z</time>
      </trkpt>
      <trkpt lat="42.51521" lon="2.52712">
        <ele>1495</ele>
        <time>2024-09-19T09:16:45Z</time>
      </trkpt>
      <trkpt lat="42.51518" lon="2.52712">
        <ele>1494</ele>
        <time>2024-09-19T09:16:47Z</time>
      </trkpt>
      <trkpt lat="42.51515" lon="2.52711">
        <ele>1494</ele>
        <time>2024-09-19T09:16:50Z</time>
      </trkpt>
      <trkpt lat="42.51512" lon="2.52712">
        <ele>1495</ele>
        <time>2024-09-19T09:16:51Z</time>
      </trkpt>
      <trkpt lat="42.51509" lon="2.52712">
        <ele>1495</ele>
        <time>2024-09-19T09:16:53Z</time>
      </trkpt>
      <trkpt lat="42.51506" lon="2.52714">
        <ele>1494</ele>
        <time>2024-09-19T09:16:57Z</time>
      </trkpt>
      <trkpt lat="42.51502" lon="2.52716">
        <ele>1494</ele>
        <time>2024-09-19T09:17:05Z</time>
      </trkpt>
      <trkpt lat="42.51498" lon="2.52717">
        <ele>1495</ele>
        <time>2024-09-19T09:17:08Z</time>
      </trkpt>
      <trkpt lat="42.51495" lon="2.52719">
        <ele>1495</ele>
        <time>2024-09-19T09:17:11Z</time>
      </trkpt>
      <trkpt lat="42.51492" lon="2.52718">
        <ele>1493</ele>
        <time>2024-09-19T09:17:15Z</time>
      </trkpt>
      <trkpt lat="42.5149" lon="2.52719">
        <ele>1494</ele>
        <time>2024-09-19T09:17:18Z</time>
      </trkpt>
      <trkpt lat="42.51487" lon="2.5272">
        <ele>1495</ele>
        <time>2024-09-19T09:17:22Z</time>
      </trkpt>
      <trkpt lat="42.51483" lon="2.52721">
        <ele>1497</ele>
        <time>2024-09-19T09:17:29Z</time>
      </trkpt>
      <trkpt lat="42.5148" lon="2.52722">
        <ele>1498</ele>
        <time>2024-09-19T09:17:33Z</time>
      </trkpt>
      <trkpt lat="42.51478" lon="2.52726">
        <ele>1498</ele>
        <time>2024-09-19T09:17:34Z</time>
      </trkpt>
      <trkpt lat="42.51475" lon="2.52727">
        <ele>1500</ele>
        <time>2024-09-19T09:17:37Z</time>
      </trkpt>
      <trkpt lat="42.51472" lon="2.5273">
        <ele>1498</ele>
        <time>2024-09-19T09:17:46Z</time>
      </trkpt>
      <trkpt lat="42.51469" lon="2.52731">
        <ele>1498</ele>
        <time>2024-09-19T09:17:50Z</time>
      </trkpt>
      <trkpt lat="42.51466" lon="2.52732">
        <ele>1498</ele>
        <time>2024-09-19T09:17:54Z</time>
      </trkpt>
      <trkpt lat="42.51462" lon="2.52734">
        <ele>1500</ele>
        <time>2024-09-19T09:17:58Z</time>
      </trkpt>
      <trkpt lat="42.51459" lon="2.52734">
        <ele>1500</ele>
        <time>2024-09-19T09:18:00Z</time>
      </trkpt>
      <trkpt lat="42.51456" lon="2.52735">
        <ele>1499</ele>
        <time>2024-09-19T09:18:03Z</time>
      </trkpt>
      <trkpt lat="42.51454" lon="2.52734">
        <ele>1501</ele>
        <time>2024-09-19T09:18:05Z</time>
      </trkpt>
      <trkpt lat="42.51451" lon="2.52732">
        <ele>1500</ele>
        <time>2024-09-19T09:18:10Z</time>
      </trkpt>
      <trkpt lat="42.51447" lon="2.5273">
        <ele>1502</ele>
        <time>2024-09-19T09:18:15Z</time>
      </trkpt>
      <trkpt lat="42.51444" lon="2.52728">
        <ele>1503</ele>
        <time>2024-09-19T09:18:20Z</time>
      </trkpt>
      <trkpt lat="42.51442" lon="2.52724">
        <ele>1503</ele>
        <time>2024-09-19T09:18:24Z</time>
      </trkpt>
      <trkpt lat="42.5144" lon="2.52721">
        <ele>1505</ele>
        <time>2024-09-19T09:18:27Z</time>
      </trkpt>
      <trkpt lat="42.51438" lon="2.52718">
        <ele>1506</ele>
        <time>2024-09-19T09:18:32Z</time>
      </trkpt>
      <trkpt lat="42.51436" lon="2.52715">
        <ele>1506</ele>
        <time>2024-09-19T09:18:34Z</time>
      </trkpt>
      <trkpt lat="42.51435" lon="2.52712">
        <ele>1506</ele>
        <time>2024-09-19T09:18:39Z</time>
      </trkpt>
      <trkpt lat="42.51432" lon="2.52708">
        <ele>1507</ele>
        <time>2024-09-19T09:18:42Z</time>
      </trkpt>
      <trkpt lat="42.5143" lon="2.52706">
        <ele>1509</ele>
        <time>2024-09-19T09:18:45Z</time>
      </trkpt>
      <trkpt lat="42.51428" lon="2.52701">
        <ele>1509</ele>
        <time>2024-09-19T09:18:48Z</time>
      </trkpt>
      <trkpt lat="42.51426" lon="2.52698">
        <ele>1509</ele>
        <time>2024-09-19T09:18:52Z</time>
      </trkpt>
      <trkpt lat="42.51424" lon="2.52694">
        <ele>1509</ele>
        <time>2024-09-19T09:18:55Z</time>
      </trkpt>
      <trkpt lat="42.51423" lon="2.5269">
        <ele>1509</ele>
        <time>2024-09-19T09:19:00Z</time>
      </trkpt>
      <trkpt lat="42.51422" lon="2.52685">
        <ele>1510</ele>
        <time>2024-09-19T09:19:04Z</time>
      </trkpt>
      <trkpt lat="42.51421" lon="2.5268">
        <ele>1511</ele>
        <time>2024-09-19T09:19:07Z</time>
      </trkpt>
      <trkpt lat="42.51422" lon="2.52676">
        <ele>1512</ele>
        <time>2024-09-19T09:19:12Z</time>
      </trkpt>
      <trkpt lat="42.51422" lon="2.52673">
        <ele>1514</ele>
        <time>2024-09-19T09:19:15Z</time>
      </trkpt>
      <trkpt lat="42.5142" lon="2.52668">
        <ele>1516</ele>
        <time>2024-09-19T09:19:22Z</time>
      </trkpt>
      <trkpt lat="42.51421" lon="2.52663">
        <ele>1515</ele>
        <time>2024-09-19T09:19:25Z</time>
      </trkpt>
      <trkpt lat="42.51419" lon="2.5266">
        <ele>1516</ele>
        <time>2024-09-19T09:19:28Z</time>
      </trkpt>
      <trkpt lat="42.51417" lon="2.52656">
        <ele>1515</ele>
        <time>2024-09-19T09:19:32Z</time>
      </trkpt>
      <trkpt lat="42.51415" lon="2.52654">
        <ele>1517</ele>
        <time>2024-09-19T09:19:35Z</time>
      </trkpt>
      <trkpt lat="42.51413" lon="2.5265">
        <ele>1516</ele>
        <time>2024-09-19T09:19:39Z</time>
      </trkpt>
      <trkpt lat="42.51411" lon="2.52646">
        <ele>1517</ele>
        <time>2024-09-19T09:19:42Z</time>
      </trkpt>
      <trkpt lat="42.51407" lon="2.52644">
        <ele>1519</ele>
        <time>2024-09-19T09:19:45Z</time>
      </trkpt>
      <trkpt lat="42.51404" lon="2.52643">
        <ele>1520</ele>
        <time>2024-09-19T09:19:47Z</time>
      </trkpt>
      <trkpt lat="42.51403" lon="2.52645">
        <ele>1519</ele>
        <time>2024-09-19T09:19:55Z</time>
      </trkpt>
      <trkpt lat="42.51404" lon="2.52647">
        <ele>1519</ele>
        <time>2024-09-19T09:20:03Z</time>
      </trkpt>
      <trkpt lat="42.51404" lon="2.52651">
        <ele>1524</ele>
        <time>2024-09-19T09:20:26Z</time>
      </trkpt>
      <trkpt lat="42.51403" lon="2.5265">
        <ele>1523</ele>
        <time>2024-09-19T09:20:50Z</time>
      </trkpt>
      <trkpt lat="42.51401" lon="2.52647">
        <ele>1521</ele>
        <time>2024-09-19T09:20:54Z</time>
      </trkpt>
      <trkpt lat="42.51401" lon="2.52643">
        <ele>1523</ele>
        <time>2024-09-19T09:20:56Z</time>
      </trkpt>
      <trkpt lat="42.51401" lon="2.52638">
        <ele>1522</ele>
        <time>2024-09-19T09:20:59Z</time>
      </trkpt>
      <trkpt lat="42.51401" lon="2.52634">
        <ele>1522</ele>
        <time>2024-09-19T09:21:00Z</time>
      </trkpt>
      <trkpt lat="42.51401" lon="2.5263">
        <ele>1523</ele>
        <time>2024-09-19T09:21:02Z</time>
      </trkpt>
      <trkpt lat="42.51401" lon="2.52626">
        <ele>1522</ele>
        <time>2024-09-19T09:21:06Z</time>
      </trkpt>
      <trkpt lat="42.51398" lon="2.52623">
        <ele>1523</ele>
        <time>2024-09-19T09:21:11Z</time>
      </trkpt>
      <trkpt lat="42.51396" lon="2.52619">
        <ele>1523</ele>
        <time>2024-09-19T09:21:13Z</time>
      </trkpt>
      <trkpt lat="42.51392" lon="2.52619">
        <ele>1524</ele>
        <time>2024-09-19T09:21:16Z</time>
      </trkpt>
      <trkpt lat="42.5139" lon="2.52617">
        <ele>1524</ele>
        <time>2024-09-19T09:21:18Z</time>
      </trkpt>
      <trkpt lat="42.51387" lon="2.52614">
        <ele>1522</ele>
        <time>2024-09-19T09:21:22Z</time>
      </trkpt>
      <trkpt lat="42.51383" lon="2.52614">
        <ele>1521</ele>
        <time>2024-09-19T09:21:25Z</time>
      </trkpt>
      <trkpt lat="42.5138" lon="2.52612">
        <ele>1520</ele>
        <time>2024-09-19T09:21:30Z</time>
      </trkpt>
      <trkpt lat="42.51377" lon="2.52611">
        <ele>1520</ele>
        <time>2024-09-19T09:21:34Z</time>
      </trkpt>
      <trkpt lat="42.51373" lon="2.52611">
        <ele>1520</ele>
        <time>2024-09-19T09:21:37Z</time>
      </trkpt>
      <trkpt lat="42.51369" lon="2.52611">
        <ele>1519</ele>
        <time>2024-09-19T09:21:39Z</time>
      </trkpt>
      <trkpt lat="42.51365" lon="2.5261">
        <ele>1520</ele>
        <time>2024-09-19T09:21:42Z</time>
      </trkpt>
      <trkpt lat="42.51362" lon="2.52608">
        <ele>1524</ele>
        <time>2024-09-19T09:21:45Z</time>
      </trkpt>
      <trkpt lat="42.51359" lon="2.52607">
        <ele>1523</ele>
        <time>2024-09-19T09:21:47Z</time>
      </trkpt>
      <trkpt lat="42.51356" lon="2.52605">
        <ele>1525</ele>
        <time>2024-09-19T09:21:51Z</time>
      </trkpt>
      <trkpt lat="42.51355" lon="2.52602">
        <ele>1525</ele>
        <time>2024-09-19T09:21:52Z</time>
      </trkpt>
      <trkpt lat="42.51353" lon="2.526">
        <ele>1525</ele>
        <time>2024-09-19T09:21:55Z</time>
      </trkpt>
      <trkpt lat="42.51352" lon="2.52597">
        <ele>1526</ele>
        <time>2024-09-19T09:22:03Z</time>
      </trkpt>
      <trkpt lat="42.51349" lon="2.52594">
        <ele>1527</ele>
        <time>2024-09-19T09:22:07Z</time>
      </trkpt>
      <trkpt lat="42.51346" lon="2.52592">
        <ele>1528</ele>
        <time>2024-09-19T09:22:11Z</time>
      </trkpt>
      <trkpt lat="42.51345" lon="2.52589">
        <ele>1528</ele>
        <time>2024-09-19T09:22:14Z</time>
      </trkpt>
      <trkpt lat="42.51342" lon="2.52586">
        <ele>1529</ele>
        <time>2024-09-19T09:22:18Z</time>
      </trkpt>
      <trkpt lat="42.51341" lon="2.52583">
        <ele>1529</ele>
        <time>2024-09-19T09:22:22Z</time>
      </trkpt>
      <trkpt lat="42.5134" lon="2.52579">
        <ele>1529</ele>
        <time>2024-09-19T09:22:26Z</time>
      </trkpt>
      <trkpt lat="42.51337" lon="2.52576">
        <ele>1530</ele>
        <time>2024-09-19T09:22:28Z</time>
      </trkpt>
      <trkpt lat="42.51334" lon="2.52574">
        <ele>1530</ele>
        <time>2024-09-19T09:22:30Z</time>
      </trkpt>
      <trkpt lat="42.51333" lon="2.5257">
        <ele>1529</ele>
        <time>2024-09-19T09:22:37Z</time>
      </trkpt>
      <trkpt lat="42.51331" lon="2.52567">
        <ele>1530</ele>
        <time>2024-09-19T09:22:39Z</time>
      </trkpt>
      <trkpt lat="42.51329" lon="2.52563">
        <ele>1532</ele>
        <time>2024-09-19T09:22:42Z</time>
      </trkpt>
      <trkpt lat="42.51326" lon="2.52562">
        <ele>1531</ele>
        <time>2024-09-19T09:22:45Z</time>
      </trkpt>
      <trkpt lat="42.51323" lon="2.52559">
        <ele>1532</ele>
        <time>2024-09-19T09:22:48Z</time>
      </trkpt>
      <trkpt lat="42.51321" lon="2.52556">
        <ele>1532</ele>
        <time>2024-09-19T09:22:52Z</time>
      </trkpt>
      <trkpt lat="42.51319" lon="2.52553">
        <ele>1533</ele>
        <time>2024-09-19T09:22:55Z</time>
      </trkpt>
      <trkpt lat="42.51316" lon="2.5255">
        <ele>1533</ele>
        <time>2024-09-19T09:22:58Z</time>
      </trkpt>
      <trkpt lat="42.51313" lon="2.52549">
        <ele>1533</ele>
        <time>2024-09-19T09:23:01Z</time>
      </trkpt>
      <trkpt lat="42.51312" lon="2.52545">
        <ele>1532</ele>
        <time>2024-09-19T09:23:06Z</time>
      </trkpt>
      <trkpt lat="42.5131" lon="2.52542">
        <ele>1536</ele>
        <time>2024-09-19T09:23:09Z</time>
      </trkpt>
      <trkpt lat="42.51308" lon="2.52541">
        <ele>1536</ele>
        <time>2024-09-19T09:23:15Z</time>
      </trkpt>
      <trkpt lat="42.51306" lon="2.52542">
        <ele>1535</ele>
        <time>2024-09-19T09:23:19Z</time>
      </trkpt>
      <trkpt lat="42.51303" lon="2.52543">
        <ele>1535</ele>
        <time>2024-09-19T09:23:25Z</time>
      </trkpt>
      <trkpt lat="42.513" lon="2.52546">
        <ele>1536</ele>
        <time>2024-09-19T09:23:27Z</time>
      </trkpt>
      <trkpt lat="42.51297" lon="2.52547">
        <ele>1536</ele>
        <time>2024-09-19T09:23:36Z</time>
      </trkpt>
      <trkpt lat="42.51295" lon="2.52546">
        <ele>1537</ele>
        <time>2024-09-19T09:23:40Z</time>
      </trkpt>
      <trkpt lat="42.51292" lon="2.52545">
        <ele>1539</ele>
        <time>2024-09-19T09:23:49Z</time>
      </trkpt>
      <trkpt lat="42.5129" lon="2.52542">
        <ele>1540</ele>
        <time>2024-09-19T09:23:53Z</time>
      </trkpt>
      <trkpt lat="42.51288" lon="2.52543">
        <ele>1543</ele>
        <time>2024-09-19T09:23:58Z</time>
      </trkpt>
      <trkpt lat="42.51286" lon="2.52543">
        <ele>1543</ele>
        <time>2024-09-19T09:24:01Z</time>
      </trkpt>
      <trkpt lat="42.51282" lon="2.52541">
        <ele>1541</ele>
        <time>2024-09-19T09:24:08Z</time>
      </trkpt>
      <trkpt lat="42.51279" lon="2.52539">
        <ele>1543</ele>
        <time>2024-09-19T09:24:14Z</time>
      </trkpt>
      <trkpt lat="42.51276" lon="2.52538">
        <ele>1542</ele>
        <time>2024-09-19T09:24:18Z</time>
      </trkpt>
      <trkpt lat="42.51273" lon="2.52539">
        <ele>1542</ele>
        <time>2024-09-19T09:24:22Z</time>
      </trkpt>
      <trkpt lat="42.5127" lon="2.52539">
        <ele>1542</ele>
        <time>2024-09-19T09:24:25Z</time>
      </trkpt>
      <trkpt lat="42.51271" lon="2.52539">
        <ele>1543</ele>
        <time>2024-09-19T09:24:30Z</time>
      </trkpt>
      <trkpt lat="42.51273" lon="2.52538">
        <ele>1545</ele>
        <time>2024-09-19T09:24:35Z</time>
      </trkpt>
      <trkpt lat="42.51274" lon="2.52535">
        <ele>1544</ele>
        <time>2024-09-19T09:24:39Z</time>
      </trkpt>
      <trkpt lat="42.51276" lon="2.52533">
        <ele>1545</ele>
        <time>2024-09-19T09:24:42Z</time>
      </trkpt>
      <trkpt lat="42.51275" lon="2.52531">
        <ele>1546</ele>
        <time>2024-09-19T09:24:44Z</time>
      </trkpt>
      <trkpt lat="42.51273" lon="2.52529">
        <ele>1547</ele>
        <time>2024-09-19T09:24:53Z</time>
      </trkpt>
      <trkpt lat="42.51271" lon="2.52527">
        <ele>1549</ele>
        <time>2024-09-19T09:24:58Z</time>
      </trkpt>
      <trkpt lat="42.51268" lon="2.52527">
        <ele>1548</ele>
        <time>2024-09-19T09:25:03Z</time>
      </trkpt>
      <trkpt lat="42.51269" lon="2.52526">
        <ele>1547</ele>
        <time>2024-09-19T09:25:18Z</time>
      </trkpt>
      <trkpt lat="42.51268" lon="2.52524">
        <ele>1548</ele>
        <time>2024-09-19T09:25:22Z</time>
      </trkpt>
      <trkpt lat="42.51268" lon="2.52526">
        <ele>1549</ele>
        <time>2024-09-19T09:25:26Z</time>
      </trkpt>
      <trkpt lat="42.51266" lon="2.52527">
        <ele>1550</ele>
        <time>2024-09-19T09:25:28Z</time>
      </trkpt>
      <trkpt lat="42.51265" lon="2.52526">
        <ele>1549</ele>
        <time>2024-09-19T09:25:31Z</time>
      </trkpt>
      <trkpt lat="42.51263" lon="2.52524">
        <ele>1550</ele>
        <time>2024-09-19T09:25:35Z</time>
      </trkpt>
      <trkpt lat="42.51259" lon="2.52523">
        <ele>1552</ele>
        <time>2024-09-19T09:25:39Z</time>
      </trkpt>
      <trkpt lat="42.51256" lon="2.52522">
        <ele>1553</ele>
        <time>2024-09-19T09:25:43Z</time>
      </trkpt>
      <trkpt lat="42.51253" lon="2.5252">
        <ele>1555</ele>
        <time>2024-09-19T09:25:49Z</time>
      </trkpt>
      <trkpt lat="42.5125" lon="2.5252">
        <ele>1558</ele>
        <time>2024-09-19T09:25:57Z</time>
      </trkpt>
      <trkpt lat="42.51248" lon="2.52518">
        <ele>1557</ele>
        <time>2024-09-19T09:26:01Z</time>
      </trkpt>
      <trkpt lat="42.51246" lon="2.52516">
        <ele>1558</ele>
        <time>2024-09-19T09:26:11Z</time>
      </trkpt>
      <trkpt lat="42.51243" lon="2.52515">
        <ele>1561</ele>
        <time>2024-09-19T09:26:19Z</time>
      </trkpt>
      <trkpt lat="42.51241" lon="2.52515">
        <ele>1562</ele>
        <time>2024-09-19T09:26:28Z</time>
      </trkpt>
      <trkpt lat="42.51239" lon="2.52514">
        <ele>1564</ele>
        <time>2024-09-19T09:26:35Z</time>
      </trkpt>
      <trkpt lat="42.51237" lon="2.52511">
        <ele>1563</ele>
        <time>2024-09-19T09:26:40Z</time>
      </trkpt>
      <trkpt lat="42.51235" lon="2.52508">
        <ele>1566</ele>
        <time>2024-09-19T09:26:45Z</time>
      </trkpt>
      <trkpt lat="42.51233" lon="2.52509">
        <ele>1565</ele>
        <time>2024-09-19T09:26:47Z</time>
      </trkpt>
      <trkpt lat="42.51235" lon="2.5251">
        <ele>1567</ele>
        <time>2024-09-19T09:26:51Z</time>
      </trkpt>
      <trkpt lat="42.51238" lon="2.52509">
        <ele>1568</ele>
        <time>2024-09-19T09:26:55Z</time>
      </trkpt>
      <trkpt lat="42.51241" lon="2.52508">
        <ele>1567</ele>
        <time>2024-09-19T09:26:59Z</time>
      </trkpt>
      <trkpt lat="42.51243" lon="2.52505">
        <ele>1570</ele>
        <time>2024-09-19T09:27:11Z</time>
      </trkpt>
      <trkpt lat="42.51243" lon="2.525">
        <ele>1572</ele>
        <time>2024-09-19T09:27:16Z</time>
      </trkpt>
      <trkpt lat="42.51241" lon="2.52497">
        <ele>1573</ele>
        <time>2024-09-19T09:27:25Z</time>
      </trkpt>
      <trkpt lat="42.51239" lon="2.52495">
        <ele>1572</ele>
        <time>2024-09-19T09:27:28Z</time>
      </trkpt>
      <trkpt lat="42.51236" lon="2.52492">
        <ele>1572</ele>
        <time>2024-09-19T09:27:32Z</time>
      </trkpt>
      <trkpt lat="42.51232" lon="2.52491">
        <ele>1573</ele>
        <time>2024-09-19T09:27:40Z</time>
      </trkpt>
      <trkpt lat="42.51229" lon="2.5249">
        <ele>1573</ele>
        <time>2024-09-19T09:27:42Z</time>
      </trkpt>
      <trkpt lat="42.51226" lon="2.52489">
        <ele>1571</ele>
        <time>2024-09-19T09:27:49Z</time>
      </trkpt>
      <trkpt lat="42.51222" lon="2.52488">
        <ele>1573</ele>
        <time>2024-09-19T09:27:57Z</time>
      </trkpt>
      <trkpt lat="42.51219" lon="2.52487">
        <ele>1575</ele>
        <time>2024-09-19T09:28:05Z</time>
      </trkpt>
      <trkpt lat="42.5122" lon="2.52484">
        <ele>1574</ele>
        <time>2024-09-19T09:28:07Z</time>
      </trkpt>
      <trkpt lat="42.51219" lon="2.52486">
        <ele>1577</ele>
        <time>2024-09-19T09:28:11Z</time>
      </trkpt>
      <trkpt lat="42.51221" lon="2.52487">
        <ele>1578</ele>
        <time>2024-09-19T09:28:16Z</time>
      </trkpt>
      <trkpt lat="42.51223" lon="2.52488">
        <ele>1578</ele>
        <time>2024-09-19T09:28:19Z</time>
      </trkpt>
      <trkpt lat="42.51225" lon="2.52485">
        <ele>1582</ele>
        <time>2024-09-19T09:28:29Z</time>
      </trkpt>
      <trkpt lat="42.51224" lon="2.52481">
        <ele>1581</ele>
        <time>2024-09-19T09:28:33Z</time>
      </trkpt>
      <trkpt lat="42.51222" lon="2.52478">
        <ele>1582</ele>
        <time>2024-09-19T09:28:36Z</time>
      </trkpt>
      <trkpt lat="42.51219" lon="2.52476">
        <ele>1582</ele>
        <time>2024-09-19T09:28:44Z</time>
      </trkpt>
      <trkpt lat="42.51217" lon="2.52475">
        <ele>1582</ele>
        <time>2024-09-19T09:28:50Z</time>
      </trkpt>
      <trkpt lat="42.51214" lon="2.52475">
        <ele>1583</ele>
        <time>2024-09-19T09:28:55Z</time>
      </trkpt>
      <trkpt lat="42.51211" lon="2.52473">
        <ele>1583</ele>
        <time>2024-09-19T09:29:00Z</time>
      </trkpt>
      <trkpt lat="42.51208" lon="2.52473">
        <ele>1585</ele>
        <time>2024-09-19T09:29:07Z</time>
      </trkpt>
      <trkpt lat="42.51204" lon="2.52473">
        <ele>1587</ele>
        <time>2024-09-19T09:29:13Z</time>
      </trkpt>
      <trkpt lat="42.51204" lon="2.52471">
        <ele>1586</ele>
        <time>2024-09-19T09:29:24Z</time>
      </trkpt>
      <trkpt lat="42.51202" lon="2.52471">
        <ele>1587</ele>
        <time>2024-09-19T09:29:28Z</time>
      </trkpt>
      <trkpt lat="42.51199" lon="2.52473">
        <ele>1587</ele>
        <time>2024-09-19T09:29:33Z</time>
      </trkpt>
      <trkpt lat="42.51196" lon="2.52472">
        <ele>1587</ele>
        <time>2024-09-19T09:29:36Z</time>
      </trkpt>
      <trkpt lat="42.51197" lon="2.52471">
        <ele>1588</ele>
        <time>2024-09-19T09:29:39Z</time>
      </trkpt>
      <trkpt lat="42.51193" lon="2.52471">
        <ele>1589</ele>
        <time>2024-09-19T09:29:43Z</time>
      </trkpt>
      <trkpt lat="42.51195" lon="2.5247">
        <ele>1589</ele>
        <time>2024-09-19T09:29:44Z</time>
      </trkpt>
      <trkpt lat="42.51198" lon="2.5247">
        <ele>1589</ele>
        <time>2024-09-19T09:29:46Z</time>
      </trkpt>
      <trkpt lat="42.51202" lon="2.52469">
        <ele>1591</ele>
        <time>2024-09-19T09:29:49Z</time>
      </trkpt>
      <trkpt lat="42.51202" lon="2.52467">
        <ele>1591</ele>
        <time>2024-09-19T09:29:51Z</time>
      </trkpt>
      <trkpt lat="42.51204" lon="2.52465">
        <ele>1592</ele>
        <time>2024-09-19T09:29:53Z</time>
      </trkpt>
      <trkpt lat="42.51205" lon="2.52461">
        <ele>1592</ele>
        <time>2024-09-19T09:29:55Z</time>
      </trkpt>
      <trkpt lat="42.51203" lon="2.52461">
        <ele>1592</ele>
        <time>2024-09-19T09:29:58Z</time>
      </trkpt>
      <trkpt lat="42.512" lon="2.5246">
        <ele>1593</ele>
        <time>2024-09-19T09:30:01Z</time>
      </trkpt>
      <trkpt lat="42.51197" lon="2.52461">
        <ele>1594</ele>
        <time>2024-09-19T09:30:09Z</time>
      </trkpt>
      <trkpt lat="42.51194" lon="2.5246">
        <ele>1595</ele>
        <time>2024-09-19T09:30:16Z</time>
      </trkpt>
      <trkpt lat="42.51192" lon="2.52461">
        <ele>1594</ele>
        <time>2024-09-19T09:30:23Z</time>
      </trkpt>
      <trkpt lat="42.51189" lon="2.52461">
        <ele>1596</ele>
        <time>2024-09-19T09:30:33Z</time>
      </trkpt>
      <trkpt lat="42.51185" lon="2.52465">
        <ele>1598</ele>
        <time>2024-09-19T09:30:40Z</time>
      </trkpt>
      <trkpt lat="42.51184" lon="2.52464">
        <ele>1599</ele>
        <time>2024-09-19T09:30:44Z</time>
      </trkpt>
      <trkpt lat="42.51186" lon="2.5246">
        <ele>1601</ele>
        <time>2024-09-19T09:30:49Z</time>
      </trkpt>
      <trkpt lat="42.51186" lon="2.52456">
        <ele>1603</ele>
        <time>2024-09-19T09:31:02Z</time>
      </trkpt>
      <trkpt lat="42.51184" lon="2.52455">
        <ele>1604</ele>
        <time>2024-09-19T09:31:08Z</time>
      </trkpt>
      <trkpt lat="42.51182" lon="2.52455">
        <ele>1604</ele>
        <time>2024-09-19T09:31:12Z</time>
      </trkpt>
      <trkpt lat="42.51179" lon="2.52456">
        <ele>1605</ele>
        <time>2024-09-19T09:31:16Z</time>
      </trkpt>
      <trkpt lat="42.51177" lon="2.52458">
        <ele>1605</ele>
        <time>2024-09-19T09:31:22Z</time>
      </trkpt>
      <trkpt lat="42.51174" lon="2.52457">
        <ele>1607</ele>
        <time>2024-09-19T09:31:27Z</time>
      </trkpt>
      <trkpt lat="42.51173" lon="2.52454">
        <ele>1606</ele>
        <time>2024-09-19T09:31:36Z</time>
      </trkpt>
      <trkpt lat="42.51172" lon="2.52451">
        <ele>1606</ele>
        <time>2024-09-19T09:31:39Z</time>
      </trkpt>
      <trkpt lat="42.51169" lon="2.52449">
        <ele>1607</ele>
        <time>2024-09-19T09:32:08Z</time>
      </trkpt>
      <trkpt lat="42.51169" lon="2.52446">
        <ele>1607</ele>
        <time>2024-09-19T09:32:10Z</time>
      </trkpt>
      <trkpt lat="42.51167" lon="2.52443">
        <ele>1607</ele>
        <time>2024-09-19T09:32:13Z</time>
      </trkpt>
      <trkpt lat="42.51165" lon="2.5244">
        <ele>1608</ele>
        <time>2024-09-19T09:32:17Z</time>
      </trkpt>
      <trkpt lat="42.51164" lon="2.52436">
        <ele>1608</ele>
        <time>2024-09-19T09:32:22Z</time>
      </trkpt>
      <trkpt lat="42.51163" lon="2.52434">
        <ele>1609</ele>
        <time>2024-09-19T09:32:25Z</time>
      </trkpt>
      <trkpt lat="42.51161" lon="2.52431">
        <ele>1609</ele>
        <time>2024-09-19T09:32:29Z</time>
      </trkpt>
      <trkpt lat="42.51159" lon="2.52427">
        <ele>1610</ele>
        <time>2024-09-19T09:32:33Z</time>
      </trkpt>
      <trkpt lat="42.51161" lon="2.52425">
        <ele>1611</ele>
        <time>2024-09-19T09:32:36Z</time>
      </trkpt>
      <trkpt lat="42.51159" lon="2.52423">
        <ele>1611</ele>
        <time>2024-09-19T09:32:37Z</time>
      </trkpt>
      <trkpt lat="42.51157" lon="2.52421">
        <ele>1610</ele>
        <time>2024-09-19T09:32:39Z</time>
      </trkpt>
      <trkpt lat="42.51154" lon="2.5242">
        <ele>1611</ele>
        <time>2024-09-19T09:32:41Z</time>
      </trkpt>
      <trkpt lat="42.51151" lon="2.52419">
        <ele>1611</ele>
        <time>2024-09-19T09:32:44Z</time>
      </trkpt>
      <trkpt lat="42.51148" lon="2.52418">
        <ele>1611</ele>
        <time>2024-09-19T09:32:47Z</time>
      </trkpt>
      <trkpt lat="42.51145" lon="2.52416">
        <ele>1612</ele>
        <time>2024-09-19T09:32:50Z</time>
      </trkpt>
      <trkpt lat="42.51142" lon="2.52414">
        <ele>1612</ele>
        <time>2024-09-19T09:32:53Z</time>
      </trkpt>
      <trkpt lat="42.51139" lon="2.52412">
        <ele>1610</ele>
        <time>2024-09-19T09:32:57Z</time>
      </trkpt>
      <trkpt lat="42.51136" lon="2.52411">
        <ele>1609</ele>
        <time>2024-09-19T09:32:59Z</time>
      </trkpt>
      <trkpt lat="42.51133" lon="2.52408">
        <ele>1608</ele>
        <time>2024-09-19T09:33:04Z</time>
      </trkpt>
      <trkpt lat="42.51131" lon="2.52406">
        <ele>1608</ele>
        <time>2024-09-19T09:33:06Z</time>
      </trkpt>
      <trkpt lat="42.51128" lon="2.52404">
        <ele>1607</ele>
        <time>2024-09-19T09:33:10Z</time>
      </trkpt>
      <trkpt lat="42.51125" lon="2.52402">
        <ele>1606</ele>
        <time>2024-09-19T09:33:13Z</time>
      </trkpt>
      <trkpt lat="42.51123" lon="2.52401">
        <ele>1607</ele>
        <time>2024-09-19T09:33:16Z</time>
      </trkpt>
      <trkpt lat="42.5112" lon="2.524">
        <ele>1606</ele>
        <time>2024-09-19T09:33:19Z</time>
      </trkpt>
      <trkpt lat="42.51117" lon="2.524">
        <ele>1606</ele>
        <time>2024-09-19T09:33:23Z</time>
      </trkpt>
      <trkpt lat="42.51114" lon="2.524">
        <ele>1605</ele>
        <time>2024-09-19T09:33:27Z</time>
      </trkpt>
      <trkpt lat="42.51111" lon="2.52399">
        <ele>1604</ele>
        <time>2024-09-19T09:33:33Z</time>
      </trkpt>
      <trkpt lat="42.51107" lon="2.52399">
        <ele>1603</ele>
        <time>2024-09-19T09:33:35Z</time>
      </trkpt>
      <trkpt lat="42.51105" lon="2.52398">
        <ele>1603</ele>
        <time>2024-09-19T09:33:41Z</time>
      </trkpt>
      <trkpt lat="42.51101" lon="2.52398">
        <ele>1602</ele>
        <time>2024-09-19T09:33:45Z</time>
      </trkpt>
      <trkpt lat="42.51098" lon="2.52398">
        <ele>1602</ele>
        <time>2024-09-19T09:33:48Z</time>
      </trkpt>
      <trkpt lat="42.51094" lon="2.52397">
        <ele>1601</ele>
        <time>2024-09-19T09:33:54Z</time>
      </trkpt>
      <trkpt lat="42.51092" lon="2.52395">
        <ele>1601</ele>
        <time>2024-09-19T09:33:57Z</time>
      </trkpt>
      <trkpt lat="42.51088" lon="2.52394">
        <ele>1602</ele>
        <time>2024-09-19T09:34:01Z</time>
      </trkpt>
      <trkpt lat="42.51085" lon="2.52394">
        <ele>1602</ele>
        <time>2024-09-19T09:34:06Z</time>
      </trkpt>
      <trkpt lat="42.51082" lon="2.52393">
        <ele>1603</ele>
        <time>2024-09-19T09:34:10Z</time>
      </trkpt>
      <trkpt lat="42.5108" lon="2.52391">
        <ele>1605</ele>
        <time>2024-09-19T09:34:15Z</time>
      </trkpt>
      <trkpt lat="42.51077" lon="2.52388">
        <ele>1607</ele>
        <time>2024-09-19T09:34:23Z</time>
      </trkpt>
      <trkpt lat="42.51076" lon="2.52385">
        <ele>1607</ele>
        <time>2024-09-19T09:34:28Z</time>
      </trkpt>
      <trkpt lat="42.51073" lon="2.52383">
        <ele>1606</ele>
        <time>2024-09-19T09:34:34Z</time>
      </trkpt>
      <trkpt lat="42.51071" lon="2.52383">
        <ele>1607</ele>
        <time>2024-09-19T09:34:38Z</time>
      </trkpt>
      <trkpt lat="42.51067" lon="2.52383">
        <ele>1605</ele>
        <time>2024-09-19T09:34:41Z</time>
      </trkpt>
      <trkpt lat="42.51065" lon="2.52386">
        <ele>1604</ele>
        <time>2024-09-19T09:34:49Z</time>
      </trkpt>
      <trkpt lat="42.51062" lon="2.52389">
        <ele>1605</ele>
        <time>2024-09-19T09:34:52Z</time>
      </trkpt>
      <trkpt lat="42.51059" lon="2.52393">
        <ele>1604</ele>
        <time>2024-09-19T09:34:54Z</time>
      </trkpt>
      <trkpt lat="42.51057" lon="2.52396">
        <ele>1605</ele>
        <time>2024-09-19T09:34:59Z</time>
      </trkpt>
      <trkpt lat="42.51056" lon="2.52395">
        <ele>1602</ele>
        <time>2024-09-19T09:35:08Z</time>
      </trkpt>
      <trkpt lat="42.51055" lon="2.52392">
        <ele>1603</ele>
        <time>2024-09-19T09:35:23Z</time>
      </trkpt>
      <trkpt lat="42.51057" lon="2.52391">
        <ele>1605</ele>
        <time>2024-09-19T09:35:53Z</time>
      </trkpt>
      <trkpt lat="42.51057" lon="2.52392">
        <ele>1604</ele>
        <time>2024-09-19T09:35:55Z</time>
      </trkpt>
      <trkpt lat="42.51057" lon="2.52395">
        <ele>1603</ele>
        <time>2024-09-19T09:35:57Z</time>
      </trkpt>
      <trkpt lat="42.51055" lon="2.52393">
        <ele>1600</ele>
        <time>2024-09-19T09:36:04Z</time>
      </trkpt>
      <trkpt lat="42.51056" lon="2.52394">
        <ele>1598</ele>
        <time>2024-09-19T09:37:20Z</time>
      </trkpt>
      <trkpt lat="42.51054" lon="2.52395">
        <ele>1599</ele>
        <time>2024-09-19T09:38:14Z</time>
      </trkpt>
      <trkpt lat="42.51055" lon="2.52397">
        <ele>1601</ele>
        <time>2024-09-19T09:38:39Z</time>
      </trkpt>
      <trkpt lat="42.51056" lon="2.52396">
        <ele>1600</ele>
        <time>2024-09-19T09:38:48Z</time>
      </trkpt>
      <trkpt lat="42.51056" lon="2.52394">
        <ele>1603</ele>
        <time>2024-09-19T09:39:06Z</time>
      </trkpt>
      <trkpt lat="42.51055" lon="2.52394">
        <ele>1599</ele>
        <time>2024-09-19T09:40:40Z</time>
      </trkpt>
      <trkpt lat="42.51056" lon="2.52393">
        <ele>1601</ele>
        <time>2024-09-19T09:41:17Z</time>
      </trkpt>
      <trkpt lat="42.51057" lon="2.52395">
        <ele>1600</ele>
        <time>2024-09-19T09:41:21Z</time>
      </trkpt>
      <trkpt lat="42.51057" lon="2.52398">
        <ele>1600</ele>
        <time>2024-09-19T09:41:30Z</time>
      </trkpt>
      <trkpt lat="42.51056" lon="2.52398">
        <ele>1603</ele>
        <time>2024-09-19T09:41:39Z</time>
      </trkpt>
      <trkpt lat="42.51056" lon="2.52396">
        <ele>1602</ele>
        <time>2024-09-19T09:41:55Z</time>
      </trkpt>
      <trkpt lat="42.51056" lon="2.52393">
        <ele>1604</ele>
        <time>2024-09-19T09:42:02Z</time>
      </trkpt>
      <trkpt lat="42.51055" lon="2.52393">
        <ele>1600</ele>
        <time>2024-09-19T09:42:35Z</time>
      </trkpt>
      <trkpt lat="42.51056" lon="2.52395">
        <ele>1600</ele>
        <time>2024-09-19T09:42:54Z</time>
      </trkpt>
      <trkpt lat="42.51056" lon="2.52398">
        <ele>1600</ele>
        <time>2024-09-19T09:43:12Z</time>
      </trkpt>
      <trkpt lat="42.51056" lon="2.52402">
        <ele>1600</ele>
        <time>2024-09-19T09:43:20Z</time>
      </trkpt>
      <trkpt lat="42.51059" lon="2.52404">
        <ele>1601</ele>
        <time>2024-09-19T09:43:28Z</time>
      </trkpt>
      <trkpt lat="42.51061" lon="2.52407">
        <ele>1600</ele>
        <time>2024-09-19T09:43:30Z</time>
      </trkpt>
      <trkpt lat="42.51064" lon="2.5241">
        <ele>1598</ele>
        <time>2024-09-19T09:43:33Z</time>
      </trkpt>
      <trkpt lat="42.51066" lon="2.52413">
        <ele>1598</ele>
        <time>2024-09-19T09:43:36Z</time>
      </trkpt>
      <trkpt lat="42.51067" lon="2.52417">
        <ele>1599</ele>
        <time>2024-09-19T09:43:39Z</time>
      </trkpt>
      <trkpt lat="42.5107" lon="2.5242">
        <ele>1599</ele>
        <time>2024-09-19T09:43:43Z</time>
      </trkpt>
      <trkpt lat="42.51072" lon="2.52423">
        <ele>1598</ele>
        <time>2024-09-19T09:43:46Z</time>
      </trkpt>
      <trkpt lat="42.51075" lon="2.52427">
        <ele>1599</ele>
        <time>2024-09-19T09:43:48Z</time>
      </trkpt>
      <trkpt lat="42.51077" lon="2.5243">
        <ele>1597</ele>
        <time>2024-09-19T09:43:51Z</time>
      </trkpt>
      <trkpt lat="42.51078" lon="2.52434">
        <ele>1601</ele>
        <time>2024-09-19T09:43:56Z</time>
      </trkpt>
      <trkpt lat="42.51077" lon="2.52438">
        <ele>1600</ele>
        <time>2024-09-19T09:43:58Z</time>
      </trkpt>
      <trkpt lat="42.51077" lon="2.52442">
        <ele>1599</ele>
        <time>2024-09-19T09:44:10Z</time>
      </trkpt>
      <trkpt lat="42.51077" lon="2.52446">
        <ele>1600</ele>
        <time>2024-09-19T09:44:18Z</time>
      </trkpt>
      <trkpt lat="42.51078" lon="2.5245">
        <ele>1601</ele>
        <time>2024-09-19T09:44:23Z</time>
      </trkpt>
      <trkpt lat="42.51077" lon="2.52452">
        <ele>1603</ele>
        <time>2024-09-19T09:44:29Z</time>
      </trkpt>
      <trkpt lat="42.51076" lon="2.52456">
        <ele>1604</ele>
        <time>2024-09-19T09:44:33Z</time>
      </trkpt>
      <trkpt lat="42.51076" lon="2.52459">
        <ele>1604</ele>
        <time>2024-09-19T09:44:38Z</time>
      </trkpt>
      <trkpt lat="42.51075" lon="2.52464">
        <ele>1605</ele>
        <time>2024-09-19T09:44:42Z</time>
      </trkpt>
      <trkpt lat="42.51075" lon="2.5247">
        <ele>1607</ele>
        <time>2024-09-19T09:44:46Z</time>
      </trkpt>
      <trkpt lat="42.51073" lon="2.52471">
        <ele>1605</ele>
        <time>2024-09-19T09:44:54Z</time>
      </trkpt>
      <trkpt lat="42.51072" lon="2.52469">
        <ele>1606</ele>
        <time>2024-09-19T09:44:58Z</time>
      </trkpt>
      <trkpt lat="42.51073" lon="2.52465">
        <ele>1605</ele>
        <time>2024-09-19T09:45:06Z</time>
      </trkpt>
      <trkpt lat="42.51072" lon="2.52461">
        <ele>1607</ele>
        <time>2024-09-19T09:45:13Z</time>
      </trkpt>
      <trkpt lat="42.5107" lon="2.52457">
        <ele>1606</ele>
        <time>2024-09-19T09:45:21Z</time>
      </trkpt>
      <trkpt lat="42.51068" lon="2.52454">
        <ele>1606</ele>
        <time>2024-09-19T09:45:24Z</time>
      </trkpt>
      <trkpt lat="42.51066" lon="2.5245">
        <ele>1608</ele>
        <time>2024-09-19T09:45:29Z</time>
      </trkpt>
      <trkpt lat="42.51065" lon="2.52446">
        <ele>1609</ele>
        <time>2024-09-19T09:45:33Z</time>
      </trkpt>
      <trkpt lat="42.51064" lon="2.52443">
        <ele>1609</ele>
        <time>2024-09-19T09:45:35Z</time>
      </trkpt>
      <trkpt lat="42.51062" lon="2.5244">
        <ele>1610</ele>
        <time>2024-09-19T09:45:39Z</time>
      </trkpt>
      <trkpt lat="42.51061" lon="2.52441">
        <ele>1612</ele>
        <time>2024-09-19T09:45:51Z</time>
      </trkpt>
      <trkpt lat="42.51061" lon="2.52444">
        <ele>1613</ele>
        <time>2024-09-19T09:45:56Z</time>
      </trkpt>
      <trkpt lat="42.5106" lon="2.52448">
        <ele>1614</ele>
        <time>2024-09-19T09:46:03Z</time>
      </trkpt>
      <trkpt lat="42.51061" lon="2.52452">
        <ele>1615</ele>
        <time>2024-09-19T09:46:07Z</time>
      </trkpt>
      <trkpt lat="42.5106" lon="2.52455">
        <ele>1616</ele>
        <time>2024-09-19T09:46:13Z</time>
      </trkpt>
      <trkpt lat="42.51058" lon="2.52455">
        <ele>1617</ele>
        <time>2024-09-19T09:46:30Z</time>
      </trkpt>
      <trkpt lat="42.51056" lon="2.52453">
        <ele>1620</ele>
        <time>2024-09-19T09:46:35Z</time>
      </trkpt>
      <trkpt lat="42.51054" lon="2.5245">
        <ele>1619</ele>
        <time>2024-09-19T09:46:40Z</time>
      </trkpt>
      <trkpt lat="42.51052" lon="2.52447">
        <ele>1619</ele>
        <time>2024-09-19T09:46:43Z</time>
      </trkpt>
      <trkpt lat="42.51051" lon="2.52443">
        <ele>1621</ele>
        <time>2024-09-19T09:46:49Z</time>
      </trkpt>
      <trkpt lat="42.51049" lon="2.5244">
        <ele>1621</ele>
        <time>2024-09-19T09:46:52Z</time>
      </trkpt>
      <trkpt lat="42.51047" lon="2.52437">
        <ele>1622</ele>
        <time>2024-09-19T09:46:58Z</time>
      </trkpt>
      <trkpt lat="42.51046" lon="2.52434">
        <ele>1622</ele>
        <time>2024-09-19T09:47:05Z</time>
      </trkpt>
      <trkpt lat="42.51044" lon="2.52431">
        <ele>1624</ele>
        <time>2024-09-19T09:47:12Z</time>
      </trkpt>
      <trkpt lat="42.51042" lon="2.52433">
        <ele>1624</ele>
        <time>2024-09-19T09:47:16Z</time>
      </trkpt>
      <trkpt lat="42.51041" lon="2.52435">
        <ele>1625</ele>
        <time>2024-09-19T09:47:22Z</time>
      </trkpt>
      <trkpt lat="42.51041" lon="2.52439">
        <ele>1626</ele>
        <time>2024-09-19T09:47:27Z</time>
      </trkpt>
      <trkpt lat="42.51041" lon="2.52443">
        <ele>1626</ele>
        <time>2024-09-19T09:47:32Z</time>
      </trkpt>
      <trkpt lat="42.51041" lon="2.52447">
        <ele>1627</ele>
        <time>2024-09-19T09:47:36Z</time>
      </trkpt>
      <trkpt lat="42.51041" lon="2.52451">
        <ele>1628</ele>
        <time>2024-09-19T09:47:40Z</time>
      </trkpt>
      <trkpt lat="42.5104" lon="2.52455">
        <ele>1629</ele>
        <time>2024-09-19T09:47:44Z</time>
      </trkpt>
      <trkpt lat="42.5104" lon="2.52459">
        <ele>1630</ele>
        <time>2024-09-19T09:47:51Z</time>
      </trkpt>
      <trkpt lat="42.51042" lon="2.52463">
        <ele>1631</ele>
        <time>2024-09-19T09:47:55Z</time>
      </trkpt>
      <trkpt lat="42.51042" lon="2.52467">
        <ele>1630</ele>
        <time>2024-09-19T09:48:05Z</time>
      </trkpt>
      <trkpt lat="42.51041" lon="2.52471">
        <ele>1632</ele>
        <time>2024-09-19T09:48:11Z</time>
      </trkpt>
      <trkpt lat="42.51041" lon="2.52475">
        <ele>1633</ele>
        <time>2024-09-19T09:48:17Z</time>
      </trkpt>
      <trkpt lat="42.51039" lon="2.52478">
        <ele>1633</ele>
        <time>2024-09-19T09:48:21Z</time>
      </trkpt>
      <trkpt lat="42.51037" lon="2.52482">
        <ele>1633</ele>
        <time>2024-09-19T09:48:30Z</time>
      </trkpt>
      <trkpt lat="42.51037" lon="2.52486">
        <ele>1634</ele>
        <time>2024-09-19T09:48:36Z</time>
      </trkpt>
      <trkpt lat="42.51035" lon="2.52489">
        <ele>1635</ele>
        <time>2024-09-19T09:48:39Z</time>
      </trkpt>
      <trkpt lat="42.51034" lon="2.52493">
        <ele>1635</ele>
        <time>2024-09-19T09:48:43Z</time>
      </trkpt>
      <trkpt lat="42.51032" lon="2.52496">
        <ele>1633</ele>
        <time>2024-09-19T09:48:53Z</time>
      </trkpt>
      <trkpt lat="42.5103" lon="2.52499">
        <ele>1634</ele>
        <time>2024-09-19T09:48:58Z</time>
      </trkpt>
      <trkpt lat="42.51029" lon="2.52503">
        <ele>1636</ele>
        <time>2024-09-19T09:49:06Z</time>
      </trkpt>
      <trkpt lat="42.51027" lon="2.52507">
        <ele>1636</ele>
        <time>2024-09-19T09:49:10Z</time>
      </trkpt>
      <trkpt lat="42.51026" lon="2.52511">
        <ele>1635</ele>
        <time>2024-09-19T09:49:12Z</time>
      </trkpt>
      <trkpt lat="42.51025" lon="2.52515">
        <ele>1636</ele>
        <time>2024-09-19T09:49:15Z</time>
      </trkpt>
      <trkpt lat="42.51026" lon="2.52513">
        <ele>1637</ele>
        <time>2024-09-19T09:49:16Z</time>
      </trkpt>
      <trkpt lat="42.51026" lon="2.52515">
        <ele>1638</ele>
        <time>2024-09-19T09:49:18Z</time>
      </trkpt>
      <trkpt lat="42.51025" lon="2.52518">
        <ele>1637</ele>
        <time>2024-09-19T09:49:21Z</time>
      </trkpt>
      <trkpt lat="42.51023" lon="2.52521">
        <ele>1638</ele>
        <time>2024-09-19T09:49:24Z</time>
      </trkpt>
      <trkpt lat="42.51021" lon="2.52524">
        <ele>1639</ele>
        <time>2024-09-19T09:49:33Z</time>
      </trkpt>
      <trkpt lat="42.51021" lon="2.52527">
        <ele>1642</ele>
        <time>2024-09-19T09:49:39Z</time>
      </trkpt>
      <trkpt lat="42.51019" lon="2.52531">
        <ele>1640</ele>
        <time>2024-09-19T09:49:48Z</time>
      </trkpt>
      <trkpt lat="42.51018" lon="2.52534">
        <ele>1639</ele>
        <time>2024-09-19T09:49:52Z</time>
      </trkpt>
      <trkpt lat="42.51017" lon="2.52538">
        <ele>1640</ele>
        <time>2024-09-19T09:49:56Z</time>
      </trkpt>
      <trkpt lat="42.51015" lon="2.52542">
        <ele>1640</ele>
        <time>2024-09-19T09:50:00Z</time>
      </trkpt>
      <trkpt lat="42.51013" lon="2.52546">
        <ele>1640</ele>
        <time>2024-09-19T09:50:04Z</time>
      </trkpt>
      <trkpt lat="42.51012" lon="2.5255">
        <ele>1642</ele>
        <time>2024-09-19T09:50:09Z</time>
      </trkpt>
      <trkpt lat="42.51012" lon="2.52554">
        <ele>1643</ele>
        <time>2024-09-19T09:50:15Z</time>
      </trkpt>
      <trkpt lat="42.5101" lon="2.52558">
        <ele>1644</ele>
        <time>2024-09-19T09:50:22Z</time>
      </trkpt>
      <trkpt lat="42.51009" lon="2.52562">
        <ele>1646</ele>
        <time>2024-09-19T09:50:28Z</time>
      </trkpt>
      <trkpt lat="42.51008" lon="2.52565">
        <ele>1648</ele>
        <time>2024-09-19T09:50:34Z</time>
      </trkpt>
      <trkpt lat="42.51009" lon="2.52569">
        <ele>1650</ele>
        <time>2024-09-19T09:50:38Z</time>
      </trkpt>
      <trkpt lat="42.51011" lon="2.52575">
        <ele>1651</ele>
        <time>2024-09-19T09:50:43Z</time>
      </trkpt>
      <trkpt lat="42.5101" lon="2.52576">
        <ele>1651</ele>
        <time>2024-09-19T09:50:44Z</time>
      </trkpt>
      <trkpt lat="42.5101" lon="2.52579">
        <ele>1652</ele>
        <time>2024-09-19T09:50:48Z</time>
      </trkpt>
      <trkpt lat="42.51009" lon="2.52582">
        <ele>1653</ele>
        <time>2024-09-19T09:50:56Z</time>
      </trkpt>
      <trkpt lat="42.51009" lon="2.52585">
        <ele>1654</ele>
        <time>2024-09-19T09:51:01Z</time>
      </trkpt>
      <trkpt lat="42.51009" lon="2.52589">
        <ele>1653</ele>
        <time>2024-09-19T09:51:05Z</time>
      </trkpt>
      <trkpt lat="42.51009" lon="2.52592">
        <ele>1653</ele>
        <time>2024-09-19T09:51:08Z</time>
      </trkpt>
      <trkpt lat="42.51008" lon="2.52596">
        <ele>1653</ele>
        <time>2024-09-19T09:51:14Z</time>
      </trkpt>
      <trkpt lat="42.51007" lon="2.526">
        <ele>1654</ele>
        <time>2024-09-19T09:51:18Z</time>
      </trkpt>
      <trkpt lat="42.51006" lon="2.52604">
        <ele>1655</ele>
        <time>2024-09-19T09:51:26Z</time>
      </trkpt>
      <trkpt lat="42.51006" lon="2.52607">
        <ele>1657</ele>
        <time>2024-09-19T09:51:31Z</time>
      </trkpt>
      <trkpt lat="42.51004" lon="2.52611">
        <ele>1656</ele>
        <time>2024-09-19T09:51:34Z</time>
      </trkpt>
      <trkpt lat="42.51003" lon="2.52615">
        <ele>1657</ele>
        <time>2024-09-19T09:51:39Z</time>
      </trkpt>
      <trkpt lat="42.51002" lon="2.52619">
        <ele>1657</ele>
        <time>2024-09-19T09:51:43Z</time>
      </trkpt>
      <trkpt lat="42.51002" lon="2.52625">
        <ele>1663</ele>
        <time>2024-09-19T09:51:55Z</time>
      </trkpt>
      <trkpt lat="42.51001" lon="2.5263">
        <ele>1661</ele>
        <time>2024-09-19T09:52:04Z</time>
      </trkpt>
      <trkpt lat="42.51" lon="2.52636">
        <ele>1659</ele>
        <time>2024-09-19T09:52:14Z</time>
      </trkpt>
      <trkpt lat="42.51" lon="2.52636">
        <ele>1659</ele>
        <time>2024-09-19T09:52:15Z</time>
      </trkpt>
      <trkpt lat="42.51" lon="2.52638">
        <ele>1660</ele>
        <time>2024-09-19T09:52:23Z</time>
      </trkpt>
      <trkpt lat="42.51" lon="2.52641">
        <ele>1661</ele>
        <time>2024-09-19T09:52:27Z</time>
      </trkpt>
      <trkpt lat="42.51" lon="2.52646">
        <ele>1662</ele>
        <time>2024-09-19T09:52:35Z</time>
      </trkpt>
      <trkpt lat="42.51" lon="2.5265">
        <ele>1662</ele>
        <time>2024-09-19T09:52:39Z</time>
      </trkpt>
      <trkpt lat="42.50998" lon="2.52653">
        <ele>1662</ele>
        <time>2024-09-19T09:52:42Z</time>
      </trkpt>
      <trkpt lat="42.50998" lon="2.52657">
        <ele>1664</ele>
        <time>2024-09-19T09:52:46Z</time>
      </trkpt>
      <trkpt lat="42.50996" lon="2.52661">
        <ele>1664</ele>
        <time>2024-09-19T09:52:51Z</time>
      </trkpt>
      <trkpt lat="42.50996" lon="2.52665">
        <ele>1665</ele>
        <time>2024-09-19T09:52:56Z</time>
      </trkpt>
      <trkpt lat="42.50996" lon="2.5267">
        <ele>1666</ele>
        <time>2024-09-19T09:53:00Z</time>
      </trkpt>
      <trkpt lat="42.50996" lon="2.52673">
        <ele>1666</ele>
        <time>2024-09-19T09:53:03Z</time>
      </trkpt>
      <trkpt lat="42.50994" lon="2.52676">
        <ele>1668</ele>
        <time>2024-09-19T09:53:08Z</time>
      </trkpt>
      <trkpt lat="42.50992" lon="2.52675">
        <ele>1669</ele>
        <time>2024-09-19T09:53:17Z</time>
      </trkpt>
      <trkpt lat="42.50991" lon="2.52672">
        <ele>1670</ele>
        <time>2024-09-19T09:53:24Z</time>
      </trkpt>
      <trkpt lat="42.5099" lon="2.52669">
        <ele>1669</ele>
        <time>2024-09-19T09:53:29Z</time>
      </trkpt>
      <trkpt lat="42.50989" lon="2.52665">
        <ele>1669</ele>
        <time>2024-09-19T09:53:34Z</time>
      </trkpt>
      <trkpt lat="42.50987" lon="2.52662">
        <ele>1670</ele>
        <time>2024-09-19T09:53:39Z</time>
      </trkpt>
      <trkpt lat="42.50985" lon="2.52658">
        <ele>1673</ele>
        <time>2024-09-19T09:53:46Z</time>
      </trkpt>
      <trkpt lat="42.50985" lon="2.5266">
        <ele>1671</ele>
        <time>2024-09-19T09:53:49Z</time>
      </trkpt>
      <trkpt lat="42.50985" lon="2.52663">
        <ele>1669</ele>
        <time>2024-09-19T09:53:52Z</time>
      </trkpt>
      <trkpt lat="42.50984" lon="2.52667">
        <ele>1670</ele>
        <time>2024-09-19T09:53:55Z</time>
      </trkpt>
      <trkpt lat="42.50984" lon="2.52672">
        <ele>1670</ele>
        <time>2024-09-19T09:53:58Z</time>
      </trkpt>
      <trkpt lat="42.50983" lon="2.52676">
        <ele>1671</ele>
        <time>2024-09-19T09:54:00Z</time>
      </trkpt>
      <trkpt lat="42.50982" lon="2.5268">
        <ele>1670</ele>
        <time>2024-09-19T09:54:03Z</time>
      </trkpt>
      <trkpt lat="42.50983" lon="2.52682">
        <ele>1672</ele>
        <time>2024-09-19T09:54:06Z</time>
      </trkpt>
      <trkpt lat="42.50984" lon="2.52686">
        <ele>1676</ele>
        <time>2024-09-19T09:54:13Z</time>
      </trkpt>
      <trkpt lat="42.50984" lon="2.5269">
        <ele>1674</ele>
        <time>2024-09-19T09:54:17Z</time>
      </trkpt>
      <trkpt lat="42.50986" lon="2.52692">
        <ele>1676</ele>
        <time>2024-09-19T09:54:18Z</time>
      </trkpt>
      <trkpt lat="42.50985" lon="2.52693">
        <ele>1675</ele>
        <time>2024-09-19T09:54:20Z</time>
      </trkpt>
      <trkpt lat="42.50983" lon="2.52697">
        <ele>1674</ele>
        <time>2024-09-19T09:54:23Z</time>
      </trkpt>
      <trkpt lat="42.50983" lon="2.52701">
        <ele>1674</ele>
        <time>2024-09-19T09:54:26Z</time>
      </trkpt>
      <trkpt lat="42.50984" lon="2.52706">
        <ele>1675</ele>
        <time>2024-09-19T09:54:30Z</time>
      </trkpt>
      <trkpt lat="42.50984" lon="2.5271">
        <ele>1675</ele>
        <time>2024-09-19T09:54:33Z</time>
      </trkpt>
      <trkpt lat="42.50985" lon="2.52714">
        <ele>1677</ele>
        <time>2024-09-19T09:54:38Z</time>
      </trkpt>
      <trkpt lat="42.50985" lon="2.52718">
        <ele>1676</ele>
        <time>2024-09-19T09:54:44Z</time>
      </trkpt>
      <trkpt lat="42.50986" lon="2.52722">
        <ele>1678</ele>
        <time>2024-09-19T09:54:51Z</time>
      </trkpt>
      <trkpt lat="42.50988" lon="2.52727">
        <ele>1680</ele>
        <time>2024-09-19T09:54:56Z</time>
      </trkpt>
      <trkpt lat="42.50989" lon="2.5273">
        <ele>1680</ele>
        <time>2024-09-19T09:55:00Z</time>
      </trkpt>
      <trkpt lat="42.50989" lon="2.52735">
        <ele>1680</ele>
        <time>2024-09-19T09:55:03Z</time>
      </trkpt>
      <trkpt lat="42.5099" lon="2.52738">
        <ele>1679</ele>
        <time>2024-09-19T09:55:10Z</time>
      </trkpt>
      <trkpt lat="42.50991" lon="2.52743">
        <ele>1681</ele>
        <time>2024-09-19T09:55:15Z</time>
      </trkpt>
      <trkpt lat="42.50991" lon="2.52747">
        <ele>1680</ele>
        <time>2024-09-19T09:55:23Z</time>
      </trkpt>
      <trkpt lat="42.5099" lon="2.5275">
        <ele>1681</ele>
        <time>2024-09-19T09:55:26Z</time>
      </trkpt>
      <trkpt lat="42.50989" lon="2.52755">
        <ele>1681</ele>
        <time>2024-09-19T09:55:34Z</time>
      </trkpt>
      <trkpt lat="42.50987" lon="2.52759">
        <ele>1679</ele>
        <time>2024-09-19T09:55:39Z</time>
      </trkpt>
      <trkpt lat="42.50987" lon="2.52763">
        <ele>1679</ele>
        <time>2024-09-19T09:55:43Z</time>
      </trkpt>
      <trkpt lat="42.50985" lon="2.52767">
        <ele>1680</ele>
        <time>2024-09-19T09:55:47Z</time>
      </trkpt>
      <trkpt lat="42.50984" lon="2.5277">
        <ele>1681</ele>
        <time>2024-09-19T09:55:51Z</time>
      </trkpt>
      <trkpt lat="42.50983" lon="2.52774">
        <ele>1682</ele>
        <time>2024-09-19T09:55:55Z</time>
      </trkpt>
      <trkpt lat="42.50981" lon="2.52777">
        <ele>1683</ele>
        <time>2024-09-19T09:56:02Z</time>
      </trkpt>
      <trkpt lat="42.50979" lon="2.52781">
        <ele>1681</ele>
        <time>2024-09-19T09:56:06Z</time>
      </trkpt>
      <trkpt lat="42.50977" lon="2.52781">
        <ele>1682</ele>
        <time>2024-09-19T09:56:13Z</time>
      </trkpt>
      <trkpt lat="42.50977" lon="2.52785">
        <ele>1685</ele>
        <time>2024-09-19T09:56:28Z</time>
      </trkpt>
      <trkpt lat="42.50975" lon="2.52786">
        <ele>1685</ele>
        <time>2024-09-19T09:56:52Z</time>
      </trkpt>
      <trkpt lat="42.50972" lon="2.52787">
        <ele>1685</ele>
        <time>2024-09-19T09:56:58Z</time>
      </trkpt>
      <trkpt lat="42.50969" lon="2.52788">
        <ele>1687</ele>
        <time>2024-09-19T09:57:05Z</time>
      </trkpt>
      <trkpt lat="42.50966" lon="2.52789">
        <ele>1687</ele>
        <time>2024-09-19T09:57:10Z</time>
      </trkpt>
      <trkpt lat="42.50963" lon="2.5279">
        <ele>1689</ele>
        <time>2024-09-19T09:57:16Z</time>
      </trkpt>
      <trkpt lat="42.50959" lon="2.52793">
        <ele>1688</ele>
        <time>2024-09-19T09:57:25Z</time>
      </trkpt>
      <trkpt lat="42.50956" lon="2.52794">
        <ele>1689</ele>
        <time>2024-09-19T09:57:29Z</time>
      </trkpt>
      <trkpt lat="42.50953" lon="2.52793">
        <ele>1690</ele>
        <time>2024-09-19T09:57:33Z</time>
      </trkpt>
      <trkpt lat="42.50951" lon="2.52795">
        <ele>1691</ele>
        <time>2024-09-19T09:57:43Z</time>
      </trkpt>
      <trkpt lat="42.50948" lon="2.52797">
        <ele>1691</ele>
        <time>2024-09-19T09:57:48Z</time>
      </trkpt>
      <trkpt lat="42.50946" lon="2.52798">
        <ele>1691</ele>
        <time>2024-09-19T09:57:51Z</time>
      </trkpt>
      <trkpt lat="42.50943" lon="2.52799">
        <ele>1692</ele>
        <time>2024-09-19T09:57:56Z</time>
      </trkpt>
      <trkpt lat="42.5094" lon="2.52801">
        <ele>1691</ele>
        <time>2024-09-19T09:58:02Z</time>
      </trkpt>
      <trkpt lat="42.50937" lon="2.52802">
        <ele>1693</ele>
        <time>2024-09-19T09:58:10Z</time>
      </trkpt>
      <trkpt lat="42.50934" lon="2.52802">
        <ele>1692</ele>
        <time>2024-09-19T09:58:14Z</time>
      </trkpt>
      <trkpt lat="42.50931" lon="2.52804">
        <ele>1693</ele>
        <time>2024-09-19T09:58:20Z</time>
      </trkpt>
      <trkpt lat="42.50927" lon="2.52804">
        <ele>1693</ele>
        <time>2024-09-19T09:58:23Z</time>
      </trkpt>
      <trkpt lat="42.50925" lon="2.52806">
        <ele>1692</ele>
        <time>2024-09-19T09:58:29Z</time>
      </trkpt>
      <trkpt lat="42.50923" lon="2.52806">
        <ele>1691</ele>
        <time>2024-09-19T09:58:35Z</time>
      </trkpt>
      <trkpt lat="42.5092" lon="2.52809">
        <ele>1696</ele>
        <time>2024-09-19T09:58:38Z</time>
      </trkpt>
      <trkpt lat="42.50917" lon="2.52811">
        <ele>1696</ele>
        <time>2024-09-19T09:58:44Z</time>
      </trkpt>
      <trkpt lat="42.50914" lon="2.52812">
        <ele>1696</ele>
        <time>2024-09-19T09:58:48Z</time>
      </trkpt>
      <trkpt lat="42.50911" lon="2.52812">
        <ele>1697</ele>
        <time>2024-09-19T09:58:53Z</time>
      </trkpt>
      <trkpt lat="42.50908" lon="2.52813">
        <ele>1697</ele>
        <time>2024-09-19T09:58:55Z</time>
      </trkpt>
      <trkpt lat="42.50905" lon="2.52814">
        <ele>1699</ele>
        <time>2024-09-19T09:59:02Z</time>
      </trkpt>
      <trkpt lat="42.50903" lon="2.52817">
        <ele>1700</ele>
        <time>2024-09-19T09:59:07Z</time>
      </trkpt>
      <trkpt lat="42.509" lon="2.52817">
        <ele>1701</ele>
        <time>2024-09-19T09:59:13Z</time>
      </trkpt>
      <trkpt lat="42.50897" lon="2.5282">
        <ele>1701</ele>
        <time>2024-09-19T09:59:16Z</time>
      </trkpt>
      <trkpt lat="42.50894" lon="2.52821">
        <ele>1703</ele>
        <time>2024-09-19T09:59:21Z</time>
      </trkpt>
      <trkpt lat="42.50891" lon="2.52822">
        <ele>1701</ele>
        <time>2024-09-19T09:59:28Z</time>
      </trkpt>
      <trkpt lat="42.50889" lon="2.52823">
        <ele>1701</ele>
        <time>2024-09-19T09:59:33Z</time>
      </trkpt>
      <trkpt lat="42.50887" lon="2.52826">
        <ele>1702</ele>
        <time>2024-09-19T09:59:36Z</time>
      </trkpt>
      <trkpt lat="42.50883" lon="2.52828">
        <ele>1702</ele>
        <time>2024-09-19T09:59:42Z</time>
      </trkpt>
      <trkpt lat="42.5088" lon="2.52829">
        <ele>1702</ele>
        <time>2024-09-19T09:59:47Z</time>
      </trkpt>
      <trkpt lat="42.50877" lon="2.52828">
        <ele>1699</ele>
        <time>2024-09-19T09:59:51Z</time>
      </trkpt>
      <trkpt lat="42.50874" lon="2.5283">
        <ele>1699</ele>
        <time>2024-09-19T09:59:55Z</time>
      </trkpt>
      <trkpt lat="42.50871" lon="2.52831">
        <ele>1701</ele>
        <time>2024-09-19T10:00:00Z</time>
      </trkpt>
      <trkpt lat="42.50867" lon="2.52833">
        <ele>1702</ele>
        <time>2024-09-19T10:00:03Z</time>
      </trkpt>
      <trkpt lat="42.50864" lon="2.52836">
        <ele>1704</ele>
        <time>2024-09-19T10:00:08Z</time>
      </trkpt>
      <trkpt lat="42.50864" lon="2.52835">
        <ele>1704</ele>
        <time>2024-09-19T10:00:11Z</time>
      </trkpt>
      <trkpt lat="42.50863" lon="2.52835">
        <ele>1704</ele>
        <time>2024-09-19T10:00:14Z</time>
      </trkpt>
      <trkpt lat="42.5086" lon="2.52836">
        <ele>1704</ele>
        <time>2024-09-19T10:00:17Z</time>
      </trkpt>
      <trkpt lat="42.50858" lon="2.52839">
        <ele>1704</ele>
        <time>2024-09-19T10:00:22Z</time>
      </trkpt>
      <trkpt lat="42.50856" lon="2.5284">
        <ele>1704</ele>
        <time>2024-09-19T10:00:26Z</time>
      </trkpt>
      <trkpt lat="42.50854" lon="2.52841">
        <ele>1704</ele>
        <time>2024-09-19T10:00:29Z</time>
      </trkpt>
      <trkpt lat="42.50851" lon="2.52844">
        <ele>1704</ele>
        <time>2024-09-19T10:00:32Z</time>
      </trkpt>
      <trkpt lat="42.50848" lon="2.52846">
        <ele>1704</ele>
        <time>2024-09-19T10:00:36Z</time>
      </trkpt>
      <trkpt lat="42.50845" lon="2.52847">
        <ele>1703</ele>
        <time>2024-09-19T10:00:41Z</time>
      </trkpt>
      <trkpt lat="42.50841" lon="2.52848">
        <ele>1702</ele>
        <time>2024-09-19T10:00:45Z</time>
      </trkpt>
      <trkpt lat="42.50838" lon="2.5285">
        <ele>1703</ele>
        <time>2024-09-19T10:00:52Z</time>
      </trkpt>
      <trkpt lat="42.50836" lon="2.52854">
        <ele>1703</ele>
        <time>2024-09-19T10:00:55Z</time>
      </trkpt>
      <trkpt lat="42.50834" lon="2.52857">
        <ele>1703</ele>
        <time>2024-09-19T10:01:03Z</time>
      </trkpt>
      <trkpt lat="42.50831" lon="2.52857">
        <ele>1703</ele>
        <time>2024-09-19T10:01:05Z</time>
      </trkpt>
      <trkpt lat="42.50828" lon="2.52857">
        <ele>1704</ele>
        <time>2024-09-19T10:01:11Z</time>
      </trkpt>
      <trkpt lat="42.50825" lon="2.52858">
        <ele>1704</ele>
        <time>2024-09-19T10:01:14Z</time>
      </trkpt>
      <trkpt lat="42.50822" lon="2.5286">
        <ele>1703</ele>
        <time>2024-09-19T10:01:17Z</time>
      </trkpt>
      <trkpt lat="42.50821" lon="2.52863">
        <ele>1704</ele>
        <time>2024-09-19T10:01:19Z</time>
      </trkpt>
      <trkpt lat="42.50819" lon="2.52867">
        <ele>1705</ele>
        <time>2024-09-19T10:01:24Z</time>
      </trkpt>
      <trkpt lat="42.50816" lon="2.52869">
        <ele>1704</ele>
        <time>2024-09-19T10:01:28Z</time>
      </trkpt>
      <trkpt lat="42.50814" lon="2.52869">
        <ele>1704</ele>
        <time>2024-09-19T10:01:31Z</time>
      </trkpt>
      <trkpt lat="42.50811" lon="2.5287">
        <ele>1704</ele>
        <time>2024-09-19T10:01:33Z</time>
      </trkpt>
      <trkpt lat="42.50808" lon="2.52872">
        <ele>1706</ele>
        <time>2024-09-19T10:01:40Z</time>
      </trkpt>
      <trkpt lat="42.50806" lon="2.52874">
        <ele>1706</ele>
        <time>2024-09-19T10:01:44Z</time>
      </trkpt>
      <trkpt lat="42.50803" lon="2.52876">
        <ele>1707</ele>
        <time>2024-09-19T10:01:46Z</time>
      </trkpt>
      <trkpt lat="42.508" lon="2.52878">
        <ele>1707</ele>
        <time>2024-09-19T10:01:49Z</time>
      </trkpt>
      <trkpt lat="42.50797" lon="2.52879">
        <ele>1707</ele>
        <time>2024-09-19T10:01:53Z</time>
      </trkpt>
      <trkpt lat="42.50794" lon="2.5288">
        <ele>1706</ele>
        <time>2024-09-19T10:01:57Z</time>
      </trkpt>
      <trkpt lat="42.50792" lon="2.52883">
        <ele>1707</ele>
        <time>2024-09-19T10:02:00Z</time>
      </trkpt>
      <trkpt lat="42.50791" lon="2.52886">
        <ele>1708</ele>
        <time>2024-09-19T10:02:04Z</time>
      </trkpt>
      <trkpt lat="42.50789" lon="2.52889">
        <ele>1708</ele>
        <time>2024-09-19T10:02:07Z</time>
      </trkpt>
      <trkpt lat="42.50786" lon="2.52893">
        <ele>1709</ele>
        <time>2024-09-19T10:02:12Z</time>
      </trkpt>
      <trkpt lat="42.50783" lon="2.52894">
        <ele>1709</ele>
        <time>2024-09-19T10:02:15Z</time>
      </trkpt>
      <trkpt lat="42.50781" lon="2.52897">
        <ele>1711</ele>
        <time>2024-09-19T10:02:21Z</time>
      </trkpt>
      <trkpt lat="42.50779" lon="2.529">
        <ele>1711</ele>
        <time>2024-09-19T10:02:23Z</time>
      </trkpt>
      <trkpt lat="42.50776" lon="2.52901">
        <ele>1712</ele>
        <time>2024-09-19T10:02:26Z</time>
      </trkpt>
      <trkpt lat="42.50773" lon="2.52903">
        <ele>1714</ele>
        <time>2024-09-19T10:02:29Z</time>
      </trkpt>
      <trkpt lat="42.50769" lon="2.52904">
        <ele>1712</ele>
        <time>2024-09-19T10:02:32Z</time>
      </trkpt>
      <trkpt lat="42.50767" lon="2.52905">
        <ele>1711</ele>
        <time>2024-09-19T10:02:35Z</time>
      </trkpt>
      <trkpt lat="42.50765" lon="2.52908">
        <ele>1711</ele>
        <time>2024-09-19T10:02:37Z</time>
      </trkpt>
      <trkpt lat="42.50764" lon="2.52912">
        <ele>1711</ele>
        <time>2024-09-19T10:02:41Z</time>
      </trkpt>
      <trkpt lat="42.50762" lon="2.52914">
        <ele>1711</ele>
        <time>2024-09-19T10:02:45Z</time>
      </trkpt>
      <trkpt lat="42.5076" lon="2.52916">
        <ele>1712</ele>
        <time>2024-09-19T10:02:50Z</time>
      </trkpt>
      <trkpt lat="42.50757" lon="2.52918">
        <ele>1711</ele>
        <time>2024-09-19T10:02:56Z</time>
      </trkpt>
      <trkpt lat="42.50754" lon="2.52922">
        <ele>1712</ele>
        <time>2024-09-19T10:03:01Z</time>
      </trkpt>
      <trkpt lat="42.50751" lon="2.52923">
        <ele>1711</ele>
        <time>2024-09-19T10:03:05Z</time>
      </trkpt>
      <trkpt lat="42.50748" lon="2.52926">
        <ele>1711</ele>
        <time>2024-09-19T10:03:08Z</time>
      </trkpt>
      <trkpt lat="42.50746" lon="2.52929">
        <ele>1707</ele>
        <time>2024-09-19T10:03:15Z</time>
      </trkpt>
      <trkpt lat="42.50744" lon="2.52932">
        <ele>1709</ele>
        <time>2024-09-19T10:03:19Z</time>
      </trkpt>
      <trkpt lat="42.50741" lon="2.52934">
        <ele>1709</ele>
        <time>2024-09-19T10:03:23Z</time>
      </trkpt>
      <trkpt lat="42.50739" lon="2.52937">
        <ele>1709</ele>
        <time>2024-09-19T10:03:27Z</time>
      </trkpt>
      <trkpt lat="42.50737" lon="2.52939">
        <ele>1709</ele>
        <time>2024-09-19T10:03:31Z</time>
      </trkpt>
      <trkpt lat="42.50734" lon="2.5294">
        <ele>1710</ele>
        <time>2024-09-19T10:03:35Z</time>
      </trkpt>
      <trkpt lat="42.50731" lon="2.52941">
        <ele>1711</ele>
        <time>2024-09-19T10:03:37Z</time>
      </trkpt>
      <trkpt lat="42.50728" lon="2.52943">
        <ele>1713</ele>
        <time>2024-09-19T10:03:41Z</time>
      </trkpt>
      <trkpt lat="42.50724" lon="2.52944">
        <ele>1713</ele>
        <time>2024-09-19T10:03:43Z</time>
      </trkpt>
      <trkpt lat="42.5072" lon="2.52944">
        <ele>1714</ele>
        <time>2024-09-19T10:03:49Z</time>
      </trkpt>
      <trkpt lat="42.50718" lon="2.52947">
        <ele>1714</ele>
        <time>2024-09-19T10:03:52Z</time>
      </trkpt>
      <trkpt lat="42.50717" lon="2.5295">
        <ele>1715</ele>
        <time>2024-09-19T10:03:59Z</time>
      </trkpt>
      <trkpt lat="42.50715" lon="2.52953">
        <ele>1716</ele>
        <time>2024-09-19T10:04:05Z</time>
      </trkpt>
      <trkpt lat="42.50712" lon="2.52955">
        <ele>1718</ele>
        <time>2024-09-19T10:04:13Z</time>
      </trkpt>
      <trkpt lat="42.50709" lon="2.52956">
        <ele>1717</ele>
        <time>2024-09-19T10:04:17Z</time>
      </trkpt>
      <trkpt lat="42.50706" lon="2.52958">
        <ele>1718</ele>
        <time>2024-09-19T10:04:22Z</time>
      </trkpt>
      <trkpt lat="42.50703" lon="2.5296">
        <ele>1719</ele>
        <time>2024-09-19T10:04:25Z</time>
      </trkpt>
      <trkpt lat="42.50701" lon="2.52962">
        <ele>1720</ele>
        <time>2024-09-19T10:04:28Z</time>
      </trkpt>
      <trkpt lat="42.50698" lon="2.52966">
        <ele>1723</ele>
        <time>2024-09-19T10:04:31Z</time>
      </trkpt>
      <trkpt lat="42.50696" lon="2.5297">
        <ele>1721</ele>
        <time>2024-09-19T10:04:39Z</time>
      </trkpt>
      <trkpt lat="42.50694" lon="2.52974">
        <ele>1720</ele>
        <time>2024-09-19T10:04:43Z</time>
      </trkpt>
      <trkpt lat="42.5069" lon="2.52976">
        <ele>1720</ele>
        <time>2024-09-19T10:04:48Z</time>
      </trkpt>
      <trkpt lat="42.50689" lon="2.5298">
        <ele>1720</ele>
        <time>2024-09-19T10:04:51Z</time>
      </trkpt>
      <trkpt lat="42.50687" lon="2.52982">
        <ele>1719</ele>
        <time>2024-09-19T10:04:56Z</time>
      </trkpt>
      <trkpt lat="42.50685" lon="2.52985">
        <ele>1718</ele>
        <time>2024-09-19T10:05:01Z</time>
      </trkpt>
      <trkpt lat="42.50683" lon="2.52987">
        <ele>1718</ele>
        <time>2024-09-19T10:05:05Z</time>
      </trkpt>
      <trkpt lat="42.50681" lon="2.52991">
        <ele>1718</ele>
        <time>2024-09-19T10:05:08Z</time>
      </trkpt>
      <trkpt lat="42.50678" lon="2.52994">
        <ele>1719</ele>
        <time>2024-09-19T10:05:11Z</time>
      </trkpt>
      <trkpt lat="42.50676" lon="2.52996">
        <ele>1718</ele>
        <time>2024-09-19T10:05:15Z</time>
      </trkpt>
      <trkpt lat="42.50673" lon="2.52998">
        <ele>1719</ele>
        <time>2024-09-19T10:05:16Z</time>
      </trkpt>
      <trkpt lat="42.50671" lon="2.53001">
        <ele>1719</ele>
        <time>2024-09-19T10:05:20Z</time>
      </trkpt>
      <trkpt lat="42.5067" lon="2.53005">
        <ele>1719</ele>
        <time>2024-09-19T10:05:23Z</time>
      </trkpt>
      <trkpt lat="42.50668" lon="2.53007">
        <ele>1720</ele>
        <time>2024-09-19T10:05:28Z</time>
      </trkpt>
      <trkpt lat="42.50666" lon="2.53011">
        <ele>1721</ele>
        <time>2024-09-19T10:05:30Z</time>
      </trkpt>
      <trkpt lat="42.50665" lon="2.53015">
        <ele>1719</ele>
        <time>2024-09-19T10:05:33Z</time>
      </trkpt>
      <trkpt lat="42.50666" lon="2.53018">
        <ele>1720</ele>
        <time>2024-09-19T10:05:35Z</time>
      </trkpt>
      <trkpt lat="42.50665" lon="2.53023">
        <ele>1719</ele>
        <time>2024-09-19T10:05:42Z</time>
      </trkpt>
      <trkpt lat="42.50666" lon="2.53026">
        <ele>1721</ele>
        <time>2024-09-19T10:05:45Z</time>
      </trkpt>
      <trkpt lat="42.50666" lon="2.53031">
        <ele>1720</ele>
        <time>2024-09-19T10:05:50Z</time>
      </trkpt>
      <trkpt lat="42.50664" lon="2.53034">
        <ele>1719</ele>
        <time>2024-09-19T10:05:54Z</time>
      </trkpt>
      <trkpt lat="42.50662" lon="2.53034">
        <ele>1718</ele>
        <time>2024-09-19T10:05:58Z</time>
      </trkpt>
      <trkpt lat="42.50658" lon="2.53035">
        <ele>1719</ele>
        <time>2024-09-19T10:06:03Z</time>
      </trkpt>
      <trkpt lat="42.50655" lon="2.53038">
        <ele>1720</ele>
        <time>2024-09-19T10:06:06Z</time>
      </trkpt>
      <trkpt lat="42.50654" lon="2.53043">
        <ele>1720</ele>
        <time>2024-09-19T10:06:10Z</time>
      </trkpt>
      <trkpt lat="42.50652" lon="2.53048">
        <ele>1721</ele>
        <time>2024-09-19T10:06:13Z</time>
      </trkpt>
      <trkpt lat="42.5065" lon="2.53051">
        <ele>1721</ele>
        <time>2024-09-19T10:06:18Z</time>
      </trkpt>
      <trkpt lat="42.50647" lon="2.53054">
        <ele>1719</ele>
        <time>2024-09-19T10:06:23Z</time>
      </trkpt>
      <trkpt lat="42.50642" lon="2.53058">
        <ele>1721</ele>
        <time>2024-09-19T10:06:28Z</time>
      </trkpt>
      <trkpt lat="42.50639" lon="2.53057">
        <ele>1722</ele>
        <time>2024-09-19T10:06:30Z</time>
      </trkpt>
      <trkpt lat="42.50637" lon="2.53058">
        <ele>1722</ele>
        <time>2024-09-19T10:06:31Z</time>
      </trkpt>
      <trkpt lat="42.50636" lon="2.53061">
        <ele>1722</ele>
        <time>2024-09-19T10:06:32Z</time>
      </trkpt>
      <trkpt lat="42.50639" lon="2.53064">
        <ele>1722</ele>
        <time>2024-09-19T10:06:34Z</time>
      </trkpt>
      <trkpt lat="42.50638" lon="2.53066">
        <ele>1721</ele>
        <time>2024-09-19T10:06:36Z</time>
      </trkpt>
      <trkpt lat="42.50638" lon="2.5307">
        <ele>1722</ele>
        <time>2024-09-19T10:06:41Z</time>
      </trkpt>
      <trkpt lat="42.50637" lon="2.53074">
        <ele>1723</ele>
        <time>2024-09-19T10:06:44Z</time>
      </trkpt>
      <trkpt lat="42.50637" lon="2.53079">
        <ele>1725</ele>
        <time>2024-09-19T10:06:47Z</time>
      </trkpt>
      <trkpt lat="42.50634" lon="2.53082">
        <ele>1725</ele>
        <time>2024-09-19T10:06:54Z</time>
      </trkpt>
      <trkpt lat="42.50633" lon="2.53086">
        <ele>1724</ele>
        <time>2024-09-19T10:06:58Z</time>
      </trkpt>
      <trkpt lat="42.50631" lon="2.53088">
        <ele>1724</ele>
        <time>2024-09-19T10:07:03Z</time>
      </trkpt>
      <trkpt lat="42.50628" lon="2.53091">
        <ele>1724</ele>
        <time>2024-09-19T10:07:07Z</time>
      </trkpt>
      <trkpt lat="42.50628" lon="2.53094">
        <ele>1724</ele>
        <time>2024-09-19T10:07:09Z</time>
      </trkpt>
      <trkpt lat="42.50629" lon="2.53097">
        <ele>1725</ele>
        <time>2024-09-19T10:07:11Z</time>
      </trkpt>
      <trkpt lat="42.50628" lon="2.53101">
        <ele>1726</ele>
        <time>2024-09-19T10:07:15Z</time>
      </trkpt>
      <trkpt lat="42.50626" lon="2.53103">
        <ele>1725</ele>
        <time>2024-09-19T10:07:18Z</time>
      </trkpt>
      <trkpt lat="42.50623" lon="2.53106">
        <ele>1725</ele>
        <time>2024-09-19T10:07:23Z</time>
      </trkpt>
      <trkpt lat="42.50621" lon="2.53107">
        <ele>1724</ele>
        <time>2024-09-19T10:07:27Z</time>
      </trkpt>
      <trkpt lat="42.50617" lon="2.53107">
        <ele>1723</ele>
        <time>2024-09-19T10:07:29Z</time>
      </trkpt>
      <trkpt lat="42.50614" lon="2.53108">
        <ele>1723</ele>
        <time>2024-09-19T10:07:31Z</time>
      </trkpt>
      <trkpt lat="42.50611" lon="2.53111">
        <ele>1724</ele>
        <time>2024-09-19T10:07:33Z</time>
      </trkpt>
      <trkpt lat="42.50612" lon="2.53115">
        <ele>1722</ele>
        <time>2024-09-19T10:07:35Z</time>
      </trkpt>
      <trkpt lat="42.50612" lon="2.53119">
        <ele>1721</ele>
        <time>2024-09-19T10:07:37Z</time>
      </trkpt>
      <trkpt lat="42.50613" lon="2.53125">
        <ele>1721</ele>
        <time>2024-09-19T10:07:41Z</time>
      </trkpt>
      <trkpt lat="42.50613" lon="2.5313">
        <ele>1722</ele>
        <time>2024-09-19T10:07:47Z</time>
      </trkpt>
      <trkpt lat="42.50612" lon="2.53135">
        <ele>1722</ele>
        <time>2024-09-19T10:07:51Z</time>
      </trkpt>
      <trkpt lat="42.50611" lon="2.53139">
        <ele>1722</ele>
        <time>2024-09-19T10:07:54Z</time>
      </trkpt>
      <trkpt lat="42.50611" lon="2.53144">
        <ele>1723</ele>
        <time>2024-09-19T10:07:57Z</time>
      </trkpt>
      <trkpt lat="42.50611" lon="2.53148">
        <ele>1723</ele>
        <time>2024-09-19T10:08:01Z</time>
      </trkpt>
      <trkpt lat="42.50612" lon="2.53152">
        <ele>1723</ele>
        <time>2024-09-19T10:08:05Z</time>
      </trkpt>
      <trkpt lat="42.50613" lon="2.53156">
        <ele>1724</ele>
        <time>2024-09-19T10:08:07Z</time>
      </trkpt>
      <trkpt lat="42.50613" lon="2.5316">
        <ele>1725</ele>
        <time>2024-09-19T10:08:10Z</time>
      </trkpt>
      <trkpt lat="42.50615" lon="2.53163">
        <ele>1726</ele>
        <time>2024-09-19T10:08:12Z</time>
      </trkpt>
      <trkpt lat="42.50617" lon="2.53166">
        <ele>1726</ele>
        <time>2024-09-19T10:08:15Z</time>
      </trkpt>
      <trkpt lat="42.50619" lon="2.53169">
        <ele>1727</ele>
        <time>2024-09-19T10:08:18Z</time>
      </trkpt>
      <trkpt lat="42.5062" lon="2.53173">
        <ele>1726</ele>
        <time>2024-09-19T10:08:22Z</time>
      </trkpt>
      <trkpt lat="42.50622" lon="2.53177">
        <ele>1727</ele>
        <time>2024-09-19T10:08:26Z</time>
      </trkpt>
      <trkpt lat="42.50623" lon="2.5318">
        <ele>1726</ele>
        <time>2024-09-19T10:08:28Z</time>
      </trkpt>
      <trkpt lat="42.50623" lon="2.53184">
        <ele>1725</ele>
        <time>2024-09-19T10:08:32Z</time>
      </trkpt>
      <trkpt lat="42.50623" lon="2.53188">
        <ele>1726</ele>
        <time>2024-09-19T10:08:34Z</time>
      </trkpt>
      <trkpt lat="42.50624" lon="2.53192">
        <ele>1727</ele>
        <time>2024-09-19T10:08:37Z</time>
      </trkpt>
      <trkpt lat="42.50624" lon="2.53196">
        <ele>1726</ele>
        <time>2024-09-19T10:08:40Z</time>
      </trkpt>
      <trkpt lat="42.50624" lon="2.53199">
        <ele>1728</ele>
        <time>2024-09-19T10:08:44Z</time>
      </trkpt>
      <trkpt lat="42.50625" lon="2.53202">
        <ele>1727</ele>
        <time>2024-09-19T10:08:46Z</time>
      </trkpt>
      <trkpt lat="42.50626" lon="2.53206">
        <ele>1727</ele>
        <time>2024-09-19T10:08:49Z</time>
      </trkpt>
      <trkpt lat="42.50628" lon="2.53209">
        <ele>1727</ele>
        <time>2024-09-19T10:08:51Z</time>
      </trkpt>
      <trkpt lat="42.5063" lon="2.53211">
        <ele>1728</ele>
        <time>2024-09-19T10:08:54Z</time>
      </trkpt>
      <trkpt lat="42.50632" lon="2.53214">
        <ele>1728</ele>
        <time>2024-09-19T10:08:57Z</time>
      </trkpt>
      <trkpt lat="42.50635" lon="2.53218">
        <ele>1729</ele>
        <time>2024-09-19T10:08:59Z</time>
      </trkpt>
      <trkpt lat="42.50636" lon="2.53221">
        <ele>1729</ele>
        <time>2024-09-19T10:09:03Z</time>
      </trkpt>
      <trkpt lat="42.50638" lon="2.53224">
        <ele>1728</ele>
        <time>2024-09-19T10:09:06Z</time>
      </trkpt>
      <trkpt lat="42.5064" lon="2.53227">
        <ele>1728</ele>
        <time>2024-09-19T10:09:09Z</time>
      </trkpt>
      <trkpt lat="42.50641" lon="2.53231">
        <ele>1728</ele>
        <time>2024-09-19T10:09:12Z</time>
      </trkpt>
      <trkpt lat="42.50642" lon="2.53235">
        <ele>1727</ele>
        <time>2024-09-19T10:09:14Z</time>
      </trkpt>
      <trkpt lat="42.50645" lon="2.53238">
        <ele>1726</ele>
        <time>2024-09-19T10:09:17Z</time>
      </trkpt>
      <trkpt lat="42.50646" lon="2.53242">
        <ele>1727</ele>
        <time>2024-09-19T10:09:20Z</time>
      </trkpt>
      <trkpt lat="42.50648" lon="2.53246">
        <ele>1727</ele>
        <time>2024-09-19T10:09:24Z</time>
      </trkpt>
      <trkpt lat="42.5065" lon="2.53248">
        <ele>1727</ele>
        <time>2024-09-19T10:09:25Z</time>
      </trkpt>
      <trkpt lat="42.5065" lon="2.53251">
        <ele>1728</ele>
        <time>2024-09-19T10:09:28Z</time>
      </trkpt>
      <trkpt lat="42.50652" lon="2.53254">
        <ele>1728</ele>
        <time>2024-09-19T10:09:30Z</time>
      </trkpt>
      <trkpt lat="42.50654" lon="2.53258">
        <ele>1727</ele>
        <time>2024-09-19T10:09:33Z</time>
      </trkpt>
      <trkpt lat="42.50657" lon="2.53261">
        <ele>1728</ele>
        <time>2024-09-19T10:09:36Z</time>
      </trkpt>
      <trkpt lat="42.5066" lon="2.53265">
        <ele>1729</ele>
        <time>2024-09-19T10:09:40Z</time>
      </trkpt>
      <trkpt lat="42.50663" lon="2.53268">
        <ele>1729</ele>
        <time>2024-09-19T10:09:44Z</time>
      </trkpt>
      <trkpt lat="42.50665" lon="2.5327">
        <ele>1728</ele>
        <time>2024-09-19T10:09:47Z</time>
      </trkpt>
      <trkpt lat="42.50668" lon="2.53273">
        <ele>1729</ele>
        <time>2024-09-19T10:09:50Z</time>
      </trkpt>
      <trkpt lat="42.50671" lon="2.53275">
        <ele>1728</ele>
        <time>2024-09-19T10:09:53Z</time>
      </trkpt>
      <trkpt lat="42.50675" lon="2.53277">
        <ele>1728</ele>
        <time>2024-09-19T10:09:55Z</time>
      </trkpt>
      <trkpt lat="42.50678" lon="2.53278">
        <ele>1729</ele>
        <time>2024-09-19T10:09:58Z</time>
      </trkpt>
      <trkpt lat="42.50682" lon="2.53281">
        <ele>1727</ele>
        <time>2024-09-19T10:10:03Z</time>
      </trkpt>
      <trkpt lat="42.50686" lon="2.53283">
        <ele>1729</ele>
        <time>2024-09-19T10:10:05Z</time>
      </trkpt>
      <trkpt lat="42.50689" lon="2.53285">
        <ele>1728</ele>
        <time>2024-09-19T10:10:08Z</time>
      </trkpt>
      <trkpt lat="42.50691" lon="2.53288">
        <ele>1728</ele>
        <time>2024-09-19T10:10:10Z</time>
      </trkpt>
      <trkpt lat="42.50694" lon="2.53291">
        <ele>1728</ele>
        <time>2024-09-19T10:10:13Z</time>
      </trkpt>
      <trkpt lat="42.50696" lon="2.53294">
        <ele>1727</ele>
        <time>2024-09-19T10:10:17Z</time>
      </trkpt>
      <trkpt lat="42.50699" lon="2.53297">
        <ele>1729</ele>
        <time>2024-09-19T10:10:21Z</time>
      </trkpt>
      <trkpt lat="42.50701" lon="2.53299">
        <ele>1728</ele>
        <time>2024-09-19T10:10:24Z</time>
      </trkpt>
      <trkpt lat="42.50703" lon="2.53303">
        <ele>1727</ele>
        <time>2024-09-19T10:10:27Z</time>
      </trkpt>
      <trkpt lat="42.50705" lon="2.53307">
        <ele>1727</ele>
        <time>2024-09-19T10:10:30Z</time>
      </trkpt>
      <trkpt lat="42.50707" lon="2.5331">
        <ele>1727</ele>
        <time>2024-09-19T10:10:35Z</time>
      </trkpt>
      <trkpt lat="42.50709" lon="2.53314">
        <ele>1726</ele>
        <time>2024-09-19T10:10:37Z</time>
      </trkpt>
      <trkpt lat="42.50711" lon="2.53317">
        <ele>1727</ele>
        <time>2024-09-19T10:10:40Z</time>
      </trkpt>
      <trkpt lat="42.50711" lon="2.53322">
        <ele>1727</ele>
        <time>2024-09-19T10:10:43Z</time>
      </trkpt>
      <trkpt lat="42.50711" lon="2.53326">
        <ele>1728</ele>
        <time>2024-09-19T10:10:45Z</time>
      </trkpt>
      <trkpt lat="42.5071" lon="2.5333">
        <ele>1729</ele>
        <time>2024-09-19T10:10:47Z</time>
      </trkpt>
      <trkpt lat="42.50711" lon="2.53334">
        <ele>1729</ele>
        <time>2024-09-19T10:10:49Z</time>
      </trkpt>
      <trkpt lat="42.50713" lon="2.53338">
        <ele>1727</ele>
        <time>2024-09-19T10:10:52Z</time>
      </trkpt>
      <trkpt lat="42.50716" lon="2.53342">
        <ele>1728</ele>
        <time>2024-09-19T10:10:57Z</time>
      </trkpt>
      <trkpt lat="42.50716" lon="2.53347">
        <ele>1728</ele>
        <time>2024-09-19T10:10:59Z</time>
      </trkpt>
      <trkpt lat="42.50715" lon="2.53351">
        <ele>1729</ele>
        <time>2024-09-19T10:11:03Z</time>
      </trkpt>
      <trkpt lat="42.50714" lon="2.53356">
        <ele>1729</ele>
        <time>2024-09-19T10:11:07Z</time>
      </trkpt>
      <trkpt lat="42.50714" lon="2.5336">
        <ele>1727</ele>
        <time>2024-09-19T10:11:11Z</time>
      </trkpt>
      <trkpt lat="42.50716" lon="2.53365">
        <ele>1727</ele>
        <time>2024-09-19T10:11:14Z</time>
      </trkpt>
      <trkpt lat="42.50718" lon="2.53368">
        <ele>1728</ele>
        <time>2024-09-19T10:11:17Z</time>
      </trkpt>
      <trkpt lat="42.5072" lon="2.53371">
        <ele>1728</ele>
        <time>2024-09-19T10:11:19Z</time>
      </trkpt>
      <trkpt lat="42.50721" lon="2.53376">
        <ele>1729</ele>
        <time>2024-09-19T10:11:22Z</time>
      </trkpt>
      <trkpt lat="42.50721" lon="2.5338">
        <ele>1728</ele>
        <time>2024-09-19T10:11:24Z</time>
      </trkpt>
      <trkpt lat="42.50723" lon="2.53384">
        <ele>1729</ele>
        <time>2024-09-19T10:11:26Z</time>
      </trkpt>
      <trkpt lat="42.50724" lon="2.53387">
        <ele>1729</ele>
        <time>2024-09-19T10:11:29Z</time>
      </trkpt>
      <trkpt lat="42.50724" lon="2.53392">
        <ele>1728</ele>
        <time>2024-09-19T10:11:32Z</time>
      </trkpt>
      <trkpt lat="42.50726" lon="2.53395">
        <ele>1728</ele>
        <time>2024-09-19T10:11:35Z</time>
      </trkpt>
      <trkpt lat="42.50727" lon="2.53399">
        <ele>1728</ele>
        <time>2024-09-19T10:11:37Z</time>
      </trkpt>
      <trkpt lat="42.50728" lon="2.53403">
        <ele>1728</ele>
        <time>2024-09-19T10:11:40Z</time>
      </trkpt>
      <trkpt lat="42.5073" lon="2.53407">
        <ele>1729</ele>
        <time>2024-09-19T10:11:44Z</time>
      </trkpt>
      <trkpt lat="42.50731" lon="2.53412">
        <ele>1729</ele>
        <time>2024-09-19T10:11:47Z</time>
      </trkpt>
      <trkpt lat="42.50731" lon="2.53416">
        <ele>1729</ele>
        <time>2024-09-19T10:11:49Z</time>
      </trkpt>
      <trkpt lat="42.50732" lon="2.5342">
        <ele>1729</ele>
        <time>2024-09-19T10:11:51Z</time>
      </trkpt>
      <trkpt lat="42.50732" lon="2.53424">
        <ele>1729</ele>
        <time>2024-09-19T10:11:56Z</time>
      </trkpt>
      <trkpt lat="42.50733" lon="2.53429">
        <ele>1731</ele>
        <time>2024-09-19T10:11:59Z</time>
      </trkpt>
      <trkpt lat="42.50735" lon="2.53432">
        <ele>1732</ele>
        <time>2024-09-19T10:12:02Z</time>
      </trkpt>
      <trkpt lat="42.50738" lon="2.53435">
        <ele>1730</ele>
        <time>2024-09-19T10:12:06Z</time>
      </trkpt>
      <trkpt lat="42.5074" lon="2.53438">
        <ele>1730</ele>
        <time>2024-09-19T10:12:08Z</time>
      </trkpt>
      <trkpt lat="42.50741" lon="2.53441">
        <ele>1730</ele>
        <time>2024-09-19T10:12:12Z</time>
      </trkpt>
      <trkpt lat="42.50742" lon="2.53446">
        <ele>1731</ele>
        <time>2024-09-19T10:12:15Z</time>
      </trkpt>
      <trkpt lat="42.50744" lon="2.5345">
        <ele>1731</ele>
        <time>2024-09-19T10:12:18Z</time>
      </trkpt>
      <trkpt lat="42.50745" lon="2.53455">
        <ele>1731</ele>
        <time>2024-09-19T10:12:22Z</time>
      </trkpt>
      <trkpt lat="42.50747" lon="2.5346">
        <ele>1732</ele>
        <time>2024-09-19T10:12:26Z</time>
      </trkpt>
      <trkpt lat="42.50748" lon="2.53464">
        <ele>1732</ele>
        <time>2024-09-19T10:12:28Z</time>
      </trkpt>
      <trkpt lat="42.50749" lon="2.53468">
        <ele>1732</ele>
        <time>2024-09-19T10:12:31Z</time>
      </trkpt>
      <trkpt lat="42.50751" lon="2.53472">
        <ele>1731</ele>
        <time>2024-09-19T10:12:35Z</time>
      </trkpt>
      <trkpt lat="42.50752" lon="2.53475">
        <ele>1732</ele>
        <time>2024-09-19T10:12:38Z</time>
      </trkpt>
      <trkpt lat="42.50754" lon="2.53478">
        <ele>1731</ele>
        <time>2024-09-19T10:12:41Z</time>
      </trkpt>
      <trkpt lat="42.50755" lon="2.53482">
        <ele>1731</ele>
        <time>2024-09-19T10:12:43Z</time>
      </trkpt>
      <trkpt lat="42.50757" lon="2.53485">
        <ele>1733</ele>
        <time>2024-09-19T10:12:45Z</time>
      </trkpt>
      <trkpt lat="42.50759" lon="2.53488">
        <ele>1732</ele>
        <time>2024-09-19T10:12:48Z</time>
      </trkpt>
      <trkpt lat="42.50761" lon="2.53491">
        <ele>1732</ele>
        <time>2024-09-19T10:12:51Z</time>
      </trkpt>
      <trkpt lat="42.50762" lon="2.53495">
        <ele>1732</ele>
        <time>2024-09-19T10:12:52Z</time>
      </trkpt>
      <trkpt lat="42.50764" lon="2.53498">
        <ele>1734</ele>
        <time>2024-09-19T10:12:55Z</time>
      </trkpt>
      <trkpt lat="42.50765" lon="2.53502">
        <ele>1733</ele>
        <time>2024-09-19T10:12:58Z</time>
      </trkpt>
      <trkpt lat="42.50765" lon="2.53506">
        <ele>1734</ele>
        <time>2024-09-19T10:13:00Z</time>
      </trkpt>
      <trkpt lat="42.50765" lon="2.5351">
        <ele>1734</ele>
        <time>2024-09-19T10:13:03Z</time>
      </trkpt>
      <trkpt lat="42.50765" lon="2.53514">
        <ele>1733</ele>
        <time>2024-09-19T10:13:05Z</time>
      </trkpt>
      <trkpt lat="42.50766" lon="2.53518">
        <ele>1734</ele>
        <time>2024-09-19T10:13:07Z</time>
      </trkpt>
      <trkpt lat="42.50766" lon="2.53522">
        <ele>1734</ele>
        <time>2024-09-19T10:13:10Z</time>
      </trkpt>
      <trkpt lat="42.50768" lon="2.53526">
        <ele>1733</ele>
        <time>2024-09-19T10:13:13Z</time>
      </trkpt>
      <trkpt lat="42.50769" lon="2.53529">
        <ele>1734</ele>
        <time>2024-09-19T10:13:16Z</time>
      </trkpt>
      <trkpt lat="42.50771" lon="2.53533">
        <ele>1734</ele>
        <time>2024-09-19T10:13:18Z</time>
      </trkpt>
      <trkpt lat="42.50772" lon="2.53538">
        <ele>1734</ele>
        <time>2024-09-19T10:13:21Z</time>
      </trkpt>
      <trkpt lat="42.50773" lon="2.53542">
        <ele>1736</ele>
        <time>2024-09-19T10:13:24Z</time>
      </trkpt>
      <trkpt lat="42.50774" lon="2.53547">
        <ele>1735</ele>
        <time>2024-09-19T10:13:26Z</time>
      </trkpt>
      <trkpt lat="42.50774" lon="2.53552">
        <ele>1735</ele>
        <time>2024-09-19T10:13:30Z</time>
      </trkpt>
      <trkpt lat="42.50775" lon="2.53557">
        <ele>1734</ele>
        <time>2024-09-19T10:13:32Z</time>
      </trkpt>
      <trkpt lat="42.50777" lon="2.53562">
        <ele>1734</ele>
        <time>2024-09-19T10:13:36Z</time>
      </trkpt>
      <trkpt lat="42.50777" lon="2.53566">
        <ele>1734</ele>
        <time>2024-09-19T10:13:39Z</time>
      </trkpt>
      <trkpt lat="42.50777" lon="2.53571">
        <ele>1735</ele>
        <time>2024-09-19T10:13:41Z</time>
      </trkpt>
      <trkpt lat="42.50777" lon="2.53575">
        <ele>1733</ele>
        <time>2024-09-19T10:13:46Z</time>
      </trkpt>
      <trkpt lat="42.50779" lon="2.53579">
        <ele>1734</ele>
        <time>2024-09-19T10:13:48Z</time>
      </trkpt>
      <trkpt lat="42.50779" lon="2.53584">
        <ele>1732</ele>
        <time>2024-09-19T10:13:51Z</time>
      </trkpt>
      <trkpt lat="42.50778" lon="2.53589">
        <ele>1732</ele>
        <time>2024-09-19T10:13:54Z</time>
      </trkpt>
      <trkpt lat="42.50777" lon="2.53593">
        <ele>1732</ele>
        <time>2024-09-19T10:13:56Z</time>
      </trkpt>
      <trkpt lat="42.50775" lon="2.53598">
        <ele>1732</ele>
        <time>2024-09-19T10:14:01Z</time>
      </trkpt>
      <trkpt lat="42.50775" lon="2.53602">
        <ele>1732</ele>
        <time>2024-09-19T10:14:03Z</time>
      </trkpt>
      <trkpt lat="42.50776" lon="2.53606">
        <ele>1733</ele>
        <time>2024-09-19T10:14:08Z</time>
      </trkpt>
      <trkpt lat="42.50775" lon="2.53612">
        <ele>1734</ele>
        <time>2024-09-19T10:14:12Z</time>
      </trkpt>
      <trkpt lat="42.50774" lon="2.53618">
        <ele>1733</ele>
        <time>2024-09-19T10:14:17Z</time>
      </trkpt>
      <trkpt lat="42.50772" lon="2.53623">
        <ele>1734</ele>
        <time>2024-09-19T10:14:19Z</time>
      </trkpt>
      <trkpt lat="42.50772" lon="2.53627">
        <ele>1734</ele>
        <time>2024-09-19T10:14:23Z</time>
      </trkpt>
      <trkpt lat="42.5077" lon="2.5363">
        <ele>1736</ele>
        <time>2024-09-19T10:14:27Z</time>
      </trkpt>
      <trkpt lat="42.50769" lon="2.53634">
        <ele>1734</ele>
        <time>2024-09-19T10:14:28Z</time>
      </trkpt>
      <trkpt lat="42.50767" lon="2.53638">
        <ele>1736</ele>
        <time>2024-09-19T10:14:33Z</time>
      </trkpt>
      <trkpt lat="42.50766" lon="2.53642">
        <ele>1735</ele>
        <time>2024-09-19T10:14:37Z</time>
      </trkpt>
      <trkpt lat="42.50766" lon="2.53647">
        <ele>1733</ele>
        <time>2024-09-19T10:14:39Z</time>
      </trkpt>
      <trkpt lat="42.50765" lon="2.53651">
        <ele>1735</ele>
        <time>2024-09-19T10:14:40Z</time>
      </trkpt>
      <trkpt lat="42.50762" lon="2.53654">
        <ele>1735</ele>
        <time>2024-09-19T10:14:43Z</time>
      </trkpt>
      <trkpt lat="42.5076" lon="2.53658">
        <ele>1735</ele>
        <time>2024-09-19T10:14:45Z</time>
      </trkpt>
      <trkpt lat="42.50757" lon="2.53662">
        <ele>1736</ele>
        <time>2024-09-19T10:14:49Z</time>
      </trkpt>
      <trkpt lat="42.50758" lon="2.53665">
        <ele>1736</ele>
        <time>2024-09-19T10:14:50Z</time>
      </trkpt>
      <trkpt lat="42.50758" lon="2.53668">
        <ele>1736</ele>
        <time>2024-09-19T10:14:53Z</time>
      </trkpt>
      <trkpt lat="42.50758" lon="2.53672">
        <ele>1735</ele>
        <time>2024-09-19T10:14:56Z</time>
      </trkpt>
      <trkpt lat="42.50758" lon="2.53677">
        <ele>1735</ele>
        <time>2024-09-19T10:14:59Z</time>
      </trkpt>
      <trkpt lat="42.50758" lon="2.53681">
        <ele>1733</ele>
        <time>2024-09-19T10:15:01Z</time>
      </trkpt>
      <trkpt lat="42.50757" lon="2.53685">
        <ele>1734</ele>
        <time>2024-09-19T10:15:02Z</time>
      </trkpt>
      <trkpt lat="42.50756" lon="2.53689">
        <ele>1733</ele>
        <time>2024-09-19T10:15:05Z</time>
      </trkpt>
      <trkpt lat="42.50754" lon="2.53692">
        <ele>1735</ele>
        <time>2024-09-19T10:15:09Z</time>
      </trkpt>
      <trkpt lat="42.50752" lon="2.53695">
        <ele>1734</ele>
        <time>2024-09-19T10:15:11Z</time>
      </trkpt>
      <trkpt lat="42.50752" lon="2.53699">
        <ele>1734</ele>
        <time>2024-09-19T10:15:16Z</time>
      </trkpt>
      <trkpt lat="42.5075" lon="2.53702">
        <ele>1734</ele>
        <time>2024-09-19T10:15:17Z</time>
      </trkpt>
      <trkpt lat="42.50749" lon="2.53706">
        <ele>1734</ele>
        <time>2024-09-19T10:15:20Z</time>
      </trkpt>
      <trkpt lat="42.50748" lon="2.5371">
        <ele>1733</ele>
        <time>2024-09-19T10:15:23Z</time>
      </trkpt>
      <trkpt lat="42.50747" lon="2.53715">
        <ele>1734</ele>
        <time>2024-09-19T10:15:25Z</time>
      </trkpt>
      <trkpt lat="42.50745" lon="2.5372">
        <ele>1734</ele>
        <time>2024-09-19T10:15:30Z</time>
      </trkpt>
      <trkpt lat="42.50743" lon="2.53724">
        <ele>1733</ele>
        <time>2024-09-19T10:15:33Z</time>
      </trkpt>
      <trkpt lat="42.50741" lon="2.53728">
        <ele>1735</ele>
        <time>2024-09-19T10:15:36Z</time>
      </trkpt>
      <trkpt lat="42.50739" lon="2.53731">
        <ele>1734</ele>
        <time>2024-09-19T10:15:39Z</time>
      </trkpt>
      <trkpt lat="42.50738" lon="2.53734">
        <ele>1733</ele>
        <time>2024-09-19T10:15:42Z</time>
      </trkpt>
      <trkpt lat="42.50736" lon="2.53738">
        <ele>1732</ele>
        <time>2024-09-19T10:15:46Z</time>
      </trkpt>
      <trkpt lat="42.50734" lon="2.53743">
        <ele>1733</ele>
        <time>2024-09-19T10:15:49Z</time>
      </trkpt>
      <trkpt lat="42.50732" lon="2.53748">
        <ele>1734</ele>
        <time>2024-09-19T10:15:51Z</time>
      </trkpt>
      <trkpt lat="42.50731" lon="2.53751">
        <ele>1734</ele>
        <time>2024-09-19T10:15:53Z</time>
      </trkpt>
      <trkpt lat="42.50728" lon="2.53754">
        <ele>1733</ele>
        <time>2024-09-19T10:15:57Z</time>
      </trkpt>
      <trkpt lat="42.50727" lon="2.53758">
        <ele>1733</ele>
        <time>2024-09-19T10:16:00Z</time>
      </trkpt>
      <trkpt lat="42.50726" lon="2.53762">
        <ele>1733</ele>
        <time>2024-09-19T10:16:02Z</time>
      </trkpt>
      <trkpt lat="42.50725" lon="2.53767">
        <ele>1734</ele>
        <time>2024-09-19T10:16:06Z</time>
      </trkpt>
      <trkpt lat="42.50723" lon="2.53772">
        <ele>1734</ele>
        <time>2024-09-19T10:16:10Z</time>
      </trkpt>
      <trkpt lat="42.50723" lon="2.53776">
        <ele>1735</ele>
        <time>2024-09-19T10:16:12Z</time>
      </trkpt>
      <trkpt lat="42.50721" lon="2.53781">
        <ele>1735</ele>
        <time>2024-09-19T10:16:16Z</time>
      </trkpt>
      <trkpt lat="42.50721" lon="2.53787">
        <ele>1735</ele>
        <time>2024-09-19T10:16:19Z</time>
      </trkpt>
      <trkpt lat="42.5072" lon="2.53792">
        <ele>1735</ele>
        <time>2024-09-19T10:16:22Z</time>
      </trkpt>
      <trkpt lat="42.50718" lon="2.53796">
        <ele>1735</ele>
        <time>2024-09-19T10:16:26Z</time>
      </trkpt>
      <trkpt lat="42.50717" lon="2.53801">
        <ele>1735</ele>
        <time>2024-09-19T10:16:29Z</time>
      </trkpt>
      <trkpt lat="42.50715" lon="2.53806">
        <ele>1736</ele>
        <time>2024-09-19T10:16:33Z</time>
      </trkpt>
      <trkpt lat="42.50714" lon="2.5381">
        <ele>1735</ele>
        <time>2024-09-19T10:16:36Z</time>
      </trkpt>
      <trkpt lat="42.50713" lon="2.53814">
        <ele>1735</ele>
        <time>2024-09-19T10:16:39Z</time>
      </trkpt>
      <trkpt lat="42.50712" lon="2.53819">
        <ele>1735</ele>
        <time>2024-09-19T10:16:42Z</time>
      </trkpt>
      <trkpt lat="42.5071" lon="2.53822">
        <ele>1736</ele>
        <time>2024-09-19T10:16:44Z</time>
      </trkpt>
      <trkpt lat="42.50709" lon="2.53826">
        <ele>1735</ele>
        <time>2024-09-19T10:16:46Z</time>
      </trkpt>
      <trkpt lat="42.50708" lon="2.5383">
        <ele>1734</ele>
        <time>2024-09-19T10:16:50Z</time>
      </trkpt>
      <trkpt lat="42.50706" lon="2.53834">
        <ele>1735</ele>
        <time>2024-09-19T10:16:53Z</time>
      </trkpt>
      <trkpt lat="42.50705" lon="2.53838">
        <ele>1734</ele>
        <time>2024-09-19T10:16:55Z</time>
      </trkpt>
      <trkpt lat="42.50703" lon="2.53842">
        <ele>1736</ele>
        <time>2024-09-19T10:16:57Z</time>
      </trkpt>
      <trkpt lat="42.50702" lon="2.53846">
        <ele>1736</ele>
        <time>2024-09-19T10:17:00Z</time>
      </trkpt>
      <trkpt lat="42.507" lon="2.53849">
        <ele>1737</ele>
        <time>2024-09-19T10:17:03Z</time>
      </trkpt>
      <trkpt lat="42.50699" lon="2.53853">
        <ele>1737</ele>
        <time>2024-09-19T10:17:06Z</time>
      </trkpt>
      <trkpt lat="42.50697" lon="2.53856">
        <ele>1737</ele>
        <time>2024-09-19T10:17:09Z</time>
      </trkpt>
      <trkpt lat="42.50695" lon="2.53859">
        <ele>1737</ele>
        <time>2024-09-19T10:17:11Z</time>
      </trkpt>
      <trkpt lat="42.50693" lon="2.53863">
        <ele>1737</ele>
        <time>2024-09-19T10:17:14Z</time>
      </trkpt>
      <trkpt lat="42.50692" lon="2.53868">
        <ele>1737</ele>
        <time>2024-09-19T10:17:17Z</time>
      </trkpt>
      <trkpt lat="42.50691" lon="2.53872">
        <ele>1735</ele>
        <time>2024-09-19T10:17:20Z</time>
      </trkpt>
      <trkpt lat="42.50689" lon="2.53877">
        <ele>1737</ele>
        <time>2024-09-19T10:17:23Z</time>
      </trkpt>
      <trkpt lat="42.50687" lon="2.5388">
        <ele>1737</ele>
        <time>2024-09-19T10:17:25Z</time>
      </trkpt>
      <trkpt lat="42.50685" lon="2.53884">
        <ele>1737</ele>
        <time>2024-09-19T10:17:28Z</time>
      </trkpt>
      <trkpt lat="42.50682" lon="2.53888">
        <ele>1737</ele>
        <time>2024-09-19T10:17:32Z</time>
      </trkpt>
      <trkpt lat="42.5068" lon="2.53891">
        <ele>1738</ele>
        <time>2024-09-19T10:17:34Z</time>
      </trkpt>
      <trkpt lat="42.50677" lon="2.53895">
        <ele>1737</ele>
        <time>2024-09-19T10:17:38Z</time>
      </trkpt>
      <trkpt lat="42.50675" lon="2.539">
        <ele>1736</ele>
        <time>2024-09-19T10:17:40Z</time>
      </trkpt>
      <trkpt lat="42.50675" lon="2.53904">
        <ele>1735</ele>
        <time>2024-09-19T10:17:42Z</time>
      </trkpt>
      <trkpt lat="42.50673" lon="2.53908">
        <ele>1735</ele>
        <time>2024-09-19T10:17:45Z</time>
      </trkpt>
      <trkpt lat="42.50672" lon="2.53912">
        <ele>1736</ele>
        <time>2024-09-19T10:17:49Z</time>
      </trkpt>
      <trkpt lat="42.50671" lon="2.53917">
        <ele>1736</ele>
        <time>2024-09-19T10:17:52Z</time>
      </trkpt>
      <trkpt lat="42.50669" lon="2.53922">
        <ele>1735</ele>
        <time>2024-09-19T10:17:57Z</time>
      </trkpt>
      <trkpt lat="42.50668" lon="2.53926">
        <ele>1736</ele>
        <time>2024-09-19T10:18:00Z</time>
      </trkpt>
      <trkpt lat="42.50667" lon="2.53929">
        <ele>1736</ele>
        <time>2024-09-19T10:18:02Z</time>
      </trkpt>
      <trkpt lat="42.50666" lon="2.53933">
        <ele>1736</ele>
        <time>2024-09-19T10:18:05Z</time>
      </trkpt>
      <trkpt lat="42.50664" lon="2.53937">
        <ele>1737</ele>
        <time>2024-09-19T10:18:08Z</time>
      </trkpt>
      <trkpt lat="42.50663" lon="2.53942">
        <ele>1738</ele>
        <time>2024-09-19T10:18:11Z</time>
      </trkpt>
      <trkpt lat="42.50662" lon="2.53946">
        <ele>1737</ele>
        <time>2024-09-19T10:18:14Z</time>
      </trkpt>
      <trkpt lat="42.5066" lon="2.53949">
        <ele>1736</ele>
        <time>2024-09-19T10:18:55Z</time>
      </trkpt>
      <trkpt lat="42.50658" lon="2.53951">
        <ele>1736</ele>
        <time>2024-09-19T10:18:58Z</time>
      </trkpt>
      <trkpt lat="42.50656" lon="2.53954">
        <ele>1735</ele>
        <time>2024-09-19T10:19:01Z</time>
      </trkpt>
      <trkpt lat="42.50655" lon="2.53957">
        <ele>1736</ele>
        <time>2024-09-19T10:19:16Z</time>
      </trkpt>
      <trkpt lat="42.50655" lon="2.53961">
        <ele>1735</ele>
        <time>2024-09-19T10:19:19Z</time>
      </trkpt>
      <trkpt lat="42.50655" lon="2.53965">
        <ele>1735</ele>
        <time>2024-09-19T10:19:21Z</time>
      </trkpt>
      <trkpt lat="42.50653" lon="2.53969">
        <ele>1734</ele>
        <time>2024-09-19T10:19:24Z</time>
      </trkpt>
      <trkpt lat="42.50652" lon="2.53973">
        <ele>1735</ele>
        <time>2024-09-19T10:19:26Z</time>
      </trkpt>
      <trkpt lat="42.5065" lon="2.53977">
        <ele>1736</ele>
        <time>2024-09-19T10:19:29Z</time>
      </trkpt>
      <trkpt lat="42.50649" lon="2.53981">
        <ele>1735</ele>
        <time>2024-09-19T10:19:34Z</time>
      </trkpt>
      <trkpt lat="42.50648" lon="2.53985">
        <ele>1734</ele>
        <time>2024-09-19T10:19:36Z</time>
      </trkpt>
      <trkpt lat="42.50646" lon="2.53989">
        <ele>1734</ele>
        <time>2024-09-19T10:19:39Z</time>
      </trkpt>
      <trkpt lat="42.50645" lon="2.53993">
        <ele>1734</ele>
        <time>2024-09-19T10:19:42Z</time>
      </trkpt>
      <trkpt lat="42.50644" lon="2.53996">
        <ele>1734</ele>
        <time>2024-09-19T10:19:45Z</time>
      </trkpt>
      <trkpt lat="42.50642" lon="2.53999">
        <ele>1734</ele>
        <time>2024-09-19T10:19:48Z</time>
      </trkpt>
      <trkpt lat="42.50639" lon="2.54002">
        <ele>1733</ele>
        <time>2024-09-19T10:19:52Z</time>
      </trkpt>
      <trkpt lat="42.50637" lon="2.54006">
        <ele>1731</ele>
        <time>2024-09-19T10:19:57Z</time>
      </trkpt>
      <trkpt lat="42.50635" lon="2.5401">
        <ele>1730</ele>
        <time>2024-09-19T10:20:01Z</time>
      </trkpt>
      <trkpt lat="42.50633" lon="2.54013">
        <ele>1729</ele>
        <time>2024-09-19T10:20:05Z</time>
      </trkpt>
      <trkpt lat="42.5063" lon="2.54015">
        <ele>1728</ele>
        <time>2024-09-19T10:20:11Z</time>
      </trkpt>
      <trkpt lat="42.50628" lon="2.54016">
        <ele>1727</ele>
        <time>2024-09-19T10:20:16Z</time>
      </trkpt>
      <trkpt lat="42.50625" lon="2.54018">
        <ele>1726</ele>
        <time>2024-09-19T10:20:19Z</time>
      </trkpt>
      <trkpt lat="42.50621" lon="2.54018">
        <ele>1724</ele>
        <time>2024-09-19T10:20:25Z</time>
      </trkpt>
      <trkpt lat="42.50619" lon="2.54021">
        <ele>1723</ele>
        <time>2024-09-19T10:20:28Z</time>
      </trkpt>
      <trkpt lat="42.50616" lon="2.54024">
        <ele>1722</ele>
        <time>2024-09-19T10:20:31Z</time>
      </trkpt>
      <trkpt lat="42.50613" lon="2.54026">
        <ele>1720</ele>
        <time>2024-09-19T10:20:36Z</time>
      </trkpt>
      <trkpt lat="42.50611" lon="2.54028">
        <ele>1718</ele>
        <time>2024-09-19T10:20:41Z</time>
      </trkpt>
      <trkpt lat="42.50608" lon="2.5403">
        <ele>1718</ele>
        <time>2024-09-19T10:20:45Z</time>
      </trkpt>
      <trkpt lat="42.50605" lon="2.54031">
        <ele>1716</ele>
        <time>2024-09-19T10:20:49Z</time>
      </trkpt>
      <trkpt lat="42.50602" lon="2.54033">
        <ele>1716</ele>
        <time>2024-09-19T10:20:52Z</time>
      </trkpt>
      <trkpt lat="42.506" lon="2.54035">
        <ele>1714</ele>
        <time>2024-09-19T10:20:55Z</time>
      </trkpt>
      <trkpt lat="42.50598" lon="2.54039">
        <ele>1714</ele>
        <time>2024-09-19T10:20:58Z</time>
      </trkpt>
      <trkpt lat="42.50596" lon="2.54041">
        <ele>1712</ele>
        <time>2024-09-19T10:21:03Z</time>
      </trkpt>
      <trkpt lat="42.50593" lon="2.54043">
        <ele>1711</ele>
        <time>2024-09-19T10:21:06Z</time>
      </trkpt>
      <trkpt lat="42.50591" lon="2.54045">
        <ele>1714</ele>
        <time>2024-09-19T10:21:20Z</time>
      </trkpt>
      <trkpt lat="42.50588" lon="2.54047">
        <ele>1711</ele>
        <time>2024-09-19T10:21:25Z</time>
      </trkpt>
      <trkpt lat="42.50586" lon="2.54048">
        <ele>1710</ele>
        <time>2024-09-19T10:21:28Z</time>
      </trkpt>
      <trkpt lat="42.50583" lon="2.5405">
        <ele>1709</ele>
        <time>2024-09-19T10:21:31Z</time>
      </trkpt>
      <trkpt lat="42.50581" lon="2.54054">
        <ele>1709</ele>
        <time>2024-09-19T10:21:35Z</time>
      </trkpt>
      <trkpt lat="42.50579" lon="2.54057">
        <ele>1709</ele>
        <time>2024-09-19T10:21:39Z</time>
      </trkpt>
      <trkpt lat="42.50576" lon="2.54057">
        <ele>1708</ele>
        <time>2024-09-19T10:21:42Z</time>
      </trkpt>
      <trkpt lat="42.50574" lon="2.5406">
        <ele>1708</ele>
        <time>2024-09-19T10:21:45Z</time>
      </trkpt>
      <trkpt lat="42.50573" lon="2.54064">
        <ele>1707</ele>
        <time>2024-09-19T10:21:48Z</time>
      </trkpt>
      <trkpt lat="42.5057" lon="2.54063">
        <ele>1706</ele>
        <time>2024-09-19T10:21:51Z</time>
      </trkpt>
      <trkpt lat="42.50569" lon="2.54065">
        <ele>1704</ele>
        <time>2024-09-19T10:21:54Z</time>
      </trkpt>
      <trkpt lat="42.50566" lon="2.54068">
        <ele>1705</ele>
        <time>2024-09-19T10:22:15Z</time>
      </trkpt>
      <trkpt lat="42.50565" lon="2.54072">
        <ele>1703</ele>
        <time>2024-09-19T10:22:19Z</time>
      </trkpt>
      <trkpt lat="42.50564" lon="2.54076">
        <ele>1701</ele>
        <time>2024-09-19T10:22:23Z</time>
      </trkpt>
      <trkpt lat="42.50562" lon="2.54079">
        <ele>1700</ele>
        <time>2024-09-19T10:22:26Z</time>
      </trkpt>
      <trkpt lat="42.50561" lon="2.54083">
        <ele>1696</ele>
        <time>2024-09-19T10:22:38Z</time>
      </trkpt>
      <trkpt lat="42.50561" lon="2.54086">
        <ele>1695</ele>
        <time>2024-09-19T10:22:41Z</time>
      </trkpt>
      <trkpt lat="42.50561" lon="2.54091">
        <ele>1694</ele>
        <time>2024-09-19T10:22:45Z</time>
      </trkpt>
      <trkpt lat="42.5056" lon="2.54095">
        <ele>1694</ele>
        <time>2024-09-19T10:22:50Z</time>
      </trkpt>
      <trkpt lat="42.50559" lon="2.54099">
        <ele>1693</ele>
        <time>2024-09-19T10:22:53Z</time>
      </trkpt>
      <trkpt lat="42.50557" lon="2.54102">
        <ele>1693</ele>
        <time>2024-09-19T10:22:56Z</time>
      </trkpt>
      <trkpt lat="42.50555" lon="2.54105">
        <ele>1691</ele>
        <time>2024-09-19T10:22:59Z</time>
      </trkpt>
      <trkpt lat="42.50555" lon="2.54108">
        <ele>1690</ele>
        <time>2024-09-19T10:23:10Z</time>
      </trkpt>
      <trkpt lat="42.50554" lon="2.54111">
        <ele>1689</ele>
        <time>2024-09-19T10:23:15Z</time>
      </trkpt>
      <trkpt lat="42.50552" lon="2.54115">
        <ele>1690</ele>
        <time>2024-09-19T10:23:18Z</time>
      </trkpt>
      <trkpt lat="42.5055" lon="2.54119">
        <ele>1689</ele>
        <time>2024-09-19T10:23:21Z</time>
      </trkpt>
      <trkpt lat="42.50548" lon="2.54122">
        <ele>1688</ele>
        <time>2024-09-19T10:23:22Z</time>
      </trkpt>
      <trkpt lat="42.50545" lon="2.54124">
        <ele>1687</ele>
        <time>2024-09-19T10:23:25Z</time>
      </trkpt>
      <trkpt lat="42.50542" lon="2.54127">
        <ele>1687</ele>
        <time>2024-09-19T10:23:28Z</time>
      </trkpt>
      <trkpt lat="42.5054" lon="2.5413">
        <ele>1686</ele>
        <time>2024-09-19T10:23:30Z</time>
      </trkpt>
      <trkpt lat="42.50537" lon="2.54132">
        <ele>1685</ele>
        <time>2024-09-19T10:23:33Z</time>
      </trkpt>
      <trkpt lat="42.50534" lon="2.54133">
        <ele>1683</ele>
        <time>2024-09-19T10:23:36Z</time>
      </trkpt>
      <trkpt lat="42.50531" lon="2.54135">
        <ele>1684</ele>
        <time>2024-09-19T10:23:38Z</time>
      </trkpt>
      <trkpt lat="42.50528" lon="2.54138">
        <ele>1685</ele>
        <time>2024-09-19T10:23:42Z</time>
      </trkpt>
      <trkpt lat="42.50527" lon="2.54142">
        <ele>1684</ele>
        <time>2024-09-19T10:23:45Z</time>
      </trkpt>
      <trkpt lat="42.50526" lon="2.54146">
        <ele>1685</ele>
        <time>2024-09-19T10:23:48Z</time>
      </trkpt>
      <trkpt lat="42.50526" lon="2.54151">
        <ele>1684</ele>
        <time>2024-09-19T10:23:52Z</time>
      </trkpt>
      <trkpt lat="42.50525" lon="2.54155">
        <ele>1685</ele>
        <time>2024-09-19T10:23:55Z</time>
      </trkpt>
      <trkpt lat="42.50523" lon="2.54158">
        <ele>1684</ele>
        <time>2024-09-19T10:23:58Z</time>
      </trkpt>
      <trkpt lat="42.50522" lon="2.54162">
        <ele>1685</ele>
        <time>2024-09-19T10:24:01Z</time>
      </trkpt>
      <trkpt lat="42.5052" lon="2.54166">
        <ele>1685</ele>
        <time>2024-09-19T10:24:04Z</time>
      </trkpt>
      <trkpt lat="42.50518" lon="2.54169">
        <ele>1684</ele>
        <time>2024-09-19T10:24:07Z</time>
      </trkpt>
      <trkpt lat="42.50516" lon="2.54174">
        <ele>1684</ele>
        <time>2024-09-19T10:24:10Z</time>
      </trkpt>
      <trkpt lat="42.50514" lon="2.54178">
        <ele>1683</ele>
        <time>2024-09-19T10:24:14Z</time>
      </trkpt>
      <trkpt lat="42.50513" lon="2.54182">
        <ele>1684</ele>
        <time>2024-09-19T10:24:16Z</time>
      </trkpt>
      <trkpt lat="42.50511" lon="2.54186">
        <ele>1684</ele>
        <time>2024-09-19T10:24:19Z</time>
      </trkpt>
      <trkpt lat="42.50509" lon="2.5419">
        <ele>1684</ele>
        <time>2024-09-19T10:24:22Z</time>
      </trkpt>
      <trkpt lat="42.50506" lon="2.54193">
        <ele>1685</ele>
        <time>2024-09-19T10:24:25Z</time>
      </trkpt>
      <trkpt lat="42.50503" lon="2.54195">
        <ele>1685</ele>
        <time>2024-09-19T10:24:28Z</time>
      </trkpt>
      <trkpt lat="42.505" lon="2.54198">
        <ele>1685</ele>
        <time>2024-09-19T10:24:32Z</time>
      </trkpt>
      <trkpt lat="42.50497" lon="2.542">
        <ele>1685</ele>
        <time>2024-09-19T10:24:35Z</time>
      </trkpt>
      <trkpt lat="42.50495" lon="2.54203">
        <ele>1685</ele>
        <time>2024-09-19T10:24:38Z</time>
      </trkpt>
      <trkpt lat="42.50492" lon="2.54205">
        <ele>1685</ele>
        <time>2024-09-19T10:24:41Z</time>
      </trkpt>
      <trkpt lat="42.5049" lon="2.54208">
        <ele>1686</ele>
        <time>2024-09-19T10:24:43Z</time>
      </trkpt>
      <trkpt lat="42.50487" lon="2.54209">
        <ele>1685</ele>
        <time>2024-09-19T10:24:46Z</time>
      </trkpt>
      <trkpt lat="42.50485" lon="2.54211">
        <ele>1684</ele>
        <time>2024-09-19T10:24:49Z</time>
      </trkpt>
      <trkpt lat="42.50483" lon="2.5421">
        <ele>1683</ele>
        <time>2024-09-19T10:24:56Z</time>
      </trkpt>
      <trkpt lat="42.5048" lon="2.54211">
        <ele>1683</ele>
        <time>2024-09-19T10:25:00Z</time>
      </trkpt>
      <trkpt lat="42.50477" lon="2.54212">
        <ele>1681</ele>
        <time>2024-09-19T10:25:04Z</time>
      </trkpt>
      <trkpt lat="42.50474" lon="2.54214">
        <ele>1681</ele>
        <time>2024-09-19T10:25:07Z</time>
      </trkpt>
      <trkpt lat="42.50471" lon="2.54217">
        <ele>1680</ele>
        <time>2024-09-19T10:25:11Z</time>
      </trkpt>
      <trkpt lat="42.50468" lon="2.54219">
        <ele>1679</ele>
        <time>2024-09-19T10:25:14Z</time>
      </trkpt>
      <trkpt lat="42.50465" lon="2.5422">
        <ele>1678</ele>
        <time>2024-09-19T10:25:17Z</time>
      </trkpt>
      <trkpt lat="42.50462" lon="2.54222">
        <ele>1677</ele>
        <time>2024-09-19T10:25:20Z</time>
      </trkpt>
      <trkpt lat="42.50459" lon="2.54224">
        <ele>1675</ele>
        <time>2024-09-19T10:25:24Z</time>
      </trkpt>
      <trkpt lat="42.50456" lon="2.54227">
        <ele>1675</ele>
        <time>2024-09-19T10:25:27Z</time>
      </trkpt>
      <trkpt lat="42.50455" lon="2.5423">
        <ele>1675</ele>
        <time>2024-09-19T10:25:29Z</time>
      </trkpt>
      <trkpt lat="42.50455" lon="2.54234">
        <ele>1674</ele>
        <time>2024-09-19T10:25:32Z</time>
      </trkpt>
      <trkpt lat="42.50453" lon="2.54239">
        <ele>1673</ele>
        <time>2024-09-19T10:25:37Z</time>
      </trkpt>
      <trkpt lat="42.50452" lon="2.54242">
        <ele>1672</ele>
        <time>2024-09-19T10:25:40Z</time>
      </trkpt>
      <trkpt lat="42.5045" lon="2.54246">
        <ele>1671</ele>
        <time>2024-09-19T10:25:43Z</time>
      </trkpt>
      <trkpt lat="42.50448" lon="2.5425">
        <ele>1670</ele>
        <time>2024-09-19T10:25:46Z</time>
      </trkpt>
      <trkpt lat="42.50446" lon="2.54253">
        <ele>1671</ele>
        <time>2024-09-19T10:25:49Z</time>
      </trkpt>
      <trkpt lat="42.50444" lon="2.54256">
        <ele>1671</ele>
        <time>2024-09-19T10:25:51Z</time>
      </trkpt>
      <trkpt lat="42.50442" lon="2.5426">
        <ele>1670</ele>
        <time>2024-09-19T10:25:54Z</time>
      </trkpt>
      <trkpt lat="42.5044" lon="2.54263">
        <ele>1670</ele>
        <time>2024-09-19T10:25:57Z</time>
      </trkpt>
      <trkpt lat="42.50438" lon="2.54266">
        <ele>1669</ele>
        <time>2024-09-19T10:26:00Z</time>
      </trkpt>
      <trkpt lat="42.50437" lon="2.54271">
        <ele>1670</ele>
        <time>2024-09-19T10:26:05Z</time>
      </trkpt>
      <trkpt lat="42.50439" lon="2.54272">
        <ele>1670</ele>
        <time>2024-09-19T10:26:18Z</time>
      </trkpt>
      <trkpt lat="42.5044" lon="2.54275">
        <ele>1670</ele>
        <time>2024-09-19T10:26:20Z</time>
      </trkpt>
      <trkpt lat="42.50441" lon="2.54279">
        <ele>1671</ele>
        <time>2024-09-19T10:26:23Z</time>
      </trkpt>
      <trkpt lat="42.5044" lon="2.54284">
        <ele>1672</ele>
        <time>2024-09-19T10:26:27Z</time>
      </trkpt>
      <trkpt lat="42.50439" lon="2.54288">
        <ele>1671</ele>
        <time>2024-09-19T10:26:30Z</time>
      </trkpt>
      <trkpt lat="42.50437" lon="2.54291">
        <ele>1672</ele>
        <time>2024-09-19T10:26:33Z</time>
      </trkpt>
      <trkpt lat="42.50435" lon="2.54293">
        <ele>1672</ele>
        <time>2024-09-19T10:26:36Z</time>
      </trkpt>
      <trkpt lat="42.50432" lon="2.54295">
        <ele>1672</ele>
        <time>2024-09-19T10:26:40Z</time>
      </trkpt>
      <trkpt lat="42.5043" lon="2.54295">
        <ele>1672</ele>
        <time>2024-09-19T10:26:57Z</time>
      </trkpt>
      <trkpt lat="42.5043" lon="2.54298">
        <ele>1671</ele>
        <time>2024-09-19T10:27:06Z</time>
      </trkpt>
      <trkpt lat="42.50431" lon="2.54301">
        <ele>1672</ele>
        <time>2024-09-19T10:27:08Z</time>
      </trkpt>
      <trkpt lat="42.50432" lon="2.54305">
        <ele>1672</ele>
        <time>2024-09-19T10:27:11Z</time>
      </trkpt>
      <trkpt lat="42.50433" lon="2.5431">
        <ele>1673</ele>
        <time>2024-09-19T10:27:14Z</time>
      </trkpt>
      <trkpt lat="42.50433" lon="2.54315">
        <ele>1672</ele>
        <time>2024-09-19T10:27:18Z</time>
      </trkpt>
      <trkpt lat="42.50435" lon="2.54318">
        <ele>1673</ele>
        <time>2024-09-19T10:27:26Z</time>
      </trkpt>
      <trkpt lat="42.50436" lon="2.54322">
        <ele>1673</ele>
        <time>2024-09-19T10:27:28Z</time>
      </trkpt>
      <trkpt lat="42.50437" lon="2.54327">
        <ele>1673</ele>
        <time>2024-09-19T10:27:31Z</time>
      </trkpt>
      <trkpt lat="42.50438" lon="2.54331">
        <ele>1674</ele>
        <time>2024-09-19T10:27:33Z</time>
      </trkpt>
      <trkpt lat="42.50439" lon="2.54334">
        <ele>1673</ele>
        <time>2024-09-19T10:27:36Z</time>
      </trkpt>
      <trkpt lat="42.5044" lon="2.54338">
        <ele>1673</ele>
        <time>2024-09-19T10:27:38Z</time>
      </trkpt>
      <trkpt lat="42.5044" lon="2.54342">
        <ele>1673</ele>
        <time>2024-09-19T10:27:40Z</time>
      </trkpt>
      <trkpt lat="42.50439" lon="2.54345">
        <ele>1674</ele>
        <time>2024-09-19T10:27:43Z</time>
      </trkpt>
      <trkpt lat="42.50439" lon="2.54349">
        <ele>1674</ele>
        <time>2024-09-19T10:27:46Z</time>
      </trkpt>
      <trkpt lat="42.50439" lon="2.54349">
        <ele>1671</ele>
        <time>2024-09-19T10:28:01Z</time>
      </trkpt>
      <trkpt lat="42.50438" lon="2.54346">
        <ele>1670</ele>
        <time>2024-09-19T10:28:04Z</time>
      </trkpt>
      <trkpt lat="42.50437" lon="2.54344">
        <ele>1670</ele>
        <time>2024-09-19T10:28:19Z</time>
      </trkpt>
      <trkpt lat="42.50437" lon="2.54345">
        <ele>1673</ele>
        <time>2024-09-19T10:29:03Z</time>
      </trkpt>
      <trkpt lat="42.50438" lon="2.54346">
        <ele>1670</ele>
        <time>2024-09-19T10:29:24Z</time>
      </trkpt>
      <trkpt lat="42.50437" lon="2.54344">
        <ele>1669</ele>
        <time>2024-09-19T10:29:30Z</time>
      </trkpt>
      <trkpt lat="42.50436" lon="2.54341">
        <ele>1668</ele>
        <time>2024-09-19T11:02:09Z</time>
      </trkpt>
      <trkpt lat="42.50436" lon="2.54337">
        <ele>1667</ele>
        <time>2024-09-19T11:02:11Z</time>
      </trkpt>
      <trkpt lat="42.50436" lon="2.54333">
        <ele>1667</ele>
        <time>2024-09-19T11:02:13Z</time>
      </trkpt>
      <trkpt lat="42.50435" lon="2.54329">
        <ele>1668</ele>
        <time>2024-09-19T11:02:16Z</time>
      </trkpt>
      <trkpt lat="42.50435" lon="2.54325">
        <ele>1668</ele>
        <time>2024-09-19T11:02:18Z</time>
      </trkpt>
      <trkpt lat="42.50435" lon="2.54321">
        <ele>1667</ele>
        <time>2024-09-19T11:02:20Z</time>
      </trkpt>
      <trkpt lat="42.50434" lon="2.54317">
        <ele>1667</ele>
        <time>2024-09-19T11:02:23Z</time>
      </trkpt>
      <trkpt lat="42.50433" lon="2.54312">
        <ele>1667</ele>
        <time>2024-09-19T11:02:26Z</time>
      </trkpt>
      <trkpt lat="42.50431" lon="2.54309">
        <ele>1667</ele>
        <time>2024-09-19T11:02:29Z</time>
      </trkpt>
      <trkpt lat="42.50429" lon="2.54306">
        <ele>1666</ele>
        <time>2024-09-19T11:02:32Z</time>
      </trkpt>
      <trkpt lat="42.50428" lon="2.54309">
        <ele>1664</ele>
        <time>2024-09-19T11:02:35Z</time>
      </trkpt>
      <trkpt lat="42.50426" lon="2.54314">
        <ele>1664</ele>
        <time>2024-09-19T11:02:38Z</time>
      </trkpt>
      <trkpt lat="42.50425" lon="2.54319">
        <ele>1664</ele>
        <time>2024-09-19T11:02:41Z</time>
      </trkpt>
      <trkpt lat="42.50424" lon="2.54323">
        <ele>1664</ele>
        <time>2024-09-19T11:02:45Z</time>
      </trkpt>
      <trkpt lat="42.50423" lon="2.54328">
        <ele>1664</ele>
        <time>2024-09-19T11:02:48Z</time>
      </trkpt>
      <trkpt lat="42.50421" lon="2.54331">
        <ele>1662</ele>
        <time>2024-09-19T11:02:53Z</time>
      </trkpt>
      <trkpt lat="42.50419" lon="2.54335">
        <ele>1661</ele>
        <time>2024-09-19T11:02:57Z</time>
      </trkpt>
      <trkpt lat="42.50418" lon="2.54339">
        <ele>1660</ele>
        <time>2024-09-19T11:03:00Z</time>
      </trkpt>
      <trkpt lat="42.50416" lon="2.54344">
        <ele>1659</ele>
        <time>2024-09-19T11:03:03Z</time>
      </trkpt>
      <trkpt lat="42.50415" lon="2.54349">
        <ele>1659</ele>
        <time>2024-09-19T11:03:06Z</time>
      </trkpt>
      <trkpt lat="42.50414" lon="2.54353">
        <ele>1659</ele>
        <time>2024-09-19T11:03:08Z</time>
      </trkpt>
      <trkpt lat="42.50414" lon="2.54357">
        <ele>1659</ele>
        <time>2024-09-19T11:03:10Z</time>
      </trkpt>
      <trkpt lat="42.50413" lon="2.54361">
        <ele>1659</ele>
        <time>2024-09-19T11:03:13Z</time>
      </trkpt>
      <trkpt lat="42.50413" lon="2.54366">
        <ele>1658</ele>
        <time>2024-09-19T11:03:15Z</time>
      </trkpt>
      <trkpt lat="42.50413" lon="2.5437">
        <ele>1658</ele>
        <time>2024-09-19T11:03:17Z</time>
      </trkpt>
      <trkpt lat="42.50413" lon="2.54375">
        <ele>1657</ele>
        <time>2024-09-19T11:03:20Z</time>
      </trkpt>
      <trkpt lat="42.50413" lon="2.54381">
        <ele>1657</ele>
        <time>2024-09-19T11:03:23Z</time>
      </trkpt>
      <trkpt lat="42.50413" lon="2.54386">
        <ele>1657</ele>
        <time>2024-09-19T11:03:26Z</time>
      </trkpt>
      <trkpt lat="42.50413" lon="2.54391">
        <ele>1657</ele>
        <time>2024-09-19T11:03:29Z</time>
      </trkpt>
      <trkpt lat="42.50413" lon="2.54395">
        <ele>1656</ele>
        <time>2024-09-19T11:03:32Z</time>
      </trkpt>
      <trkpt lat="42.50413" lon="2.544">
        <ele>1655</ele>
        <time>2024-09-19T11:03:35Z</time>
      </trkpt>
      <trkpt lat="42.50414" lon="2.54405">
        <ele>1654</ele>
        <time>2024-09-19T11:03:38Z</time>
      </trkpt>
      <trkpt lat="42.50415" lon="2.54409">
        <ele>1653</ele>
        <time>2024-09-19T11:03:41Z</time>
      </trkpt>
      <trkpt lat="42.50416" lon="2.54413">
        <ele>1652</ele>
        <time>2024-09-19T11:03:44Z</time>
      </trkpt>
      <trkpt lat="42.50417" lon="2.54417">
        <ele>1651</ele>
        <time>2024-09-19T11:03:47Z</time>
      </trkpt>
      <trkpt lat="42.50418" lon="2.54422">
        <ele>1650</ele>
        <time>2024-09-19T11:03:50Z</time>
      </trkpt>
      <trkpt lat="42.50419" lon="2.54426">
        <ele>1650</ele>
        <time>2024-09-19T11:03:53Z</time>
      </trkpt>
      <trkpt lat="42.5042" lon="2.5443">
        <ele>1650</ele>
        <time>2024-09-19T11:03:55Z</time>
      </trkpt>
      <trkpt lat="42.50421" lon="2.54434">
        <ele>1649</ele>
        <time>2024-09-19T11:03:58Z</time>
      </trkpt>
      <trkpt lat="42.50422" lon="2.54438">
        <ele>1649</ele>
        <time>2024-09-19T11:04:00Z</time>
      </trkpt>
      <trkpt lat="42.50422" lon="2.54441">
        <ele>1648</ele>
        <time>2024-09-19T11:04:02Z</time>
      </trkpt>
      <trkpt lat="42.50422" lon="2.54446">
        <ele>1648</ele>
        <time>2024-09-19T11:04:05Z</time>
      </trkpt>
      <trkpt lat="42.50422" lon="2.54451">
        <ele>1648</ele>
        <time>2024-09-19T11:04:08Z</time>
      </trkpt>
      <trkpt lat="42.50423" lon="2.54456">
        <ele>1647</ele>
        <time>2024-09-19T11:04:11Z</time>
      </trkpt>
      <trkpt lat="42.50423" lon="2.5446">
        <ele>1647</ele>
        <time>2024-09-19T11:04:14Z</time>
      </trkpt>
      <trkpt lat="42.50423" lon="2.54465">
        <ele>1648</ele>
        <time>2024-09-19T11:04:16Z</time>
      </trkpt>
      <trkpt lat="42.50424" lon="2.54469">
        <ele>1647</ele>
        <time>2024-09-19T11:04:19Z</time>
      </trkpt>
      <trkpt lat="42.50425" lon="2.54473">
        <ele>1646</ele>
        <time>2024-09-19T11:04:22Z</time>
      </trkpt>
      <trkpt lat="42.50427" lon="2.54478">
        <ele>1644</ele>
        <time>2024-09-19T11:04:26Z</time>
      </trkpt>
      <trkpt lat="42.50428" lon="2.54482">
        <ele>1644</ele>
        <time>2024-09-19T11:04:28Z</time>
      </trkpt>
      <trkpt lat="42.50428" lon="2.54488">
        <ele>1644</ele>
        <time>2024-09-19T11:04:31Z</time>
      </trkpt>
      <trkpt lat="42.50429" lon="2.54492">
        <ele>1642</ele>
        <time>2024-09-19T11:04:34Z</time>
      </trkpt>
      <trkpt lat="42.50429" lon="2.54496">
        <ele>1643</ele>
        <time>2024-09-19T11:04:36Z</time>
      </trkpt>
      <trkpt lat="42.50431" lon="2.545">
        <ele>1641</ele>
        <time>2024-09-19T11:04:39Z</time>
      </trkpt>
      <trkpt lat="42.50432" lon="2.54505">
        <ele>1640</ele>
        <time>2024-09-19T11:04:42Z</time>
      </trkpt>
      <trkpt lat="42.50433" lon="2.5451">
        <ele>1640</ele>
        <time>2024-09-19T11:04:45Z</time>
      </trkpt>
      <trkpt lat="42.50434" lon="2.54514">
        <ele>1639</ele>
        <time>2024-09-19T11:04:49Z</time>
      </trkpt>
      <trkpt lat="42.50435" lon="2.54517">
        <ele>1638</ele>
        <time>2024-09-19T11:04:52Z</time>
      </trkpt>
      <trkpt lat="42.50435" lon="2.54522">
        <ele>1639</ele>
        <time>2024-09-19T11:04:55Z</time>
      </trkpt>
      <trkpt lat="42.50437" lon="2.54525">
        <ele>1638</ele>
        <time>2024-09-19T11:04:58Z</time>
      </trkpt>
      <trkpt lat="42.50437" lon="2.54529">
        <ele>1638</ele>
        <time>2024-09-19T11:05:00Z</time>
      </trkpt>
      <trkpt lat="42.50437" lon="2.54534">
        <ele>1637</ele>
        <time>2024-09-19T11:05:03Z</time>
      </trkpt>
      <trkpt lat="42.50436" lon="2.54538">
        <ele>1637</ele>
        <time>2024-09-19T11:05:05Z</time>
      </trkpt>
      <trkpt lat="42.50436" lon="2.54542">
        <ele>1637</ele>
        <time>2024-09-19T11:05:08Z</time>
      </trkpt>
      <trkpt lat="42.50436" lon="2.54547">
        <ele>1636</ele>
        <time>2024-09-19T11:05:11Z</time>
      </trkpt>
      <trkpt lat="42.50436" lon="2.54551">
        <ele>1635</ele>
        <time>2024-09-19T11:05:14Z</time>
      </trkpt>
      <trkpt lat="42.50436" lon="2.54556">
        <ele>1633</ele>
        <time>2024-09-19T11:05:18Z</time>
      </trkpt>
      <trkpt lat="42.50436" lon="2.54561">
        <ele>1634</ele>
        <time>2024-09-19T11:05:20Z</time>
      </trkpt>
      <trkpt lat="42.50436" lon="2.54566">
        <ele>1633</ele>
        <time>2024-09-19T11:05:24Z</time>
      </trkpt>
      <trkpt lat="42.50436" lon="2.54571">
        <ele>1633</ele>
        <time>2024-09-19T11:05:27Z</time>
      </trkpt>
      <trkpt lat="42.50436" lon="2.54575">
        <ele>1631</ele>
        <time>2024-09-19T11:05:32Z</time>
      </trkpt>
      <trkpt lat="42.50436" lon="2.54579">
        <ele>1631</ele>
        <time>2024-09-19T11:05:34Z</time>
      </trkpt>
      <trkpt lat="42.50436" lon="2.54583">
        <ele>1630</ele>
        <time>2024-09-19T11:05:37Z</time>
      </trkpt>
      <trkpt lat="42.50436" lon="2.54587">
        <ele>1630</ele>
        <time>2024-09-19T11:05:39Z</time>
      </trkpt>
      <trkpt lat="42.50437" lon="2.54592">
        <ele>1630</ele>
        <time>2024-09-19T11:05:42Z</time>
      </trkpt>
      <trkpt lat="42.50437" lon="2.54596">
        <ele>1628</ele>
        <time>2024-09-19T11:05:45Z</time>
      </trkpt>
      <trkpt lat="42.50437" lon="2.54601">
        <ele>1629</ele>
        <time>2024-09-19T11:05:47Z</time>
      </trkpt>
      <trkpt lat="42.50438" lon="2.54605">
        <ele>1628</ele>
        <time>2024-09-19T11:05:50Z</time>
      </trkpt>
      <trkpt lat="42.50437" lon="2.54609">
        <ele>1633</ele>
        <time>2024-09-19T11:05:55Z</time>
      </trkpt>
      <trkpt lat="42.50438" lon="2.54609">
        <ele>1629</ele>
        <time>2024-09-19T11:06:21Z</time>
      </trkpt>
      <trkpt lat="42.50438" lon="2.54612">
        <ele>1628</ele>
        <time>2024-09-19T11:06:41Z</time>
      </trkpt>
      <trkpt lat="42.50438" lon="2.54615">
        <ele>1628</ele>
        <time>2024-09-19T11:06:44Z</time>
      </trkpt>
      <trkpt lat="42.50438" lon="2.5462">
        <ele>1627</ele>
        <time>2024-09-19T11:06:47Z</time>
      </trkpt>
      <trkpt lat="42.50438" lon="2.54624">
        <ele>1626</ele>
        <time>2024-09-19T11:06:50Z</time>
      </trkpt>
      <trkpt lat="42.50439" lon="2.54629">
        <ele>1626</ele>
        <time>2024-09-19T11:06:53Z</time>
      </trkpt>
      <trkpt lat="42.50439" lon="2.54634">
        <ele>1624</ele>
        <time>2024-09-19T11:06:58Z</time>
      </trkpt>
      <trkpt lat="42.50439" lon="2.54639">
        <ele>1623</ele>
        <time>2024-09-19T11:07:01Z</time>
      </trkpt>
      <trkpt lat="42.50438" lon="2.54643">
        <ele>1623</ele>
        <time>2024-09-19T11:07:04Z</time>
      </trkpt>
      <trkpt lat="42.50438" lon="2.54648">
        <ele>1622</ele>
        <time>2024-09-19T11:07:07Z</time>
      </trkpt>
      <trkpt lat="42.50438" lon="2.54652">
        <ele>1622</ele>
        <time>2024-09-19T11:07:09Z</time>
      </trkpt>
      <trkpt lat="42.50438" lon="2.54656">
        <ele>1621</ele>
        <time>2024-09-19T11:07:12Z</time>
      </trkpt>
      <trkpt lat="42.50438" lon="2.5466">
        <ele>1621</ele>
        <time>2024-09-19T11:07:15Z</time>
      </trkpt>
      <trkpt lat="42.50439" lon="2.54664">
        <ele>1620</ele>
        <time>2024-09-19T11:07:17Z</time>
      </trkpt>
      <trkpt lat="42.50438" lon="2.54668">
        <ele>1620</ele>
        <time>2024-09-19T11:07:19Z</time>
      </trkpt>
      <trkpt lat="42.50438" lon="2.54672">
        <ele>1620</ele>
        <time>2024-09-19T11:07:21Z</time>
      </trkpt>
      <trkpt lat="42.50438" lon="2.54676">
        <ele>1620</ele>
        <time>2024-09-19T11:07:24Z</time>
      </trkpt>
      <trkpt lat="42.50438" lon="2.54681">
        <ele>1618</ele>
        <time>2024-09-19T11:07:27Z</time>
      </trkpt>
      <trkpt lat="42.50438" lon="2.54686">
        <ele>1617</ele>
        <time>2024-09-19T11:07:29Z</time>
      </trkpt>
      <trkpt lat="42.50439" lon="2.5469">
        <ele>1618</ele>
        <time>2024-09-19T11:07:31Z</time>
      </trkpt>
      <trkpt lat="42.50439" lon="2.54695">
        <ele>1616</ele>
        <time>2024-09-19T11:07:34Z</time>
      </trkpt>
      <trkpt lat="42.5044" lon="2.547">
        <ele>1616</ele>
        <time>2024-09-19T11:07:37Z</time>
      </trkpt>
      <trkpt lat="42.50441" lon="2.54704">
        <ele>1615</ele>
        <time>2024-09-19T11:07:39Z</time>
      </trkpt>
      <trkpt lat="42.50442" lon="2.54709">
        <ele>1613</ele>
        <time>2024-09-19T11:07:42Z</time>
      </trkpt>
      <trkpt lat="42.50442" lon="2.54714">
        <ele>1612</ele>
        <time>2024-09-19T11:07:45Z</time>
      </trkpt>
      <trkpt lat="42.50442" lon="2.54718">
        <ele>1612</ele>
        <time>2024-09-19T11:07:47Z</time>
      </trkpt>
      <trkpt lat="42.50442" lon="2.54723">
        <ele>1612</ele>
        <time>2024-09-19T11:07:50Z</time>
      </trkpt>
      <trkpt lat="42.50442" lon="2.54729">
        <ele>1611</ele>
        <time>2024-09-19T11:07:53Z</time>
      </trkpt>
      <trkpt lat="42.50442" lon="2.54734">
        <ele>1610</ele>
        <time>2024-09-19T11:07:56Z</time>
      </trkpt>
      <trkpt lat="42.50443" lon="2.54739">
        <ele>1610</ele>
        <time>2024-09-19T11:07:59Z</time>
      </trkpt>
      <trkpt lat="42.50443" lon="2.54743">
        <ele>1610</ele>
        <time>2024-09-19T11:08:01Z</time>
      </trkpt>
      <trkpt lat="42.50443" lon="2.54747">
        <ele>1609</ele>
        <time>2024-09-19T11:08:04Z</time>
      </trkpt>
      <trkpt lat="42.50443" lon="2.54752">
        <ele>1610</ele>
        <time>2024-09-19T11:08:07Z</time>
      </trkpt>
      <trkpt lat="42.50443" lon="2.54757">
        <ele>1609</ele>
        <time>2024-09-19T11:08:10Z</time>
      </trkpt>
      <trkpt lat="42.50443" lon="2.54762">
        <ele>1608</ele>
        <time>2024-09-19T11:08:13Z</time>
      </trkpt>
      <trkpt lat="42.50443" lon="2.54767">
        <ele>1608</ele>
        <time>2024-09-19T11:08:16Z</time>
      </trkpt>
      <trkpt lat="42.50445" lon="2.54772">
        <ele>1607</ele>
        <time>2024-09-19T11:08:19Z</time>
      </trkpt>
      <trkpt lat="42.50445" lon="2.54777">
        <ele>1607</ele>
        <time>2024-09-19T11:08:22Z</time>
      </trkpt>
      <trkpt lat="42.50446" lon="2.54781">
        <ele>1607</ele>
        <time>2024-09-19T11:08:25Z</time>
      </trkpt>
      <trkpt lat="42.50445" lon="2.54786">
        <ele>1606</ele>
        <time>2024-09-19T11:08:28Z</time>
      </trkpt>
      <trkpt lat="42.50445" lon="2.54791">
        <ele>1606</ele>
        <time>2024-09-19T11:08:31Z</time>
      </trkpt>
      <trkpt lat="42.50446" lon="2.54796">
        <ele>1605</ele>
        <time>2024-09-19T11:08:34Z</time>
      </trkpt>
      <trkpt lat="42.50446" lon="2.54801">
        <ele>1605</ele>
        <time>2024-09-19T11:08:37Z</time>
      </trkpt>
      <trkpt lat="42.50444" lon="2.54804">
        <ele>1603</ele>
        <time>2024-09-19T11:08:40Z</time>
      </trkpt>
      <trkpt lat="42.50444" lon="2.54807">
        <ele>1602</ele>
        <time>2024-09-19T11:08:43Z</time>
      </trkpt>
      <trkpt lat="42.50442" lon="2.54811">
        <ele>1600</ele>
        <time>2024-09-19T11:08:46Z</time>
      </trkpt>
      <trkpt lat="42.5044" lon="2.54815">
        <ele>1599</ele>
        <time>2024-09-19T11:08:49Z</time>
      </trkpt>
      <trkpt lat="42.5044" lon="2.54818">
        <ele>1598</ele>
        <time>2024-09-19T11:08:51Z</time>
      </trkpt>
      <trkpt lat="42.50441" lon="2.54822">
        <ele>1597</ele>
        <time>2024-09-19T11:08:54Z</time>
      </trkpt>
      <trkpt lat="42.50441" lon="2.54827">
        <ele>1597</ele>
        <time>2024-09-19T11:08:57Z</time>
      </trkpt>
      <trkpt lat="42.50442" lon="2.54832">
        <ele>1595</ele>
        <time>2024-09-19T11:09:01Z</time>
      </trkpt>
      <trkpt lat="42.50443" lon="2.54836">
        <ele>1595</ele>
        <time>2024-09-19T11:09:04Z</time>
      </trkpt>
      <trkpt lat="42.50443" lon="2.5484">
        <ele>1594</ele>
        <time>2024-09-19T11:09:06Z</time>
      </trkpt>
      <trkpt lat="42.50443" lon="2.54844">
        <ele>1592</ele>
        <time>2024-09-19T11:09:09Z</time>
      </trkpt>
      <trkpt lat="42.50442" lon="2.54848">
        <ele>1591</ele>
        <time>2024-09-19T11:09:13Z</time>
      </trkpt>
      <trkpt lat="42.50441" lon="2.54852">
        <ele>1589</ele>
        <time>2024-09-19T11:09:16Z</time>
      </trkpt>
      <trkpt lat="42.50439" lon="2.54854">
        <ele>1589</ele>
        <time>2024-09-19T11:09:18Z</time>
      </trkpt>
      <trkpt lat="42.50437" lon="2.54857">
        <ele>1589</ele>
        <time>2024-09-19T11:09:21Z</time>
      </trkpt>
      <trkpt lat="42.50436" lon="2.54861">
        <ele>1588</ele>
        <time>2024-09-19T11:09:24Z</time>
      </trkpt>
      <trkpt lat="42.50434" lon="2.54864">
        <ele>1587</ele>
        <time>2024-09-19T11:09:27Z</time>
      </trkpt>
      <trkpt lat="42.50432" lon="2.54868">
        <ele>1586</ele>
        <time>2024-09-19T11:09:30Z</time>
      </trkpt>
      <trkpt lat="42.5043" lon="2.54871">
        <ele>1585</ele>
        <time>2024-09-19T11:09:33Z</time>
      </trkpt>
      <trkpt lat="42.50429" lon="2.54875">
        <ele>1584</ele>
        <time>2024-09-19T11:09:44Z</time>
      </trkpt>
      <trkpt lat="42.50428" lon="2.54879">
        <ele>1583</ele>
        <time>2024-09-19T11:09:47Z</time>
      </trkpt>
      <trkpt lat="42.50427" lon="2.54883">
        <ele>1584</ele>
        <time>2024-09-19T11:09:50Z</time>
      </trkpt>
      <trkpt lat="42.50425" lon="2.54887">
        <ele>1583</ele>
        <time>2024-09-19T11:09:53Z</time>
      </trkpt>
      <trkpt lat="42.50424" lon="2.54891">
        <ele>1582</ele>
        <time>2024-09-19T11:09:56Z</time>
      </trkpt>
      <trkpt lat="42.50423" lon="2.54896">
        <ele>1581</ele>
        <time>2024-09-19T11:09:59Z</time>
      </trkpt>
      <trkpt lat="42.50421" lon="2.54899">
        <ele>1580</ele>
        <time>2024-09-19T11:10:02Z</time>
      </trkpt>
      <trkpt lat="42.50419" lon="2.54903">
        <ele>1579</ele>
        <time>2024-09-19T11:10:05Z</time>
      </trkpt>
      <trkpt lat="42.50417" lon="2.54907">
        <ele>1578</ele>
        <time>2024-09-19T11:10:08Z</time>
      </trkpt>
      <trkpt lat="42.50416" lon="2.54911">
        <ele>1576</ele>
        <time>2024-09-19T11:10:11Z</time>
      </trkpt>
      <trkpt lat="42.50415" lon="2.54915">
        <ele>1576</ele>
        <time>2024-09-19T11:10:13Z</time>
      </trkpt>
      <trkpt lat="42.50414" lon="2.54919">
        <ele>1575</ele>
        <time>2024-09-19T11:10:16Z</time>
      </trkpt>
      <trkpt lat="42.50414" lon="2.54924">
        <ele>1573</ele>
        <time>2024-09-19T11:10:20Z</time>
      </trkpt>
      <trkpt lat="42.50414" lon="2.54928">
        <ele>1573</ele>
        <time>2024-09-19T11:10:22Z</time>
      </trkpt>
      <trkpt lat="42.50416" lon="2.54931">
        <ele>1574</ele>
        <time>2024-09-19T11:10:24Z</time>
      </trkpt>
      <trkpt lat="42.50418" lon="2.54932">
        <ele>1574</ele>
        <time>2024-09-19T11:10:27Z</time>
      </trkpt>
      <trkpt lat="42.50422" lon="2.54933">
        <ele>1574</ele>
        <time>2024-09-19T11:10:30Z</time>
      </trkpt>
      <trkpt lat="42.50425" lon="2.54934">
        <ele>1573</ele>
        <time>2024-09-19T11:10:33Z</time>
      </trkpt>
      <trkpt lat="42.50428" lon="2.54935">
        <ele>1573</ele>
        <time>2024-09-19T11:10:36Z</time>
      </trkpt>
      <trkpt lat="42.50431" lon="2.54936">
        <ele>1573</ele>
        <time>2024-09-19T11:10:39Z</time>
      </trkpt>
      <trkpt lat="42.50434" lon="2.54938">
        <ele>1572</ele>
        <time>2024-09-19T11:10:43Z</time>
      </trkpt>
      <trkpt lat="42.50438" lon="2.54939">
        <ele>1572</ele>
        <time>2024-09-19T11:10:46Z</time>
      </trkpt>
      <trkpt lat="42.5044" lon="2.54941">
        <ele>1571</ele>
        <time>2024-09-19T11:10:48Z</time>
      </trkpt>
      <trkpt lat="42.50443" lon="2.54943">
        <ele>1572</ele>
        <time>2024-09-19T11:10:51Z</time>
      </trkpt>
      <trkpt lat="42.50446" lon="2.54946">
        <ele>1572</ele>
        <time>2024-09-19T11:10:54Z</time>
      </trkpt>
      <trkpt lat="42.50449" lon="2.54948">
        <ele>1571</ele>
        <time>2024-09-19T11:10:57Z</time>
      </trkpt>
      <trkpt lat="42.50451" lon="2.5495">
        <ele>1572</ele>
        <time>2024-09-19T11:11:04Z</time>
      </trkpt>
      <trkpt lat="42.50455" lon="2.54951">
        <ele>1571</ele>
        <time>2024-09-19T11:11:08Z</time>
      </trkpt>
      <trkpt lat="42.50458" lon="2.54954">
        <ele>1571</ele>
        <time>2024-09-19T11:11:12Z</time>
      </trkpt>
      <trkpt lat="42.50462" lon="2.54955">
        <ele>1571</ele>
        <time>2024-09-19T11:11:15Z</time>
      </trkpt>
      <trkpt lat="42.50466" lon="2.54957">
        <ele>1571</ele>
        <time>2024-09-19T11:11:18Z</time>
      </trkpt>
      <trkpt lat="42.5047" lon="2.54958">
        <ele>1572</ele>
        <time>2024-09-19T11:11:21Z</time>
      </trkpt>
      <trkpt lat="42.50473" lon="2.54961">
        <ele>1572</ele>
        <time>2024-09-19T11:11:24Z</time>
      </trkpt>
      <trkpt lat="42.50475" lon="2.54964">
        <ele>1571</ele>
        <time>2024-09-19T11:11:26Z</time>
      </trkpt>
      <trkpt lat="42.50474" lon="2.54967">
        <ele>1570</ele>
        <time>2024-09-19T11:11:28Z</time>
      </trkpt>
      <trkpt lat="42.50472" lon="2.54968">
        <ele>1571</ele>
        <time>2024-09-19T11:11:30Z</time>
      </trkpt>
      <trkpt lat="42.50469" lon="2.54971">
        <ele>1570</ele>
        <time>2024-09-19T11:11:33Z</time>
      </trkpt>
      <trkpt lat="42.50466" lon="2.54972">
        <ele>1571</ele>
        <time>2024-09-19T11:11:35Z</time>
      </trkpt>
      <trkpt lat="42.50463" lon="2.54973">
        <ele>1570</ele>
        <time>2024-09-19T11:11:37Z</time>
      </trkpt>
      <trkpt lat="42.5046" lon="2.54975">
        <ele>1570</ele>
        <time>2024-09-19T11:11:39Z</time>
      </trkpt>
      <trkpt lat="42.50457" lon="2.54976">
        <ele>1570</ele>
        <time>2024-09-19T11:11:42Z</time>
      </trkpt>
      <trkpt lat="42.50454" lon="2.54978">
        <ele>1569</ele>
        <time>2024-09-19T11:11:45Z</time>
      </trkpt>
      <trkpt lat="42.50451" lon="2.54981">
        <ele>1568</ele>
        <time>2024-09-19T11:11:48Z</time>
      </trkpt>
      <trkpt lat="42.50447" lon="2.54982">
        <ele>1568</ele>
        <time>2024-09-19T11:11:51Z</time>
      </trkpt>
      <trkpt lat="42.50444" lon="2.54984">
        <ele>1566</ele>
        <time>2024-09-19T11:11:54Z</time>
      </trkpt>
      <trkpt lat="42.50441" lon="2.54985">
        <ele>1566</ele>
        <time>2024-09-19T11:11:57Z</time>
      </trkpt>
      <trkpt lat="42.50437" lon="2.54987">
        <ele>1565</ele>
        <time>2024-09-19T11:12:00Z</time>
      </trkpt>
      <trkpt lat="42.50434" lon="2.54988">
        <ele>1565</ele>
        <time>2024-09-19T11:12:03Z</time>
      </trkpt>
      <trkpt lat="42.50431" lon="2.54991">
        <ele>1563</ele>
        <time>2024-09-19T11:12:06Z</time>
      </trkpt>
      <trkpt lat="42.50429" lon="2.54994">
        <ele>1562</ele>
        <time>2024-09-19T11:12:09Z</time>
      </trkpt>
      <trkpt lat="42.50426" lon="2.54995">
        <ele>1563</ele>
        <time>2024-09-19T11:12:12Z</time>
      </trkpt>
      <trkpt lat="42.50423" lon="2.54997">
        <ele>1560</ele>
        <time>2024-09-19T11:12:15Z</time>
      </trkpt>
      <trkpt lat="42.50419" lon="2.54999">
        <ele>1560</ele>
        <time>2024-09-19T11:12:18Z</time>
      </trkpt>
      <trkpt lat="42.50416" lon="2.55001">
        <ele>1560</ele>
        <time>2024-09-19T11:12:21Z</time>
      </trkpt>
      <trkpt lat="42.50413" lon="2.55003">
        <ele>1561</ele>
        <time>2024-09-19T11:12:24Z</time>
      </trkpt>
      <trkpt lat="42.50409" lon="2.55004">
        <ele>1560</ele>
        <time>2024-09-19T11:12:27Z</time>
      </trkpt>
      <trkpt lat="42.50406" lon="2.55005">
        <ele>1559</ele>
        <time>2024-09-19T11:12:30Z</time>
      </trkpt>
      <trkpt lat="42.50403" lon="2.55007">
        <ele>1560</ele>
        <time>2024-09-19T11:12:35Z</time>
      </trkpt>
      <trkpt lat="42.504" lon="2.55008">
        <ele>1557</ele>
        <time>2024-09-19T11:12:39Z</time>
      </trkpt>
      <trkpt lat="42.50396" lon="2.55008">
        <ele>1556</ele>
        <time>2024-09-19T11:12:42Z</time>
      </trkpt>
      <trkpt lat="42.50393" lon="2.55008">
        <ele>1556</ele>
        <time>2024-09-19T11:12:45Z</time>
      </trkpt>
      <trkpt lat="42.5039" lon="2.55009">
        <ele>1553</ele>
        <time>2024-09-19T11:12:48Z</time>
      </trkpt>
      <trkpt lat="42.50386" lon="2.55009">
        <ele>1554</ele>
        <time>2024-09-19T11:12:51Z</time>
      </trkpt>
      <trkpt lat="42.50383" lon="2.5501">
        <ele>1553</ele>
        <time>2024-09-19T11:12:54Z</time>
      </trkpt>
      <trkpt lat="42.50379" lon="2.55012">
        <ele>1553</ele>
        <time>2024-09-19T11:12:57Z</time>
      </trkpt>
      <trkpt lat="42.50376" lon="2.55014">
        <ele>1551</ele>
        <time>2024-09-19T11:13:00Z</time>
      </trkpt>
      <trkpt lat="42.50373" lon="2.55017">
        <ele>1551</ele>
        <time>2024-09-19T11:13:03Z</time>
      </trkpt>
      <trkpt lat="42.5037" lon="2.55019">
        <ele>1551</ele>
        <time>2024-09-19T11:13:06Z</time>
      </trkpt>
      <trkpt lat="42.50367" lon="2.55021">
        <ele>1551</ele>
        <time>2024-09-19T11:13:09Z</time>
      </trkpt>
      <trkpt lat="42.50364" lon="2.55022">
        <ele>1551</ele>
        <time>2024-09-19T11:13:13Z</time>
      </trkpt>
      <trkpt lat="42.50362" lon="2.55025">
        <ele>1549</ele>
        <time>2024-09-19T11:13:16Z</time>
      </trkpt>
      <trkpt lat="42.5036" lon="2.55028">
        <ele>1548</ele>
        <time>2024-09-19T11:13:19Z</time>
      </trkpt>
      <trkpt lat="42.50358" lon="2.55033">
        <ele>1548</ele>
        <time>2024-09-19T11:13:22Z</time>
      </trkpt>
      <trkpt lat="42.50356" lon="2.55037">
        <ele>1546</ele>
        <time>2024-09-19T11:13:25Z</time>
      </trkpt>
      <trkpt lat="42.50355" lon="2.55041">
        <ele>1545</ele>
        <time>2024-09-19T11:13:28Z</time>
      </trkpt>
      <trkpt lat="42.50354" lon="2.55046">
        <ele>1545</ele>
        <time>2024-09-19T11:13:31Z</time>
      </trkpt>
      <trkpt lat="42.50353" lon="2.55049">
        <ele>1544</ele>
        <time>2024-09-19T11:13:33Z</time>
      </trkpt>
      <trkpt lat="42.50351" lon="2.55054">
        <ele>1543</ele>
        <time>2024-09-19T11:13:36Z</time>
      </trkpt>
      <trkpt lat="42.50349" lon="2.55057">
        <ele>1541</ele>
        <time>2024-09-19T11:13:47Z</time>
      </trkpt>
      <trkpt lat="42.50347" lon="2.55059">
        <ele>1541</ele>
        <time>2024-09-19T11:13:49Z</time>
      </trkpt>
      <trkpt lat="42.50344" lon="2.55063">
        <ele>1541</ele>
        <time>2024-09-19T11:13:52Z</time>
      </trkpt>
      <trkpt lat="42.50341" lon="2.55066">
        <ele>1540</ele>
        <time>2024-09-19T11:13:55Z</time>
      </trkpt>
      <trkpt lat="42.50338" lon="2.5507">
        <ele>1540</ele>
        <time>2024-09-19T11:13:58Z</time>
      </trkpt>
      <trkpt lat="42.50336" lon="2.55074">
        <ele>1539</ele>
        <time>2024-09-19T11:14:01Z</time>
      </trkpt>
      <trkpt lat="42.50334" lon="2.55077">
        <ele>1539</ele>
        <time>2024-09-19T11:14:03Z</time>
      </trkpt>
      <trkpt lat="42.50331" lon="2.5508">
        <ele>1540</ele>
        <time>2024-09-19T11:14:06Z</time>
      </trkpt>
      <trkpt lat="42.5033" lon="2.55084">
        <ele>1539</ele>
        <time>2024-09-19T11:14:08Z</time>
      </trkpt>
      <trkpt lat="42.50328" lon="2.55087">
        <ele>1538</ele>
        <time>2024-09-19T11:14:10Z</time>
      </trkpt>
      <trkpt lat="42.50327" lon="2.5509">
        <ele>1538</ele>
        <time>2024-09-19T11:14:12Z</time>
      </trkpt>
      <trkpt lat="42.50324" lon="2.55094">
        <ele>1537</ele>
        <time>2024-09-19T11:14:15Z</time>
      </trkpt>
      <trkpt lat="42.50322" lon="2.55096">
        <ele>1537</ele>
        <time>2024-09-19T11:14:17Z</time>
      </trkpt>
      <trkpt lat="42.50318" lon="2.55099">
        <ele>1536</ele>
        <time>2024-09-19T11:14:20Z</time>
      </trkpt>
      <trkpt lat="42.50316" lon="2.55101">
        <ele>1536</ele>
        <time>2024-09-19T11:14:22Z</time>
      </trkpt>
      <trkpt lat="42.50313" lon="2.55103">
        <ele>1535</ele>
        <time>2024-09-19T11:14:24Z</time>
      </trkpt>
      <trkpt lat="42.50311" lon="2.55105">
        <ele>1534</ele>
        <time>2024-09-19T11:14:26Z</time>
      </trkpt>
      <trkpt lat="42.50308" lon="2.55107">
        <ele>1534</ele>
        <time>2024-09-19T11:14:28Z</time>
      </trkpt>
      <trkpt lat="42.50306" lon="2.55109">
        <ele>1534</ele>
        <time>2024-09-19T11:14:30Z</time>
      </trkpt>
      <trkpt lat="42.50303" lon="2.55112">
        <ele>1534</ele>
        <time>2024-09-19T11:14:33Z</time>
      </trkpt>
      <trkpt lat="42.50301" lon="2.55115">
        <ele>1532</ele>
        <time>2024-09-19T11:14:36Z</time>
      </trkpt>
      <trkpt lat="42.50298" lon="2.55118">
        <ele>1532</ele>
        <time>2024-09-19T11:14:38Z</time>
      </trkpt>
      <trkpt lat="42.50295" lon="2.5512">
        <ele>1532</ele>
        <time>2024-09-19T11:14:41Z</time>
      </trkpt>
      <trkpt lat="42.50292" lon="2.55122">
        <ele>1531</ele>
        <time>2024-09-19T11:14:44Z</time>
      </trkpt>
      <trkpt lat="42.50288" lon="2.55124">
        <ele>1530</ele>
        <time>2024-09-19T11:14:47Z</time>
      </trkpt>
      <trkpt lat="42.50285" lon="2.55126">
        <ele>1530</ele>
        <time>2024-09-19T11:14:50Z</time>
      </trkpt>
      <trkpt lat="42.50282" lon="2.55127">
        <ele>1531</ele>
        <time>2024-09-19T11:14:52Z</time>
      </trkpt>
      <trkpt lat="42.50279" lon="2.55127">
        <ele>1530</ele>
        <time>2024-09-19T11:14:54Z</time>
      </trkpt>
      <trkpt lat="42.50277" lon="2.55125">
        <ele>1531</ele>
        <time>2024-09-19T11:14:56Z</time>
      </trkpt>
      <trkpt lat="42.50274" lon="2.55122">
        <ele>1531</ele>
        <time>2024-09-19T11:14:59Z</time>
      </trkpt>
      <trkpt lat="42.50273" lon="2.55118">
        <ele>1530</ele>
        <time>2024-09-19T11:15:01Z</time>
      </trkpt>
      <trkpt lat="42.50272" lon="2.55114">
        <ele>1528</ele>
        <time>2024-09-19T11:15:04Z</time>
      </trkpt>
      <trkpt lat="42.5027" lon="2.55109">
        <ele>1528</ele>
        <time>2024-09-19T11:15:07Z</time>
      </trkpt>
      <trkpt lat="42.5027" lon="2.55105">
        <ele>1528</ele>
        <time>2024-09-19T11:15:09Z</time>
      </trkpt>
      <trkpt lat="42.5027" lon="2.55101">
        <ele>1528</ele>
        <time>2024-09-19T11:15:11Z</time>
      </trkpt>
      <trkpt lat="42.50269" lon="2.55096">
        <ele>1527</ele>
        <time>2024-09-19T11:15:14Z</time>
      </trkpt>
      <trkpt lat="42.50268" lon="2.55091">
        <ele>1526</ele>
        <time>2024-09-19T11:15:17Z</time>
      </trkpt>
      <trkpt lat="42.50268" lon="2.55086">
        <ele>1526</ele>
        <time>2024-09-19T11:15:21Z</time>
      </trkpt>
      <trkpt lat="42.50267" lon="2.55081">
        <ele>1525</ele>
        <time>2024-09-19T11:15:24Z</time>
      </trkpt>
      <trkpt lat="42.50267" lon="2.55076">
        <ele>1526</ele>
        <time>2024-09-19T11:15:26Z</time>
      </trkpt>
      <trkpt lat="42.50266" lon="2.55072">
        <ele>1525</ele>
        <time>2024-09-19T11:15:29Z</time>
      </trkpt>
      <trkpt lat="42.50266" lon="2.55067">
        <ele>1525</ele>
        <time>2024-09-19T11:15:32Z</time>
      </trkpt>
      <trkpt lat="42.50267" lon="2.55063">
        <ele>1524</ele>
        <time>2024-09-19T11:15:34Z</time>
      </trkpt>
      <trkpt lat="42.50266" lon="2.55059">
        <ele>1525</ele>
        <time>2024-09-19T11:15:36Z</time>
      </trkpt>
      <trkpt lat="42.50266" lon="2.55055">
        <ele>1524</ele>
        <time>2024-09-19T11:15:38Z</time>
      </trkpt>
      <trkpt lat="42.50266" lon="2.5505">
        <ele>1522</ele>
        <time>2024-09-19T11:15:41Z</time>
      </trkpt>
      <trkpt lat="42.50265" lon="2.55046">
        <ele>1523</ele>
        <time>2024-09-19T11:15:44Z</time>
      </trkpt>
      <trkpt lat="42.50265" lon="2.55042">
        <ele>1523</ele>
        <time>2024-09-19T11:15:46Z</time>
      </trkpt>
      <trkpt lat="42.50264" lon="2.55037">
        <ele>1522</ele>
        <time>2024-09-19T11:15:49Z</time>
      </trkpt>
      <trkpt lat="42.50264" lon="2.55032">
        <ele>1521</ele>
        <time>2024-09-19T11:15:51Z</time>
      </trkpt>
      <trkpt lat="42.50263" lon="2.55028">
        <ele>1520</ele>
        <time>2024-09-19T11:15:54Z</time>
      </trkpt>
      <trkpt lat="42.50262" lon="2.55024">
        <ele>1521</ele>
        <time>2024-09-19T11:15:56Z</time>
      </trkpt>
      <trkpt lat="42.50261" lon="2.55019">
        <ele>1519</ele>
        <time>2024-09-19T11:15:59Z</time>
      </trkpt>
      <trkpt lat="42.50261" lon="2.55013">
        <ele>1519</ele>
        <time>2024-09-19T11:16:03Z</time>
      </trkpt>
      <trkpt lat="42.5026" lon="2.55009">
        <ele>1519</ele>
        <time>2024-09-19T11:16:05Z</time>
      </trkpt>
      <trkpt lat="42.50259" lon="2.55004">
        <ele>1518</ele>
        <time>2024-09-19T11:16:08Z</time>
      </trkpt>
      <trkpt lat="42.50259" lon="2.55">
        <ele>1518</ele>
        <time>2024-09-19T11:16:10Z</time>
      </trkpt>
      <trkpt lat="42.5026" lon="2.54995">
        <ele>1518</ele>
        <time>2024-09-19T11:16:13Z</time>
      </trkpt>
      <trkpt lat="42.5026" lon="2.54991">
        <ele>1518</ele>
        <time>2024-09-19T11:16:16Z</time>
      </trkpt>
      <trkpt lat="42.50261" lon="2.54986">
        <ele>1517</ele>
        <time>2024-09-19T11:16:19Z</time>
      </trkpt>
      <trkpt lat="42.50262" lon="2.54982">
        <ele>1517</ele>
        <time>2024-09-19T11:16:22Z</time>
      </trkpt>
      <trkpt lat="42.50262" lon="2.54977">
        <ele>1517</ele>
        <time>2024-09-19T11:16:25Z</time>
      </trkpt>
      <trkpt lat="42.50262" lon="2.54972">
        <ele>1517</ele>
        <time>2024-09-19T11:16:27Z</time>
      </trkpt>
      <trkpt lat="42.50262" lon="2.54968">
        <ele>1517</ele>
        <time>2024-09-19T11:16:30Z</time>
      </trkpt>
      <trkpt lat="42.50263" lon="2.54963">
        <ele>1515</ele>
        <time>2024-09-19T11:16:33Z</time>
      </trkpt>
      <trkpt lat="42.50263" lon="2.54959">
        <ele>1515</ele>
        <time>2024-09-19T11:16:35Z</time>
      </trkpt>
      <trkpt lat="42.50264" lon="2.54955">
        <ele>1516</ele>
        <time>2024-09-19T11:16:37Z</time>
      </trkpt>
      <trkpt lat="42.50263" lon="2.54949">
        <ele>1514</ele>
        <time>2024-09-19T11:16:40Z</time>
      </trkpt>
      <trkpt lat="42.50263" lon="2.54944">
        <ele>1515</ele>
        <time>2024-09-19T11:16:43Z</time>
      </trkpt>
      <trkpt lat="42.50263" lon="2.54939">
        <ele>1514</ele>
        <time>2024-09-19T11:16:46Z</time>
      </trkpt>
      <trkpt lat="42.50262" lon="2.54935">
        <ele>1514</ele>
        <time>2024-09-19T11:16:48Z</time>
      </trkpt>
      <trkpt lat="42.5026" lon="2.54931">
        <ele>1513</ele>
        <time>2024-09-19T11:16:52Z</time>
      </trkpt>
      <trkpt lat="42.50257" lon="2.54929">
        <ele>1513</ele>
        <time>2024-09-19T11:16:56Z</time>
      </trkpt>
      <trkpt lat="42.50255" lon="2.54928">
        <ele>1513</ele>
        <time>2024-09-19T11:17:01Z</time>
      </trkpt>
      <trkpt lat="42.50253" lon="2.54929">
        <ele>1509</ele>
        <time>2024-09-19T11:17:14Z</time>
      </trkpt>
      <trkpt lat="42.5025" lon="2.54932">
        <ele>1508</ele>
        <time>2024-09-19T11:17:16Z</time>
      </trkpt>
      <trkpt lat="42.50248" lon="2.54934">
        <ele>1507</ele>
        <time>2024-09-19T11:17:19Z</time>
      </trkpt>
      <trkpt lat="42.50246" lon="2.54937">
        <ele>1507</ele>
        <time>2024-09-19T11:17:27Z</time>
      </trkpt>
      <trkpt lat="42.50244" lon="2.54937">
        <ele>1505</ele>
        <time>2024-09-19T11:17:35Z</time>
      </trkpt>
      <trkpt lat="42.50241" lon="2.54939">
        <ele>1501</ele>
        <time>2024-09-19T11:17:52Z</time>
      </trkpt>
      <trkpt lat="42.50239" lon="2.54942">
        <ele>1501</ele>
        <time>2024-09-19T11:17:54Z</time>
      </trkpt>
      <trkpt lat="42.50236" lon="2.54944">
        <ele>1502</ele>
        <time>2024-09-19T11:17:56Z</time>
      </trkpt>
      <trkpt lat="42.50233" lon="2.54947">
        <ele>1501</ele>
        <time>2024-09-19T11:17:58Z</time>
      </trkpt>
      <trkpt lat="42.50233" lon="2.54949">
        <ele>1501</ele>
        <time>2024-09-19T11:18:01Z</time>
      </trkpt>
      <trkpt lat="42.50233" lon="2.54953">
        <ele>1500</ele>
        <time>2024-09-19T11:18:04Z</time>
      </trkpt>
      <trkpt lat="42.50231" lon="2.54957">
        <ele>1501</ele>
        <time>2024-09-19T11:18:07Z</time>
      </trkpt>
      <trkpt lat="42.5023" lon="2.5496">
        <ele>1500</ele>
        <time>2024-09-19T11:18:09Z</time>
      </trkpt>
      <trkpt lat="42.50229" lon="2.54964">
        <ele>1500</ele>
        <time>2024-09-19T11:18:12Z</time>
      </trkpt>
      <trkpt lat="42.50227" lon="2.54968">
        <ele>1500</ele>
        <time>2024-09-19T11:18:14Z</time>
      </trkpt>
      <trkpt lat="42.50225" lon="2.5497">
        <ele>1500</ele>
        <time>2024-09-19T11:18:18Z</time>
      </trkpt>
      <trkpt lat="42.50224" lon="2.54968">
        <ele>1497</ele>
        <time>2024-09-19T11:18:22Z</time>
      </trkpt>
      <trkpt lat="42.50223" lon="2.54964">
        <ele>1497</ele>
        <time>2024-09-19T11:18:25Z</time>
      </trkpt>
      <trkpt lat="42.50222" lon="2.5496">
        <ele>1496</ele>
        <time>2024-09-19T11:18:30Z</time>
      </trkpt>
      <trkpt lat="42.50221" lon="2.54956">
        <ele>1495</ele>
        <time>2024-09-19T11:18:35Z</time>
      </trkpt>
      <trkpt lat="42.50219" lon="2.54952">
        <ele>1493</ele>
        <time>2024-09-19T11:18:40Z</time>
      </trkpt>
      <trkpt lat="42.50218" lon="2.54948">
        <ele>1493</ele>
        <time>2024-09-19T11:18:44Z</time>
      </trkpt>
      <trkpt lat="42.50216" lon="2.54946">
        <ele>1493</ele>
        <time>2024-09-19T11:18:54Z</time>
      </trkpt>
      <trkpt lat="42.50214" lon="2.54948">
        <ele>1493</ele>
        <time>2024-09-19T11:18:57Z</time>
      </trkpt>
      <trkpt lat="42.50213" lon="2.54951">
        <ele>1492</ele>
        <time>2024-09-19T11:19:00Z</time>
      </trkpt>
      <trkpt lat="42.50211" lon="2.54954">
        <ele>1492</ele>
        <time>2024-09-19T11:19:03Z</time>
      </trkpt>
      <trkpt lat="42.50208" lon="2.54958">
        <ele>1492</ele>
        <time>2024-09-19T11:19:05Z</time>
      </trkpt>
      <trkpt lat="42.50206" lon="2.54962">
        <ele>1491</ele>
        <time>2024-09-19T11:19:08Z</time>
      </trkpt>
      <trkpt lat="42.50206" lon="2.54961">
        <ele>1488</ele>
        <time>2024-09-19T11:19:12Z</time>
      </trkpt>
      <trkpt lat="42.50206" lon="2.54958">
        <ele>1487</ele>
        <time>2024-09-19T11:19:15Z</time>
      </trkpt>
      <trkpt lat="42.50205" lon="2.54955">
        <ele>1486</ele>
        <time>2024-09-19T11:19:18Z</time>
      </trkpt>
      <trkpt lat="42.50206" lon="2.54951">
        <ele>1484</ele>
        <time>2024-09-19T11:19:22Z</time>
      </trkpt>
      <trkpt lat="42.50209" lon="2.54953">
        <ele>1490</ele>
        <time>2024-09-19T11:19:57Z</time>
      </trkpt>
      <trkpt lat="42.5021" lon="2.5495">
        <ele>1488</ele>
        <time>2024-09-19T11:20:00Z</time>
      </trkpt>
      <trkpt lat="42.5021" lon="2.54946">
        <ele>1487</ele>
        <time>2024-09-19T11:20:02Z</time>
      </trkpt>
      <trkpt lat="42.50209" lon="2.54942">
        <ele>1487</ele>
        <time>2024-09-19T11:20:04Z</time>
      </trkpt>
      <trkpt lat="42.5021" lon="2.54938">
        <ele>1486</ele>
        <time>2024-09-19T11:20:08Z</time>
      </trkpt>
      <trkpt lat="42.50208" lon="2.54934">
        <ele>1485</ele>
        <time>2024-09-19T11:20:13Z</time>
      </trkpt>
      <trkpt lat="42.50206" lon="2.54935">
        <ele>1487</ele>
        <time>2024-09-19T11:20:17Z</time>
      </trkpt>
      <trkpt lat="42.50206" lon="2.54932">
        <ele>1487</ele>
        <time>2024-09-19T11:20:20Z</time>
      </trkpt>
      <trkpt lat="42.50207" lon="2.54928">
        <ele>1487</ele>
        <time>2024-09-19T11:20:23Z</time>
      </trkpt>
      <trkpt lat="42.50207" lon="2.54923">
        <ele>1486</ele>
        <time>2024-09-19T11:20:26Z</time>
      </trkpt>
      <trkpt lat="42.50208" lon="2.54919">
        <ele>1487</ele>
        <time>2024-09-19T11:20:28Z</time>
      </trkpt>
      <trkpt lat="42.50208" lon="2.54915">
        <ele>1485</ele>
        <time>2024-09-19T11:20:30Z</time>
      </trkpt>
      <trkpt lat="42.50208" lon="2.54911">
        <ele>1486</ele>
        <time>2024-09-19T11:20:33Z</time>
      </trkpt>
      <trkpt lat="42.50208" lon="2.54906">
        <ele>1484</ele>
        <time>2024-09-19T11:20:36Z</time>
      </trkpt>
      <trkpt lat="42.50208" lon="2.54902">
        <ele>1485</ele>
        <time>2024-09-19T11:20:38Z</time>
      </trkpt>
      <trkpt lat="42.50207" lon="2.54898">
        <ele>1486</ele>
        <time>2024-09-19T11:20:40Z</time>
      </trkpt>
      <trkpt lat="42.50207" lon="2.54894">
        <ele>1486</ele>
        <time>2024-09-19T11:20:43Z</time>
      </trkpt>
      <trkpt lat="42.50206" lon="2.5489">
        <ele>1485</ele>
        <time>2024-09-19T11:20:46Z</time>
      </trkpt>
      <trkpt lat="42.50205" lon="2.54885">
        <ele>1486</ele>
        <time>2024-09-19T11:20:49Z</time>
      </trkpt>
      <trkpt lat="42.50203" lon="2.54881">
        <ele>1485</ele>
        <time>2024-09-19T11:20:52Z</time>
      </trkpt>
      <trkpt lat="42.50202" lon="2.54877">
        <ele>1485</ele>
        <time>2024-09-19T11:20:54Z</time>
      </trkpt>
      <trkpt lat="42.502" lon="2.54873">
        <ele>1486</ele>
        <time>2024-09-19T11:20:56Z</time>
      </trkpt>
      <trkpt lat="42.50199" lon="2.54869">
        <ele>1485</ele>
        <time>2024-09-19T11:20:59Z</time>
      </trkpt>
      <trkpt lat="42.50199" lon="2.54865">
        <ele>1485</ele>
        <time>2024-09-19T11:21:02Z</time>
      </trkpt>
      <trkpt lat="42.50199" lon="2.54861">
        <ele>1484</ele>
        <time>2024-09-19T11:21:05Z</time>
      </trkpt>
      <trkpt lat="42.50198" lon="2.54856">
        <ele>1484</ele>
        <time>2024-09-19T11:21:07Z</time>
      </trkpt>
      <trkpt lat="42.50197" lon="2.54851">
        <ele>1484</ele>
        <time>2024-09-19T11:21:10Z</time>
      </trkpt>
      <trkpt lat="42.50197" lon="2.54846">
        <ele>1482</ele>
        <time>2024-09-19T11:21:12Z</time>
      </trkpt>
      <trkpt lat="42.50196" lon="2.54842">
        <ele>1482</ele>
        <time>2024-09-19T11:21:14Z</time>
      </trkpt>
      <trkpt lat="42.50195" lon="2.54838">
        <ele>1482</ele>
        <time>2024-09-19T11:21:16Z</time>
      </trkpt>
      <trkpt lat="42.50194" lon="2.54833">
        <ele>1483</ele>
        <time>2024-09-19T11:21:19Z</time>
      </trkpt>
      <trkpt lat="42.50194" lon="2.54829">
        <ele>1484</ele>
        <time>2024-09-19T11:21:21Z</time>
      </trkpt>
      <trkpt lat="42.50193" lon="2.54825">
        <ele>1483</ele>
        <time>2024-09-19T11:21:23Z</time>
      </trkpt>
      <trkpt lat="42.50192" lon="2.54821">
        <ele>1483</ele>
        <time>2024-09-19T11:21:27Z</time>
      </trkpt>
      <trkpt lat="42.50192" lon="2.54816">
        <ele>1482</ele>
        <time>2024-09-19T11:21:31Z</time>
      </trkpt>
      <trkpt lat="42.50192" lon="2.5481">
        <ele>1481</ele>
        <time>2024-09-19T11:21:34Z</time>
      </trkpt>
      <trkpt lat="42.50192" lon="2.54805">
        <ele>1481</ele>
        <time>2024-09-19T11:21:37Z</time>
      </trkpt>
      <trkpt lat="42.50192" lon="2.548">
        <ele>1479</ele>
        <time>2024-09-19T11:21:40Z</time>
      </trkpt>
      <trkpt lat="42.50191" lon="2.54795">
        <ele>1478</ele>
        <time>2024-09-19T11:21:43Z</time>
      </trkpt>
      <trkpt lat="42.50192" lon="2.54791">
        <ele>1478</ele>
        <time>2024-09-19T11:21:45Z</time>
      </trkpt>
      <trkpt lat="42.50192" lon="2.54787">
        <ele>1477</ele>
        <time>2024-09-19T11:21:47Z</time>
      </trkpt>
      <trkpt lat="42.50192" lon="2.54782">
        <ele>1478</ele>
        <time>2024-09-19T11:21:49Z</time>
      </trkpt>
      <trkpt lat="42.50192" lon="2.54778">
        <ele>1478</ele>
        <time>2024-09-19T11:21:51Z</time>
      </trkpt>
      <trkpt lat="42.50191" lon="2.54774">
        <ele>1478</ele>
        <time>2024-09-19T11:21:54Z</time>
      </trkpt>
      <trkpt lat="42.50191" lon="2.54769">
        <ele>1479</ele>
        <time>2024-09-19T11:21:56Z</time>
      </trkpt>
      <trkpt lat="42.50191" lon="2.54765">
        <ele>1478</ele>
        <time>2024-09-19T11:21:58Z</time>
      </trkpt>
      <trkpt lat="42.5019" lon="2.54761">
        <ele>1478</ele>
        <time>2024-09-19T11:22:00Z</time>
      </trkpt>
      <trkpt lat="42.50189" lon="2.54758">
        <ele>1478</ele>
        <time>2024-09-19T11:22:02Z</time>
      </trkpt>
      <trkpt lat="42.50189" lon="2.54754">
        <ele>1479</ele>
        <time>2024-09-19T11:22:04Z</time>
      </trkpt>
      <trkpt lat="42.50189" lon="2.5475">
        <ele>1479</ele>
        <time>2024-09-19T11:22:06Z</time>
      </trkpt>
      <trkpt lat="42.50188" lon="2.54746">
        <ele>1479</ele>
        <time>2024-09-19T11:22:08Z</time>
      </trkpt>
      <trkpt lat="42.50186" lon="2.54743">
        <ele>1479</ele>
        <time>2024-09-19T11:22:09Z</time>
      </trkpt>
      <trkpt lat="42.50184" lon="2.5474">
        <ele>1479</ele>
        <time>2024-09-19T11:22:11Z</time>
      </trkpt>
      <trkpt lat="42.5018" lon="2.54739">
        <ele>1479</ele>
        <time>2024-09-19T11:22:13Z</time>
      </trkpt>
      <trkpt lat="42.50178" lon="2.54741">
        <ele>1479</ele>
        <time>2024-09-19T11:22:15Z</time>
      </trkpt>
      <trkpt lat="42.50176" lon="2.54745">
        <ele>1478</ele>
        <time>2024-09-19T11:22:17Z</time>
      </trkpt>
      <trkpt lat="42.50175" lon="2.54749">
        <ele>1477</ele>
        <time>2024-09-19T11:22:19Z</time>
      </trkpt>
      <trkpt lat="42.50175" lon="2.54753">
        <ele>1476</ele>
        <time>2024-09-19T11:22:21Z</time>
      </trkpt>
      <trkpt lat="42.50174" lon="2.54756">
        <ele>1475</ele>
        <time>2024-09-19T11:22:23Z</time>
      </trkpt>
      <trkpt lat="42.50174" lon="2.5476">
        <ele>1475</ele>
        <time>2024-09-19T11:22:25Z</time>
      </trkpt>
      <trkpt lat="42.50174" lon="2.54765">
        <ele>1475</ele>
        <time>2024-09-19T11:22:28Z</time>
      </trkpt>
      <trkpt lat="42.50174" lon="2.54769">
        <ele>1475</ele>
        <time>2024-09-19T11:22:30Z</time>
      </trkpt>
      <trkpt lat="42.50173" lon="2.54773">
        <ele>1474</ele>
        <time>2024-09-19T11:22:32Z</time>
      </trkpt>
      <trkpt lat="42.50173" lon="2.54777">
        <ele>1474</ele>
        <time>2024-09-19T11:22:34Z</time>
      </trkpt>
      <trkpt lat="42.50173" lon="2.54782">
        <ele>1474</ele>
        <time>2024-09-19T11:22:37Z</time>
      </trkpt>
      <trkpt lat="42.50171" lon="2.54785">
        <ele>1476</ele>
        <time>2024-09-19T11:22:40Z</time>
      </trkpt>
      <trkpt lat="42.50171" lon="2.54789">
        <ele>1476</ele>
        <time>2024-09-19T11:22:42Z</time>
      </trkpt>
      <trkpt lat="42.50171" lon="2.54794">
        <ele>1475</ele>
        <time>2024-09-19T11:22:45Z</time>
      </trkpt>
      <trkpt lat="42.50171" lon="2.54798">
        <ele>1475</ele>
        <time>2024-09-19T11:22:47Z</time>
      </trkpt>
      <trkpt lat="42.50171" lon="2.54803">
        <ele>1474</ele>
        <time>2024-09-19T11:22:50Z</time>
      </trkpt>
      <trkpt lat="42.5017" lon="2.54807">
        <ele>1473</ele>
        <time>2024-09-19T11:22:52Z</time>
      </trkpt>
      <trkpt lat="42.50169" lon="2.54812">
        <ele>1473</ele>
        <time>2024-09-19T11:22:55Z</time>
      </trkpt>
      <trkpt lat="42.50168" lon="2.54817">
        <ele>1472</ele>
        <time>2024-09-19T11:22:58Z</time>
      </trkpt>
      <trkpt lat="42.50167" lon="2.54821">
        <ele>1472</ele>
        <time>2024-09-19T11:23:01Z</time>
      </trkpt>
      <trkpt lat="42.50166" lon="2.54826">
        <ele>1472</ele>
        <time>2024-09-19T11:23:04Z</time>
      </trkpt>
      <trkpt lat="42.50166" lon="2.5483">
        <ele>1473</ele>
        <time>2024-09-19T11:23:06Z</time>
      </trkpt>
      <trkpt lat="42.50167" lon="2.54835">
        <ele>1473</ele>
        <time>2024-09-19T11:23:09Z</time>
      </trkpt>
      <trkpt lat="42.50168" lon="2.54839">
        <ele>1474</ele>
        <time>2024-09-19T11:23:12Z</time>
      </trkpt>
      <trkpt lat="42.50169" lon="2.54838">
        <ele>1475</ele>
        <time>2024-09-19T11:23:14Z</time>
      </trkpt>
      <trkpt lat="42.5017" lon="2.54834">
        <ele>1475</ele>
        <time>2024-09-19T11:23:16Z</time>
      </trkpt>
      <trkpt lat="42.50171" lon="2.54832">
        <ele>1470</ele>
        <time>2024-09-19T11:23:33Z</time>
      </trkpt>
      <trkpt lat="42.50172" lon="2.54833">
        <ele>1470</ele>
        <time>2024-09-19T11:23:53Z</time>
      </trkpt>
      <trkpt lat="42.50173" lon="2.54836">
        <ele>1469</ele>
        <time>2024-09-19T11:24:02Z</time>
      </trkpt>
      <trkpt lat="42.50171" lon="2.54824">
        <ele>1471</ele>
        <time>2024-09-19T11:24:03Z</time>
      </trkpt>
      <trkpt lat="42.50171" lon="2.54816">
        <ele>1470</ele>
        <time>2024-09-19T11:24:04Z</time>
      </trkpt>
      <trkpt lat="42.5017" lon="2.5481">
        <ele>1471</ele>
        <time>2024-09-19T11:24:05Z</time>
      </trkpt>
      <trkpt lat="42.5017" lon="2.54805">
        <ele>1471</ele>
        <time>2024-09-19T11:24:06Z</time>
      </trkpt>
      <trkpt lat="42.50171" lon="2.54814">
        <ele>1470</ele>
        <time>2024-09-19T11:24:07Z</time>
      </trkpt>
      <trkpt lat="42.50171" lon="2.54824">
        <ele>1471</ele>
        <time>2024-09-19T11:24:11Z</time>
      </trkpt>
      <trkpt lat="42.5018" lon="2.54839">
        <ele>1476</ele>
        <time>2024-09-19T11:24:18Z</time>
      </trkpt>
      <trkpt lat="42.50174" lon="2.54835">
        <ele>1471</ele>
        <time>2024-09-19T11:25:20Z</time>
      </trkpt>
      <trkpt lat="42.50178" lon="2.54849">
        <ele>1474</ele>
        <time>2024-09-19T11:28:23Z</time>
      </trkpt>
      <trkpt lat="42.50173" lon="2.54845">
        <ele>1475</ele>
        <time>2024-09-19T11:28:28Z</time>
      </trkpt>
      <trkpt lat="42.50173" lon="2.54837">
        <ele>1473</ele>
        <time>2024-09-19T11:28:29Z</time>
      </trkpt>
      <trkpt lat="42.50174" lon="2.54835">
        <ele>1472</ele>
        <time>2024-09-19T11:28:31Z</time>
      </trkpt>
      <trkpt lat="42.50174" lon="2.54831">
        <ele>1476</ele>
        <time>2024-09-19T11:28:33Z</time>
      </trkpt>
      <trkpt lat="42.50173" lon="2.54827">
        <ele>1475</ele>
        <time>2024-09-19T11:28:39Z</time>
      </trkpt>
      <trkpt lat="42.50171" lon="2.54827">
        <ele>1475</ele>
        <time>2024-09-19T11:28:42Z</time>
      </trkpt>
      <trkpt lat="42.50171" lon="2.54829">
        <ele>1472</ele>
        <time>2024-09-19T11:28:50Z</time>
      </trkpt>
      <trkpt lat="42.50173" lon="2.54829">
        <ele>1473</ele>
        <time>2024-09-19T11:29:39Z</time>
      </trkpt>
      <trkpt lat="42.50172" lon="2.54829">
        <ele>1472</ele>
        <time>2024-09-19T11:30:16Z</time>
      </trkpt>
      <trkpt lat="42.50171" lon="2.54831">
        <ele>1475</ele>
        <time>2024-09-19T11:33:11Z</time>
      </trkpt>
      <trkpt lat="42.5017" lon="2.54829">
        <ele>1477</ele>
        <time>2024-09-19T11:40:18Z</time>
      </trkpt>
      <trkpt lat="42.50169" lon="2.54831">
        <ele>1476</ele>
        <time>2024-09-19T11:40:40Z</time>
      </trkpt>
      <trkpt lat="42.50168" lon="2.5483">
        <ele>1473</ele>
        <time>2024-09-19T11:41:04Z</time>
      </trkpt>
      <trkpt lat="42.50168" lon="2.54827">
        <ele>1474</ele>
        <time>2024-09-19T11:41:21Z</time>
      </trkpt>
      <trkpt lat="42.50169" lon="2.54828">
        <ele>1473</ele>
        <time>2024-09-19T11:41:28Z</time>
      </trkpt>
      <trkpt lat="42.50171" lon="2.54829">
        <ele>1472</ele>
        <time>2024-09-19T11:41:46Z</time>
      </trkpt>
      <trkpt lat="42.5017" lon="2.54828">
        <ele>1473</ele>
        <time>2024-09-19T11:41:58Z</time>
      </trkpt>
      <trkpt lat="42.50171" lon="2.54829">
        <ele>1474</ele>
        <time>2024-09-19T11:42:01Z</time>
      </trkpt>
      <trkpt lat="42.50172" lon="2.54831">
        <ele>1473</ele>
        <time>2024-09-19T11:42:06Z</time>
      </trkpt>
      <trkpt lat="42.50173" lon="2.54834">
        <ele>1473</ele>
        <time>2024-09-19T11:42:09Z</time>
      </trkpt>
      <trkpt lat="42.50174" lon="2.54838">
        <ele>1474</ele>
        <time>2024-09-19T11:42:10Z</time>
      </trkpt>
      <trkpt lat="42.50174" lon="2.54842">
        <ele>1474</ele>
        <time>2024-09-19T11:42:14Z</time>
      </trkpt>
      <trkpt lat="42.50177" lon="2.54855">
        <ele>1474</ele>
        <time>2024-09-19T11:42:23Z</time>
      </trkpt>
      <trkpt lat="42.50177" lon="2.54861">
        <ele>1474</ele>
        <time>2024-09-19T11:42:25Z</time>
      </trkpt>
      <trkpt lat="42.50176" lon="2.54858">
        <ele>1474</ele>
        <time>2024-09-19T11:42:28Z</time>
      </trkpt>
      <trkpt lat="42.50175" lon="2.5486">
        <ele>1474</ele>
        <time>2024-09-19T11:42:46Z</time>
      </trkpt>
      <trkpt lat="42.50174" lon="2.54858">
        <ele>1474</ele>
        <time>2024-09-19T11:42:49Z</time>
      </trkpt>
      <trkpt lat="42.50173" lon="2.54854">
        <ele>1474</ele>
        <time>2024-09-19T11:43:39Z</time>
      </trkpt>
      <trkpt lat="42.50172" lon="2.54855">
        <ele>1473</ele>
        <time>2024-09-19T11:44:16Z</time>
      </trkpt>
      <trkpt lat="42.50167" lon="2.54852">
        <ele>1473</ele>
        <time>2024-09-19T11:44:38Z</time>
      </trkpt>
      <trkpt lat="42.50166" lon="2.54854">
        <ele>1473</ele>
        <time>2024-09-19T11:44:52Z</time>
      </trkpt>
      <trkpt lat="42.50166" lon="2.54833">
        <ele>1476</ele>
        <time>2024-09-19T11:46:10Z</time>
      </trkpt>
      <trkpt lat="42.50166" lon="2.54828">
        <ele>1474</ele>
        <time>2024-09-19T11:46:10Z</time>
      </trkpt>
      <trkpt lat="42.50165" lon="2.54823">
        <ele>1478</ele>
        <time>2024-09-19T11:46:11Z</time>
      </trkpt>
      <trkpt lat="42.50166" lon="2.54824">
        <ele>1476</ele>
        <time>2024-09-19T11:46:12Z</time>
      </trkpt>
      <trkpt lat="42.50168" lon="2.54826">
        <ele>1473</ele>
        <time>2024-09-19T11:46:18Z</time>
      </trkpt>
      <trkpt lat="42.50168" lon="2.54825">
        <ele>1477</ele>
        <time>2024-09-19T11:46:40Z</time>
      </trkpt>
      <trkpt lat="42.50168" lon="2.54827">
        <ele>1476</ele>
        <time>2024-09-19T11:47:14Z</time>
      </trkpt>
      <trkpt lat="42.50169" lon="2.5483">
        <ele>1478</ele>
        <time>2024-09-19T11:47:29Z</time>
      </trkpt>
      <trkpt lat="42.50168" lon="2.54831">
        <ele>1477</ele>
        <time>2024-09-19T11:47:45Z</time>
      </trkpt>
      <trkpt lat="42.50167" lon="2.54835">
        <ele>1476</ele>
        <time>2024-09-19T11:47:50Z</time>
      </trkpt>
      <trkpt lat="42.50167" lon="2.54839">
        <ele>1476</ele>
        <time>2024-09-19T11:47:52Z</time>
      </trkpt>
      <trkpt lat="42.50166" lon="2.54843">
        <ele>1476</ele>
        <time>2024-09-19T11:47:55Z</time>
      </trkpt>
      <trkpt lat="42.50166" lon="2.54847">
        <ele>1475</ele>
        <time>2024-09-19T11:48:00Z</time>
      </trkpt>
      <trkpt lat="42.50166" lon="2.54852">
        <ele>1474</ele>
        <time>2024-09-19T11:48:02Z</time>
      </trkpt>
      <trkpt lat="42.50166" lon="2.54856">
        <ele>1475</ele>
        <time>2024-09-19T11:48:04Z</time>
      </trkpt>
      <trkpt lat="42.50166" lon="2.5486">
        <ele>1475</ele>
        <time>2024-09-19T11:48:06Z</time>
      </trkpt>
      <trkpt lat="42.50166" lon="2.54865">
        <ele>1474</ele>
        <time>2024-09-19T11:48:09Z</time>
      </trkpt>
      <trkpt lat="42.50166" lon="2.5487">
        <ele>1475</ele>
        <time>2024-09-19T11:48:12Z</time>
      </trkpt>
      <trkpt lat="42.50167" lon="2.54875">
        <ele>1474</ele>
        <time>2024-09-19T11:48:15Z</time>
      </trkpt>
      <trkpt lat="42.50166" lon="2.5488">
        <ele>1474</ele>
        <time>2024-09-19T11:48:18Z</time>
      </trkpt>
      <trkpt lat="42.50166" lon="2.54885">
        <ele>1474</ele>
        <time>2024-09-19T11:48:21Z</time>
      </trkpt>
      <trkpt lat="42.50165" lon="2.54891">
        <ele>1474</ele>
        <time>2024-09-19T11:48:24Z</time>
      </trkpt>
      <trkpt lat="42.50165" lon="2.54896">
        <ele>1474</ele>
        <time>2024-09-19T11:48:28Z</time>
      </trkpt>
      <trkpt lat="42.50165" lon="2.54901">
        <ele>1473</ele>
        <time>2024-09-19T11:48:31Z</time>
      </trkpt>
      <trkpt lat="42.50165" lon="2.54905">
        <ele>1473</ele>
        <time>2024-09-19T11:48:33Z</time>
      </trkpt>
      <trkpt lat="42.50165" lon="2.5491">
        <ele>1473</ele>
        <time>2024-09-19T11:48:36Z</time>
      </trkpt>
      <trkpt lat="42.50164" lon="2.54914">
        <ele>1473</ele>
        <time>2024-09-19T11:48:38Z</time>
      </trkpt>
      <trkpt lat="42.50164" lon="2.54918">
        <ele>1472</ele>
        <time>2024-09-19T11:48:41Z</time>
      </trkpt>
      <trkpt lat="42.50164" lon="2.54924">
        <ele>1472</ele>
        <time>2024-09-19T11:48:44Z</time>
      </trkpt>
      <trkpt lat="42.50164" lon="2.54928">
        <ele>1471</ele>
        <time>2024-09-19T11:48:47Z</time>
      </trkpt>
      <trkpt lat="42.50163" lon="2.54933">
        <ele>1471</ele>
        <time>2024-09-19T11:48:50Z</time>
      </trkpt>
      <trkpt lat="42.50162" lon="2.54936">
        <ele>1472</ele>
        <time>2024-09-19T11:49:00Z</time>
      </trkpt>
      <trkpt lat="42.50161" lon="2.54941">
        <ele>1471</ele>
        <time>2024-09-19T11:49:03Z</time>
      </trkpt>
      <trkpt lat="42.5016" lon="2.54946">
        <ele>1471</ele>
        <time>2024-09-19T11:49:06Z</time>
      </trkpt>
      <trkpt lat="42.50159" lon="2.5495">
        <ele>1470</ele>
        <time>2024-09-19T11:49:09Z</time>
      </trkpt>
      <trkpt lat="42.50158" lon="2.54955">
        <ele>1469</ele>
        <time>2024-09-19T11:49:12Z</time>
      </trkpt>
      <trkpt lat="42.50157" lon="2.54959">
        <ele>1469</ele>
        <time>2024-09-19T11:49:15Z</time>
      </trkpt>
      <trkpt lat="42.50156" lon="2.54964">
        <ele>1468</ele>
        <time>2024-09-19T11:49:18Z</time>
      </trkpt>
      <trkpt lat="42.50155" lon="2.54968">
        <ele>1468</ele>
        <time>2024-09-19T11:49:20Z</time>
      </trkpt>
      <trkpt lat="42.50154" lon="2.54971">
        <ele>1468</ele>
        <time>2024-09-19T11:49:22Z</time>
      </trkpt>
      <trkpt lat="42.50154" lon="2.54976">
        <ele>1467</ele>
        <time>2024-09-19T11:49:25Z</time>
      </trkpt>
      <trkpt lat="42.50153" lon="2.5498">
        <ele>1467</ele>
        <time>2024-09-19T11:49:28Z</time>
      </trkpt>
      <trkpt lat="42.50152" lon="2.54983">
        <ele>1465</ele>
        <time>2024-09-19T11:49:31Z</time>
      </trkpt>
      <trkpt lat="42.50151" lon="2.54988">
        <ele>1464</ele>
        <time>2024-09-19T11:49:34Z</time>
      </trkpt>
      <trkpt lat="42.50149" lon="2.54992">
        <ele>1464</ele>
        <time>2024-09-19T11:49:38Z</time>
      </trkpt>
      <trkpt lat="42.50147" lon="2.54996">
        <ele>1464</ele>
        <time>2024-09-19T11:49:41Z</time>
      </trkpt>
      <trkpt lat="42.50146" lon="2.55">
        <ele>1463</ele>
        <time>2024-09-19T11:49:43Z</time>
      </trkpt>
      <trkpt lat="42.50145" lon="2.55005">
        <ele>1463</ele>
        <time>2024-09-19T11:49:45Z</time>
      </trkpt>
      <trkpt lat="42.50144" lon="2.55009">
        <ele>1462</ele>
        <time>2024-09-19T11:49:48Z</time>
      </trkpt>
      <trkpt lat="42.50144" lon="2.55013">
        <ele>1463</ele>
        <time>2024-09-19T11:49:50Z</time>
      </trkpt>
      <trkpt lat="42.50142" lon="2.55018">
        <ele>1463</ele>
        <time>2024-09-19T11:49:53Z</time>
      </trkpt>
      <trkpt lat="42.50141" lon="2.55022">
        <ele>1463</ele>
        <time>2024-09-19T11:49:55Z</time>
      </trkpt>
      <trkpt lat="42.50141" lon="2.55026">
        <ele>1464</ele>
        <time>2024-09-19T11:49:57Z</time>
      </trkpt>
      <trkpt lat="42.50139" lon="2.55031">
        <ele>1463</ele>
        <time>2024-09-19T11:50:00Z</time>
      </trkpt>
      <trkpt lat="42.50138" lon="2.55035">
        <ele>1463</ele>
        <time>2024-09-19T11:50:02Z</time>
      </trkpt>
      <trkpt lat="42.50138" lon="2.55039">
        <ele>1461</ele>
        <time>2024-09-19T11:50:05Z</time>
      </trkpt>
      <trkpt lat="42.50137" lon="2.55043">
        <ele>1461</ele>
        <time>2024-09-19T11:50:07Z</time>
      </trkpt>
      <trkpt lat="42.50136" lon="2.55047">
        <ele>1461</ele>
        <time>2024-09-19T11:50:10Z</time>
      </trkpt>
      <trkpt lat="42.50135" lon="2.55052">
        <ele>1461</ele>
        <time>2024-09-19T11:50:13Z</time>
      </trkpt>
      <trkpt lat="42.50134" lon="2.55057">
        <ele>1461</ele>
        <time>2024-09-19T11:50:15Z</time>
      </trkpt>
      <trkpt lat="42.50132" lon="2.5506">
        <ele>1461</ele>
        <time>2024-09-19T11:50:17Z</time>
      </trkpt>
      <trkpt lat="42.5013" lon="2.55063">
        <ele>1460</ele>
        <time>2024-09-19T11:50:19Z</time>
      </trkpt>
      <trkpt lat="42.50129" lon="2.55066">
        <ele>1458</ele>
        <time>2024-09-19T11:50:21Z</time>
      </trkpt>
      <trkpt lat="42.50128" lon="2.5507">
        <ele>1460</ele>
        <time>2024-09-19T11:50:23Z</time>
      </trkpt>
      <trkpt lat="42.50127" lon="2.55074">
        <ele>1460</ele>
        <time>2024-09-19T11:50:25Z</time>
      </trkpt>
      <trkpt lat="42.50126" lon="2.55078">
        <ele>1460</ele>
        <time>2024-09-19T11:50:27Z</time>
      </trkpt>
      <trkpt lat="42.50124" lon="2.55081">
        <ele>1460</ele>
        <time>2024-09-19T11:50:29Z</time>
      </trkpt>
      <trkpt lat="42.50123" lon="2.55085">
        <ele>1460</ele>
        <time>2024-09-19T11:50:32Z</time>
      </trkpt>
      <trkpt lat="42.50122" lon="2.55089">
        <ele>1459</ele>
        <time>2024-09-19T11:50:35Z</time>
      </trkpt>
      <trkpt lat="42.50121" lon="2.55093">
        <ele>1459</ele>
        <time>2024-09-19T11:50:37Z</time>
      </trkpt>
      <trkpt lat="42.5012" lon="2.55097">
        <ele>1460</ele>
        <time>2024-09-19T11:50:39Z</time>
      </trkpt>
      <trkpt lat="42.50119" lon="2.55101">
        <ele>1461</ele>
        <time>2024-09-19T11:50:41Z</time>
      </trkpt>
      <trkpt lat="42.50119" lon="2.55104">
        <ele>1461</ele>
        <time>2024-09-19T11:50:43Z</time>
      </trkpt>
      <trkpt lat="42.50119" lon="2.55108">
        <ele>1460</ele>
        <time>2024-09-19T11:50:45Z</time>
      </trkpt>
      <trkpt lat="42.50118" lon="2.55113">
        <ele>1459</ele>
        <time>2024-09-19T11:50:48Z</time>
      </trkpt>
      <trkpt lat="42.50116" lon="2.55117">
        <ele>1459</ele>
        <time>2024-09-19T11:50:50Z</time>
      </trkpt>
      <trkpt lat="42.50116" lon="2.55121">
        <ele>1460</ele>
        <time>2024-09-19T11:50:52Z</time>
      </trkpt>
      <trkpt lat="42.50115" lon="2.55124">
        <ele>1459</ele>
        <time>2024-09-19T11:50:54Z</time>
      </trkpt>
      <trkpt lat="42.50114" lon="2.55128">
        <ele>1458</ele>
        <time>2024-09-19T11:50:56Z</time>
      </trkpt>
      <trkpt lat="42.50113" lon="2.55132">
        <ele>1457</ele>
        <time>2024-09-19T11:50:59Z</time>
      </trkpt>
      <trkpt lat="42.50112" lon="2.55137">
        <ele>1457</ele>
        <time>2024-09-19T11:51:02Z</time>
      </trkpt>
      <trkpt lat="42.50112" lon="2.55142">
        <ele>1456</ele>
        <time>2024-09-19T11:51:04Z</time>
      </trkpt>
      <trkpt lat="42.50111" lon="2.55147">
        <ele>1454</ele>
        <time>2024-09-19T11:51:07Z</time>
      </trkpt>
      <trkpt lat="42.5011" lon="2.55151">
        <ele>1454</ele>
        <time>2024-09-19T11:51:09Z</time>
      </trkpt>
      <trkpt lat="42.50109" lon="2.55155">
        <ele>1453</ele>
        <time>2024-09-19T11:51:12Z</time>
      </trkpt>
      <trkpt lat="42.50109" lon="2.55159">
        <ele>1451</ele>
        <time>2024-09-19T11:51:15Z</time>
      </trkpt>
      <trkpt lat="42.50109" lon="2.55164">
        <ele>1450</ele>
        <time>2024-09-19T11:51:19Z</time>
      </trkpt>
      <trkpt lat="42.50109" lon="2.55167">
        <ele>1450</ele>
        <time>2024-09-19T11:51:22Z</time>
      </trkpt>
      <trkpt lat="42.50108" lon="2.55171">
        <ele>1449</ele>
        <time>2024-09-19T11:51:24Z</time>
      </trkpt>
      <trkpt lat="42.50108" lon="2.55176">
        <ele>1450</ele>
        <time>2024-09-19T11:51:26Z</time>
      </trkpt>
      <trkpt lat="42.50107" lon="2.5518">
        <ele>1449</ele>
        <time>2024-09-19T11:51:28Z</time>
      </trkpt>
      <trkpt lat="42.50106" lon="2.55184">
        <ele>1448</ele>
        <time>2024-09-19T11:51:30Z</time>
      </trkpt>
      <trkpt lat="42.50105" lon="2.55189">
        <ele>1449</ele>
        <time>2024-09-19T11:51:33Z</time>
      </trkpt>
      <trkpt lat="42.50105" lon="2.55194">
        <ele>1448</ele>
        <time>2024-09-19T11:51:35Z</time>
      </trkpt>
      <trkpt lat="42.50105" lon="2.55199">
        <ele>1448</ele>
        <time>2024-09-19T11:51:38Z</time>
      </trkpt>
      <trkpt lat="42.50104" lon="2.55204">
        <ele>1446</ele>
        <time>2024-09-19T11:51:42Z</time>
      </trkpt>
      <trkpt lat="42.50103" lon="2.55208">
        <ele>1446</ele>
        <time>2024-09-19T11:51:44Z</time>
      </trkpt>
      <trkpt lat="42.50102" lon="2.55212">
        <ele>1447</ele>
        <time>2024-09-19T11:51:46Z</time>
      </trkpt>
      <trkpt lat="42.50102" lon="2.55215">
        <ele>1446</ele>
        <time>2024-09-19T11:51:48Z</time>
      </trkpt>
      <trkpt lat="42.50102" lon="2.55219">
        <ele>1445</ele>
        <time>2024-09-19T11:51:50Z</time>
      </trkpt>
      <trkpt lat="42.50102" lon="2.55224">
        <ele>1443</ele>
        <time>2024-09-19T11:51:53Z</time>
      </trkpt>
      <trkpt lat="42.50101" lon="2.55229">
        <ele>1444</ele>
        <time>2024-09-19T11:51:55Z</time>
      </trkpt>
      <trkpt lat="42.501" lon="2.55233">
        <ele>1441</ele>
        <time>2024-09-19T11:51:57Z</time>
      </trkpt>
      <trkpt lat="42.501" lon="2.55238">
        <ele>1442</ele>
        <time>2024-09-19T11:52:00Z</time>
      </trkpt>
      <trkpt lat="42.50099" lon="2.55243">
        <ele>1442</ele>
        <time>2024-09-19T11:52:02Z</time>
      </trkpt>
      <trkpt lat="42.50099" lon="2.55247">
        <ele>1442</ele>
        <time>2024-09-19T11:52:04Z</time>
      </trkpt>
      <trkpt lat="42.50098" lon="2.55251">
        <ele>1440</ele>
        <time>2024-09-19T11:52:07Z</time>
      </trkpt>
      <trkpt lat="42.50098" lon="2.55255">
        <ele>1439</ele>
        <time>2024-09-19T11:52:09Z</time>
      </trkpt>
      <trkpt lat="42.50098" lon="2.5526">
        <ele>1441</ele>
        <time>2024-09-19T11:52:12Z</time>
      </trkpt>
      <trkpt lat="42.50099" lon="2.55264">
        <ele>1441</ele>
        <time>2024-09-19T11:52:14Z</time>
      </trkpt>
      <trkpt lat="42.501" lon="2.55269">
        <ele>1441</ele>
        <time>2024-09-19T11:52:17Z</time>
      </trkpt>
      <trkpt lat="42.50101" lon="2.55273">
        <ele>1439</ele>
        <time>2024-09-19T11:52:20Z</time>
      </trkpt>
      <trkpt lat="42.50102" lon="2.55278">
        <ele>1440</ele>
        <time>2024-09-19T11:52:22Z</time>
      </trkpt>
      <trkpt lat="42.50103" lon="2.55281">
        <ele>1440</ele>
        <time>2024-09-19T11:52:24Z</time>
      </trkpt>
      <trkpt lat="42.50104" lon="2.55286">
        <ele>1439</ele>
        <time>2024-09-19T11:52:27Z</time>
      </trkpt>
      <trkpt lat="42.50105" lon="2.55291">
        <ele>1438</ele>
        <time>2024-09-19T11:52:30Z</time>
      </trkpt>
      <trkpt lat="42.50106" lon="2.55296">
        <ele>1437</ele>
        <time>2024-09-19T11:52:33Z</time>
      </trkpt>
      <trkpt lat="42.50108" lon="2.553">
        <ele>1437</ele>
        <time>2024-09-19T11:52:36Z</time>
      </trkpt>
      <trkpt lat="42.5011" lon="2.55304">
        <ele>1437</ele>
        <time>2024-09-19T11:52:39Z</time>
      </trkpt>
      <trkpt lat="42.50111" lon="2.55307">
        <ele>1438</ele>
        <time>2024-09-19T11:52:41Z</time>
      </trkpt>
      <trkpt lat="42.50112" lon="2.55311">
        <ele>1437</ele>
        <time>2024-09-19T11:52:43Z</time>
      </trkpt>
      <trkpt lat="42.50114" lon="2.55314">
        <ele>1436</ele>
        <time>2024-09-19T11:52:45Z</time>
      </trkpt>
      <trkpt lat="42.50116" lon="2.55318">
        <ele>1435</ele>
        <time>2024-09-19T11:52:48Z</time>
      </trkpt>
      <trkpt lat="42.50118" lon="2.55322">
        <ele>1434</ele>
        <time>2024-09-19T11:52:51Z</time>
      </trkpt>
      <trkpt lat="42.5012" lon="2.55326">
        <ele>1434</ele>
        <time>2024-09-19T11:52:54Z</time>
      </trkpt>
      <trkpt lat="42.50123" lon="2.5533">
        <ele>1435</ele>
        <time>2024-09-19T11:52:56Z</time>
      </trkpt>
      <trkpt lat="42.50124" lon="2.55333">
        <ele>1433</ele>
        <time>2024-09-19T11:52:58Z</time>
      </trkpt>
      <trkpt lat="42.50126" lon="2.55336">
        <ele>1432</ele>
        <time>2024-09-19T11:53:00Z</time>
      </trkpt>
      <trkpt lat="42.50126" lon="2.55341">
        <ele>1431</ele>
        <time>2024-09-19T11:53:03Z</time>
      </trkpt>
      <trkpt lat="42.50127" lon="2.55345">
        <ele>1433</ele>
        <time>2024-09-19T11:53:05Z</time>
      </trkpt>
      <trkpt lat="42.50128" lon="2.55349">
        <ele>1432</ele>
        <time>2024-09-19T11:53:07Z</time>
      </trkpt>
      <trkpt lat="42.50129" lon="2.55354">
        <ele>1432</ele>
        <time>2024-09-19T11:53:10Z</time>
      </trkpt>
      <trkpt lat="42.5013" lon="2.55358">
        <ele>1431</ele>
        <time>2024-09-19T11:53:12Z</time>
      </trkpt>
      <trkpt lat="42.50131" lon="2.55362">
        <ele>1432</ele>
        <time>2024-09-19T11:53:14Z</time>
      </trkpt>
      <trkpt lat="42.50132" lon="2.55366">
        <ele>1431</ele>
        <time>2024-09-19T11:53:16Z</time>
      </trkpt>
      <trkpt lat="42.50134" lon="2.5537">
        <ele>1430</ele>
        <time>2024-09-19T11:53:19Z</time>
      </trkpt>
      <trkpt lat="42.50135" lon="2.55374">
        <ele>1430</ele>
        <time>2024-09-19T11:53:21Z</time>
      </trkpt>
      <trkpt lat="42.50137" lon="2.55378">
        <ele>1431</ele>
        <time>2024-09-19T11:53:24Z</time>
      </trkpt>
      <trkpt lat="42.50138" lon="2.55382">
        <ele>1429</ele>
        <time>2024-09-19T11:53:27Z</time>
      </trkpt>
      <trkpt lat="42.50139" lon="2.55387">
        <ele>1430</ele>
        <time>2024-09-19T11:53:30Z</time>
      </trkpt>
      <trkpt lat="42.50139" lon="2.55392">
        <ele>1429</ele>
        <time>2024-09-19T11:53:33Z</time>
      </trkpt>
      <trkpt lat="42.50139" lon="2.55397">
        <ele>1430</ele>
        <time>2024-09-19T11:53:36Z</time>
      </trkpt>
      <trkpt lat="42.50139" lon="2.55402">
        <ele>1430</ele>
        <time>2024-09-19T11:53:39Z</time>
      </trkpt>
      <trkpt lat="42.50139" lon="2.55407">
        <ele>1431</ele>
        <time>2024-09-19T11:53:42Z</time>
      </trkpt>
      <trkpt lat="42.50138" lon="2.55411">
        <ele>1432</ele>
        <time>2024-09-19T11:53:45Z</time>
      </trkpt>
      <trkpt lat="42.50138" lon="2.55416">
        <ele>1430</ele>
        <time>2024-09-19T11:53:48Z</time>
      </trkpt>
      <trkpt lat="42.50137" lon="2.5542">
        <ele>1430</ele>
        <time>2024-09-19T11:53:51Z</time>
      </trkpt>
      <trkpt lat="42.50137" lon="2.55424">
        <ele>1429</ele>
        <time>2024-09-19T11:53:54Z</time>
      </trkpt>
      <trkpt lat="42.50136" lon="2.55429">
        <ele>1428</ele>
        <time>2024-09-19T11:53:57Z</time>
      </trkpt>
      <trkpt lat="42.50135" lon="2.55433">
        <ele>1427</ele>
        <time>2024-09-19T11:54:00Z</time>
      </trkpt>
      <trkpt lat="42.50135" lon="2.55437">
        <ele>1427</ele>
        <time>2024-09-19T11:54:02Z</time>
      </trkpt>
      <trkpt lat="42.50134" lon="2.55441">
        <ele>1427</ele>
        <time>2024-09-19T11:54:04Z</time>
      </trkpt>
      <trkpt lat="42.50134" lon="2.55445">
        <ele>1426</ele>
        <time>2024-09-19T11:54:06Z</time>
      </trkpt>
      <trkpt lat="42.50133" lon="2.5545">
        <ele>1425</ele>
        <time>2024-09-19T11:54:09Z</time>
      </trkpt>
      <trkpt lat="42.50133" lon="2.55455">
        <ele>1425</ele>
        <time>2024-09-19T11:54:12Z</time>
      </trkpt>
      <trkpt lat="42.50133" lon="2.5546">
        <ele>1424</ele>
        <time>2024-09-19T11:54:15Z</time>
      </trkpt>
      <trkpt lat="42.50132" lon="2.55465">
        <ele>1424</ele>
        <time>2024-09-19T11:54:18Z</time>
      </trkpt>
      <trkpt lat="42.50132" lon="2.5547">
        <ele>1423</ele>
        <time>2024-09-19T11:54:21Z</time>
      </trkpt>
      <trkpt lat="42.50131" lon="2.55475">
        <ele>1422</ele>
        <time>2024-09-19T11:54:24Z</time>
      </trkpt>
      <trkpt lat="42.50131" lon="2.55479">
        <ele>1422</ele>
        <time>2024-09-19T11:54:26Z</time>
      </trkpt>
      <trkpt lat="42.50131" lon="2.55483">
        <ele>1421</ele>
        <time>2024-09-19T11:54:28Z</time>
      </trkpt>
      <trkpt lat="42.50131" lon="2.55488">
        <ele>1419</ele>
        <time>2024-09-19T11:54:31Z</time>
      </trkpt>
      <trkpt lat="42.50131" lon="2.55493">
        <ele>1418</ele>
        <time>2024-09-19T11:54:34Z</time>
      </trkpt>
      <trkpt lat="42.50131" lon="2.55498">
        <ele>1417</ele>
        <time>2024-09-19T11:54:37Z</time>
      </trkpt>
      <trkpt lat="42.50132" lon="2.55502">
        <ele>1418</ele>
        <time>2024-09-19T11:54:39Z</time>
      </trkpt>
      <trkpt lat="42.50132" lon="2.55507">
        <ele>1419</ele>
        <time>2024-09-19T11:54:42Z</time>
      </trkpt>
      <trkpt lat="42.50133" lon="2.55512">
        <ele>1417</ele>
        <time>2024-09-19T11:54:46Z</time>
      </trkpt>
      <trkpt lat="42.50133" lon="2.55517">
        <ele>1418</ele>
        <time>2024-09-19T11:54:49Z</time>
      </trkpt>
      <trkpt lat="42.50133" lon="2.55522">
        <ele>1416</ele>
        <time>2024-09-19T11:54:52Z</time>
      </trkpt>
      <trkpt lat="42.50134" lon="2.55527">
        <ele>1416</ele>
        <time>2024-09-19T11:54:55Z</time>
      </trkpt>
      <trkpt lat="42.50134" lon="2.55532">
        <ele>1415</ele>
        <time>2024-09-19T11:54:58Z</time>
      </trkpt>
      <trkpt lat="42.50133" lon="2.55536">
        <ele>1415</ele>
        <time>2024-09-19T11:55:00Z</time>
      </trkpt>
      <trkpt lat="42.50134" lon="2.55541">
        <ele>1414</ele>
        <time>2024-09-19T11:55:03Z</time>
      </trkpt>
      <trkpt lat="42.50134" lon="2.55546">
        <ele>1413</ele>
        <time>2024-09-19T11:55:06Z</time>
      </trkpt>
      <trkpt lat="42.50133" lon="2.5555">
        <ele>1413</ele>
        <time>2024-09-19T11:55:08Z</time>
      </trkpt>
      <trkpt lat="42.50133" lon="2.55554">
        <ele>1413</ele>
        <time>2024-09-19T11:55:10Z</time>
      </trkpt>
      <trkpt lat="42.50133" lon="2.55559">
        <ele>1413</ele>
        <time>2024-09-19T11:55:13Z</time>
      </trkpt>
      <trkpt lat="42.50134" lon="2.55564">
        <ele>1411</ele>
        <time>2024-09-19T11:55:16Z</time>
      </trkpt>
      <trkpt lat="42.50134" lon="2.55569">
        <ele>1409</ele>
        <time>2024-09-19T11:55:19Z</time>
      </trkpt>
      <trkpt lat="42.50134" lon="2.55574">
        <ele>1410</ele>
        <time>2024-09-19T11:55:20Z</time>
      </trkpt>
      <trkpt lat="42.50136" lon="2.55578">
        <ele>1410</ele>
        <time>2024-09-19T11:55:23Z</time>
      </trkpt>
      <trkpt lat="42.50137" lon="2.55582">
        <ele>1410</ele>
        <time>2024-09-19T11:55:25Z</time>
      </trkpt>
      <trkpt lat="42.50139" lon="2.55585">
        <ele>1408</ele>
        <time>2024-09-19T11:55:28Z</time>
      </trkpt>
      <trkpt lat="42.50142" lon="2.55589">
        <ele>1408</ele>
        <time>2024-09-19T11:55:31Z</time>
      </trkpt>
      <trkpt lat="42.50145" lon="2.55592">
        <ele>1408</ele>
        <time>2024-09-19T11:55:34Z</time>
      </trkpt>
      <trkpt lat="42.50148" lon="2.55594">
        <ele>1408</ele>
        <time>2024-09-19T11:55:36Z</time>
      </trkpt>
      <trkpt lat="42.50151" lon="2.55596">
        <ele>1408</ele>
        <time>2024-09-19T11:55:38Z</time>
      </trkpt>
      <trkpt lat="42.50153" lon="2.55597">
        <ele>1407</ele>
        <time>2024-09-19T11:55:40Z</time>
      </trkpt>
      <trkpt lat="42.50156" lon="2.55597">
        <ele>1406</ele>
        <time>2024-09-19T11:55:42Z</time>
      </trkpt>
      <trkpt lat="42.50159" lon="2.55599">
        <ele>1406</ele>
        <time>2024-09-19T11:55:44Z</time>
      </trkpt>
      <trkpt lat="42.50161" lon="2.556">
        <ele>1405</ele>
        <time>2024-09-19T11:55:46Z</time>
      </trkpt>
      <trkpt lat="42.50164" lon="2.55601">
        <ele>1405</ele>
        <time>2024-09-19T11:55:48Z</time>
      </trkpt>
      <trkpt lat="42.50167" lon="2.55603">
        <ele>1405</ele>
        <time>2024-09-19T11:55:51Z</time>
      </trkpt>
      <trkpt lat="42.5017" lon="2.55605">
        <ele>1405</ele>
        <time>2024-09-19T11:55:54Z</time>
      </trkpt>
      <trkpt lat="42.50173" lon="2.55607">
        <ele>1405</ele>
        <time>2024-09-19T11:55:56Z</time>
      </trkpt>
      <trkpt lat="42.50174" lon="2.5561">
        <ele>1404</ele>
        <time>2024-09-19T11:55:58Z</time>
      </trkpt>
      <trkpt lat="42.50176" lon="2.55614">
        <ele>1405</ele>
        <time>2024-09-19T11:56:00Z</time>
      </trkpt>
      <trkpt lat="42.50176" lon="2.55617">
        <ele>1408</ele>
        <time>2024-09-19T11:56:24Z</time>
      </trkpt>
      <trkpt lat="42.50175" lon="2.55621">
        <ele>1409</ele>
        <time>2024-09-19T11:56:27Z</time>
      </trkpt>
      <trkpt lat="42.50173" lon="2.55625">
        <ele>1408</ele>
        <time>2024-09-19T11:56:30Z</time>
      </trkpt>
      <trkpt lat="42.50173" lon="2.55628">
        <ele>1406</ele>
        <time>2024-09-19T11:56:37Z</time>
      </trkpt>
      <trkpt lat="42.50172" lon="2.55633">
        <ele>1404</ele>
        <time>2024-09-19T11:57:05Z</time>
      </trkpt>
      <trkpt lat="42.5017" lon="2.55637">
        <ele>1403</ele>
        <time>2024-09-19T11:57:08Z</time>
      </trkpt>
      <trkpt lat="42.50169" lon="2.55641">
        <ele>1402</ele>
        <time>2024-09-19T11:57:17Z</time>
      </trkpt>
      <trkpt lat="42.50168" lon="2.55646">
        <ele>1401</ele>
        <time>2024-09-19T11:57:20Z</time>
      </trkpt>
      <trkpt lat="42.50168" lon="2.55645">
        <ele>1399</ele>
        <time>2024-09-19T11:57:26Z</time>
      </trkpt>
      <trkpt lat="42.50169" lon="2.55641">
        <ele>1398</ele>
        <time>2024-09-19T11:57:29Z</time>
      </trkpt>
      <trkpt lat="42.5017" lon="2.55642">
        <ele>1397</ele>
        <time>2024-09-19T11:57:33Z</time>
      </trkpt>
      <trkpt lat="42.50171" lon="2.55645">
        <ele>1397</ele>
        <time>2024-09-19T11:57:36Z</time>
      </trkpt>
      <trkpt lat="42.50174" lon="2.55648">
        <ele>1395</ele>
        <time>2024-09-19T11:57:44Z</time>
      </trkpt>
      <trkpt lat="42.50176" lon="2.5565">
        <ele>1392</ele>
        <time>2024-09-19T11:57:49Z</time>
      </trkpt>
      <trkpt lat="42.50179" lon="2.55651">
        <ele>1391</ele>
        <time>2024-09-19T11:57:52Z</time>
      </trkpt>
      <trkpt lat="42.50183" lon="2.55651">
        <ele>1389</ele>
        <time>2024-09-19T11:57:56Z</time>
      </trkpt>
      <trkpt lat="42.50186" lon="2.55652">
        <ele>1388</ele>
        <time>2024-09-19T11:57:58Z</time>
      </trkpt>
      <trkpt lat="42.50189" lon="2.55654">
        <ele>1389</ele>
        <time>2024-09-19T11:58:09Z</time>
      </trkpt>
      <trkpt lat="42.50192" lon="2.55656">
        <ele>1388</ele>
        <time>2024-09-19T11:58:11Z</time>
      </trkpt>
      <trkpt lat="42.50195" lon="2.55658">
        <ele>1388</ele>
        <time>2024-09-19T11:58:14Z</time>
      </trkpt>
      <trkpt lat="42.50197" lon="2.5566">
        <ele>1388</ele>
        <time>2024-09-19T11:58:17Z</time>
      </trkpt>
      <trkpt lat="42.50201" lon="2.55661">
        <ele>1387</ele>
        <time>2024-09-19T11:58:20Z</time>
      </trkpt>
      <trkpt lat="42.50204" lon="2.55663">
        <ele>1386</ele>
        <time>2024-09-19T11:58:23Z</time>
      </trkpt>
      <trkpt lat="42.50207" lon="2.55664">
        <ele>1385</ele>
        <time>2024-09-19T11:58:25Z</time>
      </trkpt>
      <trkpt lat="42.5021" lon="2.55665">
        <ele>1385</ele>
        <time>2024-09-19T11:58:27Z</time>
      </trkpt>
      <trkpt lat="42.50213" lon="2.55667">
        <ele>1383</ele>
        <time>2024-09-19T11:58:30Z</time>
      </trkpt>
      <trkpt lat="42.50216" lon="2.55669">
        <ele>1383</ele>
        <time>2024-09-19T11:58:33Z</time>
      </trkpt>
      <trkpt lat="42.50219" lon="2.55671">
        <ele>1383</ele>
        <time>2024-09-19T11:58:36Z</time>
      </trkpt>
      <trkpt lat="42.50222" lon="2.55674">
        <ele>1381</ele>
        <time>2024-09-19T11:58:39Z</time>
      </trkpt>
      <trkpt lat="42.50224" lon="2.55677">
        <ele>1380</ele>
        <time>2024-09-19T11:58:42Z</time>
      </trkpt>
      <trkpt lat="42.50224" lon="2.55681">
        <ele>1378</ele>
        <time>2024-09-19T11:58:45Z</time>
      </trkpt>
      <trkpt lat="42.50222" lon="2.55685">
        <ele>1378</ele>
        <time>2024-09-19T11:58:47Z</time>
      </trkpt>
      <trkpt lat="42.50222" lon="2.55689">
        <ele>1377</ele>
        <time>2024-09-19T11:58:49Z</time>
      </trkpt>
      <trkpt lat="42.50223" lon="2.55693">
        <ele>1377</ele>
        <time>2024-09-19T11:58:52Z</time>
      </trkpt>
      <trkpt lat="42.50226" lon="2.55694">
        <ele>1376</ele>
        <time>2024-09-19T11:58:56Z</time>
      </trkpt>
      <trkpt lat="42.50226" lon="2.55697">
        <ele>1374</ele>
        <time>2024-09-19T11:59:00Z</time>
      </trkpt>
      <trkpt lat="42.50228" lon="2.55699">
        <ele>1371</ele>
        <time>2024-09-19T11:59:04Z</time>
      </trkpt>
      <trkpt lat="42.50231" lon="2.55701">
        <ele>1371</ele>
        <time>2024-09-19T11:59:07Z</time>
      </trkpt>
      <trkpt lat="42.50233" lon="2.55704">
        <ele>1369</ele>
        <time>2024-09-19T11:59:10Z</time>
      </trkpt>
      <trkpt lat="42.50236" lon="2.55705">
        <ele>1368</ele>
        <time>2024-09-19T11:59:14Z</time>
      </trkpt>
      <trkpt lat="42.50239" lon="2.55706">
        <ele>1367</ele>
        <time>2024-09-19T11:59:17Z</time>
      </trkpt>
      <trkpt lat="42.50241" lon="2.55709">
        <ele>1368</ele>
        <time>2024-09-19T11:59:19Z</time>
      </trkpt>
      <trkpt lat="42.50243" lon="2.55712">
        <ele>1367</ele>
        <time>2024-09-19T11:59:21Z</time>
      </trkpt>
      <trkpt lat="42.50246" lon="2.55715">
        <ele>1367</ele>
        <time>2024-09-19T11:59:24Z</time>
      </trkpt>
      <trkpt lat="42.50249" lon="2.55718">
        <ele>1366</ele>
        <time>2024-09-19T11:59:27Z</time>
      </trkpt>
      <trkpt lat="42.5025" lon="2.55721">
        <ele>1365</ele>
        <time>2024-09-19T11:59:30Z</time>
      </trkpt>
      <trkpt lat="42.50251" lon="2.55725">
        <ele>1365</ele>
        <time>2024-09-19T11:59:32Z</time>
      </trkpt>
      <trkpt lat="42.50252" lon="2.55729">
        <ele>1364</ele>
        <time>2024-09-19T11:59:34Z</time>
      </trkpt>
      <trkpt lat="42.50253" lon="2.55732">
        <ele>1364</ele>
        <time>2024-09-19T11:59:39Z</time>
      </trkpt>
      <trkpt lat="42.50254" lon="2.55736">
        <ele>1363</ele>
        <time>2024-09-19T11:59:42Z</time>
      </trkpt>
      <trkpt lat="42.50255" lon="2.5574">
        <ele>1363</ele>
        <time>2024-09-19T11:59:44Z</time>
      </trkpt>
      <trkpt lat="42.50255" lon="2.55745">
        <ele>1363</ele>
        <time>2024-09-19T11:59:47Z</time>
      </trkpt>
      <trkpt lat="42.50255" lon="2.55749">
        <ele>1361</ele>
        <time>2024-09-19T11:59:50Z</time>
      </trkpt>
      <trkpt lat="42.50255" lon="2.55754">
        <ele>1360</ele>
        <time>2024-09-19T11:59:53Z</time>
      </trkpt>
      <trkpt lat="42.50256" lon="2.55758">
        <ele>1358</ele>
        <time>2024-09-19T12:00:03Z</time>
      </trkpt>
      <trkpt lat="42.50257" lon="2.55762">
        <ele>1357</ele>
        <time>2024-09-19T12:00:05Z</time>
      </trkpt>
      <trkpt lat="42.50258" lon="2.55766">
        <ele>1357</ele>
        <time>2024-09-19T12:00:07Z</time>
      </trkpt>
      <trkpt lat="42.50259" lon="2.5577">
        <ele>1357</ele>
        <time>2024-09-19T12:00:09Z</time>
      </trkpt>
      <trkpt lat="42.5026" lon="2.55775">
        <ele>1356</ele>
        <time>2024-09-19T12:00:12Z</time>
      </trkpt>
      <trkpt lat="42.50262" lon="2.55778">
        <ele>1356</ele>
        <time>2024-09-19T12:00:14Z</time>
      </trkpt>
      <trkpt lat="42.50263" lon="2.55782">
        <ele>1357</ele>
        <time>2024-09-19T12:00:16Z</time>
      </trkpt>
      <trkpt lat="42.50264" lon="2.55785">
        <ele>1358</ele>
        <time>2024-09-19T12:00:18Z</time>
      </trkpt>
      <trkpt lat="42.50265" lon="2.55789">
        <ele>1358</ele>
        <time>2024-09-19T12:00:20Z</time>
      </trkpt>
      <trkpt lat="42.50265" lon="2.55793">
        <ele>1359</ele>
        <time>2024-09-19T12:00:22Z</time>
      </trkpt>
      <trkpt lat="42.50264" lon="2.55796">
        <ele>1359</ele>
        <time>2024-09-19T12:00:25Z</time>
      </trkpt>
      <trkpt lat="42.50262" lon="2.558">
        <ele>1358</ele>
        <time>2024-09-19T12:00:28Z</time>
      </trkpt>
      <trkpt lat="42.5026" lon="2.55803">
        <ele>1358</ele>
        <time>2024-09-19T12:00:31Z</time>
      </trkpt>
      <trkpt lat="42.50258" lon="2.55808">
        <ele>1359</ele>
        <time>2024-09-19T12:00:34Z</time>
      </trkpt>
      <trkpt lat="42.50259" lon="2.55811">
        <ele>1357</ele>
        <time>2024-09-19T12:00:37Z</time>
      </trkpt>
      <trkpt lat="42.5026" lon="2.55816">
        <ele>1356</ele>
        <time>2024-09-19T12:00:40Z</time>
      </trkpt>
      <trkpt lat="42.50259" lon="2.5582">
        <ele>1357</ele>
        <time>2024-09-19T12:00:43Z</time>
      </trkpt>
      <trkpt lat="42.50259" lon="2.55825">
        <ele>1355</ele>
        <time>2024-09-19T12:00:47Z</time>
      </trkpt>
      <trkpt lat="42.50259" lon="2.5583">
        <ele>1354</ele>
        <time>2024-09-19T12:00:50Z</time>
      </trkpt>
      <trkpt lat="42.50259" lon="2.55834">
        <ele>1352</ele>
        <time>2024-09-19T12:00:53Z</time>
      </trkpt>
      <trkpt lat="42.50261" lon="2.55837">
        <ele>1353</ele>
        <time>2024-09-19T12:00:55Z</time>
      </trkpt>
      <trkpt lat="42.50262" lon="2.55841">
        <ele>1353</ele>
        <time>2024-09-19T12:00:58Z</time>
      </trkpt>
      <trkpt lat="42.50263" lon="2.55845">
        <ele>1353</ele>
        <time>2024-09-19T12:01:00Z</time>
      </trkpt>
      <trkpt lat="42.50262" lon="2.55849">
        <ele>1352</ele>
        <time>2024-09-19T12:01:04Z</time>
      </trkpt>
      <trkpt lat="42.50262" lon="2.55853">
        <ele>1351</ele>
        <time>2024-09-19T12:01:07Z</time>
      </trkpt>
      <trkpt lat="42.50261" lon="2.55857">
        <ele>1350</ele>
        <time>2024-09-19T12:01:09Z</time>
      </trkpt>
      <trkpt lat="42.50261" lon="2.55862">
        <ele>1349</ele>
        <time>2024-09-19T12:01:11Z</time>
      </trkpt>
      <trkpt lat="42.5026" lon="2.55866">
        <ele>1350</ele>
        <time>2024-09-19T12:01:13Z</time>
      </trkpt>
      <trkpt lat="42.50259" lon="2.5587">
        <ele>1349</ele>
        <time>2024-09-19T12:01:16Z</time>
      </trkpt>
      <trkpt lat="42.50257" lon="2.55875">
        <ele>1348</ele>
        <time>2024-09-19T12:01:19Z</time>
      </trkpt>
      <trkpt lat="42.50256" lon="2.5588">
        <ele>1349</ele>
        <time>2024-09-19T12:01:22Z</time>
      </trkpt>
      <trkpt lat="42.50255" lon="2.55884">
        <ele>1351</ele>
        <time>2024-09-19T12:01:28Z</time>
      </trkpt>
      <trkpt lat="42.50255" lon="2.55888">
        <ele>1349</ele>
        <time>2024-09-19T12:01:31Z</time>
      </trkpt>
      <trkpt lat="42.50256" lon="2.55891">
        <ele>1348</ele>
        <time>2024-09-19T12:01:34Z</time>
      </trkpt>
      <trkpt lat="42.50258" lon="2.55894">
        <ele>1348</ele>
        <time>2024-09-19T12:01:36Z</time>
      </trkpt>
      <trkpt lat="42.5026" lon="2.55898">
        <ele>1348</ele>
        <time>2024-09-19T12:01:39Z</time>
      </trkpt>
      <trkpt lat="42.50263" lon="2.55901">
        <ele>1348</ele>
        <time>2024-09-19T12:01:41Z</time>
      </trkpt>
      <trkpt lat="42.50266" lon="2.55903">
        <ele>1347</ele>
        <time>2024-09-19T12:01:44Z</time>
      </trkpt>
      <trkpt lat="42.50268" lon="2.55907">
        <ele>1347</ele>
        <time>2024-09-19T12:01:47Z</time>
      </trkpt>
      <trkpt lat="42.50269" lon="2.55911">
        <ele>1346</ele>
        <time>2024-09-19T12:01:49Z</time>
      </trkpt>
      <trkpt lat="42.50271" lon="2.55915">
        <ele>1345</ele>
        <time>2024-09-19T12:01:51Z</time>
      </trkpt>
      <trkpt lat="42.50272" lon="2.55919">
        <ele>1345</ele>
        <time>2024-09-19T12:01:54Z</time>
      </trkpt>
      <trkpt lat="42.50274" lon="2.55922">
        <ele>1344</ele>
        <time>2024-09-19T12:01:56Z</time>
      </trkpt>
      <trkpt lat="42.50276" lon="2.55925">
        <ele>1344</ele>
        <time>2024-09-19T12:01:58Z</time>
      </trkpt>
      <trkpt lat="42.50278" lon="2.5593">
        <ele>1344</ele>
        <time>2024-09-19T12:02:01Z</time>
      </trkpt>
      <trkpt lat="42.5028" lon="2.55933">
        <ele>1343</ele>
        <time>2024-09-19T12:02:03Z</time>
      </trkpt>
      <trkpt lat="42.50283" lon="2.55936">
        <ele>1343</ele>
        <time>2024-09-19T12:02:06Z</time>
      </trkpt>
      <trkpt lat="42.50283" lon="2.5594">
        <ele>1342</ele>
        <time>2024-09-19T12:02:09Z</time>
      </trkpt>
      <trkpt lat="42.50284" lon="2.55944">
        <ele>1341</ele>
        <time>2024-09-19T12:02:12Z</time>
      </trkpt>
      <trkpt lat="42.50282" lon="2.55947">
        <ele>1341</ele>
        <time>2024-09-19T12:02:14Z</time>
      </trkpt>
      <trkpt lat="42.5028" lon="2.5595">
        <ele>1341</ele>
        <time>2024-09-19T12:02:16Z</time>
      </trkpt>
      <trkpt lat="42.50279" lon="2.55954">
        <ele>1340</ele>
        <time>2024-09-19T12:02:19Z</time>
      </trkpt>
      <trkpt lat="42.50277" lon="2.55959">
        <ele>1340</ele>
        <time>2024-09-19T12:02:22Z</time>
      </trkpt>
      <trkpt lat="42.50275" lon="2.55962">
        <ele>1339</ele>
        <time>2024-09-19T12:02:24Z</time>
      </trkpt>
      <trkpt lat="42.50274" lon="2.55966">
        <ele>1339</ele>
        <time>2024-09-19T12:02:27Z</time>
      </trkpt>
      <trkpt lat="42.50273" lon="2.55971">
        <ele>1339</ele>
        <time>2024-09-19T12:02:30Z</time>
      </trkpt>
      <trkpt lat="42.50272" lon="2.55975">
        <ele>1337</ele>
        <time>2024-09-19T12:02:33Z</time>
      </trkpt>
      <trkpt lat="42.50272" lon="2.5598">
        <ele>1337</ele>
        <time>2024-09-19T12:02:36Z</time>
      </trkpt>
      <trkpt lat="42.50272" lon="2.55985">
        <ele>1337</ele>
        <time>2024-09-19T12:02:39Z</time>
      </trkpt>
      <trkpt lat="42.50271" lon="2.55988">
        <ele>1337</ele>
        <time>2024-09-19T12:02:41Z</time>
      </trkpt>
      <trkpt lat="42.50272" lon="2.55992">
        <ele>1336</ele>
        <time>2024-09-19T12:02:44Z</time>
      </trkpt>
      <trkpt lat="42.50273" lon="2.55996">
        <ele>1336</ele>
        <time>2024-09-19T12:02:47Z</time>
      </trkpt>
      <trkpt lat="42.50273" lon="2.56001">
        <ele>1335</ele>
        <time>2024-09-19T12:02:50Z</time>
      </trkpt>
      <trkpt lat="42.50273" lon="2.56005">
        <ele>1336</ele>
        <time>2024-09-19T12:02:53Z</time>
      </trkpt>
      <trkpt lat="42.50273" lon="2.56009">
        <ele>1336</ele>
        <time>2024-09-19T12:02:56Z</time>
      </trkpt>
      <trkpt lat="42.50273" lon="2.56014">
        <ele>1337</ele>
        <time>2024-09-19T12:02:59Z</time>
      </trkpt>
      <trkpt lat="42.50273" lon="2.56019">
        <ele>1335</ele>
        <time>2024-09-19T12:03:02Z</time>
      </trkpt>
      <trkpt lat="42.50273" lon="2.56024">
        <ele>1335</ele>
        <time>2024-09-19T12:03:06Z</time>
      </trkpt>
      <trkpt lat="42.50273" lon="2.56028">
        <ele>1335</ele>
        <time>2024-09-19T12:03:10Z</time>
      </trkpt>
      <trkpt lat="42.50273" lon="2.56032">
        <ele>1335</ele>
        <time>2024-09-19T12:03:13Z</time>
      </trkpt>
      <trkpt lat="42.50273" lon="2.56037">
        <ele>1334</ele>
        <time>2024-09-19T12:03:16Z</time>
      </trkpt>
      <trkpt lat="42.50272" lon="2.56041">
        <ele>1334</ele>
        <time>2024-09-19T12:03:20Z</time>
      </trkpt>
      <trkpt lat="42.50271" lon="2.56046">
        <ele>1334</ele>
        <time>2024-09-19T12:03:24Z</time>
      </trkpt>
      <trkpt lat="42.5027" lon="2.5605">
        <ele>1334</ele>
        <time>2024-09-19T12:03:27Z</time>
      </trkpt>
      <trkpt lat="42.50269" lon="2.56054">
        <ele>1334</ele>
        <time>2024-09-19T12:03:30Z</time>
      </trkpt>
      <trkpt lat="42.50267" lon="2.56058">
        <ele>1334</ele>
        <time>2024-09-19T12:03:33Z</time>
      </trkpt>
      <trkpt lat="42.50266" lon="2.56062">
        <ele>1335</ele>
        <time>2024-09-19T12:03:36Z</time>
      </trkpt>
      <trkpt lat="42.50265" lon="2.56066">
        <ele>1335</ele>
        <time>2024-09-19T12:03:39Z</time>
      </trkpt>
      <trkpt lat="42.50265" lon="2.5607">
        <ele>1335</ele>
        <time>2024-09-19T12:03:40Z</time>
      </trkpt>
      <trkpt lat="42.50264" lon="2.56075">
        <ele>1335</ele>
        <time>2024-09-19T12:03:42Z</time>
      </trkpt>
      <trkpt lat="42.50264" lon="2.56078">
        <ele>1335</ele>
        <time>2024-09-19T12:03:45Z</time>
      </trkpt>
      <trkpt lat="42.50263" lon="2.56083">
        <ele>1336</ele>
        <time>2024-09-19T12:03:48Z</time>
      </trkpt>
      <trkpt lat="42.50262" lon="2.56087">
        <ele>1336</ele>
        <time>2024-09-19T12:03:50Z</time>
      </trkpt>
      <trkpt lat="42.50261" lon="2.56092">
        <ele>1335</ele>
        <time>2024-09-19T12:03:53Z</time>
      </trkpt>
      <trkpt lat="42.5026" lon="2.56097">
        <ele>1336</ele>
        <time>2024-09-19T12:03:56Z</time>
      </trkpt>
      <trkpt lat="42.5026" lon="2.56101">
        <ele>1336</ele>
        <time>2024-09-19T12:03:59Z</time>
      </trkpt>
      <trkpt lat="42.5026" lon="2.56106">
        <ele>1335</ele>
        <time>2024-09-19T12:04:03Z</time>
      </trkpt>
      <trkpt lat="42.5026" lon="2.56111">
        <ele>1335</ele>
        <time>2024-09-19T12:04:06Z</time>
      </trkpt>
      <trkpt lat="42.50259" lon="2.56116">
        <ele>1337</ele>
        <time>2024-09-19T12:04:09Z</time>
      </trkpt>
      <trkpt lat="42.50257" lon="2.56121">
        <ele>1335</ele>
        <time>2024-09-19T12:04:13Z</time>
      </trkpt>
      <trkpt lat="42.50256" lon="2.56126">
        <ele>1335</ele>
        <time>2024-09-19T12:04:16Z</time>
      </trkpt>
      <trkpt lat="42.50255" lon="2.5613">
        <ele>1337</ele>
        <time>2024-09-19T12:04:19Z</time>
      </trkpt>
      <trkpt lat="42.50254" lon="2.56134">
        <ele>1337</ele>
        <time>2024-09-19T12:04:21Z</time>
      </trkpt>
      <trkpt lat="42.50253" lon="2.56138">
        <ele>1335</ele>
        <time>2024-09-19T12:04:23Z</time>
      </trkpt>
      <trkpt lat="42.50253" lon="2.56143">
        <ele>1338</ele>
        <time>2024-09-19T12:04:26Z</time>
      </trkpt>
      <trkpt lat="42.50253" lon="2.56148">
        <ele>1337</ele>
        <time>2024-09-19T12:04:28Z</time>
      </trkpt>
      <trkpt lat="42.50253" lon="2.56152">
        <ele>1336</ele>
        <time>2024-09-19T12:04:30Z</time>
      </trkpt>
      <trkpt lat="42.50252" lon="2.56156">
        <ele>1337</ele>
        <time>2024-09-19T12:04:33Z</time>
      </trkpt>
      <trkpt lat="42.5025" lon="2.5616">
        <ele>1338</ele>
        <time>2024-09-19T12:04:36Z</time>
      </trkpt>
      <trkpt lat="42.50248" lon="2.56164">
        <ele>1337</ele>
        <time>2024-09-19T12:04:39Z</time>
      </trkpt>
      <trkpt lat="42.50247" lon="2.56169">
        <ele>1337</ele>
        <time>2024-09-19T12:04:42Z</time>
      </trkpt>
      <trkpt lat="42.50246" lon="2.56172">
        <ele>1337</ele>
        <time>2024-09-19T12:04:48Z</time>
      </trkpt>
      <trkpt lat="42.50246" lon="2.56177">
        <ele>1335</ele>
        <time>2024-09-19T12:04:53Z</time>
      </trkpt>
      <trkpt lat="42.50244" lon="2.5618">
        <ele>1333</ele>
        <time>2024-09-19T12:05:00Z</time>
      </trkpt>
      <trkpt lat="42.50241" lon="2.56182">
        <ele>1334</ele>
        <time>2024-09-19T12:05:03Z</time>
      </trkpt>
      <trkpt lat="42.50239" lon="2.56184">
        <ele>1334</ele>
        <time>2024-09-19T12:05:05Z</time>
      </trkpt>
      <trkpt lat="42.50236" lon="2.56185">
        <ele>1334</ele>
        <time>2024-09-19T12:05:08Z</time>
      </trkpt>
      <trkpt lat="42.50232" lon="2.56185">
        <ele>1335</ele>
        <time>2024-09-19T12:05:11Z</time>
      </trkpt>
      <trkpt lat="42.50229" lon="2.56185">
        <ele>1336</ele>
        <time>2024-09-19T12:05:14Z</time>
      </trkpt>
      <trkpt lat="42.50226" lon="2.56186">
        <ele>1335</ele>
        <time>2024-09-19T12:05:17Z</time>
      </trkpt>
      <trkpt lat="42.50223" lon="2.56186">
        <ele>1336</ele>
        <time>2024-09-19T12:05:20Z</time>
      </trkpt>
      <trkpt lat="42.50219" lon="2.56187">
        <ele>1336</ele>
        <time>2024-09-19T12:05:24Z</time>
      </trkpt>
      <trkpt lat="42.50216" lon="2.56187">
        <ele>1335</ele>
        <time>2024-09-19T12:05:31Z</time>
      </trkpt>
      <trkpt lat="42.50213" lon="2.56185">
        <ele>1336</ele>
        <time>2024-09-19T12:05:33Z</time>
      </trkpt>
      <trkpt lat="42.5021" lon="2.56182">
        <ele>1335</ele>
        <time>2024-09-19T12:05:37Z</time>
      </trkpt>
      <trkpt lat="42.50207" lon="2.5618">
        <ele>1334</ele>
        <time>2024-09-19T12:05:40Z</time>
      </trkpt>
      <trkpt lat="42.50204" lon="2.56177">
        <ele>1335</ele>
        <time>2024-09-19T12:05:43Z</time>
      </trkpt>
      <trkpt lat="42.50201" lon="2.56175">
        <ele>1333</ele>
        <time>2024-09-19T12:05:46Z</time>
      </trkpt>
      <trkpt lat="42.50198" lon="2.56173">
        <ele>1333</ele>
        <time>2024-09-19T12:05:49Z</time>
      </trkpt>
      <trkpt lat="42.50195" lon="2.56171">
        <ele>1333</ele>
        <time>2024-09-19T12:05:51Z</time>
      </trkpt>
      <trkpt lat="42.50192" lon="2.56171">
        <ele>1333</ele>
        <time>2024-09-19T12:05:55Z</time>
      </trkpt>
      <trkpt lat="42.50189" lon="2.5617">
        <ele>1332</ele>
        <time>2024-09-19T12:05:58Z</time>
      </trkpt>
      <trkpt lat="42.50186" lon="2.56169">
        <ele>1332</ele>
        <time>2024-09-19T12:06:01Z</time>
      </trkpt>
      <trkpt lat="42.50183" lon="2.56168">
        <ele>1331</ele>
        <time>2024-09-19T12:06:06Z</time>
      </trkpt>
      <trkpt lat="42.5018" lon="2.56168">
        <ele>1332</ele>
        <time>2024-09-19T12:06:09Z</time>
      </trkpt>
      <trkpt lat="42.50177" lon="2.56167">
        <ele>1330</ele>
        <time>2024-09-19T12:06:13Z</time>
      </trkpt>
      <trkpt lat="42.50174" lon="2.56167">
        <ele>1330</ele>
        <time>2024-09-19T12:06:16Z</time>
      </trkpt>
      <trkpt lat="42.50171" lon="2.56167">
        <ele>1328</ele>
        <time>2024-09-19T12:06:22Z</time>
      </trkpt>
      <trkpt lat="42.50168" lon="2.56167">
        <ele>1326</ele>
        <time>2024-09-19T12:06:26Z</time>
      </trkpt>
      <trkpt lat="42.50164" lon="2.56167">
        <ele>1327</ele>
        <time>2024-09-19T12:06:30Z</time>
      </trkpt>
      <trkpt lat="42.50162" lon="2.56169">
        <ele>1327</ele>
        <time>2024-09-19T12:06:40Z</time>
      </trkpt>
      <trkpt lat="42.50159" lon="2.56169">
        <ele>1328</ele>
        <time>2024-09-19T12:06:44Z</time>
      </trkpt>
      <trkpt lat="42.50157" lon="2.56169">
        <ele>1327</ele>
        <time>2024-09-19T12:06:48Z</time>
      </trkpt>
      <trkpt lat="42.50153" lon="2.5617">
        <ele>1326</ele>
        <time>2024-09-19T12:06:53Z</time>
      </trkpt>
      <trkpt lat="42.5015" lon="2.56169">
        <ele>1326</ele>
        <time>2024-09-19T12:06:56Z</time>
      </trkpt>
      <trkpt lat="42.50147" lon="2.56168">
        <ele>1325</ele>
        <time>2024-09-19T12:07:00Z</time>
      </trkpt>
      <trkpt lat="42.50144" lon="2.56168">
        <ele>1325</ele>
        <time>2024-09-19T12:07:04Z</time>
      </trkpt>
      <trkpt lat="42.50141" lon="2.56168">
        <ele>1325</ele>
        <time>2024-09-19T12:07:06Z</time>
      </trkpt>
      <trkpt lat="42.50138" lon="2.56166">
        <ele>1323</ele>
        <time>2024-09-19T12:07:11Z</time>
      </trkpt>
      <trkpt lat="42.50135" lon="2.56166">
        <ele>1321</ele>
        <time>2024-09-19T12:07:16Z</time>
      </trkpt>
      <trkpt lat="42.50132" lon="2.56165">
        <ele>1321</ele>
        <time>2024-09-19T12:07:20Z</time>
      </trkpt>
      <trkpt lat="42.50128" lon="2.56165">
        <ele>1320</ele>
        <time>2024-09-19T12:07:23Z</time>
      </trkpt>
      <trkpt lat="42.50124" lon="2.56166">
        <ele>1320</ele>
        <time>2024-09-19T12:07:26Z</time>
      </trkpt>
      <trkpt lat="42.50121" lon="2.56166">
        <ele>1322</ele>
        <time>2024-09-19T12:07:29Z</time>
      </trkpt>
      <trkpt lat="42.50117" lon="2.56166">
        <ele>1320</ele>
        <time>2024-09-19T12:07:32Z</time>
      </trkpt>
      <trkpt lat="42.50114" lon="2.56167">
        <ele>1321</ele>
        <time>2024-09-19T12:07:35Z</time>
      </trkpt>
      <trkpt lat="42.50111" lon="2.56167">
        <ele>1321</ele>
        <time>2024-09-19T12:07:38Z</time>
      </trkpt>
      <trkpt lat="42.50108" lon="2.56167">
        <ele>1320</ele>
        <time>2024-09-19T12:07:42Z</time>
      </trkpt>
      <trkpt lat="42.50105" lon="2.56166">
        <ele>1318</ele>
        <time>2024-09-19T12:07:46Z</time>
      </trkpt>
      <trkpt lat="42.50102" lon="2.56167">
        <ele>1315</ele>
        <time>2024-09-19T12:07:50Z</time>
      </trkpt>
      <trkpt lat="42.50099" lon="2.56164">
        <ele>1313</ele>
        <time>2024-09-19T12:07:53Z</time>
      </trkpt>
      <trkpt lat="42.50097" lon="2.56163">
        <ele>1313</ele>
        <time>2024-09-19T12:07:56Z</time>
      </trkpt>
      <trkpt lat="42.50094" lon="2.56163">
        <ele>1316</ele>
        <time>2024-09-19T12:07:59Z</time>
      </trkpt>
      <trkpt lat="42.5009" lon="2.56163">
        <ele>1316</ele>
        <time>2024-09-19T12:08:02Z</time>
      </trkpt>
      <trkpt lat="42.50087" lon="2.56164">
        <ele>1316</ele>
        <time>2024-09-19T12:08:05Z</time>
      </trkpt>
      <trkpt lat="42.50085" lon="2.56166">
        <ele>1316</ele>
        <time>2024-09-19T12:08:07Z</time>
      </trkpt>
      <trkpt lat="42.50082" lon="2.56167">
        <ele>1316</ele>
        <time>2024-09-19T12:08:09Z</time>
      </trkpt>
      <trkpt lat="42.50079" lon="2.56168">
        <ele>1317</ele>
        <time>2024-09-19T12:08:11Z</time>
      </trkpt>
      <trkpt lat="42.50076" lon="2.56169">
        <ele>1318</ele>
        <time>2024-09-19T12:08:15Z</time>
      </trkpt>
      <trkpt lat="42.50073" lon="2.56172">
        <ele>1318</ele>
        <time>2024-09-19T12:08:20Z</time>
      </trkpt>
      <trkpt lat="42.5007" lon="2.56172">
        <ele>1319</ele>
        <time>2024-09-19T12:08:23Z</time>
      </trkpt>
      <trkpt lat="42.50067" lon="2.56172">
        <ele>1318</ele>
        <time>2024-09-19T12:08:26Z</time>
      </trkpt>
      <trkpt lat="42.50063" lon="2.56172">
        <ele>1318</ele>
        <time>2024-09-19T12:08:29Z</time>
      </trkpt>
      <trkpt lat="42.5006" lon="2.56172">
        <ele>1318</ele>
        <time>2024-09-19T12:08:31Z</time>
      </trkpt>
      <trkpt lat="42.50056" lon="2.5617">
        <ele>1315</ele>
        <time>2024-09-19T12:08:39Z</time>
      </trkpt>
      <trkpt lat="42.50053" lon="2.5617">
        <ele>1315</ele>
        <time>2024-09-19T12:08:42Z</time>
      </trkpt>
      <trkpt lat="42.5005" lon="2.56172">
        <ele>1314</ele>
        <time>2024-09-19T12:08:44Z</time>
      </trkpt>
      <trkpt lat="42.50047" lon="2.56172">
        <ele>1315</ele>
        <time>2024-09-19T12:08:47Z</time>
      </trkpt>
      <trkpt lat="42.50044" lon="2.56172">
        <ele>1313</ele>
        <time>2024-09-19T12:08:50Z</time>
      </trkpt>
      <trkpt lat="42.50041" lon="2.56172">
        <ele>1314</ele>
        <time>2024-09-19T12:08:53Z</time>
      </trkpt>
      <trkpt lat="42.50037" lon="2.56171">
        <ele>1314</ele>
        <time>2024-09-19T12:08:56Z</time>
      </trkpt>
      <trkpt lat="42.50034" lon="2.56172">
        <ele>1311</ele>
        <time>2024-09-19T12:08:59Z</time>
      </trkpt>
      <trkpt lat="42.50031" lon="2.56174">
        <ele>1312</ele>
        <time>2024-09-19T12:09:01Z</time>
      </trkpt>
      <trkpt lat="42.50028" lon="2.56175">
        <ele>1311</ele>
        <time>2024-09-19T12:09:04Z</time>
      </trkpt>
      <trkpt lat="42.50025" lon="2.56176">
        <ele>1309</ele>
        <time>2024-09-19T12:09:07Z</time>
      </trkpt>
      <trkpt lat="42.50021" lon="2.56176">
        <ele>1307</ele>
        <time>2024-09-19T12:09:10Z</time>
      </trkpt>
      <trkpt lat="42.50019" lon="2.56174">
        <ele>1308</ele>
        <time>2024-09-19T12:09:14Z</time>
      </trkpt>
      <trkpt lat="42.50015" lon="2.56173">
        <ele>1306</ele>
        <time>2024-09-19T12:09:17Z</time>
      </trkpt>
      <trkpt lat="42.50012" lon="2.56172">
        <ele>1307</ele>
        <time>2024-09-19T12:09:20Z</time>
      </trkpt>
      <trkpt lat="42.50009" lon="2.56171">
        <ele>1306</ele>
        <time>2024-09-19T12:09:22Z</time>
      </trkpt>
      <trkpt lat="42.50005" lon="2.56171">
        <ele>1306</ele>
        <time>2024-09-19T12:09:27Z</time>
      </trkpt>
      <trkpt lat="42.50006" lon="2.56169">
        <ele>1298</ele>
        <time>2024-09-19T12:09:40Z</time>
      </trkpt>
      <trkpt lat="42.50007" lon="2.56166">
        <ele>1289</ele>
        <time>2024-09-19T12:10:07Z</time>
      </trkpt>
      <trkpt lat="42.50006" lon="2.56166">
        <ele>1289</ele>
        <time>2024-09-19T12:10:20Z</time>
      </trkpt>
      <trkpt lat="42.50004" lon="2.56165">
        <ele>1291</ele>
        <time>2024-09-19T12:10:31Z</time>
      </trkpt>
      <trkpt lat="42.5" lon="2.56165">
        <ele>1292</ele>
        <time>2024-09-19T12:10:34Z</time>
      </trkpt>
      <trkpt lat="42.49996" lon="2.56166">
        <ele>1292</ele>
        <time>2024-09-19T12:10:37Z</time>
      </trkpt>
      <trkpt lat="42.49993" lon="2.56166">
        <ele>1293</ele>
        <time>2024-09-19T12:10:39Z</time>
      </trkpt>
      <trkpt lat="42.4999" lon="2.56165">
        <ele>1294</ele>
        <time>2024-09-19T12:10:42Z</time>
      </trkpt>
      <trkpt lat="42.49987" lon="2.56164">
        <ele>1294</ele>
        <time>2024-09-19T12:10:45Z</time>
      </trkpt>
      <trkpt lat="42.49983" lon="2.56164">
        <ele>1296</ele>
        <time>2024-09-19T12:10:47Z</time>
      </trkpt>
      <trkpt lat="42.4998" lon="2.56163">
        <ele>1297</ele>
        <time>2024-09-19T12:10:50Z</time>
      </trkpt>
      <trkpt lat="42.49977" lon="2.56162">
        <ele>1297</ele>
        <time>2024-09-19T12:10:52Z</time>
      </trkpt>
      <trkpt lat="42.49974" lon="2.56163">
        <ele>1294</ele>
        <time>2024-09-19T12:10:57Z</time>
      </trkpt>
      <trkpt lat="42.49971" lon="2.56164">
        <ele>1295</ele>
        <time>2024-09-19T12:10:59Z</time>
      </trkpt>
      <trkpt lat="42.49969" lon="2.56162">
        <ele>1294</ele>
        <time>2024-09-19T12:11:02Z</time>
      </trkpt>
      <trkpt lat="42.49965" lon="2.5616">
        <ele>1293</ele>
        <time>2024-09-19T12:11:05Z</time>
      </trkpt>
      <trkpt lat="42.49963" lon="2.56158">
        <ele>1293</ele>
        <time>2024-09-19T12:11:07Z</time>
      </trkpt>
      <trkpt lat="42.4996" lon="2.56157">
        <ele>1294</ele>
        <time>2024-09-19T12:11:09Z</time>
      </trkpt>
      <trkpt lat="42.49957" lon="2.56157">
        <ele>1295</ele>
        <time>2024-09-19T12:11:11Z</time>
      </trkpt>
      <trkpt lat="42.49954" lon="2.56156">
        <ele>1294</ele>
        <time>2024-09-19T12:11:13Z</time>
      </trkpt>
      <trkpt lat="42.4995" lon="2.56157">
        <ele>1294</ele>
        <time>2024-09-19T12:11:16Z</time>
      </trkpt>
      <trkpt lat="42.49948" lon="2.56158">
        <ele>1293</ele>
        <time>2024-09-19T12:11:18Z</time>
      </trkpt>
      <trkpt lat="42.49944" lon="2.5616">
        <ele>1292</ele>
        <time>2024-09-19T12:11:21Z</time>
      </trkpt>
      <trkpt lat="42.49942" lon="2.56163">
        <ele>1293</ele>
        <time>2024-09-19T12:11:23Z</time>
      </trkpt>
      <trkpt lat="42.49939" lon="2.56165">
        <ele>1292</ele>
        <time>2024-09-19T12:11:25Z</time>
      </trkpt>
      <trkpt lat="42.49936" lon="2.56165">
        <ele>1289</ele>
        <time>2024-09-19T12:11:29Z</time>
      </trkpt>
      <trkpt lat="42.49933" lon="2.56164">
        <ele>1287</ele>
        <time>2024-09-19T12:11:33Z</time>
      </trkpt>
      <trkpt lat="42.49931" lon="2.56166">
        <ele>1285</ele>
        <time>2024-09-19T12:11:38Z</time>
      </trkpt>
      <trkpt lat="42.49927" lon="2.56166">
        <ele>1284</ele>
        <time>2024-09-19T12:11:42Z</time>
      </trkpt>
      <trkpt lat="42.49924" lon="2.56166">
        <ele>1285</ele>
        <time>2024-09-19T12:11:44Z</time>
      </trkpt>
      <trkpt lat="42.4992" lon="2.56165">
        <ele>1285</ele>
        <time>2024-09-19T12:11:47Z</time>
      </trkpt>
      <trkpt lat="42.49918" lon="2.56167">
        <ele>1284</ele>
        <time>2024-09-19T12:11:49Z</time>
      </trkpt>
      <trkpt lat="42.49916" lon="2.5617">
        <ele>1282</ele>
        <time>2024-09-19T12:11:52Z</time>
      </trkpt>
      <trkpt lat="42.49914" lon="2.56173">
        <ele>1282</ele>
        <time>2024-09-19T12:11:54Z</time>
      </trkpt>
      <trkpt lat="42.49911" lon="2.56175">
        <ele>1282</ele>
        <time>2024-09-19T12:11:56Z</time>
      </trkpt>
      <trkpt lat="42.49909" lon="2.56175">
        <ele>1282</ele>
        <time>2024-09-19T12:11:58Z</time>
      </trkpt>
      <trkpt lat="42.49905" lon="2.56175">
        <ele>1281</ele>
        <time>2024-09-19T12:12:01Z</time>
      </trkpt>
      <trkpt lat="42.49902" lon="2.56174">
        <ele>1278</ele>
        <time>2024-09-19T12:12:04Z</time>
      </trkpt>
      <trkpt lat="42.49898" lon="2.56174">
        <ele>1277</ele>
        <time>2024-09-19T12:12:06Z</time>
      </trkpt>
      <trkpt lat="42.49895" lon="2.56172">
        <ele>1276</ele>
        <time>2024-09-19T12:12:09Z</time>
      </trkpt>
      <trkpt lat="42.49892" lon="2.5617">
        <ele>1272</ele>
        <time>2024-09-19T12:12:13Z</time>
      </trkpt>
      <trkpt lat="42.49889" lon="2.5617">
        <ele>1269</ele>
        <time>2024-09-19T12:12:16Z</time>
      </trkpt>
      <trkpt lat="42.49886" lon="2.56171">
        <ele>1267</ele>
        <time>2024-09-19T12:12:20Z</time>
      </trkpt>
      <trkpt lat="42.49883" lon="2.56171">
        <ele>1265</ele>
        <time>2024-09-19T12:12:23Z</time>
      </trkpt>
      <trkpt lat="42.4988" lon="2.56172">
        <ele>1265</ele>
        <time>2024-09-19T12:12:26Z</time>
      </trkpt>
      <trkpt lat="42.4988" lon="2.56174">
        <ele>1263</ele>
        <time>2024-09-19T12:12:37Z</time>
      </trkpt>
      <trkpt lat="42.49878" lon="2.56176">
        <ele>1262</ele>
        <time>2024-09-19T12:12:43Z</time>
      </trkpt>
      <trkpt lat="42.49875" lon="2.56175">
        <ele>1259</ele>
        <time>2024-09-19T12:12:49Z</time>
      </trkpt>
      <trkpt lat="42.49872" lon="2.56174">
        <ele>1259</ele>
        <time>2024-09-19T12:12:51Z</time>
      </trkpt>
      <trkpt lat="42.49869" lon="2.56173">
        <ele>1259</ele>
        <time>2024-09-19T12:12:54Z</time>
      </trkpt>
      <trkpt lat="42.49866" lon="2.56173">
        <ele>1258</ele>
        <time>2024-09-19T12:12:56Z</time>
      </trkpt>
      <trkpt lat="42.49863" lon="2.56172">
        <ele>1257</ele>
        <time>2024-09-19T12:12:59Z</time>
      </trkpt>
      <trkpt lat="42.4986" lon="2.5617">
        <ele>1256</ele>
        <time>2024-09-19T12:13:05Z</time>
      </trkpt>
      <trkpt lat="42.49857" lon="2.56168">
        <ele>1255</ele>
        <time>2024-09-19T12:13:07Z</time>
      </trkpt>
      <trkpt lat="42.49855" lon="2.56165">
        <ele>1255</ele>
        <time>2024-09-19T12:13:10Z</time>
      </trkpt>
      <trkpt lat="42.49853" lon="2.56164">
        <ele>1254</ele>
        <time>2024-09-19T12:13:13Z</time>
      </trkpt>
      <trkpt lat="42.4985" lon="2.56162">
        <ele>1253</ele>
        <time>2024-09-19T12:13:17Z</time>
      </trkpt>
      <trkpt lat="42.49848" lon="2.56159">
        <ele>1251</ele>
        <time>2024-09-19T12:13:20Z</time>
      </trkpt>
      <trkpt lat="42.49846" lon="2.56158">
        <ele>1250</ele>
        <time>2024-09-19T12:13:25Z</time>
      </trkpt>
      <trkpt lat="42.49842" lon="2.56157">
        <ele>1247</ele>
        <time>2024-09-19T12:13:40Z</time>
      </trkpt>
      <trkpt lat="42.49839" lon="2.56157">
        <ele>1246</ele>
        <time>2024-09-19T12:13:44Z</time>
      </trkpt>
      <trkpt lat="42.49837" lon="2.5616">
        <ele>1245</ele>
        <time>2024-09-19T12:13:50Z</time>
      </trkpt>
      <trkpt lat="42.49835" lon="2.56163">
        <ele>1245</ele>
        <time>2024-09-19T12:13:53Z</time>
      </trkpt>
      <trkpt lat="42.49834" lon="2.56167">
        <ele>1244</ele>
        <time>2024-09-19T12:13:58Z</time>
      </trkpt>
      <trkpt lat="42.49833" lon="2.56171">
        <ele>1243</ele>
        <time>2024-09-19T12:14:01Z</time>
      </trkpt>
      <trkpt lat="42.49832" lon="2.56175">
        <ele>1243</ele>
        <time>2024-09-19T12:14:04Z</time>
      </trkpt>
      <trkpt lat="42.49832" lon="2.5618">
        <ele>1241</ele>
        <time>2024-09-19T12:14:07Z</time>
      </trkpt>
      <trkpt lat="42.49832" lon="2.56185">
        <ele>1243</ele>
        <time>2024-09-19T12:14:09Z</time>
      </trkpt>
      <trkpt lat="42.49832" lon="2.5619">
        <ele>1242</ele>
        <time>2024-09-19T12:14:12Z</time>
      </trkpt>
      <trkpt lat="42.49831" lon="2.56194">
        <ele>1241</ele>
        <time>2024-09-19T12:14:16Z</time>
      </trkpt>
      <trkpt lat="42.49832" lon="2.56199">
        <ele>1241</ele>
        <time>2024-09-19T12:14:19Z</time>
      </trkpt>
      <trkpt lat="42.49832" lon="2.56203">
        <ele>1242</ele>
        <time>2024-09-19T12:14:21Z</time>
      </trkpt>
      <trkpt lat="42.49832" lon="2.56207">
        <ele>1242</ele>
        <time>2024-09-19T12:14:28Z</time>
      </trkpt>
      <trkpt lat="42.49833" lon="2.56212">
        <ele>1241</ele>
        <time>2024-09-19T12:14:31Z</time>
      </trkpt>
      <trkpt lat="42.49831" lon="2.56214">
        <ele>1239</ele>
        <time>2024-09-19T12:14:36Z</time>
      </trkpt>
      <trkpt lat="42.49829" lon="2.56213">
        <ele>1239</ele>
        <time>2024-09-19T12:14:39Z</time>
      </trkpt>
      <trkpt lat="42.49826" lon="2.56212">
        <ele>1238</ele>
        <time>2024-09-19T12:14:43Z</time>
      </trkpt>
      <trkpt lat="42.49823" lon="2.5621">
        <ele>1237</ele>
        <time>2024-09-19T12:14:46Z</time>
      </trkpt>
      <trkpt lat="42.4982" lon="2.56211">
        <ele>1235</ele>
        <time>2024-09-19T12:14:50Z</time>
      </trkpt>
      <trkpt lat="42.49818" lon="2.56214">
        <ele>1234</ele>
        <time>2024-09-19T12:14:55Z</time>
      </trkpt>
      <trkpt lat="42.49817" lon="2.56218">
        <ele>1235</ele>
        <time>2024-09-19T12:15:09Z</time>
      </trkpt>
      <trkpt lat="42.49816" lon="2.56221">
        <ele>1231</ele>
        <time>2024-09-19T12:15:17Z</time>
      </trkpt>
      <trkpt lat="42.49813" lon="2.56224">
        <ele>1229</ele>
        <time>2024-09-19T12:15:21Z</time>
      </trkpt>
      <trkpt lat="42.4981" lon="2.56225">
        <ele>1228</ele>
        <time>2024-09-19T12:15:29Z</time>
      </trkpt>
      <trkpt lat="42.49807" lon="2.56226">
        <ele>1227</ele>
        <time>2024-09-19T12:15:32Z</time>
      </trkpt>
      <trkpt lat="42.49804" lon="2.56225">
        <ele>1227</ele>
        <time>2024-09-19T12:15:38Z</time>
      </trkpt>
      <trkpt lat="42.49801" lon="2.56223">
        <ele>1228</ele>
        <time>2024-09-19T12:15:41Z</time>
      </trkpt>
      <trkpt lat="42.49797" lon="2.56222">
        <ele>1227</ele>
        <time>2024-09-19T12:15:46Z</time>
      </trkpt>
      <trkpt lat="42.49795" lon="2.56221">
        <ele>1227</ele>
        <time>2024-09-19T12:15:49Z</time>
      </trkpt>
      <trkpt lat="42.49792" lon="2.56221">
        <ele>1228</ele>
        <time>2024-09-19T12:15:52Z</time>
      </trkpt>
      <trkpt lat="42.49789" lon="2.5622">
        <ele>1227</ele>
        <time>2024-09-19T12:15:56Z</time>
      </trkpt>
      <trkpt lat="42.49786" lon="2.56219">
        <ele>1223</ele>
        <time>2024-09-19T12:16:02Z</time>
      </trkpt>
      <trkpt lat="42.49784" lon="2.56216">
        <ele>1220</ele>
        <time>2024-09-19T12:16:06Z</time>
      </trkpt>
      <trkpt lat="42.49781" lon="2.56216">
        <ele>1216</ele>
        <time>2024-09-19T12:16:54Z</time>
      </trkpt>
      <trkpt lat="42.49779" lon="2.56218">
        <ele>1215</ele>
        <time>2024-09-19T12:16:59Z</time>
      </trkpt>
      <trkpt lat="42.49777" lon="2.56221">
        <ele>1214</ele>
        <time>2024-09-19T12:17:02Z</time>
      </trkpt>
      <trkpt lat="42.49774" lon="2.56222">
        <ele>1213</ele>
        <time>2024-09-19T12:17:07Z</time>
      </trkpt>
      <trkpt lat="42.49771" lon="2.56224">
        <ele>1213</ele>
        <time>2024-09-19T12:17:12Z</time>
      </trkpt>
      <trkpt lat="42.49768" lon="2.56224">
        <ele>1211</ele>
        <time>2024-09-19T12:17:17Z</time>
      </trkpt>
      <trkpt lat="42.49765" lon="2.56225">
        <ele>1209</ele>
        <time>2024-09-19T12:17:23Z</time>
      </trkpt>
      <trkpt lat="42.49762" lon="2.56226">
        <ele>1208</ele>
        <time>2024-09-19T12:17:26Z</time>
      </trkpt>
      <trkpt lat="42.49759" lon="2.56225">
        <ele>1208</ele>
        <time>2024-09-19T12:17:30Z</time>
      </trkpt>
      <trkpt lat="42.49757" lon="2.56224">
        <ele>1205</ele>
        <time>2024-09-19T12:17:42Z</time>
      </trkpt>
      <trkpt lat="42.49754" lon="2.56225">
        <ele>1203</ele>
        <time>2024-09-19T12:17:47Z</time>
      </trkpt>
      <trkpt lat="42.49752" lon="2.56223">
        <ele>1200</ele>
        <time>2024-09-19T12:17:58Z</time>
      </trkpt>
      <trkpt lat="42.4975" lon="2.56223">
        <ele>1201</ele>
        <time>2024-09-19T12:18:01Z</time>
      </trkpt>
      <trkpt lat="42.49747" lon="2.56223">
        <ele>1200</ele>
        <time>2024-09-19T12:18:04Z</time>
      </trkpt>
      <trkpt lat="42.49745" lon="2.56226">
        <ele>1199</ele>
        <time>2024-09-19T12:18:08Z</time>
      </trkpt>
      <trkpt lat="42.49743" lon="2.56228">
        <ele>1199</ele>
        <time>2024-09-19T12:18:12Z</time>
      </trkpt>
      <trkpt lat="42.49742" lon="2.56232">
        <ele>1197</ele>
        <time>2024-09-19T12:18:25Z</time>
      </trkpt>
      <trkpt lat="42.49741" lon="2.56236">
        <ele>1195</ele>
        <time>2024-09-19T12:18:31Z</time>
      </trkpt>
      <trkpt lat="42.49739" lon="2.56237">
        <ele>1195</ele>
        <time>2024-09-19T12:18:34Z</time>
      </trkpt>
      <trkpt lat="42.49737" lon="2.56234">
        <ele>1194</ele>
        <time>2024-09-19T12:18:37Z</time>
      </trkpt>
      <trkpt lat="42.49734" lon="2.56232">
        <ele>1194</ele>
        <time>2024-09-19T12:18:39Z</time>
      </trkpt>
      <trkpt lat="42.49732" lon="2.56229">
        <ele>1194</ele>
        <time>2024-09-19T12:18:42Z</time>
      </trkpt>
      <trkpt lat="42.49729" lon="2.56227">
        <ele>1194</ele>
        <time>2024-09-19T12:18:44Z</time>
      </trkpt>
      <trkpt lat="42.49727" lon="2.56228">
        <ele>1192</ele>
        <time>2024-09-19T12:18:47Z</time>
      </trkpt>
      <trkpt lat="42.49726" lon="2.56231">
        <ele>1191</ele>
        <time>2024-09-19T12:18:50Z</time>
      </trkpt>
      <trkpt lat="42.49725" lon="2.56234">
        <ele>1190</ele>
        <time>2024-09-19T12:18:53Z</time>
      </trkpt>
      <trkpt lat="42.49724" lon="2.56238">
        <ele>1189</ele>
        <time>2024-09-19T12:19:03Z</time>
      </trkpt>
      <trkpt lat="42.49722" lon="2.56236">
        <ele>1187</ele>
        <time>2024-09-19T12:21:04Z</time>
      </trkpt>
      <trkpt lat="42.49724" lon="2.56236">
        <ele>1183</ele>
        <time>2024-09-19T12:21:40Z</time>
      </trkpt>
      <trkpt lat="42.49727" lon="2.56235">
        <ele>1183</ele>
        <time>2024-09-19T12:21:42Z</time>
      </trkpt>
      <trkpt lat="42.49726" lon="2.56236">
        <ele>1183</ele>
        <time>2024-09-19T12:21:51Z</time>
      </trkpt>
      <trkpt lat="42.49724" lon="2.56236">
        <ele>1183</ele>
        <time>2024-09-19T12:22:05Z</time>
      </trkpt>
      <trkpt lat="42.49722" lon="2.56237">
        <ele>1183</ele>
        <time>2024-09-19T12:22:14Z</time>
      </trkpt>
      <trkpt lat="42.49718" lon="2.56239">
        <ele>1184</ele>
        <time>2024-09-19T12:22:18Z</time>
      </trkpt>
      <trkpt lat="42.49715" lon="2.56241">
        <ele>1184</ele>
        <time>2024-09-19T12:22:21Z</time>
      </trkpt>
      <trkpt lat="42.49713" lon="2.56243">
        <ele>1183</ele>
        <time>2024-09-19T12:22:26Z</time>
      </trkpt>
      <trkpt lat="42.49711" lon="2.56246">
        <ele>1183</ele>
        <time>2024-09-19T12:22:32Z</time>
      </trkpt>
      <trkpt lat="42.49708" lon="2.56248">
        <ele>1183</ele>
        <time>2024-09-19T12:22:37Z</time>
      </trkpt>
      <trkpt lat="42.49707" lon="2.56251">
        <ele>1181</ele>
        <time>2024-09-19T12:22:41Z</time>
      </trkpt>
      <trkpt lat="42.49704" lon="2.56251">
        <ele>1179</ele>
        <time>2024-09-19T12:22:46Z</time>
      </trkpt>
      <trkpt lat="42.49701" lon="2.56251">
        <ele>1179</ele>
        <time>2024-09-19T12:22:50Z</time>
      </trkpt>
      <trkpt lat="42.49698" lon="2.56252">
        <ele>1178</ele>
        <time>2024-09-19T12:22:53Z</time>
      </trkpt>
      <trkpt lat="42.49695" lon="2.56251">
        <ele>1177</ele>
        <time>2024-09-19T12:22:56Z</time>
      </trkpt>
      <trkpt lat="42.49693" lon="2.56249">
        <ele>1175</ele>
        <time>2024-09-19T12:22:59Z</time>
      </trkpt>
      <trkpt lat="42.4969" lon="2.56248">
        <ele>1174</ele>
        <time>2024-09-19T12:23:02Z</time>
      </trkpt>
      <trkpt lat="42.49688" lon="2.56251">
        <ele>1172</ele>
        <time>2024-09-19T12:23:07Z</time>
      </trkpt>
      <trkpt lat="42.49686" lon="2.56252">
        <ele>1171</ele>
        <time>2024-09-19T12:23:10Z</time>
      </trkpt>
      <trkpt lat="42.49683" lon="2.56254">
        <ele>1170</ele>
        <time>2024-09-19T12:23:14Z</time>
      </trkpt>
      <trkpt lat="42.4968" lon="2.56256">
        <ele>1170</ele>
        <time>2024-09-19T12:23:18Z</time>
      </trkpt>
      <trkpt lat="42.49678" lon="2.56258">
        <ele>1169</ele>
        <time>2024-09-19T12:23:21Z</time>
      </trkpt>
      <trkpt lat="42.49676" lon="2.56262">
        <ele>1170</ele>
        <time>2024-09-19T12:23:24Z</time>
      </trkpt>
      <trkpt lat="42.49673" lon="2.56263">
        <ele>1168</ele>
        <time>2024-09-19T12:23:29Z</time>
      </trkpt>
      <trkpt lat="42.49671" lon="2.56266">
        <ele>1167</ele>
        <time>2024-09-19T12:23:32Z</time>
      </trkpt>
      <trkpt lat="42.49669" lon="2.56269">
        <ele>1166</ele>
        <time>2024-09-19T12:23:36Z</time>
      </trkpt>
      <trkpt lat="42.49666" lon="2.56272">
        <ele>1166</ele>
        <time>2024-09-19T12:23:39Z</time>
      </trkpt>
      <trkpt lat="42.49664" lon="2.56274">
        <ele>1166</ele>
        <time>2024-09-19T12:23:42Z</time>
      </trkpt>
      <trkpt lat="42.49661" lon="2.56275">
        <ele>1165</ele>
        <time>2024-09-19T12:23:46Z</time>
      </trkpt>
      <trkpt lat="42.4966" lon="2.56278">
        <ele>1164</ele>
        <time>2024-09-19T12:23:49Z</time>
      </trkpt>
      <trkpt lat="42.49658" lon="2.5628">
        <ele>1163</ele>
        <time>2024-09-19T12:23:53Z</time>
      </trkpt>
      <trkpt lat="42.49655" lon="2.56282">
        <ele>1162</ele>
        <time>2024-09-19T12:23:57Z</time>
      </trkpt>
      <trkpt lat="42.49652" lon="2.56283">
        <ele>1161</ele>
        <time>2024-09-19T12:24:01Z</time>
      </trkpt>
      <trkpt lat="42.4965" lon="2.56285">
        <ele>1160</ele>
        <time>2024-09-19T12:24:05Z</time>
      </trkpt>
      <trkpt lat="42.49647" lon="2.56285">
        <ele>1160</ele>
        <time>2024-09-19T12:24:09Z</time>
      </trkpt>
      <trkpt lat="42.49644" lon="2.56285">
        <ele>1158</ele>
        <time>2024-09-19T12:24:15Z</time>
      </trkpt>
      <trkpt lat="42.49641" lon="2.56286">
        <ele>1157</ele>
        <time>2024-09-19T12:24:18Z</time>
      </trkpt>
      <trkpt lat="42.49639" lon="2.56289">
        <ele>1156</ele>
        <time>2024-09-19T12:24:22Z</time>
      </trkpt>
      <trkpt lat="42.49638" lon="2.56292">
        <ele>1156</ele>
        <time>2024-09-19T12:24:25Z</time>
      </trkpt>
      <trkpt lat="42.49637" lon="2.56296">
        <ele>1154</ele>
        <time>2024-09-19T12:24:30Z</time>
      </trkpt>
      <trkpt lat="42.49636" lon="2.563">
        <ele>1153</ele>
        <time>2024-09-19T12:24:34Z</time>
      </trkpt>
      <trkpt lat="42.49633" lon="2.56302">
        <ele>1152</ele>
        <time>2024-09-19T12:24:37Z</time>
      </trkpt>
      <trkpt lat="42.49631" lon="2.56304">
        <ele>1152</ele>
        <time>2024-09-19T12:24:39Z</time>
      </trkpt>
      <trkpt lat="42.4963" lon="2.56308">
        <ele>1151</ele>
        <time>2024-09-19T12:24:42Z</time>
      </trkpt>
      <trkpt lat="42.49629" lon="2.56311">
        <ele>1151</ele>
        <time>2024-09-19T12:24:45Z</time>
      </trkpt>
      <trkpt lat="42.49626" lon="2.56314">
        <ele>1152</ele>
        <time>2024-09-19T12:24:48Z</time>
      </trkpt>
      <trkpt lat="42.49624" lon="2.56318">
        <ele>1150</ele>
        <time>2024-09-19T12:24:52Z</time>
      </trkpt>
      <trkpt lat="42.49621" lon="2.56322">
        <ele>1149</ele>
        <time>2024-09-19T12:24:56Z</time>
      </trkpt>
      <trkpt lat="42.49618" lon="2.56325">
        <ele>1149</ele>
        <time>2024-09-19T12:25:01Z</time>
      </trkpt>
      <trkpt lat="42.49616" lon="2.56327">
        <ele>1147</ele>
        <time>2024-09-19T12:25:05Z</time>
      </trkpt>
      <trkpt lat="42.49613" lon="2.56327">
        <ele>1147</ele>
        <time>2024-09-19T12:25:10Z</time>
      </trkpt>
      <trkpt lat="42.49611" lon="2.56325">
        <ele>1147</ele>
        <time>2024-09-19T12:25:19Z</time>
      </trkpt>
      <trkpt lat="42.49608" lon="2.56327">
        <ele>1145</ele>
        <time>2024-09-19T12:25:28Z</time>
      </trkpt>
      <trkpt lat="42.49606" lon="2.56329">
        <ele>1145</ele>
        <time>2024-09-19T12:25:30Z</time>
      </trkpt>
      <trkpt lat="42.49604" lon="2.56332">
        <ele>1144</ele>
        <time>2024-09-19T12:25:34Z</time>
      </trkpt>
      <trkpt lat="42.49601" lon="2.56332">
        <ele>1144</ele>
        <time>2024-09-19T12:25:37Z</time>
      </trkpt>
      <trkpt lat="42.49599" lon="2.56328">
        <ele>1142</ele>
        <time>2024-09-19T12:25:41Z</time>
      </trkpt>
      <trkpt lat="42.49597" lon="2.56327">
        <ele>1140</ele>
        <time>2024-09-19T12:25:45Z</time>
      </trkpt>
      <trkpt lat="42.49594" lon="2.56326">
        <ele>1140</ele>
        <time>2024-09-19T12:25:48Z</time>
      </trkpt>
      <trkpt lat="42.49592" lon="2.56327">
        <ele>1140</ele>
        <time>2024-09-19T12:25:51Z</time>
      </trkpt>
      <trkpt lat="42.4959" lon="2.56331">
        <ele>1141</ele>
        <time>2024-09-19T12:25:55Z</time>
      </trkpt>
      <trkpt lat="42.49587" lon="2.56331">
        <ele>1140</ele>
        <time>2024-09-19T12:25:58Z</time>
      </trkpt>
      <trkpt lat="42.49584" lon="2.56331">
        <ele>1140</ele>
        <time>2024-09-19T12:26:01Z</time>
      </trkpt>
      <trkpt lat="42.49581" lon="2.56331">
        <ele>1140</ele>
        <time>2024-09-19T12:26:03Z</time>
      </trkpt>
      <trkpt lat="42.49577" lon="2.56333">
        <ele>1140</ele>
        <time>2024-09-19T12:26:06Z</time>
      </trkpt>
      <trkpt lat="42.49574" lon="2.56333">
        <ele>1139</ele>
        <time>2024-09-19T12:26:09Z</time>
      </trkpt>
      <trkpt lat="42.49571" lon="2.56335">
        <ele>1137</ele>
        <time>2024-09-19T12:26:12Z</time>
      </trkpt>
      <trkpt lat="42.49568" lon="2.56336">
        <ele>1138</ele>
        <time>2024-09-19T12:26:16Z</time>
      </trkpt>
      <trkpt lat="42.49565" lon="2.56338">
        <ele>1137</ele>
        <time>2024-09-19T12:26:19Z</time>
      </trkpt>
      <trkpt lat="42.49562" lon="2.5634">
        <ele>1136</ele>
        <time>2024-09-19T12:26:24Z</time>
      </trkpt>
      <trkpt lat="42.49559" lon="2.56343">
        <ele>1135</ele>
        <time>2024-09-19T12:26:28Z</time>
      </trkpt>
      <trkpt lat="42.49556" lon="2.56345">
        <ele>1135</ele>
        <time>2024-09-19T12:26:30Z</time>
      </trkpt>
      <trkpt lat="42.49553" lon="2.56347">
        <ele>1134</ele>
        <time>2024-09-19T12:26:33Z</time>
      </trkpt>
      <trkpt lat="42.49551" lon="2.56349">
        <ele>1134</ele>
        <time>2024-09-19T12:26:36Z</time>
      </trkpt>
      <trkpt lat="42.49549" lon="2.56353">
        <ele>1132</ele>
        <time>2024-09-19T12:26:40Z</time>
      </trkpt>
      <trkpt lat="42.49548" lon="2.56356">
        <ele>1132</ele>
        <time>2024-09-19T12:26:43Z</time>
      </trkpt>
      <trkpt lat="42.49546" lon="2.56359">
        <ele>1131</ele>
        <time>2024-09-19T12:26:45Z</time>
      </trkpt>
      <trkpt lat="42.49543" lon="2.56361">
        <ele>1130</ele>
        <time>2024-09-19T12:26:49Z</time>
      </trkpt>
      <trkpt lat="42.49541" lon="2.56364">
        <ele>1129</ele>
        <time>2024-09-19T12:26:52Z</time>
      </trkpt>
      <trkpt lat="42.4954" lon="2.56367">
        <ele>1129</ele>
        <time>2024-09-19T12:26:54Z</time>
      </trkpt>
      <trkpt lat="42.49539" lon="2.56371">
        <ele>1127</ele>
        <time>2024-09-19T12:26:58Z</time>
      </trkpt>
      <trkpt lat="42.49537" lon="2.56375">
        <ele>1127</ele>
        <time>2024-09-19T12:27:00Z</time>
      </trkpt>
      <trkpt lat="42.49536" lon="2.56379">
        <ele>1128</ele>
        <time>2024-09-19T12:27:03Z</time>
      </trkpt>
      <trkpt lat="42.49534" lon="2.56383">
        <ele>1127</ele>
        <time>2024-09-19T12:27:07Z</time>
      </trkpt>
      <trkpt lat="42.49534" lon="2.56387">
        <ele>1126</ele>
        <time>2024-09-19T12:27:11Z</time>
      </trkpt>
      <trkpt lat="42.49533" lon="2.56391">
        <ele>1124</ele>
        <time>2024-09-19T12:27:17Z</time>
      </trkpt>
      <trkpt lat="42.4953" lon="2.56391">
        <ele>1124</ele>
        <time>2024-09-19T12:27:21Z</time>
      </trkpt>
      <trkpt lat="42.49528" lon="2.5639">
        <ele>1122</ele>
        <time>2024-09-19T12:27:25Z</time>
      </trkpt>
      <trkpt lat="42.49526" lon="2.56393">
        <ele>1122</ele>
        <time>2024-09-19T12:27:29Z</time>
      </trkpt>
      <trkpt lat="42.49526" lon="2.56397">
        <ele>1120</ele>
        <time>2024-09-19T12:27:44Z</time>
      </trkpt>
      <trkpt lat="42.49526" lon="2.564">
        <ele>1121</ele>
        <time>2024-09-19T12:28:22Z</time>
      </trkpt>
      <trkpt lat="42.49525" lon="2.56402">
        <ele>1120</ele>
        <time>2024-09-19T12:28:55Z</time>
      </trkpt>
      <trkpt lat="42.49524" lon="2.56401">
        <ele>1118</ele>
        <time>2024-09-19T12:28:58Z</time>
      </trkpt>
      <trkpt lat="42.49522" lon="2.56398">
        <ele>1116</ele>
        <time>2024-09-19T12:29:03Z</time>
      </trkpt>
      <trkpt lat="42.4952" lon="2.56396">
        <ele>1115</ele>
        <time>2024-09-19T12:29:11Z</time>
      </trkpt>
      <trkpt lat="42.49517" lon="2.56393">
        <ele>1114</ele>
        <time>2024-09-19T12:29:15Z</time>
      </trkpt>
      <trkpt lat="42.49514" lon="2.56391">
        <ele>1113</ele>
        <time>2024-09-19T12:29:22Z</time>
      </trkpt>
      <trkpt lat="42.49512" lon="2.56388">
        <ele>1112</ele>
        <time>2024-09-19T12:29:25Z</time>
      </trkpt>
      <trkpt lat="42.4951" lon="2.56387">
        <ele>1110</ele>
        <time>2024-09-19T12:29:28Z</time>
      </trkpt>
      <trkpt lat="42.49507" lon="2.56384">
        <ele>1110</ele>
        <time>2024-09-19T12:29:31Z</time>
      </trkpt>
      <trkpt lat="42.49505" lon="2.56382">
        <ele>1109</ele>
        <time>2024-09-19T12:29:34Z</time>
      </trkpt>
      <trkpt lat="42.49503" lon="2.56382">
        <ele>1107</ele>
        <time>2024-09-19T12:29:38Z</time>
      </trkpt>
      <trkpt lat="42.49501" lon="2.56385">
        <ele>1107</ele>
        <time>2024-09-19T12:29:40Z</time>
      </trkpt>
      <trkpt lat="42.49499" lon="2.56387">
        <ele>1104</ele>
        <time>2024-09-19T12:29:46Z</time>
      </trkpt>
      <trkpt lat="42.49497" lon="2.56389">
        <ele>1102</ele>
        <time>2024-09-19T12:29:49Z</time>
      </trkpt>
      <trkpt lat="42.49496" lon="2.56393">
        <ele>1101</ele>
        <time>2024-09-19T12:29:53Z</time>
      </trkpt>
      <trkpt lat="42.49494" lon="2.56395">
        <ele>1099</ele>
        <time>2024-09-19T12:29:58Z</time>
      </trkpt>
      <trkpt lat="42.49491" lon="2.56395">
        <ele>1097</ele>
        <time>2024-09-19T12:30:02Z</time>
      </trkpt>
      <trkpt lat="42.49489" lon="2.56397">
        <ele>1097</ele>
        <time>2024-09-19T12:30:05Z</time>
      </trkpt>
      <trkpt lat="42.49487" lon="2.564">
        <ele>1096</ele>
        <time>2024-09-19T12:30:08Z</time>
      </trkpt>
      <trkpt lat="42.49486" lon="2.56403">
        <ele>1095</ele>
        <time>2024-09-19T12:30:12Z</time>
      </trkpt>
      <trkpt lat="42.49484" lon="2.56406">
        <ele>1094</ele>
        <time>2024-09-19T12:30:17Z</time>
      </trkpt>
      <trkpt lat="42.49483" lon="2.5641">
        <ele>1092</ele>
        <time>2024-09-19T12:30:23Z</time>
      </trkpt>
      <trkpt lat="42.49482" lon="2.56414">
        <ele>1092</ele>
        <time>2024-09-19T12:30:30Z</time>
      </trkpt>
      <trkpt lat="42.49482" lon="2.56419">
        <ele>1090</ele>
        <time>2024-09-19T12:30:34Z</time>
      </trkpt>
      <trkpt lat="42.49481" lon="2.56423">
        <ele>1089</ele>
        <time>2024-09-19T12:30:40Z</time>
      </trkpt>
      <trkpt lat="42.49479" lon="2.56426">
        <ele>1088</ele>
        <time>2024-09-19T12:30:48Z</time>
      </trkpt>
      <trkpt lat="42.49476" lon="2.56428">
        <ele>1087</ele>
        <time>2024-09-19T12:30:54Z</time>
      </trkpt>
      <trkpt lat="42.49474" lon="2.56432">
        <ele>1086</ele>
        <time>2024-09-19T12:30:58Z</time>
      </trkpt>
      <trkpt lat="42.49473" lon="2.56435">
        <ele>1085</ele>
        <time>2024-09-19T12:31:00Z</time>
      </trkpt>
      <trkpt lat="42.49471" lon="2.56439">
        <ele>1084</ele>
        <time>2024-09-19T12:31:04Z</time>
      </trkpt>
      <trkpt lat="42.49469" lon="2.56443">
        <ele>1083</ele>
        <time>2024-09-19T12:31:07Z</time>
      </trkpt>
      <trkpt lat="42.49468" lon="2.56446">
        <ele>1082</ele>
        <time>2024-09-19T12:31:11Z</time>
      </trkpt>
      <trkpt lat="42.49468" lon="2.5645">
        <ele>1081</ele>
        <time>2024-09-19T12:31:14Z</time>
      </trkpt>
      <trkpt lat="42.49467" lon="2.56454">
        <ele>1081</ele>
        <time>2024-09-19T12:31:17Z</time>
      </trkpt>
      <trkpt lat="42.49466" lon="2.56458">
        <ele>1080</ele>
        <time>2024-09-19T12:31:20Z</time>
      </trkpt>
      <trkpt lat="42.49464" lon="2.56462">
        <ele>1080</ele>
        <time>2024-09-19T12:31:23Z</time>
      </trkpt>
      <trkpt lat="42.49462" lon="2.56466">
        <ele>1079</ele>
        <time>2024-09-19T12:31:26Z</time>
      </trkpt>
      <trkpt lat="42.49461" lon="2.5647">
        <ele>1079</ele>
        <time>2024-09-19T12:31:28Z</time>
      </trkpt>
      <trkpt lat="42.4946" lon="2.56473">
        <ele>1078</ele>
        <time>2024-09-19T12:31:31Z</time>
      </trkpt>
      <trkpt lat="42.49458" lon="2.56477">
        <ele>1076</ele>
        <time>2024-09-19T12:31:34Z</time>
      </trkpt>
      <trkpt lat="42.49456" lon="2.56481">
        <ele>1076</ele>
        <time>2024-09-19T12:31:37Z</time>
      </trkpt>
      <trkpt lat="42.49454" lon="2.56484">
        <ele>1075</ele>
        <time>2024-09-19T12:31:40Z</time>
      </trkpt>
      <trkpt lat="42.49451" lon="2.56486">
        <ele>1075</ele>
        <time>2024-09-19T12:31:43Z</time>
      </trkpt>
      <trkpt lat="42.49448" lon="2.56487">
        <ele>1075</ele>
        <time>2024-09-19T12:31:46Z</time>
      </trkpt>
      <trkpt lat="42.49445" lon="2.56489">
        <ele>1074</ele>
        <time>2024-09-19T12:31:49Z</time>
      </trkpt>
      <trkpt lat="42.49442" lon="2.56492">
        <ele>1074</ele>
        <time>2024-09-19T12:31:52Z</time>
      </trkpt>
      <trkpt lat="42.4944" lon="2.56495">
        <ele>1074</ele>
        <time>2024-09-19T12:31:54Z</time>
      </trkpt>
      <trkpt lat="42.49437" lon="2.56497">
        <ele>1073</ele>
        <time>2024-09-19T12:31:56Z</time>
      </trkpt>
      <trkpt lat="42.49434" lon="2.56501">
        <ele>1073</ele>
        <time>2024-09-19T12:31:59Z</time>
      </trkpt>
      <trkpt lat="42.49431" lon="2.56503">
        <ele>1073</ele>
        <time>2024-09-19T12:32:01Z</time>
      </trkpt>
      <trkpt lat="42.49428" lon="2.56505">
        <ele>1073</ele>
        <time>2024-09-19T12:32:04Z</time>
      </trkpt>
      <trkpt lat="42.49425" lon="2.56508">
        <ele>1073</ele>
        <time>2024-09-19T12:32:06Z</time>
      </trkpt>
      <trkpt lat="42.49422" lon="2.5651">
        <ele>1074</ele>
        <time>2024-09-19T12:32:09Z</time>
      </trkpt>
      <trkpt lat="42.49419" lon="2.56512">
        <ele>1074</ele>
        <time>2024-09-19T12:32:12Z</time>
      </trkpt>
      <trkpt lat="42.49416" lon="2.56514">
        <ele>1074</ele>
        <time>2024-09-19T12:32:14Z</time>
      </trkpt>
      <trkpt lat="42.49413" lon="2.56516">
        <ele>1074</ele>
        <time>2024-09-19T12:32:18Z</time>
      </trkpt>
      <trkpt lat="42.4941" lon="2.56516">
        <ele>1074</ele>
        <time>2024-09-19T12:32:20Z</time>
      </trkpt>
      <trkpt lat="42.49407" lon="2.56517">
        <ele>1073</ele>
        <time>2024-09-19T12:32:23Z</time>
      </trkpt>
      <trkpt lat="42.49404" lon="2.56518">
        <ele>1073</ele>
        <time>2024-09-19T12:32:26Z</time>
      </trkpt>
      <trkpt lat="42.49401" lon="2.5652">
        <ele>1073</ele>
        <time>2024-09-19T12:32:29Z</time>
      </trkpt>
      <trkpt lat="42.49398" lon="2.56522">
        <ele>1072</ele>
        <time>2024-09-19T12:32:33Z</time>
      </trkpt>
      <trkpt lat="42.49396" lon="2.56525">
        <ele>1071</ele>
        <time>2024-09-19T12:32:35Z</time>
      </trkpt>
      <trkpt lat="42.49393" lon="2.56528">
        <ele>1071</ele>
        <time>2024-09-19T12:32:38Z</time>
      </trkpt>
      <trkpt lat="42.4939" lon="2.56531">
        <ele>1070</ele>
        <time>2024-09-19T12:32:41Z</time>
      </trkpt>
      <trkpt lat="42.49387" lon="2.56533">
        <ele>1072</ele>
        <time>2024-09-19T12:32:44Z</time>
      </trkpt>
      <trkpt lat="42.49384" lon="2.56536">
        <ele>1071</ele>
        <time>2024-09-19T12:32:47Z</time>
      </trkpt>
      <trkpt lat="42.49381" lon="2.56538">
        <ele>1071</ele>
        <time>2024-09-19T12:32:49Z</time>
      </trkpt>
      <trkpt lat="42.49379" lon="2.5654">
        <ele>1071</ele>
        <time>2024-09-19T12:32:52Z</time>
      </trkpt>
      <trkpt lat="42.49376" lon="2.56542">
        <ele>1071</ele>
        <time>2024-09-19T12:32:54Z</time>
      </trkpt>
      <trkpt lat="42.49373" lon="2.56544">
        <ele>1071</ele>
        <time>2024-09-19T12:32:56Z</time>
      </trkpt>
      <trkpt lat="42.4937" lon="2.56546">
        <ele>1070</ele>
        <time>2024-09-19T12:32:59Z</time>
      </trkpt>
      <trkpt lat="42.49368" lon="2.56549">
        <ele>1070</ele>
        <time>2024-09-19T12:33:01Z</time>
      </trkpt>
      <trkpt lat="42.49365" lon="2.56551">
        <ele>1069</ele>
        <time>2024-09-19T12:33:04Z</time>
      </trkpt>
      <trkpt lat="42.49362" lon="2.56553">
        <ele>1068</ele>
        <time>2024-09-19T12:33:06Z</time>
      </trkpt>
      <trkpt lat="42.49359" lon="2.56557">
        <ele>1069</ele>
        <time>2024-09-19T12:33:09Z</time>
      </trkpt>
      <trkpt lat="42.49356" lon="2.56559">
        <ele>1068</ele>
        <time>2024-09-19T12:33:12Z</time>
      </trkpt>
      <trkpt lat="42.49354" lon="2.56562">
        <ele>1068</ele>
        <time>2024-09-19T12:33:14Z</time>
      </trkpt>
      <trkpt lat="42.49352" lon="2.56565">
        <ele>1068</ele>
        <time>2024-09-19T12:33:17Z</time>
      </trkpt>
      <trkpt lat="42.4935" lon="2.56569">
        <ele>1067</ele>
        <time>2024-09-19T12:33:20Z</time>
      </trkpt>
      <trkpt lat="42.49347" lon="2.56573">
        <ele>1066</ele>
        <time>2024-09-19T12:33:23Z</time>
      </trkpt>
      <trkpt lat="42.49345" lon="2.56576">
        <ele>1066</ele>
        <time>2024-09-19T12:33:26Z</time>
      </trkpt>
      <trkpt lat="42.49343" lon="2.5658">
        <ele>1065</ele>
        <time>2024-09-19T12:33:29Z</time>
      </trkpt>
      <trkpt lat="42.49342" lon="2.56584">
        <ele>1066</ele>
        <time>2024-09-19T12:33:32Z</time>
      </trkpt>
      <trkpt lat="42.49341" lon="2.56588">
        <ele>1064</ele>
        <time>2024-09-19T12:33:36Z</time>
      </trkpt>
      <trkpt lat="42.49339" lon="2.56592">
        <ele>1064</ele>
        <time>2024-09-19T12:33:38Z</time>
      </trkpt>
      <trkpt lat="42.49338" lon="2.56596">
        <ele>1064</ele>
        <time>2024-09-19T12:33:41Z</time>
      </trkpt>
      <trkpt lat="42.49338" lon="2.566">
        <ele>1064</ele>
        <time>2024-09-19T12:33:44Z</time>
      </trkpt>
      <trkpt lat="42.49338" lon="2.56605">
        <ele>1064</ele>
        <time>2024-09-19T12:33:47Z</time>
      </trkpt>
      <trkpt lat="42.49337" lon="2.56609">
        <ele>1063</ele>
        <time>2024-09-19T12:33:49Z</time>
      </trkpt>
      <trkpt lat="42.49337" lon="2.56614">
        <ele>1063</ele>
        <time>2024-09-19T12:33:52Z</time>
      </trkpt>
      <trkpt lat="42.49337" lon="2.56618">
        <ele>1062</ele>
        <time>2024-09-19T12:33:55Z</time>
      </trkpt>
      <trkpt lat="42.49337" lon="2.56622">
        <ele>1062</ele>
        <time>2024-09-19T12:33:58Z</time>
      </trkpt>
      <trkpt lat="42.49337" lon="2.56626">
        <ele>1062</ele>
        <time>2024-09-19T12:34:00Z</time>
      </trkpt>
      <trkpt lat="42.49337" lon="2.56631">
        <ele>1061</ele>
        <time>2024-09-19T12:34:04Z</time>
      </trkpt>
      <trkpt lat="42.49336" lon="2.56635">
        <ele>1060</ele>
        <time>2024-09-19T12:34:07Z</time>
      </trkpt>
      <trkpt lat="42.49337" lon="2.5664">
        <ele>1060</ele>
        <time>2024-09-19T12:34:18Z</time>
      </trkpt>
      <trkpt lat="42.49336" lon="2.56644">
        <ele>1059</ele>
        <time>2024-09-19T12:34:21Z</time>
      </trkpt>
      <trkpt lat="42.49336" lon="2.56649">
        <ele>1058</ele>
        <time>2024-09-19T12:34:24Z</time>
      </trkpt>
      <trkpt lat="42.49337" lon="2.56652">
        <ele>1058</ele>
        <time>2024-09-19T12:34:44Z</time>
      </trkpt>
      <trkpt lat="42.49337" lon="2.56657">
        <ele>1058</ele>
        <time>2024-09-19T12:34:47Z</time>
      </trkpt>
      <trkpt lat="42.49336" lon="2.56661">
        <ele>1056</ele>
        <time>2024-09-19T12:34:51Z</time>
      </trkpt>
      <trkpt lat="42.49335" lon="2.56665">
        <ele>1055</ele>
        <time>2024-09-19T12:34:54Z</time>
      </trkpt>
      <trkpt lat="42.49333" lon="2.56668">
        <ele>1054</ele>
        <time>2024-09-19T12:34:56Z</time>
      </trkpt>
      <trkpt lat="42.4933" lon="2.56669">
        <ele>1054</ele>
        <time>2024-09-19T12:34:58Z</time>
      </trkpt>
      <trkpt lat="42.49327" lon="2.5667">
        <ele>1053</ele>
        <time>2024-09-19T12:35:00Z</time>
      </trkpt>
      <trkpt lat="42.49323" lon="2.56671">
        <ele>1055</ele>
        <time>2024-09-19T12:35:03Z</time>
      </trkpt>
      <trkpt lat="42.49319" lon="2.56671">
        <ele>1054</ele>
        <time>2024-09-19T12:35:06Z</time>
      </trkpt>
      <trkpt lat="42.49316" lon="2.56673">
        <ele>1054</ele>
        <time>2024-09-19T12:35:08Z</time>
      </trkpt>
      <trkpt lat="42.49313" lon="2.56674">
        <ele>1052</ele>
        <time>2024-09-19T12:35:10Z</time>
      </trkpt>
      <trkpt lat="42.4931" lon="2.56674">
        <ele>1051</ele>
        <time>2024-09-19T12:35:13Z</time>
      </trkpt>
      <trkpt lat="42.49309" lon="2.56671">
        <ele>1050</ele>
        <time>2024-09-19T12:35:21Z</time>
      </trkpt>
      <trkpt lat="42.49307" lon="2.56669">
        <ele>1049</ele>
        <time>2024-09-19T12:35:27Z</time>
      </trkpt>
      <trkpt lat="42.49304" lon="2.56667">
        <ele>1049</ele>
        <time>2024-09-19T12:35:29Z</time>
      </trkpt>
      <trkpt lat="42.49302" lon="2.56667">
        <ele>1049</ele>
        <time>2024-09-19T12:35:32Z</time>
      </trkpt>
      <trkpt lat="42.49299" lon="2.56668">
        <ele>1048</ele>
        <time>2024-09-19T12:35:34Z</time>
      </trkpt>
      <trkpt lat="42.49296" lon="2.56668">
        <ele>1049</ele>
        <time>2024-09-19T12:35:36Z</time>
      </trkpt>
      <trkpt lat="42.49292" lon="2.56668">
        <ele>1049</ele>
        <time>2024-09-19T12:35:39Z</time>
      </trkpt>
      <trkpt lat="42.49289" lon="2.56667">
        <ele>1048</ele>
        <time>2024-09-19T12:35:42Z</time>
      </trkpt>
      <trkpt lat="42.49286" lon="2.56667">
        <ele>1048</ele>
        <time>2024-09-19T12:35:45Z</time>
      </trkpt>
      <trkpt lat="42.49282" lon="2.56667">
        <ele>1048</ele>
        <time>2024-09-19T12:35:48Z</time>
      </trkpt>
      <trkpt lat="42.49279" lon="2.56666">
        <ele>1046</ele>
        <time>2024-09-19T12:35:51Z</time>
      </trkpt>
      <trkpt lat="42.49276" lon="2.56666">
        <ele>1046</ele>
        <time>2024-09-19T12:35:53Z</time>
      </trkpt>
      <trkpt lat="42.49273" lon="2.56666">
        <ele>1046</ele>
        <time>2024-09-19T12:35:55Z</time>
      </trkpt>
      <trkpt lat="42.4927" lon="2.56667">
        <ele>1046</ele>
        <time>2024-09-19T12:35:57Z</time>
      </trkpt>
      <trkpt lat="42.49267" lon="2.56667">
        <ele>1045</ele>
        <time>2024-09-19T12:36:00Z</time>
      </trkpt>
      <trkpt lat="42.49264" lon="2.56667">
        <ele>1045</ele>
        <time>2024-09-19T12:36:02Z</time>
      </trkpt>
      <trkpt lat="42.49261" lon="2.56667">
        <ele>1045</ele>
        <time>2024-09-19T12:36:04Z</time>
      </trkpt>
      <trkpt lat="42.49258" lon="2.56669">
        <ele>1043</ele>
        <time>2024-09-19T12:36:07Z</time>
      </trkpt>
      <trkpt lat="42.49255" lon="2.56671">
        <ele>1043</ele>
        <time>2024-09-19T12:36:10Z</time>
      </trkpt>
      <trkpt lat="42.49252" lon="2.56673">
        <ele>1042</ele>
        <time>2024-09-19T12:36:12Z</time>
      </trkpt>
      <trkpt lat="42.49249" lon="2.56675">
        <ele>1042</ele>
        <time>2024-09-19T12:36:15Z</time>
      </trkpt>
      <trkpt lat="42.49246" lon="2.56676">
        <ele>1041</ele>
        <time>2024-09-19T12:36:18Z</time>
      </trkpt>
      <trkpt lat="42.49242" lon="2.56678">
        <ele>1040</ele>
        <time>2024-09-19T12:36:21Z</time>
      </trkpt>
      <trkpt lat="42.49239" lon="2.5668">
        <ele>1039</ele>
        <time>2024-09-19T12:36:24Z</time>
      </trkpt>
      <trkpt lat="42.49235" lon="2.56681">
        <ele>1039</ele>
        <time>2024-09-19T12:36:27Z</time>
      </trkpt>
      <trkpt lat="42.49231" lon="2.56681">
        <ele>1038</ele>
        <time>2024-09-19T12:36:30Z</time>
      </trkpt>
      <trkpt lat="42.49228" lon="2.56683">
        <ele>1039</ele>
        <time>2024-09-19T12:36:32Z</time>
      </trkpt>
      <trkpt lat="42.49226" lon="2.56685">
        <ele>1038</ele>
        <time>2024-09-19T12:36:34Z</time>
      </trkpt>
      <trkpt lat="42.49224" lon="2.56688">
        <ele>1037</ele>
        <time>2024-09-19T12:36:36Z</time>
      </trkpt>
      <trkpt lat="42.49222" lon="2.5669">
        <ele>1038</ele>
        <time>2024-09-19T12:36:39Z</time>
      </trkpt>
      <trkpt lat="42.49222" lon="2.56689">
        <ele>1038</ele>
        <time>2024-09-19T12:37:13Z</time>
      </trkpt>
      <trkpt lat="42.4922" lon="2.56688">
        <ele>1038</ele>
        <time>2024-09-19T12:37:20Z</time>
      </trkpt>
      <trkpt lat="42.49217" lon="2.56686">
        <ele>1037</ele>
        <time>2024-09-19T12:37:23Z</time>
      </trkpt>
      <trkpt lat="42.49214" lon="2.56686">
        <ele>1039</ele>
        <time>2024-09-19T12:37:24Z</time>
      </trkpt>
      <trkpt lat="42.49211" lon="2.56684">
        <ele>1039</ele>
        <time>2024-09-19T12:37:26Z</time>
      </trkpt>
      <trkpt lat="42.49208" lon="2.56682">
        <ele>1038</ele>
        <time>2024-09-19T12:37:30Z</time>
      </trkpt>
      <trkpt lat="42.49205" lon="2.56681">
        <ele>1038</ele>
        <time>2024-09-19T12:37:32Z</time>
      </trkpt>
      <trkpt lat="42.49202" lon="2.5668">
        <ele>1038</ele>
        <time>2024-09-19T12:37:34Z</time>
      </trkpt>
      <trkpt lat="42.49199" lon="2.56679">
        <ele>1039</ele>
        <time>2024-09-19T12:37:36Z</time>
      </trkpt>
      <trkpt lat="42.49196" lon="2.56679">
        <ele>1039</ele>
        <time>2024-09-19T12:37:38Z</time>
      </trkpt>
      <trkpt lat="42.49193" lon="2.56678">
        <ele>1038</ele>
        <time>2024-09-19T12:37:40Z</time>
      </trkpt>
      <trkpt lat="42.4919" lon="2.56678">
        <ele>1038</ele>
        <time>2024-09-19T12:37:42Z</time>
      </trkpt>
      <trkpt lat="42.49187" lon="2.56679">
        <ele>1038</ele>
        <time>2024-09-19T12:37:44Z</time>
      </trkpt>
      <trkpt lat="42.49184" lon="2.56679">
        <ele>1039</ele>
        <time>2024-09-19T12:37:47Z</time>
      </trkpt>
      <trkpt lat="42.4918" lon="2.5668">
        <ele>1039</ele>
        <time>2024-09-19T12:37:49Z</time>
      </trkpt>
      <trkpt lat="42.49177" lon="2.56682">
        <ele>1038</ele>
        <time>2024-09-19T12:37:52Z</time>
      </trkpt>
      <trkpt lat="42.49174" lon="2.56682">
        <ele>1039</ele>
        <time>2024-09-19T12:37:54Z</time>
      </trkpt>
      <trkpt lat="42.49171" lon="2.56683">
        <ele>1039</ele>
        <time>2024-09-19T12:37:56Z</time>
      </trkpt>
      <trkpt lat="42.49168" lon="2.56686">
        <ele>1037</ele>
        <time>2024-09-19T12:37:58Z</time>
      </trkpt>
      <trkpt lat="42.49166" lon="2.56688">
        <ele>1037</ele>
        <time>2024-09-19T12:38:00Z</time>
      </trkpt>
      <trkpt lat="42.49163" lon="2.56691">
        <ele>1036</ele>
        <time>2024-09-19T12:38:03Z</time>
      </trkpt>
      <trkpt lat="42.49161" lon="2.56694">
        <ele>1036</ele>
        <time>2024-09-19T12:38:05Z</time>
      </trkpt>
      <trkpt lat="42.49158" lon="2.56697">
        <ele>1037</ele>
        <time>2024-09-19T12:38:08Z</time>
      </trkpt>
      <trkpt lat="42.49156" lon="2.567">
        <ele>1037</ele>
        <time>2024-09-19T12:38:10Z</time>
      </trkpt>
      <trkpt lat="42.49153" lon="2.56704">
        <ele>1037</ele>
        <time>2024-09-19T12:38:13Z</time>
      </trkpt>
      <trkpt lat="42.49151" lon="2.56707">
        <ele>1037</ele>
        <time>2024-09-19T12:38:15Z</time>
      </trkpt>
      <trkpt lat="42.49149" lon="2.5671">
        <ele>1037</ele>
        <time>2024-09-19T12:38:17Z</time>
      </trkpt>
      <trkpt lat="42.49147" lon="2.56712">
        <ele>1037</ele>
        <time>2024-09-19T12:38:19Z</time>
      </trkpt>
      <trkpt lat="42.49145" lon="2.56715">
        <ele>1037</ele>
        <time>2024-09-19T12:38:22Z</time>
      </trkpt>
      <trkpt lat="42.49142" lon="2.56717">
        <ele>1036</ele>
        <time>2024-09-19T12:38:25Z</time>
      </trkpt>
      <trkpt lat="42.49139" lon="2.56719">
        <ele>1036</ele>
        <time>2024-09-19T12:38:28Z</time>
      </trkpt>
      <trkpt lat="42.49136" lon="2.56719">
        <ele>1036</ele>
        <time>2024-09-19T12:38:30Z</time>
      </trkpt>
      <trkpt lat="42.49133" lon="2.5672">
        <ele>1036</ele>
        <time>2024-09-19T12:38:33Z</time>
      </trkpt>
      <trkpt lat="42.49129" lon="2.56721">
        <ele>1036</ele>
        <time>2024-09-19T12:38:36Z</time>
      </trkpt>
      <trkpt lat="42.49126" lon="2.56721">
        <ele>1035</ele>
        <time>2024-09-19T12:38:38Z</time>
      </trkpt>
      <trkpt lat="42.49123" lon="2.56722">
        <ele>1036</ele>
        <time>2024-09-19T12:38:40Z</time>
      </trkpt>
      <trkpt lat="42.4912" lon="2.56723">
        <ele>1036</ele>
        <time>2024-09-19T12:38:42Z</time>
      </trkpt>
      <trkpt lat="42.49117" lon="2.56724">
        <ele>1036</ele>
        <time>2024-09-19T12:38:44Z</time>
      </trkpt>
      <trkpt lat="42.49114" lon="2.56726">
        <ele>1036</ele>
        <time>2024-09-19T12:38:46Z</time>
      </trkpt>
      <trkpt lat="42.49111" lon="2.56726">
        <ele>1036</ele>
        <time>2024-09-19T12:38:48Z</time>
      </trkpt>
      <trkpt lat="42.49108" lon="2.56726">
        <ele>1036</ele>
        <time>2024-09-19T12:38:51Z</time>
      </trkpt>
      <trkpt lat="42.49105" lon="2.56725">
        <ele>1035</ele>
        <time>2024-09-19T12:38:53Z</time>
      </trkpt>
      <trkpt lat="42.49102" lon="2.56724">
        <ele>1035</ele>
        <time>2024-09-19T12:38:56Z</time>
      </trkpt>
      <trkpt lat="42.49099" lon="2.56722">
        <ele>1035</ele>
        <time>2024-09-19T12:38:58Z</time>
      </trkpt>
      <trkpt lat="42.49096" lon="2.56719">
        <ele>1035</ele>
        <time>2024-09-19T12:39:00Z</time>
      </trkpt>
      <trkpt lat="42.49094" lon="2.56717">
        <ele>1034</ele>
        <time>2024-09-19T12:39:02Z</time>
      </trkpt>
      <trkpt lat="42.49091" lon="2.56715">
        <ele>1033</ele>
        <time>2024-09-19T12:39:05Z</time>
      </trkpt>
      <trkpt lat="42.49089" lon="2.56712">
        <ele>1032</ele>
        <time>2024-09-19T12:39:08Z</time>
      </trkpt>
      <trkpt lat="42.49086" lon="2.56709">
        <ele>1032</ele>
        <time>2024-09-19T12:39:11Z</time>
      </trkpt>
      <trkpt lat="42.49083" lon="2.56707">
        <ele>1031</ele>
        <time>2024-09-19T12:39:14Z</time>
      </trkpt>
      <trkpt lat="42.49079" lon="2.56706">
        <ele>1030</ele>
        <time>2024-09-19T12:39:17Z</time>
      </trkpt>
      <trkpt lat="42.49075" lon="2.56706">
        <ele>1030</ele>
        <time>2024-09-19T12:39:20Z</time>
      </trkpt>
      <trkpt lat="42.49072" lon="2.56707">
        <ele>1030</ele>
        <time>2024-09-19T12:39:21Z</time>
      </trkpt>
      <trkpt lat="42.4907" lon="2.56709">
        <ele>1030</ele>
        <time>2024-09-19T12:39:23Z</time>
      </trkpt>
      <trkpt lat="42.49068" lon="2.56712">
        <ele>1030</ele>
        <time>2024-09-19T12:39:25Z</time>
      </trkpt>
      <trkpt lat="42.49065" lon="2.56715">
        <ele>1030</ele>
        <time>2024-09-19T12:39:28Z</time>
      </trkpt>
      <trkpt lat="42.49063" lon="2.56718">
        <ele>1030</ele>
        <time>2024-09-19T12:39:30Z</time>
      </trkpt>
      <trkpt lat="42.4906" lon="2.56721">
        <ele>1028</ele>
        <time>2024-09-19T12:39:33Z</time>
      </trkpt>
      <trkpt lat="42.49058" lon="2.56725">
        <ele>1027</ele>
        <time>2024-09-19T12:39:36Z</time>
      </trkpt>
      <trkpt lat="42.49055" lon="2.56728">
        <ele>1027</ele>
        <time>2024-09-19T12:39:39Z</time>
      </trkpt>
      <trkpt lat="42.49053" lon="2.56731">
        <ele>1026</ele>
        <time>2024-09-19T12:39:41Z</time>
      </trkpt>
      <trkpt lat="42.49052" lon="2.56735">
        <ele>1026</ele>
        <time>2024-09-19T12:39:44Z</time>
      </trkpt>
      <trkpt lat="42.49049" lon="2.56739">
        <ele>1026</ele>
        <time>2024-09-19T12:39:47Z</time>
      </trkpt>
      <trkpt lat="42.49047" lon="2.56742">
        <ele>1027</ele>
        <time>2024-09-19T12:39:49Z</time>
      </trkpt>
      <trkpt lat="42.49045" lon="2.56746">
        <ele>1026</ele>
        <time>2024-09-19T12:39:52Z</time>
      </trkpt>
      <trkpt lat="42.49042" lon="2.56749">
        <ele>1026</ele>
        <time>2024-09-19T12:39:55Z</time>
      </trkpt>
      <trkpt lat="42.4904" lon="2.56752">
        <ele>1025</ele>
        <time>2024-09-19T12:39:57Z</time>
      </trkpt>
      <trkpt lat="42.49038" lon="2.56756">
        <ele>1025</ele>
        <time>2024-09-19T12:40:00Z</time>
      </trkpt>
      <trkpt lat="42.49036" lon="2.56759">
        <ele>1025</ele>
        <time>2024-09-19T12:40:05Z</time>
      </trkpt>
      <trkpt lat="42.49035" lon="2.56763">
        <ele>1025</ele>
        <time>2024-09-19T12:40:07Z</time>
      </trkpt>
      <trkpt lat="42.49033" lon="2.56767">
        <ele>1024</ele>
        <time>2024-09-19T12:40:10Z</time>
      </trkpt>
      <trkpt lat="42.49031" lon="2.56771">
        <ele>1024</ele>
        <time>2024-09-19T12:40:13Z</time>
      </trkpt>
      <trkpt lat="42.4903" lon="2.56774">
        <ele>1024</ele>
        <time>2024-09-19T12:40:15Z</time>
      </trkpt>
      <trkpt lat="42.49028" lon="2.56778">
        <ele>1023</ele>
        <time>2024-09-19T12:40:17Z</time>
      </trkpt>
      <trkpt lat="42.49027" lon="2.56781">
        <ele>1023</ele>
        <time>2024-09-19T12:40:19Z</time>
      </trkpt>
      <trkpt lat="42.49026" lon="2.56785">
        <ele>1023</ele>
        <time>2024-09-19T12:40:21Z</time>
      </trkpt>
      <trkpt lat="42.49024" lon="2.56788">
        <ele>1023</ele>
        <time>2024-09-19T12:40:23Z</time>
      </trkpt>
      <trkpt lat="42.49022" lon="2.56791">
        <ele>1023</ele>
        <time>2024-09-19T12:40:25Z</time>
      </trkpt>
      <trkpt lat="42.49021" lon="2.56795">
        <ele>1024</ele>
        <time>2024-09-19T12:40:27Z</time>
      </trkpt>
      <trkpt lat="42.4902" lon="2.56798">
        <ele>1023</ele>
        <time>2024-09-19T12:40:29Z</time>
      </trkpt>
      <trkpt lat="42.49018" lon="2.56802">
        <ele>1022</ele>
        <time>2024-09-19T12:40:32Z</time>
      </trkpt>
      <trkpt lat="42.49017" lon="2.56806">
        <ele>1022</ele>
        <time>2024-09-19T12:40:34Z</time>
      </trkpt>
      <trkpt lat="42.49016" lon="2.5681">
        <ele>1023</ele>
        <time>2024-09-19T12:40:36Z</time>
      </trkpt>
      <trkpt lat="42.49016" lon="2.56814">
        <ele>1022</ele>
        <time>2024-09-19T12:40:39Z</time>
      </trkpt>
      <trkpt lat="42.49016" lon="2.56819">
        <ele>1022</ele>
        <time>2024-09-19T12:40:42Z</time>
      </trkpt>
      <trkpt lat="42.49015" lon="2.56824">
        <ele>1022</ele>
        <time>2024-09-19T12:40:45Z</time>
      </trkpt>
      <trkpt lat="42.49014" lon="2.56828">
        <ele>1020</ele>
        <time>2024-09-19T12:40:48Z</time>
      </trkpt>
      <trkpt lat="42.49013" lon="2.56832">
        <ele>1020</ele>
        <time>2024-09-19T12:40:51Z</time>
      </trkpt>
      <trkpt lat="42.49012" lon="2.56837">
        <ele>1019</ele>
        <time>2024-09-19T12:40:54Z</time>
      </trkpt>
      <trkpt lat="42.49012" lon="2.56841">
        <ele>1019</ele>
        <time>2024-09-19T12:40:57Z</time>
      </trkpt>
      <trkpt lat="42.49011" lon="2.56845">
        <ele>1020</ele>
        <time>2024-09-19T12:40:59Z</time>
      </trkpt>
      <trkpt lat="42.4901" lon="2.56849">
        <ele>1019</ele>
        <time>2024-09-19T12:41:01Z</time>
      </trkpt>
      <trkpt lat="42.49009" lon="2.56853">
        <ele>1019</ele>
        <time>2024-09-19T12:41:04Z</time>
      </trkpt>
      <trkpt lat="42.49007" lon="2.56856">
        <ele>1017</ele>
        <time>2024-09-19T12:41:06Z</time>
      </trkpt>
      <trkpt lat="42.49005" lon="2.5686">
        <ele>1016</ele>
        <time>2024-09-19T12:41:09Z</time>
      </trkpt>
      <trkpt lat="42.49003" lon="2.56864">
        <ele>1016</ele>
        <time>2024-09-19T12:41:11Z</time>
      </trkpt>
      <trkpt lat="42.49002" lon="2.56868">
        <ele>1015</ele>
        <time>2024-09-19T12:41:14Z</time>
      </trkpt>
      <trkpt lat="42.49001" lon="2.56873">
        <ele>1014</ele>
        <time>2024-09-19T12:41:17Z</time>
      </trkpt>
      <trkpt lat="42.49" lon="2.56876">
        <ele>1014</ele>
        <time>2024-09-19T12:41:20Z</time>
      </trkpt>
      <trkpt lat="42.48998" lon="2.56881">
        <ele>1013</ele>
        <time>2024-09-19T12:41:26Z</time>
      </trkpt>
      <trkpt lat="42.48996" lon="2.56885">
        <ele>1012</ele>
        <time>2024-09-19T12:41:28Z</time>
      </trkpt>
      <trkpt lat="42.48994" lon="2.56889">
        <ele>1011</ele>
        <time>2024-09-19T12:41:30Z</time>
      </trkpt>
      <trkpt lat="42.48993" lon="2.56892">
        <ele>1012</ele>
        <time>2024-09-19T12:41:32Z</time>
      </trkpt>
      <trkpt lat="42.48992" lon="2.56896">
        <ele>1012</ele>
        <time>2024-09-19T12:41:35Z</time>
      </trkpt>
      <trkpt lat="42.4899" lon="2.56899">
        <ele>1012</ele>
        <time>2024-09-19T12:41:37Z</time>
      </trkpt>
      <trkpt lat="42.48989" lon="2.56903">
        <ele>1011</ele>
        <time>2024-09-19T12:41:39Z</time>
      </trkpt>
      <trkpt lat="42.48987" lon="2.56907">
        <ele>1011</ele>
        <time>2024-09-19T12:41:42Z</time>
      </trkpt>
      <trkpt lat="42.48985" lon="2.56911">
        <ele>1011</ele>
        <time>2024-09-19T12:41:45Z</time>
      </trkpt>
      <trkpt lat="42.48982" lon="2.56914">
        <ele>1010</ele>
        <time>2024-09-19T12:41:48Z</time>
      </trkpt>
      <trkpt lat="42.4898" lon="2.56917">
        <ele>1010</ele>
        <time>2024-09-19T12:41:50Z</time>
      </trkpt>
      <trkpt lat="42.48978" lon="2.5692">
        <ele>1011</ele>
        <time>2024-09-19T12:41:53Z</time>
      </trkpt>
      <trkpt lat="42.48976" lon="2.56924">
        <ele>1011</ele>
        <time>2024-09-19T12:41:59Z</time>
      </trkpt>
      <trkpt lat="42.48975" lon="2.56927">
        <ele>1010</ele>
        <time>2024-09-19T12:42:02Z</time>
      </trkpt>
      <trkpt lat="42.48973" lon="2.56931">
        <ele>1010</ele>
        <time>2024-09-19T12:42:04Z</time>
      </trkpt>
      <trkpt lat="42.48971" lon="2.56935">
        <ele>1010</ele>
        <time>2024-09-19T12:42:08Z</time>
      </trkpt>
      <trkpt lat="42.48969" lon="2.56938">
        <ele>1008</ele>
        <time>2024-09-19T12:42:11Z</time>
      </trkpt>
      <trkpt lat="42.48968" lon="2.56942">
        <ele>1008</ele>
        <time>2024-09-19T12:42:14Z</time>
      </trkpt>
      <trkpt lat="42.48966" lon="2.56946">
        <ele>1007</ele>
        <time>2024-09-19T12:42:16Z</time>
      </trkpt>
      <trkpt lat="42.48963" lon="2.5695">
        <ele>1008</ele>
        <time>2024-09-19T12:42:19Z</time>
      </trkpt>
      <trkpt lat="42.48961" lon="2.56953">
        <ele>1006</ele>
        <time>2024-09-19T12:42:23Z</time>
      </trkpt>
      <trkpt lat="42.48958" lon="2.56956">
        <ele>1007</ele>
        <time>2024-09-19T12:42:26Z</time>
      </trkpt>
      <trkpt lat="42.48956" lon="2.5696">
        <ele>1006</ele>
        <time>2024-09-19T12:42:29Z</time>
      </trkpt>
      <trkpt lat="42.48954" lon="2.56963">
        <ele>1005</ele>
        <time>2024-09-19T12:42:31Z</time>
      </trkpt>
      <trkpt lat="42.48951" lon="2.56966">
        <ele>1006</ele>
        <time>2024-09-19T12:42:33Z</time>
      </trkpt>
      <trkpt lat="42.48949" lon="2.56969">
        <ele>1006</ele>
        <time>2024-09-19T12:42:35Z</time>
      </trkpt>
      <trkpt lat="42.48946" lon="2.56972">
        <ele>1006</ele>
        <time>2024-09-19T12:42:38Z</time>
      </trkpt>
      <trkpt lat="42.48944" lon="2.56975">
        <ele>1006</ele>
        <time>2024-09-19T12:42:41Z</time>
      </trkpt>
      <trkpt lat="42.48941" lon="2.56977">
        <ele>1006</ele>
        <time>2024-09-19T12:42:44Z</time>
      </trkpt>
      <trkpt lat="42.48939" lon="2.56979">
        <ele>1006</ele>
        <time>2024-09-19T12:42:46Z</time>
      </trkpt>
      <trkpt lat="42.48937" lon="2.56982">
        <ele>1005</ele>
        <time>2024-09-19T12:42:48Z</time>
      </trkpt>
      <trkpt lat="42.48934" lon="2.56984">
        <ele>1004</ele>
        <time>2024-09-19T12:42:51Z</time>
      </trkpt>
      <trkpt lat="42.48931" lon="2.56985">
        <ele>1004</ele>
        <time>2024-09-19T12:42:53Z</time>
      </trkpt>
      <trkpt lat="42.48927" lon="2.56987">
        <ele>1004</ele>
        <time>2024-09-19T12:42:56Z</time>
      </trkpt>
      <trkpt lat="42.48924" lon="2.56989">
        <ele>1004</ele>
        <time>2024-09-19T12:42:59Z</time>
      </trkpt>
      <trkpt lat="42.4892" lon="2.56991">
        <ele>1003</ele>
        <time>2024-09-19T12:43:03Z</time>
      </trkpt>
      <trkpt lat="42.48917" lon="2.56994">
        <ele>1003</ele>
        <time>2024-09-19T12:43:05Z</time>
      </trkpt>
      <trkpt lat="42.48915" lon="2.56995">
        <ele>1003</ele>
        <time>2024-09-19T12:43:07Z</time>
      </trkpt>
      <trkpt lat="42.48912" lon="2.56997">
        <ele>1003</ele>
        <time>2024-09-19T12:43:10Z</time>
      </trkpt>
      <trkpt lat="42.48908" lon="2.56998">
        <ele>1001</ele>
        <time>2024-09-19T12:43:13Z</time>
      </trkpt>
      <trkpt lat="42.48905" lon="2.57">
        <ele>1002</ele>
        <time>2024-09-19T12:43:16Z</time>
      </trkpt>
      <trkpt lat="42.48902" lon="2.57002">
        <ele>1001</ele>
        <time>2024-09-19T12:43:18Z</time>
      </trkpt>
      <trkpt lat="42.48899" lon="2.57003">
        <ele>1002</ele>
        <time>2024-09-19T12:43:20Z</time>
      </trkpt>
      <trkpt lat="42.48896" lon="2.57005">
        <ele>1001</ele>
        <time>2024-09-19T12:43:22Z</time>
      </trkpt>
      <trkpt lat="42.48893" lon="2.57007">
        <ele>1001</ele>
        <time>2024-09-19T12:43:25Z</time>
      </trkpt>
      <trkpt lat="42.4889" lon="2.57009">
        <ele>1001</ele>
        <time>2024-09-19T12:43:28Z</time>
      </trkpt>
      <trkpt lat="42.48886" lon="2.57012">
        <ele>1000</ele>
        <time>2024-09-19T12:43:31Z</time>
      </trkpt>
      <trkpt lat="42.48883" lon="2.57014">
        <ele>1000</ele>
        <time>2024-09-19T12:43:34Z</time>
      </trkpt>
      <trkpt lat="42.4888" lon="2.57017">
        <ele>998</ele>
        <time>2024-09-19T12:43:36Z</time>
      </trkpt>
      <trkpt lat="42.48877" lon="2.5702">
        <ele>998</ele>
        <time>2024-09-19T12:43:38Z</time>
      </trkpt>
      <trkpt lat="42.48875" lon="2.57023">
        <ele>999</ele>
        <time>2024-09-19T12:43:40Z</time>
      </trkpt>
      <trkpt lat="42.48872" lon="2.57025">
        <ele>999</ele>
        <time>2024-09-19T12:43:42Z</time>
      </trkpt>
      <trkpt lat="42.4887" lon="2.57028">
        <ele>999</ele>
        <time>2024-09-19T12:43:45Z</time>
      </trkpt>
      <trkpt lat="42.48867" lon="2.57031">
        <ele>998</ele>
        <time>2024-09-19T12:43:47Z</time>
      </trkpt>
      <trkpt lat="42.48866" lon="2.57034">
        <ele>998</ele>
        <time>2024-09-19T12:43:49Z</time>
      </trkpt>
      <trkpt lat="42.48864" lon="2.57038">
        <ele>999</ele>
        <time>2024-09-19T12:43:52Z</time>
      </trkpt>
      <trkpt lat="42.48864" lon="2.57043">
        <ele>997</ele>
        <time>2024-09-19T12:43:56Z</time>
      </trkpt>
      <trkpt lat="42.48863" lon="2.57047">
        <ele>996</ele>
        <time>2024-09-19T12:43:59Z</time>
      </trkpt>
      <trkpt lat="42.48864" lon="2.57052">
        <ele>995</ele>
        <time>2024-09-19T12:44:02Z</time>
      </trkpt>
      <trkpt lat="42.48866" lon="2.57056">
        <ele>995</ele>
        <time>2024-09-19T12:44:05Z</time>
      </trkpt>
      <trkpt lat="42.48869" lon="2.57059">
        <ele>995</ele>
        <time>2024-09-19T12:44:08Z</time>
      </trkpt>
      <trkpt lat="42.48872" lon="2.57061">
        <ele>994</ele>
        <time>2024-09-19T12:44:11Z</time>
      </trkpt>
      <trkpt lat="42.48875" lon="2.57062">
        <ele>995</ele>
        <time>2024-09-19T12:44:13Z</time>
      </trkpt>
      <trkpt lat="42.48878" lon="2.57061">
        <ele>993</ele>
        <time>2024-09-19T12:44:15Z</time>
      </trkpt>
      <trkpt lat="42.48881" lon="2.57061">
        <ele>993</ele>
        <time>2024-09-19T12:44:17Z</time>
      </trkpt>
      <trkpt lat="42.48884" lon="2.5706">
        <ele>992</ele>
        <time>2024-09-19T12:44:20Z</time>
      </trkpt>
      <trkpt lat="42.48887" lon="2.57059">
        <ele>992</ele>
        <time>2024-09-19T12:44:22Z</time>
      </trkpt>
      <trkpt lat="42.4889" lon="2.57058">
        <ele>992</ele>
        <time>2024-09-19T12:44:25Z</time>
      </trkpt>
      <trkpt lat="42.48894" lon="2.57058">
        <ele>993</ele>
        <time>2024-09-19T12:44:27Z</time>
      </trkpt>
      <trkpt lat="42.48897" lon="2.57058">
        <ele>993</ele>
        <time>2024-09-19T12:44:30Z</time>
      </trkpt>
      <trkpt lat="42.48901" lon="2.57056">
        <ele>991</ele>
        <time>2024-09-19T12:44:33Z</time>
      </trkpt>
      <trkpt lat="42.48904" lon="2.57055">
        <ele>990</ele>
        <time>2024-09-19T12:44:36Z</time>
      </trkpt>
      <trkpt lat="42.48908" lon="2.57053">
        <ele>990</ele>
        <time>2024-09-19T12:44:39Z</time>
      </trkpt>
      <trkpt lat="42.48911" lon="2.57051">
        <ele>989</ele>
        <time>2024-09-19T12:44:42Z</time>
      </trkpt>
      <trkpt lat="42.48914" lon="2.5705">
        <ele>989</ele>
        <time>2024-09-19T12:44:45Z</time>
      </trkpt>
      <trkpt lat="42.48918" lon="2.5705">
        <ele>989</ele>
        <time>2024-09-19T12:44:48Z</time>
      </trkpt>
      <trkpt lat="42.48921" lon="2.57048">
        <ele>989</ele>
        <time>2024-09-19T12:44:50Z</time>
      </trkpt>
      <trkpt lat="42.48924" lon="2.57047">
        <ele>989</ele>
        <time>2024-09-19T12:44:53Z</time>
      </trkpt>
      <trkpt lat="42.48926" lon="2.57046">
        <ele>989</ele>
        <time>2024-09-19T12:44:56Z</time>
      </trkpt>
      <trkpt lat="42.4893" lon="2.57044">
        <ele>989</ele>
        <time>2024-09-19T12:44:58Z</time>
      </trkpt>
      <trkpt lat="42.48933" lon="2.57043">
        <ele>989</ele>
        <time>2024-09-19T12:45:00Z</time>
      </trkpt>
      <trkpt lat="42.48936" lon="2.57042">
        <ele>989</ele>
        <time>2024-09-19T12:45:03Z</time>
      </trkpt>
      <trkpt lat="42.4894" lon="2.57041">
        <ele>989</ele>
        <time>2024-09-19T12:45:05Z</time>
      </trkpt>
      <trkpt lat="42.48944" lon="2.57039">
        <ele>989</ele>
        <time>2024-09-19T12:45:09Z</time>
      </trkpt>
      <trkpt lat="42.48947" lon="2.57038">
        <ele>988</ele>
        <time>2024-09-19T12:45:11Z</time>
      </trkpt>
      <trkpt lat="42.4895" lon="2.57036">
        <ele>987</ele>
        <time>2024-09-19T12:45:14Z</time>
      </trkpt>
      <trkpt lat="42.48953" lon="2.57033">
        <ele>986</ele>
        <time>2024-09-19T12:45:17Z</time>
      </trkpt>
      <trkpt lat="42.48956" lon="2.57031">
        <ele>988</ele>
        <time>2024-09-19T12:45:20Z</time>
      </trkpt>
      <trkpt lat="42.4896" lon="2.57029">
        <ele>986</ele>
        <time>2024-09-19T12:45:24Z</time>
      </trkpt>
      <trkpt lat="42.48963" lon="2.57028">
        <ele>985</ele>
        <time>2024-09-19T12:45:26Z</time>
      </trkpt>
      <trkpt lat="42.48966" lon="2.57027">
        <ele>985</ele>
        <time>2024-09-19T12:45:28Z</time>
      </trkpt>
      <trkpt lat="42.48969" lon="2.57027">
        <ele>986</ele>
        <time>2024-09-19T12:45:30Z</time>
      </trkpt>
      <trkpt lat="42.48972" lon="2.57025">
        <ele>985</ele>
        <time>2024-09-19T12:45:32Z</time>
      </trkpt>
      <trkpt lat="42.48975" lon="2.57024">
        <ele>984</ele>
        <time>2024-09-19T12:45:35Z</time>
      </trkpt>
      <trkpt lat="42.48977" lon="2.57023">
        <ele>984</ele>
        <time>2024-09-19T12:45:37Z</time>
      </trkpt>
      <trkpt lat="42.48981" lon="2.57022">
        <ele>983</ele>
        <time>2024-09-19T12:45:40Z</time>
      </trkpt>
      <trkpt lat="42.48984" lon="2.5702">
        <ele>984</ele>
        <time>2024-09-19T12:45:46Z</time>
      </trkpt>
      <trkpt lat="42.48987" lon="2.57019">
        <ele>984</ele>
        <time>2024-09-19T12:45:49Z</time>
      </trkpt>
      <trkpt lat="42.48991" lon="2.57017">
        <ele>983</ele>
        <time>2024-09-19T12:45:52Z</time>
      </trkpt>
      <trkpt lat="42.48994" lon="2.57016">
        <ele>983</ele>
        <time>2024-09-19T12:45:54Z</time>
      </trkpt>
      <trkpt lat="42.48997" lon="2.57013">
        <ele>982</ele>
        <time>2024-09-19T12:45:56Z</time>
      </trkpt>
      <trkpt lat="42.49" lon="2.57011">
        <ele>982</ele>
        <time>2024-09-19T12:45:58Z</time>
      </trkpt>
      <trkpt lat="42.49003" lon="2.57011">
        <ele>982</ele>
        <time>2024-09-19T12:46:00Z</time>
      </trkpt>
      <trkpt lat="42.49006" lon="2.57009">
        <ele>982</ele>
        <time>2024-09-19T12:46:02Z</time>
      </trkpt>
      <trkpt lat="42.49008" lon="2.57007">
        <ele>981</ele>
        <time>2024-09-19T12:46:04Z</time>
      </trkpt>
      <trkpt lat="42.49011" lon="2.57005">
        <ele>980</ele>
        <time>2024-09-19T12:46:06Z</time>
      </trkpt>
      <trkpt lat="42.49014" lon="2.57002">
        <ele>980</ele>
        <time>2024-09-19T12:46:08Z</time>
      </trkpt>
      <trkpt lat="42.49017" lon="2.57">
        <ele>980</ele>
        <time>2024-09-19T12:46:10Z</time>
      </trkpt>
      <trkpt lat="42.4902" lon="2.56997">
        <ele>981</ele>
        <time>2024-09-19T12:46:13Z</time>
      </trkpt>
      <trkpt lat="42.49022" lon="2.56994">
        <ele>981</ele>
        <time>2024-09-19T12:46:15Z</time>
      </trkpt>
      <trkpt lat="42.49024" lon="2.56992">
        <ele>981</ele>
        <time>2024-09-19T12:46:19Z</time>
      </trkpt>
      <trkpt lat="42.49026" lon="2.56989">
        <ele>980</ele>
        <time>2024-09-19T12:46:23Z</time>
      </trkpt>
      <trkpt lat="42.49029" lon="2.56987">
        <ele>980</ele>
        <time>2024-09-19T12:46:25Z</time>
      </trkpt>
      <trkpt lat="42.49031" lon="2.56985">
        <ele>980</ele>
        <time>2024-09-19T12:46:27Z</time>
      </trkpt>
      <trkpt lat="42.49034" lon="2.56984">
        <ele>980</ele>
        <time>2024-09-19T12:46:29Z</time>
      </trkpt>
      <trkpt lat="42.49037" lon="2.56982">
        <ele>980</ele>
        <time>2024-09-19T12:46:31Z</time>
      </trkpt>
      <trkpt lat="42.4904" lon="2.56981">
        <ele>979</ele>
        <time>2024-09-19T12:46:34Z</time>
      </trkpt>
      <trkpt lat="42.49044" lon="2.56979">
        <ele>979</ele>
        <time>2024-09-19T12:46:37Z</time>
      </trkpt>
      <trkpt lat="42.49047" lon="2.56976">
        <ele>979</ele>
        <time>2024-09-19T12:46:40Z</time>
      </trkpt>
      <trkpt lat="42.49051" lon="2.56974">
        <ele>979</ele>
        <time>2024-09-19T12:46:43Z</time>
      </trkpt>
      <trkpt lat="42.49054" lon="2.56973">
        <ele>979</ele>
        <time>2024-09-19T12:46:45Z</time>
      </trkpt>
      <trkpt lat="42.49057" lon="2.56971">
        <ele>979</ele>
        <time>2024-09-19T12:46:47Z</time>
      </trkpt>
      <trkpt lat="42.4906" lon="2.56969">
        <ele>978</ele>
        <time>2024-09-19T12:46:50Z</time>
      </trkpt>
      <trkpt lat="42.49064" lon="2.56967">
        <ele>978</ele>
        <time>2024-09-19T12:46:53Z</time>
      </trkpt>
      <trkpt lat="42.49067" lon="2.56965">
        <ele>978</ele>
        <time>2024-09-19T12:46:55Z</time>
      </trkpt>
      <trkpt lat="42.49069" lon="2.56963">
        <ele>979</ele>
        <time>2024-09-19T12:46:57Z</time>
      </trkpt>
      <trkpt lat="42.49073" lon="2.56961">
        <ele>978</ele>
        <time>2024-09-19T12:47:00Z</time>
      </trkpt>
      <trkpt lat="42.49075" lon="2.56958">
        <ele>977</ele>
        <time>2024-09-19T12:47:02Z</time>
      </trkpt>
      <trkpt lat="42.49077" lon="2.56955">
        <ele>976</ele>
        <time>2024-09-19T12:47:04Z</time>
      </trkpt>
      <trkpt lat="42.49079" lon="2.56951">
        <ele>975</ele>
        <time>2024-09-19T12:47:07Z</time>
      </trkpt>
      <trkpt lat="42.49082" lon="2.56949">
        <ele>976</ele>
        <time>2024-09-19T12:47:09Z</time>
      </trkpt>
      <trkpt lat="42.49084" lon="2.56946">
        <ele>977</ele>
        <time>2024-09-19T12:47:11Z</time>
      </trkpt>
      <trkpt lat="42.49087" lon="2.56944">
        <ele>976</ele>
        <time>2024-09-19T12:47:15Z</time>
      </trkpt>
      <trkpt lat="42.4909" lon="2.56941">
        <ele>975</ele>
        <time>2024-09-19T12:47:18Z</time>
      </trkpt>
      <trkpt lat="42.49093" lon="2.56938">
        <ele>975</ele>
        <time>2024-09-19T12:47:21Z</time>
      </trkpt>
      <trkpt lat="42.49096" lon="2.56936">
        <ele>975</ele>
        <time>2024-09-19T12:47:24Z</time>
      </trkpt>
      <trkpt lat="42.49099" lon="2.56933">
        <ele>974</ele>
        <time>2024-09-19T12:47:26Z</time>
      </trkpt>
      <trkpt lat="42.49101" lon="2.5693">
        <ele>973</ele>
        <time>2024-09-19T12:47:28Z</time>
      </trkpt>
      <trkpt lat="42.49103" lon="2.56928">
        <ele>972</ele>
        <time>2024-09-19T12:47:33Z</time>
      </trkpt>
      <trkpt lat="42.49106" lon="2.56928">
        <ele>972</ele>
        <time>2024-09-19T12:47:36Z</time>
      </trkpt>
      <trkpt lat="42.49108" lon="2.5693">
        <ele>973</ele>
        <time>2024-09-19T12:47:38Z</time>
      </trkpt>
      <trkpt lat="42.49111" lon="2.5693">
        <ele>973</ele>
        <time>2024-09-19T12:47:41Z</time>
      </trkpt>
      <trkpt lat="42.49114" lon="2.56931">
        <ele>973</ele>
        <time>2024-09-19T12:47:44Z</time>
      </trkpt>
      <trkpt lat="42.49117" lon="2.56931">
        <ele>973</ele>
        <time>2024-09-19T12:47:46Z</time>
      </trkpt>
      <trkpt lat="42.49121" lon="2.56932">
        <ele>973</ele>
        <time>2024-09-19T12:47:48Z</time>
      </trkpt>
      <trkpt lat="42.49124" lon="2.56933">
        <ele>972</ele>
        <time>2024-09-19T12:47:50Z</time>
      </trkpt>
      <trkpt lat="42.49128" lon="2.56933">
        <ele>971</ele>
        <time>2024-09-19T12:47:53Z</time>
      </trkpt>
      <trkpt lat="42.49131" lon="2.56933">
        <ele>971</ele>
        <time>2024-09-19T12:47:56Z</time>
      </trkpt>
      <trkpt lat="42.49135" lon="2.56934">
        <ele>970</ele>
        <time>2024-09-19T12:47:59Z</time>
      </trkpt>
      <trkpt lat="42.49138" lon="2.56935">
        <ele>971</ele>
        <time>2024-09-19T12:48:01Z</time>
      </trkpt>
      <trkpt lat="42.49141" lon="2.56937">
        <ele>971</ele>
        <time>2024-09-19T12:48:04Z</time>
      </trkpt>
      <trkpt lat="42.49143" lon="2.56939">
        <ele>971</ele>
        <time>2024-09-19T12:48:05Z</time>
      </trkpt>
      <trkpt lat="42.49146" lon="2.5694">
        <ele>971</ele>
        <time>2024-09-19T12:48:09Z</time>
      </trkpt>
      <trkpt lat="42.49149" lon="2.56943">
        <ele>968</ele>
        <time>2024-09-19T12:48:15Z</time>
      </trkpt>
      <trkpt lat="42.49151" lon="2.56945">
        <ele>968</ele>
        <time>2024-09-19T12:48:17Z</time>
      </trkpt>
      <trkpt lat="42.49154" lon="2.56947">
        <ele>968</ele>
        <time>2024-09-19T12:48:19Z</time>
      </trkpt>
      <trkpt lat="42.49157" lon="2.56948">
        <ele>967</ele>
        <time>2024-09-19T12:48:22Z</time>
      </trkpt>
      <trkpt lat="42.4916" lon="2.56951">
        <ele>968</ele>
        <time>2024-09-19T12:48:25Z</time>
      </trkpt>
      <trkpt lat="42.49164" lon="2.56953">
        <ele>967</ele>
        <time>2024-09-19T12:48:28Z</time>
      </trkpt>
      <trkpt lat="42.49167" lon="2.56955">
        <ele>967</ele>
        <time>2024-09-19T12:48:30Z</time>
      </trkpt>
      <trkpt lat="42.4917" lon="2.56957">
        <ele>967</ele>
        <time>2024-09-19T12:48:32Z</time>
      </trkpt>
      <trkpt lat="42.49172" lon="2.56959">
        <ele>967</ele>
        <time>2024-09-19T12:48:34Z</time>
      </trkpt>
      <trkpt lat="42.49175" lon="2.56961">
        <ele>966</ele>
        <time>2024-09-19T12:48:37Z</time>
      </trkpt>
      <trkpt lat="42.49178" lon="2.56963">
        <ele>966</ele>
        <time>2024-09-19T12:48:39Z</time>
      </trkpt>
      <trkpt lat="42.49181" lon="2.56964">
        <ele>966</ele>
        <time>2024-09-19T12:48:41Z</time>
      </trkpt>
      <trkpt lat="42.49183" lon="2.56965">
        <ele>966</ele>
        <time>2024-09-19T12:48:43Z</time>
      </trkpt>
      <trkpt lat="42.49186" lon="2.56966">
        <ele>964</ele>
        <time>2024-09-19T12:48:45Z</time>
      </trkpt>
      <trkpt lat="42.49189" lon="2.56966">
        <ele>964</ele>
        <time>2024-09-19T12:48:47Z</time>
      </trkpt>
      <trkpt lat="42.49192" lon="2.56968">
        <ele>964</ele>
        <time>2024-09-19T12:48:50Z</time>
      </trkpt>
      <trkpt lat="42.49195" lon="2.56969">
        <ele>964</ele>
        <time>2024-09-19T12:48:52Z</time>
      </trkpt>
      <trkpt lat="42.49199" lon="2.5697">
        <ele>964</ele>
        <time>2024-09-19T12:48:55Z</time>
      </trkpt>
      <trkpt lat="42.49201" lon="2.56971">
        <ele>963</ele>
        <time>2024-09-19T12:48:57Z</time>
      </trkpt>
      <trkpt lat="42.49204" lon="2.56972">
        <ele>964</ele>
        <time>2024-09-19T12:48:59Z</time>
      </trkpt>
      <trkpt lat="42.49207" lon="2.56972">
        <ele>963</ele>
        <time>2024-09-19T12:49:03Z</time>
      </trkpt>
      <trkpt lat="42.49211" lon="2.5697">
        <ele>963</ele>
        <time>2024-09-19T12:49:06Z</time>
      </trkpt>
      <trkpt lat="42.49214" lon="2.56969">
        <ele>963</ele>
        <time>2024-09-19T12:49:08Z</time>
      </trkpt>
      <trkpt lat="42.49218" lon="2.56967">
        <ele>963</ele>
        <time>2024-09-19T12:49:10Z</time>
      </trkpt>
      <trkpt lat="42.49221" lon="2.56966">
        <ele>962</ele>
        <time>2024-09-19T12:49:13Z</time>
      </trkpt>
      <trkpt lat="42.49224" lon="2.56964">
        <ele>961</ele>
        <time>2024-09-19T12:49:16Z</time>
      </trkpt>
      <trkpt lat="42.49227" lon="2.56962">
        <ele>961</ele>
        <time>2024-09-19T12:49:20Z</time>
      </trkpt>
      <trkpt lat="42.49229" lon="2.5696">
        <ele>960</ele>
        <time>2024-09-19T12:49:23Z</time>
      </trkpt>
      <trkpt lat="42.49232" lon="2.56958">
        <ele>960</ele>
        <time>2024-09-19T12:49:25Z</time>
      </trkpt>
      <trkpt lat="42.49235" lon="2.56957">
        <ele>959</ele>
        <time>2024-09-19T12:49:27Z</time>
      </trkpt>
      <trkpt lat="42.49238" lon="2.56956">
        <ele>958</ele>
        <time>2024-09-19T12:49:30Z</time>
      </trkpt>
      <trkpt lat="42.49242" lon="2.56956">
        <ele>957</ele>
        <time>2024-09-19T12:49:33Z</time>
      </trkpt>
      <trkpt lat="42.49245" lon="2.56956">
        <ele>958</ele>
        <time>2024-09-19T12:49:35Z</time>
      </trkpt>
      <trkpt lat="42.49248" lon="2.56955">
        <ele>957</ele>
        <time>2024-09-19T12:49:37Z</time>
      </trkpt>
      <trkpt lat="42.49251" lon="2.56955">
        <ele>955</ele>
        <time>2024-09-19T12:49:40Z</time>
      </trkpt>
      <trkpt lat="42.49254" lon="2.56957">
        <ele>957</ele>
        <time>2024-09-19T12:49:43Z</time>
      </trkpt>
      <trkpt lat="42.49256" lon="2.5696">
        <ele>956</ele>
        <time>2024-09-19T12:49:46Z</time>
      </trkpt>
      <trkpt lat="42.49259" lon="2.56962">
        <ele>956</ele>
        <time>2024-09-19T12:49:48Z</time>
      </trkpt>
      <trkpt lat="42.49262" lon="2.56965">
        <ele>955</ele>
        <time>2024-09-19T12:49:51Z</time>
      </trkpt>
      <trkpt lat="42.49264" lon="2.56967">
        <ele>955</ele>
        <time>2024-09-19T12:49:53Z</time>
      </trkpt>
      <trkpt lat="42.49267" lon="2.56971">
        <ele>956</ele>
        <time>2024-09-19T12:49:56Z</time>
      </trkpt>
      <trkpt lat="42.49269" lon="2.56975">
        <ele>956</ele>
        <time>2024-09-19T12:49:58Z</time>
      </trkpt>
      <trkpt lat="42.49272" lon="2.56978">
        <ele>956</ele>
        <time>2024-09-19T12:50:01Z</time>
      </trkpt>
      <trkpt lat="42.49274" lon="2.56981">
        <ele>957</ele>
        <time>2024-09-19T12:50:03Z</time>
      </trkpt>
      <trkpt lat="42.49277" lon="2.56985">
        <ele>957</ele>
        <time>2024-09-19T12:50:06Z</time>
      </trkpt>
      <trkpt lat="42.4928" lon="2.56989">
        <ele>955</ele>
        <time>2024-09-19T12:50:10Z</time>
      </trkpt>
      <trkpt lat="42.49283" lon="2.56991">
        <ele>956</ele>
        <time>2024-09-19T12:50:13Z</time>
      </trkpt>
      <trkpt lat="42.49285" lon="2.56993">
        <ele>954</ele>
        <time>2024-09-19T12:50:15Z</time>
      </trkpt>
      <trkpt lat="42.49288" lon="2.56995">
        <ele>953</ele>
        <time>2024-09-19T12:50:17Z</time>
      </trkpt>
      <trkpt lat="42.49291" lon="2.56997">
        <ele>952</ele>
        <time>2024-09-19T12:50:19Z</time>
      </trkpt>
      <trkpt lat="42.49293" lon="2.56999">
        <ele>952</ele>
        <time>2024-09-19T12:50:21Z</time>
      </trkpt>
      <trkpt lat="42.49296" lon="2.57001">
        <ele>952</ele>
        <time>2024-09-19T12:50:24Z</time>
      </trkpt>
      <trkpt lat="42.49299" lon="2.57004">
        <ele>951</ele>
        <time>2024-09-19T12:50:26Z</time>
      </trkpt>
      <trkpt lat="42.49301" lon="2.57007">
        <ele>951</ele>
        <time>2024-09-19T12:50:28Z</time>
      </trkpt>
      <trkpt lat="42.49303" lon="2.57011">
        <ele>951</ele>
        <time>2024-09-19T12:50:31Z</time>
      </trkpt>
      <trkpt lat="42.49303" lon="2.57016">
        <ele>951</ele>
        <time>2024-09-19T12:50:34Z</time>
      </trkpt>
      <trkpt lat="42.49302" lon="2.5702">
        <ele>951</ele>
        <time>2024-09-19T12:50:37Z</time>
      </trkpt>
      <trkpt lat="42.493" lon="2.57023">
        <ele>950</ele>
        <time>2024-09-19T12:50:40Z</time>
      </trkpt>
      <trkpt lat="42.49297" lon="2.57025">
        <ele>951</ele>
        <time>2024-09-19T12:50:42Z</time>
      </trkpt>
      <trkpt lat="42.49294" lon="2.57025">
        <ele>951</ele>
        <time>2024-09-19T12:50:44Z</time>
      </trkpt>
      <trkpt lat="42.49291" lon="2.57024">
        <ele>951</ele>
        <time>2024-09-19T12:50:47Z</time>
      </trkpt>
      <trkpt lat="42.49289" lon="2.57022">
        <ele>951</ele>
        <time>2024-09-19T12:50:50Z</time>
      </trkpt>
      <trkpt lat="42.49286" lon="2.5702">
        <ele>950</ele>
        <time>2024-09-19T12:50:57Z</time>
      </trkpt>
      <trkpt lat="42.49283" lon="2.57018">
        <ele>950</ele>
        <time>2024-09-19T12:51:00Z</time>
      </trkpt>
      <trkpt lat="42.49281" lon="2.57015">
        <ele>948</ele>
        <time>2024-09-19T12:51:07Z</time>
      </trkpt>
      <trkpt lat="42.49279" lon="2.57015">
        <ele>947</ele>
        <time>2024-09-19T12:51:14Z</time>
      </trkpt>
      <trkpt lat="42.49278" lon="2.57018">
        <ele>949</ele>
        <time>2024-09-19T12:51:23Z</time>
      </trkpt>
      <trkpt lat="42.49275" lon="2.57017">
        <ele>947</ele>
        <time>2024-09-19T12:51:40Z</time>
      </trkpt>
      <trkpt lat="42.49274" lon="2.57014">
        <ele>947</ele>
        <time>2024-09-19T12:51:43Z</time>
      </trkpt>
      <trkpt lat="42.49271" lon="2.5701">
        <ele>946</ele>
        <time>2024-09-19T12:51:45Z</time>
      </trkpt>
      <trkpt lat="42.4927" lon="2.57007">
        <ele>946</ele>
        <time>2024-09-19T12:51:46Z</time>
      </trkpt>
      <trkpt lat="42.49267" lon="2.57004">
        <ele>946</ele>
        <time>2024-09-19T12:51:49Z</time>
      </trkpt>
      <trkpt lat="42.49265" lon="2.57">
        <ele>945</ele>
        <time>2024-09-19T12:51:53Z</time>
      </trkpt>
      <trkpt lat="42.49262" lon="2.56998">
        <ele>944</ele>
        <time>2024-09-19T12:51:56Z</time>
      </trkpt>
      <trkpt lat="42.49259" lon="2.56996">
        <ele>943</ele>
        <time>2024-09-19T12:51:58Z</time>
      </trkpt>
      <trkpt lat="42.49256" lon="2.56997">
        <ele>943</ele>
        <time>2024-09-19T12:52:00Z</time>
      </trkpt>
      <trkpt lat="42.49252" lon="2.56998">
        <ele>942</ele>
        <time>2024-09-19T12:52:02Z</time>
      </trkpt>
      <trkpt lat="42.49248" lon="2.56999">
        <ele>941</ele>
        <time>2024-09-19T12:52:05Z</time>
      </trkpt>
      <trkpt lat="42.49244" lon="2.57001">
        <ele>941</ele>
        <time>2024-09-19T12:52:07Z</time>
      </trkpt>
      <trkpt lat="42.49242" lon="2.57003">
        <ele>941</ele>
        <time>2024-09-19T12:52:09Z</time>
      </trkpt>
      <trkpt lat="42.49239" lon="2.57006">
        <ele>941</ele>
        <time>2024-09-19T12:52:11Z</time>
      </trkpt>
      <trkpt lat="42.49238" lon="2.5701">
        <ele>940</ele>
        <time>2024-09-19T12:52:13Z</time>
      </trkpt>
      <trkpt lat="42.49237" lon="2.57014">
        <ele>941</ele>
        <time>2024-09-19T12:52:15Z</time>
      </trkpt>
      <trkpt lat="42.49237" lon="2.57018">
        <ele>942</ele>
        <time>2024-09-19T12:52:17Z</time>
      </trkpt>
      <trkpt lat="42.49238" lon="2.5702">
        <ele>943</ele>
        <time>2024-09-19T12:52:25Z</time>
      </trkpt>
      <trkpt lat="42.4924" lon="2.5702">
        <ele>943</ele>
        <time>2024-09-19T12:52:33Z</time>
      </trkpt>
      <trkpt lat="42.49241" lon="2.57017">
        <ele>941</ele>
        <time>2024-09-19T12:52:41Z</time>
      </trkpt>
      <trkpt lat="42.49243" lon="2.57013">
        <ele>941</ele>
        <time>2024-09-19T12:53:05Z</time>
      </trkpt>
      <trkpt lat="42.4924" lon="2.57013">
        <ele>942</ele>
        <time>2024-09-19T12:53:20Z</time>
      </trkpt>
      <trkpt lat="42.49238" lon="2.57017">
        <ele>942</ele>
        <time>2024-09-19T12:53:23Z</time>
      </trkpt>
      <trkpt lat="42.49238" lon="2.57021">
        <ele>942</ele>
        <time>2024-09-19T12:53:26Z</time>
      </trkpt>
      <trkpt lat="42.49237" lon="2.5702">
        <ele>938</ele>
        <time>2024-09-19T12:53:34Z</time>
      </trkpt>
      <trkpt lat="42.49238" lon="2.57017">
        <ele>938</ele>
        <time>2024-09-19T12:53:45Z</time>
      </trkpt>
      <trkpt lat="42.49236" lon="2.57017">
        <ele>936</ele>
        <time>2024-09-19T12:53:52Z</time>
      </trkpt>
      <trkpt lat="42.49236" lon="2.57019">
        <ele>936</ele>
        <time>2024-09-19T12:54:01Z</time>
      </trkpt>
      <trkpt lat="42.49234" lon="2.57022">
        <ele>936</ele>
        <time>2024-09-19T12:54:03Z</time>
      </trkpt>
      <trkpt lat="42.49232" lon="2.57026">
        <ele>935</ele>
        <time>2024-09-19T12:54:05Z</time>
      </trkpt>
      <trkpt lat="42.4923" lon="2.57029">
        <ele>935</ele>
        <time>2024-09-19T12:54:08Z</time>
      </trkpt>
      <trkpt lat="42.49228" lon="2.57032">
        <ele>934</ele>
        <time>2024-09-19T12:54:10Z</time>
      </trkpt>
      <trkpt lat="42.49227" lon="2.57036">
        <ele>935</ele>
        <time>2024-09-19T12:54:12Z</time>
      </trkpt>
      <trkpt lat="42.49225" lon="2.5704">
        <ele>935</ele>
        <time>2024-09-19T12:54:16Z</time>
      </trkpt>
      <trkpt lat="42.49223" lon="2.57043">
        <ele>934</ele>
        <time>2024-09-19T12:54:18Z</time>
      </trkpt>
      <trkpt lat="42.4922" lon="2.57046">
        <ele>934</ele>
        <time>2024-09-19T12:54:20Z</time>
      </trkpt>
      <trkpt lat="42.49218" lon="2.57049">
        <ele>934</ele>
        <time>2024-09-19T12:54:22Z</time>
      </trkpt>
      <trkpt lat="42.49216" lon="2.57052">
        <ele>935</ele>
        <time>2024-09-19T12:54:24Z</time>
      </trkpt>
      <trkpt lat="42.49215" lon="2.57055">
        <ele>935</ele>
        <time>2024-09-19T12:54:26Z</time>
      </trkpt>
      <trkpt lat="42.49213" lon="2.57058">
        <ele>935</ele>
        <time>2024-09-19T12:54:29Z</time>
      </trkpt>
      <trkpt lat="42.4921" lon="2.57059">
        <ele>934</ele>
        <time>2024-09-19T12:54:33Z</time>
      </trkpt>
      <trkpt lat="42.49206" lon="2.5706">
        <ele>934</ele>
        <time>2024-09-19T12:54:36Z</time>
      </trkpt>
      <trkpt lat="42.49203" lon="2.5706">
        <ele>933</ele>
        <time>2024-09-19T12:54:39Z</time>
      </trkpt>
      <trkpt lat="42.49199" lon="2.57059">
        <ele>932</ele>
        <time>2024-09-19T12:54:42Z</time>
      </trkpt>
      <trkpt lat="42.49196" lon="2.5706">
        <ele>932</ele>
        <time>2024-09-19T12:54:44Z</time>
      </trkpt>
      <trkpt lat="42.49192" lon="2.5706">
        <ele>932</ele>
        <time>2024-09-19T12:54:46Z</time>
      </trkpt>
      <trkpt lat="42.49189" lon="2.57061">
        <ele>932</ele>
        <time>2024-09-19T12:54:48Z</time>
      </trkpt>
      <trkpt lat="42.49186" lon="2.57062">
        <ele>932</ele>
        <time>2024-09-19T12:54:50Z</time>
      </trkpt>
      <trkpt lat="42.49183" lon="2.57062">
        <ele>932</ele>
        <time>2024-09-19T12:54:52Z</time>
      </trkpt>
      <trkpt lat="42.49179" lon="2.57062">
        <ele>932</ele>
        <time>2024-09-19T12:54:54Z</time>
      </trkpt>
      <trkpt lat="42.49177" lon="2.57065">
        <ele>933</ele>
        <time>2024-09-19T12:54:56Z</time>
      </trkpt>
      <trkpt lat="42.49175" lon="2.57068">
        <ele>932</ele>
        <time>2024-09-19T12:54:59Z</time>
      </trkpt>
      <trkpt lat="42.49173" lon="2.57067">
        <ele>931</ele>
        <time>2024-09-19T12:55:01Z</time>
      </trkpt>
      <trkpt lat="42.49171" lon="2.57064">
        <ele>930</ele>
        <time>2024-09-19T12:55:04Z</time>
      </trkpt>
      <trkpt lat="42.49168" lon="2.57062">
        <ele>930</ele>
        <time>2024-09-19T12:55:07Z</time>
      </trkpt>
      <trkpt lat="42.49166" lon="2.57062">
        <ele>930</ele>
        <time>2024-09-19T12:55:10Z</time>
      </trkpt>
      <trkpt lat="42.49163" lon="2.57063">
        <ele>929</ele>
        <time>2024-09-19T12:55:13Z</time>
      </trkpt>
      <trkpt lat="42.4916" lon="2.57065">
        <ele>928</ele>
        <time>2024-09-19T12:55:15Z</time>
      </trkpt>
      <trkpt lat="42.49157" lon="2.57067">
        <ele>927</ele>
        <time>2024-09-19T12:55:17Z</time>
      </trkpt>
      <trkpt lat="42.49156" lon="2.5707">
        <ele>927</ele>
        <time>2024-09-19T12:55:19Z</time>
      </trkpt>
      <trkpt lat="42.49154" lon="2.57073">
        <ele>925</ele>
        <time>2024-09-19T12:55:21Z</time>
      </trkpt>
      <trkpt lat="42.49153" lon="2.57077">
        <ele>925</ele>
        <time>2024-09-19T12:55:23Z</time>
      </trkpt>
      <trkpt lat="42.49151" lon="2.57082">
        <ele>925</ele>
        <time>2024-09-19T12:55:26Z</time>
      </trkpt>
      <trkpt lat="42.49151" lon="2.57086">
        <ele>923</ele>
        <time>2024-09-19T12:55:29Z</time>
      </trkpt>
      <trkpt lat="42.49151" lon="2.57091">
        <ele>924</ele>
        <time>2024-09-19T12:55:32Z</time>
      </trkpt>
      <trkpt lat="42.49151" lon="2.57095">
        <ele>923</ele>
        <time>2024-09-19T12:55:34Z</time>
      </trkpt>
      <trkpt lat="42.4915" lon="2.57099">
        <ele>923</ele>
        <time>2024-09-19T12:55:36Z</time>
      </trkpt>
      <trkpt lat="42.4915" lon="2.57103">
        <ele>923</ele>
        <time>2024-09-19T12:55:39Z</time>
      </trkpt>
      <trkpt lat="42.49148" lon="2.57106">
        <ele>921</ele>
        <time>2024-09-19T12:55:43Z</time>
      </trkpt>
      <trkpt lat="42.49147" lon="2.57109">
        <ele>920</ele>
        <time>2024-09-19T12:55:45Z</time>
      </trkpt>
      <trkpt lat="42.49145" lon="2.57113">
        <ele>918</ele>
        <time>2024-09-19T12:55:49Z</time>
      </trkpt>
      <trkpt lat="42.49143" lon="2.57116">
        <ele>919</ele>
        <time>2024-09-19T12:55:51Z</time>
      </trkpt>
      <trkpt lat="42.49141" lon="2.57119">
        <ele>918</ele>
        <time>2024-09-19T12:55:54Z</time>
      </trkpt>
      <trkpt lat="42.49139" lon="2.57122">
        <ele>918</ele>
        <time>2024-09-19T12:55:57Z</time>
      </trkpt>
      <trkpt lat="42.49137" lon="2.57126">
        <ele>916</ele>
        <time>2024-09-19T12:56:00Z</time>
      </trkpt>
      <trkpt lat="42.49134" lon="2.57129">
        <ele>915</ele>
        <time>2024-09-19T12:56:03Z</time>
      </trkpt>
      <trkpt lat="42.49132" lon="2.5713">
        <ele>915</ele>
        <time>2024-09-19T12:56:05Z</time>
      </trkpt>
      <trkpt lat="42.49129" lon="2.57132">
        <ele>914</ele>
        <time>2024-09-19T12:56:07Z</time>
      </trkpt>
      <trkpt lat="42.49127" lon="2.57134">
        <ele>914</ele>
        <time>2024-09-19T12:56:09Z</time>
      </trkpt>
      <trkpt lat="42.49125" lon="2.57137">
        <ele>914</ele>
        <time>2024-09-19T12:56:13Z</time>
      </trkpt>
      <trkpt lat="42.49124" lon="2.57141">
        <ele>918</ele>
        <time>2024-09-19T12:56:22Z</time>
      </trkpt>
      <trkpt lat="42.49122" lon="2.5714">
        <ele>915</ele>
        <time>2024-09-19T12:56:25Z</time>
      </trkpt>
      <trkpt lat="42.49119" lon="2.57141">
        <ele>916</ele>
        <time>2024-09-19T12:56:27Z</time>
      </trkpt>
      <trkpt lat="42.49116" lon="2.57144">
        <ele>916</ele>
        <time>2024-09-19T12:56:30Z</time>
      </trkpt>
      <trkpt lat="42.49113" lon="2.57145">
        <ele>916</ele>
        <time>2024-09-19T12:56:34Z</time>
      </trkpt>
      <trkpt lat="42.49109" lon="2.57148">
        <ele>915</ele>
        <time>2024-09-19T12:56:37Z</time>
      </trkpt>
      <trkpt lat="42.49105" lon="2.57151">
        <ele>916</ele>
        <time>2024-09-19T12:56:39Z</time>
      </trkpt>
      <trkpt lat="42.49102" lon="2.57153">
        <ele>916</ele>
        <time>2024-09-19T12:56:41Z</time>
      </trkpt>
      <trkpt lat="42.49101" lon="2.57157">
        <ele>915</ele>
        <time>2024-09-19T12:56:43Z</time>
      </trkpt>
      <trkpt lat="42.49099" lon="2.57162">
        <ele>915</ele>
        <time>2024-09-19T12:56:46Z</time>
      </trkpt>
      <trkpt lat="42.49098" lon="2.57166">
        <ele>914</ele>
        <time>2024-09-19T12:56:48Z</time>
      </trkpt>
      <trkpt lat="42.49097" lon="2.5717">
        <ele>914</ele>
        <time>2024-09-19T12:56:50Z</time>
      </trkpt>
      <trkpt lat="42.49097" lon="2.57174">
        <ele>914</ele>
        <time>2024-09-19T12:56:52Z</time>
      </trkpt>
      <trkpt lat="42.49097" lon="2.57179">
        <ele>914</ele>
        <time>2024-09-19T12:56:54Z</time>
      </trkpt>
      <trkpt lat="42.49098" lon="2.57182">
        <ele>913</ele>
        <time>2024-09-19T12:56:56Z</time>
      </trkpt>
      <trkpt lat="42.49099" lon="2.57186">
        <ele>912</ele>
        <time>2024-09-19T12:56:59Z</time>
      </trkpt>
      <trkpt lat="42.49098" lon="2.5719">
        <ele>913</ele>
        <time>2024-09-19T12:57:02Z</time>
      </trkpt>
      <trkpt lat="42.49098" lon="2.57195">
        <ele>912</ele>
        <time>2024-09-19T12:57:05Z</time>
      </trkpt>
      <trkpt lat="42.49097" lon="2.57199">
        <ele>910</ele>
        <time>2024-09-19T12:57:08Z</time>
      </trkpt>
      <trkpt lat="42.49095" lon="2.57203">
        <ele>910</ele>
        <time>2024-09-19T12:57:11Z</time>
      </trkpt>
      <trkpt lat="42.49095" lon="2.57207">
        <ele>910</ele>
        <time>2024-09-19T12:57:14Z</time>
      </trkpt>
      <trkpt lat="42.49093" lon="2.57211">
        <ele>909</ele>
        <time>2024-09-19T12:57:16Z</time>
      </trkpt>
      <trkpt lat="42.49092" lon="2.57214">
        <ele>910</ele>
        <time>2024-09-19T12:57:18Z</time>
      </trkpt>
      <trkpt lat="42.49091" lon="2.57219">
        <ele>910</ele>
        <time>2024-09-19T12:57:21Z</time>
      </trkpt>
      <trkpt lat="42.4909" lon="2.57223">
        <ele>909</ele>
        <time>2024-09-19T12:57:24Z</time>
      </trkpt>
      <trkpt lat="42.49089" lon="2.57227">
        <ele>909</ele>
        <time>2024-09-19T12:57:26Z</time>
      </trkpt>
      <trkpt lat="42.49089" lon="2.57231">
        <ele>907</ele>
        <time>2024-09-19T12:57:28Z</time>
      </trkpt>
      <trkpt lat="42.49089" lon="2.57236">
        <ele>909</ele>
        <time>2024-09-19T12:57:30Z</time>
      </trkpt>
      <trkpt lat="42.49089" lon="2.57241">
        <ele>910</ele>
        <time>2024-09-19T12:57:32Z</time>
      </trkpt>
      <trkpt lat="42.49089" lon="2.57246">
        <ele>908</ele>
        <time>2024-09-19T12:57:35Z</time>
      </trkpt>
      <trkpt lat="42.49088" lon="2.5725">
        <ele>908</ele>
        <time>2024-09-19T12:57:38Z</time>
      </trkpt>
      <trkpt lat="42.49088" lon="2.57255">
        <ele>908</ele>
        <time>2024-09-19T12:57:41Z</time>
      </trkpt>
      <trkpt lat="42.49088" lon="2.57259">
        <ele>908</ele>
        <time>2024-09-19T12:57:45Z</time>
      </trkpt>
      <trkpt lat="42.49086" lon="2.57262">
        <ele>907</ele>
        <time>2024-09-19T12:57:47Z</time>
      </trkpt>
      <trkpt lat="42.49085" lon="2.57267">
        <ele>906</ele>
        <time>2024-09-19T12:57:50Z</time>
      </trkpt>
      <trkpt lat="42.49085" lon="2.57271">
        <ele>905</ele>
        <time>2024-09-19T12:57:53Z</time>
      </trkpt>
      <trkpt lat="42.49084" lon="2.57275">
        <ele>906</ele>
        <time>2024-09-19T12:57:55Z</time>
      </trkpt>
      <trkpt lat="42.49084" lon="2.5728">
        <ele>904</ele>
        <time>2024-09-19T12:57:58Z</time>
      </trkpt>
      <trkpt lat="42.49084" lon="2.57286">
        <ele>905</ele>
        <time>2024-09-19T12:58:00Z</time>
      </trkpt>
      <trkpt lat="42.49084" lon="2.5729">
        <ele>905</ele>
        <time>2024-09-19T12:58:03Z</time>
      </trkpt>
      <trkpt lat="42.49083" lon="2.57295">
        <ele>904</ele>
        <time>2024-09-19T12:58:05Z</time>
      </trkpt>
      <trkpt lat="42.49082" lon="2.57299">
        <ele>903</ele>
        <time>2024-09-19T12:58:09Z</time>
      </trkpt>
      <trkpt lat="42.49079" lon="2.57303">
        <ele>902</ele>
        <time>2024-09-19T12:58:12Z</time>
      </trkpt>
      <trkpt lat="42.49077" lon="2.57307">
        <ele>900</ele>
        <time>2024-09-19T12:58:15Z</time>
      </trkpt>
      <trkpt lat="42.49076" lon="2.5731">
        <ele>900</ele>
        <time>2024-09-19T12:58:16Z</time>
      </trkpt>
      <trkpt lat="42.49074" lon="2.57314">
        <ele>901</ele>
        <time>2024-09-19T12:58:20Z</time>
      </trkpt>
      <trkpt lat="42.49073" lon="2.57318">
        <ele>902</ele>
        <time>2024-09-19T12:58:22Z</time>
      </trkpt>
      <trkpt lat="42.49072" lon="2.57322">
        <ele>902</ele>
        <time>2024-09-19T12:58:26Z</time>
      </trkpt>
      <trkpt lat="42.4907" lon="2.57325">
        <ele>901</ele>
        <time>2024-09-19T12:58:29Z</time>
      </trkpt>
      <trkpt lat="42.49068" lon="2.57328">
        <ele>902</ele>
        <time>2024-09-19T12:58:32Z</time>
      </trkpt>
      <trkpt lat="42.49066" lon="2.57332">
        <ele>902</ele>
        <time>2024-09-19T12:58:36Z</time>
      </trkpt>
      <trkpt lat="42.49064" lon="2.57336">
        <ele>902</ele>
        <time>2024-09-19T12:58:39Z</time>
      </trkpt>
      <trkpt lat="42.49064" lon="2.57341">
        <ele>901</ele>
        <time>2024-09-19T12:58:42Z</time>
      </trkpt>
      <trkpt lat="42.49064" lon="2.57345">
        <ele>902</ele>
        <time>2024-09-19T12:58:44Z</time>
      </trkpt>
      <trkpt lat="42.49065" lon="2.57349">
        <ele>900</ele>
        <time>2024-09-19T12:58:48Z</time>
      </trkpt>
      <trkpt lat="42.49067" lon="2.57353">
        <ele>899</ele>
        <time>2024-09-19T12:58:51Z</time>
      </trkpt>
      <trkpt lat="42.49068" lon="2.57357">
        <ele>899</ele>
        <time>2024-09-19T12:58:54Z</time>
      </trkpt>
      <trkpt lat="42.49068" lon="2.57361">
        <ele>898</ele>
        <time>2024-09-19T12:58:57Z</time>
      </trkpt>
      <trkpt lat="42.49068" lon="2.57365">
        <ele>897</ele>
        <time>2024-09-19T12:59:00Z</time>
      </trkpt>
      <trkpt lat="42.49067" lon="2.57369">
        <ele>897</ele>
        <time>2024-09-19T12:59:02Z</time>
      </trkpt>
      <trkpt lat="42.49066" lon="2.57373">
        <ele>896</ele>
        <time>2024-09-19T12:59:05Z</time>
      </trkpt>
      <trkpt lat="42.49065" lon="2.57379">
        <ele>896</ele>
        <time>2024-09-19T12:59:08Z</time>
      </trkpt>
      <trkpt lat="42.49064" lon="2.57383">
        <ele>897</ele>
        <time>2024-09-19T12:59:10Z</time>
      </trkpt>
      <trkpt lat="42.49062" lon="2.57388">
        <ele>897</ele>
        <time>2024-09-19T12:59:13Z</time>
      </trkpt>
      <trkpt lat="42.49061" lon="2.57392">
        <ele>897</ele>
        <time>2024-09-19T12:59:17Z</time>
      </trkpt>
      <trkpt lat="42.49059" lon="2.57396">
        <ele>896</ele>
        <time>2024-09-19T12:59:20Z</time>
      </trkpt>
      <trkpt lat="42.49058" lon="2.574">
        <ele>897</ele>
        <time>2024-09-19T12:59:23Z</time>
      </trkpt>
      <trkpt lat="42.49056" lon="2.57405">
        <ele>897</ele>
        <time>2024-09-19T12:59:29Z</time>
      </trkpt>
      <trkpt lat="42.49055" lon="2.5741">
        <ele>897</ele>
        <time>2024-09-19T12:59:30Z</time>
      </trkpt>
      <trkpt lat="42.49054" lon="2.57413">
        <ele>896</ele>
        <time>2024-09-19T12:59:32Z</time>
      </trkpt>
      <trkpt lat="42.49053" lon="2.57417">
        <ele>896</ele>
        <time>2024-09-19T12:59:35Z</time>
      </trkpt>
      <trkpt lat="42.49052" lon="2.57421">
        <ele>896</ele>
        <time>2024-09-19T12:59:37Z</time>
      </trkpt>
      <trkpt lat="42.49052" lon="2.57425">
        <ele>896</ele>
        <time>2024-09-19T12:59:39Z</time>
      </trkpt>
      <trkpt lat="42.49051" lon="2.57429">
        <ele>896</ele>
        <time>2024-09-19T12:59:41Z</time>
      </trkpt>
      <trkpt lat="42.4905" lon="2.57434">
        <ele>896</ele>
        <time>2024-09-19T12:59:45Z</time>
      </trkpt>
      <trkpt lat="42.4905" lon="2.57438">
        <ele>896</ele>
        <time>2024-09-19T12:59:47Z</time>
      </trkpt>
      <trkpt lat="42.49049" lon="2.57442">
        <ele>896</ele>
        <time>2024-09-19T12:59:51Z</time>
      </trkpt>
      <trkpt lat="42.49049" lon="2.57447">
        <ele>896</ele>
        <time>2024-09-19T12:59:53Z</time>
      </trkpt>
      <trkpt lat="42.49048" lon="2.57451">
        <ele>896</ele>
        <time>2024-09-19T12:59:56Z</time>
      </trkpt>
      <trkpt lat="42.49047" lon="2.57456">
        <ele>895</ele>
        <time>2024-09-19T12:59:59Z</time>
      </trkpt>
      <trkpt lat="42.49046" lon="2.5746">
        <ele>895</ele>
        <time>2024-09-19T13:00:01Z</time>
      </trkpt>
      <trkpt lat="42.49046" lon="2.57464">
        <ele>895</ele>
        <time>2024-09-19T13:00:03Z</time>
      </trkpt>
      <trkpt lat="42.49045" lon="2.57468">
        <ele>895</ele>
        <time>2024-09-19T13:00:06Z</time>
      </trkpt>
      <trkpt lat="42.49044" lon="2.57473">
        <ele>895</ele>
        <time>2024-09-19T13:00:08Z</time>
      </trkpt>
      <trkpt lat="42.49044" lon="2.57478">
        <ele>896</ele>
        <time>2024-09-19T13:00:11Z</time>
      </trkpt>
      <trkpt lat="42.49044" lon="2.57483">
        <ele>896</ele>
        <time>2024-09-19T13:00:15Z</time>
      </trkpt>
      <trkpt lat="42.49043" lon="2.57488">
        <ele>895</ele>
        <time>2024-09-19T13:00:18Z</time>
      </trkpt>
      <trkpt lat="42.49041" lon="2.57492">
        <ele>895</ele>
        <time>2024-09-19T13:00:21Z</time>
      </trkpt>
      <trkpt lat="42.4904" lon="2.57495">
        <ele>895</ele>
        <time>2024-09-19T13:00:22Z</time>
      </trkpt>
      <trkpt lat="42.49038" lon="2.57499">
        <ele>895</ele>
        <time>2024-09-19T13:00:25Z</time>
      </trkpt>
      <trkpt lat="42.49036" lon="2.57501">
        <ele>894</ele>
        <time>2024-09-19T13:00:27Z</time>
      </trkpt>
      <trkpt lat="42.49034" lon="2.57504">
        <ele>894</ele>
        <time>2024-09-19T13:00:29Z</time>
      </trkpt>
      <trkpt lat="42.49033" lon="2.57508">
        <ele>894</ele>
        <time>2024-09-19T13:00:34Z</time>
      </trkpt>
      <trkpt lat="42.49031" lon="2.57512">
        <ele>892</ele>
        <time>2024-09-19T13:00:37Z</time>
      </trkpt>
      <trkpt lat="42.4903" lon="2.57516">
        <ele>892</ele>
        <time>2024-09-19T13:00:40Z</time>
      </trkpt>
      <trkpt lat="42.4903" lon="2.57521">
        <ele>892</ele>
        <time>2024-09-19T13:00:42Z</time>
      </trkpt>
      <trkpt lat="42.49028" lon="2.57523">
        <ele>890</ele>
        <time>2024-09-19T13:00:45Z</time>
      </trkpt>
      <trkpt lat="42.49026" lon="2.57527">
        <ele>891</ele>
        <time>2024-09-19T13:00:47Z</time>
      </trkpt>
      <trkpt lat="42.49024" lon="2.5753">
        <ele>890</ele>
        <time>2024-09-19T13:00:50Z</time>
      </trkpt>
      <trkpt lat="42.49022" lon="2.57533">
        <ele>890</ele>
        <time>2024-09-19T13:00:53Z</time>
      </trkpt>
      <trkpt lat="42.49019" lon="2.57538">
        <ele>889</ele>
        <time>2024-09-19T13:00:56Z</time>
      </trkpt>
      <trkpt lat="42.49017" lon="2.57542">
        <ele>889</ele>
        <time>2024-09-19T13:01:00Z</time>
      </trkpt>
      <trkpt lat="42.49015" lon="2.57546">
        <ele>890</ele>
        <time>2024-09-19T13:01:02Z</time>
      </trkpt>
      <trkpt lat="42.49013" lon="2.5755">
        <ele>891</ele>
        <time>2024-09-19T13:01:05Z</time>
      </trkpt>
      <trkpt lat="42.49012" lon="2.57553">
        <ele>891</ele>
        <time>2024-09-19T13:01:07Z</time>
      </trkpt>
      <trkpt lat="42.49011" lon="2.57557">
        <ele>891</ele>
        <time>2024-09-19T13:01:18Z</time>
      </trkpt>
      <trkpt lat="42.49008" lon="2.5756">
        <ele>890</ele>
        <time>2024-09-19T13:01:21Z</time>
      </trkpt>
      <trkpt lat="42.49006" lon="2.57563">
        <ele>890</ele>
        <time>2024-09-19T13:01:24Z</time>
      </trkpt>
      <trkpt lat="42.49004" lon="2.57568">
        <ele>891</ele>
        <time>2024-09-19T13:01:27Z</time>
      </trkpt>
      <trkpt lat="42.49002" lon="2.57571">
        <ele>892</ele>
        <time>2024-09-19T13:01:29Z</time>
      </trkpt>
      <trkpt lat="42.49" lon="2.57575">
        <ele>892</ele>
        <time>2024-09-19T13:01:31Z</time>
      </trkpt>
      <trkpt lat="42.48999" lon="2.57579">
        <ele>892</ele>
        <time>2024-09-19T13:01:33Z</time>
      </trkpt>
      <trkpt lat="42.48997" lon="2.57583">
        <ele>891</ele>
        <time>2024-09-19T13:01:37Z</time>
      </trkpt>
      <trkpt lat="42.48994" lon="2.57586">
        <ele>891</ele>
        <time>2024-09-19T13:01:40Z</time>
      </trkpt>
      <trkpt lat="42.48992" lon="2.57589">
        <ele>890</ele>
        <time>2024-09-19T13:01:43Z</time>
      </trkpt>
      <trkpt lat="42.4899" lon="2.57592">
        <ele>891</ele>
        <time>2024-09-19T13:01:46Z</time>
      </trkpt>
      <trkpt lat="42.48988" lon="2.57596">
        <ele>891</ele>
        <time>2024-09-19T13:01:48Z</time>
      </trkpt>
      <trkpt lat="42.48985" lon="2.57599">
        <ele>891</ele>
        <time>2024-09-19T13:01:51Z</time>
      </trkpt>
      <trkpt lat="42.48983" lon="2.57604">
        <ele>891</ele>
        <time>2024-09-19T13:01:54Z</time>
      </trkpt>
      <trkpt lat="42.48982" lon="2.57608">
        <ele>892</ele>
        <time>2024-09-19T13:01:57Z</time>
      </trkpt>
      <trkpt lat="42.48982" lon="2.57612">
        <ele>892</ele>
        <time>2024-09-19T13:01:59Z</time>
      </trkpt>
      <trkpt lat="42.4898" lon="2.57613">
        <ele>893</ele>
        <time>2024-09-19T13:02:01Z</time>
      </trkpt>
      <trkpt lat="42.48978" lon="2.57616">
        <ele>891</ele>
        <time>2024-09-19T13:02:04Z</time>
      </trkpt>
      <trkpt lat="42.48977" lon="2.5762">
        <ele>891</ele>
        <time>2024-09-19T13:02:06Z</time>
      </trkpt>
      <trkpt lat="42.48976" lon="2.57624">
        <ele>890</ele>
        <time>2024-09-19T13:02:08Z</time>
      </trkpt>
      <trkpt lat="42.48974" lon="2.57628">
        <ele>889</ele>
        <time>2024-09-19T13:02:11Z</time>
      </trkpt>
      <trkpt lat="42.48973" lon="2.57631">
        <ele>889</ele>
        <time>2024-09-19T13:02:13Z</time>
      </trkpt>
      <trkpt lat="42.48972" lon="2.57636">
        <ele>888</ele>
        <time>2024-09-19T13:02:16Z</time>
      </trkpt>
      <trkpt lat="42.48971" lon="2.5764">
        <ele>888</ele>
        <time>2024-09-19T13:02:18Z</time>
      </trkpt>
      <trkpt lat="42.4897" lon="2.57644">
        <ele>887</ele>
        <time>2024-09-19T13:02:21Z</time>
      </trkpt>
      <trkpt lat="42.48968" lon="2.57647">
        <ele>887</ele>
        <time>2024-09-19T13:02:23Z</time>
      </trkpt>
      <trkpt lat="42.48967" lon="2.57652">
        <ele>887</ele>
        <time>2024-09-19T13:02:26Z</time>
      </trkpt>
      <trkpt lat="42.48965" lon="2.57655">
        <ele>887</ele>
        <time>2024-09-19T13:02:28Z</time>
      </trkpt>
      <trkpt lat="42.48963" lon="2.57661">
        <ele>885</ele>
        <time>2024-09-19T13:02:30Z</time>
      </trkpt>
      <trkpt lat="42.48961" lon="2.57664">
        <ele>885</ele>
        <time>2024-09-19T13:02:33Z</time>
      </trkpt>
      <trkpt lat="42.48959" lon="2.57669">
        <ele>886</ele>
        <time>2024-09-19T13:02:36Z</time>
      </trkpt>
      <trkpt lat="42.48957" lon="2.57673">
        <ele>887</ele>
        <time>2024-09-19T13:02:39Z</time>
      </trkpt>
      <trkpt lat="42.48955" lon="2.57677">
        <ele>886</ele>
        <time>2024-09-19T13:02:41Z</time>
      </trkpt>
      <trkpt lat="42.48955" lon="2.57681">
        <ele>886</ele>
        <time>2024-09-19T13:02:45Z</time>
      </trkpt>
      <trkpt lat="42.48953" lon="2.57685">
        <ele>887</ele>
        <time>2024-09-19T13:02:47Z</time>
      </trkpt>
      <trkpt lat="42.48952" lon="2.57689">
        <ele>888</ele>
        <time>2024-09-19T13:02:50Z</time>
      </trkpt>
      <trkpt lat="42.48951" lon="2.57694">
        <ele>888</ele>
        <time>2024-09-19T13:03:00Z</time>
      </trkpt>
      <trkpt lat="42.4895" lon="2.57698">
        <ele>889</ele>
        <time>2024-09-19T13:03:02Z</time>
      </trkpt>
      <trkpt lat="42.4895" lon="2.57702">
        <ele>888</ele>
        <time>2024-09-19T13:03:05Z</time>
      </trkpt>
      <trkpt lat="42.48949" lon="2.57706">
        <ele>888</ele>
        <time>2024-09-19T13:03:07Z</time>
      </trkpt>
      <trkpt lat="42.48947" lon="2.5771">
        <ele>887</ele>
        <time>2024-09-19T13:03:10Z</time>
      </trkpt>
      <trkpt lat="42.48945" lon="2.57712">
        <ele>887</ele>
        <time>2024-09-19T13:03:13Z</time>
      </trkpt>
      <trkpt lat="42.48942" lon="2.57715">
        <ele>887</ele>
        <time>2024-09-19T13:03:17Z</time>
      </trkpt>
      <trkpt lat="42.48939" lon="2.57718">
        <ele>888</ele>
        <time>2024-09-19T13:03:19Z</time>
      </trkpt>
      <trkpt lat="42.48937" lon="2.57721">
        <ele>888</ele>
        <time>2024-09-19T13:03:21Z</time>
      </trkpt>
      <trkpt lat="42.48935" lon="2.57725">
        <ele>887</ele>
        <time>2024-09-19T13:03:24Z</time>
      </trkpt>
      <trkpt lat="42.48933" lon="2.57728">
        <ele>887</ele>
        <time>2024-09-19T13:03:27Z</time>
      </trkpt>
      <trkpt lat="42.48932" lon="2.57732">
        <ele>886</ele>
        <time>2024-09-19T13:03:35Z</time>
      </trkpt>
      <trkpt lat="42.48932" lon="2.57735">
        <ele>884</ele>
        <time>2024-09-19T13:03:52Z</time>
      </trkpt>
      <trkpt lat="42.48933" lon="2.5774">
        <ele>884</ele>
        <time>2024-09-19T13:03:55Z</time>
      </trkpt>
      <trkpt lat="42.48935" lon="2.57743">
        <ele>884</ele>
        <time>2024-09-19T13:03:58Z</time>
      </trkpt>
      <trkpt lat="42.48937" lon="2.57745">
        <ele>883</ele>
        <time>2024-09-19T13:04:00Z</time>
      </trkpt>
      <trkpt lat="42.4894" lon="2.57747">
        <ele>882</ele>
        <time>2024-09-19T13:04:05Z</time>
      </trkpt>
      <trkpt lat="42.48944" lon="2.57748">
        <ele>882</ele>
        <time>2024-09-19T13:04:07Z</time>
      </trkpt>
      <trkpt lat="42.48947" lon="2.57749">
        <ele>881</ele>
        <time>2024-09-19T13:04:10Z</time>
      </trkpt>
      <trkpt lat="42.4895" lon="2.57751">
        <ele>880</ele>
        <time>2024-09-19T13:04:13Z</time>
      </trkpt>
      <trkpt lat="42.48952" lon="2.5775">
        <ele>878</ele>
        <time>2024-09-19T13:04:16Z</time>
      </trkpt>
      <trkpt lat="42.48955" lon="2.57749">
        <ele>878</ele>
        <time>2024-09-19T13:04:18Z</time>
      </trkpt>
      <trkpt lat="42.48957" lon="2.57747">
        <ele>877</ele>
        <time>2024-09-19T13:04:20Z</time>
      </trkpt>
      <trkpt lat="42.4896" lon="2.57747">
        <ele>872</ele>
        <time>2024-09-19T13:04:32Z</time>
      </trkpt>
      <trkpt lat="42.48963" lon="2.57748">
        <ele>871</ele>
        <time>2024-09-19T13:04:34Z</time>
      </trkpt>
      <trkpt lat="42.48965" lon="2.5775">
        <ele>871</ele>
        <time>2024-09-19T13:04:38Z</time>
      </trkpt>
      <trkpt lat="42.48967" lon="2.57749">
        <ele>869</ele>
        <time>2024-09-19T13:04:43Z</time>
      </trkpt>
      <trkpt lat="42.4897" lon="2.57747">
        <ele>869</ele>
        <time>2024-09-19T13:04:48Z</time>
      </trkpt>
      <trkpt lat="42.48973" lon="2.57747">
        <ele>870</ele>
        <time>2024-09-19T13:04:50Z</time>
      </trkpt>
      <trkpt lat="42.48973" lon="2.5775">
        <ele>869</ele>
        <time>2024-09-19T13:04:52Z</time>
      </trkpt>
      <trkpt lat="42.48972" lon="2.57752">
        <ele>868</ele>
        <time>2024-09-19T13:04:55Z</time>
      </trkpt>
      <trkpt lat="42.48969" lon="2.57753">
        <ele>870</ele>
        <time>2024-09-19T13:05:05Z</time>
      </trkpt>
      <trkpt lat="42.48967" lon="2.57756">
        <ele>868</ele>
        <time>2024-09-19T13:05:15Z</time>
      </trkpt>
      <trkpt lat="42.48968" lon="2.57757">
        <ele>870</ele>
        <time>2024-09-19T13:05:36Z</time>
      </trkpt>
      <trkpt lat="42.48967" lon="2.5776">
        <ele>867</ele>
        <time>2024-09-19T13:05:56Z</time>
      </trkpt>
      <trkpt lat="42.48966" lon="2.57762">
        <ele>866</ele>
        <time>2024-09-19T13:06:13Z</time>
      </trkpt>
      <trkpt lat="42.48966" lon="2.57766">
        <ele>867</ele>
        <time>2024-09-19T13:06:15Z</time>
      </trkpt>
      <trkpt lat="42.48965" lon="2.57769">
        <ele>866</ele>
        <time>2024-09-19T13:06:20Z</time>
      </trkpt>
      <trkpt lat="42.48962" lon="2.57772">
        <ele>866</ele>
        <time>2024-09-19T13:06:22Z</time>
      </trkpt>
      <trkpt lat="42.4896" lon="2.57771">
        <ele>866</ele>
        <time>2024-09-19T13:06:25Z</time>
      </trkpt>
      <trkpt lat="42.48958" lon="2.57774">
        <ele>865</ele>
        <time>2024-09-19T13:06:27Z</time>
      </trkpt>
      <trkpt lat="42.48958" lon="2.57777">
        <ele>865</ele>
        <time>2024-09-19T13:06:28Z</time>
      </trkpt>
      <trkpt lat="42.48959" lon="2.57781">
        <ele>866</ele>
        <time>2024-09-19T13:06:32Z</time>
      </trkpt>
      <trkpt lat="42.48958" lon="2.57783">
        <ele>865</ele>
        <time>2024-09-19T13:06:36Z</time>
      </trkpt>
      <trkpt lat="42.48955" lon="2.57784">
        <ele>864</ele>
        <time>2024-09-19T13:06:41Z</time>
      </trkpt>
      <trkpt lat="42.48953" lon="2.57786">
        <ele>864</ele>
        <time>2024-09-19T13:06:44Z</time>
      </trkpt>
      <trkpt lat="42.4895" lon="2.57788">
        <ele>863</ele>
        <time>2024-09-19T13:06:46Z</time>
      </trkpt>
      <trkpt lat="42.48947" lon="2.5779">
        <ele>862</ele>
        <time>2024-09-19T13:06:49Z</time>
      </trkpt>
      <trkpt lat="42.48946" lon="2.57793">
        <ele>862</ele>
        <time>2024-09-19T13:06:52Z</time>
      </trkpt>
      <trkpt lat="42.48944" lon="2.57796">
        <ele>862</ele>
        <time>2024-09-19T13:06:55Z</time>
      </trkpt>
      <trkpt lat="42.48944" lon="2.578">
        <ele>860</ele>
        <time>2024-09-19T13:06:58Z</time>
      </trkpt>
      <trkpt lat="42.48942" lon="2.57802">
        <ele>858</ele>
        <time>2024-09-19T13:07:01Z</time>
      </trkpt>
      <trkpt lat="42.48941" lon="2.578">
        <ele>857</ele>
        <time>2024-09-19T13:07:03Z</time>
      </trkpt>
      <trkpt lat="42.48938" lon="2.578">
        <ele>857</ele>
        <time>2024-09-19T13:07:06Z</time>
      </trkpt>
      <trkpt lat="42.48935" lon="2.578">
        <ele>858</ele>
        <time>2024-09-19T13:07:10Z</time>
      </trkpt>
      <trkpt lat="42.48931" lon="2.57801">
        <ele>857</ele>
        <time>2024-09-19T13:07:13Z</time>
      </trkpt>
      <trkpt lat="42.48928" lon="2.57801">
        <ele>857</ele>
        <time>2024-09-19T13:07:16Z</time>
      </trkpt>
      <trkpt lat="42.48924" lon="2.57803">
        <ele>856</ele>
        <time>2024-09-19T13:07:19Z</time>
      </trkpt>
      <trkpt lat="42.48921" lon="2.57806">
        <ele>856</ele>
        <time>2024-09-19T13:07:22Z</time>
      </trkpt>
      <trkpt lat="42.48919" lon="2.57811">
        <ele>855</ele>
        <time>2024-09-19T13:07:25Z</time>
      </trkpt>
      <trkpt lat="42.48917" lon="2.57813">
        <ele>854</ele>
        <time>2024-09-19T13:07:29Z</time>
      </trkpt>
      <trkpt lat="42.48913" lon="2.57816">
        <ele>854</ele>
        <time>2024-09-19T13:07:32Z</time>
      </trkpt>
      <trkpt lat="42.48911" lon="2.5782">
        <ele>853</ele>
        <time>2024-09-19T13:07:35Z</time>
      </trkpt>
      <trkpt lat="42.48912" lon="2.57823">
        <ele>851</ele>
        <time>2024-09-19T13:07:38Z</time>
      </trkpt>
      <trkpt lat="42.48918" lon="2.57825">
        <ele>847</ele>
        <time>2024-09-19T13:07:50Z</time>
      </trkpt>
      <trkpt lat="42.48915" lon="2.57826">
        <ele>845</ele>
        <time>2024-09-19T13:08:02Z</time>
      </trkpt>
      <trkpt lat="42.48913" lon="2.57827">
        <ele>845</ele>
        <time>2024-09-19T13:08:07Z</time>
      </trkpt>
      <trkpt lat="42.48912" lon="2.5783">
        <ele>843</ele>
        <time>2024-09-19T13:08:15Z</time>
      </trkpt>
      <trkpt lat="42.48909" lon="2.57832">
        <ele>843</ele>
        <time>2024-09-19T13:08:18Z</time>
      </trkpt>
      <trkpt lat="42.48908" lon="2.57835">
        <ele>842</ele>
        <time>2024-09-19T13:08:20Z</time>
      </trkpt>
      <trkpt lat="42.48909" lon="2.57838">
        <ele>842</ele>
        <time>2024-09-19T13:08:22Z</time>
      </trkpt>
      <trkpt lat="42.48907" lon="2.57841">
        <ele>843</ele>
        <time>2024-09-19T13:08:25Z</time>
      </trkpt>
      <trkpt lat="42.48905" lon="2.57844">
        <ele>843</ele>
        <time>2024-09-19T13:08:28Z</time>
      </trkpt>
      <trkpt lat="42.48905" lon="2.57847">
        <ele>843</ele>
        <time>2024-09-19T13:08:30Z</time>
      </trkpt>
      <trkpt lat="42.48903" lon="2.57848">
        <ele>842</ele>
        <time>2024-09-19T13:08:34Z</time>
      </trkpt>
      <trkpt lat="42.489" lon="2.5785">
        <ele>842</ele>
        <time>2024-09-19T13:08:36Z</time>
      </trkpt>
      <trkpt lat="42.489" lon="2.57853">
        <ele>841</ele>
        <time>2024-09-19T13:08:38Z</time>
      </trkpt>
      <trkpt lat="42.48898" lon="2.57852">
        <ele>841</ele>
        <time>2024-09-19T13:08:41Z</time>
      </trkpt>
      <trkpt lat="42.48896" lon="2.57853">
        <ele>840</ele>
        <time>2024-09-19T13:08:43Z</time>
      </trkpt>
      <trkpt lat="42.48893" lon="2.57855">
        <ele>839</ele>
        <time>2024-09-19T13:08:45Z</time>
      </trkpt>
      <trkpt lat="42.48891" lon="2.57858">
        <ele>837</ele>
        <time>2024-09-19T13:08:47Z</time>
      </trkpt>
      <trkpt lat="42.48889" lon="2.57861">
        <ele>837</ele>
        <time>2024-09-19T13:08:49Z</time>
      </trkpt>
      <trkpt lat="42.48889" lon="2.57865">
        <ele>835</ele>
        <time>2024-09-19T13:08:52Z</time>
      </trkpt>
      <trkpt lat="42.48887" lon="2.57869">
        <ele>832</ele>
        <time>2024-09-19T13:08:56Z</time>
      </trkpt>
      <trkpt lat="42.48885" lon="2.57874">
        <ele>830</ele>
        <time>2024-09-19T13:09:07Z</time>
      </trkpt>
      <trkpt lat="42.48884" lon="2.57873">
        <ele>828</ele>
        <time>2024-09-19T13:09:09Z</time>
      </trkpt>
      <trkpt lat="42.48884" lon="2.5787">
        <ele>828</ele>
        <time>2024-09-19T13:09:12Z</time>
      </trkpt>
      <trkpt lat="42.48885" lon="2.57867">
        <ele>828</ele>
        <time>2024-09-19T13:09:23Z</time>
      </trkpt>
      <trkpt lat="42.48885" lon="2.57868">
        <ele>828</ele>
        <time>2024-09-19T13:09:26Z</time>
      </trkpt>
      <trkpt lat="42.48884" lon="2.57871">
        <ele>827</ele>
        <time>2024-09-19T13:09:29Z</time>
      </trkpt>
      <trkpt lat="42.48884" lon="2.57874">
        <ele>827</ele>
        <time>2024-09-19T13:09:53Z</time>
      </trkpt>
      <trkpt lat="42.48886" lon="2.57877">
        <ele>827</ele>
        <time>2024-09-19T13:10:00Z</time>
      </trkpt>
      <trkpt lat="42.48884" lon="2.57879">
        <ele>826</ele>
        <time>2024-09-19T13:10:03Z</time>
      </trkpt>
      <trkpt lat="42.48882" lon="2.5788">
        <ele>825</ele>
        <time>2024-09-19T13:10:06Z</time>
      </trkpt>
      <trkpt lat="42.48879" lon="2.57882">
        <ele>828</ele>
        <time>2024-09-19T13:10:31Z</time>
      </trkpt>
      <trkpt lat="42.48877" lon="2.57885">
        <ele>828</ele>
        <time>2024-09-19T13:10:35Z</time>
      </trkpt>
      <trkpt lat="42.48875" lon="2.57888">
        <ele>826</ele>
        <time>2024-09-19T13:10:38Z</time>
      </trkpt>
      <trkpt lat="42.48872" lon="2.57889">
        <ele>825</ele>
        <time>2024-09-19T13:10:41Z</time>
      </trkpt>
      <trkpt lat="42.4887" lon="2.57892">
        <ele>825</ele>
        <time>2024-09-19T13:10:44Z</time>
      </trkpt>
      <trkpt lat="42.48867" lon="2.57894">
        <ele>824</ele>
        <time>2024-09-19T13:10:49Z</time>
      </trkpt>
      <trkpt lat="42.48864" lon="2.57897">
        <ele>824</ele>
        <time>2024-09-19T13:10:51Z</time>
      </trkpt>
      <trkpt lat="42.48862" lon="2.579">
        <ele>822</ele>
        <time>2024-09-19T13:10:54Z</time>
      </trkpt>
      <trkpt lat="42.4886" lon="2.57903">
        <ele>823</ele>
        <time>2024-09-19T13:10:55Z</time>
      </trkpt>
      <trkpt lat="42.48858" lon="2.57907">
        <ele>822</ele>
        <time>2024-09-19T13:10:57Z</time>
      </trkpt>
      <trkpt lat="42.48855" lon="2.57909">
        <ele>819</ele>
        <time>2024-09-19T13:11:03Z</time>
      </trkpt>
      <trkpt lat="42.48852" lon="2.57912">
        <ele>819</ele>
        <time>2024-09-19T13:11:05Z</time>
      </trkpt>
      <trkpt lat="42.4885" lon="2.57915">
        <ele>818</ele>
        <time>2024-09-19T13:11:08Z</time>
      </trkpt>
      <trkpt lat="42.48849" lon="2.57919">
        <ele>818</ele>
        <time>2024-09-19T13:11:11Z</time>
      </trkpt>
      <trkpt lat="42.48847" lon="2.57922">
        <ele>816</ele>
        <time>2024-09-19T13:11:15Z</time>
      </trkpt>
      <trkpt lat="42.48845" lon="2.57925">
        <ele>815</ele>
        <time>2024-09-19T13:11:19Z</time>
      </trkpt>
      <trkpt lat="42.48843" lon="2.57928">
        <ele>815</ele>
        <time>2024-09-19T13:11:22Z</time>
      </trkpt>
      <trkpt lat="42.48841" lon="2.57932">
        <ele>813</ele>
        <time>2024-09-19T13:11:27Z</time>
      </trkpt>
      <trkpt lat="42.48842" lon="2.57934">
        <ele>811</ele>
        <time>2024-09-19T13:11:30Z</time>
      </trkpt>
      <trkpt lat="42.48844" lon="2.57937">
        <ele>811</ele>
        <time>2024-09-19T13:11:32Z</time>
      </trkpt>
      <trkpt lat="42.48844" lon="2.5794">
        <ele>810</ele>
        <time>2024-09-19T13:11:34Z</time>
      </trkpt>
      <trkpt lat="42.48842" lon="2.57941">
        <ele>808</ele>
        <time>2024-09-19T13:11:38Z</time>
      </trkpt>
      <trkpt lat="42.48839" lon="2.57941">
        <ele>808</ele>
        <time>2024-09-19T13:11:41Z</time>
      </trkpt>
      <trkpt lat="42.48837" lon="2.57943">
        <ele>808</ele>
        <time>2024-09-19T13:11:43Z</time>
      </trkpt>
      <trkpt lat="42.48835" lon="2.57947">
        <ele>808</ele>
        <time>2024-09-19T13:11:45Z</time>
      </trkpt>
      <trkpt lat="42.48833" lon="2.5795">
        <ele>809</ele>
        <time>2024-09-19T13:11:48Z</time>
      </trkpt>
      <trkpt lat="42.48834" lon="2.57953">
        <ele>808</ele>
        <time>2024-09-19T13:11:53Z</time>
      </trkpt>
      <trkpt lat="42.48832" lon="2.57955">
        <ele>808</ele>
        <time>2024-09-19T13:12:15Z</time>
      </trkpt>
      <trkpt lat="42.4883" lon="2.57955">
        <ele>808</ele>
        <time>2024-09-19T13:12:17Z</time>
      </trkpt>
      <trkpt lat="42.48827" lon="2.57955">
        <ele>808</ele>
        <time>2024-09-19T13:12:19Z</time>
      </trkpt>
      <trkpt lat="42.48824" lon="2.57953">
        <ele>808</ele>
        <time>2024-09-19T13:12:22Z</time>
      </trkpt>
      <trkpt lat="42.48821" lon="2.57953">
        <ele>809</ele>
        <time>2024-09-19T13:12:24Z</time>
      </trkpt>
      <trkpt lat="42.48817" lon="2.57952">
        <ele>810</ele>
        <time>2024-09-19T13:12:29Z</time>
      </trkpt>
      <trkpt lat="42.48814" lon="2.57952">
        <ele>810</ele>
        <time>2024-09-19T13:12:32Z</time>
      </trkpt>
      <trkpt lat="42.48809" lon="2.57952">
        <ele>810</ele>
        <time>2024-09-19T13:12:35Z</time>
      </trkpt>
      <trkpt lat="42.48807" lon="2.5795">
        <ele>808</ele>
        <time>2024-09-19T13:12:39Z</time>
      </trkpt>
      <trkpt lat="42.48803" lon="2.57948">
        <ele>808</ele>
        <time>2024-09-19T13:12:42Z</time>
      </trkpt>
      <trkpt lat="42.488" lon="2.57947">
        <ele>808</ele>
        <time>2024-09-19T13:12:45Z</time>
      </trkpt>
      <trkpt lat="42.48796" lon="2.57946">
        <ele>809</ele>
        <time>2024-09-19T13:12:48Z</time>
      </trkpt>
      <trkpt lat="42.48793" lon="2.57944">
        <ele>808</ele>
        <time>2024-09-19T13:12:51Z</time>
      </trkpt>
      <trkpt lat="42.4879" lon="2.57943">
        <ele>809</ele>
        <time>2024-09-19T13:12:53Z</time>
      </trkpt>
      <trkpt lat="42.48787" lon="2.57942">
        <ele>809</ele>
        <time>2024-09-19T13:12:56Z</time>
      </trkpt>
      <trkpt lat="42.48784" lon="2.5794">
        <ele>809</ele>
        <time>2024-09-19T13:13:00Z</time>
      </trkpt>
      <trkpt lat="42.48781" lon="2.5794">
        <ele>810</ele>
        <time>2024-09-19T13:13:03Z</time>
      </trkpt>
      <trkpt lat="42.48777" lon="2.5794">
        <ele>810</ele>
        <time>2024-09-19T13:13:06Z</time>
      </trkpt>
      <trkpt lat="42.48775" lon="2.57938">
        <ele>811</ele>
        <time>2024-09-19T13:13:08Z</time>
      </trkpt>
      <trkpt lat="42.48772" lon="2.57935">
        <ele>811</ele>
        <time>2024-09-19T13:13:11Z</time>
      </trkpt>
      <trkpt lat="42.4877" lon="2.57933">
        <ele>810</ele>
        <time>2024-09-19T13:13:14Z</time>
      </trkpt>
      <trkpt lat="42.48767" lon="2.57929">
        <ele>811</ele>
        <time>2024-09-19T13:13:16Z</time>
      </trkpt>
      <trkpt lat="42.48763" lon="2.57928">
        <ele>811</ele>
        <time>2024-09-19T13:13:19Z</time>
      </trkpt>
      <trkpt lat="42.4876" lon="2.57926">
        <ele>812</ele>
        <time>2024-09-19T13:13:21Z</time>
      </trkpt>
      <trkpt lat="42.48757" lon="2.57925">
        <ele>812</ele>
        <time>2024-09-19T13:13:23Z</time>
      </trkpt>
      <trkpt lat="42.48754" lon="2.57924">
        <ele>812</ele>
        <time>2024-09-19T13:13:27Z</time>
      </trkpt>
      <trkpt lat="42.48751" lon="2.57922">
        <ele>812</ele>
        <time>2024-09-19T13:13:29Z</time>
      </trkpt>
      <trkpt lat="42.48749" lon="2.5792">
        <ele>812</ele>
        <time>2024-09-19T13:13:31Z</time>
      </trkpt>
      <trkpt lat="42.48746" lon="2.57919">
        <ele>811</ele>
        <time>2024-09-19T13:13:34Z</time>
      </trkpt>
      <trkpt lat="42.48743" lon="2.57916">
        <ele>811</ele>
        <time>2024-09-19T13:13:36Z</time>
      </trkpt>
      <trkpt lat="42.48742" lon="2.57913">
        <ele>811</ele>
        <time>2024-09-19T13:13:38Z</time>
      </trkpt>
      <trkpt lat="42.4874" lon="2.5791">
        <ele>811</ele>
        <time>2024-09-19T13:13:40Z</time>
      </trkpt>
      <trkpt lat="42.48738" lon="2.57906">
        <ele>810</ele>
        <time>2024-09-19T13:13:42Z</time>
      </trkpt>
      <trkpt lat="42.48737" lon="2.57902">
        <ele>812</ele>
        <time>2024-09-19T13:13:44Z</time>
      </trkpt>
      <trkpt lat="42.48735" lon="2.57898">
        <ele>809</ele>
        <time>2024-09-19T13:13:47Z</time>
      </trkpt>
      <trkpt lat="42.48734" lon="2.57894">
        <ele>807</ele>
        <time>2024-09-19T13:13:51Z</time>
      </trkpt>
      <trkpt lat="42.48733" lon="2.5789">
        <ele>805</ele>
        <time>2024-09-19T13:13:54Z</time>
      </trkpt>
      <trkpt lat="42.48731" lon="2.57886">
        <ele>804</ele>
        <time>2024-09-19T13:13:56Z</time>
      </trkpt>
      <trkpt lat="42.4873" lon="2.57883">
        <ele>805</ele>
        <time>2024-09-19T13:13:58Z</time>
      </trkpt>
      <trkpt lat="42.48728" lon="2.5788">
        <ele>805</ele>
        <time>2024-09-19T13:14:00Z</time>
      </trkpt>
      <trkpt lat="42.48726" lon="2.57877">
        <ele>805</ele>
        <time>2024-09-19T13:14:02Z</time>
      </trkpt>
      <trkpt lat="42.48723" lon="2.57875">
        <ele>804</ele>
        <time>2024-09-19T13:14:05Z</time>
      </trkpt>
      <trkpt lat="42.48721" lon="2.57872">
        <ele>804</ele>
        <time>2024-09-19T13:14:07Z</time>
      </trkpt>
      <trkpt lat="42.48718" lon="2.57869">
        <ele>804</ele>
        <time>2024-09-19T13:14:10Z</time>
      </trkpt>
      <trkpt lat="42.48716" lon="2.57865">
        <ele>803</ele>
        <time>2024-09-19T13:14:13Z</time>
      </trkpt>
      <trkpt lat="42.48714" lon="2.57862">
        <ele>804</ele>
        <time>2024-09-19T13:14:15Z</time>
      </trkpt>
      <trkpt lat="42.48712" lon="2.57858">
        <ele>804</ele>
        <time>2024-09-19T13:14:18Z</time>
      </trkpt>
      <trkpt lat="42.48711" lon="2.57855">
        <ele>804</ele>
        <time>2024-09-19T13:14:21Z</time>
      </trkpt>
      <trkpt lat="42.4871" lon="2.5785">
        <ele>801</ele>
        <time>2024-09-19T13:14:24Z</time>
      </trkpt>
      <trkpt lat="42.4871" lon="2.57846">
        <ele>800</ele>
        <time>2024-09-19T13:14:26Z</time>
      </trkpt>
      <trkpt lat="42.4871" lon="2.57842">
        <ele>799</ele>
        <time>2024-09-19T13:14:29Z</time>
      </trkpt>
      <trkpt lat="42.48709" lon="2.57837">
        <ele>799</ele>
        <time>2024-09-19T13:14:33Z</time>
      </trkpt>
      <trkpt lat="42.48707" lon="2.57833">
        <ele>799</ele>
        <time>2024-09-19T13:14:35Z</time>
      </trkpt>
      <trkpt lat="42.48704" lon="2.5783">
        <ele>798</ele>
        <time>2024-09-19T13:14:37Z</time>
      </trkpt>
      <trkpt lat="42.48703" lon="2.57825">
        <ele>797</ele>
        <time>2024-09-19T13:14:39Z</time>
      </trkpt>
      <trkpt lat="42.48701" lon="2.57821">
        <ele>798</ele>
        <time>2024-09-19T13:14:41Z</time>
      </trkpt>
      <trkpt lat="42.48698" lon="2.57818">
        <ele>799</ele>
        <time>2024-09-19T13:14:43Z</time>
      </trkpt>
      <trkpt lat="42.48696" lon="2.57815">
        <ele>798</ele>
        <time>2024-09-19T13:14:45Z</time>
      </trkpt>
      <trkpt lat="42.48693" lon="2.57812">
        <ele>797</ele>
        <time>2024-09-19T13:14:47Z</time>
      </trkpt>
      <trkpt lat="42.48691" lon="2.5781">
        <ele>797</ele>
        <time>2024-09-19T13:14:49Z</time>
      </trkpt>
      <trkpt lat="42.48689" lon="2.57806">
        <ele>796</ele>
        <time>2024-09-19T13:14:53Z</time>
      </trkpt>
      <trkpt lat="42.48687" lon="2.57802">
        <ele>796</ele>
        <time>2024-09-19T13:14:56Z</time>
      </trkpt>
      <trkpt lat="42.48685" lon="2.57799">
        <ele>795</ele>
        <time>2024-09-19T13:14:59Z</time>
      </trkpt>
      <trkpt lat="42.48683" lon="2.57797">
        <ele>795</ele>
        <time>2024-09-19T13:15:01Z</time>
      </trkpt>
      <trkpt lat="42.4868" lon="2.57794">
        <ele>795</ele>
        <time>2024-09-19T13:15:03Z</time>
      </trkpt>
      <trkpt lat="42.48677" lon="2.57792">
        <ele>795</ele>
        <time>2024-09-19T13:15:05Z</time>
      </trkpt>
      <trkpt lat="42.48674" lon="2.57791">
        <ele>795</ele>
        <time>2024-09-19T13:15:07Z</time>
      </trkpt>
      <trkpt lat="42.48671" lon="2.5779">
        <ele>795</ele>
        <time>2024-09-19T13:15:09Z</time>
      </trkpt>
      <trkpt lat="42.48668" lon="2.57789">
        <ele>794</ele>
        <time>2024-09-19T13:15:10Z</time>
      </trkpt>
      <trkpt lat="42.48664" lon="2.57789">
        <ele>794</ele>
        <time>2024-09-19T13:15:12Z</time>
      </trkpt>
      <trkpt lat="42.48661" lon="2.57789">
        <ele>795</ele>
        <time>2024-09-19T13:15:14Z</time>
      </trkpt>
      <trkpt lat="42.48658" lon="2.5779">
        <ele>797</ele>
        <time>2024-09-19T13:15:17Z</time>
      </trkpt>
      <trkpt lat="42.48655" lon="2.57791">
        <ele>796</ele>
        <time>2024-09-19T13:15:19Z</time>
      </trkpt>
      <trkpt lat="42.48652" lon="2.57791">
        <ele>796</ele>
        <time>2024-09-19T13:15:22Z</time>
      </trkpt>
      <trkpt lat="42.48648" lon="2.57792">
        <ele>797</ele>
        <time>2024-09-19T13:15:25Z</time>
      </trkpt>
      <trkpt lat="42.48644" lon="2.57792">
        <ele>797</ele>
        <time>2024-09-19T13:15:28Z</time>
      </trkpt>
      <trkpt lat="42.48641" lon="2.57793">
        <ele>799</ele>
        <time>2024-09-19T13:15:31Z</time>
      </trkpt>
      <trkpt lat="42.48638" lon="2.57793">
        <ele>800</ele>
        <time>2024-09-19T13:15:34Z</time>
      </trkpt>
      <trkpt lat="42.48635" lon="2.57793">
        <ele>800</ele>
        <time>2024-09-19T13:15:36Z</time>
      </trkpt>
      <trkpt lat="42.48632" lon="2.57792">
        <ele>802</ele>
        <time>2024-09-19T13:15:38Z</time>
      </trkpt>
      <trkpt lat="42.48629" lon="2.57792">
        <ele>802</ele>
        <time>2024-09-19T13:15:41Z</time>
      </trkpt>
      <trkpt lat="42.48626" lon="2.57789">
        <ele>802</ele>
        <time>2024-09-19T13:15:43Z</time>
      </trkpt>
      <trkpt lat="42.48624" lon="2.57786">
        <ele>803</ele>
        <time>2024-09-19T13:15:46Z</time>
      </trkpt>
      <trkpt lat="42.48621" lon="2.57785">
        <ele>804</ele>
        <time>2024-09-19T13:15:49Z</time>
      </trkpt>
      <trkpt lat="42.48618" lon="2.57784">
        <ele>804</ele>
        <time>2024-09-19T13:15:51Z</time>
      </trkpt>
      <trkpt lat="42.48615" lon="2.57782">
        <ele>806</ele>
        <time>2024-09-19T13:15:53Z</time>
      </trkpt>
      <trkpt lat="42.48613" lon="2.57779">
        <ele>806</ele>
        <time>2024-09-19T13:15:57Z</time>
      </trkpt>
      <trkpt lat="42.4861" lon="2.57778">
        <ele>803</ele>
        <time>2024-09-19T13:15:58Z</time>
      </trkpt>
      <trkpt lat="42.48607" lon="2.57776">
        <ele>805</ele>
        <time>2024-09-19T13:16:00Z</time>
      </trkpt>
      <trkpt lat="42.48605" lon="2.57775">
        <ele>806</ele>
        <time>2024-09-19T13:16:02Z</time>
      </trkpt>
      <trkpt lat="42.486" lon="2.57773">
        <ele>806</ele>
        <time>2024-09-19T13:16:04Z</time>
      </trkpt>
      <trkpt lat="42.48597" lon="2.57771">
        <ele>806</ele>
        <time>2024-09-19T13:16:07Z</time>
      </trkpt>
      <trkpt lat="42.48594" lon="2.57768">
        <ele>802</ele>
        <time>2024-09-19T13:16:12Z</time>
      </trkpt>
      <trkpt lat="42.48592" lon="2.57764">
        <ele>802</ele>
        <time>2024-09-19T13:16:14Z</time>
      </trkpt>
      <trkpt lat="42.48591" lon="2.57761">
        <ele>801</ele>
        <time>2024-09-19T13:16:18Z</time>
      </trkpt>
      <trkpt lat="42.48589" lon="2.57759">
        <ele>800</ele>
        <time>2024-09-19T13:16:20Z</time>
      </trkpt>
      <trkpt lat="42.48586" lon="2.57756">
        <ele>801</ele>
        <time>2024-09-19T13:16:23Z</time>
      </trkpt>
      <trkpt lat="42.48584" lon="2.57754">
        <ele>801</ele>
        <time>2024-09-19T13:16:25Z</time>
      </trkpt>
      <trkpt lat="42.4858" lon="2.57752">
        <ele>801</ele>
        <time>2024-09-19T13:16:28Z</time>
      </trkpt>
      <trkpt lat="42.48577" lon="2.57751">
        <ele>801</ele>
        <time>2024-09-19T13:16:30Z</time>
      </trkpt>
      <trkpt lat="42.48573" lon="2.57751">
        <ele>802</ele>
        <time>2024-09-19T13:16:34Z</time>
      </trkpt>
      <trkpt lat="42.48569" lon="2.57752">
        <ele>801</ele>
        <time>2024-09-19T13:16:38Z</time>
      </trkpt>
      <trkpt lat="42.48566" lon="2.57751">
        <ele>803</ele>
        <time>2024-09-19T13:16:43Z</time>
      </trkpt>
      <trkpt lat="42.48563" lon="2.57753">
        <ele>804</ele>
        <time>2024-09-19T13:16:46Z</time>
      </trkpt>
      <trkpt lat="42.4856" lon="2.57756">
        <ele>805</ele>
        <time>2024-09-19T13:16:49Z</time>
      </trkpt>
      <trkpt lat="42.48556" lon="2.57756">
        <ele>805</ele>
        <time>2024-09-19T13:16:52Z</time>
      </trkpt>
      <trkpt lat="42.48553" lon="2.57756">
        <ele>806</ele>
        <time>2024-09-19T13:16:55Z</time>
      </trkpt>
      <trkpt lat="42.4855" lon="2.57755">
        <ele>807</ele>
        <time>2024-09-19T13:16:59Z</time>
      </trkpt>
      <trkpt lat="42.48547" lon="2.57754">
        <ele>808</ele>
        <time>2024-09-19T13:17:02Z</time>
      </trkpt>
      <trkpt lat="42.48544" lon="2.57753">
        <ele>808</ele>
        <time>2024-09-19T13:17:04Z</time>
      </trkpt>
      <trkpt lat="42.48541" lon="2.57753">
        <ele>807</ele>
        <time>2024-09-19T13:17:06Z</time>
      </trkpt>
      <trkpt lat="42.48538" lon="2.57751">
        <ele>807</ele>
        <time>2024-09-19T13:17:08Z</time>
      </trkpt>
      <trkpt lat="42.48534" lon="2.57749">
        <ele>806</ele>
        <time>2024-09-19T13:17:11Z</time>
      </trkpt>
      <trkpt lat="42.48531" lon="2.57746">
        <ele>806</ele>
        <time>2024-09-19T13:17:14Z</time>
      </trkpt>
      <trkpt lat="42.48528" lon="2.57743">
        <ele>804</ele>
        <time>2024-09-19T13:17:16Z</time>
      </trkpt>
      <trkpt lat="42.48525" lon="2.57739">
        <ele>804</ele>
        <time>2024-09-19T13:17:19Z</time>
      </trkpt>
      <trkpt lat="42.48522" lon="2.57738">
        <ele>803</ele>
        <time>2024-09-19T13:17:23Z</time>
      </trkpt>
      <trkpt lat="42.48518" lon="2.57736">
        <ele>802</ele>
        <time>2024-09-19T13:17:26Z</time>
      </trkpt>
      <trkpt lat="42.48515" lon="2.57734">
        <ele>801</ele>
        <time>2024-09-19T13:17:28Z</time>
      </trkpt>
      <trkpt lat="42.48511" lon="2.57734">
        <ele>801</ele>
        <time>2024-09-19T13:17:30Z</time>
      </trkpt>
      <trkpt lat="42.48508" lon="2.57735">
        <ele>802</ele>
        <time>2024-09-19T13:17:32Z</time>
      </trkpt>
      <trkpt lat="42.48505" lon="2.57736">
        <ele>801</ele>
        <time>2024-09-19T13:17:34Z</time>
      </trkpt>
      <trkpt lat="42.48502" lon="2.57738">
        <ele>801</ele>
        <time>2024-09-19T13:17:37Z</time>
      </trkpt>
      <trkpt lat="42.48499" lon="2.57738">
        <ele>802</ele>
        <time>2024-09-19T13:17:39Z</time>
      </trkpt>
      <trkpt lat="42.48496" lon="2.57739">
        <ele>802</ele>
        <time>2024-09-19T13:17:41Z</time>
      </trkpt>
      <trkpt lat="42.48492" lon="2.57741">
        <ele>800</ele>
        <time>2024-09-19T13:17:44Z</time>
      </trkpt>
      <trkpt lat="42.48488" lon="2.57741">
        <ele>800</ele>
        <time>2024-09-19T13:17:47Z</time>
      </trkpt>
      <trkpt lat="42.48485" lon="2.57742">
        <ele>801</ele>
        <time>2024-09-19T13:17:49Z</time>
      </trkpt>
      <trkpt lat="42.48482" lon="2.57742">
        <ele>801</ele>
        <time>2024-09-19T13:17:52Z</time>
      </trkpt>
      <trkpt lat="42.48478" lon="2.57744">
        <ele>802</ele>
        <time>2024-09-19T13:17:55Z</time>
      </trkpt>
      <trkpt lat="42.48475" lon="2.57745">
        <ele>801</ele>
        <time>2024-09-19T13:17:57Z</time>
      </trkpt>
      <trkpt lat="42.48471" lon="2.57747">
        <ele>801</ele>
        <time>2024-09-19T13:18:01Z</time>
      </trkpt>
      <trkpt lat="42.48468" lon="2.57748">
        <ele>800</ele>
        <time>2024-09-19T13:18:04Z</time>
      </trkpt>
      <trkpt lat="42.48465" lon="2.57748">
        <ele>800</ele>
        <time>2024-09-19T13:18:06Z</time>
      </trkpt>
      <trkpt lat="42.48462" lon="2.57748">
        <ele>800</ele>
        <time>2024-09-19T13:18:08Z</time>
      </trkpt>
      <trkpt lat="42.48458" lon="2.57749">
        <ele>799</ele>
        <time>2024-09-19T13:18:10Z</time>
      </trkpt>
      <trkpt lat="42.48455" lon="2.57749">
        <ele>798</ele>
        <time>2024-09-19T13:18:14Z</time>
      </trkpt>
      <trkpt lat="42.48452" lon="2.57749">
        <ele>797</ele>
        <time>2024-09-19T13:18:17Z</time>
      </trkpt>
      <trkpt lat="42.48449" lon="2.57749">
        <ele>798</ele>
        <time>2024-09-19T13:18:19Z</time>
      </trkpt>
      <trkpt lat="42.48445" lon="2.5775">
        <ele>798</ele>
        <time>2024-09-19T13:18:22Z</time>
      </trkpt>
      <trkpt lat="42.48442" lon="2.57751">
        <ele>798</ele>
        <time>2024-09-19T13:18:24Z</time>
      </trkpt>
      <trkpt lat="42.48438" lon="2.57753">
        <ele>798</ele>
        <time>2024-09-19T13:18:27Z</time>
      </trkpt>
      <trkpt lat="42.48435" lon="2.57754">
        <ele>795</ele>
        <time>2024-09-19T13:18:29Z</time>
      </trkpt>
      <trkpt lat="42.48431" lon="2.57755">
        <ele>796</ele>
        <time>2024-09-19T13:18:38Z</time>
      </trkpt>
      <trkpt lat="42.48427" lon="2.57757">
        <ele>796</ele>
        <time>2024-09-19T13:18:40Z</time>
      </trkpt>
      <trkpt lat="42.48424" lon="2.57759">
        <ele>796</ele>
        <time>2024-09-19T13:18:44Z</time>
      </trkpt>
      <trkpt lat="42.48421" lon="2.57761">
        <ele>797</ele>
        <time>2024-09-19T13:18:46Z</time>
      </trkpt>
      <trkpt lat="42.48419" lon="2.57763">
        <ele>796</ele>
        <time>2024-09-19T13:18:48Z</time>
      </trkpt>
      <trkpt lat="42.48415" lon="2.57765">
        <ele>797</ele>
        <time>2024-09-19T13:18:51Z</time>
      </trkpt>
      <trkpt lat="42.48412" lon="2.57766">
        <ele>798</ele>
        <time>2024-09-19T13:18:53Z</time>
      </trkpt>
      <trkpt lat="42.48409" lon="2.57767">
        <ele>797</ele>
        <time>2024-09-19T13:18:55Z</time>
      </trkpt>
      <trkpt lat="42.48406" lon="2.57768">
        <ele>797</ele>
        <time>2024-09-19T13:18:57Z</time>
      </trkpt>
      <trkpt lat="42.48403" lon="2.57769">
        <ele>798</ele>
        <time>2024-09-19T13:18:59Z</time>
      </trkpt>
      <trkpt lat="42.484" lon="2.57769">
        <ele>797</ele>
        <time>2024-09-19T13:19:01Z</time>
      </trkpt>
      <trkpt lat="42.48397" lon="2.57769">
        <ele>797</ele>
        <time>2024-09-19T13:19:04Z</time>
      </trkpt>
      <trkpt lat="42.48393" lon="2.57769">
        <ele>796</ele>
        <time>2024-09-19T13:19:06Z</time>
      </trkpt>
      <trkpt lat="42.4839" lon="2.5777">
        <ele>796</ele>
        <time>2024-09-19T13:19:08Z</time>
      </trkpt>
      <trkpt lat="42.48388" lon="2.57771">
        <ele>796</ele>
        <time>2024-09-19T13:19:10Z</time>
      </trkpt>
      <trkpt lat="42.48384" lon="2.5777">
        <ele>796</ele>
        <time>2024-09-19T13:19:13Z</time>
      </trkpt>
      <trkpt lat="42.48381" lon="2.57768">
        <ele>795</ele>
        <time>2024-09-19T13:19:16Z</time>
      </trkpt>
      <trkpt lat="42.48378" lon="2.57767">
        <ele>796</ele>
        <time>2024-09-19T13:19:17Z</time>
      </trkpt>
      <trkpt lat="42.48375" lon="2.57766">
        <ele>796</ele>
        <time>2024-09-19T13:19:20Z</time>
      </trkpt>
      <trkpt lat="42.48371" lon="2.57766">
        <ele>797</ele>
        <time>2024-09-19T13:19:24Z</time>
      </trkpt>
      <trkpt lat="42.48367" lon="2.57765">
        <ele>797</ele>
        <time>2024-09-19T13:19:26Z</time>
      </trkpt>
      <trkpt lat="42.48364" lon="2.57765">
        <ele>796</ele>
        <time>2024-09-19T13:19:28Z</time>
      </trkpt>
      <trkpt lat="42.48361" lon="2.57765">
        <ele>797</ele>
        <time>2024-09-19T13:19:31Z</time>
      </trkpt>
      <trkpt lat="42.48358" lon="2.57766">
        <ele>797</ele>
        <time>2024-09-19T13:19:34Z</time>
      </trkpt>
      <trkpt lat="42.48354" lon="2.57767">
        <ele>798</ele>
        <time>2024-09-19T13:19:37Z</time>
      </trkpt>
      <trkpt lat="42.48351" lon="2.57767">
        <ele>798</ele>
        <time>2024-09-19T13:19:39Z</time>
      </trkpt>
      <trkpt lat="42.48348" lon="2.57769">
        <ele>797</ele>
        <time>2024-09-19T13:19:41Z</time>
      </trkpt>
      <trkpt lat="42.48345" lon="2.5777">
        <ele>797</ele>
        <time>2024-09-19T13:19:43Z</time>
      </trkpt>
      <trkpt lat="42.48343" lon="2.57772">
        <ele>797</ele>
        <time>2024-09-19T13:19:45Z</time>
      </trkpt>
      <trkpt lat="42.48339" lon="2.57773">
        <ele>798</ele>
        <time>2024-09-19T13:19:47Z</time>
      </trkpt>
      <trkpt lat="42.48336" lon="2.57774">
        <ele>798</ele>
        <time>2024-09-19T13:19:50Z</time>
      </trkpt>
      <trkpt lat="42.48333" lon="2.57775">
        <ele>797</ele>
        <time>2024-09-19T13:19:53Z</time>
      </trkpt>
      <trkpt lat="42.48329" lon="2.57776">
        <ele>798</ele>
        <time>2024-09-19T13:19:55Z</time>
      </trkpt>
      <trkpt lat="42.48326" lon="2.57775">
        <ele>798</ele>
        <time>2024-09-19T13:19:58Z</time>
      </trkpt>
      <trkpt lat="42.48322" lon="2.57775">
        <ele>799</ele>
        <time>2024-09-19T13:20:01Z</time>
      </trkpt>
      <trkpt lat="42.48319" lon="2.57774">
        <ele>800</ele>
        <time>2024-09-19T13:20:06Z</time>
      </trkpt>
      <trkpt lat="42.48316" lon="2.57773">
        <ele>800</ele>
        <time>2024-09-19T13:20:10Z</time>
      </trkpt>
      <trkpt lat="42.48314" lon="2.57772">
        <ele>801</ele>
        <time>2024-09-19T13:20:12Z</time>
      </trkpt>
      <trkpt lat="42.48311" lon="2.57772">
        <ele>801</ele>
        <time>2024-09-19T13:20:14Z</time>
      </trkpt>
      <trkpt lat="42.48308" lon="2.57771">
        <ele>802</ele>
        <time>2024-09-19T13:20:17Z</time>
      </trkpt>
      <trkpt lat="42.48305" lon="2.57772">
        <ele>803</ele>
        <time>2024-09-19T13:20:19Z</time>
      </trkpt>
      <trkpt lat="42.48301" lon="2.57771">
        <ele>803</ele>
        <time>2024-09-19T13:20:22Z</time>
      </trkpt>
      <trkpt lat="42.48297" lon="2.5777">
        <ele>803</ele>
        <time>2024-09-19T13:20:24Z</time>
      </trkpt>
      <trkpt lat="42.48294" lon="2.5777">
        <ele>802</ele>
        <time>2024-09-19T13:20:27Z</time>
      </trkpt>
      <trkpt lat="42.48291" lon="2.5777">
        <ele>803</ele>
        <time>2024-09-19T13:20:30Z</time>
      </trkpt>
      <trkpt lat="42.48288" lon="2.5777">
        <ele>802</ele>
        <time>2024-09-19T13:20:32Z</time>
      </trkpt>
      <trkpt lat="42.48285" lon="2.57771">
        <ele>803</ele>
        <time>2024-09-19T13:20:34Z</time>
      </trkpt>
      <trkpt lat="42.48281" lon="2.57772">
        <ele>802</ele>
        <time>2024-09-19T13:20:37Z</time>
      </trkpt>
      <trkpt lat="42.48277" lon="2.57773">
        <ele>802</ele>
        <time>2024-09-19T13:20:39Z</time>
      </trkpt>
      <trkpt lat="42.48274" lon="2.57775">
        <ele>802</ele>
        <time>2024-09-19T13:20:43Z</time>
      </trkpt>
      <trkpt lat="42.48273" lon="2.57778">
        <ele>803</ele>
        <time>2024-09-19T13:20:46Z</time>
      </trkpt>
      <trkpt lat="42.48272" lon="2.57781">
        <ele>802</ele>
        <time>2024-09-19T13:20:50Z</time>
      </trkpt>
      <trkpt lat="42.48269" lon="2.57783">
        <ele>802</ele>
        <time>2024-09-19T13:20:53Z</time>
      </trkpt>
      <trkpt lat="42.48267" lon="2.57784">
        <ele>803</ele>
        <time>2024-09-19T13:20:55Z</time>
      </trkpt>
      <trkpt lat="42.48264" lon="2.57785">
        <ele>803</ele>
        <time>2024-09-19T13:20:57Z</time>
      </trkpt>
      <trkpt lat="42.48261" lon="2.57786">
        <ele>802</ele>
        <time>2024-09-19T13:20:59Z</time>
      </trkpt>
      <trkpt lat="42.48259" lon="2.57789">
        <ele>801</ele>
        <time>2024-09-19T13:21:01Z</time>
      </trkpt>
      <trkpt lat="42.48256" lon="2.57793">
        <ele>800</ele>
        <time>2024-09-19T13:21:04Z</time>
      </trkpt>
      <trkpt lat="42.48254" lon="2.57796">
        <ele>800</ele>
        <time>2024-09-19T13:21:05Z</time>
      </trkpt>
      <trkpt lat="42.48252" lon="2.578">
        <ele>799</ele>
        <time>2024-09-19T13:21:08Z</time>
      </trkpt>
      <trkpt lat="42.48251" lon="2.57804">
        <ele>796</ele>
        <time>2024-09-19T13:21:11Z</time>
      </trkpt>
      <trkpt lat="42.4825" lon="2.57808">
        <ele>796</ele>
        <time>2024-09-19T13:21:13Z</time>
      </trkpt>
      <trkpt lat="42.48249" lon="2.57811">
        <ele>796</ele>
        <time>2024-09-19T13:21:15Z</time>
      </trkpt>
      <trkpt lat="42.48247" lon="2.57815">
        <ele>796</ele>
        <time>2024-09-19T13:21:18Z</time>
      </trkpt>
      <trkpt lat="42.48247" lon="2.57819">
        <ele>795</ele>
        <time>2024-09-19T13:21:20Z</time>
      </trkpt>
      <trkpt lat="42.48247" lon="2.57823">
        <ele>795</ele>
        <time>2024-09-19T13:21:22Z</time>
      </trkpt>
      <trkpt lat="42.48248" lon="2.57827">
        <ele>794</ele>
        <time>2024-09-19T13:21:23Z</time>
      </trkpt>
      <trkpt lat="42.48248" lon="2.57832">
        <ele>794</ele>
        <time>2024-09-19T13:21:25Z</time>
      </trkpt>
      <trkpt lat="42.48248" lon="2.57837">
        <ele>794</ele>
        <time>2024-09-19T13:21:28Z</time>
      </trkpt>
      <trkpt lat="42.48249" lon="2.57843">
        <ele>794</ele>
        <time>2024-09-19T13:21:30Z</time>
      </trkpt>
      <trkpt lat="42.4825" lon="2.57847">
        <ele>796</ele>
        <time>2024-09-19T13:21:31Z</time>
      </trkpt>
      <trkpt lat="42.4825" lon="2.57852">
        <ele>796</ele>
        <time>2024-09-19T13:21:33Z</time>
      </trkpt>
      <trkpt lat="42.48249" lon="2.57856">
        <ele>797</ele>
        <time>2024-09-19T13:21:35Z</time>
      </trkpt>
      <trkpt lat="42.48249" lon="2.5786">
        <ele>796</ele>
        <time>2024-09-19T13:21:38Z</time>
      </trkpt>
      <trkpt lat="42.48249" lon="2.57864">
        <ele>796</ele>
        <time>2024-09-19T13:21:40Z</time>
      </trkpt>
      <trkpt lat="42.48251" lon="2.57866">
        <ele>796</ele>
        <time>2024-09-19T13:21:42Z</time>
      </trkpt>
      <trkpt lat="42.48251" lon="2.57871">
        <ele>796</ele>
        <time>2024-09-19T13:21:45Z</time>
      </trkpt>
      <trkpt lat="42.4825" lon="2.57874">
        <ele>795</ele>
        <time>2024-09-19T13:21:47Z</time>
      </trkpt>
      <trkpt lat="42.48248" lon="2.57878">
        <ele>794</ele>
        <time>2024-09-19T13:21:50Z</time>
      </trkpt>
      <trkpt lat="42.48246" lon="2.57881">
        <ele>792</ele>
        <time>2024-09-19T13:21:53Z</time>
      </trkpt>
      <trkpt lat="42.48244" lon="2.57884">
        <ele>792</ele>
        <time>2024-09-19T13:21:57Z</time>
      </trkpt>
      <trkpt lat="42.48242" lon="2.57887">
        <ele>792</ele>
        <time>2024-09-19T13:22:01Z</time>
      </trkpt>
      <trkpt lat="42.4824" lon="2.57888">
        <ele>791</ele>
        <time>2024-09-19T13:22:04Z</time>
      </trkpt>
      <trkpt lat="42.48238" lon="2.57892">
        <ele>792</ele>
        <time>2024-09-19T13:22:06Z</time>
      </trkpt>
      <trkpt lat="42.48235" lon="2.57892">
        <ele>792</ele>
        <time>2024-09-19T13:22:08Z</time>
      </trkpt>
      <trkpt lat="42.48232" lon="2.57893">
        <ele>792</ele>
        <time>2024-09-19T13:22:10Z</time>
      </trkpt>
      <trkpt lat="42.48228" lon="2.57893">
        <ele>791</ele>
        <time>2024-09-19T13:22:13Z</time>
      </trkpt>
      <trkpt lat="42.48225" lon="2.57893">
        <ele>792</ele>
        <time>2024-09-19T13:22:15Z</time>
      </trkpt>
      <trkpt lat="42.48221" lon="2.57896">
        <ele>793</ele>
        <time>2024-09-19T13:22:19Z</time>
      </trkpt>
      <trkpt lat="42.48217" lon="2.57897">
        <ele>792</ele>
        <time>2024-09-19T13:22:22Z</time>
      </trkpt>
      <trkpt lat="42.48213" lon="2.57896">
        <ele>792</ele>
        <time>2024-09-19T13:22:24Z</time>
      </trkpt>
      <trkpt lat="42.48209" lon="2.57896">
        <ele>792</ele>
        <time>2024-09-19T13:22:28Z</time>
      </trkpt>
      <trkpt lat="42.48206" lon="2.57898">
        <ele>792</ele>
        <time>2024-09-19T13:22:30Z</time>
      </trkpt>
      <trkpt lat="42.48203" lon="2.57899">
        <ele>792</ele>
        <time>2024-09-19T13:22:32Z</time>
      </trkpt>
      <trkpt lat="42.48199" lon="2.579">
        <ele>791</ele>
        <time>2024-09-19T13:22:35Z</time>
      </trkpt>
      <trkpt lat="42.48196" lon="2.579">
        <ele>791</ele>
        <time>2024-09-19T13:22:38Z</time>
      </trkpt>
      <trkpt lat="42.48193" lon="2.57901">
        <ele>790</ele>
        <time>2024-09-19T13:22:42Z</time>
      </trkpt>
      <trkpt lat="42.4819" lon="2.57901">
        <ele>790</ele>
        <time>2024-09-19T13:22:44Z</time>
      </trkpt>
      <trkpt lat="42.48187" lon="2.57901">
        <ele>789</ele>
        <time>2024-09-19T13:22:46Z</time>
      </trkpt>
      <trkpt lat="42.48184" lon="2.57898">
        <ele>787</ele>
        <time>2024-09-19T13:22:50Z</time>
      </trkpt>
      <trkpt lat="42.48181" lon="2.57896">
        <ele>788</ele>
        <time>2024-09-19T13:22:53Z</time>
      </trkpt>
      <trkpt lat="42.48178" lon="2.57893">
        <ele>787</ele>
        <time>2024-09-19T13:22:57Z</time>
      </trkpt>
      <trkpt lat="42.48176" lon="2.57889">
        <ele>789</ele>
        <time>2024-09-19T13:22:59Z</time>
      </trkpt>
      <trkpt lat="42.48174" lon="2.57884">
        <ele>790</ele>
        <time>2024-09-19T13:23:04Z</time>
      </trkpt>
      <trkpt lat="42.48171" lon="2.57882">
        <ele>790</ele>
        <time>2024-09-19T13:23:06Z</time>
      </trkpt>
      <trkpt lat="42.48168" lon="2.57879">
        <ele>790</ele>
        <time>2024-09-19T13:23:09Z</time>
      </trkpt>
      <trkpt lat="42.48165" lon="2.57877">
        <ele>789</ele>
        <time>2024-09-19T13:23:13Z</time>
      </trkpt>
      <trkpt lat="42.48162" lon="2.57876">
        <ele>789</ele>
        <time>2024-09-19T13:23:15Z</time>
      </trkpt>
      <trkpt lat="42.48159" lon="2.57875">
        <ele>788</ele>
        <time>2024-09-19T13:23:17Z</time>
      </trkpt>
      <trkpt lat="42.48156" lon="2.57873">
        <ele>789</ele>
        <time>2024-09-19T13:23:20Z</time>
      </trkpt>
      <trkpt lat="42.48153" lon="2.57872">
        <ele>788</ele>
        <time>2024-09-19T13:23:23Z</time>
      </trkpt>
      <trkpt lat="42.4815" lon="2.57872">
        <ele>788</ele>
        <time>2024-09-19T13:23:25Z</time>
      </trkpt>
      <trkpt lat="42.48147" lon="2.57872">
        <ele>787</ele>
        <time>2024-09-19T13:23:27Z</time>
      </trkpt>
      <trkpt lat="42.48143" lon="2.57873">
        <ele>787</ele>
        <time>2024-09-19T13:23:28Z</time>
      </trkpt>
      <trkpt lat="42.4814" lon="2.57872">
        <ele>787</ele>
        <time>2024-09-19T13:23:30Z</time>
      </trkpt>
      <trkpt lat="42.48137" lon="2.57873">
        <ele>785</ele>
        <time>2024-09-19T13:23:33Z</time>
      </trkpt>
      <trkpt lat="42.48134" lon="2.57871">
        <ele>787</ele>
        <time>2024-09-19T13:23:36Z</time>
      </trkpt>
      <trkpt lat="42.48132" lon="2.57869">
        <ele>787</ele>
        <time>2024-09-19T13:23:38Z</time>
      </trkpt>
      <trkpt lat="42.48128" lon="2.5787">
        <ele>787</ele>
        <time>2024-09-19T13:23:41Z</time>
      </trkpt>
      <trkpt lat="42.48125" lon="2.5787">
        <ele>787</ele>
        <time>2024-09-19T13:23:43Z</time>
      </trkpt>
      <trkpt lat="42.48122" lon="2.57872">
        <ele>788</ele>
        <time>2024-09-19T13:23:45Z</time>
      </trkpt>
      <trkpt lat="42.48119" lon="2.57872">
        <ele>786</ele>
        <time>2024-09-19T13:23:48Z</time>
      </trkpt>
      <trkpt lat="42.48116" lon="2.57869">
        <ele>788</ele>
        <time>2024-09-19T13:23:51Z</time>
      </trkpt>
      <trkpt lat="42.48114" lon="2.57866">
        <ele>788</ele>
        <time>2024-09-19T13:23:53Z</time>
      </trkpt>
      <trkpt lat="42.48111" lon="2.57863">
        <ele>788</ele>
        <time>2024-09-19T13:23:56Z</time>
      </trkpt>
      <trkpt lat="42.48108" lon="2.57861">
        <ele>788</ele>
        <time>2024-09-19T13:23:59Z</time>
      </trkpt>
      <trkpt lat="42.48106" lon="2.57858">
        <ele>783</ele>
        <time>2024-09-19T13:24:12Z</time>
      </trkpt>
      <trkpt lat="42.48104" lon="2.57855">
        <ele>782</ele>
        <time>2024-09-19T13:24:16Z</time>
      </trkpt>
      <trkpt lat="42.48102" lon="2.57852">
        <ele>782</ele>
        <time>2024-09-19T13:24:18Z</time>
      </trkpt>
      <trkpt lat="42.48099" lon="2.57849">
        <ele>781</ele>
        <time>2024-09-19T13:24:21Z</time>
      </trkpt>
      <trkpt lat="42.48097" lon="2.57847">
        <ele>781</ele>
        <time>2024-09-19T13:24:24Z</time>
      </trkpt>
      <trkpt lat="42.48094" lon="2.57845">
        <ele>782</ele>
        <time>2024-09-19T13:24:27Z</time>
      </trkpt>
      <trkpt lat="42.4809" lon="2.57843">
        <ele>782</ele>
        <time>2024-09-19T13:24:30Z</time>
      </trkpt>
      <trkpt lat="42.48088" lon="2.5784">
        <ele>783</ele>
        <time>2024-09-19T13:24:33Z</time>
      </trkpt>
      <trkpt lat="42.48085" lon="2.57839">
        <ele>783</ele>
        <time>2024-09-19T13:24:35Z</time>
      </trkpt>
      <trkpt lat="42.48082" lon="2.57838">
        <ele>783</ele>
        <time>2024-09-19T13:24:37Z</time>
      </trkpt>
      <trkpt lat="42.48079" lon="2.57836">
        <ele>783</ele>
        <time>2024-09-19T13:24:40Z</time>
      </trkpt>
      <trkpt lat="42.48076" lon="2.57836">
        <ele>783</ele>
        <time>2024-09-19T13:24:43Z</time>
      </trkpt>
      <trkpt lat="42.48072" lon="2.57835">
        <ele>783</ele>
        <time>2024-09-19T13:24:46Z</time>
      </trkpt>
      <trkpt lat="42.48069" lon="2.57833">
        <ele>783</ele>
        <time>2024-09-19T13:24:49Z</time>
      </trkpt>
      <trkpt lat="42.48066" lon="2.57833">
        <ele>783</ele>
        <time>2024-09-19T13:24:52Z</time>
      </trkpt>
      <trkpt lat="42.48063" lon="2.57833">
        <ele>783</ele>
        <time>2024-09-19T13:24:56Z</time>
      </trkpt>
      <trkpt lat="42.48059" lon="2.57832">
        <ele>784</ele>
        <time>2024-09-19T13:25:01Z</time>
      </trkpt>
      <trkpt lat="42.48056" lon="2.5783">
        <ele>784</ele>
        <time>2024-09-19T13:25:04Z</time>
      </trkpt>
      <trkpt lat="42.48053" lon="2.57827">
        <ele>781</ele>
        <time>2024-09-19T13:25:17Z</time>
      </trkpt>
      <trkpt lat="42.48052" lon="2.57824">
        <ele>779</ele>
        <time>2024-09-19T13:25:20Z</time>
      </trkpt>
      <trkpt lat="42.48051" lon="2.5782">
        <ele>780</ele>
        <time>2024-09-19T13:25:23Z</time>
      </trkpt>
      <trkpt lat="42.48052" lon="2.57821">
        <ele>777</ele>
        <time>2024-09-19T13:25:52Z</time>
      </trkpt>
      <trkpt lat="42.48051" lon="2.57819">
        <ele>775</ele>
        <time>2024-09-19T13:26:05Z</time>
      </trkpt>
      <trkpt lat="42.4805" lon="2.57816">
        <ele>776</ele>
        <time>2024-09-19T13:26:12Z</time>
      </trkpt>
      <trkpt lat="42.48048" lon="2.57814">
        <ele>776</ele>
        <time>2024-09-19T13:26:15Z</time>
      </trkpt>
      <trkpt lat="42.48046" lon="2.57811">
        <ele>777</ele>
        <time>2024-09-19T13:26:18Z</time>
      </trkpt>
      <trkpt lat="42.48044" lon="2.57813">
        <ele>779</ele>
        <time>2024-09-19T13:26:25Z</time>
      </trkpt>
      <trkpt lat="42.4804" lon="2.57799">
        <ele>771</ele>
        <time>2024-09-19T19:36:41Z</time>
      </trkpt>
      <trkpt lat="42.48038" lon="2.57799">
        <ele>772</ele>
        <time>2024-09-19T19:36:42Z</time>
      </trkpt>
      <trkpt lat="42.48035" lon="2.57798">
        <ele>773</ele>
        <time>2024-09-19T19:36:44Z</time>
      </trkpt>
      <trkpt lat="42.48034" lon="2.57796">
        <ele>774</ele>
        <time>2024-09-19T19:36:47Z</time>
      </trkpt>
      <trkpt lat="42.48035" lon="2.57797">
        <ele>775</ele>
        <time>2024-09-19T19:36:48Z</time>
      </trkpt>
      <trkpt lat="42.48033" lon="2.57799">
        <ele>777</ele>
        <time>2024-09-19T19:36:51Z</time>
      </trkpt>
      <trkpt lat="42.48033" lon="2.57801">
        <ele>772</ele>
        <time>2024-09-19T19:37:15Z</time>
      </trkpt>
      <trkpt lat="42.48035" lon="2.578">
        <ele>773</ele>
        <time>2024-09-19T19:37:17Z</time>
      </trkpt>
      <trkpt lat="42.48039" lon="2.57799">
        <ele>773</ele>
        <time>2024-09-19T19:37:18Z</time>
      </trkpt>
      <trkpt lat="42.48037" lon="2.57802">
        <ele>775</ele>
        <time>2024-09-19T19:37:24Z</time>
      </trkpt>
      <trkpt lat="42.48037" lon="2.578">
        <ele>774</ele>
        <time>2024-09-19T19:37:25Z</time>
      </trkpt>
      <trkpt lat="42.48035" lon="2.57802">
        <ele>774</ele>
        <time>2024-09-19T19:37:26Z</time>
      </trkpt>
      <trkpt lat="42.48036" lon="2.57799">
        <ele>774</ele>
        <time>2024-09-19T19:37:27Z</time>
      </trkpt>
      <trkpt lat="42.48034" lon="2.578">
        <ele>774</ele>
        <time>2024-09-19T19:37:29Z</time>
      </trkpt>
      <trkpt lat="42.48036" lon="2.57796">
        <ele>774</ele>
        <time>2024-09-19T19:37:30Z</time>
      </trkpt>
      <trkpt lat="42.48038" lon="2.57792">
        <ele>774</ele>
        <time>2024-09-19T19:37:31Z</time>
      </trkpt>
      <trkpt lat="42.48039" lon="2.57791">
        <ele>774</ele>
        <time>2024-09-19T19:37:32Z</time>
      </trkpt>
      <trkpt lat="42.48031" lon="2.57802">
        <ele>774</ele>
        <time>2024-09-19T19:37:35Z</time>
      </trkpt>
      <trkpt lat="42.48029" lon="2.57804">
        <ele>772</ele>
        <time>2024-09-19T19:37:38Z</time>
      </trkpt>
      <trkpt lat="42.48033" lon="2.57803">
        <ele>772</ele>
        <time>2024-09-19T19:37:39Z</time>
      </trkpt>
      <trkpt lat="42.48034" lon="2.57805">
        <ele>772</ele>
        <time>2024-09-19T19:37:40Z</time>
      </trkpt>
      <trkpt lat="42.48037" lon="2.57803">
        <ele>772</ele>
        <time>2024-09-19T19:37:41Z</time>
      </trkpt>
      <trkpt lat="42.48039" lon="2.57797">
        <ele>772</ele>
        <time>2024-09-19T19:37:43Z</time>
      </trkpt>
      <trkpt lat="42.48039" lon="2.57797">
        <ele>773</ele>
        <time>2024-09-19T19:37:45Z</time>
      </trkpt>
      <trkpt lat="42.48037" lon="2.57801">
        <ele>773</ele>
        <time>2024-09-19T19:37:46Z</time>
      </trkpt>
      <trkpt lat="42.48039" lon="2.57803">
        <ele>773</ele>
        <time>2024-09-19T19:37:49Z</time>
      </trkpt>
      <trkpt lat="42.48041" lon="2.57803">
        <ele>774</ele>
        <time>2024-09-19T19:37:53Z</time>
      </trkpt>
      <trkpt lat="42.48041" lon="2.578">
        <ele>775</ele>
        <time>2024-09-19T19:37:57Z</time>
      </trkpt>
      <trkpt lat="42.48041" lon="2.57796">
        <ele>775</ele>
        <time>2024-09-19T19:38:01Z</time>
      </trkpt>
      <trkpt lat="42.48044" lon="2.57797">
        <ele>775</ele>
        <time>2024-09-19T19:38:02Z</time>
      </trkpt>
      <trkpt lat="42.48045" lon="2.57798">
        <ele>775</ele>
        <time>2024-09-19T19:38:03Z</time>
      </trkpt>
      <trkpt lat="42.48046" lon="2.57794">
        <ele>776</ele>
        <time>2024-09-19T19:38:04Z</time>
      </trkpt>
      <trkpt lat="42.48047" lon="2.5779">
        <ele>776</ele>
        <time>2024-09-19T19:38:07Z</time>
      </trkpt>
      <trkpt lat="42.48049" lon="2.57787">
        <ele>777</ele>
        <time>2024-09-19T19:38:11Z</time>
      </trkpt>
      <trkpt lat="42.48048" lon="2.57787">
        <ele>777</ele>
        <time>2024-09-19T19:38:12Z</time>
      </trkpt>
      <trkpt lat="42.48047" lon="2.57788">
        <ele>777</ele>
        <time>2024-09-19T19:38:14Z</time>
      </trkpt>
      <trkpt lat="42.48044" lon="2.57792">
        <ele>777</ele>
        <time>2024-09-19T19:38:19Z</time>
      </trkpt>
      <trkpt lat="42.48043" lon="2.57792">
        <ele>775</ele>
        <time>2024-09-19T19:38:27Z</time>
      </trkpt>
      <trkpt lat="42.48041" lon="2.57796">
        <ele>776</ele>
        <time>2024-09-19T19:38:29Z</time>
      </trkpt>
      <trkpt lat="42.48042" lon="2.57795">
        <ele>775</ele>
        <time>2024-09-19T19:38:35Z</time>
      </trkpt>
      <trkpt lat="42.48042" lon="2.57792">
        <ele>775</ele>
        <time>2024-09-19T19:38:43Z</time>
      </trkpt>
      <trkpt lat="42.4804" lon="2.57793">
        <ele>775</ele>
        <time>2024-09-19T19:38:44Z</time>
      </trkpt>
      <trkpt lat="42.48038" lon="2.57795">
        <ele>774</ele>
        <time>2024-09-19T19:38:45Z</time>
      </trkpt>
      <trkpt lat="42.48038" lon="2.57798">
        <ele>774</ele>
        <time>2024-09-19T19:38:48Z</time>
      </trkpt>
      <trkpt lat="42.48037" lon="2.57799">
        <ele>774</ele>
        <time>2024-09-19T19:38:51Z</time>
      </trkpt>
      <trkpt lat="42.48037" lon="2.578">
        <ele>774</ele>
        <time>2024-09-19T19:38:54Z</time>
      </trkpt>
      <trkpt lat="42.48037" lon="2.578">
        <ele>774</ele>
        <time>2024-09-19T19:39:46Z</time>
      </trkpt>
      <trkpt lat="42.48034" lon="2.57793">
        <ele>774</ele>
        <time>2024-09-19T19:45:46Z</time>
      </trkpt>
      <trkpt lat="42.48036" lon="2.57792">
        <ele>773</ele>
        <time>2024-09-19T19:46:48Z</time>
      </trkpt>
      <trkpt lat="42.48035" lon="2.57793">
        <ele>773</ele>
        <time>2024-09-19T19:46:56Z</time>
      </trkpt>
      <trkpt lat="42.4804" lon="2.57806">
        <ele>768</ele>
        <time>2024-09-20T06:43:52Z</time>
      </trkpt>
      <trkpt lat="42.48041" lon="2.57806">
        <ele>765</ele>
        <time>2024-09-20T06:43:59Z</time>
      </trkpt>
      <trkpt lat="42.48043" lon="2.57809">
        <ele>762</ele>
        <time>2024-09-20T06:44:01Z</time>
      </trkpt>
      <trkpt lat="42.48044" lon="2.57812">
        <ele>764</ele>
        <time>2024-09-20T06:44:01Z</time>
      </trkpt>
      <trkpt lat="42.48046" lon="2.57817">
        <ele>766</ele>
        <time>2024-09-20T06:44:03Z</time>
      </trkpt>
      <trkpt lat="42.48049" lon="2.57821">
        <ele>767</ele>
        <time>2024-09-20T06:44:06Z</time>
      </trkpt>
      <trkpt lat="42.48052" lon="2.57825">
        <ele>767</ele>
        <time>2024-09-20T06:44:08Z</time>
      </trkpt>
      <trkpt lat="42.48054" lon="2.57828">
        <ele>769</ele>
        <time>2024-09-20T06:44:10Z</time>
      </trkpt>
      <trkpt lat="42.48057" lon="2.57831">
        <ele>769</ele>
        <time>2024-09-20T06:44:13Z</time>
      </trkpt>
      <trkpt lat="42.4806" lon="2.57833">
        <ele>770</ele>
        <time>2024-09-20T06:44:16Z</time>
      </trkpt>
      <trkpt lat="42.48062" lon="2.57836">
        <ele>770</ele>
        <time>2024-09-20T06:44:19Z</time>
      </trkpt>
      <trkpt lat="42.48065" lon="2.57837">
        <ele>771</ele>
        <time>2024-09-20T06:44:24Z</time>
      </trkpt>
      <trkpt lat="42.48068" lon="2.57838">
        <ele>770</ele>
        <time>2024-09-20T06:44:27Z</time>
      </trkpt>
      <trkpt lat="42.48071" lon="2.57839">
        <ele>769</ele>
        <time>2024-09-20T06:44:30Z</time>
      </trkpt>
      <trkpt lat="42.48075" lon="2.5784">
        <ele>772</ele>
        <time>2024-09-20T06:44:33Z</time>
      </trkpt>
      <trkpt lat="42.48078" lon="2.5784">
        <ele>772</ele>
        <time>2024-09-20T06:44:37Z</time>
      </trkpt>
      <trkpt lat="42.48081" lon="2.57841">
        <ele>773</ele>
        <time>2024-09-20T06:44:40Z</time>
      </trkpt>
      <trkpt lat="42.48084" lon="2.57843">
        <ele>774</ele>
        <time>2024-09-20T06:44:43Z</time>
      </trkpt>
      <trkpt lat="42.48087" lon="2.57844">
        <ele>774</ele>
        <time>2024-09-20T06:44:45Z</time>
      </trkpt>
      <trkpt lat="42.48091" lon="2.57846">
        <ele>774</ele>
        <time>2024-09-20T06:44:48Z</time>
      </trkpt>
      <trkpt lat="42.48094" lon="2.57847">
        <ele>773</ele>
        <time>2024-09-20T06:44:51Z</time>
      </trkpt>
      <trkpt lat="42.48097" lon="2.57849">
        <ele>773</ele>
        <time>2024-09-20T06:44:54Z</time>
      </trkpt>
      <trkpt lat="42.481" lon="2.57851">
        <ele>774</ele>
        <time>2024-09-20T06:44:56Z</time>
      </trkpt>
      <trkpt lat="42.48102" lon="2.57853">
        <ele>773</ele>
        <time>2024-09-20T06:44:59Z</time>
      </trkpt>
      <trkpt lat="42.48105" lon="2.57855">
        <ele>772</ele>
        <time>2024-09-20T06:45:03Z</time>
      </trkpt>
      <trkpt lat="42.48108" lon="2.57858">
        <ele>772</ele>
        <time>2024-09-20T06:45:06Z</time>
      </trkpt>
      <trkpt lat="42.48109" lon="2.57861">
        <ele>772</ele>
        <time>2024-09-20T06:45:11Z</time>
      </trkpt>
      <trkpt lat="42.48112" lon="2.57863">
        <ele>771</ele>
        <time>2024-09-20T06:45:16Z</time>
      </trkpt>
      <trkpt lat="42.48114" lon="2.57866">
        <ele>771</ele>
        <time>2024-09-20T06:45:21Z</time>
      </trkpt>
      <trkpt lat="42.48116" lon="2.57869">
        <ele>770</ele>
        <time>2024-09-20T06:45:24Z</time>
      </trkpt>
      <trkpt lat="42.48119" lon="2.57871">
        <ele>770</ele>
        <time>2024-09-20T06:45:28Z</time>
      </trkpt>
      <trkpt lat="42.48123" lon="2.57872">
        <ele>771</ele>
        <time>2024-09-20T06:45:34Z</time>
      </trkpt>
      <trkpt lat="42.48126" lon="2.57873">
        <ele>770</ele>
        <time>2024-09-20T06:45:36Z</time>
      </trkpt>
      <trkpt lat="42.48129" lon="2.57872">
        <ele>770</ele>
        <time>2024-09-20T06:45:38Z</time>
      </trkpt>
      <trkpt lat="42.48131" lon="2.57874">
        <ele>771</ele>
        <time>2024-09-20T06:45:40Z</time>
      </trkpt>
      <trkpt lat="42.48133" lon="2.57873">
        <ele>771</ele>
        <time>2024-09-20T06:45:41Z</time>
      </trkpt>
      <trkpt lat="42.48135" lon="2.57875">
        <ele>772</ele>
        <time>2024-09-20T06:45:45Z</time>
      </trkpt>
      <trkpt lat="42.48138" lon="2.57874">
        <ele>774</ele>
        <time>2024-09-20T06:45:51Z</time>
      </trkpt>
      <trkpt lat="42.48141" lon="2.57876">
        <ele>772</ele>
        <time>2024-09-20T06:45:54Z</time>
      </trkpt>
      <trkpt lat="42.48144" lon="2.57878">
        <ele>774</ele>
        <time>2024-09-20T06:45:56Z</time>
      </trkpt>
      <trkpt lat="42.48147" lon="2.57878">
        <ele>775</ele>
        <time>2024-09-20T06:46:00Z</time>
      </trkpt>
      <trkpt lat="42.48149" lon="2.57878">
        <ele>775</ele>
        <time>2024-09-20T06:46:02Z</time>
      </trkpt>
      <trkpt lat="42.48152" lon="2.57877">
        <ele>775</ele>
        <time>2024-09-20T06:46:05Z</time>
      </trkpt>
      <trkpt lat="42.48154" lon="2.57878">
        <ele>774</ele>
        <time>2024-09-20T06:46:07Z</time>
      </trkpt>
      <trkpt lat="42.48157" lon="2.5788">
        <ele>774</ele>
        <time>2024-09-20T06:46:11Z</time>
      </trkpt>
      <trkpt lat="42.4816" lon="2.57882">
        <ele>775</ele>
        <time>2024-09-20T06:46:14Z</time>
      </trkpt>
      <trkpt lat="42.48163" lon="2.57883">
        <ele>774</ele>
        <time>2024-09-20T06:46:18Z</time>
      </trkpt>
      <trkpt lat="42.48166" lon="2.57884">
        <ele>773</ele>
        <time>2024-09-20T06:46:21Z</time>
      </trkpt>
      <trkpt lat="42.48168" lon="2.57887">
        <ele>773</ele>
        <time>2024-09-20T06:46:23Z</time>
      </trkpt>
      <trkpt lat="42.4817" lon="2.57889">
        <ele>774</ele>
        <time>2024-09-20T06:46:27Z</time>
      </trkpt>
      <trkpt lat="42.48173" lon="2.57892">
        <ele>775</ele>
        <time>2024-09-20T06:46:31Z</time>
      </trkpt>
      <trkpt lat="42.48176" lon="2.57892">
        <ele>775</ele>
        <time>2024-09-20T06:46:33Z</time>
      </trkpt>
      <trkpt lat="42.48178" lon="2.57894">
        <ele>775</ele>
        <time>2024-09-20T06:46:36Z</time>
      </trkpt>
      <trkpt lat="42.48181" lon="2.57896">
        <ele>776</ele>
        <time>2024-09-20T06:46:41Z</time>
      </trkpt>
      <trkpt lat="42.48184" lon="2.57897">
        <ele>776</ele>
        <time>2024-09-20T06:46:43Z</time>
      </trkpt>
      <trkpt lat="42.48186" lon="2.57899">
        <ele>775</ele>
        <time>2024-09-20T06:46:45Z</time>
      </trkpt>
      <trkpt lat="42.48189" lon="2.579">
        <ele>776</ele>
        <time>2024-09-20T06:46:48Z</time>
      </trkpt>
      <trkpt lat="42.48192" lon="2.579">
        <ele>777</ele>
        <time>2024-09-20T06:46:53Z</time>
      </trkpt>
      <trkpt lat="42.48196" lon="2.57899">
        <ele>777</ele>
        <time>2024-09-20T06:46:57Z</time>
      </trkpt>
      <trkpt lat="42.48199" lon="2.57899">
        <ele>777</ele>
        <time>2024-09-20T06:47:00Z</time>
      </trkpt>
      <trkpt lat="42.48202" lon="2.579">
        <ele>777</ele>
        <time>2024-09-20T06:47:03Z</time>
      </trkpt>
      <trkpt lat="42.48204" lon="2.579">
        <ele>778</ele>
        <time>2024-09-20T06:47:07Z</time>
      </trkpt>
      <trkpt lat="42.48207" lon="2.57899">
        <ele>777</ele>
        <time>2024-09-20T06:47:10Z</time>
      </trkpt>
      <trkpt lat="42.4821" lon="2.57898">
        <ele>777</ele>
        <time>2024-09-20T06:47:13Z</time>
      </trkpt>
      <trkpt lat="42.48213" lon="2.57897">
        <ele>778</ele>
        <time>2024-09-20T06:47:15Z</time>
      </trkpt>
      <trkpt lat="42.48217" lon="2.57897">
        <ele>778</ele>
        <time>2024-09-20T06:47:18Z</time>
      </trkpt>
      <trkpt lat="42.4822" lon="2.57896">
        <ele>777</ele>
        <time>2024-09-20T06:47:22Z</time>
      </trkpt>
      <trkpt lat="42.48223" lon="2.57895">
        <ele>780</ele>
        <time>2024-09-20T06:47:26Z</time>
      </trkpt>
      <trkpt lat="42.48226" lon="2.57895">
        <ele>780</ele>
        <time>2024-09-20T06:47:32Z</time>
      </trkpt>
      <trkpt lat="42.48229" lon="2.57893">
        <ele>780</ele>
        <time>2024-09-20T06:47:35Z</time>
      </trkpt>
      <trkpt lat="42.48232" lon="2.57891">
        <ele>780</ele>
        <time>2024-09-20T06:47:38Z</time>
      </trkpt>
      <trkpt lat="42.48235" lon="2.57889">
        <ele>780</ele>
        <time>2024-09-20T06:47:41Z</time>
      </trkpt>
      <trkpt lat="42.48238" lon="2.57888">
        <ele>781</ele>
        <time>2024-09-20T06:47:44Z</time>
      </trkpt>
      <trkpt lat="42.48241" lon="2.57886">
        <ele>781</ele>
        <time>2024-09-20T06:47:47Z</time>
      </trkpt>
      <trkpt lat="42.48245" lon="2.57883">
        <ele>782</ele>
        <time>2024-09-20T06:47:51Z</time>
      </trkpt>
      <trkpt lat="42.48248" lon="2.5788">
        <ele>782</ele>
        <time>2024-09-20T06:47:54Z</time>
      </trkpt>
      <trkpt lat="42.4825" lon="2.57877">
        <ele>782</ele>
        <time>2024-09-20T06:47:56Z</time>
      </trkpt>
      <trkpt lat="42.48252" lon="2.57872">
        <ele>782</ele>
        <time>2024-09-20T06:48:00Z</time>
      </trkpt>
      <trkpt lat="42.48253" lon="2.57868">
        <ele>784</ele>
        <time>2024-09-20T06:48:03Z</time>
      </trkpt>
      <trkpt lat="42.48254" lon="2.57864">
        <ele>783</ele>
        <time>2024-09-20T06:48:06Z</time>
      </trkpt>
      <trkpt lat="42.48254" lon="2.5786">
        <ele>783</ele>
        <time>2024-09-20T06:48:08Z</time>
      </trkpt>
      <trkpt lat="42.48254" lon="2.57856">
        <ele>783</ele>
        <time>2024-09-20T06:48:12Z</time>
      </trkpt>
      <trkpt lat="42.48255" lon="2.57852">
        <ele>784</ele>
        <time>2024-09-20T06:48:15Z</time>
      </trkpt>
      <trkpt lat="42.48254" lon="2.57847">
        <ele>783</ele>
        <time>2024-09-20T06:48:18Z</time>
      </trkpt>
      <trkpt lat="42.48253" lon="2.57842">
        <ele>785</ele>
        <time>2024-09-20T06:48:21Z</time>
      </trkpt>
      <trkpt lat="42.48251" lon="2.57838">
        <ele>785</ele>
        <time>2024-09-20T06:48:27Z</time>
      </trkpt>
      <trkpt lat="42.48251" lon="2.57833">
        <ele>786</ele>
        <time>2024-09-20T06:48:30Z</time>
      </trkpt>
      <trkpt lat="42.48252" lon="2.57829">
        <ele>786</ele>
        <time>2024-09-20T06:48:32Z</time>
      </trkpt>
      <trkpt lat="42.48252" lon="2.57824">
        <ele>786</ele>
        <time>2024-09-20T06:48:36Z</time>
      </trkpt>
      <trkpt lat="42.48253" lon="2.57819">
        <ele>787</ele>
        <time>2024-09-20T06:48:38Z</time>
      </trkpt>
      <trkpt lat="42.48254" lon="2.57815">
        <ele>787</ele>
        <time>2024-09-20T06:48:43Z</time>
      </trkpt>
      <trkpt lat="42.48254" lon="2.57811">
        <ele>787</ele>
        <time>2024-09-20T06:48:45Z</time>
      </trkpt>
      <trkpt lat="42.48256" lon="2.57807">
        <ele>787</ele>
        <time>2024-09-20T06:48:47Z</time>
      </trkpt>
      <trkpt lat="42.48256" lon="2.57804">
        <ele>788</ele>
        <time>2024-09-20T06:48:52Z</time>
      </trkpt>
      <trkpt lat="42.48258" lon="2.57799">
        <ele>789</ele>
        <time>2024-09-20T06:48:54Z</time>
      </trkpt>
      <trkpt lat="42.4826" lon="2.57796">
        <ele>789</ele>
        <time>2024-09-20T06:48:57Z</time>
      </trkpt>
      <trkpt lat="42.48262" lon="2.57792">
        <ele>789</ele>
        <time>2024-09-20T06:49:00Z</time>
      </trkpt>
      <trkpt lat="42.48264" lon="2.57789">
        <ele>791</ele>
        <time>2024-09-20T06:49:05Z</time>
      </trkpt>
      <trkpt lat="42.48267" lon="2.57787">
        <ele>791</ele>
        <time>2024-09-20T06:49:09Z</time>
      </trkpt>
      <trkpt lat="42.48271" lon="2.57783">
        <ele>791</ele>
        <time>2024-09-20T06:49:10Z</time>
      </trkpt>
      <trkpt lat="42.4827" lon="2.57782">
        <ele>791</ele>
        <time>2024-09-20T06:49:11Z</time>
      </trkpt>
      <trkpt lat="42.48271" lon="2.57779">
        <ele>793</ele>
        <time>2024-09-20T06:49:17Z</time>
      </trkpt>
      <trkpt lat="42.48273" lon="2.57778">
        <ele>793</ele>
        <time>2024-09-20T06:49:18Z</time>
      </trkpt>
      <trkpt lat="42.48275" lon="2.57776">
        <ele>793</ele>
        <time>2024-09-20T06:49:21Z</time>
      </trkpt>
      <trkpt lat="42.48277" lon="2.57773">
        <ele>794</ele>
        <time>2024-09-20T06:49:22Z</time>
      </trkpt>
      <trkpt lat="42.48279" lon="2.57772">
        <ele>794</ele>
        <time>2024-09-20T06:49:23Z</time>
      </trkpt>
      <trkpt lat="42.48282" lon="2.57771">
        <ele>795</ele>
        <time>2024-09-20T06:49:26Z</time>
      </trkpt>
      <trkpt lat="42.48285" lon="2.57771">
        <ele>795</ele>
        <time>2024-09-20T06:49:28Z</time>
      </trkpt>
      <trkpt lat="42.48288" lon="2.5777">
        <ele>795</ele>
        <time>2024-09-20T06:49:31Z</time>
      </trkpt>
      <trkpt lat="42.48291" lon="2.5777">
        <ele>794</ele>
        <time>2024-09-20T06:49:38Z</time>
      </trkpt>
      <trkpt lat="42.48294" lon="2.57772">
        <ele>795</ele>
        <time>2024-09-20T06:49:40Z</time>
      </trkpt>
      <trkpt lat="42.48298" lon="2.57773">
        <ele>795</ele>
        <time>2024-09-20T06:49:43Z</time>
      </trkpt>
      <trkpt lat="42.483" lon="2.57771">
        <ele>796</ele>
        <time>2024-09-20T06:49:46Z</time>
      </trkpt>
      <trkpt lat="42.48303" lon="2.57771">
        <ele>796</ele>
        <time>2024-09-20T06:49:48Z</time>
      </trkpt>
      <trkpt lat="42.48306" lon="2.5777">
        <ele>795</ele>
        <time>2024-09-20T06:49:52Z</time>
      </trkpt>
      <trkpt lat="42.4831" lon="2.5777">
        <ele>795</ele>
        <time>2024-09-20T06:49:54Z</time>
      </trkpt>
      <trkpt lat="42.48314" lon="2.57772">
        <ele>794</ele>
        <time>2024-09-20T06:49:58Z</time>
      </trkpt>
      <trkpt lat="42.48317" lon="2.57773">
        <ele>794</ele>
        <time>2024-09-20T06:50:00Z</time>
      </trkpt>
      <trkpt lat="42.48321" lon="2.57774">
        <ele>795</ele>
        <time>2024-09-20T06:50:02Z</time>
      </trkpt>
      <trkpt lat="42.48323" lon="2.57777">
        <ele>794</ele>
        <time>2024-09-20T06:50:05Z</time>
      </trkpt>
      <trkpt lat="42.48326" lon="2.57779">
        <ele>795</ele>
        <time>2024-09-20T06:50:08Z</time>
      </trkpt>
      <trkpt lat="42.48329" lon="2.57779">
        <ele>793</ele>
        <time>2024-09-20T06:50:11Z</time>
      </trkpt>
      <trkpt lat="42.48332" lon="2.57779">
        <ele>795</ele>
        <time>2024-09-20T06:50:14Z</time>
      </trkpt>
      <trkpt lat="42.48335" lon="2.57777">
        <ele>793</ele>
        <time>2024-09-20T06:50:16Z</time>
      </trkpt>
      <trkpt lat="42.48338" lon="2.57777">
        <ele>793</ele>
        <time>2024-09-20T06:50:18Z</time>
      </trkpt>
      <trkpt lat="42.48341" lon="2.57775">
        <ele>793</ele>
        <time>2024-09-20T06:50:20Z</time>
      </trkpt>
      <trkpt lat="42.48345" lon="2.57774">
        <ele>793</ele>
        <time>2024-09-20T06:50:23Z</time>
      </trkpt>
      <trkpt lat="42.48348" lon="2.57772">
        <ele>792</ele>
        <time>2024-09-20T06:50:27Z</time>
      </trkpt>
      <trkpt lat="42.48352" lon="2.57769">
        <ele>792</ele>
        <time>2024-09-20T06:50:31Z</time>
      </trkpt>
      <trkpt lat="42.48356" lon="2.57769">
        <ele>791</ele>
        <time>2024-09-20T06:50:38Z</time>
      </trkpt>
      <trkpt lat="42.4836" lon="2.5777">
        <ele>791</ele>
        <time>2024-09-20T06:50:41Z</time>
      </trkpt>
      <trkpt lat="42.48362" lon="2.57766">
        <ele>790</ele>
        <time>2024-09-20T06:50:45Z</time>
      </trkpt>
      <trkpt lat="42.48363" lon="2.57762">
        <ele>792</ele>
        <time>2024-09-20T06:50:54Z</time>
      </trkpt>
      <trkpt lat="42.48362" lon="2.57762">
        <ele>794</ele>
        <time>2024-09-20T06:51:30Z</time>
      </trkpt>
      <trkpt lat="42.48363" lon="2.57764">
        <ele>794</ele>
        <time>2024-09-20T06:51:34Z</time>
      </trkpt>
      <trkpt lat="42.48365" lon="2.57764">
        <ele>793</ele>
        <time>2024-09-20T06:52:07Z</time>
      </trkpt>
      <trkpt lat="42.48368" lon="2.57764">
        <ele>793</ele>
        <time>2024-09-20T06:52:14Z</time>
      </trkpt>
      <trkpt lat="42.48368" lon="2.57767">
        <ele>792</ele>
        <time>2024-09-20T06:52:16Z</time>
      </trkpt>
      <trkpt lat="42.48369" lon="2.57768">
        <ele>792</ele>
        <time>2024-09-20T06:52:19Z</time>
      </trkpt>
      <trkpt lat="42.48371" lon="2.57767">
        <ele>792</ele>
        <time>2024-09-20T06:52:26Z</time>
      </trkpt>
      <trkpt lat="42.48373" lon="2.57764">
        <ele>791</ele>
        <time>2024-09-20T06:52:30Z</time>
      </trkpt>
      <trkpt lat="42.48374" lon="2.57761">
        <ele>791</ele>
        <time>2024-09-20T06:52:46Z</time>
      </trkpt>
      <trkpt lat="42.48376" lon="2.57762">
        <ele>790</ele>
        <time>2024-09-20T06:52:49Z</time>
      </trkpt>
      <trkpt lat="42.48379" lon="2.57763">
        <ele>791</ele>
        <time>2024-09-20T06:52:55Z</time>
      </trkpt>
      <trkpt lat="42.48382" lon="2.57766">
        <ele>791</ele>
        <time>2024-09-20T06:52:59Z</time>
      </trkpt>
      <trkpt lat="42.48385" lon="2.57767">
        <ele>791</ele>
        <time>2024-09-20T06:53:01Z</time>
      </trkpt>
      <trkpt lat="42.48389" lon="2.57768">
        <ele>792</ele>
        <time>2024-09-20T06:53:03Z</time>
      </trkpt>
      <trkpt lat="42.48392" lon="2.57768">
        <ele>791</ele>
        <time>2024-09-20T06:53:05Z</time>
      </trkpt>
      <trkpt lat="42.48395" lon="2.57769">
        <ele>791</ele>
        <time>2024-09-20T06:53:08Z</time>
      </trkpt>
      <trkpt lat="42.48398" lon="2.57768">
        <ele>791</ele>
        <time>2024-09-20T06:53:10Z</time>
      </trkpt>
      <trkpt lat="42.48401" lon="2.57769">
        <ele>790</ele>
        <time>2024-09-20T06:53:13Z</time>
      </trkpt>
      <trkpt lat="42.48404" lon="2.57769">
        <ele>791</ele>
        <time>2024-09-20T06:53:15Z</time>
      </trkpt>
      <trkpt lat="42.48407" lon="2.57768">
        <ele>790</ele>
        <time>2024-09-20T06:53:19Z</time>
      </trkpt>
      <trkpt lat="42.4841" lon="2.57766">
        <ele>790</ele>
        <time>2024-09-20T06:53:21Z</time>
      </trkpt>
      <trkpt lat="42.48413" lon="2.57765">
        <ele>791</ele>
        <time>2024-09-20T06:53:24Z</time>
      </trkpt>
      <trkpt lat="42.48416" lon="2.57763">
        <ele>790</ele>
        <time>2024-09-20T06:53:26Z</time>
      </trkpt>
      <trkpt lat="42.48419" lon="2.57761">
        <ele>790</ele>
        <time>2024-09-20T06:53:28Z</time>
      </trkpt>
      <trkpt lat="42.48423" lon="2.5776">
        <ele>790</ele>
        <time>2024-09-20T06:53:30Z</time>
      </trkpt>
      <trkpt lat="42.48426" lon="2.57759">
        <ele>790</ele>
        <time>2024-09-20T06:53:35Z</time>
      </trkpt>
      <trkpt lat="42.4843" lon="2.57757">
        <ele>791</ele>
        <time>2024-09-20T06:53:37Z</time>
      </trkpt>
      <trkpt lat="42.48433" lon="2.57756">
        <ele>790</ele>
        <time>2024-09-20T06:53:40Z</time>
      </trkpt>
      <trkpt lat="42.48436" lon="2.57755">
        <ele>790</ele>
        <time>2024-09-20T06:53:44Z</time>
      </trkpt>
      <trkpt lat="42.4844" lon="2.57754">
        <ele>790</ele>
        <time>2024-09-20T06:53:47Z</time>
      </trkpt>
      <trkpt lat="42.48443" lon="2.57753">
        <ele>790</ele>
        <time>2024-09-20T06:53:49Z</time>
      </trkpt>
      <trkpt lat="42.48446" lon="2.57752">
        <ele>790</ele>
        <time>2024-09-20T06:53:50Z</time>
      </trkpt>
      <trkpt lat="42.4845" lon="2.57751">
        <ele>791</ele>
        <time>2024-09-20T06:53:56Z</time>
      </trkpt>
      <trkpt lat="42.48453" lon="2.5775">
        <ele>792</ele>
        <time>2024-09-20T06:53:58Z</time>
      </trkpt>
      <trkpt lat="42.48457" lon="2.57749">
        <ele>792</ele>
        <time>2024-09-20T06:53:59Z</time>
      </trkpt>
      <trkpt lat="42.4846" lon="2.57748">
        <ele>793</ele>
        <time>2024-09-20T06:54:02Z</time>
      </trkpt>
      <trkpt lat="42.48463" lon="2.57747">
        <ele>793</ele>
        <time>2024-09-20T06:54:04Z</time>
      </trkpt>
      <trkpt lat="42.48466" lon="2.57745">
        <ele>793</ele>
        <time>2024-09-20T06:54:07Z</time>
      </trkpt>
      <trkpt lat="42.48469" lon="2.57745">
        <ele>793</ele>
        <time>2024-09-20T06:54:09Z</time>
      </trkpt>
      <trkpt lat="42.48472" lon="2.57743">
        <ele>794</ele>
        <time>2024-09-20T06:54:12Z</time>
      </trkpt>
      <trkpt lat="42.48475" lon="2.57742">
        <ele>794</ele>
        <time>2024-09-20T06:54:15Z</time>
      </trkpt>
      <trkpt lat="42.48478" lon="2.57742">
        <ele>794</ele>
        <time>2024-09-20T06:54:17Z</time>
      </trkpt>
      <trkpt lat="42.48481" lon="2.57742">
        <ele>794</ele>
        <time>2024-09-20T06:54:19Z</time>
      </trkpt>
      <trkpt lat="42.48484" lon="2.57742">
        <ele>794</ele>
        <time>2024-09-20T06:54:22Z</time>
      </trkpt>
      <trkpt lat="42.48487" lon="2.57742">
        <ele>795</ele>
        <time>2024-09-20T06:54:25Z</time>
      </trkpt>
      <trkpt lat="42.48491" lon="2.57742">
        <ele>795</ele>
        <time>2024-09-20T06:54:29Z</time>
      </trkpt>
      <trkpt lat="42.48494" lon="2.57741">
        <ele>794</ele>
        <time>2024-09-20T06:54:31Z</time>
      </trkpt>
      <trkpt lat="42.48497" lon="2.57742">
        <ele>795</ele>
        <time>2024-09-20T06:54:33Z</time>
      </trkpt>
      <trkpt lat="42.48501" lon="2.57742">
        <ele>796</ele>
        <time>2024-09-20T06:54:38Z</time>
      </trkpt>
      <trkpt lat="42.48504" lon="2.57742">
        <ele>797</ele>
        <time>2024-09-20T06:54:42Z</time>
      </trkpt>
      <trkpt lat="42.48506" lon="2.57739">
        <ele>795</ele>
        <time>2024-09-20T06:54:44Z</time>
      </trkpt>
      <trkpt lat="42.4851" lon="2.57738">
        <ele>796</ele>
        <time>2024-09-20T06:54:47Z</time>
      </trkpt>
      <trkpt lat="42.48513" lon="2.57739">
        <ele>796</ele>
        <time>2024-09-20T06:54:50Z</time>
      </trkpt>
      <trkpt lat="42.48516" lon="2.57739">
        <ele>796</ele>
        <time>2024-09-20T06:54:52Z</time>
      </trkpt>
      <trkpt lat="42.4852" lon="2.5774">
        <ele>797</ele>
        <time>2024-09-20T06:54:55Z</time>
      </trkpt>
      <trkpt lat="42.48522" lon="2.57742">
        <ele>797</ele>
        <time>2024-09-20T06:54:58Z</time>
      </trkpt>
      <trkpt lat="42.48526" lon="2.57745">
        <ele>797</ele>
        <time>2024-09-20T06:55:01Z</time>
      </trkpt>
      <trkpt lat="42.48529" lon="2.57747">
        <ele>797</ele>
        <time>2024-09-20T06:55:04Z</time>
      </trkpt>
      <trkpt lat="42.48531" lon="2.5775">
        <ele>796</ele>
        <time>2024-09-20T06:55:07Z</time>
      </trkpt>
      <trkpt lat="42.48534" lon="2.57753">
        <ele>795</ele>
        <time>2024-09-20T06:55:08Z</time>
      </trkpt>
      <trkpt lat="42.48538" lon="2.57753">
        <ele>794</ele>
        <time>2024-09-20T06:55:12Z</time>
      </trkpt>
      <trkpt lat="42.48541" lon="2.57753">
        <ele>793</ele>
        <time>2024-09-20T06:55:15Z</time>
      </trkpt>
      <trkpt lat="42.48545" lon="2.57754">
        <ele>793</ele>
        <time>2024-09-20T06:55:18Z</time>
      </trkpt>
      <trkpt lat="42.48548" lon="2.57753">
        <ele>793</ele>
        <time>2024-09-20T06:55:20Z</time>
      </trkpt>
      <trkpt lat="42.48551" lon="2.57752">
        <ele>792</ele>
        <time>2024-09-20T06:55:22Z</time>
      </trkpt>
      <trkpt lat="42.48554" lon="2.57753">
        <ele>793</ele>
        <time>2024-09-20T06:55:25Z</time>
      </trkpt>
      <trkpt lat="42.48557" lon="2.57753">
        <ele>793</ele>
        <time>2024-09-20T06:55:27Z</time>
      </trkpt>
      <trkpt lat="42.48561" lon="2.57752">
        <ele>792</ele>
        <time>2024-09-20T06:55:29Z</time>
      </trkpt>
      <trkpt lat="42.48564" lon="2.57752">
        <ele>792</ele>
        <time>2024-09-20T06:55:32Z</time>
      </trkpt>
      <trkpt lat="42.48567" lon="2.57753">
        <ele>793</ele>
        <time>2024-09-20T06:55:35Z</time>
      </trkpt>
      <trkpt lat="42.48571" lon="2.57752">
        <ele>792</ele>
        <time>2024-09-20T06:55:38Z</time>
      </trkpt>
      <trkpt lat="42.48574" lon="2.57752">
        <ele>791</ele>
        <time>2024-09-20T06:55:40Z</time>
      </trkpt>
      <trkpt lat="42.48577" lon="2.57753">
        <ele>792</ele>
        <time>2024-09-20T06:55:42Z</time>
      </trkpt>
      <trkpt lat="42.4858" lon="2.57755">
        <ele>792</ele>
        <time>2024-09-20T06:55:45Z</time>
      </trkpt>
      <trkpt lat="42.48583" lon="2.57757">
        <ele>792</ele>
        <time>2024-09-20T06:55:48Z</time>
      </trkpt>
      <trkpt lat="42.48584" lon="2.5776">
        <ele>791</ele>
        <time>2024-09-20T06:55:50Z</time>
      </trkpt>
      <trkpt lat="42.48586" lon="2.57764">
        <ele>793</ele>
        <time>2024-09-20T06:55:52Z</time>
      </trkpt>
      <trkpt lat="42.48588" lon="2.57767">
        <ele>791</ele>
        <time>2024-09-20T06:55:55Z</time>
      </trkpt>
      <trkpt lat="42.4859" lon="2.5777">
        <ele>791</ele>
        <time>2024-09-20T06:55:57Z</time>
      </trkpt>
      <trkpt lat="42.48592" lon="2.57774">
        <ele>791</ele>
        <time>2024-09-20T06:56:00Z</time>
      </trkpt>
      <trkpt lat="42.48594" lon="2.57775">
        <ele>791</ele>
        <time>2024-09-20T06:56:03Z</time>
      </trkpt>
      <trkpt lat="42.48597" lon="2.57776">
        <ele>790</ele>
        <time>2024-09-20T06:56:05Z</time>
      </trkpt>
      <trkpt lat="42.486" lon="2.57778">
        <ele>790</ele>
        <time>2024-09-20T06:56:08Z</time>
      </trkpt>
      <trkpt lat="42.48603" lon="2.57779">
        <ele>788</ele>
        <time>2024-09-20T06:56:11Z</time>
      </trkpt>
      <trkpt lat="42.48607" lon="2.5778">
        <ele>789</ele>
        <time>2024-09-20T06:56:14Z</time>
      </trkpt>
      <trkpt lat="42.4861" lon="2.57781">
        <ele>789</ele>
        <time>2024-09-20T06:56:16Z</time>
      </trkpt>
      <trkpt lat="42.48613" lon="2.57783">
        <ele>789</ele>
        <time>2024-09-20T06:56:19Z</time>
      </trkpt>
      <trkpt lat="42.48616" lon="2.57785">
        <ele>789</ele>
        <time>2024-09-20T06:56:21Z</time>
      </trkpt>
      <trkpt lat="42.48619" lon="2.57785">
        <ele>788</ele>
        <time>2024-09-20T06:56:23Z</time>
      </trkpt>
      <trkpt lat="42.48622" lon="2.57787">
        <ele>789</ele>
        <time>2024-09-20T06:56:26Z</time>
      </trkpt>
      <trkpt lat="42.48626" lon="2.57788">
        <ele>789</ele>
        <time>2024-09-20T06:56:28Z</time>
      </trkpt>
      <trkpt lat="42.4863" lon="2.57789">
        <ele>788</ele>
        <time>2024-09-20T06:56:31Z</time>
      </trkpt>
      <trkpt lat="42.48633" lon="2.57789">
        <ele>788</ele>
        <time>2024-09-20T06:56:34Z</time>
      </trkpt>
      <trkpt lat="42.48638" lon="2.57791">
        <ele>790</ele>
        <time>2024-09-20T06:56:37Z</time>
      </trkpt>
      <trkpt lat="42.48642" lon="2.57793">
        <ele>789</ele>
        <time>2024-09-20T06:56:41Z</time>
      </trkpt>
      <trkpt lat="42.48645" lon="2.57793">
        <ele>790</ele>
        <time>2024-09-20T06:56:44Z</time>
      </trkpt>
      <trkpt lat="42.48648" lon="2.57792">
        <ele>790</ele>
        <time>2024-09-20T06:56:46Z</time>
      </trkpt>
      <trkpt lat="42.48651" lon="2.57792">
        <ele>792</ele>
        <time>2024-09-20T06:56:48Z</time>
      </trkpt>
      <trkpt lat="42.48653" lon="2.5779">
        <ele>790</ele>
        <time>2024-09-20T06:56:50Z</time>
      </trkpt>
      <trkpt lat="42.48657" lon="2.57789">
        <ele>790</ele>
        <time>2024-09-20T06:56:53Z</time>
      </trkpt>
      <trkpt lat="42.4866" lon="2.57789">
        <ele>791</ele>
        <time>2024-09-20T06:56:56Z</time>
      </trkpt>
      <trkpt lat="42.48663" lon="2.5779">
        <ele>793</ele>
        <time>2024-09-20T06:56:58Z</time>
      </trkpt>
      <trkpt lat="42.48666" lon="2.57791">
        <ele>792</ele>
        <time>2024-09-20T06:57:01Z</time>
      </trkpt>
      <trkpt lat="42.48669" lon="2.57793">
        <ele>792</ele>
        <time>2024-09-20T06:57:04Z</time>
      </trkpt>
      <trkpt lat="42.48673" lon="2.57795">
        <ele>790</ele>
        <time>2024-09-20T06:57:07Z</time>
      </trkpt>
      <trkpt lat="42.48676" lon="2.57797">
        <ele>790</ele>
        <time>2024-09-20T06:57:10Z</time>
      </trkpt>
      <trkpt lat="42.48679" lon="2.57799">
        <ele>790</ele>
        <time>2024-09-20T06:57:12Z</time>
      </trkpt>
      <trkpt lat="42.48681" lon="2.57801">
        <ele>790</ele>
        <time>2024-09-20T06:57:15Z</time>
      </trkpt>
      <trkpt lat="42.48684" lon="2.57804">
        <ele>790</ele>
        <time>2024-09-20T06:57:17Z</time>
      </trkpt>
      <trkpt lat="42.48686" lon="2.57807">
        <ele>791</ele>
        <time>2024-09-20T06:57:20Z</time>
      </trkpt>
      <trkpt lat="42.48688" lon="2.57809">
        <ele>791</ele>
        <time>2024-09-20T06:57:22Z</time>
      </trkpt>
      <trkpt lat="42.4869" lon="2.57813">
        <ele>792</ele>
        <time>2024-09-20T06:57:25Z</time>
      </trkpt>
      <trkpt lat="42.48692" lon="2.57817">
        <ele>794</ele>
        <time>2024-09-20T06:57:27Z</time>
      </trkpt>
      <trkpt lat="42.48694" lon="2.57819">
        <ele>792</ele>
        <time>2024-09-20T06:57:31Z</time>
      </trkpt>
      <trkpt lat="42.48696" lon="2.57823">
        <ele>793</ele>
        <time>2024-09-20T06:57:34Z</time>
      </trkpt>
      <trkpt lat="42.48697" lon="2.57827">
        <ele>793</ele>
        <time>2024-09-20T06:57:36Z</time>
      </trkpt>
      <trkpt lat="42.48698" lon="2.57831">
        <ele>793</ele>
        <time>2024-09-20T06:57:39Z</time>
      </trkpt>
      <trkpt lat="42.48699" lon="2.57835">
        <ele>794</ele>
        <time>2024-09-20T06:57:41Z</time>
      </trkpt>
      <trkpt lat="42.487" lon="2.57839">
        <ele>794</ele>
        <time>2024-09-20T06:57:44Z</time>
      </trkpt>
      <trkpt lat="42.48701" lon="2.57843">
        <ele>793</ele>
        <time>2024-09-20T06:57:47Z</time>
      </trkpt>
      <trkpt lat="42.48701" lon="2.57847">
        <ele>794</ele>
        <time>2024-09-20T06:57:49Z</time>
      </trkpt>
      <trkpt lat="42.48702" lon="2.57852">
        <ele>794</ele>
        <time>2024-09-20T06:57:53Z</time>
      </trkpt>
      <trkpt lat="42.48703" lon="2.57856">
        <ele>792</ele>
        <time>2024-09-20T06:57:55Z</time>
      </trkpt>
      <trkpt lat="42.48705" lon="2.57859">
        <ele>791</ele>
        <time>2024-09-20T06:57:57Z</time>
      </trkpt>
      <trkpt lat="42.48707" lon="2.57861">
        <ele>790</ele>
        <time>2024-09-20T06:57:59Z</time>
      </trkpt>
      <trkpt lat="42.48709" lon="2.57864">
        <ele>790</ele>
        <time>2024-09-20T06:58:01Z</time>
      </trkpt>
      <trkpt lat="42.48712" lon="2.57866">
        <ele>789</ele>
        <time>2024-09-20T06:58:03Z</time>
      </trkpt>
      <trkpt lat="42.48714" lon="2.57869">
        <ele>788</ele>
        <time>2024-09-20T06:58:06Z</time>
      </trkpt>
      <trkpt lat="42.48716" lon="2.57872">
        <ele>788</ele>
        <time>2024-09-20T06:58:08Z</time>
      </trkpt>
      <trkpt lat="42.48718" lon="2.57874">
        <ele>788</ele>
        <time>2024-09-20T06:58:10Z</time>
      </trkpt>
      <trkpt lat="42.4872" lon="2.57878">
        <ele>788</ele>
        <time>2024-09-20T06:58:13Z</time>
      </trkpt>
      <trkpt lat="42.48723" lon="2.57882">
        <ele>789</ele>
        <time>2024-09-20T06:58:16Z</time>
      </trkpt>
      <trkpt lat="42.48725" lon="2.57886">
        <ele>789</ele>
        <time>2024-09-20T06:58:19Z</time>
      </trkpt>
      <trkpt lat="42.48726" lon="2.5789">
        <ele>790</ele>
        <time>2024-09-20T06:58:22Z</time>
      </trkpt>
      <trkpt lat="42.48728" lon="2.57894">
        <ele>789</ele>
        <time>2024-09-20T06:58:25Z</time>
      </trkpt>
      <trkpt lat="42.4873" lon="2.57897">
        <ele>790</ele>
        <time>2024-09-20T06:58:27Z</time>
      </trkpt>
      <trkpt lat="42.48731" lon="2.57901">
        <ele>790</ele>
        <time>2024-09-20T06:58:29Z</time>
      </trkpt>
      <trkpt lat="42.48733" lon="2.57904">
        <ele>790</ele>
        <time>2024-09-20T06:58:32Z</time>
      </trkpt>
      <trkpt lat="42.48735" lon="2.57908">
        <ele>790</ele>
        <time>2024-09-20T06:58:35Z</time>
      </trkpt>
      <trkpt lat="42.48737" lon="2.57912">
        <ele>790</ele>
        <time>2024-09-20T06:58:38Z</time>
      </trkpt>
      <trkpt lat="42.48739" lon="2.57916">
        <ele>790</ele>
        <time>2024-09-20T06:58:41Z</time>
      </trkpt>
      <trkpt lat="42.48741" lon="2.57919">
        <ele>791</ele>
        <time>2024-09-20T06:58:44Z</time>
      </trkpt>
      <trkpt lat="42.48744" lon="2.57922">
        <ele>791</ele>
        <time>2024-09-20T06:58:49Z</time>
      </trkpt>
      <trkpt lat="42.48746" lon="2.57924">
        <ele>792</ele>
        <time>2024-09-20T06:58:52Z</time>
      </trkpt>
      <trkpt lat="42.48749" lon="2.57926">
        <ele>794</ele>
        <time>2024-09-20T06:58:55Z</time>
      </trkpt>
      <trkpt lat="42.48751" lon="2.57928">
        <ele>795</ele>
        <time>2024-09-20T06:58:59Z</time>
      </trkpt>
      <trkpt lat="42.48754" lon="2.5793">
        <ele>795</ele>
        <time>2024-09-20T06:59:02Z</time>
      </trkpt>
      <trkpt lat="42.48757" lon="2.57932">
        <ele>796</ele>
        <time>2024-09-20T06:59:07Z</time>
      </trkpt>
      <trkpt lat="42.48761" lon="2.57934">
        <ele>796</ele>
        <time>2024-09-20T06:59:10Z</time>
      </trkpt>
      <trkpt lat="42.48764" lon="2.57936">
        <ele>797</ele>
        <time>2024-09-20T06:59:13Z</time>
      </trkpt>
      <trkpt lat="42.48768" lon="2.57937">
        <ele>796</ele>
        <time>2024-09-20T06:59:16Z</time>
      </trkpt>
      <trkpt lat="42.48771" lon="2.57938">
        <ele>796</ele>
        <time>2024-09-20T06:59:17Z</time>
      </trkpt>
      <trkpt lat="42.48773" lon="2.57938">
        <ele>797</ele>
        <time>2024-09-20T06:59:21Z</time>
      </trkpt>
      <trkpt lat="42.48776" lon="2.57938">
        <ele>797</ele>
        <time>2024-09-20T06:59:23Z</time>
      </trkpt>
      <trkpt lat="42.4878" lon="2.57939">
        <ele>796</ele>
        <time>2024-09-20T06:59:25Z</time>
      </trkpt>
      <trkpt lat="42.48783" lon="2.57941">
        <ele>796</ele>
        <time>2024-09-20T06:59:29Z</time>
      </trkpt>
      <trkpt lat="42.48787" lon="2.57943">
        <ele>795</ele>
        <time>2024-09-20T06:59:32Z</time>
      </trkpt>
      <trkpt lat="42.48789" lon="2.57945">
        <ele>796</ele>
        <time>2024-09-20T06:59:34Z</time>
      </trkpt>
      <trkpt lat="42.48792" lon="2.57946">
        <ele>795</ele>
        <time>2024-09-20T06:59:37Z</time>
      </trkpt>
      <trkpt lat="42.48795" lon="2.57948">
        <ele>796</ele>
        <time>2024-09-20T06:59:39Z</time>
      </trkpt>
      <trkpt lat="42.48798" lon="2.5795">
        <ele>795</ele>
        <time>2024-09-20T06:59:42Z</time>
      </trkpt>
      <trkpt lat="42.48801" lon="2.5795">
        <ele>795</ele>
        <time>2024-09-20T06:59:45Z</time>
      </trkpt>
      <trkpt lat="42.48805" lon="2.5795">
        <ele>797</ele>
        <time>2024-09-20T06:59:49Z</time>
      </trkpt>
      <trkpt lat="42.48808" lon="2.5795">
        <ele>796</ele>
        <time>2024-09-20T06:59:51Z</time>
      </trkpt>
      <trkpt lat="42.48812" lon="2.57949">
        <ele>797</ele>
        <time>2024-09-20T06:59:53Z</time>
      </trkpt>
      <trkpt lat="42.48816" lon="2.57948">
        <ele>796</ele>
        <time>2024-09-20T06:59:56Z</time>
      </trkpt>
      <trkpt lat="42.48819" lon="2.57947">
        <ele>796</ele>
        <time>2024-09-20T06:59:58Z</time>
      </trkpt>
      <trkpt lat="42.48823" lon="2.57947">
        <ele>796</ele>
        <time>2024-09-20T07:00:01Z</time>
      </trkpt>
      <trkpt lat="42.48826" lon="2.57947">
        <ele>797</ele>
        <time>2024-09-20T07:00:05Z</time>
      </trkpt>
      <trkpt lat="42.4883" lon="2.57945">
        <ele>797</ele>
        <time>2024-09-20T07:00:07Z</time>
      </trkpt>
      <trkpt lat="42.48834" lon="2.57945">
        <ele>796</ele>
        <time>2024-09-20T07:00:11Z</time>
      </trkpt>
      <trkpt lat="42.48835" lon="2.57949">
        <ele>795</ele>
        <time>2024-09-20T07:00:23Z</time>
      </trkpt>
      <trkpt lat="42.48835" lon="2.57953">
        <ele>794</ele>
        <time>2024-09-20T07:00:26Z</time>
      </trkpt>
      <trkpt lat="42.48834" lon="2.57957">
        <ele>793</ele>
        <time>2024-09-20T07:00:28Z</time>
      </trkpt>
      <trkpt lat="42.48833" lon="2.5796">
        <ele>793</ele>
        <time>2024-09-20T07:00:32Z</time>
      </trkpt>
      <trkpt lat="42.48835" lon="2.57964">
        <ele>790</ele>
        <time>2024-09-20T07:00:36Z</time>
      </trkpt>
      <trkpt lat="42.48837" lon="2.57965">
        <ele>789</ele>
        <time>2024-09-20T07:00:39Z</time>
      </trkpt>
      <trkpt lat="42.4884" lon="2.57967">
        <ele>789</ele>
        <time>2024-09-20T07:00:41Z</time>
      </trkpt>
      <trkpt lat="42.48841" lon="2.5797">
        <ele>787</ele>
        <time>2024-09-20T07:00:46Z</time>
      </trkpt>
      <trkpt lat="42.4884" lon="2.57973">
        <ele>787</ele>
        <time>2024-09-20T07:00:48Z</time>
      </trkpt>
      <trkpt lat="42.48839" lon="2.57977">
        <ele>785</ele>
        <time>2024-09-20T07:00:53Z</time>
      </trkpt>
      <trkpt lat="42.48838" lon="2.57982">
        <ele>784</ele>
        <time>2024-09-20T07:00:56Z</time>
      </trkpt>
      <trkpt lat="42.48839" lon="2.57985">
        <ele>781</ele>
        <time>2024-09-20T07:01:02Z</time>
      </trkpt>
      <trkpt lat="42.4884" lon="2.57989">
        <ele>781</ele>
        <time>2024-09-20T07:01:05Z</time>
      </trkpt>
      <trkpt lat="42.48842" lon="2.57992">
        <ele>781</ele>
        <time>2024-09-20T07:01:07Z</time>
      </trkpt>
      <trkpt lat="42.48844" lon="2.57995">
        <ele>778</ele>
        <time>2024-09-20T07:01:14Z</time>
      </trkpt>
      <trkpt lat="42.48846" lon="2.57999">
        <ele>778</ele>
        <time>2024-09-20T07:01:18Z</time>
      </trkpt>
      <trkpt lat="42.48848" lon="2.58001">
        <ele>777</ele>
        <time>2024-09-20T07:01:21Z</time>
      </trkpt>
      <trkpt lat="42.48851" lon="2.58002">
        <ele>776</ele>
        <time>2024-09-20T07:01:25Z</time>
      </trkpt>
      <trkpt lat="42.48854" lon="2.58003">
        <ele>775</ele>
        <time>2024-09-20T07:01:29Z</time>
      </trkpt>
      <trkpt lat="42.48855" lon="2.58007">
        <ele>773</ele>
        <time>2024-09-20T07:01:33Z</time>
      </trkpt>
      <trkpt lat="42.48856" lon="2.5801">
        <ele>773</ele>
        <time>2024-09-20T07:01:35Z</time>
      </trkpt>
      <trkpt lat="42.48857" lon="2.58014">
        <ele>770</ele>
        <time>2024-09-20T07:01:42Z</time>
      </trkpt>
      <trkpt lat="42.48855" lon="2.58015">
        <ele>769</ele>
        <time>2024-09-20T07:01:50Z</time>
      </trkpt>
      <trkpt lat="42.48854" lon="2.58018">
        <ele>769</ele>
        <time>2024-09-20T07:01:56Z</time>
      </trkpt>
      <trkpt lat="42.48853" lon="2.58022">
        <ele>767</ele>
        <time>2024-09-20T07:02:01Z</time>
      </trkpt>
      <trkpt lat="42.48853" lon="2.58026">
        <ele>766</ele>
        <time>2024-09-20T07:02:07Z</time>
      </trkpt>
      <trkpt lat="42.48851" lon="2.58028">
        <ele>766</ele>
        <time>2024-09-20T07:02:11Z</time>
      </trkpt>
      <trkpt lat="42.48849" lon="2.58031">
        <ele>765</ele>
        <time>2024-09-20T07:02:14Z</time>
      </trkpt>
      <trkpt lat="42.48848" lon="2.58036">
        <ele>764</ele>
        <time>2024-09-20T07:02:17Z</time>
      </trkpt>
      <trkpt lat="42.48847" lon="2.5804">
        <ele>764</ele>
        <time>2024-09-20T07:02:18Z</time>
      </trkpt>
      <trkpt lat="42.48844" lon="2.58042">
        <ele>762</ele>
        <time>2024-09-20T07:02:22Z</time>
      </trkpt>
      <trkpt lat="42.48841" lon="2.58043">
        <ele>762</ele>
        <time>2024-09-20T07:02:25Z</time>
      </trkpt>
      <trkpt lat="42.48838" lon="2.58044">
        <ele>762</ele>
        <time>2024-09-20T07:02:27Z</time>
      </trkpt>
      <trkpt lat="42.48835" lon="2.58043">
        <ele>761</ele>
        <time>2024-09-20T07:02:30Z</time>
      </trkpt>
      <trkpt lat="42.48832" lon="2.58044">
        <ele>760</ele>
        <time>2024-09-20T07:02:32Z</time>
      </trkpt>
      <trkpt lat="42.48829" lon="2.58045">
        <ele>758</ele>
        <time>2024-09-20T07:02:37Z</time>
      </trkpt>
      <trkpt lat="42.48826" lon="2.58047">
        <ele>758</ele>
        <time>2024-09-20T07:02:39Z</time>
      </trkpt>
      <trkpt lat="42.48824" lon="2.58048">
        <ele>757</ele>
        <time>2024-09-20T07:02:42Z</time>
      </trkpt>
      <trkpt lat="42.48821" lon="2.58048">
        <ele>756</ele>
        <time>2024-09-20T07:02:45Z</time>
      </trkpt>
      <trkpt lat="42.48818" lon="2.58049">
        <ele>757</ele>
        <time>2024-09-20T07:02:47Z</time>
      </trkpt>
      <trkpt lat="42.48816" lon="2.58051">
        <ele>757</ele>
        <time>2024-09-20T07:02:49Z</time>
      </trkpt>
      <trkpt lat="42.48813" lon="2.58053">
        <ele>756</ele>
        <time>2024-09-20T07:02:53Z</time>
      </trkpt>
      <trkpt lat="42.48811" lon="2.58056">
        <ele>755</ele>
        <time>2024-09-20T07:02:55Z</time>
      </trkpt>
      <trkpt lat="42.48809" lon="2.58059">
        <ele>754</ele>
        <time>2024-09-20T07:03:00Z</time>
      </trkpt>
      <trkpt lat="42.48806" lon="2.58062">
        <ele>754</ele>
        <time>2024-09-20T07:03:03Z</time>
      </trkpt>
      <trkpt lat="42.48804" lon="2.58065">
        <ele>753</ele>
        <time>2024-09-20T07:03:07Z</time>
      </trkpt>
      <trkpt lat="42.48803" lon="2.5807">
        <ele>752</ele>
        <time>2024-09-20T07:03:10Z</time>
      </trkpt>
      <trkpt lat="42.488" lon="2.58074">
        <ele>750</ele>
        <time>2024-09-20T07:03:14Z</time>
      </trkpt>
      <trkpt lat="42.48799" lon="2.58078">
        <ele>749</ele>
        <time>2024-09-20T07:03:17Z</time>
      </trkpt>
      <trkpt lat="42.48798" lon="2.58082">
        <ele>748</ele>
        <time>2024-09-20T07:03:20Z</time>
      </trkpt>
      <trkpt lat="42.48797" lon="2.58088">
        <ele>747</ele>
        <time>2024-09-20T07:03:25Z</time>
      </trkpt>
      <trkpt lat="42.48796" lon="2.58092">
        <ele>746</ele>
        <time>2024-09-20T07:03:27Z</time>
      </trkpt>
      <trkpt lat="42.48795" lon="2.58097">
        <ele>745</ele>
        <time>2024-09-20T07:03:31Z</time>
      </trkpt>
      <trkpt lat="42.48796" lon="2.581">
        <ele>745</ele>
        <time>2024-09-20T07:03:33Z</time>
      </trkpt>
      <trkpt lat="42.48795" lon="2.58103">
        <ele>745</ele>
        <time>2024-09-20T07:03:36Z</time>
      </trkpt>
      <trkpt lat="42.48795" lon="2.58106">
        <ele>745</ele>
        <time>2024-09-20T07:03:39Z</time>
      </trkpt>
      <trkpt lat="42.48797" lon="2.58109">
        <ele>744</ele>
        <time>2024-09-20T07:03:41Z</time>
      </trkpt>
      <trkpt lat="42.48798" lon="2.58112">
        <ele>746</ele>
        <time>2024-09-20T07:03:51Z</time>
      </trkpt>
      <trkpt lat="42.48799" lon="2.58115">
        <ele>746</ele>
        <time>2024-09-20T07:04:04Z</time>
      </trkpt>
      <trkpt lat="42.48802" lon="2.58115">
        <ele>746</ele>
        <time>2024-09-20T07:04:11Z</time>
      </trkpt>
      <trkpt lat="42.48801" lon="2.58115">
        <ele>746</ele>
        <time>2024-09-20T07:04:18Z</time>
      </trkpt>
      <trkpt lat="42.48799" lon="2.58116">
        <ele>745</ele>
        <time>2024-09-20T07:04:20Z</time>
      </trkpt>
      <trkpt lat="42.48796" lon="2.58119">
        <ele>746</ele>
        <time>2024-09-20T07:04:22Z</time>
      </trkpt>
      <trkpt lat="42.48795" lon="2.58123">
        <ele>745</ele>
        <time>2024-09-20T07:04:25Z</time>
      </trkpt>
      <trkpt lat="42.48797" lon="2.58126">
        <ele>745</ele>
        <time>2024-09-20T07:04:27Z</time>
      </trkpt>
      <trkpt lat="42.48797" lon="2.58132">
        <ele>747</ele>
        <time>2024-09-20T07:04:36Z</time>
      </trkpt>
      <trkpt lat="42.48797" lon="2.58138">
        <ele>746</ele>
        <time>2024-09-20T07:04:40Z</time>
      </trkpt>
      <trkpt lat="42.48796" lon="2.58142">
        <ele>747</ele>
        <time>2024-09-20T07:04:45Z</time>
      </trkpt>
      <trkpt lat="42.48795" lon="2.58146">
        <ele>747</ele>
        <time>2024-09-20T07:04:47Z</time>
      </trkpt>
      <trkpt lat="42.48793" lon="2.58149">
        <ele>748</ele>
        <time>2024-09-20T07:04:50Z</time>
      </trkpt>
      <trkpt lat="42.48791" lon="2.58152">
        <ele>748</ele>
        <time>2024-09-20T07:04:52Z</time>
      </trkpt>
      <trkpt lat="42.48788" lon="2.58154">
        <ele>749</ele>
        <time>2024-09-20T07:04:55Z</time>
      </trkpt>
      <trkpt lat="42.48784" lon="2.58155">
        <ele>750</ele>
        <time>2024-09-20T07:04:58Z</time>
      </trkpt>
      <trkpt lat="42.48781" lon="2.58157">
        <ele>751</ele>
        <time>2024-09-20T07:05:02Z</time>
      </trkpt>
      <trkpt lat="42.48777" lon="2.58158">
        <ele>751</ele>
        <time>2024-09-20T07:05:07Z</time>
      </trkpt>
      <trkpt lat="42.48775" lon="2.58158">
        <ele>751</ele>
        <time>2024-09-20T07:05:10Z</time>
      </trkpt>
      <trkpt lat="42.48772" lon="2.58157">
        <ele>751</ele>
        <time>2024-09-20T07:05:13Z</time>
      </trkpt>
      <trkpt lat="42.48769" lon="2.58156">
        <ele>751</ele>
        <time>2024-09-20T07:05:15Z</time>
      </trkpt>
      <trkpt lat="42.48766" lon="2.58155">
        <ele>752</ele>
        <time>2024-09-20T07:05:20Z</time>
      </trkpt>
      <trkpt lat="42.48762" lon="2.58154">
        <ele>752</ele>
        <time>2024-09-20T07:05:23Z</time>
      </trkpt>
      <trkpt lat="42.48758" lon="2.58155">
        <ele>754</ele>
        <time>2024-09-20T07:05:27Z</time>
      </trkpt>
      <trkpt lat="42.48755" lon="2.58154">
        <ele>754</ele>
        <time>2024-09-20T07:05:31Z</time>
      </trkpt>
      <trkpt lat="42.48751" lon="2.58155">
        <ele>753</ele>
        <time>2024-09-20T07:05:34Z</time>
      </trkpt>
      <trkpt lat="42.48748" lon="2.58154">
        <ele>755</ele>
        <time>2024-09-20T07:05:38Z</time>
      </trkpt>
      <trkpt lat="42.48744" lon="2.58156">
        <ele>756</ele>
        <time>2024-09-20T07:05:41Z</time>
      </trkpt>
      <trkpt lat="42.48741" lon="2.58155">
        <ele>755</ele>
        <time>2024-09-20T07:05:45Z</time>
      </trkpt>
      <trkpt lat="42.48738" lon="2.58155">
        <ele>755</ele>
        <time>2024-09-20T07:05:48Z</time>
      </trkpt>
      <trkpt lat="42.48736" lon="2.58157">
        <ele>755</ele>
        <time>2024-09-20T07:05:51Z</time>
      </trkpt>
      <trkpt lat="42.48732" lon="2.58158">
        <ele>756</ele>
        <time>2024-09-20T07:05:54Z</time>
      </trkpt>
      <trkpt lat="42.48729" lon="2.58158">
        <ele>758</ele>
        <time>2024-09-20T07:05:58Z</time>
      </trkpt>
      <trkpt lat="42.48726" lon="2.58159">
        <ele>757</ele>
        <time>2024-09-20T07:06:03Z</time>
      </trkpt>
      <trkpt lat="42.48722" lon="2.58158">
        <ele>758</ele>
        <time>2024-09-20T07:06:07Z</time>
      </trkpt>
      <trkpt lat="42.48717" lon="2.58159">
        <ele>759</ele>
        <time>2024-09-20T07:06:12Z</time>
      </trkpt>
      <trkpt lat="42.48714" lon="2.58159">
        <ele>757</ele>
        <time>2024-09-20T07:06:14Z</time>
      </trkpt>
      <trkpt lat="42.48711" lon="2.5816">
        <ele>757</ele>
        <time>2024-09-20T07:06:18Z</time>
      </trkpt>
      <trkpt lat="42.48708" lon="2.58161">
        <ele>757</ele>
        <time>2024-09-20T07:06:21Z</time>
      </trkpt>
      <trkpt lat="42.48705" lon="2.58161">
        <ele>757</ele>
        <time>2024-09-20T07:06:24Z</time>
      </trkpt>
      <trkpt lat="42.48702" lon="2.58163">
        <ele>757</ele>
        <time>2024-09-20T07:06:27Z</time>
      </trkpt>
      <trkpt lat="42.48698" lon="2.58165">
        <ele>756</ele>
        <time>2024-09-20T07:06:31Z</time>
      </trkpt>
      <trkpt lat="42.48696" lon="2.58168">
        <ele>756</ele>
        <time>2024-09-20T07:06:34Z</time>
      </trkpt>
      <trkpt lat="42.48693" lon="2.58171">
        <ele>757</ele>
        <time>2024-09-20T07:06:38Z</time>
      </trkpt>
      <trkpt lat="42.48691" lon="2.58174">
        <ele>757</ele>
        <time>2024-09-20T07:06:41Z</time>
      </trkpt>
      <trkpt lat="42.48688" lon="2.58177">
        <ele>759</ele>
        <time>2024-09-20T07:06:44Z</time>
      </trkpt>
      <trkpt lat="42.48686" lon="2.5818">
        <ele>759</ele>
        <time>2024-09-20T07:06:47Z</time>
      </trkpt>
      <trkpt lat="42.48685" lon="2.58184">
        <ele>760</ele>
        <time>2024-09-20T07:06:50Z</time>
      </trkpt>
      <trkpt lat="42.48682" lon="2.58188">
        <ele>760</ele>
        <time>2024-09-20T07:06:53Z</time>
      </trkpt>
      <trkpt lat="42.4868" lon="2.58192">
        <ele>761</ele>
        <time>2024-09-20T07:06:57Z</time>
      </trkpt>
      <trkpt lat="42.48679" lon="2.58197">
        <ele>761</ele>
        <time>2024-09-20T07:07:01Z</time>
      </trkpt>
      <trkpt lat="42.48678" lon="2.58201">
        <ele>761</ele>
        <time>2024-09-20T07:07:03Z</time>
      </trkpt>
      <trkpt lat="42.48676" lon="2.58205">
        <ele>761</ele>
        <time>2024-09-20T07:07:06Z</time>
      </trkpt>
      <trkpt lat="42.48676" lon="2.58209">
        <ele>762</ele>
        <time>2024-09-20T07:07:09Z</time>
      </trkpt>
      <trkpt lat="42.48675" lon="2.58213">
        <ele>762</ele>
        <time>2024-09-20T07:07:13Z</time>
      </trkpt>
      <trkpt lat="42.48674" lon="2.58218">
        <ele>762</ele>
        <time>2024-09-20T07:07:17Z</time>
      </trkpt>
      <trkpt lat="42.48673" lon="2.58222">
        <ele>765</ele>
        <time>2024-09-20T07:07:21Z</time>
      </trkpt>
      <trkpt lat="42.48672" lon="2.58227">
        <ele>764</ele>
        <time>2024-09-20T07:07:24Z</time>
      </trkpt>
      <trkpt lat="42.48672" lon="2.58231">
        <ele>764</ele>
        <time>2024-09-20T07:07:29Z</time>
      </trkpt>
      <trkpt lat="42.4867" lon="2.58236">
        <ele>765</ele>
        <time>2024-09-20T07:07:31Z</time>
      </trkpt>
      <trkpt lat="42.48669" lon="2.58239">
        <ele>765</ele>
        <time>2024-09-20T07:07:34Z</time>
      </trkpt>
      <trkpt lat="42.48667" lon="2.58244">
        <ele>765</ele>
        <time>2024-09-20T07:07:37Z</time>
      </trkpt>
      <trkpt lat="42.48666" lon="2.58248">
        <ele>764</ele>
        <time>2024-09-20T07:07:41Z</time>
      </trkpt>
      <trkpt lat="42.48664" lon="2.58253">
        <ele>765</ele>
        <time>2024-09-20T07:07:45Z</time>
      </trkpt>
      <trkpt lat="42.48662" lon="2.58257">
        <ele>766</ele>
        <time>2024-09-20T07:07:48Z</time>
      </trkpt>
      <trkpt lat="42.48658" lon="2.5826">
        <ele>767</ele>
        <time>2024-09-20T07:07:51Z</time>
      </trkpt>
      <trkpt lat="42.48655" lon="2.58262">
        <ele>766</ele>
        <time>2024-09-20T07:07:54Z</time>
      </trkpt>
      <trkpt lat="42.48651" lon="2.58264">
        <ele>767</ele>
        <time>2024-09-20T07:07:58Z</time>
      </trkpt>
      <trkpt lat="42.48648" lon="2.58267">
        <ele>767</ele>
        <time>2024-09-20T07:08:00Z</time>
      </trkpt>
      <trkpt lat="42.48646" lon="2.58269">
        <ele>767</ele>
        <time>2024-09-20T07:08:04Z</time>
      </trkpt>
      <trkpt lat="42.48643" lon="2.58273">
        <ele>767</ele>
        <time>2024-09-20T07:08:11Z</time>
      </trkpt>
      <trkpt lat="42.48641" lon="2.58276">
        <ele>766</ele>
        <time>2024-09-20T07:08:13Z</time>
      </trkpt>
      <trkpt lat="42.48638" lon="2.58279">
        <ele>767</ele>
        <time>2024-09-20T07:08:17Z</time>
      </trkpt>
      <trkpt lat="42.48636" lon="2.58282">
        <ele>768</ele>
        <time>2024-09-20T07:08:20Z</time>
      </trkpt>
      <trkpt lat="42.48634" lon="2.58286">
        <ele>767</ele>
        <time>2024-09-20T07:08:23Z</time>
      </trkpt>
      <trkpt lat="42.48631" lon="2.58289">
        <ele>769</ele>
        <time>2024-09-20T07:08:26Z</time>
      </trkpt>
      <trkpt lat="42.48629" lon="2.58292">
        <ele>770</ele>
        <time>2024-09-20T07:08:29Z</time>
      </trkpt>
      <trkpt lat="42.48627" lon="2.58294">
        <ele>771</ele>
        <time>2024-09-20T07:08:33Z</time>
      </trkpt>
      <trkpt lat="42.48625" lon="2.58297">
        <ele>771</ele>
        <time>2024-09-20T07:08:35Z</time>
      </trkpt>
      <trkpt lat="42.48624" lon="2.58301">
        <ele>772</ele>
        <time>2024-09-20T07:08:39Z</time>
      </trkpt>
      <trkpt lat="42.48623" lon="2.58305">
        <ele>773</ele>
        <time>2024-09-20T07:08:44Z</time>
      </trkpt>
      <trkpt lat="42.48624" lon="2.58309">
        <ele>774</ele>
        <time>2024-09-20T07:08:49Z</time>
      </trkpt>
      <trkpt lat="42.48625" lon="2.58312">
        <ele>776</ele>
        <time>2024-09-20T07:08:55Z</time>
      </trkpt>
      <trkpt lat="42.48626" lon="2.58315">
        <ele>777</ele>
        <time>2024-09-20T07:08:59Z</time>
      </trkpt>
      <trkpt lat="42.48625" lon="2.58317">
        <ele>777</ele>
        <time>2024-09-20T07:09:03Z</time>
      </trkpt>
      <trkpt lat="42.48623" lon="2.5832">
        <ele>777</ele>
        <time>2024-09-20T07:09:06Z</time>
      </trkpt>
      <trkpt lat="42.48621" lon="2.58322">
        <ele>778</ele>
        <time>2024-09-20T07:09:09Z</time>
      </trkpt>
      <trkpt lat="42.48619" lon="2.58324">
        <ele>780</ele>
        <time>2024-09-20T07:09:12Z</time>
      </trkpt>
      <trkpt lat="42.48617" lon="2.58326">
        <ele>780</ele>
        <time>2024-09-20T07:09:15Z</time>
      </trkpt>
      <trkpt lat="42.48614" lon="2.58329">
        <ele>781</ele>
        <time>2024-09-20T07:09:20Z</time>
      </trkpt>
      <trkpt lat="42.48616" lon="2.5833">
        <ele>782</ele>
        <time>2024-09-20T07:09:38Z</time>
      </trkpt>
      <trkpt lat="42.48615" lon="2.58332">
        <ele>780</ele>
        <time>2024-09-20T07:10:06Z</time>
      </trkpt>
      <trkpt lat="42.48613" lon="2.58334">
        <ele>780</ele>
        <time>2024-09-20T07:10:09Z</time>
      </trkpt>
      <trkpt lat="42.48611" lon="2.58337">
        <ele>780</ele>
        <time>2024-09-20T07:10:13Z</time>
      </trkpt>
      <trkpt lat="42.48609" lon="2.58341">
        <ele>781</ele>
        <time>2024-09-20T07:10:17Z</time>
      </trkpt>
      <trkpt lat="42.48607" lon="2.58345">
        <ele>781</ele>
        <time>2024-09-20T07:10:19Z</time>
      </trkpt>
      <trkpt lat="42.48606" lon="2.58348">
        <ele>782</ele>
        <time>2024-09-20T07:10:21Z</time>
      </trkpt>
      <trkpt lat="42.48604" lon="2.58353">
        <ele>780</ele>
        <time>2024-09-20T07:10:24Z</time>
      </trkpt>
      <trkpt lat="42.48603" lon="2.58357">
        <ele>780</ele>
        <time>2024-09-20T07:10:27Z</time>
      </trkpt>
      <trkpt lat="42.48602" lon="2.58361">
        <ele>780</ele>
        <time>2024-09-20T07:10:30Z</time>
      </trkpt>
      <trkpt lat="42.48601" lon="2.58365">
        <ele>781</ele>
        <time>2024-09-20T07:10:33Z</time>
      </trkpt>
      <trkpt lat="42.486" lon="2.58369">
        <ele>781</ele>
        <time>2024-09-20T07:10:36Z</time>
      </trkpt>
      <trkpt lat="42.48599" lon="2.58373">
        <ele>781</ele>
        <time>2024-09-20T07:10:39Z</time>
      </trkpt>
      <trkpt lat="42.48597" lon="2.58377">
        <ele>783</ele>
        <time>2024-09-20T07:10:43Z</time>
      </trkpt>
      <trkpt lat="42.48595" lon="2.5838">
        <ele>784</ele>
        <time>2024-09-20T07:10:46Z</time>
      </trkpt>
      <trkpt lat="42.48594" lon="2.58383">
        <ele>784</ele>
        <time>2024-09-20T07:10:48Z</time>
      </trkpt>
      <trkpt lat="42.48592" lon="2.58387">
        <ele>784</ele>
        <time>2024-09-20T07:10:51Z</time>
      </trkpt>
      <trkpt lat="42.48591" lon="2.58391">
        <ele>784</ele>
        <time>2024-09-20T07:10:54Z</time>
      </trkpt>
      <trkpt lat="42.48589" lon="2.58396">
        <ele>784</ele>
        <time>2024-09-20T07:10:57Z</time>
      </trkpt>
      <trkpt lat="42.48589" lon="2.584">
        <ele>785</ele>
        <time>2024-09-20T07:11:00Z</time>
      </trkpt>
      <trkpt lat="42.48588" lon="2.58404">
        <ele>784</ele>
        <time>2024-09-20T07:11:04Z</time>
      </trkpt>
      <trkpt lat="42.48588" lon="2.58408">
        <ele>786</ele>
        <time>2024-09-20T07:11:08Z</time>
      </trkpt>
      <trkpt lat="42.48587" lon="2.58412">
        <ele>785</ele>
        <time>2024-09-20T07:11:11Z</time>
      </trkpt>
      <trkpt lat="42.48586" lon="2.58417">
        <ele>786</ele>
        <time>2024-09-20T07:11:14Z</time>
      </trkpt>
      <trkpt lat="42.48585" lon="2.58421">
        <ele>786</ele>
        <time>2024-09-20T07:11:17Z</time>
      </trkpt>
      <trkpt lat="42.48583" lon="2.58425">
        <ele>786</ele>
        <time>2024-09-20T07:11:20Z</time>
      </trkpt>
      <trkpt lat="42.48582" lon="2.58429">
        <ele>787</ele>
        <time>2024-09-20T07:11:24Z</time>
      </trkpt>
      <trkpt lat="42.48581" lon="2.58432">
        <ele>787</ele>
        <time>2024-09-20T07:11:27Z</time>
      </trkpt>
      <trkpt lat="42.4858" lon="2.58436">
        <ele>787</ele>
        <time>2024-09-20T07:11:30Z</time>
      </trkpt>
      <trkpt lat="42.48579" lon="2.5844">
        <ele>787</ele>
        <time>2024-09-20T07:11:33Z</time>
      </trkpt>
      <trkpt lat="42.48578" lon="2.58445">
        <ele>788</ele>
        <time>2024-09-20T07:11:36Z</time>
      </trkpt>
      <trkpt lat="42.48577" lon="2.58449">
        <ele>789</ele>
        <time>2024-09-20T07:11:40Z</time>
      </trkpt>
      <trkpt lat="42.48576" lon="2.58453">
        <ele>789</ele>
        <time>2024-09-20T07:11:43Z</time>
      </trkpt>
      <trkpt lat="42.48575" lon="2.58457">
        <ele>789</ele>
        <time>2024-09-20T07:11:46Z</time>
      </trkpt>
      <trkpt lat="42.48574" lon="2.58461">
        <ele>790</ele>
        <time>2024-09-20T07:11:49Z</time>
      </trkpt>
      <trkpt lat="42.48573" lon="2.58466">
        <ele>790</ele>
        <time>2024-09-20T07:11:53Z</time>
      </trkpt>
      <trkpt lat="42.48573" lon="2.58471">
        <ele>791</ele>
        <time>2024-09-20T07:11:56Z</time>
      </trkpt>
      <trkpt lat="42.48572" lon="2.58476">
        <ele>791</ele>
        <time>2024-09-20T07:11:59Z</time>
      </trkpt>
      <trkpt lat="42.48571" lon="2.5848">
        <ele>792</ele>
        <time>2024-09-20T07:12:02Z</time>
      </trkpt>
      <trkpt lat="42.4857" lon="2.58485">
        <ele>792</ele>
        <time>2024-09-20T07:12:06Z</time>
      </trkpt>
      <trkpt lat="42.4857" lon="2.5849">
        <ele>792</ele>
        <time>2024-09-20T07:12:09Z</time>
      </trkpt>
      <trkpt lat="42.48569" lon="2.58495">
        <ele>793</ele>
        <time>2024-09-20T07:12:12Z</time>
      </trkpt>
      <trkpt lat="42.48568" lon="2.58499">
        <ele>793</ele>
        <time>2024-09-20T07:12:15Z</time>
      </trkpt>
      <trkpt lat="42.48568" lon="2.58503">
        <ele>793</ele>
        <time>2024-09-20T07:12:17Z</time>
      </trkpt>
      <trkpt lat="42.48567" lon="2.58506">
        <ele>794</ele>
        <time>2024-09-20T07:12:20Z</time>
      </trkpt>
      <trkpt lat="42.48566" lon="2.58511">
        <ele>794</ele>
        <time>2024-09-20T07:12:23Z</time>
      </trkpt>
      <trkpt lat="42.48565" lon="2.58515">
        <ele>794</ele>
        <time>2024-09-20T07:12:26Z</time>
      </trkpt>
      <trkpt lat="42.48564" lon="2.58519">
        <ele>794</ele>
        <time>2024-09-20T07:12:29Z</time>
      </trkpt>
      <trkpt lat="42.48563" lon="2.58523">
        <ele>795</ele>
        <time>2024-09-20T07:12:32Z</time>
      </trkpt>
      <trkpt lat="42.48562" lon="2.58527">
        <ele>795</ele>
        <time>2024-09-20T07:12:35Z</time>
      </trkpt>
      <trkpt lat="42.48561" lon="2.58531">
        <ele>795</ele>
        <time>2024-09-20T07:12:37Z</time>
      </trkpt>
      <trkpt lat="42.4856" lon="2.58535">
        <ele>796</ele>
        <time>2024-09-20T07:12:41Z</time>
      </trkpt>
      <trkpt lat="42.48559" lon="2.5854">
        <ele>796</ele>
        <time>2024-09-20T07:12:44Z</time>
      </trkpt>
      <trkpt lat="42.48559" lon="2.58544">
        <ele>796</ele>
        <time>2024-09-20T07:12:47Z</time>
      </trkpt>
      <trkpt lat="42.48558" lon="2.58548">
        <ele>796</ele>
        <time>2024-09-20T07:12:50Z</time>
      </trkpt>
      <trkpt lat="42.48557" lon="2.58553">
        <ele>796</ele>
        <time>2024-09-20T07:12:53Z</time>
      </trkpt>
      <trkpt lat="42.48556" lon="2.58557">
        <ele>797</ele>
        <time>2024-09-20T07:12:56Z</time>
      </trkpt>
      <trkpt lat="42.48555" lon="2.58561">
        <ele>797</ele>
        <time>2024-09-20T07:12:58Z</time>
      </trkpt>
      <trkpt lat="42.48553" lon="2.58565">
        <ele>797</ele>
        <time>2024-09-20T07:13:01Z</time>
      </trkpt>
      <trkpt lat="42.48552" lon="2.58569">
        <ele>797</ele>
        <time>2024-09-20T07:13:05Z</time>
      </trkpt>
      <trkpt lat="42.48551" lon="2.58573">
        <ele>797</ele>
        <time>2024-09-20T07:13:08Z</time>
      </trkpt>
      <trkpt lat="42.4855" lon="2.58577">
        <ele>799</ele>
        <time>2024-09-20T07:13:11Z</time>
      </trkpt>
      <trkpt lat="42.48548" lon="2.58582">
        <ele>798</ele>
        <time>2024-09-20T07:13:14Z</time>
      </trkpt>
      <trkpt lat="42.48547" lon="2.58586">
        <ele>799</ele>
        <time>2024-09-20T07:13:18Z</time>
      </trkpt>
      <trkpt lat="42.48545" lon="2.58591">
        <ele>800</ele>
        <time>2024-09-20T07:13:21Z</time>
      </trkpt>
      <trkpt lat="42.48544" lon="2.58596">
        <ele>800</ele>
        <time>2024-09-20T07:13:25Z</time>
      </trkpt>
      <trkpt lat="42.48543" lon="2.58601">
        <ele>800</ele>
        <time>2024-09-20T07:13:29Z</time>
      </trkpt>
      <trkpt lat="42.48543" lon="2.58605">
        <ele>800</ele>
        <time>2024-09-20T07:13:31Z</time>
      </trkpt>
      <trkpt lat="42.48543" lon="2.5861">
        <ele>800</ele>
        <time>2024-09-20T07:13:35Z</time>
      </trkpt>
      <trkpt lat="42.48543" lon="2.58614">
        <ele>801</ele>
        <time>2024-09-20T07:13:37Z</time>
      </trkpt>
      <trkpt lat="42.48543" lon="2.58619">
        <ele>800</ele>
        <time>2024-09-20T07:13:40Z</time>
      </trkpt>
      <trkpt lat="42.48543" lon="2.58624">
        <ele>800</ele>
        <time>2024-09-20T07:13:44Z</time>
      </trkpt>
      <trkpt lat="42.48544" lon="2.58628">
        <ele>800</ele>
        <time>2024-09-20T07:13:47Z</time>
      </trkpt>
      <trkpt lat="42.48544" lon="2.58633">
        <ele>800</ele>
        <time>2024-09-20T07:13:49Z</time>
      </trkpt>
      <trkpt lat="42.48544" lon="2.58637">
        <ele>801</ele>
        <time>2024-09-20T07:13:52Z</time>
      </trkpt>
      <trkpt lat="42.48544" lon="2.58641">
        <ele>801</ele>
        <time>2024-09-20T07:13:55Z</time>
      </trkpt>
      <trkpt lat="42.48543" lon="2.58646">
        <ele>802</ele>
        <time>2024-09-20T07:13:58Z</time>
      </trkpt>
      <trkpt lat="42.48543" lon="2.58651">
        <ele>801</ele>
        <time>2024-09-20T07:14:01Z</time>
      </trkpt>
      <trkpt lat="42.48542" lon="2.58655">
        <ele>801</ele>
        <time>2024-09-20T07:14:02Z</time>
      </trkpt>
      <trkpt lat="42.48541" lon="2.58659">
        <ele>801</ele>
        <time>2024-09-20T07:14:04Z</time>
      </trkpt>
      <trkpt lat="42.4854" lon="2.58662">
        <ele>801</ele>
        <time>2024-09-20T07:14:06Z</time>
      </trkpt>
      <trkpt lat="42.48539" lon="2.58666">
        <ele>801</ele>
        <time>2024-09-20T07:14:09Z</time>
      </trkpt>
      <trkpt lat="42.48538" lon="2.58669">
        <ele>802</ele>
        <time>2024-09-20T07:14:12Z</time>
      </trkpt>
      <trkpt lat="42.48537" lon="2.58674">
        <ele>801</ele>
        <time>2024-09-20T07:14:15Z</time>
      </trkpt>
      <trkpt lat="42.48536" lon="2.58678">
        <ele>801</ele>
        <time>2024-09-20T07:14:18Z</time>
      </trkpt>
      <trkpt lat="42.48536" lon="2.58682">
        <ele>802</ele>
        <time>2024-09-20T07:14:22Z</time>
      </trkpt>
      <trkpt lat="42.48535" lon="2.58687">
        <ele>802</ele>
        <time>2024-09-20T07:14:24Z</time>
      </trkpt>
      <trkpt lat="42.48534" lon="2.58691">
        <ele>802</ele>
        <time>2024-09-20T07:14:27Z</time>
      </trkpt>
      <trkpt lat="42.48533" lon="2.58696">
        <ele>802</ele>
        <time>2024-09-20T07:14:30Z</time>
      </trkpt>
      <trkpt lat="42.48531" lon="2.587">
        <ele>802</ele>
        <time>2024-09-20T07:14:33Z</time>
      </trkpt>
      <trkpt lat="42.48529" lon="2.58704">
        <ele>803</ele>
        <time>2024-09-20T07:14:36Z</time>
      </trkpt>
      <trkpt lat="42.48527" lon="2.58707">
        <ele>804</ele>
        <time>2024-09-20T07:14:39Z</time>
      </trkpt>
      <trkpt lat="42.48525" lon="2.58711">
        <ele>803</ele>
        <time>2024-09-20T07:14:42Z</time>
      </trkpt>
      <trkpt lat="42.48523" lon="2.58715">
        <ele>804</ele>
        <time>2024-09-20T07:14:45Z</time>
      </trkpt>
      <trkpt lat="42.48521" lon="2.58719">
        <ele>805</ele>
        <time>2024-09-20T07:14:49Z</time>
      </trkpt>
      <trkpt lat="42.48519" lon="2.58723">
        <ele>806</ele>
        <time>2024-09-20T07:14:52Z</time>
      </trkpt>
      <trkpt lat="42.48518" lon="2.58727">
        <ele>806</ele>
        <time>2024-09-20T07:14:55Z</time>
      </trkpt>
      <trkpt lat="42.48516" lon="2.58731">
        <ele>806</ele>
        <time>2024-09-20T07:14:58Z</time>
      </trkpt>
      <trkpt lat="42.48515" lon="2.58735">
        <ele>807</ele>
        <time>2024-09-20T07:15:01Z</time>
      </trkpt>
      <trkpt lat="42.48513" lon="2.5874">
        <ele>808</ele>
        <time>2024-09-20T07:15:04Z</time>
      </trkpt>
      <trkpt lat="42.48512" lon="2.58743">
        <ele>809</ele>
        <time>2024-09-20T07:15:06Z</time>
      </trkpt>
      <trkpt lat="42.4851" lon="2.58747">
        <ele>809</ele>
        <time>2024-09-20T07:15:09Z</time>
      </trkpt>
      <trkpt lat="42.48508" lon="2.5875">
        <ele>808</ele>
        <time>2024-09-20T07:15:12Z</time>
      </trkpt>
      <trkpt lat="42.48506" lon="2.58754">
        <ele>809</ele>
        <time>2024-09-20T07:15:15Z</time>
      </trkpt>
      <trkpt lat="42.48504" lon="2.58758">
        <ele>809</ele>
        <time>2024-09-20T07:15:18Z</time>
      </trkpt>
      <trkpt lat="42.48501" lon="2.58762">
        <ele>808</ele>
        <time>2024-09-20T07:15:22Z</time>
      </trkpt>
      <trkpt lat="42.48499" lon="2.58766">
        <ele>807</ele>
        <time>2024-09-20T07:15:25Z</time>
      </trkpt>
      <trkpt lat="42.48497" lon="2.58769">
        <ele>807</ele>
        <time>2024-09-20T07:15:27Z</time>
      </trkpt>
      <trkpt lat="42.48495" lon="2.58772">
        <ele>807</ele>
        <time>2024-09-20T07:15:29Z</time>
      </trkpt>
      <trkpt lat="42.48493" lon="2.58775">
        <ele>806</ele>
        <time>2024-09-20T07:15:32Z</time>
      </trkpt>
      <trkpt lat="42.48491" lon="2.58779">
        <ele>806</ele>
        <time>2024-09-20T07:15:35Z</time>
      </trkpt>
      <trkpt lat="42.4849" lon="2.58783">
        <ele>806</ele>
        <time>2024-09-20T07:15:38Z</time>
      </trkpt>
      <trkpt lat="42.48489" lon="2.58787">
        <ele>805</ele>
        <time>2024-09-20T07:15:40Z</time>
      </trkpt>
      <trkpt lat="42.48487" lon="2.58791">
        <ele>805</ele>
        <time>2024-09-20T07:15:43Z</time>
      </trkpt>
      <trkpt lat="42.48486" lon="2.58794">
        <ele>803</ele>
        <time>2024-09-20T07:15:45Z</time>
      </trkpt>
      <trkpt lat="42.48485" lon="2.58799">
        <ele>803</ele>
        <time>2024-09-20T07:15:48Z</time>
      </trkpt>
      <trkpt lat="42.48484" lon="2.58803">
        <ele>804</ele>
        <time>2024-09-20T07:15:51Z</time>
      </trkpt>
      <trkpt lat="42.48482" lon="2.58807">
        <ele>804</ele>
        <time>2024-09-20T07:15:53Z</time>
      </trkpt>
      <trkpt lat="42.48481" lon="2.58811">
        <ele>803</ele>
        <time>2024-09-20T07:15:56Z</time>
      </trkpt>
      <trkpt lat="42.4848" lon="2.58815">
        <ele>803</ele>
        <time>2024-09-20T07:15:58Z</time>
      </trkpt>
      <trkpt lat="42.48479" lon="2.58819">
        <ele>803</ele>
        <time>2024-09-20T07:16:01Z</time>
      </trkpt>
      <trkpt lat="42.48477" lon="2.58824">
        <ele>803</ele>
        <time>2024-09-20T07:16:04Z</time>
      </trkpt>
      <trkpt lat="42.48476" lon="2.58828">
        <ele>803</ele>
        <time>2024-09-20T07:16:07Z</time>
      </trkpt>
      <trkpt lat="42.48475" lon="2.58832">
        <ele>803</ele>
        <time>2024-09-20T07:16:09Z</time>
      </trkpt>
      <trkpt lat="42.48474" lon="2.58836">
        <ele>804</ele>
        <time>2024-09-20T07:16:11Z</time>
      </trkpt>
      <trkpt lat="42.48473" lon="2.58841">
        <ele>805</ele>
        <time>2024-09-20T07:16:14Z</time>
      </trkpt>
      <trkpt lat="42.48472" lon="2.58846">
        <ele>805</ele>
        <time>2024-09-20T07:16:17Z</time>
      </trkpt>
      <trkpt lat="42.48472" lon="2.5885">
        <ele>804</ele>
        <time>2024-09-20T07:16:19Z</time>
      </trkpt>
      <trkpt lat="42.48471" lon="2.58854">
        <ele>805</ele>
        <time>2024-09-20T07:16:22Z</time>
      </trkpt>
      <trkpt lat="42.48469" lon="2.58858">
        <ele>804</ele>
        <time>2024-09-20T07:16:24Z</time>
      </trkpt>
      <trkpt lat="42.48468" lon="2.58862">
        <ele>805</ele>
        <time>2024-09-20T07:16:27Z</time>
      </trkpt>
      <trkpt lat="42.48467" lon="2.58867">
        <ele>804</ele>
        <time>2024-09-20T07:16:30Z</time>
      </trkpt>
      <trkpt lat="42.48465" lon="2.58871">
        <ele>804</ele>
        <time>2024-09-20T07:16:33Z</time>
      </trkpt>
      <trkpt lat="42.48464" lon="2.58875">
        <ele>804</ele>
        <time>2024-09-20T07:16:35Z</time>
      </trkpt>
      <trkpt lat="42.48463" lon="2.5888">
        <ele>805</ele>
        <time>2024-09-20T07:16:38Z</time>
      </trkpt>
      <trkpt lat="42.48462" lon="2.58884">
        <ele>805</ele>
        <time>2024-09-20T07:16:41Z</time>
      </trkpt>
      <trkpt lat="42.48461" lon="2.58889">
        <ele>803</ele>
        <time>2024-09-20T07:16:44Z</time>
      </trkpt>
      <trkpt lat="42.48461" lon="2.58894">
        <ele>803</ele>
        <time>2024-09-20T07:16:47Z</time>
      </trkpt>
      <trkpt lat="42.48461" lon="2.58899">
        <ele>802</ele>
        <time>2024-09-20T07:16:49Z</time>
      </trkpt>
      <trkpt lat="42.48461" lon="2.58903">
        <ele>803</ele>
        <time>2024-09-20T07:16:52Z</time>
      </trkpt>
      <trkpt lat="42.48461" lon="2.58908">
        <ele>802</ele>
        <time>2024-09-20T07:16:55Z</time>
      </trkpt>
      <trkpt lat="42.48461" lon="2.58912">
        <ele>802</ele>
        <time>2024-09-20T07:16:57Z</time>
      </trkpt>
      <trkpt lat="42.48462" lon="2.58916">
        <ele>803</ele>
        <time>2024-09-20T07:17:00Z</time>
      </trkpt>
      <trkpt lat="42.48463" lon="2.5892">
        <ele>802</ele>
        <time>2024-09-20T07:17:02Z</time>
      </trkpt>
      <trkpt lat="42.48463" lon="2.58925">
        <ele>801</ele>
        <time>2024-09-20T07:17:04Z</time>
      </trkpt>
      <trkpt lat="42.48464" lon="2.5893">
        <ele>801</ele>
        <time>2024-09-20T07:17:07Z</time>
      </trkpt>
      <trkpt lat="42.48464" lon="2.58934">
        <ele>802</ele>
        <time>2024-09-20T07:17:09Z</time>
      </trkpt>
      <trkpt lat="42.48465" lon="2.58939">
        <ele>802</ele>
        <time>2024-09-20T07:17:12Z</time>
      </trkpt>
      <trkpt lat="42.48465" lon="2.58943">
        <ele>804</ele>
        <time>2024-09-20T07:17:15Z</time>
      </trkpt>
      <trkpt lat="42.48466" lon="2.58947">
        <ele>803</ele>
        <time>2024-09-20T07:17:18Z</time>
      </trkpt>
      <trkpt lat="42.48466" lon="2.58952">
        <ele>803</ele>
        <time>2024-09-20T07:17:21Z</time>
      </trkpt>
      <trkpt lat="42.48467" lon="2.58956">
        <ele>803</ele>
        <time>2024-09-20T07:17:23Z</time>
      </trkpt>
      <trkpt lat="42.48467" lon="2.58961">
        <ele>804</ele>
        <time>2024-09-20T07:17:26Z</time>
      </trkpt>
      <trkpt lat="42.48468" lon="2.58966">
        <ele>803</ele>
        <time>2024-09-20T07:17:29Z</time>
      </trkpt>
      <trkpt lat="42.48468" lon="2.58971">
        <ele>803</ele>
        <time>2024-09-20T07:17:32Z</time>
      </trkpt>
      <trkpt lat="42.48469" lon="2.58975">
        <ele>804</ele>
        <time>2024-09-20T07:17:35Z</time>
      </trkpt>
      <trkpt lat="42.48467" lon="2.58978">
        <ele>804</ele>
        <time>2024-09-20T07:17:38Z</time>
      </trkpt>
      <trkpt lat="42.48465" lon="2.58981">
        <ele>804</ele>
        <time>2024-09-20T07:17:41Z</time>
      </trkpt>
      <trkpt lat="42.4846" lon="2.58984">
        <ele>804</ele>
        <time>2024-09-20T07:17:42Z</time>
      </trkpt>
      <trkpt lat="42.48457" lon="2.58987">
        <ele>803</ele>
        <time>2024-09-20T07:17:45Z</time>
      </trkpt>
      <trkpt lat="42.48454" lon="2.5899">
        <ele>803</ele>
        <time>2024-09-20T07:17:47Z</time>
      </trkpt>
      <trkpt lat="42.48452" lon="2.58994">
        <ele>802</ele>
        <time>2024-09-20T07:17:50Z</time>
      </trkpt>
      <trkpt lat="42.48449" lon="2.58997">
        <ele>803</ele>
        <time>2024-09-20T07:17:53Z</time>
      </trkpt>
      <trkpt lat="42.48447" lon="2.59">
        <ele>803</ele>
        <time>2024-09-20T07:17:55Z</time>
      </trkpt>
      <trkpt lat="42.48445" lon="2.59003">
        <ele>802</ele>
        <time>2024-09-20T07:17:57Z</time>
      </trkpt>
      <trkpt lat="42.48443" lon="2.59006">
        <ele>802</ele>
        <time>2024-09-20T07:17:59Z</time>
      </trkpt>
      <trkpt lat="42.4844" lon="2.59009">
        <ele>802</ele>
        <time>2024-09-20T07:18:02Z</time>
      </trkpt>
      <trkpt lat="42.48438" lon="2.59012">
        <ele>801</ele>
        <time>2024-09-20T07:18:05Z</time>
      </trkpt>
      <trkpt lat="42.48437" lon="2.59017">
        <ele>800</ele>
        <time>2024-09-20T07:18:08Z</time>
      </trkpt>
      <trkpt lat="42.48434" lon="2.5902">
        <ele>801</ele>
        <time>2024-09-20T07:18:10Z</time>
      </trkpt>
      <trkpt lat="42.48431" lon="2.59023">
        <ele>800</ele>
        <time>2024-09-20T07:18:13Z</time>
      </trkpt>
      <trkpt lat="42.48429" lon="2.59027">
        <ele>800</ele>
        <time>2024-09-20T07:18:15Z</time>
      </trkpt>
      <trkpt lat="42.48426" lon="2.59029">
        <ele>800</ele>
        <time>2024-09-20T07:18:17Z</time>
      </trkpt>
      <trkpt lat="42.48423" lon="2.59032">
        <ele>800</ele>
        <time>2024-09-20T07:18:20Z</time>
      </trkpt>
      <trkpt lat="42.4842" lon="2.59035">
        <ele>800</ele>
        <time>2024-09-20T07:18:22Z</time>
      </trkpt>
      <trkpt lat="42.48417" lon="2.59038">
        <ele>800</ele>
        <time>2024-09-20T07:18:25Z</time>
      </trkpt>
      <trkpt lat="42.48414" lon="2.59041">
        <ele>800</ele>
        <time>2024-09-20T07:18:28Z</time>
      </trkpt>
      <trkpt lat="42.48412" lon="2.59044">
        <ele>800</ele>
        <time>2024-09-20T07:18:30Z</time>
      </trkpt>
      <trkpt lat="42.4841" lon="2.59047">
        <ele>799</ele>
        <time>2024-09-20T07:18:32Z</time>
      </trkpt>
      <trkpt lat="42.48408" lon="2.5905">
        <ele>799</ele>
        <time>2024-09-20T07:18:34Z</time>
      </trkpt>
      <trkpt lat="42.48406" lon="2.59054">
        <ele>799</ele>
        <time>2024-09-20T07:18:37Z</time>
      </trkpt>
      <trkpt lat="42.48404" lon="2.59057">
        <ele>798</ele>
        <time>2024-09-20T07:18:39Z</time>
      </trkpt>
      <trkpt lat="42.48402" lon="2.5906">
        <ele>798</ele>
        <time>2024-09-20T07:18:41Z</time>
      </trkpt>
      <trkpt lat="42.484" lon="2.59064">
        <ele>798</ele>
        <time>2024-09-20T07:18:44Z</time>
      </trkpt>
      <trkpt lat="42.48397" lon="2.59068">
        <ele>797</ele>
        <time>2024-09-20T07:18:47Z</time>
      </trkpt>
      <trkpt lat="42.48394" lon="2.59072">
        <ele>797</ele>
        <time>2024-09-20T07:18:50Z</time>
      </trkpt>
      <trkpt lat="42.48392" lon="2.59076">
        <ele>796</ele>
        <time>2024-09-20T07:18:53Z</time>
      </trkpt>
      <trkpt lat="42.4839" lon="2.59079">
        <ele>796</ele>
        <time>2024-09-20T07:18:55Z</time>
      </trkpt>
      <trkpt lat="42.48387" lon="2.59083">
        <ele>796</ele>
        <time>2024-09-20T07:18:58Z</time>
      </trkpt>
      <trkpt lat="42.48384" lon="2.59087">
        <ele>797</ele>
        <time>2024-09-20T07:19:01Z</time>
      </trkpt>
      <trkpt lat="42.48383" lon="2.59092">
        <ele>797</ele>
        <time>2024-09-20T07:19:04Z</time>
      </trkpt>
      <trkpt lat="42.48381" lon="2.59096">
        <ele>796</ele>
        <time>2024-09-20T07:19:07Z</time>
      </trkpt>
      <trkpt lat="42.4838" lon="2.591">
        <ele>796</ele>
        <time>2024-09-20T07:19:10Z</time>
      </trkpt>
      <trkpt lat="42.48378" lon="2.59103">
        <ele>796</ele>
        <time>2024-09-20T07:19:12Z</time>
      </trkpt>
      <trkpt lat="42.48377" lon="2.59107">
        <ele>795</ele>
        <time>2024-09-20T07:19:14Z</time>
      </trkpt>
      <trkpt lat="42.48375" lon="2.59111">
        <ele>795</ele>
        <time>2024-09-20T07:19:17Z</time>
      </trkpt>
      <trkpt lat="42.48373" lon="2.59114">
        <ele>796</ele>
        <time>2024-09-20T07:19:19Z</time>
      </trkpt>
      <trkpt lat="42.48372" lon="2.59118">
        <ele>795</ele>
        <time>2024-09-20T07:19:21Z</time>
      </trkpt>
      <trkpt lat="42.48371" lon="2.59121">
        <ele>795</ele>
        <time>2024-09-20T07:19:23Z</time>
      </trkpt>
      <trkpt lat="42.4837" lon="2.59125">
        <ele>794</ele>
        <time>2024-09-20T07:19:25Z</time>
      </trkpt>
      <trkpt lat="42.48368" lon="2.59129">
        <ele>795</ele>
        <time>2024-09-20T07:19:27Z</time>
      </trkpt>
      <trkpt lat="42.48366" lon="2.59132">
        <ele>794</ele>
        <time>2024-09-20T07:19:30Z</time>
      </trkpt>
      <trkpt lat="42.48365" lon="2.59136">
        <ele>794</ele>
        <time>2024-09-20T07:19:32Z</time>
      </trkpt>
      <trkpt lat="42.48364" lon="2.5914">
        <ele>794</ele>
        <time>2024-09-20T07:19:34Z</time>
      </trkpt>
      <trkpt lat="42.48363" lon="2.59143">
        <ele>794</ele>
        <time>2024-09-20T07:19:37Z</time>
      </trkpt>
      <trkpt lat="42.48361" lon="2.59146">
        <ele>795</ele>
        <time>2024-09-20T07:19:40Z</time>
      </trkpt>
      <trkpt lat="42.48359" lon="2.5915">
        <ele>793</ele>
        <time>2024-09-20T07:19:42Z</time>
      </trkpt>
      <trkpt lat="42.48356" lon="2.59154">
        <ele>793</ele>
        <time>2024-09-20T07:19:45Z</time>
      </trkpt>
      <trkpt lat="42.48354" lon="2.59158">
        <ele>793</ele>
        <time>2024-09-20T07:19:49Z</time>
      </trkpt>
      <trkpt lat="42.48352" lon="2.59162">
        <ele>792</ele>
        <time>2024-09-20T07:19:51Z</time>
      </trkpt>
      <trkpt lat="42.48349" lon="2.59165">
        <ele>793</ele>
        <time>2024-09-20T07:19:54Z</time>
      </trkpt>
      <trkpt lat="42.48347" lon="2.59168">
        <ele>792</ele>
        <time>2024-09-20T07:19:57Z</time>
      </trkpt>
      <trkpt lat="42.48345" lon="2.59173">
        <ele>792</ele>
        <time>2024-09-20T07:19:59Z</time>
      </trkpt>
      <trkpt lat="42.48342" lon="2.59177">
        <ele>792</ele>
        <time>2024-09-20T07:20:03Z</time>
      </trkpt>
      <trkpt lat="42.48339" lon="2.59181">
        <ele>791</ele>
        <time>2024-09-20T07:20:06Z</time>
      </trkpt>
      <trkpt lat="42.48337" lon="2.59184">
        <ele>790</ele>
        <time>2024-09-20T07:20:08Z</time>
      </trkpt>
      <trkpt lat="42.48334" lon="2.59188">
        <ele>789</ele>
        <time>2024-09-20T07:20:11Z</time>
      </trkpt>
      <trkpt lat="42.48332" lon="2.59192">
        <ele>789</ele>
        <time>2024-09-20T07:20:14Z</time>
      </trkpt>
      <trkpt lat="42.4833" lon="2.59195">
        <ele>788</ele>
        <time>2024-09-20T07:20:16Z</time>
      </trkpt>
      <trkpt lat="42.48327" lon="2.59198">
        <ele>787</ele>
        <time>2024-09-20T07:20:19Z</time>
      </trkpt>
      <trkpt lat="42.48324" lon="2.59201">
        <ele>788</ele>
        <time>2024-09-20T07:20:22Z</time>
      </trkpt>
      <trkpt lat="42.48321" lon="2.59204">
        <ele>787</ele>
        <time>2024-09-20T07:20:25Z</time>
      </trkpt>
      <trkpt lat="42.48318" lon="2.59206">
        <ele>787</ele>
        <time>2024-09-20T07:20:26Z</time>
      </trkpt>
      <trkpt lat="42.48315" lon="2.59209">
        <ele>786</ele>
        <time>2024-09-20T07:20:29Z</time>
      </trkpt>
      <trkpt lat="42.48312" lon="2.59211">
        <ele>786</ele>
        <time>2024-09-20T07:20:31Z</time>
      </trkpt>
      <trkpt lat="42.48309" lon="2.59213">
        <ele>787</ele>
        <time>2024-09-20T07:20:34Z</time>
      </trkpt>
      <trkpt lat="42.48306" lon="2.59216">
        <ele>787</ele>
        <time>2024-09-20T07:20:36Z</time>
      </trkpt>
      <trkpt lat="42.48303" lon="2.59218">
        <ele>786</ele>
        <time>2024-09-20T07:20:38Z</time>
      </trkpt>
      <trkpt lat="42.483" lon="2.5922">
        <ele>786</ele>
        <time>2024-09-20T07:20:40Z</time>
      </trkpt>
      <trkpt lat="42.48297" lon="2.59221">
        <ele>785</ele>
        <time>2024-09-20T07:20:42Z</time>
      </trkpt>
      <trkpt lat="42.48294" lon="2.59223">
        <ele>785</ele>
        <time>2024-09-20T07:20:44Z</time>
      </trkpt>
      <trkpt lat="42.48292" lon="2.59225">
        <ele>784</ele>
        <time>2024-09-20T07:20:46Z</time>
      </trkpt>
      <trkpt lat="42.48289" lon="2.59227">
        <ele>784</ele>
        <time>2024-09-20T07:20:49Z</time>
      </trkpt>
      <trkpt lat="42.48287" lon="2.59229">
        <ele>784</ele>
        <time>2024-09-20T07:20:52Z</time>
      </trkpt>
      <trkpt lat="42.48284" lon="2.59231">
        <ele>785</ele>
        <time>2024-09-20T07:20:54Z</time>
      </trkpt>
      <trkpt lat="42.48281" lon="2.59234">
        <ele>784</ele>
        <time>2024-09-20T07:20:57Z</time>
      </trkpt>
      <trkpt lat="42.48279" lon="2.59237">
        <ele>785</ele>
        <time>2024-09-20T07:20:59Z</time>
      </trkpt>
      <trkpt lat="42.48277" lon="2.5924">
        <ele>784</ele>
        <time>2024-09-20T07:21:02Z</time>
      </trkpt>
      <trkpt lat="42.48274" lon="2.59244">
        <ele>783</ele>
        <time>2024-09-20T07:21:05Z</time>
      </trkpt>
      <trkpt lat="42.48272" lon="2.59248">
        <ele>784</ele>
        <time>2024-09-20T07:21:08Z</time>
      </trkpt>
      <trkpt lat="42.4827" lon="2.59252">
        <ele>783</ele>
        <time>2024-09-20T07:21:11Z</time>
      </trkpt>
      <trkpt lat="42.48269" lon="2.59256">
        <ele>783</ele>
        <time>2024-09-20T07:21:13Z</time>
      </trkpt>
      <trkpt lat="42.48267" lon="2.5926">
        <ele>782</ele>
        <time>2024-09-20T07:21:16Z</time>
      </trkpt>
      <trkpt lat="42.48266" lon="2.59265">
        <ele>782</ele>
        <time>2024-09-20T07:21:19Z</time>
      </trkpt>
      <trkpt lat="42.48264" lon="2.59268">
        <ele>782</ele>
        <time>2024-09-20T07:21:21Z</time>
      </trkpt>
      <trkpt lat="42.48263" lon="2.59272">
        <ele>781</ele>
        <time>2024-09-20T07:21:24Z</time>
      </trkpt>
      <trkpt lat="42.48262" lon="2.59277">
        <ele>781</ele>
        <time>2024-09-20T07:21:27Z</time>
      </trkpt>
      <trkpt lat="42.48261" lon="2.59281">
        <ele>781</ele>
        <time>2024-09-20T07:21:30Z</time>
      </trkpt>
      <trkpt lat="42.4826" lon="2.59285">
        <ele>781</ele>
        <time>2024-09-20T07:21:32Z</time>
      </trkpt>
      <trkpt lat="42.48259" lon="2.5929">
        <ele>781</ele>
        <time>2024-09-20T07:21:35Z</time>
      </trkpt>
      <trkpt lat="42.48258" lon="2.59295">
        <ele>780</ele>
        <time>2024-09-20T07:21:38Z</time>
      </trkpt>
      <trkpt lat="42.48257" lon="2.59299">
        <ele>780</ele>
        <time>2024-09-20T07:21:40Z</time>
      </trkpt>
      <trkpt lat="42.48256" lon="2.59303">
        <ele>780</ele>
        <time>2024-09-20T07:21:41Z</time>
      </trkpt>
      <trkpt lat="42.48255" lon="2.59306">
        <ele>779</ele>
        <time>2024-09-20T07:21:44Z</time>
      </trkpt>
      <trkpt lat="42.48254" lon="2.5931">
        <ele>779</ele>
        <time>2024-09-20T07:21:46Z</time>
      </trkpt>
      <trkpt lat="42.48253" lon="2.59314">
        <ele>778</ele>
        <time>2024-09-20T07:21:49Z</time>
      </trkpt>
      <trkpt lat="42.48253" lon="2.59318">
        <ele>778</ele>
        <time>2024-09-20T07:21:53Z</time>
      </trkpt>
      <trkpt lat="42.48253" lon="2.59322">
        <ele>779</ele>
        <time>2024-09-20T07:21:54Z</time>
      </trkpt>
      <trkpt lat="42.48253" lon="2.59327">
        <ele>778</ele>
        <time>2024-09-20T07:21:57Z</time>
      </trkpt>
      <trkpt lat="42.48252" lon="2.59331">
        <ele>779</ele>
        <time>2024-09-20T07:21:59Z</time>
      </trkpt>
      <trkpt lat="42.48251" lon="2.59336">
        <ele>779</ele>
        <time>2024-09-20T07:22:02Z</time>
      </trkpt>
      <trkpt lat="42.4825" lon="2.59339">
        <ele>778</ele>
        <time>2024-09-20T07:22:04Z</time>
      </trkpt>
      <trkpt lat="42.48249" lon="2.59344">
        <ele>777</ele>
        <time>2024-09-20T07:22:07Z</time>
      </trkpt>
      <trkpt lat="42.48247" lon="2.59347">
        <ele>777</ele>
        <time>2024-09-20T07:22:09Z</time>
      </trkpt>
      <trkpt lat="42.48245" lon="2.59351">
        <ele>777</ele>
        <time>2024-09-20T07:22:12Z</time>
      </trkpt>
      <trkpt lat="42.48243" lon="2.59355">
        <ele>776</ele>
        <time>2024-09-20T07:22:15Z</time>
      </trkpt>
      <trkpt lat="42.48241" lon="2.59358">
        <ele>776</ele>
        <time>2024-09-20T07:22:17Z</time>
      </trkpt>
      <trkpt lat="42.48239" lon="2.59362">
        <ele>775</ele>
        <time>2024-09-20T07:22:20Z</time>
      </trkpt>
      <trkpt lat="42.48236" lon="2.59364">
        <ele>775</ele>
        <time>2024-09-20T07:22:22Z</time>
      </trkpt>
      <trkpt lat="42.48234" lon="2.59367">
        <ele>774</ele>
        <time>2024-09-20T07:22:24Z</time>
      </trkpt>
      <trkpt lat="42.48232" lon="2.5937">
        <ele>775</ele>
        <time>2024-09-20T07:22:26Z</time>
      </trkpt>
      <trkpt lat="42.4823" lon="2.59372">
        <ele>774</ele>
        <time>2024-09-20T07:22:28Z</time>
      </trkpt>
      <trkpt lat="42.48227" lon="2.59374">
        <ele>774</ele>
        <time>2024-09-20T07:22:30Z</time>
      </trkpt>
      <trkpt lat="42.48225" lon="2.59377">
        <ele>773</ele>
        <time>2024-09-20T07:22:32Z</time>
      </trkpt>
      <trkpt lat="42.48222" lon="2.5938">
        <ele>774</ele>
        <time>2024-09-20T07:22:34Z</time>
      </trkpt>
      <trkpt lat="42.4822" lon="2.59381">
        <ele>774</ele>
        <time>2024-09-20T07:22:35Z</time>
      </trkpt>
      <trkpt lat="42.48217" lon="2.59383">
        <ele>773</ele>
        <time>2024-09-20T07:22:38Z</time>
      </trkpt>
      <trkpt lat="42.48214" lon="2.59385">
        <ele>774</ele>
        <time>2024-09-20T07:22:40Z</time>
      </trkpt>
      <trkpt lat="42.48211" lon="2.59388">
        <ele>774</ele>
        <time>2024-09-20T07:22:42Z</time>
      </trkpt>
      <trkpt lat="42.48208" lon="2.59389">
        <ele>773</ele>
        <time>2024-09-20T07:22:45Z</time>
      </trkpt>
      <trkpt lat="42.48206" lon="2.59391">
        <ele>773</ele>
        <time>2024-09-20T07:22:47Z</time>
      </trkpt>
      <trkpt lat="42.48202" lon="2.59393">
        <ele>772</ele>
        <time>2024-09-20T07:22:50Z</time>
      </trkpt>
      <trkpt lat="42.48198" lon="2.59394">
        <ele>771</ele>
        <time>2024-09-20T07:22:53Z</time>
      </trkpt>
      <trkpt lat="42.48194" lon="2.59395">
        <ele>770</ele>
        <time>2024-09-20T07:22:56Z</time>
      </trkpt>
      <trkpt lat="42.48191" lon="2.59396">
        <ele>769</ele>
        <time>2024-09-20T07:22:59Z</time>
      </trkpt>
      <trkpt lat="42.48187" lon="2.59398">
        <ele>769</ele>
        <time>2024-09-20T07:23:02Z</time>
      </trkpt>
      <trkpt lat="42.48184" lon="2.594">
        <ele>768</ele>
        <time>2024-09-20T07:23:05Z</time>
      </trkpt>
      <trkpt lat="42.48181" lon="2.59401">
        <ele>767</ele>
        <time>2024-09-20T07:23:08Z</time>
      </trkpt>
      <trkpt lat="42.48177" lon="2.59403">
        <ele>768</ele>
        <time>2024-09-20T07:23:10Z</time>
      </trkpt>
      <trkpt lat="42.48173" lon="2.59405">
        <ele>767</ele>
        <time>2024-09-20T07:23:13Z</time>
      </trkpt>
      <trkpt lat="42.4817" lon="2.59407">
        <ele>767</ele>
        <time>2024-09-20T07:23:16Z</time>
      </trkpt>
      <trkpt lat="42.48167" lon="2.59409">
        <ele>767</ele>
        <time>2024-09-20T07:23:18Z</time>
      </trkpt>
      <trkpt lat="42.48164" lon="2.5941">
        <ele>767</ele>
        <time>2024-09-20T07:23:21Z</time>
      </trkpt>
      <trkpt lat="42.4816" lon="2.59412">
        <ele>766</ele>
        <time>2024-09-20T07:23:24Z</time>
      </trkpt>
      <trkpt lat="42.48157" lon="2.59413">
        <ele>766</ele>
        <time>2024-09-20T07:23:27Z</time>
      </trkpt>
      <trkpt lat="42.48154" lon="2.59415">
        <ele>766</ele>
        <time>2024-09-20T07:23:29Z</time>
      </trkpt>
      <trkpt lat="42.4815" lon="2.59417">
        <ele>766</ele>
        <time>2024-09-20T07:23:32Z</time>
      </trkpt>
      <trkpt lat="42.48148" lon="2.5942">
        <ele>765</ele>
        <time>2024-09-20T07:23:35Z</time>
      </trkpt>
      <trkpt lat="42.48146" lon="2.59424">
        <ele>765</ele>
        <time>2024-09-20T07:23:38Z</time>
      </trkpt>
      <trkpt lat="42.48144" lon="2.59429">
        <ele>765</ele>
        <time>2024-09-20T07:23:41Z</time>
      </trkpt>
      <trkpt lat="42.48143" lon="2.59432">
        <ele>764</ele>
        <time>2024-09-20T07:23:46Z</time>
      </trkpt>
      <trkpt lat="42.48142" lon="2.59437">
        <ele>764</ele>
        <time>2024-09-20T07:23:49Z</time>
      </trkpt>
      <trkpt lat="42.48142" lon="2.59441">
        <ele>763</ele>
        <time>2024-09-20T07:23:52Z</time>
      </trkpt>
      <trkpt lat="42.48141" lon="2.59446">
        <ele>764</ele>
        <time>2024-09-20T07:23:54Z</time>
      </trkpt>
      <trkpt lat="42.4814" lon="2.5945">
        <ele>763</ele>
        <time>2024-09-20T07:23:57Z</time>
      </trkpt>
      <trkpt lat="42.4814" lon="2.59454">
        <ele>762</ele>
        <time>2024-09-20T07:24:00Z</time>
      </trkpt>
      <trkpt lat="42.48139" lon="2.59459">
        <ele>762</ele>
        <time>2024-09-20T07:24:03Z</time>
      </trkpt>
      <trkpt lat="42.48136" lon="2.59463">
        <ele>762</ele>
        <time>2024-09-20T07:24:06Z</time>
      </trkpt>
      <trkpt lat="42.48134" lon="2.59467">
        <ele>762</ele>
        <time>2024-09-20T07:24:08Z</time>
      </trkpt>
      <trkpt lat="42.48132" lon="2.5947">
        <ele>763</ele>
        <time>2024-09-20T07:24:10Z</time>
      </trkpt>
      <trkpt lat="42.4813" lon="2.59473">
        <ele>762</ele>
        <time>2024-09-20T07:24:12Z</time>
      </trkpt>
      <trkpt lat="42.48129" lon="2.59477">
        <ele>762</ele>
        <time>2024-09-20T07:24:14Z</time>
      </trkpt>
      <trkpt lat="42.48128" lon="2.59481">
        <ele>761</ele>
        <time>2024-09-20T07:24:16Z</time>
      </trkpt>
      <trkpt lat="42.48127" lon="2.59484">
        <ele>761</ele>
        <time>2024-09-20T07:24:18Z</time>
      </trkpt>
      <trkpt lat="42.48126" lon="2.59488">
        <ele>762</ele>
        <time>2024-09-20T07:24:20Z</time>
      </trkpt>
      <trkpt lat="42.48125" lon="2.59492">
        <ele>761</ele>
        <time>2024-09-20T07:24:23Z</time>
      </trkpt>
      <trkpt lat="42.48124" lon="2.59497">
        <ele>760</ele>
        <time>2024-09-20T07:24:26Z</time>
      </trkpt>
      <trkpt lat="42.48124" lon="2.59502">
        <ele>759</ele>
        <time>2024-09-20T07:24:29Z</time>
      </trkpt>
      <trkpt lat="42.48122" lon="2.59505">
        <ele>759</ele>
        <time>2024-09-20T07:24:31Z</time>
      </trkpt>
      <trkpt lat="42.48121" lon="2.5951">
        <ele>759</ele>
        <time>2024-09-20T07:24:34Z</time>
      </trkpt>
      <trkpt lat="42.48121" lon="2.59515">
        <ele>760</ele>
        <time>2024-09-20T07:24:37Z</time>
      </trkpt>
      <trkpt lat="42.4812" lon="2.5952">
        <ele>759</ele>
        <time>2024-09-20T07:24:39Z</time>
      </trkpt>
      <trkpt lat="42.48119" lon="2.59524">
        <ele>759</ele>
        <time>2024-09-20T07:24:42Z</time>
      </trkpt>
      <trkpt lat="42.4812" lon="2.59528">
        <ele>757</ele>
        <time>2024-09-20T07:24:45Z</time>
      </trkpt>
      <trkpt lat="42.4812" lon="2.59532">
        <ele>756</ele>
        <time>2024-09-20T07:24:48Z</time>
      </trkpt>
      <trkpt lat="42.48119" lon="2.59535">
        <ele>757</ele>
        <time>2024-09-20T07:24:51Z</time>
      </trkpt>
      <trkpt lat="42.48118" lon="2.59539">
        <ele>756</ele>
        <time>2024-09-20T07:24:53Z</time>
      </trkpt>
      <trkpt lat="42.48118" lon="2.59543">
        <ele>756</ele>
        <time>2024-09-20T07:24:55Z</time>
      </trkpt>
      <trkpt lat="42.48117" lon="2.59547">
        <ele>756</ele>
        <time>2024-09-20T07:24:58Z</time>
      </trkpt>
      <trkpt lat="42.48115" lon="2.59551">
        <ele>756</ele>
        <time>2024-09-20T07:25:00Z</time>
      </trkpt>
      <trkpt lat="42.48114" lon="2.59554">
        <ele>756</ele>
        <time>2024-09-20T07:25:03Z</time>
      </trkpt>
      <trkpt lat="42.48113" lon="2.59558">
        <ele>756</ele>
        <time>2024-09-20T07:25:05Z</time>
      </trkpt>
      <trkpt lat="42.48112" lon="2.59562">
        <ele>756</ele>
        <time>2024-09-20T07:25:08Z</time>
      </trkpt>
      <trkpt lat="42.4811" lon="2.59566">
        <ele>757</ele>
        <time>2024-09-20T07:25:11Z</time>
      </trkpt>
      <trkpt lat="42.48108" lon="2.5957">
        <ele>757</ele>
        <time>2024-09-20T07:25:13Z</time>
      </trkpt>
      <trkpt lat="42.48107" lon="2.59575">
        <ele>757</ele>
        <time>2024-09-20T07:25:17Z</time>
      </trkpt>
      <trkpt lat="42.48106" lon="2.59581">
        <ele>757</ele>
        <time>2024-09-20T07:25:20Z</time>
      </trkpt>
      <trkpt lat="42.48105" lon="2.59585">
        <ele>756</ele>
        <time>2024-09-20T07:25:23Z</time>
      </trkpt>
      <trkpt lat="42.48102" lon="2.59589">
        <ele>757</ele>
        <time>2024-09-20T07:25:25Z</time>
      </trkpt>
      <trkpt lat="42.48101" lon="2.59593">
        <ele>755</ele>
        <time>2024-09-20T07:25:28Z</time>
      </trkpt>
      <trkpt lat="42.48098" lon="2.59597">
        <ele>754</ele>
        <time>2024-09-20T07:25:31Z</time>
      </trkpt>
      <trkpt lat="42.48095" lon="2.59599">
        <ele>755</ele>
        <time>2024-09-20T07:25:33Z</time>
      </trkpt>
      <trkpt lat="42.48093" lon="2.59602">
        <ele>755</ele>
        <time>2024-09-20T07:25:35Z</time>
      </trkpt>
      <trkpt lat="42.48092" lon="2.59606">
        <ele>754</ele>
        <time>2024-09-20T07:25:37Z</time>
      </trkpt>
      <trkpt lat="42.48091" lon="2.59609">
        <ele>754</ele>
        <time>2024-09-20T07:25:39Z</time>
      </trkpt>
      <trkpt lat="42.4809" lon="2.59614">
        <ele>754</ele>
        <time>2024-09-20T07:25:42Z</time>
      </trkpt>
      <trkpt lat="42.48089" lon="2.59619">
        <ele>752</ele>
        <time>2024-09-20T07:25:46Z</time>
      </trkpt>
      <trkpt lat="42.48089" lon="2.59624">
        <ele>753</ele>
        <time>2024-09-20T07:25:49Z</time>
      </trkpt>
      <trkpt lat="42.48088" lon="2.59629">
        <ele>752</ele>
        <time>2024-09-20T07:25:52Z</time>
      </trkpt>
      <trkpt lat="42.48088" lon="2.59633">
        <ele>752</ele>
        <time>2024-09-20T07:25:55Z</time>
      </trkpt>
      <trkpt lat="42.48087" lon="2.59636">
        <ele>752</ele>
        <time>2024-09-20T07:25:57Z</time>
      </trkpt>
      <trkpt lat="42.48086" lon="2.59641">
        <ele>752</ele>
        <time>2024-09-20T07:26:00Z</time>
      </trkpt>
      <trkpt lat="42.48086" lon="2.59645">
        <ele>752</ele>
        <time>2024-09-20T07:26:02Z</time>
      </trkpt>
      <trkpt lat="42.48085" lon="2.59649">
        <ele>752</ele>
        <time>2024-09-20T07:26:06Z</time>
      </trkpt>
      <trkpt lat="42.48085" lon="2.59653">
        <ele>751</ele>
        <time>2024-09-20T07:26:08Z</time>
      </trkpt>
      <trkpt lat="42.48085" lon="2.59657">
        <ele>751</ele>
        <time>2024-09-20T07:26:10Z</time>
      </trkpt>
      <trkpt lat="42.48085" lon="2.59662">
        <ele>751</ele>
        <time>2024-09-20T07:26:13Z</time>
      </trkpt>
      <trkpt lat="42.48084" lon="2.59666">
        <ele>751</ele>
        <time>2024-09-20T07:26:16Z</time>
      </trkpt>
      <trkpt lat="42.48085" lon="2.5967">
        <ele>750</ele>
        <time>2024-09-20T07:26:19Z</time>
      </trkpt>
      <trkpt lat="42.48085" lon="2.59676">
        <ele>751</ele>
        <time>2024-09-20T07:26:22Z</time>
      </trkpt>
      <trkpt lat="42.48085" lon="2.5968">
        <ele>751</ele>
        <time>2024-09-20T07:26:24Z</time>
      </trkpt>
      <trkpt lat="42.48085" lon="2.59684">
        <ele>750</ele>
        <time>2024-09-20T07:26:27Z</time>
      </trkpt>
      <trkpt lat="42.48085" lon="2.59688">
        <ele>751</ele>
        <time>2024-09-20T07:26:29Z</time>
      </trkpt>
      <trkpt lat="42.48084" lon="2.59693">
        <ele>750</ele>
        <time>2024-09-20T07:26:31Z</time>
      </trkpt>
      <trkpt lat="42.48084" lon="2.59697">
        <ele>751</ele>
        <time>2024-09-20T07:26:34Z</time>
      </trkpt>
      <trkpt lat="42.48083" lon="2.59701">
        <ele>751</ele>
        <time>2024-09-20T07:26:36Z</time>
      </trkpt>
      <trkpt lat="42.48082" lon="2.59706">
        <ele>752</ele>
        <time>2024-09-20T07:26:38Z</time>
      </trkpt>
      <trkpt lat="42.48081" lon="2.59709">
        <ele>751</ele>
        <time>2024-09-20T07:26:40Z</time>
      </trkpt>
      <trkpt lat="42.48079" lon="2.59713">
        <ele>750</ele>
        <time>2024-09-20T07:26:42Z</time>
      </trkpt>
      <trkpt lat="42.48078" lon="2.59717">
        <ele>749</ele>
        <time>2024-09-20T07:26:44Z</time>
      </trkpt>
      <trkpt lat="42.48077" lon="2.59722">
        <ele>749</ele>
        <time>2024-09-20T07:26:47Z</time>
      </trkpt>
      <trkpt lat="42.48076" lon="2.59726">
        <ele>748</ele>
        <time>2024-09-20T07:26:50Z</time>
      </trkpt>
      <trkpt lat="42.48075" lon="2.5973">
        <ele>748</ele>
        <time>2024-09-20T07:26:52Z</time>
      </trkpt>
      <trkpt lat="42.48074" lon="2.59734">
        <ele>747</ele>
        <time>2024-09-20T07:26:55Z</time>
      </trkpt>
      <trkpt lat="42.48073" lon="2.59738">
        <ele>748</ele>
        <time>2024-09-20T07:26:57Z</time>
      </trkpt>
      <trkpt lat="42.48072" lon="2.59742">
        <ele>748</ele>
        <time>2024-09-20T07:27:00Z</time>
      </trkpt>
      <trkpt lat="42.48072" lon="2.59746">
        <ele>747</ele>
        <time>2024-09-20T07:27:03Z</time>
      </trkpt>
      <trkpt lat="42.48071" lon="2.5975">
        <ele>748</ele>
        <time>2024-09-20T07:27:06Z</time>
      </trkpt>
      <trkpt lat="42.4807" lon="2.59754">
        <ele>747</ele>
        <time>2024-09-20T07:27:09Z</time>
      </trkpt>
      <trkpt lat="42.48069" lon="2.59758">
        <ele>746</ele>
        <time>2024-09-20T07:27:11Z</time>
      </trkpt>
      <trkpt lat="42.48068" lon="2.59762">
        <ele>747</ele>
        <time>2024-09-20T07:27:13Z</time>
      </trkpt>
      <trkpt lat="42.48068" lon="2.59766">
        <ele>747</ele>
        <time>2024-09-20T07:27:17Z</time>
      </trkpt>
      <trkpt lat="42.48068" lon="2.5977">
        <ele>747</ele>
        <time>2024-09-20T07:27:24Z</time>
      </trkpt>
      <trkpt lat="42.48068" lon="2.59774">
        <ele>747</ele>
        <time>2024-09-20T07:27:27Z</time>
      </trkpt>
      <trkpt lat="42.48068" lon="2.59778">
        <ele>747</ele>
        <time>2024-09-20T07:27:30Z</time>
      </trkpt>
      <trkpt lat="42.48069" lon="2.59782">
        <ele>745</ele>
        <time>2024-09-20T07:27:32Z</time>
      </trkpt>
      <trkpt lat="42.48069" lon="2.59786">
        <ele>745</ele>
        <time>2024-09-20T07:27:34Z</time>
      </trkpt>
      <trkpt lat="42.48069" lon="2.5979">
        <ele>745</ele>
        <time>2024-09-20T07:27:37Z</time>
      </trkpt>
      <trkpt lat="42.48069" lon="2.59794">
        <ele>745</ele>
        <time>2024-09-20T07:27:39Z</time>
      </trkpt>
      <trkpt lat="42.4807" lon="2.59799">
        <ele>745</ele>
        <time>2024-09-20T07:27:43Z</time>
      </trkpt>
      <trkpt lat="42.48069" lon="2.59804">
        <ele>746</ele>
        <time>2024-09-20T07:27:45Z</time>
      </trkpt>
      <trkpt lat="42.4807" lon="2.59808">
        <ele>745</ele>
        <time>2024-09-20T07:27:48Z</time>
      </trkpt>
      <trkpt lat="42.48069" lon="2.59812">
        <ele>746</ele>
        <time>2024-09-20T07:27:57Z</time>
      </trkpt>
      <trkpt lat="42.48069" lon="2.59816">
        <ele>746</ele>
        <time>2024-09-20T07:27:59Z</time>
      </trkpt>
      <trkpt lat="42.48069" lon="2.5982">
        <ele>746</ele>
        <time>2024-09-20T07:28:00Z</time>
      </trkpt>
      <trkpt lat="42.48068" lon="2.59825">
        <ele>745</ele>
        <time>2024-09-20T07:28:04Z</time>
      </trkpt>
      <trkpt lat="42.48068" lon="2.5983">
        <ele>745</ele>
        <time>2024-09-20T07:28:06Z</time>
      </trkpt>
      <trkpt lat="42.48067" lon="2.59835">
        <ele>745</ele>
        <time>2024-09-20T07:28:08Z</time>
      </trkpt>
      <trkpt lat="42.48066" lon="2.5984">
        <ele>746</ele>
        <time>2024-09-20T07:28:12Z</time>
      </trkpt>
      <trkpt lat="42.48064" lon="2.59843">
        <ele>745</ele>
        <time>2024-09-20T07:28:14Z</time>
      </trkpt>
      <trkpt lat="42.48061" lon="2.59846">
        <ele>745</ele>
        <time>2024-09-20T07:28:17Z</time>
      </trkpt>
      <trkpt lat="42.48058" lon="2.59849">
        <ele>744</ele>
        <time>2024-09-20T07:28:20Z</time>
      </trkpt>
      <trkpt lat="42.48055" lon="2.59851">
        <ele>744</ele>
        <time>2024-09-20T07:28:23Z</time>
      </trkpt>
      <trkpt lat="42.48052" lon="2.59852">
        <ele>743</ele>
        <time>2024-09-20T07:28:25Z</time>
      </trkpt>
      <trkpt lat="42.48049" lon="2.59854">
        <ele>742</ele>
        <time>2024-09-20T07:28:28Z</time>
      </trkpt>
      <trkpt lat="42.48046" lon="2.59856">
        <ele>742</ele>
        <time>2024-09-20T07:28:31Z</time>
      </trkpt>
      <trkpt lat="42.48043" lon="2.59858">
        <ele>743</ele>
        <time>2024-09-20T07:28:34Z</time>
      </trkpt>
      <trkpt lat="42.4804" lon="2.5986">
        <ele>742</ele>
        <time>2024-09-20T07:28:36Z</time>
      </trkpt>
      <trkpt lat="42.48037" lon="2.59862">
        <ele>742</ele>
        <time>2024-09-20T07:28:39Z</time>
      </trkpt>
      <trkpt lat="42.48034" lon="2.59864">
        <ele>742</ele>
        <time>2024-09-20T07:28:41Z</time>
      </trkpt>
      <trkpt lat="42.48032" lon="2.59866">
        <ele>743</ele>
        <time>2024-09-20T07:28:43Z</time>
      </trkpt>
      <trkpt lat="42.48029" lon="2.59869">
        <ele>742</ele>
        <time>2024-09-20T07:28:46Z</time>
      </trkpt>
      <trkpt lat="42.48027" lon="2.59871">
        <ele>743</ele>
        <time>2024-09-20T07:28:47Z</time>
      </trkpt>
      <trkpt lat="42.48023" lon="2.59874">
        <ele>742</ele>
        <time>2024-09-20T07:28:50Z</time>
      </trkpt>
      <trkpt lat="42.4802" lon="2.59877">
        <ele>741</ele>
        <time>2024-09-20T07:28:53Z</time>
      </trkpt>
      <trkpt lat="42.48017" lon="2.59878">
        <ele>741</ele>
        <time>2024-09-20T07:28:56Z</time>
      </trkpt>
      <trkpt lat="42.48014" lon="2.59881">
        <ele>741</ele>
        <time>2024-09-20T07:28:59Z</time>
      </trkpt>
      <trkpt lat="42.48011" lon="2.59882">
        <ele>740</ele>
        <time>2024-09-20T07:29:02Z</time>
      </trkpt>
      <trkpt lat="42.48008" lon="2.59884">
        <ele>740</ele>
        <time>2024-09-20T07:29:04Z</time>
      </trkpt>
      <trkpt lat="42.48004" lon="2.59885">
        <ele>740</ele>
        <time>2024-09-20T07:29:07Z</time>
      </trkpt>
      <trkpt lat="42.48" lon="2.59886">
        <ele>739</ele>
        <time>2024-09-20T07:29:10Z</time>
      </trkpt>
      <trkpt lat="42.47997" lon="2.59888">
        <ele>739</ele>
        <time>2024-09-20T07:29:13Z</time>
      </trkpt>
      <trkpt lat="42.47994" lon="2.59889">
        <ele>740</ele>
        <time>2024-09-20T07:29:15Z</time>
      </trkpt>
      <trkpt lat="42.47992" lon="2.59891">
        <ele>739</ele>
        <time>2024-09-20T07:29:18Z</time>
      </trkpt>
      <trkpt lat="42.47989" lon="2.59894">
        <ele>740</ele>
        <time>2024-09-20T07:29:20Z</time>
      </trkpt>
      <trkpt lat="42.47987" lon="2.59897">
        <ele>740</ele>
        <time>2024-09-20T07:29:23Z</time>
      </trkpt>
      <trkpt lat="42.47985" lon="2.599">
        <ele>739</ele>
        <time>2024-09-20T07:29:25Z</time>
      </trkpt>
      <trkpt lat="42.47982" lon="2.59904">
        <ele>740</ele>
        <time>2024-09-20T07:29:28Z</time>
      </trkpt>
      <trkpt lat="42.47979" lon="2.59907">
        <ele>740</ele>
        <time>2024-09-20T07:29:31Z</time>
      </trkpt>
      <trkpt lat="42.47976" lon="2.59911">
        <ele>740</ele>
        <time>2024-09-20T07:29:34Z</time>
      </trkpt>
      <trkpt lat="42.47973" lon="2.59914">
        <ele>739</ele>
        <time>2024-09-20T07:29:37Z</time>
      </trkpt>
      <trkpt lat="42.47971" lon="2.59917">
        <ele>739</ele>
        <time>2024-09-20T07:29:40Z</time>
      </trkpt>
      <trkpt lat="42.47968" lon="2.5992">
        <ele>740</ele>
        <time>2024-09-20T07:29:42Z</time>
      </trkpt>
      <trkpt lat="42.47965" lon="2.59924">
        <ele>740</ele>
        <time>2024-09-20T07:29:46Z</time>
      </trkpt>
      <trkpt lat="42.47962" lon="2.59928">
        <ele>739</ele>
        <time>2024-09-20T07:29:50Z</time>
      </trkpt>
      <trkpt lat="42.4796" lon="2.59931">
        <ele>739</ele>
        <time>2024-09-20T07:29:52Z</time>
      </trkpt>
      <trkpt lat="42.47957" lon="2.59935">
        <ele>739</ele>
        <time>2024-09-20T07:29:54Z</time>
      </trkpt>
      <trkpt lat="42.47956" lon="2.59939">
        <ele>738</ele>
        <time>2024-09-20T07:29:56Z</time>
      </trkpt>
      <trkpt lat="42.47953" lon="2.59942">
        <ele>737</ele>
        <time>2024-09-20T07:29:59Z</time>
      </trkpt>
      <trkpt lat="42.47951" lon="2.59945">
        <ele>738</ele>
        <time>2024-09-20T07:30:01Z</time>
      </trkpt>
      <trkpt lat="42.47948" lon="2.59947">
        <ele>738</ele>
        <time>2024-09-20T07:30:03Z</time>
      </trkpt>
      <trkpt lat="42.47946" lon="2.59949">
        <ele>737</ele>
        <time>2024-09-20T07:30:06Z</time>
      </trkpt>
      <trkpt lat="42.47943" lon="2.59951">
        <ele>738</ele>
        <time>2024-09-20T07:30:08Z</time>
      </trkpt>
      <trkpt lat="42.4794" lon="2.59954">
        <ele>738</ele>
        <time>2024-09-20T07:30:11Z</time>
      </trkpt>
      <trkpt lat="42.47937" lon="2.59956">
        <ele>738</ele>
        <time>2024-09-20T07:30:14Z</time>
      </trkpt>
      <trkpt lat="42.47933" lon="2.59958">
        <ele>738</ele>
        <time>2024-09-20T07:30:18Z</time>
      </trkpt>
      <trkpt lat="42.4793" lon="2.59961">
        <ele>739</ele>
        <time>2024-09-20T07:30:20Z</time>
      </trkpt>
      <trkpt lat="42.47927" lon="2.59963">
        <ele>739</ele>
        <time>2024-09-20T07:30:22Z</time>
      </trkpt>
      <trkpt lat="42.47924" lon="2.59965">
        <ele>738</ele>
        <time>2024-09-20T07:30:25Z</time>
      </trkpt>
      <trkpt lat="42.47921" lon="2.59967">
        <ele>738</ele>
        <time>2024-09-20T07:30:27Z</time>
      </trkpt>
      <trkpt lat="42.47919" lon="2.59969">
        <ele>739</ele>
        <time>2024-09-20T07:30:30Z</time>
      </trkpt>
      <trkpt lat="42.47916" lon="2.59971">
        <ele>740</ele>
        <time>2024-09-20T07:30:32Z</time>
      </trkpt>
      <trkpt lat="42.47913" lon="2.59973">
        <ele>740</ele>
        <time>2024-09-20T07:30:35Z</time>
      </trkpt>
      <trkpt lat="42.47911" lon="2.59975">
        <ele>741</ele>
        <time>2024-09-20T07:30:37Z</time>
      </trkpt>
      <trkpt lat="42.47908" lon="2.59977">
        <ele>741</ele>
        <time>2024-09-20T07:30:40Z</time>
      </trkpt>
      <trkpt lat="42.47905" lon="2.59979">
        <ele>741</ele>
        <time>2024-09-20T07:30:43Z</time>
      </trkpt>
      <trkpt lat="42.47902" lon="2.59981">
        <ele>741</ele>
        <time>2024-09-20T07:30:46Z</time>
      </trkpt>
      <trkpt lat="42.47898" lon="2.59983">
        <ele>741</ele>
        <time>2024-09-20T07:30:49Z</time>
      </trkpt>
      <trkpt lat="42.47895" lon="2.59986">
        <ele>741</ele>
        <time>2024-09-20T07:30:51Z</time>
      </trkpt>
      <trkpt lat="42.47891" lon="2.59989">
        <ele>742</ele>
        <time>2024-09-20T07:30:55Z</time>
      </trkpt>
      <trkpt lat="42.47888" lon="2.59992">
        <ele>741</ele>
        <time>2024-09-20T07:30:58Z</time>
      </trkpt>
      <trkpt lat="42.47886" lon="2.59994">
        <ele>742</ele>
        <time>2024-09-20T07:31:00Z</time>
      </trkpt>
      <trkpt lat="42.47883" lon="2.59997">
        <ele>743</ele>
        <time>2024-09-20T07:31:04Z</time>
      </trkpt>
      <trkpt lat="42.4788" lon="2.6">
        <ele>744</ele>
        <time>2024-09-20T07:31:07Z</time>
      </trkpt>
      <trkpt lat="42.47878" lon="2.60003">
        <ele>745</ele>
        <time>2024-09-20T07:31:10Z</time>
      </trkpt>
      <trkpt lat="42.47876" lon="2.60006">
        <ele>745</ele>
        <time>2024-09-20T07:31:13Z</time>
      </trkpt>
      <trkpt lat="42.47874" lon="2.60009">
        <ele>745</ele>
        <time>2024-09-20T07:31:16Z</time>
      </trkpt>
      <trkpt lat="42.47872" lon="2.60012">
        <ele>745</ele>
        <time>2024-09-20T07:31:19Z</time>
      </trkpt>
      <trkpt lat="42.4787" lon="2.60015">
        <ele>745</ele>
        <time>2024-09-20T07:31:23Z</time>
      </trkpt>
      <trkpt lat="42.47868" lon="2.6002">
        <ele>746</ele>
        <time>2024-09-20T07:31:27Z</time>
      </trkpt>
      <trkpt lat="42.47866" lon="2.60024">
        <ele>747</ele>
        <time>2024-09-20T07:31:31Z</time>
      </trkpt>
      <trkpt lat="42.47863" lon="2.60027">
        <ele>747</ele>
        <time>2024-09-20T07:31:34Z</time>
      </trkpt>
      <trkpt lat="42.47861" lon="2.60031">
        <ele>748</ele>
        <time>2024-09-20T07:31:37Z</time>
      </trkpt>
      <trkpt lat="42.47859" lon="2.60035">
        <ele>748</ele>
        <time>2024-09-20T07:31:40Z</time>
      </trkpt>
      <trkpt lat="42.47858" lon="2.60039">
        <ele>749</ele>
        <time>2024-09-20T07:31:44Z</time>
      </trkpt>
      <trkpt lat="42.47856" lon="2.60042">
        <ele>749</ele>
        <time>2024-09-20T07:31:46Z</time>
      </trkpt>
      <trkpt lat="42.47854" lon="2.60046">
        <ele>750</ele>
        <time>2024-09-20T07:31:50Z</time>
      </trkpt>
      <trkpt lat="42.47852" lon="2.60049">
        <ele>750</ele>
        <time>2024-09-20T07:31:53Z</time>
      </trkpt>
      <trkpt lat="42.47851" lon="2.60053">
        <ele>751</ele>
        <time>2024-09-20T07:31:56Z</time>
      </trkpt>
      <trkpt lat="42.47849" lon="2.60057">
        <ele>751</ele>
        <time>2024-09-20T07:32:00Z</time>
      </trkpt>
      <trkpt lat="42.47848" lon="2.60061">
        <ele>750</ele>
        <time>2024-09-20T07:32:05Z</time>
      </trkpt>
      <trkpt lat="42.47845" lon="2.60065">
        <ele>749</ele>
        <time>2024-09-20T07:32:09Z</time>
      </trkpt>
      <trkpt lat="42.47843" lon="2.60067">
        <ele>749</ele>
        <time>2024-09-20T07:32:11Z</time>
      </trkpt>
      <trkpt lat="42.4784" lon="2.60068">
        <ele>749</ele>
        <time>2024-09-20T07:32:13Z</time>
      </trkpt>
      <trkpt lat="42.47837" lon="2.60068">
        <ele>748</ele>
        <time>2024-09-20T07:32:15Z</time>
      </trkpt>
      <trkpt lat="42.47833" lon="2.60068">
        <ele>748</ele>
        <time>2024-09-20T07:32:17Z</time>
      </trkpt>
      <trkpt lat="42.47831" lon="2.6007">
        <ele>747</ele>
        <time>2024-09-20T07:32:20Z</time>
      </trkpt>
      <trkpt lat="42.47829" lon="2.60073">
        <ele>746</ele>
        <time>2024-09-20T07:32:25Z</time>
      </trkpt>
      <trkpt lat="42.47827" lon="2.60076">
        <ele>746</ele>
        <time>2024-09-20T07:32:28Z</time>
      </trkpt>
      <trkpt lat="42.47825" lon="2.60079">
        <ele>744</ele>
        <time>2024-09-20T07:32:33Z</time>
      </trkpt>
      <trkpt lat="42.47822" lon="2.60083">
        <ele>743</ele>
        <time>2024-09-20T07:32:36Z</time>
      </trkpt>
      <trkpt lat="42.47822" lon="2.60087">
        <ele>743</ele>
        <time>2024-09-20T07:32:39Z</time>
      </trkpt>
      <trkpt lat="42.47822" lon="2.60092">
        <ele>743</ele>
        <time>2024-09-20T07:32:41Z</time>
      </trkpt>
      <trkpt lat="42.47823" lon="2.60096">
        <ele>741</ele>
        <time>2024-09-20T07:32:45Z</time>
      </trkpt>
      <trkpt lat="42.47822" lon="2.601">
        <ele>741</ele>
        <time>2024-09-20T07:32:49Z</time>
      </trkpt>
      <trkpt lat="42.47821" lon="2.60105">
        <ele>740</ele>
        <time>2024-09-20T07:32:53Z</time>
      </trkpt>
      <trkpt lat="42.4782" lon="2.60108">
        <ele>740</ele>
        <time>2024-09-20T07:32:55Z</time>
      </trkpt>
      <trkpt lat="42.47819" lon="2.60112">
        <ele>739</ele>
        <time>2024-09-20T07:32:58Z</time>
      </trkpt>
      <trkpt lat="42.47818" lon="2.60116">
        <ele>740</ele>
        <time>2024-09-20T07:33:01Z</time>
      </trkpt>
      <trkpt lat="42.47817" lon="2.6012">
        <ele>739</ele>
        <time>2024-09-20T07:33:08Z</time>
      </trkpt>
      <trkpt lat="42.47816" lon="2.60125">
        <ele>739</ele>
        <time>2024-09-20T07:33:11Z</time>
      </trkpt>
      <trkpt lat="42.47815" lon="2.60129">
        <ele>737</ele>
        <time>2024-09-20T07:33:14Z</time>
      </trkpt>
      <trkpt lat="42.47814" lon="2.60133">
        <ele>735</ele>
        <time>2024-09-20T07:33:17Z</time>
      </trkpt>
      <trkpt lat="42.47813" lon="2.60138">
        <ele>735</ele>
        <time>2024-09-20T07:33:21Z</time>
      </trkpt>
      <trkpt lat="42.47812" lon="2.60142">
        <ele>735</ele>
        <time>2024-09-20T07:33:27Z</time>
      </trkpt>
      <trkpt lat="42.47811" lon="2.60146">
        <ele>733</ele>
        <time>2024-09-20T07:33:30Z</time>
      </trkpt>
      <trkpt lat="42.4781" lon="2.60151">
        <ele>733</ele>
        <time>2024-09-20T07:33:33Z</time>
      </trkpt>
      <trkpt lat="42.4781" lon="2.60155">
        <ele>732</ele>
        <time>2024-09-20T07:33:35Z</time>
      </trkpt>
      <trkpt lat="42.47809" lon="2.6016">
        <ele>732</ele>
        <time>2024-09-20T07:33:38Z</time>
      </trkpt>
      <trkpt lat="42.47808" lon="2.60164">
        <ele>733</ele>
        <time>2024-09-20T07:33:40Z</time>
      </trkpt>
      <trkpt lat="42.47807" lon="2.60169">
        <ele>733</ele>
        <time>2024-09-20T07:33:43Z</time>
      </trkpt>
      <trkpt lat="42.47806" lon="2.60173">
        <ele>733</ele>
        <time>2024-09-20T07:33:46Z</time>
      </trkpt>
      <trkpt lat="42.47805" lon="2.60177">
        <ele>732</ele>
        <time>2024-09-20T07:33:49Z</time>
      </trkpt>
      <trkpt lat="42.47805" lon="2.60182">
        <ele>733</ele>
        <time>2024-09-20T07:33:51Z</time>
      </trkpt>
      <trkpt lat="42.47804" lon="2.60186">
        <ele>733</ele>
        <time>2024-09-20T07:33:55Z</time>
      </trkpt>
      <trkpt lat="42.47803" lon="2.6019">
        <ele>733</ele>
        <time>2024-09-20T07:33:59Z</time>
      </trkpt>
      <trkpt lat="42.47803" lon="2.60194">
        <ele>732</ele>
        <time>2024-09-20T07:34:02Z</time>
      </trkpt>
      <trkpt lat="42.47802" lon="2.60197">
        <ele>733</ele>
        <time>2024-09-20T07:34:08Z</time>
      </trkpt>
      <trkpt lat="42.47801" lon="2.60202">
        <ele>733</ele>
        <time>2024-09-20T07:34:12Z</time>
      </trkpt>
      <trkpt lat="42.47801" lon="2.60205">
        <ele>732</ele>
        <time>2024-09-20T07:34:14Z</time>
      </trkpt>
      <trkpt lat="42.478" lon="2.60209">
        <ele>733</ele>
        <time>2024-09-20T07:34:17Z</time>
      </trkpt>
      <trkpt lat="42.47799" lon="2.60214">
        <ele>733</ele>
        <time>2024-09-20T07:34:22Z</time>
      </trkpt>
      <trkpt lat="42.47798" lon="2.6022">
        <ele>734</ele>
        <time>2024-09-20T07:34:25Z</time>
      </trkpt>
      <trkpt lat="42.47797" lon="2.60224">
        <ele>733</ele>
        <time>2024-09-20T07:34:31Z</time>
      </trkpt>
      <trkpt lat="42.47796" lon="2.60228">
        <ele>733</ele>
        <time>2024-09-20T07:34:38Z</time>
      </trkpt>
      <trkpt lat="42.47795" lon="2.60232">
        <ele>731</ele>
        <time>2024-09-20T07:35:02Z</time>
      </trkpt>
      <trkpt lat="42.47793" lon="2.60236">
        <ele>729</ele>
        <time>2024-09-20T07:35:10Z</time>
      </trkpt>
      <trkpt lat="42.47791" lon="2.6024">
        <ele>729</ele>
        <time>2024-09-20T07:35:13Z</time>
      </trkpt>
      <trkpt lat="42.4779" lon="2.60243">
        <ele>728</ele>
        <time>2024-09-20T07:35:17Z</time>
      </trkpt>
      <trkpt lat="42.47787" lon="2.60246">
        <ele>726</ele>
        <time>2024-09-20T07:35:23Z</time>
      </trkpt>
      <trkpt lat="42.47785" lon="2.60249">
        <ele>725</ele>
        <time>2024-09-20T07:35:27Z</time>
      </trkpt>
      <trkpt lat="42.47782" lon="2.60251">
        <ele>724</ele>
        <time>2024-09-20T07:35:38Z</time>
      </trkpt>
      <trkpt lat="42.4778" lon="2.60253">
        <ele>723</ele>
        <time>2024-09-20T07:35:40Z</time>
      </trkpt>
      <trkpt lat="42.47778" lon="2.60258">
        <ele>722</ele>
        <time>2024-09-20T07:35:44Z</time>
      </trkpt>
      <trkpt lat="42.47776" lon="2.60262">
        <ele>721</ele>
        <time>2024-09-20T07:35:48Z</time>
      </trkpt>
      <trkpt lat="42.47775" lon="2.60266">
        <ele>720</ele>
        <time>2024-09-20T07:35:50Z</time>
      </trkpt>
      <trkpt lat="42.47773" lon="2.6027">
        <ele>718</ele>
        <time>2024-09-20T07:35:53Z</time>
      </trkpt>
      <trkpt lat="42.47771" lon="2.60275">
        <ele>718</ele>
        <time>2024-09-20T07:35:56Z</time>
      </trkpt>
      <trkpt lat="42.4777" lon="2.6028">
        <ele>719</ele>
        <time>2024-09-20T07:36:00Z</time>
      </trkpt>
      <trkpt lat="42.47769" lon="2.60285">
        <ele>719</ele>
        <time>2024-09-20T07:36:04Z</time>
      </trkpt>
      <trkpt lat="42.47768" lon="2.60289">
        <ele>718</ele>
        <time>2024-09-20T07:36:08Z</time>
      </trkpt>
      <trkpt lat="42.47766" lon="2.60294">
        <ele>720</ele>
        <time>2024-09-20T07:36:13Z</time>
      </trkpt>
      <trkpt lat="42.47765" lon="2.60298">
        <ele>720</ele>
        <time>2024-09-20T07:36:16Z</time>
      </trkpt>
      <trkpt lat="42.47764" lon="2.60302">
        <ele>719</ele>
        <time>2024-09-20T07:36:18Z</time>
      </trkpt>
      <trkpt lat="42.47764" lon="2.60305">
        <ele>720</ele>
        <time>2024-09-20T07:36:21Z</time>
      </trkpt>
      <trkpt lat="42.47763" lon="2.6031">
        <ele>719</ele>
        <time>2024-09-20T07:36:24Z</time>
      </trkpt>
      <trkpt lat="42.47762" lon="2.60313">
        <ele>719</ele>
        <time>2024-09-20T07:36:26Z</time>
      </trkpt>
      <trkpt lat="42.47761" lon="2.60318">
        <ele>719</ele>
        <time>2024-09-20T07:36:30Z</time>
      </trkpt>
      <trkpt lat="42.4776" lon="2.60322">
        <ele>718</ele>
        <time>2024-09-20T07:36:35Z</time>
      </trkpt>
      <trkpt lat="42.47758" lon="2.60325">
        <ele>716</ele>
        <time>2024-09-20T07:36:41Z</time>
      </trkpt>
      <trkpt lat="42.47757" lon="2.6033">
        <ele>715</ele>
        <time>2024-09-20T07:36:45Z</time>
      </trkpt>
      <trkpt lat="42.47757" lon="2.60334">
        <ele>713</ele>
        <time>2024-09-20T07:36:48Z</time>
      </trkpt>
      <trkpt lat="42.47756" lon="2.60338">
        <ele>714</ele>
        <time>2024-09-20T07:36:51Z</time>
      </trkpt>
      <trkpt lat="42.47755" lon="2.60342">
        <ele>713</ele>
        <time>2024-09-20T07:36:54Z</time>
      </trkpt>
      <trkpt lat="42.47754" lon="2.60346">
        <ele>714</ele>
        <time>2024-09-20T07:36:58Z</time>
      </trkpt>
      <trkpt lat="42.47754" lon="2.6035">
        <ele>713</ele>
        <time>2024-09-20T07:37:13Z</time>
      </trkpt>
      <trkpt lat="42.47753" lon="2.60354">
        <ele>712</ele>
        <time>2024-09-20T07:37:23Z</time>
      </trkpt>
      <trkpt lat="42.47753" lon="2.60359">
        <ele>711</ele>
        <time>2024-09-20T07:37:27Z</time>
      </trkpt>
      <trkpt lat="42.47752" lon="2.60363">
        <ele>711</ele>
        <time>2024-09-20T07:37:30Z</time>
      </trkpt>
      <trkpt lat="42.47752" lon="2.60367">
        <ele>709</ele>
        <time>2024-09-20T07:37:33Z</time>
      </trkpt>
      <trkpt lat="42.47751" lon="2.60372">
        <ele>709</ele>
        <time>2024-09-20T07:37:39Z</time>
      </trkpt>
      <trkpt lat="42.47751" lon="2.60377">
        <ele>709</ele>
        <time>2024-09-20T07:37:54Z</time>
      </trkpt>
      <trkpt lat="42.4775" lon="2.60382">
        <ele>710</ele>
        <time>2024-09-20T07:37:57Z</time>
      </trkpt>
      <trkpt lat="42.4775" lon="2.60387">
        <ele>709</ele>
        <time>2024-09-20T07:38:00Z</time>
      </trkpt>
      <trkpt lat="42.47749" lon="2.60392">
        <ele>710</ele>
        <time>2024-09-20T07:38:03Z</time>
      </trkpt>
      <trkpt lat="42.47749" lon="2.60397">
        <ele>709</ele>
        <time>2024-09-20T07:38:06Z</time>
      </trkpt>
      <trkpt lat="42.47748" lon="2.60402">
        <ele>709</ele>
        <time>2024-09-20T07:38:10Z</time>
      </trkpt>
      <trkpt lat="42.47747" lon="2.60406">
        <ele>709</ele>
        <time>2024-09-20T07:38:13Z</time>
      </trkpt>
      <trkpt lat="42.47746" lon="2.6041">
        <ele>709</ele>
        <time>2024-09-20T07:38:15Z</time>
      </trkpt>
      <trkpt lat="42.47746" lon="2.60414">
        <ele>709</ele>
        <time>2024-09-20T07:38:18Z</time>
      </trkpt>
      <trkpt lat="42.47745" lon="2.60419">
        <ele>708</ele>
        <time>2024-09-20T07:38:21Z</time>
      </trkpt>
      <trkpt lat="42.47744" lon="2.60423">
        <ele>708</ele>
        <time>2024-09-20T07:38:23Z</time>
      </trkpt>
      <trkpt lat="42.47743" lon="2.60427">
        <ele>707</ele>
        <time>2024-09-20T07:38:26Z</time>
      </trkpt>
      <trkpt lat="42.47741" lon="2.60431">
        <ele>707</ele>
        <time>2024-09-20T07:38:29Z</time>
      </trkpt>
      <trkpt lat="42.47739" lon="2.60436">
        <ele>707</ele>
        <time>2024-09-20T07:38:32Z</time>
      </trkpt>
      <trkpt lat="42.47737" lon="2.60439">
        <ele>706</ele>
        <time>2024-09-20T07:38:36Z</time>
      </trkpt>
      <trkpt lat="42.47735" lon="2.60442">
        <ele>705</ele>
        <time>2024-09-20T07:38:38Z</time>
      </trkpt>
      <trkpt lat="42.47733" lon="2.60445">
        <ele>707</ele>
        <time>2024-09-20T07:38:42Z</time>
      </trkpt>
      <trkpt lat="42.47731" lon="2.60448">
        <ele>706</ele>
        <time>2024-09-20T07:38:45Z</time>
      </trkpt>
      <trkpt lat="42.47728" lon="2.60452">
        <ele>705</ele>
        <time>2024-09-20T07:38:48Z</time>
      </trkpt>
      <trkpt lat="42.47726" lon="2.60455">
        <ele>705</ele>
        <time>2024-09-20T07:38:50Z</time>
      </trkpt>
      <trkpt lat="42.47724" lon="2.60458">
        <ele>704</ele>
        <time>2024-09-20T07:38:53Z</time>
      </trkpt>
      <trkpt lat="42.47722" lon="2.60461">
        <ele>705</ele>
        <time>2024-09-20T07:38:56Z</time>
      </trkpt>
      <trkpt lat="42.47719" lon="2.60464">
        <ele>704</ele>
        <time>2024-09-20T07:38:58Z</time>
      </trkpt>
      <trkpt lat="42.47717" lon="2.60467">
        <ele>705</ele>
        <time>2024-09-20T07:39:00Z</time>
      </trkpt>
      <trkpt lat="42.47715" lon="2.6047">
        <ele>703</ele>
        <time>2024-09-20T07:39:04Z</time>
      </trkpt>
      <trkpt lat="42.47713" lon="2.60473">
        <ele>703</ele>
        <time>2024-09-20T07:39:07Z</time>
      </trkpt>
      <trkpt lat="42.4771" lon="2.60476">
        <ele>703</ele>
        <time>2024-09-20T07:39:11Z</time>
      </trkpt>
      <trkpt lat="42.47707" lon="2.60478">
        <ele>701</ele>
        <time>2024-09-20T07:39:14Z</time>
      </trkpt>
      <trkpt lat="42.47705" lon="2.60479">
        <ele>701</ele>
        <time>2024-09-20T07:39:18Z</time>
      </trkpt>
      <trkpt lat="42.47702" lon="2.60481">
        <ele>699</ele>
        <time>2024-09-20T07:39:29Z</time>
      </trkpt>
      <trkpt lat="42.47699" lon="2.60483">
        <ele>699</ele>
        <time>2024-09-20T07:39:41Z</time>
      </trkpt>
      <trkpt lat="42.47696" lon="2.60485">
        <ele>698</ele>
        <time>2024-09-20T07:39:44Z</time>
      </trkpt>
      <trkpt lat="42.47693" lon="2.6049">
        <ele>698</ele>
        <time>2024-09-20T07:39:47Z</time>
      </trkpt>
      <trkpt lat="42.47692" lon="2.60494">
        <ele>696</ele>
        <time>2024-09-20T07:39:55Z</time>
      </trkpt>
      <trkpt lat="42.4769" lon="2.60498">
        <ele>696</ele>
        <time>2024-09-20T07:39:58Z</time>
      </trkpt>
      <trkpt lat="42.47689" lon="2.60502">
        <ele>695</ele>
        <time>2024-09-20T07:40:01Z</time>
      </trkpt>
      <trkpt lat="42.47688" lon="2.60506">
        <ele>693</ele>
        <time>2024-09-20T07:40:12Z</time>
      </trkpt>
      <trkpt lat="42.47688" lon="2.6051">
        <ele>692</ele>
        <time>2024-09-20T07:40:15Z</time>
      </trkpt>
      <trkpt lat="42.47686" lon="2.60515">
        <ele>693</ele>
        <time>2024-09-20T07:40:25Z</time>
      </trkpt>
      <trkpt lat="42.47685" lon="2.60519">
        <ele>692</ele>
        <time>2024-09-20T07:40:28Z</time>
      </trkpt>
      <trkpt lat="42.47685" lon="2.60523">
        <ele>690</ele>
        <time>2024-09-20T07:40:35Z</time>
      </trkpt>
      <trkpt lat="42.47685" lon="2.60527">
        <ele>689</ele>
        <time>2024-09-20T07:40:38Z</time>
      </trkpt>
      <trkpt lat="42.47684" lon="2.60531">
        <ele>688</ele>
        <time>2024-09-20T07:40:41Z</time>
      </trkpt>
      <trkpt lat="42.47684" lon="2.60535">
        <ele>686</ele>
        <time>2024-09-20T07:40:49Z</time>
      </trkpt>
      <trkpt lat="42.47683" lon="2.60538">
        <ele>683</ele>
        <time>2024-09-20T07:40:55Z</time>
      </trkpt>
      <trkpt lat="42.47683" lon="2.60543">
        <ele>682</ele>
        <time>2024-09-20T07:41:01Z</time>
      </trkpt>
      <trkpt lat="42.47684" lon="2.60547">
        <ele>681</ele>
        <time>2024-09-20T07:41:05Z</time>
      </trkpt>
      <trkpt lat="42.47684" lon="2.60551">
        <ele>682</ele>
        <time>2024-09-20T07:41:08Z</time>
      </trkpt>
      <trkpt lat="42.47683" lon="2.60557">
        <ele>681</ele>
        <time>2024-09-20T07:41:14Z</time>
      </trkpt>
      <trkpt lat="42.47683" lon="2.60562">
        <ele>681</ele>
        <time>2024-09-20T07:41:17Z</time>
      </trkpt>
      <trkpt lat="42.47684" lon="2.60567">
        <ele>680</ele>
        <time>2024-09-20T07:41:30Z</time>
      </trkpt>
      <trkpt lat="42.47683" lon="2.60571">
        <ele>678</ele>
        <time>2024-09-20T07:41:48Z</time>
      </trkpt>
      <trkpt lat="42.47682" lon="2.60575">
        <ele>677</ele>
        <time>2024-09-20T07:41:52Z</time>
      </trkpt>
      <trkpt lat="42.4768" lon="2.60578">
        <ele>675</ele>
        <time>2024-09-20T07:41:58Z</time>
      </trkpt>
      <trkpt lat="42.47678" lon="2.60581">
        <ele>674</ele>
        <time>2024-09-20T07:42:02Z</time>
      </trkpt>
      <trkpt lat="42.47676" lon="2.60585">
        <ele>673</ele>
        <time>2024-09-20T07:42:07Z</time>
      </trkpt>
      <trkpt lat="42.47674" lon="2.60588">
        <ele>672</ele>
        <time>2024-09-20T07:42:10Z</time>
      </trkpt>
      <trkpt lat="42.47672" lon="2.60591">
        <ele>672</ele>
        <time>2024-09-20T07:42:14Z</time>
      </trkpt>
      <trkpt lat="42.47669" lon="2.60593">
        <ele>671</ele>
        <time>2024-09-20T07:42:17Z</time>
      </trkpt>
      <trkpt lat="42.47667" lon="2.60595">
        <ele>671</ele>
        <time>2024-09-20T07:42:21Z</time>
      </trkpt>
      <trkpt lat="42.47664" lon="2.60597">
        <ele>671</ele>
        <time>2024-09-20T07:42:23Z</time>
      </trkpt>
      <trkpt lat="42.47662" lon="2.606">
        <ele>669</ele>
        <time>2024-09-20T07:42:26Z</time>
      </trkpt>
      <trkpt lat="42.47659" lon="2.60602">
        <ele>668</ele>
        <time>2024-09-20T07:42:29Z</time>
      </trkpt>
      <trkpt lat="42.47657" lon="2.60605">
        <ele>668</ele>
        <time>2024-09-20T07:42:32Z</time>
      </trkpt>
      <trkpt lat="42.47654" lon="2.60608">
        <ele>667</ele>
        <time>2024-09-20T07:42:36Z</time>
      </trkpt>
      <trkpt lat="42.47652" lon="2.6061">
        <ele>666</ele>
        <time>2024-09-20T07:42:39Z</time>
      </trkpt>
      <trkpt lat="42.47649" lon="2.60612">
        <ele>665</ele>
        <time>2024-09-20T07:42:42Z</time>
      </trkpt>
      <trkpt lat="42.47647" lon="2.60614">
        <ele>664</ele>
        <time>2024-09-20T07:42:47Z</time>
      </trkpt>
      <trkpt lat="42.47644" lon="2.60616">
        <ele>663</ele>
        <time>2024-09-20T07:42:50Z</time>
      </trkpt>
      <trkpt lat="42.47641" lon="2.60617">
        <ele>663</ele>
        <time>2024-09-20T07:42:56Z</time>
      </trkpt>
      <trkpt lat="42.47639" lon="2.60618">
        <ele>659</ele>
        <time>2024-09-20T07:43:02Z</time>
      </trkpt>
      <trkpt lat="42.47636" lon="2.60618">
        <ele>659</ele>
        <time>2024-09-20T07:43:18Z</time>
      </trkpt>
      <trkpt lat="42.47634" lon="2.60616">
        <ele>659</ele>
        <time>2024-09-20T07:43:21Z</time>
      </trkpt>
      <trkpt lat="42.47632" lon="2.60613">
        <ele>659</ele>
        <time>2024-09-20T07:43:24Z</time>
      </trkpt>
      <trkpt lat="42.47631" lon="2.60609">
        <ele>659</ele>
        <time>2024-09-20T07:43:36Z</time>
      </trkpt>
      <trkpt lat="42.47631" lon="2.6061">
        <ele>663</ele>
        <time>2024-09-20T07:44:08Z</time>
      </trkpt>
      <trkpt lat="42.47631" lon="2.60613">
        <ele>662</ele>
        <time>2024-09-20T07:44:10Z</time>
      </trkpt>
      <trkpt lat="42.47631" lon="2.60618">
        <ele>661</ele>
        <time>2024-09-20T07:44:12Z</time>
      </trkpt>
      <trkpt lat="42.47632" lon="2.60621">
        <ele>661</ele>
        <time>2024-09-20T07:44:15Z</time>
      </trkpt>
      <trkpt lat="42.47633" lon="2.60626">
        <ele>659</ele>
        <time>2024-09-20T07:44:19Z</time>
      </trkpt>
      <trkpt lat="42.47633" lon="2.60631">
        <ele>660</ele>
        <time>2024-09-20T07:44:22Z</time>
      </trkpt>
      <trkpt lat="42.4763" lon="2.60633">
        <ele>659</ele>
        <time>2024-09-20T07:44:25Z</time>
      </trkpt>
      <trkpt lat="42.47628" lon="2.60633">
        <ele>659</ele>
        <time>2024-09-20T07:44:27Z</time>
      </trkpt>
      <trkpt lat="42.47625" lon="2.60634">
        <ele>658</ele>
        <time>2024-09-20T07:44:32Z</time>
      </trkpt>
      <trkpt lat="42.47622" lon="2.60636">
        <ele>657</ele>
        <time>2024-09-20T07:44:36Z</time>
      </trkpt>
      <trkpt lat="42.47619" lon="2.60639">
        <ele>657</ele>
        <time>2024-09-20T07:44:40Z</time>
      </trkpt>
      <trkpt lat="42.47617" lon="2.60641">
        <ele>657</ele>
        <time>2024-09-20T07:44:43Z</time>
      </trkpt>
      <trkpt lat="42.47614" lon="2.60644">
        <ele>657</ele>
        <time>2024-09-20T07:44:44Z</time>
      </trkpt>
      <trkpt lat="42.47611" lon="2.60646">
        <ele>655</ele>
        <time>2024-09-20T07:44:50Z</time>
      </trkpt>
      <trkpt lat="42.47609" lon="2.60649">
        <ele>653</ele>
        <time>2024-09-20T07:44:55Z</time>
      </trkpt>
      <trkpt lat="42.47606" lon="2.60652">
        <ele>652</ele>
        <time>2024-09-20T07:44:59Z</time>
      </trkpt>
      <trkpt lat="42.47603" lon="2.60655">
        <ele>652</ele>
        <time>2024-09-20T07:45:05Z</time>
      </trkpt>
      <trkpt lat="42.47603" lon="2.60654">
        <ele>651</ele>
        <time>2024-09-20T07:45:14Z</time>
      </trkpt>
      <trkpt lat="42.47602" lon="2.60656">
        <ele>650</ele>
        <time>2024-09-20T07:45:19Z</time>
      </trkpt>
      <trkpt lat="42.47599" lon="2.60658">
        <ele>651</ele>
        <time>2024-09-20T07:45:24Z</time>
      </trkpt>
      <trkpt lat="42.47597" lon="2.60661">
        <ele>650</ele>
        <time>2024-09-20T07:45:28Z</time>
      </trkpt>
      <trkpt lat="42.47594" lon="2.60663">
        <ele>650</ele>
        <time>2024-09-20T07:45:30Z</time>
      </trkpt>
      <trkpt lat="42.47592" lon="2.60665">
        <ele>650</ele>
        <time>2024-09-20T07:45:33Z</time>
      </trkpt>
      <trkpt lat="42.47589" lon="2.60667">
        <ele>650</ele>
        <time>2024-09-20T07:45:36Z</time>
      </trkpt>
      <trkpt lat="42.47586" lon="2.60668">
        <ele>649</ele>
        <time>2024-09-20T07:45:39Z</time>
      </trkpt>
      <trkpt lat="42.47583" lon="2.6067">
        <ele>649</ele>
        <time>2024-09-20T07:45:42Z</time>
      </trkpt>
      <trkpt lat="42.47581" lon="2.60672">
        <ele>649</ele>
        <time>2024-09-20T07:45:44Z</time>
      </trkpt>
      <trkpt lat="42.47578" lon="2.60674">
        <ele>649</ele>
        <time>2024-09-20T07:45:48Z</time>
      </trkpt>
      <trkpt lat="42.47575" lon="2.60676">
        <ele>648</ele>
        <time>2024-09-20T07:45:51Z</time>
      </trkpt>
      <trkpt lat="42.47573" lon="2.60678">
        <ele>649</ele>
        <time>2024-09-20T07:45:53Z</time>
      </trkpt>
      <trkpt lat="42.4757" lon="2.60681">
        <ele>648</ele>
        <time>2024-09-20T07:45:57Z</time>
      </trkpt>
      <trkpt lat="42.47567" lon="2.60685">
        <ele>647</ele>
        <time>2024-09-20T07:46:01Z</time>
      </trkpt>
      <trkpt lat="42.47566" lon="2.60689">
        <ele>646</ele>
        <time>2024-09-20T07:46:06Z</time>
      </trkpt>
      <trkpt lat="42.47564" lon="2.60693">
        <ele>646</ele>
        <time>2024-09-20T07:46:08Z</time>
      </trkpt>
      <trkpt lat="42.47562" lon="2.60697">
        <ele>646</ele>
        <time>2024-09-20T07:46:13Z</time>
      </trkpt>
      <trkpt lat="42.4756" lon="2.607">
        <ele>648</ele>
        <time>2024-09-20T07:46:16Z</time>
      </trkpt>
      <trkpt lat="42.47559" lon="2.60703">
        <ele>648</ele>
        <time>2024-09-20T07:46:19Z</time>
      </trkpt>
      <trkpt lat="42.47558" lon="2.60707">
        <ele>648</ele>
        <time>2024-09-20T07:46:23Z</time>
      </trkpt>
      <trkpt lat="42.47556" lon="2.60711">
        <ele>648</ele>
        <time>2024-09-20T07:46:26Z</time>
      </trkpt>
      <trkpt lat="42.47557" lon="2.60713">
        <ele>647</ele>
        <time>2024-09-20T07:47:50Z</time>
      </trkpt>
      <trkpt lat="42.47556" lon="2.60715">
        <ele>646</ele>
        <time>2024-09-20T07:48:04Z</time>
      </trkpt>
      <trkpt lat="42.47554" lon="2.60717">
        <ele>647</ele>
        <time>2024-09-20T07:48:06Z</time>
      </trkpt>
      <trkpt lat="42.47552" lon="2.6072">
        <ele>646</ele>
        <time>2024-09-20T07:48:08Z</time>
      </trkpt>
      <trkpt lat="42.4755" lon="2.60723">
        <ele>647</ele>
        <time>2024-09-20T07:48:10Z</time>
      </trkpt>
      <trkpt lat="42.47549" lon="2.60727">
        <ele>647</ele>
        <time>2024-09-20T07:48:12Z</time>
      </trkpt>
      <trkpt lat="42.47548" lon="2.60731">
        <ele>647</ele>
        <time>2024-09-20T07:48:14Z</time>
      </trkpt>
      <trkpt lat="42.47548" lon="2.60735">
        <ele>647</ele>
        <time>2024-09-20T07:48:16Z</time>
      </trkpt>
      <trkpt lat="42.47548" lon="2.60739">
        <ele>646</ele>
        <time>2024-09-20T07:48:19Z</time>
      </trkpt>
      <trkpt lat="42.47547" lon="2.60743">
        <ele>646</ele>
        <time>2024-09-20T07:48:21Z</time>
      </trkpt>
      <trkpt lat="42.47546" lon="2.60748">
        <ele>646</ele>
        <time>2024-09-20T07:48:24Z</time>
      </trkpt>
      <trkpt lat="42.47545" lon="2.60752">
        <ele>646</ele>
        <time>2024-09-20T07:48:27Z</time>
      </trkpt>
      <trkpt lat="42.47545" lon="2.60757">
        <ele>647</ele>
        <time>2024-09-20T07:48:30Z</time>
      </trkpt>
      <trkpt lat="42.47544" lon="2.60761">
        <ele>647</ele>
        <time>2024-09-20T07:48:33Z</time>
      </trkpt>
      <trkpt lat="42.47545" lon="2.60766">
        <ele>647</ele>
        <time>2024-09-20T07:48:38Z</time>
      </trkpt>
      <trkpt lat="42.47544" lon="2.60771">
        <ele>646</ele>
        <time>2024-09-20T07:48:43Z</time>
      </trkpt>
      <trkpt lat="42.47544" lon="2.60775">
        <ele>645</ele>
        <time>2024-09-20T07:48:46Z</time>
      </trkpt>
      <trkpt lat="42.47544" lon="2.6078">
        <ele>644</ele>
        <time>2024-09-20T07:48:49Z</time>
      </trkpt>
      <trkpt lat="42.47544" lon="2.60784">
        <ele>644</ele>
        <time>2024-09-20T07:48:52Z</time>
      </trkpt>
      <trkpt lat="42.47544" lon="2.60789">
        <ele>644</ele>
        <time>2024-09-20T07:48:56Z</time>
      </trkpt>
      <trkpt lat="42.47543" lon="2.60794">
        <ele>644</ele>
        <time>2024-09-20T07:48:59Z</time>
      </trkpt>
      <trkpt lat="42.47543" lon="2.60798">
        <ele>644</ele>
        <time>2024-09-20T07:49:02Z</time>
      </trkpt>
      <trkpt lat="42.47541" lon="2.60803">
        <ele>644</ele>
        <time>2024-09-20T07:49:05Z</time>
      </trkpt>
      <trkpt lat="42.4754" lon="2.60807">
        <ele>645</ele>
        <time>2024-09-20T07:49:07Z</time>
      </trkpt>
      <trkpt lat="42.47538" lon="2.6081">
        <ele>644</ele>
        <time>2024-09-20T07:49:11Z</time>
      </trkpt>
      <trkpt lat="42.47536" lon="2.60813">
        <ele>644</ele>
        <time>2024-09-20T07:49:14Z</time>
      </trkpt>
      <trkpt lat="42.47534" lon="2.60816">
        <ele>644</ele>
        <time>2024-09-20T07:49:16Z</time>
      </trkpt>
      <trkpt lat="42.47531" lon="2.60819">
        <ele>645</ele>
        <time>2024-09-20T07:49:18Z</time>
      </trkpt>
      <trkpt lat="42.47528" lon="2.60822">
        <ele>645</ele>
        <time>2024-09-20T07:49:21Z</time>
      </trkpt>
      <trkpt lat="42.47525" lon="2.60825">
        <ele>644</ele>
        <time>2024-09-20T07:49:24Z</time>
      </trkpt>
      <trkpt lat="42.47522" lon="2.60828">
        <ele>642</ele>
        <time>2024-09-20T07:49:27Z</time>
      </trkpt>
      <trkpt lat="42.47519" lon="2.6083">
        <ele>642</ele>
        <time>2024-09-20T07:49:30Z</time>
      </trkpt>
      <trkpt lat="42.47516" lon="2.60832">
        <ele>641</ele>
        <time>2024-09-20T07:49:33Z</time>
      </trkpt>
      <trkpt lat="42.47513" lon="2.60834">
        <ele>640</ele>
        <time>2024-09-20T07:49:36Z</time>
      </trkpt>
      <trkpt lat="42.4751" lon="2.60836">
        <ele>640</ele>
        <time>2024-09-20T07:49:39Z</time>
      </trkpt>
      <trkpt lat="42.47507" lon="2.60838">
        <ele>638</ele>
        <time>2024-09-20T07:49:41Z</time>
      </trkpt>
      <trkpt lat="42.47504" lon="2.6084">
        <ele>639</ele>
        <time>2024-09-20T07:49:43Z</time>
      </trkpt>
      <trkpt lat="42.47501" lon="2.60842">
        <ele>638</ele>
        <time>2024-09-20T07:49:46Z</time>
      </trkpt>
      <trkpt lat="42.47498" lon="2.60844">
        <ele>637</ele>
        <time>2024-09-20T07:49:49Z</time>
      </trkpt>
      <trkpt lat="42.47495" lon="2.60845">
        <ele>636</ele>
        <time>2024-09-20T07:49:51Z</time>
      </trkpt>
      <trkpt lat="42.47492" lon="2.60846">
        <ele>635</ele>
        <time>2024-09-20T07:49:53Z</time>
      </trkpt>
      <trkpt lat="42.4749" lon="2.60848">
        <ele>635</ele>
        <time>2024-09-20T07:49:55Z</time>
      </trkpt>
      <trkpt lat="42.47486" lon="2.60849">
        <ele>636</ele>
        <time>2024-09-20T07:49:58Z</time>
      </trkpt>
      <trkpt lat="42.47483" lon="2.6085">
        <ele>634</ele>
        <time>2024-09-20T07:50:02Z</time>
      </trkpt>
      <trkpt lat="42.4748" lon="2.60852">
        <ele>634</ele>
        <time>2024-09-20T07:50:05Z</time>
      </trkpt>
      <trkpt lat="42.47477" lon="2.60854">
        <ele>635</ele>
        <time>2024-09-20T07:50:08Z</time>
      </trkpt>
      <trkpt lat="42.47473" lon="2.60856">
        <ele>633</ele>
        <time>2024-09-20T07:50:12Z</time>
      </trkpt>
      <trkpt lat="42.47471" lon="2.60858">
        <ele>633</ele>
        <time>2024-09-20T07:50:15Z</time>
      </trkpt>
      <trkpt lat="42.47468" lon="2.6086">
        <ele>633</ele>
        <time>2024-09-20T07:50:17Z</time>
      </trkpt>
      <trkpt lat="42.47465" lon="2.60863">
        <ele>632</ele>
        <time>2024-09-20T07:50:21Z</time>
      </trkpt>
      <trkpt lat="42.47463" lon="2.60866">
        <ele>631</ele>
        <time>2024-09-20T07:50:24Z</time>
      </trkpt>
      <trkpt lat="42.4746" lon="2.60868">
        <ele>630</ele>
        <time>2024-09-20T07:50:28Z</time>
      </trkpt>
      <trkpt lat="42.47457" lon="2.60871">
        <ele>630</ele>
        <time>2024-09-20T07:50:30Z</time>
      </trkpt>
      <trkpt lat="42.47454" lon="2.60874">
        <ele>629</ele>
        <time>2024-09-20T07:50:33Z</time>
      </trkpt>
      <trkpt lat="42.47451" lon="2.60877">
        <ele>628</ele>
        <time>2024-09-20T07:50:36Z</time>
      </trkpt>
      <trkpt lat="42.47449" lon="2.6088">
        <ele>626</ele>
        <time>2024-09-20T07:50:39Z</time>
      </trkpt>
      <trkpt lat="42.47446" lon="2.60883">
        <ele>625</ele>
        <time>2024-09-20T07:50:41Z</time>
      </trkpt>
      <trkpt lat="42.47444" lon="2.60886">
        <ele>626</ele>
        <time>2024-09-20T07:50:43Z</time>
      </trkpt>
      <trkpt lat="42.47442" lon="2.60889">
        <ele>624</ele>
        <time>2024-09-20T07:50:48Z</time>
      </trkpt>
      <trkpt lat="42.4744" lon="2.60892">
        <ele>625</ele>
        <time>2024-09-20T07:50:50Z</time>
      </trkpt>
      <trkpt lat="42.47438" lon="2.60895">
        <ele>624</ele>
        <time>2024-09-20T07:50:52Z</time>
      </trkpt>
      <trkpt lat="42.47437" lon="2.60899">
        <ele>622</ele>
        <time>2024-09-20T07:51:10Z</time>
      </trkpt>
      <trkpt lat="42.47435" lon="2.60904">
        <ele>622</ele>
        <time>2024-09-20T07:51:13Z</time>
      </trkpt>
      <trkpt lat="42.47433" lon="2.60907">
        <ele>622</ele>
        <time>2024-09-20T07:51:22Z</time>
      </trkpt>
      <trkpt lat="42.47432" lon="2.60911">
        <ele>622</ele>
        <time>2024-09-20T07:51:36Z</time>
      </trkpt>
      <trkpt lat="42.47431" lon="2.60914">
        <ele>622</ele>
        <time>2024-09-20T07:51:38Z</time>
      </trkpt>
      <trkpt lat="42.47429" lon="2.60918">
        <ele>622</ele>
        <time>2024-09-20T07:51:41Z</time>
      </trkpt>
      <trkpt lat="42.47428" lon="2.60922">
        <ele>620</ele>
        <time>2024-09-20T07:51:45Z</time>
      </trkpt>
      <trkpt lat="42.47426" lon="2.60926">
        <ele>619</ele>
        <time>2024-09-20T07:51:47Z</time>
      </trkpt>
      <trkpt lat="42.47425" lon="2.6093">
        <ele>620</ele>
        <time>2024-09-20T07:51:51Z</time>
      </trkpt>
      <trkpt lat="42.47424" lon="2.60934">
        <ele>619</ele>
        <time>2024-09-20T07:51:53Z</time>
      </trkpt>
      <trkpt lat="42.47422" lon="2.60938">
        <ele>619</ele>
        <time>2024-09-20T07:51:57Z</time>
      </trkpt>
      <trkpt lat="42.4742" lon="2.60943">
        <ele>618</ele>
        <time>2024-09-20T07:52:00Z</time>
      </trkpt>
      <trkpt lat="42.47419" lon="2.60947">
        <ele>618</ele>
        <time>2024-09-20T07:52:03Z</time>
      </trkpt>
      <trkpt lat="42.47417" lon="2.60951">
        <ele>617</ele>
        <time>2024-09-20T07:52:06Z</time>
      </trkpt>
      <trkpt lat="42.47415" lon="2.60954">
        <ele>616</ele>
        <time>2024-09-20T07:52:09Z</time>
      </trkpt>
      <trkpt lat="42.47412" lon="2.60957">
        <ele>615</ele>
        <time>2024-09-20T07:52:13Z</time>
      </trkpt>
      <trkpt lat="42.4741" lon="2.6096">
        <ele>615</ele>
        <time>2024-09-20T07:52:16Z</time>
      </trkpt>
      <trkpt lat="42.47408" lon="2.60963">
        <ele>613</ele>
        <time>2024-09-20T07:52:19Z</time>
      </trkpt>
      <trkpt lat="42.47405" lon="2.60967">
        <ele>615</ele>
        <time>2024-09-20T07:52:22Z</time>
      </trkpt>
      <trkpt lat="42.47403" lon="2.6097">
        <ele>615</ele>
        <time>2024-09-20T07:52:24Z</time>
      </trkpt>
      <trkpt lat="42.47401" lon="2.60975">
        <ele>615</ele>
        <time>2024-09-20T07:52:27Z</time>
      </trkpt>
      <trkpt lat="42.474" lon="2.60979">
        <ele>614</ele>
        <time>2024-09-20T07:52:31Z</time>
      </trkpt>
      <trkpt lat="42.47398" lon="2.60983">
        <ele>614</ele>
        <time>2024-09-20T07:52:34Z</time>
      </trkpt>
      <trkpt lat="42.47396" lon="2.60988">
        <ele>614</ele>
        <time>2024-09-20T07:52:37Z</time>
      </trkpt>
      <trkpt lat="42.47394" lon="2.60992">
        <ele>614</ele>
        <time>2024-09-20T07:52:40Z</time>
      </trkpt>
      <trkpt lat="42.47392" lon="2.60995">
        <ele>615</ele>
        <time>2024-09-20T07:52:42Z</time>
      </trkpt>
      <trkpt lat="42.4739" lon="2.60998">
        <ele>615</ele>
        <time>2024-09-20T07:52:45Z</time>
      </trkpt>
      <trkpt lat="42.47387" lon="2.61001">
        <ele>615</ele>
        <time>2024-09-20T07:52:48Z</time>
      </trkpt>
      <trkpt lat="42.47385" lon="2.61004">
        <ele>615</ele>
        <time>2024-09-20T07:52:52Z</time>
      </trkpt>
      <trkpt lat="42.47383" lon="2.61007">
        <ele>614</ele>
        <time>2024-09-20T07:52:55Z</time>
      </trkpt>
      <trkpt lat="42.47381" lon="2.6101">
        <ele>614</ele>
        <time>2024-09-20T07:52:57Z</time>
      </trkpt>
      <trkpt lat="42.47379" lon="2.61014">
        <ele>613</ele>
        <time>2024-09-20T07:53:00Z</time>
      </trkpt>
      <trkpt lat="42.47378" lon="2.61018">
        <ele>613</ele>
        <time>2024-09-20T07:53:04Z</time>
      </trkpt>
      <trkpt lat="42.47376" lon="2.61024">
        <ele>612</ele>
        <time>2024-09-20T07:53:08Z</time>
      </trkpt>
      <trkpt lat="42.47375" lon="2.61028">
        <ele>612</ele>
        <time>2024-09-20T07:53:11Z</time>
      </trkpt>
      <trkpt lat="42.47372" lon="2.61032">
        <ele>611</ele>
        <time>2024-09-20T07:53:15Z</time>
      </trkpt>
      <trkpt lat="42.4737" lon="2.61035">
        <ele>609</ele>
        <time>2024-09-20T07:53:18Z</time>
      </trkpt>
      <trkpt lat="42.47367" lon="2.61038">
        <ele>609</ele>
        <time>2024-09-20T07:53:23Z</time>
      </trkpt>
      <trkpt lat="42.47364" lon="2.61041">
        <ele>607</ele>
        <time>2024-09-20T07:53:28Z</time>
      </trkpt>
      <trkpt lat="42.47361" lon="2.61044">
        <ele>607</ele>
        <time>2024-09-20T07:53:32Z</time>
      </trkpt>
      <trkpt lat="42.47359" lon="2.61048">
        <ele>607</ele>
        <time>2024-09-20T07:53:34Z</time>
      </trkpt>
      <trkpt lat="42.47357" lon="2.61052">
        <ele>607</ele>
        <time>2024-09-20T07:53:37Z</time>
      </trkpt>
      <trkpt lat="42.47356" lon="2.61056">
        <ele>607</ele>
        <time>2024-09-20T07:53:40Z</time>
      </trkpt>
      <trkpt lat="42.47356" lon="2.6106">
        <ele>606</ele>
        <time>2024-09-20T07:53:44Z</time>
      </trkpt>
      <trkpt lat="42.47356" lon="2.61064">
        <ele>605</ele>
        <time>2024-09-20T07:53:49Z</time>
      </trkpt>
      <trkpt lat="42.47355" lon="2.61068">
        <ele>604</ele>
        <time>2024-09-20T07:53:53Z</time>
      </trkpt>
      <trkpt lat="42.47355" lon="2.61072">
        <ele>604</ele>
        <time>2024-09-20T07:53:56Z</time>
      </trkpt>
      <trkpt lat="42.47354" lon="2.61076">
        <ele>603</ele>
        <time>2024-09-20T07:53:59Z</time>
      </trkpt>
      <trkpt lat="42.47353" lon="2.61081">
        <ele>603</ele>
        <time>2024-09-20T07:54:03Z</time>
      </trkpt>
      <trkpt lat="42.47351" lon="2.61084">
        <ele>603</ele>
        <time>2024-09-20T07:54:06Z</time>
      </trkpt>
      <trkpt lat="42.47349" lon="2.61088">
        <ele>602</ele>
        <time>2024-09-20T07:54:09Z</time>
      </trkpt>
      <trkpt lat="42.47346" lon="2.61092">
        <ele>601</ele>
        <time>2024-09-20T07:54:11Z</time>
      </trkpt>
      <trkpt lat="42.47344" lon="2.61097">
        <ele>600</ele>
        <time>2024-09-20T07:54:17Z</time>
      </trkpt>
      <trkpt lat="42.47341" lon="2.61101">
        <ele>599</ele>
        <time>2024-09-20T07:54:25Z</time>
      </trkpt>
      <trkpt lat="42.47339" lon="2.61105">
        <ele>601</ele>
        <time>2024-09-20T07:54:28Z</time>
      </trkpt>
      <trkpt lat="42.47337" lon="2.61109">
        <ele>600</ele>
        <time>2024-09-20T07:54:30Z</time>
      </trkpt>
      <trkpt lat="42.47335" lon="2.61113">
        <ele>600</ele>
        <time>2024-09-20T07:54:33Z</time>
      </trkpt>
      <trkpt lat="42.47333" lon="2.61116">
        <ele>599</ele>
        <time>2024-09-20T07:54:36Z</time>
      </trkpt>
      <trkpt lat="42.47331" lon="2.61119">
        <ele>597</ele>
        <time>2024-09-20T07:54:39Z</time>
      </trkpt>
      <trkpt lat="42.47329" lon="2.61123">
        <ele>597</ele>
        <time>2024-09-20T07:54:42Z</time>
      </trkpt>
      <trkpt lat="42.47326" lon="2.61127">
        <ele>596</ele>
        <time>2024-09-20T07:54:47Z</time>
      </trkpt>
      <trkpt lat="42.47323" lon="2.6113">
        <ele>595</ele>
        <time>2024-09-20T07:54:50Z</time>
      </trkpt>
      <trkpt lat="42.47321" lon="2.61134">
        <ele>595</ele>
        <time>2024-09-20T07:54:53Z</time>
      </trkpt>
      <trkpt lat="42.4732" lon="2.61138">
        <ele>594</ele>
        <time>2024-09-20T07:54:57Z</time>
      </trkpt>
      <trkpt lat="42.47317" lon="2.61142">
        <ele>594</ele>
        <time>2024-09-20T07:54:59Z</time>
      </trkpt>
      <trkpt lat="42.47315" lon="2.61146">
        <ele>593</ele>
        <time>2024-09-20T07:55:04Z</time>
      </trkpt>
      <trkpt lat="42.47313" lon="2.61149">
        <ele>593</ele>
        <time>2024-09-20T07:55:10Z</time>
      </trkpt>
      <trkpt lat="42.47312" lon="2.61152">
        <ele>593</ele>
        <time>2024-09-20T07:55:13Z</time>
      </trkpt>
      <trkpt lat="42.47309" lon="2.61155">
        <ele>593</ele>
        <time>2024-09-20T07:55:15Z</time>
      </trkpt>
      <trkpt lat="42.47307" lon="2.61158">
        <ele>592</ele>
        <time>2024-09-20T07:55:17Z</time>
      </trkpt>
      <trkpt lat="42.47305" lon="2.61162">
        <ele>593</ele>
        <time>2024-09-20T07:55:22Z</time>
      </trkpt>
      <trkpt lat="42.47303" lon="2.61166">
        <ele>593</ele>
        <time>2024-09-20T07:55:27Z</time>
      </trkpt>
      <trkpt lat="42.47301" lon="2.61169">
        <ele>592</ele>
        <time>2024-09-20T07:55:30Z</time>
      </trkpt>
      <trkpt lat="42.47297" lon="2.61173">
        <ele>592</ele>
        <time>2024-09-20T07:55:33Z</time>
      </trkpt>
      <trkpt lat="42.47295" lon="2.61176">
        <ele>591</ele>
        <time>2024-09-20T07:55:37Z</time>
      </trkpt>
      <trkpt lat="42.47292" lon="2.61179">
        <ele>592</ele>
        <time>2024-09-20T07:55:40Z</time>
      </trkpt>
      <trkpt lat="42.47289" lon="2.61181">
        <ele>591</ele>
        <time>2024-09-20T07:55:42Z</time>
      </trkpt>
      <trkpt lat="42.47287" lon="2.61183">
        <ele>590</ele>
        <time>2024-09-20T07:55:46Z</time>
      </trkpt>
      <trkpt lat="42.47284" lon="2.61184">
        <ele>590</ele>
        <time>2024-09-20T07:55:49Z</time>
      </trkpt>
      <trkpt lat="42.4728" lon="2.61186">
        <ele>589</ele>
        <time>2024-09-20T07:55:53Z</time>
      </trkpt>
      <trkpt lat="42.47277" lon="2.61188">
        <ele>588</ele>
        <time>2024-09-20T07:55:58Z</time>
      </trkpt>
      <trkpt lat="42.47274" lon="2.6119">
        <ele>587</ele>
        <time>2024-09-20T07:56:01Z</time>
      </trkpt>
      <trkpt lat="42.47272" lon="2.61193">
        <ele>586</ele>
        <time>2024-09-20T07:56:03Z</time>
      </trkpt>
      <trkpt lat="42.4727" lon="2.61196">
        <ele>586</ele>
        <time>2024-09-20T07:56:07Z</time>
      </trkpt>
      <trkpt lat="42.47268" lon="2.61199">
        <ele>585</ele>
        <time>2024-09-20T07:56:15Z</time>
      </trkpt>
      <trkpt lat="42.47267" lon="2.61203">
        <ele>585</ele>
        <time>2024-09-20T07:56:19Z</time>
      </trkpt>
      <trkpt lat="42.47265" lon="2.61208">
        <ele>585</ele>
        <time>2024-09-20T07:56:23Z</time>
      </trkpt>
      <trkpt lat="42.47264" lon="2.61212">
        <ele>585</ele>
        <time>2024-09-20T07:56:26Z</time>
      </trkpt>
      <trkpt lat="42.47262" lon="2.61217">
        <ele>584</ele>
        <time>2024-09-20T07:56:30Z</time>
      </trkpt>
      <trkpt lat="42.47261" lon="2.61221">
        <ele>583</ele>
        <time>2024-09-20T07:56:35Z</time>
      </trkpt>
      <trkpt lat="42.47259" lon="2.61225">
        <ele>582</ele>
        <time>2024-09-20T07:56:39Z</time>
      </trkpt>
      <trkpt lat="42.47257" lon="2.61228">
        <ele>582</ele>
        <time>2024-09-20T07:56:41Z</time>
      </trkpt>
      <trkpt lat="42.47255" lon="2.61232">
        <ele>581</ele>
        <time>2024-09-20T07:56:48Z</time>
      </trkpt>
      <trkpt lat="42.47253" lon="2.61235">
        <ele>581</ele>
        <time>2024-09-20T07:56:50Z</time>
      </trkpt>
      <trkpt lat="42.47251" lon="2.61238">
        <ele>580</ele>
        <time>2024-09-20T07:56:53Z</time>
      </trkpt>
      <trkpt lat="42.47249" lon="2.61241">
        <ele>581</ele>
        <time>2024-09-20T07:56:55Z</time>
      </trkpt>
      <trkpt lat="42.47247" lon="2.61243">
        <ele>580</ele>
        <time>2024-09-20T07:56:56Z</time>
      </trkpt>
      <trkpt lat="42.47244" lon="2.61246">
        <ele>581</ele>
        <time>2024-09-20T07:57:01Z</time>
      </trkpt>
      <trkpt lat="42.47241" lon="2.61248">
        <ele>580</ele>
        <time>2024-09-20T07:57:04Z</time>
      </trkpt>
      <trkpt lat="42.47237" lon="2.61251">
        <ele>581</ele>
        <time>2024-09-20T07:57:08Z</time>
      </trkpt>
      <trkpt lat="42.47234" lon="2.61252">
        <ele>581</ele>
        <time>2024-09-20T07:57:11Z</time>
      </trkpt>
      <trkpt lat="42.47232" lon="2.61254">
        <ele>582</ele>
        <time>2024-09-20T07:57:43Z</time>
      </trkpt>
      <trkpt lat="42.47229" lon="2.61255">
        <ele>580</ele>
        <time>2024-09-20T07:57:47Z</time>
      </trkpt>
      <trkpt lat="42.47226" lon="2.61256">
        <ele>580</ele>
        <time>2024-09-20T07:57:49Z</time>
      </trkpt>
      <trkpt lat="42.47224" lon="2.6126">
        <ele>581</ele>
        <time>2024-09-20T07:57:50Z</time>
      </trkpt>
      <trkpt lat="42.47222" lon="2.61262">
        <ele>581</ele>
        <time>2024-09-20T07:57:52Z</time>
      </trkpt>
      <trkpt lat="42.47219" lon="2.61263">
        <ele>581</ele>
        <time>2024-09-20T07:57:54Z</time>
      </trkpt>
      <trkpt lat="42.47216" lon="2.61262">
        <ele>581</ele>
        <time>2024-09-20T07:57:57Z</time>
      </trkpt>
      <trkpt lat="42.47213" lon="2.61261">
        <ele>580</ele>
        <time>2024-09-20T07:57:59Z</time>
      </trkpt>
      <trkpt lat="42.4721" lon="2.6126">
        <ele>580</ele>
        <time>2024-09-20T07:58:02Z</time>
      </trkpt>
      <trkpt lat="42.47208" lon="2.61259">
        <ele>580</ele>
        <time>2024-09-20T07:58:05Z</time>
      </trkpt>
      <trkpt lat="42.47204" lon="2.61261">
        <ele>579</ele>
        <time>2024-09-20T07:58:08Z</time>
      </trkpt>
      <trkpt lat="42.47201" lon="2.61261">
        <ele>578</ele>
        <time>2024-09-20T07:58:12Z</time>
      </trkpt>
      <trkpt lat="42.47197" lon="2.61262">
        <ele>579</ele>
        <time>2024-09-20T07:58:15Z</time>
      </trkpt>
      <trkpt lat="42.47194" lon="2.61263">
        <ele>578</ele>
        <time>2024-09-20T07:58:18Z</time>
      </trkpt>
      <trkpt lat="42.4719" lon="2.61264">
        <ele>578</ele>
        <time>2024-09-20T07:58:21Z</time>
      </trkpt>
      <trkpt lat="42.47187" lon="2.61265">
        <ele>579</ele>
        <time>2024-09-20T07:58:23Z</time>
      </trkpt>
      <trkpt lat="42.47184" lon="2.61266">
        <ele>578</ele>
        <time>2024-09-20T07:58:26Z</time>
      </trkpt>
      <trkpt lat="42.47181" lon="2.61267">
        <ele>577</ele>
        <time>2024-09-20T07:58:29Z</time>
      </trkpt>
      <trkpt lat="42.47178" lon="2.61269">
        <ele>576</ele>
        <time>2024-09-20T07:58:32Z</time>
      </trkpt>
      <trkpt lat="42.47175" lon="2.61271">
        <ele>575</ele>
        <time>2024-09-20T07:58:34Z</time>
      </trkpt>
      <trkpt lat="42.47173" lon="2.61274">
        <ele>574</ele>
        <time>2024-09-20T07:58:38Z</time>
      </trkpt>
      <trkpt lat="42.4717" lon="2.61276">
        <ele>572</ele>
        <time>2024-09-20T07:58:40Z</time>
      </trkpt>
      <trkpt lat="42.47168" lon="2.61279">
        <ele>573</ele>
        <time>2024-09-20T07:58:43Z</time>
      </trkpt>
      <trkpt lat="42.47167" lon="2.61282">
        <ele>572</ele>
        <time>2024-09-20T07:58:46Z</time>
      </trkpt>
      <trkpt lat="42.47165" lon="2.61285">
        <ele>571</ele>
        <time>2024-09-20T07:58:54Z</time>
      </trkpt>
      <trkpt lat="42.47163" lon="2.61289">
        <ele>571</ele>
        <time>2024-09-20T07:58:56Z</time>
      </trkpt>
      <trkpt lat="42.47162" lon="2.61293">
        <ele>570</ele>
        <time>2024-09-20T07:58:59Z</time>
      </trkpt>
      <trkpt lat="42.4716" lon="2.61297">
        <ele>569</ele>
        <time>2024-09-20T07:59:03Z</time>
      </trkpt>
      <trkpt lat="42.47159" lon="2.61301">
        <ele>568</ele>
        <time>2024-09-20T07:59:07Z</time>
      </trkpt>
      <trkpt lat="42.47158" lon="2.61307">
        <ele>566</ele>
        <time>2024-09-20T07:59:14Z</time>
      </trkpt>
      <trkpt lat="42.47157" lon="2.61311">
        <ele>565</ele>
        <time>2024-09-20T07:59:17Z</time>
      </trkpt>
      <trkpt lat="42.47156" lon="2.61316">
        <ele>565</ele>
        <time>2024-09-20T07:59:20Z</time>
      </trkpt>
      <trkpt lat="42.47155" lon="2.6132">
        <ele>566</ele>
        <time>2024-09-20T07:59:22Z</time>
      </trkpt>
      <trkpt lat="42.47154" lon="2.61324">
        <ele>565</ele>
        <time>2024-09-20T07:59:26Z</time>
      </trkpt>
      <trkpt lat="42.47153" lon="2.61328">
        <ele>564</ele>
        <time>2024-09-20T07:59:29Z</time>
      </trkpt>
      <trkpt lat="42.47152" lon="2.61332">
        <ele>564</ele>
        <time>2024-09-20T07:59:32Z</time>
      </trkpt>
      <trkpt lat="42.4715" lon="2.61336">
        <ele>564</ele>
        <time>2024-09-20T07:59:35Z</time>
      </trkpt>
      <trkpt lat="42.47149" lon="2.6134">
        <ele>562</ele>
        <time>2024-09-20T07:59:43Z</time>
      </trkpt>
      <trkpt lat="42.47147" lon="2.61344">
        <ele>562</ele>
        <time>2024-09-20T07:59:49Z</time>
      </trkpt>
      <trkpt lat="42.47145" lon="2.61348">
        <ele>562</ele>
        <time>2024-09-20T07:59:52Z</time>
      </trkpt>
      <trkpt lat="42.47142" lon="2.61351">
        <ele>561</ele>
        <time>2024-09-20T07:59:56Z</time>
      </trkpt>
      <trkpt lat="42.47139" lon="2.61354">
        <ele>560</ele>
        <time>2024-09-20T08:00:00Z</time>
      </trkpt>
      <trkpt lat="42.47136" lon="2.61357">
        <ele>560</ele>
        <time>2024-09-20T08:00:36Z</time>
      </trkpt>
      <trkpt lat="42.47133" lon="2.61358">
        <ele>558</ele>
        <time>2024-09-20T08:00:42Z</time>
      </trkpt>
      <trkpt lat="42.4713" lon="2.6136">
        <ele>557</ele>
        <time>2024-09-20T08:00:46Z</time>
      </trkpt>
      <trkpt lat="42.47127" lon="2.61362">
        <ele>556</ele>
        <time>2024-09-20T08:00:49Z</time>
      </trkpt>
      <trkpt lat="42.47124" lon="2.61365">
        <ele>557</ele>
        <time>2024-09-20T08:00:51Z</time>
      </trkpt>
      <trkpt lat="42.47122" lon="2.61367">
        <ele>556</ele>
        <time>2024-09-20T08:00:54Z</time>
      </trkpt>
      <trkpt lat="42.4712" lon="2.6137">
        <ele>556</ele>
        <time>2024-09-20T08:00:57Z</time>
      </trkpt>
      <trkpt lat="42.47117" lon="2.61373">
        <ele>555</ele>
        <time>2024-09-20T08:01:01Z</time>
      </trkpt>
      <trkpt lat="42.47115" lon="2.61376">
        <ele>554</ele>
        <time>2024-09-20T08:01:05Z</time>
      </trkpt>
      <trkpt lat="42.47113" lon="2.6138">
        <ele>554</ele>
        <time>2024-09-20T08:01:08Z</time>
      </trkpt>
      <trkpt lat="42.47111" lon="2.61383">
        <ele>553</ele>
        <time>2024-09-20T08:01:13Z</time>
      </trkpt>
      <trkpt lat="42.47109" lon="2.61387">
        <ele>552</ele>
        <time>2024-09-20T08:01:17Z</time>
      </trkpt>
      <trkpt lat="42.47108" lon="2.61391">
        <ele>549</ele>
        <time>2024-09-20T08:01:33Z</time>
      </trkpt>
      <trkpt lat="42.47107" lon="2.61395">
        <ele>548</ele>
        <time>2024-09-20T08:01:37Z</time>
      </trkpt>
      <trkpt lat="42.47106" lon="2.61398">
        <ele>546</ele>
        <time>2024-09-20T08:01:40Z</time>
      </trkpt>
      <trkpt lat="42.47104" lon="2.61401">
        <ele>546</ele>
        <time>2024-09-20T08:01:43Z</time>
      </trkpt>
      <trkpt lat="42.47102" lon="2.61404">
        <ele>546</ele>
        <time>2024-09-20T08:01:45Z</time>
      </trkpt>
      <trkpt lat="42.47102" lon="2.61407">
        <ele>546</ele>
        <time>2024-09-20T08:01:48Z</time>
      </trkpt>
      <trkpt lat="42.47101" lon="2.6141">
        <ele>544</ele>
        <time>2024-09-20T08:01:54Z</time>
      </trkpt>
      <trkpt lat="42.47099" lon="2.61413">
        <ele>544</ele>
        <time>2024-09-20T08:01:57Z</time>
      </trkpt>
      <trkpt lat="42.47096" lon="2.61415">
        <ele>540</ele>
        <time>2024-09-20T08:02:09Z</time>
      </trkpt>
      <trkpt lat="42.47095" lon="2.61419">
        <ele>540</ele>
        <time>2024-09-20T08:02:12Z</time>
      </trkpt>
      <trkpt lat="42.47093" lon="2.61422">
        <ele>539</ele>
        <time>2024-09-20T08:02:15Z</time>
      </trkpt>
      <trkpt lat="42.47092" lon="2.61426">
        <ele>538</ele>
        <time>2024-09-20T08:02:18Z</time>
      </trkpt>
      <trkpt lat="42.4709" lon="2.61429">
        <ele>538</ele>
        <time>2024-09-20T08:02:21Z</time>
      </trkpt>
      <trkpt lat="42.47089" lon="2.61432">
        <ele>536</ele>
        <time>2024-09-20T08:02:26Z</time>
      </trkpt>
      <trkpt lat="42.47087" lon="2.61436">
        <ele>535</ele>
        <time>2024-09-20T08:02:29Z</time>
      </trkpt>
      <trkpt lat="42.47086" lon="2.6144">
        <ele>534</ele>
        <time>2024-09-20T08:02:34Z</time>
      </trkpt>
      <trkpt lat="42.47085" lon="2.61444">
        <ele>533</ele>
        <time>2024-09-20T08:02:37Z</time>
      </trkpt>
      <trkpt lat="42.47084" lon="2.61448">
        <ele>534</ele>
        <time>2024-09-20T08:02:40Z</time>
      </trkpt>
      <trkpt lat="42.47083" lon="2.61452">
        <ele>533</ele>
        <time>2024-09-20T08:02:44Z</time>
      </trkpt>
      <trkpt lat="42.47082" lon="2.61456">
        <ele>533</ele>
        <time>2024-09-20T08:02:47Z</time>
      </trkpt>
      <trkpt lat="42.47081" lon="2.61459">
        <ele>532</ele>
        <time>2024-09-20T08:02:48Z</time>
      </trkpt>
      <trkpt lat="42.47081" lon="2.61464">
        <ele>532</ele>
        <time>2024-09-20T08:02:51Z</time>
      </trkpt>
      <trkpt lat="42.4708" lon="2.61468">
        <ele>531</ele>
        <time>2024-09-20T08:02:54Z</time>
      </trkpt>
      <trkpt lat="42.4708" lon="2.61472">
        <ele>529</ele>
        <time>2024-09-20T08:03:10Z</time>
      </trkpt>
      <trkpt lat="42.4708" lon="2.61476">
        <ele>530</ele>
        <time>2024-09-20T08:03:15Z</time>
      </trkpt>
      <trkpt lat="42.4708" lon="2.6148">
        <ele>529</ele>
        <time>2024-09-20T08:03:21Z</time>
      </trkpt>
      <trkpt lat="42.4708" lon="2.61484">
        <ele>528</ele>
        <time>2024-09-20T08:03:42Z</time>
      </trkpt>
      <trkpt lat="42.47079" lon="2.61487">
        <ele>527</ele>
        <time>2024-09-20T08:03:47Z</time>
      </trkpt>
      <trkpt lat="42.47077" lon="2.61491">
        <ele>528</ele>
        <time>2024-09-20T08:03:52Z</time>
      </trkpt>
      <trkpt lat="42.47075" lon="2.61495">
        <ele>525</ele>
        <time>2024-09-20T08:03:58Z</time>
      </trkpt>
      <trkpt lat="42.47073" lon="2.61498">
        <ele>526</ele>
        <time>2024-09-20T08:04:01Z</time>
      </trkpt>
      <trkpt lat="42.47072" lon="2.61502">
        <ele>523</ele>
        <time>2024-09-20T08:04:06Z</time>
      </trkpt>
      <trkpt lat="42.4707" lon="2.61506">
        <ele>523</ele>
        <time>2024-09-20T08:04:08Z</time>
      </trkpt>
      <trkpt lat="42.47068" lon="2.61509">
        <ele>522</ele>
        <time>2024-09-20T08:04:13Z</time>
      </trkpt>
      <trkpt lat="42.47066" lon="2.61512">
        <ele>520</ele>
        <time>2024-09-20T08:04:16Z</time>
      </trkpt>
      <trkpt lat="42.47064" lon="2.61516">
        <ele>520</ele>
        <time>2024-09-20T08:04:28Z</time>
      </trkpt>
      <trkpt lat="42.47062" lon="2.61519">
        <ele>520</ele>
        <time>2024-09-20T08:04:31Z</time>
      </trkpt>
      <trkpt lat="42.47059" lon="2.61522">
        <ele>519</ele>
        <time>2024-09-20T08:04:34Z</time>
      </trkpt>
      <trkpt lat="42.47057" lon="2.61525">
        <ele>517</ele>
        <time>2024-09-20T08:04:37Z</time>
      </trkpt>
      <trkpt lat="42.47054" lon="2.61528">
        <ele>517</ele>
        <time>2024-09-20T08:04:40Z</time>
      </trkpt>
      <trkpt lat="42.47052" lon="2.61532">
        <ele>516</ele>
        <time>2024-09-20T08:04:43Z</time>
      </trkpt>
      <trkpt lat="42.4705" lon="2.61535">
        <ele>515</ele>
        <time>2024-09-20T08:04:46Z</time>
      </trkpt>
      <trkpt lat="42.47047" lon="2.61538">
        <ele>514</ele>
        <time>2024-09-20T08:04:49Z</time>
      </trkpt>
      <trkpt lat="42.47045" lon="2.61542">
        <ele>512</ele>
        <time>2024-09-20T08:04:52Z</time>
      </trkpt>
      <trkpt lat="42.47043" lon="2.61546">
        <ele>512</ele>
        <time>2024-09-20T08:04:56Z</time>
      </trkpt>
      <trkpt lat="42.47042" lon="2.61551">
        <ele>512</ele>
        <time>2024-09-20T08:05:00Z</time>
      </trkpt>
      <trkpt lat="42.47041" lon="2.61556">
        <ele>513</ele>
        <time>2024-09-20T08:05:04Z</time>
      </trkpt>
      <trkpt lat="42.4704" lon="2.6156">
        <ele>513</ele>
        <time>2024-09-20T08:05:06Z</time>
      </trkpt>
      <trkpt lat="42.4704" lon="2.61564">
        <ele>511</ele>
        <time>2024-09-20T08:05:09Z</time>
      </trkpt>
      <trkpt lat="42.47039" lon="2.61569">
        <ele>511</ele>
        <time>2024-09-20T08:05:14Z</time>
      </trkpt>
      <trkpt lat="42.47038" lon="2.61572">
        <ele>510</ele>
        <time>2024-09-20T08:05:17Z</time>
      </trkpt>
      <trkpt lat="42.47036" lon="2.61576">
        <ele>509</ele>
        <time>2024-09-20T08:05:19Z</time>
      </trkpt>
      <trkpt lat="42.47034" lon="2.61579">
        <ele>508</ele>
        <time>2024-09-20T08:05:23Z</time>
      </trkpt>
      <trkpt lat="42.47031" lon="2.61582">
        <ele>506</ele>
        <time>2024-09-20T08:05:26Z</time>
      </trkpt>
      <trkpt lat="42.47028" lon="2.61583">
        <ele>506</ele>
        <time>2024-09-20T08:05:30Z</time>
      </trkpt>
      <trkpt lat="42.47025" lon="2.61584">
        <ele>504</ele>
        <time>2024-09-20T08:05:33Z</time>
      </trkpt>
      <trkpt lat="42.47021" lon="2.61586">
        <ele>504</ele>
        <time>2024-09-20T08:05:36Z</time>
      </trkpt>
      <trkpt lat="42.47019" lon="2.61589">
        <ele>503</ele>
        <time>2024-09-20T08:05:39Z</time>
      </trkpt>
      <trkpt lat="42.47016" lon="2.61591">
        <ele>501</ele>
        <time>2024-09-20T08:06:09Z</time>
      </trkpt>
      <trkpt lat="42.47014" lon="2.61594">
        <ele>500</ele>
        <time>2024-09-20T08:06:12Z</time>
      </trkpt>
      <trkpt lat="42.47011" lon="2.61597">
        <ele>500</ele>
        <time>2024-09-20T08:06:16Z</time>
      </trkpt>
      <trkpt lat="42.47008" lon="2.61599">
        <ele>498</ele>
        <time>2024-09-20T08:06:19Z</time>
      </trkpt>
      <trkpt lat="42.47006" lon="2.61602">
        <ele>498</ele>
        <time>2024-09-20T08:06:21Z</time>
      </trkpt>
      <trkpt lat="42.47003" lon="2.61604">
        <ele>497</ele>
        <time>2024-09-20T08:06:24Z</time>
      </trkpt>
      <trkpt lat="42.47001" lon="2.61607">
        <ele>497</ele>
        <time>2024-09-20T08:06:26Z</time>
      </trkpt>
      <trkpt lat="42.47" lon="2.6161">
        <ele>497</ele>
        <time>2024-09-20T08:06:29Z</time>
      </trkpt>
      <trkpt lat="42.46997" lon="2.61613">
        <ele>497</ele>
        <time>2024-09-20T08:06:32Z</time>
      </trkpt>
      <trkpt lat="42.46994" lon="2.61616">
        <ele>496</ele>
        <time>2024-09-20T08:06:35Z</time>
      </trkpt>
      <trkpt lat="42.46992" lon="2.6162">
        <ele>495</ele>
        <time>2024-09-20T08:06:39Z</time>
      </trkpt>
      <trkpt lat="42.46989" lon="2.61624">
        <ele>496</ele>
        <time>2024-09-20T08:06:42Z</time>
      </trkpt>
      <trkpt lat="42.46987" lon="2.61628">
        <ele>495</ele>
        <time>2024-09-20T08:06:45Z</time>
      </trkpt>
      <trkpt lat="42.46985" lon="2.61632">
        <ele>495</ele>
        <time>2024-09-20T08:06:48Z</time>
      </trkpt>
      <trkpt lat="42.46982" lon="2.61635">
        <ele>495</ele>
        <time>2024-09-20T08:06:50Z</time>
      </trkpt>
      <trkpt lat="42.4698" lon="2.61639">
        <ele>494</ele>
        <time>2024-09-20T08:06:54Z</time>
      </trkpt>
      <trkpt lat="42.46978" lon="2.61642">
        <ele>493</ele>
        <time>2024-09-20T08:06:56Z</time>
      </trkpt>
      <trkpt lat="42.46976" lon="2.61646">
        <ele>493</ele>
        <time>2024-09-20T08:07:00Z</time>
      </trkpt>
      <trkpt lat="42.46974" lon="2.61649">
        <ele>493</ele>
        <time>2024-09-20T08:07:04Z</time>
      </trkpt>
      <trkpt lat="42.46971" lon="2.61652">
        <ele>493</ele>
        <time>2024-09-20T08:07:07Z</time>
      </trkpt>
      <trkpt lat="42.46968" lon="2.61655">
        <ele>493</ele>
        <time>2024-09-20T08:07:10Z</time>
      </trkpt>
      <trkpt lat="42.46965" lon="2.61658">
        <ele>493</ele>
        <time>2024-09-20T08:07:13Z</time>
      </trkpt>
      <trkpt lat="42.46963" lon="2.61661">
        <ele>493</ele>
        <time>2024-09-20T08:07:16Z</time>
      </trkpt>
      <trkpt lat="42.4696" lon="2.61663">
        <ele>493</ele>
        <time>2024-09-20T08:07:21Z</time>
      </trkpt>
      <trkpt lat="42.4696" lon="2.61663">
        <ele>493</ele>
        <time>2024-09-20T08:07:38Z</time>
      </trkpt>
      <trkpt lat="42.46959" lon="2.61664">
        <ele>492</ele>
        <time>2024-09-20T08:07:46Z</time>
      </trkpt>
      <trkpt lat="42.46956" lon="2.61666">
        <ele>493</ele>
        <time>2024-09-20T08:07:57Z</time>
      </trkpt>
      <trkpt lat="42.46953" lon="2.61668">
        <ele>491</ele>
        <time>2024-09-20T08:08:27Z</time>
      </trkpt>
      <trkpt lat="42.46951" lon="2.61671">
        <ele>491</ele>
        <time>2024-09-20T08:08:30Z</time>
      </trkpt>
      <trkpt lat="42.46949" lon="2.61674">
        <ele>491</ele>
        <time>2024-09-20T08:08:33Z</time>
      </trkpt>
      <trkpt lat="42.46946" lon="2.61677">
        <ele>491</ele>
        <time>2024-09-20T08:08:35Z</time>
      </trkpt>
      <trkpt lat="42.46943" lon="2.61679">
        <ele>490</ele>
        <time>2024-09-20T08:08:37Z</time>
      </trkpt>
      <trkpt lat="42.46941" lon="2.61681">
        <ele>491</ele>
        <time>2024-09-20T08:08:39Z</time>
      </trkpt>
      <trkpt lat="42.46938" lon="2.61683">
        <ele>490</ele>
        <time>2024-09-20T08:08:43Z</time>
      </trkpt>
      <trkpt lat="42.46935" lon="2.61686">
        <ele>490</ele>
        <time>2024-09-20T08:08:46Z</time>
      </trkpt>
      <trkpt lat="42.46932" lon="2.61688">
        <ele>490</ele>
        <time>2024-09-20T08:08:48Z</time>
      </trkpt>
      <trkpt lat="42.4693" lon="2.61692">
        <ele>490</ele>
        <time>2024-09-20T08:08:51Z</time>
      </trkpt>
      <trkpt lat="42.46928" lon="2.61696">
        <ele>490</ele>
        <time>2024-09-20T08:08:54Z</time>
      </trkpt>
      <trkpt lat="42.46926" lon="2.617">
        <ele>490</ele>
        <time>2024-09-20T08:08:59Z</time>
      </trkpt>
      <trkpt lat="42.46923" lon="2.61704">
        <ele>490</ele>
        <time>2024-09-20T08:09:02Z</time>
      </trkpt>
      <trkpt lat="42.46921" lon="2.61707">
        <ele>490</ele>
        <time>2024-09-20T08:09:06Z</time>
      </trkpt>
      <trkpt lat="42.46919" lon="2.61711">
        <ele>489</ele>
        <time>2024-09-20T08:09:09Z</time>
      </trkpt>
      <trkpt lat="42.46916" lon="2.61715">
        <ele>490</ele>
        <time>2024-09-20T08:09:12Z</time>
      </trkpt>
      <trkpt lat="42.46914" lon="2.6172">
        <ele>489</ele>
        <time>2024-09-20T08:09:15Z</time>
      </trkpt>
      <trkpt lat="42.46912" lon="2.61723">
        <ele>489</ele>
        <time>2024-09-20T08:09:18Z</time>
      </trkpt>
      <trkpt lat="42.4691" lon="2.61727">
        <ele>489</ele>
        <time>2024-09-20T08:09:21Z</time>
      </trkpt>
      <trkpt lat="42.46907" lon="2.61732">
        <ele>489</ele>
        <time>2024-09-20T08:09:25Z</time>
      </trkpt>
      <trkpt lat="42.46905" lon="2.61735">
        <ele>489</ele>
        <time>2024-09-20T08:09:27Z</time>
      </trkpt>
      <trkpt lat="42.46903" lon="2.61739">
        <ele>488</ele>
        <time>2024-09-20T08:09:31Z</time>
      </trkpt>
      <trkpt lat="42.469" lon="2.61743">
        <ele>488</ele>
        <time>2024-09-20T08:09:34Z</time>
      </trkpt>
      <trkpt lat="42.46898" lon="2.61747">
        <ele>489</ele>
        <time>2024-09-20T08:09:36Z</time>
      </trkpt>
      <trkpt lat="42.46896" lon="2.61751">
        <ele>489</ele>
        <time>2024-09-20T08:09:39Z</time>
      </trkpt>
      <trkpt lat="42.46894" lon="2.61755">
        <ele>489</ele>
        <time>2024-09-20T08:09:42Z</time>
      </trkpt>
      <trkpt lat="42.46892" lon="2.61759">
        <ele>488</ele>
        <time>2024-09-20T08:09:44Z</time>
      </trkpt>
      <trkpt lat="42.46891" lon="2.61762">
        <ele>489</ele>
        <time>2024-09-20T08:09:47Z</time>
      </trkpt>
      <trkpt lat="42.46889" lon="2.61766">
        <ele>489</ele>
        <time>2024-09-20T08:09:50Z</time>
      </trkpt>
      <trkpt lat="42.46886" lon="2.6177">
        <ele>490</ele>
        <time>2024-09-20T08:09:53Z</time>
      </trkpt>
      <trkpt lat="42.46884" lon="2.61773">
        <ele>488</ele>
        <time>2024-09-20T08:09:55Z</time>
      </trkpt>
      <trkpt lat="42.46882" lon="2.61777">
        <ele>489</ele>
        <time>2024-09-20T08:09:58Z</time>
      </trkpt>
      <trkpt lat="42.46879" lon="2.6178">
        <ele>490</ele>
        <time>2024-09-20T08:10:00Z</time>
      </trkpt>
      <trkpt lat="42.46878" lon="2.61784">
        <ele>490</ele>
        <time>2024-09-20T08:10:03Z</time>
      </trkpt>
      <trkpt lat="42.46876" lon="2.61788">
        <ele>490</ele>
        <time>2024-09-20T08:10:05Z</time>
      </trkpt>
      <trkpt lat="42.46874" lon="2.61792">
        <ele>489</ele>
        <time>2024-09-20T08:10:10Z</time>
      </trkpt>
      <trkpt lat="42.46872" lon="2.61796">
        <ele>489</ele>
        <time>2024-09-20T08:10:12Z</time>
      </trkpt>
      <trkpt lat="42.4687" lon="2.61799">
        <ele>488</ele>
        <time>2024-09-20T08:10:15Z</time>
      </trkpt>
      <trkpt lat="42.46868" lon="2.61802">
        <ele>488</ele>
        <time>2024-09-20T08:10:17Z</time>
      </trkpt>
      <trkpt lat="42.46866" lon="2.61806">
        <ele>487</ele>
        <time>2024-09-20T08:10:19Z</time>
      </trkpt>
      <trkpt lat="42.46864" lon="2.61809">
        <ele>487</ele>
        <time>2024-09-20T08:10:21Z</time>
      </trkpt>
      <trkpt lat="42.46862" lon="2.61812">
        <ele>487</ele>
        <time>2024-09-20T08:10:24Z</time>
      </trkpt>
      <trkpt lat="42.46859" lon="2.61816">
        <ele>487</ele>
        <time>2024-09-20T08:10:27Z</time>
      </trkpt>
      <trkpt lat="42.46857" lon="2.61819">
        <ele>487</ele>
        <time>2024-09-20T08:10:30Z</time>
      </trkpt>
      <trkpt lat="42.46854" lon="2.61823">
        <ele>485</ele>
        <time>2024-09-20T08:10:34Z</time>
      </trkpt>
      <trkpt lat="42.46851" lon="2.61827">
        <ele>485</ele>
        <time>2024-09-20T08:10:36Z</time>
      </trkpt>
      <trkpt lat="42.46848" lon="2.61831">
        <ele>485</ele>
        <time>2024-09-20T08:10:39Z</time>
      </trkpt>
      <trkpt lat="42.46846" lon="2.61834">
        <ele>486</ele>
        <time>2024-09-20T08:10:41Z</time>
      </trkpt>
      <trkpt lat="42.46844" lon="2.61837">
        <ele>485</ele>
        <time>2024-09-20T08:10:44Z</time>
      </trkpt>
      <trkpt lat="42.46841" lon="2.61841">
        <ele>485</ele>
        <time>2024-09-20T08:10:47Z</time>
      </trkpt>
      <trkpt lat="42.46838" lon="2.61844">
        <ele>483</ele>
        <time>2024-09-20T08:10:50Z</time>
      </trkpt>
      <trkpt lat="42.46835" lon="2.61848">
        <ele>484</ele>
        <time>2024-09-20T08:10:52Z</time>
      </trkpt>
      <trkpt lat="42.46833" lon="2.61851">
        <ele>481</ele>
        <time>2024-09-20T08:10:54Z</time>
      </trkpt>
      <trkpt lat="42.46831" lon="2.61854">
        <ele>482</ele>
        <time>2024-09-20T08:10:56Z</time>
      </trkpt>
      <trkpt lat="42.46828" lon="2.61857">
        <ele>482</ele>
        <time>2024-09-20T08:10:59Z</time>
      </trkpt>
      <trkpt lat="42.46826" lon="2.61859">
        <ele>482</ele>
        <time>2024-09-20T08:11:01Z</time>
      </trkpt>
      <trkpt lat="42.46823" lon="2.61862">
        <ele>482</ele>
        <time>2024-09-20T08:11:03Z</time>
      </trkpt>
      <trkpt lat="42.46821" lon="2.61864">
        <ele>481</ele>
        <time>2024-09-20T08:11:08Z</time>
      </trkpt>
      <trkpt lat="42.46818" lon="2.61867">
        <ele>482</ele>
        <time>2024-09-20T08:11:10Z</time>
      </trkpt>
      <trkpt lat="42.46814" lon="2.6187">
        <ele>482</ele>
        <time>2024-09-20T08:11:13Z</time>
      </trkpt>
      <trkpt lat="42.46811" lon="2.61873">
        <ele>483</ele>
        <time>2024-09-20T08:11:16Z</time>
      </trkpt>
      <trkpt lat="42.46809" lon="2.61876">
        <ele>482</ele>
        <time>2024-09-20T08:11:18Z</time>
      </trkpt>
      <trkpt lat="42.46806" lon="2.61878">
        <ele>483</ele>
        <time>2024-09-20T08:11:21Z</time>
      </trkpt>
      <trkpt lat="42.46804" lon="2.61881">
        <ele>483</ele>
        <time>2024-09-20T08:11:24Z</time>
      </trkpt>
      <trkpt lat="42.468" lon="2.61883">
        <ele>483</ele>
        <time>2024-09-20T08:11:27Z</time>
      </trkpt>
      <trkpt lat="42.46798" lon="2.61886">
        <ele>483</ele>
        <time>2024-09-20T08:11:29Z</time>
      </trkpt>
      <trkpt lat="42.46795" lon="2.61889">
        <ele>483</ele>
        <time>2024-09-20T08:11:32Z</time>
      </trkpt>
      <trkpt lat="42.46792" lon="2.61892">
        <ele>482</ele>
        <time>2024-09-20T08:11:34Z</time>
      </trkpt>
      <trkpt lat="42.4679" lon="2.61895">
        <ele>481</ele>
        <time>2024-09-20T08:11:36Z</time>
      </trkpt>
      <trkpt lat="42.46787" lon="2.61898">
        <ele>481</ele>
        <time>2024-09-20T08:11:39Z</time>
      </trkpt>
      <trkpt lat="42.46785" lon="2.61901">
        <ele>481</ele>
        <time>2024-09-20T08:11:42Z</time>
      </trkpt>
      <trkpt lat="42.46782" lon="2.61904">
        <ele>480</ele>
        <time>2024-09-20T08:11:45Z</time>
      </trkpt>
      <trkpt lat="42.4678" lon="2.61906">
        <ele>480</ele>
        <time>2024-09-20T08:11:47Z</time>
      </trkpt>
      <trkpt lat="42.46777" lon="2.61909">
        <ele>481</ele>
        <time>2024-09-20T08:11:51Z</time>
      </trkpt>
      <trkpt lat="42.46775" lon="2.61912">
        <ele>480</ele>
        <time>2024-09-20T08:11:53Z</time>
      </trkpt>
      <trkpt lat="42.46773" lon="2.61915">
        <ele>480</ele>
        <time>2024-09-20T08:11:56Z</time>
      </trkpt>
      <trkpt lat="42.4677" lon="2.61918">
        <ele>480</ele>
        <time>2024-09-20T08:11:59Z</time>
      </trkpt>
      <trkpt lat="42.46768" lon="2.61921">
        <ele>480</ele>
        <time>2024-09-20T08:12:01Z</time>
      </trkpt>
      <trkpt lat="42.46766" lon="2.61924">
        <ele>479</ele>
        <time>2024-09-20T08:12:03Z</time>
      </trkpt>
      <trkpt lat="42.46764" lon="2.61927">
        <ele>479</ele>
        <time>2024-09-20T08:12:05Z</time>
      </trkpt>
      <trkpt lat="42.46762" lon="2.61929">
        <ele>480</ele>
        <time>2024-09-20T08:12:07Z</time>
      </trkpt>
      <trkpt lat="42.46759" lon="2.61933">
        <ele>480</ele>
        <time>2024-09-20T08:12:10Z</time>
      </trkpt>
      <trkpt lat="42.46757" lon="2.61937">
        <ele>480</ele>
        <time>2024-09-20T08:12:13Z</time>
      </trkpt>
      <trkpt lat="42.46754" lon="2.6194">
        <ele>481</ele>
        <time>2024-09-20T08:12:16Z</time>
      </trkpt>
      <trkpt lat="42.46752" lon="2.61943">
        <ele>482</ele>
        <time>2024-09-20T08:12:19Z</time>
      </trkpt>
      <trkpt lat="42.46749" lon="2.61948">
        <ele>479</ele>
        <time>2024-09-20T08:12:24Z</time>
      </trkpt>
      <trkpt lat="42.46747" lon="2.61951">
        <ele>481</ele>
        <time>2024-09-20T08:12:26Z</time>
      </trkpt>
      <trkpt lat="42.46745" lon="2.61955">
        <ele>481</ele>
        <time>2024-09-20T08:12:28Z</time>
      </trkpt>
      <trkpt lat="42.46742" lon="2.61958">
        <ele>481</ele>
        <time>2024-09-20T08:12:30Z</time>
      </trkpt>
      <trkpt lat="42.4674" lon="2.61963">
        <ele>481</ele>
        <time>2024-09-20T08:12:33Z</time>
      </trkpt>
      <trkpt lat="42.46739" lon="2.61966">
        <ele>480</ele>
        <time>2024-09-20T08:12:35Z</time>
      </trkpt>
      <trkpt lat="42.46737" lon="2.61971">
        <ele>479</ele>
        <time>2024-09-20T08:12:39Z</time>
      </trkpt>
      <trkpt lat="42.46735" lon="2.61975">
        <ele>479</ele>
        <time>2024-09-20T08:12:41Z</time>
      </trkpt>
      <trkpt lat="42.46733" lon="2.61978">
        <ele>480</ele>
        <time>2024-09-20T08:12:43Z</time>
      </trkpt>
      <trkpt lat="42.46731" lon="2.61982">
        <ele>479</ele>
        <time>2024-09-20T08:12:47Z</time>
      </trkpt>
      <trkpt lat="42.46729" lon="2.61986">
        <ele>480</ele>
        <time>2024-09-20T08:12:49Z</time>
      </trkpt>
      <trkpt lat="42.46727" lon="2.61989">
        <ele>479</ele>
        <time>2024-09-20T08:12:51Z</time>
      </trkpt>
      <trkpt lat="42.46725" lon="2.61993">
        <ele>480</ele>
        <time>2024-09-20T08:12:54Z</time>
      </trkpt>
      <trkpt lat="42.46723" lon="2.61997">
        <ele>480</ele>
        <time>2024-09-20T08:12:56Z</time>
      </trkpt>
      <trkpt lat="42.46721" lon="2.62002">
        <ele>479</ele>
        <time>2024-09-20T08:13:00Z</time>
      </trkpt>
      <trkpt lat="42.46719" lon="2.62005">
        <ele>479</ele>
        <time>2024-09-20T08:13:01Z</time>
      </trkpt>
      <trkpt lat="42.46718" lon="2.6201">
        <ele>478</ele>
        <time>2024-09-20T08:13:04Z</time>
      </trkpt>
      <trkpt lat="42.46716" lon="2.62013">
        <ele>478</ele>
        <time>2024-09-20T08:13:07Z</time>
      </trkpt>
      <trkpt lat="42.46714" lon="2.62017">
        <ele>478</ele>
        <time>2024-09-20T08:13:10Z</time>
      </trkpt>
      <trkpt lat="42.46712" lon="2.62021">
        <ele>478</ele>
        <time>2024-09-20T08:13:12Z</time>
      </trkpt>
      <trkpt lat="42.46711" lon="2.62025">
        <ele>476</ele>
        <time>2024-09-20T08:13:14Z</time>
      </trkpt>
      <trkpt lat="42.46709" lon="2.62029">
        <ele>477</ele>
        <time>2024-09-20T08:13:17Z</time>
      </trkpt>
      <trkpt lat="42.46708" lon="2.62033">
        <ele>478</ele>
        <time>2024-09-20T08:13:20Z</time>
      </trkpt>
      <trkpt lat="42.46706" lon="2.62037">
        <ele>478</ele>
        <time>2024-09-20T08:13:22Z</time>
      </trkpt>
      <trkpt lat="42.46705" lon="2.62041">
        <ele>479</ele>
        <time>2024-09-20T08:13:24Z</time>
      </trkpt>
      <trkpt lat="42.46702" lon="2.62045">
        <ele>478</ele>
        <time>2024-09-20T08:13:27Z</time>
      </trkpt>
      <trkpt lat="42.46701" lon="2.62049">
        <ele>478</ele>
        <time>2024-09-20T08:13:30Z</time>
      </trkpt>
      <trkpt lat="42.46699" lon="2.62053">
        <ele>478</ele>
        <time>2024-09-20T08:13:33Z</time>
      </trkpt>
      <trkpt lat="42.46697" lon="2.62057">
        <ele>477</ele>
        <time>2024-09-20T08:13:36Z</time>
      </trkpt>
      <trkpt lat="42.46696" lon="2.6206">
        <ele>478</ele>
        <time>2024-09-20T08:13:38Z</time>
      </trkpt>
      <trkpt lat="42.46694" lon="2.62064">
        <ele>478</ele>
        <time>2024-09-20T08:13:40Z</time>
      </trkpt>
      <trkpt lat="42.46693" lon="2.62069">
        <ele>478</ele>
        <time>2024-09-20T08:13:43Z</time>
      </trkpt>
      <trkpt lat="42.46691" lon="2.62073">
        <ele>478</ele>
        <time>2024-09-20T08:13:46Z</time>
      </trkpt>
      <trkpt lat="42.4669" lon="2.62077">
        <ele>479</ele>
        <time>2024-09-20T08:13:48Z</time>
      </trkpt>
      <trkpt lat="42.46688" lon="2.62081">
        <ele>478</ele>
        <time>2024-09-20T08:13:51Z</time>
      </trkpt>
      <trkpt lat="42.46687" lon="2.62085">
        <ele>478</ele>
        <time>2024-09-20T08:13:53Z</time>
      </trkpt>
      <trkpt lat="42.46685" lon="2.62089">
        <ele>478</ele>
        <time>2024-09-20T08:13:56Z</time>
      </trkpt>
      <trkpt lat="42.46684" lon="2.62093">
        <ele>479</ele>
        <time>2024-09-20T08:13:58Z</time>
      </trkpt>
      <trkpt lat="42.46682" lon="2.62097">
        <ele>479</ele>
        <time>2024-09-20T08:14:00Z</time>
      </trkpt>
      <trkpt lat="42.46681" lon="2.62102">
        <ele>479</ele>
        <time>2024-09-20T08:14:03Z</time>
      </trkpt>
      <trkpt lat="42.46679" lon="2.62106">
        <ele>479</ele>
        <time>2024-09-20T08:14:06Z</time>
      </trkpt>
      <trkpt lat="42.46677" lon="2.62111">
        <ele>479</ele>
        <time>2024-09-20T08:14:09Z</time>
      </trkpt>
      <trkpt lat="42.46676" lon="2.62115">
        <ele>479</ele>
        <time>2024-09-20T08:14:11Z</time>
      </trkpt>
      <trkpt lat="42.46675" lon="2.62119">
        <ele>479</ele>
        <time>2024-09-20T08:14:14Z</time>
      </trkpt>
      <trkpt lat="42.46673" lon="2.62122">
        <ele>479</ele>
        <time>2024-09-20T08:14:16Z</time>
      </trkpt>
      <trkpt lat="42.46672" lon="2.62126">
        <ele>479</ele>
        <time>2024-09-20T08:14:19Z</time>
      </trkpt>
      <trkpt lat="42.46672" lon="2.6213">
        <ele>479</ele>
        <time>2024-09-20T08:14:22Z</time>
      </trkpt>
      <trkpt lat="42.46671" lon="2.62134">
        <ele>479</ele>
        <time>2024-09-20T08:14:26Z</time>
      </trkpt>
      <trkpt lat="42.4667" lon="2.62138">
        <ele>479</ele>
        <time>2024-09-20T08:14:28Z</time>
      </trkpt>
      <trkpt lat="42.46668" lon="2.62141">
        <ele>479</ele>
        <time>2024-09-20T08:14:30Z</time>
      </trkpt>
      <trkpt lat="42.46667" lon="2.62145">
        <ele>479</ele>
        <time>2024-09-20T08:14:32Z</time>
      </trkpt>
      <trkpt lat="42.46665" lon="2.62149">
        <ele>480</ele>
        <time>2024-09-20T08:14:34Z</time>
      </trkpt>
      <trkpt lat="42.46665" lon="2.62153">
        <ele>479</ele>
        <time>2024-09-20T08:14:36Z</time>
      </trkpt>
      <trkpt lat="42.46664" lon="2.62158">
        <ele>478</ele>
        <time>2024-09-20T08:14:39Z</time>
      </trkpt>
      <trkpt lat="42.46662" lon="2.62163">
        <ele>477</ele>
        <time>2024-09-20T08:14:42Z</time>
      </trkpt>
      <trkpt lat="42.46661" lon="2.62168">
        <ele>478</ele>
        <time>2024-09-20T08:14:46Z</time>
      </trkpt>
      <trkpt lat="42.4666" lon="2.62172">
        <ele>477</ele>
        <time>2024-09-20T08:14:48Z</time>
      </trkpt>
      <trkpt lat="42.46659" lon="2.62177">
        <ele>476</ele>
        <time>2024-09-20T08:14:51Z</time>
      </trkpt>
      <trkpt lat="42.46657" lon="2.62182">
        <ele>477</ele>
        <time>2024-09-20T08:14:54Z</time>
      </trkpt>
      <trkpt lat="42.46656" lon="2.62186">
        <ele>476</ele>
        <time>2024-09-20T08:14:56Z</time>
      </trkpt>
      <trkpt lat="42.46655" lon="2.62191">
        <ele>476</ele>
        <time>2024-09-20T08:14:59Z</time>
      </trkpt>
      <trkpt lat="42.46654" lon="2.62197">
        <ele>475</ele>
        <time>2024-09-20T08:15:02Z</time>
      </trkpt>
      <trkpt lat="42.46654" lon="2.62202">
        <ele>476</ele>
        <time>2024-09-20T08:15:05Z</time>
      </trkpt>
      <trkpt lat="42.46653" lon="2.62206">
        <ele>475</ele>
        <time>2024-09-20T08:15:06Z</time>
      </trkpt>
      <trkpt lat="42.46652" lon="2.62211">
        <ele>474</ele>
        <time>2024-09-20T08:15:09Z</time>
      </trkpt>
      <trkpt lat="42.46651" lon="2.62217">
        <ele>473</ele>
        <time>2024-09-20T08:15:12Z</time>
      </trkpt>
      <trkpt lat="42.46651" lon="2.62221">
        <ele>474</ele>
        <time>2024-09-20T08:15:14Z</time>
      </trkpt>
      <trkpt lat="42.4665" lon="2.62226">
        <ele>473</ele>
        <time>2024-09-20T08:15:17Z</time>
      </trkpt>
      <trkpt lat="42.46649" lon="2.6223">
        <ele>473</ele>
        <time>2024-09-20T08:15:19Z</time>
      </trkpt>
      <trkpt lat="42.46649" lon="2.62234">
        <ele>473</ele>
        <time>2024-09-20T08:15:22Z</time>
      </trkpt>
      <trkpt lat="42.46648" lon="2.62238">
        <ele>472</ele>
        <time>2024-09-20T08:15:25Z</time>
      </trkpt>
      <trkpt lat="42.46648" lon="2.62242">
        <ele>471</ele>
        <time>2024-09-20T08:15:26Z</time>
      </trkpt>
      <trkpt lat="42.46647" lon="2.62246">
        <ele>472</ele>
        <time>2024-09-20T08:15:28Z</time>
      </trkpt>
      <trkpt lat="42.46646" lon="2.62251">
        <ele>471</ele>
        <time>2024-09-20T08:15:32Z</time>
      </trkpt>
      <trkpt lat="42.46646" lon="2.62254">
        <ele>470</ele>
        <time>2024-09-20T08:15:34Z</time>
      </trkpt>
      <trkpt lat="42.46645" lon="2.62259">
        <ele>470</ele>
        <time>2024-09-20T08:15:36Z</time>
      </trkpt>
      <trkpt lat="42.46645" lon="2.62263">
        <ele>470</ele>
        <time>2024-09-20T08:15:38Z</time>
      </trkpt>
      <trkpt lat="42.46644" lon="2.62267">
        <ele>470</ele>
        <time>2024-09-20T08:15:41Z</time>
      </trkpt>
      <trkpt lat="42.46644" lon="2.62271">
        <ele>469</ele>
        <time>2024-09-20T08:15:44Z</time>
      </trkpt>
      <trkpt lat="42.46643" lon="2.62276">
        <ele>468</ele>
        <time>2024-09-20T08:15:48Z</time>
      </trkpt>
      <trkpt lat="42.46643" lon="2.62281">
        <ele>468</ele>
        <time>2024-09-20T08:15:50Z</time>
      </trkpt>
      <trkpt lat="42.46643" lon="2.62285">
        <ele>469</ele>
        <time>2024-09-20T08:15:52Z</time>
      </trkpt>
      <trkpt lat="42.46642" lon="2.62289">
        <ele>469</ele>
        <time>2024-09-20T08:15:54Z</time>
      </trkpt>
      <trkpt lat="42.46642" lon="2.62294">
        <ele>469</ele>
        <time>2024-09-20T08:15:57Z</time>
      </trkpt>
      <trkpt lat="42.46642" lon="2.62298">
        <ele>469</ele>
        <time>2024-09-20T08:15:59Z</time>
      </trkpt>
      <trkpt lat="42.46641" lon="2.62303">
        <ele>469</ele>
        <time>2024-09-20T08:16:02Z</time>
      </trkpt>
      <trkpt lat="42.46641" lon="2.62308">
        <ele>469</ele>
        <time>2024-09-20T08:16:05Z</time>
      </trkpt>
      <trkpt lat="42.4664" lon="2.62313">
        <ele>467</ele>
        <time>2024-09-20T08:16:08Z</time>
      </trkpt>
      <trkpt lat="42.4664" lon="2.62318">
        <ele>468</ele>
        <time>2024-09-20T08:16:10Z</time>
      </trkpt>
      <trkpt lat="42.4664" lon="2.62323">
        <ele>469</ele>
        <time>2024-09-20T08:16:13Z</time>
      </trkpt>
      <trkpt lat="42.46639" lon="2.62328">
        <ele>468</ele>
        <time>2024-09-20T08:16:16Z</time>
      </trkpt>
      <trkpt lat="42.46639" lon="2.62332">
        <ele>467</ele>
        <time>2024-09-20T08:16:18Z</time>
      </trkpt>
      <trkpt lat="42.46638" lon="2.62336">
        <ele>466</ele>
        <time>2024-09-20T08:16:22Z</time>
      </trkpt>
      <trkpt lat="42.46638" lon="2.62342">
        <ele>467</ele>
        <time>2024-09-20T08:16:27Z</time>
      </trkpt>
      <trkpt lat="42.46638" lon="2.62347">
        <ele>468</ele>
        <time>2024-09-20T08:16:30Z</time>
      </trkpt>
      <trkpt lat="42.46638" lon="2.62351">
        <ele>468</ele>
        <time>2024-09-20T08:16:58Z</time>
      </trkpt>
      <trkpt lat="42.46636" lon="2.62354">
        <ele>468</ele>
        <time>2024-09-20T08:17:00Z</time>
      </trkpt>
      <trkpt lat="42.46635" lon="2.62358">
        <ele>469</ele>
        <time>2024-09-20T08:17:03Z</time>
      </trkpt>
      <trkpt lat="42.46633" lon="2.62363">
        <ele>468</ele>
        <time>2024-09-20T08:17:06Z</time>
      </trkpt>
      <trkpt lat="42.46632" lon="2.62367">
        <ele>468</ele>
        <time>2024-09-20T08:17:08Z</time>
      </trkpt>
      <trkpt lat="42.46631" lon="2.62372">
        <ele>468</ele>
        <time>2024-09-20T08:17:12Z</time>
      </trkpt>
      <trkpt lat="42.4663" lon="2.62376">
        <ele>468</ele>
        <time>2024-09-20T08:17:14Z</time>
      </trkpt>
      <trkpt lat="42.46629" lon="2.62381">
        <ele>469</ele>
        <time>2024-09-20T08:17:17Z</time>
      </trkpt>
      <trkpt lat="42.46628" lon="2.62386">
        <ele>468</ele>
        <time>2024-09-20T08:17:20Z</time>
      </trkpt>
      <trkpt lat="42.46628" lon="2.6239">
        <ele>468</ele>
        <time>2024-09-20T08:17:23Z</time>
      </trkpt>
      <trkpt lat="42.46627" lon="2.62395">
        <ele>469</ele>
        <time>2024-09-20T08:17:26Z</time>
      </trkpt>
      <trkpt lat="42.46626" lon="2.62399">
        <ele>468</ele>
        <time>2024-09-20T08:17:28Z</time>
      </trkpt>
      <trkpt lat="42.46625" lon="2.62404">
        <ele>469</ele>
        <time>2024-09-20T08:17:31Z</time>
      </trkpt>
      <trkpt lat="42.46624" lon="2.62408">
        <ele>469</ele>
        <time>2024-09-20T08:17:35Z</time>
      </trkpt>
      <trkpt lat="42.46622" lon="2.62412">
        <ele>469</ele>
        <time>2024-09-20T08:17:38Z</time>
      </trkpt>
      <trkpt lat="42.4662" lon="2.62416">
        <ele>470</ele>
        <time>2024-09-20T08:17:42Z</time>
      </trkpt>
      <trkpt lat="42.46617" lon="2.62418">
        <ele>470</ele>
        <time>2024-09-20T08:17:45Z</time>
      </trkpt>
      <trkpt lat="42.46618" lon="2.62418">
        <ele>473</ele>
        <time>2024-09-20T08:18:35Z</time>
      </trkpt>
      <trkpt lat="42.46619" lon="2.62421">
        <ele>474</ele>
        <time>2024-09-20T08:18:47Z</time>
      </trkpt>
      <trkpt lat="42.46618" lon="2.62422">
        <ele>471</ele>
        <time>2024-09-20T08:19:31Z</time>
      </trkpt>
      <trkpt lat="42.46616" lon="2.62424">
        <ele>471</ele>
        <time>2024-09-20T08:19:36Z</time>
      </trkpt>
      <trkpt lat="42.46614" lon="2.62427">
        <ele>471</ele>
        <time>2024-09-20T08:19:44Z</time>
      </trkpt>
      <trkpt lat="42.46612" lon="2.62429">
        <ele>471</ele>
        <time>2024-09-20T08:19:47Z</time>
      </trkpt>
      <trkpt lat="42.4661" lon="2.62432">
        <ele>469</ele>
        <time>2024-09-20T08:19:53Z</time>
      </trkpt>
      <trkpt lat="42.46608" lon="2.62436">
        <ele>469</ele>
        <time>2024-09-20T08:19:57Z</time>
      </trkpt>
      <trkpt lat="42.46605" lon="2.6244">
        <ele>470</ele>
        <time>2024-09-20T08:19:59Z</time>
      </trkpt>
      <trkpt lat="42.46604" lon="2.62444">
        <ele>468</ele>
        <time>2024-09-20T08:20:01Z</time>
      </trkpt>
      <trkpt lat="42.46603" lon="2.62448">
        <ele>469</ele>
        <time>2024-09-20T08:20:04Z</time>
      </trkpt>
      <trkpt lat="42.46601" lon="2.62452">
        <ele>469</ele>
        <time>2024-09-20T08:20:08Z</time>
      </trkpt>
      <trkpt lat="42.46599" lon="2.62452">
        <ele>466</ele>
        <time>2024-09-20T08:20:21Z</time>
      </trkpt>
      <trkpt lat="42.46596" lon="2.6245">
        <ele>466</ele>
        <time>2024-09-20T08:20:23Z</time>
      </trkpt>
      <trkpt lat="42.46593" lon="2.62448">
        <ele>466</ele>
        <time>2024-09-20T08:20:25Z</time>
      </trkpt>
      <trkpt lat="42.4659" lon="2.62446">
        <ele>464</ele>
        <time>2024-09-20T08:20:27Z</time>
      </trkpt>
      <trkpt lat="42.46586" lon="2.62444">
        <ele>464</ele>
        <time>2024-09-20T08:20:29Z</time>
      </trkpt>
      <trkpt lat="42.46582" lon="2.62443">
        <ele>464</ele>
        <time>2024-09-20T08:20:31Z</time>
      </trkpt>
      <trkpt lat="42.46579" lon="2.62444">
        <ele>464</ele>
        <time>2024-09-20T08:20:33Z</time>
      </trkpt>
      <trkpt lat="42.46576" lon="2.62445">
        <ele>464</ele>
        <time>2024-09-20T08:20:35Z</time>
      </trkpt>
      <trkpt lat="42.46573" lon="2.62448">
        <ele>463</ele>
        <time>2024-09-20T08:20:39Z</time>
      </trkpt>
      <trkpt lat="42.4657" lon="2.6245">
        <ele>461</ele>
        <time>2024-09-20T08:20:40Z</time>
      </trkpt>
      <trkpt lat="42.46568" lon="2.62452">
        <ele>461</ele>
        <time>2024-09-20T08:20:43Z</time>
      </trkpt>
      <trkpt lat="42.46566" lon="2.62455">
        <ele>461</ele>
        <time>2024-09-20T08:20:47Z</time>
      </trkpt>
      <trkpt lat="42.46562" lon="2.62458">
        <ele>462</ele>
        <time>2024-09-20T08:20:49Z</time>
      </trkpt>
      <trkpt lat="42.4656" lon="2.62462">
        <ele>460</ele>
        <time>2024-09-20T08:20:52Z</time>
      </trkpt>
      <trkpt lat="42.46557" lon="2.62466">
        <ele>459</ele>
        <time>2024-09-20T08:20:56Z</time>
      </trkpt>
      <trkpt lat="42.46555" lon="2.62469">
        <ele>458</ele>
        <time>2024-09-20T08:21:00Z</time>
      </trkpt>
      <trkpt lat="42.46552" lon="2.62471">
        <ele>457</ele>
        <time>2024-09-20T08:21:02Z</time>
      </trkpt>
      <trkpt lat="42.4655" lon="2.62473">
        <ele>456</ele>
        <time>2024-09-20T08:21:04Z</time>
      </trkpt>
      <trkpt lat="42.46547" lon="2.62476">
        <ele>456</ele>
        <time>2024-09-20T08:21:06Z</time>
      </trkpt>
      <trkpt lat="42.46544" lon="2.62479">
        <ele>455</ele>
        <time>2024-09-20T08:21:10Z</time>
      </trkpt>
      <trkpt lat="42.46542" lon="2.62481">
        <ele>454</ele>
        <time>2024-09-20T08:21:13Z</time>
      </trkpt>
      <trkpt lat="42.46539" lon="2.62484">
        <ele>454</ele>
        <time>2024-09-20T08:21:15Z</time>
      </trkpt>
      <trkpt lat="42.46537" lon="2.62487">
        <ele>455</ele>
        <time>2024-09-20T08:21:17Z</time>
      </trkpt>
      <trkpt lat="42.46534" lon="2.6249">
        <ele>454</ele>
        <time>2024-09-20T08:21:20Z</time>
      </trkpt>
      <trkpt lat="42.46531" lon="2.62493">
        <ele>453</ele>
        <time>2024-09-20T08:21:22Z</time>
      </trkpt>
      <trkpt lat="42.46529" lon="2.62497">
        <ele>453</ele>
        <time>2024-09-20T08:21:25Z</time>
      </trkpt>
      <trkpt lat="42.46527" lon="2.62499">
        <ele>452</ele>
        <time>2024-09-20T08:21:28Z</time>
      </trkpt>
      <trkpt lat="42.46524" lon="2.625">
        <ele>451</ele>
        <time>2024-09-20T08:21:32Z</time>
      </trkpt>
      <trkpt lat="42.4652" lon="2.62501">
        <ele>450</ele>
        <time>2024-09-20T08:21:35Z</time>
      </trkpt>
      <trkpt lat="42.46517" lon="2.62502">
        <ele>450</ele>
        <time>2024-09-20T08:21:38Z</time>
      </trkpt>
      <trkpt lat="42.46514" lon="2.62504">
        <ele>449</ele>
        <time>2024-09-20T08:21:41Z</time>
      </trkpt>
      <trkpt lat="42.4651" lon="2.62507">
        <ele>448</ele>
        <time>2024-09-20T08:21:45Z</time>
      </trkpt>
      <trkpt lat="42.46508" lon="2.62511">
        <ele>447</ele>
        <time>2024-09-20T08:21:48Z</time>
      </trkpt>
      <trkpt lat="42.46506" lon="2.62514">
        <ele>447</ele>
        <time>2024-09-20T08:21:50Z</time>
      </trkpt>
      <trkpt lat="42.46504" lon="2.62518">
        <ele>446</ele>
        <time>2024-09-20T08:21:53Z</time>
      </trkpt>
      <trkpt lat="42.46503" lon="2.62522">
        <ele>446</ele>
        <time>2024-09-20T08:21:56Z</time>
      </trkpt>
      <trkpt lat="42.46502" lon="2.62526">
        <ele>446</ele>
        <time>2024-09-20T08:21:58Z</time>
      </trkpt>
      <trkpt lat="42.465" lon="2.6253">
        <ele>445</ele>
        <time>2024-09-20T08:22:01Z</time>
      </trkpt>
      <trkpt lat="42.46498" lon="2.62533">
        <ele>444</ele>
        <time>2024-09-20T08:22:04Z</time>
      </trkpt>
      <trkpt lat="42.46496" lon="2.62536">
        <ele>443</ele>
        <time>2024-09-20T08:22:06Z</time>
      </trkpt>
      <trkpt lat="42.46495" lon="2.6254">
        <ele>444</ele>
        <time>2024-09-20T08:22:08Z</time>
      </trkpt>
      <trkpt lat="42.46492" lon="2.62543">
        <ele>444</ele>
        <time>2024-09-20T08:22:11Z</time>
      </trkpt>
      <trkpt lat="42.46489" lon="2.62544">
        <ele>444</ele>
        <time>2024-09-20T08:22:13Z</time>
      </trkpt>
      <trkpt lat="42.46486" lon="2.62546">
        <ele>443</ele>
        <time>2024-09-20T08:22:15Z</time>
      </trkpt>
      <trkpt lat="42.46483" lon="2.62547">
        <ele>443</ele>
        <time>2024-09-20T08:22:19Z</time>
      </trkpt>
      <trkpt lat="42.4648" lon="2.62548">
        <ele>442</ele>
        <time>2024-09-20T08:22:21Z</time>
      </trkpt>
      <trkpt lat="42.46478" lon="2.62549">
        <ele>441</ele>
        <time>2024-09-20T08:22:23Z</time>
      </trkpt>
      <trkpt lat="42.46475" lon="2.62551">
        <ele>443</ele>
        <time>2024-09-20T08:22:25Z</time>
      </trkpt>
      <trkpt lat="42.46471" lon="2.62553">
        <ele>441</ele>
        <time>2024-09-20T08:22:28Z</time>
      </trkpt>
      <trkpt lat="42.46468" lon="2.62554">
        <ele>443</ele>
        <time>2024-09-20T08:22:31Z</time>
      </trkpt>
      <trkpt lat="42.46466" lon="2.62556">
        <ele>442</ele>
        <time>2024-09-20T08:22:34Z</time>
      </trkpt>
      <trkpt lat="42.46463" lon="2.62557">
        <ele>443</ele>
        <time>2024-09-20T08:22:36Z</time>
      </trkpt>
      <trkpt lat="42.46459" lon="2.6256">
        <ele>441</ele>
        <time>2024-09-20T08:22:40Z</time>
      </trkpt>
      <trkpt lat="42.46456" lon="2.62563">
        <ele>441</ele>
        <time>2024-09-20T08:22:43Z</time>
      </trkpt>
      <trkpt lat="42.46453" lon="2.62565">
        <ele>441</ele>
        <time>2024-09-20T08:22:47Z</time>
      </trkpt>
      <trkpt lat="42.4645" lon="2.62569">
        <ele>439</ele>
        <time>2024-09-20T08:22:50Z</time>
      </trkpt>
      <trkpt lat="42.46446" lon="2.62571">
        <ele>439</ele>
        <time>2024-09-20T08:22:53Z</time>
      </trkpt>
      <trkpt lat="42.46444" lon="2.62574">
        <ele>439</ele>
        <time>2024-09-20T08:22:56Z</time>
      </trkpt>
      <trkpt lat="42.46441" lon="2.62577">
        <ele>438</ele>
        <time>2024-09-20T08:22:59Z</time>
      </trkpt>
      <trkpt lat="42.46439" lon="2.6258">
        <ele>438</ele>
        <time>2024-09-20T08:23:01Z</time>
      </trkpt>
      <trkpt lat="42.46437" lon="2.62583">
        <ele>437</ele>
        <time>2024-09-20T08:23:04Z</time>
      </trkpt>
      <trkpt lat="42.46435" lon="2.62586">
        <ele>437</ele>
        <time>2024-09-20T08:23:06Z</time>
      </trkpt>
      <trkpt lat="42.46432" lon="2.62589">
        <ele>438</ele>
        <time>2024-09-20T08:23:09Z</time>
      </trkpt>
      <trkpt lat="42.46429" lon="2.62591">
        <ele>437</ele>
        <time>2024-09-20T08:23:11Z</time>
      </trkpt>
      <trkpt lat="42.46426" lon="2.62592">
        <ele>437</ele>
        <time>2024-09-20T08:23:13Z</time>
      </trkpt>
      <trkpt lat="42.46423" lon="2.62594">
        <ele>438</ele>
        <time>2024-09-20T08:23:16Z</time>
      </trkpt>
      <trkpt lat="42.46419" lon="2.62595">
        <ele>436</ele>
        <time>2024-09-20T08:23:19Z</time>
      </trkpt>
      <trkpt lat="42.46416" lon="2.62596">
        <ele>437</ele>
        <time>2024-09-20T08:23:21Z</time>
      </trkpt>
      <trkpt lat="42.46412" lon="2.62597">
        <ele>436</ele>
        <time>2024-09-20T08:23:24Z</time>
      </trkpt>
      <trkpt lat="42.46409" lon="2.62598">
        <ele>436</ele>
        <time>2024-09-20T08:23:27Z</time>
      </trkpt>
      <trkpt lat="42.46406" lon="2.62599">
        <ele>436</ele>
        <time>2024-09-20T08:23:30Z</time>
      </trkpt>
      <trkpt lat="42.46402" lon="2.62601">
        <ele>435</ele>
        <time>2024-09-20T08:23:33Z</time>
      </trkpt>
      <trkpt lat="42.46399" lon="2.62602">
        <ele>435</ele>
        <time>2024-09-20T08:23:36Z</time>
      </trkpt>
      <trkpt lat="42.46395" lon="2.62602">
        <ele>434</ele>
        <time>2024-09-20T08:23:39Z</time>
      </trkpt>
      <trkpt lat="42.46392" lon="2.62603">
        <ele>434</ele>
        <time>2024-09-20T08:23:41Z</time>
      </trkpt>
      <trkpt lat="42.46389" lon="2.62603">
        <ele>433</ele>
        <time>2024-09-20T08:23:43Z</time>
      </trkpt>
      <trkpt lat="42.46386" lon="2.62602">
        <ele>434</ele>
        <time>2024-09-20T08:23:45Z</time>
      </trkpt>
      <trkpt lat="42.46383" lon="2.62602">
        <ele>434</ele>
        <time>2024-09-20T08:23:49Z</time>
      </trkpt>
      <trkpt lat="42.46379" lon="2.62601">
        <ele>434</ele>
        <time>2024-09-20T08:23:52Z</time>
      </trkpt>
      <trkpt lat="42.46376" lon="2.62601">
        <ele>433</ele>
        <time>2024-09-20T08:23:54Z</time>
      </trkpt>
      <trkpt lat="42.46372" lon="2.62601">
        <ele>432</ele>
        <time>2024-09-20T08:23:57Z</time>
      </trkpt>
      <trkpt lat="42.4637" lon="2.62602">
        <ele>432</ele>
        <time>2024-09-20T08:23:59Z</time>
      </trkpt>
      <trkpt lat="42.46367" lon="2.62603">
        <ele>431</ele>
        <time>2024-09-20T08:24:02Z</time>
      </trkpt>
      <trkpt lat="42.46363" lon="2.62604">
        <ele>431</ele>
        <time>2024-09-20T08:24:05Z</time>
      </trkpt>
      <trkpt lat="42.46359" lon="2.62605">
        <ele>430</ele>
        <time>2024-09-20T08:24:09Z</time>
      </trkpt>
      <trkpt lat="42.46355" lon="2.62606">
        <ele>431</ele>
        <time>2024-09-20T08:24:12Z</time>
      </trkpt>
      <trkpt lat="42.46352" lon="2.62608">
        <ele>431</ele>
        <time>2024-09-20T08:24:15Z</time>
      </trkpt>
      <trkpt lat="42.46349" lon="2.62609">
        <ele>430</ele>
        <time>2024-09-20T08:24:18Z</time>
      </trkpt>
      <trkpt lat="42.46346" lon="2.62609">
        <ele>430</ele>
        <time>2024-09-20T08:24:21Z</time>
      </trkpt>
      <trkpt lat="42.46342" lon="2.6261">
        <ele>430</ele>
        <time>2024-09-20T08:24:24Z</time>
      </trkpt>
      <trkpt lat="42.46339" lon="2.62609">
        <ele>431</ele>
        <time>2024-09-20T08:24:28Z</time>
      </trkpt>
      <trkpt lat="42.46335" lon="2.62608">
        <ele>430</ele>
        <time>2024-09-20T08:24:31Z</time>
      </trkpt>
      <trkpt lat="42.46332" lon="2.62607">
        <ele>430</ele>
        <time>2024-09-20T08:24:34Z</time>
      </trkpt>
      <trkpt lat="42.46329" lon="2.62607">
        <ele>430</ele>
        <time>2024-09-20T08:24:36Z</time>
      </trkpt>
      <trkpt lat="42.46326" lon="2.62605">
        <ele>430</ele>
        <time>2024-09-20T08:24:40Z</time>
      </trkpt>
      <trkpt lat="42.46323" lon="2.62604">
        <ele>430</ele>
        <time>2024-09-20T08:24:42Z</time>
      </trkpt>
      <trkpt lat="42.4632" lon="2.62603">
        <ele>430</ele>
        <time>2024-09-20T08:24:45Z</time>
      </trkpt>
      <trkpt lat="42.46317" lon="2.62601">
        <ele>430</ele>
        <time>2024-09-20T08:24:47Z</time>
      </trkpt>
      <trkpt lat="42.46314" lon="2.626">
        <ele>429</ele>
        <time>2024-09-20T08:24:49Z</time>
      </trkpt>
      <trkpt lat="42.46311" lon="2.626">
        <ele>430</ele>
        <time>2024-09-20T08:24:54Z</time>
      </trkpt>
      <trkpt lat="42.46308" lon="2.62599">
        <ele>429</ele>
        <time>2024-09-20T08:24:56Z</time>
      </trkpt>
      <trkpt lat="42.46305" lon="2.62597">
        <ele>430</ele>
        <time>2024-09-20T08:25:01Z</time>
      </trkpt>
      <trkpt lat="42.46303" lon="2.62595">
        <ele>429</ele>
        <time>2024-09-20T08:25:03Z</time>
      </trkpt>
      <trkpt lat="42.463" lon="2.62593">
        <ele>430</ele>
        <time>2024-09-20T08:25:06Z</time>
      </trkpt>
      <trkpt lat="42.46297" lon="2.62591">
        <ele>430</ele>
        <time>2024-09-20T08:25:09Z</time>
      </trkpt>
      <trkpt lat="42.46294" lon="2.62588">
        <ele>429</ele>
        <time>2024-09-20T08:25:12Z</time>
      </trkpt>
      <trkpt lat="42.46291" lon="2.62586">
        <ele>428</ele>
        <time>2024-09-20T08:25:15Z</time>
      </trkpt>
      <trkpt lat="42.46288" lon="2.62584">
        <ele>428</ele>
        <time>2024-09-20T08:25:18Z</time>
      </trkpt>
      <trkpt lat="42.46286" lon="2.62582">
        <ele>427</ele>
        <time>2024-09-20T08:25:22Z</time>
      </trkpt>
      <trkpt lat="42.46283" lon="2.62579">
        <ele>428</ele>
        <time>2024-09-20T08:25:23Z</time>
      </trkpt>
      <trkpt lat="42.4628" lon="2.62577">
        <ele>428</ele>
        <time>2024-09-20T08:25:26Z</time>
      </trkpt>
      <trkpt lat="42.46277" lon="2.62575">
        <ele>427</ele>
        <time>2024-09-20T08:25:29Z</time>
      </trkpt>
      <trkpt lat="42.46274" lon="2.62573">
        <ele>427</ele>
        <time>2024-09-20T08:25:31Z</time>
      </trkpt>
      <trkpt lat="42.46271" lon="2.62571">
        <ele>426</ele>
        <time>2024-09-20T08:25:34Z</time>
      </trkpt>
      <trkpt lat="42.46268" lon="2.62569">
        <ele>426</ele>
        <time>2024-09-20T08:25:36Z</time>
      </trkpt>
      <trkpt lat="42.46265" lon="2.62567">
        <ele>425</ele>
        <time>2024-09-20T08:25:40Z</time>
      </trkpt>
      <trkpt lat="42.46262" lon="2.62565">
        <ele>423</ele>
        <time>2024-09-20T08:25:48Z</time>
      </trkpt>
      <trkpt lat="42.46259" lon="2.62563">
        <ele>423</ele>
        <time>2024-09-20T08:25:51Z</time>
      </trkpt>
      <trkpt lat="42.46256" lon="2.62563">
        <ele>423</ele>
        <time>2024-09-20T08:25:54Z</time>
      </trkpt>
      <trkpt lat="42.46253" lon="2.62561">
        <ele>423</ele>
        <time>2024-09-20T08:25:57Z</time>
      </trkpt>
      <trkpt lat="42.4625" lon="2.6256">
        <ele>423</ele>
        <time>2024-09-20T08:25:59Z</time>
      </trkpt>
      <trkpt lat="42.46246" lon="2.62558">
        <ele>422</ele>
        <time>2024-09-20T08:26:02Z</time>
      </trkpt>
      <trkpt lat="42.46243" lon="2.62557">
        <ele>421</ele>
        <time>2024-09-20T08:26:05Z</time>
      </trkpt>
      <trkpt lat="42.4624" lon="2.62556">
        <ele>421</ele>
        <time>2024-09-20T08:26:08Z</time>
      </trkpt>
      <trkpt lat="42.46236" lon="2.62556">
        <ele>421</ele>
        <time>2024-09-20T08:26:11Z</time>
      </trkpt>
      <trkpt lat="42.46233" lon="2.62556">
        <ele>421</ele>
        <time>2024-09-20T08:26:14Z</time>
      </trkpt>
      <trkpt lat="42.4623" lon="2.62557">
        <ele>420</ele>
        <time>2024-09-20T08:26:16Z</time>
      </trkpt>
      <trkpt lat="42.46227" lon="2.62558">
        <ele>421</ele>
        <time>2024-09-20T08:26:19Z</time>
      </trkpt>
      <trkpt lat="42.46223" lon="2.6256">
        <ele>421</ele>
        <time>2024-09-20T08:26:22Z</time>
      </trkpt>
      <trkpt lat="42.4622" lon="2.62562">
        <ele>420</ele>
        <time>2024-09-20T08:26:25Z</time>
      </trkpt>
      <trkpt lat="42.46217" lon="2.62565">
        <ele>420</ele>
        <time>2024-09-20T08:26:28Z</time>
      </trkpt>
      <trkpt lat="42.46214" lon="2.62568">
        <ele>418</ele>
        <time>2024-09-20T08:26:31Z</time>
      </trkpt>
      <trkpt lat="42.46212" lon="2.62572">
        <ele>417</ele>
        <time>2024-09-20T08:26:34Z</time>
      </trkpt>
      <trkpt lat="42.4621" lon="2.62576">
        <ele>415</ele>
        <time>2024-09-20T08:26:38Z</time>
      </trkpt>
      <trkpt lat="42.46208" lon="2.6258">
        <ele>415</ele>
        <time>2024-09-20T08:26:41Z</time>
      </trkpt>
      <trkpt lat="42.46206" lon="2.62582">
        <ele>414</ele>
        <time>2024-09-20T08:26:43Z</time>
      </trkpt>
      <trkpt lat="42.46204" lon="2.62586">
        <ele>413</ele>
        <time>2024-09-20T08:26:47Z</time>
      </trkpt>
      <trkpt lat="42.46201" lon="2.6259">
        <ele>411</ele>
        <time>2024-09-20T08:26:50Z</time>
      </trkpt>
      <trkpt lat="42.46199" lon="2.62592">
        <ele>411</ele>
        <time>2024-09-20T08:26:52Z</time>
      </trkpt>
      <trkpt lat="42.46196" lon="2.62596">
        <ele>411</ele>
        <time>2024-09-20T08:26:54Z</time>
      </trkpt>
      <trkpt lat="42.46193" lon="2.62599">
        <ele>409</ele>
        <time>2024-09-20T08:26:59Z</time>
      </trkpt>
      <trkpt lat="42.46192" lon="2.62603">
        <ele>409</ele>
        <time>2024-09-20T08:27:03Z</time>
      </trkpt>
      <trkpt lat="42.4619" lon="2.62606">
        <ele>408</ele>
        <time>2024-09-20T08:27:08Z</time>
      </trkpt>
      <trkpt lat="42.46188" lon="2.62609">
        <ele>408</ele>
        <time>2024-09-20T08:27:17Z</time>
      </trkpt>
      <trkpt lat="42.46187" lon="2.62613">
        <ele>408</ele>
        <time>2024-09-20T08:27:19Z</time>
      </trkpt>
      <trkpt lat="42.46185" lon="2.62616">
        <ele>407</ele>
        <time>2024-09-20T08:27:21Z</time>
      </trkpt>
      <trkpt lat="42.46183" lon="2.62618">
        <ele>407</ele>
        <time>2024-09-20T08:27:23Z</time>
      </trkpt>
      <trkpt lat="42.46181" lon="2.62621">
        <ele>407</ele>
        <time>2024-09-20T08:27:26Z</time>
      </trkpt>
      <trkpt lat="42.46179" lon="2.62624">
        <ele>407</ele>
        <time>2024-09-20T08:27:28Z</time>
      </trkpt>
      <trkpt lat="42.46176" lon="2.62627">
        <ele>406</ele>
        <time>2024-09-20T08:27:31Z</time>
      </trkpt>
      <trkpt lat="42.46174" lon="2.6263">
        <ele>405</ele>
        <time>2024-09-20T08:27:34Z</time>
      </trkpt>
      <trkpt lat="42.46172" lon="2.62633">
        <ele>405</ele>
        <time>2024-09-20T08:27:37Z</time>
      </trkpt>
      <trkpt lat="42.46169" lon="2.62637">
        <ele>403</ele>
        <time>2024-09-20T08:27:40Z</time>
      </trkpt>
      <trkpt lat="42.46166" lon="2.62638">
        <ele>403</ele>
        <time>2024-09-20T08:27:43Z</time>
      </trkpt>
      <trkpt lat="42.46162" lon="2.62639">
        <ele>402</ele>
        <time>2024-09-20T08:27:46Z</time>
      </trkpt>
      <trkpt lat="42.46158" lon="2.6264">
        <ele>402</ele>
        <time>2024-09-20T08:27:49Z</time>
      </trkpt>
      <trkpt lat="42.46155" lon="2.62639">
        <ele>400</ele>
        <time>2024-09-20T08:27:53Z</time>
      </trkpt>
      <trkpt lat="42.46151" lon="2.62638">
        <ele>400</ele>
        <time>2024-09-20T08:27:56Z</time>
      </trkpt>
      <trkpt lat="42.46148" lon="2.62637">
        <ele>399</ele>
        <time>2024-09-20T08:28:00Z</time>
      </trkpt>
      <trkpt lat="42.46144" lon="2.62638">
        <ele>399</ele>
        <time>2024-09-20T08:28:03Z</time>
      </trkpt>
      <trkpt lat="42.46141" lon="2.62637">
        <ele>398</ele>
        <time>2024-09-20T08:28:06Z</time>
      </trkpt>
      <trkpt lat="42.46137" lon="2.62636">
        <ele>398</ele>
        <time>2024-09-20T08:28:09Z</time>
      </trkpt>
      <trkpt lat="42.46133" lon="2.62636">
        <ele>397</ele>
        <time>2024-09-20T08:28:12Z</time>
      </trkpt>
      <trkpt lat="42.4613" lon="2.62634">
        <ele>396</ele>
        <time>2024-09-20T08:28:16Z</time>
      </trkpt>
      <trkpt lat="42.46126" lon="2.62633">
        <ele>395</ele>
        <time>2024-09-20T08:28:19Z</time>
      </trkpt>
      <trkpt lat="42.46123" lon="2.62632">
        <ele>395</ele>
        <time>2024-09-20T08:28:22Z</time>
      </trkpt>
      <trkpt lat="42.4612" lon="2.62631">
        <ele>394</ele>
        <time>2024-09-20T08:28:24Z</time>
      </trkpt>
      <trkpt lat="42.46117" lon="2.62632">
        <ele>394</ele>
        <time>2024-09-20T08:28:27Z</time>
      </trkpt>
      <trkpt lat="42.46113" lon="2.62633">
        <ele>394</ele>
        <time>2024-09-20T08:28:30Z</time>
      </trkpt>
      <trkpt lat="42.46111" lon="2.62636">
        <ele>394</ele>
        <time>2024-09-20T08:28:32Z</time>
      </trkpt>
      <trkpt lat="42.46108" lon="2.62638">
        <ele>393</ele>
        <time>2024-09-20T08:28:36Z</time>
      </trkpt>
      <trkpt lat="42.46106" lon="2.62641">
        <ele>393</ele>
        <time>2024-09-20T08:28:40Z</time>
      </trkpt>
      <trkpt lat="42.46104" lon="2.62645">
        <ele>394</ele>
        <time>2024-09-20T08:28:44Z</time>
      </trkpt>
      <trkpt lat="42.46101" lon="2.62647">
        <ele>394</ele>
        <time>2024-09-20T08:28:47Z</time>
      </trkpt>
      <trkpt lat="42.46099" lon="2.6265">
        <ele>396</ele>
        <time>2024-09-20T08:28:52Z</time>
      </trkpt>
      <trkpt lat="42.46097" lon="2.62653">
        <ele>396</ele>
        <time>2024-09-20T08:28:56Z</time>
      </trkpt>
      <trkpt lat="42.46094" lon="2.62655">
        <ele>396</ele>
        <time>2024-09-20T08:28:58Z</time>
      </trkpt>
      <trkpt lat="42.46092" lon="2.62656">
        <ele>395</ele>
        <time>2024-09-20T08:29:17Z</time>
      </trkpt>
      <trkpt lat="42.46089" lon="2.62657">
        <ele>395</ele>
        <time>2024-09-20T08:29:19Z</time>
      </trkpt>
      <trkpt lat="42.46086" lon="2.62657">
        <ele>394</ele>
        <time>2024-09-20T08:29:21Z</time>
      </trkpt>
      <trkpt lat="42.46084" lon="2.62659">
        <ele>395</ele>
        <time>2024-09-20T08:29:24Z</time>
      </trkpt>
      <trkpt lat="42.46081" lon="2.6266">
        <ele>393</ele>
        <time>2024-09-20T08:29:27Z</time>
      </trkpt>
      <trkpt lat="42.46079" lon="2.62661">
        <ele>394</ele>
        <time>2024-09-20T08:29:28Z</time>
      </trkpt>
      <trkpt lat="42.46076" lon="2.62662">
        <ele>394</ele>
        <time>2024-09-20T08:29:31Z</time>
      </trkpt>
      <trkpt lat="42.46073" lon="2.62664">
        <ele>394</ele>
        <time>2024-09-20T08:29:34Z</time>
      </trkpt>
      <trkpt lat="42.4607" lon="2.62666">
        <ele>394</ele>
        <time>2024-09-20T08:29:35Z</time>
      </trkpt>
      <trkpt lat="42.46068" lon="2.62668">
        <ele>394</ele>
        <time>2024-09-20T08:29:37Z</time>
      </trkpt>
      <trkpt lat="42.46066" lon="2.6267">
        <ele>393</ele>
        <time>2024-09-20T08:29:39Z</time>
      </trkpt>
      <trkpt lat="42.46062" lon="2.62672">
        <ele>392</ele>
        <time>2024-09-20T08:29:43Z</time>
      </trkpt>
      <trkpt lat="42.46059" lon="2.62673">
        <ele>390</ele>
        <time>2024-09-20T08:29:46Z</time>
      </trkpt>
      <trkpt lat="42.46056" lon="2.62675">
        <ele>390</ele>
        <time>2024-09-20T08:29:48Z</time>
      </trkpt>
      <trkpt lat="42.46053" lon="2.62676">
        <ele>390</ele>
        <time>2024-09-20T08:29:51Z</time>
      </trkpt>
      <trkpt lat="42.46049" lon="2.62677">
        <ele>390</ele>
        <time>2024-09-20T08:29:55Z</time>
      </trkpt>
      <trkpt lat="42.46045" lon="2.62676">
        <ele>389</ele>
        <time>2024-09-20T08:29:58Z</time>
      </trkpt>
      <trkpt lat="42.46042" lon="2.62678">
        <ele>389</ele>
        <time>2024-09-20T08:30:01Z</time>
      </trkpt>
      <trkpt lat="42.46039" lon="2.62679">
        <ele>389</ele>
        <time>2024-09-20T08:30:05Z</time>
      </trkpt>
      <trkpt lat="42.46036" lon="2.62681">
        <ele>388</ele>
        <time>2024-09-20T08:30:08Z</time>
      </trkpt>
      <trkpt lat="42.46034" lon="2.62683">
        <ele>387</ele>
        <time>2024-09-20T08:30:11Z</time>
      </trkpt>
      <trkpt lat="42.46031" lon="2.62683">
        <ele>386</ele>
        <time>2024-09-20T08:30:13Z</time>
      </trkpt>
      <trkpt lat="42.46028" lon="2.62683">
        <ele>385</ele>
        <time>2024-09-20T08:30:16Z</time>
      </trkpt>
      <trkpt lat="42.46025" lon="2.62684">
        <ele>384</ele>
        <time>2024-09-20T08:30:29Z</time>
      </trkpt>
      <trkpt lat="42.46022" lon="2.62686">
        <ele>384</ele>
        <time>2024-09-20T08:30:32Z</time>
      </trkpt>
      <trkpt lat="42.46019" lon="2.62687">
        <ele>384</ele>
        <time>2024-09-20T08:30:37Z</time>
      </trkpt>
      <trkpt lat="42.46015" lon="2.62688">
        <ele>385</ele>
        <time>2024-09-20T08:31:02Z</time>
      </trkpt>
      <trkpt lat="42.46012" lon="2.6269">
        <ele>385</ele>
        <time>2024-09-20T08:31:06Z</time>
      </trkpt>
      <trkpt lat="42.46009" lon="2.62692">
        <ele>385</ele>
        <time>2024-09-20T08:31:11Z</time>
      </trkpt>
      <trkpt lat="42.46006" lon="2.62694">
        <ele>385</ele>
        <time>2024-09-20T08:31:15Z</time>
      </trkpt>
      <trkpt lat="42.46003" lon="2.62696">
        <ele>385</ele>
        <time>2024-09-20T08:31:19Z</time>
      </trkpt>
      <trkpt lat="42.46" lon="2.62698">
        <ele>384</ele>
        <time>2024-09-20T08:31:25Z</time>
      </trkpt>
      <trkpt lat="42.45997" lon="2.627">
        <ele>384</ele>
        <time>2024-09-20T08:31:29Z</time>
      </trkpt>
      <trkpt lat="42.45995" lon="2.62699">
        <ele>381</ele>
        <time>2024-09-20T08:31:37Z</time>
      </trkpt>
      <trkpt lat="42.45994" lon="2.62696">
        <ele>381</ele>
        <time>2024-09-20T08:31:41Z</time>
      </trkpt>
      <trkpt lat="42.45992" lon="2.62695">
        <ele>379</ele>
        <time>2024-09-20T08:31:47Z</time>
      </trkpt>
      <trkpt lat="42.45991" lon="2.62692">
        <ele>379</ele>
        <time>2024-09-20T08:31:51Z</time>
      </trkpt>
      <trkpt lat="42.45989" lon="2.62691">
        <ele>378</ele>
        <time>2024-09-20T08:31:56Z</time>
      </trkpt>
      <trkpt lat="42.45986" lon="2.6269">
        <ele>377</ele>
        <time>2024-09-20T08:32:02Z</time>
      </trkpt>
      <trkpt lat="42.45983" lon="2.62691">
        <ele>375</ele>
        <time>2024-09-20T08:32:08Z</time>
      </trkpt>
      <trkpt lat="42.4598" lon="2.62693">
        <ele>375</ele>
        <time>2024-09-20T08:32:12Z</time>
      </trkpt>
      <trkpt lat="42.45978" lon="2.62696">
        <ele>374</ele>
        <time>2024-09-20T08:32:20Z</time>
      </trkpt>
      <trkpt lat="42.45977" lon="2.62699">
        <ele>373</ele>
        <time>2024-09-20T08:32:24Z</time>
      </trkpt>
      <trkpt lat="42.45975" lon="2.62703">
        <ele>373</ele>
        <time>2024-09-20T08:32:27Z</time>
      </trkpt>
      <trkpt lat="42.45975" lon="2.62706">
        <ele>374</ele>
        <time>2024-09-20T08:33:01Z</time>
      </trkpt>
      <trkpt lat="42.45975" lon="2.62711">
        <ele>374</ele>
        <time>2024-09-20T08:33:04Z</time>
      </trkpt>
      <trkpt lat="42.45975" lon="2.62716">
        <ele>374</ele>
        <time>2024-09-20T08:33:08Z</time>
      </trkpt>
      <trkpt lat="42.45975" lon="2.6272">
        <ele>373</ele>
        <time>2024-09-20T08:33:11Z</time>
      </trkpt>
      <trkpt lat="42.45974" lon="2.62725">
        <ele>373</ele>
        <time>2024-09-20T08:33:15Z</time>
      </trkpt>
      <trkpt lat="42.45974" lon="2.6273">
        <ele>372</ele>
        <time>2024-09-20T08:33:18Z</time>
      </trkpt>
      <trkpt lat="42.45973" lon="2.62734">
        <ele>372</ele>
        <time>2024-09-20T08:33:21Z</time>
      </trkpt>
      <trkpt lat="42.45972" lon="2.62738">
        <ele>371</ele>
        <time>2024-09-20T08:33:25Z</time>
      </trkpt>
      <trkpt lat="42.45971" lon="2.62742">
        <ele>370</ele>
        <time>2024-09-20T08:33:27Z</time>
      </trkpt>
      <trkpt lat="42.4597" lon="2.62746">
        <ele>370</ele>
        <time>2024-09-20T08:33:30Z</time>
      </trkpt>
      <trkpt lat="42.45971" lon="2.62751">
        <ele>370</ele>
        <time>2024-09-20T08:33:32Z</time>
      </trkpt>
      <trkpt lat="42.45972" lon="2.62756">
        <ele>370</ele>
        <time>2024-09-20T08:33:35Z</time>
      </trkpt>
      <trkpt lat="42.45973" lon="2.6276">
        <ele>368</ele>
        <time>2024-09-20T08:33:37Z</time>
      </trkpt>
      <trkpt lat="42.45974" lon="2.62763">
        <ele>369</ele>
        <time>2024-09-20T08:33:39Z</time>
      </trkpt>
      <trkpt lat="42.45975" lon="2.62766">
        <ele>369</ele>
        <time>2024-09-20T08:33:41Z</time>
      </trkpt>
      <trkpt lat="42.45976" lon="2.6277">
        <ele>367</ele>
        <time>2024-09-20T08:33:43Z</time>
      </trkpt>
      <trkpt lat="42.45975" lon="2.62772">
        <ele>368</ele>
        <time>2024-09-20T08:33:45Z</time>
      </trkpt>
      <trkpt lat="42.45972" lon="2.62774">
        <ele>367</ele>
        <time>2024-09-20T08:33:47Z</time>
      </trkpt>
      <trkpt lat="42.45969" lon="2.62775">
        <ele>366</ele>
        <time>2024-09-20T08:33:49Z</time>
      </trkpt>
      <trkpt lat="42.45966" lon="2.62775">
        <ele>367</ele>
        <time>2024-09-20T08:33:50Z</time>
      </trkpt>
      <trkpt lat="42.45963" lon="2.62774">
        <ele>368</ele>
        <time>2024-09-20T08:33:52Z</time>
      </trkpt>
      <trkpt lat="42.45959" lon="2.62773">
        <ele>368</ele>
        <time>2024-09-20T08:33:56Z</time>
      </trkpt>
      <trkpt lat="42.45956" lon="2.6277">
        <ele>367</ele>
        <time>2024-09-20T08:33:59Z</time>
      </trkpt>
      <trkpt lat="42.45952" lon="2.6277">
        <ele>365</ele>
        <time>2024-09-20T08:34:03Z</time>
      </trkpt>
      <trkpt lat="42.45949" lon="2.62769">
        <ele>366</ele>
        <time>2024-09-20T08:34:05Z</time>
      </trkpt>
      <trkpt lat="42.45945" lon="2.62768">
        <ele>364</ele>
        <time>2024-09-20T08:34:09Z</time>
      </trkpt>
      <trkpt lat="42.45941" lon="2.62768">
        <ele>363</ele>
        <time>2024-09-20T08:34:12Z</time>
      </trkpt>
      <trkpt lat="42.45938" lon="2.62767">
        <ele>362</ele>
        <time>2024-09-20T08:34:15Z</time>
      </trkpt>
      <trkpt lat="42.45935" lon="2.62766">
        <ele>361</ele>
        <time>2024-09-20T08:34:18Z</time>
      </trkpt>
      <trkpt lat="42.45932" lon="2.62765">
        <ele>361</ele>
        <time>2024-09-20T08:34:20Z</time>
      </trkpt>
      <trkpt lat="42.45929" lon="2.62764">
        <ele>360</ele>
        <time>2024-09-20T08:34:23Z</time>
      </trkpt>
      <trkpt lat="42.45927" lon="2.62763">
        <ele>360</ele>
        <time>2024-09-20T08:34:25Z</time>
      </trkpt>
      <trkpt lat="42.45924" lon="2.62762">
        <ele>359</ele>
        <time>2024-09-20T08:34:27Z</time>
      </trkpt>
      <trkpt lat="42.4592" lon="2.62762">
        <ele>357</ele>
        <time>2024-09-20T08:34:31Z</time>
      </trkpt>
      <trkpt lat="42.45916" lon="2.62762">
        <ele>357</ele>
        <time>2024-09-20T08:34:35Z</time>
      </trkpt>
      <trkpt lat="42.45913" lon="2.62762">
        <ele>355</ele>
        <time>2024-09-20T08:34:39Z</time>
      </trkpt>
      <trkpt lat="42.4591" lon="2.62763">
        <ele>354</ele>
        <time>2024-09-20T08:34:42Z</time>
      </trkpt>
      <trkpt lat="42.45906" lon="2.62764">
        <ele>353</ele>
        <time>2024-09-20T08:34:45Z</time>
      </trkpt>
      <trkpt lat="42.45903" lon="2.62766">
        <ele>352</ele>
        <time>2024-09-20T08:34:48Z</time>
      </trkpt>
      <trkpt lat="42.45899" lon="2.62767">
        <ele>352</ele>
        <time>2024-09-20T08:34:51Z</time>
      </trkpt>
      <trkpt lat="42.45896" lon="2.62768">
        <ele>351</ele>
        <time>2024-09-20T08:34:55Z</time>
      </trkpt>
      <trkpt lat="42.45893" lon="2.62771">
        <ele>351</ele>
        <time>2024-09-20T08:34:59Z</time>
      </trkpt>
      <trkpt lat="42.4589" lon="2.62775">
        <ele>350</ele>
        <time>2024-09-20T08:35:03Z</time>
      </trkpt>
      <trkpt lat="42.45886" lon="2.62776">
        <ele>350</ele>
        <time>2024-09-20T08:35:07Z</time>
      </trkpt>
      <trkpt lat="42.45883" lon="2.62777">
        <ele>349</ele>
        <time>2024-09-20T08:35:11Z</time>
      </trkpt>
      <trkpt lat="42.45879" lon="2.62778">
        <ele>348</ele>
        <time>2024-09-20T08:35:13Z</time>
      </trkpt>
      <trkpt lat="42.45877" lon="2.62778">
        <ele>346</ele>
        <time>2024-09-20T08:35:17Z</time>
      </trkpt>
      <trkpt lat="42.45873" lon="2.62779">
        <ele>346</ele>
        <time>2024-09-20T08:35:19Z</time>
      </trkpt>
      <trkpt lat="42.4587" lon="2.62781">
        <ele>345</ele>
        <time>2024-09-20T08:35:23Z</time>
      </trkpt>
      <trkpt lat="42.45868" lon="2.62784">
        <ele>346</ele>
        <time>2024-09-20T08:35:25Z</time>
      </trkpt>
      <trkpt lat="42.45867" lon="2.62787">
        <ele>343</ele>
        <time>2024-09-20T08:35:28Z</time>
      </trkpt>
      <trkpt lat="42.45865" lon="2.6279">
        <ele>343</ele>
        <time>2024-09-20T08:35:32Z</time>
      </trkpt>
      <trkpt lat="42.45862" lon="2.62791">
        <ele>342</ele>
        <time>2024-09-20T08:35:35Z</time>
      </trkpt>
      <trkpt lat="42.45859" lon="2.62791">
        <ele>341</ele>
        <time>2024-09-20T08:35:38Z</time>
      </trkpt>
      <trkpt lat="42.45856" lon="2.62792">
        <ele>341</ele>
        <time>2024-09-20T08:35:41Z</time>
      </trkpt>
      <trkpt lat="42.45852" lon="2.62791">
        <ele>339</ele>
        <time>2024-09-20T08:35:46Z</time>
      </trkpt>
      <trkpt lat="42.45849" lon="2.62791">
        <ele>339</ele>
        <time>2024-09-20T08:35:49Z</time>
      </trkpt>
      <trkpt lat="42.45846" lon="2.62792">
        <ele>337</ele>
        <time>2024-09-20T08:35:53Z</time>
      </trkpt>
      <trkpt lat="42.45843" lon="2.62794">
        <ele>336</ele>
        <time>2024-09-20T08:35:56Z</time>
      </trkpt>
      <trkpt lat="42.45839" lon="2.62794">
        <ele>335</ele>
        <time>2024-09-20T08:36:00Z</time>
      </trkpt>
      <trkpt lat="42.45836" lon="2.62794">
        <ele>334</ele>
        <time>2024-09-20T08:36:04Z</time>
      </trkpt>
      <trkpt lat="42.45835" lon="2.62791">
        <ele>332</ele>
        <time>2024-09-20T08:36:08Z</time>
      </trkpt>
      <trkpt lat="42.45835" lon="2.62787">
        <ele>331</ele>
        <time>2024-09-20T08:36:11Z</time>
      </trkpt>
      <trkpt lat="42.45834" lon="2.62784">
        <ele>330</ele>
        <time>2024-09-20T08:36:15Z</time>
      </trkpt>
      <trkpt lat="42.45831" lon="2.62783">
        <ele>329</ele>
        <time>2024-09-20T08:36:18Z</time>
      </trkpt>
      <trkpt lat="42.45828" lon="2.62785">
        <ele>329</ele>
        <time>2024-09-20T08:36:20Z</time>
      </trkpt>
      <trkpt lat="42.45826" lon="2.62788">
        <ele>327</ele>
        <time>2024-09-20T08:36:23Z</time>
      </trkpt>
      <trkpt lat="42.45823" lon="2.62788">
        <ele>327</ele>
        <time>2024-09-20T08:36:26Z</time>
      </trkpt>
      <trkpt lat="42.45822" lon="2.62785">
        <ele>327</ele>
        <time>2024-09-20T08:36:30Z</time>
      </trkpt>
      <trkpt lat="42.45822" lon="2.62781">
        <ele>326</ele>
        <time>2024-09-20T08:36:33Z</time>
      </trkpt>
      <trkpt lat="42.45824" lon="2.62779">
        <ele>327</ele>
        <time>2024-09-20T08:36:35Z</time>
      </trkpt>
      <trkpt lat="42.45827" lon="2.62777">
        <ele>325</ele>
        <time>2024-09-20T08:36:38Z</time>
      </trkpt>
      <trkpt lat="42.45829" lon="2.62776">
        <ele>324</ele>
        <time>2024-09-20T08:36:41Z</time>
      </trkpt>
      <trkpt lat="42.45832" lon="2.62775">
        <ele>325</ele>
        <time>2024-09-20T08:36:44Z</time>
      </trkpt>
      <trkpt lat="42.45836" lon="2.62775">
        <ele>323</ele>
        <time>2024-09-20T08:36:48Z</time>
      </trkpt>
      <trkpt lat="42.45839" lon="2.62774">
        <ele>323</ele>
        <time>2024-09-20T08:36:51Z</time>
      </trkpt>
      <trkpt lat="42.45841" lon="2.62771">
        <ele>323</ele>
        <time>2024-09-20T08:36:53Z</time>
      </trkpt>
      <trkpt lat="42.45843" lon="2.6277">
        <ele>323</ele>
        <time>2024-09-20T08:36:56Z</time>
      </trkpt>
      <trkpt lat="42.45845" lon="2.62768">
        <ele>324</ele>
        <time>2024-09-20T08:36:58Z</time>
      </trkpt>
      <trkpt lat="42.45847" lon="2.62764">
        <ele>323</ele>
        <time>2024-09-20T08:37:00Z</time>
      </trkpt>
      <trkpt lat="42.4585" lon="2.62762">
        <ele>323</ele>
        <time>2024-09-20T08:37:03Z</time>
      </trkpt>
      <trkpt lat="42.45852" lon="2.6276">
        <ele>322</ele>
        <time>2024-09-20T08:37:06Z</time>
      </trkpt>
      <trkpt lat="42.45855" lon="2.62757">
        <ele>321</ele>
        <time>2024-09-20T08:37:10Z</time>
      </trkpt>
      <trkpt lat="42.45854" lon="2.62756">
        <ele>320</ele>
        <time>2024-09-20T08:37:32Z</time>
      </trkpt>
      <trkpt lat="42.45852" lon="2.62755">
        <ele>318</ele>
        <time>2024-09-20T08:37:55Z</time>
      </trkpt>
      <trkpt lat="42.45849" lon="2.62755">
        <ele>318</ele>
        <time>2024-09-20T08:37:58Z</time>
      </trkpt>
      <trkpt lat="42.45846" lon="2.62753">
        <ele>317</ele>
        <time>2024-09-20T08:38:01Z</time>
      </trkpt>
      <trkpt lat="42.45843" lon="2.62751">
        <ele>317</ele>
        <time>2024-09-20T08:38:05Z</time>
      </trkpt>
      <trkpt lat="42.4584" lon="2.6275">
        <ele>316</ele>
        <time>2024-09-20T08:38:08Z</time>
      </trkpt>
      <trkpt lat="42.45836" lon="2.62748">
        <ele>317</ele>
        <time>2024-09-20T08:38:12Z</time>
      </trkpt>
      <trkpt lat="42.45833" lon="2.62746">
        <ele>316</ele>
        <time>2024-09-20T08:38:15Z</time>
      </trkpt>
      <trkpt lat="42.4583" lon="2.62745">
        <ele>314</ele>
        <time>2024-09-20T08:38:32Z</time>
      </trkpt>
      <trkpt lat="42.45828" lon="2.62743">
        <ele>313</ele>
        <time>2024-09-20T08:38:36Z</time>
      </trkpt>
      <trkpt lat="42.45825" lon="2.62741">
        <ele>312</ele>
        <time>2024-09-20T08:38:47Z</time>
      </trkpt>
      <trkpt lat="42.45822" lon="2.6274">
        <ele>312</ele>
        <time>2024-09-20T08:38:50Z</time>
      </trkpt>
      <trkpt lat="42.45819" lon="2.62741">
        <ele>313</ele>
        <time>2024-09-20T08:38:52Z</time>
      </trkpt>
      <trkpt lat="42.45816" lon="2.62743">
        <ele>312</ele>
        <time>2024-09-20T08:38:54Z</time>
      </trkpt>
      <trkpt lat="42.45812" lon="2.6275">
        <ele>312</ele>
        <time>2024-09-20T08:38:56Z</time>
      </trkpt>
      <trkpt lat="42.45808" lon="2.62755">
        <ele>312</ele>
        <time>2024-09-20T08:38:59Z</time>
      </trkpt>
      <trkpt lat="42.45805" lon="2.62758">
        <ele>312</ele>
        <time>2024-09-20T08:39:02Z</time>
      </trkpt>
      <trkpt lat="42.45802" lon="2.62761">
        <ele>311</ele>
        <time>2024-09-20T08:39:05Z</time>
      </trkpt>
      <trkpt lat="42.45799" lon="2.62765">
        <ele>311</ele>
        <time>2024-09-20T08:39:08Z</time>
      </trkpt>
      <trkpt lat="42.45796" lon="2.62768">
        <ele>311</ele>
        <time>2024-09-20T08:39:11Z</time>
      </trkpt>
      <trkpt lat="42.45793" lon="2.6277">
        <ele>311</ele>
        <time>2024-09-20T08:39:14Z</time>
      </trkpt>
      <trkpt lat="42.45789" lon="2.62773">
        <ele>311</ele>
        <time>2024-09-20T08:39:17Z</time>
      </trkpt>
      <trkpt lat="42.45786" lon="2.62777">
        <ele>312</ele>
        <time>2024-09-20T08:39:20Z</time>
      </trkpt>
      <trkpt lat="42.45784" lon="2.62781">
        <ele>312</ele>
        <time>2024-09-20T08:39:23Z</time>
      </trkpt>
      <trkpt lat="42.45782" lon="2.62785">
        <ele>311</ele>
        <time>2024-09-20T08:39:26Z</time>
      </trkpt>
      <trkpt lat="42.4578" lon="2.62788">
        <ele>311</ele>
        <time>2024-09-20T08:39:28Z</time>
      </trkpt>
      <trkpt lat="42.45779" lon="2.62792">
        <ele>310</ele>
        <time>2024-09-20T08:39:30Z</time>
      </trkpt>
      <trkpt lat="42.45778" lon="2.62795">
        <ele>310</ele>
        <time>2024-09-20T08:39:32Z</time>
      </trkpt>
      <trkpt lat="42.45777" lon="2.628">
        <ele>310</ele>
        <time>2024-09-20T08:39:35Z</time>
      </trkpt>
      <trkpt lat="42.45775" lon="2.62805">
        <ele>309</ele>
        <time>2024-09-20T08:39:38Z</time>
      </trkpt>
      <trkpt lat="42.45774" lon="2.62809">
        <ele>309</ele>
        <time>2024-09-20T08:39:41Z</time>
      </trkpt>
      <trkpt lat="42.45772" lon="2.62814">
        <ele>309</ele>
        <time>2024-09-20T08:39:44Z</time>
      </trkpt>
      <trkpt lat="42.45771" lon="2.6282">
        <ele>309</ele>
        <time>2024-09-20T08:39:47Z</time>
      </trkpt>
      <trkpt lat="42.4577" lon="2.62824">
        <ele>308</ele>
        <time>2024-09-20T08:39:50Z</time>
      </trkpt>
      <trkpt lat="42.45768" lon="2.62828">
        <ele>309</ele>
        <time>2024-09-20T08:39:53Z</time>
      </trkpt>
      <trkpt lat="42.45767" lon="2.62833">
        <ele>308</ele>
        <time>2024-09-20T08:39:56Z</time>
      </trkpt>
      <trkpt lat="42.45766" lon="2.62838">
        <ele>308</ele>
        <time>2024-09-20T08:39:59Z</time>
      </trkpt>
      <trkpt lat="42.45764" lon="2.62842">
        <ele>309</ele>
        <time>2024-09-20T08:40:01Z</time>
      </trkpt>
      <trkpt lat="42.45763" lon="2.62846">
        <ele>309</ele>
        <time>2024-09-20T08:40:03Z</time>
      </trkpt>
      <trkpt lat="42.45762" lon="2.6285">
        <ele>308</ele>
        <time>2024-09-20T08:40:05Z</time>
      </trkpt>
      <trkpt lat="42.45761" lon="2.62854">
        <ele>309</ele>
        <time>2024-09-20T08:40:08Z</time>
      </trkpt>
      <trkpt lat="42.45759" lon="2.62858">
        <ele>309</ele>
        <time>2024-09-20T08:40:10Z</time>
      </trkpt>
      <trkpt lat="42.45757" lon="2.62862">
        <ele>309</ele>
        <time>2024-09-20T08:40:12Z</time>
      </trkpt>
      <trkpt lat="42.45756" lon="2.62865">
        <ele>309</ele>
        <time>2024-09-20T08:40:14Z</time>
      </trkpt>
      <trkpt lat="42.45754" lon="2.62868">
        <ele>309</ele>
        <time>2024-09-20T08:40:16Z</time>
      </trkpt>
      <trkpt lat="42.45751" lon="2.62869">
        <ele>308</ele>
        <time>2024-09-20T08:40:18Z</time>
      </trkpt>
      <trkpt lat="42.45749" lon="2.62872">
        <ele>308</ele>
        <time>2024-09-20T08:40:20Z</time>
      </trkpt>
      <trkpt lat="42.45747" lon="2.62875">
        <ele>307</ele>
        <time>2024-09-20T08:40:22Z</time>
      </trkpt>
      <trkpt lat="42.45746" lon="2.62878">
        <ele>307</ele>
        <time>2024-09-20T08:40:24Z</time>
      </trkpt>
      <trkpt lat="42.45744" lon="2.62882">
        <ele>308</ele>
        <time>2024-09-20T08:40:27Z</time>
      </trkpt>
      <trkpt lat="42.45742" lon="2.62886">
        <ele>308</ele>
        <time>2024-09-20T08:40:30Z</time>
      </trkpt>
      <trkpt lat="42.45742" lon="2.6289">
        <ele>307</ele>
        <time>2024-09-20T08:40:32Z</time>
      </trkpt>
      <trkpt lat="42.4574" lon="2.62894">
        <ele>308</ele>
        <time>2024-09-20T08:40:34Z</time>
      </trkpt>
      <trkpt lat="42.45738" lon="2.62897">
        <ele>308</ele>
        <time>2024-09-20T08:40:36Z</time>
      </trkpt>
      <trkpt lat="42.45736" lon="2.629">
        <ele>307</ele>
        <time>2024-09-20T08:40:39Z</time>
      </trkpt>
      <trkpt lat="42.45733" lon="2.62903">
        <ele>306</ele>
        <time>2024-09-20T08:40:43Z</time>
      </trkpt>
      <trkpt lat="42.45732" lon="2.62907">
        <ele>306</ele>
        <time>2024-09-20T08:40:45Z</time>
      </trkpt>
      <trkpt lat="42.45729" lon="2.62911">
        <ele>307</ele>
        <time>2024-09-20T08:40:48Z</time>
      </trkpt>
      <trkpt lat="42.45727" lon="2.62915">
        <ele>307</ele>
        <time>2024-09-20T08:40:51Z</time>
      </trkpt>
      <trkpt lat="42.45725" lon="2.62918">
        <ele>308</ele>
        <time>2024-09-20T08:40:53Z</time>
      </trkpt>
      <trkpt lat="42.45723" lon="2.62921">
        <ele>307</ele>
        <time>2024-09-20T08:40:56Z</time>
      </trkpt>
      <trkpt lat="42.45722" lon="2.62925">
        <ele>308</ele>
        <time>2024-09-20T08:40:58Z</time>
      </trkpt>
      <trkpt lat="42.4572" lon="2.62928">
        <ele>308</ele>
        <time>2024-09-20T08:41:00Z</time>
      </trkpt>
      <trkpt lat="42.45719" lon="2.62932">
        <ele>307</ele>
        <time>2024-09-20T08:41:02Z</time>
      </trkpt>
      <trkpt lat="42.45717" lon="2.62935">
        <ele>307</ele>
        <time>2024-09-20T08:41:05Z</time>
      </trkpt>
      <trkpt lat="42.45715" lon="2.62938">
        <ele>306</ele>
        <time>2024-09-20T08:41:08Z</time>
      </trkpt>
      <trkpt lat="42.45714" lon="2.62942">
        <ele>306</ele>
        <time>2024-09-20T08:41:10Z</time>
      </trkpt>
      <trkpt lat="42.45712" lon="2.62945">
        <ele>306</ele>
        <time>2024-09-20T08:41:13Z</time>
      </trkpt>
      <trkpt lat="42.45709" lon="2.62948">
        <ele>305</ele>
        <time>2024-09-20T08:41:16Z</time>
      </trkpt>
      <trkpt lat="42.45707" lon="2.62952">
        <ele>305</ele>
        <time>2024-09-20T08:41:18Z</time>
      </trkpt>
      <trkpt lat="42.45706" lon="2.62955">
        <ele>305</ele>
        <time>2024-09-20T08:41:20Z</time>
      </trkpt>
      <trkpt lat="42.45704" lon="2.62959">
        <ele>306</ele>
        <time>2024-09-20T08:41:23Z</time>
      </trkpt>
      <trkpt lat="42.45703" lon="2.62963">
        <ele>305</ele>
        <time>2024-09-20T08:41:25Z</time>
      </trkpt>
      <trkpt lat="42.45702" lon="2.62967">
        <ele>303</ele>
        <time>2024-09-20T08:41:39Z</time>
      </trkpt>
      <trkpt lat="42.457" lon="2.6297">
        <ele>302</ele>
        <time>2024-09-20T08:41:41Z</time>
      </trkpt>
      <trkpt lat="42.45702" lon="2.62974">
        <ele>302</ele>
        <time>2024-09-20T08:41:49Z</time>
      </trkpt>
      <trkpt lat="42.45705" lon="2.62982">
        <ele>302</ele>
        <time>2024-09-20T08:41:51Z</time>
      </trkpt>
      <trkpt lat="42.45707" lon="2.62988">
        <ele>303</ele>
        <time>2024-09-20T08:41:54Z</time>
      </trkpt>
      <trkpt lat="42.45707" lon="2.62993">
        <ele>304</ele>
        <time>2024-09-20T08:41:57Z</time>
      </trkpt>
      <trkpt lat="42.45708" lon="2.62998">
        <ele>305</ele>
        <time>2024-09-20T08:41:59Z</time>
      </trkpt>
      <trkpt lat="42.45709" lon="2.63003">
        <ele>304</ele>
        <time>2024-09-20T08:42:03Z</time>
      </trkpt>
      <trkpt lat="42.4571" lon="2.63008">
        <ele>304</ele>
        <time>2024-09-20T08:42:06Z</time>
      </trkpt>
      <trkpt lat="42.45711" lon="2.63013">
        <ele>304</ele>
        <time>2024-09-20T08:42:08Z</time>
      </trkpt>
      <trkpt lat="42.45712" lon="2.63017">
        <ele>304</ele>
        <time>2024-09-20T08:42:10Z</time>
      </trkpt>
      <trkpt lat="42.45712" lon="2.63022">
        <ele>304</ele>
        <time>2024-09-20T08:42:13Z</time>
      </trkpt>
      <trkpt lat="42.45713" lon="2.63026">
        <ele>304</ele>
        <time>2024-09-20T08:42:16Z</time>
      </trkpt>
      <trkpt lat="42.45713" lon="2.6303">
        <ele>305</ele>
        <time>2024-09-20T08:42:18Z</time>
      </trkpt>
      <trkpt lat="42.45713" lon="2.63034">
        <ele>305</ele>
        <time>2024-09-20T08:42:20Z</time>
      </trkpt>
      <trkpt lat="42.45713" lon="2.63038">
        <ele>305</ele>
        <time>2024-09-20T08:42:23Z</time>
      </trkpt>
      <trkpt lat="42.45714" lon="2.63043">
        <ele>305</ele>
        <time>2024-09-20T08:42:26Z</time>
      </trkpt>
      <trkpt lat="42.45714" lon="2.63048">
        <ele>305</ele>
        <time>2024-09-20T08:42:29Z</time>
      </trkpt>
      <trkpt lat="42.45715" lon="2.63052">
        <ele>305</ele>
        <time>2024-09-20T08:42:31Z</time>
      </trkpt>
      <trkpt lat="42.45715" lon="2.63056">
        <ele>303</ele>
        <time>2024-09-20T08:42:34Z</time>
      </trkpt>
      <trkpt lat="42.45716" lon="2.63061">
        <ele>304</ele>
        <time>2024-09-20T08:42:36Z</time>
      </trkpt>
      <trkpt lat="42.45717" lon="2.63064">
        <ele>304</ele>
        <time>2024-09-20T08:42:39Z</time>
      </trkpt>
      <trkpt lat="42.45716" lon="2.63069">
        <ele>305</ele>
        <time>2024-09-20T08:42:42Z</time>
      </trkpt>
      <trkpt lat="42.45716" lon="2.63074">
        <ele>304</ele>
        <time>2024-09-20T08:42:45Z</time>
      </trkpt>
      <trkpt lat="42.45715" lon="2.63078">
        <ele>304</ele>
        <time>2024-09-20T08:42:47Z</time>
      </trkpt>
      <trkpt lat="42.45713" lon="2.63082">
        <ele>304</ele>
        <time>2024-09-20T08:42:49Z</time>
      </trkpt>
      <trkpt lat="42.45712" lon="2.63086">
        <ele>303</ele>
        <time>2024-09-20T08:42:52Z</time>
      </trkpt>
      <trkpt lat="42.4571" lon="2.63089">
        <ele>302</ele>
        <time>2024-09-20T08:42:54Z</time>
      </trkpt>
      <trkpt lat="42.45708" lon="2.63092">
        <ele>302</ele>
        <time>2024-09-20T08:42:56Z</time>
      </trkpt>
      <trkpt lat="42.45705" lon="2.63094">
        <ele>301</ele>
        <time>2024-09-20T08:42:58Z</time>
      </trkpt>
      <trkpt lat="42.45703" lon="2.63097">
        <ele>300</ele>
        <time>2024-09-20T08:43:00Z</time>
      </trkpt>
      <trkpt lat="42.457" lon="2.63098">
        <ele>301</ele>
        <time>2024-09-20T08:43:02Z</time>
      </trkpt>
      <trkpt lat="42.45697" lon="2.631">
        <ele>300</ele>
        <time>2024-09-20T08:43:05Z</time>
      </trkpt>
      <trkpt lat="42.45694" lon="2.63103">
        <ele>300</ele>
        <time>2024-09-20T08:43:07Z</time>
      </trkpt>
      <trkpt lat="42.45693" lon="2.63107">
        <ele>300</ele>
        <time>2024-09-20T08:43:09Z</time>
      </trkpt>
      <trkpt lat="42.45691" lon="2.6311">
        <ele>301</ele>
        <time>2024-09-20T08:43:12Z</time>
      </trkpt>
      <trkpt lat="42.4569" lon="2.63114">
        <ele>300</ele>
        <time>2024-09-20T08:43:14Z</time>
      </trkpt>
      <trkpt lat="42.45689" lon="2.63118">
        <ele>300</ele>
        <time>2024-09-20T08:43:17Z</time>
      </trkpt>
      <trkpt lat="42.45688" lon="2.63123">
        <ele>299</ele>
        <time>2024-09-20T08:43:20Z</time>
      </trkpt>
      <trkpt lat="42.45686" lon="2.63127">
        <ele>298</ele>
        <time>2024-09-20T08:43:23Z</time>
      </trkpt>
      <trkpt lat="42.45685" lon="2.63132">
        <ele>298</ele>
        <time>2024-09-20T08:43:26Z</time>
      </trkpt>
      <trkpt lat="42.45684" lon="2.63136">
        <ele>298</ele>
        <time>2024-09-20T08:43:28Z</time>
      </trkpt>
      <trkpt lat="42.45684" lon="2.63141">
        <ele>298</ele>
        <time>2024-09-20T08:43:31Z</time>
      </trkpt>
      <trkpt lat="42.45684" lon="2.63146">
        <ele>298</ele>
        <time>2024-09-20T08:43:34Z</time>
      </trkpt>
      <trkpt lat="42.45683" lon="2.6315">
        <ele>298</ele>
        <time>2024-09-20T08:43:37Z</time>
      </trkpt>
      <trkpt lat="42.45682" lon="2.63155">
        <ele>298</ele>
        <time>2024-09-20T08:43:40Z</time>
      </trkpt>
      <trkpt lat="42.45681" lon="2.63159">
        <ele>298</ele>
        <time>2024-09-20T08:43:44Z</time>
      </trkpt>
      <trkpt lat="42.45679" lon="2.63164">
        <ele>298</ele>
        <time>2024-09-20T08:43:47Z</time>
      </trkpt>
      <trkpt lat="42.45678" lon="2.63169">
        <ele>297</ele>
        <time>2024-09-20T08:43:50Z</time>
      </trkpt>
      <trkpt lat="42.45678" lon="2.63173">
        <ele>297</ele>
        <time>2024-09-20T08:43:53Z</time>
      </trkpt>
      <trkpt lat="42.45676" lon="2.63178">
        <ele>296</ele>
        <time>2024-09-20T08:43:56Z</time>
      </trkpt>
      <trkpt lat="42.45675" lon="2.63182">
        <ele>296</ele>
        <time>2024-09-20T08:43:59Z</time>
      </trkpt>
      <trkpt lat="42.45674" lon="2.63185">
        <ele>296</ele>
        <time>2024-09-20T08:44:02Z</time>
      </trkpt>
      <trkpt lat="42.45672" lon="2.63189">
        <ele>295</ele>
        <time>2024-09-20T08:44:05Z</time>
      </trkpt>
      <trkpt lat="42.45672" lon="2.63193">
        <ele>295</ele>
        <time>2024-09-20T08:44:07Z</time>
      </trkpt>
      <trkpt lat="42.45671" lon="2.63197">
        <ele>295</ele>
        <time>2024-09-20T08:44:10Z</time>
      </trkpt>
      <trkpt lat="42.4567" lon="2.63202">
        <ele>295</ele>
        <time>2024-09-20T08:44:13Z</time>
      </trkpt>
      <trkpt lat="42.45669" lon="2.63207">
        <ele>296</ele>
        <time>2024-09-20T08:44:16Z</time>
      </trkpt>
      <trkpt lat="42.45669" lon="2.63212">
        <ele>296</ele>
        <time>2024-09-20T08:44:19Z</time>
      </trkpt>
      <trkpt lat="42.4567" lon="2.63217">
        <ele>295</ele>
        <time>2024-09-20T08:44:22Z</time>
      </trkpt>
      <trkpt lat="42.4567" lon="2.63221">
        <ele>294</ele>
        <time>2024-09-20T08:44:24Z</time>
      </trkpt>
      <trkpt lat="42.45671" lon="2.63225">
        <ele>294</ele>
        <time>2024-09-20T08:44:27Z</time>
      </trkpt>
      <trkpt lat="42.45673" lon="2.63229">
        <ele>292</ele>
        <time>2024-09-20T08:44:30Z</time>
      </trkpt>
      <trkpt lat="42.45674" lon="2.63233">
        <ele>294</ele>
        <time>2024-09-20T08:44:32Z</time>
      </trkpt>
      <trkpt lat="42.45674" lon="2.63237">
        <ele>294</ele>
        <time>2024-09-20T08:44:34Z</time>
      </trkpt>
      <trkpt lat="42.45675" lon="2.63241">
        <ele>295</ele>
        <time>2024-09-20T08:44:37Z</time>
      </trkpt>
      <trkpt lat="42.45676" lon="2.63246">
        <ele>296</ele>
        <time>2024-09-20T08:44:40Z</time>
      </trkpt>
      <trkpt lat="42.45676" lon="2.6325">
        <ele>296</ele>
        <time>2024-09-20T08:44:42Z</time>
      </trkpt>
      <trkpt lat="42.45677" lon="2.63254">
        <ele>296</ele>
        <time>2024-09-20T08:44:44Z</time>
      </trkpt>
      <trkpt lat="42.45678" lon="2.63258">
        <ele>296</ele>
        <time>2024-09-20T08:44:47Z</time>
      </trkpt>
      <trkpt lat="42.45679" lon="2.63263">
        <ele>296</ele>
        <time>2024-09-20T08:44:50Z</time>
      </trkpt>
      <trkpt lat="42.45679" lon="2.63267">
        <ele>296</ele>
        <time>2024-09-20T08:44:54Z</time>
      </trkpt>
      <trkpt lat="42.45679" lon="2.63271">
        <ele>295</ele>
        <time>2024-09-20T08:44:57Z</time>
      </trkpt>
      <trkpt lat="42.45679" lon="2.63276">
        <ele>294</ele>
        <time>2024-09-20T08:45:01Z</time>
      </trkpt>
      <trkpt lat="42.45681" lon="2.63281">
        <ele>295</ele>
        <time>2024-09-20T08:45:04Z</time>
      </trkpt>
      <trkpt lat="42.45686" lon="2.63285">
        <ele>296</ele>
        <time>2024-09-20T08:45:06Z</time>
      </trkpt>
      <trkpt lat="42.45689" lon="2.63289">
        <ele>295</ele>
        <time>2024-09-20T08:45:09Z</time>
      </trkpt>
      <trkpt lat="42.45692" lon="2.63294">
        <ele>294</ele>
        <time>2024-09-20T08:45:12Z</time>
      </trkpt>
      <trkpt lat="42.45694" lon="2.63297">
        <ele>294</ele>
        <time>2024-09-20T08:45:15Z</time>
      </trkpt>
      <trkpt lat="42.45696" lon="2.633">
        <ele>294</ele>
        <time>2024-09-20T08:45:17Z</time>
      </trkpt>
      <trkpt lat="42.45699" lon="2.63303">
        <ele>293</ele>
        <time>2024-09-20T08:45:22Z</time>
      </trkpt>
      <trkpt lat="42.45703" lon="2.63306">
        <ele>292</ele>
        <time>2024-09-20T08:45:24Z</time>
      </trkpt>
      <trkpt lat="42.45705" lon="2.63308">
        <ele>292</ele>
        <time>2024-09-20T08:45:26Z</time>
      </trkpt>
      <trkpt lat="42.45708" lon="2.6331">
        <ele>292</ele>
        <time>2024-09-20T08:45:28Z</time>
      </trkpt>
      <trkpt lat="42.45711" lon="2.63313">
        <ele>293</ele>
        <time>2024-09-20T08:45:31Z</time>
      </trkpt>
      <trkpt lat="42.45714" lon="2.63315">
        <ele>293</ele>
        <time>2024-09-20T08:45:33Z</time>
      </trkpt>
      <trkpt lat="42.45716" lon="2.63318">
        <ele>293</ele>
        <time>2024-09-20T08:45:35Z</time>
      </trkpt>
      <trkpt lat="42.45716" lon="2.63323">
        <ele>292</ele>
        <time>2024-09-20T08:45:38Z</time>
      </trkpt>
      <trkpt lat="42.45716" lon="2.63327">
        <ele>293</ele>
        <time>2024-09-20T08:45:40Z</time>
      </trkpt>
      <trkpt lat="42.45717" lon="2.63331">
        <ele>294</ele>
        <time>2024-09-20T08:45:42Z</time>
      </trkpt>
      <trkpt lat="42.45717" lon="2.63335">
        <ele>293</ele>
        <time>2024-09-20T08:45:44Z</time>
      </trkpt>
      <trkpt lat="42.45719" lon="2.63339">
        <ele>294</ele>
        <time>2024-09-20T08:45:46Z</time>
      </trkpt>
      <trkpt lat="42.45721" lon="2.63342">
        <ele>294</ele>
        <time>2024-09-20T08:45:50Z</time>
      </trkpt>
      <trkpt lat="42.45723" lon="2.63345">
        <ele>293</ele>
        <time>2024-09-20T08:45:52Z</time>
      </trkpt>
      <trkpt lat="42.45726" lon="2.63349">
        <ele>292</ele>
        <time>2024-09-20T08:45:56Z</time>
      </trkpt>
      <trkpt lat="42.45729" lon="2.63351">
        <ele>293</ele>
        <time>2024-09-20T08:46:00Z</time>
      </trkpt>
      <trkpt lat="42.45731" lon="2.63354">
        <ele>292</ele>
        <time>2024-09-20T08:46:02Z</time>
      </trkpt>
      <trkpt lat="42.45734" lon="2.63357">
        <ele>293</ele>
        <time>2024-09-20T08:46:04Z</time>
      </trkpt>
      <trkpt lat="42.45737" lon="2.6336">
        <ele>292</ele>
        <time>2024-09-20T08:46:07Z</time>
      </trkpt>
      <trkpt lat="42.4574" lon="2.63364">
        <ele>293</ele>
        <time>2024-09-20T08:46:10Z</time>
      </trkpt>
      <trkpt lat="42.45742" lon="2.63367">
        <ele>293</ele>
        <time>2024-09-20T08:46:12Z</time>
      </trkpt>
      <trkpt lat="42.45744" lon="2.6337">
        <ele>293</ele>
        <time>2024-09-20T08:46:14Z</time>
      </trkpt>
      <trkpt lat="42.45746" lon="2.63372">
        <ele>292</ele>
        <time>2024-09-20T08:46:16Z</time>
      </trkpt>
      <trkpt lat="42.45749" lon="2.63375">
        <ele>291</ele>
        <time>2024-09-20T08:46:19Z</time>
      </trkpt>
      <trkpt lat="42.45751" lon="2.63378">
        <ele>292</ele>
        <time>2024-09-20T08:46:21Z</time>
      </trkpt>
      <trkpt lat="42.45753" lon="2.63381">
        <ele>292</ele>
        <time>2024-09-20T08:46:24Z</time>
      </trkpt>
      <trkpt lat="42.45755" lon="2.63385">
        <ele>291</ele>
        <time>2024-09-20T08:46:28Z</time>
      </trkpt>
      <trkpt lat="42.45757" lon="2.63389">
        <ele>290</ele>
        <time>2024-09-20T08:46:32Z</time>
      </trkpt>
      <trkpt lat="42.45759" lon="2.63392">
        <ele>291</ele>
        <time>2024-09-20T08:46:34Z</time>
      </trkpt>
      <trkpt lat="42.45762" lon="2.63396">
        <ele>289</ele>
        <time>2024-09-20T08:46:39Z</time>
      </trkpt>
      <trkpt lat="42.45764" lon="2.63399">
        <ele>290</ele>
        <time>2024-09-20T08:46:41Z</time>
      </trkpt>
      <trkpt lat="42.45766" lon="2.63403">
        <ele>289</ele>
        <time>2024-09-20T08:46:43Z</time>
      </trkpt>
      <trkpt lat="42.45768" lon="2.63406">
        <ele>290</ele>
        <time>2024-09-20T08:46:45Z</time>
      </trkpt>
      <trkpt lat="42.45769" lon="2.63409">
        <ele>291</ele>
        <time>2024-09-20T08:46:47Z</time>
      </trkpt>
      <trkpt lat="42.45772" lon="2.63413">
        <ele>291</ele>
        <time>2024-09-20T08:46:50Z</time>
      </trkpt>
      <trkpt lat="42.45771" lon="2.63412">
        <ele>288</ele>
        <time>2024-09-20T08:46:58Z</time>
      </trkpt>
      <trkpt lat="42.45769" lon="2.63412">
        <ele>287</ele>
        <time>2024-09-20T08:47:59Z</time>
      </trkpt>
      <trkpt lat="42.45767" lon="2.63413">
        <ele>286</ele>
        <time>2024-09-20T08:48:01Z</time>
      </trkpt>
      <trkpt lat="42.45764" lon="2.63415">
        <ele>286</ele>
        <time>2024-09-20T08:48:04Z</time>
      </trkpt>
      <trkpt lat="42.45762" lon="2.63418">
        <ele>286</ele>
        <time>2024-09-20T08:48:06Z</time>
      </trkpt>
      <trkpt lat="42.45761" lon="2.63423">
        <ele>285</ele>
        <time>2024-09-20T08:48:08Z</time>
      </trkpt>
      <trkpt lat="42.45761" lon="2.63429">
        <ele>286</ele>
        <time>2024-09-20T08:48:10Z</time>
      </trkpt>
      <trkpt lat="42.45762" lon="2.63434">
        <ele>286</ele>
        <time>2024-09-20T08:48:12Z</time>
      </trkpt>
      <trkpt lat="42.45761" lon="2.63439">
        <ele>286</ele>
        <time>2024-09-20T08:48:16Z</time>
      </trkpt>
      <trkpt lat="42.45763" lon="2.63443">
        <ele>285</ele>
        <time>2024-09-20T08:48:20Z</time>
      </trkpt>
      <trkpt lat="42.45764" lon="2.63447">
        <ele>287</ele>
        <time>2024-09-20T08:48:24Z</time>
      </trkpt>
      <trkpt lat="42.45764" lon="2.63451">
        <ele>287</ele>
        <time>2024-09-20T08:48:26Z</time>
      </trkpt>
      <trkpt lat="42.45764" lon="2.63455">
        <ele>286</ele>
        <time>2024-09-20T08:48:30Z</time>
      </trkpt>
      <trkpt lat="42.45765" lon="2.63461">
        <ele>286</ele>
        <time>2024-09-20T08:48:33Z</time>
      </trkpt>
      <trkpt lat="42.45764" lon="2.63466">
        <ele>285</ele>
        <time>2024-09-20T08:48:36Z</time>
      </trkpt>
      <trkpt lat="42.45763" lon="2.6347">
        <ele>284</ele>
        <time>2024-09-20T08:48:38Z</time>
      </trkpt>
      <trkpt lat="42.45761" lon="2.63474">
        <ele>284</ele>
        <time>2024-09-20T08:48:41Z</time>
      </trkpt>
      <trkpt lat="42.45759" lon="2.63477">
        <ele>285</ele>
        <time>2024-09-20T08:48:43Z</time>
      </trkpt>
      <trkpt lat="42.45759" lon="2.63481">
        <ele>287</ele>
        <time>2024-09-20T08:49:31Z</time>
      </trkpt>
      <trkpt lat="42.4576" lon="2.63484">
        <ele>287</ele>
        <time>2024-09-20T08:49:34Z</time>
      </trkpt>
      <trkpt lat="42.45762" lon="2.63486">
        <ele>287</ele>
        <time>2024-09-20T08:49:37Z</time>
      </trkpt>
      <trkpt lat="42.45764" lon="2.63489">
        <ele>287</ele>
        <time>2024-09-20T08:49:41Z</time>
      </trkpt>
      <trkpt lat="42.45767" lon="2.6349">
        <ele>287</ele>
        <time>2024-09-20T08:49:44Z</time>
      </trkpt>
      <trkpt lat="42.4577" lon="2.63491">
        <ele>287</ele>
        <time>2024-09-20T08:49:46Z</time>
      </trkpt>
      <trkpt lat="42.45774" lon="2.63492">
        <ele>286</ele>
        <time>2024-09-20T08:49:49Z</time>
      </trkpt>
      <trkpt lat="42.45774" lon="2.6349">
        <ele>287</ele>
        <time>2024-09-20T08:49:56Z</time>
      </trkpt>
      <trkpt lat="42.45773" lon="2.63488">
        <ele>287</ele>
        <time>2024-09-20T08:49:59Z</time>
      </trkpt>
      <trkpt lat="42.4577" lon="2.63489">
        <ele>288</ele>
        <time>2024-09-20T08:50:12Z</time>
      </trkpt>
      <trkpt lat="42.45767" lon="2.6349">
        <ele>288</ele>
        <time>2024-09-20T08:50:19Z</time>
      </trkpt>
      <trkpt lat="42.45764" lon="2.63491">
        <ele>288</ele>
        <time>2024-09-20T08:50:21Z</time>
      </trkpt>
      <trkpt lat="42.4576" lon="2.63491">
        <ele>287</ele>
        <time>2024-09-20T08:50:24Z</time>
      </trkpt>
      <trkpt lat="42.45758" lon="2.6349">
        <ele>287</ele>
        <time>2024-09-20T08:50:27Z</time>
      </trkpt>
      <trkpt lat="42.45754" lon="2.63489">
        <ele>286</ele>
        <time>2024-09-20T08:50:30Z</time>
      </trkpt>
      <trkpt lat="42.45752" lon="2.63487">
        <ele>287</ele>
        <time>2024-09-20T08:50:33Z</time>
      </trkpt>
      <trkpt lat="42.45753" lon="2.63486">
        <ele>287</ele>
        <time>2024-09-20T08:50:37Z</time>
      </trkpt>
      <trkpt lat="42.45756" lon="2.63486">
        <ele>285</ele>
        <time>2024-09-20T08:51:01Z</time>
      </trkpt>
      <trkpt lat="42.45757" lon="2.63483">
        <ele>285</ele>
        <time>2024-09-20T08:51:03Z</time>
      </trkpt>
      <trkpt lat="42.45758" lon="2.63479">
        <ele>285</ele>
        <time>2024-09-20T08:51:04Z</time>
      </trkpt>
      <trkpt lat="42.45759" lon="2.63475">
        <ele>285</ele>
        <time>2024-09-20T08:51:06Z</time>
      </trkpt>
      <trkpt lat="42.45761" lon="2.63472">
        <ele>286</ele>
        <time>2024-09-20T08:51:07Z</time>
      </trkpt>
      <trkpt lat="42.45764" lon="2.63468">
        <ele>286</ele>
        <time>2024-09-20T08:51:08Z</time>
      </trkpt>
      <trkpt lat="42.45766" lon="2.63463">
        <ele>286</ele>
        <time>2024-09-20T08:51:10Z</time>
      </trkpt>
      <trkpt lat="42.45765" lon="2.63459">
        <ele>286</ele>
        <time>2024-09-20T08:51:11Z</time>
      </trkpt>
      <trkpt lat="42.45764" lon="2.63454">
        <ele>287</ele>
        <time>2024-09-20T08:51:13Z</time>
      </trkpt>
      <trkpt lat="42.45762" lon="2.63447">
        <ele>287</ele>
        <time>2024-09-20T08:51:15Z</time>
      </trkpt>
      <trkpt lat="42.45762" lon="2.63442">
        <ele>288</ele>
        <time>2024-09-20T08:51:16Z</time>
      </trkpt>
      <trkpt lat="42.45763" lon="2.63435">
        <ele>288</ele>
        <time>2024-09-20T08:51:18Z</time>
      </trkpt>
      <trkpt lat="42.45763" lon="2.6343">
        <ele>289</ele>
        <time>2024-09-20T08:51:19Z</time>
      </trkpt>
      <trkpt lat="42.45762" lon="2.63426">
        <ele>289</ele>
        <time>2024-09-20T08:51:20Z</time>
      </trkpt>
      <trkpt lat="42.4576" lon="2.63423">
        <ele>289</ele>
        <time>2024-09-20T08:51:21Z</time>
      </trkpt>
      <trkpt lat="42.45759" lon="2.63419">
        <ele>289</ele>
        <time>2024-09-20T08:51:22Z</time>
      </trkpt>
      <trkpt lat="42.45758" lon="2.63415">
        <ele>289</ele>
        <time>2024-09-20T08:51:23Z</time>
      </trkpt>
      <trkpt lat="42.45756" lon="2.63412">
        <ele>291</ele>
        <time>2024-09-20T08:51:24Z</time>
      </trkpt>
      <trkpt lat="42.45754" lon="2.63408">
        <ele>288</ele>
        <time>2024-09-20T08:51:25Z</time>
      </trkpt>
      <trkpt lat="42.45752" lon="2.63404">
        <ele>290</ele>
        <time>2024-09-20T08:51:26Z</time>
      </trkpt>
      <trkpt lat="42.4575" lon="2.63401">
        <ele>290</ele>
        <time>2024-09-20T08:51:27Z</time>
      </trkpt>
      <trkpt lat="42.45748" lon="2.63398">
        <ele>289</ele>
        <time>2024-09-20T08:51:28Z</time>
      </trkpt>
      <trkpt lat="42.45746" lon="2.63394">
        <ele>289</ele>
        <time>2024-09-20T08:51:29Z</time>
      </trkpt>
      <trkpt lat="42.45743" lon="2.63392">
        <ele>289</ele>
        <time>2024-09-20T08:51:30Z</time>
      </trkpt>
      <trkpt lat="42.45742" lon="2.63387">
        <ele>288</ele>
        <time>2024-09-20T08:51:31Z</time>
      </trkpt>
      <trkpt lat="42.45738" lon="2.63383">
        <ele>290</ele>
        <time>2024-09-20T08:51:33Z</time>
      </trkpt>
      <trkpt lat="42.45736" lon="2.63379">
        <ele>289</ele>
        <time>2024-09-20T08:51:34Z</time>
      </trkpt>
      <trkpt lat="42.45733" lon="2.63376">
        <ele>290</ele>
        <time>2024-09-20T08:51:35Z</time>
      </trkpt>
      <trkpt lat="42.4573" lon="2.63371">
        <ele>289</ele>
        <time>2024-09-20T08:51:37Z</time>
      </trkpt>
      <trkpt lat="42.45728" lon="2.63366">
        <ele>290</ele>
        <time>2024-09-20T08:51:38Z</time>
      </trkpt>
      <trkpt lat="42.45725" lon="2.63364">
        <ele>289</ele>
        <time>2024-09-20T08:51:39Z</time>
      </trkpt>
      <trkpt lat="42.45724" lon="2.63359">
        <ele>289</ele>
        <time>2024-09-20T08:51:40Z</time>
      </trkpt>
      <trkpt lat="42.45721" lon="2.63357">
        <ele>289</ele>
        <time>2024-09-20T08:51:41Z</time>
      </trkpt>
      <trkpt lat="42.45717" lon="2.63356">
        <ele>290</ele>
        <time>2024-09-20T08:51:42Z</time>
      </trkpt>
      <trkpt lat="42.45714" lon="2.63355">
        <ele>289</ele>
        <time>2024-09-20T08:51:43Z</time>
      </trkpt>
      <trkpt lat="42.4571" lon="2.63355">
        <ele>289</ele>
        <time>2024-09-20T08:51:44Z</time>
      </trkpt>
      <trkpt lat="42.45707" lon="2.63354">
        <ele>289</ele>
        <time>2024-09-20T08:51:45Z</time>
      </trkpt>
      <trkpt lat="42.45704" lon="2.63353">
        <ele>289</ele>
        <time>2024-09-20T08:51:46Z</time>
      </trkpt>
      <trkpt lat="42.457" lon="2.63351">
        <ele>291</ele>
        <time>2024-09-20T08:51:47Z</time>
      </trkpt>
      <trkpt lat="42.45697" lon="2.63351">
        <ele>289</ele>
        <time>2024-09-20T08:51:48Z</time>
      </trkpt>
      <trkpt lat="42.45695" lon="2.63349">
        <ele>291</ele>
        <time>2024-09-20T08:51:49Z</time>
      </trkpt>
      <trkpt lat="42.45692" lon="2.63347">
        <ele>290</ele>
        <time>2024-09-20T08:51:50Z</time>
      </trkpt>
      <trkpt lat="42.45687" lon="2.63346">
        <ele>291</ele>
        <time>2024-09-20T08:51:52Z</time>
      </trkpt>
      <trkpt lat="42.45684" lon="2.63345">
        <ele>290</ele>
        <time>2024-09-20T08:51:53Z</time>
      </trkpt>
      <trkpt lat="42.4568" lon="2.63344">
        <ele>290</ele>
        <time>2024-09-20T08:51:54Z</time>
      </trkpt>
      <trkpt lat="42.45677" lon="2.63344">
        <ele>291</ele>
        <time>2024-09-20T08:51:55Z</time>
      </trkpt>
      <trkpt lat="42.45675" lon="2.6334">
        <ele>293</ele>
        <time>2024-09-20T08:51:56Z</time>
      </trkpt>
      <trkpt lat="42.45672" lon="2.63338">
        <ele>292</ele>
        <time>2024-09-20T08:51:57Z</time>
      </trkpt>
      <trkpt lat="42.45668" lon="2.63336">
        <ele>293</ele>
        <time>2024-09-20T08:51:59Z</time>
      </trkpt>
      <trkpt lat="42.45664" lon="2.63335">
        <ele>294</ele>
        <time>2024-09-20T08:52:01Z</time>
      </trkpt>
      <trkpt lat="42.4566" lon="2.63335">
        <ele>294</ele>
        <time>2024-09-20T08:52:04Z</time>
      </trkpt>
      <trkpt lat="42.45657" lon="2.63334">
        <ele>296</ele>
        <time>2024-09-20T08:52:08Z</time>
      </trkpt>
      <trkpt lat="42.45653" lon="2.63335">
        <ele>296</ele>
        <time>2024-09-20T08:52:11Z</time>
      </trkpt>
      <trkpt lat="42.4565" lon="2.63335">
        <ele>296</ele>
        <time>2024-09-20T08:52:13Z</time>
      </trkpt>
      <trkpt lat="42.45647" lon="2.63335">
        <ele>296</ele>
        <time>2024-09-20T08:52:17Z</time>
      </trkpt>
      <trkpt lat="42.45644" lon="2.63336">
        <ele>296</ele>
        <time>2024-09-20T08:52:20Z</time>
      </trkpt>
      <trkpt lat="42.4564" lon="2.63335">
        <ele>294</ele>
        <time>2024-09-20T08:52:23Z</time>
      </trkpt>
      <trkpt lat="42.4564" lon="2.63333">
        <ele>294</ele>
        <time>2024-09-20T08:52:26Z</time>
      </trkpt>
      <trkpt lat="42.4564" lon="2.63329">
        <ele>295</ele>
        <time>2024-09-20T08:52:28Z</time>
      </trkpt>
      <trkpt lat="42.45638" lon="2.63325">
        <ele>295</ele>
        <time>2024-09-20T08:52:34Z</time>
      </trkpt>
      <trkpt lat="42.45641" lon="2.63325">
        <ele>294</ele>
        <time>2024-09-20T08:53:24Z</time>
      </trkpt>
      <trkpt lat="42.45644" lon="2.63325">
        <ele>295</ele>
        <time>2024-09-20T08:53:26Z</time>
      </trkpt>
      <trkpt lat="42.45644" lon="2.63328">
        <ele>297</ele>
        <time>2024-09-20T08:53:29Z</time>
      </trkpt>
      <trkpt lat="42.45647" lon="2.63329">
        <ele>296</ele>
        <time>2024-09-20T08:53:31Z</time>
      </trkpt>
      <trkpt lat="42.45649" lon="2.63331">
        <ele>297</ele>
        <time>2024-09-20T08:53:33Z</time>
      </trkpt>
      <trkpt lat="42.45651" lon="2.63334">
        <ele>295</ele>
        <time>2024-09-20T08:53:35Z</time>
      </trkpt>
      <trkpt lat="42.45653" lon="2.63337">
        <ele>295</ele>
        <time>2024-09-20T08:53:37Z</time>
      </trkpt>
      <trkpt lat="42.45657" lon="2.6334">
        <ele>296</ele>
        <time>2024-09-20T08:53:40Z</time>
      </trkpt>
      <trkpt lat="42.4566" lon="2.63342">
        <ele>295</ele>
        <time>2024-09-20T08:53:42Z</time>
      </trkpt>
      <trkpt lat="42.45664" lon="2.63343">
        <ele>295</ele>
        <time>2024-09-20T08:53:44Z</time>
      </trkpt>
      <trkpt lat="42.45667" lon="2.63343">
        <ele>295</ele>
        <time>2024-09-20T08:53:45Z</time>
      </trkpt>
      <trkpt lat="42.4567" lon="2.63344">
        <ele>295</ele>
        <time>2024-09-20T08:53:47Z</time>
      </trkpt>
      <trkpt lat="42.45673" lon="2.63345">
        <ele>294</ele>
        <time>2024-09-20T08:53:49Z</time>
      </trkpt>
      <trkpt lat="42.45676" lon="2.63345">
        <ele>294</ele>
        <time>2024-09-20T08:53:51Z</time>
      </trkpt>
      <trkpt lat="42.45679" lon="2.63344">
        <ele>294</ele>
        <time>2024-09-20T08:53:54Z</time>
      </trkpt>
      <trkpt lat="42.45681" lon="2.63346">
        <ele>294</ele>
        <time>2024-09-20T08:53:56Z</time>
      </trkpt>
      <trkpt lat="42.45682" lon="2.6335">
        <ele>294</ele>
        <time>2024-09-20T08:53:57Z</time>
      </trkpt>
      <trkpt lat="42.45684" lon="2.63352">
        <ele>294</ele>
        <time>2024-09-20T08:53:59Z</time>
      </trkpt>
      <trkpt lat="42.45687" lon="2.63355">
        <ele>294</ele>
        <time>2024-09-20T08:54:01Z</time>
      </trkpt>
      <trkpt lat="42.45689" lon="2.63356">
        <ele>295</ele>
        <time>2024-09-20T08:54:03Z</time>
      </trkpt>
      <trkpt lat="42.45693" lon="2.63355">
        <ele>295</ele>
        <time>2024-09-20T08:54:05Z</time>
      </trkpt>
      <trkpt lat="42.45696" lon="2.63356">
        <ele>293</ele>
        <time>2024-09-20T08:54:09Z</time>
      </trkpt>
      <trkpt lat="42.45696" lon="2.63355">
        <ele>291</ele>
        <time>2024-09-20T08:54:28Z</time>
      </trkpt>
      <trkpt lat="42.45694" lon="2.63354">
        <ele>291</ele>
        <time>2024-09-20T08:54:39Z</time>
      </trkpt>
      <trkpt lat="42.45697" lon="2.63351">
        <ele>291</ele>
        <time>2024-09-20T08:54:49Z</time>
      </trkpt>
      <trkpt lat="42.45701" lon="2.6335">
        <ele>291</ele>
        <time>2024-09-20T08:54:50Z</time>
      </trkpt>
      <trkpt lat="42.45695" lon="2.63351">
        <ele>291</ele>
        <time>2024-09-20T08:54:51Z</time>
      </trkpt>
      <trkpt lat="42.45696" lon="2.63351">
        <ele>291</ele>
        <time>2024-09-20T08:54:53Z</time>
      </trkpt>
      <trkpt lat="42.45698" lon="2.63352">
        <ele>290</ele>
        <time>2024-09-20T08:54:55Z</time>
      </trkpt>
      <trkpt lat="42.45699" lon="2.63353">
        <ele>291</ele>
        <time>2024-09-20T08:54:59Z</time>
      </trkpt>
      <trkpt lat="42.45696" lon="2.63354">
        <ele>291</ele>
        <time>2024-09-20T08:55:01Z</time>
      </trkpt>
      <trkpt lat="42.45696" lon="2.63354">
        <ele>291</ele>
        <time>2024-09-20T08:55:08Z</time>
      </trkpt>
      <trkpt lat="42.45695" lon="2.63349">
        <ele>291</ele>
        <time>2024-09-20T08:55:15Z</time>
      </trkpt>
      <trkpt lat="42.45697" lon="2.63347">
        <ele>290</ele>
        <time>2024-09-20T08:55:22Z</time>
      </trkpt>
      <trkpt lat="42.45698" lon="2.63347">
        <ele>291</ele>
        <time>2024-09-20T08:55:34Z</time>
      </trkpt>
      <trkpt lat="42.45698" lon="2.63346">
        <ele>291</ele>
        <time>2024-09-20T08:55:37Z</time>
      </trkpt>
      <trkpt lat="42.45698" lon="2.63346">
        <ele>291</ele>
        <time>2024-09-20T08:55:42Z</time>
      </trkpt>
      <trkpt lat="42.45695" lon="2.63347">
        <ele>291</ele>
        <time>2024-09-20T08:55:47Z</time>
      </trkpt>
      <trkpt lat="42.45693" lon="2.63347">
        <ele>291</ele>
        <time>2024-09-20T08:56:06Z</time>
      </trkpt>
      <trkpt lat="42.45692" lon="2.63347">
        <ele>291</ele>
        <time>2024-09-20T08:56:15Z</time>
      </trkpt>
      <trkpt lat="42.45693" lon="2.63343">
        <ele>292</ele>
        <time>2024-09-20T08:56:40Z</time>
      </trkpt>
      <trkpt lat="42.45695" lon="2.63341">
        <ele>292</ele>
        <time>2024-09-20T08:56:55Z</time>
      </trkpt>
      <trkpt lat="42.45693" lon="2.63343">
        <ele>292</ele>
        <time>2024-09-20T08:56:57Z</time>
      </trkpt>
      <trkpt lat="42.45692" lon="2.63345">
        <ele>292</ele>
        <time>2024-09-20T08:57:01Z</time>
      </trkpt>
      <trkpt lat="42.45692" lon="2.63344">
        <ele>292</ele>
        <time>2024-09-20T08:57:26Z</time>
      </trkpt>
      <trkpt lat="42.45691" lon="2.63345">
        <ele>292</ele>
        <time>2024-09-20T08:58:00Z</time>
      </trkpt>
      <trkpt lat="42.45688" lon="2.63344">
        <ele>292</ele>
        <time>2024-09-20T08:58:09Z</time>
      </trkpt>
      <trkpt lat="42.45688" lon="2.63341">
        <ele>292</ele>
        <time>2024-09-20T08:58:42Z</time>
      </trkpt>
      <trkpt lat="42.4569" lon="2.6334">
        <ele>293</ele>
        <time>2024-09-20T08:58:49Z</time>
      </trkpt>
      <trkpt lat="42.45688" lon="2.63339">
        <ele>293</ele>
        <time>2024-09-20T08:58:52Z</time>
      </trkpt>
      <trkpt lat="42.4569" lon="2.63331">
        <ele>293</ele>
        <time>2024-09-20T08:59:11Z</time>
      </trkpt>
      <trkpt lat="42.45692" lon="2.63332">
        <ele>293</ele>
        <time>2024-09-20T08:59:13Z</time>
      </trkpt>
      <trkpt lat="42.45684" lon="2.6334">
        <ele>293</ele>
        <time>2024-09-20T08:59:14Z</time>
      </trkpt>
      <trkpt lat="42.45685" lon="2.63347">
        <ele>292</ele>
        <time>2024-09-20T08:59:15Z</time>
      </trkpt>
      <trkpt lat="42.45685" lon="2.6335">
        <ele>292</ele>
        <time>2024-09-20T08:59:16Z</time>
      </trkpt>
      <trkpt lat="42.45688" lon="2.63353">
        <ele>293</ele>
        <time>2024-09-20T08:59:19Z</time>
      </trkpt>
      <trkpt lat="42.45691" lon="2.63354">
        <ele>293</ele>
        <time>2024-09-20T08:59:21Z</time>
      </trkpt>
      <trkpt lat="42.45693" lon="2.63355">
        <ele>293</ele>
        <time>2024-09-20T08:59:23Z</time>
      </trkpt>
      <trkpt lat="42.45697" lon="2.63355">
        <ele>292</ele>
        <time>2024-09-20T08:59:26Z</time>
      </trkpt>
      <trkpt lat="42.45701" lon="2.63355">
        <ele>292</ele>
        <time>2024-09-20T08:59:29Z</time>
      </trkpt>
      <trkpt lat="42.45704" lon="2.63356">
        <ele>292</ele>
        <time>2024-09-20T08:59:31Z</time>
      </trkpt>
      <trkpt lat="42.45708" lon="2.63357">
        <ele>291</ele>
        <time>2024-09-20T08:59:33Z</time>
      </trkpt>
      <trkpt lat="42.45711" lon="2.63358">
        <ele>289</ele>
        <time>2024-09-20T08:59:35Z</time>
      </trkpt>
      <trkpt lat="42.45715" lon="2.6336">
        <ele>290</ele>
        <time>2024-09-20T08:59:38Z</time>
      </trkpt>
      <trkpt lat="42.45718" lon="2.63363">
        <ele>289</ele>
        <time>2024-09-20T08:59:40Z</time>
      </trkpt>
      <trkpt lat="42.45721" lon="2.63364">
        <ele>289</ele>
        <time>2024-09-20T08:59:41Z</time>
      </trkpt>
      <trkpt lat="42.45724" lon="2.63366">
        <ele>289</ele>
        <time>2024-09-20T08:59:43Z</time>
      </trkpt>
      <trkpt lat="42.45728" lon="2.63367">
        <ele>290</ele>
        <time>2024-09-20T08:59:45Z</time>
      </trkpt>
      <trkpt lat="42.45731" lon="2.6337">
        <ele>289</ele>
        <time>2024-09-20T08:59:47Z</time>
      </trkpt>
      <trkpt lat="42.45733" lon="2.63375">
        <ele>290</ele>
        <time>2024-09-20T08:59:49Z</time>
      </trkpt>
      <trkpt lat="42.45736" lon="2.63379">
        <ele>291</ele>
        <time>2024-09-20T08:59:51Z</time>
      </trkpt>
      <trkpt lat="42.45738" lon="2.63383">
        <ele>291</ele>
        <time>2024-09-20T08:59:53Z</time>
      </trkpt>
      <trkpt lat="42.4574" lon="2.63387">
        <ele>291</ele>
        <time>2024-09-20T08:59:55Z</time>
      </trkpt>
      <trkpt lat="42.45742" lon="2.6339">
        <ele>290</ele>
        <time>2024-09-20T08:59:58Z</time>
      </trkpt>
      <trkpt lat="42.45745" lon="2.63394">
        <ele>290</ele>
        <time>2024-09-20T09:00:00Z</time>
      </trkpt>
      <trkpt lat="42.45747" lon="2.63397">
        <ele>289</ele>
        <time>2024-09-20T09:00:02Z</time>
      </trkpt>
      <trkpt lat="42.45749" lon="2.63401">
        <ele>289</ele>
        <time>2024-09-20T09:00:04Z</time>
      </trkpt>
      <trkpt lat="42.45751" lon="2.63404">
        <ele>290</ele>
        <time>2024-09-20T09:00:06Z</time>
      </trkpt>
      <trkpt lat="42.45753" lon="2.63408">
        <ele>290</ele>
        <time>2024-09-20T09:00:08Z</time>
      </trkpt>
      <trkpt lat="42.45755" lon="2.63412">
        <ele>290</ele>
        <time>2024-09-20T09:00:10Z</time>
      </trkpt>
      <trkpt lat="42.45756" lon="2.63415">
        <ele>289</ele>
        <time>2024-09-20T09:00:12Z</time>
      </trkpt>
      <trkpt lat="42.45759" lon="2.63418">
        <ele>290</ele>
        <time>2024-09-20T09:00:14Z</time>
      </trkpt>
      <trkpt lat="42.4576" lon="2.63422">
        <ele>289</ele>
        <time>2024-09-20T09:00:16Z</time>
      </trkpt>
      <trkpt lat="42.4576" lon="2.63428">
        <ele>288</ele>
        <time>2024-09-20T09:00:18Z</time>
      </trkpt>
      <trkpt lat="42.45761" lon="2.63433">
        <ele>288</ele>
        <time>2024-09-20T09:00:20Z</time>
      </trkpt>
      <trkpt lat="42.45762" lon="2.63438">
        <ele>287</ele>
        <time>2024-09-20T09:00:22Z</time>
      </trkpt>
      <trkpt lat="42.45763" lon="2.63443">
        <ele>287</ele>
        <time>2024-09-20T09:00:24Z</time>
      </trkpt>
      <trkpt lat="42.45764" lon="2.63447">
        <ele>286</ele>
        <time>2024-09-20T09:00:26Z</time>
      </trkpt>
      <trkpt lat="42.45765" lon="2.63451">
        <ele>285</ele>
        <time>2024-09-20T09:00:28Z</time>
      </trkpt>
      <trkpt lat="42.45767" lon="2.63455">
        <ele>286</ele>
        <time>2024-09-20T09:00:30Z</time>
      </trkpt>
      <trkpt lat="42.45767" lon="2.63459">
        <ele>286</ele>
        <time>2024-09-20T09:00:33Z</time>
      </trkpt>
      <trkpt lat="42.45768" lon="2.63463">
        <ele>286</ele>
        <time>2024-09-20T09:00:35Z</time>
      </trkpt>
      <trkpt lat="42.45768" lon="2.63468">
        <ele>286</ele>
        <time>2024-09-20T09:00:37Z</time>
      </trkpt>
      <trkpt lat="42.45768" lon="2.63472">
        <ele>287</ele>
        <time>2024-09-20T09:00:39Z</time>
      </trkpt>
      <trkpt lat="42.45767" lon="2.63475">
        <ele>288</ele>
        <time>2024-09-20T09:00:41Z</time>
      </trkpt>
      <trkpt lat="42.45765" lon="2.6348">
        <ele>287</ele>
        <time>2024-09-20T09:00:43Z</time>
      </trkpt>
      <trkpt lat="42.45763" lon="2.63484">
        <ele>287</ele>
        <time>2024-09-20T09:00:45Z</time>
      </trkpt>
      <trkpt lat="42.4576" lon="2.63488">
        <ele>287</ele>
        <time>2024-09-20T09:00:47Z</time>
      </trkpt>
      <trkpt lat="42.45757" lon="2.63491">
        <ele>287</ele>
        <time>2024-09-20T09:00:49Z</time>
      </trkpt>
      <trkpt lat="42.45755" lon="2.63491">
        <ele>285</ele>
        <time>2024-09-20T09:00:57Z</time>
      </trkpt>
      <trkpt lat="42.45754" lon="2.63488">
        <ele>284</ele>
        <time>2024-09-20T09:01:05Z</time>
      </trkpt>
      <trkpt lat="42.45751" lon="2.63487">
        <ele>284</ele>
        <time>2024-09-20T09:01:11Z</time>
      </trkpt>
      <trkpt lat="42.45751" lon="2.63486">
        <ele>283</ele>
        <time>2024-09-20T09:01:25Z</time>
      </trkpt>
      <trkpt lat="42.4575" lon="2.63485">
        <ele>283</ele>
        <time>2024-09-20T09:01:55Z</time>
      </trkpt>
      <trkpt lat="42.45752" lon="2.63485">
        <ele>284</ele>
        <time>2024-09-20T09:02:05Z</time>
      </trkpt>
      <trkpt lat="42.45753" lon="2.63487">
        <ele>283</ele>
        <time>2024-09-20T09:02:32Z</time>
      </trkpt>
      <trkpt lat="42.45751" lon="2.63487">
        <ele>282</ele>
        <time>2024-09-20T09:02:47Z</time>
      </trkpt>
      <trkpt lat="42.4575" lon="2.63485">
        <ele>282</ele>
        <time>2024-09-20T09:03:06Z</time>
      </trkpt>
      <trkpt lat="42.4575" lon="2.63487">
        <ele>281</ele>
        <time>2024-09-20T09:03:10Z</time>
      </trkpt>
      <trkpt lat="42.4575" lon="2.6349">
        <ele>281</ele>
        <time>2024-09-20T09:03:14Z</time>
      </trkpt>
      <trkpt lat="42.45749" lon="2.63493">
        <ele>281</ele>
        <time>2024-09-20T09:03:15Z</time>
      </trkpt>
      <trkpt lat="42.45747" lon="2.63496">
        <ele>281</ele>
        <time>2024-09-20T09:03:18Z</time>
      </trkpt>
      <trkpt lat="42.45745" lon="2.63499">
        <ele>280</ele>
        <time>2024-09-20T09:03:21Z</time>
      </trkpt>
      <trkpt lat="42.45742" lon="2.63503">
        <ele>279</ele>
        <time>2024-09-20T09:03:24Z</time>
      </trkpt>
      <trkpt lat="42.4574" lon="2.63507">
        <ele>279</ele>
        <time>2024-09-20T09:03:27Z</time>
      </trkpt>
      <trkpt lat="42.45737" lon="2.63511">
        <ele>279</ele>
        <time>2024-09-20T09:03:30Z</time>
      </trkpt>
      <trkpt lat="42.45735" lon="2.63514">
        <ele>277</ele>
        <time>2024-09-20T09:03:33Z</time>
      </trkpt>
      <trkpt lat="42.45733" lon="2.63517">
        <ele>278</ele>
        <time>2024-09-20T09:03:35Z</time>
      </trkpt>
      <trkpt lat="42.45731" lon="2.63521">
        <ele>278</ele>
        <time>2024-09-20T09:03:37Z</time>
      </trkpt>
      <trkpt lat="42.45731" lon="2.63525">
        <ele>279</ele>
        <time>2024-09-20T09:03:40Z</time>
      </trkpt>
      <trkpt lat="42.4573" lon="2.6353">
        <ele>278</ele>
        <time>2024-09-20T09:03:42Z</time>
      </trkpt>
      <trkpt lat="42.45728" lon="2.63534">
        <ele>278</ele>
        <time>2024-09-20T09:03:45Z</time>
      </trkpt>
      <trkpt lat="42.45726" lon="2.63537">
        <ele>277</ele>
        <time>2024-09-20T09:03:48Z</time>
      </trkpt>
      <trkpt lat="42.45724" lon="2.63541">
        <ele>278</ele>
        <time>2024-09-20T09:03:51Z</time>
      </trkpt>
      <trkpt lat="42.45722" lon="2.63544">
        <ele>278</ele>
        <time>2024-09-20T09:03:54Z</time>
      </trkpt>
      <trkpt lat="42.45719" lon="2.63546">
        <ele>278</ele>
        <time>2024-09-20T09:03:57Z</time>
      </trkpt>
      <trkpt lat="42.45716" lon="2.63548">
        <ele>278</ele>
        <time>2024-09-20T09:03:59Z</time>
      </trkpt>
      <trkpt lat="42.45712" lon="2.6355">
        <ele>278</ele>
        <time>2024-09-20T09:04:02Z</time>
      </trkpt>
      <trkpt lat="42.45709" lon="2.63552">
        <ele>279</ele>
        <time>2024-09-20T09:04:04Z</time>
      </trkpt>
      <trkpt lat="42.45707" lon="2.63553">
        <ele>278</ele>
        <time>2024-09-20T09:04:06Z</time>
      </trkpt>
      <trkpt lat="42.45704" lon="2.63555">
        <ele>279</ele>
        <time>2024-09-20T09:04:09Z</time>
      </trkpt>
      <trkpt lat="42.45701" lon="2.63557">
        <ele>278</ele>
        <time>2024-09-20T09:04:12Z</time>
      </trkpt>
      <trkpt lat="42.45699" lon="2.63558">
        <ele>278</ele>
        <time>2024-09-20T09:04:14Z</time>
      </trkpt>
      <trkpt lat="42.45696" lon="2.6356">
        <ele>278</ele>
        <time>2024-09-20T09:04:17Z</time>
      </trkpt>
      <trkpt lat="42.45693" lon="2.63562">
        <ele>278</ele>
        <time>2024-09-20T09:04:20Z</time>
      </trkpt>
      <trkpt lat="42.4569" lon="2.63564">
        <ele>278</ele>
        <time>2024-09-20T09:04:25Z</time>
      </trkpt>
      <trkpt lat="42.45687" lon="2.63567">
        <ele>278</ele>
        <time>2024-09-20T09:04:28Z</time>
      </trkpt>
      <trkpt lat="42.45684" lon="2.63567">
        <ele>279</ele>
        <time>2024-09-20T09:04:30Z</time>
      </trkpt>
      <trkpt lat="42.45681" lon="2.63569">
        <ele>279</ele>
        <time>2024-09-20T09:04:33Z</time>
      </trkpt>
      <trkpt lat="42.45677" lon="2.6357">
        <ele>279</ele>
        <time>2024-09-20T09:04:36Z</time>
      </trkpt>
      <trkpt lat="42.45674" lon="2.63572">
        <ele>278</ele>
        <time>2024-09-20T09:04:39Z</time>
      </trkpt>
      <trkpt lat="42.4567" lon="2.63574">
        <ele>277</ele>
        <time>2024-09-20T09:04:44Z</time>
      </trkpt>
      <trkpt lat="42.45667" lon="2.63576">
        <ele>277</ele>
        <time>2024-09-20T09:04:46Z</time>
      </trkpt>
      <trkpt lat="42.45664" lon="2.63576">
        <ele>276</ele>
        <time>2024-09-20T09:04:49Z</time>
      </trkpt>
      <trkpt lat="42.4566" lon="2.63577">
        <ele>277</ele>
        <time>2024-09-20T09:04:52Z</time>
      </trkpt>
      <trkpt lat="42.45656" lon="2.63579">
        <ele>277</ele>
        <time>2024-09-20T09:04:55Z</time>
      </trkpt>
      <trkpt lat="42.45652" lon="2.63579">
        <ele>277</ele>
        <time>2024-09-20T09:04:58Z</time>
      </trkpt>
      <trkpt lat="42.45649" lon="2.6358">
        <ele>276</ele>
        <time>2024-09-20T09:05:02Z</time>
      </trkpt>
      <trkpt lat="42.45645" lon="2.63581">
        <ele>276</ele>
        <time>2024-09-20T09:05:05Z</time>
      </trkpt>
      <trkpt lat="42.45642" lon="2.63583">
        <ele>276</ele>
        <time>2024-09-20T09:05:07Z</time>
      </trkpt>
      <trkpt lat="42.45638" lon="2.63583">
        <ele>276</ele>
        <time>2024-09-20T09:05:10Z</time>
      </trkpt>
      <trkpt lat="42.45638" lon="2.63585">
        <ele>275</ele>
        <time>2024-09-20T09:05:18Z</time>
      </trkpt>
      <trkpt lat="42.45635" lon="2.63584">
        <ele>276</ele>
        <time>2024-09-20T09:05:33Z</time>
      </trkpt>
      <trkpt lat="42.45631" lon="2.63583">
        <ele>276</ele>
        <time>2024-09-20T09:05:34Z</time>
      </trkpt>
      <trkpt lat="42.45632" lon="2.63583">
        <ele>276</ele>
        <time>2024-09-20T09:05:36Z</time>
      </trkpt>
      <trkpt lat="42.4563" lon="2.63584">
        <ele>277</ele>
        <time>2024-09-20T09:05:38Z</time>
      </trkpt>
      <trkpt lat="42.4563" lon="2.63585">
        <ele>276</ele>
        <time>2024-09-20T09:05:39Z</time>
      </trkpt>
      <trkpt lat="42.45634" lon="2.63585">
        <ele>276</ele>
        <time>2024-09-20T09:05:40Z</time>
      </trkpt>
      <trkpt lat="42.45635" lon="2.63585">
        <ele>276</ele>
        <time>2024-09-20T09:05:41Z</time>
      </trkpt>
      <trkpt lat="42.45636" lon="2.63585">
        <ele>276</ele>
        <time>2024-09-20T09:05:45Z</time>
      </trkpt>
      <trkpt lat="42.45634" lon="2.63587">
        <ele>276</ele>
        <time>2024-09-20T09:05:47Z</time>
      </trkpt>
      <trkpt lat="42.45634" lon="2.63591">
        <ele>276</ele>
        <time>2024-09-20T09:05:50Z</time>
      </trkpt>
      <trkpt lat="42.45635" lon="2.63595">
        <ele>276</ele>
        <time>2024-09-20T09:05:51Z</time>
      </trkpt>
      <trkpt lat="42.45636" lon="2.63599">
        <ele>276</ele>
        <time>2024-09-20T09:05:55Z</time>
      </trkpt>
      <trkpt lat="42.45636" lon="2.63581">
        <ele>268</ele>
        <time>2024-09-20T09:06:06Z</time>
      </trkpt>
      <trkpt lat="42.45636" lon="2.63571">
        <ele>267</ele>
        <time>2024-09-20T09:06:08Z</time>
      </trkpt>
      <trkpt lat="42.45637" lon="2.63572">
        <ele>276</ele>
        <time>2024-09-20T09:08:40Z</time>
      </trkpt>
      <trkpt lat="42.45635" lon="2.63574">
        <ele>276</ele>
        <time>2024-09-20T09:08:45Z</time>
      </trkpt>
      <trkpt lat="42.45638" lon="2.63575">
        <ele>277</ele>
        <time>2024-09-20T09:10:11Z</time>
      </trkpt>
      <trkpt lat="42.45638" lon="2.63575">
        <ele>276</ele>
        <time>2024-09-20T09:11:42Z</time>
      </trkpt>
      <trkpt lat="42.45638" lon="2.63575">
        <ele>277</ele>
        <time>2024-09-20T09:12:21Z</time>
      </trkpt>
      <trkpt lat="42.45636" lon="2.63575">
        <ele>277</ele>
        <time>2024-09-20T09:12:46Z</time>
      </trkpt>
      <trkpt lat="42.45637" lon="2.63575">
        <ele>277</ele>
        <time>2024-09-20T09:13:36Z</time>
      </trkpt>
      <trkpt lat="42.4563" lon="2.63593">
        <ele>276</ele>
        <time>2024-09-20T09:14:53Z</time>
      </trkpt>
      <trkpt lat="42.45631" lon="2.63591">
        <ele>276</ele>
        <time>2024-09-20T09:14:55Z</time>
      </trkpt>
      <trkpt lat="42.45632" lon="2.63592">
        <ele>276</ele>
        <time>2024-09-20T09:14:57Z</time>
      </trkpt>
      <trkpt lat="42.4563" lon="2.63587">
        <ele>276</ele>
        <time>2024-09-20T09:15:00Z</time>
      </trkpt>
      <trkpt lat="42.45631" lon="2.63587">
        <ele>276</ele>
        <time>2024-09-20T09:15:04Z</time>
      </trkpt>
      <trkpt lat="42.45629" lon="2.63586">
        <ele>276</ele>
        <time>2024-09-20T09:15:07Z</time>
      </trkpt>
      <trkpt lat="42.45629" lon="2.63584">
        <ele>276</ele>
        <time>2024-09-20T09:15:11Z</time>
      </trkpt>
      <trkpt lat="42.4563" lon="2.63585">
        <ele>276</ele>
        <time>2024-09-20T09:15:28Z</time>
      </trkpt>
      <trkpt lat="42.45627" lon="2.63582">
        <ele>277</ele>
        <time>2024-09-20T09:15:30Z</time>
      </trkpt>
      <trkpt lat="42.45629" lon="2.63584">
        <ele>277</ele>
        <time>2024-09-20T09:15:31Z</time>
      </trkpt>
      <trkpt lat="42.45629" lon="2.63587">
        <ele>277</ele>
        <time>2024-09-20T09:15:49Z</time>
      </trkpt>
      <trkpt lat="42.45627" lon="2.63589">
        <ele>277</ele>
        <time>2024-09-20T09:15:51Z</time>
      </trkpt>
      <trkpt lat="42.45631" lon="2.63584">
        <ele>277</ele>
        <time>2024-09-20T09:15:53Z</time>
      </trkpt>
      <trkpt lat="42.4563" lon="2.63583">
        <ele>277</ele>
        <time>2024-09-20T09:15:54Z</time>
      </trkpt>
      <trkpt lat="42.4563" lon="2.6358">
        <ele>277</ele>
        <time>2024-09-20T09:15:56Z</time>
      </trkpt>
      <trkpt lat="42.45627" lon="2.6358">
        <ele>277</ele>
        <time>2024-09-20T09:15:58Z</time>
      </trkpt>
      <trkpt lat="42.45624" lon="2.63578">
        <ele>277</ele>
        <time>2024-09-20T09:15:59Z</time>
      </trkpt>
      <trkpt lat="42.45624" lon="2.63576">
        <ele>277</ele>
        <time>2024-09-20T09:16:00Z</time>
      </trkpt>
      <trkpt lat="42.45625" lon="2.63578">
        <ele>277</ele>
        <time>2024-09-20T09:16:02Z</time>
      </trkpt>
      <trkpt lat="42.45623" lon="2.63579">
        <ele>277</ele>
        <time>2024-09-20T09:16:04Z</time>
      </trkpt>
      <trkpt lat="42.45625" lon="2.63577">
        <ele>278</ele>
        <time>2024-09-20T09:16:10Z</time>
      </trkpt>
      <trkpt lat="42.45628" lon="2.63574">
        <ele>277</ele>
        <time>2024-09-20T09:16:11Z</time>
      </trkpt>
      <trkpt lat="42.4563" lon="2.63576">
        <ele>278</ele>
        <time>2024-09-20T09:16:13Z</time>
      </trkpt>
      <trkpt lat="42.4563" lon="2.63578">
        <ele>278</ele>
        <time>2024-09-20T09:16:15Z</time>
      </trkpt>
      <trkpt lat="42.45632" lon="2.63582">
        <ele>278</ele>
        <time>2024-09-20T09:16:16Z</time>
      </trkpt>
      <trkpt lat="42.45634" lon="2.63584">
        <ele>278</ele>
        <time>2024-09-20T09:16:19Z</time>
      </trkpt>
      <trkpt lat="42.45633" lon="2.63586">
        <ele>277</ele>
        <time>2024-09-20T09:16:22Z</time>
      </trkpt>
      <trkpt lat="42.45633" lon="2.63585">
        <ele>277</ele>
        <time>2024-09-20T09:16:23Z</time>
      </trkpt>
      <trkpt lat="42.45631" lon="2.63584">
        <ele>277</ele>
        <time>2024-09-20T09:16:26Z</time>
      </trkpt>
      <trkpt lat="42.45629" lon="2.63584">
        <ele>277</ele>
        <time>2024-09-20T09:16:46Z</time>
      </trkpt>
      <trkpt lat="42.45629" lon="2.63587">
        <ele>277</ele>
        <time>2024-09-20T09:16:52Z</time>
      </trkpt>
      <trkpt lat="42.45629" lon="2.63582">
        <ele>278</ele>
        <time>2024-09-20T09:16:55Z</time>
      </trkpt>
      <trkpt lat="42.45631" lon="2.6358">
        <ele>277</ele>
        <time>2024-09-20T09:16:57Z</time>
      </trkpt>
      <trkpt lat="42.45633" lon="2.63577">
        <ele>278</ele>
        <time>2024-09-20T09:17:03Z</time>
      </trkpt>
      <trkpt lat="42.45634" lon="2.63573">
        <ele>279</ele>
        <time>2024-09-20T09:17:06Z</time>
      </trkpt>
      <trkpt lat="42.45636" lon="2.63571">
        <ele>279</ele>
        <time>2024-09-20T09:17:09Z</time>
      </trkpt>
      <trkpt lat="42.45638" lon="2.63571">
        <ele>279</ele>
        <time>2024-09-20T09:17:11Z</time>
      </trkpt>
      <trkpt lat="42.45642" lon="2.63572">
        <ele>278</ele>
        <time>2024-09-20T09:17:15Z</time>
      </trkpt>
      <trkpt lat="42.45644" lon="2.63574">
        <ele>279</ele>
        <time>2024-09-20T09:17:17Z</time>
      </trkpt>
      <trkpt lat="42.45647" lon="2.63576">
        <ele>279</ele>
        <time>2024-09-20T09:17:20Z</time>
      </trkpt>
      <trkpt lat="42.45651" lon="2.63577">
        <ele>278</ele>
        <time>2024-09-20T09:17:23Z</time>
      </trkpt>
      <trkpt lat="42.45654" lon="2.63577">
        <ele>279</ele>
        <time>2024-09-20T09:17:24Z</time>
      </trkpt>
      <trkpt lat="42.45656" lon="2.63577">
        <ele>279</ele>
        <time>2024-09-20T09:17:27Z</time>
      </trkpt>
      <trkpt lat="42.45659" lon="2.63576">
        <ele>278</ele>
        <time>2024-09-20T09:17:30Z</time>
      </trkpt>
      <trkpt lat="42.45662" lon="2.63574">
        <ele>278</ele>
        <time>2024-09-20T09:17:32Z</time>
      </trkpt>
      <trkpt lat="42.45665" lon="2.63573">
        <ele>278</ele>
        <time>2024-09-20T09:17:35Z</time>
      </trkpt>
      <trkpt lat="42.45669" lon="2.63572">
        <ele>278</ele>
        <time>2024-09-20T09:17:37Z</time>
      </trkpt>
      <trkpt lat="42.45672" lon="2.63571">
        <ele>279</ele>
        <time>2024-09-20T09:17:40Z</time>
      </trkpt>
      <trkpt lat="42.45674" lon="2.63568">
        <ele>280</ele>
        <time>2024-09-20T09:17:42Z</time>
      </trkpt>
      <trkpt lat="42.45677" lon="2.63565">
        <ele>281</ele>
        <time>2024-09-20T09:17:44Z</time>
      </trkpt>
      <trkpt lat="42.4568" lon="2.63564">
        <ele>281</ele>
        <time>2024-09-20T09:17:47Z</time>
      </trkpt>
      <trkpt lat="42.45682" lon="2.63562">
        <ele>282</ele>
        <time>2024-09-20T09:17:49Z</time>
      </trkpt>
      <trkpt lat="42.45685" lon="2.63561">
        <ele>281</ele>
        <time>2024-09-20T09:17:52Z</time>
      </trkpt>
      <trkpt lat="42.45688" lon="2.6356">
        <ele>283</ele>
        <time>2024-09-20T09:17:54Z</time>
      </trkpt>
      <trkpt lat="42.45691" lon="2.63559">
        <ele>283</ele>
        <time>2024-09-20T09:17:56Z</time>
      </trkpt>
      <trkpt lat="42.45695" lon="2.63558">
        <ele>284</ele>
        <time>2024-09-20T09:18:00Z</time>
      </trkpt>
      <trkpt lat="42.45699" lon="2.63556">
        <ele>285</ele>
        <time>2024-09-20T09:18:02Z</time>
      </trkpt>
      <trkpt lat="42.45702" lon="2.63554">
        <ele>286</ele>
        <time>2024-09-20T09:18:04Z</time>
      </trkpt>
      <trkpt lat="42.45704" lon="2.63552">
        <ele>286</ele>
        <time>2024-09-20T09:18:07Z</time>
      </trkpt>
      <trkpt lat="42.45707" lon="2.63549">
        <ele>284</ele>
        <time>2024-09-20T09:18:10Z</time>
      </trkpt>
      <trkpt lat="42.45709" lon="2.63548">
        <ele>283</ele>
        <time>2024-09-20T09:18:13Z</time>
      </trkpt>
      <trkpt lat="42.45712" lon="2.63546">
        <ele>282</ele>
        <time>2024-09-20T09:18:16Z</time>
      </trkpt>
      <trkpt lat="42.45715" lon="2.63544">
        <ele>282</ele>
        <time>2024-09-20T09:18:19Z</time>
      </trkpt>
      <trkpt lat="42.45718" lon="2.63543">
        <ele>282</ele>
        <time>2024-09-20T09:18:21Z</time>
      </trkpt>
      <trkpt lat="42.45721" lon="2.6354">
        <ele>282</ele>
        <time>2024-09-20T09:18:24Z</time>
      </trkpt>
      <trkpt lat="42.45723" lon="2.63538">
        <ele>282</ele>
        <time>2024-09-20T09:18:26Z</time>
      </trkpt>
      <trkpt lat="42.45726" lon="2.63536">
        <ele>282</ele>
        <time>2024-09-20T09:18:29Z</time>
      </trkpt>
      <trkpt lat="42.45729" lon="2.63532">
        <ele>283</ele>
        <time>2024-09-20T09:18:32Z</time>
      </trkpt>
      <trkpt lat="42.45732" lon="2.6353">
        <ele>282</ele>
        <time>2024-09-20T09:18:36Z</time>
      </trkpt>
      <trkpt lat="42.45735" lon="2.63527">
        <ele>281</ele>
        <time>2024-09-20T09:18:39Z</time>
      </trkpt>
      <trkpt lat="42.45737" lon="2.63524">
        <ele>282</ele>
        <time>2024-09-20T09:18:42Z</time>
      </trkpt>
      <trkpt lat="42.45739" lon="2.6352">
        <ele>282</ele>
        <time>2024-09-20T09:18:45Z</time>
      </trkpt>
      <trkpt lat="42.4574" lon="2.63517">
        <ele>283</ele>
        <time>2024-09-20T09:18:48Z</time>
      </trkpt>
      <trkpt lat="42.45742" lon="2.63513">
        <ele>283</ele>
        <time>2024-09-20T09:18:52Z</time>
      </trkpt>
      <trkpt lat="42.45744" lon="2.6351">
        <ele>282</ele>
        <time>2024-09-20T09:18:54Z</time>
      </trkpt>
      <trkpt lat="42.45745" lon="2.63507">
        <ele>284</ele>
        <time>2024-09-20T09:18:58Z</time>
      </trkpt>
      <trkpt lat="42.45748" lon="2.63503">
        <ele>284</ele>
        <time>2024-09-20T09:19:01Z</time>
      </trkpt>
      <trkpt lat="42.4575" lon="2.63501">
        <ele>284</ele>
        <time>2024-09-20T09:19:04Z</time>
      </trkpt>
      <trkpt lat="42.45752" lon="2.63498">
        <ele>284</ele>
        <time>2024-09-20T09:19:08Z</time>
      </trkpt>
      <trkpt lat="42.45754" lon="2.63495">
        <ele>285</ele>
        <time>2024-09-20T09:19:10Z</time>
      </trkpt>
      <trkpt lat="42.45756" lon="2.63492">
        <ele>285</ele>
        <time>2024-09-20T09:19:13Z</time>
      </trkpt>
      <trkpt lat="42.45759" lon="2.63491">
        <ele>285</ele>
        <time>2024-09-20T09:19:19Z</time>
      </trkpt>
      <trkpt lat="42.45762" lon="2.6349">
        <ele>285</ele>
        <time>2024-09-20T09:19:23Z</time>
      </trkpt>
      <trkpt lat="42.45765" lon="2.63491">
        <ele>285</ele>
        <time>2024-09-20T09:19:24Z</time>
      </trkpt>
      <trkpt lat="42.45768" lon="2.63491">
        <ele>285</ele>
        <time>2024-09-20T09:19:27Z</time>
      </trkpt>
      <trkpt lat="42.45771" lon="2.6349">
        <ele>285</ele>
        <time>2024-09-20T09:19:30Z</time>
      </trkpt>
      <trkpt lat="42.45774" lon="2.6349">
        <ele>285</ele>
        <time>2024-09-20T09:19:32Z</time>
      </trkpt>
      <trkpt lat="42.45777" lon="2.63489">
        <ele>286</ele>
        <time>2024-09-20T09:19:35Z</time>
      </trkpt>
      <trkpt lat="42.45777" lon="2.63487">
        <ele>288</ele>
        <time>2024-09-20T09:19:47Z</time>
      </trkpt>
      <trkpt lat="42.45775" lon="2.63485">
        <ele>286</ele>
        <time>2024-09-20T09:20:35Z</time>
      </trkpt>
      <trkpt lat="42.45772" lon="2.63484">
        <ele>287</ele>
        <time>2024-09-20T09:20:41Z</time>
      </trkpt>
      <trkpt lat="42.45769" lon="2.63483">
        <ele>289</ele>
        <time>2024-09-20T09:21:00Z</time>
      </trkpt>
      <trkpt lat="42.45769" lon="2.63479">
        <ele>289</ele>
        <time>2024-09-20T09:21:07Z</time>
      </trkpt>
      <trkpt lat="42.45767" lon="2.63477">
        <ele>291</ele>
        <time>2024-09-20T09:21:11Z</time>
      </trkpt>
      <trkpt lat="42.45768" lon="2.63478">
        <ele>291</ele>
        <time>2024-09-20T09:21:34Z</time>
      </trkpt>
      <trkpt lat="42.45769" lon="2.63481">
        <ele>288</ele>
        <time>2024-09-20T09:22:03Z</time>
      </trkpt>
      <trkpt lat="42.4577" lon="2.63485">
        <ele>288</ele>
        <time>2024-09-20T09:22:08Z</time>
      </trkpt>
      <trkpt lat="42.45771" lon="2.63488">
        <ele>287</ele>
        <time>2024-09-20T09:22:11Z</time>
      </trkpt>
      <trkpt lat="42.45771" lon="2.63487">
        <ele>288</ele>
        <time>2024-09-20T09:22:24Z</time>
      </trkpt>
      <trkpt lat="42.45772" lon="2.63488">
        <ele>288</ele>
        <time>2024-09-20T09:22:34Z</time>
      </trkpt>
      <trkpt lat="42.45775" lon="2.63489">
        <ele>287</ele>
        <time>2024-09-20T09:22:52Z</time>
      </trkpt>
      <trkpt lat="42.45777" lon="2.63491">
        <ele>287</ele>
        <time>2024-09-20T09:22:56Z</time>
      </trkpt>
      <trkpt lat="42.4578" lon="2.63492">
        <ele>287</ele>
        <time>2024-09-20T09:22:58Z</time>
      </trkpt>
      <trkpt lat="42.45784" lon="2.63492">
        <ele>287</ele>
        <time>2024-09-20T09:23:01Z</time>
      </trkpt>
      <trkpt lat="42.45787" lon="2.63494">
        <ele>286</ele>
        <time>2024-09-20T09:23:03Z</time>
      </trkpt>
      <trkpt lat="42.4579" lon="2.63495">
        <ele>286</ele>
        <time>2024-09-20T09:23:06Z</time>
      </trkpt>
      <trkpt lat="42.45793" lon="2.63495">
        <ele>288</ele>
        <time>2024-09-20T09:23:10Z</time>
      </trkpt>
      <trkpt lat="42.45797" lon="2.63494">
        <ele>286</ele>
        <time>2024-09-20T09:23:13Z</time>
      </trkpt>
      <trkpt lat="42.45801" lon="2.63495">
        <ele>287</ele>
        <time>2024-09-20T09:23:16Z</time>
      </trkpt>
      <trkpt lat="42.45803" lon="2.63498">
        <ele>286</ele>
        <time>2024-09-20T09:23:20Z</time>
      </trkpt>
      <trkpt lat="42.45806" lon="2.63502">
        <ele>287</ele>
        <time>2024-09-20T09:23:23Z</time>
      </trkpt>
      <trkpt lat="42.45809" lon="2.63506">
        <ele>286</ele>
        <time>2024-09-20T09:23:24Z</time>
      </trkpt>
      <trkpt lat="42.45811" lon="2.6351">
        <ele>284</ele>
        <time>2024-09-20T09:23:26Z</time>
      </trkpt>
      <trkpt lat="42.45814" lon="2.63513">
        <ele>285</ele>
        <time>2024-09-20T09:23:28Z</time>
      </trkpt>
      <trkpt lat="42.45817" lon="2.63515">
        <ele>283</ele>
        <time>2024-09-20T09:23:31Z</time>
      </trkpt>
      <trkpt lat="42.4582" lon="2.63518">
        <ele>283</ele>
        <time>2024-09-20T09:23:33Z</time>
      </trkpt>
      <trkpt lat="42.45822" lon="2.63521">
        <ele>283</ele>
        <time>2024-09-20T09:23:36Z</time>
      </trkpt>
      <trkpt lat="42.45825" lon="2.63522">
        <ele>282</ele>
        <time>2024-09-20T09:23:39Z</time>
      </trkpt>
      <trkpt lat="42.45828" lon="2.63523">
        <ele>284</ele>
        <time>2024-09-20T09:23:41Z</time>
      </trkpt>
      <trkpt lat="42.45831" lon="2.63524">
        <ele>282</ele>
        <time>2024-09-20T09:23:43Z</time>
      </trkpt>
      <trkpt lat="42.45834" lon="2.63526">
        <ele>282</ele>
        <time>2024-09-20T09:23:45Z</time>
      </trkpt>
      <trkpt lat="42.45837" lon="2.63527">
        <ele>282</ele>
        <time>2024-09-20T09:23:49Z</time>
      </trkpt>
      <trkpt lat="42.45839" lon="2.6353">
        <ele>284</ele>
        <time>2024-09-20T09:23:50Z</time>
      </trkpt>
      <trkpt lat="42.45842" lon="2.63533">
        <ele>284</ele>
        <time>2024-09-20T09:23:52Z</time>
      </trkpt>
      <trkpt lat="42.45847" lon="2.63534">
        <ele>283</ele>
        <time>2024-09-20T09:23:55Z</time>
      </trkpt>
      <trkpt lat="42.45849" lon="2.63538">
        <ele>283</ele>
        <time>2024-09-20T09:23:57Z</time>
      </trkpt>
      <trkpt lat="42.45852" lon="2.6354">
        <ele>283</ele>
        <time>2024-09-20T09:23:59Z</time>
      </trkpt>
      <trkpt lat="42.45854" lon="2.63543">
        <ele>280</ele>
        <time>2024-09-20T09:24:03Z</time>
      </trkpt>
      <trkpt lat="42.45856" lon="2.63546">
        <ele>279</ele>
        <time>2024-09-20T09:24:06Z</time>
      </trkpt>
      <trkpt lat="42.45859" lon="2.63548">
        <ele>281</ele>
        <time>2024-09-20T09:24:08Z</time>
      </trkpt>
      <trkpt lat="42.45861" lon="2.63551">
        <ele>284</ele>
        <time>2024-09-20T09:24:11Z</time>
      </trkpt>
      <trkpt lat="42.45862" lon="2.63555">
        <ele>282</ele>
        <time>2024-09-20T09:24:16Z</time>
      </trkpt>
      <trkpt lat="42.45861" lon="2.63558">
        <ele>281</ele>
        <time>2024-09-20T09:24:18Z</time>
      </trkpt>
      <trkpt lat="42.45858" lon="2.63563">
        <ele>282</ele>
        <time>2024-09-20T09:24:19Z</time>
      </trkpt>
      <trkpt lat="42.45856" lon="2.63567">
        <ele>282</ele>
        <time>2024-09-20T09:24:22Z</time>
      </trkpt>
      <trkpt lat="42.45855" lon="2.63571">
        <ele>282</ele>
        <time>2024-09-20T09:24:24Z</time>
      </trkpt>
      <trkpt lat="42.45853" lon="2.63576">
        <ele>282</ele>
        <time>2024-09-20T09:24:27Z</time>
      </trkpt>
      <trkpt lat="42.45852" lon="2.6358">
        <ele>281</ele>
        <time>2024-09-20T09:24:30Z</time>
      </trkpt>
      <trkpt lat="42.45851" lon="2.63585">
        <ele>281</ele>
        <time>2024-09-20T09:24:33Z</time>
      </trkpt>
      <trkpt lat="42.45849" lon="2.63589">
        <ele>278</ele>
        <time>2024-09-20T09:24:37Z</time>
      </trkpt>
      <trkpt lat="42.45847" lon="2.63591">
        <ele>278</ele>
        <time>2024-09-20T09:24:39Z</time>
      </trkpt>
      <trkpt lat="42.45844" lon="2.63592">
        <ele>277</ele>
        <time>2024-09-20T09:24:41Z</time>
      </trkpt>
      <trkpt lat="42.45841" lon="2.63593">
        <ele>278</ele>
        <time>2024-09-20T09:24:43Z</time>
      </trkpt>
      <trkpt lat="42.45838" lon="2.63595">
        <ele>277</ele>
        <time>2024-09-20T09:24:45Z</time>
      </trkpt>
      <trkpt lat="42.45835" lon="2.63597">
        <ele>275</ele>
        <time>2024-09-20T09:24:48Z</time>
      </trkpt>
      <trkpt lat="42.45833" lon="2.636">
        <ele>274</ele>
        <time>2024-09-20T09:24:51Z</time>
      </trkpt>
      <trkpt lat="42.45831" lon="2.63603">
        <ele>274</ele>
        <time>2024-09-20T09:24:54Z</time>
      </trkpt>
      <trkpt lat="42.45829" lon="2.63607">
        <ele>273</ele>
        <time>2024-09-20T09:24:57Z</time>
      </trkpt>
      <trkpt lat="42.45827" lon="2.63611">
        <ele>273</ele>
        <time>2024-09-20T09:24:59Z</time>
      </trkpt>
      <trkpt lat="42.45826" lon="2.63615">
        <ele>274</ele>
        <time>2024-09-20T09:25:01Z</time>
      </trkpt>
      <trkpt lat="42.45825" lon="2.63619">
        <ele>275</ele>
        <time>2024-09-20T09:25:03Z</time>
      </trkpt>
      <trkpt lat="42.45824" lon="2.63622">
        <ele>274</ele>
        <time>2024-09-20T09:25:05Z</time>
      </trkpt>
      <trkpt lat="42.45823" lon="2.63627">
        <ele>274</ele>
        <time>2024-09-20T09:25:08Z</time>
      </trkpt>
      <trkpt lat="42.4582" lon="2.6363">
        <ele>274</ele>
        <time>2024-09-20T09:25:10Z</time>
      </trkpt>
      <trkpt lat="42.45819" lon="2.63634">
        <ele>276</ele>
        <time>2024-09-20T09:25:13Z</time>
      </trkpt>
      <trkpt lat="42.45818" lon="2.63638">
        <ele>275</ele>
        <time>2024-09-20T09:25:18Z</time>
      </trkpt>
      <trkpt lat="42.45818" lon="2.63642">
        <ele>277</ele>
        <time>2024-09-20T09:25:22Z</time>
      </trkpt>
      <trkpt lat="42.45817" lon="2.63647">
        <ele>275</ele>
        <time>2024-09-20T09:25:25Z</time>
      </trkpt>
      <trkpt lat="42.45816" lon="2.63651">
        <ele>275</ele>
        <time>2024-09-20T09:25:32Z</time>
      </trkpt>
      <trkpt lat="42.45815" lon="2.63654">
        <ele>274</ele>
        <time>2024-09-20T09:25:34Z</time>
      </trkpt>
      <trkpt lat="42.45813" lon="2.63657">
        <ele>278</ele>
        <time>2024-09-20T09:25:37Z</time>
      </trkpt>
      <trkpt lat="42.4581" lon="2.6366">
        <ele>277</ele>
        <time>2024-09-20T09:25:41Z</time>
      </trkpt>
      <trkpt lat="42.45811" lon="2.63665">
        <ele>275</ele>
        <time>2024-09-20T09:25:43Z</time>
      </trkpt>
      <trkpt lat="42.45812" lon="2.6367">
        <ele>273</ele>
        <time>2024-09-20T09:25:45Z</time>
      </trkpt>
      <trkpt lat="42.45811" lon="2.63674">
        <ele>271</ele>
        <time>2024-09-20T09:25:48Z</time>
      </trkpt>
      <trkpt lat="42.45811" lon="2.63679">
        <ele>271</ele>
        <time>2024-09-20T09:25:50Z</time>
      </trkpt>
      <trkpt lat="42.45809" lon="2.63684">
        <ele>269</ele>
        <time>2024-09-20T09:25:54Z</time>
      </trkpt>
      <trkpt lat="42.45808" lon="2.63689">
        <ele>269</ele>
        <time>2024-09-20T09:25:56Z</time>
      </trkpt>
      <trkpt lat="42.45807" lon="2.63695">
        <ele>268</ele>
        <time>2024-09-20T09:26:00Z</time>
      </trkpt>
      <trkpt lat="42.45807" lon="2.63701">
        <ele>270</ele>
        <time>2024-09-20T09:26:03Z</time>
      </trkpt>
      <trkpt lat="42.45807" lon="2.63706">
        <ele>269</ele>
        <time>2024-09-20T09:26:05Z</time>
      </trkpt>
      <trkpt lat="42.45806" lon="2.63711">
        <ele>269</ele>
        <time>2024-09-20T09:26:07Z</time>
      </trkpt>
      <trkpt lat="42.45806" lon="2.63716">
        <ele>270</ele>
        <time>2024-09-20T09:26:10Z</time>
      </trkpt>
      <trkpt lat="42.45806" lon="2.6372">
        <ele>271</ele>
        <time>2024-09-20T09:26:12Z</time>
      </trkpt>
      <trkpt lat="42.45805" lon="2.63724">
        <ele>270</ele>
        <time>2024-09-20T09:26:14Z</time>
      </trkpt>
      <trkpt lat="42.45805" lon="2.63728">
        <ele>270</ele>
        <time>2024-09-20T09:26:17Z</time>
      </trkpt>
      <trkpt lat="42.45805" lon="2.63733">
        <ele>270</ele>
        <time>2024-09-20T09:26:20Z</time>
      </trkpt>
      <trkpt lat="42.45807" lon="2.63736">
        <ele>270</ele>
        <time>2024-09-20T09:26:23Z</time>
      </trkpt>
      <trkpt lat="42.45811" lon="2.63739">
        <ele>270</ele>
        <time>2024-09-20T09:26:24Z</time>
      </trkpt>
      <trkpt lat="42.45815" lon="2.63742">
        <ele>270</ele>
        <time>2024-09-20T09:26:27Z</time>
      </trkpt>
      <trkpt lat="42.45817" lon="2.63745">
        <ele>271</ele>
        <time>2024-09-20T09:26:29Z</time>
      </trkpt>
      <trkpt lat="42.45819" lon="2.63748">
        <ele>269</ele>
        <time>2024-09-20T09:26:32Z</time>
      </trkpt>
      <trkpt lat="42.45821" lon="2.63752">
        <ele>270</ele>
        <time>2024-09-20T09:26:35Z</time>
      </trkpt>
      <trkpt lat="42.45822" lon="2.63756">
        <ele>269</ele>
        <time>2024-09-20T09:26:36Z</time>
      </trkpt>
      <trkpt lat="42.45823" lon="2.63759">
        <ele>269</ele>
        <time>2024-09-20T09:26:38Z</time>
      </trkpt>
      <trkpt lat="42.45824" lon="2.63764">
        <ele>271</ele>
        <time>2024-09-20T09:26:42Z</time>
      </trkpt>
      <trkpt lat="42.45825" lon="2.63768">
        <ele>269</ele>
        <time>2024-09-20T09:26:44Z</time>
      </trkpt>
      <trkpt lat="42.45826" lon="2.63773">
        <ele>268</ele>
        <time>2024-09-20T09:26:47Z</time>
      </trkpt>
      <trkpt lat="42.45827" lon="2.63776">
        <ele>269</ele>
        <time>2024-09-20T09:26:52Z</time>
      </trkpt>
      <trkpt lat="42.4583" lon="2.63776">
        <ele>269</ele>
        <time>2024-09-20T09:26:55Z</time>
      </trkpt>
      <trkpt lat="42.45833" lon="2.63775">
        <ele>269</ele>
        <time>2024-09-20T09:26:57Z</time>
      </trkpt>
      <trkpt lat="42.45838" lon="2.63774">
        <ele>268</ele>
        <time>2024-09-20T09:26:59Z</time>
      </trkpt>
      <trkpt lat="42.45842" lon="2.63773">
        <ele>268</ele>
        <time>2024-09-20T09:27:01Z</time>
      </trkpt>
      <trkpt lat="42.45845" lon="2.63772">
        <ele>268</ele>
        <time>2024-09-20T09:27:03Z</time>
      </trkpt>
      <trkpt lat="42.45848" lon="2.63771">
        <ele>267</ele>
        <time>2024-09-20T09:27:05Z</time>
      </trkpt>
      <trkpt lat="42.45851" lon="2.63771">
        <ele>267</ele>
        <time>2024-09-20T09:27:07Z</time>
      </trkpt>
      <trkpt lat="42.45854" lon="2.63771">
        <ele>267</ele>
        <time>2024-09-20T09:27:09Z</time>
      </trkpt>
      <trkpt lat="42.45857" lon="2.6377">
        <ele>265</ele>
        <time>2024-09-20T09:27:11Z</time>
      </trkpt>
      <trkpt lat="42.4586" lon="2.63771">
        <ele>265</ele>
        <time>2024-09-20T09:27:14Z</time>
      </trkpt>
      <trkpt lat="42.45861" lon="2.63775">
        <ele>262</ele>
        <time>2024-09-20T09:27:18Z</time>
      </trkpt>
      <trkpt lat="42.45862" lon="2.63779">
        <ele>263</ele>
        <time>2024-09-20T09:27:20Z</time>
      </trkpt>
      <trkpt lat="42.45863" lon="2.63783">
        <ele>266</ele>
        <time>2024-09-20T09:27:23Z</time>
      </trkpt>
      <trkpt lat="42.45863" lon="2.63788">
        <ele>267</ele>
        <time>2024-09-20T09:27:26Z</time>
      </trkpt>
      <trkpt lat="42.45863" lon="2.63792">
        <ele>267</ele>
        <time>2024-09-20T09:27:29Z</time>
      </trkpt>
      <trkpt lat="42.45864" lon="2.63798">
        <ele>268</ele>
        <time>2024-09-20T09:27:32Z</time>
      </trkpt>
      <trkpt lat="42.45864" lon="2.63802">
        <ele>268</ele>
        <time>2024-09-20T09:27:36Z</time>
      </trkpt>
      <trkpt lat="42.45865" lon="2.63806">
        <ele>268</ele>
        <time>2024-09-20T09:27:39Z</time>
      </trkpt>
      <trkpt lat="42.45865" lon="2.63811">
        <ele>269</ele>
        <time>2024-09-20T09:27:41Z</time>
      </trkpt>
      <trkpt lat="42.45865" lon="2.63815">
        <ele>270</ele>
        <time>2024-09-20T09:27:43Z</time>
      </trkpt>
      <trkpt lat="42.45865" lon="2.63819">
        <ele>270</ele>
        <time>2024-09-20T09:27:47Z</time>
      </trkpt>
      <trkpt lat="42.45865" lon="2.63823">
        <ele>269</ele>
        <time>2024-09-20T09:27:49Z</time>
      </trkpt>
      <trkpt lat="42.45866" lon="2.63827">
        <ele>268</ele>
        <time>2024-09-20T09:27:53Z</time>
      </trkpt>
      <trkpt lat="42.45866" lon="2.63831">
        <ele>268</ele>
        <time>2024-09-20T09:27:55Z</time>
      </trkpt>
      <trkpt lat="42.45866" lon="2.63835">
        <ele>268</ele>
        <time>2024-09-20T09:27:57Z</time>
      </trkpt>
      <trkpt lat="42.45867" lon="2.63839">
        <ele>269</ele>
        <time>2024-09-20T09:27:58Z</time>
      </trkpt>
      <trkpt lat="42.45867" lon="2.63843">
        <ele>269</ele>
        <time>2024-09-20T09:28:01Z</time>
      </trkpt>
      <trkpt lat="42.45868" lon="2.63848">
        <ele>269</ele>
        <time>2024-09-20T09:28:04Z</time>
      </trkpt>
      <trkpt lat="42.45869" lon="2.63852">
        <ele>270</ele>
        <time>2024-09-20T09:28:06Z</time>
      </trkpt>
      <trkpt lat="42.45869" lon="2.63857">
        <ele>268</ele>
        <time>2024-09-20T09:28:09Z</time>
      </trkpt>
      <trkpt lat="42.4587" lon="2.63862">
        <ele>270</ele>
        <time>2024-09-20T09:28:12Z</time>
      </trkpt>
      <trkpt lat="42.4587" lon="2.63866">
        <ele>270</ele>
        <time>2024-09-20T09:28:14Z</time>
      </trkpt>
      <trkpt lat="42.45871" lon="2.6387">
        <ele>269</ele>
        <time>2024-09-20T09:28:17Z</time>
      </trkpt>
      <trkpt lat="42.45872" lon="2.63874">
        <ele>269</ele>
        <time>2024-09-20T09:28:19Z</time>
      </trkpt>
      <trkpt lat="42.45872" lon="2.63878">
        <ele>270</ele>
        <time>2024-09-20T09:28:21Z</time>
      </trkpt>
      <trkpt lat="42.45873" lon="2.63882">
        <ele>267</ele>
        <time>2024-09-20T09:28:24Z</time>
      </trkpt>
      <trkpt lat="42.45874" lon="2.63886">
        <ele>268</ele>
        <time>2024-09-20T09:28:26Z</time>
      </trkpt>
      <trkpt lat="42.45874" lon="2.6389">
        <ele>268</ele>
        <time>2024-09-20T09:28:28Z</time>
      </trkpt>
      <trkpt lat="42.45875" lon="2.63895">
        <ele>269</ele>
        <time>2024-09-20T09:28:31Z</time>
      </trkpt>
      <trkpt lat="42.45875" lon="2.63899">
        <ele>269</ele>
        <time>2024-09-20T09:28:33Z</time>
      </trkpt>
      <trkpt lat="42.45876" lon="2.63903">
        <ele>268</ele>
        <time>2024-09-20T09:28:36Z</time>
      </trkpt>
      <trkpt lat="42.45876" lon="2.63908">
        <ele>268</ele>
        <time>2024-09-20T09:28:39Z</time>
      </trkpt>
      <trkpt lat="42.45877" lon="2.63914">
        <ele>268</ele>
        <time>2024-09-20T09:28:43Z</time>
      </trkpt>
      <trkpt lat="42.45877" lon="2.63919">
        <ele>267</ele>
        <time>2024-09-20T09:28:46Z</time>
      </trkpt>
      <trkpt lat="42.45877" lon="2.63923">
        <ele>266</ele>
        <time>2024-09-20T09:28:48Z</time>
      </trkpt>
      <trkpt lat="42.45877" lon="2.63927">
        <ele>267</ele>
        <time>2024-09-20T09:28:50Z</time>
      </trkpt>
      <trkpt lat="42.45877" lon="2.63931">
        <ele>269</ele>
        <time>2024-09-20T09:28:58Z</time>
      </trkpt>
      <trkpt lat="42.45877" lon="2.6393">
        <ele>268</ele>
        <time>2024-09-20T09:29:06Z</time>
      </trkpt>
      <trkpt lat="42.45877" lon="2.63933">
        <ele>268</ele>
        <time>2024-09-20T09:29:09Z</time>
      </trkpt>
      <trkpt lat="42.45876" lon="2.63938">
        <ele>271</ele>
        <time>2024-09-20T09:29:13Z</time>
      </trkpt>
      <trkpt lat="42.45876" lon="2.63943">
        <ele>270</ele>
        <time>2024-09-20T09:29:15Z</time>
      </trkpt>
      <trkpt lat="42.45875" lon="2.63948">
        <ele>273</ele>
        <time>2024-09-20T09:29:19Z</time>
      </trkpt>
      <trkpt lat="42.45874" lon="2.63952">
        <ele>273</ele>
        <time>2024-09-20T09:29:28Z</time>
      </trkpt>
      <trkpt lat="42.45873" lon="2.63956">
        <ele>273</ele>
        <time>2024-09-20T09:29:31Z</time>
      </trkpt>
      <trkpt lat="42.4587" lon="2.6396">
        <ele>273</ele>
        <time>2024-09-20T09:29:35Z</time>
      </trkpt>
      <trkpt lat="42.45869" lon="2.63964">
        <ele>275</ele>
        <time>2024-09-20T09:29:37Z</time>
      </trkpt>
      <trkpt lat="42.45869" lon="2.63968">
        <ele>275</ele>
        <time>2024-09-20T09:29:41Z</time>
      </trkpt>
      <trkpt lat="42.45868" lon="2.63972">
        <ele>276</ele>
        <time>2024-09-20T09:29:45Z</time>
      </trkpt>
      <trkpt lat="42.45867" lon="2.6397">
        <ele>276</ele>
        <time>2024-09-20T09:29:50Z</time>
      </trkpt>
      <trkpt lat="42.45866" lon="2.63971">
        <ele>275</ele>
        <time>2024-09-20T09:29:53Z</time>
      </trkpt>
      <trkpt lat="42.45864" lon="2.63974">
        <ele>274</ele>
        <time>2024-09-20T09:29:57Z</time>
      </trkpt>
      <trkpt lat="42.45862" lon="2.63978">
        <ele>274</ele>
        <time>2024-09-20T09:30:01Z</time>
      </trkpt>
      <trkpt lat="42.45859" lon="2.63981">
        <ele>276</ele>
        <time>2024-09-20T09:30:03Z</time>
      </trkpt>
      <trkpt lat="42.45857" lon="2.63982">
        <ele>277</ele>
        <time>2024-09-20T09:30:05Z</time>
      </trkpt>
      <trkpt lat="42.45854" lon="2.63982">
        <ele>277</ele>
        <time>2024-09-20T09:30:09Z</time>
      </trkpt>
      <trkpt lat="42.45851" lon="2.63982">
        <ele>277</ele>
        <time>2024-09-20T09:30:11Z</time>
      </trkpt>
      <trkpt lat="42.45848" lon="2.63981">
        <ele>279</ele>
        <time>2024-09-20T09:30:16Z</time>
      </trkpt>
      <trkpt lat="42.45845" lon="2.63981">
        <ele>281</ele>
        <time>2024-09-20T09:30:19Z</time>
      </trkpt>
      <trkpt lat="42.45843" lon="2.63983">
        <ele>279</ele>
        <time>2024-09-20T09:30:23Z</time>
      </trkpt>
      <trkpt lat="42.45842" lon="2.63986">
        <ele>279</ele>
        <time>2024-09-20T09:30:25Z</time>
      </trkpt>
      <trkpt lat="42.45839" lon="2.63985">
        <ele>282</ele>
        <time>2024-09-20T09:30:29Z</time>
      </trkpt>
      <trkpt lat="42.45837" lon="2.63983">
        <ele>281</ele>
        <time>2024-09-20T09:30:32Z</time>
      </trkpt>
      <trkpt lat="42.45836" lon="2.63985">
        <ele>281</ele>
        <time>2024-09-20T09:30:39Z</time>
      </trkpt>
      <trkpt lat="42.45833" lon="2.63987">
        <ele>284</ele>
        <time>2024-09-20T09:30:41Z</time>
      </trkpt>
      <trkpt lat="42.45831" lon="2.63986">
        <ele>286</ele>
        <time>2024-09-20T09:30:47Z</time>
      </trkpt>
      <trkpt lat="42.45828" lon="2.63987">
        <ele>284</ele>
        <time>2024-09-20T09:30:49Z</time>
      </trkpt>
      <trkpt lat="42.45825" lon="2.63989">
        <ele>284</ele>
        <time>2024-09-20T09:30:54Z</time>
      </trkpt>
      <trkpt lat="42.45822" lon="2.63992">
        <ele>284</ele>
        <time>2024-09-20T09:30:57Z</time>
      </trkpt>
      <trkpt lat="42.45819" lon="2.63994">
        <ele>285</ele>
        <time>2024-09-20T09:31:02Z</time>
      </trkpt>
      <trkpt lat="42.45817" lon="2.63995">
        <ele>287</ele>
        <time>2024-09-20T09:31:12Z</time>
      </trkpt>
      <trkpt lat="42.45814" lon="2.63995">
        <ele>287</ele>
        <time>2024-09-20T09:31:17Z</time>
      </trkpt>
      <trkpt lat="42.45813" lon="2.63993">
        <ele>284</ele>
        <time>2024-09-20T09:31:24Z</time>
      </trkpt>
      <trkpt lat="42.4581" lon="2.63993">
        <ele>284</ele>
        <time>2024-09-20T09:31:28Z</time>
      </trkpt>
      <trkpt lat="42.45809" lon="2.63995">
        <ele>284</ele>
        <time>2024-09-20T09:31:32Z</time>
      </trkpt>
      <trkpt lat="42.45806" lon="2.63998">
        <ele>286</ele>
        <time>2024-09-20T09:31:39Z</time>
      </trkpt>
      <trkpt lat="42.45803" lon="2.64">
        <ele>286</ele>
        <time>2024-09-20T09:31:44Z</time>
      </trkpt>
      <trkpt lat="42.45802" lon="2.64003">
        <ele>285</ele>
        <time>2024-09-20T09:31:47Z</time>
      </trkpt>
      <trkpt lat="42.458" lon="2.64005">
        <ele>285</ele>
        <time>2024-09-20T09:31:52Z</time>
      </trkpt>
      <trkpt lat="42.45798" lon="2.64008">
        <ele>285</ele>
        <time>2024-09-20T09:31:55Z</time>
      </trkpt>
      <trkpt lat="42.45795" lon="2.6401">
        <ele>284</ele>
        <time>2024-09-20T09:31:59Z</time>
      </trkpt>
      <trkpt lat="42.45793" lon="2.64013">
        <ele>285</ele>
        <time>2024-09-20T09:32:02Z</time>
      </trkpt>
      <trkpt lat="42.4579" lon="2.64015">
        <ele>285</ele>
        <time>2024-09-20T09:32:05Z</time>
      </trkpt>
      <trkpt lat="42.45788" lon="2.64017">
        <ele>285</ele>
        <time>2024-09-20T09:32:07Z</time>
      </trkpt>
      <trkpt lat="42.45785" lon="2.6402">
        <ele>286</ele>
        <time>2024-09-20T09:32:10Z</time>
      </trkpt>
      <trkpt lat="42.45782" lon="2.64021">
        <ele>286</ele>
        <time>2024-09-20T09:32:13Z</time>
      </trkpt>
      <trkpt lat="42.45779" lon="2.64022">
        <ele>286</ele>
        <time>2024-09-20T09:32:17Z</time>
      </trkpt>
      <trkpt lat="42.45776" lon="2.64024">
        <ele>287</ele>
        <time>2024-09-20T09:32:21Z</time>
      </trkpt>
      <trkpt lat="42.45772" lon="2.64026">
        <ele>289</ele>
        <time>2024-09-20T09:32:24Z</time>
      </trkpt>
      <trkpt lat="42.45769" lon="2.64029">
        <ele>289</ele>
        <time>2024-09-20T09:32:28Z</time>
      </trkpt>
      <trkpt lat="42.45767" lon="2.64033">
        <ele>289</ele>
        <time>2024-09-20T09:32:33Z</time>
      </trkpt>
      <trkpt lat="42.45764" lon="2.64035">
        <ele>289</ele>
        <time>2024-09-20T09:32:37Z</time>
      </trkpt>
      <trkpt lat="42.45761" lon="2.64035">
        <ele>290</ele>
        <time>2024-09-20T09:32:40Z</time>
      </trkpt>
      <trkpt lat="42.45758" lon="2.64034">
        <ele>291</ele>
        <time>2024-09-20T09:32:43Z</time>
      </trkpt>
      <trkpt lat="42.45754" lon="2.64034">
        <ele>291</ele>
        <time>2024-09-20T09:32:51Z</time>
      </trkpt>
      <trkpt lat="42.45751" lon="2.64035">
        <ele>291</ele>
        <time>2024-09-20T09:32:55Z</time>
      </trkpt>
      <trkpt lat="42.45748" lon="2.64037">
        <ele>291</ele>
        <time>2024-09-20T09:32:57Z</time>
      </trkpt>
      <trkpt lat="42.45746" lon="2.6404">
        <ele>291</ele>
        <time>2024-09-20T09:33:00Z</time>
      </trkpt>
      <trkpt lat="42.45744" lon="2.64042">
        <ele>291</ele>
        <time>2024-09-20T09:33:03Z</time>
      </trkpt>
      <trkpt lat="42.45742" lon="2.64045">
        <ele>291</ele>
        <time>2024-09-20T09:33:37Z</time>
      </trkpt>
      <trkpt lat="42.45741" lon="2.6405">
        <ele>291</ele>
        <time>2024-09-20T09:34:32Z</time>
      </trkpt>
      <trkpt lat="42.4574" lon="2.64054">
        <ele>291</ele>
        <time>2024-09-20T09:34:35Z</time>
      </trkpt>
      <trkpt lat="42.45738" lon="2.64057">
        <ele>291</ele>
        <time>2024-09-20T09:34:39Z</time>
      </trkpt>
      <trkpt lat="42.45735" lon="2.64059">
        <ele>292</ele>
        <time>2024-09-20T09:34:43Z</time>
      </trkpt>
      <trkpt lat="42.45732" lon="2.64061">
        <ele>293</ele>
        <time>2024-09-20T09:34:47Z</time>
      </trkpt>
      <trkpt lat="42.45729" lon="2.64062">
        <ele>293</ele>
        <time>2024-09-20T09:34:51Z</time>
      </trkpt>
      <trkpt lat="42.45726" lon="2.64063">
        <ele>293</ele>
        <time>2024-09-20T09:34:52Z</time>
      </trkpt>
      <trkpt lat="42.45723" lon="2.64065">
        <ele>293</ele>
        <time>2024-09-20T09:34:58Z</time>
      </trkpt>
      <trkpt lat="42.4572" lon="2.64065">
        <ele>294</ele>
        <time>2024-09-20T09:35:03Z</time>
      </trkpt>
      <trkpt lat="42.45717" lon="2.64066">
        <ele>295</ele>
        <time>2024-09-20T09:35:07Z</time>
      </trkpt>
      <trkpt lat="42.45714" lon="2.64067">
        <ele>295</ele>
        <time>2024-09-20T09:35:09Z</time>
      </trkpt>
      <trkpt lat="42.45712" lon="2.64068">
        <ele>296</ele>
        <time>2024-09-20T09:35:12Z</time>
      </trkpt>
      <trkpt lat="42.45709" lon="2.64068">
        <ele>297</ele>
        <time>2024-09-20T09:35:15Z</time>
      </trkpt>
      <trkpt lat="42.45705" lon="2.6407">
        <ele>297</ele>
        <time>2024-09-20T09:35:18Z</time>
      </trkpt>
      <trkpt lat="42.45702" lon="2.64071">
        <ele>296</ele>
        <time>2024-09-20T09:35:21Z</time>
      </trkpt>
      <trkpt lat="42.45699" lon="2.64074">
        <ele>299</ele>
        <time>2024-09-20T09:35:26Z</time>
      </trkpt>
      <trkpt lat="42.45695" lon="2.64074">
        <ele>298</ele>
        <time>2024-09-20T09:35:29Z</time>
      </trkpt>
      <trkpt lat="42.45692" lon="2.64074">
        <ele>300</ele>
        <time>2024-09-20T09:35:32Z</time>
      </trkpt>
      <trkpt lat="42.45689" lon="2.64075">
        <ele>299</ele>
        <time>2024-09-20T09:35:37Z</time>
      </trkpt>
      <trkpt lat="42.45686" lon="2.64076">
        <ele>301</ele>
        <time>2024-09-20T09:35:41Z</time>
      </trkpt>
      <trkpt lat="42.45683" lon="2.64078">
        <ele>301</ele>
        <time>2024-09-20T09:35:44Z</time>
      </trkpt>
      <trkpt lat="42.4568" lon="2.6408">
        <ele>301</ele>
        <time>2024-09-20T09:35:48Z</time>
      </trkpt>
      <trkpt lat="42.45678" lon="2.64081">
        <ele>302</ele>
        <time>2024-09-20T09:35:51Z</time>
      </trkpt>
      <trkpt lat="42.45675" lon="2.64084">
        <ele>302</ele>
        <time>2024-09-20T09:35:55Z</time>
      </trkpt>
      <trkpt lat="42.45672" lon="2.64084">
        <ele>302</ele>
        <time>2024-09-20T09:35:59Z</time>
      </trkpt>
      <trkpt lat="42.45669" lon="2.64086">
        <ele>302</ele>
        <time>2024-09-20T09:36:02Z</time>
      </trkpt>
      <trkpt lat="42.45667" lon="2.64088">
        <ele>303</ele>
        <time>2024-09-20T09:36:05Z</time>
      </trkpt>
      <trkpt lat="42.45664" lon="2.6409">
        <ele>303</ele>
        <time>2024-09-20T09:36:08Z</time>
      </trkpt>
      <trkpt lat="42.45661" lon="2.64091">
        <ele>303</ele>
        <time>2024-09-20T09:36:12Z</time>
      </trkpt>
      <trkpt lat="42.45658" lon="2.64093">
        <ele>303</ele>
        <time>2024-09-20T09:36:17Z</time>
      </trkpt>
      <trkpt lat="42.45655" lon="2.64095">
        <ele>303</ele>
        <time>2024-09-20T09:36:19Z</time>
      </trkpt>
      <trkpt lat="42.45652" lon="2.64097">
        <ele>304</ele>
        <time>2024-09-20T09:36:23Z</time>
      </trkpt>
      <trkpt lat="42.45648" lon="2.64098">
        <ele>304</ele>
        <time>2024-09-20T09:36:26Z</time>
      </trkpt>
      <trkpt lat="42.45646" lon="2.64099">
        <ele>305</ele>
        <time>2024-09-20T09:36:29Z</time>
      </trkpt>
      <trkpt lat="42.45643" lon="2.641">
        <ele>305</ele>
        <time>2024-09-20T09:36:32Z</time>
      </trkpt>
      <trkpt lat="42.4564" lon="2.641">
        <ele>306</ele>
        <time>2024-09-20T09:36:35Z</time>
      </trkpt>
      <trkpt lat="42.45637" lon="2.64102">
        <ele>306</ele>
        <time>2024-09-20T09:36:39Z</time>
      </trkpt>
      <trkpt lat="42.45634" lon="2.64105">
        <ele>307</ele>
        <time>2024-09-20T09:36:43Z</time>
      </trkpt>
      <trkpt lat="42.45631" lon="2.64107">
        <ele>308</ele>
        <time>2024-09-20T09:36:47Z</time>
      </trkpt>
      <trkpt lat="42.45628" lon="2.64108">
        <ele>308</ele>
        <time>2024-09-20T09:36:50Z</time>
      </trkpt>
      <trkpt lat="42.45625" lon="2.6411">
        <ele>309</ele>
        <time>2024-09-20T09:36:54Z</time>
      </trkpt>
      <trkpt lat="42.45622" lon="2.64111">
        <ele>311</ele>
        <time>2024-09-20T09:36:57Z</time>
      </trkpt>
      <trkpt lat="42.45619" lon="2.64113">
        <ele>310</ele>
        <time>2024-09-20T09:37:00Z</time>
      </trkpt>
      <trkpt lat="42.45616" lon="2.64116">
        <ele>311</ele>
        <time>2024-09-20T09:37:04Z</time>
      </trkpt>
      <trkpt lat="42.45613" lon="2.64118">
        <ele>312</ele>
        <time>2024-09-20T09:37:07Z</time>
      </trkpt>
      <trkpt lat="42.45611" lon="2.6412">
        <ele>312</ele>
        <time>2024-09-20T09:37:10Z</time>
      </trkpt>
      <trkpt lat="42.45608" lon="2.64122">
        <ele>312</ele>
        <time>2024-09-20T09:37:14Z</time>
      </trkpt>
      <trkpt lat="42.45606" lon="2.64125">
        <ele>311</ele>
        <time>2024-09-20T09:37:18Z</time>
      </trkpt>
      <trkpt lat="42.45605" lon="2.64129">
        <ele>310</ele>
        <time>2024-09-20T09:37:22Z</time>
      </trkpt>
      <trkpt lat="42.45605" lon="2.64133">
        <ele>311</ele>
        <time>2024-09-20T09:37:24Z</time>
      </trkpt>
      <trkpt lat="42.45606" lon="2.64136">
        <ele>311</ele>
        <time>2024-09-20T09:37:26Z</time>
      </trkpt>
      <trkpt lat="42.45606" lon="2.6414">
        <ele>310</ele>
        <time>2024-09-20T09:37:29Z</time>
      </trkpt>
      <trkpt lat="42.45605" lon="2.64144">
        <ele>311</ele>
        <time>2024-09-20T09:37:32Z</time>
      </trkpt>
      <trkpt lat="42.45602" lon="2.64145">
        <ele>311</ele>
        <time>2024-09-20T09:37:35Z</time>
      </trkpt>
      <trkpt lat="42.45599" lon="2.64147">
        <ele>311</ele>
        <time>2024-09-20T09:37:38Z</time>
      </trkpt>
      <trkpt lat="42.45596" lon="2.64148">
        <ele>314</ele>
        <time>2024-09-20T09:37:44Z</time>
      </trkpt>
      <trkpt lat="42.45593" lon="2.6415">
        <ele>315</ele>
        <time>2024-09-20T09:37:50Z</time>
      </trkpt>
      <trkpt lat="42.45591" lon="2.64153">
        <ele>316</ele>
        <time>2024-09-20T09:37:55Z</time>
      </trkpt>
      <trkpt lat="42.45589" lon="2.64157">
        <ele>315</ele>
        <time>2024-09-20T09:38:01Z</time>
      </trkpt>
      <trkpt lat="42.45588" lon="2.64161">
        <ele>316</ele>
        <time>2024-09-20T09:38:04Z</time>
      </trkpt>
      <trkpt lat="42.45587" lon="2.64166">
        <ele>317</ele>
        <time>2024-09-20T09:38:11Z</time>
      </trkpt>
      <trkpt lat="42.45587" lon="2.64169">
        <ele>318</ele>
        <time>2024-09-20T09:38:19Z</time>
      </trkpt>
      <trkpt lat="42.45586" lon="2.64173">
        <ele>319</ele>
        <time>2024-09-20T09:38:23Z</time>
      </trkpt>
      <trkpt lat="42.45586" lon="2.64179">
        <ele>318</ele>
        <time>2024-09-20T09:38:24Z</time>
      </trkpt>
      <trkpt lat="42.45585" lon="2.64184">
        <ele>320</ele>
        <time>2024-09-20T09:38:33Z</time>
      </trkpt>
      <trkpt lat="42.45583" lon="2.64188">
        <ele>322</ele>
        <time>2024-09-20T09:38:38Z</time>
      </trkpt>
      <trkpt lat="42.45581" lon="2.64191">
        <ele>321</ele>
        <time>2024-09-20T09:38:47Z</time>
      </trkpt>
      <trkpt lat="42.45579" lon="2.64195">
        <ele>321</ele>
        <time>2024-09-20T09:38:52Z</time>
      </trkpt>
      <trkpt lat="42.45578" lon="2.64199">
        <ele>321</ele>
        <time>2024-09-20T09:38:57Z</time>
      </trkpt>
      <trkpt lat="42.45577" lon="2.64204">
        <ele>321</ele>
        <time>2024-09-20T09:39:01Z</time>
      </trkpt>
      <trkpt lat="42.45577" lon="2.64208">
        <ele>320</ele>
        <time>2024-09-20T09:39:04Z</time>
      </trkpt>
      <trkpt lat="42.45577" lon="2.64212">
        <ele>320</ele>
        <time>2024-09-20T09:39:08Z</time>
      </trkpt>
      <trkpt lat="42.45577" lon="2.64217">
        <ele>321</ele>
        <time>2024-09-20T09:39:12Z</time>
      </trkpt>
      <trkpt lat="42.45578" lon="2.64222">
        <ele>322</ele>
        <time>2024-09-20T09:39:16Z</time>
      </trkpt>
      <trkpt lat="42.4558" lon="2.64225">
        <ele>322</ele>
        <time>2024-09-20T09:39:20Z</time>
      </trkpt>
      <trkpt lat="42.45582" lon="2.6423">
        <ele>323</ele>
        <time>2024-09-20T09:39:23Z</time>
      </trkpt>
      <trkpt lat="42.45583" lon="2.64234">
        <ele>322</ele>
        <time>2024-09-20T09:39:25Z</time>
      </trkpt>
      <trkpt lat="42.45584" lon="2.64238">
        <ele>323</ele>
        <time>2024-09-20T09:39:32Z</time>
      </trkpt>
      <trkpt lat="42.45585" lon="2.64242">
        <ele>323</ele>
        <time>2024-09-20T09:39:37Z</time>
      </trkpt>
      <trkpt lat="42.45585" lon="2.64246">
        <ele>325</ele>
        <time>2024-09-20T09:39:50Z</time>
      </trkpt>
      <trkpt lat="42.45583" lon="2.64248">
        <ele>325</ele>
        <time>2024-09-20T09:39:52Z</time>
      </trkpt>
      <trkpt lat="42.45581" lon="2.64251">
        <ele>326</ele>
        <time>2024-09-20T09:39:59Z</time>
      </trkpt>
      <trkpt lat="42.4558" lon="2.64254">
        <ele>326</ele>
        <time>2024-09-20T09:40:03Z</time>
      </trkpt>
      <trkpt lat="42.45579" lon="2.64258">
        <ele>326</ele>
        <time>2024-09-20T09:40:06Z</time>
      </trkpt>
      <trkpt lat="42.45579" lon="2.64262">
        <ele>327</ele>
        <time>2024-09-20T09:40:10Z</time>
      </trkpt>
      <trkpt lat="42.45577" lon="2.64263">
        <ele>327</ele>
        <time>2024-09-20T09:40:13Z</time>
      </trkpt>
      <trkpt lat="42.45575" lon="2.64263">
        <ele>327</ele>
        <time>2024-09-20T09:40:16Z</time>
      </trkpt>
      <trkpt lat="42.45572" lon="2.64264">
        <ele>326</ele>
        <time>2024-09-20T09:40:19Z</time>
      </trkpt>
      <trkpt lat="42.45569" lon="2.64266">
        <ele>327</ele>
        <time>2024-09-20T09:40:22Z</time>
      </trkpt>
      <trkpt lat="42.45567" lon="2.6427">
        <ele>329</ele>
        <time>2024-09-20T09:40:26Z</time>
      </trkpt>
      <trkpt lat="42.45564" lon="2.64272">
        <ele>330</ele>
        <time>2024-09-20T09:40:30Z</time>
      </trkpt>
      <trkpt lat="42.45561" lon="2.64272">
        <ele>330</ele>
        <time>2024-09-20T09:40:33Z</time>
      </trkpt>
      <trkpt lat="42.45558" lon="2.64273">
        <ele>330</ele>
        <time>2024-09-20T09:40:35Z</time>
      </trkpt>
      <trkpt lat="42.45555" lon="2.64273">
        <ele>330</ele>
        <time>2024-09-20T09:40:39Z</time>
      </trkpt>
      <trkpt lat="42.45552" lon="2.64271">
        <ele>330</ele>
        <time>2024-09-20T09:40:41Z</time>
      </trkpt>
      <trkpt lat="42.45549" lon="2.64271">
        <ele>330</ele>
        <time>2024-09-20T09:40:45Z</time>
      </trkpt>
      <trkpt lat="42.45546" lon="2.64271">
        <ele>330</ele>
        <time>2024-09-20T09:40:48Z</time>
      </trkpt>
      <trkpt lat="42.45542" lon="2.64271">
        <ele>330</ele>
        <time>2024-09-20T09:40:51Z</time>
      </trkpt>
      <trkpt lat="42.45539" lon="2.64272">
        <ele>330</ele>
        <time>2024-09-20T09:40:53Z</time>
      </trkpt>
      <trkpt lat="42.45537" lon="2.64274">
        <ele>330</ele>
        <time>2024-09-20T09:40:58Z</time>
      </trkpt>
      <trkpt lat="42.45534" lon="2.64275">
        <ele>331</ele>
        <time>2024-09-20T09:41:04Z</time>
      </trkpt>
      <trkpt lat="42.45532" lon="2.64277">
        <ele>332</ele>
        <time>2024-09-20T09:41:07Z</time>
      </trkpt>
      <trkpt lat="42.45529" lon="2.64282">
        <ele>332</ele>
        <time>2024-09-20T09:41:09Z</time>
      </trkpt>
      <trkpt lat="42.45524" lon="2.64286">
        <ele>334</ele>
        <time>2024-09-20T09:41:13Z</time>
      </trkpt>
      <trkpt lat="42.45521" lon="2.64288">
        <ele>335</ele>
        <time>2024-09-20T09:41:26Z</time>
      </trkpt>
      <trkpt lat="42.45518" lon="2.64291">
        <ele>335</ele>
        <time>2024-09-20T09:41:29Z</time>
      </trkpt>
      <trkpt lat="42.45517" lon="2.64295">
        <ele>334</ele>
        <time>2024-09-20T09:41:32Z</time>
      </trkpt>
      <trkpt lat="42.45517" lon="2.64299">
        <ele>335</ele>
        <time>2024-09-20T09:41:35Z</time>
      </trkpt>
      <trkpt lat="42.45517" lon="2.64303">
        <ele>334</ele>
        <time>2024-09-20T09:41:38Z</time>
      </trkpt>
      <trkpt lat="42.45517" lon="2.64307">
        <ele>335</ele>
        <time>2024-09-20T09:41:42Z</time>
      </trkpt>
      <trkpt lat="42.45516" lon="2.64311">
        <ele>335</ele>
        <time>2024-09-20T09:41:46Z</time>
      </trkpt>
      <trkpt lat="42.45515" lon="2.64314">
        <ele>336</ele>
        <time>2024-09-20T09:41:49Z</time>
      </trkpt>
      <trkpt lat="42.45513" lon="2.64318">
        <ele>337</ele>
        <time>2024-09-20T09:41:54Z</time>
      </trkpt>
      <trkpt lat="42.4551" lon="2.64319">
        <ele>337</ele>
        <time>2024-09-20T09:41:58Z</time>
      </trkpt>
      <trkpt lat="42.45507" lon="2.64318">
        <ele>336</ele>
        <time>2024-09-20T09:42:02Z</time>
      </trkpt>
      <trkpt lat="42.45504" lon="2.64317">
        <ele>336</ele>
        <time>2024-09-20T09:42:07Z</time>
      </trkpt>
      <trkpt lat="42.45502" lon="2.64315">
        <ele>336</ele>
        <time>2024-09-20T09:42:10Z</time>
      </trkpt>
      <trkpt lat="42.45499" lon="2.64313">
        <ele>337</ele>
        <time>2024-09-20T09:42:13Z</time>
      </trkpt>
      <trkpt lat="42.45496" lon="2.64311">
        <ele>338</ele>
        <time>2024-09-20T09:42:16Z</time>
      </trkpt>
      <trkpt lat="42.45493" lon="2.64309">
        <ele>338</ele>
        <time>2024-09-20T09:42:18Z</time>
      </trkpt>
      <trkpt lat="42.45491" lon="2.64306">
        <ele>338</ele>
        <time>2024-09-20T09:42:20Z</time>
      </trkpt>
      <trkpt lat="42.45488" lon="2.64306">
        <ele>338</ele>
        <time>2024-09-20T09:42:23Z</time>
      </trkpt>
      <trkpt lat="42.45487" lon="2.64308">
        <ele>336</ele>
        <time>2024-09-20T09:42:25Z</time>
      </trkpt>
      <trkpt lat="42.45486" lon="2.64312">
        <ele>337</ele>
        <time>2024-09-20T09:42:28Z</time>
      </trkpt>
      <trkpt lat="42.45487" lon="2.64316">
        <ele>338</ele>
        <time>2024-09-20T09:42:32Z</time>
      </trkpt>
      <trkpt lat="42.45489" lon="2.64319">
        <ele>339</ele>
        <time>2024-09-20T09:42:37Z</time>
      </trkpt>
      <trkpt lat="42.45489" lon="2.64323">
        <ele>340</ele>
        <time>2024-09-20T09:42:44Z</time>
      </trkpt>
      <trkpt lat="42.45488" lon="2.64325">
        <ele>340</ele>
        <time>2024-09-20T09:42:48Z</time>
      </trkpt>
      <trkpt lat="42.45486" lon="2.64327">
        <ele>341</ele>
        <time>2024-09-20T09:42:53Z</time>
      </trkpt>
      <trkpt lat="42.45483" lon="2.64329">
        <ele>343</ele>
        <time>2024-09-20T09:42:59Z</time>
      </trkpt>
      <trkpt lat="42.45482" lon="2.64332">
        <ele>344</ele>
        <time>2024-09-20T09:43:03Z</time>
      </trkpt>
      <trkpt lat="42.45481" lon="2.64336">
        <ele>344</ele>
        <time>2024-09-20T09:43:07Z</time>
      </trkpt>
      <trkpt lat="42.45479" lon="2.6434">
        <ele>344</ele>
        <time>2024-09-20T09:43:11Z</time>
      </trkpt>
      <trkpt lat="42.4548" lon="2.64344">
        <ele>344</ele>
        <time>2024-09-20T09:43:15Z</time>
      </trkpt>
      <trkpt lat="42.4548" lon="2.64348">
        <ele>345</ele>
        <time>2024-09-20T09:43:19Z</time>
      </trkpt>
      <trkpt lat="42.45481" lon="2.64352">
        <ele>345</ele>
        <time>2024-09-20T09:43:22Z</time>
      </trkpt>
      <trkpt lat="42.45482" lon="2.64356">
        <ele>346</ele>
        <time>2024-09-20T09:43:26Z</time>
      </trkpt>
      <trkpt lat="42.45481" lon="2.6436">
        <ele>347</ele>
        <time>2024-09-20T09:43:30Z</time>
      </trkpt>
      <trkpt lat="42.45481" lon="2.64364">
        <ele>348</ele>
        <time>2024-09-20T09:43:34Z</time>
      </trkpt>
      <trkpt lat="42.4548" lon="2.64367">
        <ele>348</ele>
        <time>2024-09-20T09:43:39Z</time>
      </trkpt>
      <trkpt lat="42.45479" lon="2.64371">
        <ele>349</ele>
        <time>2024-09-20T09:43:43Z</time>
      </trkpt>
      <trkpt lat="42.45479" lon="2.64375">
        <ele>349</ele>
        <time>2024-09-20T09:43:47Z</time>
      </trkpt>
      <trkpt lat="42.4548" lon="2.64379">
        <ele>349</ele>
        <time>2024-09-20T09:43:51Z</time>
      </trkpt>
      <trkpt lat="42.45479" lon="2.64383">
        <ele>350</ele>
        <time>2024-09-20T09:43:55Z</time>
      </trkpt>
      <trkpt lat="42.45479" lon="2.64388">
        <ele>351</ele>
        <time>2024-09-20T09:43:59Z</time>
      </trkpt>
      <trkpt lat="42.45478" lon="2.64392">
        <ele>352</ele>
        <time>2024-09-20T09:44:03Z</time>
      </trkpt>
      <trkpt lat="42.45478" lon="2.64396">
        <ele>353</ele>
        <time>2024-09-20T09:44:06Z</time>
      </trkpt>
      <trkpt lat="42.45478" lon="2.64401">
        <ele>353</ele>
        <time>2024-09-20T09:44:11Z</time>
      </trkpt>
      <trkpt lat="42.45479" lon="2.64405">
        <ele>353</ele>
        <time>2024-09-20T09:44:15Z</time>
      </trkpt>
      <trkpt lat="42.4548" lon="2.6441">
        <ele>353</ele>
        <time>2024-09-20T09:44:19Z</time>
      </trkpt>
      <trkpt lat="42.45479" lon="2.64414">
        <ele>353</ele>
        <time>2024-09-20T09:44:23Z</time>
      </trkpt>
      <trkpt lat="42.45477" lon="2.64418">
        <ele>354</ele>
        <time>2024-09-20T09:44:26Z</time>
      </trkpt>
      <trkpt lat="42.45476" lon="2.64421">
        <ele>353</ele>
        <time>2024-09-20T09:44:31Z</time>
      </trkpt>
      <trkpt lat="42.45476" lon="2.64425">
        <ele>354</ele>
        <time>2024-09-20T09:44:35Z</time>
      </trkpt>
      <trkpt lat="42.45476" lon="2.64429">
        <ele>354</ele>
        <time>2024-09-20T09:44:39Z</time>
      </trkpt>
      <trkpt lat="42.45475" lon="2.64433">
        <ele>353</ele>
        <time>2024-09-20T09:44:44Z</time>
      </trkpt>
      <trkpt lat="42.45474" lon="2.64437">
        <ele>355</ele>
        <time>2024-09-20T09:44:48Z</time>
      </trkpt>
      <trkpt lat="42.45474" lon="2.64442">
        <ele>355</ele>
        <time>2024-09-20T09:44:54Z</time>
      </trkpt>
      <trkpt lat="42.45474" lon="2.64447">
        <ele>355</ele>
        <time>2024-09-20T09:44:59Z</time>
      </trkpt>
      <trkpt lat="42.45472" lon="2.6445">
        <ele>355</ele>
        <time>2024-09-20T09:45:03Z</time>
      </trkpt>
      <trkpt lat="42.4547" lon="2.64452">
        <ele>358</ele>
        <time>2024-09-20T09:45:05Z</time>
      </trkpt>
      <trkpt lat="42.45468" lon="2.64456">
        <ele>357</ele>
        <time>2024-09-20T09:45:10Z</time>
      </trkpt>
      <trkpt lat="42.45466" lon="2.64458">
        <ele>359</ele>
        <time>2024-09-20T09:45:15Z</time>
      </trkpt>
      <trkpt lat="42.45465" lon="2.64456">
        <ele>362</ele>
        <time>2024-09-20T09:45:24Z</time>
      </trkpt>
      <trkpt lat="42.45463" lon="2.64453">
        <ele>362</ele>
        <time>2024-09-20T09:45:29Z</time>
      </trkpt>
      <trkpt lat="42.4546" lon="2.64452">
        <ele>362</ele>
        <time>2024-09-20T09:45:33Z</time>
      </trkpt>
      <trkpt lat="42.45459" lon="2.6445">
        <ele>363</ele>
        <time>2024-09-20T09:45:37Z</time>
      </trkpt>
      <trkpt lat="42.45458" lon="2.64446">
        <ele>361</ele>
        <time>2024-09-20T09:45:41Z</time>
      </trkpt>
      <trkpt lat="42.45456" lon="2.64443">
        <ele>362</ele>
        <time>2024-09-20T09:45:45Z</time>
      </trkpt>
      <trkpt lat="42.45454" lon="2.64443">
        <ele>362</ele>
        <time>2024-09-20T09:45:51Z</time>
      </trkpt>
      <trkpt lat="42.45452" lon="2.64445">
        <ele>362</ele>
        <time>2024-09-20T09:45:56Z</time>
      </trkpt>
      <trkpt lat="42.4545" lon="2.64446">
        <ele>365</ele>
        <time>2024-09-20T09:46:07Z</time>
      </trkpt>
      <trkpt lat="42.45448" lon="2.64449">
        <ele>365</ele>
        <time>2024-09-20T09:46:13Z</time>
      </trkpt>
      <trkpt lat="42.45448" lon="2.64452">
        <ele>365</ele>
        <time>2024-09-20T09:46:19Z</time>
      </trkpt>
      <trkpt lat="42.45446" lon="2.64455">
        <ele>366</ele>
        <time>2024-09-20T09:46:25Z</time>
      </trkpt>
      <trkpt lat="42.45443" lon="2.64455">
        <ele>367</ele>
        <time>2024-09-20T09:46:31Z</time>
      </trkpt>
      <trkpt lat="42.4544" lon="2.64456">
        <ele>369</ele>
        <time>2024-09-20T09:46:38Z</time>
      </trkpt>
      <trkpt lat="42.45438" lon="2.64459">
        <ele>371</ele>
        <time>2024-09-20T09:46:44Z</time>
      </trkpt>
      <trkpt lat="42.45437" lon="2.64462">
        <ele>370</ele>
        <time>2024-09-20T09:46:49Z</time>
      </trkpt>
      <trkpt lat="42.45434" lon="2.64464">
        <ele>372</ele>
        <time>2024-09-20T09:46:54Z</time>
      </trkpt>
      <trkpt lat="42.45431" lon="2.64466">
        <ele>373</ele>
        <time>2024-09-20T09:47:03Z</time>
      </trkpt>
      <trkpt lat="42.45429" lon="2.6447">
        <ele>374</ele>
        <time>2024-09-20T09:47:13Z</time>
      </trkpt>
      <trkpt lat="42.45426" lon="2.64471">
        <ele>375</ele>
        <time>2024-09-20T09:47:21Z</time>
      </trkpt>
      <trkpt lat="42.45423" lon="2.64473">
        <ele>376</ele>
        <time>2024-09-20T09:47:29Z</time>
      </trkpt>
      <trkpt lat="42.45421" lon="2.64475">
        <ele>376</ele>
        <time>2024-09-20T09:47:39Z</time>
      </trkpt>
      <trkpt lat="42.45419" lon="2.64477">
        <ele>378</ele>
        <time>2024-09-20T09:47:47Z</time>
      </trkpt>
      <trkpt lat="42.45417" lon="2.6448">
        <ele>379</ele>
        <time>2024-09-20T09:47:57Z</time>
      </trkpt>
      <trkpt lat="42.45415" lon="2.64481">
        <ele>379</ele>
        <time>2024-09-20T09:48:04Z</time>
      </trkpt>
      <trkpt lat="42.45412" lon="2.64483">
        <ele>381</ele>
        <time>2024-09-20T09:48:09Z</time>
      </trkpt>
      <trkpt lat="42.45409" lon="2.64485">
        <ele>382</ele>
        <time>2024-09-20T09:48:15Z</time>
      </trkpt>
      <trkpt lat="42.45408" lon="2.64489">
        <ele>382</ele>
        <time>2024-09-20T09:48:20Z</time>
      </trkpt>
      <trkpt lat="42.45406" lon="2.64491">
        <ele>383</ele>
        <time>2024-09-20T09:48:29Z</time>
      </trkpt>
      <trkpt lat="42.45403" lon="2.64493">
        <ele>384</ele>
        <time>2024-09-20T09:48:35Z</time>
      </trkpt>
      <trkpt lat="42.45401" lon="2.64494">
        <ele>387</ele>
        <time>2024-09-20T09:48:41Z</time>
      </trkpt>
      <trkpt lat="42.45398" lon="2.64495">
        <ele>388</ele>
        <time>2024-09-20T09:48:48Z</time>
      </trkpt>
      <trkpt lat="42.45395" lon="2.64497">
        <ele>388</ele>
        <time>2024-09-20T09:48:56Z</time>
      </trkpt>
      <trkpt lat="42.45393" lon="2.645">
        <ele>389</ele>
        <time>2024-09-20T09:49:00Z</time>
      </trkpt>
      <trkpt lat="42.45391" lon="2.64503">
        <ele>392</ele>
        <time>2024-09-20T09:49:06Z</time>
      </trkpt>
      <trkpt lat="42.45389" lon="2.64505">
        <ele>392</ele>
        <time>2024-09-20T09:49:12Z</time>
      </trkpt>
      <trkpt lat="42.45386" lon="2.64506">
        <ele>393</ele>
        <time>2024-09-20T09:49:15Z</time>
      </trkpt>
      <trkpt lat="42.45383" lon="2.64508">
        <ele>391</ele>
        <time>2024-09-20T09:49:19Z</time>
      </trkpt>
      <trkpt lat="42.45381" lon="2.6451">
        <ele>390</ele>
        <time>2024-09-20T09:49:24Z</time>
      </trkpt>
      <trkpt lat="42.45379" lon="2.64513">
        <ele>392</ele>
        <time>2024-09-20T09:49:29Z</time>
      </trkpt>
      <trkpt lat="42.45377" lon="2.64512">
        <ele>393</ele>
        <time>2024-09-20T09:49:36Z</time>
      </trkpt>
      <trkpt lat="42.45376" lon="2.6451">
        <ele>394</ele>
        <time>2024-09-20T09:49:42Z</time>
      </trkpt>
      <trkpt lat="42.45377" lon="2.64507">
        <ele>394</ele>
        <time>2024-09-20T09:49:48Z</time>
      </trkpt>
      <trkpt lat="42.45379" lon="2.64504">
        <ele>394</ele>
        <time>2024-09-20T09:49:51Z</time>
      </trkpt>
      <trkpt lat="42.45381" lon="2.64504">
        <ele>392</ele>
        <time>2024-09-20T09:50:33Z</time>
      </trkpt>
      <trkpt lat="42.4538" lon="2.64504">
        <ele>393</ele>
        <time>2024-09-20T09:50:57Z</time>
      </trkpt>
      <trkpt lat="42.45378" lon="2.64505">
        <ele>392</ele>
        <time>2024-09-20T09:51:01Z</time>
      </trkpt>
      <trkpt lat="42.45375" lon="2.64507">
        <ele>394</ele>
        <time>2024-09-20T09:51:03Z</time>
      </trkpt>
      <trkpt lat="42.45372" lon="2.64509">
        <ele>394</ele>
        <time>2024-09-20T09:51:07Z</time>
      </trkpt>
      <trkpt lat="42.45369" lon="2.6451">
        <ele>395</ele>
        <time>2024-09-20T09:51:10Z</time>
      </trkpt>
      <trkpt lat="42.45366" lon="2.6451">
        <ele>398</ele>
        <time>2024-09-20T09:51:15Z</time>
      </trkpt>
      <trkpt lat="42.45362" lon="2.64509">
        <ele>400</ele>
        <time>2024-09-20T09:51:24Z</time>
      </trkpt>
      <trkpt lat="42.45359" lon="2.6451">
        <ele>401</ele>
        <time>2024-09-20T09:51:30Z</time>
      </trkpt>
      <trkpt lat="42.45357" lon="2.6451">
        <ele>402</ele>
        <time>2024-09-20T09:51:37Z</time>
      </trkpt>
      <trkpt lat="42.45354" lon="2.64512">
        <ele>403</ele>
        <time>2024-09-20T09:51:42Z</time>
      </trkpt>
      <trkpt lat="42.45352" lon="2.64515">
        <ele>403</ele>
        <time>2024-09-20T09:51:46Z</time>
      </trkpt>
      <trkpt lat="42.4535" lon="2.64517">
        <ele>405</ele>
        <time>2024-09-20T09:51:52Z</time>
      </trkpt>
      <trkpt lat="42.45347" lon="2.64519">
        <ele>406</ele>
        <time>2024-09-20T09:51:57Z</time>
      </trkpt>
      <trkpt lat="42.45346" lon="2.64522">
        <ele>406</ele>
        <time>2024-09-20T09:52:05Z</time>
      </trkpt>
      <trkpt lat="42.45343" lon="2.64523">
        <ele>407</ele>
        <time>2024-09-20T09:52:11Z</time>
      </trkpt>
      <trkpt lat="42.45342" lon="2.64526">
        <ele>408</ele>
        <time>2024-09-20T09:52:19Z</time>
      </trkpt>
      <trkpt lat="42.45339" lon="2.64529">
        <ele>407</ele>
        <time>2024-09-20T09:52:22Z</time>
      </trkpt>
      <trkpt lat="42.45337" lon="2.64531">
        <ele>409</ele>
        <time>2024-09-20T09:52:29Z</time>
      </trkpt>
      <trkpt lat="42.45334" lon="2.64534">
        <ele>411</ele>
        <time>2024-09-20T09:52:34Z</time>
      </trkpt>
      <trkpt lat="42.45331" lon="2.64535">
        <ele>412</ele>
        <time>2024-09-20T09:52:40Z</time>
      </trkpt>
      <trkpt lat="42.45332" lon="2.64534">
        <ele>412</ele>
        <time>2024-09-20T09:52:52Z</time>
      </trkpt>
      <trkpt lat="42.45331" lon="2.64531">
        <ele>413</ele>
        <time>2024-09-20T09:52:57Z</time>
      </trkpt>
      <trkpt lat="42.45333" lon="2.64528">
        <ele>414</ele>
        <time>2024-09-20T09:53:01Z</time>
      </trkpt>
      <trkpt lat="42.45332" lon="2.64525">
        <ele>414</ele>
        <time>2024-09-20T09:53:07Z</time>
      </trkpt>
      <trkpt lat="42.4533" lon="2.64524">
        <ele>413</ele>
        <time>2024-09-20T09:53:11Z</time>
      </trkpt>
      <trkpt lat="42.45327" lon="2.64526">
        <ele>413</ele>
        <time>2024-09-20T09:53:17Z</time>
      </trkpt>
      <trkpt lat="42.45325" lon="2.64528">
        <ele>414</ele>
        <time>2024-09-20T09:53:23Z</time>
      </trkpt>
      <trkpt lat="42.45322" lon="2.6453">
        <ele>416</ele>
        <time>2024-09-20T09:53:27Z</time>
      </trkpt>
      <trkpt lat="42.45321" lon="2.64534">
        <ele>417</ele>
        <time>2024-09-20T09:53:31Z</time>
      </trkpt>
      <trkpt lat="42.45318" lon="2.64537">
        <ele>416</ele>
        <time>2024-09-20T09:53:35Z</time>
      </trkpt>
      <trkpt lat="42.45316" lon="2.64537">
        <ele>418</ele>
        <time>2024-09-20T09:53:41Z</time>
      </trkpt>
      <trkpt lat="42.45313" lon="2.64539">
        <ele>419</ele>
        <time>2024-09-20T09:53:49Z</time>
      </trkpt>
      <trkpt lat="42.4531" lon="2.64541">
        <ele>420</ele>
        <time>2024-09-20T09:53:57Z</time>
      </trkpt>
      <trkpt lat="42.45308" lon="2.64543">
        <ele>421</ele>
        <time>2024-09-20T09:54:06Z</time>
      </trkpt>
      <trkpt lat="42.45306" lon="2.64545">
        <ele>421</ele>
        <time>2024-09-20T09:54:13Z</time>
      </trkpt>
      <trkpt lat="42.45304" lon="2.64549">
        <ele>422</ele>
        <time>2024-09-20T09:54:17Z</time>
      </trkpt>
      <trkpt lat="42.45302" lon="2.64549">
        <ele>424</ele>
        <time>2024-09-20T09:54:30Z</time>
      </trkpt>
      <trkpt lat="42.453" lon="2.64547">
        <ele>427</ele>
        <time>2024-09-20T09:55:22Z</time>
      </trkpt>
      <trkpt lat="42.45299" lon="2.64543">
        <ele>427</ele>
        <time>2024-09-20T09:55:26Z</time>
      </trkpt>
      <trkpt lat="42.45299" lon="2.6454">
        <ele>427</ele>
        <time>2024-09-20T09:55:32Z</time>
      </trkpt>
      <trkpt lat="42.45297" lon="2.64539">
        <ele>425</ele>
        <time>2024-09-20T09:55:54Z</time>
      </trkpt>
      <trkpt lat="42.45294" lon="2.64537">
        <ele>428</ele>
        <time>2024-09-20T09:56:02Z</time>
      </trkpt>
      <trkpt lat="42.45291" lon="2.64537">
        <ele>428</ele>
        <time>2024-09-20T09:56:08Z</time>
      </trkpt>
      <trkpt lat="42.45288" lon="2.64537">
        <ele>428</ele>
        <time>2024-09-20T09:56:12Z</time>
      </trkpt>
      <trkpt lat="42.45285" lon="2.64537">
        <ele>428</ele>
        <time>2024-09-20T09:56:17Z</time>
      </trkpt>
      <trkpt lat="42.45283" lon="2.6454">
        <ele>429</ele>
        <time>2024-09-20T09:56:21Z</time>
      </trkpt>
      <trkpt lat="42.45281" lon="2.64542">
        <ele>430</ele>
        <time>2024-09-20T09:56:24Z</time>
      </trkpt>
      <trkpt lat="42.45278" lon="2.64544">
        <ele>431</ele>
        <time>2024-09-20T09:56:31Z</time>
      </trkpt>
      <trkpt lat="42.45276" lon="2.64547">
        <ele>432</ele>
        <time>2024-09-20T09:57:42Z</time>
      </trkpt>
      <trkpt lat="42.45275" lon="2.64551">
        <ele>432</ele>
        <time>2024-09-20T09:57:45Z</time>
      </trkpt>
      <trkpt lat="42.45272" lon="2.64554">
        <ele>433</ele>
        <time>2024-09-20T09:57:49Z</time>
      </trkpt>
      <trkpt lat="42.4527" lon="2.64556">
        <ele>433</ele>
        <time>2024-09-20T09:57:52Z</time>
      </trkpt>
      <trkpt lat="42.45269" lon="2.6456">
        <ele>434</ele>
        <time>2024-09-20T09:57:57Z</time>
      </trkpt>
      <trkpt lat="42.45268" lon="2.64564">
        <ele>434</ele>
        <time>2024-09-20T09:58:02Z</time>
      </trkpt>
      <trkpt lat="42.45267" lon="2.64568">
        <ele>434</ele>
        <time>2024-09-20T09:58:06Z</time>
      </trkpt>
      <trkpt lat="42.45266" lon="2.64572">
        <ele>435</ele>
        <time>2024-09-20T09:58:12Z</time>
      </trkpt>
      <trkpt lat="42.45265" lon="2.64576">
        <ele>437</ele>
        <time>2024-09-20T09:58:15Z</time>
      </trkpt>
      <trkpt lat="42.45264" lon="2.6458">
        <ele>437</ele>
        <time>2024-09-20T09:58:20Z</time>
      </trkpt>
      <trkpt lat="42.45263" lon="2.64584">
        <ele>438</ele>
        <time>2024-09-20T09:58:24Z</time>
      </trkpt>
      <trkpt lat="42.45262" lon="2.64588">
        <ele>438</ele>
        <time>2024-09-20T09:58:31Z</time>
      </trkpt>
      <trkpt lat="42.45261" lon="2.64592">
        <ele>440</ele>
        <time>2024-09-20T09:58:35Z</time>
      </trkpt>
      <trkpt lat="42.4526" lon="2.64596">
        <ele>441</ele>
        <time>2024-09-20T09:58:40Z</time>
      </trkpt>
      <trkpt lat="42.4526" lon="2.646">
        <ele>442</ele>
        <time>2024-09-20T09:58:50Z</time>
      </trkpt>
      <trkpt lat="42.45259" lon="2.64604">
        <ele>443</ele>
        <time>2024-09-20T09:58:58Z</time>
      </trkpt>
      <trkpt lat="42.45258" lon="2.64607">
        <ele>443</ele>
        <time>2024-09-20T09:59:02Z</time>
      </trkpt>
      <trkpt lat="42.45257" lon="2.64611">
        <ele>445</ele>
        <time>2024-09-20T09:59:08Z</time>
      </trkpt>
      <trkpt lat="42.45256" lon="2.64614">
        <ele>445</ele>
        <time>2024-09-20T09:59:13Z</time>
      </trkpt>
      <trkpt lat="42.45254" lon="2.64618">
        <ele>446</ele>
        <time>2024-09-20T09:59:16Z</time>
      </trkpt>
      <trkpt lat="42.45252" lon="2.64621">
        <ele>448</ele>
        <time>2024-09-20T09:59:23Z</time>
      </trkpt>
      <trkpt lat="42.45251" lon="2.64625">
        <ele>449</ele>
        <time>2024-09-20T09:59:34Z</time>
      </trkpt>
      <trkpt lat="42.4525" lon="2.64629">
        <ele>449</ele>
        <time>2024-09-20T09:59:45Z</time>
      </trkpt>
      <trkpt lat="42.45248" lon="2.64632">
        <ele>450</ele>
        <time>2024-09-20T09:59:55Z</time>
      </trkpt>
      <trkpt lat="42.45246" lon="2.6463">
        <ele>450</ele>
        <time>2024-09-20T09:59:58Z</time>
      </trkpt>
      <trkpt lat="42.45244" lon="2.6463">
        <ele>451</ele>
        <time>2024-09-20T10:00:01Z</time>
      </trkpt>
      <trkpt lat="42.45242" lon="2.64632">
        <ele>451</ele>
        <time>2024-09-20T10:00:07Z</time>
      </trkpt>
      <trkpt lat="42.45239" lon="2.64634">
        <ele>453</ele>
        <time>2024-09-20T10:00:11Z</time>
      </trkpt>
      <trkpt lat="42.45237" lon="2.64633">
        <ele>453</ele>
        <time>2024-09-20T10:00:14Z</time>
      </trkpt>
      <trkpt lat="42.45234" lon="2.64633">
        <ele>454</ele>
        <time>2024-09-20T10:00:19Z</time>
      </trkpt>
      <trkpt lat="42.45231" lon="2.6463">
        <ele>455</ele>
        <time>2024-09-20T10:00:24Z</time>
      </trkpt>
      <trkpt lat="42.45229" lon="2.64628">
        <ele>456</ele>
        <time>2024-09-20T10:00:29Z</time>
      </trkpt>
      <trkpt lat="42.45228" lon="2.6463">
        <ele>455</ele>
        <time>2024-09-20T10:00:32Z</time>
      </trkpt>
      <trkpt lat="42.45229" lon="2.64633">
        <ele>456</ele>
        <time>2024-09-20T10:00:35Z</time>
      </trkpt>
      <trkpt lat="42.4523" lon="2.64636">
        <ele>457</ele>
        <time>2024-09-20T10:00:43Z</time>
      </trkpt>
      <trkpt lat="42.45229" lon="2.64639">
        <ele>458</ele>
        <time>2024-09-20T10:00:49Z</time>
      </trkpt>
      <trkpt lat="42.45226" lon="2.64635">
        <ele>458</ele>
        <time>2024-09-20T10:00:52Z</time>
      </trkpt>
      <trkpt lat="42.45224" lon="2.64633">
        <ele>458</ele>
        <time>2024-09-20T10:01:00Z</time>
      </trkpt>
      <trkpt lat="42.45221" lon="2.64631">
        <ele>459</ele>
        <time>2024-09-20T10:01:03Z</time>
      </trkpt>
      <trkpt lat="42.45219" lon="2.64633">
        <ele>459</ele>
        <time>2024-09-20T10:01:09Z</time>
      </trkpt>
      <trkpt lat="42.45219" lon="2.64636">
        <ele>459</ele>
        <time>2024-09-20T10:01:12Z</time>
      </trkpt>
      <trkpt lat="42.45217" lon="2.64639">
        <ele>464</ele>
        <time>2024-09-20T10:01:18Z</time>
      </trkpt>
      <trkpt lat="42.45214" lon="2.64642">
        <ele>462</ele>
        <time>2024-09-20T10:01:23Z</time>
      </trkpt>
      <trkpt lat="42.45213" lon="2.64646">
        <ele>464</ele>
        <time>2024-09-20T10:01:28Z</time>
      </trkpt>
      <trkpt lat="42.45211" lon="2.64648">
        <ele>465</ele>
        <time>2024-09-20T10:01:32Z</time>
      </trkpt>
      <trkpt lat="42.45209" lon="2.64651">
        <ele>466</ele>
        <time>2024-09-20T10:01:37Z</time>
      </trkpt>
      <trkpt lat="42.45207" lon="2.64652">
        <ele>467</ele>
        <time>2024-09-20T10:01:43Z</time>
      </trkpt>
      <trkpt lat="42.45204" lon="2.64653">
        <ele>468</ele>
        <time>2024-09-20T10:01:48Z</time>
      </trkpt>
      <trkpt lat="42.45201" lon="2.64655">
        <ele>468</ele>
        <time>2024-09-20T10:01:53Z</time>
      </trkpt>
      <trkpt lat="42.45201" lon="2.64657">
        <ele>469</ele>
        <time>2024-09-20T10:02:01Z</time>
      </trkpt>
      <trkpt lat="42.45203" lon="2.64658">
        <ele>471</ele>
        <time>2024-09-20T10:02:17Z</time>
      </trkpt>
      <trkpt lat="42.45204" lon="2.6466">
        <ele>470</ele>
        <time>2024-09-20T10:02:21Z</time>
      </trkpt>
      <trkpt lat="42.45206" lon="2.64663">
        <ele>471</ele>
        <time>2024-09-20T10:02:29Z</time>
      </trkpt>
      <trkpt lat="42.45209" lon="2.64665">
        <ele>472</ele>
        <time>2024-09-20T10:02:38Z</time>
      </trkpt>
      <trkpt lat="42.45211" lon="2.64668">
        <ele>473</ele>
        <time>2024-09-20T10:02:43Z</time>
      </trkpt>
      <trkpt lat="42.45213" lon="2.64671">
        <ele>473</ele>
        <time>2024-09-20T10:02:47Z</time>
      </trkpt>
      <trkpt lat="42.45216" lon="2.64674">
        <ele>474</ele>
        <time>2024-09-20T10:02:53Z</time>
      </trkpt>
      <trkpt lat="42.45218" lon="2.64676">
        <ele>474</ele>
        <time>2024-09-20T10:02:56Z</time>
      </trkpt>
      <trkpt lat="42.45218" lon="2.64679">
        <ele>474</ele>
        <time>2024-09-20T10:03:04Z</time>
      </trkpt>
      <trkpt lat="42.45216" lon="2.64681">
        <ele>475</ele>
        <time>2024-09-20T10:03:10Z</time>
      </trkpt>
      <trkpt lat="42.45213" lon="2.64683">
        <ele>475</ele>
        <time>2024-09-20T10:03:13Z</time>
      </trkpt>
      <trkpt lat="42.4521" lon="2.64685">
        <ele>477</ele>
        <time>2024-09-20T10:03:21Z</time>
      </trkpt>
      <trkpt lat="42.45207" lon="2.64687">
        <ele>479</ele>
        <time>2024-09-20T10:03:25Z</time>
      </trkpt>
      <trkpt lat="42.45205" lon="2.64691">
        <ele>479</ele>
        <time>2024-09-20T10:03:30Z</time>
      </trkpt>
      <trkpt lat="42.45203" lon="2.6469">
        <ele>480</ele>
        <time>2024-09-20T10:03:38Z</time>
      </trkpt>
      <trkpt lat="42.452" lon="2.64691">
        <ele>481</ele>
        <time>2024-09-20T10:03:44Z</time>
      </trkpt>
      <trkpt lat="42.45198" lon="2.64693">
        <ele>482</ele>
        <time>2024-09-20T10:03:50Z</time>
      </trkpt>
      <trkpt lat="42.45195" lon="2.64693">
        <ele>483</ele>
        <time>2024-09-20T10:03:55Z</time>
      </trkpt>
      <trkpt lat="42.45192" lon="2.64693">
        <ele>483</ele>
        <time>2024-09-20T10:03:58Z</time>
      </trkpt>
      <trkpt lat="42.4519" lon="2.64692">
        <ele>484</ele>
        <time>2024-09-20T10:04:01Z</time>
      </trkpt>
      <trkpt lat="42.45187" lon="2.64691">
        <ele>486</ele>
        <time>2024-09-20T10:04:06Z</time>
      </trkpt>
      <trkpt lat="42.45184" lon="2.64693">
        <ele>488</ele>
        <time>2024-09-20T10:04:12Z</time>
      </trkpt>
      <trkpt lat="42.45185" lon="2.64696">
        <ele>487</ele>
        <time>2024-09-20T10:04:17Z</time>
      </trkpt>
      <trkpt lat="42.45186" lon="2.64698">
        <ele>488</ele>
        <time>2024-09-20T10:04:23Z</time>
      </trkpt>
      <trkpt lat="42.45191" lon="2.647">
        <ele>489</ele>
        <time>2024-09-20T10:04:29Z</time>
      </trkpt>
      <trkpt lat="42.45192" lon="2.64703">
        <ele>490</ele>
        <time>2024-09-20T10:04:33Z</time>
      </trkpt>
      <trkpt lat="42.45194" lon="2.64705">
        <ele>491</ele>
        <time>2024-09-20T10:04:39Z</time>
      </trkpt>
      <trkpt lat="42.45196" lon="2.64706">
        <ele>491</ele>
        <time>2024-09-20T10:04:46Z</time>
      </trkpt>
      <trkpt lat="42.45199" lon="2.64709">
        <ele>493</ele>
        <time>2024-09-20T10:04:50Z</time>
      </trkpt>
      <trkpt lat="42.452" lon="2.64712">
        <ele>493</ele>
        <time>2024-09-20T10:04:56Z</time>
      </trkpt>
      <trkpt lat="42.45197" lon="2.64713">
        <ele>492</ele>
        <time>2024-09-20T10:05:00Z</time>
      </trkpt>
      <trkpt lat="42.45195" lon="2.64714">
        <ele>495</ele>
        <time>2024-09-20T10:05:20Z</time>
      </trkpt>
      <trkpt lat="42.45192" lon="2.64715">
        <ele>495</ele>
        <time>2024-09-20T10:05:31Z</time>
      </trkpt>
      <trkpt lat="42.45192" lon="2.64717">
        <ele>493</ele>
        <time>2024-09-20T10:06:20Z</time>
      </trkpt>
      <trkpt lat="42.45191" lon="2.64719">
        <ele>494</ele>
        <time>2024-09-20T10:06:53Z</time>
      </trkpt>
      <trkpt lat="42.45189" lon="2.64721">
        <ele>494</ele>
        <time>2024-09-20T10:06:58Z</time>
      </trkpt>
      <trkpt lat="42.45187" lon="2.6472">
        <ele>496</ele>
        <time>2024-09-20T10:07:00Z</time>
      </trkpt>
      <trkpt lat="42.45184" lon="2.64719">
        <ele>497</ele>
        <time>2024-09-20T10:07:02Z</time>
      </trkpt>
      <trkpt lat="42.45181" lon="2.64717">
        <ele>497</ele>
        <time>2024-09-20T10:07:07Z</time>
      </trkpt>
      <trkpt lat="42.45179" lon="2.64718">
        <ele>498</ele>
        <time>2024-09-20T10:07:12Z</time>
      </trkpt>
      <trkpt lat="42.45178" lon="2.6472">
        <ele>501</ele>
        <time>2024-09-20T10:07:16Z</time>
      </trkpt>
      <trkpt lat="42.45178" lon="2.64724">
        <ele>503</ele>
        <time>2024-09-20T10:07:20Z</time>
      </trkpt>
      <trkpt lat="42.4518" lon="2.64727">
        <ele>502</ele>
        <time>2024-09-20T10:07:25Z</time>
      </trkpt>
      <trkpt lat="42.45182" lon="2.6473">
        <ele>502</ele>
        <time>2024-09-20T10:07:26Z</time>
      </trkpt>
      <trkpt lat="42.4518" lon="2.6473">
        <ele>502</ele>
        <time>2024-09-20T10:07:28Z</time>
      </trkpt>
      <trkpt lat="42.45178" lon="2.64729">
        <ele>502</ele>
        <time>2024-09-20T10:07:30Z</time>
      </trkpt>
      <trkpt lat="42.45175" lon="2.64728">
        <ele>503</ele>
        <time>2024-09-20T10:07:35Z</time>
      </trkpt>
      <trkpt lat="42.45172" lon="2.64727">
        <ele>504</ele>
        <time>2024-09-20T10:07:37Z</time>
      </trkpt>
      <trkpt lat="42.4517" lon="2.64728">
        <ele>505</ele>
        <time>2024-09-20T10:07:45Z</time>
      </trkpt>
      <trkpt lat="42.4517" lon="2.64731">
        <ele>506</ele>
        <time>2024-09-20T10:07:46Z</time>
      </trkpt>
      <trkpt lat="42.45172" lon="2.64734">
        <ele>507</ele>
        <time>2024-09-20T10:07:49Z</time>
      </trkpt>
      <trkpt lat="42.45173" lon="2.64738">
        <ele>507</ele>
        <time>2024-09-20T10:07:53Z</time>
      </trkpt>
      <trkpt lat="42.45171" lon="2.64741">
        <ele>508</ele>
        <time>2024-09-20T10:08:00Z</time>
      </trkpt>
      <trkpt lat="42.4517" lon="2.64739">
        <ele>509</ele>
        <time>2024-09-20T10:08:04Z</time>
      </trkpt>
      <trkpt lat="42.45167" lon="2.64737">
        <ele>509</ele>
        <time>2024-09-20T10:08:07Z</time>
      </trkpt>
      <trkpt lat="42.45165" lon="2.64737">
        <ele>510</ele>
        <time>2024-09-20T10:08:11Z</time>
      </trkpt>
      <trkpt lat="42.45162" lon="2.64736">
        <ele>511</ele>
        <time>2024-09-20T10:08:15Z</time>
      </trkpt>
      <trkpt lat="42.45161" lon="2.64733">
        <ele>511</ele>
        <time>2024-09-20T10:08:21Z</time>
      </trkpt>
      <trkpt lat="42.4516" lon="2.64734">
        <ele>511</ele>
        <time>2024-09-20T10:08:24Z</time>
      </trkpt>
      <trkpt lat="42.45158" lon="2.64734">
        <ele>511</ele>
        <time>2024-09-20T10:08:29Z</time>
      </trkpt>
      <trkpt lat="42.45155" lon="2.64734">
        <ele>512</ele>
        <time>2024-09-20T10:08:38Z</time>
      </trkpt>
      <trkpt lat="42.45152" lon="2.64734">
        <ele>512</ele>
        <time>2024-09-20T10:08:43Z</time>
      </trkpt>
      <trkpt lat="42.4515" lon="2.64733">
        <ele>513</ele>
        <time>2024-09-20T10:08:54Z</time>
      </trkpt>
      <trkpt lat="42.45145" lon="2.6473">
        <ele>513</ele>
        <time>2024-09-20T10:08:59Z</time>
      </trkpt>
      <trkpt lat="42.45143" lon="2.6473">
        <ele>516</ele>
        <time>2024-09-20T10:09:13Z</time>
      </trkpt>
      <trkpt lat="42.45139" lon="2.6473">
        <ele>519</ele>
        <time>2024-09-20T10:09:22Z</time>
      </trkpt>
      <trkpt lat="42.45137" lon="2.64728">
        <ele>520</ele>
        <time>2024-09-20T10:09:46Z</time>
      </trkpt>
      <trkpt lat="42.45138" lon="2.64731">
        <ele>522</ele>
        <time>2024-09-20T10:10:28Z</time>
      </trkpt>
      <trkpt lat="42.45138" lon="2.6473">
        <ele>522</ele>
        <time>2024-09-20T10:12:20Z</time>
      </trkpt>
      <trkpt lat="42.45139" lon="2.64731">
        <ele>516</ele>
        <time>2024-09-20T10:12:37Z</time>
      </trkpt>
      <trkpt lat="42.45138" lon="2.64731">
        <ele>518</ele>
        <time>2024-09-20T10:13:29Z</time>
      </trkpt>
      <trkpt lat="42.45138" lon="2.64733">
        <ele>518</ele>
        <time>2024-09-20T10:13:31Z</time>
      </trkpt>
      <trkpt lat="42.45137" lon="2.64733">
        <ele>520</ele>
        <time>2024-09-20T10:13:40Z</time>
      </trkpt>
      <trkpt lat="42.45134" lon="2.64734">
        <ele>522</ele>
        <time>2024-09-20T10:13:47Z</time>
      </trkpt>
      <trkpt lat="42.45132" lon="2.64733">
        <ele>523</ele>
        <time>2024-09-20T10:13:51Z</time>
      </trkpt>
      <trkpt lat="42.45132" lon="2.64735">
        <ele>525</ele>
        <time>2024-09-20T10:14:03Z</time>
      </trkpt>
      <trkpt lat="42.45132" lon="2.64738">
        <ele>524</ele>
        <time>2024-09-20T10:14:10Z</time>
      </trkpt>
      <trkpt lat="42.45134" lon="2.64741">
        <ele>527</ele>
        <time>2024-09-20T10:14:18Z</time>
      </trkpt>
      <trkpt lat="42.45132" lon="2.64742">
        <ele>528</ele>
        <time>2024-09-20T10:14:25Z</time>
      </trkpt>
      <trkpt lat="42.4513" lon="2.64742">
        <ele>528</ele>
        <time>2024-09-20T10:14:30Z</time>
      </trkpt>
      <trkpt lat="42.45126" lon="2.64742">
        <ele>528</ele>
        <time>2024-09-20T10:14:35Z</time>
      </trkpt>
      <trkpt lat="42.45123" lon="2.6474">
        <ele>528</ele>
        <time>2024-09-20T10:14:41Z</time>
      </trkpt>
      <trkpt lat="42.4512" lon="2.64737">
        <ele>530</ele>
        <time>2024-09-20T10:14:45Z</time>
      </trkpt>
      <trkpt lat="42.45118" lon="2.64735">
        <ele>532</ele>
        <time>2024-09-20T10:14:50Z</time>
      </trkpt>
      <trkpt lat="42.45115" lon="2.64733">
        <ele>533</ele>
        <time>2024-09-20T10:15:00Z</time>
      </trkpt>
      <trkpt lat="42.45113" lon="2.64733">
        <ele>534</ele>
        <time>2024-09-20T10:15:07Z</time>
      </trkpt>
      <trkpt lat="42.4511" lon="2.64733">
        <ele>535</ele>
        <time>2024-09-20T10:15:09Z</time>
      </trkpt>
      <trkpt lat="42.45107" lon="2.64732">
        <ele>534</ele>
        <time>2024-09-20T10:15:14Z</time>
      </trkpt>
      <trkpt lat="42.45105" lon="2.64733">
        <ele>536</ele>
        <time>2024-09-20T10:15:20Z</time>
      </trkpt>
      <trkpt lat="42.45102" lon="2.64735">
        <ele>536</ele>
        <time>2024-09-20T10:15:26Z</time>
      </trkpt>
      <trkpt lat="42.45098" lon="2.64736">
        <ele>536</ele>
        <time>2024-09-20T10:15:30Z</time>
      </trkpt>
      <trkpt lat="42.45095" lon="2.64736">
        <ele>539</ele>
        <time>2024-09-20T10:15:38Z</time>
      </trkpt>
      <trkpt lat="42.45092" lon="2.64736">
        <ele>540</ele>
        <time>2024-09-20T10:15:52Z</time>
      </trkpt>
      <trkpt lat="42.45089" lon="2.64736">
        <ele>543</ele>
        <time>2024-09-20T10:16:01Z</time>
      </trkpt>
      <trkpt lat="42.45087" lon="2.64739">
        <ele>542</ele>
        <time>2024-09-20T10:16:08Z</time>
      </trkpt>
      <trkpt lat="42.45089" lon="2.64739">
        <ele>542</ele>
        <time>2024-09-20T10:16:15Z</time>
      </trkpt>
      <trkpt lat="42.45089" lon="2.64741">
        <ele>546</ele>
        <time>2024-09-20T10:16:22Z</time>
      </trkpt>
      <trkpt lat="42.45088" lon="2.64743">
        <ele>546</ele>
        <time>2024-09-20T10:16:35Z</time>
      </trkpt>
      <trkpt lat="42.45086" lon="2.64744">
        <ele>544</ele>
        <time>2024-09-20T10:16:42Z</time>
      </trkpt>
      <trkpt lat="42.45083" lon="2.64744">
        <ele>550</ele>
        <time>2024-09-20T10:17:05Z</time>
      </trkpt>
      <trkpt lat="42.45082" lon="2.64746">
        <ele>550</ele>
        <time>2024-09-20T10:17:10Z</time>
      </trkpt>
      <trkpt lat="42.45081" lon="2.6475">
        <ele>550</ele>
        <time>2024-09-20T10:17:19Z</time>
      </trkpt>
      <trkpt lat="42.45079" lon="2.64751">
        <ele>552</ele>
        <time>2024-09-20T10:17:26Z</time>
      </trkpt>
      <trkpt lat="42.45078" lon="2.64754">
        <ele>554</ele>
        <time>2024-09-20T10:17:35Z</time>
      </trkpt>
      <trkpt lat="42.45079" lon="2.64758">
        <ele>554</ele>
        <time>2024-09-20T10:17:40Z</time>
      </trkpt>
      <trkpt lat="42.45079" lon="2.64757">
        <ele>554</ele>
        <time>2024-09-20T10:17:42Z</time>
      </trkpt>
      <trkpt lat="42.45081" lon="2.64758">
        <ele>555</ele>
        <time>2024-09-20T10:17:49Z</time>
      </trkpt>
      <trkpt lat="42.45084" lon="2.64756">
        <ele>556</ele>
        <time>2024-09-20T10:17:54Z</time>
      </trkpt>
      <trkpt lat="42.45086" lon="2.64754">
        <ele>555</ele>
        <time>2024-09-20T10:17:57Z</time>
      </trkpt>
      <trkpt lat="42.45087" lon="2.64756">
        <ele>556</ele>
        <time>2024-09-20T10:18:00Z</time>
      </trkpt>
      <trkpt lat="42.45087" lon="2.6476">
        <ele>555</ele>
        <time>2024-09-20T10:18:04Z</time>
      </trkpt>
      <trkpt lat="42.45085" lon="2.64762">
        <ele>557</ele>
        <time>2024-09-20T10:18:12Z</time>
      </trkpt>
      <trkpt lat="42.45083" lon="2.64764">
        <ele>558</ele>
        <time>2024-09-20T10:18:16Z</time>
      </trkpt>
      <trkpt lat="42.4508" lon="2.64766">
        <ele>560</ele>
        <time>2024-09-20T10:18:20Z</time>
      </trkpt>
      <trkpt lat="42.45078" lon="2.64769">
        <ele>560</ele>
        <time>2024-09-20T10:18:24Z</time>
      </trkpt>
      <trkpt lat="42.45076" lon="2.6477">
        <ele>562</ele>
        <time>2024-09-20T10:18:27Z</time>
      </trkpt>
      <trkpt lat="42.45074" lon="2.64772">
        <ele>561</ele>
        <time>2024-09-20T10:18:34Z</time>
      </trkpt>
      <trkpt lat="42.45075" lon="2.64773">
        <ele>561</ele>
        <time>2024-09-20T10:18:39Z</time>
      </trkpt>
      <trkpt lat="42.45078" lon="2.64772">
        <ele>562</ele>
        <time>2024-09-20T10:18:44Z</time>
      </trkpt>
      <trkpt lat="42.4508" lon="2.64773">
        <ele>562</ele>
        <time>2024-09-20T10:18:49Z</time>
      </trkpt>
      <trkpt lat="42.45083" lon="2.64775">
        <ele>562</ele>
        <time>2024-09-20T10:18:55Z</time>
      </trkpt>
      <trkpt lat="42.45083" lon="2.64778">
        <ele>563</ele>
        <time>2024-09-20T10:19:00Z</time>
      </trkpt>
      <trkpt lat="42.45083" lon="2.64781">
        <ele>564</ele>
        <time>2024-09-20T10:19:03Z</time>
      </trkpt>
      <trkpt lat="42.45081" lon="2.64784">
        <ele>565</ele>
        <time>2024-09-20T10:19:11Z</time>
      </trkpt>
      <trkpt lat="42.45078" lon="2.64786">
        <ele>567</ele>
        <time>2024-09-20T10:19:16Z</time>
      </trkpt>
      <trkpt lat="42.45079" lon="2.64789">
        <ele>566</ele>
        <time>2024-09-20T10:19:30Z</time>
      </trkpt>
      <trkpt lat="42.45081" lon="2.64789">
        <ele>568</ele>
        <time>2024-09-20T10:19:38Z</time>
      </trkpt>
      <trkpt lat="42.45083" lon="2.64791">
        <ele>568</ele>
        <time>2024-09-20T10:19:42Z</time>
      </trkpt>
      <trkpt lat="42.45083" lon="2.64794">
        <ele>568</ele>
        <time>2024-09-20T10:19:46Z</time>
      </trkpt>
      <trkpt lat="42.45081" lon="2.64797">
        <ele>568</ele>
        <time>2024-09-20T10:19:50Z</time>
      </trkpt>
      <trkpt lat="42.45079" lon="2.64798">
        <ele>568</ele>
        <time>2024-09-20T10:19:56Z</time>
      </trkpt>
      <trkpt lat="42.45076" lon="2.64798">
        <ele>569</ele>
        <time>2024-09-20T10:20:02Z</time>
      </trkpt>
      <trkpt lat="42.45074" lon="2.64797">
        <ele>570</ele>
        <time>2024-09-20T10:20:08Z</time>
      </trkpt>
      <trkpt lat="42.45071" lon="2.64797">
        <ele>570</ele>
        <time>2024-09-20T10:20:11Z</time>
      </trkpt>
      <trkpt lat="42.45068" lon="2.64798">
        <ele>572</ele>
        <time>2024-09-20T10:20:18Z</time>
      </trkpt>
      <trkpt lat="42.45068" lon="2.64801">
        <ele>572</ele>
        <time>2024-09-20T10:20:28Z</time>
      </trkpt>
      <trkpt lat="42.45068" lon="2.64804">
        <ele>574</ele>
        <time>2024-09-20T10:20:34Z</time>
      </trkpt>
      <trkpt lat="42.45067" lon="2.64808">
        <ele>576</ele>
        <time>2024-09-20T10:20:43Z</time>
      </trkpt>
      <trkpt lat="42.45067" lon="2.64812">
        <ele>576</ele>
        <time>2024-09-20T10:20:50Z</time>
      </trkpt>
      <trkpt lat="42.45065" lon="2.64812">
        <ele>574</ele>
        <time>2024-09-20T10:20:55Z</time>
      </trkpt>
      <trkpt lat="42.45062" lon="2.64812">
        <ele>574</ele>
        <time>2024-09-20T10:20:59Z</time>
      </trkpt>
      <trkpt lat="42.45059" lon="2.64812">
        <ele>577</ele>
        <time>2024-09-20T10:21:09Z</time>
      </trkpt>
      <trkpt lat="42.45056" lon="2.64811">
        <ele>579</ele>
        <time>2024-09-20T10:21:17Z</time>
      </trkpt>
      <trkpt lat="42.45053" lon="2.64812">
        <ele>582</ele>
        <time>2024-09-20T10:21:30Z</time>
      </trkpt>
      <trkpt lat="42.45052" lon="2.64815">
        <ele>583</ele>
        <time>2024-09-20T10:21:45Z</time>
      </trkpt>
      <trkpt lat="42.45051" lon="2.64818">
        <ele>584</ele>
        <time>2024-09-20T10:21:50Z</time>
      </trkpt>
      <trkpt lat="42.45049" lon="2.64821">
        <ele>584</ele>
        <time>2024-09-20T10:21:55Z</time>
      </trkpt>
      <trkpt lat="42.45047" lon="2.64821">
        <ele>585</ele>
        <time>2024-09-20T10:22:05Z</time>
      </trkpt>
      <trkpt lat="42.45044" lon="2.64822">
        <ele>587</ele>
        <time>2024-09-20T10:22:11Z</time>
      </trkpt>
      <trkpt lat="42.45044" lon="2.64824">
        <ele>585</ele>
        <time>2024-09-20T10:22:19Z</time>
      </trkpt>
      <trkpt lat="42.45045" lon="2.64827">
        <ele>586</ele>
        <time>2024-09-20T10:22:25Z</time>
      </trkpt>
      <trkpt lat="42.45046" lon="2.64831">
        <ele>586</ele>
        <time>2024-09-20T10:22:30Z</time>
      </trkpt>
      <trkpt lat="42.45045" lon="2.64835">
        <ele>588</ele>
        <time>2024-09-20T10:22:36Z</time>
      </trkpt>
      <trkpt lat="42.45044" lon="2.64838">
        <ele>589</ele>
        <time>2024-09-20T10:22:44Z</time>
      </trkpt>
      <trkpt lat="42.45044" lon="2.64842">
        <ele>589</ele>
        <time>2024-09-20T10:22:50Z</time>
      </trkpt>
      <trkpt lat="42.45042" lon="2.64846">
        <ele>590</ele>
        <time>2024-09-20T10:22:57Z</time>
      </trkpt>
      <trkpt lat="42.45041" lon="2.6485">
        <ele>590</ele>
        <time>2024-09-20T10:23:02Z</time>
      </trkpt>
      <trkpt lat="42.45039" lon="2.64852">
        <ele>591</ele>
        <time>2024-09-20T10:23:07Z</time>
      </trkpt>
      <trkpt lat="42.45037" lon="2.64856">
        <ele>591</ele>
        <time>2024-09-20T10:23:12Z</time>
      </trkpt>
      <trkpt lat="42.45035" lon="2.64858">
        <ele>593</ele>
        <time>2024-09-20T10:23:18Z</time>
      </trkpt>
      <trkpt lat="42.45033" lon="2.64861">
        <ele>594</ele>
        <time>2024-09-20T10:23:23Z</time>
      </trkpt>
      <trkpt lat="42.45031" lon="2.64864">
        <ele>595</ele>
        <time>2024-09-20T10:23:30Z</time>
      </trkpt>
      <trkpt lat="42.4503" lon="2.64868">
        <ele>597</ele>
        <time>2024-09-20T10:23:40Z</time>
      </trkpt>
      <trkpt lat="42.45027" lon="2.64871">
        <ele>597</ele>
        <time>2024-09-20T10:23:46Z</time>
      </trkpt>
      <trkpt lat="42.45026" lon="2.64875">
        <ele>598</ele>
        <time>2024-09-20T10:23:51Z</time>
      </trkpt>
      <trkpt lat="42.45024" lon="2.64878">
        <ele>599</ele>
        <time>2024-09-20T10:23:58Z</time>
      </trkpt>
      <trkpt lat="42.45022" lon="2.64881">
        <ele>600</ele>
        <time>2024-09-20T10:24:04Z</time>
      </trkpt>
      <trkpt lat="42.4502" lon="2.64885">
        <ele>600</ele>
        <time>2024-09-20T10:24:08Z</time>
      </trkpt>
      <trkpt lat="42.45018" lon="2.64888">
        <ele>601</ele>
        <time>2024-09-20T10:24:13Z</time>
      </trkpt>
      <trkpt lat="42.45017" lon="2.64892">
        <ele>602</ele>
        <time>2024-09-20T10:24:18Z</time>
      </trkpt>
      <trkpt lat="42.45016" lon="2.64896">
        <ele>602</ele>
        <time>2024-09-20T10:24:23Z</time>
      </trkpt>
      <trkpt lat="42.45014" lon="2.64898">
        <ele>604</ele>
        <time>2024-09-20T10:24:27Z</time>
      </trkpt>
      <trkpt lat="42.45012" lon="2.64896">
        <ele>603</ele>
        <time>2024-09-20T10:24:32Z</time>
      </trkpt>
      <trkpt lat="42.4501" lon="2.64894">
        <ele>604</ele>
        <time>2024-09-20T10:24:37Z</time>
      </trkpt>
      <trkpt lat="42.45008" lon="2.64891">
        <ele>605</ele>
        <time>2024-09-20T10:24:40Z</time>
      </trkpt>
      <trkpt lat="42.45007" lon="2.64887">
        <ele>605</ele>
        <time>2024-09-20T10:24:45Z</time>
      </trkpt>
      <trkpt lat="42.45006" lon="2.64888">
        <ele>607</ele>
        <time>2024-09-20T10:25:01Z</time>
      </trkpt>
      <trkpt lat="42.45005" lon="2.6489">
        <ele>608</ele>
        <time>2024-09-20T10:25:06Z</time>
      </trkpt>
      <trkpt lat="42.45003" lon="2.64893">
        <ele>608</ele>
        <time>2024-09-20T10:25:11Z</time>
      </trkpt>
      <trkpt lat="42.45001" lon="2.64896">
        <ele>608</ele>
        <time>2024-09-20T10:25:17Z</time>
      </trkpt>
      <trkpt lat="42.44999" lon="2.64899">
        <ele>609</ele>
        <time>2024-09-20T10:25:22Z</time>
      </trkpt>
      <trkpt lat="42.44997" lon="2.64902">
        <ele>610</ele>
        <time>2024-09-20T10:25:28Z</time>
      </trkpt>
      <trkpt lat="42.44995" lon="2.64904">
        <ele>611</ele>
        <time>2024-09-20T10:25:34Z</time>
      </trkpt>
      <trkpt lat="42.44991" lon="2.64903">
        <ele>612</ele>
        <time>2024-09-20T10:25:37Z</time>
      </trkpt>
      <trkpt lat="42.4499" lon="2.649">
        <ele>612</ele>
        <time>2024-09-20T10:25:39Z</time>
      </trkpt>
      <trkpt lat="42.4499" lon="2.64897">
        <ele>613</ele>
        <time>2024-09-20T10:25:45Z</time>
      </trkpt>
      <trkpt lat="42.44991" lon="2.64892">
        <ele>614</ele>
        <time>2024-09-20T10:25:50Z</time>
      </trkpt>
      <trkpt lat="42.4499" lon="2.64887">
        <ele>614</ele>
        <time>2024-09-20T10:25:54Z</time>
      </trkpt>
      <trkpt lat="42.4499" lon="2.64882">
        <ele>615</ele>
        <time>2024-09-20T10:25:59Z</time>
      </trkpt>
      <trkpt lat="42.44989" lon="2.64877">
        <ele>616</ele>
        <time>2024-09-20T10:26:06Z</time>
      </trkpt>
      <trkpt lat="42.44987" lon="2.64874">
        <ele>617</ele>
        <time>2024-09-20T10:26:12Z</time>
      </trkpt>
      <trkpt lat="42.44983" lon="2.64871">
        <ele>618</ele>
        <time>2024-09-20T10:26:17Z</time>
      </trkpt>
      <trkpt lat="42.44982" lon="2.64868">
        <ele>619</ele>
        <time>2024-09-20T10:26:22Z</time>
      </trkpt>
      <trkpt lat="42.4498" lon="2.64865">
        <ele>620</ele>
        <time>2024-09-20T10:26:31Z</time>
      </trkpt>
      <trkpt lat="42.44977" lon="2.64863">
        <ele>621</ele>
        <time>2024-09-20T10:26:34Z</time>
      </trkpt>
      <trkpt lat="42.44974" lon="2.64862">
        <ele>623</ele>
        <time>2024-09-20T10:26:47Z</time>
      </trkpt>
      <trkpt lat="42.44971" lon="2.64862">
        <ele>624</ele>
        <time>2024-09-20T10:26:50Z</time>
      </trkpt>
      <trkpt lat="42.44968" lon="2.64862">
        <ele>625</ele>
        <time>2024-09-20T10:26:56Z</time>
      </trkpt>
      <trkpt lat="42.44966" lon="2.64859">
        <ele>625</ele>
        <time>2024-09-20T10:27:01Z</time>
      </trkpt>
      <trkpt lat="42.44963" lon="2.64857">
        <ele>624</ele>
        <time>2024-09-20T10:27:08Z</time>
      </trkpt>
      <trkpt lat="42.44963" lon="2.64854">
        <ele>625</ele>
        <time>2024-09-20T10:27:14Z</time>
      </trkpt>
      <trkpt lat="42.44962" lon="2.6485">
        <ele>625</ele>
        <time>2024-09-20T10:27:20Z</time>
      </trkpt>
      <trkpt lat="42.44961" lon="2.64846">
        <ele>625</ele>
        <time>2024-09-20T10:27:24Z</time>
      </trkpt>
      <trkpt lat="42.44959" lon="2.64843">
        <ele>626</ele>
        <time>2024-09-20T10:27:28Z</time>
      </trkpt>
      <trkpt lat="42.44959" lon="2.64839">
        <ele>626</ele>
        <time>2024-09-20T10:27:32Z</time>
      </trkpt>
      <trkpt lat="42.44956" lon="2.64837">
        <ele>626</ele>
        <time>2024-09-20T10:27:41Z</time>
      </trkpt>
      <trkpt lat="42.44954" lon="2.64836">
        <ele>627</ele>
        <time>2024-09-20T10:27:47Z</time>
      </trkpt>
      <trkpt lat="42.4495" lon="2.64836">
        <ele>628</ele>
        <time>2024-09-20T10:27:56Z</time>
      </trkpt>
      <trkpt lat="42.44946" lon="2.64836">
        <ele>628</ele>
        <time>2024-09-20T10:28:02Z</time>
      </trkpt>
      <trkpt lat="42.44942" lon="2.64836">
        <ele>631</ele>
        <time>2024-09-20T10:28:10Z</time>
      </trkpt>
      <trkpt lat="42.44939" lon="2.64837">
        <ele>631</ele>
        <time>2024-09-20T10:28:16Z</time>
      </trkpt>
      <trkpt lat="42.44935" lon="2.64839">
        <ele>631</ele>
        <time>2024-09-20T10:28:22Z</time>
      </trkpt>
      <trkpt lat="42.44931" lon="2.6484">
        <ele>634</ele>
        <time>2024-09-20T10:28:28Z</time>
      </trkpt>
      <trkpt lat="42.44927" lon="2.64839">
        <ele>636</ele>
        <time>2024-09-20T10:28:34Z</time>
      </trkpt>
      <trkpt lat="42.44924" lon="2.6484">
        <ele>636</ele>
        <time>2024-09-20T10:29:01Z</time>
      </trkpt>
      <trkpt lat="42.44925" lon="2.64842">
        <ele>638</ele>
        <time>2024-09-20T10:29:21Z</time>
      </trkpt>
      <trkpt lat="42.44924" lon="2.64845">
        <ele>638</ele>
        <time>2024-09-20T10:29:27Z</time>
      </trkpt>
      <trkpt lat="42.44923" lon="2.64847">
        <ele>641</ele>
        <time>2024-09-20T10:29:36Z</time>
      </trkpt>
      <trkpt lat="42.4492" lon="2.6485">
        <ele>643</ele>
        <time>2024-09-20T10:29:42Z</time>
      </trkpt>
      <trkpt lat="42.44917" lon="2.64852">
        <ele>642</ele>
        <time>2024-09-20T10:29:45Z</time>
      </trkpt>
      <trkpt lat="42.44914" lon="2.64852">
        <ele>643</ele>
        <time>2024-09-20T10:29:51Z</time>
      </trkpt>
      <trkpt lat="42.44911" lon="2.64852">
        <ele>643</ele>
        <time>2024-09-20T10:29:54Z</time>
      </trkpt>
      <trkpt lat="42.44912" lon="2.64852">
        <ele>646</ele>
        <time>2024-09-20T10:30:08Z</time>
      </trkpt>
      <trkpt lat="42.44913" lon="2.64855">
        <ele>645</ele>
        <time>2024-09-20T10:30:13Z</time>
      </trkpt>
      <trkpt lat="42.44912" lon="2.64858">
        <ele>646</ele>
        <time>2024-09-20T10:30:19Z</time>
      </trkpt>
      <trkpt lat="42.4491" lon="2.6486">
        <ele>647</ele>
        <time>2024-09-20T10:30:24Z</time>
      </trkpt>
      <trkpt lat="42.44907" lon="2.64861">
        <ele>649</ele>
        <time>2024-09-20T10:30:28Z</time>
      </trkpt>
      <trkpt lat="42.44904" lon="2.64861">
        <ele>649</ele>
        <time>2024-09-20T10:30:33Z</time>
      </trkpt>
      <trkpt lat="42.44901" lon="2.64859">
        <ele>651</ele>
        <time>2024-09-20T10:30:42Z</time>
      </trkpt>
      <trkpt lat="42.449" lon="2.6486">
        <ele>652</ele>
        <time>2024-09-20T10:30:50Z</time>
      </trkpt>
      <trkpt lat="42.44896" lon="2.64862">
        <ele>655</ele>
        <time>2024-09-20T10:31:01Z</time>
      </trkpt>
      <trkpt lat="42.44894" lon="2.64863">
        <ele>655</ele>
        <time>2024-09-20T10:31:03Z</time>
      </trkpt>
      <trkpt lat="42.44894" lon="2.64866">
        <ele>657</ele>
        <time>2024-09-20T10:31:12Z</time>
      </trkpt>
      <trkpt lat="42.44896" lon="2.64868">
        <ele>657</ele>
        <time>2024-09-20T10:31:27Z</time>
      </trkpt>
      <trkpt lat="42.44897" lon="2.64871">
        <ele>657</ele>
        <time>2024-09-20T10:31:32Z</time>
      </trkpt>
      <trkpt lat="42.44896" lon="2.64874">
        <ele>659</ele>
        <time>2024-09-20T10:31:38Z</time>
      </trkpt>
      <trkpt lat="42.44894" lon="2.64875">
        <ele>660</ele>
        <time>2024-09-20T10:31:45Z</time>
      </trkpt>
      <trkpt lat="42.44891" lon="2.64875">
        <ele>661</ele>
        <time>2024-09-20T10:31:48Z</time>
      </trkpt>
      <trkpt lat="42.44889" lon="2.64876">
        <ele>662</ele>
        <time>2024-09-20T10:31:53Z</time>
      </trkpt>
      <trkpt lat="42.44887" lon="2.64878">
        <ele>662</ele>
        <time>2024-09-20T10:31:58Z</time>
      </trkpt>
      <trkpt lat="42.44888" lon="2.64879">
        <ele>662</ele>
        <time>2024-09-20T10:32:11Z</time>
      </trkpt>
      <trkpt lat="42.44889" lon="2.64882">
        <ele>662</ele>
        <time>2024-09-20T10:32:16Z</time>
      </trkpt>
      <trkpt lat="42.44891" lon="2.64884">
        <ele>662</ele>
        <time>2024-09-20T10:32:21Z</time>
      </trkpt>
      <trkpt lat="42.44894" lon="2.64885">
        <ele>665</ele>
        <time>2024-09-20T10:32:26Z</time>
      </trkpt>
      <trkpt lat="42.44896" lon="2.64888">
        <ele>664</ele>
        <time>2024-09-20T10:32:32Z</time>
      </trkpt>
      <trkpt lat="42.44898" lon="2.64891">
        <ele>665</ele>
        <time>2024-09-20T10:32:38Z</time>
      </trkpt>
      <trkpt lat="42.44901" lon="2.64892">
        <ele>665</ele>
        <time>2024-09-20T10:32:44Z</time>
      </trkpt>
      <trkpt lat="42.44903" lon="2.64894">
        <ele>664</ele>
        <time>2024-09-20T10:32:48Z</time>
      </trkpt>
      <trkpt lat="42.44904" lon="2.64897">
        <ele>665</ele>
        <time>2024-09-20T10:32:52Z</time>
      </trkpt>
      <trkpt lat="42.44903" lon="2.64901">
        <ele>664</ele>
        <time>2024-09-20T10:32:57Z</time>
      </trkpt>
      <trkpt lat="42.44903" lon="2.64904">
        <ele>664</ele>
        <time>2024-09-20T10:33:02Z</time>
      </trkpt>
      <trkpt lat="42.44904" lon="2.64908">
        <ele>666</ele>
        <time>2024-09-20T10:33:09Z</time>
      </trkpt>
      <trkpt lat="42.44906" lon="2.64911">
        <ele>666</ele>
        <time>2024-09-20T10:33:13Z</time>
      </trkpt>
      <trkpt lat="42.44905" lon="2.64913">
        <ele>665</ele>
        <time>2024-09-20T10:33:25Z</time>
      </trkpt>
      <trkpt lat="42.44903" lon="2.64914">
        <ele>665</ele>
        <time>2024-09-20T10:33:43Z</time>
      </trkpt>
      <trkpt lat="42.44901" lon="2.64915">
        <ele>667</ele>
        <time>2024-09-20T10:33:49Z</time>
      </trkpt>
      <trkpt lat="42.44899" lon="2.64918">
        <ele>667</ele>
        <time>2024-09-20T10:33:53Z</time>
      </trkpt>
      <trkpt lat="42.44897" lon="2.64922">
        <ele>667</ele>
        <time>2024-09-20T10:33:57Z</time>
      </trkpt>
      <trkpt lat="42.44896" lon="2.64925">
        <ele>668</ele>
        <time>2024-09-20T10:34:01Z</time>
      </trkpt>
      <trkpt lat="42.44893" lon="2.64927">
        <ele>666</ele>
        <time>2024-09-20T10:34:04Z</time>
      </trkpt>
      <trkpt lat="42.44891" lon="2.6493">
        <ele>669</ele>
        <time>2024-09-20T10:34:10Z</time>
      </trkpt>
      <trkpt lat="42.44889" lon="2.64933">
        <ele>670</ele>
        <time>2024-09-20T10:34:14Z</time>
      </trkpt>
      <trkpt lat="42.44887" lon="2.64936">
        <ele>671</ele>
        <time>2024-09-20T10:34:18Z</time>
      </trkpt>
      <trkpt lat="42.44884" lon="2.64939">
        <ele>671</ele>
        <time>2024-09-20T10:34:22Z</time>
      </trkpt>
      <trkpt lat="42.44882" lon="2.64944">
        <ele>670</ele>
        <time>2024-09-20T10:34:26Z</time>
      </trkpt>
      <trkpt lat="42.44879" lon="2.64947">
        <ele>672</ele>
        <time>2024-09-20T10:34:30Z</time>
      </trkpt>
      <trkpt lat="42.44877" lon="2.64949">
        <ele>672</ele>
        <time>2024-09-20T10:34:36Z</time>
      </trkpt>
      <trkpt lat="42.44874" lon="2.64952">
        <ele>673</ele>
        <time>2024-09-20T10:34:40Z</time>
      </trkpt>
      <trkpt lat="42.44872" lon="2.64954">
        <ele>674</ele>
        <time>2024-09-20T10:34:44Z</time>
      </trkpt>
      <trkpt lat="42.44869" lon="2.64955">
        <ele>676</ele>
        <time>2024-09-20T10:34:49Z</time>
      </trkpt>
      <trkpt lat="42.44866" lon="2.64956">
        <ele>677</ele>
        <time>2024-09-20T10:34:55Z</time>
      </trkpt>
      <trkpt lat="42.44863" lon="2.64955">
        <ele>678</ele>
        <time>2024-09-20T10:35:01Z</time>
      </trkpt>
      <trkpt lat="42.4486" lon="2.64956">
        <ele>679</ele>
        <time>2024-09-20T10:35:06Z</time>
      </trkpt>
      <trkpt lat="42.44858" lon="2.64957">
        <ele>680</ele>
        <time>2024-09-20T10:35:08Z</time>
      </trkpt>
      <trkpt lat="42.44855" lon="2.64958">
        <ele>679</ele>
        <time>2024-09-20T10:35:12Z</time>
      </trkpt>
      <trkpt lat="42.44852" lon="2.64958">
        <ele>681</ele>
        <time>2024-09-20T10:35:18Z</time>
      </trkpt>
      <trkpt lat="42.44849" lon="2.6496">
        <ele>681</ele>
        <time>2024-09-20T10:35:25Z</time>
      </trkpt>
      <trkpt lat="42.44846" lon="2.6496">
        <ele>682</ele>
        <time>2024-09-20T10:35:26Z</time>
      </trkpt>
      <trkpt lat="42.44843" lon="2.6496">
        <ele>683</ele>
        <time>2024-09-20T10:35:34Z</time>
      </trkpt>
      <trkpt lat="42.44841" lon="2.64961">
        <ele>683</ele>
        <time>2024-09-20T10:35:39Z</time>
      </trkpt>
      <trkpt lat="42.44838" lon="2.64962">
        <ele>683</ele>
        <time>2024-09-20T10:35:42Z</time>
      </trkpt>
      <trkpt lat="42.44835" lon="2.6496">
        <ele>685</ele>
        <time>2024-09-20T10:35:48Z</time>
      </trkpt>
      <trkpt lat="42.44832" lon="2.64959">
        <ele>685</ele>
        <time>2024-09-20T10:35:54Z</time>
      </trkpt>
      <trkpt lat="42.44829" lon="2.6496">
        <ele>687</ele>
        <time>2024-09-20T10:35:58Z</time>
      </trkpt>
      <trkpt lat="42.44827" lon="2.64962">
        <ele>691</ele>
        <time>2024-09-20T10:36:06Z</time>
      </trkpt>
      <trkpt lat="42.44824" lon="2.64963">
        <ele>690</ele>
        <time>2024-09-20T10:36:10Z</time>
      </trkpt>
      <trkpt lat="42.44821" lon="2.64965">
        <ele>692</ele>
        <time>2024-09-20T10:36:15Z</time>
      </trkpt>
      <trkpt lat="42.44818" lon="2.64967">
        <ele>693</ele>
        <time>2024-09-20T10:36:19Z</time>
      </trkpt>
      <trkpt lat="42.44815" lon="2.64969">
        <ele>694</ele>
        <time>2024-09-20T10:36:22Z</time>
      </trkpt>
      <trkpt lat="42.44814" lon="2.64972">
        <ele>696</ele>
        <time>2024-09-20T10:36:29Z</time>
      </trkpt>
      <trkpt lat="42.44812" lon="2.64975">
        <ele>697</ele>
        <time>2024-09-20T10:36:40Z</time>
      </trkpt>
      <trkpt lat="42.44809" lon="2.64976">
        <ele>698</ele>
        <time>2024-09-20T10:36:46Z</time>
      </trkpt>
      <trkpt lat="42.44807" lon="2.64978">
        <ele>698</ele>
        <time>2024-09-20T10:36:53Z</time>
      </trkpt>
      <trkpt lat="42.44806" lon="2.64981">
        <ele>699</ele>
        <time>2024-09-20T10:37:03Z</time>
      </trkpt>
      <trkpt lat="42.44804" lon="2.64984">
        <ele>700</ele>
        <time>2024-09-20T10:37:10Z</time>
      </trkpt>
      <trkpt lat="42.44801" lon="2.64985">
        <ele>700</ele>
        <time>2024-09-20T10:37:13Z</time>
      </trkpt>
      <trkpt lat="42.44801" lon="2.64989">
        <ele>698</ele>
        <time>2024-09-20T10:37:25Z</time>
      </trkpt>
      <trkpt lat="42.448" lon="2.64992">
        <ele>701</ele>
        <time>2024-09-20T10:37:30Z</time>
      </trkpt>
      <trkpt lat="42.44799" lon="2.64995">
        <ele>702</ele>
        <time>2024-09-20T10:37:34Z</time>
      </trkpt>
      <trkpt lat="42.44797" lon="2.64999">
        <ele>704</ele>
        <time>2024-09-20T10:37:42Z</time>
      </trkpt>
      <trkpt lat="42.44797" lon="2.65003">
        <ele>706</ele>
        <time>2024-09-20T10:37:50Z</time>
      </trkpt>
      <trkpt lat="42.44798" lon="2.65007">
        <ele>708</ele>
        <time>2024-09-20T10:37:56Z</time>
      </trkpt>
      <trkpt lat="42.44797" lon="2.65011">
        <ele>708</ele>
        <time>2024-09-20T10:38:01Z</time>
      </trkpt>
      <trkpt lat="42.44794" lon="2.65014">
        <ele>708</ele>
        <time>2024-09-20T10:38:04Z</time>
      </trkpt>
      <trkpt lat="42.44791" lon="2.65016">
        <ele>706</ele>
        <time>2024-09-20T10:38:07Z</time>
      </trkpt>
      <trkpt lat="42.44789" lon="2.65018">
        <ele>705</ele>
        <time>2024-09-20T10:38:11Z</time>
      </trkpt>
      <trkpt lat="42.44788" lon="2.65022">
        <ele>706</ele>
        <time>2024-09-20T10:38:14Z</time>
      </trkpt>
      <trkpt lat="42.44789" lon="2.65026">
        <ele>708</ele>
        <time>2024-09-20T10:38:19Z</time>
      </trkpt>
      <trkpt lat="42.44787" lon="2.65029">
        <ele>708</ele>
        <time>2024-09-20T10:38:23Z</time>
      </trkpt>
      <trkpt lat="42.44787" lon="2.65033">
        <ele>708</ele>
        <time>2024-09-20T10:38:28Z</time>
      </trkpt>
      <trkpt lat="42.44786" lon="2.65038">
        <ele>709</ele>
        <time>2024-09-20T10:38:34Z</time>
      </trkpt>
      <trkpt lat="42.44785" lon="2.65041">
        <ele>710</ele>
        <time>2024-09-20T10:38:39Z</time>
      </trkpt>
      <trkpt lat="42.44786" lon="2.65045">
        <ele>710</ele>
        <time>2024-09-20T10:38:43Z</time>
      </trkpt>
      <trkpt lat="42.44786" lon="2.65048">
        <ele>712</ele>
        <time>2024-09-20T10:38:52Z</time>
      </trkpt>
      <trkpt lat="42.44787" lon="2.65052">
        <ele>713</ele>
        <time>2024-09-20T10:38:58Z</time>
      </trkpt>
      <trkpt lat="42.44786" lon="2.65055">
        <ele>714</ele>
        <time>2024-09-20T10:39:08Z</time>
      </trkpt>
      <trkpt lat="42.44786" lon="2.65059">
        <ele>711</ele>
        <time>2024-09-20T10:39:10Z</time>
      </trkpt>
      <trkpt lat="42.44787" lon="2.65063">
        <ele>713</ele>
        <time>2024-09-20T10:39:14Z</time>
      </trkpt>
      <trkpt lat="42.44788" lon="2.65067">
        <ele>713</ele>
        <time>2024-09-20T10:39:18Z</time>
      </trkpt>
      <trkpt lat="42.44788" lon="2.6507">
        <ele>713</ele>
        <time>2024-09-20T10:39:23Z</time>
      </trkpt>
      <trkpt lat="42.4479" lon="2.65074">
        <ele>714</ele>
        <time>2024-09-20T10:39:27Z</time>
      </trkpt>
      <trkpt lat="42.44789" lon="2.65077">
        <ele>714</ele>
        <time>2024-09-20T10:39:34Z</time>
      </trkpt>
      <trkpt lat="42.44787" lon="2.65078">
        <ele>716</ele>
        <time>2024-09-20T10:39:40Z</time>
      </trkpt>
      <trkpt lat="42.44785" lon="2.65078">
        <ele>716</ele>
        <time>2024-09-20T10:39:42Z</time>
      </trkpt>
      <trkpt lat="42.44782" lon="2.65079">
        <ele>718</ele>
        <time>2024-09-20T10:39:45Z</time>
      </trkpt>
      <trkpt lat="42.4478" lon="2.65077">
        <ele>719</ele>
        <time>2024-09-20T10:39:52Z</time>
      </trkpt>
      <trkpt lat="42.44777" lon="2.65074">
        <ele>723</ele>
        <time>2024-09-20T10:40:00Z</time>
      </trkpt>
      <trkpt lat="42.44774" lon="2.65073">
        <ele>722</ele>
        <time>2024-09-20T10:40:02Z</time>
      </trkpt>
      <trkpt lat="42.44774" lon="2.65071">
        <ele>723</ele>
        <time>2024-09-20T10:40:10Z</time>
      </trkpt>
      <trkpt lat="42.44775" lon="2.65073">
        <ele>723</ele>
        <time>2024-09-20T10:40:17Z</time>
      </trkpt>
      <trkpt lat="42.44776" lon="2.65076">
        <ele>722</ele>
        <time>2024-09-20T10:40:22Z</time>
      </trkpt>
      <trkpt lat="42.44777" lon="2.65079">
        <ele>723</ele>
        <time>2024-09-20T10:40:26Z</time>
      </trkpt>
      <trkpt lat="42.44779" lon="2.65082">
        <ele>725</ele>
        <time>2024-09-20T10:40:31Z</time>
      </trkpt>
      <trkpt lat="42.4478" lon="2.65085">
        <ele>725</ele>
        <time>2024-09-20T10:40:36Z</time>
      </trkpt>
      <trkpt lat="42.44779" lon="2.65089">
        <ele>724</ele>
        <time>2024-09-20T10:40:40Z</time>
      </trkpt>
      <trkpt lat="42.44778" lon="2.65092">
        <ele>724</ele>
        <time>2024-09-20T10:40:47Z</time>
      </trkpt>
      <trkpt lat="42.44775" lon="2.65094">
        <ele>725</ele>
        <time>2024-09-20T10:40:53Z</time>
      </trkpt>
      <trkpt lat="42.44774" lon="2.65098">
        <ele>726</ele>
        <time>2024-09-20T10:41:00Z</time>
      </trkpt>
      <trkpt lat="42.44772" lon="2.65101">
        <ele>726</ele>
        <time>2024-09-20T10:41:06Z</time>
      </trkpt>
      <trkpt lat="42.44772" lon="2.65104">
        <ele>727</ele>
        <time>2024-09-20T10:41:11Z</time>
      </trkpt>
      <trkpt lat="42.44772" lon="2.65108">
        <ele>728</ele>
        <time>2024-09-20T10:41:17Z</time>
      </trkpt>
      <trkpt lat="42.4477" lon="2.65112">
        <ele>730</ele>
        <time>2024-09-20T10:41:23Z</time>
      </trkpt>
      <trkpt lat="42.4477" lon="2.65116">
        <ele>730</ele>
        <time>2024-09-20T10:41:28Z</time>
      </trkpt>
      <trkpt lat="42.44768" lon="2.6512">
        <ele>732</ele>
        <time>2024-09-20T10:41:42Z</time>
      </trkpt>
      <trkpt lat="42.44766" lon="2.65123">
        <ele>733</ele>
        <time>2024-09-20T10:41:50Z</time>
      </trkpt>
      <trkpt lat="42.44764" lon="2.65124">
        <ele>734</ele>
        <time>2024-09-20T10:41:55Z</time>
      </trkpt>
      <trkpt lat="42.44761" lon="2.65123">
        <ele>735</ele>
        <time>2024-09-20T10:41:58Z</time>
      </trkpt>
      <trkpt lat="42.44759" lon="2.65121">
        <ele>736</ele>
        <time>2024-09-20T10:42:05Z</time>
      </trkpt>
      <trkpt lat="42.44757" lon="2.65118">
        <ele>736</ele>
        <time>2024-09-20T10:42:09Z</time>
      </trkpt>
      <trkpt lat="42.44755" lon="2.65115">
        <ele>737</ele>
        <time>2024-09-20T10:42:16Z</time>
      </trkpt>
      <trkpt lat="42.44753" lon="2.65115">
        <ele>738</ele>
        <time>2024-09-20T10:42:24Z</time>
      </trkpt>
      <trkpt lat="42.44753" lon="2.65116">
        <ele>738</ele>
        <time>2024-09-20T10:42:28Z</time>
      </trkpt>
      <trkpt lat="42.44755" lon="2.65118">
        <ele>739</ele>
        <time>2024-09-20T10:42:34Z</time>
      </trkpt>
      <trkpt lat="42.44754" lon="2.65121">
        <ele>739</ele>
        <time>2024-09-20T10:42:40Z</time>
      </trkpt>
      <trkpt lat="42.44753" lon="2.65124">
        <ele>739</ele>
        <time>2024-09-20T10:42:45Z</time>
      </trkpt>
      <trkpt lat="42.44753" lon="2.65127">
        <ele>740</ele>
        <time>2024-09-20T10:42:52Z</time>
      </trkpt>
      <trkpt lat="42.44751" lon="2.6513">
        <ele>740</ele>
        <time>2024-09-20T10:42:59Z</time>
      </trkpt>
      <trkpt lat="42.44748" lon="2.65131">
        <ele>742</ele>
        <time>2024-09-20T10:43:07Z</time>
      </trkpt>
      <trkpt lat="42.44749" lon="2.65129">
        <ele>743</ele>
        <time>2024-09-20T10:43:11Z</time>
      </trkpt>
      <trkpt lat="42.44748" lon="2.65127">
        <ele>743</ele>
        <time>2024-09-20T10:43:13Z</time>
      </trkpt>
      <trkpt lat="42.44745" lon="2.65125">
        <ele>743</ele>
        <time>2024-09-20T10:43:18Z</time>
      </trkpt>
      <trkpt lat="42.44744" lon="2.65127">
        <ele>744</ele>
        <time>2024-09-20T10:43:27Z</time>
      </trkpt>
      <trkpt lat="42.44742" lon="2.65129">
        <ele>744</ele>
        <time>2024-09-20T10:43:32Z</time>
      </trkpt>
      <trkpt lat="42.44741" lon="2.65132">
        <ele>745</ele>
        <time>2024-09-20T10:43:39Z</time>
      </trkpt>
      <trkpt lat="42.44739" lon="2.65135">
        <ele>746</ele>
        <time>2024-09-20T10:43:45Z</time>
      </trkpt>
      <trkpt lat="42.44737" lon="2.65138">
        <ele>745</ele>
        <time>2024-09-20T10:43:50Z</time>
      </trkpt>
      <trkpt lat="42.44735" lon="2.6514">
        <ele>746</ele>
        <time>2024-09-20T10:43:55Z</time>
      </trkpt>
      <trkpt lat="42.44732" lon="2.65143">
        <ele>746</ele>
        <time>2024-09-20T10:44:01Z</time>
      </trkpt>
      <trkpt lat="42.4473" lon="2.65144">
        <ele>748</ele>
        <time>2024-09-20T10:44:07Z</time>
      </trkpt>
      <trkpt lat="42.44727" lon="2.65144">
        <ele>749</ele>
        <time>2024-09-20T10:44:10Z</time>
      </trkpt>
      <trkpt lat="42.44724" lon="2.65142">
        <ele>748</ele>
        <time>2024-09-20T10:44:18Z</time>
      </trkpt>
      <trkpt lat="42.44724" lon="2.65144">
        <ele>748</ele>
        <time>2024-09-20T10:44:33Z</time>
      </trkpt>
      <trkpt lat="42.44722" lon="2.65144">
        <ele>749</ele>
        <time>2024-09-20T10:44:40Z</time>
      </trkpt>
      <trkpt lat="42.44719" lon="2.65143">
        <ele>750</ele>
        <time>2024-09-20T10:44:43Z</time>
      </trkpt>
      <trkpt lat="42.44717" lon="2.65143">
        <ele>751</ele>
        <time>2024-09-20T10:44:47Z</time>
      </trkpt>
      <trkpt lat="42.44714" lon="2.65142">
        <ele>752</ele>
        <time>2024-09-20T10:44:51Z</time>
      </trkpt>
      <trkpt lat="42.44711" lon="2.65142">
        <ele>753</ele>
        <time>2024-09-20T10:44:56Z</time>
      </trkpt>
      <trkpt lat="42.44709" lon="2.65141">
        <ele>754</ele>
        <time>2024-09-20T10:45:01Z</time>
      </trkpt>
      <trkpt lat="42.44705" lon="2.65141">
        <ele>754</ele>
        <time>2024-09-20T10:45:07Z</time>
      </trkpt>
      <trkpt lat="42.44703" lon="2.65141">
        <ele>756</ele>
        <time>2024-09-20T10:45:14Z</time>
      </trkpt>
      <trkpt lat="42.447" lon="2.65141">
        <ele>756</ele>
        <time>2024-09-20T10:45:22Z</time>
      </trkpt>
      <trkpt lat="42.44696" lon="2.6514">
        <ele>757</ele>
        <time>2024-09-20T10:45:28Z</time>
      </trkpt>
      <trkpt lat="42.44693" lon="2.6514">
        <ele>757</ele>
        <time>2024-09-20T10:45:36Z</time>
      </trkpt>
      <trkpt lat="42.4469" lon="2.65142">
        <ele>755</ele>
        <time>2024-09-20T10:45:40Z</time>
      </trkpt>
      <trkpt lat="42.44688" lon="2.65145">
        <ele>756</ele>
        <time>2024-09-20T10:45:44Z</time>
      </trkpt>
      <trkpt lat="42.44686" lon="2.65147">
        <ele>757</ele>
        <time>2024-09-20T10:45:51Z</time>
      </trkpt>
      <trkpt lat="42.44683" lon="2.65149">
        <ele>757</ele>
        <time>2024-09-20T10:45:56Z</time>
      </trkpt>
      <trkpt lat="42.4468" lon="2.65151">
        <ele>760</ele>
        <time>2024-09-20T10:46:00Z</time>
      </trkpt>
      <trkpt lat="42.44678" lon="2.65154">
        <ele>760</ele>
        <time>2024-09-20T10:46:06Z</time>
      </trkpt>
      <trkpt lat="42.44676" lon="2.65157">
        <ele>762</ele>
        <time>2024-09-20T10:46:11Z</time>
      </trkpt>
      <trkpt lat="42.44673" lon="2.65159">
        <ele>763</ele>
        <time>2024-09-20T10:46:18Z</time>
      </trkpt>
      <trkpt lat="42.44671" lon="2.65161">
        <ele>766</ele>
        <time>2024-09-20T10:46:26Z</time>
      </trkpt>
      <trkpt lat="42.44668" lon="2.65162">
        <ele>766</ele>
        <time>2024-09-20T10:46:34Z</time>
      </trkpt>
      <trkpt lat="42.44665" lon="2.65165">
        <ele>767</ele>
        <time>2024-09-20T10:46:39Z</time>
      </trkpt>
      <trkpt lat="42.44663" lon="2.65168">
        <ele>768</ele>
        <time>2024-09-20T10:46:46Z</time>
      </trkpt>
      <trkpt lat="42.44661" lon="2.65171">
        <ele>768</ele>
        <time>2024-09-20T10:46:51Z</time>
      </trkpt>
      <trkpt lat="42.44659" lon="2.65173">
        <ele>770</ele>
        <time>2024-09-20T10:46:55Z</time>
      </trkpt>
      <trkpt lat="42.44658" lon="2.65176">
        <ele>770</ele>
        <time>2024-09-20T10:47:03Z</time>
      </trkpt>
      <trkpt lat="42.44659" lon="2.65179">
        <ele>772</ele>
        <time>2024-09-20T10:47:07Z</time>
      </trkpt>
      <trkpt lat="42.44661" lon="2.65183">
        <ele>773</ele>
        <time>2024-09-20T10:47:16Z</time>
      </trkpt>
      <trkpt lat="42.44661" lon="2.65186">
        <ele>773</ele>
        <time>2024-09-20T10:47:21Z</time>
      </trkpt>
      <trkpt lat="42.4466" lon="2.6519">
        <ele>774</ele>
        <time>2024-09-20T10:47:27Z</time>
      </trkpt>
      <trkpt lat="42.44659" lon="2.65194">
        <ele>774</ele>
        <time>2024-09-20T10:47:35Z</time>
      </trkpt>
      <trkpt lat="42.44657" lon="2.65196">
        <ele>775</ele>
        <time>2024-09-20T10:47:40Z</time>
      </trkpt>
      <trkpt lat="42.44657" lon="2.65199">
        <ele>775</ele>
        <time>2024-09-20T10:47:48Z</time>
      </trkpt>
      <trkpt lat="42.44655" lon="2.65201">
        <ele>777</ele>
        <time>2024-09-20T10:48:01Z</time>
      </trkpt>
      <trkpt lat="42.44652" lon="2.65202">
        <ele>779</ele>
        <time>2024-09-20T10:48:07Z</time>
      </trkpt>
      <trkpt lat="42.44652" lon="2.65205">
        <ele>781</ele>
        <time>2024-09-20T10:48:24Z</time>
      </trkpt>
      <trkpt lat="42.44653" lon="2.65208">
        <ele>780</ele>
        <time>2024-09-20T10:48:31Z</time>
      </trkpt>
      <trkpt lat="42.44653" lon="2.65211">
        <ele>780</ele>
        <time>2024-09-20T10:48:42Z</time>
      </trkpt>
      <trkpt lat="42.44655" lon="2.65214">
        <ele>779</ele>
        <time>2024-09-20T10:48:47Z</time>
      </trkpt>
      <trkpt lat="42.44654" lon="2.65217">
        <ele>778</ele>
        <time>2024-09-20T10:48:49Z</time>
      </trkpt>
      <trkpt lat="42.44653" lon="2.65221">
        <ele>779</ele>
        <time>2024-09-20T10:48:56Z</time>
      </trkpt>
      <trkpt lat="42.44653" lon="2.65225">
        <ele>780</ele>
        <time>2024-09-20T10:49:00Z</time>
      </trkpt>
      <trkpt lat="42.44653" lon="2.6523">
        <ele>780</ele>
        <time>2024-09-20T10:49:04Z</time>
      </trkpt>
      <trkpt lat="42.44653" lon="2.65234">
        <ele>780</ele>
        <time>2024-09-20T10:49:07Z</time>
      </trkpt>
      <trkpt lat="42.44653" lon="2.65238">
        <ele>780</ele>
        <time>2024-09-20T10:49:11Z</time>
      </trkpt>
      <trkpt lat="42.44651" lon="2.65242">
        <ele>782</ele>
        <time>2024-09-20T10:49:16Z</time>
      </trkpt>
      <trkpt lat="42.4465" lon="2.65246">
        <ele>783</ele>
        <time>2024-09-20T10:49:20Z</time>
      </trkpt>
      <trkpt lat="42.4465" lon="2.65249">
        <ele>783</ele>
        <time>2024-09-20T10:49:23Z</time>
      </trkpt>
      <trkpt lat="42.44651" lon="2.65253">
        <ele>784</ele>
        <time>2024-09-20T10:49:27Z</time>
      </trkpt>
      <trkpt lat="42.44651" lon="2.65257">
        <ele>783</ele>
        <time>2024-09-20T10:49:30Z</time>
      </trkpt>
      <trkpt lat="42.44651" lon="2.65261">
        <ele>784</ele>
        <time>2024-09-20T10:49:33Z</time>
      </trkpt>
      <trkpt lat="42.44651" lon="2.65265">
        <ele>785</ele>
        <time>2024-09-20T10:49:37Z</time>
      </trkpt>
      <trkpt lat="42.4465" lon="2.65268">
        <ele>786</ele>
        <time>2024-09-20T10:49:41Z</time>
      </trkpt>
      <trkpt lat="42.44649" lon="2.65272">
        <ele>787</ele>
        <time>2024-09-20T10:49:46Z</time>
      </trkpt>
      <trkpt lat="42.44648" lon="2.65276">
        <ele>788</ele>
        <time>2024-09-20T10:49:56Z</time>
      </trkpt>
      <trkpt lat="42.44647" lon="2.65281">
        <ele>788</ele>
        <time>2024-09-20T10:49:59Z</time>
      </trkpt>
      <trkpt lat="42.44646" lon="2.65284">
        <ele>788</ele>
        <time>2024-09-20T10:50:02Z</time>
      </trkpt>
      <trkpt lat="42.44644" lon="2.65287">
        <ele>788</ele>
        <time>2024-09-20T10:50:05Z</time>
      </trkpt>
      <trkpt lat="42.44642" lon="2.6529">
        <ele>787</ele>
        <time>2024-09-20T10:50:09Z</time>
      </trkpt>
      <trkpt lat="42.44639" lon="2.65293">
        <ele>787</ele>
        <time>2024-09-20T10:50:12Z</time>
      </trkpt>
      <trkpt lat="42.44637" lon="2.65296">
        <ele>787</ele>
        <time>2024-09-20T10:50:15Z</time>
      </trkpt>
      <trkpt lat="42.44634" lon="2.65299">
        <ele>788</ele>
        <time>2024-09-20T10:50:18Z</time>
      </trkpt>
      <trkpt lat="42.44633" lon="2.65304">
        <ele>789</ele>
        <time>2024-09-20T10:50:21Z</time>
      </trkpt>
      <trkpt lat="42.44631" lon="2.65306">
        <ele>789</ele>
        <time>2024-09-20T10:50:25Z</time>
      </trkpt>
      <trkpt lat="42.44628" lon="2.65309">
        <ele>792</ele>
        <time>2024-09-20T10:50:29Z</time>
      </trkpt>
      <trkpt lat="42.44626" lon="2.65314">
        <ele>791</ele>
        <time>2024-09-20T10:50:33Z</time>
      </trkpt>
      <trkpt lat="42.44624" lon="2.65317">
        <ele>791</ele>
        <time>2024-09-20T10:50:37Z</time>
      </trkpt>
      <trkpt lat="42.44621" lon="2.65319">
        <ele>791</ele>
        <time>2024-09-20T10:50:42Z</time>
      </trkpt>
      <trkpt lat="42.44619" lon="2.65321">
        <ele>792</ele>
        <time>2024-09-20T10:50:45Z</time>
      </trkpt>
      <trkpt lat="42.44617" lon="2.65324">
        <ele>794</ele>
        <time>2024-09-20T10:50:51Z</time>
      </trkpt>
      <trkpt lat="42.44615" lon="2.65327">
        <ele>796</ele>
        <time>2024-09-20T10:50:56Z</time>
      </trkpt>
      <trkpt lat="42.44613" lon="2.65331">
        <ele>797</ele>
        <time>2024-09-20T10:51:02Z</time>
      </trkpt>
      <trkpt lat="42.44611" lon="2.65333">
        <ele>797</ele>
        <time>2024-09-20T10:51:05Z</time>
      </trkpt>
      <trkpt lat="42.44609" lon="2.65336">
        <ele>797</ele>
        <time>2024-09-20T10:51:09Z</time>
      </trkpt>
      <trkpt lat="42.44606" lon="2.65339">
        <ele>798</ele>
        <time>2024-09-20T10:51:13Z</time>
      </trkpt>
      <trkpt lat="42.44604" lon="2.65342">
        <ele>799</ele>
        <time>2024-09-20T10:51:19Z</time>
      </trkpt>
      <trkpt lat="42.44603" lon="2.65345">
        <ele>797</ele>
        <time>2024-09-20T10:51:26Z</time>
      </trkpt>
      <trkpt lat="42.446" lon="2.65348">
        <ele>798</ele>
        <time>2024-09-20T10:51:29Z</time>
      </trkpt>
      <trkpt lat="42.44598" lon="2.65351">
        <ele>798</ele>
        <time>2024-09-20T10:51:33Z</time>
      </trkpt>
      <trkpt lat="42.44597" lon="2.65354">
        <ele>799</ele>
        <time>2024-09-20T10:51:38Z</time>
      </trkpt>
      <trkpt lat="42.44596" lon="2.65358">
        <ele>800</ele>
        <time>2024-09-20T10:51:44Z</time>
      </trkpt>
      <trkpt lat="42.44594" lon="2.65361">
        <ele>801</ele>
        <time>2024-09-20T10:51:48Z</time>
      </trkpt>
      <trkpt lat="42.44592" lon="2.65364">
        <ele>800</ele>
        <time>2024-09-20T10:51:51Z</time>
      </trkpt>
      <trkpt lat="42.4459" lon="2.65366">
        <ele>801</ele>
        <time>2024-09-20T10:51:53Z</time>
      </trkpt>
      <trkpt lat="42.44587" lon="2.65368">
        <ele>802</ele>
        <time>2024-09-20T10:52:01Z</time>
      </trkpt>
      <trkpt lat="42.44584" lon="2.65369">
        <ele>803</ele>
        <time>2024-09-20T10:52:04Z</time>
      </trkpt>
      <trkpt lat="42.44581" lon="2.6537">
        <ele>803</ele>
        <time>2024-09-20T10:52:07Z</time>
      </trkpt>
      <trkpt lat="42.44578" lon="2.65372">
        <ele>805</ele>
        <time>2024-09-20T10:52:10Z</time>
      </trkpt>
      <trkpt lat="42.44574" lon="2.65371">
        <ele>805</ele>
        <time>2024-09-20T10:52:14Z</time>
      </trkpt>
      <trkpt lat="42.4457" lon="2.6537">
        <ele>806</ele>
        <time>2024-09-20T10:52:19Z</time>
      </trkpt>
      <trkpt lat="42.44566" lon="2.65369">
        <ele>805</ele>
        <time>2024-09-20T10:52:22Z</time>
      </trkpt>
      <trkpt lat="42.44563" lon="2.65368">
        <ele>805</ele>
        <time>2024-09-20T10:52:25Z</time>
      </trkpt>
      <trkpt lat="42.4456" lon="2.65367">
        <ele>804</ele>
        <time>2024-09-20T10:52:28Z</time>
      </trkpt>
      <trkpt lat="42.44556" lon="2.65366">
        <ele>805</ele>
        <time>2024-09-20T10:52:30Z</time>
      </trkpt>
      <trkpt lat="42.44553" lon="2.65364">
        <ele>805</ele>
        <time>2024-09-20T10:52:34Z</time>
      </trkpt>
      <trkpt lat="42.4455" lon="2.65361">
        <ele>805</ele>
        <time>2024-09-20T10:52:38Z</time>
      </trkpt>
      <trkpt lat="42.44547" lon="2.6536">
        <ele>805</ele>
        <time>2024-09-20T10:52:40Z</time>
      </trkpt>
      <trkpt lat="42.44544" lon="2.6536">
        <ele>806</ele>
        <time>2024-09-20T10:52:42Z</time>
      </trkpt>
      <trkpt lat="42.44541" lon="2.65359">
        <ele>807</ele>
        <time>2024-09-20T10:52:46Z</time>
      </trkpt>
      <trkpt lat="42.44537" lon="2.65358">
        <ele>808</ele>
        <time>2024-09-20T10:52:49Z</time>
      </trkpt>
      <trkpt lat="42.44534" lon="2.65358">
        <ele>806</ele>
        <time>2024-09-20T10:52:52Z</time>
      </trkpt>
      <trkpt lat="42.4453" lon="2.65358">
        <ele>807</ele>
        <time>2024-09-20T10:52:55Z</time>
      </trkpt>
      <trkpt lat="42.44526" lon="2.65358">
        <ele>807</ele>
        <time>2024-09-20T10:52:58Z</time>
      </trkpt>
      <trkpt lat="42.44523" lon="2.65358">
        <ele>807</ele>
        <time>2024-09-20T10:53:02Z</time>
      </trkpt>
      <trkpt lat="42.4452" lon="2.65359">
        <ele>807</ele>
        <time>2024-09-20T10:53:05Z</time>
      </trkpt>
      <trkpt lat="42.44517" lon="2.6536">
        <ele>808</ele>
        <time>2024-09-20T10:53:08Z</time>
      </trkpt>
      <trkpt lat="42.44514" lon="2.65361">
        <ele>808</ele>
        <time>2024-09-20T10:53:10Z</time>
      </trkpt>
      <trkpt lat="42.44512" lon="2.65363">
        <ele>807</ele>
        <time>2024-09-20T10:53:12Z</time>
      </trkpt>
      <trkpt lat="42.44508" lon="2.65363">
        <ele>807</ele>
        <time>2024-09-20T10:53:15Z</time>
      </trkpt>
      <trkpt lat="42.44505" lon="2.65363">
        <ele>808</ele>
        <time>2024-09-20T10:53:18Z</time>
      </trkpt>
      <trkpt lat="42.44501" lon="2.65364">
        <ele>808</ele>
        <time>2024-09-20T10:53:21Z</time>
      </trkpt>
      <trkpt lat="42.44498" lon="2.65365">
        <ele>807</ele>
        <time>2024-09-20T10:53:23Z</time>
      </trkpt>
      <trkpt lat="42.44495" lon="2.65365">
        <ele>807</ele>
        <time>2024-09-20T10:53:25Z</time>
      </trkpt>
      <trkpt lat="42.44492" lon="2.65365">
        <ele>808</ele>
        <time>2024-09-20T10:53:28Z</time>
      </trkpt>
      <trkpt lat="42.44489" lon="2.65366">
        <ele>807</ele>
        <time>2024-09-20T10:53:30Z</time>
      </trkpt>
      <trkpt lat="42.44485" lon="2.65365">
        <ele>809</ele>
        <time>2024-09-20T10:53:33Z</time>
      </trkpt>
      <trkpt lat="42.44483" lon="2.65366">
        <ele>810</ele>
        <time>2024-09-20T10:53:36Z</time>
      </trkpt>
      <trkpt lat="42.44479" lon="2.65366">
        <ele>811</ele>
        <time>2024-09-20T10:53:39Z</time>
      </trkpt>
      <trkpt lat="42.44476" lon="2.65364">
        <ele>813</ele>
        <time>2024-09-20T10:53:44Z</time>
      </trkpt>
      <trkpt lat="42.44472" lon="2.65362">
        <ele>814</ele>
        <time>2024-09-20T10:53:47Z</time>
      </trkpt>
      <trkpt lat="42.44469" lon="2.65362">
        <ele>815</ele>
        <time>2024-09-20T10:53:51Z</time>
      </trkpt>
      <trkpt lat="42.44465" lon="2.65361">
        <ele>817</ele>
        <time>2024-09-20T10:53:54Z</time>
      </trkpt>
      <trkpt lat="42.44462" lon="2.6536">
        <ele>817</ele>
        <time>2024-09-20T10:53:57Z</time>
      </trkpt>
      <trkpt lat="42.44459" lon="2.65359">
        <ele>818</ele>
        <time>2024-09-20T10:54:03Z</time>
      </trkpt>
      <trkpt lat="42.44456" lon="2.65356">
        <ele>818</ele>
        <time>2024-09-20T10:54:05Z</time>
      </trkpt>
      <trkpt lat="42.44453" lon="2.65354">
        <ele>819</ele>
        <time>2024-09-20T10:54:09Z</time>
      </trkpt>
      <trkpt lat="42.4445" lon="2.65353">
        <ele>817</ele>
        <time>2024-09-20T10:54:10Z</time>
      </trkpt>
      <trkpt lat="42.44447" lon="2.65352">
        <ele>819</ele>
        <time>2024-09-20T10:54:12Z</time>
      </trkpt>
      <trkpt lat="42.44447" lon="2.65354">
        <ele>816</ele>
        <time>2024-09-20T10:54:22Z</time>
      </trkpt>
      <trkpt lat="42.44448" lon="2.65357">
        <ele>814</ele>
        <time>2024-09-20T10:54:23Z</time>
      </trkpt>
      <trkpt lat="42.44446" lon="2.65361">
        <ele>814</ele>
        <time>2024-09-20T10:54:28Z</time>
      </trkpt>
      <trkpt lat="42.44446" lon="2.65365">
        <ele>813</ele>
        <time>2024-09-20T10:54:31Z</time>
      </trkpt>
      <trkpt lat="42.44446" lon="2.6537">
        <ele>814</ele>
        <time>2024-09-20T10:54:34Z</time>
      </trkpt>
      <trkpt lat="42.44447" lon="2.65373">
        <ele>813</ele>
        <time>2024-09-20T10:54:37Z</time>
      </trkpt>
      <trkpt lat="42.44446" lon="2.65378">
        <ele>814</ele>
        <time>2024-09-20T10:54:40Z</time>
      </trkpt>
      <trkpt lat="42.44446" lon="2.65382">
        <ele>814</ele>
        <time>2024-09-20T10:54:42Z</time>
      </trkpt>
      <trkpt lat="42.44447" lon="2.65386">
        <ele>814</ele>
        <time>2024-09-20T10:54:46Z</time>
      </trkpt>
      <trkpt lat="42.44446" lon="2.6539">
        <ele>817</ele>
        <time>2024-09-20T10:54:50Z</time>
      </trkpt>
      <trkpt lat="42.44446" lon="2.65395">
        <ele>817</ele>
        <time>2024-09-20T10:54:56Z</time>
      </trkpt>
      <trkpt lat="42.44446" lon="2.65399">
        <ele>818</ele>
        <time>2024-09-20T10:54:58Z</time>
      </trkpt>
      <trkpt lat="42.44446" lon="2.65404">
        <ele>819</ele>
        <time>2024-09-20T10:55:00Z</time>
      </trkpt>
      <trkpt lat="42.44445" lon="2.65408">
        <ele>817</ele>
        <time>2024-09-20T10:55:03Z</time>
      </trkpt>
      <trkpt lat="42.44445" lon="2.65412">
        <ele>817</ele>
        <time>2024-09-20T10:55:06Z</time>
      </trkpt>
      <trkpt lat="42.44444" lon="2.65416">
        <ele>818</ele>
        <time>2024-09-20T10:55:10Z</time>
      </trkpt>
      <trkpt lat="42.44443" lon="2.65419">
        <ele>820</ele>
        <time>2024-09-20T10:55:13Z</time>
      </trkpt>
      <trkpt lat="42.44442" lon="2.65423">
        <ele>820</ele>
        <time>2024-09-20T10:55:17Z</time>
      </trkpt>
      <trkpt lat="42.44442" lon="2.65426">
        <ele>821</ele>
        <time>2024-09-20T10:55:20Z</time>
      </trkpt>
      <trkpt lat="42.44443" lon="2.6543">
        <ele>820</ele>
        <time>2024-09-20T10:55:23Z</time>
      </trkpt>
      <trkpt lat="42.44442" lon="2.65434">
        <ele>820</ele>
        <time>2024-09-20T10:55:27Z</time>
      </trkpt>
      <trkpt lat="42.44441" lon="2.65437">
        <ele>820</ele>
        <time>2024-09-20T10:55:29Z</time>
      </trkpt>
      <trkpt lat="42.44442" lon="2.65441">
        <ele>822</ele>
        <time>2024-09-20T10:55:32Z</time>
      </trkpt>
      <trkpt lat="42.44441" lon="2.65443">
        <ele>822</ele>
        <time>2024-09-20T10:55:37Z</time>
      </trkpt>
      <trkpt lat="42.4444" lon="2.65446">
        <ele>822</ele>
        <time>2024-09-20T10:55:41Z</time>
      </trkpt>
      <trkpt lat="42.44439" lon="2.6545">
        <ele>822</ele>
        <time>2024-09-20T10:55:45Z</time>
      </trkpt>
      <trkpt lat="42.44438" lon="2.65453">
        <ele>822</ele>
        <time>2024-09-20T10:55:49Z</time>
      </trkpt>
      <trkpt lat="42.44437" lon="2.65457">
        <ele>824</ele>
        <time>2024-09-20T10:55:54Z</time>
      </trkpt>
      <trkpt lat="42.44436" lon="2.65461">
        <ele>825</ele>
        <time>2024-09-20T10:56:00Z</time>
      </trkpt>
      <trkpt lat="42.44436" lon="2.65465">
        <ele>826</ele>
        <time>2024-09-20T10:56:05Z</time>
      </trkpt>
      <trkpt lat="42.44434" lon="2.65469">
        <ele>825</ele>
        <time>2024-09-20T10:56:09Z</time>
      </trkpt>
      <trkpt lat="42.44432" lon="2.65472">
        <ele>826</ele>
        <time>2024-09-20T10:56:13Z</time>
      </trkpt>
      <trkpt lat="42.44431" lon="2.65476">
        <ele>826</ele>
        <time>2024-09-20T10:56:17Z</time>
      </trkpt>
      <trkpt lat="42.44429" lon="2.6548">
        <ele>827</ele>
        <time>2024-09-20T10:56:23Z</time>
      </trkpt>
      <trkpt lat="42.44428" lon="2.65484">
        <ele>826</ele>
        <time>2024-09-20T10:56:28Z</time>
      </trkpt>
      <trkpt lat="42.44427" lon="2.65488">
        <ele>828</ele>
        <time>2024-09-20T10:56:32Z</time>
      </trkpt>
      <trkpt lat="42.44425" lon="2.65491">
        <ele>828</ele>
        <time>2024-09-20T10:56:36Z</time>
      </trkpt>
      <trkpt lat="42.44423" lon="2.65494">
        <ele>829</ele>
        <time>2024-09-20T10:56:43Z</time>
      </trkpt>
      <trkpt lat="42.4442" lon="2.65496">
        <ele>829</ele>
        <time>2024-09-20T10:56:44Z</time>
      </trkpt>
      <trkpt lat="42.44417" lon="2.65497">
        <ele>829</ele>
        <time>2024-09-20T10:56:50Z</time>
      </trkpt>
      <trkpt lat="42.44415" lon="2.655">
        <ele>831</ele>
        <time>2024-09-20T10:56:57Z</time>
      </trkpt>
      <trkpt lat="42.44412" lon="2.655">
        <ele>832</ele>
        <time>2024-09-20T10:57:02Z</time>
      </trkpt>
      <trkpt lat="42.44411" lon="2.65498">
        <ele>832</ele>
        <time>2024-09-20T10:57:08Z</time>
      </trkpt>
      <trkpt lat="42.4441" lon="2.65495">
        <ele>833</ele>
        <time>2024-09-20T10:57:13Z</time>
      </trkpt>
      <trkpt lat="42.44409" lon="2.65491">
        <ele>833</ele>
        <time>2024-09-20T10:57:18Z</time>
      </trkpt>
      <trkpt lat="42.44409" lon="2.65487">
        <ele>832</ele>
        <time>2024-09-20T10:57:23Z</time>
      </trkpt>
      <trkpt lat="42.44409" lon="2.65483">
        <ele>834</ele>
        <time>2024-09-20T10:57:28Z</time>
      </trkpt>
      <trkpt lat="42.44409" lon="2.65484">
        <ele>835</ele>
        <time>2024-09-20T10:57:42Z</time>
      </trkpt>
      <trkpt lat="42.44408" lon="2.65487">
        <ele>835</ele>
        <time>2024-09-20T10:57:48Z</time>
      </trkpt>
      <trkpt lat="42.44405" lon="2.65489">
        <ele>835</ele>
        <time>2024-09-20T10:57:53Z</time>
      </trkpt>
      <trkpt lat="42.44403" lon="2.65491">
        <ele>835</ele>
        <time>2024-09-20T10:57:57Z</time>
      </trkpt>
      <trkpt lat="42.444" lon="2.65494">
        <ele>835</ele>
        <time>2024-09-20T10:58:02Z</time>
      </trkpt>
      <trkpt lat="42.44398" lon="2.65496">
        <ele>838</ele>
        <time>2024-09-20T10:58:06Z</time>
      </trkpt>
      <trkpt lat="42.44394" lon="2.65497">
        <ele>837</ele>
        <time>2024-09-20T10:58:10Z</time>
      </trkpt>
      <trkpt lat="42.44391" lon="2.65499">
        <ele>837</ele>
        <time>2024-09-20T10:58:14Z</time>
      </trkpt>
      <trkpt lat="42.44389" lon="2.65501">
        <ele>839</ele>
        <time>2024-09-20T10:58:17Z</time>
      </trkpt>
      <trkpt lat="42.44386" lon="2.65501">
        <ele>839</ele>
        <time>2024-09-20T10:58:20Z</time>
      </trkpt>
      <trkpt lat="42.44383" lon="2.65501">
        <ele>841</ele>
        <time>2024-09-20T10:58:25Z</time>
      </trkpt>
      <trkpt lat="42.4438" lon="2.65499">
        <ele>842</ele>
        <time>2024-09-20T10:58:32Z</time>
      </trkpt>
      <trkpt lat="42.44377" lon="2.65499">
        <ele>843</ele>
        <time>2024-09-20T10:58:37Z</time>
      </trkpt>
      <trkpt lat="42.44375" lon="2.65501">
        <ele>844</ele>
        <time>2024-09-20T10:58:41Z</time>
      </trkpt>
      <trkpt lat="42.44372" lon="2.65502">
        <ele>843</ele>
        <time>2024-09-20T10:58:45Z</time>
      </trkpt>
      <trkpt lat="42.44369" lon="2.65502">
        <ele>843</ele>
        <time>2024-09-20T10:58:50Z</time>
      </trkpt>
      <trkpt lat="42.44367" lon="2.65504">
        <ele>843</ele>
        <time>2024-09-20T10:58:54Z</time>
      </trkpt>
      <trkpt lat="42.44364" lon="2.65504">
        <ele>842</ele>
        <time>2024-09-20T10:58:57Z</time>
      </trkpt>
      <trkpt lat="42.44361" lon="2.65506">
        <ele>841</ele>
        <time>2024-09-20T10:59:02Z</time>
      </trkpt>
      <trkpt lat="42.44358" lon="2.65508">
        <ele>842</ele>
        <time>2024-09-20T10:59:07Z</time>
      </trkpt>
      <trkpt lat="42.44355" lon="2.6551">
        <ele>843</ele>
        <time>2024-09-20T10:59:10Z</time>
      </trkpt>
      <trkpt lat="42.44353" lon="2.65512">
        <ele>843</ele>
        <time>2024-09-20T10:59:14Z</time>
      </trkpt>
      <trkpt lat="42.4435" lon="2.65514">
        <ele>844</ele>
        <time>2024-09-20T10:59:17Z</time>
      </trkpt>
      <trkpt lat="42.44347" lon="2.65515">
        <ele>845</ele>
        <time>2024-09-20T10:59:21Z</time>
      </trkpt>
      <trkpt lat="42.44344" lon="2.65516">
        <ele>845</ele>
        <time>2024-09-20T10:59:23Z</time>
      </trkpt>
      <trkpt lat="42.44341" lon="2.65516">
        <ele>846</ele>
        <time>2024-09-20T10:59:29Z</time>
      </trkpt>
      <trkpt lat="42.44338" lon="2.65518">
        <ele>847</ele>
        <time>2024-09-20T10:59:34Z</time>
      </trkpt>
      <trkpt lat="42.44336" lon="2.6552">
        <ele>848</ele>
        <time>2024-09-20T10:59:39Z</time>
      </trkpt>
      <trkpt lat="42.44333" lon="2.65522">
        <ele>848</ele>
        <time>2024-09-20T10:59:42Z</time>
      </trkpt>
      <trkpt lat="42.44331" lon="2.65524">
        <ele>849</ele>
        <time>2024-09-20T10:59:49Z</time>
      </trkpt>
      <trkpt lat="42.44328" lon="2.65526">
        <ele>850</ele>
        <time>2024-09-20T10:59:52Z</time>
      </trkpt>
      <trkpt lat="42.44326" lon="2.65528">
        <ele>850</ele>
        <time>2024-09-20T10:59:55Z</time>
      </trkpt>
      <trkpt lat="42.44323" lon="2.6553">
        <ele>852</ele>
        <time>2024-09-20T11:00:01Z</time>
      </trkpt>
      <trkpt lat="42.44321" lon="2.65531">
        <ele>853</ele>
        <time>2024-09-20T11:00:05Z</time>
      </trkpt>
      <trkpt lat="42.44317" lon="2.65531">
        <ele>852</ele>
        <time>2024-09-20T11:00:10Z</time>
      </trkpt>
      <trkpt lat="42.44314" lon="2.65532">
        <ele>851</ele>
        <time>2024-09-20T11:00:16Z</time>
      </trkpt>
      <trkpt lat="42.44311" lon="2.65534">
        <ele>851</ele>
        <time>2024-09-20T11:00:19Z</time>
      </trkpt>
      <trkpt lat="42.44308" lon="2.65536">
        <ele>851</ele>
        <time>2024-09-20T11:00:26Z</time>
      </trkpt>
      <trkpt lat="42.44305" lon="2.65538">
        <ele>852</ele>
        <time>2024-09-20T11:00:30Z</time>
      </trkpt>
      <trkpt lat="42.44302" lon="2.65538">
        <ele>854</ele>
        <time>2024-09-20T11:00:34Z</time>
      </trkpt>
      <trkpt lat="42.443" lon="2.65538">
        <ele>856</ele>
        <time>2024-09-20T11:00:41Z</time>
      </trkpt>
      <trkpt lat="42.44297" lon="2.65538">
        <ele>855</ele>
        <time>2024-09-20T11:00:53Z</time>
      </trkpt>
      <trkpt lat="42.44294" lon="2.65537">
        <ele>856</ele>
        <time>2024-09-20T11:00:59Z</time>
      </trkpt>
      <trkpt lat="42.44291" lon="2.65537">
        <ele>859</ele>
        <time>2024-09-20T11:01:06Z</time>
      </trkpt>
      <trkpt lat="42.44288" lon="2.65535">
        <ele>860</ele>
        <time>2024-09-20T11:01:12Z</time>
      </trkpt>
      <trkpt lat="42.44285" lon="2.65535">
        <ele>862</ele>
        <time>2024-09-20T11:01:19Z</time>
      </trkpt>
      <trkpt lat="42.44282" lon="2.65536">
        <ele>863</ele>
        <time>2024-09-20T11:01:24Z</time>
      </trkpt>
      <trkpt lat="42.44279" lon="2.65536">
        <ele>863</ele>
        <time>2024-09-20T11:01:30Z</time>
      </trkpt>
      <trkpt lat="42.44275" lon="2.65535">
        <ele>864</ele>
        <time>2024-09-20T11:01:36Z</time>
      </trkpt>
      <trkpt lat="42.44272" lon="2.65535">
        <ele>864</ele>
        <time>2024-09-20T11:01:39Z</time>
      </trkpt>
      <trkpt lat="42.44269" lon="2.65534">
        <ele>864</ele>
        <time>2024-09-20T11:01:42Z</time>
      </trkpt>
      <trkpt lat="42.44267" lon="2.65533">
        <ele>866</ele>
        <time>2024-09-20T11:01:44Z</time>
      </trkpt>
      <trkpt lat="42.44264" lon="2.65533">
        <ele>866</ele>
        <time>2024-09-20T11:01:49Z</time>
      </trkpt>
      <trkpt lat="42.44259" lon="2.65532">
        <ele>865</ele>
        <time>2024-09-20T11:01:54Z</time>
      </trkpt>
      <trkpt lat="42.44256" lon="2.65532">
        <ele>865</ele>
        <time>2024-09-20T11:01:57Z</time>
      </trkpt>
      <trkpt lat="42.44253" lon="2.65531">
        <ele>866</ele>
        <time>2024-09-20T11:01:59Z</time>
      </trkpt>
      <trkpt lat="42.44249" lon="2.6553">
        <ele>866</ele>
        <time>2024-09-20T11:02:03Z</time>
      </trkpt>
      <trkpt lat="42.44247" lon="2.65532">
        <ele>869</ele>
        <time>2024-09-20T11:02:08Z</time>
      </trkpt>
      <trkpt lat="42.44245" lon="2.65535">
        <ele>869</ele>
        <time>2024-09-20T11:02:11Z</time>
      </trkpt>
      <trkpt lat="42.44245" lon="2.65535">
        <ele>869</ele>
        <time>2024-09-20T11:02:19Z</time>
      </trkpt>
      <trkpt lat="42.44247" lon="2.65533">
        <ele>866</ele>
        <time>2024-09-20T11:02:24Z</time>
      </trkpt>
      <trkpt lat="42.44248" lon="2.65525">
        <ele>874</ele>
        <time>2024-09-20T11:02:49Z</time>
      </trkpt>
      <trkpt lat="42.44247" lon="2.65526">
        <ele>874</ele>
        <time>2024-09-20T11:02:52Z</time>
      </trkpt>
      <trkpt lat="42.44246" lon="2.65529">
        <ele>873</ele>
        <time>2024-09-20T11:02:54Z</time>
      </trkpt>
      <trkpt lat="42.44245" lon="2.65533">
        <ele>872</ele>
        <time>2024-09-20T11:02:57Z</time>
      </trkpt>
      <trkpt lat="42.44245" lon="2.65537">
        <ele>870</ele>
        <time>2024-09-20T11:03:01Z</time>
      </trkpt>
      <trkpt lat="42.44244" lon="2.65541">
        <ele>870</ele>
        <time>2024-09-20T11:03:09Z</time>
      </trkpt>
      <trkpt lat="42.44241" lon="2.65543">
        <ele>870</ele>
        <time>2024-09-20T11:03:13Z</time>
      </trkpt>
      <trkpt lat="42.44239" lon="2.65545">
        <ele>871</ele>
        <time>2024-09-20T11:03:18Z</time>
      </trkpt>
      <trkpt lat="42.44236" lon="2.65548">
        <ele>871</ele>
        <time>2024-09-20T11:03:23Z</time>
      </trkpt>
      <trkpt lat="42.44234" lon="2.65551">
        <ele>871</ele>
        <time>2024-09-20T11:03:27Z</time>
      </trkpt>
      <trkpt lat="42.44232" lon="2.65554">
        <ele>873</ele>
        <time>2024-09-20T11:03:32Z</time>
      </trkpt>
      <trkpt lat="42.44231" lon="2.65558">
        <ele>873</ele>
        <time>2024-09-20T11:03:37Z</time>
      </trkpt>
      <trkpt lat="42.44229" lon="2.65561">
        <ele>873</ele>
        <time>2024-09-20T11:03:43Z</time>
      </trkpt>
      <trkpt lat="42.44227" lon="2.65565">
        <ele>874</ele>
        <time>2024-09-20T11:03:51Z</time>
      </trkpt>
      <trkpt lat="42.44226" lon="2.65569">
        <ele>875</ele>
        <time>2024-09-20T11:03:54Z</time>
      </trkpt>
      <trkpt lat="42.44223" lon="2.65572">
        <ele>877</ele>
        <time>2024-09-20T11:04:02Z</time>
      </trkpt>
      <trkpt lat="42.44222" lon="2.65576">
        <ele>878</ele>
        <time>2024-09-20T11:04:11Z</time>
      </trkpt>
      <trkpt lat="42.44221" lon="2.6558">
        <ele>878</ele>
        <time>2024-09-20T11:04:20Z</time>
      </trkpt>
      <trkpt lat="42.44222" lon="2.65583">
        <ele>879</ele>
        <time>2024-09-20T11:04:23Z</time>
      </trkpt>
      <trkpt lat="42.44223" lon="2.65587">
        <ele>879</ele>
        <time>2024-09-20T11:04:27Z</time>
      </trkpt>
      <trkpt lat="42.44222" lon="2.65592">
        <ele>880</ele>
        <time>2024-09-20T11:04:31Z</time>
      </trkpt>
      <trkpt lat="42.44222" lon="2.65597">
        <ele>880</ele>
        <time>2024-09-20T11:04:35Z</time>
      </trkpt>
      <trkpt lat="42.44224" lon="2.65601">
        <ele>881</ele>
        <time>2024-09-20T11:04:38Z</time>
      </trkpt>
      <trkpt lat="42.44226" lon="2.65605">
        <ele>882</ele>
        <time>2024-09-20T11:04:42Z</time>
      </trkpt>
      <trkpt lat="42.44226" lon="2.65609">
        <ele>881</ele>
        <time>2024-09-20T11:04:45Z</time>
      </trkpt>
      <trkpt lat="42.44227" lon="2.65614">
        <ele>881</ele>
        <time>2024-09-20T11:04:49Z</time>
      </trkpt>
      <trkpt lat="42.44226" lon="2.65618">
        <ele>882</ele>
        <time>2024-09-20T11:04:53Z</time>
      </trkpt>
      <trkpt lat="42.44226" lon="2.65622">
        <ele>882</ele>
        <time>2024-09-20T11:04:57Z</time>
      </trkpt>
      <trkpt lat="42.44226" lon="2.65626">
        <ele>883</ele>
        <time>2024-09-20T11:05:02Z</time>
      </trkpt>
      <trkpt lat="42.44224" lon="2.6563">
        <ele>883</ele>
        <time>2024-09-20T11:05:05Z</time>
      </trkpt>
      <trkpt lat="42.44223" lon="2.65633">
        <ele>884</ele>
        <time>2024-09-20T11:05:08Z</time>
      </trkpt>
      <trkpt lat="42.44224" lon="2.65636">
        <ele>885</ele>
        <time>2024-09-20T11:05:12Z</time>
      </trkpt>
      <trkpt lat="42.44226" lon="2.65639">
        <ele>887</ele>
        <time>2024-09-20T11:05:18Z</time>
      </trkpt>
      <trkpt lat="42.44228" lon="2.65641">
        <ele>886</ele>
        <time>2024-09-20T11:05:19Z</time>
      </trkpt>
      <trkpt lat="42.44228" lon="2.65644">
        <ele>888</ele>
        <time>2024-09-20T11:05:23Z</time>
      </trkpt>
      <trkpt lat="42.44228" lon="2.65648">
        <ele>889</ele>
        <time>2024-09-20T11:05:27Z</time>
      </trkpt>
      <trkpt lat="42.44227" lon="2.65652">
        <ele>888</ele>
        <time>2024-09-20T11:05:30Z</time>
      </trkpt>
      <trkpt lat="42.44225" lon="2.65655">
        <ele>888</ele>
        <time>2024-09-20T11:05:36Z</time>
      </trkpt>
      <trkpt lat="42.44224" lon="2.65659">
        <ele>890</ele>
        <time>2024-09-20T11:05:41Z</time>
      </trkpt>
      <trkpt lat="42.44222" lon="2.65662">
        <ele>892</ele>
        <time>2024-09-20T11:05:52Z</time>
      </trkpt>
      <trkpt lat="42.44222" lon="2.65666">
        <ele>893</ele>
        <time>2024-09-20T11:05:56Z</time>
      </trkpt>
      <trkpt lat="42.44223" lon="2.6567">
        <ele>894</ele>
        <time>2024-09-20T11:06:02Z</time>
      </trkpt>
      <trkpt lat="42.44221" lon="2.65673">
        <ele>894</ele>
        <time>2024-09-20T11:06:08Z</time>
      </trkpt>
      <trkpt lat="42.44219" lon="2.65676">
        <ele>895</ele>
        <time>2024-09-20T11:06:12Z</time>
      </trkpt>
      <trkpt lat="42.44219" lon="2.65679">
        <ele>897</ele>
        <time>2024-09-20T11:06:18Z</time>
      </trkpt>
      <trkpt lat="42.44219" lon="2.65683">
        <ele>897</ele>
        <time>2024-09-20T11:06:22Z</time>
      </trkpt>
      <trkpt lat="42.44217" lon="2.65686">
        <ele>897</ele>
        <time>2024-09-20T11:06:25Z</time>
      </trkpt>
      <trkpt lat="42.44215" lon="2.65689">
        <ele>899</ele>
        <time>2024-09-20T11:06:32Z</time>
      </trkpt>
      <trkpt lat="42.44213" lon="2.65692">
        <ele>900</ele>
        <time>2024-09-20T11:06:36Z</time>
      </trkpt>
      <trkpt lat="42.4421" lon="2.65696">
        <ele>900</ele>
        <time>2024-09-20T11:06:39Z</time>
      </trkpt>
      <trkpt lat="42.44208" lon="2.65698">
        <ele>900</ele>
        <time>2024-09-20T11:06:42Z</time>
      </trkpt>
      <trkpt lat="42.44205" lon="2.65699">
        <ele>899</ele>
        <time>2024-09-20T11:06:45Z</time>
      </trkpt>
      <trkpt lat="42.44203" lon="2.65701">
        <ele>900</ele>
        <time>2024-09-20T11:06:50Z</time>
      </trkpt>
      <trkpt lat="42.442" lon="2.65704">
        <ele>901</ele>
        <time>2024-09-20T11:07:01Z</time>
      </trkpt>
      <trkpt lat="42.44196" lon="2.65705">
        <ele>901</ele>
        <time>2024-09-20T11:07:20Z</time>
      </trkpt>
      <trkpt lat="42.44194" lon="2.65705">
        <ele>902</ele>
        <time>2024-09-20T11:08:00Z</time>
      </trkpt>
      <trkpt lat="42.44191" lon="2.65706">
        <ele>902</ele>
        <time>2024-09-20T11:08:03Z</time>
      </trkpt>
      <trkpt lat="42.44188" lon="2.65708">
        <ele>902</ele>
        <time>2024-09-20T11:08:06Z</time>
      </trkpt>
      <trkpt lat="42.44187" lon="2.6571">
        <ele>899</ele>
        <time>2024-09-20T11:08:35Z</time>
      </trkpt>
      <trkpt lat="42.44185" lon="2.65713">
        <ele>899</ele>
        <time>2024-09-20T11:08:39Z</time>
      </trkpt>
      <trkpt lat="42.44182" lon="2.65714">
        <ele>899</ele>
        <time>2024-09-20T11:08:42Z</time>
      </trkpt>
      <trkpt lat="42.44181" lon="2.65712">
        <ele>897</ele>
        <time>2024-09-20T11:08:43Z</time>
      </trkpt>
      <trkpt lat="42.44183" lon="2.65712">
        <ele>900</ele>
        <time>2024-09-20T11:09:15Z</time>
      </trkpt>
      <trkpt lat="42.44182" lon="2.65712">
        <ele>901</ele>
        <time>2024-09-20T11:09:43Z</time>
      </trkpt>
      <trkpt lat="42.44181" lon="2.65714">
        <ele>903</ele>
        <time>2024-09-20T11:11:49Z</time>
      </trkpt>
      <trkpt lat="42.44182" lon="2.65713">
        <ele>902</ele>
        <time>2024-09-20T11:12:02Z</time>
      </trkpt>
      <trkpt lat="42.44181" lon="2.65712">
        <ele>900</ele>
        <time>2024-09-20T11:12:20Z</time>
      </trkpt>
      <trkpt lat="42.44182" lon="2.65712">
        <ele>896</ele>
        <time>2024-09-20T11:13:14Z</time>
      </trkpt>
      <trkpt lat="42.4418" lon="2.65711">
        <ele>900</ele>
        <time>2024-09-20T11:13:33Z</time>
      </trkpt>
      <trkpt lat="42.44181" lon="2.65712">
        <ele>897</ele>
        <time>2024-09-20T11:14:57Z</time>
      </trkpt>
      <trkpt lat="42.4418" lon="2.6571">
        <ele>900</ele>
        <time>2024-09-20T11:15:40Z</time>
      </trkpt>
      <trkpt lat="42.44181" lon="2.65711">
        <ele>898</ele>
        <time>2024-09-20T11:16:36Z</time>
      </trkpt>
      <trkpt lat="42.4418" lon="2.65711">
        <ele>899</ele>
        <time>2024-09-20T11:16:40Z</time>
      </trkpt>
      <trkpt lat="42.44181" lon="2.65711">
        <ele>895</ele>
        <time>2024-09-20T11:16:54Z</time>
      </trkpt>
      <trkpt lat="42.44181" lon="2.65709">
        <ele>898</ele>
        <time>2024-09-20T11:17:17Z</time>
      </trkpt>
      <trkpt lat="42.4418" lon="2.65711">
        <ele>899</ele>
        <time>2024-09-20T11:24:38Z</time>
      </trkpt>
      <trkpt lat="42.44179" lon="2.65709">
        <ele>901</ele>
        <time>2024-09-20T11:28:52Z</time>
      </trkpt>
      <trkpt lat="42.44179" lon="2.65711">
        <ele>897</ele>
        <time>2024-09-20T11:31:20Z</time>
      </trkpt>
      <trkpt lat="42.44177" lon="2.65712">
        <ele>901</ele>
        <time>2024-09-20T11:34:30Z</time>
      </trkpt>
      <trkpt lat="42.44178" lon="2.65712">
        <ele>900</ele>
        <time>2024-09-20T11:34:41Z</time>
      </trkpt>
      <trkpt lat="42.4418" lon="2.65712">
        <ele>898</ele>
        <time>2024-09-20T11:34:49Z</time>
      </trkpt>
      <trkpt lat="42.44178" lon="2.65714">
        <ele>898</ele>
        <time>2024-09-20T11:35:52Z</time>
      </trkpt>
      <trkpt lat="42.44177" lon="2.65712">
        <ele>899</ele>
        <time>2024-09-20T11:41:01Z</time>
      </trkpt>
      <trkpt lat="42.44178" lon="2.65713">
        <ele>902</ele>
        <time>2024-09-20T11:41:41Z</time>
      </trkpt>
      <trkpt lat="42.44178" lon="2.65711">
        <ele>901</ele>
        <time>2024-09-20T11:42:38Z</time>
      </trkpt>
      <trkpt lat="42.44179" lon="2.65713">
        <ele>901</ele>
        <time>2024-09-20T11:42:46Z</time>
      </trkpt>
      <trkpt lat="42.44178" lon="2.65714">
        <ele>899</ele>
        <time>2024-09-20T11:43:43Z</time>
      </trkpt>
      <trkpt lat="42.44175" lon="2.65715">
        <ele>896</ele>
        <time>2024-09-20T11:44:10Z</time>
      </trkpt>
      <trkpt lat="42.44173" lon="2.65716">
        <ele>897</ele>
        <time>2024-09-20T11:44:12Z</time>
      </trkpt>
      <trkpt lat="42.4417" lon="2.65717">
        <ele>896</ele>
        <time>2024-09-20T11:44:16Z</time>
      </trkpt>
      <trkpt lat="42.44168" lon="2.6572">
        <ele>897</ele>
        <time>2024-09-20T11:44:22Z</time>
      </trkpt>
      <trkpt lat="42.44165" lon="2.65721">
        <ele>897</ele>
        <time>2024-09-20T11:44:24Z</time>
      </trkpt>
      <trkpt lat="42.44162" lon="2.65722">
        <ele>896</ele>
        <time>2024-09-20T11:44:27Z</time>
      </trkpt>
      <trkpt lat="42.44159" lon="2.65722">
        <ele>896</ele>
        <time>2024-09-20T11:44:30Z</time>
      </trkpt>
      <trkpt lat="42.44156" lon="2.65723">
        <ele>896</ele>
        <time>2024-09-20T11:44:33Z</time>
      </trkpt>
      <trkpt lat="42.44153" lon="2.65722">
        <ele>896</ele>
        <time>2024-09-20T11:44:36Z</time>
      </trkpt>
      <trkpt lat="42.44151" lon="2.6572">
        <ele>892</ele>
        <time>2024-09-20T11:44:43Z</time>
      </trkpt>
      <trkpt lat="42.44148" lon="2.6572">
        <ele>895</ele>
        <time>2024-09-20T11:44:45Z</time>
      </trkpt>
      <trkpt lat="42.44145" lon="2.65719">
        <ele>894</ele>
        <time>2024-09-20T11:44:48Z</time>
      </trkpt>
      <trkpt lat="42.44141" lon="2.65719">
        <ele>893</ele>
        <time>2024-09-20T11:44:52Z</time>
      </trkpt>
      <trkpt lat="42.44138" lon="2.65721">
        <ele>891</ele>
        <time>2024-09-20T11:44:57Z</time>
      </trkpt>
      <trkpt lat="42.44134" lon="2.65722">
        <ele>892</ele>
        <time>2024-09-20T11:45:01Z</time>
      </trkpt>
      <trkpt lat="42.4413" lon="2.65723">
        <ele>892</ele>
        <time>2024-09-20T11:45:04Z</time>
      </trkpt>
      <trkpt lat="42.44127" lon="2.65722">
        <ele>892</ele>
        <time>2024-09-20T11:45:10Z</time>
      </trkpt>
      <trkpt lat="42.44123" lon="2.65721">
        <ele>891</ele>
        <time>2024-09-20T11:45:14Z</time>
      </trkpt>
      <trkpt lat="42.4412" lon="2.65721">
        <ele>891</ele>
        <time>2024-09-20T11:45:18Z</time>
      </trkpt>
      <trkpt lat="42.44117" lon="2.65721">
        <ele>891</ele>
        <time>2024-09-20T11:45:19Z</time>
      </trkpt>
      <trkpt lat="42.44113" lon="2.6572">
        <ele>890</ele>
        <time>2024-09-20T11:45:24Z</time>
      </trkpt>
      <trkpt lat="42.4411" lon="2.65719">
        <ele>889</ele>
        <time>2024-09-20T11:45:28Z</time>
      </trkpt>
      <trkpt lat="42.44107" lon="2.65719">
        <ele>888</ele>
        <time>2024-09-20T11:45:31Z</time>
      </trkpt>
      <trkpt lat="42.44103" lon="2.6572">
        <ele>889</ele>
        <time>2024-09-20T11:45:34Z</time>
      </trkpt>
      <trkpt lat="42.441" lon="2.65721">
        <ele>889</ele>
        <time>2024-09-20T11:45:37Z</time>
      </trkpt>
      <trkpt lat="42.44097" lon="2.6572">
        <ele>889</ele>
        <time>2024-09-20T11:45:40Z</time>
      </trkpt>
      <trkpt lat="42.44094" lon="2.65721">
        <ele>889</ele>
        <time>2024-09-20T11:45:44Z</time>
      </trkpt>
      <trkpt lat="42.44091" lon="2.65724">
        <ele>890</ele>
        <time>2024-09-20T11:45:47Z</time>
      </trkpt>
      <trkpt lat="42.44088" lon="2.65725">
        <ele>888</ele>
        <time>2024-09-20T11:45:49Z</time>
      </trkpt>
      <trkpt lat="42.44085" lon="2.65726">
        <ele>887</ele>
        <time>2024-09-20T11:45:51Z</time>
      </trkpt>
      <trkpt lat="42.44082" lon="2.65726">
        <ele>888</ele>
        <time>2024-09-20T11:45:55Z</time>
      </trkpt>
      <trkpt lat="42.44079" lon="2.65727">
        <ele>889</ele>
        <time>2024-09-20T11:45:59Z</time>
      </trkpt>
      <trkpt lat="42.44075" lon="2.65726">
        <ele>888</ele>
        <time>2024-09-20T11:46:02Z</time>
      </trkpt>
      <trkpt lat="42.44072" lon="2.65726">
        <ele>887</ele>
        <time>2024-09-20T11:46:05Z</time>
      </trkpt>
      <trkpt lat="42.4407" lon="2.65728">
        <ele>887</ele>
        <time>2024-09-20T11:46:07Z</time>
      </trkpt>
      <trkpt lat="42.44068" lon="2.6573">
        <ele>887</ele>
        <time>2024-09-20T11:46:08Z</time>
      </trkpt>
      <trkpt lat="42.44065" lon="2.65732">
        <ele>886</ele>
        <time>2024-09-20T11:46:12Z</time>
      </trkpt>
      <trkpt lat="42.44062" lon="2.65734">
        <ele>885</ele>
        <time>2024-09-20T11:46:15Z</time>
      </trkpt>
      <trkpt lat="42.44059" lon="2.65734">
        <ele>884</ele>
        <time>2024-09-20T11:46:19Z</time>
      </trkpt>
      <trkpt lat="42.44057" lon="2.65734">
        <ele>884</ele>
        <time>2024-09-20T11:46:24Z</time>
      </trkpt>
      <trkpt lat="42.44054" lon="2.65736">
        <ele>884</ele>
        <time>2024-09-20T11:46:27Z</time>
      </trkpt>
      <trkpt lat="42.44052" lon="2.65738">
        <ele>885</ele>
        <time>2024-09-20T11:46:29Z</time>
      </trkpt>
      <trkpt lat="42.44049" lon="2.6574">
        <ele>883</ele>
        <time>2024-09-20T11:46:32Z</time>
      </trkpt>
      <trkpt lat="42.44047" lon="2.65741">
        <ele>883</ele>
        <time>2024-09-20T11:46:34Z</time>
      </trkpt>
      <trkpt lat="42.44044" lon="2.65743">
        <ele>881</ele>
        <time>2024-09-20T11:46:37Z</time>
      </trkpt>
      <trkpt lat="42.44041" lon="2.65745">
        <ele>879</ele>
        <time>2024-09-20T11:46:39Z</time>
      </trkpt>
      <trkpt lat="42.4404" lon="2.65748">
        <ele>880</ele>
        <time>2024-09-20T11:46:40Z</time>
      </trkpt>
      <trkpt lat="42.44037" lon="2.65749">
        <ele>877</ele>
        <time>2024-09-20T11:46:43Z</time>
      </trkpt>
      <trkpt lat="42.44034" lon="2.6575">
        <ele>877</ele>
        <time>2024-09-20T11:46:46Z</time>
      </trkpt>
      <trkpt lat="42.4403" lon="2.65751">
        <ele>876</ele>
        <time>2024-09-20T11:46:50Z</time>
      </trkpt>
      <trkpt lat="42.44027" lon="2.65752">
        <ele>876</ele>
        <time>2024-09-20T11:46:53Z</time>
      </trkpt>
      <trkpt lat="42.44024" lon="2.65753">
        <ele>873</ele>
        <time>2024-09-20T11:46:56Z</time>
      </trkpt>
      <trkpt lat="42.44021" lon="2.65754">
        <ele>873</ele>
        <time>2024-09-20T11:46:58Z</time>
      </trkpt>
      <trkpt lat="42.44018" lon="2.65755">
        <ele>873</ele>
        <time>2024-09-20T11:47:00Z</time>
      </trkpt>
      <trkpt lat="42.44016" lon="2.65756">
        <ele>873</ele>
        <time>2024-09-20T11:47:02Z</time>
      </trkpt>
      <trkpt lat="42.44013" lon="2.65757">
        <ele>874</ele>
        <time>2024-09-20T11:47:04Z</time>
      </trkpt>
      <trkpt lat="42.4401" lon="2.65758">
        <ele>876</ele>
        <time>2024-09-20T11:47:06Z</time>
      </trkpt>
      <trkpt lat="42.44007" lon="2.6576">
        <ele>877</ele>
        <time>2024-09-20T11:47:08Z</time>
      </trkpt>
      <trkpt lat="42.44004" lon="2.65762">
        <ele>877</ele>
        <time>2024-09-20T11:47:11Z</time>
      </trkpt>
      <trkpt lat="42.44002" lon="2.65765">
        <ele>876</ele>
        <time>2024-09-20T11:47:15Z</time>
      </trkpt>
      <trkpt lat="42.43999" lon="2.65767">
        <ele>875</ele>
        <time>2024-09-20T11:47:18Z</time>
      </trkpt>
      <trkpt lat="42.43997" lon="2.6577">
        <ele>874</ele>
        <time>2024-09-20T11:47:21Z</time>
      </trkpt>
      <trkpt lat="42.43994" lon="2.65774">
        <ele>876</ele>
        <time>2024-09-20T11:47:24Z</time>
      </trkpt>
      <trkpt lat="42.43992" lon="2.65777">
        <ele>873</ele>
        <time>2024-09-20T11:47:27Z</time>
      </trkpt>
      <trkpt lat="42.43991" lon="2.65781">
        <ele>870</ele>
        <time>2024-09-20T11:47:29Z</time>
      </trkpt>
      <trkpt lat="42.4399" lon="2.65785">
        <ele>871</ele>
        <time>2024-09-20T11:47:31Z</time>
      </trkpt>
      <trkpt lat="42.43989" lon="2.65789">
        <ele>871</ele>
        <time>2024-09-20T11:47:35Z</time>
      </trkpt>
      <trkpt lat="42.43989" lon="2.65794">
        <ele>868</ele>
        <time>2024-09-20T11:47:39Z</time>
      </trkpt>
      <trkpt lat="42.43989" lon="2.65797">
        <ele>868</ele>
        <time>2024-09-20T11:47:42Z</time>
      </trkpt>
      <trkpt lat="42.43988" lon="2.65801">
        <ele>868</ele>
        <time>2024-09-20T11:47:44Z</time>
      </trkpt>
      <trkpt lat="42.43986" lon="2.65804">
        <ele>868</ele>
        <time>2024-09-20T11:47:47Z</time>
      </trkpt>
      <trkpt lat="42.43984" lon="2.65806">
        <ele>868</ele>
        <time>2024-09-20T11:47:51Z</time>
      </trkpt>
      <trkpt lat="42.4398" lon="2.65807">
        <ele>868</ele>
        <time>2024-09-20T11:47:53Z</time>
      </trkpt>
      <trkpt lat="42.43976" lon="2.65808">
        <ele>867</ele>
        <time>2024-09-20T11:47:58Z</time>
      </trkpt>
      <trkpt lat="42.43973" lon="2.65808">
        <ele>867</ele>
        <time>2024-09-20T11:48:03Z</time>
      </trkpt>
      <trkpt lat="42.43969" lon="2.6581">
        <ele>866</ele>
        <time>2024-09-20T11:48:06Z</time>
      </trkpt>
      <trkpt lat="42.43965" lon="2.65811">
        <ele>868</ele>
        <time>2024-09-20T11:48:11Z</time>
      </trkpt>
      <trkpt lat="42.43962" lon="2.65813">
        <ele>869</ele>
        <time>2024-09-20T11:48:13Z</time>
      </trkpt>
      <trkpt lat="42.4396" lon="2.65814">
        <ele>869</ele>
        <time>2024-09-20T11:48:16Z</time>
      </trkpt>
      <trkpt lat="42.43957" lon="2.65815">
        <ele>870</ele>
        <time>2024-09-20T11:48:18Z</time>
      </trkpt>
      <trkpt lat="42.43954" lon="2.65815">
        <ele>872</ele>
        <time>2024-09-20T11:48:20Z</time>
      </trkpt>
      <trkpt lat="42.43951" lon="2.65817">
        <ele>872</ele>
        <time>2024-09-20T11:48:24Z</time>
      </trkpt>
      <trkpt lat="42.43947" lon="2.65818">
        <ele>873</ele>
        <time>2024-09-20T11:48:27Z</time>
      </trkpt>
      <trkpt lat="42.43944" lon="2.65819">
        <ele>869</ele>
        <time>2024-09-20T11:48:31Z</time>
      </trkpt>
      <trkpt lat="42.43941" lon="2.6582">
        <ele>870</ele>
        <time>2024-09-20T11:48:34Z</time>
      </trkpt>
      <trkpt lat="42.43938" lon="2.65821">
        <ele>871</ele>
        <time>2024-09-20T11:48:37Z</time>
      </trkpt>
      <trkpt lat="42.43935" lon="2.65822">
        <ele>872</ele>
        <time>2024-09-20T11:48:40Z</time>
      </trkpt>
      <trkpt lat="42.43932" lon="2.65822">
        <ele>873</ele>
        <time>2024-09-20T11:48:45Z</time>
      </trkpt>
      <trkpt lat="42.43929" lon="2.65823">
        <ele>877</ele>
        <time>2024-09-20T11:48:49Z</time>
      </trkpt>
      <trkpt lat="42.43926" lon="2.65823">
        <ele>876</ele>
        <time>2024-09-20T11:48:54Z</time>
      </trkpt>
      <trkpt lat="42.43923" lon="2.65823">
        <ele>875</ele>
        <time>2024-09-20T11:48:58Z</time>
      </trkpt>
      <trkpt lat="42.4392" lon="2.65822">
        <ele>875</ele>
        <time>2024-09-20T11:49:03Z</time>
      </trkpt>
      <trkpt lat="42.43918" lon="2.65823">
        <ele>873</ele>
        <time>2024-09-20T11:49:06Z</time>
      </trkpt>
      <trkpt lat="42.43915" lon="2.65823">
        <ele>873</ele>
        <time>2024-09-20T11:49:10Z</time>
      </trkpt>
      <trkpt lat="42.43913" lon="2.65821">
        <ele>872</ele>
        <time>2024-09-20T11:49:15Z</time>
      </trkpt>
      <trkpt lat="42.4391" lon="2.65819">
        <ele>872</ele>
        <time>2024-09-20T11:49:18Z</time>
      </trkpt>
      <trkpt lat="42.43909" lon="2.65816">
        <ele>873</ele>
        <time>2024-09-20T11:49:21Z</time>
      </trkpt>
      <trkpt lat="42.43907" lon="2.65813">
        <ele>873</ele>
        <time>2024-09-20T11:49:24Z</time>
      </trkpt>
      <trkpt lat="42.43905" lon="2.6581">
        <ele>873</ele>
        <time>2024-09-20T11:49:27Z</time>
      </trkpt>
      <trkpt lat="42.43903" lon="2.65807">
        <ele>872</ele>
        <time>2024-09-20T11:49:47Z</time>
      </trkpt>
      <trkpt lat="42.43902" lon="2.65803">
        <ele>872</ele>
        <time>2024-09-20T11:49:50Z</time>
      </trkpt>
      <trkpt lat="42.43901" lon="2.65799">
        <ele>872</ele>
        <time>2024-09-20T11:50:03Z</time>
      </trkpt>
      <trkpt lat="42.439" lon="2.65795">
        <ele>870</ele>
        <time>2024-09-20T11:50:06Z</time>
      </trkpt>
      <trkpt lat="42.43897" lon="2.65793">
        <ele>870</ele>
        <time>2024-09-20T11:50:09Z</time>
      </trkpt>
      <trkpt lat="42.43895" lon="2.65794">
        <ele>870</ele>
        <time>2024-09-20T11:50:14Z</time>
      </trkpt>
      <trkpt lat="42.43892" lon="2.65793">
        <ele>870</ele>
        <time>2024-09-20T11:50:18Z</time>
      </trkpt>
      <trkpt lat="42.4389" lon="2.65793">
        <ele>870</ele>
        <time>2024-09-20T11:50:21Z</time>
      </trkpt>
      <trkpt lat="42.43887" lon="2.65792">
        <ele>870</ele>
        <time>2024-09-20T11:50:23Z</time>
      </trkpt>
      <trkpt lat="42.43884" lon="2.65791">
        <ele>871</ele>
        <time>2024-09-20T11:50:26Z</time>
      </trkpt>
      <trkpt lat="42.43881" lon="2.65791">
        <ele>870</ele>
        <time>2024-09-20T11:50:29Z</time>
      </trkpt>
      <trkpt lat="42.43877" lon="2.65791">
        <ele>870</ele>
        <time>2024-09-20T11:50:32Z</time>
      </trkpt>
      <trkpt lat="42.43874" lon="2.65792">
        <ele>869</ele>
        <time>2024-09-20T11:50:35Z</time>
      </trkpt>
      <trkpt lat="42.4387" lon="2.65793">
        <ele>870</ele>
        <time>2024-09-20T11:50:38Z</time>
      </trkpt>
      <trkpt lat="42.43867" lon="2.65793">
        <ele>870</ele>
        <time>2024-09-20T11:50:40Z</time>
      </trkpt>
      <trkpt lat="42.43864" lon="2.65793">
        <ele>869</ele>
        <time>2024-09-20T11:50:42Z</time>
      </trkpt>
      <trkpt lat="42.43861" lon="2.65794">
        <ele>869</ele>
        <time>2024-09-20T11:50:45Z</time>
      </trkpt>
      <trkpt lat="42.43857" lon="2.65795">
        <ele>869</ele>
        <time>2024-09-20T11:50:48Z</time>
      </trkpt>
      <trkpt lat="42.43854" lon="2.65796">
        <ele>869</ele>
        <time>2024-09-20T11:50:51Z</time>
      </trkpt>
      <trkpt lat="42.43851" lon="2.65798">
        <ele>869</ele>
        <time>2024-09-20T11:50:54Z</time>
      </trkpt>
      <trkpt lat="42.43847" lon="2.65799">
        <ele>869</ele>
        <time>2024-09-20T11:50:57Z</time>
      </trkpt>
      <trkpt lat="42.43844" lon="2.65801">
        <ele>869</ele>
        <time>2024-09-20T11:51:01Z</time>
      </trkpt>
      <trkpt lat="42.43841" lon="2.65802">
        <ele>869</ele>
        <time>2024-09-20T11:51:04Z</time>
      </trkpt>
      <trkpt lat="42.43838" lon="2.65803">
        <ele>870</ele>
        <time>2024-09-20T11:51:08Z</time>
      </trkpt>
      <trkpt lat="42.43834" lon="2.65805">
        <ele>870</ele>
        <time>2024-09-20T11:51:12Z</time>
      </trkpt>
      <trkpt lat="42.43831" lon="2.65806">
        <ele>871</ele>
        <time>2024-09-20T11:51:15Z</time>
      </trkpt>
      <trkpt lat="42.43828" lon="2.65805">
        <ele>871</ele>
        <time>2024-09-20T11:51:18Z</time>
      </trkpt>
      <trkpt lat="42.43826" lon="2.65803">
        <ele>871</ele>
        <time>2024-09-20T11:51:22Z</time>
      </trkpt>
      <trkpt lat="42.43823" lon="2.658">
        <ele>872</ele>
        <time>2024-09-20T11:51:25Z</time>
      </trkpt>
      <trkpt lat="42.43821" lon="2.65798">
        <ele>871</ele>
        <time>2024-09-20T11:51:28Z</time>
      </trkpt>
      <trkpt lat="42.43818" lon="2.65796">
        <ele>872</ele>
        <time>2024-09-20T11:51:31Z</time>
      </trkpt>
      <trkpt lat="42.43815" lon="2.65795">
        <ele>872</ele>
        <time>2024-09-20T11:51:34Z</time>
      </trkpt>
      <trkpt lat="42.43812" lon="2.65793">
        <ele>871</ele>
        <time>2024-09-20T11:51:37Z</time>
      </trkpt>
      <trkpt lat="42.43809" lon="2.6579">
        <ele>871</ele>
        <time>2024-09-20T11:51:40Z</time>
      </trkpt>
      <trkpt lat="42.43806" lon="2.65788">
        <ele>871</ele>
        <time>2024-09-20T11:51:43Z</time>
      </trkpt>
      <trkpt lat="42.43804" lon="2.65785">
        <ele>872</ele>
        <time>2024-09-20T11:51:46Z</time>
      </trkpt>
      <trkpt lat="42.43801" lon="2.65782">
        <ele>872</ele>
        <time>2024-09-20T11:51:49Z</time>
      </trkpt>
      <trkpt lat="42.43799" lon="2.65779">
        <ele>873</ele>
        <time>2024-09-20T11:51:52Z</time>
      </trkpt>
      <trkpt lat="42.43797" lon="2.65776">
        <ele>873</ele>
        <time>2024-09-20T11:51:55Z</time>
      </trkpt>
      <trkpt lat="42.43795" lon="2.65773">
        <ele>873</ele>
        <time>2024-09-20T11:51:58Z</time>
      </trkpt>
      <trkpt lat="42.43792" lon="2.65772">
        <ele>874</ele>
        <time>2024-09-20T11:52:01Z</time>
      </trkpt>
      <trkpt lat="42.43789" lon="2.6577">
        <ele>874</ele>
        <time>2024-09-20T11:52:04Z</time>
      </trkpt>
      <trkpt lat="42.43787" lon="2.65768">
        <ele>875</ele>
        <time>2024-09-20T11:52:08Z</time>
      </trkpt>
      <trkpt lat="42.43785" lon="2.65764">
        <ele>876</ele>
        <time>2024-09-20T11:52:12Z</time>
      </trkpt>
      <trkpt lat="42.43783" lon="2.65761">
        <ele>876</ele>
        <time>2024-09-20T11:52:17Z</time>
      </trkpt>
      <trkpt lat="42.43781" lon="2.65757">
        <ele>876</ele>
        <time>2024-09-20T11:52:22Z</time>
      </trkpt>
      <trkpt lat="42.43778" lon="2.65755">
        <ele>875</ele>
        <time>2024-09-20T11:52:27Z</time>
      </trkpt>
      <trkpt lat="42.43775" lon="2.65753">
        <ele>875</ele>
        <time>2024-09-20T11:52:31Z</time>
      </trkpt>
      <trkpt lat="42.43772" lon="2.65752">
        <ele>875</ele>
        <time>2024-09-20T11:52:36Z</time>
      </trkpt>
      <trkpt lat="42.43769" lon="2.65751">
        <ele>875</ele>
        <time>2024-09-20T11:52:39Z</time>
      </trkpt>
      <trkpt lat="42.43766" lon="2.65753">
        <ele>875</ele>
        <time>2024-09-20T11:52:42Z</time>
      </trkpt>
      <trkpt lat="42.43763" lon="2.65754">
        <ele>876</ele>
        <time>2024-09-20T11:52:44Z</time>
      </trkpt>
      <trkpt lat="42.43761" lon="2.65757">
        <ele>875</ele>
        <time>2024-09-20T11:52:48Z</time>
      </trkpt>
      <trkpt lat="42.43761" lon="2.65761">
        <ele>873</ele>
        <time>2024-09-20T11:52:52Z</time>
      </trkpt>
      <trkpt lat="42.4376" lon="2.65765">
        <ele>873</ele>
        <time>2024-09-20T11:52:56Z</time>
      </trkpt>
      <trkpt lat="42.43758" lon="2.65769">
        <ele>871</ele>
        <time>2024-09-20T11:53:00Z</time>
      </trkpt>
      <trkpt lat="42.43756" lon="2.65772">
        <ele>872</ele>
        <time>2024-09-20T11:53:02Z</time>
      </trkpt>
      <trkpt lat="42.43755" lon="2.65776">
        <ele>872</ele>
        <time>2024-09-20T11:53:05Z</time>
      </trkpt>
      <trkpt lat="42.43754" lon="2.65781">
        <ele>871</ele>
        <time>2024-09-20T11:53:09Z</time>
      </trkpt>
      <trkpt lat="42.43752" lon="2.65784">
        <ele>872</ele>
        <time>2024-09-20T11:53:11Z</time>
      </trkpt>
      <trkpt lat="42.4375" lon="2.65789">
        <ele>871</ele>
        <time>2024-09-20T11:53:15Z</time>
      </trkpt>
      <trkpt lat="42.43747" lon="2.65792">
        <ele>870</ele>
        <time>2024-09-20T11:53:18Z</time>
      </trkpt>
      <trkpt lat="42.43744" lon="2.65794">
        <ele>870</ele>
        <time>2024-09-20T11:53:21Z</time>
      </trkpt>
      <trkpt lat="42.43742" lon="2.65797">
        <ele>872</ele>
        <time>2024-09-20T11:53:24Z</time>
      </trkpt>
      <trkpt lat="42.43739" lon="2.65799">
        <ele>871</ele>
        <time>2024-09-20T11:53:29Z</time>
      </trkpt>
      <trkpt lat="42.43736" lon="2.65802">
        <ele>872</ele>
        <time>2024-09-20T11:53:33Z</time>
      </trkpt>
      <trkpt lat="42.43733" lon="2.65805">
        <ele>872</ele>
        <time>2024-09-20T11:53:36Z</time>
      </trkpt>
      <trkpt lat="42.43731" lon="2.65808">
        <ele>871</ele>
        <time>2024-09-20T11:53:39Z</time>
      </trkpt>
      <trkpt lat="42.43728" lon="2.6581">
        <ele>872</ele>
        <time>2024-09-20T11:53:42Z</time>
      </trkpt>
      <trkpt lat="42.43724" lon="2.65812">
        <ele>873</ele>
        <time>2024-09-20T11:53:45Z</time>
      </trkpt>
      <trkpt lat="42.43722" lon="2.65814">
        <ele>874</ele>
        <time>2024-09-20T11:53:48Z</time>
      </trkpt>
      <trkpt lat="42.43718" lon="2.65816">
        <ele>873</ele>
        <time>2024-09-20T11:53:51Z</time>
      </trkpt>
      <trkpt lat="42.43715" lon="2.65819">
        <ele>874</ele>
        <time>2024-09-20T11:53:54Z</time>
      </trkpt>
      <trkpt lat="42.43712" lon="2.65819">
        <ele>874</ele>
        <time>2024-09-20T11:53:57Z</time>
      </trkpt>
      <trkpt lat="42.43709" lon="2.65819">
        <ele>874</ele>
        <time>2024-09-20T11:54:00Z</time>
      </trkpt>
      <trkpt lat="42.43705" lon="2.65819">
        <ele>872</ele>
        <time>2024-09-20T11:54:04Z</time>
      </trkpt>
      <trkpt lat="42.43702" lon="2.6582">
        <ele>872</ele>
        <time>2024-09-20T11:54:08Z</time>
      </trkpt>
      <trkpt lat="42.43699" lon="2.65822">
        <ele>870</ele>
        <time>2024-09-20T11:54:12Z</time>
      </trkpt>
      <trkpt lat="42.43697" lon="2.65824">
        <ele>870</ele>
        <time>2024-09-20T11:54:15Z</time>
      </trkpt>
      <trkpt lat="42.43694" lon="2.65826">
        <ele>869</ele>
        <time>2024-09-20T11:54:17Z</time>
      </trkpt>
      <trkpt lat="42.43691" lon="2.65829">
        <ele>871</ele>
        <time>2024-09-20T11:54:22Z</time>
      </trkpt>
      <trkpt lat="42.43689" lon="2.65833">
        <ele>871</ele>
        <time>2024-09-20T11:54:26Z</time>
      </trkpt>
      <trkpt lat="42.43686" lon="2.65836">
        <ele>872</ele>
        <time>2024-09-20T11:54:29Z</time>
      </trkpt>
      <trkpt lat="42.43683" lon="2.65838">
        <ele>872</ele>
        <time>2024-09-20T11:54:32Z</time>
      </trkpt>
      <trkpt lat="42.43681" lon="2.65841">
        <ele>873</ele>
        <time>2024-09-20T11:54:35Z</time>
      </trkpt>
      <trkpt lat="42.43678" lon="2.65845">
        <ele>872</ele>
        <time>2024-09-20T11:54:38Z</time>
      </trkpt>
      <trkpt lat="42.43675" lon="2.65848">
        <ele>872</ele>
        <time>2024-09-20T11:54:41Z</time>
      </trkpt>
      <trkpt lat="42.43673" lon="2.65851">
        <ele>872</ele>
        <time>2024-09-20T11:54:44Z</time>
      </trkpt>
      <trkpt lat="42.43671" lon="2.65855">
        <ele>872</ele>
        <time>2024-09-20T11:54:48Z</time>
      </trkpt>
      <trkpt lat="42.43671" lon="2.65859">
        <ele>871</ele>
        <time>2024-09-20T11:54:51Z</time>
      </trkpt>
      <trkpt lat="42.4367" lon="2.65863">
        <ele>870</ele>
        <time>2024-09-20T11:54:54Z</time>
      </trkpt>
      <trkpt lat="42.43669" lon="2.65866">
        <ele>869</ele>
        <time>2024-09-20T11:54:56Z</time>
      </trkpt>
      <trkpt lat="42.43667" lon="2.6587">
        <ele>868</ele>
        <time>2024-09-20T11:55:00Z</time>
      </trkpt>
      <trkpt lat="42.43666" lon="2.65873">
        <ele>868</ele>
        <time>2024-09-20T11:55:02Z</time>
      </trkpt>
      <trkpt lat="42.43664" lon="2.65877">
        <ele>867</ele>
        <time>2024-09-20T11:55:06Z</time>
      </trkpt>
      <trkpt lat="42.43662" lon="2.65881">
        <ele>866</ele>
        <time>2024-09-20T11:55:09Z</time>
      </trkpt>
      <trkpt lat="42.43659" lon="2.65884">
        <ele>866</ele>
        <time>2024-09-20T11:55:12Z</time>
      </trkpt>
      <trkpt lat="42.43656" lon="2.65888">
        <ele>865</ele>
        <time>2024-09-20T11:55:15Z</time>
      </trkpt>
      <trkpt lat="42.43653" lon="2.6589">
        <ele>864</ele>
        <time>2024-09-20T11:55:18Z</time>
      </trkpt>
      <trkpt lat="42.4365" lon="2.65893">
        <ele>863</ele>
        <time>2024-09-20T11:55:21Z</time>
      </trkpt>
      <trkpt lat="42.43648" lon="2.65896">
        <ele>863</ele>
        <time>2024-09-20T11:55:23Z</time>
      </trkpt>
      <trkpt lat="42.43645" lon="2.65899">
        <ele>863</ele>
        <time>2024-09-20T11:55:26Z</time>
      </trkpt>
      <trkpt lat="42.43643" lon="2.65903">
        <ele>863</ele>
        <time>2024-09-20T11:55:29Z</time>
      </trkpt>
      <trkpt lat="42.43641" lon="2.65905">
        <ele>862</ele>
        <time>2024-09-20T11:55:32Z</time>
      </trkpt>
      <trkpt lat="42.43638" lon="2.65908">
        <ele>861</ele>
        <time>2024-09-20T11:55:36Z</time>
      </trkpt>
      <trkpt lat="42.43635" lon="2.65911">
        <ele>859</ele>
        <time>2024-09-20T11:55:40Z</time>
      </trkpt>
      <trkpt lat="42.43632" lon="2.65914">
        <ele>859</ele>
        <time>2024-09-20T11:55:43Z</time>
      </trkpt>
      <trkpt lat="42.43629" lon="2.65916">
        <ele>858</ele>
        <time>2024-09-20T11:55:46Z</time>
      </trkpt>
      <trkpt lat="42.43626" lon="2.65918">
        <ele>858</ele>
        <time>2024-09-20T11:55:49Z</time>
      </trkpt>
      <trkpt lat="42.43623" lon="2.65919">
        <ele>857</ele>
        <time>2024-09-20T11:55:52Z</time>
      </trkpt>
      <trkpt lat="42.4362" lon="2.6592">
        <ele>856</ele>
        <time>2024-09-20T11:56:01Z</time>
      </trkpt>
      <trkpt lat="42.43617" lon="2.65921">
        <ele>855</ele>
        <time>2024-09-20T11:56:04Z</time>
      </trkpt>
      <trkpt lat="42.43614" lon="2.65921">
        <ele>856</ele>
        <time>2024-09-20T11:56:07Z</time>
      </trkpt>
      <trkpt lat="42.4361" lon="2.65922">
        <ele>856</ele>
        <time>2024-09-20T11:56:11Z</time>
      </trkpt>
      <trkpt lat="42.43608" lon="2.65923">
        <ele>856</ele>
        <time>2024-09-20T11:56:13Z</time>
      </trkpt>
      <trkpt lat="42.43605" lon="2.65921">
        <ele>856</ele>
        <time>2024-09-20T11:56:17Z</time>
      </trkpt>
      <trkpt lat="42.43602" lon="2.65919">
        <ele>856</ele>
        <time>2024-09-20T11:56:21Z</time>
      </trkpt>
      <trkpt lat="42.436" lon="2.65916">
        <ele>855</ele>
        <time>2024-09-20T11:56:25Z</time>
      </trkpt>
      <trkpt lat="42.43597" lon="2.65913">
        <ele>855</ele>
        <time>2024-09-20T11:56:29Z</time>
      </trkpt>
      <trkpt lat="42.43594" lon="2.65912">
        <ele>854</ele>
        <time>2024-09-20T11:56:32Z</time>
      </trkpt>
      <trkpt lat="42.4359" lon="2.65912">
        <ele>855</ele>
        <time>2024-09-20T11:56:37Z</time>
      </trkpt>
      <trkpt lat="42.4359" lon="2.65914">
        <ele>855</ele>
        <time>2024-09-20T11:56:42Z</time>
      </trkpt>
      <trkpt lat="42.4359" lon="2.65917">
        <ele>855</ele>
        <time>2024-09-20T11:56:45Z</time>
      </trkpt>
      <trkpt lat="42.4359" lon="2.65922">
        <ele>853</ele>
        <time>2024-09-20T11:56:55Z</time>
      </trkpt>
      <trkpt lat="42.43589" lon="2.65925">
        <ele>853</ele>
        <time>2024-09-20T11:56:57Z</time>
      </trkpt>
      <trkpt lat="42.43588" lon="2.65929">
        <ele>854</ele>
        <time>2024-09-20T11:56:59Z</time>
      </trkpt>
      <trkpt lat="42.43587" lon="2.65933">
        <ele>856</ele>
        <time>2024-09-20T11:57:03Z</time>
      </trkpt>
      <trkpt lat="42.43585" lon="2.65937">
        <ele>856</ele>
        <time>2024-09-20T11:57:06Z</time>
      </trkpt>
      <trkpt lat="42.43584" lon="2.65942">
        <ele>857</ele>
        <time>2024-09-20T11:57:09Z</time>
      </trkpt>
      <trkpt lat="42.43582" lon="2.65945">
        <ele>856</ele>
        <time>2024-09-20T11:57:11Z</time>
      </trkpt>
      <trkpt lat="42.43582" lon="2.65949">
        <ele>856</ele>
        <time>2024-09-20T11:57:14Z</time>
      </trkpt>
      <trkpt lat="42.43582" lon="2.65953">
        <ele>857</ele>
        <time>2024-09-20T11:57:17Z</time>
      </trkpt>
      <trkpt lat="42.43581" lon="2.65957">
        <ele>856</ele>
        <time>2024-09-20T11:57:20Z</time>
      </trkpt>
      <trkpt lat="42.43579" lon="2.65961">
        <ele>857</ele>
        <time>2024-09-20T11:57:23Z</time>
      </trkpt>
      <trkpt lat="42.43578" lon="2.65965">
        <ele>858</ele>
        <time>2024-09-20T11:57:26Z</time>
      </trkpt>
      <trkpt lat="42.43578" lon="2.65969">
        <ele>858</ele>
        <time>2024-09-20T11:57:29Z</time>
      </trkpt>
      <trkpt lat="42.43578" lon="2.65973">
        <ele>858</ele>
        <time>2024-09-20T11:57:35Z</time>
      </trkpt>
      <trkpt lat="42.43579" lon="2.65977">
        <ele>857</ele>
        <time>2024-09-20T11:57:39Z</time>
      </trkpt>
      <trkpt lat="42.43579" lon="2.65981">
        <ele>858</ele>
        <time>2024-09-20T11:57:42Z</time>
      </trkpt>
      <trkpt lat="42.4358" lon="2.65986">
        <ele>858</ele>
        <time>2024-09-20T11:57:45Z</time>
      </trkpt>
      <trkpt lat="42.43581" lon="2.6599">
        <ele>858</ele>
        <time>2024-09-20T11:57:47Z</time>
      </trkpt>
      <trkpt lat="42.43582" lon="2.65994">
        <ele>859</ele>
        <time>2024-09-20T11:57:50Z</time>
      </trkpt>
      <trkpt lat="42.43583" lon="2.65998">
        <ele>859</ele>
        <time>2024-09-20T11:57:53Z</time>
      </trkpt>
      <trkpt lat="42.43583" lon="2.66002">
        <ele>859</ele>
        <time>2024-09-20T11:57:56Z</time>
      </trkpt>
      <trkpt lat="42.43584" lon="2.66007">
        <ele>859</ele>
        <time>2024-09-20T11:57:59Z</time>
      </trkpt>
      <trkpt lat="42.43585" lon="2.6601">
        <ele>861</ele>
        <time>2024-09-20T11:58:02Z</time>
      </trkpt>
      <trkpt lat="42.43585" lon="2.66014">
        <ele>861</ele>
        <time>2024-09-20T11:58:05Z</time>
      </trkpt>
      <trkpt lat="42.43587" lon="2.66017">
        <ele>864</ele>
        <time>2024-09-20T11:58:09Z</time>
      </trkpt>
      <trkpt lat="42.43589" lon="2.6602">
        <ele>865</ele>
        <time>2024-09-20T11:58:10Z</time>
      </trkpt>
      <trkpt lat="42.4359" lon="2.66023">
        <ele>864</ele>
        <time>2024-09-20T11:58:13Z</time>
      </trkpt>
      <trkpt lat="42.43592" lon="2.66027">
        <ele>864</ele>
        <time>2024-09-20T11:58:17Z</time>
      </trkpt>
      <trkpt lat="42.43595" lon="2.6603">
        <ele>865</ele>
        <time>2024-09-20T11:58:21Z</time>
      </trkpt>
      <trkpt lat="42.43597" lon="2.66032">
        <ele>867</ele>
        <time>2024-09-20T11:58:24Z</time>
      </trkpt>
      <trkpt lat="42.436" lon="2.66035">
        <ele>867</ele>
        <time>2024-09-20T11:58:27Z</time>
      </trkpt>
      <trkpt lat="42.43602" lon="2.66038">
        <ele>867</ele>
        <time>2024-09-20T11:58:31Z</time>
      </trkpt>
      <trkpt lat="42.43605" lon="2.66041">
        <ele>866</ele>
        <time>2024-09-20T11:58:35Z</time>
      </trkpt>
      <trkpt lat="42.43607" lon="2.66044">
        <ele>867</ele>
        <time>2024-09-20T11:58:38Z</time>
      </trkpt>
      <trkpt lat="42.43609" lon="2.66047">
        <ele>868</ele>
        <time>2024-09-20T11:58:43Z</time>
      </trkpt>
      <trkpt lat="42.43612" lon="2.6605">
        <ele>868</ele>
        <time>2024-09-20T11:58:47Z</time>
      </trkpt>
      <trkpt lat="42.43614" lon="2.66054">
        <ele>867</ele>
        <time>2024-09-20T11:58:52Z</time>
      </trkpt>
      <trkpt lat="42.43616" lon="2.66056">
        <ele>867</ele>
        <time>2024-09-20T11:58:54Z</time>
      </trkpt>
      <trkpt lat="42.43619" lon="2.66058">
        <ele>866</ele>
        <time>2024-09-20T11:58:57Z</time>
      </trkpt>
      <trkpt lat="42.43622" lon="2.66059">
        <ele>865</ele>
        <time>2024-09-20T11:59:00Z</time>
      </trkpt>
      <trkpt lat="42.43625" lon="2.6606">
        <ele>864</ele>
        <time>2024-09-20T11:59:02Z</time>
      </trkpt>
      <trkpt lat="42.43627" lon="2.66062">
        <ele>866</ele>
        <time>2024-09-20T11:59:05Z</time>
      </trkpt>
      <trkpt lat="42.43631" lon="2.66063">
        <ele>865</ele>
        <time>2024-09-20T11:59:07Z</time>
      </trkpt>
      <trkpt lat="42.43634" lon="2.66065">
        <ele>865</ele>
        <time>2024-09-20T11:59:10Z</time>
      </trkpt>
      <trkpt lat="42.43637" lon="2.66068">
        <ele>864</ele>
        <time>2024-09-20T11:59:15Z</time>
      </trkpt>
      <trkpt lat="42.4364" lon="2.66068">
        <ele>866</ele>
        <time>2024-09-20T11:59:17Z</time>
      </trkpt>
      <trkpt lat="42.43642" lon="2.6607">
        <ele>865</ele>
        <time>2024-09-20T11:59:20Z</time>
      </trkpt>
      <trkpt lat="42.43645" lon="2.66071">
        <ele>864</ele>
        <time>2024-09-20T11:59:23Z</time>
      </trkpt>
      <trkpt lat="42.43648" lon="2.66072">
        <ele>864</ele>
        <time>2024-09-20T11:59:26Z</time>
      </trkpt>
      <trkpt lat="42.4365" lon="2.66074">
        <ele>865</ele>
        <time>2024-09-20T11:59:29Z</time>
      </trkpt>
      <trkpt lat="42.43653" lon="2.66078">
        <ele>864</ele>
        <time>2024-09-20T11:59:33Z</time>
      </trkpt>
      <trkpt lat="42.43656" lon="2.66081">
        <ele>865</ele>
        <time>2024-09-20T11:59:36Z</time>
      </trkpt>
      <trkpt lat="42.43658" lon="2.66084">
        <ele>865</ele>
        <time>2024-09-20T11:59:39Z</time>
      </trkpt>
      <trkpt lat="42.43661" lon="2.66087">
        <ele>865</ele>
        <time>2024-09-20T11:59:42Z</time>
      </trkpt>
      <trkpt lat="42.43663" lon="2.6609">
        <ele>864</ele>
        <time>2024-09-20T11:59:45Z</time>
      </trkpt>
      <trkpt lat="42.43665" lon="2.66093">
        <ele>864</ele>
        <time>2024-09-20T11:59:47Z</time>
      </trkpt>
      <trkpt lat="42.43667" lon="2.66097">
        <ele>865</ele>
        <time>2024-09-20T11:59:50Z</time>
      </trkpt>
      <trkpt lat="42.43668" lon="2.661">
        <ele>865</ele>
        <time>2024-09-20T11:59:53Z</time>
      </trkpt>
      <trkpt lat="42.43669" lon="2.66105">
        <ele>864</ele>
        <time>2024-09-20T11:59:56Z</time>
      </trkpt>
      <trkpt lat="42.4367" lon="2.6611">
        <ele>864</ele>
        <time>2024-09-20T11:59:59Z</time>
      </trkpt>
      <trkpt lat="42.4367" lon="2.66115">
        <ele>864</ele>
        <time>2024-09-20T12:00:02Z</time>
      </trkpt>
      <trkpt lat="42.4367" lon="2.6612">
        <ele>863</ele>
        <time>2024-09-20T12:00:05Z</time>
      </trkpt>
      <trkpt lat="42.4367" lon="2.66124">
        <ele>864</ele>
        <time>2024-09-20T12:00:08Z</time>
      </trkpt>
      <trkpt lat="42.43672" lon="2.66128">
        <ele>865</ele>
        <time>2024-09-20T12:00:12Z</time>
      </trkpt>
      <trkpt lat="42.43672" lon="2.66132">
        <ele>864</ele>
        <time>2024-09-20T12:00:15Z</time>
      </trkpt>
      <trkpt lat="42.43673" lon="2.66136">
        <ele>865</ele>
        <time>2024-09-20T12:00:17Z</time>
      </trkpt>
      <trkpt lat="42.43674" lon="2.6614">
        <ele>864</ele>
        <time>2024-09-20T12:00:20Z</time>
      </trkpt>
      <trkpt lat="42.43674" lon="2.66144">
        <ele>863</ele>
        <time>2024-09-20T12:00:23Z</time>
      </trkpt>
      <trkpt lat="42.43675" lon="2.66149">
        <ele>863</ele>
        <time>2024-09-20T12:00:26Z</time>
      </trkpt>
      <trkpt lat="42.43676" lon="2.66152">
        <ele>863</ele>
        <time>2024-09-20T12:00:28Z</time>
      </trkpt>
      <trkpt lat="42.43677" lon="2.66157">
        <ele>863</ele>
        <time>2024-09-20T12:00:31Z</time>
      </trkpt>
      <trkpt lat="42.43677" lon="2.6616">
        <ele>862</ele>
        <time>2024-09-20T12:00:34Z</time>
      </trkpt>
      <trkpt lat="42.43678" lon="2.66164">
        <ele>862</ele>
        <time>2024-09-20T12:00:41Z</time>
      </trkpt>
      <trkpt lat="42.43679" lon="2.66168">
        <ele>861</ele>
        <time>2024-09-20T12:00:44Z</time>
      </trkpt>
      <trkpt lat="42.43679" lon="2.66173">
        <ele>860</ele>
        <time>2024-09-20T12:00:48Z</time>
      </trkpt>
      <trkpt lat="42.43679" lon="2.66177">
        <ele>859</ele>
        <time>2024-09-20T12:00:52Z</time>
      </trkpt>
      <trkpt lat="42.43681" lon="2.66182">
        <ele>859</ele>
        <time>2024-09-20T12:00:55Z</time>
      </trkpt>
      <trkpt lat="42.43681" lon="2.66186">
        <ele>858</ele>
        <time>2024-09-20T12:00:58Z</time>
      </trkpt>
      <trkpt lat="42.43682" lon="2.6619">
        <ele>859</ele>
        <time>2024-09-20T12:01:00Z</time>
      </trkpt>
      <trkpt lat="42.43683" lon="2.66194">
        <ele>859</ele>
        <time>2024-09-20T12:01:02Z</time>
      </trkpt>
      <trkpt lat="42.43683" lon="2.66198">
        <ele>859</ele>
        <time>2024-09-20T12:01:05Z</time>
      </trkpt>
      <trkpt lat="42.43684" lon="2.66202">
        <ele>859</ele>
        <time>2024-09-20T12:01:08Z</time>
      </trkpt>
      <trkpt lat="42.43684" lon="2.66208">
        <ele>859</ele>
        <time>2024-09-20T12:01:11Z</time>
      </trkpt>
      <trkpt lat="42.43684" lon="2.66212">
        <ele>858</ele>
        <time>2024-09-20T12:01:13Z</time>
      </trkpt>
      <trkpt lat="42.43683" lon="2.66216">
        <ele>859</ele>
        <time>2024-09-20T12:01:16Z</time>
      </trkpt>
      <trkpt lat="42.4368" lon="2.66219">
        <ele>858</ele>
        <time>2024-09-20T12:01:19Z</time>
      </trkpt>
      <trkpt lat="42.43678" lon="2.66219">
        <ele>859</ele>
        <time>2024-09-20T12:01:23Z</time>
      </trkpt>
      <trkpt lat="42.43675" lon="2.66219">
        <ele>860</ele>
        <time>2024-09-20T12:01:26Z</time>
      </trkpt>
      <trkpt lat="42.43672" lon="2.66219">
        <ele>860</ele>
        <time>2024-09-20T12:01:29Z</time>
      </trkpt>
      <trkpt lat="42.43669" lon="2.66219">
        <ele>860</ele>
        <time>2024-09-20T12:01:39Z</time>
      </trkpt>
      <trkpt lat="42.43666" lon="2.66218">
        <ele>860</ele>
        <time>2024-09-20T12:01:42Z</time>
      </trkpt>
      <trkpt lat="42.43662" lon="2.66217">
        <ele>860</ele>
        <time>2024-09-20T12:01:45Z</time>
      </trkpt>
      <trkpt lat="42.43659" lon="2.66218">
        <ele>861</ele>
        <time>2024-09-20T12:01:47Z</time>
      </trkpt>
      <trkpt lat="42.43656" lon="2.66217">
        <ele>861</ele>
        <time>2024-09-20T12:01:50Z</time>
      </trkpt>
      <trkpt lat="42.43653" lon="2.66217">
        <ele>860</ele>
        <time>2024-09-20T12:01:53Z</time>
      </trkpt>
      <trkpt lat="42.43649" lon="2.66216">
        <ele>860</ele>
        <time>2024-09-20T12:01:55Z</time>
      </trkpt>
      <trkpt lat="42.43646" lon="2.66216">
        <ele>860</ele>
        <time>2024-09-20T12:01:58Z</time>
      </trkpt>
      <trkpt lat="42.43644" lon="2.66216">
        <ele>861</ele>
        <time>2024-09-20T12:02:00Z</time>
      </trkpt>
      <trkpt lat="42.4364" lon="2.66217">
        <ele>860</ele>
        <time>2024-09-20T12:02:03Z</time>
      </trkpt>
      <trkpt lat="42.43636" lon="2.66218">
        <ele>860</ele>
        <time>2024-09-20T12:02:06Z</time>
      </trkpt>
      <trkpt lat="42.43633" lon="2.66218">
        <ele>860</ele>
        <time>2024-09-20T12:02:08Z</time>
      </trkpt>
      <trkpt lat="42.4363" lon="2.66218">
        <ele>860</ele>
        <time>2024-09-20T12:02:11Z</time>
      </trkpt>
      <trkpt lat="42.43627" lon="2.66219">
        <ele>860</ele>
        <time>2024-09-20T12:02:14Z</time>
      </trkpt>
      <trkpt lat="42.43623" lon="2.6622">
        <ele>859</ele>
        <time>2024-09-20T12:02:17Z</time>
      </trkpt>
      <trkpt lat="42.4362" lon="2.6622">
        <ele>860</ele>
        <time>2024-09-20T12:02:19Z</time>
      </trkpt>
      <trkpt lat="42.43616" lon="2.66221">
        <ele>861</ele>
        <time>2024-09-20T12:02:22Z</time>
      </trkpt>
      <trkpt lat="42.43613" lon="2.66221">
        <ele>861</ele>
        <time>2024-09-20T12:02:25Z</time>
      </trkpt>
      <trkpt lat="42.43609" lon="2.66221">
        <ele>861</ele>
        <time>2024-09-20T12:02:28Z</time>
      </trkpt>
      <trkpt lat="42.43606" lon="2.66223">
        <ele>861</ele>
        <time>2024-09-20T12:02:31Z</time>
      </trkpt>
      <trkpt lat="42.43602" lon="2.66222">
        <ele>861</ele>
        <time>2024-09-20T12:02:34Z</time>
      </trkpt>
      <trkpt lat="42.43598" lon="2.66222">
        <ele>861</ele>
        <time>2024-09-20T12:02:37Z</time>
      </trkpt>
      <trkpt lat="42.43594" lon="2.66223">
        <ele>861</ele>
        <time>2024-09-20T12:02:40Z</time>
      </trkpt>
      <trkpt lat="42.43591" lon="2.66223">
        <ele>860</ele>
        <time>2024-09-20T12:02:45Z</time>
      </trkpt>
      <trkpt lat="42.43587" lon="2.66225">
        <ele>859</ele>
        <time>2024-09-20T12:02:48Z</time>
      </trkpt>
      <trkpt lat="42.43583" lon="2.66226">
        <ele>859</ele>
        <time>2024-09-20T12:02:51Z</time>
      </trkpt>
      <trkpt lat="42.4358" lon="2.66225">
        <ele>859</ele>
        <time>2024-09-20T12:02:54Z</time>
      </trkpt>
      <trkpt lat="42.43577" lon="2.66225">
        <ele>859</ele>
        <time>2024-09-20T12:02:57Z</time>
      </trkpt>
      <trkpt lat="42.43574" lon="2.66225">
        <ele>860</ele>
        <time>2024-09-20T12:03:00Z</time>
      </trkpt>
      <trkpt lat="42.43571" lon="2.66225">
        <ele>859</ele>
        <time>2024-09-20T12:03:03Z</time>
      </trkpt>
      <trkpt lat="42.43568" lon="2.66225">
        <ele>859</ele>
        <time>2024-09-20T12:03:05Z</time>
      </trkpt>
      <trkpt lat="42.43564" lon="2.66225">
        <ele>858</ele>
        <time>2024-09-20T12:03:08Z</time>
      </trkpt>
      <trkpt lat="42.43561" lon="2.66226">
        <ele>858</ele>
        <time>2024-09-20T12:03:10Z</time>
      </trkpt>
      <trkpt lat="42.43557" lon="2.66226">
        <ele>858</ele>
        <time>2024-09-20T12:03:13Z</time>
      </trkpt>
      <trkpt lat="42.43553" lon="2.66226">
        <ele>858</ele>
        <time>2024-09-20T12:03:17Z</time>
      </trkpt>
      <trkpt lat="42.43549" lon="2.66227">
        <ele>857</ele>
        <time>2024-09-20T12:03:19Z</time>
      </trkpt>
      <trkpt lat="42.43546" lon="2.66227">
        <ele>856</ele>
        <time>2024-09-20T12:03:22Z</time>
      </trkpt>
      <trkpt lat="42.43542" lon="2.66228">
        <ele>856</ele>
        <time>2024-09-20T12:03:25Z</time>
      </trkpt>
      <trkpt lat="42.43539" lon="2.66228">
        <ele>856</ele>
        <time>2024-09-20T12:03:28Z</time>
      </trkpt>
      <trkpt lat="42.43535" lon="2.66228">
        <ele>854</ele>
        <time>2024-09-20T12:03:31Z</time>
      </trkpt>
      <trkpt lat="42.43531" lon="2.66228">
        <ele>855</ele>
        <time>2024-09-20T12:03:34Z</time>
      </trkpt>
      <trkpt lat="42.43528" lon="2.66227">
        <ele>855</ele>
        <time>2024-09-20T12:03:37Z</time>
      </trkpt>
      <trkpt lat="42.43525" lon="2.66226">
        <ele>856</ele>
        <time>2024-09-20T12:03:42Z</time>
      </trkpt>
      <trkpt lat="42.43521" lon="2.66226">
        <ele>855</ele>
        <time>2024-09-20T12:03:45Z</time>
      </trkpt>
      <trkpt lat="42.43518" lon="2.66226">
        <ele>855</ele>
        <time>2024-09-20T12:03:48Z</time>
      </trkpt>
      <trkpt lat="42.43515" lon="2.66227">
        <ele>855</ele>
        <time>2024-09-20T12:03:50Z</time>
      </trkpt>
      <trkpt lat="42.43512" lon="2.66228">
        <ele>855</ele>
        <time>2024-09-20T12:03:53Z</time>
      </trkpt>
      <trkpt lat="42.43509" lon="2.66231">
        <ele>854</ele>
        <time>2024-09-20T12:03:57Z</time>
      </trkpt>
      <trkpt lat="42.43506" lon="2.66233">
        <ele>854</ele>
        <time>2024-09-20T12:04:00Z</time>
      </trkpt>
      <trkpt lat="42.43502" lon="2.66235">
        <ele>854</ele>
        <time>2024-09-20T12:04:03Z</time>
      </trkpt>
      <trkpt lat="42.43499" lon="2.66237">
        <ele>854</ele>
        <time>2024-09-20T12:04:06Z</time>
      </trkpt>
      <trkpt lat="42.43496" lon="2.66238">
        <ele>853</ele>
        <time>2024-09-20T12:04:09Z</time>
      </trkpt>
      <trkpt lat="42.43492" lon="2.66239">
        <ele>852</ele>
        <time>2024-09-20T12:04:13Z</time>
      </trkpt>
      <trkpt lat="42.4349" lon="2.66241">
        <ele>850</ele>
        <time>2024-09-20T12:04:18Z</time>
      </trkpt>
      <trkpt lat="42.43488" lon="2.66242">
        <ele>850</ele>
        <time>2024-09-20T12:04:21Z</time>
      </trkpt>
      <trkpt lat="42.43485" lon="2.66243">
        <ele>849</ele>
        <time>2024-09-20T12:04:25Z</time>
      </trkpt>
      <trkpt lat="42.43482" lon="2.66244">
        <ele>849</ele>
        <time>2024-09-20T12:04:29Z</time>
      </trkpt>
      <trkpt lat="42.43479" lon="2.66244">
        <ele>850</ele>
        <time>2024-09-20T12:04:35Z</time>
      </trkpt>
      <trkpt lat="42.43477" lon="2.66247">
        <ele>850</ele>
        <time>2024-09-20T12:04:39Z</time>
      </trkpt>
      <trkpt lat="42.43476" lon="2.6625">
        <ele>851</ele>
        <time>2024-09-20T12:04:43Z</time>
      </trkpt>
      <trkpt lat="42.43477" lon="2.66253">
        <ele>850</ele>
        <time>2024-09-20T12:04:53Z</time>
      </trkpt>
      <trkpt lat="42.43477" lon="2.66256">
        <ele>851</ele>
        <time>2024-09-20T12:04:56Z</time>
      </trkpt>
      <trkpt lat="42.43477" lon="2.66261">
        <ele>851</ele>
        <time>2024-09-20T12:05:00Z</time>
      </trkpt>
      <trkpt lat="42.43476" lon="2.66265">
        <ele>851</ele>
        <time>2024-09-20T12:05:04Z</time>
      </trkpt>
      <trkpt lat="42.43476" lon="2.66269">
        <ele>852</ele>
        <time>2024-09-20T12:05:06Z</time>
      </trkpt>
      <trkpt lat="42.43478" lon="2.66275">
        <ele>853</ele>
        <time>2024-09-20T12:05:15Z</time>
      </trkpt>
      <trkpt lat="42.43477" lon="2.66279">
        <ele>854</ele>
        <time>2024-09-20T12:05:19Z</time>
      </trkpt>
      <trkpt lat="42.43477" lon="2.66284">
        <ele>855</ele>
        <time>2024-09-20T12:05:22Z</time>
      </trkpt>
      <trkpt lat="42.43477" lon="2.66289">
        <ele>855</ele>
        <time>2024-09-20T12:05:24Z</time>
      </trkpt>
      <trkpt lat="42.43478" lon="2.66293">
        <ele>855</ele>
        <time>2024-09-20T12:05:27Z</time>
      </trkpt>
      <trkpt lat="42.43478" lon="2.66298">
        <ele>854</ele>
        <time>2024-09-20T12:05:30Z</time>
      </trkpt>
      <trkpt lat="42.43479" lon="2.66302">
        <ele>854</ele>
        <time>2024-09-20T12:05:33Z</time>
      </trkpt>
      <trkpt lat="42.4348" lon="2.66307">
        <ele>854</ele>
        <time>2024-09-20T12:05:36Z</time>
      </trkpt>
      <trkpt lat="42.4348" lon="2.66311">
        <ele>853</ele>
        <time>2024-09-20T12:05:39Z</time>
      </trkpt>
      <trkpt lat="42.43481" lon="2.66315">
        <ele>853</ele>
        <time>2024-09-20T12:05:42Z</time>
      </trkpt>
      <trkpt lat="42.43481" lon="2.66319">
        <ele>853</ele>
        <time>2024-09-20T12:05:45Z</time>
      </trkpt>
      <trkpt lat="42.43482" lon="2.66324">
        <ele>852</ele>
        <time>2024-09-20T12:05:49Z</time>
      </trkpt>
      <trkpt lat="42.43483" lon="2.66329">
        <ele>851</ele>
        <time>2024-09-20T12:05:53Z</time>
      </trkpt>
      <trkpt lat="42.43484" lon="2.66333">
        <ele>851</ele>
        <time>2024-09-20T12:05:56Z</time>
      </trkpt>
      <trkpt lat="42.43486" lon="2.66337">
        <ele>851</ele>
        <time>2024-09-20T12:05:59Z</time>
      </trkpt>
      <trkpt lat="42.43487" lon="2.66341">
        <ele>852</ele>
        <time>2024-09-20T12:06:02Z</time>
      </trkpt>
      <trkpt lat="42.43488" lon="2.66345">
        <ele>851</ele>
        <time>2024-09-20T12:06:05Z</time>
      </trkpt>
      <trkpt lat="42.43489" lon="2.66349">
        <ele>851</ele>
        <time>2024-09-20T12:06:08Z</time>
      </trkpt>
      <trkpt lat="42.43489" lon="2.66353">
        <ele>852</ele>
        <time>2024-09-20T12:06:11Z</time>
      </trkpt>
      <trkpt lat="42.43487" lon="2.66357">
        <ele>851</ele>
        <time>2024-09-20T12:06:14Z</time>
      </trkpt>
      <trkpt lat="42.43486" lon="2.66361">
        <ele>851</ele>
        <time>2024-09-20T12:06:17Z</time>
      </trkpt>
      <trkpt lat="42.43485" lon="2.66366">
        <ele>850</ele>
        <time>2024-09-20T12:06:20Z</time>
      </trkpt>
      <trkpt lat="42.43484" lon="2.66369">
        <ele>850</ele>
        <time>2024-09-20T12:06:22Z</time>
      </trkpt>
      <trkpt lat="42.43482" lon="2.66371">
        <ele>850</ele>
        <time>2024-09-20T12:06:24Z</time>
      </trkpt>
      <trkpt lat="42.43479" lon="2.66374">
        <ele>850</ele>
        <time>2024-09-20T12:06:27Z</time>
      </trkpt>
      <trkpt lat="42.43477" lon="2.66377">
        <ele>850</ele>
        <time>2024-09-20T12:06:30Z</time>
      </trkpt>
      <trkpt lat="42.43474" lon="2.6638">
        <ele>850</ele>
        <time>2024-09-20T12:06:33Z</time>
      </trkpt>
      <trkpt lat="42.43471" lon="2.66383">
        <ele>850</ele>
        <time>2024-09-20T12:06:36Z</time>
      </trkpt>
      <trkpt lat="42.43468" lon="2.66385">
        <ele>849</ele>
        <time>2024-09-20T12:06:39Z</time>
      </trkpt>
      <trkpt lat="42.43465" lon="2.66388">
        <ele>850</ele>
        <time>2024-09-20T12:06:42Z</time>
      </trkpt>
      <trkpt lat="42.43461" lon="2.6639">
        <ele>850</ele>
        <time>2024-09-20T12:06:46Z</time>
      </trkpt>
      <trkpt lat="42.43458" lon="2.66391">
        <ele>850</ele>
        <time>2024-09-20T12:06:48Z</time>
      </trkpt>
      <trkpt lat="42.43456" lon="2.66394">
        <ele>851</ele>
        <time>2024-09-20T12:06:50Z</time>
      </trkpt>
      <trkpt lat="42.43454" lon="2.66397">
        <ele>851</ele>
        <time>2024-09-20T12:06:54Z</time>
      </trkpt>
      <trkpt lat="42.43451" lon="2.664">
        <ele>850</ele>
        <time>2024-09-20T12:06:59Z</time>
      </trkpt>
      <trkpt lat="42.43449" lon="2.66402">
        <ele>850</ele>
        <time>2024-09-20T12:07:01Z</time>
      </trkpt>
      <trkpt lat="42.43446" lon="2.66404">
        <ele>851</ele>
        <time>2024-09-20T12:07:04Z</time>
      </trkpt>
      <trkpt lat="42.43443" lon="2.66406">
        <ele>851</ele>
        <time>2024-09-20T12:07:07Z</time>
      </trkpt>
      <trkpt lat="42.43441" lon="2.66408">
        <ele>850</ele>
        <time>2024-09-20T12:07:10Z</time>
      </trkpt>
      <trkpt lat="42.43438" lon="2.6641">
        <ele>850</ele>
        <time>2024-09-20T12:07:13Z</time>
      </trkpt>
      <trkpt lat="42.43436" lon="2.66413">
        <ele>850</ele>
        <time>2024-09-20T12:07:16Z</time>
      </trkpt>
      <trkpt lat="42.43434" lon="2.66416">
        <ele>851</ele>
        <time>2024-09-20T12:07:18Z</time>
      </trkpt>
      <trkpt lat="42.43431" lon="2.6642">
        <ele>851</ele>
        <time>2024-09-20T12:07:21Z</time>
      </trkpt>
      <trkpt lat="42.43429" lon="2.66423">
        <ele>851</ele>
        <time>2024-09-20T12:07:24Z</time>
      </trkpt>
      <trkpt lat="42.43427" lon="2.66426">
        <ele>851</ele>
        <time>2024-09-20T12:07:27Z</time>
      </trkpt>
      <trkpt lat="42.43425" lon="2.6643">
        <ele>851</ele>
        <time>2024-09-20T12:07:29Z</time>
      </trkpt>
      <trkpt lat="42.43424" lon="2.66434">
        <ele>850</ele>
        <time>2024-09-20T12:07:33Z</time>
      </trkpt>
      <trkpt lat="42.43423" lon="2.66438">
        <ele>850</ele>
        <time>2024-09-20T12:07:36Z</time>
      </trkpt>
      <trkpt lat="42.43422" lon="2.66442">
        <ele>850</ele>
        <time>2024-09-20T12:07:38Z</time>
      </trkpt>
      <trkpt lat="42.43422" lon="2.66446">
        <ele>849</ele>
        <time>2024-09-20T12:07:41Z</time>
      </trkpt>
      <trkpt lat="42.43422" lon="2.66451">
        <ele>849</ele>
        <time>2024-09-20T12:07:44Z</time>
      </trkpt>
      <trkpt lat="42.43422" lon="2.66456">
        <ele>848</ele>
        <time>2024-09-20T12:07:47Z</time>
      </trkpt>
      <trkpt lat="42.43422" lon="2.6646">
        <ele>848</ele>
        <time>2024-09-20T12:07:49Z</time>
      </trkpt>
      <trkpt lat="42.43421" lon="2.66464">
        <ele>847</ele>
        <time>2024-09-20T12:07:52Z</time>
      </trkpt>
      <trkpt lat="42.4342" lon="2.66468">
        <ele>848</ele>
        <time>2024-09-20T12:07:55Z</time>
      </trkpt>
      <trkpt lat="42.43421" lon="2.66472">
        <ele>848</ele>
        <time>2024-09-20T12:07:58Z</time>
      </trkpt>
      <trkpt lat="42.43421" lon="2.66477">
        <ele>848</ele>
        <time>2024-09-20T12:08:01Z</time>
      </trkpt>
      <trkpt lat="42.43422" lon="2.66482">
        <ele>848</ele>
        <time>2024-09-20T12:08:04Z</time>
      </trkpt>
      <trkpt lat="42.43422" lon="2.66486">
        <ele>847</ele>
        <time>2024-09-20T12:08:07Z</time>
      </trkpt>
      <trkpt lat="42.43423" lon="2.6649">
        <ele>847</ele>
        <time>2024-09-20T12:08:10Z</time>
      </trkpt>
      <trkpt lat="42.43423" lon="2.66495">
        <ele>846</ele>
        <time>2024-09-20T12:08:13Z</time>
      </trkpt>
      <trkpt lat="42.43424" lon="2.665">
        <ele>845</ele>
        <time>2024-09-20T12:08:16Z</time>
      </trkpt>
      <trkpt lat="42.43425" lon="2.66504">
        <ele>845</ele>
        <time>2024-09-20T12:08:19Z</time>
      </trkpt>
      <trkpt lat="42.43427" lon="2.66508">
        <ele>846</ele>
        <time>2024-09-20T12:08:21Z</time>
      </trkpt>
      <trkpt lat="42.43428" lon="2.66512">
        <ele>846</ele>
        <time>2024-09-20T12:08:24Z</time>
      </trkpt>
      <trkpt lat="42.43428" lon="2.66516">
        <ele>845</ele>
        <time>2024-09-20T12:08:27Z</time>
      </trkpt>
      <trkpt lat="42.43428" lon="2.66521">
        <ele>844</ele>
        <time>2024-09-20T12:08:30Z</time>
      </trkpt>
      <trkpt lat="42.43427" lon="2.66525">
        <ele>843</ele>
        <time>2024-09-20T12:08:33Z</time>
      </trkpt>
      <trkpt lat="42.43428" lon="2.6653">
        <ele>843</ele>
        <time>2024-09-20T12:08:36Z</time>
      </trkpt>
      <trkpt lat="42.43429" lon="2.66535">
        <ele>842</ele>
        <time>2024-09-20T12:08:39Z</time>
      </trkpt>
      <trkpt lat="42.43429" lon="2.6654">
        <ele>843</ele>
        <time>2024-09-20T12:08:43Z</time>
      </trkpt>
      <trkpt lat="42.4343" lon="2.66545">
        <ele>841</ele>
        <time>2024-09-20T12:08:45Z</time>
      </trkpt>
      <trkpt lat="42.4343" lon="2.6655">
        <ele>840</ele>
        <time>2024-09-20T12:08:48Z</time>
      </trkpt>
      <trkpt lat="42.43431" lon="2.66554">
        <ele>840</ele>
        <time>2024-09-20T12:08:50Z</time>
      </trkpt>
      <trkpt lat="42.43432" lon="2.66558">
        <ele>840</ele>
        <time>2024-09-20T12:08:53Z</time>
      </trkpt>
      <trkpt lat="42.43432" lon="2.66563">
        <ele>840</ele>
        <time>2024-09-20T12:08:56Z</time>
      </trkpt>
      <trkpt lat="42.43432" lon="2.66568">
        <ele>840</ele>
        <time>2024-09-20T12:08:59Z</time>
      </trkpt>
      <trkpt lat="42.43433" lon="2.66572">
        <ele>840</ele>
        <time>2024-09-20T12:09:03Z</time>
      </trkpt>
      <trkpt lat="42.43434" lon="2.66577">
        <ele>839</ele>
        <time>2024-09-20T12:09:06Z</time>
      </trkpt>
      <trkpt lat="42.43435" lon="2.66581">
        <ele>839</ele>
        <time>2024-09-20T12:09:09Z</time>
      </trkpt>
      <trkpt lat="42.43437" lon="2.66585">
        <ele>839</ele>
        <time>2024-09-20T12:09:12Z</time>
      </trkpt>
      <trkpt lat="42.43439" lon="2.6659">
        <ele>839</ele>
        <time>2024-09-20T12:09:15Z</time>
      </trkpt>
      <trkpt lat="42.43439" lon="2.66594">
        <ele>839</ele>
        <time>2024-09-20T12:09:18Z</time>
      </trkpt>
      <trkpt lat="42.4344" lon="2.66598">
        <ele>838</ele>
        <time>2024-09-20T12:09:20Z</time>
      </trkpt>
      <trkpt lat="42.43442" lon="2.66602">
        <ele>838</ele>
        <time>2024-09-20T12:09:23Z</time>
      </trkpt>
      <trkpt lat="42.43444" lon="2.66606">
        <ele>838</ele>
        <time>2024-09-20T12:09:25Z</time>
      </trkpt>
      <trkpt lat="42.43445" lon="2.6661">
        <ele>838</ele>
        <time>2024-09-20T12:09:28Z</time>
      </trkpt>
      <trkpt lat="42.43446" lon="2.66614">
        <ele>838</ele>
        <time>2024-09-20T12:09:31Z</time>
      </trkpt>
      <trkpt lat="42.43445" lon="2.66617">
        <ele>838</ele>
        <time>2024-09-20T12:09:34Z</time>
      </trkpt>
      <trkpt lat="42.43443" lon="2.6662">
        <ele>838</ele>
        <time>2024-09-20T12:09:36Z</time>
      </trkpt>
      <trkpt lat="42.43442" lon="2.66623">
        <ele>839</ele>
        <time>2024-09-20T12:09:38Z</time>
      </trkpt>
      <trkpt lat="42.4344" lon="2.66626">
        <ele>839</ele>
        <time>2024-09-20T12:09:40Z</time>
      </trkpt>
      <trkpt lat="42.43438" lon="2.66628">
        <ele>839</ele>
        <time>2024-09-20T12:09:43Z</time>
      </trkpt>
      <trkpt lat="42.43439" lon="2.66626">
        <ele>839</ele>
        <time>2024-09-20T12:10:06Z</time>
      </trkpt>
      <trkpt lat="42.43441" lon="2.66623">
        <ele>838</ele>
        <time>2024-09-20T12:10:09Z</time>
      </trkpt>
      <trkpt lat="42.43443" lon="2.6662">
        <ele>837</ele>
        <time>2024-09-20T12:10:12Z</time>
      </trkpt>
      <trkpt lat="42.43446" lon="2.6662">
        <ele>837</ele>
        <time>2024-09-20T12:10:15Z</time>
      </trkpt>
      <trkpt lat="42.43448" lon="2.66622">
        <ele>837</ele>
        <time>2024-09-20T12:10:18Z</time>
      </trkpt>
      <trkpt lat="42.4345" lon="2.66625">
        <ele>837</ele>
        <time>2024-09-20T12:10:21Z</time>
      </trkpt>
      <trkpt lat="42.43453" lon="2.66628">
        <ele>837</ele>
        <time>2024-09-20T12:10:24Z</time>
      </trkpt>
      <trkpt lat="42.43455" lon="2.66632">
        <ele>836</ele>
        <time>2024-09-20T12:10:27Z</time>
      </trkpt>
      <trkpt lat="42.43456" lon="2.66636">
        <ele>836</ele>
        <time>2024-09-20T12:10:30Z</time>
      </trkpt>
      <trkpt lat="42.43458" lon="2.66639">
        <ele>835</ele>
        <time>2024-09-20T12:10:32Z</time>
      </trkpt>
      <trkpt lat="42.4346" lon="2.66643">
        <ele>835</ele>
        <time>2024-09-20T12:10:35Z</time>
      </trkpt>
      <trkpt lat="42.43462" lon="2.66647">
        <ele>835</ele>
        <time>2024-09-20T12:10:38Z</time>
      </trkpt>
      <trkpt lat="42.43464" lon="2.6665">
        <ele>834</ele>
        <time>2024-09-20T12:10:40Z</time>
      </trkpt>
      <trkpt lat="42.43465" lon="2.66654">
        <ele>833</ele>
        <time>2024-09-20T12:10:42Z</time>
      </trkpt>
      <trkpt lat="42.43467" lon="2.66658">
        <ele>834</ele>
        <time>2024-09-20T12:10:45Z</time>
      </trkpt>
      <trkpt lat="42.43468" lon="2.66662">
        <ele>833</ele>
        <time>2024-09-20T12:10:47Z</time>
      </trkpt>
      <trkpt lat="42.4347" lon="2.66666">
        <ele>834</ele>
        <time>2024-09-20T12:10:50Z</time>
      </trkpt>
      <trkpt lat="42.43472" lon="2.66669">
        <ele>834</ele>
        <time>2024-09-20T12:10:52Z</time>
      </trkpt>
      <trkpt lat="42.43472" lon="2.66674">
        <ele>833</ele>
        <time>2024-09-20T12:10:55Z</time>
      </trkpt>
      <trkpt lat="42.43471" lon="2.66678">
        <ele>834</ele>
        <time>2024-09-20T12:10:58Z</time>
      </trkpt>
      <trkpt lat="42.4347" lon="2.66681">
        <ele>833</ele>
        <time>2024-09-20T12:11:01Z</time>
      </trkpt>
      <trkpt lat="42.43468" lon="2.66684">
        <ele>833</ele>
        <time>2024-09-20T12:11:03Z</time>
      </trkpt>
      <trkpt lat="42.43465" lon="2.66685">
        <ele>832</ele>
        <time>2024-09-20T12:11:06Z</time>
      </trkpt>
      <trkpt lat="42.43462" lon="2.66685">
        <ele>832</ele>
        <time>2024-09-20T12:11:10Z</time>
      </trkpt>
      <trkpt lat="42.43459" lon="2.66686">
        <ele>832</ele>
        <time>2024-09-20T12:11:13Z</time>
      </trkpt>
      <trkpt lat="42.43456" lon="2.66687">
        <ele>833</ele>
        <time>2024-09-20T12:11:15Z</time>
      </trkpt>
      <trkpt lat="42.43453" lon="2.66689">
        <ele>833</ele>
        <time>2024-09-20T12:11:17Z</time>
      </trkpt>
      <trkpt lat="42.4345" lon="2.6669">
        <ele>832</ele>
        <time>2024-09-20T12:11:21Z</time>
      </trkpt>
      <trkpt lat="42.43447" lon="2.6669">
        <ele>832</ele>
        <time>2024-09-20T12:11:24Z</time>
      </trkpt>
      <trkpt lat="42.43444" lon="2.66691">
        <ele>831</ele>
        <time>2024-09-20T12:11:27Z</time>
      </trkpt>
      <trkpt lat="42.4344" lon="2.66691">
        <ele>831</ele>
        <time>2024-09-20T12:11:30Z</time>
      </trkpt>
      <trkpt lat="42.43437" lon="2.6669">
        <ele>831</ele>
        <time>2024-09-20T12:11:34Z</time>
      </trkpt>
      <trkpt lat="42.43434" lon="2.66689">
        <ele>829</ele>
        <time>2024-09-20T12:11:38Z</time>
      </trkpt>
      <trkpt lat="42.43434" lon="2.66691">
        <ele>827</ele>
        <time>2024-09-20T12:11:41Z</time>
      </trkpt>
      <trkpt lat="42.43434" lon="2.66694">
        <ele>827</ele>
        <time>2024-09-20T12:11:44Z</time>
      </trkpt>
      <trkpt lat="42.43435" lon="2.66698">
        <ele>823</ele>
        <time>2024-09-20T12:11:50Z</time>
      </trkpt>
      <trkpt lat="42.43437" lon="2.667">
        <ele>823</ele>
        <time>2024-09-20T12:11:52Z</time>
      </trkpt>
      <trkpt lat="42.43438" lon="2.66703">
        <ele>822</ele>
        <time>2024-09-20T12:11:55Z</time>
      </trkpt>
      <trkpt lat="42.43436" lon="2.66706">
        <ele>822</ele>
        <time>2024-09-20T12:11:59Z</time>
      </trkpt>
      <trkpt lat="42.43434" lon="2.66707">
        <ele>821</ele>
        <time>2024-09-20T12:12:02Z</time>
      </trkpt>
      <trkpt lat="42.43431" lon="2.66709">
        <ele>820</ele>
        <time>2024-09-20T12:12:05Z</time>
      </trkpt>
      <trkpt lat="42.43428" lon="2.6671">
        <ele>821</ele>
        <time>2024-09-20T12:12:09Z</time>
      </trkpt>
      <trkpt lat="42.43425" lon="2.66708">
        <ele>820</ele>
        <time>2024-09-20T12:12:13Z</time>
      </trkpt>
      <trkpt lat="42.43422" lon="2.66706">
        <ele>819</ele>
        <time>2024-09-20T12:12:16Z</time>
      </trkpt>
      <trkpt lat="42.4342" lon="2.66703">
        <ele>818</ele>
        <time>2024-09-20T12:12:19Z</time>
      </trkpt>
      <trkpt lat="42.43418" lon="2.66699">
        <ele>819</ele>
        <time>2024-09-20T12:12:22Z</time>
      </trkpt>
      <trkpt lat="42.43417" lon="2.66696">
        <ele>820</ele>
        <time>2024-09-20T12:12:25Z</time>
      </trkpt>
      <trkpt lat="42.43417" lon="2.66698">
        <ele>820</ele>
        <time>2024-09-20T12:12:41Z</time>
      </trkpt>
      <trkpt lat="42.43415" lon="2.667">
        <ele>821</ele>
        <time>2024-09-20T12:12:46Z</time>
      </trkpt>
      <trkpt lat="42.43413" lon="2.66702">
        <ele>821</ele>
        <time>2024-09-20T12:12:50Z</time>
      </trkpt>
      <trkpt lat="42.43411" lon="2.66705">
        <ele>821</ele>
        <time>2024-09-20T12:12:54Z</time>
      </trkpt>
      <trkpt lat="42.43408" lon="2.66707">
        <ele>822</ele>
        <time>2024-09-20T12:12:58Z</time>
      </trkpt>
      <trkpt lat="42.43406" lon="2.6671">
        <ele>820</ele>
        <time>2024-09-20T12:13:02Z</time>
      </trkpt>
      <trkpt lat="42.43403" lon="2.66713">
        <ele>820</ele>
        <time>2024-09-20T12:13:07Z</time>
      </trkpt>
      <trkpt lat="42.43401" lon="2.66716">
        <ele>819</ele>
        <time>2024-09-20T12:13:12Z</time>
      </trkpt>
      <trkpt lat="42.43399" lon="2.66715">
        <ele>817</ele>
        <time>2024-09-20T12:13:23Z</time>
      </trkpt>
      <trkpt lat="42.43399" lon="2.66711">
        <ele>815</ele>
        <time>2024-09-20T12:13:28Z</time>
      </trkpt>
      <trkpt lat="42.43397" lon="2.66709">
        <ele>814</ele>
        <time>2024-09-20T12:13:33Z</time>
      </trkpt>
      <trkpt lat="42.43395" lon="2.6671">
        <ele>814</ele>
        <time>2024-09-20T12:13:37Z</time>
      </trkpt>
      <trkpt lat="42.43394" lon="2.66714">
        <ele>812</ele>
        <time>2024-09-20T12:13:41Z</time>
      </trkpt>
      <trkpt lat="42.43392" lon="2.66718">
        <ele>811</ele>
        <time>2024-09-20T12:13:46Z</time>
      </trkpt>
      <trkpt lat="42.43391" lon="2.66722">
        <ele>811</ele>
        <time>2024-09-20T12:13:48Z</time>
      </trkpt>
      <trkpt lat="42.4339" lon="2.66725">
        <ele>811</ele>
        <time>2024-09-20T12:13:55Z</time>
      </trkpt>
      <trkpt lat="42.43387" lon="2.66726">
        <ele>811</ele>
        <time>2024-09-20T12:14:03Z</time>
      </trkpt>
      <trkpt lat="42.43385" lon="2.66726">
        <ele>816</ele>
        <time>2024-09-20T12:15:41Z</time>
      </trkpt>
      <trkpt lat="42.43385" lon="2.66723">
        <ele>815</ele>
        <time>2024-09-20T12:18:56Z</time>
      </trkpt>
      <trkpt lat="42.43385" lon="2.66719">
        <ele>814</ele>
        <time>2024-09-20T12:18:59Z</time>
      </trkpt>
      <trkpt lat="42.43385" lon="2.66715">
        <ele>810</ele>
        <time>2024-09-20T12:19:03Z</time>
      </trkpt>
      <trkpt lat="42.43385" lon="2.66711">
        <ele>810</ele>
        <time>2024-09-20T12:19:06Z</time>
      </trkpt>
      <trkpt lat="42.43385" lon="2.66706">
        <ele>810</ele>
        <time>2024-09-20T12:19:09Z</time>
      </trkpt>
      <trkpt lat="42.43384" lon="2.66702">
        <ele>809</ele>
        <time>2024-09-20T12:19:12Z</time>
      </trkpt>
      <trkpt lat="42.43382" lon="2.66697">
        <ele>809</ele>
        <time>2024-09-20T12:19:16Z</time>
      </trkpt>
      <trkpt lat="42.43382" lon="2.66698">
        <ele>808</ele>
        <time>2024-09-20T12:19:19Z</time>
      </trkpt>
      <trkpt lat="42.43382" lon="2.66701">
        <ele>807</ele>
        <time>2024-09-20T12:19:21Z</time>
      </trkpt>
      <trkpt lat="42.43382" lon="2.66705">
        <ele>806</ele>
        <time>2024-09-20T12:19:25Z</time>
      </trkpt>
      <trkpt lat="42.43381" lon="2.66709">
        <ele>806</ele>
        <time>2024-09-20T12:19:28Z</time>
      </trkpt>
      <trkpt lat="42.4338" lon="2.66712">
        <ele>805</ele>
        <time>2024-09-20T12:19:30Z</time>
      </trkpt>
      <trkpt lat="42.43378" lon="2.66716">
        <ele>806</ele>
        <time>2024-09-20T12:19:35Z</time>
      </trkpt>
      <trkpt lat="42.43376" lon="2.66719">
        <ele>804</ele>
        <time>2024-09-20T12:19:38Z</time>
      </trkpt>
      <trkpt lat="42.43374" lon="2.66722">
        <ele>803</ele>
        <time>2024-09-20T12:19:42Z</time>
      </trkpt>
      <trkpt lat="42.43373" lon="2.66726">
        <ele>802</ele>
        <time>2024-09-20T12:19:46Z</time>
      </trkpt>
      <trkpt lat="42.43371" lon="2.6673">
        <ele>801</ele>
        <time>2024-09-20T12:19:49Z</time>
      </trkpt>
      <trkpt lat="42.43369" lon="2.66733">
        <ele>800</ele>
        <time>2024-09-20T12:19:53Z</time>
      </trkpt>
      <trkpt lat="42.43368" lon="2.66736">
        <ele>800</ele>
        <time>2024-09-20T12:19:58Z</time>
      </trkpt>
      <trkpt lat="42.43366" lon="2.66739">
        <ele>796</ele>
        <time>2024-09-20T12:20:03Z</time>
      </trkpt>
      <trkpt lat="42.43364" lon="2.66738">
        <ele>796</ele>
        <time>2024-09-20T12:20:04Z</time>
      </trkpt>
      <trkpt lat="42.43362" lon="2.66734">
        <ele>795</ele>
        <time>2024-09-20T12:20:07Z</time>
      </trkpt>
      <trkpt lat="42.43362" lon="2.66731">
        <ele>794</ele>
        <time>2024-09-20T12:20:11Z</time>
      </trkpt>
      <trkpt lat="42.43362" lon="2.66727">
        <ele>792</ele>
        <time>2024-09-20T12:20:15Z</time>
      </trkpt>
      <trkpt lat="42.43362" lon="2.66723">
        <ele>791</ele>
        <time>2024-09-20T12:20:18Z</time>
      </trkpt>
      <trkpt lat="42.43361" lon="2.6672">
        <ele>791</ele>
        <time>2024-09-20T12:20:22Z</time>
      </trkpt>
      <trkpt lat="42.4336" lon="2.6672">
        <ele>790</ele>
        <time>2024-09-20T12:20:29Z</time>
      </trkpt>
      <trkpt lat="42.43359" lon="2.66723">
        <ele>789</ele>
        <time>2024-09-20T12:20:33Z</time>
      </trkpt>
      <trkpt lat="42.43358" lon="2.66727">
        <ele>789</ele>
        <time>2024-09-20T12:20:38Z</time>
      </trkpt>
      <trkpt lat="42.43357" lon="2.6673">
        <ele>788</ele>
        <time>2024-09-20T12:20:41Z</time>
      </trkpt>
      <trkpt lat="42.43356" lon="2.66734">
        <ele>787</ele>
        <time>2024-09-20T12:20:47Z</time>
      </trkpt>
      <trkpt lat="42.43354" lon="2.66738">
        <ele>786</ele>
        <time>2024-09-20T12:20:50Z</time>
      </trkpt>
      <trkpt lat="42.43353" lon="2.66741">
        <ele>785</ele>
        <time>2024-09-20T12:21:01Z</time>
      </trkpt>
      <trkpt lat="42.43352" lon="2.66745">
        <ele>784</ele>
        <time>2024-09-20T12:21:05Z</time>
      </trkpt>
      <trkpt lat="42.4335" lon="2.66747">
        <ele>783</ele>
        <time>2024-09-20T12:21:09Z</time>
      </trkpt>
      <trkpt lat="42.43348" lon="2.66751">
        <ele>782</ele>
        <time>2024-09-20T12:21:10Z</time>
      </trkpt>
      <trkpt lat="42.43347" lon="2.66755">
        <ele>780</ele>
        <time>2024-09-20T12:21:14Z</time>
      </trkpt>
      <trkpt lat="42.43347" lon="2.66758">
        <ele>781</ele>
        <time>2024-09-20T12:21:17Z</time>
      </trkpt>
      <trkpt lat="42.43345" lon="2.66762">
        <ele>780</ele>
        <time>2024-09-20T12:21:22Z</time>
      </trkpt>
      <trkpt lat="42.43344" lon="2.66765">
        <ele>779</ele>
        <time>2024-09-20T12:21:25Z</time>
      </trkpt>
      <trkpt lat="42.43342" lon="2.66768">
        <ele>780</ele>
        <time>2024-09-20T12:21:27Z</time>
      </trkpt>
      <trkpt lat="42.43341" lon="2.66773">
        <ele>777</ele>
        <time>2024-09-20T12:21:31Z</time>
      </trkpt>
      <trkpt lat="42.4334" lon="2.66777">
        <ele>777</ele>
        <time>2024-09-20T12:21:35Z</time>
      </trkpt>
      <trkpt lat="42.43339" lon="2.66781">
        <ele>773</ele>
        <time>2024-09-20T12:21:40Z</time>
      </trkpt>
      <trkpt lat="42.43339" lon="2.66786">
        <ele>772</ele>
        <time>2024-09-20T12:21:43Z</time>
      </trkpt>
      <trkpt lat="42.43338" lon="2.6679">
        <ele>770</ele>
        <time>2024-09-20T12:21:47Z</time>
      </trkpt>
      <trkpt lat="42.43337" lon="2.66794">
        <ele>770</ele>
        <time>2024-09-20T12:21:50Z</time>
      </trkpt>
      <trkpt lat="42.43336" lon="2.66798">
        <ele>768</ele>
        <time>2024-09-20T12:21:55Z</time>
      </trkpt>
      <trkpt lat="42.43335" lon="2.66803">
        <ele>768</ele>
        <time>2024-09-20T12:21:59Z</time>
      </trkpt>
      <trkpt lat="42.43334" lon="2.66807">
        <ele>767</ele>
        <time>2024-09-20T12:22:03Z</time>
      </trkpt>
      <trkpt lat="42.43333" lon="2.66811">
        <ele>766</ele>
        <time>2024-09-20T12:22:06Z</time>
      </trkpt>
      <trkpt lat="42.43332" lon="2.66814">
        <ele>766</ele>
        <time>2024-09-20T12:22:08Z</time>
      </trkpt>
      <trkpt lat="42.43333" lon="2.66818">
        <ele>764</ele>
        <time>2024-09-20T12:22:11Z</time>
      </trkpt>
      <trkpt lat="42.43334" lon="2.66822">
        <ele>761</ele>
        <time>2024-09-20T12:22:16Z</time>
      </trkpt>
      <trkpt lat="42.43335" lon="2.66826">
        <ele>760</ele>
        <time>2024-09-20T12:22:18Z</time>
      </trkpt>
      <trkpt lat="42.43337" lon="2.66828">
        <ele>760</ele>
        <time>2024-09-20T12:22:22Z</time>
      </trkpt>
      <trkpt lat="42.43339" lon="2.66831">
        <ele>758</ele>
        <time>2024-09-20T12:22:26Z</time>
      </trkpt>
      <trkpt lat="42.43342" lon="2.66834">
        <ele>755</ele>
        <time>2024-09-20T12:22:33Z</time>
      </trkpt>
      <trkpt lat="42.43344" lon="2.66838">
        <ele>753</ele>
        <time>2024-09-20T12:22:37Z</time>
      </trkpt>
      <trkpt lat="42.43346" lon="2.66841">
        <ele>754</ele>
        <time>2024-09-20T12:22:40Z</time>
      </trkpt>
      <trkpt lat="42.43347" lon="2.66845">
        <ele>757</ele>
        <time>2024-09-20T12:22:57Z</time>
      </trkpt>
      <trkpt lat="42.43349" lon="2.66847">
        <ele>756</ele>
        <time>2024-09-20T12:23:00Z</time>
      </trkpt>
      <trkpt lat="42.43352" lon="2.66849">
        <ele>755</ele>
        <time>2024-09-20T12:23:04Z</time>
      </trkpt>
      <trkpt lat="42.43354" lon="2.66851">
        <ele>754</ele>
        <time>2024-09-20T12:23:06Z</time>
      </trkpt>
      <trkpt lat="42.43353" lon="2.66855">
        <ele>754</ele>
        <time>2024-09-20T12:23:09Z</time>
      </trkpt>
      <trkpt lat="42.43352" lon="2.66858">
        <ele>753</ele>
        <time>2024-09-20T12:23:13Z</time>
      </trkpt>
      <trkpt lat="42.4335" lon="2.6686">
        <ele>753</ele>
        <time>2024-09-20T12:23:16Z</time>
      </trkpt>
      <trkpt lat="42.43347" lon="2.66861">
        <ele>753</ele>
        <time>2024-09-20T12:23:19Z</time>
      </trkpt>
      <trkpt lat="42.43344" lon="2.66861">
        <ele>752</ele>
        <time>2024-09-20T12:23:24Z</time>
      </trkpt>
      <trkpt lat="42.43341" lon="2.66861">
        <ele>751</ele>
        <time>2024-09-20T12:23:27Z</time>
      </trkpt>
      <trkpt lat="42.43338" lon="2.66859">
        <ele>750</ele>
        <time>2024-09-20T12:23:32Z</time>
      </trkpt>
      <trkpt lat="42.43336" lon="2.66859">
        <ele>751</ele>
        <time>2024-09-20T12:23:35Z</time>
      </trkpt>
      <trkpt lat="42.43333" lon="2.66859">
        <ele>751</ele>
        <time>2024-09-20T12:23:40Z</time>
      </trkpt>
      <trkpt lat="42.4333" lon="2.66859">
        <ele>748</ele>
        <time>2024-09-20T12:23:53Z</time>
      </trkpt>
      <trkpt lat="42.43327" lon="2.66859">
        <ele>747</ele>
        <time>2024-09-20T12:23:58Z</time>
      </trkpt>
      <trkpt lat="42.43324" lon="2.6686">
        <ele>746</ele>
        <time>2024-09-20T12:24:00Z</time>
      </trkpt>
      <trkpt lat="42.43321" lon="2.6686">
        <ele>746</ele>
        <time>2024-09-20T12:24:05Z</time>
      </trkpt>
      <trkpt lat="42.43318" lon="2.66861">
        <ele>745</ele>
        <time>2024-09-20T12:24:08Z</time>
      </trkpt>
      <trkpt lat="42.43315" lon="2.66861">
        <ele>745</ele>
        <time>2024-09-20T12:24:12Z</time>
      </trkpt>
      <trkpt lat="42.43312" lon="2.66861">
        <ele>744</ele>
        <time>2024-09-20T12:24:15Z</time>
      </trkpt>
      <trkpt lat="42.43309" lon="2.66863">
        <ele>744</ele>
        <time>2024-09-20T12:24:17Z</time>
      </trkpt>
      <trkpt lat="42.43307" lon="2.66866">
        <ele>743</ele>
        <time>2024-09-20T12:24:21Z</time>
      </trkpt>
      <trkpt lat="42.43304" lon="2.66867">
        <ele>740</ele>
        <time>2024-09-20T12:24:25Z</time>
      </trkpt>
      <trkpt lat="42.43301" lon="2.6687">
        <ele>740</ele>
        <time>2024-09-20T12:24:28Z</time>
      </trkpt>
      <trkpt lat="42.43298" lon="2.66872">
        <ele>739</ele>
        <time>2024-09-20T12:24:31Z</time>
      </trkpt>
      <trkpt lat="42.43295" lon="2.66873">
        <ele>739</ele>
        <time>2024-09-20T12:24:33Z</time>
      </trkpt>
      <trkpt lat="42.43292" lon="2.66874">
        <ele>738</ele>
        <time>2024-09-20T12:24:36Z</time>
      </trkpt>
      <trkpt lat="42.43292" lon="2.66876">
        <ele>737</ele>
        <time>2024-09-20T12:24:39Z</time>
      </trkpt>
      <trkpt lat="42.43295" lon="2.66877">
        <ele>736</ele>
        <time>2024-09-20T12:24:42Z</time>
      </trkpt>
      <trkpt lat="42.43297" lon="2.66876">
        <ele>736</ele>
        <time>2024-09-20T12:24:45Z</time>
      </trkpt>
      <trkpt lat="42.433" lon="2.66876">
        <ele>735</ele>
        <time>2024-09-20T12:24:49Z</time>
      </trkpt>
      <trkpt lat="42.43303" lon="2.66877">
        <ele>734</ele>
        <time>2024-09-20T12:24:52Z</time>
      </trkpt>
      <trkpt lat="42.43306" lon="2.66877">
        <ele>735</ele>
        <time>2024-09-20T12:24:55Z</time>
      </trkpt>
      <trkpt lat="42.43309" lon="2.66876">
        <ele>734</ele>
        <time>2024-09-20T12:24:57Z</time>
      </trkpt>
      <trkpt lat="42.4331" lon="2.6688">
        <ele>733</ele>
        <time>2024-09-20T12:25:00Z</time>
      </trkpt>
      <trkpt lat="42.43309" lon="2.66883">
        <ele>733</ele>
        <time>2024-09-20T12:25:03Z</time>
      </trkpt>
      <trkpt lat="42.43307" lon="2.66886">
        <ele>732</ele>
        <time>2024-09-20T12:25:06Z</time>
      </trkpt>
      <trkpt lat="42.43304" lon="2.66887">
        <ele>732</ele>
        <time>2024-09-20T12:25:09Z</time>
      </trkpt>
      <trkpt lat="42.43301" lon="2.66889">
        <ele>731</ele>
        <time>2024-09-20T12:25:11Z</time>
      </trkpt>
      <trkpt lat="42.43298" lon="2.6689">
        <ele>730</ele>
        <time>2024-09-20T12:25:15Z</time>
      </trkpt>
      <trkpt lat="42.43294" lon="2.66892">
        <ele>730</ele>
        <time>2024-09-20T12:25:18Z</time>
      </trkpt>
      <trkpt lat="42.43292" lon="2.66894">
        <ele>729</ele>
        <time>2024-09-20T12:25:21Z</time>
      </trkpt>
      <trkpt lat="42.43289" lon="2.66895">
        <ele>729</ele>
        <time>2024-09-20T12:25:23Z</time>
      </trkpt>
      <trkpt lat="42.43285" lon="2.66896">
        <ele>728</ele>
        <time>2024-09-20T12:25:26Z</time>
      </trkpt>
      <trkpt lat="42.43282" lon="2.66896">
        <ele>728</ele>
        <time>2024-09-20T12:25:29Z</time>
      </trkpt>
      <trkpt lat="42.4328" lon="2.66895">
        <ele>727</ele>
        <time>2024-09-20T12:25:32Z</time>
      </trkpt>
      <trkpt lat="42.43277" lon="2.66895">
        <ele>727</ele>
        <time>2024-09-20T12:25:34Z</time>
      </trkpt>
      <trkpt lat="42.43274" lon="2.66895">
        <ele>727</ele>
        <time>2024-09-20T12:25:37Z</time>
      </trkpt>
      <trkpt lat="42.43271" lon="2.66894">
        <ele>726</ele>
        <time>2024-09-20T12:25:40Z</time>
      </trkpt>
      <trkpt lat="42.43268" lon="2.66893">
        <ele>726</ele>
        <time>2024-09-20T12:25:42Z</time>
      </trkpt>
      <trkpt lat="42.43266" lon="2.66891">
        <ele>724</ele>
        <time>2024-09-20T12:25:45Z</time>
      </trkpt>
      <trkpt lat="42.43263" lon="2.66889">
        <ele>724</ele>
        <time>2024-09-20T12:25:49Z</time>
      </trkpt>
      <trkpt lat="42.4326" lon="2.66889">
        <ele>723</ele>
        <time>2024-09-20T12:25:53Z</time>
      </trkpt>
      <trkpt lat="42.43257" lon="2.6689">
        <ele>721</ele>
        <time>2024-09-20T12:25:58Z</time>
      </trkpt>
      <trkpt lat="42.43254" lon="2.66891">
        <ele>721</ele>
        <time>2024-09-20T12:26:02Z</time>
      </trkpt>
      <trkpt lat="42.43251" lon="2.66891">
        <ele>720</ele>
        <time>2024-09-20T12:26:05Z</time>
      </trkpt>
      <trkpt lat="42.43248" lon="2.66892">
        <ele>719</ele>
        <time>2024-09-20T12:26:08Z</time>
      </trkpt>
      <trkpt lat="42.43247" lon="2.66895">
        <ele>716</ele>
        <time>2024-09-20T12:26:17Z</time>
      </trkpt>
      <trkpt lat="42.43248" lon="2.66898">
        <ele>714</ele>
        <time>2024-09-20T12:26:21Z</time>
      </trkpt>
      <trkpt lat="42.4325" lon="2.669">
        <ele>714</ele>
        <time>2024-09-20T12:26:23Z</time>
      </trkpt>
      <trkpt lat="42.43252" lon="2.66903">
        <ele>711</ele>
        <time>2024-09-20T12:26:27Z</time>
      </trkpt>
      <trkpt lat="42.43253" lon="2.66907">
        <ele>711</ele>
        <time>2024-09-20T12:26:30Z</time>
      </trkpt>
      <trkpt lat="42.43255" lon="2.66909">
        <ele>710</ele>
        <time>2024-09-20T12:26:33Z</time>
      </trkpt>
      <trkpt lat="42.43258" lon="2.66912">
        <ele>709</ele>
        <time>2024-09-20T12:26:38Z</time>
      </trkpt>
      <trkpt lat="42.4326" lon="2.66914">
        <ele>708</ele>
        <time>2024-09-20T12:26:40Z</time>
      </trkpt>
      <trkpt lat="42.43263" lon="2.66916">
        <ele>709</ele>
        <time>2024-09-20T12:26:43Z</time>
      </trkpt>
      <trkpt lat="42.43266" lon="2.66918">
        <ele>708</ele>
        <time>2024-09-20T12:26:46Z</time>
      </trkpt>
      <trkpt lat="42.43268" lon="2.66921">
        <ele>707</ele>
        <time>2024-09-20T12:26:49Z</time>
      </trkpt>
      <trkpt lat="42.43268" lon="2.66924">
        <ele>708</ele>
        <time>2024-09-20T12:26:51Z</time>
      </trkpt>
      <trkpt lat="42.43267" lon="2.66926">
        <ele>707</ele>
        <time>2024-09-20T12:26:54Z</time>
      </trkpt>
      <trkpt lat="42.43264" lon="2.66927">
        <ele>706</ele>
        <time>2024-09-20T12:26:56Z</time>
      </trkpt>
      <trkpt lat="42.43262" lon="2.66927">
        <ele>705</ele>
        <time>2024-09-20T12:27:00Z</time>
      </trkpt>
      <trkpt lat="42.43259" lon="2.66929">
        <ele>706</ele>
        <time>2024-09-20T12:27:03Z</time>
      </trkpt>
      <trkpt lat="42.43256" lon="2.6693">
        <ele>705</ele>
        <time>2024-09-20T12:27:08Z</time>
      </trkpt>
      <trkpt lat="42.43253" lon="2.66931">
        <ele>705</ele>
        <time>2024-09-20T12:27:12Z</time>
      </trkpt>
      <trkpt lat="42.4325" lon="2.66932">
        <ele>704</ele>
        <time>2024-09-20T12:27:16Z</time>
      </trkpt>
      <trkpt lat="42.43247" lon="2.66933">
        <ele>704</ele>
        <time>2024-09-20T12:27:19Z</time>
      </trkpt>
      <trkpt lat="42.43244" lon="2.66932">
        <ele>703</ele>
        <time>2024-09-20T12:27:22Z</time>
      </trkpt>
      <trkpt lat="42.43241" lon="2.66932">
        <ele>702</ele>
        <time>2024-09-20T12:27:26Z</time>
      </trkpt>
      <trkpt lat="42.43239" lon="2.66934">
        <ele>701</ele>
        <time>2024-09-20T12:27:29Z</time>
      </trkpt>
      <trkpt lat="42.43236" lon="2.66935">
        <ele>701</ele>
        <time>2024-09-20T12:27:34Z</time>
      </trkpt>
      <trkpt lat="42.43234" lon="2.66937">
        <ele>700</ele>
        <time>2024-09-20T12:27:39Z</time>
      </trkpt>
      <trkpt lat="42.4323" lon="2.66939">
        <ele>699</ele>
        <time>2024-09-20T12:27:44Z</time>
      </trkpt>
      <trkpt lat="42.43227" lon="2.66939">
        <ele>698</ele>
        <time>2024-09-20T12:27:48Z</time>
      </trkpt>
      <trkpt lat="42.43224" lon="2.66941">
        <ele>698</ele>
        <time>2024-09-20T12:27:54Z</time>
      </trkpt>
      <trkpt lat="42.43222" lon="2.66943">
        <ele>696</ele>
        <time>2024-09-20T12:27:59Z</time>
      </trkpt>
      <trkpt lat="42.4322" lon="2.66945">
        <ele>697</ele>
        <time>2024-09-20T12:28:10Z</time>
      </trkpt>
      <trkpt lat="42.43217" lon="2.66948">
        <ele>696</ele>
        <time>2024-09-20T12:28:12Z</time>
      </trkpt>
      <trkpt lat="42.43214" lon="2.66948">
        <ele>694</ele>
        <time>2024-09-20T12:28:18Z</time>
      </trkpt>
      <trkpt lat="42.43212" lon="2.66951">
        <ele>693</ele>
        <time>2024-09-20T12:28:23Z</time>
      </trkpt>
      <trkpt lat="42.43209" lon="2.66953">
        <ele>693</ele>
        <time>2024-09-20T12:28:26Z</time>
      </trkpt>
      <trkpt lat="42.43206" lon="2.66954">
        <ele>692</ele>
        <time>2024-09-20T12:28:28Z</time>
      </trkpt>
      <trkpt lat="42.43203" lon="2.66956">
        <ele>691</ele>
        <time>2024-09-20T12:28:31Z</time>
      </trkpt>
      <trkpt lat="42.432" lon="2.66957">
        <ele>690</ele>
        <time>2024-09-20T12:28:33Z</time>
      </trkpt>
      <trkpt lat="42.43197" lon="2.66957">
        <ele>688</ele>
        <time>2024-09-20T12:28:37Z</time>
      </trkpt>
      <trkpt lat="42.43195" lon="2.6696">
        <ele>685</ele>
        <time>2024-09-20T12:28:42Z</time>
      </trkpt>
      <trkpt lat="42.43193" lon="2.66962">
        <ele>684</ele>
        <time>2024-09-20T12:28:44Z</time>
      </trkpt>
      <trkpt lat="42.43191" lon="2.66964">
        <ele>682</ele>
        <time>2024-09-20T12:28:48Z</time>
      </trkpt>
      <trkpt lat="42.43188" lon="2.66966">
        <ele>681</ele>
        <time>2024-09-20T12:28:51Z</time>
      </trkpt>
      <trkpt lat="42.43184" lon="2.66966">
        <ele>681</ele>
        <time>2024-09-20T12:28:55Z</time>
      </trkpt>
      <trkpt lat="42.43182" lon="2.66968">
        <ele>681</ele>
        <time>2024-09-20T12:28:56Z</time>
      </trkpt>
      <trkpt lat="42.43179" lon="2.6697">
        <ele>679</ele>
        <time>2024-09-20T12:29:00Z</time>
      </trkpt>
      <trkpt lat="42.43176" lon="2.66969">
        <ele>679</ele>
        <time>2024-09-20T12:29:02Z</time>
      </trkpt>
      <trkpt lat="42.43172" lon="2.6697">
        <ele>677</ele>
        <time>2024-09-20T12:29:05Z</time>
      </trkpt>
      <trkpt lat="42.43168" lon="2.66969">
        <ele>675</ele>
        <time>2024-09-20T12:29:08Z</time>
      </trkpt>
      <trkpt lat="42.43165" lon="2.66969">
        <ele>675</ele>
        <time>2024-09-20T12:29:11Z</time>
      </trkpt>
      <trkpt lat="42.43161" lon="2.66971">
        <ele>674</ele>
        <time>2024-09-20T12:29:14Z</time>
      </trkpt>
      <trkpt lat="42.43158" lon="2.6697">
        <ele>673</ele>
        <time>2024-09-20T12:29:17Z</time>
      </trkpt>
      <trkpt lat="42.43156" lon="2.66973">
        <ele>671</ele>
        <time>2024-09-20T12:29:22Z</time>
      </trkpt>
      <trkpt lat="42.43158" lon="2.66974">
        <ele>669</ele>
        <time>2024-09-20T12:29:26Z</time>
      </trkpt>
      <trkpt lat="42.43161" lon="2.66975">
        <ele>668</ele>
        <time>2024-09-20T12:29:30Z</time>
      </trkpt>
      <trkpt lat="42.43162" lon="2.66978">
        <ele>668</ele>
        <time>2024-09-20T12:29:32Z</time>
      </trkpt>
      <trkpt lat="42.4316" lon="2.6698">
        <ele>666</ele>
        <time>2024-09-20T12:29:35Z</time>
      </trkpt>
      <trkpt lat="42.43157" lon="2.66981">
        <ele>665</ele>
        <time>2024-09-20T12:29:38Z</time>
      </trkpt>
      <trkpt lat="42.43154" lon="2.66981">
        <ele>664</ele>
        <time>2024-09-20T12:29:41Z</time>
      </trkpt>
      <trkpt lat="42.4315" lon="2.6698">
        <ele>664</ele>
        <time>2024-09-20T12:29:43Z</time>
      </trkpt>
      <trkpt lat="42.43148" lon="2.66979">
        <ele>663</ele>
        <time>2024-09-20T12:29:46Z</time>
      </trkpt>
      <trkpt lat="42.43144" lon="2.66976">
        <ele>662</ele>
        <time>2024-09-20T12:29:49Z</time>
      </trkpt>
      <trkpt lat="42.43142" lon="2.66975">
        <ele>662</ele>
        <time>2024-09-20T12:29:51Z</time>
      </trkpt>
      <trkpt lat="42.4314" lon="2.66972">
        <ele>661</ele>
        <time>2024-09-20T12:29:54Z</time>
      </trkpt>
      <trkpt lat="42.43137" lon="2.6697">
        <ele>660</ele>
        <time>2024-09-20T12:29:57Z</time>
      </trkpt>
      <trkpt lat="42.43135" lon="2.66969">
        <ele>660</ele>
        <time>2024-09-20T12:29:59Z</time>
      </trkpt>
      <trkpt lat="42.43132" lon="2.66968">
        <ele>660</ele>
        <time>2024-09-20T12:30:04Z</time>
      </trkpt>
      <trkpt lat="42.43129" lon="2.66966">
        <ele>659</ele>
        <time>2024-09-20T12:30:07Z</time>
      </trkpt>
      <trkpt lat="42.43127" lon="2.66963">
        <ele>659</ele>
        <time>2024-09-20T12:30:10Z</time>
      </trkpt>
      <trkpt lat="42.43125" lon="2.6696">
        <ele>659</ele>
        <time>2024-09-20T12:30:13Z</time>
      </trkpt>
      <trkpt lat="42.43123" lon="2.66959">
        <ele>659</ele>
        <time>2024-09-20T12:30:16Z</time>
      </trkpt>
      <trkpt lat="42.4312" lon="2.66962">
        <ele>658</ele>
        <time>2024-09-20T12:30:19Z</time>
      </trkpt>
      <trkpt lat="42.43117" lon="2.66963">
        <ele>658</ele>
        <time>2024-09-20T12:30:22Z</time>
      </trkpt>
      <trkpt lat="42.43114" lon="2.66962">
        <ele>658</ele>
        <time>2024-09-20T12:30:25Z</time>
      </trkpt>
      <trkpt lat="42.4311" lon="2.66959">
        <ele>656</ele>
        <time>2024-09-20T12:30:29Z</time>
      </trkpt>
      <trkpt lat="42.43107" lon="2.66957">
        <ele>657</ele>
        <time>2024-09-20T12:30:33Z</time>
      </trkpt>
      <trkpt lat="42.43104" lon="2.66958">
        <ele>657</ele>
        <time>2024-09-20T12:30:35Z</time>
      </trkpt>
      <trkpt lat="42.43104" lon="2.66956">
        <ele>653</ele>
        <time>2024-09-20T12:31:11Z</time>
      </trkpt>
      <trkpt lat="42.43106" lon="2.66954">
        <ele>663</ele>
        <time>2024-09-20T12:32:15Z</time>
      </trkpt>
      <trkpt lat="42.43105" lon="2.66956">
        <ele>663</ele>
        <time>2024-09-20T12:32:58Z</time>
      </trkpt>
      <trkpt lat="42.43102" lon="2.66958">
        <ele>663</ele>
        <time>2024-09-20T12:34:43Z</time>
      </trkpt>
      <trkpt lat="42.43103" lon="2.66958">
        <ele>662</ele>
        <time>2024-09-20T12:34:50Z</time>
      </trkpt>
      <trkpt lat="42.43102" lon="2.66956">
        <ele>662</ele>
        <time>2024-09-20T12:35:01Z</time>
      </trkpt>
      <trkpt lat="42.43103" lon="2.66954">
        <ele>662</ele>
        <time>2024-09-20T12:35:03Z</time>
      </trkpt>
      <trkpt lat="42.43101" lon="2.66954">
        <ele>662</ele>
        <time>2024-09-20T12:35:14Z</time>
      </trkpt>
      <trkpt lat="42.43102" lon="2.66955">
        <ele>661</ele>
        <time>2024-09-20T12:35:17Z</time>
      </trkpt>
      <trkpt lat="42.43101" lon="2.66957">
        <ele>660</ele>
        <time>2024-09-20T12:35:19Z</time>
      </trkpt>
      <trkpt lat="42.43103" lon="2.66957">
        <ele>661</ele>
        <time>2024-09-20T12:35:34Z</time>
      </trkpt>
      <trkpt lat="42.43102" lon="2.6696">
        <ele>659</ele>
        <time>2024-09-20T12:35:49Z</time>
      </trkpt>
      <trkpt lat="42.43104" lon="2.66961">
        <ele>662</ele>
        <time>2024-09-20T12:36:05Z</time>
      </trkpt>
      <trkpt lat="42.43104" lon="2.66959">
        <ele>660</ele>
        <time>2024-09-20T12:36:09Z</time>
      </trkpt>
      <trkpt lat="42.43102" lon="2.66959">
        <ele>661</ele>
        <time>2024-09-20T12:36:27Z</time>
      </trkpt>
      <trkpt lat="42.43101" lon="2.66961">
        <ele>658</ele>
        <time>2024-09-20T12:36:47Z</time>
      </trkpt>
      <trkpt lat="42.43099" lon="2.66963">
        <ele>658</ele>
        <time>2024-09-20T12:37:07Z</time>
      </trkpt>
      <trkpt lat="42.43099" lon="2.6696">
        <ele>662</ele>
        <time>2024-09-20T12:37:13Z</time>
      </trkpt>
      <trkpt lat="42.43099" lon="2.66957">
        <ele>661</ele>
        <time>2024-09-20T12:37:16Z</time>
      </trkpt>
      <trkpt lat="42.43099" lon="2.66953">
        <ele>662</ele>
        <time>2024-09-20T12:37:19Z</time>
      </trkpt>
      <trkpt lat="42.43097" lon="2.66952">
        <ele>663</ele>
        <time>2024-09-20T12:37:24Z</time>
      </trkpt>
      <trkpt lat="42.43095" lon="2.66955">
        <ele>665</ele>
        <time>2024-09-20T12:37:27Z</time>
      </trkpt>
      <trkpt lat="42.43093" lon="2.66957">
        <ele>666</ele>
        <time>2024-09-20T12:37:30Z</time>
      </trkpt>
      <trkpt lat="42.43091" lon="2.66959">
        <ele>667</ele>
        <time>2024-09-20T12:37:40Z</time>
      </trkpt>
      <trkpt lat="42.43089" lon="2.66962">
        <ele>669</ele>
        <time>2024-09-20T12:37:44Z</time>
      </trkpt>
      <trkpt lat="42.43087" lon="2.66965">
        <ele>669</ele>
        <time>2024-09-20T12:37:48Z</time>
      </trkpt>
      <trkpt lat="42.43085" lon="2.66968">
        <ele>670</ele>
        <time>2024-09-20T12:37:50Z</time>
      </trkpt>
      <trkpt lat="42.43084" lon="2.66971">
        <ele>672</ele>
        <time>2024-09-20T12:37:55Z</time>
      </trkpt>
      <trkpt lat="42.43082" lon="2.66975">
        <ele>672</ele>
        <time>2024-09-20T12:37:58Z</time>
      </trkpt>
      <trkpt lat="42.43082" lon="2.66979">
        <ele>674</ele>
        <time>2024-09-20T12:38:01Z</time>
      </trkpt>
      <trkpt lat="42.43081" lon="2.66983">
        <ele>675</ele>
        <time>2024-09-20T12:38:05Z</time>
      </trkpt>
      <trkpt lat="42.43081" lon="2.66987">
        <ele>676</ele>
        <time>2024-09-20T12:38:08Z</time>
      </trkpt>
      <trkpt lat="42.43082" lon="2.66991">
        <ele>676</ele>
        <time>2024-09-20T12:38:12Z</time>
      </trkpt>
      <trkpt lat="42.43081" lon="2.66995">
        <ele>675</ele>
        <time>2024-09-20T12:38:17Z</time>
      </trkpt>
      <trkpt lat="42.43081" lon="2.67">
        <ele>674</ele>
        <time>2024-09-20T12:38:21Z</time>
      </trkpt>
      <trkpt lat="42.43079" lon="2.67004">
        <ele>674</ele>
        <time>2024-09-20T12:38:25Z</time>
      </trkpt>
      <trkpt lat="42.43079" lon="2.67009">
        <ele>676</ele>
        <time>2024-09-20T12:38:32Z</time>
      </trkpt>
      <trkpt lat="42.43079" lon="2.67012">
        <ele>677</ele>
        <time>2024-09-20T12:38:36Z</time>
      </trkpt>
      <trkpt lat="42.4308" lon="2.67019">
        <ele>677</ele>
        <time>2024-09-20T12:38:41Z</time>
      </trkpt>
      <trkpt lat="42.43081" lon="2.67024">
        <ele>679</ele>
        <time>2024-09-20T12:38:49Z</time>
      </trkpt>
      <trkpt lat="42.43081" lon="2.67029">
        <ele>679</ele>
        <time>2024-09-20T12:38:54Z</time>
      </trkpt>
      <trkpt lat="42.43081" lon="2.67034">
        <ele>680</ele>
        <time>2024-09-20T12:38:59Z</time>
      </trkpt>
      <trkpt lat="42.43081" lon="2.67038">
        <ele>680</ele>
        <time>2024-09-20T12:39:04Z</time>
      </trkpt>
      <trkpt lat="42.43082" lon="2.67041">
        <ele>681</ele>
        <time>2024-09-20T12:39:07Z</time>
      </trkpt>
      <trkpt lat="42.43082" lon="2.67045">
        <ele>682</ele>
        <time>2024-09-20T12:39:10Z</time>
      </trkpt>
      <trkpt lat="42.43082" lon="2.67049">
        <ele>681</ele>
        <time>2024-09-20T12:39:15Z</time>
      </trkpt>
      <trkpt lat="42.43084" lon="2.67053">
        <ele>681</ele>
        <time>2024-09-20T12:39:20Z</time>
      </trkpt>
      <trkpt lat="42.43083" lon="2.67056">
        <ele>683</ele>
        <time>2024-09-20T12:39:25Z</time>
      </trkpt>
      <trkpt lat="42.43083" lon="2.6706">
        <ele>684</ele>
        <time>2024-09-20T12:39:34Z</time>
      </trkpt>
      <trkpt lat="42.43083" lon="2.67064">
        <ele>683</ele>
        <time>2024-09-20T12:39:39Z</time>
      </trkpt>
      <trkpt lat="42.43085" lon="2.67068">
        <ele>684</ele>
        <time>2024-09-20T12:39:43Z</time>
      </trkpt>
      <trkpt lat="42.43085" lon="2.67072">
        <ele>684</ele>
        <time>2024-09-20T12:39:48Z</time>
      </trkpt>
      <trkpt lat="42.43086" lon="2.67076">
        <ele>685</ele>
        <time>2024-09-20T12:39:54Z</time>
      </trkpt>
      <trkpt lat="42.43087" lon="2.6708">
        <ele>685</ele>
        <time>2024-09-20T12:39:58Z</time>
      </trkpt>
      <trkpt lat="42.43088" lon="2.67084">
        <ele>686</ele>
        <time>2024-09-20T12:40:03Z</time>
      </trkpt>
      <trkpt lat="42.4309" lon="2.67087">
        <ele>687</ele>
        <time>2024-09-20T12:40:07Z</time>
      </trkpt>
      <trkpt lat="42.4309" lon="2.67091">
        <ele>688</ele>
        <time>2024-09-20T12:40:13Z</time>
      </trkpt>
      <trkpt lat="42.43092" lon="2.67095">
        <ele>687</ele>
        <time>2024-09-20T12:40:21Z</time>
      </trkpt>
      <trkpt lat="42.43094" lon="2.67098">
        <ele>686</ele>
        <time>2024-09-20T12:40:26Z</time>
      </trkpt>
      <trkpt lat="42.43096" lon="2.67101">
        <ele>686</ele>
        <time>2024-09-20T12:40:30Z</time>
      </trkpt>
      <trkpt lat="42.43097" lon="2.67105">
        <ele>686</ele>
        <time>2024-09-20T12:40:36Z</time>
      </trkpt>
      <trkpt lat="42.43098" lon="2.67109">
        <ele>687</ele>
        <time>2024-09-20T12:40:40Z</time>
      </trkpt>
      <trkpt lat="42.43099" lon="2.67113">
        <ele>688</ele>
        <time>2024-09-20T12:40:43Z</time>
      </trkpt>
      <trkpt lat="42.43099" lon="2.67117">
        <ele>688</ele>
        <time>2024-09-20T12:40:47Z</time>
      </trkpt>
      <trkpt lat="42.43097" lon="2.67121">
        <ele>687</ele>
        <time>2024-09-20T12:40:52Z</time>
      </trkpt>
      <trkpt lat="42.43094" lon="2.67122">
        <ele>687</ele>
        <time>2024-09-20T12:40:57Z</time>
      </trkpt>
      <trkpt lat="42.43091" lon="2.67123">
        <ele>688</ele>
        <time>2024-09-20T12:41:01Z</time>
      </trkpt>
      <trkpt lat="42.43088" lon="2.67122">
        <ele>688</ele>
        <time>2024-09-20T12:41:04Z</time>
      </trkpt>
      <trkpt lat="42.43085" lon="2.67122">
        <ele>690</ele>
        <time>2024-09-20T12:41:08Z</time>
      </trkpt>
      <trkpt lat="42.43081" lon="2.67122">
        <ele>690</ele>
        <time>2024-09-20T12:41:12Z</time>
      </trkpt>
      <trkpt lat="42.43078" lon="2.67121">
        <ele>691</ele>
        <time>2024-09-20T12:41:19Z</time>
      </trkpt>
      <trkpt lat="42.43074" lon="2.67121">
        <ele>692</ele>
        <time>2024-09-20T12:41:23Z</time>
      </trkpt>
      <trkpt lat="42.43071" lon="2.6712">
        <ele>693</ele>
        <time>2024-09-20T12:41:28Z</time>
      </trkpt>
      <trkpt lat="42.43068" lon="2.6712">
        <ele>693</ele>
        <time>2024-09-20T12:41:33Z</time>
      </trkpt>
      <trkpt lat="42.43065" lon="2.6712">
        <ele>695</ele>
        <time>2024-09-20T12:41:38Z</time>
      </trkpt>
      <trkpt lat="42.43061" lon="2.67119">
        <ele>695</ele>
        <time>2024-09-20T12:41:43Z</time>
      </trkpt>
      <trkpt lat="42.43058" lon="2.67121">
        <ele>696</ele>
        <time>2024-09-20T12:41:47Z</time>
      </trkpt>
      <trkpt lat="42.43055" lon="2.67122">
        <ele>695</ele>
        <time>2024-09-20T12:41:50Z</time>
      </trkpt>
      <trkpt lat="42.43052" lon="2.67124">
        <ele>696</ele>
        <time>2024-09-20T12:41:55Z</time>
      </trkpt>
      <trkpt lat="42.43049" lon="2.67127">
        <ele>696</ele>
        <time>2024-09-20T12:41:58Z</time>
      </trkpt>
      <trkpt lat="42.43047" lon="2.67129">
        <ele>697</ele>
        <time>2024-09-20T12:42:04Z</time>
      </trkpt>
      <trkpt lat="42.43044" lon="2.67132">
        <ele>696</ele>
        <time>2024-09-20T12:42:06Z</time>
      </trkpt>
      <trkpt lat="42.43041" lon="2.67134">
        <ele>696</ele>
        <time>2024-09-20T12:42:10Z</time>
      </trkpt>
      <trkpt lat="42.43038" lon="2.67135">
        <ele>696</ele>
        <time>2024-09-20T12:42:12Z</time>
      </trkpt>
      <trkpt lat="42.43035" lon="2.67135">
        <ele>695</ele>
        <time>2024-09-20T12:42:15Z</time>
      </trkpt>
      <trkpt lat="42.43032" lon="2.67136">
        <ele>694</ele>
        <time>2024-09-20T12:42:18Z</time>
      </trkpt>
      <trkpt lat="42.43029" lon="2.67135">
        <ele>694</ele>
        <time>2024-09-20T12:42:21Z</time>
      </trkpt>
      <trkpt lat="42.43026" lon="2.67135">
        <ele>693</ele>
        <time>2024-09-20T12:42:24Z</time>
      </trkpt>
      <trkpt lat="42.43023" lon="2.67133">
        <ele>694</ele>
        <time>2024-09-20T12:42:27Z</time>
      </trkpt>
      <trkpt lat="42.4302" lon="2.67133">
        <ele>693</ele>
        <time>2024-09-20T12:42:30Z</time>
      </trkpt>
      <trkpt lat="42.43017" lon="2.67131">
        <ele>694</ele>
        <time>2024-09-20T12:42:33Z</time>
      </trkpt>
      <trkpt lat="42.43014" lon="2.67131">
        <ele>695</ele>
        <time>2024-09-20T12:42:43Z</time>
      </trkpt>
      <trkpt lat="42.43011" lon="2.67129">
        <ele>694</ele>
        <time>2024-09-20T12:42:48Z</time>
      </trkpt>
      <trkpt lat="42.43008" lon="2.67126">
        <ele>693</ele>
        <time>2024-09-20T12:42:52Z</time>
      </trkpt>
      <trkpt lat="42.43005" lon="2.67123">
        <ele>693</ele>
        <time>2024-09-20T12:42:55Z</time>
      </trkpt>
      <trkpt lat="42.43002" lon="2.67121">
        <ele>693</ele>
        <time>2024-09-20T12:42:58Z</time>
      </trkpt>
      <trkpt lat="42.42999" lon="2.67119">
        <ele>693</ele>
        <time>2024-09-20T12:43:01Z</time>
      </trkpt>
      <trkpt lat="42.42996" lon="2.67116">
        <ele>694</ele>
        <time>2024-09-20T12:43:05Z</time>
      </trkpt>
      <trkpt lat="42.42994" lon="2.67113">
        <ele>693</ele>
        <time>2024-09-20T12:43:08Z</time>
      </trkpt>
      <trkpt lat="42.42991" lon="2.67111">
        <ele>693</ele>
        <time>2024-09-20T12:43:09Z</time>
      </trkpt>
      <trkpt lat="42.42988" lon="2.6711">
        <ele>693</ele>
        <time>2024-09-20T12:43:12Z</time>
      </trkpt>
      <trkpt lat="42.42985" lon="2.6711">
        <ele>694</ele>
        <time>2024-09-20T12:43:15Z</time>
      </trkpt>
      <trkpt lat="42.42982" lon="2.67112">
        <ele>694</ele>
        <time>2024-09-20T12:43:18Z</time>
      </trkpt>
      <trkpt lat="42.4298" lon="2.67114">
        <ele>694</ele>
        <time>2024-09-20T12:43:20Z</time>
      </trkpt>
      <trkpt lat="42.42977" lon="2.67116">
        <ele>695</ele>
        <time>2024-09-20T12:43:23Z</time>
      </trkpt>
      <trkpt lat="42.42974" lon="2.67119">
        <ele>696</ele>
        <time>2024-09-20T12:43:26Z</time>
      </trkpt>
      <trkpt lat="42.42971" lon="2.67122">
        <ele>696</ele>
        <time>2024-09-20T12:43:29Z</time>
      </trkpt>
      <trkpt lat="42.42969" lon="2.67124">
        <ele>696</ele>
        <time>2024-09-20T12:43:32Z</time>
      </trkpt>
      <trkpt lat="42.42966" lon="2.67125">
        <ele>696</ele>
        <time>2024-09-20T12:43:36Z</time>
      </trkpt>
      <trkpt lat="42.42964" lon="2.67128">
        <ele>696</ele>
        <time>2024-09-20T12:43:39Z</time>
      </trkpt>
      <trkpt lat="42.42962" lon="2.67131">
        <ele>696</ele>
        <time>2024-09-20T12:43:41Z</time>
      </trkpt>
      <trkpt lat="42.4296" lon="2.67135">
        <ele>696</ele>
        <time>2024-09-20T12:43:44Z</time>
      </trkpt>
      <trkpt lat="42.42959" lon="2.67139">
        <ele>697</ele>
        <time>2024-09-20T12:43:47Z</time>
      </trkpt>
      <trkpt lat="42.42958" lon="2.67143">
        <ele>696</ele>
        <time>2024-09-20T12:43:49Z</time>
      </trkpt>
      <trkpt lat="42.42957" lon="2.67147">
        <ele>695</ele>
        <time>2024-09-20T12:43:53Z</time>
      </trkpt>
      <trkpt lat="42.42957" lon="2.67151">
        <ele>694</ele>
        <time>2024-09-20T12:43:57Z</time>
      </trkpt>
      <trkpt lat="42.42956" lon="2.67156">
        <ele>693</ele>
        <time>2024-09-20T12:44:01Z</time>
      </trkpt>
      <trkpt lat="42.42955" lon="2.6716">
        <ele>692</ele>
        <time>2024-09-20T12:44:04Z</time>
      </trkpt>
      <trkpt lat="42.42954" lon="2.67165">
        <ele>693</ele>
        <time>2024-09-20T12:44:20Z</time>
      </trkpt>
      <trkpt lat="42.42953" lon="2.67169">
        <ele>693</ele>
        <time>2024-09-20T12:44:24Z</time>
      </trkpt>
      <trkpt lat="42.42951" lon="2.67171">
        <ele>693</ele>
        <time>2024-09-20T12:44:27Z</time>
      </trkpt>
      <trkpt lat="42.42949" lon="2.67174">
        <ele>692</ele>
        <time>2024-09-20T12:44:34Z</time>
      </trkpt>
      <trkpt lat="42.42946" lon="2.67177">
        <ele>693</ele>
        <time>2024-09-20T12:44:36Z</time>
      </trkpt>
      <trkpt lat="42.42944" lon="2.67181">
        <ele>692</ele>
        <time>2024-09-20T12:44:39Z</time>
      </trkpt>
      <trkpt lat="42.42943" lon="2.67184">
        <ele>691</ele>
        <time>2024-09-20T12:44:42Z</time>
      </trkpt>
      <trkpt lat="42.42943" lon="2.67188">
        <ele>691</ele>
        <time>2024-09-20T12:44:45Z</time>
      </trkpt>
      <trkpt lat="42.42943" lon="2.67192">
        <ele>691</ele>
        <time>2024-09-20T12:44:48Z</time>
      </trkpt>
      <trkpt lat="42.42941" lon="2.67195">
        <ele>690</ele>
        <time>2024-09-20T12:44:51Z</time>
      </trkpt>
      <trkpt lat="42.42939" lon="2.67199">
        <ele>690</ele>
        <time>2024-09-20T12:44:54Z</time>
      </trkpt>
      <trkpt lat="42.42938" lon="2.67203">
        <ele>690</ele>
        <time>2024-09-20T12:44:57Z</time>
      </trkpt>
      <trkpt lat="42.42936" lon="2.67206">
        <ele>688</ele>
        <time>2024-09-20T12:45:02Z</time>
      </trkpt>
      <trkpt lat="42.42935" lon="2.6721">
        <ele>689</ele>
        <time>2024-09-20T12:45:04Z</time>
      </trkpt>
      <trkpt lat="42.42933" lon="2.67214">
        <ele>689</ele>
        <time>2024-09-20T12:45:07Z</time>
      </trkpt>
      <trkpt lat="42.42931" lon="2.67218">
        <ele>689</ele>
        <time>2024-09-20T12:45:10Z</time>
      </trkpt>
      <trkpt lat="42.42929" lon="2.67222">
        <ele>688</ele>
        <time>2024-09-20T12:45:13Z</time>
      </trkpt>
      <trkpt lat="42.42928" lon="2.67225">
        <ele>689</ele>
        <time>2024-09-20T12:45:15Z</time>
      </trkpt>
      <trkpt lat="42.42927" lon="2.6723">
        <ele>690</ele>
        <time>2024-09-20T12:45:17Z</time>
      </trkpt>
      <trkpt lat="42.42924" lon="2.67232">
        <ele>687</ele>
        <time>2024-09-20T12:45:22Z</time>
      </trkpt>
      <trkpt lat="42.42922" lon="2.67235">
        <ele>687</ele>
        <time>2024-09-20T12:45:25Z</time>
      </trkpt>
      <trkpt lat="42.42919" lon="2.67236">
        <ele>687</ele>
        <time>2024-09-20T12:45:29Z</time>
      </trkpt>
      <trkpt lat="42.42916" lon="2.67237">
        <ele>688</ele>
        <time>2024-09-20T12:45:31Z</time>
      </trkpt>
      <trkpt lat="42.42914" lon="2.6724">
        <ele>691</ele>
        <time>2024-09-20T12:45:33Z</time>
      </trkpt>
      <trkpt lat="42.42912" lon="2.67243">
        <ele>692</ele>
        <time>2024-09-20T12:45:39Z</time>
      </trkpt>
      <trkpt lat="42.42911" lon="2.67246">
        <ele>696</ele>
        <time>2024-09-20T12:45:43Z</time>
      </trkpt>
      <trkpt lat="42.42909" lon="2.67249">
        <ele>695</ele>
        <time>2024-09-20T12:45:45Z</time>
      </trkpt>
      <trkpt lat="42.42907" lon="2.67252">
        <ele>696</ele>
        <time>2024-09-20T12:45:49Z</time>
      </trkpt>
      <trkpt lat="42.42907" lon="2.67256">
        <ele>697</ele>
        <time>2024-09-20T12:45:52Z</time>
      </trkpt>
      <trkpt lat="42.42907" lon="2.67261">
        <ele>696</ele>
        <time>2024-09-20T12:45:55Z</time>
      </trkpt>
      <trkpt lat="42.42906" lon="2.67265">
        <ele>693</ele>
        <time>2024-09-20T12:46:00Z</time>
      </trkpt>
      <trkpt lat="42.42905" lon="2.67269">
        <ele>693</ele>
        <time>2024-09-20T12:46:04Z</time>
      </trkpt>
      <trkpt lat="42.42904" lon="2.67274">
        <ele>694</ele>
        <time>2024-09-20T12:46:08Z</time>
      </trkpt>
      <trkpt lat="42.42902" lon="2.67277">
        <ele>694</ele>
        <time>2024-09-20T12:46:12Z</time>
      </trkpt>
      <trkpt lat="42.42899" lon="2.6728">
        <ele>694</ele>
        <time>2024-09-20T12:46:17Z</time>
      </trkpt>
      <trkpt lat="42.42897" lon="2.67284">
        <ele>694</ele>
        <time>2024-09-20T12:46:21Z</time>
      </trkpt>
      <trkpt lat="42.42896" lon="2.67288">
        <ele>693</ele>
        <time>2024-09-20T12:46:28Z</time>
      </trkpt>
      <trkpt lat="42.42894" lon="2.67291">
        <ele>694</ele>
        <time>2024-09-20T12:46:32Z</time>
      </trkpt>
      <trkpt lat="42.42892" lon="2.67295">
        <ele>695</ele>
        <time>2024-09-20T12:46:36Z</time>
      </trkpt>
      <trkpt lat="42.4289" lon="2.67298">
        <ele>694</ele>
        <time>2024-09-20T12:46:40Z</time>
      </trkpt>
      <trkpt lat="42.42889" lon="2.67302">
        <ele>694</ele>
        <time>2024-09-20T12:46:43Z</time>
      </trkpt>
      <trkpt lat="42.42888" lon="2.67305">
        <ele>694</ele>
        <time>2024-09-20T12:46:45Z</time>
      </trkpt>
      <trkpt lat="42.42887" lon="2.67309">
        <ele>695</ele>
        <time>2024-09-20T12:46:47Z</time>
      </trkpt>
      <trkpt lat="42.42885" lon="2.67312">
        <ele>696</ele>
        <time>2024-09-20T12:46:51Z</time>
      </trkpt>
      <trkpt lat="42.42884" lon="2.67315">
        <ele>696</ele>
        <time>2024-09-20T12:46:54Z</time>
      </trkpt>
      <trkpt lat="42.42882" lon="2.67319">
        <ele>697</ele>
        <time>2024-09-20T12:46:57Z</time>
      </trkpt>
      <trkpt lat="42.42882" lon="2.67323">
        <ele>698</ele>
        <time>2024-09-20T12:47:01Z</time>
      </trkpt>
      <trkpt lat="42.42881" lon="2.67326">
        <ele>699</ele>
        <time>2024-09-20T12:47:05Z</time>
      </trkpt>
      <trkpt lat="42.42879" lon="2.67331">
        <ele>700</ele>
        <time>2024-09-20T12:47:09Z</time>
      </trkpt>
      <trkpt lat="42.42879" lon="2.67335">
        <ele>701</ele>
        <time>2024-09-20T12:47:12Z</time>
      </trkpt>
      <trkpt lat="42.42878" lon="2.67339">
        <ele>701</ele>
        <time>2024-09-20T12:47:16Z</time>
      </trkpt>
      <trkpt lat="42.42877" lon="2.67343">
        <ele>700</ele>
        <time>2024-09-20T12:47:20Z</time>
      </trkpt>
      <trkpt lat="42.42877" lon="2.67347">
        <ele>701</ele>
        <time>2024-09-20T12:47:23Z</time>
      </trkpt>
      <trkpt lat="42.42877" lon="2.67351">
        <ele>702</ele>
        <time>2024-09-20T12:47:25Z</time>
      </trkpt>
      <trkpt lat="42.42877" lon="2.67355">
        <ele>701</ele>
        <time>2024-09-20T12:47:29Z</time>
      </trkpt>
      <trkpt lat="42.42877" lon="2.67359">
        <ele>702</ele>
        <time>2024-09-20T12:47:32Z</time>
      </trkpt>
      <trkpt lat="42.42876" lon="2.67363">
        <ele>702</ele>
        <time>2024-09-20T12:47:35Z</time>
      </trkpt>
      <trkpt lat="42.42877" lon="2.67367">
        <ele>701</ele>
        <time>2024-09-20T12:47:44Z</time>
      </trkpt>
      <trkpt lat="42.42877" lon="2.67371">
        <ele>700</ele>
        <time>2024-09-20T12:47:48Z</time>
      </trkpt>
      <trkpt lat="42.42876" lon="2.67374">
        <ele>701</ele>
        <time>2024-09-20T12:47:52Z</time>
      </trkpt>
      <trkpt lat="42.42876" lon="2.67378">
        <ele>701</ele>
        <time>2024-09-20T12:47:55Z</time>
      </trkpt>
      <trkpt lat="42.42875" lon="2.67382">
        <ele>701</ele>
        <time>2024-09-20T12:47:58Z</time>
      </trkpt>
      <trkpt lat="42.42875" lon="2.67385">
        <ele>701</ele>
        <time>2024-09-20T12:48:01Z</time>
      </trkpt>
      <trkpt lat="42.42874" lon="2.67389">
        <ele>701</ele>
        <time>2024-09-20T12:48:03Z</time>
      </trkpt>
      <trkpt lat="42.42875" lon="2.67393">
        <ele>701</ele>
        <time>2024-09-20T12:48:06Z</time>
      </trkpt>
      <trkpt lat="42.42875" lon="2.67397">
        <ele>701</ele>
        <time>2024-09-20T12:48:09Z</time>
      </trkpt>
      <trkpt lat="42.42875" lon="2.67401">
        <ele>702</ele>
        <time>2024-09-20T12:48:19Z</time>
      </trkpt>
      <trkpt lat="42.42877" lon="2.67401">
        <ele>699</ele>
        <time>2024-09-20T12:48:37Z</time>
      </trkpt>
      <trkpt lat="42.42878" lon="2.67403">
        <ele>702</ele>
        <time>2024-09-20T12:48:59Z</time>
      </trkpt>
      <trkpt lat="42.42878" lon="2.67407">
        <ele>701</ele>
        <time>2024-09-20T12:49:03Z</time>
      </trkpt>
      <trkpt lat="42.42878" lon="2.67412">
        <ele>702</ele>
        <time>2024-09-20T12:49:08Z</time>
      </trkpt>
      <trkpt lat="42.42877" lon="2.67416">
        <ele>701</ele>
        <time>2024-09-20T12:49:12Z</time>
      </trkpt>
      <trkpt lat="42.42878" lon="2.6742">
        <ele>702</ele>
        <time>2024-09-20T12:49:14Z</time>
      </trkpt>
      <trkpt lat="42.42878" lon="2.67424">
        <ele>703</ele>
        <time>2024-09-20T12:49:18Z</time>
      </trkpt>
      <trkpt lat="42.42878" lon="2.67428">
        <ele>702</ele>
        <time>2024-09-20T12:49:21Z</time>
      </trkpt>
      <trkpt lat="42.42879" lon="2.67432">
        <ele>703</ele>
        <time>2024-09-20T12:49:24Z</time>
      </trkpt>
      <trkpt lat="42.42881" lon="2.67436">
        <ele>703</ele>
        <time>2024-09-20T12:49:27Z</time>
      </trkpt>
      <trkpt lat="42.42883" lon="2.6744">
        <ele>703</ele>
        <time>2024-09-20T12:49:29Z</time>
      </trkpt>
      <trkpt lat="42.42885" lon="2.67444">
        <ele>704</ele>
        <time>2024-09-20T12:49:33Z</time>
      </trkpt>
      <trkpt lat="42.42887" lon="2.67447">
        <ele>703</ele>
        <time>2024-09-20T12:49:36Z</time>
      </trkpt>
      <trkpt lat="42.42889" lon="2.67451">
        <ele>705</ele>
        <time>2024-09-20T12:49:38Z</time>
      </trkpt>
      <trkpt lat="42.4289" lon="2.67454">
        <ele>703</ele>
        <time>2024-09-20T12:49:42Z</time>
      </trkpt>
      <trkpt lat="42.42892" lon="2.67457">
        <ele>703</ele>
        <time>2024-09-20T12:49:45Z</time>
      </trkpt>
      <trkpt lat="42.42894" lon="2.67461">
        <ele>703</ele>
        <time>2024-09-20T12:49:49Z</time>
      </trkpt>
      <trkpt lat="42.42896" lon="2.67465">
        <ele>702</ele>
        <time>2024-09-20T12:49:52Z</time>
      </trkpt>
      <trkpt lat="42.42898" lon="2.67468">
        <ele>701</ele>
        <time>2024-09-20T12:49:55Z</time>
      </trkpt>
      <trkpt lat="42.429" lon="2.67471">
        <ele>700</ele>
        <time>2024-09-20T12:49:59Z</time>
      </trkpt>
      <trkpt lat="42.42902" lon="2.67473">
        <ele>700</ele>
        <time>2024-09-20T12:50:02Z</time>
      </trkpt>
      <trkpt lat="42.42905" lon="2.67476">
        <ele>699</ele>
        <time>2024-09-20T12:50:05Z</time>
      </trkpt>
      <trkpt lat="42.42907" lon="2.67479">
        <ele>699</ele>
        <time>2024-09-20T12:50:09Z</time>
      </trkpt>
      <trkpt lat="42.42909" lon="2.67482">
        <ele>698</ele>
        <time>2024-09-20T12:50:13Z</time>
      </trkpt>
      <trkpt lat="42.4291" lon="2.67485">
        <ele>697</ele>
        <time>2024-09-20T12:50:17Z</time>
      </trkpt>
      <trkpt lat="42.42913" lon="2.67488">
        <ele>697</ele>
        <time>2024-09-20T12:50:21Z</time>
      </trkpt>
      <trkpt lat="42.42915" lon="2.6749">
        <ele>696</ele>
        <time>2024-09-20T12:50:26Z</time>
      </trkpt>
      <trkpt lat="42.42917" lon="2.67493">
        <ele>696</ele>
        <time>2024-09-20T12:50:29Z</time>
      </trkpt>
      <trkpt lat="42.42919" lon="2.67496">
        <ele>695</ele>
        <time>2024-09-20T12:50:33Z</time>
      </trkpt>
      <trkpt lat="42.42922" lon="2.67499">
        <ele>693</ele>
        <time>2024-09-20T12:50:37Z</time>
      </trkpt>
      <trkpt lat="42.42925" lon="2.675">
        <ele>692</ele>
        <time>2024-09-20T12:50:41Z</time>
      </trkpt>
      <trkpt lat="42.42928" lon="2.67502">
        <ele>690</ele>
        <time>2024-09-20T12:50:45Z</time>
      </trkpt>
      <trkpt lat="42.42931" lon="2.67505">
        <ele>690</ele>
        <time>2024-09-20T12:50:49Z</time>
      </trkpt>
      <trkpt lat="42.42933" lon="2.67507">
        <ele>689</ele>
        <time>2024-09-20T12:50:55Z</time>
      </trkpt>
      <trkpt lat="42.42936" lon="2.67509">
        <ele>688</ele>
        <time>2024-09-20T12:50:59Z</time>
      </trkpt>
      <trkpt lat="42.42937" lon="2.67512">
        <ele>686</ele>
        <time>2024-09-20T12:51:03Z</time>
      </trkpt>
      <trkpt lat="42.42939" lon="2.67516">
        <ele>686</ele>
        <time>2024-09-20T12:51:07Z</time>
      </trkpt>
      <trkpt lat="42.4294" lon="2.67519">
        <ele>685</ele>
        <time>2024-09-20T12:51:10Z</time>
      </trkpt>
      <trkpt lat="42.42942" lon="2.67523">
        <ele>686</ele>
        <time>2024-09-20T12:51:14Z</time>
      </trkpt>
      <trkpt lat="42.42944" lon="2.67527">
        <ele>685</ele>
        <time>2024-09-20T12:51:18Z</time>
      </trkpt>
      <trkpt lat="42.42945" lon="2.67531">
        <ele>684</ele>
        <time>2024-09-20T12:51:23Z</time>
      </trkpt>
      <trkpt lat="42.42947" lon="2.67534">
        <ele>685</ele>
        <time>2024-09-20T12:51:27Z</time>
      </trkpt>
      <trkpt lat="42.42949" lon="2.67538">
        <ele>684</ele>
        <time>2024-09-20T12:51:31Z</time>
      </trkpt>
      <trkpt lat="42.42951" lon="2.6754">
        <ele>683</ele>
        <time>2024-09-20T12:51:36Z</time>
      </trkpt>
      <trkpt lat="42.42955" lon="2.67542">
        <ele>683</ele>
        <time>2024-09-20T12:51:40Z</time>
      </trkpt>
      <trkpt lat="42.42957" lon="2.67545">
        <ele>681</ele>
        <time>2024-09-20T12:51:43Z</time>
      </trkpt>
      <trkpt lat="42.42959" lon="2.67548">
        <ele>680</ele>
        <time>2024-09-20T12:51:46Z</time>
      </trkpt>
      <trkpt lat="42.42962" lon="2.67551">
        <ele>679</ele>
        <time>2024-09-20T12:51:50Z</time>
      </trkpt>
      <trkpt lat="42.42964" lon="2.67553">
        <ele>678</ele>
        <time>2024-09-20T12:51:55Z</time>
      </trkpt>
      <trkpt lat="42.42966" lon="2.67554">
        <ele>677</ele>
        <time>2024-09-20T12:51:59Z</time>
      </trkpt>
      <trkpt lat="42.42969" lon="2.67555">
        <ele>677</ele>
        <time>2024-09-20T12:52:04Z</time>
      </trkpt>
      <trkpt lat="42.42972" lon="2.67558">
        <ele>676</ele>
        <time>2024-09-20T12:52:07Z</time>
      </trkpt>
      <trkpt lat="42.42973" lon="2.67561">
        <ele>675</ele>
        <time>2024-09-20T12:52:10Z</time>
      </trkpt>
      <trkpt lat="42.42974" lon="2.67565">
        <ele>675</ele>
        <time>2024-09-20T12:52:13Z</time>
      </trkpt>
      <trkpt lat="42.42973" lon="2.67569">
        <ele>674</ele>
        <time>2024-09-20T12:52:17Z</time>
      </trkpt>
      <trkpt lat="42.42972" lon="2.67572">
        <ele>672</ele>
        <time>2024-09-20T12:52:22Z</time>
      </trkpt>
      <trkpt lat="42.4297" lon="2.67575">
        <ele>671</ele>
        <time>2024-09-20T12:52:27Z</time>
      </trkpt>
      <trkpt lat="42.4297" lon="2.67579">
        <ele>670</ele>
        <time>2024-09-20T12:52:33Z</time>
      </trkpt>
      <trkpt lat="42.4297" lon="2.67583">
        <ele>670</ele>
        <time>2024-09-20T12:52:36Z</time>
      </trkpt>
      <trkpt lat="42.42968" lon="2.67585">
        <ele>667</ele>
        <time>2024-09-20T12:52:42Z</time>
      </trkpt>
      <trkpt lat="42.42966" lon="2.67587">
        <ele>666</ele>
        <time>2024-09-20T12:52:46Z</time>
      </trkpt>
      <trkpt lat="42.42963" lon="2.6759">
        <ele>666</ele>
        <time>2024-09-20T12:52:49Z</time>
      </trkpt>
      <trkpt lat="42.4296" lon="2.67592">
        <ele>665</ele>
        <time>2024-09-20T12:52:51Z</time>
      </trkpt>
      <trkpt lat="42.42957" lon="2.67593">
        <ele>664</ele>
        <time>2024-09-20T12:52:53Z</time>
      </trkpt>
      <trkpt lat="42.42954" lon="2.67596">
        <ele>663</ele>
        <time>2024-09-20T12:52:55Z</time>
      </trkpt>
      <trkpt lat="42.42952" lon="2.67599">
        <ele>663</ele>
        <time>2024-09-20T12:52:57Z</time>
      </trkpt>
      <trkpt lat="42.42949" lon="2.67601">
        <ele>665</ele>
        <time>2024-09-20T12:52:59Z</time>
      </trkpt>
      <trkpt lat="42.42946" lon="2.67601">
        <ele>663</ele>
        <time>2024-09-20T12:53:02Z</time>
      </trkpt>
      <trkpt lat="42.42943" lon="2.67602">
        <ele>663</ele>
        <time>2024-09-20T12:53:05Z</time>
      </trkpt>
      <trkpt lat="42.42939" lon="2.67602">
        <ele>664</ele>
        <time>2024-09-20T12:53:09Z</time>
      </trkpt>
      <trkpt lat="42.42936" lon="2.67601">
        <ele>664</ele>
        <time>2024-09-20T12:53:11Z</time>
      </trkpt>
      <trkpt lat="42.42933" lon="2.67601">
        <ele>665</ele>
        <time>2024-09-20T12:53:14Z</time>
      </trkpt>
      <trkpt lat="42.4293" lon="2.67602">
        <ele>665</ele>
        <time>2024-09-20T12:53:21Z</time>
      </trkpt>
      <trkpt lat="42.42927" lon="2.67603">
        <ele>666</ele>
        <time>2024-09-20T12:53:23Z</time>
      </trkpt>
      <trkpt lat="42.42924" lon="2.67604">
        <ele>665</ele>
        <time>2024-09-20T12:53:26Z</time>
      </trkpt>
      <trkpt lat="42.42921" lon="2.67605">
        <ele>664</ele>
        <time>2024-09-20T12:53:29Z</time>
      </trkpt>
      <trkpt lat="42.42919" lon="2.67608">
        <ele>665</ele>
        <time>2024-09-20T12:53:32Z</time>
      </trkpt>
      <trkpt lat="42.42918" lon="2.67611">
        <ele>664</ele>
        <time>2024-09-20T12:53:35Z</time>
      </trkpt>
      <trkpt lat="42.42915" lon="2.67614">
        <ele>662</ele>
        <time>2024-09-20T12:53:38Z</time>
      </trkpt>
      <trkpt lat="42.42912" lon="2.67616">
        <ele>662</ele>
        <time>2024-09-20T12:53:42Z</time>
      </trkpt>
      <trkpt lat="42.4291" lon="2.67618">
        <ele>661</ele>
        <time>2024-09-20T12:53:44Z</time>
      </trkpt>
      <trkpt lat="42.42908" lon="2.67622">
        <ele>661</ele>
        <time>2024-09-20T12:53:47Z</time>
      </trkpt>
      <trkpt lat="42.42909" lon="2.67626">
        <ele>660</ele>
        <time>2024-09-20T12:53:50Z</time>
      </trkpt>
      <trkpt lat="42.4291" lon="2.67631">
        <ele>659</ele>
        <time>2024-09-20T12:53:54Z</time>
      </trkpt>
      <trkpt lat="42.42909" lon="2.67635">
        <ele>656</ele>
        <time>2024-09-20T12:53:59Z</time>
      </trkpt>
      <trkpt lat="42.42909" lon="2.67641">
        <ele>654</ele>
        <time>2024-09-20T12:54:02Z</time>
      </trkpt>
      <trkpt lat="42.42908" lon="2.67645">
        <ele>655</ele>
        <time>2024-09-20T12:54:04Z</time>
      </trkpt>
      <trkpt lat="42.42907" lon="2.67649">
        <ele>655</ele>
        <time>2024-09-20T12:54:06Z</time>
      </trkpt>
      <trkpt lat="42.42905" lon="2.67649">
        <ele>654</ele>
        <time>2024-09-20T12:54:15Z</time>
      </trkpt>
      <trkpt lat="42.42902" lon="2.67649">
        <ele>655</ele>
        <time>2024-09-20T12:54:17Z</time>
      </trkpt>
      <trkpt lat="42.42902" lon="2.67652">
        <ele>653</ele>
        <time>2024-09-20T12:54:21Z</time>
      </trkpt>
      <trkpt lat="42.42902" lon="2.67655">
        <ele>654</ele>
        <time>2024-09-20T12:54:29Z</time>
      </trkpt>
      <trkpt lat="42.42901" lon="2.6766">
        <ele>653</ele>
        <time>2024-09-20T12:54:40Z</time>
      </trkpt>
      <trkpt lat="42.42902" lon="2.67664">
        <ele>653</ele>
        <time>2024-09-20T12:54:44Z</time>
      </trkpt>
      <trkpt lat="42.42902" lon="2.67668">
        <ele>653</ele>
        <time>2024-09-20T12:54:48Z</time>
      </trkpt>
      <trkpt lat="42.42902" lon="2.67672">
        <ele>651</ele>
        <time>2024-09-20T12:54:58Z</time>
      </trkpt>
      <trkpt lat="42.42903" lon="2.67676">
        <ele>652</ele>
        <time>2024-09-20T12:55:03Z</time>
      </trkpt>
      <trkpt lat="42.42904" lon="2.67676">
        <ele>656</ele>
        <time>2024-09-20T12:55:23Z</time>
      </trkpt>
      <trkpt lat="42.42905" lon="2.67678">
        <ele>654</ele>
        <time>2024-09-20T12:55:36Z</time>
      </trkpt>
      <trkpt lat="42.42904" lon="2.67677">
        <ele>654</ele>
        <time>2024-09-20T12:55:58Z</time>
      </trkpt>
      <trkpt lat="42.42905" lon="2.67673">
        <ele>656</ele>
        <time>2024-09-20T12:56:10Z</time>
      </trkpt>
      <trkpt lat="42.42904" lon="2.67674">
        <ele>655</ele>
        <time>2024-09-20T12:56:13Z</time>
      </trkpt>
      <trkpt lat="42.42903" lon="2.67677">
        <ele>655</ele>
        <time>2024-09-20T12:56:15Z</time>
      </trkpt>
      <trkpt lat="42.42902" lon="2.67681">
        <ele>656</ele>
        <time>2024-09-20T12:56:19Z</time>
      </trkpt>
      <trkpt lat="42.429" lon="2.67685">
        <ele>657</ele>
        <time>2024-09-20T12:56:23Z</time>
      </trkpt>
      <trkpt lat="42.42899" lon="2.67689">
        <ele>658</ele>
        <time>2024-09-20T12:56:27Z</time>
      </trkpt>
      <trkpt lat="42.42896" lon="2.67692">
        <ele>660</ele>
        <time>2024-09-20T12:56:32Z</time>
      </trkpt>
      <trkpt lat="42.42894" lon="2.67696">
        <ele>661</ele>
        <time>2024-09-20T12:56:35Z</time>
      </trkpt>
      <trkpt lat="42.42891" lon="2.67699">
        <ele>662</ele>
        <time>2024-09-20T12:56:40Z</time>
      </trkpt>
      <trkpt lat="42.42888" lon="2.67701">
        <ele>662</ele>
        <time>2024-09-20T12:56:45Z</time>
      </trkpt>
      <trkpt lat="42.42885" lon="2.67704">
        <ele>663</ele>
        <time>2024-09-20T12:56:48Z</time>
      </trkpt>
      <trkpt lat="42.42884" lon="2.67707">
        <ele>664</ele>
        <time>2024-09-20T12:56:53Z</time>
      </trkpt>
      <trkpt lat="42.42884" lon="2.67709">
        <ele>665</ele>
        <time>2024-09-20T12:56:58Z</time>
      </trkpt>
      <trkpt lat="42.42887" lon="2.67709">
        <ele>665</ele>
        <time>2024-09-20T12:56:59Z</time>
      </trkpt>
      <trkpt lat="42.42889" lon="2.6771">
        <ele>665</ele>
        <time>2024-09-20T12:57:02Z</time>
      </trkpt>
      <trkpt lat="42.42892" lon="2.67711">
        <ele>666</ele>
        <time>2024-09-20T12:57:09Z</time>
      </trkpt>
      <trkpt lat="42.42895" lon="2.67713">
        <ele>668</ele>
        <time>2024-09-20T12:57:16Z</time>
      </trkpt>
      <trkpt lat="42.42898" lon="2.67715">
        <ele>669</ele>
        <time>2024-09-20T12:57:19Z</time>
      </trkpt>
      <trkpt lat="42.429" lon="2.67713">
        <ele>669</ele>
        <time>2024-09-20T12:57:26Z</time>
      </trkpt>
      <trkpt lat="42.42902" lon="2.67711">
        <ele>669</ele>
        <time>2024-09-20T12:57:30Z</time>
      </trkpt>
      <trkpt lat="42.42904" lon="2.6771">
        <ele>668</ele>
        <time>2024-09-20T12:57:48Z</time>
      </trkpt>
      <trkpt lat="42.42907" lon="2.67709">
        <ele>668</ele>
        <time>2024-09-20T12:57:52Z</time>
      </trkpt>
      <trkpt lat="42.4291" lon="2.67707">
        <ele>668</ele>
        <time>2024-09-20T12:57:56Z</time>
      </trkpt>
      <trkpt lat="42.42913" lon="2.67706">
        <ele>667</ele>
        <time>2024-09-20T12:58:00Z</time>
      </trkpt>
      <trkpt lat="42.42916" lon="2.67706">
        <ele>667</ele>
        <time>2024-09-20T12:58:04Z</time>
      </trkpt>
      <trkpt lat="42.4292" lon="2.67705">
        <ele>667</ele>
        <time>2024-09-20T12:58:07Z</time>
      </trkpt>
      <trkpt lat="42.42923" lon="2.67706">
        <ele>667</ele>
        <time>2024-09-20T12:58:11Z</time>
      </trkpt>
      <trkpt lat="42.42926" lon="2.67706">
        <ele>666</ele>
        <time>2024-09-20T12:58:14Z</time>
      </trkpt>
      <trkpt lat="42.42929" lon="2.67706">
        <ele>666</ele>
        <time>2024-09-20T12:58:17Z</time>
      </trkpt>
      <trkpt lat="42.42933" lon="2.67707">
        <ele>666</ele>
        <time>2024-09-20T12:58:20Z</time>
      </trkpt>
      <trkpt lat="42.42936" lon="2.67706">
        <ele>666</ele>
        <time>2024-09-20T12:58:24Z</time>
      </trkpt>
      <trkpt lat="42.4294" lon="2.67706">
        <ele>666</ele>
        <time>2024-09-20T12:58:26Z</time>
      </trkpt>
      <trkpt lat="42.42943" lon="2.67706">
        <ele>665</ele>
        <time>2024-09-20T12:58:30Z</time>
      </trkpt>
      <trkpt lat="42.42946" lon="2.67706">
        <ele>665</ele>
        <time>2024-09-20T12:58:32Z</time>
      </trkpt>
      <trkpt lat="42.4295" lon="2.67707">
        <ele>665</ele>
        <time>2024-09-20T12:58:35Z</time>
      </trkpt>
      <trkpt lat="42.42953" lon="2.67707">
        <ele>665</ele>
        <time>2024-09-20T12:58:38Z</time>
      </trkpt>
      <trkpt lat="42.42957" lon="2.67708">
        <ele>666</ele>
        <time>2024-09-20T12:58:41Z</time>
      </trkpt>
      <trkpt lat="42.4296" lon="2.67709">
        <ele>666</ele>
        <time>2024-09-20T12:58:43Z</time>
      </trkpt>
      <trkpt lat="42.42964" lon="2.67708">
        <ele>665</ele>
        <time>2024-09-20T12:58:46Z</time>
      </trkpt>
      <trkpt lat="42.42967" lon="2.67707">
        <ele>666</ele>
        <time>2024-09-20T12:58:49Z</time>
      </trkpt>
      <trkpt lat="42.4297" lon="2.67705">
        <ele>667</ele>
        <time>2024-09-20T12:58:51Z</time>
      </trkpt>
      <trkpt lat="42.42974" lon="2.67704">
        <ele>665</ele>
        <time>2024-09-20T12:58:54Z</time>
      </trkpt>
      <trkpt lat="42.42977" lon="2.67702">
        <ele>665</ele>
        <time>2024-09-20T12:58:57Z</time>
      </trkpt>
      <trkpt lat="42.4298" lon="2.67699">
        <ele>666</ele>
        <time>2024-09-20T12:59:00Z</time>
      </trkpt>
      <trkpt lat="42.42979" lon="2.67697">
        <ele>667</ele>
        <time>2024-09-20T12:59:12Z</time>
      </trkpt>
      <trkpt lat="42.42981" lon="2.67695">
        <ele>666</ele>
        <time>2024-09-20T12:59:18Z</time>
      </trkpt>
      <trkpt lat="42.42983" lon="2.67694">
        <ele>665</ele>
        <time>2024-09-20T12:59:20Z</time>
      </trkpt>
      <trkpt lat="42.42987" lon="2.67694">
        <ele>665</ele>
        <time>2024-09-20T12:59:23Z</time>
      </trkpt>
      <trkpt lat="42.4299" lon="2.67693">
        <ele>665</ele>
        <time>2024-09-20T12:59:29Z</time>
      </trkpt>
      <trkpt lat="42.42993" lon="2.67692">
        <ele>665</ele>
        <time>2024-09-20T12:59:32Z</time>
      </trkpt>
      <trkpt lat="42.42997" lon="2.67693">
        <ele>665</ele>
        <time>2024-09-20T12:59:35Z</time>
      </trkpt>
      <trkpt lat="42.43" lon="2.67694">
        <ele>665</ele>
        <time>2024-09-20T12:59:38Z</time>
      </trkpt>
      <trkpt lat="42.43004" lon="2.67694">
        <ele>664</ele>
        <time>2024-09-20T12:59:41Z</time>
      </trkpt>
      <trkpt lat="42.43007" lon="2.67695">
        <ele>664</ele>
        <time>2024-09-20T12:59:44Z</time>
      </trkpt>
      <trkpt lat="42.4301" lon="2.67696">
        <ele>665</ele>
        <time>2024-09-20T12:59:46Z</time>
      </trkpt>
      <trkpt lat="42.43012" lon="2.67698">
        <ele>664</ele>
        <time>2024-09-20T12:59:49Z</time>
      </trkpt>
      <trkpt lat="42.43015" lon="2.677">
        <ele>665</ele>
        <time>2024-09-20T13:00:03Z</time>
      </trkpt>
      <trkpt lat="42.43017" lon="2.67703">
        <ele>667</ele>
        <time>2024-09-20T13:00:17Z</time>
      </trkpt>
      <trkpt lat="42.4302" lon="2.67704">
        <ele>667</ele>
        <time>2024-09-20T13:00:34Z</time>
      </trkpt>
      <trkpt lat="42.43021" lon="2.67703">
        <ele>666</ele>
        <time>2024-09-20T13:00:42Z</time>
      </trkpt>
      <trkpt lat="42.43024" lon="2.67702">
        <ele>666</ele>
        <time>2024-09-20T13:00:44Z</time>
      </trkpt>
      <trkpt lat="42.43027" lon="2.67702">
        <ele>666</ele>
        <time>2024-09-20T13:00:46Z</time>
      </trkpt>
      <trkpt lat="42.4303" lon="2.67703">
        <ele>666</ele>
        <time>2024-09-20T13:01:14Z</time>
      </trkpt>
      <trkpt lat="42.43033" lon="2.67704">
        <ele>667</ele>
        <time>2024-09-20T13:02:05Z</time>
      </trkpt>
      <trkpt lat="42.43036" lon="2.67705">
        <ele>667</ele>
        <time>2024-09-20T13:02:06Z</time>
      </trkpt>
      <trkpt lat="42.43039" lon="2.67705">
        <ele>666</ele>
        <time>2024-09-20T13:02:14Z</time>
      </trkpt>
      <trkpt lat="42.43043" lon="2.67705">
        <ele>665</ele>
        <time>2024-09-20T13:02:18Z</time>
      </trkpt>
      <trkpt lat="42.43046" lon="2.67705">
        <ele>666</ele>
        <time>2024-09-20T13:02:20Z</time>
      </trkpt>
      <trkpt lat="42.43049" lon="2.67705">
        <ele>666</ele>
        <time>2024-09-20T13:02:23Z</time>
      </trkpt>
      <trkpt lat="42.43052" lon="2.67704">
        <ele>666</ele>
        <time>2024-09-20T13:02:26Z</time>
      </trkpt>
      <trkpt lat="42.43055" lon="2.67703">
        <ele>666</ele>
        <time>2024-09-20T13:02:28Z</time>
      </trkpt>
      <trkpt lat="42.43057" lon="2.677">
        <ele>667</ele>
        <time>2024-09-20T13:02:31Z</time>
      </trkpt>
      <trkpt lat="42.4306" lon="2.67697">
        <ele>667</ele>
        <time>2024-09-20T13:02:34Z</time>
      </trkpt>
      <trkpt lat="42.43062" lon="2.67693">
        <ele>666</ele>
        <time>2024-09-20T13:02:37Z</time>
      </trkpt>
      <trkpt lat="42.43062" lon="2.67688">
        <ele>666</ele>
        <time>2024-09-20T13:02:39Z</time>
      </trkpt>
      <trkpt lat="42.43062" lon="2.67683">
        <ele>666</ele>
        <time>2024-09-20T13:02:42Z</time>
      </trkpt>
      <trkpt lat="42.43063" lon="2.67678">
        <ele>665</ele>
        <time>2024-09-20T13:02:45Z</time>
      </trkpt>
      <trkpt lat="42.43062" lon="2.67674">
        <ele>666</ele>
        <time>2024-09-20T13:02:47Z</time>
      </trkpt>
      <trkpt lat="42.43063" lon="2.6767">
        <ele>666</ele>
        <time>2024-09-20T13:02:50Z</time>
      </trkpt>
      <trkpt lat="42.43064" lon="2.67666">
        <ele>666</ele>
        <time>2024-09-20T13:02:52Z</time>
      </trkpt>
      <trkpt lat="42.43065" lon="2.67662">
        <ele>666</ele>
        <time>2024-09-20T13:02:55Z</time>
      </trkpt>
      <trkpt lat="42.43065" lon="2.67657">
        <ele>666</ele>
        <time>2024-09-20T13:02:58Z</time>
      </trkpt>
      <trkpt lat="42.43065" lon="2.67652">
        <ele>666</ele>
        <time>2024-09-20T13:03:01Z</time>
      </trkpt>
      <trkpt lat="42.43066" lon="2.67648">
        <ele>665</ele>
        <time>2024-09-20T13:03:04Z</time>
      </trkpt>
      <trkpt lat="42.43066" lon="2.67644">
        <ele>665</ele>
        <time>2024-09-20T13:03:06Z</time>
      </trkpt>
      <trkpt lat="42.43067" lon="2.6764">
        <ele>665</ele>
        <time>2024-09-20T13:03:09Z</time>
      </trkpt>
      <trkpt lat="42.43068" lon="2.67636">
        <ele>665</ele>
        <time>2024-09-20T13:03:12Z</time>
      </trkpt>
      <trkpt lat="42.4307" lon="2.67631">
        <ele>665</ele>
        <time>2024-09-20T13:03:15Z</time>
      </trkpt>
      <trkpt lat="42.4307" lon="2.67627">
        <ele>664</ele>
        <time>2024-09-20T13:03:17Z</time>
      </trkpt>
      <trkpt lat="42.43071" lon="2.67622">
        <ele>665</ele>
        <time>2024-09-20T13:03:20Z</time>
      </trkpt>
      <trkpt lat="42.43072" lon="2.67618">
        <ele>665</ele>
        <time>2024-09-20T13:03:23Z</time>
      </trkpt>
      <trkpt lat="42.43073" lon="2.67614">
        <ele>666</ele>
        <time>2024-09-20T13:03:25Z</time>
      </trkpt>
      <trkpt lat="42.43074" lon="2.6761">
        <ele>666</ele>
        <time>2024-09-20T13:03:28Z</time>
      </trkpt>
      <trkpt lat="42.43075" lon="2.67606">
        <ele>666</ele>
        <time>2024-09-20T13:03:30Z</time>
      </trkpt>
      <trkpt lat="42.43075" lon="2.67601">
        <ele>668</ele>
        <time>2024-09-20T13:03:33Z</time>
      </trkpt>
      <trkpt lat="42.43076" lon="2.67598">
        <ele>667</ele>
        <time>2024-09-20T13:03:35Z</time>
      </trkpt>
      <trkpt lat="42.43077" lon="2.67594">
        <ele>666</ele>
        <time>2024-09-20T13:03:37Z</time>
      </trkpt>
      <trkpt lat="42.43077" lon="2.6759">
        <ele>666</ele>
        <time>2024-09-20T13:03:40Z</time>
      </trkpt>
      <trkpt lat="42.43076" lon="2.67586">
        <ele>667</ele>
        <time>2024-09-20T13:03:42Z</time>
      </trkpt>
      <trkpt lat="42.43074" lon="2.67582">
        <ele>668</ele>
        <time>2024-09-20T13:03:44Z</time>
      </trkpt>
      <trkpt lat="42.43071" lon="2.67579">
        <ele>668</ele>
        <time>2024-09-20T13:03:47Z</time>
      </trkpt>
      <trkpt lat="42.43069" lon="2.67575">
        <ele>669</ele>
        <time>2024-09-20T13:03:50Z</time>
      </trkpt>
      <trkpt lat="42.43067" lon="2.67572">
        <ele>668</ele>
        <time>2024-09-20T13:03:54Z</time>
      </trkpt>
      <trkpt lat="42.43065" lon="2.67569">
        <ele>667</ele>
        <time>2024-09-20T13:03:56Z</time>
      </trkpt>
      <trkpt lat="42.43063" lon="2.67565">
        <ele>667</ele>
        <time>2024-09-20T13:03:59Z</time>
      </trkpt>
      <trkpt lat="42.43061" lon="2.67562">
        <ele>667</ele>
        <time>2024-09-20T13:04:02Z</time>
      </trkpt>
      <trkpt lat="42.43059" lon="2.67558">
        <ele>665</ele>
        <time>2024-09-20T13:04:05Z</time>
      </trkpt>
      <trkpt lat="42.43059" lon="2.67554">
        <ele>665</ele>
        <time>2024-09-20T13:04:08Z</time>
      </trkpt>
      <trkpt lat="42.43058" lon="2.67549">
        <ele>665</ele>
        <time>2024-09-20T13:04:11Z</time>
      </trkpt>
      <trkpt lat="42.43058" lon="2.67545">
        <ele>665</ele>
        <time>2024-09-20T13:04:13Z</time>
      </trkpt>
      <trkpt lat="42.43057" lon="2.67541">
        <ele>665</ele>
        <time>2024-09-20T13:04:15Z</time>
      </trkpt>
      <trkpt lat="42.43055" lon="2.67537">
        <ele>666</ele>
        <time>2024-09-20T13:04:17Z</time>
      </trkpt>
      <trkpt lat="42.43054" lon="2.67533">
        <ele>666</ele>
        <time>2024-09-20T13:04:19Z</time>
      </trkpt>
      <trkpt lat="42.43052" lon="2.6753">
        <ele>665</ele>
        <time>2024-09-20T13:04:21Z</time>
      </trkpt>
      <trkpt lat="42.4305" lon="2.67527">
        <ele>665</ele>
        <time>2024-09-20T13:04:23Z</time>
      </trkpt>
      <trkpt lat="42.43048" lon="2.67523">
        <ele>665</ele>
        <time>2024-09-20T13:04:26Z</time>
      </trkpt>
      <trkpt lat="42.43046" lon="2.67519">
        <ele>664</ele>
        <time>2024-09-20T13:04:29Z</time>
      </trkpt>
      <trkpt lat="42.43045" lon="2.67515">
        <ele>663</ele>
        <time>2024-09-20T13:04:31Z</time>
      </trkpt>
      <trkpt lat="42.43044" lon="2.6751">
        <ele>662</ele>
        <time>2024-09-20T13:04:35Z</time>
      </trkpt>
      <trkpt lat="42.43042" lon="2.67505">
        <ele>661</ele>
        <time>2024-09-20T13:04:38Z</time>
      </trkpt>
      <trkpt lat="42.43041" lon="2.675">
        <ele>660</ele>
        <time>2024-09-20T13:04:41Z</time>
      </trkpt>
      <trkpt lat="42.43041" lon="2.67495">
        <ele>660</ele>
        <time>2024-09-20T13:04:44Z</time>
      </trkpt>
      <trkpt lat="42.43039" lon="2.67491">
        <ele>660</ele>
        <time>2024-09-20T13:04:47Z</time>
      </trkpt>
      <trkpt lat="42.43038" lon="2.67487">
        <ele>661</ele>
        <time>2024-09-20T13:04:49Z</time>
      </trkpt>
      <trkpt lat="42.43037" lon="2.67483">
        <ele>660</ele>
        <time>2024-09-20T13:04:51Z</time>
      </trkpt>
      <trkpt lat="42.43035" lon="2.67479">
        <ele>660</ele>
        <time>2024-09-20T13:04:55Z</time>
      </trkpt>
      <trkpt lat="42.43034" lon="2.67476">
        <ele>658</ele>
        <time>2024-09-20T13:04:57Z</time>
      </trkpt>
      <trkpt lat="42.43034" lon="2.67471">
        <ele>658</ele>
        <time>2024-09-20T13:04:59Z</time>
      </trkpt>
      <trkpt lat="42.43034" lon="2.67467">
        <ele>657</ele>
        <time>2024-09-20T13:05:02Z</time>
      </trkpt>
      <trkpt lat="42.43034" lon="2.67462">
        <ele>657</ele>
        <time>2024-09-20T13:05:05Z</time>
      </trkpt>
      <trkpt lat="42.43035" lon="2.67458">
        <ele>657</ele>
        <time>2024-09-20T13:05:08Z</time>
      </trkpt>
      <trkpt lat="42.43035" lon="2.67453">
        <ele>656</ele>
        <time>2024-09-20T13:05:10Z</time>
      </trkpt>
      <trkpt lat="42.43035" lon="2.67448">
        <ele>657</ele>
        <time>2024-09-20T13:05:13Z</time>
      </trkpt>
      <trkpt lat="42.43034" lon="2.67444">
        <ele>657</ele>
        <time>2024-09-20T13:05:15Z</time>
      </trkpt>
      <trkpt lat="42.43033" lon="2.67441">
        <ele>657</ele>
        <time>2024-09-20T13:05:17Z</time>
      </trkpt>
      <trkpt lat="42.4303" lon="2.67437">
        <ele>657</ele>
        <time>2024-09-20T13:05:20Z</time>
      </trkpt>
      <trkpt lat="42.43028" lon="2.67435">
        <ele>657</ele>
        <time>2024-09-20T13:05:23Z</time>
      </trkpt>
      <trkpt lat="42.43025" lon="2.67432">
        <ele>658</ele>
        <time>2024-09-20T13:05:25Z</time>
      </trkpt>
      <trkpt lat="42.43023" lon="2.67429">
        <ele>658</ele>
        <time>2024-09-20T13:05:27Z</time>
      </trkpt>
      <trkpt lat="42.43022" lon="2.67425">
        <ele>658</ele>
        <time>2024-09-20T13:05:30Z</time>
      </trkpt>
      <trkpt lat="42.43022" lon="2.6742">
        <ele>656</ele>
        <time>2024-09-20T13:05:33Z</time>
      </trkpt>
      <trkpt lat="42.43021" lon="2.67416">
        <ele>656</ele>
        <time>2024-09-20T13:05:35Z</time>
      </trkpt>
      <trkpt lat="42.4302" lon="2.67411">
        <ele>653</ele>
        <time>2024-09-20T13:05:38Z</time>
      </trkpt>
      <trkpt lat="42.43019" lon="2.67406">
        <ele>654</ele>
        <time>2024-09-20T13:05:41Z</time>
      </trkpt>
      <trkpt lat="42.43019" lon="2.67401">
        <ele>654</ele>
        <time>2024-09-20T13:05:45Z</time>
      </trkpt>
      <trkpt lat="42.43017" lon="2.67397">
        <ele>654</ele>
        <time>2024-09-20T13:05:47Z</time>
      </trkpt>
      <trkpt lat="42.43016" lon="2.67393">
        <ele>654</ele>
        <time>2024-09-20T13:05:50Z</time>
      </trkpt>
      <trkpt lat="42.43015" lon="2.67389">
        <ele>653</ele>
        <time>2024-09-20T13:05:52Z</time>
      </trkpt>
      <trkpt lat="42.43015" lon="2.67385">
        <ele>654</ele>
        <time>2024-09-20T13:05:54Z</time>
      </trkpt>
      <trkpt lat="42.43014" lon="2.6738">
        <ele>652</ele>
        <time>2024-09-20T13:05:57Z</time>
      </trkpt>
      <trkpt lat="42.43014" lon="2.67376">
        <ele>651</ele>
        <time>2024-09-20T13:06:00Z</time>
      </trkpt>
      <trkpt lat="42.43014" lon="2.67372">
        <ele>652</ele>
        <time>2024-09-20T13:06:02Z</time>
      </trkpt>
      <trkpt lat="42.43014" lon="2.67368">
        <ele>653</ele>
        <time>2024-09-20T13:06:04Z</time>
      </trkpt>
      <trkpt lat="42.43015" lon="2.67364">
        <ele>653</ele>
        <time>2024-09-20T13:06:07Z</time>
      </trkpt>
      <trkpt lat="42.43017" lon="2.6736">
        <ele>653</ele>
        <time>2024-09-20T13:06:09Z</time>
      </trkpt>
      <trkpt lat="42.43018" lon="2.67356">
        <ele>653</ele>
        <time>2024-09-20T13:06:12Z</time>
      </trkpt>
      <trkpt lat="42.4302" lon="2.67353">
        <ele>653</ele>
        <time>2024-09-20T13:06:16Z</time>
      </trkpt>
      <trkpt lat="42.43023" lon="2.6735">
        <ele>654</ele>
        <time>2024-09-20T13:06:18Z</time>
      </trkpt>
      <trkpt lat="42.43026" lon="2.67346">
        <ele>653</ele>
        <time>2024-09-20T13:06:21Z</time>
      </trkpt>
      <trkpt lat="42.43029" lon="2.67344">
        <ele>654</ele>
        <time>2024-09-20T13:06:22Z</time>
      </trkpt>
      <trkpt lat="42.43032" lon="2.67342">
        <ele>653</ele>
        <time>2024-09-20T13:06:25Z</time>
      </trkpt>
      <trkpt lat="42.43035" lon="2.6734">
        <ele>654</ele>
        <time>2024-09-20T13:06:28Z</time>
      </trkpt>
      <trkpt lat="42.43038" lon="2.67339">
        <ele>654</ele>
        <time>2024-09-20T13:06:31Z</time>
      </trkpt>
      <trkpt lat="42.43041" lon="2.67337">
        <ele>655</ele>
        <time>2024-09-20T13:06:33Z</time>
      </trkpt>
      <trkpt lat="42.43044" lon="2.67336">
        <ele>655</ele>
        <time>2024-09-20T13:06:35Z</time>
      </trkpt>
      <trkpt lat="42.43047" lon="2.67335">
        <ele>655</ele>
        <time>2024-09-20T13:06:38Z</time>
      </trkpt>
      <trkpt lat="42.4305" lon="2.67335">
        <ele>655</ele>
        <time>2024-09-20T13:06:41Z</time>
      </trkpt>
      <trkpt lat="42.43053" lon="2.67335">
        <ele>655</ele>
        <time>2024-09-20T13:06:43Z</time>
      </trkpt>
      <trkpt lat="42.43056" lon="2.67336">
        <ele>654</ele>
        <time>2024-09-20T13:06:46Z</time>
      </trkpt>
      <trkpt lat="42.4306" lon="2.67336">
        <ele>654</ele>
        <time>2024-09-20T13:06:49Z</time>
      </trkpt>
      <trkpt lat="42.43063" lon="2.67337">
        <ele>654</ele>
        <time>2024-09-20T13:06:51Z</time>
      </trkpt>
      <trkpt lat="42.43066" lon="2.67337">
        <ele>655</ele>
        <time>2024-09-20T13:06:53Z</time>
      </trkpt>
      <trkpt lat="42.43069" lon="2.67337">
        <ele>655</ele>
        <time>2024-09-20T13:06:56Z</time>
      </trkpt>
      <trkpt lat="42.43073" lon="2.67338">
        <ele>655</ele>
        <time>2024-09-20T13:06:59Z</time>
      </trkpt>
      <trkpt lat="42.43076" lon="2.67337">
        <ele>655</ele>
        <time>2024-09-20T13:07:02Z</time>
      </trkpt>
      <trkpt lat="42.4308" lon="2.67338">
        <ele>655</ele>
        <time>2024-09-20T13:07:05Z</time>
      </trkpt>
      <trkpt lat="42.43083" lon="2.67337">
        <ele>655</ele>
        <time>2024-09-20T13:07:07Z</time>
      </trkpt>
      <trkpt lat="42.43086" lon="2.67336">
        <ele>655</ele>
        <time>2024-09-20T13:07:10Z</time>
      </trkpt>
      <trkpt lat="42.43089" lon="2.67335">
        <ele>656</ele>
        <time>2024-09-20T13:07:12Z</time>
      </trkpt>
      <trkpt lat="42.43093" lon="2.67335">
        <ele>655</ele>
        <time>2024-09-20T13:07:15Z</time>
      </trkpt>
      <trkpt lat="42.43097" lon="2.67334">
        <ele>656</ele>
        <time>2024-09-20T13:07:18Z</time>
      </trkpt>
      <trkpt lat="42.431" lon="2.67334">
        <ele>656</ele>
        <time>2024-09-20T13:07:21Z</time>
      </trkpt>
      <trkpt lat="42.43104" lon="2.67334">
        <ele>656</ele>
        <time>2024-09-20T13:07:24Z</time>
      </trkpt>
      <trkpt lat="42.43108" lon="2.67335">
        <ele>654</ele>
        <time>2024-09-20T13:07:27Z</time>
      </trkpt>
      <trkpt lat="42.43111" lon="2.67335">
        <ele>655</ele>
        <time>2024-09-20T13:07:30Z</time>
      </trkpt>
      <trkpt lat="42.43114" lon="2.67336">
        <ele>655</ele>
        <time>2024-09-20T13:07:33Z</time>
      </trkpt>
      <trkpt lat="42.43117" lon="2.67336">
        <ele>654</ele>
        <time>2024-09-20T13:07:35Z</time>
      </trkpt>
      <trkpt lat="42.43121" lon="2.67335">
        <ele>655</ele>
        <time>2024-09-20T13:07:37Z</time>
      </trkpt>
      <trkpt lat="42.43124" lon="2.67335">
        <ele>655</ele>
        <time>2024-09-20T13:07:39Z</time>
      </trkpt>
      <trkpt lat="42.43127" lon="2.67334">
        <ele>655</ele>
        <time>2024-09-20T13:07:42Z</time>
      </trkpt>
      <trkpt lat="42.4313" lon="2.67335">
        <ele>655</ele>
        <time>2024-09-20T13:07:45Z</time>
      </trkpt>
      <trkpt lat="42.43133" lon="2.67335">
        <ele>655</ele>
        <time>2024-09-20T13:07:47Z</time>
      </trkpt>
      <trkpt lat="42.43136" lon="2.67334">
        <ele>655</ele>
        <time>2024-09-20T13:07:49Z</time>
      </trkpt>
      <trkpt lat="42.4314" lon="2.67334">
        <ele>654</ele>
        <time>2024-09-20T13:07:53Z</time>
      </trkpt>
      <trkpt lat="42.43143" lon="2.67333">
        <ele>655</ele>
        <time>2024-09-20T13:07:55Z</time>
      </trkpt>
      <trkpt lat="42.43146" lon="2.67332">
        <ele>656</ele>
        <time>2024-09-20T13:07:57Z</time>
      </trkpt>
      <trkpt lat="42.4315" lon="2.67332">
        <ele>655</ele>
        <time>2024-09-20T13:08:00Z</time>
      </trkpt>
      <trkpt lat="42.43153" lon="2.67331">
        <ele>655</ele>
        <time>2024-09-20T13:08:02Z</time>
      </trkpt>
      <trkpt lat="42.43156" lon="2.67329">
        <ele>655</ele>
        <time>2024-09-20T13:08:05Z</time>
      </trkpt>
      <trkpt lat="42.43159" lon="2.67328">
        <ele>653</ele>
        <time>2024-09-20T13:08:08Z</time>
      </trkpt>
      <trkpt lat="42.43163" lon="2.67326">
        <ele>653</ele>
        <time>2024-09-20T13:08:11Z</time>
      </trkpt>
      <trkpt lat="42.43166" lon="2.67325">
        <ele>653</ele>
        <time>2024-09-20T13:08:14Z</time>
      </trkpt>
      <trkpt lat="42.43169" lon="2.67325">
        <ele>652</ele>
        <time>2024-09-20T13:08:18Z</time>
      </trkpt>
      <trkpt lat="42.43172" lon="2.67325">
        <ele>651</ele>
        <time>2024-09-20T13:08:20Z</time>
      </trkpt>
      <trkpt lat="42.43176" lon="2.67325">
        <ele>650</ele>
        <time>2024-09-20T13:08:22Z</time>
      </trkpt>
      <trkpt lat="42.43179" lon="2.67325">
        <ele>651</ele>
        <time>2024-09-20T13:08:24Z</time>
      </trkpt>
      <trkpt lat="42.43182" lon="2.67325">
        <ele>651</ele>
        <time>2024-09-20T13:08:27Z</time>
      </trkpt>
      <trkpt lat="42.43185" lon="2.67324">
        <ele>651</ele>
        <time>2024-09-20T13:08:29Z</time>
      </trkpt>
      <trkpt lat="42.43189" lon="2.67323">
        <ele>651</ele>
        <time>2024-09-20T13:08:32Z</time>
      </trkpt>
      <trkpt lat="42.43192" lon="2.67322">
        <ele>651</ele>
        <time>2024-09-20T13:08:34Z</time>
      </trkpt>
      <trkpt lat="42.43195" lon="2.6732">
        <ele>651</ele>
        <time>2024-09-20T13:08:36Z</time>
      </trkpt>
      <trkpt lat="42.43199" lon="2.67319">
        <ele>651</ele>
        <time>2024-09-20T13:08:39Z</time>
      </trkpt>
      <trkpt lat="42.43202" lon="2.67317">
        <ele>652</ele>
        <time>2024-09-20T13:08:42Z</time>
      </trkpt>
      <trkpt lat="42.43205" lon="2.67315">
        <ele>650</ele>
        <time>2024-09-20T13:08:45Z</time>
      </trkpt>
      <trkpt lat="42.43207" lon="2.67312">
        <ele>649</ele>
        <time>2024-09-20T13:08:47Z</time>
      </trkpt>
      <trkpt lat="42.43209" lon="2.6731">
        <ele>649</ele>
        <time>2024-09-20T13:08:49Z</time>
      </trkpt>
      <trkpt lat="42.43212" lon="2.67308">
        <ele>649</ele>
        <time>2024-09-20T13:08:52Z</time>
      </trkpt>
      <trkpt lat="42.43215" lon="2.67305">
        <ele>650</ele>
        <time>2024-09-20T13:08:55Z</time>
      </trkpt>
      <trkpt lat="42.43219" lon="2.673">
        <ele>650</ele>
        <time>2024-09-20T13:08:58Z</time>
      </trkpt>
      <trkpt lat="42.43222" lon="2.67297">
        <ele>649</ele>
        <time>2024-09-20T13:09:02Z</time>
      </trkpt>
      <trkpt lat="42.43226" lon="2.67294">
        <ele>648</ele>
        <time>2024-09-20T13:09:05Z</time>
      </trkpt>
      <trkpt lat="42.43229" lon="2.67292">
        <ele>648</ele>
        <time>2024-09-20T13:09:08Z</time>
      </trkpt>
      <trkpt lat="42.43232" lon="2.6729">
        <ele>648</ele>
        <time>2024-09-20T13:09:10Z</time>
      </trkpt>
      <trkpt lat="42.43235" lon="2.67288">
        <ele>648</ele>
        <time>2024-09-20T13:09:12Z</time>
      </trkpt>
      <trkpt lat="42.43237" lon="2.67284">
        <ele>648</ele>
        <time>2024-09-20T13:09:15Z</time>
      </trkpt>
      <trkpt lat="42.43239" lon="2.6728">
        <ele>648</ele>
        <time>2024-09-20T13:09:17Z</time>
      </trkpt>
      <trkpt lat="42.43241" lon="2.67277">
        <ele>649</ele>
        <time>2024-09-20T13:09:20Z</time>
      </trkpt>
      <trkpt lat="42.43243" lon="2.67273">
        <ele>648</ele>
        <time>2024-09-20T13:09:23Z</time>
      </trkpt>
      <trkpt lat="42.43244" lon="2.67268">
        <ele>649</ele>
        <time>2024-09-20T13:09:26Z</time>
      </trkpt>
      <trkpt lat="42.43245" lon="2.67264">
        <ele>649</ele>
        <time>2024-09-20T13:09:28Z</time>
      </trkpt>
      <trkpt lat="42.43245" lon="2.6726">
        <ele>648</ele>
        <time>2024-09-20T13:09:31Z</time>
      </trkpt>
      <trkpt lat="42.43244" lon="2.67255">
        <ele>649</ele>
        <time>2024-09-20T13:09:33Z</time>
      </trkpt>
      <trkpt lat="42.43244" lon="2.67251">
        <ele>648</ele>
        <time>2024-09-20T13:09:37Z</time>
      </trkpt>
      <trkpt lat="42.43244" lon="2.67246">
        <ele>647</ele>
        <time>2024-09-20T13:09:40Z</time>
      </trkpt>
      <trkpt lat="42.43244" lon="2.67242">
        <ele>646</ele>
        <time>2024-09-20T13:09:44Z</time>
      </trkpt>
      <trkpt lat="42.43245" lon="2.67238">
        <ele>645</ele>
        <time>2024-09-20T13:09:46Z</time>
      </trkpt>
      <trkpt lat="42.43247" lon="2.67235">
        <ele>645</ele>
        <time>2024-09-20T13:09:49Z</time>
      </trkpt>
      <trkpt lat="42.43248" lon="2.67231">
        <ele>646</ele>
        <time>2024-09-20T13:09:51Z</time>
      </trkpt>
      <trkpt lat="42.43249" lon="2.67227">
        <ele>646</ele>
        <time>2024-09-20T13:09:54Z</time>
      </trkpt>
      <trkpt lat="42.4325" lon="2.67223">
        <ele>645</ele>
        <time>2024-09-20T13:09:57Z</time>
      </trkpt>
      <trkpt lat="42.43251" lon="2.6722">
        <ele>645</ele>
        <time>2024-09-20T13:10:00Z</time>
      </trkpt>
      <trkpt lat="42.43253" lon="2.67216">
        <ele>645</ele>
        <time>2024-09-20T13:10:03Z</time>
      </trkpt>
      <trkpt lat="42.43255" lon="2.67212">
        <ele>645</ele>
        <time>2024-09-20T13:10:06Z</time>
      </trkpt>
      <trkpt lat="42.43257" lon="2.67209">
        <ele>645</ele>
        <time>2024-09-20T13:10:08Z</time>
      </trkpt>
      <trkpt lat="42.43258" lon="2.67205">
        <ele>645</ele>
        <time>2024-09-20T13:10:11Z</time>
      </trkpt>
      <trkpt lat="42.4326" lon="2.67201">
        <ele>645</ele>
        <time>2024-09-20T13:10:14Z</time>
      </trkpt>
      <trkpt lat="42.43263" lon="2.67198">
        <ele>645</ele>
        <time>2024-09-20T13:10:17Z</time>
      </trkpt>
      <trkpt lat="42.43266" lon="2.67195">
        <ele>646</ele>
        <time>2024-09-20T13:10:20Z</time>
      </trkpt>
      <trkpt lat="42.4327" lon="2.67194">
        <ele>645</ele>
        <time>2024-09-20T13:10:23Z</time>
      </trkpt>
      <trkpt lat="42.43273" lon="2.67193">
        <ele>645</ele>
        <time>2024-09-20T13:10:26Z</time>
      </trkpt>
      <trkpt lat="42.43276" lon="2.67191">
        <ele>645</ele>
        <time>2024-09-20T13:10:28Z</time>
      </trkpt>
      <trkpt lat="42.43279" lon="2.6719">
        <ele>645</ele>
        <time>2024-09-20T13:10:30Z</time>
      </trkpt>
      <trkpt lat="42.43282" lon="2.6719">
        <ele>645</ele>
        <time>2024-09-20T13:10:32Z</time>
      </trkpt>
      <trkpt lat="42.43285" lon="2.6719">
        <ele>645</ele>
        <time>2024-09-20T13:10:35Z</time>
      </trkpt>
      <trkpt lat="42.43288" lon="2.67191">
        <ele>645</ele>
        <time>2024-09-20T13:10:37Z</time>
      </trkpt>
      <trkpt lat="42.43291" lon="2.67193">
        <ele>645</ele>
        <time>2024-09-20T13:10:39Z</time>
      </trkpt>
      <trkpt lat="42.43294" lon="2.67194">
        <ele>645</ele>
        <time>2024-09-20T13:10:42Z</time>
      </trkpt>
      <trkpt lat="42.43297" lon="2.67196">
        <ele>645</ele>
        <time>2024-09-20T13:10:45Z</time>
      </trkpt>
      <trkpt lat="42.433" lon="2.67198">
        <ele>644</ele>
        <time>2024-09-20T13:10:47Z</time>
      </trkpt>
      <trkpt lat="42.43303" lon="2.672">
        <ele>645</ele>
        <time>2024-09-20T13:10:50Z</time>
      </trkpt>
      <trkpt lat="42.43307" lon="2.67203">
        <ele>646</ele>
        <time>2024-09-20T13:10:53Z</time>
      </trkpt>
      <trkpt lat="42.4331" lon="2.67205">
        <ele>646</ele>
        <time>2024-09-20T13:10:58Z</time>
      </trkpt>
      <trkpt lat="42.43314" lon="2.67207">
        <ele>645</ele>
        <time>2024-09-20T13:11:01Z</time>
      </trkpt>
      <trkpt lat="42.43317" lon="2.67209">
        <ele>645</ele>
        <time>2024-09-20T13:11:04Z</time>
      </trkpt>
      <trkpt lat="42.4332" lon="2.6721">
        <ele>646</ele>
        <time>2024-09-20T13:11:06Z</time>
      </trkpt>
      <trkpt lat="42.43323" lon="2.67212">
        <ele>645</ele>
        <time>2024-09-20T13:11:10Z</time>
      </trkpt>
      <trkpt lat="42.43327" lon="2.67214">
        <ele>644</ele>
        <time>2024-09-20T13:11:13Z</time>
      </trkpt>
      <trkpt lat="42.43329" lon="2.67216">
        <ele>645</ele>
        <time>2024-09-20T13:11:15Z</time>
      </trkpt>
      <trkpt lat="42.43332" lon="2.67218">
        <ele>645</ele>
        <time>2024-09-20T13:11:18Z</time>
      </trkpt>
      <trkpt lat="42.43336" lon="2.67219">
        <ele>645</ele>
        <time>2024-09-20T13:11:21Z</time>
      </trkpt>
      <trkpt lat="42.43339" lon="2.6722">
        <ele>646</ele>
        <time>2024-09-20T13:11:24Z</time>
      </trkpt>
      <trkpt lat="42.43343" lon="2.6722">
        <ele>646</ele>
        <time>2024-09-20T13:11:27Z</time>
      </trkpt>
      <trkpt lat="42.43346" lon="2.67221">
        <ele>645</ele>
        <time>2024-09-20T13:11:29Z</time>
      </trkpt>
      <trkpt lat="42.43349" lon="2.67222">
        <ele>645</ele>
        <time>2024-09-20T13:11:31Z</time>
      </trkpt>
      <trkpt lat="42.43352" lon="2.67223">
        <ele>645</ele>
        <time>2024-09-20T13:11:33Z</time>
      </trkpt>
      <trkpt lat="42.43355" lon="2.67223">
        <ele>645</ele>
        <time>2024-09-20T13:11:36Z</time>
      </trkpt>
      <trkpt lat="42.43358" lon="2.67222">
        <ele>646</ele>
        <time>2024-09-20T13:11:40Z</time>
      </trkpt>
      <trkpt lat="42.43361" lon="2.67221">
        <ele>646</ele>
        <time>2024-09-20T13:11:43Z</time>
      </trkpt>
      <trkpt lat="42.43364" lon="2.6722">
        <ele>646</ele>
        <time>2024-09-20T13:11:46Z</time>
      </trkpt>
      <trkpt lat="42.43367" lon="2.67221">
        <ele>646</ele>
        <time>2024-09-20T13:11:49Z</time>
      </trkpt>
      <trkpt lat="42.4337" lon="2.67222">
        <ele>645</ele>
        <time>2024-09-20T13:11:52Z</time>
      </trkpt>
      <trkpt lat="42.43373" lon="2.67224">
        <ele>646</ele>
        <time>2024-09-20T13:11:54Z</time>
      </trkpt>
      <trkpt lat="42.43376" lon="2.67225">
        <ele>645</ele>
        <time>2024-09-20T13:11:57Z</time>
      </trkpt>
      <trkpt lat="42.43379" lon="2.67225">
        <ele>647</ele>
        <time>2024-09-20T13:11:59Z</time>
      </trkpt>
      <trkpt lat="42.43382" lon="2.67225">
        <ele>645</ele>
        <time>2024-09-20T13:12:03Z</time>
      </trkpt>
      <trkpt lat="42.43385" lon="2.67226">
        <ele>645</ele>
        <time>2024-09-20T13:12:05Z</time>
      </trkpt>
      <trkpt lat="42.43388" lon="2.67226">
        <ele>644</ele>
        <time>2024-09-20T13:12:07Z</time>
      </trkpt>
      <trkpt lat="42.43391" lon="2.67228">
        <ele>644</ele>
        <time>2024-09-20T13:12:10Z</time>
      </trkpt>
      <trkpt lat="42.43394" lon="2.67229">
        <ele>643</ele>
        <time>2024-09-20T13:12:12Z</time>
      </trkpt>
      <trkpt lat="42.43397" lon="2.6723">
        <ele>643</ele>
        <time>2024-09-20T13:12:14Z</time>
      </trkpt>
      <trkpt lat="42.434" lon="2.67231">
        <ele>643</ele>
        <time>2024-09-20T13:12:17Z</time>
      </trkpt>
      <trkpt lat="42.43403" lon="2.67232">
        <ele>643</ele>
        <time>2024-09-20T13:12:20Z</time>
      </trkpt>
      <trkpt lat="42.43407" lon="2.67232">
        <ele>643</ele>
        <time>2024-09-20T13:12:23Z</time>
      </trkpt>
      <trkpt lat="42.43411" lon="2.67232">
        <ele>643</ele>
        <time>2024-09-20T13:12:27Z</time>
      </trkpt>
      <trkpt lat="42.43415" lon="2.67233">
        <ele>643</ele>
        <time>2024-09-20T13:12:30Z</time>
      </trkpt>
      <trkpt lat="42.43419" lon="2.67234">
        <ele>642</ele>
        <time>2024-09-20T13:12:33Z</time>
      </trkpt>
      <trkpt lat="42.43422" lon="2.67237">
        <ele>642</ele>
        <time>2024-09-20T13:12:36Z</time>
      </trkpt>
      <trkpt lat="42.43425" lon="2.67238">
        <ele>642</ele>
        <time>2024-09-20T13:12:38Z</time>
      </trkpt>
      <trkpt lat="42.43428" lon="2.6724">
        <ele>641</ele>
        <time>2024-09-20T13:12:41Z</time>
      </trkpt>
      <trkpt lat="42.43431" lon="2.67242">
        <ele>641</ele>
        <time>2024-09-20T13:12:44Z</time>
      </trkpt>
      <trkpt lat="42.43434" lon="2.67244">
        <ele>640</ele>
        <time>2024-09-20T13:12:47Z</time>
      </trkpt>
      <trkpt lat="42.43437" lon="2.67247">
        <ele>640</ele>
        <time>2024-09-20T13:12:50Z</time>
      </trkpt>
      <trkpt lat="42.4344" lon="2.6725">
        <ele>640</ele>
        <time>2024-09-20T13:12:53Z</time>
      </trkpt>
      <trkpt lat="42.43443" lon="2.67253">
        <ele>640</ele>
        <time>2024-09-20T13:12:56Z</time>
      </trkpt>
      <trkpt lat="42.43446" lon="2.67257">
        <ele>639</ele>
        <time>2024-09-20T13:13:00Z</time>
      </trkpt>
      <trkpt lat="42.43448" lon="2.67261">
        <ele>641</ele>
        <time>2024-09-20T13:13:03Z</time>
      </trkpt>
      <trkpt lat="42.43451" lon="2.67264">
        <ele>640</ele>
        <time>2024-09-20T13:13:06Z</time>
      </trkpt>
      <trkpt lat="42.43453" lon="2.67268">
        <ele>639</ele>
        <time>2024-09-20T13:13:08Z</time>
      </trkpt>
      <trkpt lat="42.43455" lon="2.67271">
        <ele>638</ele>
        <time>2024-09-20T13:13:11Z</time>
      </trkpt>
      <trkpt lat="42.43458" lon="2.67275">
        <ele>637</ele>
        <time>2024-09-20T13:13:14Z</time>
      </trkpt>
      <trkpt lat="42.43461" lon="2.67277">
        <ele>638</ele>
        <time>2024-09-20T13:13:17Z</time>
      </trkpt>
      <trkpt lat="42.43464" lon="2.6728">
        <ele>638</ele>
        <time>2024-09-20T13:13:19Z</time>
      </trkpt>
      <trkpt lat="42.43466" lon="2.67283">
        <ele>637</ele>
        <time>2024-09-20T13:13:22Z</time>
      </trkpt>
      <trkpt lat="42.43469" lon="2.67285">
        <ele>637</ele>
        <time>2024-09-20T13:13:25Z</time>
      </trkpt>
      <trkpt lat="42.43472" lon="2.67287">
        <ele>637</ele>
        <time>2024-09-20T13:13:27Z</time>
      </trkpt>
      <trkpt lat="42.43476" lon="2.6729">
        <ele>638</ele>
        <time>2024-09-20T13:13:30Z</time>
      </trkpt>
      <trkpt lat="42.43478" lon="2.67292">
        <ele>636</ele>
        <time>2024-09-20T13:13:33Z</time>
      </trkpt>
      <trkpt lat="42.43481" lon="2.67295">
        <ele>635</ele>
        <time>2024-09-20T13:13:36Z</time>
      </trkpt>
      <trkpt lat="42.43484" lon="2.67297">
        <ele>636</ele>
        <time>2024-09-20T13:13:38Z</time>
      </trkpt>
      <trkpt lat="42.43486" lon="2.673">
        <ele>635</ele>
        <time>2024-09-20T13:13:41Z</time>
      </trkpt>
      <trkpt lat="42.43489" lon="2.67302">
        <ele>635</ele>
        <time>2024-09-20T13:13:44Z</time>
      </trkpt>
      <trkpt lat="42.43492" lon="2.67304">
        <ele>634</ele>
        <time>2024-09-20T13:13:47Z</time>
      </trkpt>
      <trkpt lat="42.43495" lon="2.67308">
        <ele>635</ele>
        <time>2024-09-20T13:13:50Z</time>
      </trkpt>
      <trkpt lat="42.43497" lon="2.67311">
        <ele>634</ele>
        <time>2024-09-20T13:13:54Z</time>
      </trkpt>
      <trkpt lat="42.43499" lon="2.67315">
        <ele>633</ele>
        <time>2024-09-20T13:13:57Z</time>
      </trkpt>
      <trkpt lat="42.43501" lon="2.67319">
        <ele>634</ele>
        <time>2024-09-20T13:14:00Z</time>
      </trkpt>
      <trkpt lat="42.43502" lon="2.67323">
        <ele>634</ele>
        <time>2024-09-20T13:14:03Z</time>
      </trkpt>
      <trkpt lat="42.43501" lon="2.67327">
        <ele>634</ele>
        <time>2024-09-20T13:14:06Z</time>
      </trkpt>
      <trkpt lat="42.43499" lon="2.67332">
        <ele>635</ele>
        <time>2024-09-20T13:14:12Z</time>
      </trkpt>
      <trkpt lat="42.43497" lon="2.67336">
        <ele>634</ele>
        <time>2024-09-20T13:14:15Z</time>
      </trkpt>
      <trkpt lat="42.43495" lon="2.6734">
        <ele>635</ele>
        <time>2024-09-20T13:14:18Z</time>
      </trkpt>
      <trkpt lat="42.43492" lon="2.67343">
        <ele>634</ele>
        <time>2024-09-20T13:14:21Z</time>
      </trkpt>
      <trkpt lat="42.4349" lon="2.67347">
        <ele>635</ele>
        <time>2024-09-20T13:14:24Z</time>
      </trkpt>
      <trkpt lat="42.43489" lon="2.6735">
        <ele>635</ele>
        <time>2024-09-20T13:14:26Z</time>
      </trkpt>
      <trkpt lat="42.43489" lon="2.67355">
        <ele>636</ele>
        <time>2024-09-20T13:14:28Z</time>
      </trkpt>
      <trkpt lat="42.4349" lon="2.67358">
        <ele>636</ele>
        <time>2024-09-20T13:14:30Z</time>
      </trkpt>
      <trkpt lat="42.43493" lon="2.67361">
        <ele>637</ele>
        <time>2024-09-20T13:14:33Z</time>
      </trkpt>
      <trkpt lat="42.43496" lon="2.67363">
        <ele>635</ele>
        <time>2024-09-20T13:14:37Z</time>
      </trkpt>
      <trkpt lat="42.43499" lon="2.67363">
        <ele>636</ele>
        <time>2024-09-20T13:14:39Z</time>
      </trkpt>
      <trkpt lat="42.43502" lon="2.67363">
        <ele>637</ele>
        <time>2024-09-20T13:14:42Z</time>
      </trkpt>
      <trkpt lat="42.43506" lon="2.67365">
        <ele>637</ele>
        <time>2024-09-20T13:14:44Z</time>
      </trkpt>
      <trkpt lat="42.4351" lon="2.67366">
        <ele>636</ele>
        <time>2024-09-20T13:14:47Z</time>
      </trkpt>
      <trkpt lat="42.43512" lon="2.67368">
        <ele>635</ele>
        <time>2024-09-20T13:14:50Z</time>
      </trkpt>
      <trkpt lat="42.43515" lon="2.6737">
        <ele>635</ele>
        <time>2024-09-20T13:14:54Z</time>
      </trkpt>
      <trkpt lat="42.43519" lon="2.67372">
        <ele>636</ele>
        <time>2024-09-20T13:14:57Z</time>
      </trkpt>
      <trkpt lat="42.43522" lon="2.67374">
        <ele>636</ele>
        <time>2024-09-20T13:14:59Z</time>
      </trkpt>
      <trkpt lat="42.43525" lon="2.67376">
        <ele>636</ele>
        <time>2024-09-20T13:15:01Z</time>
      </trkpt>
      <trkpt lat="42.43528" lon="2.67378">
        <ele>637</ele>
        <time>2024-09-20T13:15:04Z</time>
      </trkpt>
      <trkpt lat="42.4353" lon="2.6738">
        <ele>637</ele>
        <time>2024-09-20T13:15:07Z</time>
      </trkpt>
      <trkpt lat="42.43533" lon="2.67382">
        <ele>638</ele>
        <time>2024-09-20T13:15:10Z</time>
      </trkpt>
      <trkpt lat="42.43538" lon="2.67385">
        <ele>638</ele>
        <time>2024-09-20T13:15:13Z</time>
      </trkpt>
      <trkpt lat="42.43542" lon="2.67387">
        <ele>637</ele>
        <time>2024-09-20T13:15:17Z</time>
      </trkpt>
      <trkpt lat="42.43545" lon="2.6739">
        <ele>637</ele>
        <time>2024-09-20T13:15:20Z</time>
      </trkpt>
      <trkpt lat="42.43548" lon="2.6739">
        <ele>638</ele>
        <time>2024-09-20T13:15:22Z</time>
      </trkpt>
      <trkpt lat="42.43551" lon="2.67391">
        <ele>638</ele>
        <time>2024-09-20T13:15:25Z</time>
      </trkpt>
      <trkpt lat="42.43554" lon="2.67393">
        <ele>638</ele>
        <time>2024-09-20T13:15:28Z</time>
      </trkpt>
      <trkpt lat="42.43556" lon="2.67392">
        <ele>638</ele>
        <time>2024-09-20T13:15:37Z</time>
      </trkpt>
      <trkpt lat="42.43559" lon="2.67391">
        <ele>639</ele>
        <time>2024-09-20T13:15:47Z</time>
      </trkpt>
      <trkpt lat="42.43561" lon="2.67393">
        <ele>639</ele>
        <time>2024-09-20T13:15:56Z</time>
      </trkpt>
      <trkpt lat="42.4356" lon="2.6739">
        <ele>637</ele>
        <time>2024-09-20T13:16:10Z</time>
      </trkpt>
      <trkpt lat="42.4356" lon="2.67387">
        <ele>636</ele>
        <time>2024-09-20T13:16:13Z</time>
      </trkpt>
      <trkpt lat="42.43559" lon="2.67384">
        <ele>635</ele>
        <time>2024-09-20T13:16:18Z</time>
      </trkpt>
      <trkpt lat="42.43559" lon="2.67385">
        <ele>634</ele>
        <time>2024-09-20T13:16:31Z</time>
      </trkpt>
      <trkpt lat="42.4356" lon="2.67383">
        <ele>631</ele>
        <time>2024-09-20T13:16:41Z</time>
      </trkpt>
      <trkpt lat="42.4356" lon="2.6738">
        <ele>628</ele>
        <time>2024-09-20T13:16:47Z</time>
      </trkpt>
      <trkpt lat="42.4356" lon="2.67376">
        <ele>628</ele>
        <time>2024-09-20T13:16:50Z</time>
      </trkpt>
      <trkpt lat="42.43557" lon="2.67374">
        <ele>628</ele>
        <time>2024-09-20T13:16:52Z</time>
      </trkpt>
      <trkpt lat="42.43554" lon="2.67372">
        <ele>628</ele>
        <time>2024-09-20T13:16:56Z</time>
      </trkpt>
      <trkpt lat="42.43553" lon="2.67369">
        <ele>626</ele>
        <time>2024-09-20T13:17:00Z</time>
      </trkpt>
      <trkpt lat="42.43554" lon="2.67365">
        <ele>626</ele>
        <time>2024-09-20T13:17:04Z</time>
      </trkpt>
      <trkpt lat="42.43555" lon="2.67366">
        <ele>624</ele>
        <time>2024-09-20T13:17:07Z</time>
      </trkpt>
      <trkpt lat="42.43557" lon="2.67368">
        <ele>624</ele>
        <time>2024-09-20T13:17:10Z</time>
      </trkpt>
      <trkpt lat="42.43559" lon="2.67367">
        <ele>622</ele>
        <time>2024-09-20T13:17:14Z</time>
      </trkpt>
      <trkpt lat="42.43558" lon="2.67365">
        <ele>621</ele>
        <time>2024-09-20T13:17:17Z</time>
      </trkpt>
      <trkpt lat="42.43557" lon="2.67362">
        <ele>622</ele>
        <time>2024-09-20T13:17:20Z</time>
      </trkpt>
      <trkpt lat="42.43554" lon="2.6736">
        <ele>621</ele>
        <time>2024-09-20T13:17:24Z</time>
      </trkpt>
      <trkpt lat="42.43552" lon="2.67357">
        <ele>620</ele>
        <time>2024-09-20T13:17:27Z</time>
      </trkpt>
      <trkpt lat="42.43553" lon="2.67356">
        <ele>619</ele>
        <time>2024-09-20T13:17:31Z</time>
      </trkpt>
      <trkpt lat="42.43556" lon="2.67354">
        <ele>618</ele>
        <time>2024-09-20T13:17:35Z</time>
      </trkpt>
      <trkpt lat="42.43556" lon="2.67352">
        <ele>616</ele>
        <time>2024-09-20T13:17:39Z</time>
      </trkpt>
      <trkpt lat="42.43558" lon="2.67349">
        <ele>615</ele>
        <time>2024-09-20T13:17:46Z</time>
      </trkpt>
      <trkpt lat="42.4356" lon="2.6735">
        <ele>615</ele>
        <time>2024-09-20T13:17:54Z</time>
      </trkpt>
      <trkpt lat="42.43562" lon="2.67353">
        <ele>614</ele>
        <time>2024-09-20T13:17:57Z</time>
      </trkpt>
      <trkpt lat="42.43564" lon="2.67355">
        <ele>614</ele>
        <time>2024-09-20T13:18:00Z</time>
      </trkpt>
      <trkpt lat="42.43567" lon="2.67357">
        <ele>614</ele>
        <time>2024-09-20T13:18:04Z</time>
      </trkpt>
      <trkpt lat="42.43571" lon="2.67359">
        <ele>613</ele>
        <time>2024-09-20T13:18:07Z</time>
      </trkpt>
      <trkpt lat="42.43575" lon="2.6736">
        <ele>613</ele>
        <time>2024-09-20T13:18:11Z</time>
      </trkpt>
      <trkpt lat="42.43579" lon="2.67359">
        <ele>613</ele>
        <time>2024-09-20T13:18:14Z</time>
      </trkpt>
      <trkpt lat="42.43582" lon="2.67358">
        <ele>613</ele>
        <time>2024-09-20T13:18:17Z</time>
      </trkpt>
      <trkpt lat="42.43586" lon="2.67356">
        <ele>613</ele>
        <time>2024-09-20T13:18:21Z</time>
      </trkpt>
      <trkpt lat="42.43589" lon="2.67357">
        <ele>612</ele>
        <time>2024-09-20T13:18:24Z</time>
      </trkpt>
      <trkpt lat="42.43592" lon="2.67359">
        <ele>611</ele>
        <time>2024-09-20T13:18:26Z</time>
      </trkpt>
      <trkpt lat="42.43591" lon="2.67359">
        <ele>611</ele>
        <time>2024-09-20T13:18:33Z</time>
      </trkpt>
      <trkpt lat="42.43591" lon="2.67357">
        <ele>612</ele>
        <time>2024-09-20T13:18:51Z</time>
      </trkpt>
      <trkpt lat="42.43593" lon="2.67357">
        <ele>610</ele>
        <time>2024-09-20T13:19:10Z</time>
      </trkpt>
      <trkpt lat="42.43596" lon="2.67359">
        <ele>610</ele>
        <time>2024-09-20T13:19:13Z</time>
      </trkpt>
      <trkpt lat="42.43599" lon="2.67361">
        <ele>611</ele>
        <time>2024-09-20T13:19:16Z</time>
      </trkpt>
      <trkpt lat="42.43602" lon="2.67362">
        <ele>611</ele>
        <time>2024-09-20T13:19:18Z</time>
      </trkpt>
      <trkpt lat="42.43605" lon="2.67362">
        <ele>611</ele>
        <time>2024-09-20T13:19:22Z</time>
      </trkpt>
      <trkpt lat="42.43606" lon="2.6736">
        <ele>610</ele>
        <time>2024-09-20T13:19:26Z</time>
      </trkpt>
      <trkpt lat="42.43605" lon="2.67358">
        <ele>611</ele>
        <time>2024-09-20T13:19:28Z</time>
      </trkpt>
      <trkpt lat="42.43602" lon="2.67356">
        <ele>611</ele>
        <time>2024-09-20T13:19:31Z</time>
      </trkpt>
      <trkpt lat="42.436" lon="2.67353">
        <ele>611</ele>
        <time>2024-09-20T13:19:34Z</time>
      </trkpt>
      <trkpt lat="42.43597" lon="2.67351">
        <ele>611</ele>
        <time>2024-09-20T13:19:36Z</time>
      </trkpt>
      <trkpt lat="42.43595" lon="2.67348">
        <ele>611</ele>
        <time>2024-09-20T13:19:40Z</time>
      </trkpt>
      <trkpt lat="42.43594" lon="2.67344">
        <ele>612</ele>
        <time>2024-09-20T13:19:42Z</time>
      </trkpt>
      <trkpt lat="42.43595" lon="2.67341">
        <ele>610</ele>
        <time>2024-09-20T13:19:46Z</time>
      </trkpt>
      <trkpt lat="42.43595" lon="2.67342">
        <ele>605</ele>
        <time>2024-09-20T13:19:57Z</time>
      </trkpt>
      <trkpt lat="42.43595" lon="2.67344">
        <ele>606</ele>
        <time>2024-09-20T13:20:16Z</time>
      </trkpt>
      <trkpt lat="42.43597" lon="2.67346">
        <ele>607</ele>
        <time>2024-09-20T13:20:32Z</time>
      </trkpt>
      <trkpt lat="42.43596" lon="2.67347">
        <ele>610</ele>
        <time>2024-09-20T13:20:51Z</time>
      </trkpt>
      <trkpt lat="42.43595" lon="2.67344">
        <ele>611</ele>
        <time>2024-09-20T13:20:55Z</time>
      </trkpt>
      <trkpt lat="42.43595" lon="2.6734">
        <ele>610</ele>
        <time>2024-09-20T13:20:59Z</time>
      </trkpt>
      <trkpt lat="42.43596" lon="2.67336">
        <ele>607</ele>
        <time>2024-09-20T13:21:24Z</time>
      </trkpt>
      <trkpt lat="42.43596" lon="2.67331">
        <ele>607</ele>
        <time>2024-09-20T13:21:28Z</time>
      </trkpt>
      <trkpt lat="42.43597" lon="2.67327">
        <ele>606</ele>
        <time>2024-09-20T13:21:32Z</time>
      </trkpt>
      <trkpt lat="42.43601" lon="2.67323">
        <ele>608</ele>
        <time>2024-09-20T13:21:56Z</time>
      </trkpt>
      <trkpt lat="42.43602" lon="2.67318">
        <ele>606</ele>
        <time>2024-09-20T13:22:01Z</time>
      </trkpt>
      <trkpt lat="42.43601" lon="2.67314">
        <ele>607</ele>
        <time>2024-09-20T13:22:06Z</time>
      </trkpt>
      <trkpt lat="42.43601" lon="2.6731">
        <ele>608</ele>
        <time>2024-09-20T13:22:10Z</time>
      </trkpt>
      <trkpt lat="42.43602" lon="2.67306">
        <ele>607</ele>
        <time>2024-09-20T13:22:13Z</time>
      </trkpt>
      <trkpt lat="42.43602" lon="2.67302">
        <ele>606</ele>
        <time>2024-09-20T13:22:18Z</time>
      </trkpt>
      <trkpt lat="42.436" lon="2.673">
        <ele>606</ele>
        <time>2024-09-20T13:22:41Z</time>
      </trkpt>
      <trkpt lat="42.43599" lon="2.67302">
        <ele>606</ele>
        <time>2024-09-20T13:22:44Z</time>
      </trkpt>
      <trkpt lat="42.43598" lon="2.67305">
        <ele>606</ele>
        <time>2024-09-20T13:22:48Z</time>
      </trkpt>
      <trkpt lat="42.43598" lon="2.67303">
        <ele>607</ele>
        <time>2024-09-20T13:22:54Z</time>
      </trkpt>
      <trkpt lat="42.43597" lon="2.673">
        <ele>607</ele>
        <time>2024-09-20T13:23:27Z</time>
      </trkpt>
      <trkpt lat="42.43595" lon="2.67301">
        <ele>606</ele>
        <time>2024-09-20T13:23:37Z</time>
      </trkpt>
      <trkpt lat="42.43595" lon="2.67299">
        <ele>606</ele>
        <time>2024-09-20T13:23:49Z</time>
      </trkpt>
      <trkpt lat="42.43593" lon="2.67297">
        <ele>606</ele>
        <time>2024-09-20T13:23:51Z</time>
      </trkpt>
      <trkpt lat="42.43591" lon="2.67294">
        <ele>607</ele>
        <time>2024-09-20T13:23:55Z</time>
      </trkpt>
      <trkpt lat="42.43589" lon="2.67291">
        <ele>609</ele>
        <time>2024-09-20T13:23:58Z</time>
      </trkpt>
      <trkpt lat="42.43586" lon="2.6729">
        <ele>607</ele>
        <time>2024-09-20T13:24:00Z</time>
      </trkpt>
      <trkpt lat="42.43583" lon="2.6729">
        <ele>607</ele>
        <time>2024-09-20T13:24:03Z</time>
      </trkpt>
      <trkpt lat="42.4358" lon="2.67288">
        <ele>610</ele>
        <time>2024-09-20T13:24:16Z</time>
      </trkpt>
      <trkpt lat="42.43577" lon="2.67285">
        <ele>609</ele>
        <time>2024-09-20T13:24:19Z</time>
      </trkpt>
      <trkpt lat="42.43574" lon="2.67283">
        <ele>609</ele>
        <time>2024-09-20T13:24:22Z</time>
      </trkpt>
      <trkpt lat="42.43571" lon="2.6728">
        <ele>610</ele>
        <time>2024-09-20T13:24:26Z</time>
      </trkpt>
      <trkpt lat="42.43568" lon="2.6728">
        <ele>608</ele>
        <time>2024-09-20T13:24:59Z</time>
      </trkpt>
      <trkpt lat="42.43568" lon="2.67277">
        <ele>607</ele>
        <time>2024-09-20T13:25:13Z</time>
      </trkpt>
      <trkpt lat="42.43567" lon="2.67282">
        <ele>607</ele>
        <time>2024-09-20T13:25:34Z</time>
      </trkpt>
      <trkpt lat="42.43567" lon="2.67283">
        <ele>607</ele>
        <time>2024-09-20T13:25:35Z</time>
      </trkpt>
      <trkpt lat="42.43567" lon="2.67279">
        <ele>607</ele>
        <time>2024-09-20T13:25:36Z</time>
      </trkpt>
      <trkpt lat="42.43567" lon="2.6728">
        <ele>607</ele>
        <time>2024-09-20T13:25:49Z</time>
      </trkpt>
      <trkpt lat="42.43568" lon="2.67283">
        <ele>607</ele>
        <time>2024-09-20T13:25:51Z</time>
      </trkpt>
      <trkpt lat="42.43567" lon="2.67283">
        <ele>607</ele>
        <time>2024-09-20T13:25:53Z</time>
      </trkpt>
      <trkpt lat="42.43567" lon="2.67281">
        <ele>607</ele>
        <time>2024-09-20T13:25:57Z</time>
      </trkpt>
      <trkpt lat="42.43567" lon="2.67283">
        <ele>607</ele>
        <time>2024-09-20T13:26:08Z</time>
      </trkpt>
      <trkpt lat="42.43567" lon="2.67281">
        <ele>607</ele>
        <time>2024-09-20T13:26:14Z</time>
      </trkpt>
      <trkpt lat="42.43567" lon="2.67283">
        <ele>607</ele>
        <time>2024-09-20T13:26:21Z</time>
      </trkpt>
      <trkpt lat="42.43565" lon="2.67282">
        <ele>607</ele>
        <time>2024-09-20T13:26:40Z</time>
      </trkpt>
      <trkpt lat="42.43566" lon="2.6728">
        <ele>607</ele>
        <time>2024-09-20T13:26:41Z</time>
      </trkpt>
      <trkpt lat="42.43567" lon="2.6728">
        <ele>607</ele>
        <time>2024-09-20T13:26:42Z</time>
      </trkpt>
      <trkpt lat="42.43569" lon="2.67278">
        <ele>607</ele>
        <time>2024-09-20T13:26:52Z</time>
      </trkpt>
      <trkpt lat="42.43567" lon="2.67276">
        <ele>606</ele>
        <time>2024-09-20T13:27:00Z</time>
      </trkpt>
      <trkpt lat="42.43567" lon="2.67275">
        <ele>606</ele>
        <time>2024-09-20T13:27:02Z</time>
      </trkpt>
      <trkpt lat="42.43566" lon="2.67278">
        <ele>607</ele>
        <time>2024-09-20T13:27:03Z</time>
      </trkpt>
      <trkpt lat="42.43565" lon="2.67281">
        <ele>606</ele>
        <time>2024-09-20T13:27:28Z</time>
      </trkpt>
      <trkpt lat="42.43567" lon="2.67281">
        <ele>606</ele>
        <time>2024-09-20T13:27:30Z</time>
      </trkpt>
      <trkpt lat="42.4357" lon="2.67282">
        <ele>606</ele>
        <time>2024-09-20T13:28:07Z</time>
      </trkpt>
      <trkpt lat="42.43569" lon="2.67282">
        <ele>606</ele>
        <time>2024-09-20T13:28:09Z</time>
      </trkpt>
      <trkpt lat="42.43569" lon="2.67279">
        <ele>606</ele>
        <time>2024-09-20T13:28:13Z</time>
      </trkpt>
      <trkpt lat="42.43569" lon="2.6728">
        <ele>606</ele>
        <time>2024-09-20T13:28:14Z</time>
      </trkpt>
      <trkpt lat="42.43569" lon="2.6728">
        <ele>607</ele>
        <time>2024-09-20T13:28:15Z</time>
      </trkpt>
      <trkpt lat="42.43568" lon="2.67279">
        <ele>607</ele>
        <time>2024-09-20T13:28:23Z</time>
      </trkpt>
      <trkpt lat="42.43565" lon="2.67277">
        <ele>606</ele>
        <time>2024-09-20T13:28:44Z</time>
      </trkpt>
      <trkpt lat="42.43562" lon="2.67276">
        <ele>606</ele>
        <time>2024-09-20T13:28:46Z</time>
      </trkpt>
      <trkpt lat="42.43558" lon="2.67271">
        <ele>607</ele>
        <time>2024-09-20T13:28:47Z</time>
      </trkpt>
      <trkpt lat="42.4356" lon="2.67269">
        <ele>606</ele>
        <time>2024-09-20T13:28:48Z</time>
      </trkpt>
      <trkpt lat="42.43567" lon="2.67264">
        <ele>607</ele>
        <time>2024-09-20T13:28:49Z</time>
      </trkpt>
      <trkpt lat="42.43567" lon="2.67263">
        <ele>607</ele>
        <time>2024-09-20T13:28:51Z</time>
      </trkpt>
      <trkpt lat="42.43564" lon="2.67261">
        <ele>607</ele>
        <time>2024-09-20T13:28:53Z</time>
      </trkpt>
      <trkpt lat="42.4356" lon="2.6726">
        <ele>607</ele>
        <time>2024-09-20T13:28:54Z</time>
      </trkpt>
      <trkpt lat="42.43561" lon="2.67259">
        <ele>609</ele>
        <time>2024-09-20T13:29:08Z</time>
      </trkpt>
      <trkpt lat="42.4356" lon="2.67261">
        <ele>609</ele>
        <time>2024-09-20T13:29:10Z</time>
      </trkpt>
      <trkpt lat="42.4356" lon="2.67261">
        <ele>609</ele>
        <time>2024-09-20T13:29:11Z</time>
      </trkpt>
      <trkpt lat="42.43559" lon="2.6726">
        <ele>609</ele>
        <time>2024-09-20T13:29:14Z</time>
      </trkpt>
      <trkpt lat="42.43558" lon="2.67264">
        <ele>609</ele>
        <time>2024-09-20T13:29:15Z</time>
      </trkpt>
      <trkpt lat="42.43558" lon="2.67269">
        <ele>609</ele>
        <time>2024-09-20T13:29:28Z</time>
      </trkpt>
      <trkpt lat="42.43559" lon="2.67276">
        <ele>609</ele>
        <time>2024-09-20T13:29:34Z</time>
      </trkpt>
      <trkpt lat="42.43561" lon="2.67278">
        <ele>606</ele>
        <time>2024-09-20T13:30:04Z</time>
      </trkpt>
      <trkpt lat="42.43564" lon="2.67274">
        <ele>607</ele>
        <time>2024-09-20T13:30:05Z</time>
      </trkpt>
      <trkpt lat="42.43561" lon="2.67268">
        <ele>608</ele>
        <time>2024-09-20T13:30:06Z</time>
      </trkpt>
      <trkpt lat="42.43559" lon="2.67268">
        <ele>608</ele>
        <time>2024-09-20T13:30:07Z</time>
      </trkpt>
      <trkpt lat="42.43558" lon="2.67267">
        <ele>607</ele>
        <time>2024-09-20T13:30:09Z</time>
      </trkpt>
      <trkpt lat="42.43567" lon="2.67266">
        <ele>607</ele>
        <time>2024-09-20T13:30:10Z</time>
      </trkpt>
      <trkpt lat="42.43573" lon="2.67266">
        <ele>608</ele>
        <time>2024-09-20T13:30:11Z</time>
      </trkpt>
      <trkpt lat="42.43569" lon="2.67261">
        <ele>609</ele>
        <time>2024-09-20T13:30:15Z</time>
      </trkpt>
      <trkpt lat="42.43567" lon="2.67262">
        <ele>609</ele>
        <time>2024-09-20T13:30:18Z</time>
      </trkpt>
      <trkpt lat="42.43568" lon="2.6726">
        <ele>610</ele>
        <time>2024-09-20T13:30:23Z</time>
      </trkpt>
      <trkpt lat="42.43571" lon="2.67262">
        <ele>610</ele>
        <time>2024-09-20T13:30:34Z</time>
      </trkpt>
      <trkpt lat="42.43569" lon="2.67263">
        <ele>611</ele>
        <time>2024-09-20T13:30:37Z</time>
      </trkpt>
      <trkpt lat="42.43568" lon="2.67266">
        <ele>611</ele>
        <time>2024-09-20T13:30:43Z</time>
      </trkpt>
      <trkpt lat="42.43565" lon="2.67267">
        <ele>610</ele>
        <time>2024-09-20T13:30:47Z</time>
      </trkpt>
      <trkpt lat="42.43562" lon="2.67269">
        <ele>610</ele>
        <time>2024-09-20T13:30:52Z</time>
      </trkpt>
      <trkpt lat="42.43562" lon="2.67268">
        <ele>610</ele>
        <time>2024-09-20T13:31:02Z</time>
      </trkpt>
      <trkpt lat="42.43561" lon="2.67265">
        <ele>610</ele>
        <time>2024-09-20T13:31:03Z</time>
      </trkpt>
      <trkpt lat="42.43563" lon="2.67265">
        <ele>611</ele>
        <time>2024-09-20T13:31:07Z</time>
      </trkpt>
      <trkpt lat="42.43566" lon="2.67266">
        <ele>611</ele>
        <time>2024-09-20T13:31:11Z</time>
      </trkpt>
      <trkpt lat="42.43565" lon="2.67268">
        <ele>610</ele>
        <time>2024-09-20T13:31:17Z</time>
      </trkpt>
      <trkpt lat="42.43563" lon="2.67269">
        <ele>610</ele>
        <time>2024-09-20T13:31:20Z</time>
      </trkpt>
      <trkpt lat="42.4356" lon="2.6727">
        <ele>609</ele>
        <time>2024-09-20T13:31:26Z</time>
      </trkpt>
      <trkpt lat="42.43556" lon="2.67269">
        <ele>609</ele>
        <time>2024-09-20T13:31:30Z</time>
      </trkpt>
      <trkpt lat="42.43553" lon="2.67267">
        <ele>609</ele>
        <time>2024-09-20T13:31:34Z</time>
      </trkpt>
      <trkpt lat="42.43554" lon="2.67268">
        <ele>609</ele>
        <time>2024-09-20T13:31:38Z</time>
      </trkpt>
      <trkpt lat="42.43555" lon="2.67268">
        <ele>609</ele>
        <time>2024-09-20T13:31:40Z</time>
      </trkpt>
      <trkpt lat="42.43554" lon="2.67269">
        <ele>608</ele>
        <time>2024-09-20T13:31:43Z</time>
      </trkpt>
      <trkpt lat="42.43555" lon="2.67267">
        <ele>608</ele>
        <time>2024-09-20T13:32:06Z</time>
      </trkpt>
      <trkpt lat="42.43553" lon="2.67267">
        <ele>608</ele>
        <time>2024-09-20T13:32:20Z</time>
      </trkpt>
      <trkpt lat="42.43555" lon="2.67269">
        <ele>608</ele>
        <time>2024-09-20T13:32:29Z</time>
      </trkpt>
      <trkpt lat="42.43553" lon="2.6727">
        <ele>608</ele>
        <time>2024-09-20T13:32:33Z</time>
      </trkpt>
      <trkpt lat="42.43551" lon="2.67268">
        <ele>608</ele>
        <time>2024-09-20T13:32:41Z</time>
      </trkpt>
      <trkpt lat="42.43552" lon="2.67267">
        <ele>607</ele>
        <time>2024-09-20T13:32:46Z</time>
      </trkpt>
      <trkpt lat="42.43554" lon="2.67266">
        <ele>608</ele>
        <time>2024-09-20T13:32:51Z</time>
      </trkpt>
      <trkpt lat="42.43557" lon="2.67266">
        <ele>608</ele>
        <time>2024-09-20T13:32:57Z</time>
      </trkpt>
      <trkpt lat="42.43559" lon="2.67264">
        <ele>608</ele>
        <time>2024-09-20T13:33:05Z</time>
      </trkpt>
      <trkpt lat="42.43558" lon="2.67265">
        <ele>608</ele>
        <time>2024-09-20T13:33:07Z</time>
      </trkpt>
      <trkpt lat="42.43556" lon="2.67265">
        <ele>608</ele>
        <time>2024-09-20T13:33:09Z</time>
      </trkpt>
      <trkpt lat="42.43557" lon="2.67263">
        <ele>609</ele>
        <time>2024-09-20T13:33:14Z</time>
      </trkpt>
      <trkpt lat="42.4356" lon="2.6726">
        <ele>609</ele>
        <time>2024-09-20T13:33:17Z</time>
      </trkpt>
      <trkpt lat="42.43561" lon="2.67259">
        <ele>609</ele>
        <time>2024-09-20T13:33:18Z</time>
      </trkpt>
      <trkpt lat="42.4356" lon="2.67261">
        <ele>609</ele>
        <time>2024-09-20T13:33:19Z</time>
      </trkpt>
      <trkpt lat="42.43558" lon="2.67263">
        <ele>609</ele>
        <time>2024-09-20T13:33:23Z</time>
      </trkpt>
      <trkpt lat="42.43556" lon="2.67265">
        <ele>609</ele>
        <time>2024-09-20T13:33:26Z</time>
      </trkpt>
      <trkpt lat="42.43553" lon="2.67265">
        <ele>609</ele>
        <time>2024-09-20T13:33:35Z</time>
      </trkpt>
      <trkpt lat="42.43551" lon="2.67267">
        <ele>609</ele>
        <time>2024-09-20T13:33:44Z</time>
      </trkpt>
      <trkpt lat="42.43552" lon="2.67266">
        <ele>609</ele>
        <time>2024-09-20T13:33:59Z</time>
      </trkpt>
      <trkpt lat="42.43551" lon="2.67264">
        <ele>608</ele>
        <time>2024-09-20T13:34:23Z</time>
      </trkpt>
      <trkpt lat="42.43553" lon="2.67265">
        <ele>608</ele>
        <time>2024-09-20T13:34:33Z</time>
      </trkpt>
      <trkpt lat="42.43555" lon="2.67267">
        <ele>608</ele>
        <time>2024-09-20T13:34:45Z</time>
      </trkpt>
      <trkpt lat="42.43558" lon="2.67268">
        <ele>605</ele>
        <time>2024-09-20T13:35:03Z</time>
      </trkpt>
      <trkpt lat="42.43561" lon="2.67267">
        <ele>609</ele>
        <time>2024-09-20T13:35:58Z</time>
      </trkpt>
      <trkpt lat="42.43561" lon="2.67267">
        <ele>609</ele>
        <time>2024-09-20T13:36:04Z</time>
      </trkpt>
      <trkpt lat="42.43559" lon="2.67268">
        <ele>608</ele>
        <time>2024-09-20T13:36:07Z</time>
      </trkpt>
      <trkpt lat="42.43559" lon="2.67266">
        <ele>608</ele>
        <time>2024-09-20T13:36:09Z</time>
      </trkpt>
      <trkpt lat="42.43558" lon="2.67264">
        <ele>609</ele>
        <time>2024-09-20T13:36:10Z</time>
      </trkpt>
      <trkpt lat="42.43558" lon="2.67263">
        <ele>609</ele>
        <time>2024-09-20T13:36:10Z</time>
      </trkpt>
      <trkpt lat="42.43576" lon="2.67281">
        <ele>604</ele>
        <time>2024-09-21T06:13:11Z</time>
      </trkpt>
      <trkpt lat="42.43591" lon="2.67281">
        <ele>610</ele>
        <time>2024-09-21T06:19:13Z</time>
      </trkpt>
      <trkpt lat="42.43597" lon="2.67289">
        <ele>609</ele>
        <time>2024-09-21T06:19:14Z</time>
      </trkpt>
      <trkpt lat="42.43599" lon="2.67297">
        <ele>607</ele>
        <time>2024-09-21T06:19:15Z</time>
      </trkpt>
      <trkpt lat="42.436" lon="2.67303">
        <ele>607</ele>
        <time>2024-09-21T06:19:20Z</time>
      </trkpt>
      <trkpt lat="42.43598" lon="2.67306">
        <ele>607</ele>
        <time>2024-09-21T06:19:23Z</time>
      </trkpt>
      <trkpt lat="42.43597" lon="2.6731">
        <ele>607</ele>
        <time>2024-09-21T06:19:26Z</time>
      </trkpt>
      <trkpt lat="42.43596" lon="2.67315">
        <ele>607</ele>
        <time>2024-09-21T06:19:29Z</time>
      </trkpt>
      <trkpt lat="42.43597" lon="2.67319">
        <ele>608</ele>
        <time>2024-09-21T06:19:31Z</time>
      </trkpt>
      <trkpt lat="42.43597" lon="2.67324">
        <ele>609</ele>
        <time>2024-09-21T06:19:34Z</time>
      </trkpt>
      <trkpt lat="42.43597" lon="2.67329">
        <ele>609</ele>
        <time>2024-09-21T06:19:37Z</time>
      </trkpt>
      <trkpt lat="42.43597" lon="2.67333">
        <ele>608</ele>
        <time>2024-09-21T06:19:39Z</time>
      </trkpt>
      <trkpt lat="42.43596" lon="2.67338">
        <ele>607</ele>
        <time>2024-09-21T06:19:42Z</time>
      </trkpt>
      <trkpt lat="42.43594" lon="2.67341">
        <ele>607</ele>
        <time>2024-09-21T06:19:44Z</time>
      </trkpt>
      <trkpt lat="42.43593" lon="2.67346">
        <ele>607</ele>
        <time>2024-09-21T06:19:47Z</time>
      </trkpt>
      <trkpt lat="42.43593" lon="2.6735">
        <ele>608</ele>
        <time>2024-09-21T06:19:49Z</time>
      </trkpt>
      <trkpt lat="42.43595" lon="2.67354">
        <ele>608</ele>
        <time>2024-09-21T06:19:52Z</time>
      </trkpt>
      <trkpt lat="42.43598" lon="2.67355">
        <ele>609</ele>
        <time>2024-09-21T06:19:55Z</time>
      </trkpt>
      <trkpt lat="42.436" lon="2.67356">
        <ele>609</ele>
        <time>2024-09-21T06:19:58Z</time>
      </trkpt>
      <trkpt lat="42.43599" lon="2.67357">
        <ele>613</ele>
        <time>2024-09-21T06:20:05Z</time>
      </trkpt>
      <trkpt lat="42.43597" lon="2.67357">
        <ele>613</ele>
        <time>2024-09-21T06:20:08Z</time>
      </trkpt>
      <trkpt lat="42.43594" lon="2.67356">
        <ele>614</ele>
        <time>2024-09-21T06:20:12Z</time>
      </trkpt>
      <trkpt lat="42.43591" lon="2.67355">
        <ele>614</ele>
        <time>2024-09-21T06:20:16Z</time>
      </trkpt>
      <trkpt lat="42.43587" lon="2.67354">
        <ele>614</ele>
        <time>2024-09-21T06:20:21Z</time>
      </trkpt>
      <trkpt lat="42.43584" lon="2.67353">
        <ele>615</ele>
        <time>2024-09-21T06:20:25Z</time>
      </trkpt>
      <trkpt lat="42.43581" lon="2.67352">
        <ele>615</ele>
        <time>2024-09-21T06:20:28Z</time>
      </trkpt>
      <trkpt lat="42.43577" lon="2.67352">
        <ele>615</ele>
        <time>2024-09-21T06:20:31Z</time>
      </trkpt>
      <trkpt lat="42.43574" lon="2.67353">
        <ele>615</ele>
        <time>2024-09-21T06:20:34Z</time>
      </trkpt>
      <trkpt lat="42.4357" lon="2.67352">
        <ele>617</ele>
        <time>2024-09-21T06:20:39Z</time>
      </trkpt>
      <trkpt lat="42.43567" lon="2.67351">
        <ele>618</ele>
        <time>2024-09-21T06:20:44Z</time>
      </trkpt>
      <trkpt lat="42.43565" lon="2.67349">
        <ele>618</ele>
        <time>2024-09-21T06:20:47Z</time>
      </trkpt>
      <trkpt lat="42.43562" lon="2.67347">
        <ele>619</ele>
        <time>2024-09-21T06:20:50Z</time>
      </trkpt>
      <trkpt lat="42.4356" lon="2.67345">
        <ele>617</ele>
        <time>2024-09-21T06:20:52Z</time>
      </trkpt>
      <trkpt lat="42.43557" lon="2.67343">
        <ele>618</ele>
        <time>2024-09-21T06:20:57Z</time>
      </trkpt>
      <trkpt lat="42.43554" lon="2.67343">
        <ele>619</ele>
        <time>2024-09-21T06:21:04Z</time>
      </trkpt>
      <trkpt lat="42.43553" lon="2.67346">
        <ele>618</ele>
        <time>2024-09-21T06:21:09Z</time>
      </trkpt>
      <trkpt lat="42.43552" lon="2.67349">
        <ele>619</ele>
        <time>2024-09-21T06:21:15Z</time>
      </trkpt>
      <trkpt lat="42.43551" lon="2.67353">
        <ele>622</ele>
        <time>2024-09-21T06:21:30Z</time>
      </trkpt>
      <trkpt lat="42.43551" lon="2.67356">
        <ele>623</ele>
        <time>2024-09-21T06:21:39Z</time>
      </trkpt>
      <trkpt lat="42.43553" lon="2.6736">
        <ele>624</ele>
        <time>2024-09-21T06:21:45Z</time>
      </trkpt>
      <trkpt lat="42.43555" lon="2.67362">
        <ele>623</ele>
        <time>2024-09-21T06:21:49Z</time>
      </trkpt>
      <trkpt lat="42.43557" lon="2.67365">
        <ele>623</ele>
        <time>2024-09-21T06:21:54Z</time>
      </trkpt>
      <trkpt lat="42.43557" lon="2.67369">
        <ele>625</ele>
        <time>2024-09-21T06:22:03Z</time>
      </trkpt>
      <trkpt lat="42.43555" lon="2.67369">
        <ele>626</ele>
        <time>2024-09-21T06:22:11Z</time>
      </trkpt>
      <trkpt lat="42.43552" lon="2.67369">
        <ele>625</ele>
        <time>2024-09-21T06:22:17Z</time>
      </trkpt>
      <trkpt lat="42.43551" lon="2.67372">
        <ele>625</ele>
        <time>2024-09-21T06:22:24Z</time>
      </trkpt>
      <trkpt lat="42.43551" lon="2.67374">
        <ele>625</ele>
        <time>2024-09-21T06:22:33Z</time>
      </trkpt>
      <trkpt lat="42.43553" lon="2.67376">
        <ele>624</ele>
        <time>2024-09-21T06:22:38Z</time>
      </trkpt>
      <trkpt lat="42.43556" lon="2.67378">
        <ele>625</ele>
        <time>2024-09-21T06:22:40Z</time>
      </trkpt>
      <trkpt lat="42.43555" lon="2.67379">
        <ele>628</ele>
        <time>2024-09-21T06:22:48Z</time>
      </trkpt>
      <trkpt lat="42.43555" lon="2.67381">
        <ele>632</ele>
        <time>2024-09-21T06:22:56Z</time>
      </trkpt>
      <trkpt lat="42.43555" lon="2.67385">
        <ele>633</ele>
        <time>2024-09-21T06:23:02Z</time>
      </trkpt>
      <trkpt lat="42.43556" lon="2.67389">
        <ele>635</ele>
        <time>2024-09-21T06:23:09Z</time>
      </trkpt>
      <trkpt lat="42.43556" lon="2.67386">
        <ele>638</ele>
        <time>2024-09-21T06:23:32Z</time>
      </trkpt>
      <trkpt lat="42.43558" lon="2.67387">
        <ele>640</ele>
        <time>2024-09-21T06:23:42Z</time>
      </trkpt>
      <trkpt lat="42.4356" lon="2.67389">
        <ele>640</ele>
        <time>2024-09-21T06:23:47Z</time>
      </trkpt>
      <trkpt lat="42.43562" lon="2.67392">
        <ele>640</ele>
        <time>2024-09-21T06:23:52Z</time>
      </trkpt>
      <trkpt lat="42.43564" lon="2.67395">
        <ele>641</ele>
        <time>2024-09-21T06:23:56Z</time>
      </trkpt>
      <trkpt lat="42.43566" lon="2.67399">
        <ele>641</ele>
        <time>2024-09-21T06:24:00Z</time>
      </trkpt>
      <trkpt lat="42.43568" lon="2.67403">
        <ele>643</ele>
        <time>2024-09-21T06:24:05Z</time>
      </trkpt>
      <trkpt lat="42.4357" lon="2.67405">
        <ele>642</ele>
        <time>2024-09-21T06:24:13Z</time>
      </trkpt>
      <trkpt lat="42.43573" lon="2.67407">
        <ele>643</ele>
        <time>2024-09-21T06:24:17Z</time>
      </trkpt>
      <trkpt lat="42.43576" lon="2.67408">
        <ele>644</ele>
        <time>2024-09-21T06:24:21Z</time>
      </trkpt>
      <trkpt lat="42.43579" lon="2.67409">
        <ele>646</ele>
        <time>2024-09-21T06:24:24Z</time>
      </trkpt>
      <trkpt lat="42.43582" lon="2.6741">
        <ele>646</ele>
        <time>2024-09-21T06:24:29Z</time>
      </trkpt>
      <trkpt lat="42.43585" lon="2.67413">
        <ele>645</ele>
        <time>2024-09-21T06:24:32Z</time>
      </trkpt>
      <trkpt lat="42.43588" lon="2.67415">
        <ele>645</ele>
        <time>2024-09-21T06:24:35Z</time>
      </trkpt>
      <trkpt lat="42.43591" lon="2.67416">
        <ele>646</ele>
        <time>2024-09-21T06:24:42Z</time>
      </trkpt>
      <trkpt lat="42.43594" lon="2.67417">
        <ele>645</ele>
        <time>2024-09-21T06:24:49Z</time>
      </trkpt>
      <trkpt lat="42.43597" lon="2.67418">
        <ele>646</ele>
        <time>2024-09-21T06:24:54Z</time>
      </trkpt>
      <trkpt lat="42.436" lon="2.67418">
        <ele>646</ele>
        <time>2024-09-21T06:24:58Z</time>
      </trkpt>
      <trkpt lat="42.43603" lon="2.67416">
        <ele>646</ele>
        <time>2024-09-21T06:25:01Z</time>
      </trkpt>
      <trkpt lat="42.43605" lon="2.67415">
        <ele>645</ele>
        <time>2024-09-21T06:25:07Z</time>
      </trkpt>
      <trkpt lat="42.43608" lon="2.67415">
        <ele>644</ele>
        <time>2024-09-21T06:25:10Z</time>
      </trkpt>
      <trkpt lat="42.43611" lon="2.67413">
        <ele>643</ele>
        <time>2024-09-21T06:25:14Z</time>
      </trkpt>
      <trkpt lat="42.43613" lon="2.67412">
        <ele>642</ele>
        <time>2024-09-21T06:25:19Z</time>
      </trkpt>
      <trkpt lat="42.43616" lon="2.67411">
        <ele>642</ele>
        <time>2024-09-21T06:25:22Z</time>
      </trkpt>
      <trkpt lat="42.4362" lon="2.67412">
        <ele>642</ele>
        <time>2024-09-21T06:25:26Z</time>
      </trkpt>
      <trkpt lat="42.43624" lon="2.67412">
        <ele>643</ele>
        <time>2024-09-21T06:25:29Z</time>
      </trkpt>
      <trkpt lat="42.43627" lon="2.67415">
        <ele>642</ele>
        <time>2024-09-21T06:25:37Z</time>
      </trkpt>
      <trkpt lat="42.43629" lon="2.67416">
        <ele>643</ele>
        <time>2024-09-21T06:25:40Z</time>
      </trkpt>
      <trkpt lat="42.43632" lon="2.67417">
        <ele>644</ele>
        <time>2024-09-21T06:25:44Z</time>
      </trkpt>
      <trkpt lat="42.43635" lon="2.67419">
        <ele>646</ele>
        <time>2024-09-21T06:25:50Z</time>
      </trkpt>
      <trkpt lat="42.43637" lon="2.67421">
        <ele>647</ele>
        <time>2024-09-21T06:25:54Z</time>
      </trkpt>
      <trkpt lat="42.43639" lon="2.67423">
        <ele>647</ele>
        <time>2024-09-21T06:26:00Z</time>
      </trkpt>
      <trkpt lat="42.43642" lon="2.67425">
        <ele>647</ele>
        <time>2024-09-21T06:26:03Z</time>
      </trkpt>
      <trkpt lat="42.43644" lon="2.67428">
        <ele>648</ele>
        <time>2024-09-21T06:26:06Z</time>
      </trkpt>
      <trkpt lat="42.43646" lon="2.67431">
        <ele>648</ele>
        <time>2024-09-21T06:26:09Z</time>
      </trkpt>
      <trkpt lat="42.43648" lon="2.67435">
        <ele>649</ele>
        <time>2024-09-21T06:26:12Z</time>
      </trkpt>
      <trkpt lat="42.4365" lon="2.67438">
        <ele>650</ele>
        <time>2024-09-21T06:26:15Z</time>
      </trkpt>
      <trkpt lat="42.43651" lon="2.67442">
        <ele>650</ele>
        <time>2024-09-21T06:26:19Z</time>
      </trkpt>
      <trkpt lat="42.43652" lon="2.67447">
        <ele>651</ele>
        <time>2024-09-21T06:26:24Z</time>
      </trkpt>
      <trkpt lat="42.43653" lon="2.67451">
        <ele>653</ele>
        <time>2024-09-21T06:26:28Z</time>
      </trkpt>
      <trkpt lat="42.43653" lon="2.67455">
        <ele>653</ele>
        <time>2024-09-21T06:26:35Z</time>
      </trkpt>
      <trkpt lat="42.43652" lon="2.67459">
        <ele>656</ele>
        <time>2024-09-21T06:26:40Z</time>
      </trkpt>
      <trkpt lat="42.43652" lon="2.67463">
        <ele>657</ele>
        <time>2024-09-21T06:26:45Z</time>
      </trkpt>
      <trkpt lat="42.43651" lon="2.67467">
        <ele>658</ele>
        <time>2024-09-21T06:26:49Z</time>
      </trkpt>
      <trkpt lat="42.43652" lon="2.6747">
        <ele>658</ele>
        <time>2024-09-21T06:26:56Z</time>
      </trkpt>
      <trkpt lat="42.43654" lon="2.67473">
        <ele>658</ele>
        <time>2024-09-21T06:26:59Z</time>
      </trkpt>
      <trkpt lat="42.43657" lon="2.67474">
        <ele>658</ele>
        <time>2024-09-21T06:27:02Z</time>
      </trkpt>
      <trkpt lat="42.43659" lon="2.67472">
        <ele>658</ele>
        <time>2024-09-21T06:27:07Z</time>
      </trkpt>
      <trkpt lat="42.43662" lon="2.67471">
        <ele>657</ele>
        <time>2024-09-21T06:27:10Z</time>
      </trkpt>
      <trkpt lat="42.43665" lon="2.6747">
        <ele>657</ele>
        <time>2024-09-21T06:27:15Z</time>
      </trkpt>
      <trkpt lat="42.43669" lon="2.67469">
        <ele>657</ele>
        <time>2024-09-21T06:27:21Z</time>
      </trkpt>
      <trkpt lat="42.43673" lon="2.67469">
        <ele>658</ele>
        <time>2024-09-21T06:27:32Z</time>
      </trkpt>
      <trkpt lat="42.43676" lon="2.67469">
        <ele>659</ele>
        <time>2024-09-21T06:27:36Z</time>
      </trkpt>
      <trkpt lat="42.43679" lon="2.67469">
        <ele>659</ele>
        <time>2024-09-21T06:27:41Z</time>
      </trkpt>
      <trkpt lat="42.43682" lon="2.6747">
        <ele>660</ele>
        <time>2024-09-21T06:27:47Z</time>
      </trkpt>
      <trkpt lat="42.43685" lon="2.67471">
        <ele>661</ele>
        <time>2024-09-21T06:27:50Z</time>
      </trkpt>
      <trkpt lat="42.43688" lon="2.67472">
        <ele>662</ele>
        <time>2024-09-21T06:27:54Z</time>
      </trkpt>
      <trkpt lat="42.43691" lon="2.67472">
        <ele>663</ele>
        <time>2024-09-21T06:28:02Z</time>
      </trkpt>
      <trkpt lat="42.43695" lon="2.67472">
        <ele>664</ele>
        <time>2024-09-21T06:28:08Z</time>
      </trkpt>
      <trkpt lat="42.43698" lon="2.67471">
        <ele>665</ele>
        <time>2024-09-21T06:28:14Z</time>
      </trkpt>
      <trkpt lat="42.43701" lon="2.67469">
        <ele>665</ele>
        <time>2024-09-21T06:28:20Z</time>
      </trkpt>
      <trkpt lat="42.43704" lon="2.67469">
        <ele>666</ele>
        <time>2024-09-21T06:28:25Z</time>
      </trkpt>
      <trkpt lat="42.43707" lon="2.6747">
        <ele>666</ele>
        <time>2024-09-21T06:28:32Z</time>
      </trkpt>
      <trkpt lat="42.4371" lon="2.67471">
        <ele>667</ele>
        <time>2024-09-21T06:28:35Z</time>
      </trkpt>
      <trkpt lat="42.43713" lon="2.67469">
        <ele>667</ele>
        <time>2024-09-21T06:28:40Z</time>
      </trkpt>
      <trkpt lat="42.43715" lon="2.67469">
        <ele>668</ele>
        <time>2024-09-21T06:28:46Z</time>
      </trkpt>
      <trkpt lat="42.43718" lon="2.6747">
        <ele>668</ele>
        <time>2024-09-21T06:28:53Z</time>
      </trkpt>
      <trkpt lat="42.43719" lon="2.67472">
        <ele>670</ele>
        <time>2024-09-21T06:28:59Z</time>
      </trkpt>
      <trkpt lat="42.43721" lon="2.67475">
        <ele>670</ele>
        <time>2024-09-21T06:29:08Z</time>
      </trkpt>
      <trkpt lat="42.43723" lon="2.67474">
        <ele>669</ele>
        <time>2024-09-21T06:29:12Z</time>
      </trkpt>
      <trkpt lat="42.43725" lon="2.67472">
        <ele>670</ele>
        <time>2024-09-21T06:29:21Z</time>
      </trkpt>
      <trkpt lat="42.43725" lon="2.67475">
        <ele>669</ele>
        <time>2024-09-21T06:30:08Z</time>
      </trkpt>
      <trkpt lat="42.43725" lon="2.67473">
        <ele>669</ele>
        <time>2024-09-21T06:30:12Z</time>
      </trkpt>
      <trkpt lat="42.43728" lon="2.67473">
        <ele>670</ele>
        <time>2024-09-21T06:30:33Z</time>
      </trkpt>
      <trkpt lat="42.4373" lon="2.67471">
        <ele>671</ele>
        <time>2024-09-21T06:30:36Z</time>
      </trkpt>
      <trkpt lat="42.43732" lon="2.67473">
        <ele>671</ele>
        <time>2024-09-21T06:30:41Z</time>
      </trkpt>
      <trkpt lat="42.43732" lon="2.67476">
        <ele>671</ele>
        <time>2024-09-21T06:30:43Z</time>
      </trkpt>
      <trkpt lat="42.43731" lon="2.6748">
        <ele>670</ele>
        <time>2024-09-21T06:30:46Z</time>
      </trkpt>
      <trkpt lat="42.43729" lon="2.67483">
        <ele>670</ele>
        <time>2024-09-21T06:30:50Z</time>
      </trkpt>
      <trkpt lat="42.43726" lon="2.67484">
        <ele>671</ele>
        <time>2024-09-21T06:30:53Z</time>
      </trkpt>
      <trkpt lat="42.43725" lon="2.67486">
        <ele>672</ele>
        <time>2024-09-21T06:30:56Z</time>
      </trkpt>
      <trkpt lat="42.43724" lon="2.6749">
        <ele>673</ele>
        <time>2024-09-21T06:30:59Z</time>
      </trkpt>
      <trkpt lat="42.43722" lon="2.67494">
        <ele>672</ele>
        <time>2024-09-21T06:31:02Z</time>
      </trkpt>
      <trkpt lat="42.43721" lon="2.67499">
        <ele>673</ele>
        <time>2024-09-21T06:31:05Z</time>
      </trkpt>
      <trkpt lat="42.43721" lon="2.67503">
        <ele>674</ele>
        <time>2024-09-21T06:31:09Z</time>
      </trkpt>
      <trkpt lat="42.4372" lon="2.67509">
        <ele>673</ele>
        <time>2024-09-21T06:31:12Z</time>
      </trkpt>
      <trkpt lat="42.43719" lon="2.67514">
        <ele>675</ele>
        <time>2024-09-21T06:31:15Z</time>
      </trkpt>
      <trkpt lat="42.43718" lon="2.67518">
        <ele>676</ele>
        <time>2024-09-21T06:31:18Z</time>
      </trkpt>
      <trkpt lat="42.43716" lon="2.67521">
        <ele>675</ele>
        <time>2024-09-21T06:31:21Z</time>
      </trkpt>
      <trkpt lat="42.43714" lon="2.67525">
        <ele>677</ele>
        <time>2024-09-21T06:31:25Z</time>
      </trkpt>
      <trkpt lat="42.43712" lon="2.67529">
        <ele>677</ele>
        <time>2024-09-21T06:31:28Z</time>
      </trkpt>
      <trkpt lat="42.4371" lon="2.67532">
        <ele>679</ele>
        <time>2024-09-21T06:31:31Z</time>
      </trkpt>
      <trkpt lat="42.43708" lon="2.67535">
        <ele>679</ele>
        <time>2024-09-21T06:31:34Z</time>
      </trkpt>
      <trkpt lat="42.43708" lon="2.67538">
        <ele>680</ele>
        <time>2024-09-21T06:31:36Z</time>
      </trkpt>
      <trkpt lat="42.43708" lon="2.67542">
        <ele>680</ele>
        <time>2024-09-21T06:31:39Z</time>
      </trkpt>
      <trkpt lat="42.43709" lon="2.67546">
        <ele>680</ele>
        <time>2024-09-21T06:31:42Z</time>
      </trkpt>
      <trkpt lat="42.4371" lon="2.6755">
        <ele>680</ele>
        <time>2024-09-21T06:31:45Z</time>
      </trkpt>
      <trkpt lat="42.4371" lon="2.67554">
        <ele>680</ele>
        <time>2024-09-21T06:31:50Z</time>
      </trkpt>
      <trkpt lat="42.43709" lon="2.67557">
        <ele>681</ele>
        <time>2024-09-21T06:31:53Z</time>
      </trkpt>
      <trkpt lat="42.43708" lon="2.67561">
        <ele>682</ele>
        <time>2024-09-21T06:31:56Z</time>
      </trkpt>
      <trkpt lat="42.43708" lon="2.67565">
        <ele>681</ele>
        <time>2024-09-21T06:31:59Z</time>
      </trkpt>
      <trkpt lat="42.43709" lon="2.6757">
        <ele>682</ele>
        <time>2024-09-21T06:32:03Z</time>
      </trkpt>
      <trkpt lat="42.4371" lon="2.67574">
        <ele>683</ele>
        <time>2024-09-21T06:32:07Z</time>
      </trkpt>
      <trkpt lat="42.43712" lon="2.67577">
        <ele>684</ele>
        <time>2024-09-21T06:32:09Z</time>
      </trkpt>
      <trkpt lat="42.43713" lon="2.67581">
        <ele>684</ele>
        <time>2024-09-21T06:32:12Z</time>
      </trkpt>
      <trkpt lat="42.43716" lon="2.67583">
        <ele>686</ele>
        <time>2024-09-21T06:32:16Z</time>
      </trkpt>
      <trkpt lat="42.43718" lon="2.67586">
        <ele>684</ele>
        <time>2024-09-21T06:32:19Z</time>
      </trkpt>
      <trkpt lat="42.43721" lon="2.67589">
        <ele>685</ele>
        <time>2024-09-21T06:32:22Z</time>
      </trkpt>
      <trkpt lat="42.43724" lon="2.67592">
        <ele>685</ele>
        <time>2024-09-21T06:32:25Z</time>
      </trkpt>
      <trkpt lat="42.43726" lon="2.67595">
        <ele>685</ele>
        <time>2024-09-21T06:32:29Z</time>
      </trkpt>
      <trkpt lat="42.43729" lon="2.67598">
        <ele>686</ele>
        <time>2024-09-21T06:32:35Z</time>
      </trkpt>
      <trkpt lat="42.43732" lon="2.676">
        <ele>687</ele>
        <time>2024-09-21T06:32:38Z</time>
      </trkpt>
      <trkpt lat="42.43735" lon="2.67603">
        <ele>688</ele>
        <time>2024-09-21T06:32:41Z</time>
      </trkpt>
      <trkpt lat="42.43737" lon="2.67605">
        <ele>689</ele>
        <time>2024-09-21T06:32:43Z</time>
      </trkpt>
      <trkpt lat="42.4374" lon="2.67608">
        <ele>687</ele>
        <time>2024-09-21T06:32:49Z</time>
      </trkpt>
      <trkpt lat="42.43742" lon="2.67611">
        <ele>688</ele>
        <time>2024-09-21T06:32:53Z</time>
      </trkpt>
      <trkpt lat="42.43745" lon="2.67613">
        <ele>690</ele>
        <time>2024-09-21T06:32:57Z</time>
      </trkpt>
      <trkpt lat="42.43748" lon="2.67614">
        <ele>689</ele>
        <time>2024-09-21T06:32:59Z</time>
      </trkpt>
      <trkpt lat="42.43751" lon="2.67615">
        <ele>689</ele>
        <time>2024-09-21T06:33:02Z</time>
      </trkpt>
      <trkpt lat="42.43754" lon="2.67617">
        <ele>689</ele>
        <time>2024-09-21T06:33:06Z</time>
      </trkpt>
      <trkpt lat="42.43756" lon="2.67619">
        <ele>688</ele>
        <time>2024-09-21T06:33:09Z</time>
      </trkpt>
      <trkpt lat="42.43759" lon="2.67622">
        <ele>687</ele>
        <time>2024-09-21T06:33:13Z</time>
      </trkpt>
      <trkpt lat="42.43762" lon="2.67624">
        <ele>687</ele>
        <time>2024-09-21T06:33:16Z</time>
      </trkpt>
      <trkpt lat="42.43765" lon="2.67626">
        <ele>687</ele>
        <time>2024-09-21T06:33:19Z</time>
      </trkpt>
      <trkpt lat="42.43769" lon="2.67628">
        <ele>687</ele>
        <time>2024-09-21T06:33:21Z</time>
      </trkpt>
      <trkpt lat="42.43772" lon="2.67629">
        <ele>687</ele>
        <time>2024-09-21T06:33:27Z</time>
      </trkpt>
      <trkpt lat="42.43776" lon="2.67629">
        <ele>686</ele>
        <time>2024-09-21T06:33:31Z</time>
      </trkpt>
      <trkpt lat="42.43779" lon="2.6763">
        <ele>685</ele>
        <time>2024-09-21T06:33:34Z</time>
      </trkpt>
      <trkpt lat="42.43781" lon="2.67631">
        <ele>686</ele>
        <time>2024-09-21T06:33:36Z</time>
      </trkpt>
      <trkpt lat="42.43784" lon="2.67634">
        <ele>686</ele>
        <time>2024-09-21T06:33:38Z</time>
      </trkpt>
      <trkpt lat="42.43786" lon="2.67636">
        <ele>686</ele>
        <time>2024-09-21T06:33:40Z</time>
      </trkpt>
      <trkpt lat="42.43787" lon="2.6764">
        <ele>687</ele>
        <time>2024-09-21T06:33:43Z</time>
      </trkpt>
      <trkpt lat="42.4379" lon="2.67642">
        <ele>687</ele>
        <time>2024-09-21T06:33:48Z</time>
      </trkpt>
      <trkpt lat="42.43793" lon="2.67646">
        <ele>687</ele>
        <time>2024-09-21T06:33:51Z</time>
      </trkpt>
      <trkpt lat="42.43796" lon="2.67648">
        <ele>687</ele>
        <time>2024-09-21T06:33:53Z</time>
      </trkpt>
      <trkpt lat="42.438" lon="2.6765">
        <ele>687</ele>
        <time>2024-09-21T06:33:58Z</time>
      </trkpt>
      <trkpt lat="42.43803" lon="2.6765">
        <ele>688</ele>
        <time>2024-09-21T06:34:02Z</time>
      </trkpt>
      <trkpt lat="42.43806" lon="2.67651">
        <ele>688</ele>
        <time>2024-09-21T06:34:05Z</time>
      </trkpt>
      <trkpt lat="42.43809" lon="2.67653">
        <ele>688</ele>
        <time>2024-09-21T06:34:07Z</time>
      </trkpt>
      <trkpt lat="42.43812" lon="2.67654">
        <ele>689</ele>
        <time>2024-09-21T06:34:10Z</time>
      </trkpt>
      <trkpt lat="42.43816" lon="2.67655">
        <ele>689</ele>
        <time>2024-09-21T06:34:13Z</time>
      </trkpt>
      <trkpt lat="42.43819" lon="2.67656">
        <ele>689</ele>
        <time>2024-09-21T06:34:17Z</time>
      </trkpt>
      <trkpt lat="42.43822" lon="2.67658">
        <ele>689</ele>
        <time>2024-09-21T06:34:19Z</time>
      </trkpt>
      <trkpt lat="42.43825" lon="2.67658">
        <ele>688</ele>
        <time>2024-09-21T06:34:23Z</time>
      </trkpt>
      <trkpt lat="42.43829" lon="2.67657">
        <ele>688</ele>
        <time>2024-09-21T06:34:26Z</time>
      </trkpt>
      <trkpt lat="42.43832" lon="2.67658">
        <ele>687</ele>
        <time>2024-09-21T06:34:29Z</time>
      </trkpt>
      <trkpt lat="42.43835" lon="2.67658">
        <ele>686</ele>
        <time>2024-09-21T06:34:32Z</time>
      </trkpt>
      <trkpt lat="42.43838" lon="2.67656">
        <ele>684</ele>
        <time>2024-09-21T06:34:37Z</time>
      </trkpt>
      <trkpt lat="42.43841" lon="2.67657">
        <ele>683</ele>
        <time>2024-09-21T06:34:40Z</time>
      </trkpt>
      <trkpt lat="42.43844" lon="2.67657">
        <ele>683</ele>
        <time>2024-09-21T06:34:42Z</time>
      </trkpt>
      <trkpt lat="42.43847" lon="2.67657">
        <ele>683</ele>
        <time>2024-09-21T06:34:45Z</time>
      </trkpt>
      <trkpt lat="42.4385" lon="2.67658">
        <ele>683</ele>
        <time>2024-09-21T06:34:49Z</time>
      </trkpt>
      <trkpt lat="42.43854" lon="2.67658">
        <ele>683</ele>
        <time>2024-09-21T06:34:53Z</time>
      </trkpt>
      <trkpt lat="42.43857" lon="2.67659">
        <ele>682</ele>
        <time>2024-09-21T06:34:57Z</time>
      </trkpt>
      <trkpt lat="42.4386" lon="2.67659">
        <ele>682</ele>
        <time>2024-09-21T06:34:59Z</time>
      </trkpt>
      <trkpt lat="42.43863" lon="2.6766">
        <ele>682</ele>
        <time>2024-09-21T06:35:04Z</time>
      </trkpt>
      <trkpt lat="42.43866" lon="2.6766">
        <ele>682</ele>
        <time>2024-09-21T06:35:06Z</time>
      </trkpt>
      <trkpt lat="42.43869" lon="2.6766">
        <ele>682</ele>
        <time>2024-09-21T06:35:08Z</time>
      </trkpt>
      <trkpt lat="42.43873" lon="2.67661">
        <ele>681</ele>
        <time>2024-09-21T06:35:11Z</time>
      </trkpt>
      <trkpt lat="42.43876" lon="2.67661">
        <ele>682</ele>
        <time>2024-09-21T06:35:14Z</time>
      </trkpt>
      <trkpt lat="42.4388" lon="2.67662">
        <ele>681</ele>
        <time>2024-09-21T06:35:18Z</time>
      </trkpt>
      <trkpt lat="42.43884" lon="2.67661">
        <ele>680</ele>
        <time>2024-09-21T06:35:22Z</time>
      </trkpt>
      <trkpt lat="42.43887" lon="2.67661">
        <ele>680</ele>
        <time>2024-09-21T06:35:24Z</time>
      </trkpt>
      <trkpt lat="42.4389" lon="2.67661">
        <ele>680</ele>
        <time>2024-09-21T06:35:26Z</time>
      </trkpt>
      <trkpt lat="42.43893" lon="2.67661">
        <ele>679</ele>
        <time>2024-09-21T06:35:29Z</time>
      </trkpt>
      <trkpt lat="42.43896" lon="2.67662">
        <ele>678</ele>
        <time>2024-09-21T06:35:32Z</time>
      </trkpt>
      <trkpt lat="42.43899" lon="2.67662">
        <ele>679</ele>
        <time>2024-09-21T06:35:34Z</time>
      </trkpt>
      <trkpt lat="42.43903" lon="2.67661">
        <ele>678</ele>
        <time>2024-09-21T06:35:38Z</time>
      </trkpt>
      <trkpt lat="42.43906" lon="2.67661">
        <ele>677</ele>
        <time>2024-09-21T06:35:42Z</time>
      </trkpt>
      <trkpt lat="42.4391" lon="2.67661">
        <ele>677</ele>
        <time>2024-09-21T06:35:43Z</time>
      </trkpt>
      <trkpt lat="42.43912" lon="2.67659">
        <ele>676</ele>
        <time>2024-09-21T06:35:47Z</time>
      </trkpt>
      <trkpt lat="42.43915" lon="2.67659">
        <ele>677</ele>
        <time>2024-09-21T06:35:49Z</time>
      </trkpt>
      <trkpt lat="42.43918" lon="2.67659">
        <ele>676</ele>
        <time>2024-09-21T06:35:52Z</time>
      </trkpt>
      <trkpt lat="42.43922" lon="2.67659">
        <ele>676</ele>
        <time>2024-09-21T06:35:55Z</time>
      </trkpt>
      <trkpt lat="42.43926" lon="2.67661">
        <ele>675</ele>
        <time>2024-09-21T06:35:59Z</time>
      </trkpt>
      <trkpt lat="42.43929" lon="2.67663">
        <ele>674</ele>
        <time>2024-09-21T06:36:04Z</time>
      </trkpt>
      <trkpt lat="42.43931" lon="2.67667">
        <ele>674</ele>
        <time>2024-09-21T06:36:08Z</time>
      </trkpt>
      <trkpt lat="42.43933" lon="2.67671">
        <ele>673</ele>
        <time>2024-09-21T06:36:13Z</time>
      </trkpt>
      <trkpt lat="42.43935" lon="2.67675">
        <ele>673</ele>
        <time>2024-09-21T06:36:16Z</time>
      </trkpt>
      <trkpt lat="42.43935" lon="2.67679">
        <ele>673</ele>
        <time>2024-09-21T06:36:20Z</time>
      </trkpt>
      <trkpt lat="42.43937" lon="2.67682">
        <ele>673</ele>
        <time>2024-09-21T06:36:22Z</time>
      </trkpt>
      <trkpt lat="42.43939" lon="2.67685">
        <ele>672</ele>
        <time>2024-09-21T06:36:24Z</time>
      </trkpt>
      <trkpt lat="42.43941" lon="2.67689">
        <ele>672</ele>
        <time>2024-09-21T06:36:27Z</time>
      </trkpt>
      <trkpt lat="42.43942" lon="2.67692">
        <ele>672</ele>
        <time>2024-09-21T06:36:30Z</time>
      </trkpt>
      <trkpt lat="42.43944" lon="2.67695">
        <ele>672</ele>
        <time>2024-09-21T06:36:33Z</time>
      </trkpt>
      <trkpt lat="42.43946" lon="2.67699">
        <ele>672</ele>
        <time>2024-09-21T06:36:36Z</time>
      </trkpt>
      <trkpt lat="42.43948" lon="2.67702">
        <ele>672</ele>
        <time>2024-09-21T06:36:39Z</time>
      </trkpt>
      <trkpt lat="42.4395" lon="2.67703">
        <ele>672</ele>
        <time>2024-09-21T06:36:41Z</time>
      </trkpt>
      <trkpt lat="42.4395" lon="2.67706">
        <ele>672</ele>
        <time>2024-09-21T06:36:43Z</time>
      </trkpt>
      <trkpt lat="42.43951" lon="2.67708">
        <ele>670</ele>
        <time>2024-09-21T06:36:48Z</time>
      </trkpt>
      <trkpt lat="42.43953" lon="2.67711">
        <ele>670</ele>
        <time>2024-09-21T06:36:51Z</time>
      </trkpt>
      <trkpt lat="42.43955" lon="2.67714">
        <ele>670</ele>
        <time>2024-09-21T06:36:54Z</time>
      </trkpt>
      <trkpt lat="42.43955" lon="2.67718">
        <ele>670</ele>
        <time>2024-09-21T06:36:56Z</time>
      </trkpt>
      <trkpt lat="42.43954" lon="2.67722">
        <ele>670</ele>
        <time>2024-09-21T06:36:58Z</time>
      </trkpt>
      <trkpt lat="42.43957" lon="2.67725">
        <ele>671</ele>
        <time>2024-09-21T06:37:02Z</time>
      </trkpt>
      <trkpt lat="42.43959" lon="2.67727">
        <ele>671</ele>
        <time>2024-09-21T06:37:06Z</time>
      </trkpt>
      <trkpt lat="42.43962" lon="2.67727">
        <ele>672</ele>
        <time>2024-09-21T06:37:08Z</time>
      </trkpt>
      <trkpt lat="42.43965" lon="2.67728">
        <ele>672</ele>
        <time>2024-09-21T06:37:10Z</time>
      </trkpt>
      <trkpt lat="42.43968" lon="2.67729">
        <ele>672</ele>
        <time>2024-09-21T06:37:12Z</time>
      </trkpt>
      <trkpt lat="42.43972" lon="2.67726">
        <ele>672</ele>
        <time>2024-09-21T06:37:15Z</time>
      </trkpt>
      <trkpt lat="42.43976" lon="2.67724">
        <ele>673</ele>
        <time>2024-09-21T06:37:20Z</time>
      </trkpt>
      <trkpt lat="42.43979" lon="2.67724">
        <ele>672</ele>
        <time>2024-09-21T06:37:23Z</time>
      </trkpt>
      <trkpt lat="42.43983" lon="2.67726">
        <ele>672</ele>
        <time>2024-09-21T06:37:25Z</time>
      </trkpt>
      <trkpt lat="42.43987" lon="2.67729">
        <ele>671</ele>
        <time>2024-09-21T06:37:29Z</time>
      </trkpt>
      <trkpt lat="42.43989" lon="2.67727">
        <ele>670</ele>
        <time>2024-09-21T06:37:33Z</time>
      </trkpt>
      <trkpt lat="42.43991" lon="2.67729">
        <ele>670</ele>
        <time>2024-09-21T06:37:36Z</time>
      </trkpt>
      <trkpt lat="42.43994" lon="2.67731">
        <ele>671</ele>
        <time>2024-09-21T06:37:38Z</time>
      </trkpt>
      <trkpt lat="42.43997" lon="2.67733">
        <ele>670</ele>
        <time>2024-09-21T06:37:42Z</time>
      </trkpt>
      <trkpt lat="42.44001" lon="2.67735">
        <ele>670</ele>
        <time>2024-09-21T06:37:45Z</time>
      </trkpt>
      <trkpt lat="42.44004" lon="2.67734">
        <ele>668</ele>
        <time>2024-09-21T06:37:51Z</time>
      </trkpt>
      <trkpt lat="42.44007" lon="2.67732">
        <ele>668</ele>
        <time>2024-09-21T06:37:53Z</time>
      </trkpt>
      <trkpt lat="42.44011" lon="2.67732">
        <ele>666</ele>
        <time>2024-09-21T06:37:58Z</time>
      </trkpt>
      <trkpt lat="42.44015" lon="2.67731">
        <ele>664</ele>
        <time>2024-09-21T06:38:05Z</time>
      </trkpt>
      <trkpt lat="42.44018" lon="2.67731">
        <ele>663</ele>
        <time>2024-09-21T06:38:08Z</time>
      </trkpt>
      <trkpt lat="42.44021" lon="2.67731">
        <ele>662</ele>
        <time>2024-09-21T06:38:12Z</time>
      </trkpt>
      <trkpt lat="42.44024" lon="2.67731">
        <ele>662</ele>
        <time>2024-09-21T06:38:17Z</time>
      </trkpt>
      <trkpt lat="42.44027" lon="2.67731">
        <ele>662</ele>
        <time>2024-09-21T06:38:20Z</time>
      </trkpt>
      <trkpt lat="42.4403" lon="2.67732">
        <ele>660</ele>
        <time>2024-09-21T06:38:23Z</time>
      </trkpt>
      <trkpt lat="42.44032" lon="2.67734">
        <ele>658</ele>
        <time>2024-09-21T06:38:30Z</time>
      </trkpt>
      <trkpt lat="42.44034" lon="2.67732">
        <ele>658</ele>
        <time>2024-09-21T06:38:35Z</time>
      </trkpt>
      <trkpt lat="42.44033" lon="2.6773">
        <ele>657</ele>
        <time>2024-09-21T06:38:39Z</time>
      </trkpt>
      <trkpt lat="42.44034" lon="2.67729">
        <ele>655</ele>
        <time>2024-09-21T06:38:46Z</time>
      </trkpt>
      <trkpt lat="42.44037" lon="2.67728">
        <ele>655</ele>
        <time>2024-09-21T06:38:52Z</time>
      </trkpt>
      <trkpt lat="42.44039" lon="2.67729">
        <ele>655</ele>
        <time>2024-09-21T06:38:56Z</time>
      </trkpt>
      <trkpt lat="42.44043" lon="2.67728">
        <ele>655</ele>
        <time>2024-09-21T06:38:59Z</time>
      </trkpt>
      <trkpt lat="42.44046" lon="2.67727">
        <ele>655</ele>
        <time>2024-09-21T06:39:02Z</time>
      </trkpt>
      <trkpt lat="42.44049" lon="2.67725">
        <ele>653</ele>
        <time>2024-09-21T06:39:07Z</time>
      </trkpt>
      <trkpt lat="42.44052" lon="2.67725">
        <ele>653</ele>
        <time>2024-09-21T06:39:10Z</time>
      </trkpt>
      <trkpt lat="42.44055" lon="2.67723">
        <ele>652</ele>
        <time>2024-09-21T06:39:14Z</time>
      </trkpt>
      <trkpt lat="42.44057" lon="2.6772">
        <ele>652</ele>
        <time>2024-09-21T06:39:17Z</time>
      </trkpt>
      <trkpt lat="42.44059" lon="2.6772">
        <ele>651</ele>
        <time>2024-09-21T06:39:20Z</time>
      </trkpt>
      <trkpt lat="42.44062" lon="2.67721">
        <ele>649</ele>
        <time>2024-09-21T06:39:23Z</time>
      </trkpt>
      <trkpt lat="42.44065" lon="2.67723">
        <ele>648</ele>
        <time>2024-09-21T06:39:28Z</time>
      </trkpt>
      <trkpt lat="42.44068" lon="2.67723">
        <ele>647</ele>
        <time>2024-09-21T06:39:31Z</time>
      </trkpt>
      <trkpt lat="42.44071" lon="2.67723">
        <ele>646</ele>
        <time>2024-09-21T06:39:35Z</time>
      </trkpt>
      <trkpt lat="42.44074" lon="2.67723">
        <ele>645</ele>
        <time>2024-09-21T06:39:38Z</time>
      </trkpt>
      <trkpt lat="42.44077" lon="2.67723">
        <ele>645</ele>
        <time>2024-09-21T06:39:41Z</time>
      </trkpt>
      <trkpt lat="42.4408" lon="2.67722">
        <ele>645</ele>
        <time>2024-09-21T06:39:46Z</time>
      </trkpt>
      <trkpt lat="42.44083" lon="2.67722">
        <ele>645</ele>
        <time>2024-09-21T06:39:49Z</time>
      </trkpt>
      <trkpt lat="42.44086" lon="2.67725">
        <ele>644</ele>
        <time>2024-09-21T06:39:51Z</time>
      </trkpt>
      <trkpt lat="42.44089" lon="2.67725">
        <ele>645</ele>
        <time>2024-09-21T06:39:54Z</time>
      </trkpt>
      <trkpt lat="42.44092" lon="2.67726">
        <ele>645</ele>
        <time>2024-09-21T06:39:57Z</time>
      </trkpt>
      <trkpt lat="42.44095" lon="2.67728">
        <ele>645</ele>
        <time>2024-09-21T06:39:59Z</time>
      </trkpt>
      <trkpt lat="42.44098" lon="2.67729">
        <ele>644</ele>
        <time>2024-09-21T06:40:04Z</time>
      </trkpt>
      <trkpt lat="42.44101" lon="2.67729">
        <ele>644</ele>
        <time>2024-09-21T06:40:07Z</time>
      </trkpt>
      <trkpt lat="42.44104" lon="2.67729">
        <ele>643</ele>
        <time>2024-09-21T06:40:11Z</time>
      </trkpt>
      <trkpt lat="42.44108" lon="2.67729">
        <ele>641</ele>
        <time>2024-09-21T06:40:13Z</time>
      </trkpt>
      <trkpt lat="42.44111" lon="2.67731">
        <ele>641</ele>
        <time>2024-09-21T06:40:17Z</time>
      </trkpt>
      <trkpt lat="42.44115" lon="2.67733">
        <ele>640</ele>
        <time>2024-09-21T06:40:21Z</time>
      </trkpt>
      <trkpt lat="42.44118" lon="2.67735">
        <ele>640</ele>
        <time>2024-09-21T06:40:24Z</time>
      </trkpt>
      <trkpt lat="42.44121" lon="2.67736">
        <ele>640</ele>
        <time>2024-09-21T06:40:27Z</time>
      </trkpt>
      <trkpt lat="42.44125" lon="2.67737">
        <ele>639</ele>
        <time>2024-09-21T06:40:30Z</time>
      </trkpt>
      <trkpt lat="42.44129" lon="2.67737">
        <ele>639</ele>
        <time>2024-09-21T06:40:33Z</time>
      </trkpt>
      <trkpt lat="42.44132" lon="2.67737">
        <ele>638</ele>
        <time>2024-09-21T06:40:36Z</time>
      </trkpt>
      <trkpt lat="42.44134" lon="2.67738">
        <ele>637</ele>
        <time>2024-09-21T06:40:38Z</time>
      </trkpt>
      <trkpt lat="42.44137" lon="2.6774">
        <ele>638</ele>
        <time>2024-09-21T06:40:41Z</time>
      </trkpt>
      <trkpt lat="42.44139" lon="2.67743">
        <ele>637</ele>
        <time>2024-09-21T06:40:44Z</time>
      </trkpt>
      <trkpt lat="42.44141" lon="2.67746">
        <ele>633</ele>
        <time>2024-09-21T06:40:48Z</time>
      </trkpt>
      <trkpt lat="42.44142" lon="2.67749">
        <ele>634</ele>
        <time>2024-09-21T06:40:51Z</time>
      </trkpt>
      <trkpt lat="42.44144" lon="2.67753">
        <ele>633</ele>
        <time>2024-09-21T06:40:54Z</time>
      </trkpt>
      <trkpt lat="42.44144" lon="2.67757">
        <ele>634</ele>
        <time>2024-09-21T06:40:59Z</time>
      </trkpt>
      <trkpt lat="42.44144" lon="2.67761">
        <ele>633</ele>
        <time>2024-09-21T06:41:02Z</time>
      </trkpt>
      <trkpt lat="42.44145" lon="2.67765">
        <ele>634</ele>
        <time>2024-09-21T06:41:07Z</time>
      </trkpt>
      <trkpt lat="42.44147" lon="2.67766">
        <ele>632</ele>
        <time>2024-09-21T06:42:09Z</time>
      </trkpt>
      <trkpt lat="42.44146" lon="2.67767">
        <ele>632</ele>
        <time>2024-09-21T06:42:57Z</time>
      </trkpt>
      <trkpt lat="42.44147" lon="2.67766">
        <ele>632</ele>
        <time>2024-09-21T06:43:31Z</time>
      </trkpt>
      <trkpt lat="42.4415" lon="2.67766">
        <ele>631</ele>
        <time>2024-09-21T06:43:43Z</time>
      </trkpt>
      <trkpt lat="42.44152" lon="2.67767">
        <ele>631</ele>
        <time>2024-09-21T06:43:48Z</time>
      </trkpt>
      <trkpt lat="42.4415" lon="2.67768">
        <ele>629</ele>
        <time>2024-09-21T06:43:57Z</time>
      </trkpt>
      <trkpt lat="42.44151" lon="2.67769">
        <ele>629</ele>
        <time>2024-09-21T06:44:00Z</time>
      </trkpt>
      <trkpt lat="42.44154" lon="2.6777">
        <ele>628</ele>
        <time>2024-09-21T06:44:03Z</time>
      </trkpt>
      <trkpt lat="42.44153" lon="2.67773">
        <ele>628</ele>
        <time>2024-09-21T06:44:06Z</time>
      </trkpt>
      <trkpt lat="42.44151" lon="2.67774">
        <ele>627</ele>
        <time>2024-09-21T06:44:10Z</time>
      </trkpt>
      <trkpt lat="42.44148" lon="2.67776">
        <ele>627</ele>
        <time>2024-09-21T06:44:13Z</time>
      </trkpt>
      <trkpt lat="42.44146" lon="2.67778">
        <ele>628</ele>
        <time>2024-09-21T06:44:15Z</time>
      </trkpt>
      <trkpt lat="42.44143" lon="2.6778">
        <ele>627</ele>
        <time>2024-09-21T06:44:18Z</time>
      </trkpt>
      <trkpt lat="42.4414" lon="2.67781">
        <ele>627</ele>
        <time>2024-09-21T06:44:21Z</time>
      </trkpt>
      <trkpt lat="42.44136" lon="2.67782">
        <ele>628</ele>
        <time>2024-09-21T06:44:26Z</time>
      </trkpt>
      <trkpt lat="42.44133" lon="2.67783">
        <ele>628</ele>
        <time>2024-09-21T06:44:31Z</time>
      </trkpt>
      <trkpt lat="42.4413" lon="2.67785">
        <ele>629</ele>
        <time>2024-09-21T06:44:33Z</time>
      </trkpt>
      <trkpt lat="42.44127" lon="2.67787">
        <ele>628</ele>
        <time>2024-09-21T06:44:36Z</time>
      </trkpt>
      <trkpt lat="42.44124" lon="2.67789">
        <ele>628</ele>
        <time>2024-09-21T06:44:38Z</time>
      </trkpt>
      <trkpt lat="42.44122" lon="2.67791">
        <ele>628</ele>
        <time>2024-09-21T06:44:42Z</time>
      </trkpt>
      <trkpt lat="42.44119" lon="2.67795">
        <ele>630</ele>
        <time>2024-09-21T06:44:45Z</time>
      </trkpt>
      <trkpt lat="42.44116" lon="2.67798">
        <ele>630</ele>
        <time>2024-09-21T06:44:48Z</time>
      </trkpt>
      <trkpt lat="42.44115" lon="2.67801">
        <ele>630</ele>
        <time>2024-09-21T06:44:50Z</time>
      </trkpt>
      <trkpt lat="42.44112" lon="2.67802">
        <ele>630</ele>
        <time>2024-09-21T06:44:55Z</time>
      </trkpt>
      <trkpt lat="42.4411" lon="2.67805">
        <ele>630</ele>
        <time>2024-09-21T06:44:57Z</time>
      </trkpt>
      <trkpt lat="42.4411" lon="2.67811">
        <ele>630</ele>
        <time>2024-09-21T06:44:59Z</time>
      </trkpt>
      <trkpt lat="42.44112" lon="2.67814">
        <ele>628</ele>
        <time>2024-09-21T06:45:02Z</time>
      </trkpt>
      <trkpt lat="42.44114" lon="2.67816">
        <ele>628</ele>
        <time>2024-09-21T06:45:04Z</time>
      </trkpt>
      <trkpt lat="42.44116" lon="2.67818">
        <ele>628</ele>
        <time>2024-09-21T06:45:06Z</time>
      </trkpt>
      <trkpt lat="42.44119" lon="2.67822">
        <ele>630</ele>
        <time>2024-09-21T06:45:09Z</time>
      </trkpt>
      <trkpt lat="42.4412" lon="2.67826">
        <ele>629</ele>
        <time>2024-09-21T06:45:12Z</time>
      </trkpt>
      <trkpt lat="42.44121" lon="2.6783">
        <ele>628</ele>
        <time>2024-09-21T06:45:18Z</time>
      </trkpt>
      <trkpt lat="42.44121" lon="2.67835">
        <ele>628</ele>
        <time>2024-09-21T06:45:22Z</time>
      </trkpt>
      <trkpt lat="42.44122" lon="2.6784">
        <ele>627</ele>
        <time>2024-09-21T06:45:25Z</time>
      </trkpt>
      <trkpt lat="42.44123" lon="2.67844">
        <ele>628</ele>
        <time>2024-09-21T06:45:27Z</time>
      </trkpt>
      <trkpt lat="42.44124" lon="2.67849">
        <ele>627</ele>
        <time>2024-09-21T06:45:31Z</time>
      </trkpt>
      <trkpt lat="42.44124" lon="2.67854">
        <ele>628</ele>
        <time>2024-09-21T06:45:34Z</time>
      </trkpt>
      <trkpt lat="42.44125" lon="2.67859">
        <ele>628</ele>
        <time>2024-09-21T06:45:37Z</time>
      </trkpt>
      <trkpt lat="42.44126" lon="2.67864">
        <ele>628</ele>
        <time>2024-09-21T06:45:41Z</time>
      </trkpt>
      <trkpt lat="42.44127" lon="2.67869">
        <ele>627</ele>
        <time>2024-09-21T06:45:44Z</time>
      </trkpt>
      <trkpt lat="42.44128" lon="2.67875">
        <ele>627</ele>
        <time>2024-09-21T06:45:48Z</time>
      </trkpt>
      <trkpt lat="42.44129" lon="2.6788">
        <ele>627</ele>
        <time>2024-09-21T06:45:52Z</time>
      </trkpt>
      <trkpt lat="42.4413" lon="2.67884">
        <ele>627</ele>
        <time>2024-09-21T06:45:55Z</time>
      </trkpt>
      <trkpt lat="42.44132" lon="2.67888">
        <ele>626</ele>
        <time>2024-09-21T06:45:58Z</time>
      </trkpt>
      <trkpt lat="42.44133" lon="2.6789">
        <ele>625</ele>
        <time>2024-09-21T06:46:01Z</time>
      </trkpt>
      <trkpt lat="42.44136" lon="2.67894">
        <ele>623</ele>
        <time>2024-09-21T06:46:04Z</time>
      </trkpt>
      <trkpt lat="42.44137" lon="2.67899">
        <ele>624</ele>
        <time>2024-09-21T06:46:07Z</time>
      </trkpt>
      <trkpt lat="42.4414" lon="2.67903">
        <ele>623</ele>
        <time>2024-09-21T06:46:10Z</time>
      </trkpt>
      <trkpt lat="42.44142" lon="2.67907">
        <ele>623</ele>
        <time>2024-09-21T06:46:13Z</time>
      </trkpt>
      <trkpt lat="42.44142" lon="2.67911">
        <ele>623</ele>
        <time>2024-09-21T06:46:16Z</time>
      </trkpt>
      <trkpt lat="42.44141" lon="2.67914">
        <ele>622</ele>
        <time>2024-09-21T06:46:19Z</time>
      </trkpt>
      <trkpt lat="42.44139" lon="2.67916">
        <ele>622</ele>
        <time>2024-09-21T06:46:21Z</time>
      </trkpt>
      <trkpt lat="42.44136" lon="2.67918">
        <ele>621</ele>
        <time>2024-09-21T06:46:25Z</time>
      </trkpt>
      <trkpt lat="42.44134" lon="2.67921">
        <ele>619</ele>
        <time>2024-09-21T06:46:28Z</time>
      </trkpt>
      <trkpt lat="42.44132" lon="2.67924">
        <ele>620</ele>
        <time>2024-09-21T06:46:31Z</time>
      </trkpt>
      <trkpt lat="42.4413" lon="2.67927">
        <ele>620</ele>
        <time>2024-09-21T06:46:34Z</time>
      </trkpt>
      <trkpt lat="42.44128" lon="2.6793">
        <ele>620</ele>
        <time>2024-09-21T06:46:37Z</time>
      </trkpt>
      <trkpt lat="42.44126" lon="2.67933">
        <ele>620</ele>
        <time>2024-09-21T06:46:39Z</time>
      </trkpt>
      <trkpt lat="42.44124" lon="2.67936">
        <ele>621</ele>
        <time>2024-09-21T06:46:42Z</time>
      </trkpt>
      <trkpt lat="42.44122" lon="2.67939">
        <ele>621</ele>
        <time>2024-09-21T06:46:45Z</time>
      </trkpt>
      <trkpt lat="42.4412" lon="2.67942">
        <ele>621</ele>
        <time>2024-09-21T06:46:48Z</time>
      </trkpt>
      <trkpt lat="42.44118" lon="2.67943">
        <ele>622</ele>
        <time>2024-09-21T06:46:53Z</time>
      </trkpt>
      <trkpt lat="42.44114" lon="2.67944">
        <ele>621</ele>
        <time>2024-09-21T06:46:58Z</time>
      </trkpt>
      <trkpt lat="42.44112" lon="2.67947">
        <ele>621</ele>
        <time>2024-09-21T06:47:01Z</time>
      </trkpt>
      <trkpt lat="42.4411" lon="2.6795">
        <ele>621</ele>
        <time>2024-09-21T06:47:04Z</time>
      </trkpt>
      <trkpt lat="42.44107" lon="2.67953">
        <ele>621</ele>
        <time>2024-09-21T06:47:07Z</time>
      </trkpt>
      <trkpt lat="42.44104" lon="2.67955">
        <ele>623</ele>
        <time>2024-09-21T06:47:12Z</time>
      </trkpt>
      <trkpt lat="42.44103" lon="2.67958">
        <ele>621</ele>
        <time>2024-09-21T06:47:15Z</time>
      </trkpt>
      <trkpt lat="42.44101" lon="2.67961">
        <ele>621</ele>
        <time>2024-09-21T06:47:17Z</time>
      </trkpt>
      <trkpt lat="42.44099" lon="2.67965">
        <ele>621</ele>
        <time>2024-09-21T06:47:20Z</time>
      </trkpt>
      <trkpt lat="42.44097" lon="2.67968">
        <ele>621</ele>
        <time>2024-09-21T06:47:24Z</time>
      </trkpt>
      <trkpt lat="42.44095" lon="2.67972">
        <ele>620</ele>
        <time>2024-09-21T06:47:27Z</time>
      </trkpt>
      <trkpt lat="42.44093" lon="2.67975">
        <ele>621</ele>
        <time>2024-09-21T06:47:29Z</time>
      </trkpt>
      <trkpt lat="42.44091" lon="2.67979">
        <ele>621</ele>
        <time>2024-09-21T06:47:32Z</time>
      </trkpt>
      <trkpt lat="42.4409" lon="2.67983">
        <ele>620</ele>
        <time>2024-09-21T06:47:35Z</time>
      </trkpt>
      <trkpt lat="42.44089" lon="2.67987">
        <ele>620</ele>
        <time>2024-09-21T06:47:39Z</time>
      </trkpt>
      <trkpt lat="42.44087" lon="2.67989">
        <ele>620</ele>
        <time>2024-09-21T06:47:42Z</time>
      </trkpt>
      <trkpt lat="42.44084" lon="2.6799">
        <ele>619</ele>
        <time>2024-09-21T06:47:44Z</time>
      </trkpt>
      <trkpt lat="42.44081" lon="2.67991">
        <ele>619</ele>
        <time>2024-09-21T06:47:47Z</time>
      </trkpt>
      <trkpt lat="42.44078" lon="2.67992">
        <ele>618</ele>
        <time>2024-09-21T06:47:50Z</time>
      </trkpt>
      <trkpt lat="42.44074" lon="2.67994">
        <ele>619</ele>
        <time>2024-09-21T06:47:53Z</time>
      </trkpt>
      <trkpt lat="42.44072" lon="2.67996">
        <ele>618</ele>
        <time>2024-09-21T06:47:55Z</time>
      </trkpt>
      <trkpt lat="42.4407" lon="2.67999">
        <ele>618</ele>
        <time>2024-09-21T06:47:57Z</time>
      </trkpt>
      <trkpt lat="42.44068" lon="2.68002">
        <ele>618</ele>
        <time>2024-09-21T06:47:59Z</time>
      </trkpt>
      <trkpt lat="42.44067" lon="2.68006">
        <ele>617</ele>
        <time>2024-09-21T06:48:02Z</time>
      </trkpt>
      <trkpt lat="42.44065" lon="2.68009">
        <ele>618</ele>
        <time>2024-09-21T06:48:04Z</time>
      </trkpt>
      <trkpt lat="42.44063" lon="2.68012">
        <ele>617</ele>
        <time>2024-09-21T06:48:07Z</time>
      </trkpt>
      <trkpt lat="42.44061" lon="2.68016">
        <ele>618</ele>
        <time>2024-09-21T06:48:10Z</time>
      </trkpt>
      <trkpt lat="42.4406" lon="2.68021">
        <ele>618</ele>
        <time>2024-09-21T06:48:13Z</time>
      </trkpt>
      <trkpt lat="42.44059" lon="2.68025">
        <ele>618</ele>
        <time>2024-09-21T06:48:16Z</time>
      </trkpt>
      <trkpt lat="42.44056" lon="2.68028">
        <ele>617</ele>
        <time>2024-09-21T06:48:18Z</time>
      </trkpt>
      <trkpt lat="42.44055" lon="2.68031">
        <ele>617</ele>
        <time>2024-09-21T06:48:20Z</time>
      </trkpt>
      <trkpt lat="42.44055" lon="2.68036">
        <ele>616</ele>
        <time>2024-09-21T06:48:22Z</time>
      </trkpt>
      <trkpt lat="42.44054" lon="2.6804">
        <ele>616</ele>
        <time>2024-09-21T06:48:25Z</time>
      </trkpt>
      <trkpt lat="42.44053" lon="2.68045">
        <ele>616</ele>
        <time>2024-09-21T06:48:28Z</time>
      </trkpt>
      <trkpt lat="42.44052" lon="2.68049">
        <ele>615</ele>
        <time>2024-09-21T06:48:31Z</time>
      </trkpt>
      <trkpt lat="42.4405" lon="2.68053">
        <ele>614</ele>
        <time>2024-09-21T06:48:34Z</time>
      </trkpt>
      <trkpt lat="42.44049" lon="2.68057">
        <ele>613</ele>
        <time>2024-09-21T06:48:37Z</time>
      </trkpt>
      <trkpt lat="42.44047" lon="2.68061">
        <ele>612</ele>
        <time>2024-09-21T06:48:41Z</time>
      </trkpt>
      <trkpt lat="42.44045" lon="2.68064">
        <ele>612</ele>
        <time>2024-09-21T06:48:52Z</time>
      </trkpt>
      <trkpt lat="42.44043" lon="2.68067">
        <ele>612</ele>
        <time>2024-09-21T06:48:55Z</time>
      </trkpt>
      <trkpt lat="42.44041" lon="2.68071">
        <ele>612</ele>
        <time>2024-09-21T06:48:57Z</time>
      </trkpt>
      <trkpt lat="42.44039" lon="2.68073">
        <ele>613</ele>
        <time>2024-09-21T06:48:59Z</time>
      </trkpt>
      <trkpt lat="42.44038" lon="2.68077">
        <ele>612</ele>
        <time>2024-09-21T06:49:12Z</time>
      </trkpt>
      <trkpt lat="42.44036" lon="2.68081">
        <ele>612</ele>
        <time>2024-09-21T06:49:16Z</time>
      </trkpt>
      <trkpt lat="42.44033" lon="2.68084">
        <ele>612</ele>
        <time>2024-09-21T06:49:19Z</time>
      </trkpt>
      <trkpt lat="42.44031" lon="2.68087">
        <ele>613</ele>
        <time>2024-09-21T06:49:21Z</time>
      </trkpt>
      <trkpt lat="42.44029" lon="2.68089">
        <ele>612</ele>
        <time>2024-09-21T06:49:23Z</time>
      </trkpt>
      <trkpt lat="42.44028" lon="2.68093">
        <ele>613</ele>
        <time>2024-09-21T06:49:25Z</time>
      </trkpt>
      <trkpt lat="42.44025" lon="2.68096">
        <ele>612</ele>
        <time>2024-09-21T06:49:28Z</time>
      </trkpt>
      <trkpt lat="42.44023" lon="2.68099">
        <ele>611</ele>
        <time>2024-09-21T06:49:31Z</time>
      </trkpt>
      <trkpt lat="42.44021" lon="2.68102">
        <ele>611</ele>
        <time>2024-09-21T06:49:33Z</time>
      </trkpt>
      <trkpt lat="42.4402" lon="2.68107">
        <ele>610</ele>
        <time>2024-09-21T06:49:36Z</time>
      </trkpt>
      <trkpt lat="42.44019" lon="2.68111">
        <ele>610</ele>
        <time>2024-09-21T06:49:39Z</time>
      </trkpt>
      <trkpt lat="42.44019" lon="2.68116">
        <ele>609</ele>
        <time>2024-09-21T06:49:42Z</time>
      </trkpt>
      <trkpt lat="42.44017" lon="2.68119">
        <ele>609</ele>
        <time>2024-09-21T06:49:45Z</time>
      </trkpt>
      <trkpt lat="42.44014" lon="2.68121">
        <ele>610</ele>
        <time>2024-09-21T06:49:48Z</time>
      </trkpt>
      <trkpt lat="42.44012" lon="2.68123">
        <ele>609</ele>
        <time>2024-09-21T06:49:51Z</time>
      </trkpt>
      <trkpt lat="42.44008" lon="2.68125">
        <ele>610</ele>
        <time>2024-09-21T06:49:55Z</time>
      </trkpt>
      <trkpt lat="42.44005" lon="2.68127">
        <ele>610</ele>
        <time>2024-09-21T06:49:57Z</time>
      </trkpt>
      <trkpt lat="42.44002" lon="2.68129">
        <ele>608</ele>
        <time>2024-09-21T06:50:01Z</time>
      </trkpt>
      <trkpt lat="42.44" lon="2.68131">
        <ele>609</ele>
        <time>2024-09-21T06:50:03Z</time>
      </trkpt>
      <trkpt lat="42.43997" lon="2.68133">
        <ele>608</ele>
        <time>2024-09-21T06:50:05Z</time>
      </trkpt>
      <trkpt lat="42.43994" lon="2.68136">
        <ele>609</ele>
        <time>2024-09-21T06:50:09Z</time>
      </trkpt>
      <trkpt lat="42.43992" lon="2.68139">
        <ele>608</ele>
        <time>2024-09-21T06:50:12Z</time>
      </trkpt>
      <trkpt lat="42.4399" lon="2.68143">
        <ele>608</ele>
        <time>2024-09-21T06:50:15Z</time>
      </trkpt>
      <trkpt lat="42.43988" lon="2.68147">
        <ele>609</ele>
        <time>2024-09-21T06:50:18Z</time>
      </trkpt>
      <trkpt lat="42.43987" lon="2.68152">
        <ele>609</ele>
        <time>2024-09-21T06:50:21Z</time>
      </trkpt>
      <trkpt lat="42.43986" lon="2.68157">
        <ele>608</ele>
        <time>2024-09-21T06:50:24Z</time>
      </trkpt>
      <trkpt lat="42.43986" lon="2.68161">
        <ele>608</ele>
        <time>2024-09-21T06:50:29Z</time>
      </trkpt>
      <trkpt lat="42.43985" lon="2.68165">
        <ele>607</ele>
        <time>2024-09-21T06:50:33Z</time>
      </trkpt>
      <trkpt lat="42.43985" lon="2.6817">
        <ele>607</ele>
        <time>2024-09-21T06:50:35Z</time>
      </trkpt>
      <trkpt lat="42.43986" lon="2.68175">
        <ele>606</ele>
        <time>2024-09-21T06:50:38Z</time>
      </trkpt>
      <trkpt lat="42.43986" lon="2.68179">
        <ele>606</ele>
        <time>2024-09-21T06:50:41Z</time>
      </trkpt>
      <trkpt lat="42.43986" lon="2.68183">
        <ele>605</ele>
        <time>2024-09-21T06:50:44Z</time>
      </trkpt>
      <trkpt lat="42.43986" lon="2.68188">
        <ele>605</ele>
        <time>2024-09-21T06:50:48Z</time>
      </trkpt>
      <trkpt lat="42.43988" lon="2.68192">
        <ele>605</ele>
        <time>2024-09-21T06:50:50Z</time>
      </trkpt>
      <trkpt lat="42.43989" lon="2.68196">
        <ele>605</ele>
        <time>2024-09-21T06:50:53Z</time>
      </trkpt>
      <trkpt lat="42.43989" lon="2.682">
        <ele>605</ele>
        <time>2024-09-21T06:50:57Z</time>
      </trkpt>
      <trkpt lat="42.43988" lon="2.68204">
        <ele>605</ele>
        <time>2024-09-21T06:50:59Z</time>
      </trkpt>
      <trkpt lat="42.43986" lon="2.68207">
        <ele>605</ele>
        <time>2024-09-21T06:51:02Z</time>
      </trkpt>
      <trkpt lat="42.43985" lon="2.68212">
        <ele>605</ele>
        <time>2024-09-21T06:51:05Z</time>
      </trkpt>
      <trkpt lat="42.43983" lon="2.68215">
        <ele>605</ele>
        <time>2024-09-21T06:51:07Z</time>
      </trkpt>
      <trkpt lat="42.43981" lon="2.68218">
        <ele>605</ele>
        <time>2024-09-21T06:51:09Z</time>
      </trkpt>
      <trkpt lat="42.43979" lon="2.68221">
        <ele>604</ele>
        <time>2024-09-21T06:51:12Z</time>
      </trkpt>
      <trkpt lat="42.43977" lon="2.68223">
        <ele>604</ele>
        <time>2024-09-21T06:51:15Z</time>
      </trkpt>
      <trkpt lat="42.43975" lon="2.68227">
        <ele>604</ele>
        <time>2024-09-21T06:51:17Z</time>
      </trkpt>
      <trkpt lat="42.43974" lon="2.68231">
        <ele>603</ele>
        <time>2024-09-21T06:51:20Z</time>
      </trkpt>
      <trkpt lat="42.43972" lon="2.68235">
        <ele>603</ele>
        <time>2024-09-21T06:51:22Z</time>
      </trkpt>
      <trkpt lat="42.4397" lon="2.68237">
        <ele>603</ele>
        <time>2024-09-21T06:51:23Z</time>
      </trkpt>
      <trkpt lat="42.43968" lon="2.68241">
        <ele>602</ele>
        <time>2024-09-21T06:51:27Z</time>
      </trkpt>
      <trkpt lat="42.43967" lon="2.68245">
        <ele>602</ele>
        <time>2024-09-21T06:51:30Z</time>
      </trkpt>
      <trkpt lat="42.43965" lon="2.68249">
        <ele>601</ele>
        <time>2024-09-21T06:51:33Z</time>
      </trkpt>
      <trkpt lat="42.43964" lon="2.68252">
        <ele>602</ele>
        <time>2024-09-21T06:51:35Z</time>
      </trkpt>
      <trkpt lat="42.43961" lon="2.68253">
        <ele>601</ele>
        <time>2024-09-21T06:51:38Z</time>
      </trkpt>
      <trkpt lat="42.43958" lon="2.68255">
        <ele>601</ele>
        <time>2024-09-21T06:51:41Z</time>
      </trkpt>
      <trkpt lat="42.43956" lon="2.68258">
        <ele>600</ele>
        <time>2024-09-21T06:51:43Z</time>
      </trkpt>
      <trkpt lat="42.43954" lon="2.68262">
        <ele>601</ele>
        <time>2024-09-21T06:51:46Z</time>
      </trkpt>
      <trkpt lat="42.43953" lon="2.68267">
        <ele>600</ele>
        <time>2024-09-21T06:51:50Z</time>
      </trkpt>
      <trkpt lat="42.43952" lon="2.68273">
        <ele>600</ele>
        <time>2024-09-21T06:51:53Z</time>
      </trkpt>
      <trkpt lat="42.43951" lon="2.68277">
        <ele>599</ele>
        <time>2024-09-21T06:51:57Z</time>
      </trkpt>
      <trkpt lat="42.43949" lon="2.68281">
        <ele>598</ele>
        <time>2024-09-21T06:52:01Z</time>
      </trkpt>
      <trkpt lat="42.43946" lon="2.68284">
        <ele>598</ele>
        <time>2024-09-21T06:52:04Z</time>
      </trkpt>
      <trkpt lat="42.43944" lon="2.68287">
        <ele>597</ele>
        <time>2024-09-21T06:52:08Z</time>
      </trkpt>
      <trkpt lat="42.43941" lon="2.68288">
        <ele>596</ele>
        <time>2024-09-21T06:52:11Z</time>
      </trkpt>
      <trkpt lat="42.43938" lon="2.6829">
        <ele>596</ele>
        <time>2024-09-21T06:52:14Z</time>
      </trkpt>
      <trkpt lat="42.43936" lon="2.68294">
        <ele>597</ele>
        <time>2024-09-21T06:52:16Z</time>
      </trkpt>
      <trkpt lat="42.43934" lon="2.68296">
        <ele>597</ele>
        <time>2024-09-21T06:52:19Z</time>
      </trkpt>
      <trkpt lat="42.43931" lon="2.68298">
        <ele>597</ele>
        <time>2024-09-21T06:52:22Z</time>
      </trkpt>
      <trkpt lat="42.4393" lon="2.68301">
        <ele>596</ele>
        <time>2024-09-21T06:52:24Z</time>
      </trkpt>
      <trkpt lat="42.43927" lon="2.68304">
        <ele>597</ele>
        <time>2024-09-21T06:52:26Z</time>
      </trkpt>
      <trkpt lat="42.43926" lon="2.68307">
        <ele>597</ele>
        <time>2024-09-21T06:52:29Z</time>
      </trkpt>
      <trkpt lat="42.43925" lon="2.6831">
        <ele>596</ele>
        <time>2024-09-21T06:52:31Z</time>
      </trkpt>
      <trkpt lat="42.43925" lon="2.68314">
        <ele>596</ele>
        <time>2024-09-21T06:52:33Z</time>
      </trkpt>
      <trkpt lat="42.43925" lon="2.68319">
        <ele>596</ele>
        <time>2024-09-21T06:52:36Z</time>
      </trkpt>
      <trkpt lat="42.43925" lon="2.68324">
        <ele>596</ele>
        <time>2024-09-21T06:52:39Z</time>
      </trkpt>
      <trkpt lat="42.43923" lon="2.68327">
        <ele>592</ele>
        <time>2024-09-21T06:52:43Z</time>
      </trkpt>
      <trkpt lat="42.43922" lon="2.68331">
        <ele>592</ele>
        <time>2024-09-21T06:52:46Z</time>
      </trkpt>
      <trkpt lat="42.43921" lon="2.68336">
        <ele>592</ele>
        <time>2024-09-21T06:52:49Z</time>
      </trkpt>
      <trkpt lat="42.43919" lon="2.68339">
        <ele>592</ele>
        <time>2024-09-21T06:52:54Z</time>
      </trkpt>
      <trkpt lat="42.43916" lon="2.68341">
        <ele>591</ele>
        <time>2024-09-21T06:52:57Z</time>
      </trkpt>
      <trkpt lat="42.43913" lon="2.68344">
        <ele>591</ele>
        <time>2024-09-21T06:52:59Z</time>
      </trkpt>
      <trkpt lat="42.43911" lon="2.68348">
        <ele>591</ele>
        <time>2024-09-21T06:53:03Z</time>
      </trkpt>
      <trkpt lat="42.43909" lon="2.68352">
        <ele>590</ele>
        <time>2024-09-21T06:53:06Z</time>
      </trkpt>
      <trkpt lat="42.43906" lon="2.68355">
        <ele>590</ele>
        <time>2024-09-21T06:53:08Z</time>
      </trkpt>
      <trkpt lat="42.43904" lon="2.68357">
        <ele>591</ele>
        <time>2024-09-21T06:53:10Z</time>
      </trkpt>
      <trkpt lat="42.43902" lon="2.6836">
        <ele>592</ele>
        <time>2024-09-21T06:53:13Z</time>
      </trkpt>
      <trkpt lat="42.439" lon="2.68364">
        <ele>592</ele>
        <time>2024-09-21T06:53:17Z</time>
      </trkpt>
      <trkpt lat="42.43897" lon="2.68366">
        <ele>594</ele>
        <time>2024-09-21T06:53:21Z</time>
      </trkpt>
      <trkpt lat="42.43895" lon="2.68369">
        <ele>593</ele>
        <time>2024-09-21T06:53:23Z</time>
      </trkpt>
      <trkpt lat="42.43894" lon="2.68372">
        <ele>594</ele>
        <time>2024-09-21T06:53:26Z</time>
      </trkpt>
      <trkpt lat="42.43894" lon="2.68377">
        <ele>593</ele>
        <time>2024-09-21T06:53:30Z</time>
      </trkpt>
      <trkpt lat="42.43893" lon="2.68381">
        <ele>593</ele>
        <time>2024-09-21T06:53:33Z</time>
      </trkpt>
      <trkpt lat="42.43893" lon="2.68386">
        <ele>594</ele>
        <time>2024-09-21T06:53:36Z</time>
      </trkpt>
      <trkpt lat="42.43892" lon="2.6839">
        <ele>593</ele>
        <time>2024-09-21T06:53:39Z</time>
      </trkpt>
      <trkpt lat="42.4389" lon="2.68394">
        <ele>594</ele>
        <time>2024-09-21T06:53:42Z</time>
      </trkpt>
      <trkpt lat="42.43888" lon="2.68396">
        <ele>594</ele>
        <time>2024-09-21T06:53:45Z</time>
      </trkpt>
      <trkpt lat="42.43886" lon="2.68398">
        <ele>595</ele>
        <time>2024-09-21T06:53:48Z</time>
      </trkpt>
      <trkpt lat="42.43884" lon="2.68402">
        <ele>594</ele>
        <time>2024-09-21T06:53:51Z</time>
      </trkpt>
      <trkpt lat="42.43882" lon="2.68405">
        <ele>595</ele>
        <time>2024-09-21T06:53:54Z</time>
      </trkpt>
      <trkpt lat="42.43881" lon="2.68408">
        <ele>596</ele>
        <time>2024-09-21T06:53:57Z</time>
      </trkpt>
      <trkpt lat="42.43878" lon="2.6841">
        <ele>598</ele>
        <time>2024-09-21T06:54:00Z</time>
      </trkpt>
      <trkpt lat="42.43876" lon="2.68412">
        <ele>598</ele>
        <time>2024-09-21T06:54:03Z</time>
      </trkpt>
      <trkpt lat="42.43874" lon="2.68415">
        <ele>598</ele>
        <time>2024-09-21T06:54:09Z</time>
      </trkpt>
      <trkpt lat="42.43871" lon="2.68417">
        <ele>599</ele>
        <time>2024-09-21T06:54:12Z</time>
      </trkpt>
      <trkpt lat="42.43869" lon="2.68422">
        <ele>601</ele>
        <time>2024-09-21T06:54:16Z</time>
      </trkpt>
      <trkpt lat="42.43868" lon="2.68426">
        <ele>601</ele>
        <time>2024-09-21T06:54:19Z</time>
      </trkpt>
      <trkpt lat="42.43867" lon="2.68429">
        <ele>602</ele>
        <time>2024-09-21T06:54:23Z</time>
      </trkpt>
      <trkpt lat="42.43864" lon="2.68429">
        <ele>601</ele>
        <time>2024-09-21T06:54:31Z</time>
      </trkpt>
      <trkpt lat="42.43862" lon="2.68431">
        <ele>603</ele>
        <time>2024-09-21T06:54:37Z</time>
      </trkpt>
      <trkpt lat="42.4386" lon="2.68435">
        <ele>602</ele>
        <time>2024-09-21T06:54:40Z</time>
      </trkpt>
      <trkpt lat="42.43859" lon="2.68439">
        <ele>603</ele>
        <time>2024-09-21T06:54:42Z</time>
      </trkpt>
      <trkpt lat="42.4386" lon="2.68442">
        <ele>603</ele>
        <time>2024-09-21T06:54:43Z</time>
      </trkpt>
      <trkpt lat="42.43863" lon="2.68445">
        <ele>603</ele>
        <time>2024-09-21T06:54:47Z</time>
      </trkpt>
      <trkpt lat="42.43865" lon="2.68449">
        <ele>603</ele>
        <time>2024-09-21T06:54:48Z</time>
      </trkpt>
      <trkpt lat="42.43868" lon="2.6845">
        <ele>605</ele>
        <time>2024-09-21T06:54:51Z</time>
      </trkpt>
      <trkpt lat="42.43871" lon="2.68451">
        <ele>604</ele>
        <time>2024-09-21T06:54:52Z</time>
      </trkpt>
      <trkpt lat="42.43871" lon="2.68449">
        <ele>604</ele>
        <time>2024-09-21T06:54:54Z</time>
      </trkpt>
      <trkpt lat="42.43872" lon="2.68446">
        <ele>605</ele>
        <time>2024-09-21T06:54:58Z</time>
      </trkpt>
      <trkpt lat="42.43876" lon="2.68446">
        <ele>604</ele>
        <time>2024-09-21T06:55:00Z</time>
      </trkpt>
      <trkpt lat="42.4388" lon="2.68445">
        <ele>605</ele>
        <time>2024-09-21T06:55:02Z</time>
      </trkpt>
      <trkpt lat="42.43884" lon="2.68443">
        <ele>605</ele>
        <time>2024-09-21T06:55:06Z</time>
      </trkpt>
      <trkpt lat="42.43887" lon="2.68442">
        <ele>605</ele>
        <time>2024-09-21T06:55:09Z</time>
      </trkpt>
      <trkpt lat="42.4389" lon="2.68442">
        <ele>604</ele>
        <time>2024-09-21T06:55:11Z</time>
      </trkpt>
      <trkpt lat="42.43893" lon="2.68444">
        <ele>604</ele>
        <time>2024-09-21T06:55:18Z</time>
      </trkpt>
      <trkpt lat="42.43896" lon="2.68443">
        <ele>604</ele>
        <time>2024-09-21T06:55:19Z</time>
      </trkpt>
      <trkpt lat="42.43899" lon="2.68441">
        <ele>606</ele>
        <time>2024-09-21T06:55:25Z</time>
      </trkpt>
      <trkpt lat="42.439" lon="2.68438">
        <ele>606</ele>
        <time>2024-09-21T06:55:28Z</time>
      </trkpt>
      <trkpt lat="42.43903" lon="2.68436">
        <ele>607</ele>
        <time>2024-09-21T06:55:31Z</time>
      </trkpt>
      <trkpt lat="42.43905" lon="2.68434">
        <ele>607</ele>
        <time>2024-09-21T06:55:36Z</time>
      </trkpt>
      <trkpt lat="42.43908" lon="2.68432">
        <ele>607</ele>
        <time>2024-09-21T06:55:39Z</time>
      </trkpt>
      <trkpt lat="42.43911" lon="2.68431">
        <ele>608</ele>
        <time>2024-09-21T06:55:43Z</time>
      </trkpt>
      <trkpt lat="42.43914" lon="2.6843">
        <ele>608</ele>
        <time>2024-09-21T06:55:46Z</time>
      </trkpt>
      <trkpt lat="42.43917" lon="2.6843">
        <ele>607</ele>
        <time>2024-09-21T06:55:48Z</time>
      </trkpt>
      <trkpt lat="42.43921" lon="2.6843">
        <ele>607</ele>
        <time>2024-09-21T06:55:53Z</time>
      </trkpt>
      <trkpt lat="42.43924" lon="2.68429">
        <ele>607</ele>
        <time>2024-09-21T06:55:56Z</time>
      </trkpt>
      <trkpt lat="42.43928" lon="2.68429">
        <ele>608</ele>
        <time>2024-09-21T06:55:58Z</time>
      </trkpt>
      <trkpt lat="42.43931" lon="2.6843">
        <ele>609</ele>
        <time>2024-09-21T06:56:01Z</time>
      </trkpt>
      <trkpt lat="42.43935" lon="2.68429">
        <ele>608</ele>
        <time>2024-09-21T06:56:06Z</time>
      </trkpt>
      <trkpt lat="42.43939" lon="2.68429">
        <ele>608</ele>
        <time>2024-09-21T06:56:09Z</time>
      </trkpt>
      <trkpt lat="42.43942" lon="2.68428">
        <ele>607</ele>
        <time>2024-09-21T06:56:14Z</time>
      </trkpt>
      <trkpt lat="42.43946" lon="2.68427">
        <ele>607</ele>
        <time>2024-09-21T06:56:17Z</time>
      </trkpt>
      <trkpt lat="42.43949" lon="2.68426">
        <ele>607</ele>
        <time>2024-09-21T06:56:20Z</time>
      </trkpt>
      <trkpt lat="42.43952" lon="2.68426">
        <ele>606</ele>
        <time>2024-09-21T06:56:24Z</time>
      </trkpt>
      <trkpt lat="42.43956" lon="2.68426">
        <ele>606</ele>
        <time>2024-09-21T06:56:26Z</time>
      </trkpt>
      <trkpt lat="42.43958" lon="2.68424">
        <ele>606</ele>
        <time>2024-09-21T06:56:28Z</time>
      </trkpt>
      <trkpt lat="42.43962" lon="2.68422">
        <ele>606</ele>
        <time>2024-09-21T06:56:32Z</time>
      </trkpt>
      <trkpt lat="42.43965" lon="2.68421">
        <ele>607</ele>
        <time>2024-09-21T06:56:35Z</time>
      </trkpt>
      <trkpt lat="42.43968" lon="2.68419">
        <ele>607</ele>
        <time>2024-09-21T06:56:39Z</time>
      </trkpt>
      <trkpt lat="42.4397" lon="2.68421">
        <ele>607</ele>
        <time>2024-09-21T06:56:42Z</time>
      </trkpt>
      <trkpt lat="42.43972" lon="2.68419">
        <ele>608</ele>
        <time>2024-09-21T06:56:44Z</time>
      </trkpt>
      <trkpt lat="42.43975" lon="2.68417">
        <ele>608</ele>
        <time>2024-09-21T06:56:47Z</time>
      </trkpt>
      <trkpt lat="42.43979" lon="2.68417">
        <ele>607</ele>
        <time>2024-09-21T06:56:50Z</time>
      </trkpt>
      <trkpt lat="42.43982" lon="2.68418">
        <ele>606</ele>
        <time>2024-09-21T06:56:53Z</time>
      </trkpt>
      <trkpt lat="42.43986" lon="2.68418">
        <ele>607</ele>
        <time>2024-09-21T06:56:57Z</time>
      </trkpt>
      <trkpt lat="42.4399" lon="2.68417">
        <ele>607</ele>
        <time>2024-09-21T06:57:01Z</time>
      </trkpt>
      <trkpt lat="42.43993" lon="2.68416">
        <ele>606</ele>
        <time>2024-09-21T06:57:05Z</time>
      </trkpt>
      <trkpt lat="42.43997" lon="2.68415">
        <ele>607</ele>
        <time>2024-09-21T06:57:09Z</time>
      </trkpt>
      <trkpt lat="42.44" lon="2.68415">
        <ele>606</ele>
        <time>2024-09-21T06:57:13Z</time>
      </trkpt>
      <trkpt lat="42.44003" lon="2.68414">
        <ele>607</ele>
        <time>2024-09-21T06:57:17Z</time>
      </trkpt>
      <trkpt lat="42.44007" lon="2.68415">
        <ele>606</ele>
        <time>2024-09-21T06:57:21Z</time>
      </trkpt>
      <trkpt lat="42.4401" lon="2.68418">
        <ele>606</ele>
        <time>2024-09-21T06:57:29Z</time>
      </trkpt>
      <trkpt lat="42.44012" lon="2.68421">
        <ele>606</ele>
        <time>2024-09-21T06:57:35Z</time>
      </trkpt>
      <trkpt lat="42.44014" lon="2.68425">
        <ele>607</ele>
        <time>2024-09-21T06:57:37Z</time>
      </trkpt>
      <trkpt lat="42.44016" lon="2.68427">
        <ele>606</ele>
        <time>2024-09-21T06:57:40Z</time>
      </trkpt>
      <trkpt lat="42.44019" lon="2.68429">
        <ele>607</ele>
        <time>2024-09-21T06:57:44Z</time>
      </trkpt>
      <trkpt lat="42.44021" lon="2.68432">
        <ele>607</ele>
        <time>2024-09-21T06:57:45Z</time>
      </trkpt>
      <trkpt lat="42.44024" lon="2.68433">
        <ele>606</ele>
        <time>2024-09-21T06:57:51Z</time>
      </trkpt>
      <trkpt lat="42.44027" lon="2.68435">
        <ele>606</ele>
        <time>2024-09-21T06:57:54Z</time>
      </trkpt>
      <trkpt lat="42.4403" lon="2.68436">
        <ele>606</ele>
        <time>2024-09-21T06:58:00Z</time>
      </trkpt>
      <trkpt lat="42.44033" lon="2.68437">
        <ele>606</ele>
        <time>2024-09-21T06:58:04Z</time>
      </trkpt>
      <trkpt lat="42.44036" lon="2.68438">
        <ele>606</ele>
        <time>2024-09-21T06:58:05Z</time>
      </trkpt>
      <trkpt lat="42.44038" lon="2.6844">
        <ele>606</ele>
        <time>2024-09-21T06:58:07Z</time>
      </trkpt>
      <trkpt lat="42.44042" lon="2.68441">
        <ele>606</ele>
        <time>2024-09-21T06:58:09Z</time>
      </trkpt>
      <trkpt lat="42.44045" lon="2.6844">
        <ele>605</ele>
        <time>2024-09-21T06:58:13Z</time>
      </trkpt>
      <trkpt lat="42.44047" lon="2.68438">
        <ele>604</ele>
        <time>2024-09-21T06:58:17Z</time>
      </trkpt>
      <trkpt lat="42.44051" lon="2.68437">
        <ele>604</ele>
        <time>2024-09-21T06:58:20Z</time>
      </trkpt>
      <trkpt lat="42.44055" lon="2.68437">
        <ele>603</ele>
        <time>2024-09-21T06:58:24Z</time>
      </trkpt>
      <trkpt lat="42.44058" lon="2.68437">
        <ele>603</ele>
        <time>2024-09-21T06:58:28Z</time>
      </trkpt>
      <trkpt lat="42.44062" lon="2.68435">
        <ele>604</ele>
        <time>2024-09-21T06:58:32Z</time>
      </trkpt>
      <trkpt lat="42.44065" lon="2.68435">
        <ele>604</ele>
        <time>2024-09-21T06:58:35Z</time>
      </trkpt>
      <trkpt lat="42.44069" lon="2.68434">
        <ele>604</ele>
        <time>2024-09-21T06:58:38Z</time>
      </trkpt>
      <trkpt lat="42.44072" lon="2.68434">
        <ele>603</ele>
        <time>2024-09-21T06:58:40Z</time>
      </trkpt>
      <trkpt lat="42.44075" lon="2.68432">
        <ele>602</ele>
        <time>2024-09-21T06:58:44Z</time>
      </trkpt>
      <trkpt lat="42.44077" lon="2.68431">
        <ele>602</ele>
        <time>2024-09-21T06:58:47Z</time>
      </trkpt>
      <trkpt lat="42.4408" lon="2.68431">
        <ele>602</ele>
        <time>2024-09-21T06:58:50Z</time>
      </trkpt>
      <trkpt lat="42.44083" lon="2.68431">
        <ele>602</ele>
        <time>2024-09-21T06:58:53Z</time>
      </trkpt>
      <trkpt lat="42.44086" lon="2.68432">
        <ele>601</ele>
        <time>2024-09-21T06:58:56Z</time>
      </trkpt>
      <trkpt lat="42.4409" lon="2.68431">
        <ele>601</ele>
        <time>2024-09-21T06:59:00Z</time>
      </trkpt>
      <trkpt lat="42.44094" lon="2.6843">
        <ele>601</ele>
        <time>2024-09-21T06:59:01Z</time>
      </trkpt>
      <trkpt lat="42.44097" lon="2.68431">
        <ele>601</ele>
        <time>2024-09-21T06:59:05Z</time>
      </trkpt>
      <trkpt lat="42.441" lon="2.68431">
        <ele>601</ele>
        <time>2024-09-21T06:59:10Z</time>
      </trkpt>
      <trkpt lat="42.44104" lon="2.6843">
        <ele>602</ele>
        <time>2024-09-21T06:59:15Z</time>
      </trkpt>
      <trkpt lat="42.44107" lon="2.68429">
        <ele>602</ele>
        <time>2024-09-21T06:59:18Z</time>
      </trkpt>
      <trkpt lat="42.44111" lon="2.68427">
        <ele>602</ele>
        <time>2024-09-21T06:59:21Z</time>
      </trkpt>
      <trkpt lat="42.44115" lon="2.68425">
        <ele>603</ele>
        <time>2024-09-21T06:59:25Z</time>
      </trkpt>
      <trkpt lat="42.44118" lon="2.68422">
        <ele>601</ele>
        <time>2024-09-21T06:59:30Z</time>
      </trkpt>
      <trkpt lat="42.44121" lon="2.68421">
        <ele>601</ele>
        <time>2024-09-21T06:59:32Z</time>
      </trkpt>
      <trkpt lat="42.44125" lon="2.68418">
        <ele>601</ele>
        <time>2024-09-21T06:59:35Z</time>
      </trkpt>
      <trkpt lat="42.44128" lon="2.68415">
        <ele>601</ele>
        <time>2024-09-21T06:59:37Z</time>
      </trkpt>
      <trkpt lat="42.4413" lon="2.68412">
        <ele>600</ele>
        <time>2024-09-21T06:59:41Z</time>
      </trkpt>
      <trkpt lat="42.44133" lon="2.68408">
        <ele>600</ele>
        <time>2024-09-21T06:59:44Z</time>
      </trkpt>
      <trkpt lat="42.44136" lon="2.68407">
        <ele>600</ele>
        <time>2024-09-21T06:59:47Z</time>
      </trkpt>
      <trkpt lat="42.44139" lon="2.68407">
        <ele>599</ele>
        <time>2024-09-21T06:59:50Z</time>
      </trkpt>
      <trkpt lat="42.44142" lon="2.68405">
        <ele>601</ele>
        <time>2024-09-21T06:59:53Z</time>
      </trkpt>
      <trkpt lat="42.44145" lon="2.68406">
        <ele>601</ele>
        <time>2024-09-21T06:59:54Z</time>
      </trkpt>
      <trkpt lat="42.44148" lon="2.68405">
        <ele>601</ele>
        <time>2024-09-21T06:59:57Z</time>
      </trkpt>
      <trkpt lat="42.4415" lon="2.68402">
        <ele>601</ele>
        <time>2024-09-21T07:00:01Z</time>
      </trkpt>
      <trkpt lat="42.44153" lon="2.68399">
        <ele>603</ele>
        <time>2024-09-21T07:00:03Z</time>
      </trkpt>
      <trkpt lat="42.44155" lon="2.68396">
        <ele>603</ele>
        <time>2024-09-21T07:00:06Z</time>
      </trkpt>
      <trkpt lat="42.44158" lon="2.68394">
        <ele>603</ele>
        <time>2024-09-21T07:00:09Z</time>
      </trkpt>
      <trkpt lat="42.44161" lon="2.68392">
        <ele>603</ele>
        <time>2024-09-21T07:00:14Z</time>
      </trkpt>
      <trkpt lat="42.44163" lon="2.68389">
        <ele>603</ele>
        <time>2024-09-21T07:00:17Z</time>
      </trkpt>
      <trkpt lat="42.44164" lon="2.68384">
        <ele>604</ele>
        <time>2024-09-21T07:00:19Z</time>
      </trkpt>
      <trkpt lat="42.44165" lon="2.6838">
        <ele>604</ele>
        <time>2024-09-21T07:00:22Z</time>
      </trkpt>
      <trkpt lat="42.44167" lon="2.68376">
        <ele>603</ele>
        <time>2024-09-21T07:00:25Z</time>
      </trkpt>
      <trkpt lat="42.44169" lon="2.68373">
        <ele>604</ele>
        <time>2024-09-21T07:00:28Z</time>
      </trkpt>
      <trkpt lat="42.44171" lon="2.68369">
        <ele>604</ele>
        <time>2024-09-21T07:00:31Z</time>
      </trkpt>
      <trkpt lat="42.44173" lon="2.68366">
        <ele>604</ele>
        <time>2024-09-21T07:00:35Z</time>
      </trkpt>
      <trkpt lat="42.44176" lon="2.68363">
        <ele>604</ele>
        <time>2024-09-21T07:00:38Z</time>
      </trkpt>
      <trkpt lat="42.44178" lon="2.68361">
        <ele>603</ele>
        <time>2024-09-21T07:00:41Z</time>
      </trkpt>
      <trkpt lat="42.4418" lon="2.68358">
        <ele>604</ele>
        <time>2024-09-21T07:00:46Z</time>
      </trkpt>
      <trkpt lat="42.44182" lon="2.68355">
        <ele>604</ele>
        <time>2024-09-21T07:00:49Z</time>
      </trkpt>
      <trkpt lat="42.44184" lon="2.68351">
        <ele>604</ele>
        <time>2024-09-21T07:00:54Z</time>
      </trkpt>
      <trkpt lat="42.44186" lon="2.68349">
        <ele>604</ele>
        <time>2024-09-21T07:00:57Z</time>
      </trkpt>
      <trkpt lat="42.44189" lon="2.68346">
        <ele>604</ele>
        <time>2024-09-21T07:01:00Z</time>
      </trkpt>
      <trkpt lat="42.44191" lon="2.68342">
        <ele>605</ele>
        <time>2024-09-21T07:01:04Z</time>
      </trkpt>
      <trkpt lat="42.44193" lon="2.6834">
        <ele>606</ele>
        <time>2024-09-21T07:01:07Z</time>
      </trkpt>
      <trkpt lat="42.44195" lon="2.68337">
        <ele>604</ele>
        <time>2024-09-21T07:01:13Z</time>
      </trkpt>
      <trkpt lat="42.44197" lon="2.68333">
        <ele>604</ele>
        <time>2024-09-21T07:01:17Z</time>
      </trkpt>
      <trkpt lat="42.44199" lon="2.6833">
        <ele>604</ele>
        <time>2024-09-21T07:01:20Z</time>
      </trkpt>
      <trkpt lat="42.44202" lon="2.68325">
        <ele>605</ele>
        <time>2024-09-21T07:01:23Z</time>
      </trkpt>
      <trkpt lat="42.44203" lon="2.68321">
        <ele>604</ele>
        <time>2024-09-21T07:01:26Z</time>
      </trkpt>
      <trkpt lat="42.44204" lon="2.68317">
        <ele>603</ele>
        <time>2024-09-21T07:01:30Z</time>
      </trkpt>
      <trkpt lat="42.44206" lon="2.68314">
        <ele>604</ele>
        <time>2024-09-21T07:01:33Z</time>
      </trkpt>
      <trkpt lat="42.44209" lon="2.68311">
        <ele>605</ele>
        <time>2024-09-21T07:01:36Z</time>
      </trkpt>
      <trkpt lat="42.44212" lon="2.68309">
        <ele>604</ele>
        <time>2024-09-21T07:01:39Z</time>
      </trkpt>
      <trkpt lat="42.44215" lon="2.68307">
        <ele>603</ele>
        <time>2024-09-21T07:01:42Z</time>
      </trkpt>
      <trkpt lat="42.44217" lon="2.68304">
        <ele>602</ele>
        <time>2024-09-21T07:01:46Z</time>
      </trkpt>
      <trkpt lat="42.4422" lon="2.68301">
        <ele>603</ele>
        <time>2024-09-21T07:01:48Z</time>
      </trkpt>
      <trkpt lat="42.44222" lon="2.68297">
        <ele>603</ele>
        <time>2024-09-21T07:01:51Z</time>
      </trkpt>
      <trkpt lat="42.44225" lon="2.68295">
        <ele>602</ele>
        <time>2024-09-21T07:01:55Z</time>
      </trkpt>
      <trkpt lat="42.44224" lon="2.68294">
        <ele>602</ele>
        <time>2024-09-21T07:02:01Z</time>
      </trkpt>
      <trkpt lat="42.44223" lon="2.68296">
        <ele>601</ele>
        <time>2024-09-21T07:02:04Z</time>
      </trkpt>
      <trkpt lat="42.44224" lon="2.68296">
        <ele>599</ele>
        <time>2024-09-21T07:02:20Z</time>
      </trkpt>
      <trkpt lat="42.44223" lon="2.68296">
        <ele>600</ele>
        <time>2024-09-21T07:02:26Z</time>
      </trkpt>
      <trkpt lat="42.44224" lon="2.68295">
        <ele>602</ele>
        <time>2024-09-21T07:02:44Z</time>
      </trkpt>
      <trkpt lat="42.44226" lon="2.68294">
        <ele>601</ele>
        <time>2024-09-21T07:02:47Z</time>
      </trkpt>
      <trkpt lat="42.44229" lon="2.68295">
        <ele>601</ele>
        <time>2024-09-21T07:02:50Z</time>
      </trkpt>
      <trkpt lat="42.44231" lon="2.68298">
        <ele>600</ele>
        <time>2024-09-21T07:02:53Z</time>
      </trkpt>
      <trkpt lat="42.44234" lon="2.68297">
        <ele>600</ele>
        <time>2024-09-21T07:03:05Z</time>
      </trkpt>
      <trkpt lat="42.44237" lon="2.68299">
        <ele>599</ele>
        <time>2024-09-21T07:03:10Z</time>
      </trkpt>
      <trkpt lat="42.44238" lon="2.68302">
        <ele>598</ele>
        <time>2024-09-21T07:03:13Z</time>
      </trkpt>
      <trkpt lat="42.4424" lon="2.68306">
        <ele>597</ele>
        <time>2024-09-21T07:03:17Z</time>
      </trkpt>
      <trkpt lat="42.44239" lon="2.6831">
        <ele>597</ele>
        <time>2024-09-21T07:03:20Z</time>
      </trkpt>
      <trkpt lat="42.44239" lon="2.68314">
        <ele>597</ele>
        <time>2024-09-21T07:03:25Z</time>
      </trkpt>
      <trkpt lat="42.44239" lon="2.68318">
        <ele>597</ele>
        <time>2024-09-21T07:03:27Z</time>
      </trkpt>
      <trkpt lat="42.4424" lon="2.68322">
        <ele>597</ele>
        <time>2024-09-21T07:03:31Z</time>
      </trkpt>
      <trkpt lat="42.44241" lon="2.68326">
        <ele>597</ele>
        <time>2024-09-21T07:03:34Z</time>
      </trkpt>
      <trkpt lat="42.4424" lon="2.68331">
        <ele>597</ele>
        <time>2024-09-21T07:03:38Z</time>
      </trkpt>
      <trkpt lat="42.44242" lon="2.68334">
        <ele>597</ele>
        <time>2024-09-21T07:03:41Z</time>
      </trkpt>
      <trkpt lat="42.44245" lon="2.68335">
        <ele>598</ele>
        <time>2024-09-21T07:03:44Z</time>
      </trkpt>
      <trkpt lat="42.44248" lon="2.68335">
        <ele>597</ele>
        <time>2024-09-21T07:03:47Z</time>
      </trkpt>
      <trkpt lat="42.44251" lon="2.68336">
        <ele>597</ele>
        <time>2024-09-21T07:03:49Z</time>
      </trkpt>
      <trkpt lat="42.44255" lon="2.68337">
        <ele>596</ele>
        <time>2024-09-21T07:03:52Z</time>
      </trkpt>
      <trkpt lat="42.44257" lon="2.68339">
        <ele>595</ele>
        <time>2024-09-21T07:03:56Z</time>
      </trkpt>
      <trkpt lat="42.4426" lon="2.68339">
        <ele>593</ele>
        <time>2024-09-21T07:04:01Z</time>
      </trkpt>
      <trkpt lat="42.44263" lon="2.68339">
        <ele>591</ele>
        <time>2024-09-21T07:04:04Z</time>
      </trkpt>
      <trkpt lat="42.44266" lon="2.6834">
        <ele>590</ele>
        <time>2024-09-21T07:04:07Z</time>
      </trkpt>
      <trkpt lat="42.44268" lon="2.68342">
        <ele>590</ele>
        <time>2024-09-21T07:04:09Z</time>
      </trkpt>
      <trkpt lat="42.44271" lon="2.68345">
        <ele>589</ele>
        <time>2024-09-21T07:04:13Z</time>
      </trkpt>
      <trkpt lat="42.44273" lon="2.68348">
        <ele>588</ele>
        <time>2024-09-21T07:04:16Z</time>
      </trkpt>
      <trkpt lat="42.44276" lon="2.68351">
        <ele>590</ele>
        <time>2024-09-21T07:04:20Z</time>
      </trkpt>
      <trkpt lat="42.44279" lon="2.68354">
        <ele>589</ele>
        <time>2024-09-21T07:04:24Z</time>
      </trkpt>
      <trkpt lat="42.44282" lon="2.68356">
        <ele>588</ele>
        <time>2024-09-21T07:04:28Z</time>
      </trkpt>
      <trkpt lat="42.44285" lon="2.68358">
        <ele>587</ele>
        <time>2024-09-21T07:04:31Z</time>
      </trkpt>
      <trkpt lat="42.44288" lon="2.6836">
        <ele>586</ele>
        <time>2024-09-21T07:04:36Z</time>
      </trkpt>
      <trkpt lat="42.44291" lon="2.6836">
        <ele>584</ele>
        <time>2024-09-21T07:04:40Z</time>
      </trkpt>
      <trkpt lat="42.44295" lon="2.6836">
        <ele>584</ele>
        <time>2024-09-21T07:04:43Z</time>
      </trkpt>
      <trkpt lat="42.44297" lon="2.68362">
        <ele>582</ele>
        <time>2024-09-21T07:04:48Z</time>
      </trkpt>
      <trkpt lat="42.44299" lon="2.68365">
        <ele>581</ele>
        <time>2024-09-21T07:04:51Z</time>
      </trkpt>
      <trkpt lat="42.44301" lon="2.68366">
        <ele>581</ele>
        <time>2024-09-21T07:04:53Z</time>
      </trkpt>
      <trkpt lat="42.44304" lon="2.68369">
        <ele>580</ele>
        <time>2024-09-21T07:04:57Z</time>
      </trkpt>
      <trkpt lat="42.44306" lon="2.6837">
        <ele>578</ele>
        <time>2024-09-21T07:05:01Z</time>
      </trkpt>
      <trkpt lat="42.44309" lon="2.68372">
        <ele>578</ele>
        <time>2024-09-21T07:05:03Z</time>
      </trkpt>
      <trkpt lat="42.44312" lon="2.68374">
        <ele>578</ele>
        <time>2024-09-21T07:05:07Z</time>
      </trkpt>
      <trkpt lat="42.44315" lon="2.68375">
        <ele>576</ele>
        <time>2024-09-21T07:05:11Z</time>
      </trkpt>
      <trkpt lat="42.44318" lon="2.68377">
        <ele>576</ele>
        <time>2024-09-21T07:05:14Z</time>
      </trkpt>
      <trkpt lat="42.44321" lon="2.68379">
        <ele>576</ele>
        <time>2024-09-21T07:05:16Z</time>
      </trkpt>
      <trkpt lat="42.44324" lon="2.68381">
        <ele>575</ele>
        <time>2024-09-21T07:05:20Z</time>
      </trkpt>
      <trkpt lat="42.44327" lon="2.68384">
        <ele>573</ele>
        <time>2024-09-21T07:05:24Z</time>
      </trkpt>
      <trkpt lat="42.4433" lon="2.68385">
        <ele>573</ele>
        <time>2024-09-21T07:05:29Z</time>
      </trkpt>
      <trkpt lat="42.44333" lon="2.68387">
        <ele>573</ele>
        <time>2024-09-21T07:05:32Z</time>
      </trkpt>
      <trkpt lat="42.44336" lon="2.68388">
        <ele>573</ele>
        <time>2024-09-21T07:05:35Z</time>
      </trkpt>
      <trkpt lat="42.4434" lon="2.68388">
        <ele>572</ele>
        <time>2024-09-21T07:05:39Z</time>
      </trkpt>
      <trkpt lat="42.44343" lon="2.68389">
        <ele>571</ele>
        <time>2024-09-21T07:05:43Z</time>
      </trkpt>
      <trkpt lat="42.44347" lon="2.6839">
        <ele>571</ele>
        <time>2024-09-21T07:05:45Z</time>
      </trkpt>
      <trkpt lat="42.4435" lon="2.68391">
        <ele>571</ele>
        <time>2024-09-21T07:05:47Z</time>
      </trkpt>
      <trkpt lat="42.44353" lon="2.68391">
        <ele>570</ele>
        <time>2024-09-21T07:05:51Z</time>
      </trkpt>
      <trkpt lat="42.44357" lon="2.6839">
        <ele>570</ele>
        <time>2024-09-21T07:05:54Z</time>
      </trkpt>
      <trkpt lat="42.4436" lon="2.6839">
        <ele>569</ele>
        <time>2024-09-21T07:05:57Z</time>
      </trkpt>
      <trkpt lat="42.44364" lon="2.68389">
        <ele>568</ele>
        <time>2024-09-21T07:06:00Z</time>
      </trkpt>
      <trkpt lat="42.44367" lon="2.68389">
        <ele>567</ele>
        <time>2024-09-21T07:06:03Z</time>
      </trkpt>
      <trkpt lat="42.4437" lon="2.6839">
        <ele>567</ele>
        <time>2024-09-21T07:06:05Z</time>
      </trkpt>
      <trkpt lat="42.44374" lon="2.68389">
        <ele>567</ele>
        <time>2024-09-21T07:06:09Z</time>
      </trkpt>
      <trkpt lat="42.44378" lon="2.6839">
        <ele>566</ele>
        <time>2024-09-21T07:06:12Z</time>
      </trkpt>
      <trkpt lat="42.44381" lon="2.68389">
        <ele>565</ele>
        <time>2024-09-21T07:06:16Z</time>
      </trkpt>
      <trkpt lat="42.44384" lon="2.68391">
        <ele>563</ele>
        <time>2024-09-21T07:06:21Z</time>
      </trkpt>
      <trkpt lat="42.44385" lon="2.68395">
        <ele>562</ele>
        <time>2024-09-21T07:06:24Z</time>
      </trkpt>
      <trkpt lat="42.44386" lon="2.68399">
        <ele>563</ele>
        <time>2024-09-21T07:06:27Z</time>
      </trkpt>
      <trkpt lat="42.44387" lon="2.68403">
        <ele>563</ele>
        <time>2024-09-21T07:06:30Z</time>
      </trkpt>
      <trkpt lat="42.44388" lon="2.68407">
        <ele>563</ele>
        <time>2024-09-21T07:06:32Z</time>
      </trkpt>
      <trkpt lat="42.44388" lon="2.68411">
        <ele>563</ele>
        <time>2024-09-21T07:06:38Z</time>
      </trkpt>
      <trkpt lat="42.4439" lon="2.68412">
        <ele>567</ele>
        <time>2024-09-21T07:06:49Z</time>
      </trkpt>
      <trkpt lat="42.4439" lon="2.68415">
        <ele>563</ele>
        <time>2024-09-21T07:07:05Z</time>
      </trkpt>
      <trkpt lat="42.44391" lon="2.6842">
        <ele>562</ele>
        <time>2024-09-21T07:07:10Z</time>
      </trkpt>
      <trkpt lat="42.44391" lon="2.68424">
        <ele>562</ele>
        <time>2024-09-21T07:07:12Z</time>
      </trkpt>
      <trkpt lat="42.44391" lon="2.68428">
        <ele>561</ele>
        <time>2024-09-21T07:07:16Z</time>
      </trkpt>
      <trkpt lat="42.44394" lon="2.6843">
        <ele>560</ele>
        <time>2024-09-21T07:07:19Z</time>
      </trkpt>
      <trkpt lat="42.44396" lon="2.68431">
        <ele>560</ele>
        <time>2024-09-21T07:07:21Z</time>
      </trkpt>
      <trkpt lat="42.44399" lon="2.68432">
        <ele>558</ele>
        <time>2024-09-21T07:07:25Z</time>
      </trkpt>
      <trkpt lat="42.44403" lon="2.68433">
        <ele>557</ele>
        <time>2024-09-21T07:07:28Z</time>
      </trkpt>
      <trkpt lat="42.44404" lon="2.68436">
        <ele>557</ele>
        <time>2024-09-21T07:07:30Z</time>
      </trkpt>
      <trkpt lat="42.44406" lon="2.68437">
        <ele>556</ele>
        <time>2024-09-21T07:07:36Z</time>
      </trkpt>
      <trkpt lat="42.44408" lon="2.6844">
        <ele>556</ele>
        <time>2024-09-21T07:07:39Z</time>
      </trkpt>
      <trkpt lat="42.44411" lon="2.68442">
        <ele>555</ele>
        <time>2024-09-21T07:07:42Z</time>
      </trkpt>
      <trkpt lat="42.44413" lon="2.68443">
        <ele>556</ele>
        <time>2024-09-21T07:07:45Z</time>
      </trkpt>
      <trkpt lat="42.44415" lon="2.68441">
        <ele>555</ele>
        <time>2024-09-21T07:08:17Z</time>
      </trkpt>
      <trkpt lat="42.44415" lon="2.68443">
        <ele>554</ele>
        <time>2024-09-21T07:08:39Z</time>
      </trkpt>
      <trkpt lat="42.44417" lon="2.68446">
        <ele>554</ele>
        <time>2024-09-21T07:08:52Z</time>
      </trkpt>
      <trkpt lat="42.44419" lon="2.68445">
        <ele>556</ele>
        <time>2024-09-21T07:09:57Z</time>
      </trkpt>
      <trkpt lat="42.4442" lon="2.68443">
        <ele>556</ele>
        <time>2024-09-21T07:10:40Z</time>
      </trkpt>
      <trkpt lat="42.44418" lon="2.6844">
        <ele>556</ele>
        <time>2024-09-21T07:11:05Z</time>
      </trkpt>
      <trkpt lat="42.44415" lon="2.68438">
        <ele>555</ele>
        <time>2024-09-21T07:11:13Z</time>
      </trkpt>
      <trkpt lat="42.44414" lon="2.6844">
        <ele>556</ele>
        <time>2024-09-21T07:11:37Z</time>
      </trkpt>
      <trkpt lat="42.44415" lon="2.68443">
        <ele>556</ele>
        <time>2024-09-21T07:11:49Z</time>
      </trkpt>
      <trkpt lat="42.44414" lon="2.68443">
        <ele>556</ele>
        <time>2024-09-21T07:12:03Z</time>
      </trkpt>
      <trkpt lat="42.44416" lon="2.68443">
        <ele>554</ele>
        <time>2024-09-21T07:12:27Z</time>
      </trkpt>
      <trkpt lat="42.44415" lon="2.68445">
        <ele>553</ele>
        <time>2024-09-21T07:12:52Z</time>
      </trkpt>
      <trkpt lat="42.44414" lon="2.68444">
        <ele>552</ele>
        <time>2024-09-21T07:13:04Z</time>
      </trkpt>
      <trkpt lat="42.44415" lon="2.68445">
        <ele>554</ele>
        <time>2024-09-21T07:13:15Z</time>
      </trkpt>
      <trkpt lat="42.44415" lon="2.68447">
        <ele>553</ele>
        <time>2024-09-21T07:13:18Z</time>
      </trkpt>
      <trkpt lat="42.44416" lon="2.68452">
        <ele>553</ele>
        <time>2024-09-21T07:13:21Z</time>
      </trkpt>
      <trkpt lat="42.44414" lon="2.68454">
        <ele>553</ele>
        <time>2024-09-21T07:13:28Z</time>
      </trkpt>
      <trkpt lat="42.44412" lon="2.68458">
        <ele>552</ele>
        <time>2024-09-21T07:13:30Z</time>
      </trkpt>
      <trkpt lat="42.4441" lon="2.68459">
        <ele>553</ele>
        <time>2024-09-21T07:13:37Z</time>
      </trkpt>
      <trkpt lat="42.44406" lon="2.6846">
        <ele>552</ele>
        <time>2024-09-21T07:13:39Z</time>
      </trkpt>
      <trkpt lat="42.44404" lon="2.68463">
        <ele>551</ele>
        <time>2024-09-21T07:13:42Z</time>
      </trkpt>
      <trkpt lat="42.44401" lon="2.68466">
        <ele>551</ele>
        <time>2024-09-21T07:13:44Z</time>
      </trkpt>
      <trkpt lat="42.44399" lon="2.68469">
        <ele>552</ele>
        <time>2024-09-21T07:13:47Z</time>
      </trkpt>
      <trkpt lat="42.44397" lon="2.68471">
        <ele>552</ele>
        <time>2024-09-21T07:13:51Z</time>
      </trkpt>
      <trkpt lat="42.44394" lon="2.68474">
        <ele>553</ele>
        <time>2024-09-21T07:13:55Z</time>
      </trkpt>
      <trkpt lat="42.44391" lon="2.68477">
        <ele>554</ele>
        <time>2024-09-21T07:14:00Z</time>
      </trkpt>
      <trkpt lat="42.44389" lon="2.6848">
        <ele>554</ele>
        <time>2024-09-21T07:14:03Z</time>
      </trkpt>
      <trkpt lat="42.44387" lon="2.68482">
        <ele>554</ele>
        <time>2024-09-21T07:14:05Z</time>
      </trkpt>
      <trkpt lat="42.44384" lon="2.68485">
        <ele>556</ele>
        <time>2024-09-21T07:14:10Z</time>
      </trkpt>
      <trkpt lat="42.44382" lon="2.68488">
        <ele>556</ele>
        <time>2024-09-21T07:14:13Z</time>
      </trkpt>
      <trkpt lat="42.44379" lon="2.6849">
        <ele>556</ele>
        <time>2024-09-21T07:14:16Z</time>
      </trkpt>
      <trkpt lat="42.44376" lon="2.68494">
        <ele>557</ele>
        <time>2024-09-21T07:14:20Z</time>
      </trkpt>
      <trkpt lat="42.44374" lon="2.68497">
        <ele>559</ele>
        <time>2024-09-21T07:14:23Z</time>
      </trkpt>
      <trkpt lat="42.44371" lon="2.68499">
        <ele>559</ele>
        <time>2024-09-21T07:14:25Z</time>
      </trkpt>
      <trkpt lat="42.44369" lon="2.68502">
        <ele>559</ele>
        <time>2024-09-21T07:14:29Z</time>
      </trkpt>
      <trkpt lat="42.44366" lon="2.68505">
        <ele>559</ele>
        <time>2024-09-21T07:14:34Z</time>
      </trkpt>
      <trkpt lat="42.44364" lon="2.68507">
        <ele>559</ele>
        <time>2024-09-21T07:14:37Z</time>
      </trkpt>
      <trkpt lat="42.44361" lon="2.6851">
        <ele>560</ele>
        <time>2024-09-21T07:14:40Z</time>
      </trkpt>
      <trkpt lat="42.44359" lon="2.68512">
        <ele>560</ele>
        <time>2024-09-21T07:14:43Z</time>
      </trkpt>
      <trkpt lat="42.44356" lon="2.68514">
        <ele>561</ele>
        <time>2024-09-21T07:14:46Z</time>
      </trkpt>
      <trkpt lat="42.44353" lon="2.68517">
        <ele>561</ele>
        <time>2024-09-21T07:14:51Z</time>
      </trkpt>
      <trkpt lat="42.44351" lon="2.68519">
        <ele>561</ele>
        <time>2024-09-21T07:14:53Z</time>
      </trkpt>
      <trkpt lat="42.44348" lon="2.68522">
        <ele>563</ele>
        <time>2024-09-21T07:14:58Z</time>
      </trkpt>
      <trkpt lat="42.44345" lon="2.68524">
        <ele>563</ele>
        <time>2024-09-21T07:15:03Z</time>
      </trkpt>
      <trkpt lat="42.44343" lon="2.68527">
        <ele>563</ele>
        <time>2024-09-21T07:15:07Z</time>
      </trkpt>
      <trkpt lat="42.4434" lon="2.6853">
        <ele>563</ele>
        <time>2024-09-21T07:15:10Z</time>
      </trkpt>
      <trkpt lat="42.44337" lon="2.68532">
        <ele>564</ele>
        <time>2024-09-21T07:15:13Z</time>
      </trkpt>
      <trkpt lat="42.44334" lon="2.68535">
        <ele>564</ele>
        <time>2024-09-21T07:15:17Z</time>
      </trkpt>
      <trkpt lat="42.44332" lon="2.68539">
        <ele>564</ele>
        <time>2024-09-21T07:15:22Z</time>
      </trkpt>
      <trkpt lat="42.44329" lon="2.68543">
        <ele>564</ele>
        <time>2024-09-21T07:15:25Z</time>
      </trkpt>
      <trkpt lat="42.44328" lon="2.68547">
        <ele>565</ele>
        <time>2024-09-21T07:15:30Z</time>
      </trkpt>
      <trkpt lat="42.44329" lon="2.68551">
        <ele>567</ele>
        <time>2024-09-21T07:15:37Z</time>
      </trkpt>
      <trkpt lat="42.44329" lon="2.68555">
        <ele>567</ele>
        <time>2024-09-21T07:15:40Z</time>
      </trkpt>
      <trkpt lat="42.44331" lon="2.68558">
        <ele>567</ele>
        <time>2024-09-21T07:15:44Z</time>
      </trkpt>
      <trkpt lat="42.44333" lon="2.68561">
        <ele>568</ele>
        <time>2024-09-21T07:15:49Z</time>
      </trkpt>
      <trkpt lat="42.44335" lon="2.68564">
        <ele>568</ele>
        <time>2024-09-21T07:15:51Z</time>
      </trkpt>
      <trkpt lat="42.44338" lon="2.68568">
        <ele>568</ele>
        <time>2024-09-21T07:15:54Z</time>
      </trkpt>
      <trkpt lat="42.4434" lon="2.68572">
        <ele>566</ele>
        <time>2024-09-21T07:16:02Z</time>
      </trkpt>
      <trkpt lat="42.44342" lon="2.68575">
        <ele>567</ele>
        <time>2024-09-21T07:16:06Z</time>
      </trkpt>
      <trkpt lat="42.44344" lon="2.68579">
        <ele>566</ele>
        <time>2024-09-21T07:16:10Z</time>
      </trkpt>
      <trkpt lat="42.44346" lon="2.68582">
        <ele>567</ele>
        <time>2024-09-21T07:16:16Z</time>
      </trkpt>
      <trkpt lat="42.44346" lon="2.68586">
        <ele>567</ele>
        <time>2024-09-21T07:16:21Z</time>
      </trkpt>
      <trkpt lat="42.44347" lon="2.6859">
        <ele>567</ele>
        <time>2024-09-21T07:16:30Z</time>
      </trkpt>
      <trkpt lat="42.44348" lon="2.68593">
        <ele>568</ele>
        <time>2024-09-21T07:16:33Z</time>
      </trkpt>
      <trkpt lat="42.4435" lon="2.68596">
        <ele>569</ele>
        <time>2024-09-21T07:16:37Z</time>
      </trkpt>
      <trkpt lat="42.44351" lon="2.686">
        <ele>568</ele>
        <time>2024-09-21T07:16:40Z</time>
      </trkpt>
      <trkpt lat="42.44351" lon="2.68604">
        <ele>568</ele>
        <time>2024-09-21T07:16:44Z</time>
      </trkpt>
      <trkpt lat="42.44351" lon="2.68608">
        <ele>568</ele>
        <time>2024-09-21T07:16:48Z</time>
      </trkpt>
      <trkpt lat="42.44352" lon="2.68611">
        <ele>568</ele>
        <time>2024-09-21T07:16:51Z</time>
      </trkpt>
      <trkpt lat="42.44351" lon="2.68615">
        <ele>568</ele>
        <time>2024-09-21T07:16:56Z</time>
      </trkpt>
      <trkpt lat="42.44349" lon="2.68618">
        <ele>570</ele>
        <time>2024-09-21T07:17:02Z</time>
      </trkpt>
      <trkpt lat="42.44347" lon="2.68621">
        <ele>572</ele>
        <time>2024-09-21T07:17:05Z</time>
      </trkpt>
      <trkpt lat="42.44345" lon="2.68624">
        <ele>572</ele>
        <time>2024-09-21T07:17:10Z</time>
      </trkpt>
      <trkpt lat="42.44342" lon="2.68625">
        <ele>575</ele>
        <time>2024-09-21T07:17:16Z</time>
      </trkpt>
      <trkpt lat="42.44339" lon="2.68624">
        <ele>576</ele>
        <time>2024-09-21T07:17:24Z</time>
      </trkpt>
      <trkpt lat="42.44337" lon="2.68625">
        <ele>578</ele>
        <time>2024-09-21T07:17:34Z</time>
      </trkpt>
      <trkpt lat="42.44337" lon="2.68628">
        <ele>578</ele>
        <time>2024-09-21T07:17:39Z</time>
      </trkpt>
      <trkpt lat="42.44336" lon="2.68632">
        <ele>579</ele>
        <time>2024-09-21T07:17:45Z</time>
      </trkpt>
      <trkpt lat="42.44334" lon="2.68635">
        <ele>579</ele>
        <time>2024-09-21T07:17:49Z</time>
      </trkpt>
      <trkpt lat="42.44333" lon="2.68639">
        <ele>581</ele>
        <time>2024-09-21T07:17:53Z</time>
      </trkpt>
      <trkpt lat="42.4433" lon="2.68641">
        <ele>581</ele>
        <time>2024-09-21T07:17:57Z</time>
      </trkpt>
      <trkpt lat="42.4433" lon="2.68643">
        <ele>581</ele>
        <time>2024-09-21T07:17:59Z</time>
      </trkpt>
      <trkpt lat="42.4433" lon="2.68641">
        <ele>582</ele>
        <time>2024-09-21T07:18:00Z</time>
      </trkpt>
      <trkpt lat="42.44328" lon="2.6864">
        <ele>582</ele>
        <time>2024-09-21T07:18:04Z</time>
      </trkpt>
      <trkpt lat="42.44326" lon="2.68641">
        <ele>581</ele>
        <time>2024-09-21T07:18:07Z</time>
      </trkpt>
      <trkpt lat="42.44325" lon="2.68645">
        <ele>582</ele>
        <time>2024-09-21T07:18:10Z</time>
      </trkpt>
      <trkpt lat="42.44326" lon="2.6865">
        <ele>582</ele>
        <time>2024-09-21T07:18:12Z</time>
      </trkpt>
      <trkpt lat="42.44324" lon="2.68653">
        <ele>583</ele>
        <time>2024-09-21T07:18:16Z</time>
      </trkpt>
      <trkpt lat="42.44322" lon="2.68655">
        <ele>584</ele>
        <time>2024-09-21T07:18:21Z</time>
      </trkpt>
      <trkpt lat="42.4432" lon="2.68659">
        <ele>585</ele>
        <time>2024-09-21T07:18:25Z</time>
      </trkpt>
      <trkpt lat="42.44319" lon="2.68663">
        <ele>586</ele>
        <time>2024-09-21T07:18:31Z</time>
      </trkpt>
      <trkpt lat="42.44319" lon="2.68667">
        <ele>586</ele>
        <time>2024-09-21T07:18:34Z</time>
      </trkpt>
      <trkpt lat="42.44319" lon="2.68671">
        <ele>587</ele>
        <time>2024-09-21T07:18:37Z</time>
      </trkpt>
      <trkpt lat="42.44317" lon="2.68673">
        <ele>588</ele>
        <time>2024-09-21T07:18:39Z</time>
      </trkpt>
      <trkpt lat="42.44315" lon="2.68677">
        <ele>590</ele>
        <time>2024-09-21T07:18:44Z</time>
      </trkpt>
      <trkpt lat="42.44315" lon="2.68681">
        <ele>591</ele>
        <time>2024-09-21T07:18:49Z</time>
      </trkpt>
      <trkpt lat="42.44314" lon="2.68685">
        <ele>591</ele>
        <time>2024-09-21T07:18:54Z</time>
      </trkpt>
      <trkpt lat="42.44312" lon="2.68688">
        <ele>593</ele>
        <time>2024-09-21T07:19:00Z</time>
      </trkpt>
      <trkpt lat="42.44311" lon="2.68691">
        <ele>592</ele>
        <time>2024-09-21T07:19:04Z</time>
      </trkpt>
      <trkpt lat="42.4431" lon="2.68695">
        <ele>592</ele>
        <time>2024-09-21T07:19:08Z</time>
      </trkpt>
      <trkpt lat="42.44309" lon="2.68699">
        <ele>593</ele>
        <time>2024-09-21T07:19:14Z</time>
      </trkpt>
      <trkpt lat="42.44307" lon="2.68701">
        <ele>593</ele>
        <time>2024-09-21T07:19:20Z</time>
      </trkpt>
      <trkpt lat="42.44305" lon="2.68705">
        <ele>593</ele>
        <time>2024-09-21T07:19:26Z</time>
      </trkpt>
      <trkpt lat="42.44304" lon="2.68708">
        <ele>593</ele>
        <time>2024-09-21T07:19:30Z</time>
      </trkpt>
      <trkpt lat="42.44302" lon="2.68712">
        <ele>594</ele>
        <time>2024-09-21T07:19:34Z</time>
      </trkpt>
      <trkpt lat="42.443" lon="2.68716">
        <ele>594</ele>
        <time>2024-09-21T07:19:40Z</time>
      </trkpt>
      <trkpt lat="42.44298" lon="2.68718">
        <ele>595</ele>
        <time>2024-09-21T07:19:45Z</time>
      </trkpt>
      <trkpt lat="42.44295" lon="2.6872">
        <ele>596</ele>
        <time>2024-09-21T07:19:50Z</time>
      </trkpt>
      <trkpt lat="42.44293" lon="2.68723">
        <ele>598</ele>
        <time>2024-09-21T07:19:55Z</time>
      </trkpt>
      <trkpt lat="42.44293" lon="2.68727">
        <ele>597</ele>
        <time>2024-09-21T07:19:58Z</time>
      </trkpt>
      <trkpt lat="42.44291" lon="2.68731">
        <ele>597</ele>
        <time>2024-09-21T07:20:02Z</time>
      </trkpt>
      <trkpt lat="42.44289" lon="2.68733">
        <ele>598</ele>
        <time>2024-09-21T07:20:05Z</time>
      </trkpt>
      <trkpt lat="42.44287" lon="2.68736">
        <ele>598</ele>
        <time>2024-09-21T07:20:10Z</time>
      </trkpt>
      <trkpt lat="42.44285" lon="2.68738">
        <ele>599</ele>
        <time>2024-09-21T07:20:15Z</time>
      </trkpt>
      <trkpt lat="42.44282" lon="2.6874">
        <ele>599</ele>
        <time>2024-09-21T07:20:19Z</time>
      </trkpt>
      <trkpt lat="42.44279" lon="2.68742">
        <ele>600</ele>
        <time>2024-09-21T07:20:24Z</time>
      </trkpt>
      <trkpt lat="42.44277" lon="2.68741">
        <ele>600</ele>
        <time>2024-09-21T07:20:32Z</time>
      </trkpt>
      <trkpt lat="42.44275" lon="2.68743">
        <ele>602</ele>
        <time>2024-09-21T07:20:36Z</time>
      </trkpt>
      <trkpt lat="42.44271" lon="2.68742">
        <ele>602</ele>
        <time>2024-09-21T07:20:40Z</time>
      </trkpt>
      <trkpt lat="42.44268" lon="2.68744">
        <ele>603</ele>
        <time>2024-09-21T07:20:46Z</time>
      </trkpt>
      <trkpt lat="42.44265" lon="2.68745">
        <ele>604</ele>
        <time>2024-09-21T07:20:48Z</time>
      </trkpt>
      <trkpt lat="42.44262" lon="2.68747">
        <ele>605</ele>
        <time>2024-09-21T07:20:56Z</time>
      </trkpt>
      <trkpt lat="42.44259" lon="2.68748">
        <ele>605</ele>
        <time>2024-09-21T07:20:57Z</time>
      </trkpt>
      <trkpt lat="42.44257" lon="2.68748">
        <ele>607</ele>
        <time>2024-09-21T07:21:04Z</time>
      </trkpt>
      <trkpt lat="42.44253" lon="2.68746">
        <ele>608</ele>
        <time>2024-09-21T07:21:07Z</time>
      </trkpt>
      <trkpt lat="42.44251" lon="2.68747">
        <ele>610</ele>
        <time>2024-09-21T07:21:17Z</time>
      </trkpt>
      <trkpt lat="42.44248" lon="2.68748">
        <ele>612</ele>
        <time>2024-09-21T07:21:21Z</time>
      </trkpt>
      <trkpt lat="42.4424" lon="2.68747">
        <ele>614</ele>
        <time>2024-09-21T07:21:27Z</time>
      </trkpt>
      <trkpt lat="42.44238" lon="2.68742">
        <ele>613</ele>
        <time>2024-09-21T07:21:28Z</time>
      </trkpt>
      <trkpt lat="42.44237" lon="2.68743">
        <ele>613</ele>
        <time>2024-09-21T07:21:29Z</time>
      </trkpt>
      <trkpt lat="42.44235" lon="2.68747">
        <ele>614</ele>
        <time>2024-09-21T07:21:32Z</time>
      </trkpt>
      <trkpt lat="42.44236" lon="2.6875">
        <ele>616</ele>
        <time>2024-09-21T07:21:35Z</time>
      </trkpt>
      <trkpt lat="42.44236" lon="2.68754">
        <ele>615</ele>
        <time>2024-09-21T07:21:37Z</time>
      </trkpt>
      <trkpt lat="42.44235" lon="2.68756">
        <ele>616</ele>
        <time>2024-09-21T07:21:40Z</time>
      </trkpt>
      <trkpt lat="42.44232" lon="2.68758">
        <ele>618</ele>
        <time>2024-09-21T07:21:45Z</time>
      </trkpt>
      <trkpt lat="42.4423" lon="2.68761">
        <ele>618</ele>
        <time>2024-09-21T07:21:47Z</time>
      </trkpt>
      <trkpt lat="42.44228" lon="2.68762">
        <ele>618</ele>
        <time>2024-09-21T07:21:50Z</time>
      </trkpt>
      <trkpt lat="42.44226" lon="2.68764">
        <ele>619</ele>
        <time>2024-09-21T07:21:52Z</time>
      </trkpt>
      <trkpt lat="42.44223" lon="2.68766">
        <ele>619</ele>
        <time>2024-09-21T07:21:59Z</time>
      </trkpt>
      <trkpt lat="42.44221" lon="2.6877">
        <ele>620</ele>
        <time>2024-09-21T07:22:03Z</time>
      </trkpt>
      <trkpt lat="42.44218" lon="2.68771">
        <ele>621</ele>
        <time>2024-09-21T07:22:08Z</time>
      </trkpt>
      <trkpt lat="42.44214" lon="2.68773">
        <ele>622</ele>
        <time>2024-09-21T07:22:12Z</time>
      </trkpt>
      <trkpt lat="42.44216" lon="2.68775">
        <ele>622</ele>
        <time>2024-09-21T07:22:22Z</time>
      </trkpt>
      <trkpt lat="42.44214" lon="2.68777">
        <ele>623</ele>
        <time>2024-09-21T07:22:28Z</time>
      </trkpt>
      <trkpt lat="42.4421" lon="2.68778">
        <ele>622</ele>
        <time>2024-09-21T07:22:33Z</time>
      </trkpt>
      <trkpt lat="42.44207" lon="2.6878">
        <ele>623</ele>
        <time>2024-09-21T07:22:36Z</time>
      </trkpt>
      <trkpt lat="42.44204" lon="2.68781">
        <ele>625</ele>
        <time>2024-09-21T07:22:42Z</time>
      </trkpt>
      <trkpt lat="42.44201" lon="2.68782">
        <ele>626</ele>
        <time>2024-09-21T07:22:47Z</time>
      </trkpt>
      <trkpt lat="42.44198" lon="2.68785">
        <ele>627</ele>
        <time>2024-09-21T07:22:52Z</time>
      </trkpt>
      <trkpt lat="42.44197" lon="2.68788">
        <ele>628</ele>
        <time>2024-09-21T07:22:56Z</time>
      </trkpt>
      <trkpt lat="42.44195" lon="2.68792">
        <ele>628</ele>
        <time>2024-09-21T07:22:59Z</time>
      </trkpt>
      <trkpt lat="42.44194" lon="2.68796">
        <ele>628</ele>
        <time>2024-09-21T07:23:01Z</time>
      </trkpt>
      <trkpt lat="42.44192" lon="2.68799">
        <ele>627</ele>
        <time>2024-09-21T07:23:03Z</time>
      </trkpt>
      <trkpt lat="42.44189" lon="2.68801">
        <ele>627</ele>
        <time>2024-09-21T07:23:07Z</time>
      </trkpt>
      <trkpt lat="42.44187" lon="2.68803">
        <ele>628</ele>
        <time>2024-09-21T07:23:10Z</time>
      </trkpt>
      <trkpt lat="42.44185" lon="2.68805">
        <ele>627</ele>
        <time>2024-09-21T07:23:14Z</time>
      </trkpt>
      <trkpt lat="42.44182" lon="2.68806">
        <ele>628</ele>
        <time>2024-09-21T07:23:18Z</time>
      </trkpt>
      <trkpt lat="42.44179" lon="2.68807">
        <ele>628</ele>
        <time>2024-09-21T07:23:22Z</time>
      </trkpt>
      <trkpt lat="42.44176" lon="2.68809">
        <ele>630</ele>
        <time>2024-09-21T07:23:28Z</time>
      </trkpt>
      <trkpt lat="42.44174" lon="2.68812">
        <ele>631</ele>
        <time>2024-09-21T07:23:35Z</time>
      </trkpt>
      <trkpt lat="42.44171" lon="2.68814">
        <ele>634</ele>
        <time>2024-09-21T07:23:42Z</time>
      </trkpt>
      <trkpt lat="42.44167" lon="2.68816">
        <ele>636</ele>
        <time>2024-09-21T07:23:50Z</time>
      </trkpt>
      <trkpt lat="42.44166" lon="2.68819">
        <ele>635</ele>
        <time>2024-09-21T07:23:52Z</time>
      </trkpt>
      <trkpt lat="42.44164" lon="2.6882">
        <ele>636</ele>
        <time>2024-09-21T07:23:54Z</time>
      </trkpt>
      <trkpt lat="42.44163" lon="2.68823">
        <ele>636</ele>
        <time>2024-09-21T07:23:57Z</time>
      </trkpt>
      <trkpt lat="42.44161" lon="2.68827">
        <ele>637</ele>
        <time>2024-09-21T07:23:59Z</time>
      </trkpt>
      <trkpt lat="42.4416" lon="2.6883">
        <ele>637</ele>
        <time>2024-09-21T07:24:05Z</time>
      </trkpt>
      <trkpt lat="42.44157" lon="2.68832">
        <ele>637</ele>
        <time>2024-09-21T07:24:09Z</time>
      </trkpt>
      <trkpt lat="42.44155" lon="2.68835">
        <ele>638</ele>
        <time>2024-09-21T07:24:11Z</time>
      </trkpt>
      <trkpt lat="42.44153" lon="2.68838">
        <ele>637</ele>
        <time>2024-09-21T07:24:15Z</time>
      </trkpt>
      <trkpt lat="42.44153" lon="2.68841">
        <ele>638</ele>
        <time>2024-09-21T07:24:17Z</time>
      </trkpt>
      <trkpt lat="42.44154" lon="2.68845">
        <ele>639</ele>
        <time>2024-09-21T07:24:20Z</time>
      </trkpt>
      <trkpt lat="42.44155" lon="2.6885">
        <ele>640</ele>
        <time>2024-09-21T07:24:24Z</time>
      </trkpt>
      <trkpt lat="42.44157" lon="2.68853">
        <ele>641</ele>
        <time>2024-09-21T07:24:26Z</time>
      </trkpt>
      <trkpt lat="42.4416" lon="2.68856">
        <ele>641</ele>
        <time>2024-09-21T07:24:28Z</time>
      </trkpt>
      <trkpt lat="42.44162" lon="2.68858">
        <ele>642</ele>
        <time>2024-09-21T07:24:34Z</time>
      </trkpt>
      <trkpt lat="42.44163" lon="2.68862">
        <ele>642</ele>
        <time>2024-09-21T07:24:39Z</time>
      </trkpt>
      <trkpt lat="42.44163" lon="2.68867">
        <ele>642</ele>
        <time>2024-09-21T07:24:42Z</time>
      </trkpt>
      <trkpt lat="42.44163" lon="2.68871">
        <ele>642</ele>
        <time>2024-09-21T07:24:49Z</time>
      </trkpt>
      <trkpt lat="42.44162" lon="2.68875">
        <ele>643</ele>
        <time>2024-09-21T07:24:54Z</time>
      </trkpt>
      <trkpt lat="42.44162" lon="2.6888">
        <ele>645</ele>
        <time>2024-09-21T07:24:59Z</time>
      </trkpt>
      <trkpt lat="42.44161" lon="2.68884">
        <ele>645</ele>
        <time>2024-09-21T07:25:03Z</time>
      </trkpt>
      <trkpt lat="42.44159" lon="2.68888">
        <ele>648</ele>
        <time>2024-09-21T07:25:10Z</time>
      </trkpt>
      <trkpt lat="42.4416" lon="2.68891">
        <ele>647</ele>
        <time>2024-09-21T07:25:14Z</time>
      </trkpt>
      <trkpt lat="42.44161" lon="2.68894">
        <ele>647</ele>
        <time>2024-09-21T07:25:20Z</time>
      </trkpt>
      <trkpt lat="42.44162" lon="2.68897">
        <ele>647</ele>
        <time>2024-09-21T07:25:28Z</time>
      </trkpt>
      <trkpt lat="42.44164" lon="2.68901">
        <ele>647</ele>
        <time>2024-09-21T07:25:31Z</time>
      </trkpt>
      <trkpt lat="42.44166" lon="2.68905">
        <ele>648</ele>
        <time>2024-09-21T07:25:33Z</time>
      </trkpt>
      <trkpt lat="42.44166" lon="2.68908">
        <ele>648</ele>
        <time>2024-09-21T07:25:37Z</time>
      </trkpt>
      <trkpt lat="42.44165" lon="2.68912">
        <ele>649</ele>
        <time>2024-09-21T07:25:42Z</time>
      </trkpt>
      <trkpt lat="42.44166" lon="2.68914">
        <ele>650</ele>
        <time>2024-09-21T07:25:46Z</time>
      </trkpt>
      <trkpt lat="42.44167" lon="2.68918">
        <ele>649</ele>
        <time>2024-09-21T07:25:51Z</time>
      </trkpt>
      <trkpt lat="42.44166" lon="2.68921">
        <ele>649</ele>
        <time>2024-09-21T07:25:54Z</time>
      </trkpt>
      <trkpt lat="42.44166" lon="2.68925">
        <ele>650</ele>
        <time>2024-09-21T07:26:04Z</time>
      </trkpt>
      <trkpt lat="42.44167" lon="2.68929">
        <ele>650</ele>
        <time>2024-09-21T07:26:06Z</time>
      </trkpt>
      <trkpt lat="42.44168" lon="2.68933">
        <ele>651</ele>
        <time>2024-09-21T07:26:12Z</time>
      </trkpt>
      <trkpt lat="42.44166" lon="2.68935">
        <ele>651</ele>
        <time>2024-09-21T07:26:17Z</time>
      </trkpt>
      <trkpt lat="42.44164" lon="2.68934">
        <ele>652</ele>
        <time>2024-09-21T07:26:20Z</time>
      </trkpt>
      <trkpt lat="42.44162" lon="2.68937">
        <ele>652</ele>
        <time>2024-09-21T07:26:24Z</time>
      </trkpt>
      <trkpt lat="42.44161" lon="2.68941">
        <ele>652</ele>
        <time>2024-09-21T07:26:28Z</time>
      </trkpt>
      <trkpt lat="42.4416" lon="2.68944">
        <ele>651</ele>
        <time>2024-09-21T07:26:30Z</time>
      </trkpt>
      <trkpt lat="42.44159" lon="2.68948">
        <ele>652</ele>
        <time>2024-09-21T07:26:33Z</time>
      </trkpt>
      <trkpt lat="42.44158" lon="2.68952">
        <ele>652</ele>
        <time>2024-09-21T07:26:36Z</time>
      </trkpt>
      <trkpt lat="42.44156" lon="2.68955">
        <ele>653</ele>
        <time>2024-09-21T07:26:42Z</time>
      </trkpt>
      <trkpt lat="42.44153" lon="2.68957">
        <ele>654</ele>
        <time>2024-09-21T07:26:44Z</time>
      </trkpt>
      <trkpt lat="42.4415" lon="2.68957">
        <ele>655</ele>
        <time>2024-09-21T07:26:49Z</time>
      </trkpt>
      <trkpt lat="42.44147" lon="2.68958">
        <ele>656</ele>
        <time>2024-09-21T07:26:53Z</time>
      </trkpt>
      <trkpt lat="42.44147" lon="2.68962">
        <ele>658</ele>
        <time>2024-09-21T07:26:56Z</time>
      </trkpt>
      <trkpt lat="42.44149" lon="2.68965">
        <ele>659</ele>
        <time>2024-09-21T07:27:00Z</time>
      </trkpt>
      <trkpt lat="42.44148" lon="2.68968">
        <ele>659</ele>
        <time>2024-09-21T07:27:18Z</time>
      </trkpt>
      <trkpt lat="42.44149" lon="2.68968">
        <ele>661</ele>
        <time>2024-09-21T07:27:19Z</time>
      </trkpt>
      <trkpt lat="42.44151" lon="2.6897">
        <ele>661</ele>
        <time>2024-09-21T07:27:20Z</time>
      </trkpt>
      <trkpt lat="42.44154" lon="2.68972">
        <ele>660</ele>
        <time>2024-09-21T07:27:22Z</time>
      </trkpt>
      <trkpt lat="42.44156" lon="2.68974">
        <ele>661</ele>
        <time>2024-09-21T07:27:32Z</time>
      </trkpt>
      <trkpt lat="42.44157" lon="2.68977">
        <ele>661</ele>
        <time>2024-09-21T07:27:38Z</time>
      </trkpt>
      <trkpt lat="42.44158" lon="2.68981">
        <ele>659</ele>
        <time>2024-09-21T07:27:47Z</time>
      </trkpt>
      <trkpt lat="42.4416" lon="2.68984">
        <ele>658</ele>
        <time>2024-09-21T07:27:52Z</time>
      </trkpt>
      <trkpt lat="42.44163" lon="2.68986">
        <ele>659</ele>
        <time>2024-09-21T07:27:57Z</time>
      </trkpt>
      <trkpt lat="42.44161" lon="2.68988">
        <ele>659</ele>
        <time>2024-09-21T07:28:02Z</time>
      </trkpt>
      <trkpt lat="42.44159" lon="2.68989">
        <ele>661</ele>
        <time>2024-09-21T07:28:11Z</time>
      </trkpt>
      <trkpt lat="42.44158" lon="2.68993">
        <ele>662</ele>
        <time>2024-09-21T07:28:17Z</time>
      </trkpt>
      <trkpt lat="42.44159" lon="2.68996">
        <ele>663</ele>
        <time>2024-09-21T07:28:22Z</time>
      </trkpt>
      <trkpt lat="42.4416" lon="2.68999">
        <ele>664</ele>
        <time>2024-09-21T07:28:28Z</time>
      </trkpt>
      <trkpt lat="42.44162" lon="2.69002">
        <ele>664</ele>
        <time>2024-09-21T07:28:33Z</time>
      </trkpt>
      <trkpt lat="42.44161" lon="2.69004">
        <ele>664</ele>
        <time>2024-09-21T07:28:37Z</time>
      </trkpt>
      <trkpt lat="42.4416" lon="2.69007">
        <ele>665</ele>
        <time>2024-09-21T07:28:43Z</time>
      </trkpt>
      <trkpt lat="42.4416" lon="2.69011">
        <ele>665</ele>
        <time>2024-09-21T07:28:49Z</time>
      </trkpt>
      <trkpt lat="42.44159" lon="2.69014">
        <ele>666</ele>
        <time>2024-09-21T07:28:55Z</time>
      </trkpt>
      <trkpt lat="42.44158" lon="2.69018">
        <ele>667</ele>
        <time>2024-09-21T07:28:58Z</time>
      </trkpt>
      <trkpt lat="42.44158" lon="2.69022">
        <ele>667</ele>
        <time>2024-09-21T07:29:03Z</time>
      </trkpt>
      <trkpt lat="42.44158" lon="2.69025">
        <ele>669</ele>
        <time>2024-09-21T07:29:07Z</time>
      </trkpt>
      <trkpt lat="42.44156" lon="2.69029">
        <ele>670</ele>
        <time>2024-09-21T07:29:11Z</time>
      </trkpt>
      <trkpt lat="42.44155" lon="2.69032">
        <ele>670</ele>
        <time>2024-09-21T07:29:15Z</time>
      </trkpt>
      <trkpt lat="42.44153" lon="2.69035">
        <ele>670</ele>
        <time>2024-09-21T07:29:18Z</time>
      </trkpt>
      <trkpt lat="42.4415" lon="2.69037">
        <ele>670</ele>
        <time>2024-09-21T07:29:22Z</time>
      </trkpt>
      <trkpt lat="42.44148" lon="2.69041">
        <ele>671</ele>
        <time>2024-09-21T07:29:25Z</time>
      </trkpt>
      <trkpt lat="42.44146" lon="2.69044">
        <ele>672</ele>
        <time>2024-09-21T07:29:30Z</time>
      </trkpt>
      <trkpt lat="42.44146" lon="2.69047">
        <ele>672</ele>
        <time>2024-09-21T07:29:34Z</time>
      </trkpt>
      <trkpt lat="42.44145" lon="2.6905">
        <ele>671</ele>
        <time>2024-09-21T07:29:40Z</time>
      </trkpt>
      <trkpt lat="42.44144" lon="2.69054">
        <ele>673</ele>
        <time>2024-09-21T07:29:43Z</time>
      </trkpt>
      <trkpt lat="42.44142" lon="2.69057">
        <ele>673</ele>
        <time>2024-09-21T07:29:45Z</time>
      </trkpt>
      <trkpt lat="42.44141" lon="2.69061">
        <ele>674</ele>
        <time>2024-09-21T07:29:51Z</time>
      </trkpt>
      <trkpt lat="42.44138" lon="2.69064">
        <ele>676</ele>
        <time>2024-09-21T07:29:58Z</time>
      </trkpt>
      <trkpt lat="42.44137" lon="2.69068">
        <ele>677</ele>
        <time>2024-09-21T07:30:05Z</time>
      </trkpt>
      <trkpt lat="42.44135" lon="2.69072">
        <ele>680</ele>
        <time>2024-09-21T07:30:12Z</time>
      </trkpt>
      <trkpt lat="42.44134" lon="2.69076">
        <ele>682</ele>
        <time>2024-09-21T07:30:18Z</time>
      </trkpt>
      <trkpt lat="42.44133" lon="2.6908">
        <ele>683</ele>
        <time>2024-09-21T07:30:23Z</time>
      </trkpt>
      <trkpt lat="42.44131" lon="2.69082">
        <ele>683</ele>
        <time>2024-09-21T07:30:26Z</time>
      </trkpt>
      <trkpt lat="42.4413" lon="2.69086">
        <ele>684</ele>
        <time>2024-09-21T07:30:32Z</time>
      </trkpt>
      <trkpt lat="42.44128" lon="2.69088">
        <ele>685</ele>
        <time>2024-09-21T07:30:34Z</time>
      </trkpt>
      <trkpt lat="42.44126" lon="2.69088">
        <ele>685</ele>
        <time>2024-09-21T07:30:36Z</time>
      </trkpt>
      <trkpt lat="42.44123" lon="2.69089">
        <ele>684</ele>
        <time>2024-09-21T07:30:43Z</time>
      </trkpt>
      <trkpt lat="42.44121" lon="2.69091">
        <ele>684</ele>
        <time>2024-09-21T07:30:46Z</time>
      </trkpt>
      <trkpt lat="42.4412" lon="2.69095">
        <ele>685</ele>
        <time>2024-09-21T07:30:50Z</time>
      </trkpt>
      <trkpt lat="42.44121" lon="2.69098">
        <ele>686</ele>
        <time>2024-09-21T07:30:54Z</time>
      </trkpt>
      <trkpt lat="42.4412" lon="2.69102">
        <ele>687</ele>
        <time>2024-09-21T07:31:00Z</time>
      </trkpt>
      <trkpt lat="42.44118" lon="2.69102">
        <ele>689</ele>
        <time>2024-09-21T07:31:06Z</time>
      </trkpt>
      <trkpt lat="42.44116" lon="2.69105">
        <ele>690</ele>
        <time>2024-09-21T07:31:11Z</time>
      </trkpt>
      <trkpt lat="42.44114" lon="2.69109">
        <ele>690</ele>
        <time>2024-09-21T07:31:21Z</time>
      </trkpt>
      <trkpt lat="42.44112" lon="2.69111">
        <ele>692</ele>
        <time>2024-09-21T07:31:24Z</time>
      </trkpt>
      <trkpt lat="42.44109" lon="2.69111">
        <ele>691</ele>
        <time>2024-09-21T07:31:27Z</time>
      </trkpt>
      <trkpt lat="42.44108" lon="2.69114">
        <ele>693</ele>
        <time>2024-09-21T07:31:31Z</time>
      </trkpt>
      <trkpt lat="42.44109" lon="2.69117">
        <ele>692</ele>
        <time>2024-09-21T07:31:33Z</time>
      </trkpt>
      <trkpt lat="42.4411" lon="2.69121">
        <ele>693</ele>
        <time>2024-09-21T07:31:36Z</time>
      </trkpt>
      <trkpt lat="42.44111" lon="2.69124">
        <ele>693</ele>
        <time>2024-09-21T07:31:40Z</time>
      </trkpt>
      <trkpt lat="42.44113" lon="2.69127">
        <ele>695</ele>
        <time>2024-09-21T07:31:48Z</time>
      </trkpt>
      <trkpt lat="42.44115" lon="2.69131">
        <ele>696</ele>
        <time>2024-09-21T07:31:53Z</time>
      </trkpt>
      <trkpt lat="42.44117" lon="2.69134">
        <ele>695</ele>
        <time>2024-09-21T07:31:57Z</time>
      </trkpt>
      <trkpt lat="42.44118" lon="2.69138">
        <ele>695</ele>
        <time>2024-09-21T07:32:00Z</time>
      </trkpt>
      <trkpt lat="42.44115" lon="2.69139">
        <ele>695</ele>
        <time>2024-09-21T07:32:03Z</time>
      </trkpt>
      <trkpt lat="42.44113" lon="2.69138">
        <ele>695</ele>
        <time>2024-09-21T07:32:04Z</time>
      </trkpt>
      <trkpt lat="42.44111" lon="2.69136">
        <ele>694</ele>
        <time>2024-09-21T07:32:07Z</time>
      </trkpt>
      <trkpt lat="42.44108" lon="2.69134">
        <ele>695</ele>
        <time>2024-09-21T07:32:12Z</time>
      </trkpt>
      <trkpt lat="42.44105" lon="2.69133">
        <ele>695</ele>
        <time>2024-09-21T07:32:16Z</time>
      </trkpt>
      <trkpt lat="42.44103" lon="2.69131">
        <ele>696</ele>
        <time>2024-09-21T07:32:26Z</time>
      </trkpt>
      <trkpt lat="42.441" lon="2.69131">
        <ele>696</ele>
        <time>2024-09-21T07:32:30Z</time>
      </trkpt>
      <trkpt lat="42.44099" lon="2.69133">
        <ele>697</ele>
        <time>2024-09-21T07:32:36Z</time>
      </trkpt>
      <trkpt lat="42.44097" lon="2.69136">
        <ele>697</ele>
        <time>2024-09-21T07:32:39Z</time>
      </trkpt>
      <trkpt lat="42.44096" lon="2.69134">
        <ele>698</ele>
        <time>2024-09-21T07:32:46Z</time>
      </trkpt>
      <trkpt lat="42.44097" lon="2.69133">
        <ele>699</ele>
        <time>2024-09-21T07:32:51Z</time>
      </trkpt>
      <trkpt lat="42.44096" lon="2.6913">
        <ele>700</ele>
        <time>2024-09-21T07:32:56Z</time>
      </trkpt>
      <trkpt lat="42.44094" lon="2.69126">
        <ele>702</ele>
        <time>2024-09-21T07:33:00Z</time>
      </trkpt>
      <trkpt lat="42.44092" lon="2.69125">
        <ele>703</ele>
        <time>2024-09-21T07:33:04Z</time>
      </trkpt>
      <trkpt lat="42.4409" lon="2.69128">
        <ele>703</ele>
        <time>2024-09-21T07:33:07Z</time>
      </trkpt>
      <trkpt lat="42.44091" lon="2.69132">
        <ele>704</ele>
        <time>2024-09-21T07:33:12Z</time>
      </trkpt>
      <trkpt lat="42.44093" lon="2.69134">
        <ele>705</ele>
        <time>2024-09-21T07:33:13Z</time>
      </trkpt>
      <trkpt lat="42.44092" lon="2.69136">
        <ele>707</ele>
        <time>2024-09-21T07:33:17Z</time>
      </trkpt>
      <trkpt lat="42.44093" lon="2.69139">
        <ele>709</ele>
        <time>2024-09-21T07:33:21Z</time>
      </trkpt>
      <trkpt lat="42.44095" lon="2.69143">
        <ele>710</ele>
        <time>2024-09-21T07:33:23Z</time>
      </trkpt>
      <trkpt lat="42.44094" lon="2.69145">
        <ele>711</ele>
        <time>2024-09-21T07:33:26Z</time>
      </trkpt>
      <trkpt lat="42.44092" lon="2.69146">
        <ele>712</ele>
        <time>2024-09-21T07:33:28Z</time>
      </trkpt>
      <trkpt lat="42.44091" lon="2.6915">
        <ele>713</ele>
        <time>2024-09-21T07:33:32Z</time>
      </trkpt>
      <trkpt lat="42.44091" lon="2.69153">
        <ele>713</ele>
        <time>2024-09-21T07:33:34Z</time>
      </trkpt>
      <trkpt lat="42.44092" lon="2.69157">
        <ele>715</ele>
        <time>2024-09-21T07:33:38Z</time>
      </trkpt>
      <trkpt lat="42.44094" lon="2.69159">
        <ele>715</ele>
        <time>2024-09-21T07:33:43Z</time>
      </trkpt>
      <trkpt lat="42.44096" lon="2.69162">
        <ele>715</ele>
        <time>2024-09-21T07:33:44Z</time>
      </trkpt>
      <trkpt lat="42.44099" lon="2.69164">
        <ele>716</ele>
        <time>2024-09-21T07:33:47Z</time>
      </trkpt>
      <trkpt lat="42.44099" lon="2.69167">
        <ele>717</ele>
        <time>2024-09-21T07:33:55Z</time>
      </trkpt>
      <trkpt lat="42.44099" lon="2.6917">
        <ele>717</ele>
        <time>2024-09-21T07:34:06Z</time>
      </trkpt>
      <trkpt lat="42.44099" lon="2.69174">
        <ele>716</ele>
        <time>2024-09-21T07:34:10Z</time>
      </trkpt>
      <trkpt lat="42.44101" lon="2.69178">
        <ele>716</ele>
        <time>2024-09-21T07:34:14Z</time>
      </trkpt>
      <trkpt lat="42.44102" lon="2.69182">
        <ele>716</ele>
        <time>2024-09-21T07:34:20Z</time>
      </trkpt>
      <trkpt lat="42.44104" lon="2.69186">
        <ele>716</ele>
        <time>2024-09-21T07:34:23Z</time>
      </trkpt>
      <trkpt lat="42.44106" lon="2.6919">
        <ele>716</ele>
        <time>2024-09-21T07:34:28Z</time>
      </trkpt>
      <trkpt lat="42.44106" lon="2.69194">
        <ele>715</ele>
        <time>2024-09-21T07:34:34Z</time>
      </trkpt>
      <trkpt lat="42.44107" lon="2.69198">
        <ele>716</ele>
        <time>2024-09-21T07:34:40Z</time>
      </trkpt>
      <trkpt lat="42.44109" lon="2.69201">
        <ele>716</ele>
        <time>2024-09-21T07:34:41Z</time>
      </trkpt>
      <trkpt lat="42.44111" lon="2.69203">
        <ele>716</ele>
        <time>2024-09-21T07:34:45Z</time>
      </trkpt>
      <trkpt lat="42.44113" lon="2.69206">
        <ele>717</ele>
        <time>2024-09-21T07:35:00Z</time>
      </trkpt>
      <trkpt lat="42.44115" lon="2.69209">
        <ele>717</ele>
        <time>2024-09-21T07:35:05Z</time>
      </trkpt>
      <trkpt lat="42.44117" lon="2.69213">
        <ele>716</ele>
        <time>2024-09-21T07:35:10Z</time>
      </trkpt>
      <trkpt lat="42.44119" lon="2.69217">
        <ele>717</ele>
        <time>2024-09-21T07:35:17Z</time>
      </trkpt>
      <trkpt lat="42.44121" lon="2.69221">
        <ele>718</ele>
        <time>2024-09-21T07:35:21Z</time>
      </trkpt>
      <trkpt lat="42.44123" lon="2.69224">
        <ele>720</ele>
        <time>2024-09-21T07:35:36Z</time>
      </trkpt>
      <trkpt lat="42.44124" lon="2.69227">
        <ele>720</ele>
        <time>2024-09-21T07:35:39Z</time>
      </trkpt>
      <trkpt lat="42.44126" lon="2.69231">
        <ele>721</ele>
        <time>2024-09-21T07:35:42Z</time>
      </trkpt>
      <trkpt lat="42.44128" lon="2.69235">
        <ele>721</ele>
        <time>2024-09-21T07:35:49Z</time>
      </trkpt>
      <trkpt lat="42.4413" lon="2.69239">
        <ele>721</ele>
        <time>2024-09-21T07:35:51Z</time>
      </trkpt>
      <trkpt lat="42.44131" lon="2.69244">
        <ele>723</ele>
        <time>2024-09-21T07:36:01Z</time>
      </trkpt>
      <trkpt lat="42.44132" lon="2.69249">
        <ele>723</ele>
        <time>2024-09-21T07:36:07Z</time>
      </trkpt>
      <trkpt lat="42.44134" lon="2.69254">
        <ele>723</ele>
        <time>2024-09-21T07:36:11Z</time>
      </trkpt>
      <trkpt lat="42.44135" lon="2.69258">
        <ele>724</ele>
        <time>2024-09-21T07:36:19Z</time>
      </trkpt>
      <trkpt lat="42.44137" lon="2.69262">
        <ele>724</ele>
        <time>2024-09-21T07:36:23Z</time>
      </trkpt>
      <trkpt lat="42.44136" lon="2.69266">
        <ele>725</ele>
        <time>2024-09-21T07:36:29Z</time>
      </trkpt>
      <trkpt lat="42.44136" lon="2.6927">
        <ele>726</ele>
        <time>2024-09-21T07:36:33Z</time>
      </trkpt>
      <trkpt lat="42.44136" lon="2.69275">
        <ele>729</ele>
        <time>2024-09-21T07:36:42Z</time>
      </trkpt>
      <trkpt lat="42.44138" lon="2.69275">
        <ele>727</ele>
        <time>2024-09-21T07:36:56Z</time>
      </trkpt>
      <trkpt lat="42.44137" lon="2.69274">
        <ele>729</ele>
        <time>2024-09-21T07:37:52Z</time>
      </trkpt>
      <trkpt lat="42.44137" lon="2.69277">
        <ele>730</ele>
        <time>2024-09-21T07:38:01Z</time>
      </trkpt>
      <trkpt lat="42.44137" lon="2.6928">
        <ele>729</ele>
        <time>2024-09-21T07:38:03Z</time>
      </trkpt>
      <trkpt lat="42.44136" lon="2.69284">
        <ele>729</ele>
        <time>2024-09-21T07:38:21Z</time>
      </trkpt>
      <trkpt lat="42.44136" lon="2.69288">
        <ele>729</ele>
        <time>2024-09-21T07:38:23Z</time>
      </trkpt>
      <trkpt lat="42.44135" lon="2.69293">
        <ele>730</ele>
        <time>2024-09-21T07:38:28Z</time>
      </trkpt>
      <trkpt lat="42.44134" lon="2.69296">
        <ele>731</ele>
        <time>2024-09-21T07:38:31Z</time>
      </trkpt>
      <trkpt lat="42.44132" lon="2.69299">
        <ele>731</ele>
        <time>2024-09-21T07:38:34Z</time>
      </trkpt>
      <trkpt lat="42.44131" lon="2.69302">
        <ele>731</ele>
        <time>2024-09-21T07:38:37Z</time>
      </trkpt>
      <trkpt lat="42.44129" lon="2.69306">
        <ele>732</ele>
        <time>2024-09-21T07:38:40Z</time>
      </trkpt>
      <trkpt lat="42.44127" lon="2.69309">
        <ele>733</ele>
        <time>2024-09-21T07:38:44Z</time>
      </trkpt>
      <trkpt lat="42.44124" lon="2.69313">
        <ele>734</ele>
        <time>2024-09-21T07:38:47Z</time>
      </trkpt>
      <trkpt lat="42.44122" lon="2.69316">
        <ele>734</ele>
        <time>2024-09-21T07:38:52Z</time>
      </trkpt>
      <trkpt lat="42.44119" lon="2.69319">
        <ele>735</ele>
        <time>2024-09-21T07:38:56Z</time>
      </trkpt>
      <trkpt lat="42.44117" lon="2.69322">
        <ele>735</ele>
        <time>2024-09-21T07:38:59Z</time>
      </trkpt>
      <trkpt lat="42.44114" lon="2.69324">
        <ele>736</ele>
        <time>2024-09-21T07:39:03Z</time>
      </trkpt>
      <trkpt lat="42.44112" lon="2.69326">
        <ele>736</ele>
        <time>2024-09-21T07:39:09Z</time>
      </trkpt>
      <trkpt lat="42.44109" lon="2.69328">
        <ele>736</ele>
        <time>2024-09-21T07:39:12Z</time>
      </trkpt>
      <trkpt lat="42.44106" lon="2.69329">
        <ele>736</ele>
        <time>2024-09-21T07:39:16Z</time>
      </trkpt>
      <trkpt lat="42.44103" lon="2.69331">
        <ele>737</ele>
        <time>2024-09-21T07:39:19Z</time>
      </trkpt>
      <trkpt lat="42.441" lon="2.69333">
        <ele>737</ele>
        <time>2024-09-21T07:39:23Z</time>
      </trkpt>
      <trkpt lat="42.44097" lon="2.69334">
        <ele>737</ele>
        <time>2024-09-21T07:39:26Z</time>
      </trkpt>
      <trkpt lat="42.44094" lon="2.69335">
        <ele>737</ele>
        <time>2024-09-21T07:39:30Z</time>
      </trkpt>
      <trkpt lat="42.44092" lon="2.69337">
        <ele>737</ele>
        <time>2024-09-21T07:39:32Z</time>
      </trkpt>
      <trkpt lat="42.44088" lon="2.69339">
        <ele>738</ele>
        <time>2024-09-21T07:39:34Z</time>
      </trkpt>
      <trkpt lat="42.44085" lon="2.6934">
        <ele>737</ele>
        <time>2024-09-21T07:39:37Z</time>
      </trkpt>
      <trkpt lat="42.44082" lon="2.69342">
        <ele>737</ele>
        <time>2024-09-21T07:39:41Z</time>
      </trkpt>
      <trkpt lat="42.44079" lon="2.69343">
        <ele>738</ele>
        <time>2024-09-21T07:39:46Z</time>
      </trkpt>
      <trkpt lat="42.44076" lon="2.69344">
        <ele>739</ele>
        <time>2024-09-21T07:39:49Z</time>
      </trkpt>
      <trkpt lat="42.44073" lon="2.69345">
        <ele>739</ele>
        <time>2024-09-21T07:39:52Z</time>
      </trkpt>
      <trkpt lat="42.4407" lon="2.69346">
        <ele>740</ele>
        <time>2024-09-21T07:39:55Z</time>
      </trkpt>
      <trkpt lat="42.44066" lon="2.69347">
        <ele>741</ele>
        <time>2024-09-21T07:39:59Z</time>
      </trkpt>
      <trkpt lat="42.44063" lon="2.69347">
        <ele>742</ele>
        <time>2024-09-21T07:40:02Z</time>
      </trkpt>
      <trkpt lat="42.4406" lon="2.69348">
        <ele>741</ele>
        <time>2024-09-21T07:40:05Z</time>
      </trkpt>
      <trkpt lat="42.44057" lon="2.69348">
        <ele>741</ele>
        <time>2024-09-21T07:40:08Z</time>
      </trkpt>
      <trkpt lat="42.44054" lon="2.69349">
        <ele>741</ele>
        <time>2024-09-21T07:40:14Z</time>
      </trkpt>
      <trkpt lat="42.44051" lon="2.69349">
        <ele>739</ele>
        <time>2024-09-21T07:40:19Z</time>
      </trkpt>
      <trkpt lat="42.44047" lon="2.6935">
        <ele>738</ele>
        <time>2024-09-21T07:40:22Z</time>
      </trkpt>
      <trkpt lat="42.44044" lon="2.69351">
        <ele>739</ele>
        <time>2024-09-21T07:40:27Z</time>
      </trkpt>
      <trkpt lat="42.44041" lon="2.69351">
        <ele>739</ele>
        <time>2024-09-21T07:40:30Z</time>
      </trkpt>
      <trkpt lat="42.44038" lon="2.69352">
        <ele>738</ele>
        <time>2024-09-21T07:40:33Z</time>
      </trkpt>
      <trkpt lat="42.44034" lon="2.69353">
        <ele>737</ele>
        <time>2024-09-21T07:40:36Z</time>
      </trkpt>
      <trkpt lat="42.44031" lon="2.69355">
        <ele>736</ele>
        <time>2024-09-21T07:40:39Z</time>
      </trkpt>
      <trkpt lat="42.44028" lon="2.69357">
        <ele>736</ele>
        <time>2024-09-21T07:40:43Z</time>
      </trkpt>
      <trkpt lat="42.44025" lon="2.6936">
        <ele>736</ele>
        <time>2024-09-21T07:40:46Z</time>
      </trkpt>
      <trkpt lat="42.44023" lon="2.69362">
        <ele>735</ele>
        <time>2024-09-21T07:40:49Z</time>
      </trkpt>
      <trkpt lat="42.4402" lon="2.69365">
        <ele>735</ele>
        <time>2024-09-21T07:40:53Z</time>
      </trkpt>
      <trkpt lat="42.44016" lon="2.69367">
        <ele>736</ele>
        <time>2024-09-21T07:40:56Z</time>
      </trkpt>
      <trkpt lat="42.44013" lon="2.69369">
        <ele>735</ele>
        <time>2024-09-21T07:40:59Z</time>
      </trkpt>
      <trkpt lat="42.4401" lon="2.6937">
        <ele>735</ele>
        <time>2024-09-21T07:41:02Z</time>
      </trkpt>
      <trkpt lat="42.44006" lon="2.69371">
        <ele>735</ele>
        <time>2024-09-21T07:41:05Z</time>
      </trkpt>
      <trkpt lat="42.44003" lon="2.69372">
        <ele>736</ele>
        <time>2024-09-21T07:41:08Z</time>
      </trkpt>
      <trkpt lat="42.44" lon="2.69373">
        <ele>736</ele>
        <time>2024-09-21T07:41:11Z</time>
      </trkpt>
      <trkpt lat="42.43997" lon="2.69374">
        <ele>735</ele>
        <time>2024-09-21T07:41:13Z</time>
      </trkpt>
      <trkpt lat="42.43994" lon="2.69375">
        <ele>735</ele>
        <time>2024-09-21T07:41:17Z</time>
      </trkpt>
      <trkpt lat="42.43991" lon="2.69376">
        <ele>734</ele>
        <time>2024-09-21T07:41:19Z</time>
      </trkpt>
      <trkpt lat="42.43988" lon="2.69377">
        <ele>736</ele>
        <time>2024-09-21T07:41:21Z</time>
      </trkpt>
      <trkpt lat="42.43985" lon="2.69378">
        <ele>736</ele>
        <time>2024-09-21T07:41:25Z</time>
      </trkpt>
      <trkpt lat="42.43982" lon="2.69379">
        <ele>737</ele>
        <time>2024-09-21T07:41:28Z</time>
      </trkpt>
      <trkpt lat="42.43978" lon="2.6938">
        <ele>739</ele>
        <time>2024-09-21T07:41:33Z</time>
      </trkpt>
      <trkpt lat="42.43975" lon="2.69382">
        <ele>739</ele>
        <time>2024-09-21T07:41:36Z</time>
      </trkpt>
      <trkpt lat="42.43972" lon="2.69384">
        <ele>739</ele>
        <time>2024-09-21T07:41:38Z</time>
      </trkpt>
      <trkpt lat="42.43969" lon="2.69382">
        <ele>739</ele>
        <time>2024-09-21T07:41:39Z</time>
      </trkpt>
      <trkpt lat="42.43967" lon="2.69383">
        <ele>739</ele>
        <time>2024-09-21T07:41:43Z</time>
      </trkpt>
      <trkpt lat="42.43964" lon="2.69384">
        <ele>741</ele>
        <time>2024-09-21T07:41:47Z</time>
      </trkpt>
      <trkpt lat="42.43962" lon="2.69387">
        <ele>741</ele>
        <time>2024-09-21T07:41:53Z</time>
      </trkpt>
      <trkpt lat="42.43959" lon="2.6939">
        <ele>739</ele>
        <time>2024-09-21T07:42:01Z</time>
      </trkpt>
      <trkpt lat="42.43957" lon="2.69393">
        <ele>742</ele>
        <time>2024-09-21T07:42:08Z</time>
      </trkpt>
      <trkpt lat="42.43956" lon="2.69397">
        <ele>742</ele>
        <time>2024-09-21T07:42:12Z</time>
      </trkpt>
      <trkpt lat="42.43958" lon="2.694">
        <ele>741</ele>
        <time>2024-09-21T07:42:14Z</time>
      </trkpt>
      <trkpt lat="42.4396" lon="2.69403">
        <ele>741</ele>
        <time>2024-09-21T07:42:16Z</time>
      </trkpt>
      <trkpt lat="42.43961" lon="2.69407">
        <ele>740</ele>
        <time>2024-09-21T07:42:20Z</time>
      </trkpt>
      <trkpt lat="42.43963" lon="2.6941">
        <ele>739</ele>
        <time>2024-09-21T07:42:23Z</time>
      </trkpt>
      <trkpt lat="42.43964" lon="2.69414">
        <ele>737</ele>
        <time>2024-09-21T07:42:29Z</time>
      </trkpt>
      <trkpt lat="42.43966" lon="2.69417">
        <ele>738</ele>
        <time>2024-09-21T07:42:31Z</time>
      </trkpt>
      <trkpt lat="42.43967" lon="2.69422">
        <ele>740</ele>
        <time>2024-09-21T07:42:34Z</time>
      </trkpt>
      <trkpt lat="42.43967" lon="2.69426">
        <ele>740</ele>
        <time>2024-09-21T07:42:36Z</time>
      </trkpt>
      <trkpt lat="42.43968" lon="2.6943">
        <ele>740</ele>
        <time>2024-09-21T07:42:40Z</time>
      </trkpt>
      <trkpt lat="42.43968" lon="2.69434">
        <ele>740</ele>
        <time>2024-09-21T07:42:43Z</time>
      </trkpt>
      <trkpt lat="42.43968" lon="2.69438">
        <ele>741</ele>
        <time>2024-09-21T07:42:48Z</time>
      </trkpt>
      <trkpt lat="42.43969" lon="2.69443">
        <ele>740</ele>
        <time>2024-09-21T07:42:51Z</time>
      </trkpt>
      <trkpt lat="42.4397" lon="2.69448">
        <ele>741</ele>
        <time>2024-09-21T07:42:56Z</time>
      </trkpt>
      <trkpt lat="42.43972" lon="2.69452">
        <ele>744</ele>
        <time>2024-09-21T07:43:02Z</time>
      </trkpt>
      <trkpt lat="42.43973" lon="2.69456">
        <ele>744</ele>
        <time>2024-09-21T07:43:05Z</time>
      </trkpt>
      <trkpt lat="42.43974" lon="2.6946">
        <ele>743</ele>
        <time>2024-09-21T07:43:07Z</time>
      </trkpt>
      <trkpt lat="42.43976" lon="2.69465">
        <ele>741</ele>
        <time>2024-09-21T07:43:13Z</time>
      </trkpt>
      <trkpt lat="42.43978" lon="2.69469">
        <ele>743</ele>
        <time>2024-09-21T07:43:15Z</time>
      </trkpt>
      <trkpt lat="42.43979" lon="2.69474">
        <ele>742</ele>
        <time>2024-09-21T07:43:21Z</time>
      </trkpt>
      <trkpt lat="42.43981" lon="2.69478">
        <ele>741</ele>
        <time>2024-09-21T07:43:25Z</time>
      </trkpt>
      <trkpt lat="42.43982" lon="2.69483">
        <ele>743</ele>
        <time>2024-09-21T07:43:27Z</time>
      </trkpt>
      <trkpt lat="42.43982" lon="2.69487">
        <ele>743</ele>
        <time>2024-09-21T07:43:30Z</time>
      </trkpt>
      <trkpt lat="42.43981" lon="2.69492">
        <ele>742</ele>
        <time>2024-09-21T07:43:34Z</time>
      </trkpt>
      <trkpt lat="42.4398" lon="2.69495">
        <ele>741</ele>
        <time>2024-09-21T07:43:38Z</time>
      </trkpt>
      <trkpt lat="42.43979" lon="2.69499">
        <ele>742</ele>
        <time>2024-09-21T07:43:41Z</time>
      </trkpt>
      <trkpt lat="42.43977" lon="2.69503">
        <ele>742</ele>
        <time>2024-09-21T07:43:44Z</time>
      </trkpt>
      <trkpt lat="42.43975" lon="2.69506">
        <ele>743</ele>
        <time>2024-09-21T07:43:46Z</time>
      </trkpt>
      <trkpt lat="42.43973" lon="2.69509">
        <ele>743</ele>
        <time>2024-09-21T07:43:51Z</time>
      </trkpt>
      <trkpt lat="42.43971" lon="2.69513">
        <ele>743</ele>
        <time>2024-09-21T07:43:55Z</time>
      </trkpt>
      <trkpt lat="42.43968" lon="2.69516">
        <ele>743</ele>
        <time>2024-09-21T07:43:58Z</time>
      </trkpt>
      <trkpt lat="42.43967" lon="2.6952">
        <ele>744</ele>
        <time>2024-09-21T07:44:00Z</time>
      </trkpt>
      <trkpt lat="42.43965" lon="2.69523">
        <ele>744</ele>
        <time>2024-09-21T07:44:03Z</time>
      </trkpt>
      <trkpt lat="42.43963" lon="2.69525">
        <ele>745</ele>
        <time>2024-09-21T07:44:06Z</time>
      </trkpt>
      <trkpt lat="42.4396" lon="2.69527">
        <ele>746</ele>
        <time>2024-09-21T07:44:11Z</time>
      </trkpt>
      <trkpt lat="42.43958" lon="2.6953">
        <ele>746</ele>
        <time>2024-09-21T07:44:14Z</time>
      </trkpt>
      <trkpt lat="42.43956" lon="2.69533">
        <ele>746</ele>
        <time>2024-09-21T07:44:17Z</time>
      </trkpt>
      <trkpt lat="42.43953" lon="2.69536">
        <ele>746</ele>
        <time>2024-09-21T07:44:19Z</time>
      </trkpt>
      <trkpt lat="42.4395" lon="2.69538">
        <ele>746</ele>
        <time>2024-09-21T07:44:23Z</time>
      </trkpt>
      <trkpt lat="42.43948" lon="2.69541">
        <ele>747</ele>
        <time>2024-09-21T07:44:26Z</time>
      </trkpt>
      <trkpt lat="42.43945" lon="2.69544">
        <ele>746</ele>
        <time>2024-09-21T07:44:31Z</time>
      </trkpt>
      <trkpt lat="42.43942" lon="2.69546">
        <ele>745</ele>
        <time>2024-09-21T07:44:34Z</time>
      </trkpt>
      <trkpt lat="42.43939" lon="2.69548">
        <ele>745</ele>
        <time>2024-09-21T07:44:35Z</time>
      </trkpt>
      <trkpt lat="42.43937" lon="2.69551">
        <ele>746</ele>
        <time>2024-09-21T07:44:41Z</time>
      </trkpt>
      <trkpt lat="42.43934" lon="2.69551">
        <ele>747</ele>
        <time>2024-09-21T07:44:46Z</time>
      </trkpt>
      <trkpt lat="42.4393" lon="2.69554">
        <ele>747</ele>
        <time>2024-09-21T07:44:48Z</time>
      </trkpt>
      <trkpt lat="42.43928" lon="2.69557">
        <ele>749</ele>
        <time>2024-09-21T07:44:53Z</time>
      </trkpt>
      <trkpt lat="42.43926" lon="2.6956">
        <ele>749</ele>
        <time>2024-09-21T07:44:56Z</time>
      </trkpt>
      <trkpt lat="42.43924" lon="2.69564">
        <ele>751</ele>
        <time>2024-09-21T07:45:01Z</time>
      </trkpt>
      <trkpt lat="42.43922" lon="2.69567">
        <ele>752</ele>
        <time>2024-09-21T07:45:06Z</time>
      </trkpt>
      <trkpt lat="42.4392" lon="2.6957">
        <ele>752</ele>
        <time>2024-09-21T07:45:08Z</time>
      </trkpt>
      <trkpt lat="42.43918" lon="2.69574">
        <ele>754</ele>
        <time>2024-09-21T07:45:13Z</time>
      </trkpt>
      <trkpt lat="42.43916" lon="2.69577">
        <ele>753</ele>
        <time>2024-09-21T07:45:16Z</time>
      </trkpt>
      <trkpt lat="42.43914" lon="2.69582">
        <ele>753</ele>
        <time>2024-09-21T07:45:20Z</time>
      </trkpt>
      <trkpt lat="42.43914" lon="2.69587">
        <ele>752</ele>
        <time>2024-09-21T07:45:23Z</time>
      </trkpt>
      <trkpt lat="42.43913" lon="2.69592">
        <ele>752</ele>
        <time>2024-09-21T07:45:26Z</time>
      </trkpt>
      <trkpt lat="42.43912" lon="2.69596">
        <ele>751</ele>
        <time>2024-09-21T07:45:29Z</time>
      </trkpt>
      <trkpt lat="42.43912" lon="2.696">
        <ele>751</ele>
        <time>2024-09-21T07:45:31Z</time>
      </trkpt>
      <trkpt lat="42.4391" lon="2.69603">
        <ele>751</ele>
        <time>2024-09-21T07:45:34Z</time>
      </trkpt>
      <trkpt lat="42.43908" lon="2.69606">
        <ele>750</ele>
        <time>2024-09-21T07:45:37Z</time>
      </trkpt>
      <trkpt lat="42.43905" lon="2.69608">
        <ele>751</ele>
        <time>2024-09-21T07:45:40Z</time>
      </trkpt>
      <trkpt lat="42.43903" lon="2.69611">
        <ele>750</ele>
        <time>2024-09-21T07:45:42Z</time>
      </trkpt>
      <trkpt lat="42.43901" lon="2.69614">
        <ele>751</ele>
        <time>2024-09-21T07:45:45Z</time>
      </trkpt>
      <trkpt lat="42.43899" lon="2.69618">
        <ele>751</ele>
        <time>2024-09-21T07:45:48Z</time>
      </trkpt>
      <trkpt lat="42.43897" lon="2.69621">
        <ele>752</ele>
        <time>2024-09-21T07:45:51Z</time>
      </trkpt>
      <trkpt lat="42.43898" lon="2.69626">
        <ele>751</ele>
        <time>2024-09-21T07:45:53Z</time>
      </trkpt>
      <trkpt lat="42.43898" lon="2.6963">
        <ele>751</ele>
        <time>2024-09-21T07:45:56Z</time>
      </trkpt>
      <trkpt lat="42.43898" lon="2.69635">
        <ele>751</ele>
        <time>2024-09-21T07:45:59Z</time>
      </trkpt>
      <trkpt lat="42.43897" lon="2.6964">
        <ele>751</ele>
        <time>2024-09-21T07:46:02Z</time>
      </trkpt>
      <trkpt lat="42.43896" lon="2.69645">
        <ele>749</ele>
        <time>2024-09-21T07:46:06Z</time>
      </trkpt>
      <trkpt lat="42.43894" lon="2.69648">
        <ele>749</ele>
        <time>2024-09-21T07:46:09Z</time>
      </trkpt>
      <trkpt lat="42.43891" lon="2.69651">
        <ele>750</ele>
        <time>2024-09-21T07:46:12Z</time>
      </trkpt>
      <trkpt lat="42.43889" lon="2.69654">
        <ele>748</ele>
        <time>2024-09-21T07:46:15Z</time>
      </trkpt>
      <trkpt lat="42.43888" lon="2.69658">
        <ele>748</ele>
        <time>2024-09-21T07:46:17Z</time>
      </trkpt>
      <trkpt lat="42.43885" lon="2.69661">
        <ele>749</ele>
        <time>2024-09-21T07:46:20Z</time>
      </trkpt>
      <trkpt lat="42.43884" lon="2.69665">
        <ele>748</ele>
        <time>2024-09-21T07:46:23Z</time>
      </trkpt>
      <trkpt lat="42.43883" lon="2.69669">
        <ele>748</ele>
        <time>2024-09-21T07:46:26Z</time>
      </trkpt>
      <trkpt lat="42.43881" lon="2.69673">
        <ele>749</ele>
        <time>2024-09-21T07:46:30Z</time>
      </trkpt>
      <trkpt lat="42.4388" lon="2.69677">
        <ele>748</ele>
        <time>2024-09-21T07:46:33Z</time>
      </trkpt>
      <trkpt lat="42.43878" lon="2.69682">
        <ele>747</ele>
        <time>2024-09-21T07:46:36Z</time>
      </trkpt>
      <trkpt lat="42.43877" lon="2.69686">
        <ele>747</ele>
        <time>2024-09-21T07:46:39Z</time>
      </trkpt>
      <trkpt lat="42.43875" lon="2.6969">
        <ele>748</ele>
        <time>2024-09-21T07:46:42Z</time>
      </trkpt>
      <trkpt lat="42.43874" lon="2.69694">
        <ele>747</ele>
        <time>2024-09-21T07:46:45Z</time>
      </trkpt>
      <trkpt lat="42.43873" lon="2.69699">
        <ele>747</ele>
        <time>2024-09-21T07:46:50Z</time>
      </trkpt>
      <trkpt lat="42.43871" lon="2.69703">
        <ele>747</ele>
        <time>2024-09-21T07:46:54Z</time>
      </trkpt>
      <trkpt lat="42.43868" lon="2.69706">
        <ele>746</ele>
        <time>2024-09-21T07:46:57Z</time>
      </trkpt>
      <trkpt lat="42.43865" lon="2.69707">
        <ele>747</ele>
        <time>2024-09-21T07:47:01Z</time>
      </trkpt>
      <trkpt lat="42.43862" lon="2.69708">
        <ele>746</ele>
        <time>2024-09-21T07:47:04Z</time>
      </trkpt>
      <trkpt lat="42.43859" lon="2.6971">
        <ele>747</ele>
        <time>2024-09-21T07:47:06Z</time>
      </trkpt>
      <trkpt lat="42.43856" lon="2.6971">
        <ele>748</ele>
        <time>2024-09-21T07:47:08Z</time>
      </trkpt>
      <trkpt lat="42.43852" lon="2.69711">
        <ele>748</ele>
        <time>2024-09-21T07:47:12Z</time>
      </trkpt>
      <trkpt lat="42.43849" lon="2.69711">
        <ele>748</ele>
        <time>2024-09-21T07:47:13Z</time>
      </trkpt>
      <trkpt lat="42.43846" lon="2.69712">
        <ele>750</ele>
        <time>2024-09-21T07:47:16Z</time>
      </trkpt>
      <trkpt lat="42.43843" lon="2.69713">
        <ele>749</ele>
        <time>2024-09-21T07:47:19Z</time>
      </trkpt>
      <trkpt lat="42.43839" lon="2.69716">
        <ele>750</ele>
        <time>2024-09-21T07:47:23Z</time>
      </trkpt>
      <trkpt lat="42.43836" lon="2.69719">
        <ele>749</ele>
        <time>2024-09-21T07:47:27Z</time>
      </trkpt>
      <trkpt lat="42.43834" lon="2.69723">
        <ele>748</ele>
        <time>2024-09-21T07:47:30Z</time>
      </trkpt>
      <trkpt lat="42.43832" lon="2.69727">
        <ele>748</ele>
        <time>2024-09-21T07:47:33Z</time>
      </trkpt>
      <trkpt lat="42.4383" lon="2.69732">
        <ele>748</ele>
        <time>2024-09-21T07:47:37Z</time>
      </trkpt>
      <trkpt lat="42.43829" lon="2.69736">
        <ele>747</ele>
        <time>2024-09-21T07:47:40Z</time>
      </trkpt>
      <trkpt lat="42.43828" lon="2.6974">
        <ele>747</ele>
        <time>2024-09-21T07:47:42Z</time>
      </trkpt>
      <trkpt lat="42.43827" lon="2.69744">
        <ele>747</ele>
        <time>2024-09-21T07:47:44Z</time>
      </trkpt>
      <trkpt lat="42.43825" lon="2.69747">
        <ele>747</ele>
        <time>2024-09-21T07:47:48Z</time>
      </trkpt>
      <trkpt lat="42.43823" lon="2.6975">
        <ele>747</ele>
        <time>2024-09-21T07:47:52Z</time>
      </trkpt>
      <trkpt lat="42.43822" lon="2.69754">
        <ele>746</ele>
        <time>2024-09-21T07:47:54Z</time>
      </trkpt>
      <trkpt lat="42.43821" lon="2.69758">
        <ele>748</ele>
        <time>2024-09-21T07:47:56Z</time>
      </trkpt>
      <trkpt lat="42.43819" lon="2.69762">
        <ele>747</ele>
        <time>2024-09-21T07:47:58Z</time>
      </trkpt>
      <trkpt lat="42.43818" lon="2.69766">
        <ele>747</ele>
        <time>2024-09-21T07:48:00Z</time>
      </trkpt>
      <trkpt lat="42.43819" lon="2.69769">
        <ele>747</ele>
        <time>2024-09-21T07:48:03Z</time>
      </trkpt>
      <trkpt lat="42.43819" lon="2.69772">
        <ele>747</ele>
        <time>2024-09-21T07:48:07Z</time>
      </trkpt>
      <trkpt lat="42.43818" lon="2.69776">
        <ele>747</ele>
        <time>2024-09-21T07:48:12Z</time>
      </trkpt>
      <trkpt lat="42.43817" lon="2.69781">
        <ele>744</ele>
        <time>2024-09-21T07:48:15Z</time>
      </trkpt>
      <trkpt lat="42.43815" lon="2.69784">
        <ele>746</ele>
        <time>2024-09-21T07:48:17Z</time>
      </trkpt>
      <trkpt lat="42.43812" lon="2.69787">
        <ele>746</ele>
        <time>2024-09-21T07:48:20Z</time>
      </trkpt>
      <trkpt lat="42.4381" lon="2.69791">
        <ele>745</ele>
        <time>2024-09-21T07:48:23Z</time>
      </trkpt>
      <trkpt lat="42.43807" lon="2.69793">
        <ele>745</ele>
        <time>2024-09-21T07:48:26Z</time>
      </trkpt>
      <trkpt lat="42.43803" lon="2.69796">
        <ele>745</ele>
        <time>2024-09-21T07:48:29Z</time>
      </trkpt>
      <trkpt lat="42.438" lon="2.69796">
        <ele>746</ele>
        <time>2024-09-21T07:48:32Z</time>
      </trkpt>
      <trkpt lat="42.43797" lon="2.69796">
        <ele>746</ele>
        <time>2024-09-21T07:48:35Z</time>
      </trkpt>
      <trkpt lat="42.43794" lon="2.69797">
        <ele>745</ele>
        <time>2024-09-21T07:48:39Z</time>
      </trkpt>
      <trkpt lat="42.43791" lon="2.69799">
        <ele>744</ele>
        <time>2024-09-21T07:48:42Z</time>
      </trkpt>
      <trkpt lat="42.43788" lon="2.69801">
        <ele>743</ele>
        <time>2024-09-21T07:48:46Z</time>
      </trkpt>
      <trkpt lat="42.43784" lon="2.69803">
        <ele>743</ele>
        <time>2024-09-21T07:48:49Z</time>
      </trkpt>
      <trkpt lat="42.43781" lon="2.69805">
        <ele>740</ele>
        <time>2024-09-21T07:48:54Z</time>
      </trkpt>
      <trkpt lat="42.43779" lon="2.69808">
        <ele>740</ele>
        <time>2024-09-21T07:48:57Z</time>
      </trkpt>
      <trkpt lat="42.43776" lon="2.69808">
        <ele>739</ele>
        <time>2024-09-21T07:49:01Z</time>
      </trkpt>
      <trkpt lat="42.43773" lon="2.69809">
        <ele>738</ele>
        <time>2024-09-21T07:49:04Z</time>
      </trkpt>
      <trkpt lat="42.4377" lon="2.69811">
        <ele>737</ele>
        <time>2024-09-21T07:49:08Z</time>
      </trkpt>
      <trkpt lat="42.43768" lon="2.69814">
        <ele>736</ele>
        <time>2024-09-21T07:49:12Z</time>
      </trkpt>
      <trkpt lat="42.43764" lon="2.69815">
        <ele>735</ele>
        <time>2024-09-21T07:49:15Z</time>
      </trkpt>
      <trkpt lat="42.43761" lon="2.69816">
        <ele>734</ele>
        <time>2024-09-21T07:49:19Z</time>
      </trkpt>
      <trkpt lat="42.43758" lon="2.69818">
        <ele>734</ele>
        <time>2024-09-21T07:49:22Z</time>
      </trkpt>
      <trkpt lat="42.43755" lon="2.69821">
        <ele>732</ele>
        <time>2024-09-21T07:49:38Z</time>
      </trkpt>
      <trkpt lat="42.43752" lon="2.69822">
        <ele>732</ele>
        <time>2024-09-21T07:49:41Z</time>
      </trkpt>
      <trkpt lat="42.43749" lon="2.69824">
        <ele>731</ele>
        <time>2024-09-21T07:49:44Z</time>
      </trkpt>
      <trkpt lat="42.43746" lon="2.69825">
        <ele>729</ele>
        <time>2024-09-21T07:49:48Z</time>
      </trkpt>
      <trkpt lat="42.43743" lon="2.69826">
        <ele>729</ele>
        <time>2024-09-21T07:49:51Z</time>
      </trkpt>
      <trkpt lat="42.4374" lon="2.69828">
        <ele>728</ele>
        <time>2024-09-21T07:49:54Z</time>
      </trkpt>
      <trkpt lat="42.43737" lon="2.69829">
        <ele>727</ele>
        <time>2024-09-21T07:49:57Z</time>
      </trkpt>
      <trkpt lat="42.43734" lon="2.6983">
        <ele>728</ele>
        <time>2024-09-21T07:50:00Z</time>
      </trkpt>
      <trkpt lat="42.43731" lon="2.69832">
        <ele>727</ele>
        <time>2024-09-21T07:50:03Z</time>
      </trkpt>
      <trkpt lat="42.43728" lon="2.69835">
        <ele>727</ele>
        <time>2024-09-21T07:50:06Z</time>
      </trkpt>
      <trkpt lat="42.43726" lon="2.69837">
        <ele>727</ele>
        <time>2024-09-21T07:50:09Z</time>
      </trkpt>
      <trkpt lat="42.43723" lon="2.69837">
        <ele>728</ele>
        <time>2024-09-21T07:50:12Z</time>
      </trkpt>
      <trkpt lat="42.4372" lon="2.69838">
        <ele>728</ele>
        <time>2024-09-21T07:50:18Z</time>
      </trkpt>
      <trkpt lat="42.43719" lon="2.69842">
        <ele>730</ele>
        <time>2024-09-21T07:50:21Z</time>
      </trkpt>
      <trkpt lat="42.43719" lon="2.69845">
        <ele>729</ele>
        <time>2024-09-21T07:50:23Z</time>
      </trkpt>
      <trkpt lat="42.43719" lon="2.6985">
        <ele>731</ele>
        <time>2024-09-21T07:50:26Z</time>
      </trkpt>
      <trkpt lat="42.4372" lon="2.69854">
        <ele>731</ele>
        <time>2024-09-21T07:50:29Z</time>
      </trkpt>
      <trkpt lat="42.43721" lon="2.69858">
        <ele>731</ele>
        <time>2024-09-21T07:50:34Z</time>
      </trkpt>
      <trkpt lat="42.43724" lon="2.6986">
        <ele>732</ele>
        <time>2024-09-21T07:50:39Z</time>
      </trkpt>
      <trkpt lat="42.43726" lon="2.69864">
        <ele>731</ele>
        <time>2024-09-21T07:50:41Z</time>
      </trkpt>
      <trkpt lat="42.43725" lon="2.69867">
        <ele>729</ele>
        <time>2024-09-21T07:50:44Z</time>
      </trkpt>
      <trkpt lat="42.43724" lon="2.69872">
        <ele>728</ele>
        <time>2024-09-21T07:50:48Z</time>
      </trkpt>
      <trkpt lat="42.43723" lon="2.69876">
        <ele>728</ele>
        <time>2024-09-21T07:50:51Z</time>
      </trkpt>
      <trkpt lat="42.43722" lon="2.6988">
        <ele>728</ele>
        <time>2024-09-21T07:50:54Z</time>
      </trkpt>
      <trkpt lat="42.4372" lon="2.69884">
        <ele>727</ele>
        <time>2024-09-21T07:50:57Z</time>
      </trkpt>
      <trkpt lat="42.43719" lon="2.69887">
        <ele>728</ele>
        <time>2024-09-21T07:51:00Z</time>
      </trkpt>
      <trkpt lat="42.43716" lon="2.69889">
        <ele>728</ele>
        <time>2024-09-21T07:51:02Z</time>
      </trkpt>
      <trkpt lat="42.43713" lon="2.6989">
        <ele>727</ele>
        <time>2024-09-21T07:51:07Z</time>
      </trkpt>
      <trkpt lat="42.4371" lon="2.6989">
        <ele>726</ele>
        <time>2024-09-21T07:51:10Z</time>
      </trkpt>
      <trkpt lat="42.43707" lon="2.69891">
        <ele>726</ele>
        <time>2024-09-21T07:51:13Z</time>
      </trkpt>
      <trkpt lat="42.43704" lon="2.69891">
        <ele>726</ele>
        <time>2024-09-21T07:51:17Z</time>
      </trkpt>
      <trkpt lat="42.43701" lon="2.69893">
        <ele>726</ele>
        <time>2024-09-21T07:51:20Z</time>
      </trkpt>
      <trkpt lat="42.43699" lon="2.69896">
        <ele>727</ele>
        <time>2024-09-21T07:51:22Z</time>
      </trkpt>
      <trkpt lat="42.43696" lon="2.69897">
        <ele>725</ele>
        <time>2024-09-21T07:51:26Z</time>
      </trkpt>
      <trkpt lat="42.43692" lon="2.69896">
        <ele>726</ele>
        <time>2024-09-21T07:51:31Z</time>
      </trkpt>
      <trkpt lat="42.4369" lon="2.69894">
        <ele>726</ele>
        <time>2024-09-21T07:51:39Z</time>
      </trkpt>
      <trkpt lat="42.43688" lon="2.69893">
        <ele>726</ele>
        <time>2024-09-21T07:51:43Z</time>
      </trkpt>
      <trkpt lat="42.43685" lon="2.69892">
        <ele>724</ele>
        <time>2024-09-21T07:51:48Z</time>
      </trkpt>
      <trkpt lat="42.43682" lon="2.69893">
        <ele>725</ele>
        <time>2024-09-21T07:51:51Z</time>
      </trkpt>
      <trkpt lat="42.43678" lon="2.69894">
        <ele>726</ele>
        <time>2024-09-21T07:51:54Z</time>
      </trkpt>
      <trkpt lat="42.43675" lon="2.69895">
        <ele>727</ele>
        <time>2024-09-21T07:51:57Z</time>
      </trkpt>
      <trkpt lat="42.43671" lon="2.69896">
        <ele>728</ele>
        <time>2024-09-21T07:51:59Z</time>
      </trkpt>
      <trkpt lat="42.43668" lon="2.69896">
        <ele>729</ele>
        <time>2024-09-21T07:52:04Z</time>
      </trkpt>
      <trkpt lat="42.43666" lon="2.69895">
        <ele>730</ele>
        <time>2024-09-21T07:52:06Z</time>
      </trkpt>
      <trkpt lat="42.43663" lon="2.69895">
        <ele>732</ele>
        <time>2024-09-21T07:52:09Z</time>
      </trkpt>
      <trkpt lat="42.43659" lon="2.69895">
        <ele>733</ele>
        <time>2024-09-21T07:52:13Z</time>
      </trkpt>
      <trkpt lat="42.43656" lon="2.69897">
        <ele>734</ele>
        <time>2024-09-21T07:52:18Z</time>
      </trkpt>
      <trkpt lat="42.43654" lon="2.69899">
        <ele>735</ele>
        <time>2024-09-21T07:52:21Z</time>
      </trkpt>
      <trkpt lat="42.43651" lon="2.699">
        <ele>734</ele>
        <time>2024-09-21T07:52:25Z</time>
      </trkpt>
      <trkpt lat="42.43648" lon="2.69901">
        <ele>737</ele>
        <time>2024-09-21T07:52:29Z</time>
      </trkpt>
      <trkpt lat="42.43645" lon="2.69901">
        <ele>734</ele>
        <time>2024-09-21T07:52:33Z</time>
      </trkpt>
      <trkpt lat="42.43643" lon="2.69904">
        <ele>733</ele>
        <time>2024-09-21T07:52:36Z</time>
      </trkpt>
      <trkpt lat="42.4364" lon="2.69907">
        <ele>733</ele>
        <time>2024-09-21T07:52:40Z</time>
      </trkpt>
      <trkpt lat="42.43637" lon="2.69905">
        <ele>734</ele>
        <time>2024-09-21T07:52:43Z</time>
      </trkpt>
      <trkpt lat="42.43633" lon="2.69904">
        <ele>735</ele>
        <time>2024-09-21T07:52:45Z</time>
      </trkpt>
      <trkpt lat="42.4363" lon="2.69905">
        <ele>733</ele>
        <time>2024-09-21T07:52:49Z</time>
      </trkpt>
      <trkpt lat="42.43627" lon="2.69906">
        <ele>734</ele>
        <time>2024-09-21T07:52:52Z</time>
      </trkpt>
      <trkpt lat="42.43624" lon="2.69908">
        <ele>735</ele>
        <time>2024-09-21T07:52:56Z</time>
      </trkpt>
      <trkpt lat="42.43621" lon="2.6991">
        <ele>735</ele>
        <time>2024-09-21T07:52:59Z</time>
      </trkpt>
      <trkpt lat="42.43618" lon="2.69912">
        <ele>735</ele>
        <time>2024-09-21T07:53:02Z</time>
      </trkpt>
      <trkpt lat="42.43615" lon="2.69914">
        <ele>737</ele>
        <time>2024-09-21T07:53:05Z</time>
      </trkpt>
      <trkpt lat="42.43613" lon="2.69918">
        <ele>736</ele>
        <time>2024-09-21T07:53:08Z</time>
      </trkpt>
      <trkpt lat="42.4361" lon="2.6992">
        <ele>736</ele>
        <time>2024-09-21T07:53:11Z</time>
      </trkpt>
      <trkpt lat="42.43607" lon="2.69923">
        <ele>737</ele>
        <time>2024-09-21T07:53:15Z</time>
      </trkpt>
      <trkpt lat="42.43604" lon="2.69926">
        <ele>737</ele>
        <time>2024-09-21T07:53:18Z</time>
      </trkpt>
      <trkpt lat="42.43602" lon="2.69929">
        <ele>737</ele>
        <time>2024-09-21T07:53:21Z</time>
      </trkpt>
      <trkpt lat="42.436" lon="2.69931">
        <ele>738</ele>
        <time>2024-09-21T07:53:24Z</time>
      </trkpt>
      <trkpt lat="42.43598" lon="2.69933">
        <ele>737</ele>
        <time>2024-09-21T07:53:26Z</time>
      </trkpt>
      <trkpt lat="42.43595" lon="2.69936">
        <ele>737</ele>
        <time>2024-09-21T07:53:28Z</time>
      </trkpt>
      <trkpt lat="42.43594" lon="2.6994">
        <ele>738</ele>
        <time>2024-09-21T07:53:32Z</time>
      </trkpt>
      <trkpt lat="42.43591" lon="2.69943">
        <ele>738</ele>
        <time>2024-09-21T07:53:36Z</time>
      </trkpt>
      <trkpt lat="42.43589" lon="2.69947">
        <ele>738</ele>
        <time>2024-09-21T07:53:39Z</time>
      </trkpt>
      <trkpt lat="42.43587" lon="2.69951">
        <ele>737</ele>
        <time>2024-09-21T07:53:43Z</time>
      </trkpt>
      <trkpt lat="42.43586" lon="2.69954">
        <ele>737</ele>
        <time>2024-09-21T07:53:45Z</time>
      </trkpt>
      <trkpt lat="42.43584" lon="2.69958">
        <ele>738</ele>
        <time>2024-09-21T07:53:50Z</time>
      </trkpt>
      <trkpt lat="42.43583" lon="2.69962">
        <ele>737</ele>
        <time>2024-09-21T07:53:52Z</time>
      </trkpt>
      <trkpt lat="42.43581" lon="2.69965">
        <ele>738</ele>
        <time>2024-09-21T07:53:55Z</time>
      </trkpt>
      <trkpt lat="42.43579" lon="2.69968">
        <ele>737</ele>
        <time>2024-09-21T07:53:58Z</time>
      </trkpt>
      <trkpt lat="42.43578" lon="2.69972">
        <ele>737</ele>
        <time>2024-09-21T07:54:01Z</time>
      </trkpt>
      <trkpt lat="42.43576" lon="2.69976">
        <ele>737</ele>
        <time>2024-09-21T07:54:04Z</time>
      </trkpt>
      <trkpt lat="42.43574" lon="2.69978">
        <ele>736</ele>
        <time>2024-09-21T07:54:08Z</time>
      </trkpt>
      <trkpt lat="42.43571" lon="2.6998">
        <ele>736</ele>
        <time>2024-09-21T07:54:11Z</time>
      </trkpt>
      <trkpt lat="42.43568" lon="2.69981">
        <ele>737</ele>
        <time>2024-09-21T07:54:15Z</time>
      </trkpt>
      <trkpt lat="42.43565" lon="2.69983">
        <ele>736</ele>
        <time>2024-09-21T07:54:19Z</time>
      </trkpt>
      <trkpt lat="42.43562" lon="2.69985">
        <ele>736</ele>
        <time>2024-09-21T07:54:22Z</time>
      </trkpt>
      <trkpt lat="42.43558" lon="2.69983">
        <ele>736</ele>
        <time>2024-09-21T07:54:26Z</time>
      </trkpt>
      <trkpt lat="42.43555" lon="2.69984">
        <ele>737</ele>
        <time>2024-09-21T07:54:30Z</time>
      </trkpt>
      <trkpt lat="42.43551" lon="2.69984">
        <ele>737</ele>
        <time>2024-09-21T07:54:33Z</time>
      </trkpt>
      <trkpt lat="42.43548" lon="2.69984">
        <ele>738</ele>
        <time>2024-09-21T07:54:36Z</time>
      </trkpt>
      <trkpt lat="42.43544" lon="2.69983">
        <ele>740</ele>
        <time>2024-09-21T07:54:41Z</time>
      </trkpt>
      <trkpt lat="42.43541" lon="2.69985">
        <ele>740</ele>
        <time>2024-09-21T07:54:43Z</time>
      </trkpt>
      <trkpt lat="42.43537" lon="2.69986">
        <ele>742</ele>
        <time>2024-09-21T07:54:47Z</time>
      </trkpt>
      <trkpt lat="42.43534" lon="2.69988">
        <ele>741</ele>
        <time>2024-09-21T07:54:49Z</time>
      </trkpt>
      <trkpt lat="42.43533" lon="2.69991">
        <ele>742</ele>
        <time>2024-09-21T07:54:51Z</time>
      </trkpt>
      <trkpt lat="42.43532" lon="2.69995">
        <ele>743</ele>
        <time>2024-09-21T07:54:54Z</time>
      </trkpt>
      <trkpt lat="42.43533" lon="2.69999">
        <ele>743</ele>
        <time>2024-09-21T07:54:56Z</time>
      </trkpt>
      <trkpt lat="42.43533" lon="2.70003">
        <ele>744</ele>
        <time>2024-09-21T07:54:59Z</time>
      </trkpt>
      <trkpt lat="42.43533" lon="2.70006">
        <ele>744</ele>
        <time>2024-09-21T07:55:02Z</time>
      </trkpt>
      <trkpt lat="42.43534" lon="2.70011">
        <ele>743</ele>
        <time>2024-09-21T07:55:06Z</time>
      </trkpt>
      <trkpt lat="42.43535" lon="2.70016">
        <ele>743</ele>
        <time>2024-09-21T07:55:08Z</time>
      </trkpt>
      <trkpt lat="42.43535" lon="2.7002">
        <ele>743</ele>
        <time>2024-09-21T07:55:12Z</time>
      </trkpt>
      <trkpt lat="42.43536" lon="2.70024">
        <ele>742</ele>
        <time>2024-09-21T07:55:14Z</time>
      </trkpt>
      <trkpt lat="42.43537" lon="2.70028">
        <ele>743</ele>
        <time>2024-09-21T07:55:16Z</time>
      </trkpt>
      <trkpt lat="42.43538" lon="2.70033">
        <ele>740</ele>
        <time>2024-09-21T07:55:21Z</time>
      </trkpt>
      <trkpt lat="42.43539" lon="2.70038">
        <ele>740</ele>
        <time>2024-09-21T07:55:24Z</time>
      </trkpt>
      <trkpt lat="42.4354" lon="2.70043">
        <ele>740</ele>
        <time>2024-09-21T07:55:27Z</time>
      </trkpt>
      <trkpt lat="42.43541" lon="2.70047">
        <ele>741</ele>
        <time>2024-09-21T07:55:31Z</time>
      </trkpt>
      <trkpt lat="42.43542" lon="2.70051">
        <ele>740</ele>
        <time>2024-09-21T07:55:33Z</time>
      </trkpt>
      <trkpt lat="42.43542" lon="2.70056">
        <ele>739</ele>
        <time>2024-09-21T07:55:37Z</time>
      </trkpt>
      <trkpt lat="42.43543" lon="2.70061">
        <ele>738</ele>
        <time>2024-09-21T07:55:41Z</time>
      </trkpt>
      <trkpt lat="42.43543" lon="2.70065">
        <ele>737</ele>
        <time>2024-09-21T07:55:44Z</time>
      </trkpt>
      <trkpt lat="42.43544" lon="2.7007">
        <ele>737</ele>
        <time>2024-09-21T07:55:47Z</time>
      </trkpt>
      <trkpt lat="42.43545" lon="2.70074">
        <ele>735</ele>
        <time>2024-09-21T07:55:49Z</time>
      </trkpt>
      <trkpt lat="42.43545" lon="2.70078">
        <ele>736</ele>
        <time>2024-09-21T07:55:53Z</time>
      </trkpt>
      <trkpt lat="42.43544" lon="2.70083">
        <ele>736</ele>
        <time>2024-09-21T07:55:57Z</time>
      </trkpt>
      <trkpt lat="42.43544" lon="2.70088">
        <ele>735</ele>
        <time>2024-09-21T07:55:59Z</time>
      </trkpt>
      <trkpt lat="42.43543" lon="2.70093">
        <ele>736</ele>
        <time>2024-09-21T07:56:01Z</time>
      </trkpt>
      <trkpt lat="42.43543" lon="2.70097">
        <ele>736</ele>
        <time>2024-09-21T07:56:05Z</time>
      </trkpt>
      <trkpt lat="42.43542" lon="2.70101">
        <ele>736</ele>
        <time>2024-09-21T07:56:06Z</time>
      </trkpt>
      <trkpt lat="42.43542" lon="2.70105">
        <ele>735</ele>
        <time>2024-09-21T07:56:08Z</time>
      </trkpt>
      <trkpt lat="42.43541" lon="2.7011">
        <ele>734</ele>
        <time>2024-09-21T07:56:11Z</time>
      </trkpt>
      <trkpt lat="42.4354" lon="2.70114">
        <ele>734</ele>
        <time>2024-09-21T07:56:14Z</time>
      </trkpt>
      <trkpt lat="42.43539" lon="2.70119">
        <ele>733</ele>
        <time>2024-09-21T07:56:16Z</time>
      </trkpt>
      <trkpt lat="42.43539" lon="2.70123">
        <ele>733</ele>
        <time>2024-09-21T07:56:18Z</time>
      </trkpt>
      <trkpt lat="42.43538" lon="2.70127">
        <ele>732</ele>
        <time>2024-09-21T07:56:21Z</time>
      </trkpt>
      <trkpt lat="42.43538" lon="2.70133">
        <ele>731</ele>
        <time>2024-09-21T07:56:24Z</time>
      </trkpt>
      <trkpt lat="42.43537" lon="2.70137">
        <ele>730</ele>
        <time>2024-09-21T07:56:28Z</time>
      </trkpt>
      <trkpt lat="42.43536" lon="2.70142">
        <ele>729</ele>
        <time>2024-09-21T07:56:31Z</time>
      </trkpt>
      <trkpt lat="42.43535" lon="2.70146">
        <ele>728</ele>
        <time>2024-09-21T07:56:33Z</time>
      </trkpt>
      <trkpt lat="42.43534" lon="2.7015">
        <ele>728</ele>
        <time>2024-09-21T07:56:36Z</time>
      </trkpt>
      <trkpt lat="42.43533" lon="2.70154">
        <ele>729</ele>
        <time>2024-09-21T07:56:38Z</time>
      </trkpt>
      <trkpt lat="42.43531" lon="2.70157">
        <ele>729</ele>
        <time>2024-09-21T07:56:40Z</time>
      </trkpt>
      <trkpt lat="42.43529" lon="2.7016">
        <ele>730</ele>
        <time>2024-09-21T07:56:43Z</time>
      </trkpt>
      <trkpt lat="42.43529" lon="2.70159">
        <ele>729</ele>
        <time>2024-09-21T07:56:58Z</time>
      </trkpt>
      <trkpt lat="42.43527" lon="2.70155">
        <ele>731</ele>
        <time>2024-09-21T07:57:12Z</time>
      </trkpt>
      <trkpt lat="42.43527" lon="2.70156">
        <ele>730</ele>
        <time>2024-09-21T07:57:18Z</time>
      </trkpt>
      <trkpt lat="42.43526" lon="2.70158">
        <ele>728</ele>
        <time>2024-09-21T07:57:40Z</time>
      </trkpt>
      <trkpt lat="42.43524" lon="2.7016">
        <ele>729</ele>
        <time>2024-09-21T07:57:44Z</time>
      </trkpt>
      <trkpt lat="42.43522" lon="2.70163">
        <ele>729</ele>
        <time>2024-09-21T07:57:46Z</time>
      </trkpt>
      <trkpt lat="42.4352" lon="2.70166">
        <ele>731</ele>
        <time>2024-09-21T07:57:49Z</time>
      </trkpt>
      <trkpt lat="42.43518" lon="2.7017">
        <ele>730</ele>
        <time>2024-09-21T07:57:53Z</time>
      </trkpt>
      <trkpt lat="42.43517" lon="2.70173">
        <ele>730</ele>
        <time>2024-09-21T07:57:56Z</time>
      </trkpt>
      <trkpt lat="42.43518" lon="2.70172">
        <ele>730</ele>
        <time>2024-09-21T07:58:02Z</time>
      </trkpt>
      <trkpt lat="42.4352" lon="2.70171">
        <ele>729</ele>
        <time>2024-09-21T07:58:11Z</time>
      </trkpt>
      <trkpt lat="42.43519" lon="2.70172">
        <ele>729</ele>
        <time>2024-09-21T07:58:15Z</time>
      </trkpt>
      <trkpt lat="42.43517" lon="2.70173">
        <ele>726</ele>
        <time>2024-09-21T07:58:51Z</time>
      </trkpt>
      <trkpt lat="42.43519" lon="2.70175">
        <ele>724</ele>
        <time>2024-09-21T07:59:32Z</time>
      </trkpt>
      <trkpt lat="42.43517" lon="2.70174">
        <ele>724</ele>
        <time>2024-09-21T08:00:01Z</time>
      </trkpt>
      <trkpt lat="42.43518" lon="2.70173">
        <ele>725</ele>
        <time>2024-09-21T08:00:18Z</time>
      </trkpt>
      <trkpt lat="42.4352" lon="2.70173">
        <ele>725</ele>
        <time>2024-09-21T08:01:11Z</time>
      </trkpt>
      <trkpt lat="42.43522" lon="2.70171">
        <ele>726</ele>
        <time>2024-09-21T08:01:13Z</time>
      </trkpt>
      <trkpt lat="42.43523" lon="2.70167">
        <ele>726</ele>
        <time>2024-09-21T08:01:15Z</time>
      </trkpt>
      <trkpt lat="42.43524" lon="2.70163">
        <ele>729</ele>
        <time>2024-09-21T08:01:18Z</time>
      </trkpt>
      <trkpt lat="42.43526" lon="2.70162">
        <ele>730</ele>
        <time>2024-09-21T08:01:23Z</time>
      </trkpt>
      <trkpt lat="42.4353" lon="2.70164">
        <ele>734</ele>
        <time>2024-09-21T08:01:40Z</time>
      </trkpt>
      <trkpt lat="42.43528" lon="2.70164">
        <ele>733</ele>
        <time>2024-09-21T08:01:46Z</time>
      </trkpt>
      <trkpt lat="42.43526" lon="2.70165">
        <ele>734</ele>
        <time>2024-09-21T08:01:47Z</time>
      </trkpt>
      <trkpt lat="42.43523" lon="2.70167">
        <ele>734</ele>
        <time>2024-09-21T08:01:49Z</time>
      </trkpt>
      <trkpt lat="42.4352" lon="2.7017">
        <ele>733</ele>
        <time>2024-09-21T08:01:52Z</time>
      </trkpt>
      <trkpt lat="42.43518" lon="2.70171">
        <ele>734</ele>
        <time>2024-09-21T08:01:54Z</time>
      </trkpt>
      <trkpt lat="42.43518" lon="2.70173">
        <ele>726</ele>
        <time>2024-09-21T08:02:17Z</time>
      </trkpt>
      <trkpt lat="42.43517" lon="2.70174">
        <ele>727</ele>
        <time>2024-09-21T08:02:32Z</time>
      </trkpt>
      <trkpt lat="42.43515" lon="2.70176">
        <ele>727</ele>
        <time>2024-09-21T08:02:36Z</time>
      </trkpt>
      <trkpt lat="42.43513" lon="2.70178">
        <ele>728</ele>
        <time>2024-09-21T08:02:39Z</time>
      </trkpt>
      <trkpt lat="42.43511" lon="2.70177">
        <ele>729</ele>
        <time>2024-09-21T08:02:44Z</time>
      </trkpt>
      <trkpt lat="42.43508" lon="2.70177">
        <ele>729</ele>
        <time>2024-09-21T08:02:47Z</time>
      </trkpt>
      <trkpt lat="42.43505" lon="2.70177">
        <ele>729</ele>
        <time>2024-09-21T08:02:51Z</time>
      </trkpt>
      <trkpt lat="42.43502" lon="2.70176">
        <ele>729</ele>
        <time>2024-09-21T08:02:54Z</time>
      </trkpt>
      <trkpt lat="42.43498" lon="2.70175">
        <ele>730</ele>
        <time>2024-09-21T08:02:59Z</time>
      </trkpt>
      <trkpt lat="42.43495" lon="2.70174">
        <ele>731</ele>
        <time>2024-09-21T08:03:04Z</time>
      </trkpt>
      <trkpt lat="42.43492" lon="2.70173">
        <ele>732</ele>
        <time>2024-09-21T08:03:06Z</time>
      </trkpt>
      <trkpt lat="42.43489" lon="2.70171">
        <ele>732</ele>
        <time>2024-09-21T08:03:09Z</time>
      </trkpt>
      <trkpt lat="42.43487" lon="2.70168">
        <ele>732</ele>
        <time>2024-09-21T08:03:12Z</time>
      </trkpt>
      <trkpt lat="42.43484" lon="2.70168">
        <ele>734</ele>
        <time>2024-09-21T08:03:14Z</time>
      </trkpt>
      <trkpt lat="42.43481" lon="2.70166">
        <ele>733</ele>
        <time>2024-09-21T08:03:16Z</time>
      </trkpt>
      <trkpt lat="42.43478" lon="2.70165">
        <ele>738</ele>
        <time>2024-09-21T08:03:19Z</time>
      </trkpt>
      <trkpt lat="42.43476" lon="2.70163">
        <ele>740</ele>
        <time>2024-09-21T08:03:24Z</time>
      </trkpt>
      <trkpt lat="42.43474" lon="2.7016">
        <ele>741</ele>
        <time>2024-09-21T08:03:27Z</time>
      </trkpt>
      <trkpt lat="42.43472" lon="2.70156">
        <ele>741</ele>
        <time>2024-09-21T08:03:30Z</time>
      </trkpt>
      <trkpt lat="42.43469" lon="2.70152">
        <ele>741</ele>
        <time>2024-09-21T08:03:33Z</time>
      </trkpt>
      <trkpt lat="42.43467" lon="2.70148">
        <ele>742</ele>
        <time>2024-09-21T08:03:36Z</time>
      </trkpt>
      <trkpt lat="42.43466" lon="2.70144">
        <ele>743</ele>
        <time>2024-09-21T08:03:38Z</time>
      </trkpt>
      <trkpt lat="42.43464" lon="2.70142">
        <ele>743</ele>
        <time>2024-09-21T08:03:41Z</time>
      </trkpt>
      <trkpt lat="42.43462" lon="2.7014">
        <ele>744</ele>
        <time>2024-09-21T08:03:44Z</time>
      </trkpt>
      <trkpt lat="42.43459" lon="2.70141">
        <ele>743</ele>
        <time>2024-09-21T08:03:47Z</time>
      </trkpt>
      <trkpt lat="42.43457" lon="2.70146">
        <ele>745</ele>
        <time>2024-09-21T08:03:50Z</time>
      </trkpt>
      <trkpt lat="42.43457" lon="2.70151">
        <ele>747</ele>
        <time>2024-09-21T08:03:56Z</time>
      </trkpt>
      <trkpt lat="42.43457" lon="2.70156">
        <ele>747</ele>
        <time>2024-09-21T08:04:00Z</time>
      </trkpt>
      <trkpt lat="42.43457" lon="2.7016">
        <ele>747</ele>
        <time>2024-09-21T08:04:03Z</time>
      </trkpt>
      <trkpt lat="42.43458" lon="2.70166">
        <ele>746</ele>
        <time>2024-09-21T08:04:07Z</time>
      </trkpt>
      <trkpt lat="42.43454" lon="2.70171">
        <ele>747</ele>
        <time>2024-09-21T08:04:11Z</time>
      </trkpt>
      <trkpt lat="42.43454" lon="2.70175">
        <ele>744</ele>
        <time>2024-09-21T08:04:16Z</time>
      </trkpt>
      <trkpt lat="42.43455" lon="2.70178">
        <ele>743</ele>
        <time>2024-09-21T08:04:20Z</time>
      </trkpt>
      <trkpt lat="42.43457" lon="2.70182">
        <ele>743</ele>
        <time>2024-09-21T08:04:23Z</time>
      </trkpt>
      <trkpt lat="42.43459" lon="2.70184">
        <ele>743</ele>
        <time>2024-09-21T08:04:27Z</time>
      </trkpt>
      <trkpt lat="42.43462" lon="2.70187">
        <ele>743</ele>
        <time>2024-09-21T08:04:31Z</time>
      </trkpt>
      <trkpt lat="42.43463" lon="2.70191">
        <ele>742</ele>
        <time>2024-09-21T08:04:35Z</time>
      </trkpt>
      <trkpt lat="42.43464" lon="2.70195">
        <ele>741</ele>
        <time>2024-09-21T08:04:38Z</time>
      </trkpt>
      <trkpt lat="42.43465" lon="2.70199">
        <ele>742</ele>
        <time>2024-09-21T08:04:40Z</time>
      </trkpt>
      <trkpt lat="42.43467" lon="2.70202">
        <ele>742</ele>
        <time>2024-09-21T08:04:42Z</time>
      </trkpt>
      <trkpt lat="42.43469" lon="2.70205">
        <ele>742</ele>
        <time>2024-09-21T08:04:44Z</time>
      </trkpt>
      <trkpt lat="42.43471" lon="2.70208">
        <ele>741</ele>
        <time>2024-09-21T08:04:46Z</time>
      </trkpt>
      <trkpt lat="42.43472" lon="2.70212">
        <ele>741</ele>
        <time>2024-09-21T08:04:51Z</time>
      </trkpt>
      <trkpt lat="42.43474" lon="2.70215">
        <ele>742</ele>
        <time>2024-09-21T08:04:55Z</time>
      </trkpt>
      <trkpt lat="42.43476" lon="2.70219">
        <ele>742</ele>
        <time>2024-09-21T08:04:59Z</time>
      </trkpt>
      <trkpt lat="42.43477" lon="2.70223">
        <ele>742</ele>
        <time>2024-09-21T08:05:02Z</time>
      </trkpt>
      <trkpt lat="42.43477" lon="2.70227">
        <ele>742</ele>
        <time>2024-09-21T08:05:05Z</time>
      </trkpt>
      <trkpt lat="42.43478" lon="2.70232">
        <ele>743</ele>
        <time>2024-09-21T08:05:09Z</time>
      </trkpt>
      <trkpt lat="42.43478" lon="2.70236">
        <ele>744</ele>
        <time>2024-09-21T08:05:12Z</time>
      </trkpt>
      <trkpt lat="42.43478" lon="2.7024">
        <ele>743</ele>
        <time>2024-09-21T08:05:15Z</time>
      </trkpt>
      <trkpt lat="42.43478" lon="2.70244">
        <ele>742</ele>
        <time>2024-09-21T08:05:18Z</time>
      </trkpt>
      <trkpt lat="42.43477" lon="2.70248">
        <ele>743</ele>
        <time>2024-09-21T08:05:21Z</time>
      </trkpt>
      <trkpt lat="42.43476" lon="2.70252">
        <ele>743</ele>
        <time>2024-09-21T08:05:24Z</time>
      </trkpt>
      <trkpt lat="42.43476" lon="2.70256">
        <ele>743</ele>
        <time>2024-09-21T08:05:27Z</time>
      </trkpt>
      <trkpt lat="42.43475" lon="2.7026">
        <ele>744</ele>
        <time>2024-09-21T08:05:29Z</time>
      </trkpt>
      <trkpt lat="42.43475" lon="2.70263">
        <ele>744</ele>
        <time>2024-09-21T08:05:33Z</time>
      </trkpt>
      <trkpt lat="42.43475" lon="2.70268">
        <ele>744</ele>
        <time>2024-09-21T08:05:37Z</time>
      </trkpt>
      <trkpt lat="42.43474" lon="2.70272">
        <ele>743</ele>
        <time>2024-09-21T08:05:41Z</time>
      </trkpt>
      <trkpt lat="42.43473" lon="2.70276">
        <ele>744</ele>
        <time>2024-09-21T08:05:45Z</time>
      </trkpt>
      <trkpt lat="42.43472" lon="2.7028">
        <ele>744</ele>
        <time>2024-09-21T08:05:48Z</time>
      </trkpt>
      <trkpt lat="42.43471" lon="2.70284">
        <ele>745</ele>
        <time>2024-09-21T08:05:52Z</time>
      </trkpt>
      <trkpt lat="42.4347" lon="2.70288">
        <ele>745</ele>
        <time>2024-09-21T08:05:55Z</time>
      </trkpt>
      <trkpt lat="42.4347" lon="2.70292">
        <ele>745</ele>
        <time>2024-09-21T08:05:59Z</time>
      </trkpt>
      <trkpt lat="42.43469" lon="2.70297">
        <ele>745</ele>
        <time>2024-09-21T08:06:02Z</time>
      </trkpt>
      <trkpt lat="42.43468" lon="2.703">
        <ele>745</ele>
        <time>2024-09-21T08:06:06Z</time>
      </trkpt>
      <trkpt lat="42.43467" lon="2.70304">
        <ele>746</ele>
        <time>2024-09-21T08:06:09Z</time>
      </trkpt>
      <trkpt lat="42.43467" lon="2.70308">
        <ele>746</ele>
        <time>2024-09-21T08:06:12Z</time>
      </trkpt>
      <trkpt lat="42.43467" lon="2.70313">
        <ele>748</ele>
        <time>2024-09-21T08:06:17Z</time>
      </trkpt>
      <trkpt lat="42.43466" lon="2.70317">
        <ele>749</ele>
        <time>2024-09-21T08:06:20Z</time>
      </trkpt>
      <trkpt lat="42.43465" lon="2.70321">
        <ele>749</ele>
        <time>2024-09-21T08:06:24Z</time>
      </trkpt>
      <trkpt lat="42.43465" lon="2.70326">
        <ele>749</ele>
        <time>2024-09-21T08:06:28Z</time>
      </trkpt>
      <trkpt lat="42.43465" lon="2.7033">
        <ele>749</ele>
        <time>2024-09-21T08:06:31Z</time>
      </trkpt>
      <trkpt lat="42.43465" lon="2.70335">
        <ele>748</ele>
        <time>2024-09-21T08:06:35Z</time>
      </trkpt>
      <trkpt lat="42.43465" lon="2.7034">
        <ele>750</ele>
        <time>2024-09-21T08:06:39Z</time>
      </trkpt>
      <trkpt lat="42.43465" lon="2.70344">
        <ele>750</ele>
        <time>2024-09-21T08:06:42Z</time>
      </trkpt>
      <trkpt lat="42.43465" lon="2.70348">
        <ele>750</ele>
        <time>2024-09-21T08:06:44Z</time>
      </trkpt>
      <trkpt lat="42.43464" lon="2.70352">
        <ele>750</ele>
        <time>2024-09-21T08:06:47Z</time>
      </trkpt>
      <trkpt lat="42.43463" lon="2.70356">
        <ele>750</ele>
        <time>2024-09-21T08:06:50Z</time>
      </trkpt>
      <trkpt lat="42.43462" lon="2.7036">
        <ele>751</ele>
        <time>2024-09-21T08:06:53Z</time>
      </trkpt>
      <trkpt lat="42.4346" lon="2.70363">
        <ele>752</ele>
        <time>2024-09-21T08:06:56Z</time>
      </trkpt>
      <trkpt lat="42.43459" lon="2.70367">
        <ele>754</ele>
        <time>2024-09-21T08:07:00Z</time>
      </trkpt>
      <trkpt lat="42.43456" lon="2.7037">
        <ele>754</ele>
        <time>2024-09-21T08:07:03Z</time>
      </trkpt>
      <trkpt lat="42.43455" lon="2.70373">
        <ele>754</ele>
        <time>2024-09-21T08:07:07Z</time>
      </trkpt>
      <trkpt lat="42.43454" lon="2.70376">
        <ele>754</ele>
        <time>2024-09-21T08:07:09Z</time>
      </trkpt>
      <trkpt lat="42.43453" lon="2.7038">
        <ele>754</ele>
        <time>2024-09-21T08:07:11Z</time>
      </trkpt>
      <trkpt lat="42.43453" lon="2.70384">
        <ele>755</ele>
        <time>2024-09-21T08:07:14Z</time>
      </trkpt>
      <trkpt lat="42.43454" lon="2.70388">
        <ele>755</ele>
        <time>2024-09-21T08:07:17Z</time>
      </trkpt>
      <trkpt lat="42.43455" lon="2.70393">
        <ele>756</ele>
        <time>2024-09-21T08:07:22Z</time>
      </trkpt>
      <trkpt lat="42.43456" lon="2.70397">
        <ele>756</ele>
        <time>2024-09-21T08:07:25Z</time>
      </trkpt>
      <trkpt lat="42.43456" lon="2.70401">
        <ele>756</ele>
        <time>2024-09-21T08:07:27Z</time>
      </trkpt>
      <trkpt lat="42.43457" lon="2.70405">
        <ele>756</ele>
        <time>2024-09-21T08:07:30Z</time>
      </trkpt>
      <trkpt lat="42.43456" lon="2.70409">
        <ele>756</ele>
        <time>2024-09-21T08:07:34Z</time>
      </trkpt>
      <trkpt lat="42.43455" lon="2.70412">
        <ele>756</ele>
        <time>2024-09-21T08:07:37Z</time>
      </trkpt>
      <trkpt lat="42.43454" lon="2.70415">
        <ele>759</ele>
        <time>2024-09-21T08:07:41Z</time>
      </trkpt>
      <trkpt lat="42.43453" lon="2.70419">
        <ele>759</ele>
        <time>2024-09-21T08:07:43Z</time>
      </trkpt>
      <trkpt lat="42.43453" lon="2.70423">
        <ele>758</ele>
        <time>2024-09-21T08:07:46Z</time>
      </trkpt>
      <trkpt lat="42.43453" lon="2.70427">
        <ele>759</ele>
        <time>2024-09-21T08:07:48Z</time>
      </trkpt>
      <trkpt lat="42.43453" lon="2.70431">
        <ele>760</ele>
        <time>2024-09-21T08:07:51Z</time>
      </trkpt>
      <trkpt lat="42.43452" lon="2.70435">
        <ele>761</ele>
        <time>2024-09-21T08:07:55Z</time>
      </trkpt>
      <trkpt lat="42.43451" lon="2.70438">
        <ele>762</ele>
        <time>2024-09-21T08:07:58Z</time>
      </trkpt>
      <trkpt lat="42.4345" lon="2.70442">
        <ele>762</ele>
        <time>2024-09-21T08:08:01Z</time>
      </trkpt>
      <trkpt lat="42.43449" lon="2.70448">
        <ele>763</ele>
        <time>2024-09-21T08:08:04Z</time>
      </trkpt>
      <trkpt lat="42.43447" lon="2.70452">
        <ele>766</ele>
        <time>2024-09-21T08:08:09Z</time>
      </trkpt>
      <trkpt lat="42.43445" lon="2.70456">
        <ele>766</ele>
        <time>2024-09-21T08:08:12Z</time>
      </trkpt>
      <trkpt lat="42.43444" lon="2.7046">
        <ele>766</ele>
        <time>2024-09-21T08:08:15Z</time>
      </trkpt>
      <trkpt lat="42.43442" lon="2.70464">
        <ele>769</ele>
        <time>2024-09-21T08:08:19Z</time>
      </trkpt>
      <trkpt lat="42.43441" lon="2.70467">
        <ele>768</ele>
        <time>2024-09-21T08:08:23Z</time>
      </trkpt>
      <trkpt lat="42.4344" lon="2.70471">
        <ele>769</ele>
        <time>2024-09-21T08:08:27Z</time>
      </trkpt>
      <trkpt lat="42.43439" lon="2.70477">
        <ele>770</ele>
        <time>2024-09-21T08:08:30Z</time>
      </trkpt>
      <trkpt lat="42.43437" lon="2.7048">
        <ele>771</ele>
        <time>2024-09-21T08:08:34Z</time>
      </trkpt>
      <trkpt lat="42.43435" lon="2.70484">
        <ele>773</ele>
        <time>2024-09-21T08:08:36Z</time>
      </trkpt>
      <trkpt lat="42.43434" lon="2.70488">
        <ele>773</ele>
        <time>2024-09-21T08:08:39Z</time>
      </trkpt>
      <trkpt lat="42.43433" lon="2.70492">
        <ele>773</ele>
        <time>2024-09-21T08:08:42Z</time>
      </trkpt>
      <trkpt lat="42.43432" lon="2.70496">
        <ele>772</ele>
        <time>2024-09-21T08:08:47Z</time>
      </trkpt>
      <trkpt lat="42.43431" lon="2.705">
        <ele>771</ele>
        <time>2024-09-21T08:08:50Z</time>
      </trkpt>
      <trkpt lat="42.43429" lon="2.70503">
        <ele>772</ele>
        <time>2024-09-21T08:08:53Z</time>
      </trkpt>
      <trkpt lat="42.43427" lon="2.70505">
        <ele>773</ele>
        <time>2024-09-21T08:08:56Z</time>
      </trkpt>
      <trkpt lat="42.43424" lon="2.70505">
        <ele>772</ele>
        <time>2024-09-21T08:08:59Z</time>
      </trkpt>
      <trkpt lat="42.43422" lon="2.70505">
        <ele>770</ele>
        <time>2024-09-21T08:09:03Z</time>
      </trkpt>
      <trkpt lat="42.43419" lon="2.70506">
        <ele>770</ele>
        <time>2024-09-21T08:09:05Z</time>
      </trkpt>
      <trkpt lat="42.43416" lon="2.70507">
        <ele>769</ele>
        <time>2024-09-21T08:09:08Z</time>
      </trkpt>
      <trkpt lat="42.43413" lon="2.70508">
        <ele>769</ele>
        <time>2024-09-21T08:09:11Z</time>
      </trkpt>
      <trkpt lat="42.4341" lon="2.70509">
        <ele>770</ele>
        <time>2024-09-21T08:09:15Z</time>
      </trkpt>
      <trkpt lat="42.43406" lon="2.7051">
        <ele>770</ele>
        <time>2024-09-21T08:09:18Z</time>
      </trkpt>
      <trkpt lat="42.43402" lon="2.7051">
        <ele>772</ele>
        <time>2024-09-21T08:09:23Z</time>
      </trkpt>
      <trkpt lat="42.43399" lon="2.7051">
        <ele>773</ele>
        <time>2024-09-21T08:09:26Z</time>
      </trkpt>
      <trkpt lat="42.43396" lon="2.70511">
        <ele>772</ele>
        <time>2024-09-21T08:09:29Z</time>
      </trkpt>
      <trkpt lat="42.43392" lon="2.70512">
        <ele>772</ele>
        <time>2024-09-21T08:09:32Z</time>
      </trkpt>
      <trkpt lat="42.43389" lon="2.70511">
        <ele>772</ele>
        <time>2024-09-21T08:09:35Z</time>
      </trkpt>
      <trkpt lat="42.43386" lon="2.70511">
        <ele>773</ele>
        <time>2024-09-21T08:09:38Z</time>
      </trkpt>
      <trkpt lat="42.43383" lon="2.70511">
        <ele>773</ele>
        <time>2024-09-21T08:09:42Z</time>
      </trkpt>
      <trkpt lat="42.4338" lon="2.70512">
        <ele>774</ele>
        <time>2024-09-21T08:09:44Z</time>
      </trkpt>
      <trkpt lat="42.43377" lon="2.70512">
        <ele>773</ele>
        <time>2024-09-21T08:09:48Z</time>
      </trkpt>
      <trkpt lat="42.43373" lon="2.70512">
        <ele>773</ele>
        <time>2024-09-21T08:09:51Z</time>
      </trkpt>
      <trkpt lat="42.4337" lon="2.70511">
        <ele>774</ele>
        <time>2024-09-21T08:09:53Z</time>
      </trkpt>
      <trkpt lat="42.43367" lon="2.70512">
        <ele>775</ele>
        <time>2024-09-21T08:09:58Z</time>
      </trkpt>
      <trkpt lat="42.43364" lon="2.7051">
        <ele>774</ele>
        <time>2024-09-21T08:10:01Z</time>
      </trkpt>
      <trkpt lat="42.43362" lon="2.7051">
        <ele>774</ele>
        <time>2024-09-21T08:10:03Z</time>
      </trkpt>
      <trkpt lat="42.43359" lon="2.7051">
        <ele>775</ele>
        <time>2024-09-21T08:10:06Z</time>
      </trkpt>
      <trkpt lat="42.43356" lon="2.70509">
        <ele>775</ele>
        <time>2024-09-21T08:10:11Z</time>
      </trkpt>
      <trkpt lat="42.43353" lon="2.70508">
        <ele>776</ele>
        <time>2024-09-21T08:10:14Z</time>
      </trkpt>
      <trkpt lat="42.4335" lon="2.70506">
        <ele>777</ele>
        <time>2024-09-21T08:10:17Z</time>
      </trkpt>
      <trkpt lat="42.43347" lon="2.70505">
        <ele>779</ele>
        <time>2024-09-21T08:10:20Z</time>
      </trkpt>
      <trkpt lat="42.43344" lon="2.70503">
        <ele>778</ele>
        <time>2024-09-21T08:10:23Z</time>
      </trkpt>
      <trkpt lat="42.43341" lon="2.70501">
        <ele>778</ele>
        <time>2024-09-21T08:10:26Z</time>
      </trkpt>
      <trkpt lat="42.43339" lon="2.70497">
        <ele>779</ele>
        <time>2024-09-21T08:10:34Z</time>
      </trkpt>
      <trkpt lat="42.43336" lon="2.70494">
        <ele>778</ele>
        <time>2024-09-21T08:10:36Z</time>
      </trkpt>
      <trkpt lat="42.43333" lon="2.70492">
        <ele>777</ele>
        <time>2024-09-21T08:10:40Z</time>
      </trkpt>
      <trkpt lat="42.4333" lon="2.70491">
        <ele>776</ele>
        <time>2024-09-21T08:10:42Z</time>
      </trkpt>
      <trkpt lat="42.43328" lon="2.70488">
        <ele>774</ele>
        <time>2024-09-21T08:10:46Z</time>
      </trkpt>
      <trkpt lat="42.43326" lon="2.70485">
        <ele>774</ele>
        <time>2024-09-21T08:10:49Z</time>
      </trkpt>
      <trkpt lat="42.43324" lon="2.70482">
        <ele>772</ele>
        <time>2024-09-21T08:10:51Z</time>
      </trkpt>
      <trkpt lat="42.43321" lon="2.7048">
        <ele>773</ele>
        <time>2024-09-21T08:10:57Z</time>
      </trkpt>
      <trkpt lat="42.43319" lon="2.70478">
        <ele>773</ele>
        <time>2024-09-21T08:11:00Z</time>
      </trkpt>
      <trkpt lat="42.43316" lon="2.70478">
        <ele>773</ele>
        <time>2024-09-21T08:11:01Z</time>
      </trkpt>
      <trkpt lat="42.43313" lon="2.70479">
        <ele>774</ele>
        <time>2024-09-21T08:11:04Z</time>
      </trkpt>
      <trkpt lat="42.4331" lon="2.70482">
        <ele>776</ele>
        <time>2024-09-21T08:11:06Z</time>
      </trkpt>
      <trkpt lat="42.43307" lon="2.70483">
        <ele>776</ele>
        <time>2024-09-21T08:11:08Z</time>
      </trkpt>
      <trkpt lat="42.43305" lon="2.70486">
        <ele>777</ele>
        <time>2024-09-21T08:11:11Z</time>
      </trkpt>
      <trkpt lat="42.43303" lon="2.7049">
        <ele>777</ele>
        <time>2024-09-21T08:11:14Z</time>
      </trkpt>
      <trkpt lat="42.43302" lon="2.70494">
        <ele>778</ele>
        <time>2024-09-21T08:11:21Z</time>
      </trkpt>
      <trkpt lat="42.43302" lon="2.70499">
        <ele>779</ele>
        <time>2024-09-21T08:11:24Z</time>
      </trkpt>
      <trkpt lat="42.43303" lon="2.70503">
        <ele>780</ele>
        <time>2024-09-21T08:11:27Z</time>
      </trkpt>
      <trkpt lat="42.43303" lon="2.70507">
        <ele>781</ele>
        <time>2024-09-21T08:11:31Z</time>
      </trkpt>
      <trkpt lat="42.43304" lon="2.7051">
        <ele>782</ele>
        <time>2024-09-21T08:11:33Z</time>
      </trkpt>
      <trkpt lat="42.43306" lon="2.70514">
        <ele>782</ele>
        <time>2024-09-21T08:11:35Z</time>
      </trkpt>
      <trkpt lat="42.43307" lon="2.70519">
        <ele>784</ele>
        <time>2024-09-21T08:11:38Z</time>
      </trkpt>
      <trkpt lat="42.43309" lon="2.70523">
        <ele>786</ele>
        <time>2024-09-21T08:11:42Z</time>
      </trkpt>
      <trkpt lat="42.43311" lon="2.70525">
        <ele>786</ele>
        <time>2024-09-21T08:11:45Z</time>
      </trkpt>
      <trkpt lat="42.43312" lon="2.7053">
        <ele>789</ele>
        <time>2024-09-21T08:11:48Z</time>
      </trkpt>
      <trkpt lat="42.43312" lon="2.70534">
        <ele>789</ele>
        <time>2024-09-21T08:11:52Z</time>
      </trkpt>
      <trkpt lat="42.43312" lon="2.70537">
        <ele>789</ele>
        <time>2024-09-21T08:11:55Z</time>
      </trkpt>
      <trkpt lat="42.43312" lon="2.70541">
        <ele>788</ele>
        <time>2024-09-21T08:11:59Z</time>
      </trkpt>
      <trkpt lat="42.43311" lon="2.70546">
        <ele>788</ele>
        <time>2024-09-21T08:12:03Z</time>
      </trkpt>
      <trkpt lat="42.43311" lon="2.70551">
        <ele>787</ele>
        <time>2024-09-21T08:12:06Z</time>
      </trkpt>
      <trkpt lat="42.43311" lon="2.70555">
        <ele>787</ele>
        <time>2024-09-21T08:12:10Z</time>
      </trkpt>
      <trkpt lat="42.4331" lon="2.7056">
        <ele>788</ele>
        <time>2024-09-21T08:12:13Z</time>
      </trkpt>
      <trkpt lat="42.43308" lon="2.70564">
        <ele>787</ele>
        <time>2024-09-21T08:12:17Z</time>
      </trkpt>
      <trkpt lat="42.43306" lon="2.70568">
        <ele>789</ele>
        <time>2024-09-21T08:12:20Z</time>
      </trkpt>
      <trkpt lat="42.43303" lon="2.70568">
        <ele>787</ele>
        <time>2024-09-21T08:12:23Z</time>
      </trkpt>
      <trkpt lat="42.433" lon="2.70565">
        <ele>788</ele>
        <time>2024-09-21T08:12:27Z</time>
      </trkpt>
      <trkpt lat="42.43297" lon="2.70564">
        <ele>789</ele>
        <time>2024-09-21T08:12:31Z</time>
      </trkpt>
      <trkpt lat="42.43294" lon="2.70563">
        <ele>789</ele>
        <time>2024-09-21T08:12:36Z</time>
      </trkpt>
      <trkpt lat="42.43291" lon="2.70562">
        <ele>789</ele>
        <time>2024-09-21T08:12:39Z</time>
      </trkpt>
      <trkpt lat="42.43288" lon="2.70561">
        <ele>790</ele>
        <time>2024-09-21T08:12:43Z</time>
      </trkpt>
      <trkpt lat="42.43285" lon="2.7056">
        <ele>791</ele>
        <time>2024-09-21T08:12:47Z</time>
      </trkpt>
      <trkpt lat="42.43282" lon="2.70557">
        <ele>792</ele>
        <time>2024-09-21T08:12:50Z</time>
      </trkpt>
      <trkpt lat="42.43279" lon="2.70557">
        <ele>791</ele>
        <time>2024-09-21T08:12:54Z</time>
      </trkpt>
      <trkpt lat="42.43276" lon="2.70557">
        <ele>792</ele>
        <time>2024-09-21T08:12:58Z</time>
      </trkpt>
      <trkpt lat="42.43273" lon="2.70556">
        <ele>792</ele>
        <time>2024-09-21T08:13:01Z</time>
      </trkpt>
      <trkpt lat="42.4327" lon="2.70554">
        <ele>792</ele>
        <time>2024-09-21T08:13:06Z</time>
      </trkpt>
      <trkpt lat="42.43268" lon="2.70552">
        <ele>792</ele>
        <time>2024-09-21T08:13:08Z</time>
      </trkpt>
      <trkpt lat="42.43266" lon="2.70549">
        <ele>793</ele>
        <time>2024-09-21T08:13:12Z</time>
      </trkpt>
      <trkpt lat="42.43265" lon="2.70545">
        <ele>793</ele>
        <time>2024-09-21T08:13:15Z</time>
      </trkpt>
      <trkpt lat="42.43263" lon="2.70542">
        <ele>794</ele>
        <time>2024-09-21T08:13:18Z</time>
      </trkpt>
      <trkpt lat="42.43261" lon="2.70539">
        <ele>794</ele>
        <time>2024-09-21T08:13:21Z</time>
      </trkpt>
      <trkpt lat="42.43259" lon="2.70536">
        <ele>795</ele>
        <time>2024-09-21T08:13:25Z</time>
      </trkpt>
      <trkpt lat="42.43257" lon="2.70532">
        <ele>796</ele>
        <time>2024-09-21T08:13:28Z</time>
      </trkpt>
      <trkpt lat="42.43254" lon="2.70528">
        <ele>796</ele>
        <time>2024-09-21T08:13:31Z</time>
      </trkpt>
      <trkpt lat="42.43252" lon="2.70524">
        <ele>798</ele>
        <time>2024-09-21T08:13:38Z</time>
      </trkpt>
      <trkpt lat="42.43249" lon="2.7052">
        <ele>798</ele>
        <time>2024-09-21T08:13:41Z</time>
      </trkpt>
      <trkpt lat="42.43247" lon="2.70516">
        <ele>798</ele>
        <time>2024-09-21T08:13:45Z</time>
      </trkpt>
      <trkpt lat="42.43244" lon="2.70512">
        <ele>798</ele>
        <time>2024-09-21T08:13:49Z</time>
      </trkpt>
      <trkpt lat="42.43241" lon="2.70508">
        <ele>798</ele>
        <time>2024-09-21T08:13:51Z</time>
      </trkpt>
      <trkpt lat="42.43239" lon="2.70505">
        <ele>797</ele>
        <time>2024-09-21T08:13:54Z</time>
      </trkpt>
      <trkpt lat="42.43237" lon="2.70503">
        <ele>798</ele>
        <time>2024-09-21T08:13:58Z</time>
      </trkpt>
      <trkpt lat="42.43235" lon="2.70499">
        <ele>798</ele>
        <time>2024-09-21T08:14:02Z</time>
      </trkpt>
      <trkpt lat="42.43232" lon="2.70496">
        <ele>799</ele>
        <time>2024-09-21T08:14:06Z</time>
      </trkpt>
      <trkpt lat="42.43229" lon="2.70493">
        <ele>799</ele>
        <time>2024-09-21T08:14:10Z</time>
      </trkpt>
      <trkpt lat="42.43226" lon="2.7049">
        <ele>800</ele>
        <time>2024-09-21T08:14:15Z</time>
      </trkpt>
      <trkpt lat="42.43223" lon="2.70489">
        <ele>800</ele>
        <time>2024-09-21T08:14:18Z</time>
      </trkpt>
      <trkpt lat="42.43221" lon="2.70485">
        <ele>799</ele>
        <time>2024-09-21T08:14:22Z</time>
      </trkpt>
      <trkpt lat="42.43217" lon="2.70483">
        <ele>801</ele>
        <time>2024-09-21T08:14:26Z</time>
      </trkpt>
      <trkpt lat="42.43214" lon="2.7048">
        <ele>801</ele>
        <time>2024-09-21T08:14:30Z</time>
      </trkpt>
      <trkpt lat="42.43211" lon="2.70478">
        <ele>802</ele>
        <time>2024-09-21T08:14:34Z</time>
      </trkpt>
      <trkpt lat="42.43209" lon="2.70475">
        <ele>803</ele>
        <time>2024-09-21T08:14:36Z</time>
      </trkpt>
      <trkpt lat="42.43206" lon="2.70472">
        <ele>803</ele>
        <time>2024-09-21T08:14:41Z</time>
      </trkpt>
      <trkpt lat="42.43203" lon="2.70469">
        <ele>803</ele>
        <time>2024-09-21T08:14:45Z</time>
      </trkpt>
      <trkpt lat="42.432" lon="2.70465">
        <ele>804</ele>
        <time>2024-09-21T08:14:48Z</time>
      </trkpt>
      <trkpt lat="42.43197" lon="2.70464">
        <ele>805</ele>
        <time>2024-09-21T08:14:52Z</time>
      </trkpt>
      <trkpt lat="42.43193" lon="2.70462">
        <ele>806</ele>
        <time>2024-09-21T08:14:55Z</time>
      </trkpt>
      <trkpt lat="42.4319" lon="2.70461">
        <ele>807</ele>
        <time>2024-09-21T08:14:59Z</time>
      </trkpt>
      <trkpt lat="42.43186" lon="2.70459">
        <ele>810</ele>
        <time>2024-09-21T08:15:02Z</time>
      </trkpt>
      <trkpt lat="42.43183" lon="2.70457">
        <ele>810</ele>
        <time>2024-09-21T08:15:04Z</time>
      </trkpt>
      <trkpt lat="42.43181" lon="2.70455">
        <ele>811</ele>
        <time>2024-09-21T08:15:09Z</time>
      </trkpt>
      <trkpt lat="42.43178" lon="2.70456">
        <ele>811</ele>
        <time>2024-09-21T08:15:13Z</time>
      </trkpt>
      <trkpt lat="42.43174" lon="2.70458">
        <ele>812</ele>
        <time>2024-09-21T08:15:18Z</time>
      </trkpt>
      <trkpt lat="42.4317" lon="2.70458">
        <ele>812</ele>
        <time>2024-09-21T08:15:21Z</time>
      </trkpt>
      <trkpt lat="42.43166" lon="2.70458">
        <ele>813</ele>
        <time>2024-09-21T08:15:25Z</time>
      </trkpt>
      <trkpt lat="42.43163" lon="2.70458">
        <ele>813</ele>
        <time>2024-09-21T08:15:27Z</time>
      </trkpt>
      <trkpt lat="42.4316" lon="2.70458">
        <ele>813</ele>
        <time>2024-09-21T08:15:31Z</time>
      </trkpt>
      <trkpt lat="42.43157" lon="2.70456">
        <ele>812</ele>
        <time>2024-09-21T08:15:33Z</time>
      </trkpt>
      <trkpt lat="42.43154" lon="2.70454">
        <ele>810</ele>
        <time>2024-09-21T08:15:36Z</time>
      </trkpt>
      <trkpt lat="42.43151" lon="2.70452">
        <ele>812</ele>
        <time>2024-09-21T08:15:40Z</time>
      </trkpt>
      <trkpt lat="42.43148" lon="2.70452">
        <ele>812</ele>
        <time>2024-09-21T08:15:42Z</time>
      </trkpt>
      <trkpt lat="42.43145" lon="2.7045">
        <ele>812</ele>
        <time>2024-09-21T08:15:47Z</time>
      </trkpt>
      <trkpt lat="42.43143" lon="2.70449">
        <ele>812</ele>
        <time>2024-09-21T08:15:51Z</time>
      </trkpt>
      <trkpt lat="42.43141" lon="2.70446">
        <ele>813</ele>
        <time>2024-09-21T08:15:54Z</time>
      </trkpt>
      <trkpt lat="42.43139" lon="2.70444">
        <ele>813</ele>
        <time>2024-09-21T08:15:57Z</time>
      </trkpt>
      <trkpt lat="42.43137" lon="2.70441">
        <ele>813</ele>
        <time>2024-09-21T08:16:00Z</time>
      </trkpt>
      <trkpt lat="42.43137" lon="2.70437">
        <ele>813</ele>
        <time>2024-09-21T08:16:02Z</time>
      </trkpt>
      <trkpt lat="42.43138" lon="2.70432">
        <ele>814</ele>
        <time>2024-09-21T08:16:05Z</time>
      </trkpt>
      <trkpt lat="42.4314" lon="2.70429">
        <ele>814</ele>
        <time>2024-09-21T08:16:07Z</time>
      </trkpt>
      <trkpt lat="42.43143" lon="2.70428">
        <ele>816</ele>
        <time>2024-09-21T08:16:10Z</time>
      </trkpt>
      <trkpt lat="42.43146" lon="2.70425">
        <ele>816</ele>
        <time>2024-09-21T08:16:13Z</time>
      </trkpt>
      <trkpt lat="42.43149" lon="2.70423">
        <ele>816</ele>
        <time>2024-09-21T08:16:16Z</time>
      </trkpt>
      <trkpt lat="42.43151" lon="2.7042">
        <ele>816</ele>
        <time>2024-09-21T08:16:19Z</time>
      </trkpt>
      <trkpt lat="42.43154" lon="2.70418">
        <ele>816</ele>
        <time>2024-09-21T08:16:21Z</time>
      </trkpt>
      <trkpt lat="42.43157" lon="2.70416">
        <ele>815</ele>
        <time>2024-09-21T08:16:25Z</time>
      </trkpt>
      <trkpt lat="42.4316" lon="2.70414">
        <ele>816</ele>
        <time>2024-09-21T08:16:28Z</time>
      </trkpt>
      <trkpt lat="42.43163" lon="2.70412">
        <ele>815</ele>
        <time>2024-09-21T08:16:29Z</time>
      </trkpt>
      <trkpt lat="42.43166" lon="2.70411">
        <ele>815</ele>
        <time>2024-09-21T08:16:31Z</time>
      </trkpt>
      <trkpt lat="42.43168" lon="2.70408">
        <ele>816</ele>
        <time>2024-09-21T08:16:38Z</time>
      </trkpt>
      <trkpt lat="42.43171" lon="2.70407">
        <ele>816</ele>
        <time>2024-09-21T08:16:41Z</time>
      </trkpt>
      <trkpt lat="42.43174" lon="2.70407">
        <ele>816</ele>
        <time>2024-09-21T08:16:42Z</time>
      </trkpt>
      <trkpt lat="42.43177" lon="2.70405">
        <ele>817</ele>
        <time>2024-09-21T08:16:48Z</time>
      </trkpt>
      <trkpt lat="42.4318" lon="2.70404">
        <ele>817</ele>
        <time>2024-09-21T08:16:52Z</time>
      </trkpt>
      <trkpt lat="42.43183" lon="2.70403">
        <ele>817</ele>
        <time>2024-09-21T08:16:55Z</time>
      </trkpt>
      <trkpt lat="42.43187" lon="2.70403">
        <ele>816</ele>
        <time>2024-09-21T08:16:57Z</time>
      </trkpt>
      <trkpt lat="42.43191" lon="2.70401">
        <ele>817</ele>
        <time>2024-09-21T08:17:00Z</time>
      </trkpt>
      <trkpt lat="42.43194" lon="2.704">
        <ele>816</ele>
        <time>2024-09-21T08:17:04Z</time>
      </trkpt>
      <trkpt lat="42.43197" lon="2.70397">
        <ele>817</ele>
        <time>2024-09-21T08:17:08Z</time>
      </trkpt>
      <trkpt lat="42.432" lon="2.70395">
        <ele>816</ele>
        <time>2024-09-21T08:17:09Z</time>
      </trkpt>
      <trkpt lat="42.43203" lon="2.70393">
        <ele>817</ele>
        <time>2024-09-21T08:17:14Z</time>
      </trkpt>
      <trkpt lat="42.43207" lon="2.70391">
        <ele>817</ele>
        <time>2024-09-21T08:17:19Z</time>
      </trkpt>
      <trkpt lat="42.43211" lon="2.7039">
        <ele>818</ele>
        <time>2024-09-21T08:17:20Z</time>
      </trkpt>
      <trkpt lat="42.43214" lon="2.7039">
        <ele>818</ele>
        <time>2024-09-21T08:17:23Z</time>
      </trkpt>
      <trkpt lat="42.43218" lon="2.7039">
        <ele>818</ele>
        <time>2024-09-21T08:17:27Z</time>
      </trkpt>
      <trkpt lat="42.43222" lon="2.7039">
        <ele>819</ele>
        <time>2024-09-21T08:17:30Z</time>
      </trkpt>
      <trkpt lat="42.43226" lon="2.70389">
        <ele>819</ele>
        <time>2024-09-21T08:17:34Z</time>
      </trkpt>
      <trkpt lat="42.43229" lon="2.70388">
        <ele>819</ele>
        <time>2024-09-21T08:17:38Z</time>
      </trkpt>
      <trkpt lat="42.43232" lon="2.70388">
        <ele>820</ele>
        <time>2024-09-21T08:17:40Z</time>
      </trkpt>
      <trkpt lat="42.43235" lon="2.70386">
        <ele>820</ele>
        <time>2024-09-21T08:17:43Z</time>
      </trkpt>
      <trkpt lat="42.43238" lon="2.70387">
        <ele>821</ele>
        <time>2024-09-21T08:17:48Z</time>
      </trkpt>
      <trkpt lat="42.43242" lon="2.70387">
        <ele>823</ele>
        <time>2024-09-21T08:17:53Z</time>
      </trkpt>
      <trkpt lat="42.43246" lon="2.70386">
        <ele>823</ele>
        <time>2024-09-21T08:17:57Z</time>
      </trkpt>
      <trkpt lat="42.43249" lon="2.70384">
        <ele>823</ele>
        <time>2024-09-21T08:18:01Z</time>
      </trkpt>
      <trkpt lat="42.43253" lon="2.70383">
        <ele>823</ele>
        <time>2024-09-21T08:18:05Z</time>
      </trkpt>
      <trkpt lat="42.43257" lon="2.7038">
        <ele>823</ele>
        <time>2024-09-21T08:18:08Z</time>
      </trkpt>
      <trkpt lat="42.43258" lon="2.70377">
        <ele>823</ele>
        <time>2024-09-21T08:18:11Z</time>
      </trkpt>
      <trkpt lat="42.4326" lon="2.70374">
        <ele>823</ele>
        <time>2024-09-21T08:18:13Z</time>
      </trkpt>
      <trkpt lat="42.43261" lon="2.7037">
        <ele>823</ele>
        <time>2024-09-21T08:18:18Z</time>
      </trkpt>
      <trkpt lat="42.43262" lon="2.70366">
        <ele>824</ele>
        <time>2024-09-21T08:18:21Z</time>
      </trkpt>
      <trkpt lat="42.43262" lon="2.70362">
        <ele>823</ele>
        <time>2024-09-21T08:18:24Z</time>
      </trkpt>
      <trkpt lat="42.43262" lon="2.70358">
        <ele>824</ele>
        <time>2024-09-21T08:18:26Z</time>
      </trkpt>
      <trkpt lat="42.43262" lon="2.70354">
        <ele>825</ele>
        <time>2024-09-21T08:18:30Z</time>
      </trkpt>
      <trkpt lat="42.43263" lon="2.7035">
        <ele>826</ele>
        <time>2024-09-21T08:18:33Z</time>
      </trkpt>
      <trkpt lat="42.43263" lon="2.70345">
        <ele>826</ele>
        <time>2024-09-21T08:18:37Z</time>
      </trkpt>
      <trkpt lat="42.43264" lon="2.7034">
        <ele>826</ele>
        <time>2024-09-21T08:18:41Z</time>
      </trkpt>
      <trkpt lat="42.43264" lon="2.70336">
        <ele>826</ele>
        <time>2024-09-21T08:18:45Z</time>
      </trkpt>
      <trkpt lat="42.43266" lon="2.70331">
        <ele>827</ele>
        <time>2024-09-21T08:18:49Z</time>
      </trkpt>
      <trkpt lat="42.43267" lon="2.70328">
        <ele>828</ele>
        <time>2024-09-21T08:18:51Z</time>
      </trkpt>
      <trkpt lat="42.43269" lon="2.70324">
        <ele>828</ele>
        <time>2024-09-21T08:18:56Z</time>
      </trkpt>
      <trkpt lat="42.43271" lon="2.70321">
        <ele>829</ele>
        <time>2024-09-21T08:18:58Z</time>
      </trkpt>
      <trkpt lat="42.43272" lon="2.70322">
        <ele>830</ele>
        <time>2024-09-21T08:19:16Z</time>
      </trkpt>
      <trkpt lat="42.43271" lon="2.7032">
        <ele>828</ele>
        <time>2024-09-21T08:19:51Z</time>
      </trkpt>
      <trkpt lat="42.43272" lon="2.70318">
        <ele>829</ele>
        <time>2024-09-21T08:19:54Z</time>
      </trkpt>
      <trkpt lat="42.43273" lon="2.70314">
        <ele>831</ele>
        <time>2024-09-21T08:19:58Z</time>
      </trkpt>
      <trkpt lat="42.43275" lon="2.70312">
        <ele>832</ele>
        <time>2024-09-21T08:20:03Z</time>
      </trkpt>
      <trkpt lat="42.43278" lon="2.70308">
        <ele>832</ele>
        <time>2024-09-21T08:20:06Z</time>
      </trkpt>
      <trkpt lat="42.4328" lon="2.70305">
        <ele>831</ele>
        <time>2024-09-21T08:20:11Z</time>
      </trkpt>
      <trkpt lat="42.43282" lon="2.70301">
        <ele>833</ele>
        <time>2024-09-21T08:20:14Z</time>
      </trkpt>
      <trkpt lat="42.43281" lon="2.70301">
        <ele>832</ele>
        <time>2024-09-21T08:20:18Z</time>
      </trkpt>
      <trkpt lat="42.43279" lon="2.70304">
        <ele>832</ele>
        <time>2024-09-21T08:20:20Z</time>
      </trkpt>
      <trkpt lat="42.43277" lon="2.70306">
        <ele>831</ele>
        <time>2024-09-21T08:20:22Z</time>
      </trkpt>
      <trkpt lat="42.43275" lon="2.7031">
        <ele>830</ele>
        <time>2024-09-21T08:20:25Z</time>
      </trkpt>
      <trkpt lat="42.43272" lon="2.70312">
        <ele>830</ele>
        <time>2024-09-21T08:20:27Z</time>
      </trkpt>
      <trkpt lat="42.43271" lon="2.70317">
        <ele>828</ele>
        <time>2024-09-21T08:20:30Z</time>
      </trkpt>
      <trkpt lat="42.43271" lon="2.70316">
        <ele>829</ele>
        <time>2024-09-21T08:20:35Z</time>
      </trkpt>
      <trkpt lat="42.43273" lon="2.70313">
        <ele>830</ele>
        <time>2024-09-21T08:20:38Z</time>
      </trkpt>
      <trkpt lat="42.43275" lon="2.7031">
        <ele>831</ele>
        <time>2024-09-21T08:20:41Z</time>
      </trkpt>
      <trkpt lat="42.43277" lon="2.70307">
        <ele>831</ele>
        <time>2024-09-21T08:20:44Z</time>
      </trkpt>
      <trkpt lat="42.43279" lon="2.70305">
        <ele>832</ele>
        <time>2024-09-21T08:20:46Z</time>
      </trkpt>
      <trkpt lat="42.43282" lon="2.70304">
        <ele>834</ele>
        <time>2024-09-21T08:20:48Z</time>
      </trkpt>
      <trkpt lat="42.43284" lon="2.70301">
        <ele>834</ele>
        <time>2024-09-21T08:20:50Z</time>
      </trkpt>
      <trkpt lat="42.43286" lon="2.70299">
        <ele>834</ele>
        <time>2024-09-21T08:20:55Z</time>
      </trkpt>
      <trkpt lat="42.4329" lon="2.70298">
        <ele>835</ele>
        <time>2024-09-21T08:21:00Z</time>
      </trkpt>
      <trkpt lat="42.43293" lon="2.70296">
        <ele>834</ele>
        <time>2024-09-21T08:21:03Z</time>
      </trkpt>
      <trkpt lat="42.43296" lon="2.70291">
        <ele>837</ele>
        <time>2024-09-21T08:21:06Z</time>
      </trkpt>
      <trkpt lat="42.43297" lon="2.70287">
        <ele>837</ele>
        <time>2024-09-21T08:21:10Z</time>
      </trkpt>
      <trkpt lat="42.43296" lon="2.70285">
        <ele>837</ele>
        <time>2024-09-21T08:21:13Z</time>
      </trkpt>
      <trkpt lat="42.43294" lon="2.70281">
        <ele>836</ele>
        <time>2024-09-21T08:21:18Z</time>
      </trkpt>
      <trkpt lat="42.43291" lon="2.70279">
        <ele>838</ele>
        <time>2024-09-21T08:21:21Z</time>
      </trkpt>
      <trkpt lat="42.43292" lon="2.70278">
        <ele>838</ele>
        <time>2024-09-21T08:21:28Z</time>
      </trkpt>
      <trkpt lat="42.4329" lon="2.70276">
        <ele>838</ele>
        <time>2024-09-21T08:21:34Z</time>
      </trkpt>
      <trkpt lat="42.43288" lon="2.70274">
        <ele>837</ele>
        <time>2024-09-21T08:21:37Z</time>
      </trkpt>
      <trkpt lat="42.43285" lon="2.70273">
        <ele>838</ele>
        <time>2024-09-21T08:21:41Z</time>
      </trkpt>
      <trkpt lat="42.43282" lon="2.70272">
        <ele>838</ele>
        <time>2024-09-21T08:21:44Z</time>
      </trkpt>
      <trkpt lat="42.43279" lon="2.70271">
        <ele>839</ele>
        <time>2024-09-21T08:21:47Z</time>
      </trkpt>
      <trkpt lat="42.43276" lon="2.70269">
        <ele>840</ele>
        <time>2024-09-21T08:21:52Z</time>
      </trkpt>
      <trkpt lat="42.43272" lon="2.70269">
        <ele>841</ele>
        <time>2024-09-21T08:21:57Z</time>
      </trkpt>
      <trkpt lat="42.43269" lon="2.7027">
        <ele>841</ele>
        <time>2024-09-21T08:22:01Z</time>
      </trkpt>
      <trkpt lat="42.43266" lon="2.70269">
        <ele>843</ele>
        <time>2024-09-21T08:22:08Z</time>
      </trkpt>
      <trkpt lat="42.43265" lon="2.70267">
        <ele>843</ele>
        <time>2024-09-21T08:22:12Z</time>
      </trkpt>
      <trkpt lat="42.43263" lon="2.70264">
        <ele>844</ele>
        <time>2024-09-21T08:22:14Z</time>
      </trkpt>
      <trkpt lat="42.4326" lon="2.70263">
        <ele>844</ele>
        <time>2024-09-21T08:22:18Z</time>
      </trkpt>
      <trkpt lat="42.43259" lon="2.70258">
        <ele>847</ele>
        <time>2024-09-21T08:22:24Z</time>
      </trkpt>
      <trkpt lat="42.43257" lon="2.70258">
        <ele>846</ele>
        <time>2024-09-21T08:22:27Z</time>
      </trkpt>
      <trkpt lat="42.43254" lon="2.70259">
        <ele>846</ele>
        <time>2024-09-21T08:22:30Z</time>
      </trkpt>
      <trkpt lat="42.43251" lon="2.70261">
        <ele>846</ele>
        <time>2024-09-21T08:22:35Z</time>
      </trkpt>
      <trkpt lat="42.43248" lon="2.70259">
        <ele>847</ele>
        <time>2024-09-21T08:22:37Z</time>
      </trkpt>
      <trkpt lat="42.43244" lon="2.7026">
        <ele>847</ele>
        <time>2024-09-21T08:22:41Z</time>
      </trkpt>
      <trkpt lat="42.43242" lon="2.70262">
        <ele>847</ele>
        <time>2024-09-21T08:22:47Z</time>
      </trkpt>
      <trkpt lat="42.4324" lon="2.70263">
        <ele>847</ele>
        <time>2024-09-21T08:22:50Z</time>
      </trkpt>
      <trkpt lat="42.43237" lon="2.70262">
        <ele>847</ele>
        <time>2024-09-21T08:22:53Z</time>
      </trkpt>
      <trkpt lat="42.43233" lon="2.70261">
        <ele>849</ele>
        <time>2024-09-21T08:22:56Z</time>
      </trkpt>
      <trkpt lat="42.43231" lon="2.70259">
        <ele>850</ele>
        <time>2024-09-21T08:23:01Z</time>
      </trkpt>
      <trkpt lat="42.43228" lon="2.70258">
        <ele>851</ele>
        <time>2024-09-21T08:23:07Z</time>
      </trkpt>
      <trkpt lat="42.43224" lon="2.70257">
        <ele>851</ele>
        <time>2024-09-21T08:23:11Z</time>
      </trkpt>
      <trkpt lat="42.43221" lon="2.70257">
        <ele>852</ele>
        <time>2024-09-21T08:23:14Z</time>
      </trkpt>
      <trkpt lat="42.43218" lon="2.70256">
        <ele>852</ele>
        <time>2024-09-21T08:23:18Z</time>
      </trkpt>
      <trkpt lat="42.43218" lon="2.70254">
        <ele>853</ele>
        <time>2024-09-21T08:23:28Z</time>
      </trkpt>
      <trkpt lat="42.43216" lon="2.70254">
        <ele>852</ele>
        <time>2024-09-21T08:23:32Z</time>
      </trkpt>
      <trkpt lat="42.43213" lon="2.70255">
        <ele>852</ele>
        <time>2024-09-21T08:23:35Z</time>
      </trkpt>
      <trkpt lat="42.4321" lon="2.70256">
        <ele>853</ele>
        <time>2024-09-21T08:23:39Z</time>
      </trkpt>
      <trkpt lat="42.43209" lon="2.70253">
        <ele>854</ele>
        <time>2024-09-21T08:23:44Z</time>
      </trkpt>
      <trkpt lat="42.43206" lon="2.70253">
        <ele>856</ele>
        <time>2024-09-21T08:23:48Z</time>
      </trkpt>
      <trkpt lat="42.43203" lon="2.70251">
        <ele>856</ele>
        <time>2024-09-21T08:23:56Z</time>
      </trkpt>
      <trkpt lat="42.432" lon="2.7025">
        <ele>858</ele>
        <time>2024-09-21T08:24:02Z</time>
      </trkpt>
      <trkpt lat="42.43197" lon="2.70248">
        <ele>860</ele>
        <time>2024-09-21T08:24:08Z</time>
      </trkpt>
      <trkpt lat="42.43194" lon="2.70249">
        <ele>861</ele>
        <time>2024-09-21T08:24:14Z</time>
      </trkpt>
      <trkpt lat="42.43192" lon="2.7025">
        <ele>862</ele>
        <time>2024-09-21T08:24:18Z</time>
      </trkpt>
      <trkpt lat="42.43189" lon="2.7025">
        <ele>863</ele>
        <time>2024-09-21T08:24:24Z</time>
      </trkpt>
      <trkpt lat="42.43186" lon="2.70249">
        <ele>864</ele>
        <time>2024-09-21T08:24:27Z</time>
      </trkpt>
      <trkpt lat="42.43183" lon="2.70248">
        <ele>865</ele>
        <time>2024-09-21T08:24:31Z</time>
      </trkpt>
      <trkpt lat="42.43182" lon="2.7025">
        <ele>866</ele>
        <time>2024-09-21T08:24:40Z</time>
      </trkpt>
      <trkpt lat="42.4318" lon="2.70251">
        <ele>866</ele>
        <time>2024-09-21T08:24:43Z</time>
      </trkpt>
      <trkpt lat="42.43178" lon="2.70253">
        <ele>867</ele>
        <time>2024-09-21T08:24:50Z</time>
      </trkpt>
      <trkpt lat="42.43175" lon="2.70253">
        <ele>867</ele>
        <time>2024-09-21T08:24:55Z</time>
      </trkpt>
      <trkpt lat="42.43172" lon="2.70254">
        <ele>868</ele>
        <time>2024-09-21T08:24:59Z</time>
      </trkpt>
      <trkpt lat="42.43169" lon="2.70253">
        <ele>869</ele>
        <time>2024-09-21T08:25:03Z</time>
      </trkpt>
      <trkpt lat="42.43166" lon="2.70254">
        <ele>869</ele>
        <time>2024-09-21T08:25:08Z</time>
      </trkpt>
      <trkpt lat="42.43163" lon="2.70254">
        <ele>870</ele>
        <time>2024-09-21T08:25:18Z</time>
      </trkpt>
      <trkpt lat="42.4316" lon="2.70255">
        <ele>869</ele>
        <time>2024-09-21T08:25:22Z</time>
      </trkpt>
      <trkpt lat="42.43156" lon="2.70257">
        <ele>870</ele>
        <time>2024-09-21T08:25:29Z</time>
      </trkpt>
      <trkpt lat="42.43154" lon="2.70257">
        <ele>870</ele>
        <time>2024-09-21T08:25:32Z</time>
      </trkpt>
      <trkpt lat="42.43152" lon="2.70259">
        <ele>872</ele>
        <time>2024-09-21T08:25:38Z</time>
      </trkpt>
      <trkpt lat="42.43149" lon="2.7026">
        <ele>869</ele>
        <time>2024-09-21T08:25:40Z</time>
      </trkpt>
      <trkpt lat="42.43146" lon="2.70259">
        <ele>870</ele>
        <time>2024-09-21T08:25:42Z</time>
      </trkpt>
      <trkpt lat="42.43143" lon="2.70258">
        <ele>871</ele>
        <time>2024-09-21T08:25:45Z</time>
      </trkpt>
      <trkpt lat="42.4314" lon="2.70258">
        <ele>872</ele>
        <time>2024-09-21T08:25:48Z</time>
      </trkpt>
      <trkpt lat="42.43137" lon="2.70258">
        <ele>872</ele>
        <time>2024-09-21T08:25:51Z</time>
      </trkpt>
      <trkpt lat="42.43134" lon="2.70258">
        <ele>873</ele>
        <time>2024-09-21T08:25:54Z</time>
      </trkpt>
      <trkpt lat="42.43131" lon="2.70259">
        <ele>873</ele>
        <time>2024-09-21T08:25:58Z</time>
      </trkpt>
      <trkpt lat="42.43127" lon="2.70261">
        <ele>874</ele>
        <time>2024-09-21T08:26:02Z</time>
      </trkpt>
      <trkpt lat="42.43123" lon="2.70261">
        <ele>875</ele>
        <time>2024-09-21T08:26:07Z</time>
      </trkpt>
      <trkpt lat="42.4312" lon="2.7026">
        <ele>874</ele>
        <time>2024-09-21T08:26:12Z</time>
      </trkpt>
      <trkpt lat="42.43118" lon="2.70258">
        <ele>877</ele>
        <time>2024-09-21T08:26:19Z</time>
      </trkpt>
      <trkpt lat="42.43116" lon="2.70257">
        <ele>877</ele>
        <time>2024-09-21T08:26:22Z</time>
      </trkpt>
      <trkpt lat="42.43113" lon="2.70256">
        <ele>877</ele>
        <time>2024-09-21T08:26:25Z</time>
      </trkpt>
      <trkpt lat="42.43109" lon="2.70256">
        <ele>877</ele>
        <time>2024-09-21T08:26:33Z</time>
      </trkpt>
      <trkpt lat="42.43106" lon="2.70257">
        <ele>878</ele>
        <time>2024-09-21T08:26:37Z</time>
      </trkpt>
      <trkpt lat="42.43103" lon="2.70258">
        <ele>880</ele>
        <time>2024-09-21T08:26:41Z</time>
      </trkpt>
      <trkpt lat="42.43099" lon="2.70257">
        <ele>881</ele>
        <time>2024-09-21T08:26:44Z</time>
      </trkpt>
      <trkpt lat="42.43096" lon="2.70257">
        <ele>883</ele>
        <time>2024-09-21T08:26:49Z</time>
      </trkpt>
      <trkpt lat="42.43096" lon="2.70259">
        <ele>884</ele>
        <time>2024-09-21T08:26:51Z</time>
      </trkpt>
      <trkpt lat="42.43094" lon="2.70261">
        <ele>883</ele>
        <time>2024-09-21T08:26:54Z</time>
      </trkpt>
      <trkpt lat="42.43092" lon="2.70261">
        <ele>884</ele>
        <time>2024-09-21T08:26:57Z</time>
      </trkpt>
      <trkpt lat="42.43089" lon="2.70261">
        <ele>886</ele>
        <time>2024-09-21T08:27:04Z</time>
      </trkpt>
      <trkpt lat="42.43086" lon="2.70261">
        <ele>886</ele>
        <time>2024-09-21T08:27:07Z</time>
      </trkpt>
      <trkpt lat="42.43083" lon="2.70262">
        <ele>886</ele>
        <time>2024-09-21T08:27:13Z</time>
      </trkpt>
      <trkpt lat="42.43081" lon="2.70259">
        <ele>888</ele>
        <time>2024-09-21T08:27:22Z</time>
      </trkpt>
      <trkpt lat="42.4308" lon="2.70255">
        <ele>889</ele>
        <time>2024-09-21T08:27:30Z</time>
      </trkpt>
      <trkpt lat="42.4308" lon="2.70251">
        <ele>891</ele>
        <time>2024-09-21T08:27:35Z</time>
      </trkpt>
      <trkpt lat="42.43078" lon="2.70248">
        <ele>891</ele>
        <time>2024-09-21T08:27:39Z</time>
      </trkpt>
      <trkpt lat="42.43076" lon="2.70245">
        <ele>892</ele>
        <time>2024-09-21T08:27:44Z</time>
      </trkpt>
      <trkpt lat="42.43074" lon="2.70242">
        <ele>893</ele>
        <time>2024-09-21T08:27:47Z</time>
      </trkpt>
      <trkpt lat="42.43071" lon="2.70241">
        <ele>892</ele>
        <time>2024-09-21T08:27:48Z</time>
      </trkpt>
      <trkpt lat="42.43068" lon="2.70237">
        <ele>894</ele>
        <time>2024-09-21T08:27:52Z</time>
      </trkpt>
      <trkpt lat="42.43065" lon="2.70235">
        <ele>895</ele>
        <time>2024-09-21T08:28:00Z</time>
      </trkpt>
      <trkpt lat="42.43062" lon="2.70234">
        <ele>897</ele>
        <time>2024-09-21T08:28:06Z</time>
      </trkpt>
      <trkpt lat="42.43059" lon="2.70235">
        <ele>897</ele>
        <time>2024-09-21T08:28:09Z</time>
      </trkpt>
      <trkpt lat="42.43057" lon="2.70235">
        <ele>897</ele>
        <time>2024-09-21T08:28:23Z</time>
      </trkpt>
      <trkpt lat="42.43054" lon="2.70233">
        <ele>898</ele>
        <time>2024-09-21T08:28:29Z</time>
      </trkpt>
      <trkpt lat="42.43053" lon="2.70236">
        <ele>902</ele>
        <time>2024-09-21T08:28:50Z</time>
      </trkpt>
      <trkpt lat="42.4305" lon="2.70238">
        <ele>902</ele>
        <time>2024-09-21T08:28:57Z</time>
      </trkpt>
      <trkpt lat="42.43048" lon="2.70238">
        <ele>903</ele>
        <time>2024-09-21T08:29:01Z</time>
      </trkpt>
      <trkpt lat="42.43045" lon="2.70237">
        <ele>903</ele>
        <time>2024-09-21T08:29:08Z</time>
      </trkpt>
      <trkpt lat="42.43043" lon="2.70234">
        <ele>904</ele>
        <time>2024-09-21T08:29:12Z</time>
      </trkpt>
      <trkpt lat="42.43041" lon="2.70231">
        <ele>905</ele>
        <time>2024-09-21T08:29:14Z</time>
      </trkpt>
      <trkpt lat="42.43038" lon="2.70228">
        <ele>907</ele>
        <time>2024-09-21T08:29:19Z</time>
      </trkpt>
      <trkpt lat="42.43036" lon="2.70226">
        <ele>906</ele>
        <time>2024-09-21T08:29:26Z</time>
      </trkpt>
      <trkpt lat="42.43033" lon="2.70224">
        <ele>907</ele>
        <time>2024-09-21T08:29:29Z</time>
      </trkpt>
      <trkpt lat="42.4303" lon="2.70224">
        <ele>908</ele>
        <time>2024-09-21T08:29:44Z</time>
      </trkpt>
      <trkpt lat="42.43028" lon="2.70222">
        <ele>908</ele>
        <time>2024-09-21T08:29:49Z</time>
      </trkpt>
      <trkpt lat="42.43026" lon="2.7022">
        <ele>909</ele>
        <time>2024-09-21T08:29:55Z</time>
      </trkpt>
      <trkpt lat="42.43023" lon="2.70218">
        <ele>910</ele>
        <time>2024-09-21T08:30:01Z</time>
      </trkpt>
      <trkpt lat="42.4302" lon="2.70217">
        <ele>911</ele>
        <time>2024-09-21T08:30:05Z</time>
      </trkpt>
      <trkpt lat="42.43018" lon="2.70215">
        <ele>912</ele>
        <time>2024-09-21T08:30:09Z</time>
      </trkpt>
      <trkpt lat="42.43015" lon="2.70213">
        <ele>913</ele>
        <time>2024-09-21T08:30:13Z</time>
      </trkpt>
      <trkpt lat="42.43012" lon="2.70211">
        <ele>916</ele>
        <time>2024-09-21T08:30:17Z</time>
      </trkpt>
      <trkpt lat="42.4301" lon="2.70209">
        <ele>916</ele>
        <time>2024-09-21T08:30:21Z</time>
      </trkpt>
      <trkpt lat="42.43008" lon="2.7021">
        <ele>916</ele>
        <time>2024-09-21T08:30:28Z</time>
      </trkpt>
      <trkpt lat="42.43005" lon="2.70209">
        <ele>917</ele>
        <time>2024-09-21T08:30:33Z</time>
      </trkpt>
      <trkpt lat="42.43002" lon="2.70208">
        <ele>919</ele>
        <time>2024-09-21T08:30:38Z</time>
      </trkpt>
      <trkpt lat="42.43" lon="2.70206">
        <ele>920</ele>
        <time>2024-09-21T08:30:43Z</time>
      </trkpt>
      <trkpt lat="42.42997" lon="2.70206">
        <ele>921</ele>
        <time>2024-09-21T08:30:49Z</time>
      </trkpt>
      <trkpt lat="42.42995" lon="2.70207">
        <ele>922</ele>
        <time>2024-09-21T08:30:53Z</time>
      </trkpt>
      <trkpt lat="42.42993" lon="2.70206">
        <ele>922</ele>
        <time>2024-09-21T08:30:59Z</time>
      </trkpt>
      <trkpt lat="42.4299" lon="2.70206">
        <ele>923</ele>
        <time>2024-09-21T08:31:02Z</time>
      </trkpt>
      <trkpt lat="42.42987" lon="2.70206">
        <ele>924</ele>
        <time>2024-09-21T08:31:07Z</time>
      </trkpt>
      <trkpt lat="42.42985" lon="2.70209">
        <ele>925</ele>
        <time>2024-09-21T08:31:12Z</time>
      </trkpt>
      <trkpt lat="42.42982" lon="2.7021">
        <ele>927</ele>
        <time>2024-09-21T08:31:23Z</time>
      </trkpt>
      <trkpt lat="42.42979" lon="2.7021">
        <ele>929</ele>
        <time>2024-09-21T08:31:27Z</time>
      </trkpt>
      <trkpt lat="42.42976" lon="2.7021">
        <ele>929</ele>
        <time>2024-09-21T08:31:32Z</time>
      </trkpt>
      <trkpt lat="42.42973" lon="2.7021">
        <ele>930</ele>
        <time>2024-09-21T08:31:37Z</time>
      </trkpt>
      <trkpt lat="42.4297" lon="2.7021">
        <ele>931</ele>
        <time>2024-09-21T08:31:43Z</time>
      </trkpt>
      <trkpt lat="42.42967" lon="2.7021">
        <ele>933</ele>
        <time>2024-09-21T08:31:49Z</time>
      </trkpt>
      <trkpt lat="42.42964" lon="2.7021">
        <ele>934</ele>
        <time>2024-09-21T08:31:54Z</time>
      </trkpt>
      <trkpt lat="42.42961" lon="2.70211">
        <ele>935</ele>
        <time>2024-09-21T08:32:01Z</time>
      </trkpt>
      <trkpt lat="42.42957" lon="2.70209">
        <ele>936</ele>
        <time>2024-09-21T08:32:05Z</time>
      </trkpt>
      <trkpt lat="42.42955" lon="2.70207">
        <ele>936</ele>
        <time>2024-09-21T08:32:09Z</time>
      </trkpt>
      <trkpt lat="42.42952" lon="2.70205">
        <ele>938</ele>
        <time>2024-09-21T08:32:16Z</time>
      </trkpt>
      <trkpt lat="42.4295" lon="2.70207">
        <ele>939</ele>
        <time>2024-09-21T08:32:21Z</time>
      </trkpt>
      <trkpt lat="42.42948" lon="2.70206">
        <ele>939</ele>
        <time>2024-09-21T08:32:26Z</time>
      </trkpt>
      <trkpt lat="42.42946" lon="2.70204">
        <ele>940</ele>
        <time>2024-09-21T08:32:33Z</time>
      </trkpt>
      <trkpt lat="42.42943" lon="2.70202">
        <ele>941</ele>
        <time>2024-09-21T08:32:39Z</time>
      </trkpt>
      <trkpt lat="42.4294" lon="2.70198">
        <ele>942</ele>
        <time>2024-09-21T08:32:42Z</time>
      </trkpt>
      <trkpt lat="42.42937" lon="2.70198">
        <ele>942</ele>
        <time>2024-09-21T08:32:54Z</time>
      </trkpt>
      <trkpt lat="42.42936" lon="2.70195">
        <ele>943</ele>
        <time>2024-09-21T08:33:00Z</time>
      </trkpt>
      <trkpt lat="42.42935" lon="2.70192">
        <ele>944</ele>
        <time>2024-09-21T08:33:05Z</time>
      </trkpt>
      <trkpt lat="42.42933" lon="2.70189">
        <ele>944</ele>
        <time>2024-09-21T08:33:09Z</time>
      </trkpt>
      <trkpt lat="42.42931" lon="2.70186">
        <ele>946</ele>
        <time>2024-09-21T08:33:15Z</time>
      </trkpt>
      <trkpt lat="42.42929" lon="2.70182">
        <ele>947</ele>
        <time>2024-09-21T08:33:19Z</time>
      </trkpt>
      <trkpt lat="42.42927" lon="2.70179">
        <ele>949</ele>
        <time>2024-09-21T08:33:27Z</time>
      </trkpt>
      <trkpt lat="42.42925" lon="2.70177">
        <ele>949</ele>
        <time>2024-09-21T08:33:32Z</time>
      </trkpt>
      <trkpt lat="42.42923" lon="2.70174">
        <ele>950</ele>
        <time>2024-09-21T08:33:40Z</time>
      </trkpt>
      <trkpt lat="42.4292" lon="2.70171">
        <ele>950</ele>
        <time>2024-09-21T08:33:44Z</time>
      </trkpt>
      <trkpt lat="42.42918" lon="2.70168">
        <ele>952</ele>
        <time>2024-09-21T08:33:54Z</time>
      </trkpt>
      <trkpt lat="42.42916" lon="2.70166">
        <ele>953</ele>
        <time>2024-09-21T08:34:04Z</time>
      </trkpt>
      <trkpt lat="42.42913" lon="2.70163">
        <ele>954</ele>
        <time>2024-09-21T08:34:11Z</time>
      </trkpt>
      <trkpt lat="42.42911" lon="2.70164">
        <ele>957</ele>
        <time>2024-09-21T08:34:28Z</time>
      </trkpt>
      <trkpt lat="42.42908" lon="2.70163">
        <ele>957</ele>
        <time>2024-09-21T08:34:35Z</time>
      </trkpt>
      <trkpt lat="42.42906" lon="2.70161">
        <ele>959</ele>
        <time>2024-09-21T08:34:40Z</time>
      </trkpt>
      <trkpt lat="42.42903" lon="2.70159">
        <ele>960</ele>
        <time>2024-09-21T08:34:46Z</time>
      </trkpt>
      <trkpt lat="42.42901" lon="2.70156">
        <ele>963</ele>
        <time>2024-09-21T08:34:54Z</time>
      </trkpt>
      <trkpt lat="42.42898" lon="2.70154">
        <ele>963</ele>
        <time>2024-09-21T08:35:00Z</time>
      </trkpt>
      <trkpt lat="42.42895" lon="2.70152">
        <ele>964</ele>
        <time>2024-09-21T08:35:07Z</time>
      </trkpt>
      <trkpt lat="42.42895" lon="2.70154">
        <ele>965</ele>
        <time>2024-09-21T08:35:12Z</time>
      </trkpt>
      <trkpt lat="42.42893" lon="2.70155">
        <ele>965</ele>
        <time>2024-09-21T08:35:25Z</time>
      </trkpt>
      <trkpt lat="42.42891" lon="2.70155">
        <ele>967</ele>
        <time>2024-09-21T08:35:32Z</time>
      </trkpt>
      <trkpt lat="42.42889" lon="2.70157">
        <ele>969</ele>
        <time>2024-09-21T08:35:38Z</time>
      </trkpt>
      <trkpt lat="42.4289" lon="2.70161">
        <ele>968</ele>
        <time>2024-09-21T08:35:44Z</time>
      </trkpt>
      <trkpt lat="42.42889" lon="2.70164">
        <ele>968</ele>
        <time>2024-09-21T08:35:52Z</time>
      </trkpt>
      <trkpt lat="42.42887" lon="2.70164">
        <ele>970</ele>
        <time>2024-09-21T08:35:56Z</time>
      </trkpt>
      <trkpt lat="42.42886" lon="2.70166">
        <ele>971</ele>
        <time>2024-09-21T08:36:01Z</time>
      </trkpt>
      <trkpt lat="42.42886" lon="2.70169">
        <ele>971</ele>
        <time>2024-09-21T08:36:07Z</time>
      </trkpt>
      <trkpt lat="42.42885" lon="2.70172">
        <ele>971</ele>
        <time>2024-09-21T08:36:10Z</time>
      </trkpt>
      <trkpt lat="42.42883" lon="2.70175">
        <ele>972</ele>
        <time>2024-09-21T08:36:13Z</time>
      </trkpt>
      <trkpt lat="42.42882" lon="2.70178">
        <ele>974</ele>
        <time>2024-09-21T08:36:29Z</time>
      </trkpt>
      <trkpt lat="42.4288" lon="2.70181">
        <ele>974</ele>
        <time>2024-09-21T08:36:33Z</time>
      </trkpt>
      <trkpt lat="42.42877" lon="2.70182">
        <ele>974</ele>
        <time>2024-09-21T08:36:37Z</time>
      </trkpt>
      <trkpt lat="42.42874" lon="2.70184">
        <ele>975</ele>
        <time>2024-09-21T08:36:44Z</time>
      </trkpt>
      <trkpt lat="42.42872" lon="2.70185">
        <ele>975</ele>
        <time>2024-09-21T08:36:47Z</time>
      </trkpt>
      <trkpt lat="42.4287" lon="2.70187">
        <ele>975</ele>
        <time>2024-09-21T08:36:50Z</time>
      </trkpt>
      <trkpt lat="42.42866" lon="2.70187">
        <ele>976</ele>
        <time>2024-09-21T08:36:55Z</time>
      </trkpt>
      <trkpt lat="42.42864" lon="2.70188">
        <ele>977</ele>
        <time>2024-09-21T08:37:03Z</time>
      </trkpt>
      <trkpt lat="42.42861" lon="2.70189">
        <ele>978</ele>
        <time>2024-09-21T08:37:06Z</time>
      </trkpt>
      <trkpt lat="42.42859" lon="2.70192">
        <ele>979</ele>
        <time>2024-09-21T08:37:13Z</time>
      </trkpt>
      <trkpt lat="42.42857" lon="2.70195">
        <ele>980</ele>
        <time>2024-09-21T08:37:24Z</time>
      </trkpt>
      <trkpt lat="42.42854" lon="2.70196">
        <ele>980</ele>
        <time>2024-09-21T08:37:28Z</time>
      </trkpt>
      <trkpt lat="42.42851" lon="2.70197">
        <ele>980</ele>
        <time>2024-09-21T08:37:32Z</time>
      </trkpt>
      <trkpt lat="42.42848" lon="2.70198">
        <ele>981</ele>
        <time>2024-09-21T08:37:38Z</time>
      </trkpt>
      <trkpt lat="42.42844" lon="2.70197">
        <ele>982</ele>
        <time>2024-09-21T08:37:40Z</time>
      </trkpt>
      <trkpt lat="42.42841" lon="2.70197">
        <ele>982</ele>
        <time>2024-09-21T08:37:47Z</time>
      </trkpt>
      <trkpt lat="42.42838" lon="2.70199">
        <ele>983</ele>
        <time>2024-09-21T08:37:54Z</time>
      </trkpt>
      <trkpt lat="42.42836" lon="2.702">
        <ele>982</ele>
        <time>2024-09-21T08:38:00Z</time>
      </trkpt>
      <trkpt lat="42.42832" lon="2.70202">
        <ele>984</ele>
        <time>2024-09-21T08:38:05Z</time>
      </trkpt>
      <trkpt lat="42.42829" lon="2.70203">
        <ele>985</ele>
        <time>2024-09-21T08:38:11Z</time>
      </trkpt>
      <trkpt lat="42.42827" lon="2.70205">
        <ele>984</ele>
        <time>2024-09-21T08:38:18Z</time>
      </trkpt>
      <trkpt lat="42.42824" lon="2.70205">
        <ele>985</ele>
        <time>2024-09-21T08:38:22Z</time>
      </trkpt>
      <trkpt lat="42.4282" lon="2.70206">
        <ele>986</ele>
        <time>2024-09-21T08:38:27Z</time>
      </trkpt>
      <trkpt lat="42.42818" lon="2.70208">
        <ele>987</ele>
        <time>2024-09-21T08:38:30Z</time>
      </trkpt>
      <trkpt lat="42.42815" lon="2.70211">
        <ele>988</ele>
        <time>2024-09-21T08:38:33Z</time>
      </trkpt>
      <trkpt lat="42.42812" lon="2.70211">
        <ele>988</ele>
        <time>2024-09-21T08:38:39Z</time>
      </trkpt>
      <trkpt lat="42.4281" lon="2.70211">
        <ele>988</ele>
        <time>2024-09-21T08:38:54Z</time>
      </trkpt>
      <trkpt lat="42.42806" lon="2.70209">
        <ele>988</ele>
        <time>2024-09-21T08:39:00Z</time>
      </trkpt>
      <trkpt lat="42.42803" lon="2.70208">
        <ele>989</ele>
        <time>2024-09-21T08:39:08Z</time>
      </trkpt>
      <trkpt lat="42.428" lon="2.70208">
        <ele>992</ele>
        <time>2024-09-21T08:39:15Z</time>
      </trkpt>
      <trkpt lat="42.42798" lon="2.7021">
        <ele>994</ele>
        <time>2024-09-21T08:39:19Z</time>
      </trkpt>
      <trkpt lat="42.42795" lon="2.70212">
        <ele>994</ele>
        <time>2024-09-21T08:39:24Z</time>
      </trkpt>
      <trkpt lat="42.42793" lon="2.70211">
        <ele>993</ele>
        <time>2024-09-21T08:39:27Z</time>
      </trkpt>
      <trkpt lat="42.4279" lon="2.70209">
        <ele>994</ele>
        <time>2024-09-21T08:39:34Z</time>
      </trkpt>
      <trkpt lat="42.42788" lon="2.70207">
        <ele>993</ele>
        <time>2024-09-21T08:39:35Z</time>
      </trkpt>
      <trkpt lat="42.42784" lon="2.70206">
        <ele>993</ele>
        <time>2024-09-21T08:39:39Z</time>
      </trkpt>
      <trkpt lat="42.42782" lon="2.70207">
        <ele>994</ele>
        <time>2024-09-21T08:39:44Z</time>
      </trkpt>
      <trkpt lat="42.4278" lon="2.70208">
        <ele>994</ele>
        <time>2024-09-21T08:39:49Z</time>
      </trkpt>
      <trkpt lat="42.42777" lon="2.70207">
        <ele>997</ele>
        <time>2024-09-21T08:39:58Z</time>
      </trkpt>
      <trkpt lat="42.42774" lon="2.70209">
        <ele>999</ele>
        <time>2024-09-21T08:40:07Z</time>
      </trkpt>
      <trkpt lat="42.42771" lon="2.70209">
        <ele>999</ele>
        <time>2024-09-21T08:40:13Z</time>
      </trkpt>
      <trkpt lat="42.42769" lon="2.70211">
        <ele>1000</ele>
        <time>2024-09-21T08:40:20Z</time>
      </trkpt>
      <trkpt lat="42.42767" lon="2.70208">
        <ele>1000</ele>
        <time>2024-09-21T08:40:28Z</time>
      </trkpt>
      <trkpt lat="42.42765" lon="2.70208">
        <ele>999</ele>
        <time>2024-09-21T08:40:36Z</time>
      </trkpt>
      <trkpt lat="42.42761" lon="2.70208">
        <ele>999</ele>
        <time>2024-09-21T08:40:40Z</time>
      </trkpt>
      <trkpt lat="42.42758" lon="2.70208">
        <ele>999</ele>
        <time>2024-09-21T08:40:42Z</time>
      </trkpt>
      <trkpt lat="42.42754" lon="2.70208">
        <ele>1001</ele>
        <time>2024-09-21T08:40:47Z</time>
      </trkpt>
      <trkpt lat="42.42753" lon="2.7021">
        <ele>1004</ele>
        <time>2024-09-21T08:40:51Z</time>
      </trkpt>
      <trkpt lat="42.42751" lon="2.70212">
        <ele>1003</ele>
        <time>2024-09-21T08:40:54Z</time>
      </trkpt>
      <trkpt lat="42.42748" lon="2.70214">
        <ele>1004</ele>
        <time>2024-09-21T08:40:57Z</time>
      </trkpt>
      <trkpt lat="42.42745" lon="2.70217">
        <ele>1005</ele>
        <time>2024-09-21T08:41:03Z</time>
      </trkpt>
      <trkpt lat="42.42744" lon="2.70215">
        <ele>1006</ele>
        <time>2024-09-21T08:41:07Z</time>
      </trkpt>
      <trkpt lat="42.42742" lon="2.70215">
        <ele>1006</ele>
        <time>2024-09-21T08:41:15Z</time>
      </trkpt>
      <trkpt lat="42.4274" lon="2.70215">
        <ele>1006</ele>
        <time>2024-09-21T08:41:18Z</time>
      </trkpt>
      <trkpt lat="42.42737" lon="2.70216">
        <ele>1008</ele>
        <time>2024-09-21T08:41:24Z</time>
      </trkpt>
      <trkpt lat="42.42735" lon="2.70217">
        <ele>1008</ele>
        <time>2024-09-21T08:41:27Z</time>
      </trkpt>
      <trkpt lat="42.42732" lon="2.7022">
        <ele>1009</ele>
        <time>2024-09-21T08:41:31Z</time>
      </trkpt>
      <trkpt lat="42.4273" lon="2.70222">
        <ele>1010</ele>
        <time>2024-09-21T08:41:34Z</time>
      </trkpt>
      <trkpt lat="42.42728" lon="2.70225">
        <ele>1011</ele>
        <time>2024-09-21T08:41:42Z</time>
      </trkpt>
      <trkpt lat="42.42725" lon="2.70228">
        <ele>1011</ele>
        <time>2024-09-21T08:41:45Z</time>
      </trkpt>
      <trkpt lat="42.42724" lon="2.70231">
        <ele>1010</ele>
        <time>2024-09-21T08:41:47Z</time>
      </trkpt>
      <trkpt lat="42.42722" lon="2.7023">
        <ele>1009</ele>
        <time>2024-09-21T08:41:52Z</time>
      </trkpt>
      <trkpt lat="42.4272" lon="2.70229">
        <ele>1009</ele>
        <time>2024-09-21T08:41:56Z</time>
      </trkpt>
      <trkpt lat="42.42717" lon="2.70228">
        <ele>1012</ele>
        <time>2024-09-21T08:42:05Z</time>
      </trkpt>
      <trkpt lat="42.42714" lon="2.70229">
        <ele>1011</ele>
        <time>2024-09-21T08:42:08Z</time>
      </trkpt>
      <trkpt lat="42.42711" lon="2.70231">
        <ele>1013</ele>
        <time>2024-09-21T08:42:12Z</time>
      </trkpt>
      <trkpt lat="42.42708" lon="2.70234">
        <ele>1013</ele>
        <time>2024-09-21T08:42:14Z</time>
      </trkpt>
      <trkpt lat="42.42705" lon="2.70236">
        <ele>1016</ele>
        <time>2024-09-21T08:42:22Z</time>
      </trkpt>
      <trkpt lat="42.42703" lon="2.70238">
        <ele>1016</ele>
        <time>2024-09-21T08:42:25Z</time>
      </trkpt>
      <trkpt lat="42.427" lon="2.7024">
        <ele>1018</ele>
        <time>2024-09-21T08:42:29Z</time>
      </trkpt>
      <trkpt lat="42.42697" lon="2.70242">
        <ele>1016</ele>
        <time>2024-09-21T08:42:34Z</time>
      </trkpt>
      <trkpt lat="42.42695" lon="2.70244">
        <ele>1018</ele>
        <time>2024-09-21T08:42:39Z</time>
      </trkpt>
      <trkpt lat="42.42692" lon="2.70243">
        <ele>1017</ele>
        <time>2024-09-21T08:42:44Z</time>
      </trkpt>
      <trkpt lat="42.42689" lon="2.70246">
        <ele>1018</ele>
        <time>2024-09-21T08:42:51Z</time>
      </trkpt>
      <trkpt lat="42.42687" lon="2.70248">
        <ele>1019</ele>
        <time>2024-09-21T08:42:58Z</time>
      </trkpt>
      <trkpt lat="42.42684" lon="2.7025">
        <ele>1018</ele>
        <time>2024-09-21T08:43:03Z</time>
      </trkpt>
      <trkpt lat="42.42681" lon="2.70252">
        <ele>1018</ele>
        <time>2024-09-21T08:43:06Z</time>
      </trkpt>
      <trkpt lat="42.42678" lon="2.70254">
        <ele>1018</ele>
        <time>2024-09-21T08:43:10Z</time>
      </trkpt>
      <trkpt lat="42.42675" lon="2.70253">
        <ele>1018</ele>
        <time>2024-09-21T08:43:15Z</time>
      </trkpt>
      <trkpt lat="42.42673" lon="2.70255">
        <ele>1019</ele>
        <time>2024-09-21T08:43:19Z</time>
      </trkpt>
      <trkpt lat="42.42671" lon="2.70257">
        <ele>1019</ele>
        <time>2024-09-21T08:43:25Z</time>
      </trkpt>
      <trkpt lat="42.42668" lon="2.70258">
        <ele>1020</ele>
        <time>2024-09-21T08:43:32Z</time>
      </trkpt>
      <trkpt lat="42.42665" lon="2.7026">
        <ele>1022</ele>
        <time>2024-09-21T08:43:41Z</time>
      </trkpt>
      <trkpt lat="42.42662" lon="2.70262">
        <ele>1022</ele>
        <time>2024-09-21T08:43:47Z</time>
      </trkpt>
      <trkpt lat="42.42659" lon="2.70263">
        <ele>1025</ele>
        <time>2024-09-21T08:43:55Z</time>
      </trkpt>
      <trkpt lat="42.42657" lon="2.70266">
        <ele>1025</ele>
        <time>2024-09-21T08:43:58Z</time>
      </trkpt>
      <trkpt lat="42.42655" lon="2.70267">
        <ele>1025</ele>
        <time>2024-09-21T08:44:02Z</time>
      </trkpt>
      <trkpt lat="42.42652" lon="2.70269">
        <ele>1026</ele>
        <time>2024-09-21T08:44:06Z</time>
      </trkpt>
      <trkpt lat="42.4265" lon="2.70271">
        <ele>1027</ele>
        <time>2024-09-21T08:44:09Z</time>
      </trkpt>
      <trkpt lat="42.42647" lon="2.70273">
        <ele>1027</ele>
        <time>2024-09-21T08:44:11Z</time>
      </trkpt>
      <trkpt lat="42.42644" lon="2.70271">
        <ele>1027</ele>
        <time>2024-09-21T08:44:17Z</time>
      </trkpt>
      <trkpt lat="42.42642" lon="2.70271">
        <ele>1030</ele>
        <time>2024-09-21T08:44:27Z</time>
      </trkpt>
      <trkpt lat="42.42638" lon="2.70273">
        <ele>1033</ele>
        <time>2024-09-21T08:44:35Z</time>
      </trkpt>
      <trkpt lat="42.42639" lon="2.70274">
        <ele>1034</ele>
        <time>2024-09-21T08:44:49Z</time>
      </trkpt>
      <trkpt lat="42.42638" lon="2.70274">
        <ele>1033</ele>
        <time>2024-09-21T08:44:56Z</time>
      </trkpt>
      <trkpt lat="42.42636" lon="2.70275">
        <ele>1033</ele>
        <time>2024-09-21T08:44:59Z</time>
      </trkpt>
      <trkpt lat="42.42633" lon="2.70276">
        <ele>1034</ele>
        <time>2024-09-21T08:45:03Z</time>
      </trkpt>
      <trkpt lat="42.42631" lon="2.70279">
        <ele>1034</ele>
        <time>2024-09-21T08:45:08Z</time>
      </trkpt>
      <trkpt lat="42.42629" lon="2.70282">
        <ele>1034</ele>
        <time>2024-09-21T08:45:12Z</time>
      </trkpt>
      <trkpt lat="42.42627" lon="2.70285">
        <ele>1035</ele>
        <time>2024-09-21T08:45:17Z</time>
      </trkpt>
      <trkpt lat="42.42627" lon="2.70283">
        <ele>1036</ele>
        <time>2024-09-21T08:45:23Z</time>
      </trkpt>
      <trkpt lat="42.42624" lon="2.70282">
        <ele>1037</ele>
        <time>2024-09-21T08:45:29Z</time>
      </trkpt>
      <trkpt lat="42.42623" lon="2.70279">
        <ele>1038</ele>
        <time>2024-09-21T08:45:35Z</time>
      </trkpt>
      <trkpt lat="42.42622" lon="2.70275">
        <ele>1038</ele>
        <time>2024-09-21T08:45:39Z</time>
      </trkpt>
      <trkpt lat="42.42622" lon="2.70271">
        <ele>1040</ele>
        <time>2024-09-21T08:45:47Z</time>
      </trkpt>
      <trkpt lat="42.42621" lon="2.70267">
        <ele>1040</ele>
        <time>2024-09-21T08:45:52Z</time>
      </trkpt>
      <trkpt lat="42.42619" lon="2.70266">
        <ele>1041</ele>
        <time>2024-09-21T08:45:58Z</time>
      </trkpt>
      <trkpt lat="42.42617" lon="2.70264">
        <ele>1043</ele>
        <time>2024-09-21T08:46:04Z</time>
      </trkpt>
      <trkpt lat="42.42614" lon="2.70263">
        <ele>1043</ele>
        <time>2024-09-21T08:46:08Z</time>
      </trkpt>
      <trkpt lat="42.42611" lon="2.70264">
        <ele>1042</ele>
        <time>2024-09-21T08:46:13Z</time>
      </trkpt>
      <trkpt lat="42.42608" lon="2.70265">
        <ele>1043</ele>
        <time>2024-09-21T08:46:19Z</time>
      </trkpt>
      <trkpt lat="42.42605" lon="2.70265">
        <ele>1043</ele>
        <time>2024-09-21T08:46:25Z</time>
      </trkpt>
      <trkpt lat="42.42602" lon="2.70264">
        <ele>1044</ele>
        <time>2024-09-21T08:46:30Z</time>
      </trkpt>
      <trkpt lat="42.426" lon="2.70261">
        <ele>1045</ele>
        <time>2024-09-21T08:46:39Z</time>
      </trkpt>
      <trkpt lat="42.42598" lon="2.70258">
        <ele>1047</ele>
        <time>2024-09-21T08:46:43Z</time>
      </trkpt>
      <trkpt lat="42.42595" lon="2.70256">
        <ele>1047</ele>
        <time>2024-09-21T08:46:46Z</time>
      </trkpt>
      <trkpt lat="42.42594" lon="2.70252">
        <ele>1049</ele>
        <time>2024-09-21T08:46:49Z</time>
      </trkpt>
      <trkpt lat="42.42592" lon="2.7025">
        <ele>1048</ele>
        <time>2024-09-21T08:47:01Z</time>
      </trkpt>
      <trkpt lat="42.42589" lon="2.70247">
        <ele>1049</ele>
        <time>2024-09-21T08:47:04Z</time>
      </trkpt>
      <trkpt lat="42.42587" lon="2.70245">
        <ele>1051</ele>
        <time>2024-09-21T08:47:07Z</time>
      </trkpt>
      <trkpt lat="42.42584" lon="2.70243">
        <ele>1053</ele>
        <time>2024-09-21T08:47:10Z</time>
      </trkpt>
      <trkpt lat="42.42581" lon="2.70244">
        <ele>1053</ele>
        <time>2024-09-21T08:47:13Z</time>
      </trkpt>
      <trkpt lat="42.42578" lon="2.70242">
        <ele>1054</ele>
        <time>2024-09-21T08:47:17Z</time>
      </trkpt>
      <trkpt lat="42.42575" lon="2.70242">
        <ele>1057</ele>
        <time>2024-09-21T08:48:08Z</time>
      </trkpt>
      <trkpt lat="42.42575" lon="2.70242">
        <ele>1057</ele>
        <time>2024-09-21T08:48:59Z</time>
      </trkpt>
      <trkpt lat="42.42577" lon="2.70243">
        <ele>1057</ele>
        <time>2024-09-21T08:49:09Z</time>
      </trkpt>
      <trkpt lat="42.42577" lon="2.70247">
        <ele>1056</ele>
        <time>2024-09-21T08:49:12Z</time>
      </trkpt>
      <trkpt lat="42.42575" lon="2.70252">
        <ele>1056</ele>
        <time>2024-09-21T08:49:15Z</time>
      </trkpt>
      <trkpt lat="42.42573" lon="2.70254">
        <ele>1054</ele>
        <time>2024-09-21T08:49:26Z</time>
      </trkpt>
      <trkpt lat="42.42571" lon="2.70256">
        <ele>1054</ele>
        <time>2024-09-21T08:49:39Z</time>
      </trkpt>
      <trkpt lat="42.42572" lon="2.70257">
        <ele>1053</ele>
        <time>2024-09-21T08:50:00Z</time>
      </trkpt>
      <trkpt lat="42.42571" lon="2.70256">
        <ele>1054</ele>
        <time>2024-09-21T08:50:34Z</time>
      </trkpt>
      <trkpt lat="42.4257" lon="2.70253">
        <ele>1056</ele>
        <time>2024-09-21T08:50:41Z</time>
      </trkpt>
      <trkpt lat="42.42572" lon="2.7025">
        <ele>1056</ele>
        <time>2024-09-21T08:50:48Z</time>
      </trkpt>
      <trkpt lat="42.42574" lon="2.70247">
        <ele>1054</ele>
        <time>2024-09-21T08:50:50Z</time>
      </trkpt>
      <trkpt lat="42.42575" lon="2.70244">
        <ele>1054</ele>
        <time>2024-09-21T08:50:53Z</time>
      </trkpt>
      <trkpt lat="42.42579" lon="2.70242">
        <ele>1059</ele>
        <time>2024-09-21T08:51:41Z</time>
      </trkpt>
      <trkpt lat="42.42578" lon="2.70242">
        <ele>1059</ele>
        <time>2024-09-21T08:52:03Z</time>
      </trkpt>
      <trkpt lat="42.42577" lon="2.70244">
        <ele>1056</ele>
        <time>2024-09-21T08:52:34Z</time>
      </trkpt>
      <trkpt lat="42.42575" lon="2.70247">
        <ele>1056</ele>
        <time>2024-09-21T08:52:38Z</time>
      </trkpt>
      <trkpt lat="42.42573" lon="2.7025">
        <ele>1055</ele>
        <time>2024-09-21T08:52:41Z</time>
      </trkpt>
      <trkpt lat="42.4257" lon="2.7025">
        <ele>1060</ele>
        <time>2024-09-21T08:53:28Z</time>
      </trkpt>
      <trkpt lat="42.42568" lon="2.70252">
        <ele>1061</ele>
        <time>2024-09-21T08:53:36Z</time>
      </trkpt>
      <trkpt lat="42.42566" lon="2.70254">
        <ele>1059</ele>
        <time>2024-09-21T08:54:11Z</time>
      </trkpt>
      <trkpt lat="42.42563" lon="2.70257">
        <ele>1060</ele>
        <time>2024-09-21T08:54:13Z</time>
      </trkpt>
      <trkpt lat="42.4256" lon="2.70259">
        <ele>1060</ele>
        <time>2024-09-21T08:54:18Z</time>
      </trkpt>
      <trkpt lat="42.42558" lon="2.7026">
        <ele>1060</ele>
        <time>2024-09-21T08:54:21Z</time>
      </trkpt>
      <trkpt lat="42.42555" lon="2.70262">
        <ele>1061</ele>
        <time>2024-09-21T08:54:25Z</time>
      </trkpt>
      <trkpt lat="42.42553" lon="2.70264">
        <ele>1062</ele>
        <time>2024-09-21T08:54:29Z</time>
      </trkpt>
      <trkpt lat="42.42551" lon="2.70267">
        <ele>1063</ele>
        <time>2024-09-21T08:54:33Z</time>
      </trkpt>
      <trkpt lat="42.42549" lon="2.70269">
        <ele>1063</ele>
        <time>2024-09-21T08:54:38Z</time>
      </trkpt>
      <trkpt lat="42.42546" lon="2.70272">
        <ele>1064</ele>
        <time>2024-09-21T08:54:42Z</time>
      </trkpt>
      <trkpt lat="42.42543" lon="2.70275">
        <ele>1065</ele>
        <time>2024-09-21T08:54:46Z</time>
      </trkpt>
      <trkpt lat="42.4254" lon="2.70278">
        <ele>1065</ele>
        <time>2024-09-21T08:54:50Z</time>
      </trkpt>
      <trkpt lat="42.42538" lon="2.7028">
        <ele>1067</ele>
        <time>2024-09-21T08:54:53Z</time>
      </trkpt>
      <trkpt lat="42.42535" lon="2.70283">
        <ele>1067</ele>
        <time>2024-09-21T08:54:57Z</time>
      </trkpt>
      <trkpt lat="42.42532" lon="2.70284">
        <ele>1068</ele>
        <time>2024-09-21T08:55:00Z</time>
      </trkpt>
      <trkpt lat="42.4253" lon="2.70286">
        <ele>1069</ele>
        <time>2024-09-21T08:55:02Z</time>
      </trkpt>
      <trkpt lat="42.42527" lon="2.70288">
        <ele>1069</ele>
        <time>2024-09-21T08:55:04Z</time>
      </trkpt>
      <trkpt lat="42.42524" lon="2.7029">
        <ele>1070</ele>
        <time>2024-09-21T08:55:08Z</time>
      </trkpt>
      <trkpt lat="42.42521" lon="2.70291">
        <ele>1069</ele>
        <time>2024-09-21T08:55:11Z</time>
      </trkpt>
      <trkpt lat="42.42518" lon="2.70293">
        <ele>1070</ele>
        <time>2024-09-21T08:55:14Z</time>
      </trkpt>
      <trkpt lat="42.42514" lon="2.70295">
        <ele>1070</ele>
        <time>2024-09-21T08:55:17Z</time>
      </trkpt>
      <trkpt lat="42.4251" lon="2.70296">
        <ele>1069</ele>
        <time>2024-09-21T08:55:21Z</time>
      </trkpt>
      <trkpt lat="42.42507" lon="2.70297">
        <ele>1069</ele>
        <time>2024-09-21T08:55:23Z</time>
      </trkpt>
      <trkpt lat="42.42504" lon="2.70299">
        <ele>1069</ele>
        <time>2024-09-21T08:55:27Z</time>
      </trkpt>
      <trkpt lat="42.42502" lon="2.70301">
        <ele>1069</ele>
        <time>2024-09-21T08:55:31Z</time>
      </trkpt>
      <trkpt lat="42.42499" lon="2.70304">
        <ele>1071</ele>
        <time>2024-09-21T08:55:34Z</time>
      </trkpt>
      <trkpt lat="42.42497" lon="2.70307">
        <ele>1071</ele>
        <time>2024-09-21T08:55:39Z</time>
      </trkpt>
      <trkpt lat="42.42494" lon="2.70309">
        <ele>1072</ele>
        <time>2024-09-21T08:55:43Z</time>
      </trkpt>
      <trkpt lat="42.42491" lon="2.70312">
        <ele>1073</ele>
        <time>2024-09-21T08:55:46Z</time>
      </trkpt>
      <trkpt lat="42.42489" lon="2.70315">
        <ele>1074</ele>
        <time>2024-09-21T08:55:50Z</time>
      </trkpt>
      <trkpt lat="42.42487" lon="2.70319">
        <ele>1074</ele>
        <time>2024-09-21T08:55:54Z</time>
      </trkpt>
      <trkpt lat="42.42485" lon="2.70322">
        <ele>1074</ele>
        <time>2024-09-21T08:55:57Z</time>
      </trkpt>
      <trkpt lat="42.42483" lon="2.70325">
        <ele>1075</ele>
        <time>2024-09-21T08:56:00Z</time>
      </trkpt>
      <trkpt lat="42.4248" lon="2.70328">
        <ele>1075</ele>
        <time>2024-09-21T08:56:04Z</time>
      </trkpt>
      <trkpt lat="42.42477" lon="2.70329">
        <ele>1075</ele>
        <time>2024-09-21T08:56:07Z</time>
      </trkpt>
      <trkpt lat="42.42474" lon="2.70331">
        <ele>1074</ele>
        <time>2024-09-21T08:56:10Z</time>
      </trkpt>
      <trkpt lat="42.42471" lon="2.70332">
        <ele>1074</ele>
        <time>2024-09-21T08:56:13Z</time>
      </trkpt>
      <trkpt lat="42.42468" lon="2.70335">
        <ele>1074</ele>
        <time>2024-09-21T08:56:17Z</time>
      </trkpt>
      <trkpt lat="42.42465" lon="2.70337">
        <ele>1074</ele>
        <time>2024-09-21T08:56:20Z</time>
      </trkpt>
      <trkpt lat="42.42462" lon="2.7034">
        <ele>1075</ele>
        <time>2024-09-21T08:56:23Z</time>
      </trkpt>
      <trkpt lat="42.4246" lon="2.70343">
        <ele>1075</ele>
        <time>2024-09-21T08:56:27Z</time>
      </trkpt>
      <trkpt lat="42.42457" lon="2.70346">
        <ele>1076</ele>
        <time>2024-09-21T08:56:32Z</time>
      </trkpt>
      <trkpt lat="42.42455" lon="2.70349">
        <ele>1077</ele>
        <time>2024-09-21T08:56:37Z</time>
      </trkpt>
      <trkpt lat="42.42452" lon="2.70352">
        <ele>1077</ele>
        <time>2024-09-21T08:56:42Z</time>
      </trkpt>
      <trkpt lat="42.4245" lon="2.70355">
        <ele>1078</ele>
        <time>2024-09-21T08:56:46Z</time>
      </trkpt>
      <trkpt lat="42.42448" lon="2.70358">
        <ele>1078</ele>
        <time>2024-09-21T08:56:50Z</time>
      </trkpt>
      <trkpt lat="42.42446" lon="2.70361">
        <ele>1079</ele>
        <time>2024-09-21T08:56:54Z</time>
      </trkpt>
      <trkpt lat="42.42444" lon="2.70364">
        <ele>1078</ele>
        <time>2024-09-21T08:56:58Z</time>
      </trkpt>
      <trkpt lat="42.42442" lon="2.70366">
        <ele>1079</ele>
        <time>2024-09-21T08:57:02Z</time>
      </trkpt>
      <trkpt lat="42.42439" lon="2.70369">
        <ele>1081</ele>
        <time>2024-09-21T08:57:06Z</time>
      </trkpt>
      <trkpt lat="42.42437" lon="2.70371">
        <ele>1082</ele>
        <time>2024-09-21T08:57:10Z</time>
      </trkpt>
      <trkpt lat="42.42435" lon="2.70374">
        <ele>1082</ele>
        <time>2024-09-21T08:57:14Z</time>
      </trkpt>
      <trkpt lat="42.42433" lon="2.70378">
        <ele>1084</ele>
        <time>2024-09-21T08:57:19Z</time>
      </trkpt>
      <trkpt lat="42.42431" lon="2.70381">
        <ele>1084</ele>
        <time>2024-09-21T08:57:22Z</time>
      </trkpt>
      <trkpt lat="42.42429" lon="2.70384">
        <ele>1085</ele>
        <time>2024-09-21T08:57:25Z</time>
      </trkpt>
      <trkpt lat="42.42427" lon="2.70387">
        <ele>1086</ele>
        <time>2024-09-21T08:57:32Z</time>
      </trkpt>
      <trkpt lat="42.42425" lon="2.70391">
        <ele>1087</ele>
        <time>2024-09-21T08:57:36Z</time>
      </trkpt>
      <trkpt lat="42.42424" lon="2.70395">
        <ele>1088</ele>
        <time>2024-09-21T08:57:40Z</time>
      </trkpt>
      <trkpt lat="42.42422" lon="2.70398">
        <ele>1088</ele>
        <time>2024-09-21T08:57:43Z</time>
      </trkpt>
      <trkpt lat="42.42421" lon="2.70402">
        <ele>1088</ele>
        <time>2024-09-21T08:57:47Z</time>
      </trkpt>
      <trkpt lat="42.4242" lon="2.70406">
        <ele>1088</ele>
        <time>2024-09-21T08:57:51Z</time>
      </trkpt>
      <trkpt lat="42.42418" lon="2.70408">
        <ele>1088</ele>
        <time>2024-09-21T08:57:54Z</time>
      </trkpt>
      <trkpt lat="42.42416" lon="2.70411">
        <ele>1087</ele>
        <time>2024-09-21T08:57:57Z</time>
      </trkpt>
      <trkpt lat="42.42414" lon="2.70414">
        <ele>1089</ele>
        <time>2024-09-21T08:58:00Z</time>
      </trkpt>
      <trkpt lat="42.42412" lon="2.70418">
        <ele>1089</ele>
        <time>2024-09-21T08:58:04Z</time>
      </trkpt>
      <trkpt lat="42.4241" lon="2.70421">
        <ele>1089</ele>
        <time>2024-09-21T08:58:07Z</time>
      </trkpt>
      <trkpt lat="42.42408" lon="2.70424">
        <ele>1089</ele>
        <time>2024-09-21T08:58:11Z</time>
      </trkpt>
      <trkpt lat="42.42407" lon="2.70427">
        <ele>1088</ele>
        <time>2024-09-21T08:58:14Z</time>
      </trkpt>
      <trkpt lat="42.42404" lon="2.70429">
        <ele>1087</ele>
        <time>2024-09-21T08:58:17Z</time>
      </trkpt>
      <trkpt lat="42.42402" lon="2.70432">
        <ele>1088</ele>
        <time>2024-09-21T08:58:20Z</time>
      </trkpt>
      <trkpt lat="42.424" lon="2.70435">
        <ele>1087</ele>
        <time>2024-09-21T08:58:23Z</time>
      </trkpt>
      <trkpt lat="42.42398" lon="2.70438">
        <ele>1085</ele>
        <time>2024-09-21T08:58:27Z</time>
      </trkpt>
      <trkpt lat="42.42395" lon="2.7044">
        <ele>1086</ele>
        <time>2024-09-21T08:58:30Z</time>
      </trkpt>
      <trkpt lat="42.42393" lon="2.70443">
        <ele>1085</ele>
        <time>2024-09-21T08:58:33Z</time>
      </trkpt>
      <trkpt lat="42.42391" lon="2.70446">
        <ele>1088</ele>
        <time>2024-09-21T08:58:45Z</time>
      </trkpt>
      <trkpt lat="42.42389" lon="2.70446">
        <ele>1087</ele>
        <time>2024-09-21T08:58:48Z</time>
      </trkpt>
      <trkpt lat="42.42387" lon="2.70448">
        <ele>1087</ele>
        <time>2024-09-21T08:58:51Z</time>
      </trkpt>
      <trkpt lat="42.42385" lon="2.70451">
        <ele>1087</ele>
        <time>2024-09-21T08:58:55Z</time>
      </trkpt>
      <trkpt lat="42.42382" lon="2.70454">
        <ele>1088</ele>
        <time>2024-09-21T08:58:59Z</time>
      </trkpt>
      <trkpt lat="42.4238" lon="2.70457">
        <ele>1089</ele>
        <time>2024-09-21T08:59:03Z</time>
      </trkpt>
      <trkpt lat="42.42379" lon="2.70461">
        <ele>1090</ele>
        <time>2024-09-21T08:59:07Z</time>
      </trkpt>
      <trkpt lat="42.42379" lon="2.70465">
        <ele>1090</ele>
        <time>2024-09-21T08:59:12Z</time>
      </trkpt>
      <trkpt lat="42.42378" lon="2.70469">
        <ele>1092</ele>
        <time>2024-09-21T08:59:16Z</time>
      </trkpt>
      <trkpt lat="42.42376" lon="2.70472">
        <ele>1093</ele>
        <time>2024-09-21T08:59:22Z</time>
      </trkpt>
      <trkpt lat="42.42373" lon="2.70474">
        <ele>1092</ele>
        <time>2024-09-21T08:59:25Z</time>
      </trkpt>
      <trkpt lat="42.42371" lon="2.70477">
        <ele>1093</ele>
        <time>2024-09-21T08:59:28Z</time>
      </trkpt>
      <trkpt lat="42.42369" lon="2.7048">
        <ele>1093</ele>
        <time>2024-09-21T08:59:31Z</time>
      </trkpt>
      <trkpt lat="42.42367" lon="2.70483">
        <ele>1093</ele>
        <time>2024-09-21T08:59:34Z</time>
      </trkpt>
      <trkpt lat="42.42365" lon="2.70486">
        <ele>1095</ele>
        <time>2024-09-21T08:59:39Z</time>
      </trkpt>
      <trkpt lat="42.42363" lon="2.70489">
        <ele>1096</ele>
        <time>2024-09-21T08:59:43Z</time>
      </trkpt>
      <trkpt lat="42.42362" lon="2.70493">
        <ele>1097</ele>
        <time>2024-09-21T08:59:47Z</time>
      </trkpt>
      <trkpt lat="42.42361" lon="2.70497">
        <ele>1096</ele>
        <time>2024-09-21T08:59:51Z</time>
      </trkpt>
      <trkpt lat="42.42359" lon="2.70501">
        <ele>1099</ele>
        <time>2024-09-21T08:59:57Z</time>
      </trkpt>
      <trkpt lat="42.42358" lon="2.70506">
        <ele>1101</ele>
        <time>2024-09-21T09:00:02Z</time>
      </trkpt>
      <trkpt lat="42.42359" lon="2.70509">
        <ele>1100</ele>
        <time>2024-09-21T09:00:06Z</time>
      </trkpt>
      <trkpt lat="42.42358" lon="2.70513">
        <ele>1100</ele>
        <time>2024-09-21T09:00:11Z</time>
      </trkpt>
      <trkpt lat="42.42358" lon="2.70516">
        <ele>1102</ele>
        <time>2024-09-21T09:00:16Z</time>
      </trkpt>
      <trkpt lat="42.42357" lon="2.70519">
        <ele>1102</ele>
        <time>2024-09-21T09:00:20Z</time>
      </trkpt>
      <trkpt lat="42.42356" lon="2.70523">
        <ele>1102</ele>
        <time>2024-09-21T09:00:25Z</time>
      </trkpt>
      <trkpt lat="42.42355" lon="2.70526">
        <ele>1104</ele>
        <time>2024-09-21T09:00:29Z</time>
      </trkpt>
      <trkpt lat="42.42354" lon="2.7053">
        <ele>1104</ele>
        <time>2024-09-21T09:00:34Z</time>
      </trkpt>
      <trkpt lat="42.42353" lon="2.70534">
        <ele>1104</ele>
        <time>2024-09-21T09:00:39Z</time>
      </trkpt>
      <trkpt lat="42.42351" lon="2.70538">
        <ele>1105</ele>
        <time>2024-09-21T09:00:44Z</time>
      </trkpt>
      <trkpt lat="42.42349" lon="2.70541">
        <ele>1106</ele>
        <time>2024-09-21T09:00:47Z</time>
      </trkpt>
      <trkpt lat="42.42348" lon="2.70545">
        <ele>1104</ele>
        <time>2024-09-21T09:00:51Z</time>
      </trkpt>
      <trkpt lat="42.42346" lon="2.70549">
        <ele>1106</ele>
        <time>2024-09-21T09:00:56Z</time>
      </trkpt>
      <trkpt lat="42.42346" lon="2.70553">
        <ele>1108</ele>
        <time>2024-09-21T09:01:00Z</time>
      </trkpt>
      <trkpt lat="42.42345" lon="2.70557">
        <ele>1108</ele>
        <time>2024-09-21T09:01:05Z</time>
      </trkpt>
      <trkpt lat="42.42345" lon="2.70561">
        <ele>1106</ele>
        <time>2024-09-21T09:01:12Z</time>
      </trkpt>
      <trkpt lat="42.42345" lon="2.70565">
        <ele>1108</ele>
        <time>2024-09-21T09:01:18Z</time>
      </trkpt>
      <trkpt lat="42.42346" lon="2.70569">
        <ele>1105</ele>
        <time>2024-09-21T09:01:25Z</time>
      </trkpt>
      <trkpt lat="42.42346" lon="2.70573">
        <ele>1107</ele>
        <time>2024-09-21T09:01:33Z</time>
      </trkpt>
      <trkpt lat="42.42348" lon="2.70575">
        <ele>1110</ele>
        <time>2024-09-21T09:01:40Z</time>
      </trkpt>
      <trkpt lat="42.4235" lon="2.70578">
        <ele>1111</ele>
        <time>2024-09-21T09:01:52Z</time>
      </trkpt>
      <trkpt lat="42.42352" lon="2.7058">
        <ele>1112</ele>
        <time>2024-09-21T09:02:00Z</time>
      </trkpt>
      <trkpt lat="42.42353" lon="2.70583">
        <ele>1114</ele>
        <time>2024-09-21T09:02:06Z</time>
      </trkpt>
      <trkpt lat="42.42353" lon="2.70586">
        <ele>1113</ele>
        <time>2024-09-21T09:02:10Z</time>
      </trkpt>
      <trkpt lat="42.42354" lon="2.7059">
        <ele>1115</ele>
        <time>2024-09-21T09:02:15Z</time>
      </trkpt>
      <trkpt lat="42.42353" lon="2.70594">
        <ele>1116</ele>
        <time>2024-09-21T09:02:21Z</time>
      </trkpt>
      <trkpt lat="42.42353" lon="2.70598">
        <ele>1117</ele>
        <time>2024-09-21T09:02:25Z</time>
      </trkpt>
      <trkpt lat="42.42352" lon="2.70601">
        <ele>1116</ele>
        <time>2024-09-21T09:02:29Z</time>
      </trkpt>
      <trkpt lat="42.42353" lon="2.70605">
        <ele>1117</ele>
        <time>2024-09-21T09:02:34Z</time>
      </trkpt>
      <trkpt lat="42.42352" lon="2.70608">
        <ele>1119</ele>
        <time>2024-09-21T09:02:39Z</time>
      </trkpt>
      <trkpt lat="42.42352" lon="2.70613">
        <ele>1120</ele>
        <time>2024-09-21T09:02:44Z</time>
      </trkpt>
      <trkpt lat="42.42352" lon="2.70617">
        <ele>1121</ele>
        <time>2024-09-21T09:02:49Z</time>
      </trkpt>
      <trkpt lat="42.42352" lon="2.70621">
        <ele>1120</ele>
        <time>2024-09-21T09:02:54Z</time>
      </trkpt>
      <trkpt lat="42.42352" lon="2.70625">
        <ele>1121</ele>
        <time>2024-09-21T09:03:00Z</time>
      </trkpt>
      <trkpt lat="42.42352" lon="2.70629">
        <ele>1123</ele>
        <time>2024-09-21T09:03:05Z</time>
      </trkpt>
      <trkpt lat="42.42352" lon="2.70633">
        <ele>1122</ele>
        <time>2024-09-21T09:03:10Z</time>
      </trkpt>
      <trkpt lat="42.42352" lon="2.70637">
        <ele>1123</ele>
        <time>2024-09-21T09:03:16Z</time>
      </trkpt>
      <trkpt lat="42.4235" lon="2.7064">
        <ele>1125</ele>
        <time>2024-09-21T09:03:21Z</time>
      </trkpt>
      <trkpt lat="42.42349" lon="2.70645">
        <ele>1127</ele>
        <time>2024-09-21T09:03:27Z</time>
      </trkpt>
      <trkpt lat="42.42347" lon="2.70648">
        <ele>1129</ele>
        <time>2024-09-21T09:03:31Z</time>
      </trkpt>
      <trkpt lat="42.42346" lon="2.70653">
        <ele>1131</ele>
        <time>2024-09-21T09:03:38Z</time>
      </trkpt>
      <trkpt lat="42.42347" lon="2.70655">
        <ele>1131</ele>
        <time>2024-09-21T09:03:41Z</time>
      </trkpt>
      <trkpt lat="42.42348" lon="2.70659">
        <ele>1131</ele>
        <time>2024-09-21T09:03:46Z</time>
      </trkpt>
      <trkpt lat="42.42346" lon="2.70662">
        <ele>1134</ele>
        <time>2024-09-21T09:03:52Z</time>
      </trkpt>
      <trkpt lat="42.42347" lon="2.70665">
        <ele>1135</ele>
        <time>2024-09-21T09:04:02Z</time>
      </trkpt>
      <trkpt lat="42.42346" lon="2.70669">
        <ele>1136</ele>
        <time>2024-09-21T09:04:07Z</time>
      </trkpt>
      <trkpt lat="42.42345" lon="2.70673">
        <ele>1137</ele>
        <time>2024-09-21T09:04:14Z</time>
      </trkpt>
      <trkpt lat="42.42345" lon="2.70677">
        <ele>1139</ele>
        <time>2024-09-21T09:04:19Z</time>
      </trkpt>
      <trkpt lat="42.42344" lon="2.7068">
        <ele>1137</ele>
        <time>2024-09-21T09:04:24Z</time>
      </trkpt>
      <trkpt lat="42.42343" lon="2.70684">
        <ele>1138</ele>
        <time>2024-09-21T09:04:31Z</time>
      </trkpt>
      <trkpt lat="42.42342" lon="2.70688">
        <ele>1139</ele>
        <time>2024-09-21T09:04:37Z</time>
      </trkpt>
      <trkpt lat="42.42342" lon="2.70692">
        <ele>1139</ele>
        <time>2024-09-21T09:04:42Z</time>
      </trkpt>
      <trkpt lat="42.4234" lon="2.70695">
        <ele>1139</ele>
        <time>2024-09-21T09:04:47Z</time>
      </trkpt>
      <trkpt lat="42.42338" lon="2.70698">
        <ele>1139</ele>
        <time>2024-09-21T09:04:52Z</time>
      </trkpt>
      <trkpt lat="42.42338" lon="2.70701">
        <ele>1141</ele>
        <time>2024-09-21T09:04:58Z</time>
      </trkpt>
      <trkpt lat="42.42337" lon="2.70704">
        <ele>1144</ele>
        <time>2024-09-21T09:05:08Z</time>
      </trkpt>
      <trkpt lat="42.42336" lon="2.70708">
        <ele>1145</ele>
        <time>2024-09-21T09:05:13Z</time>
      </trkpt>
      <trkpt lat="42.42335" lon="2.70712">
        <ele>1147</ele>
        <time>2024-09-21T09:05:17Z</time>
      </trkpt>
      <trkpt lat="42.42337" lon="2.70715">
        <ele>1148</ele>
        <time>2024-09-21T09:05:23Z</time>
      </trkpt>
      <trkpt lat="42.42339" lon="2.70717">
        <ele>1149</ele>
        <time>2024-09-21T09:05:29Z</time>
      </trkpt>
      <trkpt lat="42.42341" lon="2.70721">
        <ele>1151</ele>
        <time>2024-09-21T09:05:36Z</time>
      </trkpt>
      <trkpt lat="42.42341" lon="2.70724">
        <ele>1154</ele>
        <time>2024-09-21T09:05:45Z</time>
      </trkpt>
      <trkpt lat="42.42341" lon="2.70729">
        <ele>1156</ele>
        <time>2024-09-21T09:05:53Z</time>
      </trkpt>
      <trkpt lat="42.42341" lon="2.70733">
        <ele>1158</ele>
        <time>2024-09-21T09:05:58Z</time>
      </trkpt>
      <trkpt lat="42.4234" lon="2.70736">
        <ele>1161</ele>
        <time>2024-09-21T09:06:03Z</time>
      </trkpt>
      <trkpt lat="42.42339" lon="2.70739">
        <ele>1161</ele>
        <time>2024-09-21T09:06:09Z</time>
      </trkpt>
      <trkpt lat="42.42337" lon="2.7074">
        <ele>1164</ele>
        <time>2024-09-21T09:06:15Z</time>
      </trkpt>
      <trkpt lat="42.42335" lon="2.70743">
        <ele>1164</ele>
        <time>2024-09-21T09:06:18Z</time>
      </trkpt>
      <trkpt lat="42.42334" lon="2.70748">
        <ele>1164</ele>
        <time>2024-09-21T09:06:22Z</time>
      </trkpt>
      <trkpt lat="42.42332" lon="2.7075">
        <ele>1166</ele>
        <time>2024-09-21T09:06:27Z</time>
      </trkpt>
      <trkpt lat="42.4233" lon="2.70753">
        <ele>1167</ele>
        <time>2024-09-21T09:06:32Z</time>
      </trkpt>
      <trkpt lat="42.4233" lon="2.70756">
        <ele>1166</ele>
        <time>2024-09-21T09:06:37Z</time>
      </trkpt>
      <trkpt lat="42.42329" lon="2.7076">
        <ele>1167</ele>
        <time>2024-09-21T09:06:48Z</time>
      </trkpt>
      <trkpt lat="42.4233" lon="2.70765">
        <ele>1167</ele>
        <time>2024-09-21T09:06:59Z</time>
      </trkpt>
      <trkpt lat="42.42329" lon="2.7077">
        <ele>1169</ele>
        <time>2024-09-21T09:07:08Z</time>
      </trkpt>
      <trkpt lat="42.42327" lon="2.70773">
        <ele>1170</ele>
        <time>2024-09-21T09:07:15Z</time>
      </trkpt>
      <trkpt lat="42.42325" lon="2.70777">
        <ele>1169</ele>
        <time>2024-09-21T09:07:23Z</time>
      </trkpt>
      <trkpt lat="42.42323" lon="2.7078">
        <ele>1169</ele>
        <time>2024-09-21T09:07:26Z</time>
      </trkpt>
      <trkpt lat="42.42321" lon="2.70783">
        <ele>1169</ele>
        <time>2024-09-21T09:07:32Z</time>
      </trkpt>
      <trkpt lat="42.4232" lon="2.70787">
        <ele>1170</ele>
        <time>2024-09-21T09:07:38Z</time>
      </trkpt>
      <trkpt lat="42.42321" lon="2.70791">
        <ele>1168</ele>
        <time>2024-09-21T09:07:44Z</time>
      </trkpt>
      <trkpt lat="42.42323" lon="2.70793">
        <ele>1169</ele>
        <time>2024-09-21T09:07:50Z</time>
      </trkpt>
      <trkpt lat="42.42324" lon="2.70796">
        <ele>1171</ele>
        <time>2024-09-21T09:07:58Z</time>
      </trkpt>
      <trkpt lat="42.42322" lon="2.70798">
        <ele>1176</ele>
        <time>2024-09-21T09:08:07Z</time>
      </trkpt>
      <trkpt lat="42.4232" lon="2.708">
        <ele>1177</ele>
        <time>2024-09-21T09:08:12Z</time>
      </trkpt>
      <trkpt lat="42.42319" lon="2.70804">
        <ele>1176</ele>
        <time>2024-09-21T09:08:16Z</time>
      </trkpt>
      <trkpt lat="42.42317" lon="2.70808">
        <ele>1177</ele>
        <time>2024-09-21T09:08:19Z</time>
      </trkpt>
      <trkpt lat="42.42315" lon="2.70811">
        <ele>1176</ele>
        <time>2024-09-21T09:08:24Z</time>
      </trkpt>
      <trkpt lat="42.42314" lon="2.70815">
        <ele>1177</ele>
        <time>2024-09-21T09:08:33Z</time>
      </trkpt>
      <trkpt lat="42.42313" lon="2.7082">
        <ele>1178</ele>
        <time>2024-09-21T09:08:38Z</time>
      </trkpt>
      <trkpt lat="42.42313" lon="2.70824">
        <ele>1178</ele>
        <time>2024-09-21T09:08:41Z</time>
      </trkpt>
      <trkpt lat="42.42312" lon="2.70827">
        <ele>1180</ele>
        <time>2024-09-21T09:08:47Z</time>
      </trkpt>
      <trkpt lat="42.4231" lon="2.7083">
        <ele>1181</ele>
        <time>2024-09-21T09:08:56Z</time>
      </trkpt>
      <trkpt lat="42.42309" lon="2.70834">
        <ele>1180</ele>
        <time>2024-09-21T09:09:00Z</time>
      </trkpt>
      <trkpt lat="42.42307" lon="2.70837">
        <ele>1181</ele>
        <time>2024-09-21T09:09:03Z</time>
      </trkpt>
      <trkpt lat="42.42306" lon="2.70841">
        <ele>1182</ele>
        <time>2024-09-21T09:09:06Z</time>
      </trkpt>
      <trkpt lat="42.42307" lon="2.70846">
        <ele>1182</ele>
        <time>2024-09-21T09:09:11Z</time>
      </trkpt>
      <trkpt lat="42.42307" lon="2.7085">
        <ele>1182</ele>
        <time>2024-09-21T09:09:17Z</time>
      </trkpt>
      <trkpt lat="42.42306" lon="2.70854">
        <ele>1182</ele>
        <time>2024-09-21T09:09:27Z</time>
      </trkpt>
      <trkpt lat="42.42304" lon="2.70856">
        <ele>1184</ele>
        <time>2024-09-21T09:09:30Z</time>
      </trkpt>
      <trkpt lat="42.423" lon="2.70858">
        <ele>1184</ele>
        <time>2024-09-21T09:09:46Z</time>
      </trkpt>
      <trkpt lat="42.42299" lon="2.70862">
        <ele>1185</ele>
        <time>2024-09-21T09:09:53Z</time>
      </trkpt>
      <trkpt lat="42.42298" lon="2.70865">
        <ele>1186</ele>
        <time>2024-09-21T09:09:57Z</time>
      </trkpt>
      <trkpt lat="42.42298" lon="2.70869">
        <ele>1186</ele>
        <time>2024-09-21T09:10:02Z</time>
      </trkpt>
      <trkpt lat="42.42299" lon="2.70873">
        <ele>1187</ele>
        <time>2024-09-21T09:10:08Z</time>
      </trkpt>
      <trkpt lat="42.423" lon="2.70877">
        <ele>1188</ele>
        <time>2024-09-21T09:10:15Z</time>
      </trkpt>
      <trkpt lat="42.42301" lon="2.70881">
        <ele>1187</ele>
        <time>2024-09-21T09:10:19Z</time>
      </trkpt>
      <trkpt lat="42.42303" lon="2.70885">
        <ele>1187</ele>
        <time>2024-09-21T09:10:25Z</time>
      </trkpt>
      <trkpt lat="42.42304" lon="2.70888">
        <ele>1188</ele>
        <time>2024-09-21T09:10:34Z</time>
      </trkpt>
      <trkpt lat="42.42304" lon="2.70893">
        <ele>1190</ele>
        <time>2024-09-21T09:10:40Z</time>
      </trkpt>
      <trkpt lat="42.42306" lon="2.70893">
        <ele>1189</ele>
        <time>2024-09-21T09:10:46Z</time>
      </trkpt>
      <trkpt lat="42.42308" lon="2.70894">
        <ele>1196</ele>
        <time>2024-09-21T09:11:30Z</time>
      </trkpt>
      <trkpt lat="42.4231" lon="2.70896">
        <ele>1197</ele>
        <time>2024-09-21T09:11:36Z</time>
      </trkpt>
      <trkpt lat="42.42311" lon="2.709">
        <ele>1197</ele>
        <time>2024-09-21T09:11:40Z</time>
      </trkpt>
      <trkpt lat="42.42311" lon="2.70904">
        <ele>1199</ele>
        <time>2024-09-21T09:11:44Z</time>
      </trkpt>
      <trkpt lat="42.4231" lon="2.70908">
        <ele>1200</ele>
        <time>2024-09-21T09:11:49Z</time>
      </trkpt>
      <trkpt lat="42.4231" lon="2.70913">
        <ele>1199</ele>
        <time>2024-09-21T09:11:53Z</time>
      </trkpt>
      <trkpt lat="42.4231" lon="2.70917">
        <ele>1199</ele>
        <time>2024-09-21T09:11:57Z</time>
      </trkpt>
      <trkpt lat="42.42311" lon="2.7092">
        <ele>1198</ele>
        <time>2024-09-21T09:12:01Z</time>
      </trkpt>
      <trkpt lat="42.4231" lon="2.70925">
        <ele>1201</ele>
        <time>2024-09-21T09:12:05Z</time>
      </trkpt>
      <trkpt lat="42.42309" lon="2.70929">
        <ele>1201</ele>
        <time>2024-09-21T09:12:11Z</time>
      </trkpt>
      <trkpt lat="42.42309" lon="2.70934">
        <ele>1202</ele>
        <time>2024-09-21T09:12:15Z</time>
      </trkpt>
      <trkpt lat="42.4231" lon="2.70937">
        <ele>1205</ele>
        <time>2024-09-21T09:12:20Z</time>
      </trkpt>
      <trkpt lat="42.4231" lon="2.70942">
        <ele>1206</ele>
        <time>2024-09-21T09:12:24Z</time>
      </trkpt>
      <trkpt lat="42.4231" lon="2.70947">
        <ele>1206</ele>
        <time>2024-09-21T09:12:32Z</time>
      </trkpt>
      <trkpt lat="42.4231" lon="2.70951">
        <ele>1204</ele>
        <time>2024-09-21T09:12:37Z</time>
      </trkpt>
      <trkpt lat="42.42309" lon="2.70955">
        <ele>1203</ele>
        <time>2024-09-21T09:12:41Z</time>
      </trkpt>
      <trkpt lat="42.42309" lon="2.70959">
        <ele>1204</ele>
        <time>2024-09-21T09:12:43Z</time>
      </trkpt>
      <trkpt lat="42.42309" lon="2.70963">
        <ele>1205</ele>
        <time>2024-09-21T09:12:54Z</time>
      </trkpt>
      <trkpt lat="42.4231" lon="2.70966">
        <ele>1207</ele>
        <time>2024-09-21T09:12:58Z</time>
      </trkpt>
      <trkpt lat="42.42311" lon="2.70969">
        <ele>1207</ele>
        <time>2024-09-21T09:13:04Z</time>
      </trkpt>
      <trkpt lat="42.4231" lon="2.70973">
        <ele>1207</ele>
        <time>2024-09-21T09:13:07Z</time>
      </trkpt>
      <trkpt lat="42.42309" lon="2.70977">
        <ele>1207</ele>
        <time>2024-09-21T09:13:12Z</time>
      </trkpt>
      <trkpt lat="42.42309" lon="2.70981">
        <ele>1211</ele>
        <time>2024-09-21T09:13:19Z</time>
      </trkpt>
      <trkpt lat="42.42309" lon="2.70985">
        <ele>1211</ele>
        <time>2024-09-21T09:13:26Z</time>
      </trkpt>
      <trkpt lat="42.42309" lon="2.70989">
        <ele>1212</ele>
        <time>2024-09-21T09:13:30Z</time>
      </trkpt>
      <trkpt lat="42.4231" lon="2.70993">
        <ele>1210</ele>
        <time>2024-09-21T09:13:36Z</time>
      </trkpt>
      <trkpt lat="42.42309" lon="2.70996">
        <ele>1212</ele>
        <time>2024-09-21T09:13:41Z</time>
      </trkpt>
      <trkpt lat="42.42309" lon="2.71">
        <ele>1212</ele>
        <time>2024-09-21T09:13:47Z</time>
      </trkpt>
      <trkpt lat="42.42308" lon="2.71004">
        <ele>1214</ele>
        <time>2024-09-21T09:13:52Z</time>
      </trkpt>
      <trkpt lat="42.42309" lon="2.71008">
        <ele>1214</ele>
        <time>2024-09-21T09:13:56Z</time>
      </trkpt>
      <trkpt lat="42.42307" lon="2.71012">
        <ele>1214</ele>
        <time>2024-09-21T09:14:00Z</time>
      </trkpt>
      <trkpt lat="42.42306" lon="2.71017">
        <ele>1214</ele>
        <time>2024-09-21T09:14:03Z</time>
      </trkpt>
      <trkpt lat="42.42304" lon="2.71024">
        <ele>1214</ele>
        <time>2024-09-21T09:14:07Z</time>
      </trkpt>
      <trkpt lat="42.42305" lon="2.71028">
        <ele>1215</ele>
        <time>2024-09-21T09:14:11Z</time>
      </trkpt>
      <trkpt lat="42.42306" lon="2.71032">
        <ele>1216</ele>
        <time>2024-09-21T09:14:15Z</time>
      </trkpt>
      <trkpt lat="42.42308" lon="2.71035">
        <ele>1218</ele>
        <time>2024-09-21T09:14:22Z</time>
      </trkpt>
      <trkpt lat="42.42308" lon="2.71038">
        <ele>1221</ele>
        <time>2024-09-21T09:14:28Z</time>
      </trkpt>
      <trkpt lat="42.42309" lon="2.71042">
        <ele>1223</ele>
        <time>2024-09-21T09:14:34Z</time>
      </trkpt>
      <trkpt lat="42.42311" lon="2.71046">
        <ele>1225</ele>
        <time>2024-09-21T09:14:42Z</time>
      </trkpt>
      <trkpt lat="42.42312" lon="2.71049">
        <ele>1226</ele>
        <time>2024-09-21T09:14:48Z</time>
      </trkpt>
      <trkpt lat="42.42312" lon="2.71053">
        <ele>1227</ele>
        <time>2024-09-21T09:15:21Z</time>
      </trkpt>
      <trkpt lat="42.42317" lon="2.71054">
        <ele>1227</ele>
        <time>2024-09-21T09:15:22Z</time>
      </trkpt>
      <trkpt lat="42.42317" lon="2.71057">
        <ele>1227</ele>
        <time>2024-09-21T09:15:25Z</time>
      </trkpt>
      <trkpt lat="42.42316" lon="2.7106">
        <ele>1228</ele>
        <time>2024-09-21T09:15:28Z</time>
      </trkpt>
      <trkpt lat="42.42315" lon="2.71064">
        <ele>1229</ele>
        <time>2024-09-21T09:15:32Z</time>
      </trkpt>
      <trkpt lat="42.42315" lon="2.71068">
        <ele>1231</ele>
        <time>2024-09-21T09:15:38Z</time>
      </trkpt>
      <trkpt lat="42.42314" lon="2.71072">
        <ele>1232</ele>
        <time>2024-09-21T09:15:45Z</time>
      </trkpt>
      <trkpt lat="42.42313" lon="2.71076">
        <ele>1232</ele>
        <time>2024-09-21T09:15:48Z</time>
      </trkpt>
      <trkpt lat="42.42314" lon="2.7108">
        <ele>1234</ele>
        <time>2024-09-21T09:15:54Z</time>
      </trkpt>
      <trkpt lat="42.42314" lon="2.71084">
        <ele>1234</ele>
        <time>2024-09-21T09:15:59Z</time>
      </trkpt>
      <trkpt lat="42.42314" lon="2.71088">
        <ele>1234</ele>
        <time>2024-09-21T09:16:03Z</time>
      </trkpt>
      <trkpt lat="42.42312" lon="2.71091">
        <ele>1235</ele>
        <time>2024-09-21T09:16:09Z</time>
      </trkpt>
      <trkpt lat="42.4231" lon="2.71094">
        <ele>1238</ele>
        <time>2024-09-21T09:16:16Z</time>
      </trkpt>
      <trkpt lat="42.42307" lon="2.71096">
        <ele>1238</ele>
        <time>2024-09-21T09:16:19Z</time>
      </trkpt>
      <trkpt lat="42.42304" lon="2.71097">
        <ele>1239</ele>
        <time>2024-09-21T09:16:22Z</time>
      </trkpt>
      <trkpt lat="42.42301" lon="2.71097">
        <ele>1241</ele>
        <time>2024-09-21T09:16:26Z</time>
      </trkpt>
      <trkpt lat="42.42298" lon="2.71098">
        <ele>1241</ele>
        <time>2024-09-21T09:16:31Z</time>
      </trkpt>
      <trkpt lat="42.42296" lon="2.71101">
        <ele>1239</ele>
        <time>2024-09-21T09:16:36Z</time>
      </trkpt>
      <trkpt lat="42.42293" lon="2.71103">
        <ele>1239</ele>
        <time>2024-09-21T09:16:40Z</time>
      </trkpt>
      <trkpt lat="42.42291" lon="2.71106">
        <ele>1239</ele>
        <time>2024-09-21T09:16:45Z</time>
      </trkpt>
      <trkpt lat="42.42289" lon="2.71108">
        <ele>1240</ele>
        <time>2024-09-21T09:16:49Z</time>
      </trkpt>
      <trkpt lat="42.42287" lon="2.71111">
        <ele>1242</ele>
        <time>2024-09-21T09:16:55Z</time>
      </trkpt>
      <trkpt lat="42.42285" lon="2.71114">
        <ele>1242</ele>
        <time>2024-09-21T09:17:01Z</time>
      </trkpt>
      <trkpt lat="42.42284" lon="2.71118">
        <ele>1246</ele>
        <time>2024-09-21T09:17:11Z</time>
      </trkpt>
      <trkpt lat="42.42284" lon="2.71122">
        <ele>1247</ele>
        <time>2024-09-21T09:17:16Z</time>
      </trkpt>
      <trkpt lat="42.42283" lon="2.71121">
        <ele>1251</ele>
        <time>2024-09-21T09:17:27Z</time>
      </trkpt>
      <trkpt lat="42.42281" lon="2.71121">
        <ele>1253</ele>
        <time>2024-09-21T09:17:32Z</time>
      </trkpt>
      <trkpt lat="42.42278" lon="2.71123">
        <ele>1251</ele>
        <time>2024-09-21T09:17:36Z</time>
      </trkpt>
      <trkpt lat="42.42277" lon="2.71127">
        <ele>1253</ele>
        <time>2024-09-21T09:17:42Z</time>
      </trkpt>
      <trkpt lat="42.42276" lon="2.71131">
        <ele>1254</ele>
        <time>2024-09-21T09:17:51Z</time>
      </trkpt>
      <trkpt lat="42.42273" lon="2.71132">
        <ele>1256</ele>
        <time>2024-09-21T09:17:58Z</time>
      </trkpt>
      <trkpt lat="42.4227" lon="2.71132">
        <ele>1260</ele>
        <time>2024-09-21T09:18:06Z</time>
      </trkpt>
      <trkpt lat="42.42267" lon="2.71133">
        <ele>1261</ele>
        <time>2024-09-21T09:18:14Z</time>
      </trkpt>
      <trkpt lat="42.42264" lon="2.71136">
        <ele>1267</ele>
        <time>2024-09-21T09:18:33Z</time>
      </trkpt>
      <trkpt lat="42.42261" lon="2.71139">
        <ele>1267</ele>
        <time>2024-09-21T09:18:35Z</time>
      </trkpt>
      <trkpt lat="42.4226" lon="2.71143">
        <ele>1268</ele>
        <time>2024-09-21T09:18:42Z</time>
      </trkpt>
      <trkpt lat="42.42259" lon="2.71147">
        <ele>1268</ele>
        <time>2024-09-21T09:18:50Z</time>
      </trkpt>
      <trkpt lat="42.42259" lon="2.71151">
        <ele>1267</ele>
        <time>2024-09-21T09:18:53Z</time>
      </trkpt>
      <trkpt lat="42.42258" lon="2.71155">
        <ele>1268</ele>
        <time>2024-09-21T09:18:56Z</time>
      </trkpt>
      <trkpt lat="42.42257" lon="2.71159">
        <ele>1269</ele>
        <time>2024-09-21T09:19:02Z</time>
      </trkpt>
      <trkpt lat="42.42254" lon="2.71162">
        <ele>1269</ele>
        <time>2024-09-21T09:19:06Z</time>
      </trkpt>
      <trkpt lat="42.42253" lon="2.71165">
        <ele>1270</ele>
        <time>2024-09-21T09:19:12Z</time>
      </trkpt>
      <trkpt lat="42.42253" lon="2.71169">
        <ele>1269</ele>
        <time>2024-09-21T09:19:16Z</time>
      </trkpt>
      <trkpt lat="42.42254" lon="2.71171">
        <ele>1268</ele>
        <time>2024-09-21T09:19:19Z</time>
      </trkpt>
      <trkpt lat="42.42254" lon="2.71174">
        <ele>1269</ele>
        <time>2024-09-21T09:19:26Z</time>
      </trkpt>
      <trkpt lat="42.42252" lon="2.71177">
        <ele>1270</ele>
        <time>2024-09-21T09:19:39Z</time>
      </trkpt>
      <trkpt lat="42.4225" lon="2.7118">
        <ele>1272</ele>
        <time>2024-09-21T09:19:47Z</time>
      </trkpt>
      <trkpt lat="42.42248" lon="2.71184">
        <ele>1272</ele>
        <time>2024-09-21T09:19:51Z</time>
      </trkpt>
      <trkpt lat="42.42247" lon="2.71188">
        <ele>1272</ele>
        <time>2024-09-21T09:19:53Z</time>
      </trkpt>
      <trkpt lat="42.42246" lon="2.71193">
        <ele>1272</ele>
        <time>2024-09-21T09:19:55Z</time>
      </trkpt>
      <trkpt lat="42.42247" lon="2.71197">
        <ele>1272</ele>
        <time>2024-09-21T09:19:59Z</time>
      </trkpt>
      <trkpt lat="42.42249" lon="2.71201">
        <ele>1271</ele>
        <time>2024-09-21T09:20:03Z</time>
      </trkpt>
      <trkpt lat="42.42251" lon="2.71204">
        <ele>1272</ele>
        <time>2024-09-21T09:20:06Z</time>
      </trkpt>
      <trkpt lat="42.42252" lon="2.71208">
        <ele>1277</ele>
        <time>2024-09-21T09:20:23Z</time>
      </trkpt>
      <trkpt lat="42.42251" lon="2.71209">
        <ele>1275</ele>
        <time>2024-09-21T09:20:29Z</time>
      </trkpt>
      <trkpt lat="42.42253" lon="2.71209">
        <ele>1272</ele>
        <time>2024-09-21T09:20:35Z</time>
      </trkpt>
      <trkpt lat="42.42252" lon="2.71209">
        <ele>1271</ele>
        <time>2024-09-21T09:20:41Z</time>
      </trkpt>
      <trkpt lat="42.42252" lon="2.71202">
        <ele>1272</ele>
        <time>2024-09-21T09:20:48Z</time>
      </trkpt>
      <trkpt lat="42.42253" lon="2.71196">
        <ele>1275</ele>
        <time>2024-09-21T09:20:57Z</time>
      </trkpt>
      <trkpt lat="42.42252" lon="2.71193">
        <ele>1276</ele>
        <time>2024-09-21T09:21:02Z</time>
      </trkpt>
      <trkpt lat="42.42249" lon="2.7119">
        <ele>1277</ele>
        <time>2024-09-21T09:21:04Z</time>
      </trkpt>
      <trkpt lat="42.42246" lon="2.71188">
        <ele>1277</ele>
        <time>2024-09-21T09:21:09Z</time>
      </trkpt>
      <trkpt lat="42.42243" lon="2.71185">
        <ele>1274</ele>
        <time>2024-09-21T09:21:11Z</time>
      </trkpt>
      <trkpt lat="42.4224" lon="2.71183">
        <ele>1278</ele>
        <time>2024-09-21T09:21:17Z</time>
      </trkpt>
      <trkpt lat="42.42237" lon="2.71185">
        <ele>1279</ele>
        <time>2024-09-21T09:21:21Z</time>
      </trkpt>
      <trkpt lat="42.42236" lon="2.71189">
        <ele>1277</ele>
        <time>2024-09-21T09:21:24Z</time>
      </trkpt>
      <trkpt lat="42.42236" lon="2.71193">
        <ele>1275</ele>
        <time>2024-09-21T09:21:27Z</time>
      </trkpt>
      <trkpt lat="42.42237" lon="2.71197">
        <ele>1273</ele>
        <time>2024-09-21T09:21:30Z</time>
      </trkpt>
      <trkpt lat="42.42239" lon="2.712">
        <ele>1274</ele>
        <time>2024-09-21T09:21:36Z</time>
      </trkpt>
      <trkpt lat="42.42239" lon="2.71205">
        <ele>1270</ele>
        <time>2024-09-21T09:21:40Z</time>
      </trkpt>
      <trkpt lat="42.42238" lon="2.71209">
        <ele>1272</ele>
        <time>2024-09-21T09:21:44Z</time>
      </trkpt>
      <trkpt lat="42.42236" lon="2.71211">
        <ele>1273</ele>
        <time>2024-09-21T09:21:47Z</time>
      </trkpt>
      <trkpt lat="42.42234" lon="2.71215">
        <ele>1273</ele>
        <time>2024-09-21T09:21:49Z</time>
      </trkpt>
      <trkpt lat="42.42232" lon="2.71219">
        <ele>1276</ele>
        <time>2024-09-21T09:21:54Z</time>
      </trkpt>
      <trkpt lat="42.42232" lon="2.71222">
        <ele>1275</ele>
        <time>2024-09-21T09:21:58Z</time>
      </trkpt>
      <trkpt lat="42.42232" lon="2.71226">
        <ele>1277</ele>
        <time>2024-09-21T09:22:02Z</time>
      </trkpt>
      <trkpt lat="42.42232" lon="2.7123">
        <ele>1278</ele>
        <time>2024-09-21T09:22:06Z</time>
      </trkpt>
      <trkpt lat="42.42233" lon="2.71235">
        <ele>1278</ele>
        <time>2024-09-21T09:22:10Z</time>
      </trkpt>
      <trkpt lat="42.42231" lon="2.71239">
        <ele>1280</ele>
        <time>2024-09-21T09:22:19Z</time>
      </trkpt>
      <trkpt lat="42.42229" lon="2.71242">
        <ele>1283</ele>
        <time>2024-09-21T09:22:25Z</time>
      </trkpt>
      <trkpt lat="42.42229" lon="2.71246">
        <ele>1283</ele>
        <time>2024-09-21T09:22:29Z</time>
      </trkpt>
      <trkpt lat="42.42228" lon="2.7125">
        <ele>1283</ele>
        <time>2024-09-21T09:22:33Z</time>
      </trkpt>
      <trkpt lat="42.42227" lon="2.71253">
        <ele>1285</ele>
        <time>2024-09-21T09:22:35Z</time>
      </trkpt>
      <trkpt lat="42.42226" lon="2.71256">
        <ele>1285</ele>
        <time>2024-09-21T09:22:43Z</time>
      </trkpt>
      <trkpt lat="42.42227" lon="2.7126">
        <ele>1284</ele>
        <time>2024-09-21T09:22:47Z</time>
      </trkpt>
      <trkpt lat="42.42228" lon="2.71264">
        <ele>1284</ele>
        <time>2024-09-21T09:22:52Z</time>
      </trkpt>
      <trkpt lat="42.42227" lon="2.71269">
        <ele>1286</ele>
        <time>2024-09-21T09:23:06Z</time>
      </trkpt>
      <trkpt lat="42.42226" lon="2.71273">
        <ele>1286</ele>
        <time>2024-09-21T09:23:14Z</time>
      </trkpt>
      <trkpt lat="42.42226" lon="2.71277">
        <ele>1290</ele>
        <time>2024-09-21T09:23:18Z</time>
      </trkpt>
      <trkpt lat="42.42224" lon="2.7128">
        <ele>1291</ele>
        <time>2024-09-21T09:23:24Z</time>
      </trkpt>
      <trkpt lat="42.42221" lon="2.71282">
        <ele>1291</ele>
        <time>2024-09-21T09:23:31Z</time>
      </trkpt>
      <trkpt lat="42.4222" lon="2.71286">
        <ele>1289</ele>
        <time>2024-09-21T09:23:59Z</time>
      </trkpt>
      <trkpt lat="42.42218" lon="2.71289">
        <ele>1290</ele>
        <time>2024-09-21T09:24:07Z</time>
      </trkpt>
      <trkpt lat="42.42218" lon="2.71293">
        <ele>1292</ele>
        <time>2024-09-21T09:24:12Z</time>
      </trkpt>
      <trkpt lat="42.42216" lon="2.71294">
        <ele>1294</ele>
        <time>2024-09-21T09:24:17Z</time>
      </trkpt>
      <trkpt lat="42.42215" lon="2.71298">
        <ele>1297</ele>
        <time>2024-09-21T09:24:23Z</time>
      </trkpt>
      <trkpt lat="42.42213" lon="2.71301">
        <ele>1300</ele>
        <time>2024-09-21T09:24:28Z</time>
      </trkpt>
      <trkpt lat="42.42212" lon="2.71304">
        <ele>1301</ele>
        <time>2024-09-21T09:24:32Z</time>
      </trkpt>
      <trkpt lat="42.42209" lon="2.71305">
        <ele>1302</ele>
        <time>2024-09-21T09:24:37Z</time>
      </trkpt>
      <trkpt lat="42.42208" lon="2.71308">
        <ele>1300</ele>
        <time>2024-09-21T09:24:43Z</time>
      </trkpt>
      <trkpt lat="42.42206" lon="2.71311">
        <ele>1298</ele>
        <time>2024-09-21T09:24:49Z</time>
      </trkpt>
      <trkpt lat="42.42204" lon="2.71313">
        <ele>1300</ele>
        <time>2024-09-21T09:24:58Z</time>
      </trkpt>
      <trkpt lat="42.42203" lon="2.71316">
        <ele>1297</ele>
        <time>2024-09-21T09:25:00Z</time>
      </trkpt>
      <trkpt lat="42.42203" lon="2.71321">
        <ele>1296</ele>
        <time>2024-09-21T09:25:03Z</time>
      </trkpt>
      <trkpt lat="42.42203" lon="2.71325">
        <ele>1300</ele>
        <time>2024-09-21T09:25:11Z</time>
      </trkpt>
      <trkpt lat="42.42204" lon="2.7133">
        <ele>1304</ele>
        <time>2024-09-21T09:25:19Z</time>
      </trkpt>
      <trkpt lat="42.42205" lon="2.71334">
        <ele>1306</ele>
        <time>2024-09-21T09:25:24Z</time>
      </trkpt>
      <trkpt lat="42.42206" lon="2.71337">
        <ele>1307</ele>
        <time>2024-09-21T09:25:29Z</time>
      </trkpt>
      <trkpt lat="42.42206" lon="2.71341">
        <ele>1309</ele>
        <time>2024-09-21T09:25:36Z</time>
      </trkpt>
      <trkpt lat="42.42205" lon="2.71344">
        <ele>1309</ele>
        <time>2024-09-21T09:25:43Z</time>
      </trkpt>
      <trkpt lat="42.42203" lon="2.71347">
        <ele>1312</ele>
        <time>2024-09-21T09:25:52Z</time>
      </trkpt>
      <trkpt lat="42.42201" lon="2.7135">
        <ele>1313</ele>
        <time>2024-09-21T09:25:56Z</time>
      </trkpt>
      <trkpt lat="42.422" lon="2.71354">
        <ele>1315</ele>
        <time>2024-09-21T09:26:06Z</time>
      </trkpt>
      <trkpt lat="42.42199" lon="2.71353">
        <ele>1318</ele>
        <time>2024-09-21T09:26:13Z</time>
      </trkpt>
      <trkpt lat="42.42198" lon="2.71355">
        <ele>1316</ele>
        <time>2024-09-21T09:26:18Z</time>
      </trkpt>
      <trkpt lat="42.42198" lon="2.71359">
        <ele>1316</ele>
        <time>2024-09-21T09:26:23Z</time>
      </trkpt>
      <trkpt lat="42.42197" lon="2.71362">
        <ele>1317</ele>
        <time>2024-09-21T09:26:26Z</time>
      </trkpt>
      <trkpt lat="42.42196" lon="2.71367">
        <ele>1319</ele>
        <time>2024-09-21T09:26:33Z</time>
      </trkpt>
      <trkpt lat="42.42195" lon="2.71371">
        <ele>1319</ele>
        <time>2024-09-21T09:26:37Z</time>
      </trkpt>
      <trkpt lat="42.42195" lon="2.71375">
        <ele>1320</ele>
        <time>2024-09-21T09:26:42Z</time>
      </trkpt>
      <trkpt lat="42.42193" lon="2.71379">
        <ele>1319</ele>
        <time>2024-09-21T09:26:46Z</time>
      </trkpt>
      <trkpt lat="42.42192" lon="2.71382">
        <ele>1321</ele>
        <time>2024-09-21T09:26:57Z</time>
      </trkpt>
      <trkpt lat="42.42191" lon="2.71386">
        <ele>1322</ele>
        <time>2024-09-21T09:27:03Z</time>
      </trkpt>
      <trkpt lat="42.42189" lon="2.71389">
        <ele>1322</ele>
        <time>2024-09-21T09:27:09Z</time>
      </trkpt>
      <trkpt lat="42.42187" lon="2.71391">
        <ele>1326</ele>
        <time>2024-09-21T09:27:23Z</time>
      </trkpt>
      <trkpt lat="42.42186" lon="2.71396">
        <ele>1326</ele>
        <time>2024-09-21T09:27:29Z</time>
      </trkpt>
      <trkpt lat="42.42184" lon="2.71399">
        <ele>1330</ele>
        <time>2024-09-21T09:27:40Z</time>
      </trkpt>
      <trkpt lat="42.42183" lon="2.71404">
        <ele>1332</ele>
        <time>2024-09-21T09:27:47Z</time>
      </trkpt>
      <trkpt lat="42.42181" lon="2.71406">
        <ele>1335</ele>
        <time>2024-09-21T09:27:56Z</time>
      </trkpt>
      <trkpt lat="42.42178" lon="2.71406">
        <ele>1338</ele>
        <time>2024-09-21T09:28:01Z</time>
      </trkpt>
      <trkpt lat="42.42176" lon="2.71408">
        <ele>1337</ele>
        <time>2024-09-21T09:28:04Z</time>
      </trkpt>
      <trkpt lat="42.42176" lon="2.71412">
        <ele>1337</ele>
        <time>2024-09-21T09:28:08Z</time>
      </trkpt>
      <trkpt lat="42.42177" lon="2.71417">
        <ele>1337</ele>
        <time>2024-09-21T09:28:11Z</time>
      </trkpt>
      <trkpt lat="42.42178" lon="2.71421">
        <ele>1336</ele>
        <time>2024-09-21T09:28:13Z</time>
      </trkpt>
      <trkpt lat="42.42179" lon="2.71424">
        <ele>1337</ele>
        <time>2024-09-21T09:28:20Z</time>
      </trkpt>
      <trkpt lat="42.4218" lon="2.71428">
        <ele>1337</ele>
        <time>2024-09-21T09:28:27Z</time>
      </trkpt>
      <trkpt lat="42.42181" lon="2.71432">
        <ele>1339</ele>
        <time>2024-09-21T09:28:33Z</time>
      </trkpt>
      <trkpt lat="42.42183" lon="2.71436">
        <ele>1338</ele>
        <time>2024-09-21T09:28:38Z</time>
      </trkpt>
      <trkpt lat="42.42184" lon="2.71439">
        <ele>1340</ele>
        <time>2024-09-21T09:28:47Z</time>
      </trkpt>
      <trkpt lat="42.42183" lon="2.71442">
        <ele>1339</ele>
        <time>2024-09-21T09:28:54Z</time>
      </trkpt>
      <trkpt lat="42.42182" lon="2.71446">
        <ele>1342</ele>
        <time>2024-09-21T09:29:01Z</time>
      </trkpt>
      <trkpt lat="42.4218" lon="2.71447">
        <ele>1345</ele>
        <time>2024-09-21T09:29:12Z</time>
      </trkpt>
      <trkpt lat="42.42177" lon="2.71448">
        <ele>1346</ele>
        <time>2024-09-21T09:29:22Z</time>
      </trkpt>
      <trkpt lat="42.42174" lon="2.71449">
        <ele>1347</ele>
        <time>2024-09-21T09:29:25Z</time>
      </trkpt>
      <trkpt lat="42.42171" lon="2.7145">
        <ele>1348</ele>
        <time>2024-09-21T09:29:30Z</time>
      </trkpt>
      <trkpt lat="42.42169" lon="2.71453">
        <ele>1349</ele>
        <time>2024-09-21T09:29:37Z</time>
      </trkpt>
      <trkpt lat="42.42167" lon="2.71456">
        <ele>1349</ele>
        <time>2024-09-21T09:29:45Z</time>
      </trkpt>
      <trkpt lat="42.42165" lon="2.71455">
        <ele>1350</ele>
        <time>2024-09-21T09:29:47Z</time>
      </trkpt>
      <trkpt lat="42.42165" lon="2.71457">
        <ele>1350</ele>
        <time>2024-09-21T09:29:49Z</time>
      </trkpt>
      <trkpt lat="42.42163" lon="2.71459">
        <ele>1351</ele>
        <time>2024-09-21T09:29:53Z</time>
      </trkpt>
      <trkpt lat="42.42162" lon="2.71462">
        <ele>1349</ele>
        <time>2024-09-21T09:29:56Z</time>
      </trkpt>
      <trkpt lat="42.42162" lon="2.71465">
        <ele>1348</ele>
        <time>2024-09-21T09:30:00Z</time>
      </trkpt>
      <trkpt lat="42.42161" lon="2.71469">
        <ele>1349</ele>
        <time>2024-09-21T09:30:07Z</time>
      </trkpt>
      <trkpt lat="42.4216" lon="2.71472">
        <ele>1354</ele>
        <time>2024-09-21T09:30:22Z</time>
      </trkpt>
      <trkpt lat="42.4216" lon="2.71476">
        <ele>1355</ele>
        <time>2024-09-21T09:30:25Z</time>
      </trkpt>
      <trkpt lat="42.42161" lon="2.7148">
        <ele>1354</ele>
        <time>2024-09-21T09:30:30Z</time>
      </trkpt>
      <trkpt lat="42.42163" lon="2.71482">
        <ele>1355</ele>
        <time>2024-09-21T09:30:33Z</time>
      </trkpt>
      <trkpt lat="42.42165" lon="2.71485">
        <ele>1354</ele>
        <time>2024-09-21T09:30:38Z</time>
      </trkpt>
      <trkpt lat="42.42167" lon="2.71489">
        <ele>1355</ele>
        <time>2024-09-21T09:30:43Z</time>
      </trkpt>
      <trkpt lat="42.42169" lon="2.71492">
        <ele>1356</ele>
        <time>2024-09-21T09:30:47Z</time>
      </trkpt>
      <trkpt lat="42.4217" lon="2.71496">
        <ele>1357</ele>
        <time>2024-09-21T09:30:51Z</time>
      </trkpt>
      <trkpt lat="42.42169" lon="2.71498">
        <ele>1360</ele>
        <time>2024-09-21T09:30:59Z</time>
      </trkpt>
      <trkpt lat="42.42167" lon="2.71497">
        <ele>1362</ele>
        <time>2024-09-21T09:31:06Z</time>
      </trkpt>
      <trkpt lat="42.42164" lon="2.71497">
        <ele>1362</ele>
        <time>2024-09-21T09:31:13Z</time>
      </trkpt>
      <trkpt lat="42.42162" lon="2.71498">
        <ele>1363</ele>
        <time>2024-09-21T09:31:19Z</time>
      </trkpt>
      <trkpt lat="42.42158" lon="2.71498">
        <ele>1365</ele>
        <time>2024-09-21T09:31:24Z</time>
      </trkpt>
      <trkpt lat="42.42156" lon="2.715">
        <ele>1365</ele>
        <time>2024-09-21T09:31:30Z</time>
      </trkpt>
      <trkpt lat="42.42154" lon="2.71504">
        <ele>1365</ele>
        <time>2024-09-21T09:31:34Z</time>
      </trkpt>
      <trkpt lat="42.42153" lon="2.71508">
        <ele>1366</ele>
        <time>2024-09-21T09:31:38Z</time>
      </trkpt>
      <trkpt lat="42.42155" lon="2.71512">
        <ele>1368</ele>
        <time>2024-09-21T09:31:42Z</time>
      </trkpt>
      <trkpt lat="42.42154" lon="2.71516">
        <ele>1369</ele>
        <time>2024-09-21T09:31:47Z</time>
      </trkpt>
      <trkpt lat="42.42156" lon="2.71519">
        <ele>1371</ele>
        <time>2024-09-21T09:31:51Z</time>
      </trkpt>
      <trkpt lat="42.42158" lon="2.71521">
        <ele>1368</ele>
        <time>2024-09-21T09:31:54Z</time>
      </trkpt>
      <trkpt lat="42.42158" lon="2.71524">
        <ele>1369</ele>
        <time>2024-09-21T09:31:58Z</time>
      </trkpt>
      <trkpt lat="42.42158" lon="2.71528">
        <ele>1369</ele>
        <time>2024-09-21T09:32:05Z</time>
      </trkpt>
      <trkpt lat="42.42159" lon="2.71531">
        <ele>1370</ele>
        <time>2024-09-21T09:32:11Z</time>
      </trkpt>
      <trkpt lat="42.4216" lon="2.71534">
        <ele>1373</ele>
        <time>2024-09-21T09:32:17Z</time>
      </trkpt>
      <trkpt lat="42.42163" lon="2.71538">
        <ele>1371</ele>
        <time>2024-09-21T09:32:23Z</time>
      </trkpt>
      <trkpt lat="42.42162" lon="2.71541">
        <ele>1370</ele>
        <time>2024-09-21T09:32:30Z</time>
      </trkpt>
      <trkpt lat="42.42163" lon="2.71545">
        <ele>1370</ele>
        <time>2024-09-21T09:32:37Z</time>
      </trkpt>
      <trkpt lat="42.42164" lon="2.71548">
        <ele>1371</ele>
        <time>2024-09-21T09:32:42Z</time>
      </trkpt>
      <trkpt lat="42.42165" lon="2.71551">
        <ele>1372</ele>
        <time>2024-09-21T09:32:47Z</time>
      </trkpt>
      <trkpt lat="42.42166" lon="2.71555">
        <ele>1373</ele>
        <time>2024-09-21T09:32:50Z</time>
      </trkpt>
      <trkpt lat="42.42165" lon="2.71558">
        <ele>1377</ele>
        <time>2024-09-21T09:32:58Z</time>
      </trkpt>
      <trkpt lat="42.42166" lon="2.71556">
        <ele>1379</ele>
        <time>2024-09-21T09:33:18Z</time>
      </trkpt>
      <trkpt lat="42.42165" lon="2.71556">
        <ele>1379</ele>
        <time>2024-09-21T09:33:21Z</time>
      </trkpt>
      <trkpt lat="42.42166" lon="2.71559">
        <ele>1379</ele>
        <time>2024-09-21T09:33:24Z</time>
      </trkpt>
      <trkpt lat="42.42165" lon="2.71563">
        <ele>1378</ele>
        <time>2024-09-21T09:33:27Z</time>
      </trkpt>
      <trkpt lat="42.42166" lon="2.71566">
        <ele>1379</ele>
        <time>2024-09-21T09:33:31Z</time>
      </trkpt>
      <trkpt lat="42.42165" lon="2.7157">
        <ele>1378</ele>
        <time>2024-09-21T09:33:36Z</time>
      </trkpt>
      <trkpt lat="42.42165" lon="2.71574">
        <ele>1379</ele>
        <time>2024-09-21T09:33:43Z</time>
      </trkpt>
      <trkpt lat="42.42164" lon="2.71578">
        <ele>1380</ele>
        <time>2024-09-21T09:33:47Z</time>
      </trkpt>
      <trkpt lat="42.42164" lon="2.71582">
        <ele>1381</ele>
        <time>2024-09-21T09:33:51Z</time>
      </trkpt>
      <trkpt lat="42.42163" lon="2.71586">
        <ele>1379</ele>
        <time>2024-09-21T09:33:55Z</time>
      </trkpt>
      <trkpt lat="42.42164" lon="2.71589">
        <ele>1381</ele>
        <time>2024-09-21T09:33:58Z</time>
      </trkpt>
      <trkpt lat="42.42166" lon="2.71593">
        <ele>1382</ele>
        <time>2024-09-21T09:34:01Z</time>
      </trkpt>
      <trkpt lat="42.42167" lon="2.71597">
        <ele>1382</ele>
        <time>2024-09-21T09:34:05Z</time>
      </trkpt>
      <trkpt lat="42.42169" lon="2.71601">
        <ele>1382</ele>
        <time>2024-09-21T09:34:10Z</time>
      </trkpt>
      <trkpt lat="42.42169" lon="2.71605">
        <ele>1381</ele>
        <time>2024-09-21T09:34:13Z</time>
      </trkpt>
      <trkpt lat="42.42169" lon="2.71609">
        <ele>1381</ele>
        <time>2024-09-21T09:34:18Z</time>
      </trkpt>
      <trkpt lat="42.42169" lon="2.71613">
        <ele>1382</ele>
        <time>2024-09-21T09:34:23Z</time>
      </trkpt>
      <trkpt lat="42.42169" lon="2.71617">
        <ele>1382</ele>
        <time>2024-09-21T09:34:28Z</time>
      </trkpt>
      <trkpt lat="42.42171" lon="2.71621">
        <ele>1383</ele>
        <time>2024-09-21T09:34:31Z</time>
      </trkpt>
      <trkpt lat="42.42172" lon="2.71625">
        <ele>1384</ele>
        <time>2024-09-21T09:34:34Z</time>
      </trkpt>
      <trkpt lat="42.42175" lon="2.71628">
        <ele>1385</ele>
        <time>2024-09-21T09:34:36Z</time>
      </trkpt>
      <trkpt lat="42.42174" lon="2.71631">
        <ele>1389</ele>
        <time>2024-09-21T09:34:44Z</time>
      </trkpt>
      <trkpt lat="42.42174" lon="2.71635">
        <ele>1389</ele>
        <time>2024-09-21T09:34:48Z</time>
      </trkpt>
      <trkpt lat="42.42175" lon="2.71639">
        <ele>1389</ele>
        <time>2024-09-21T09:34:51Z</time>
      </trkpt>
      <trkpt lat="42.42175" lon="2.71643">
        <ele>1390</ele>
        <time>2024-09-21T09:34:56Z</time>
      </trkpt>
      <trkpt lat="42.42175" lon="2.71648">
        <ele>1390</ele>
        <time>2024-09-21T09:34:58Z</time>
      </trkpt>
      <trkpt lat="42.42174" lon="2.71652">
        <ele>1389</ele>
        <time>2024-09-21T09:35:03Z</time>
      </trkpt>
      <trkpt lat="42.42174" lon="2.71656">
        <ele>1390</ele>
        <time>2024-09-21T09:35:07Z</time>
      </trkpt>
      <trkpt lat="42.42174" lon="2.7166">
        <ele>1390</ele>
        <time>2024-09-21T09:35:10Z</time>
      </trkpt>
      <trkpt lat="42.42175" lon="2.71665">
        <ele>1392</ele>
        <time>2024-09-21T09:35:14Z</time>
      </trkpt>
      <trkpt lat="42.42175" lon="2.71669">
        <ele>1393</ele>
        <time>2024-09-21T09:35:18Z</time>
      </trkpt>
      <trkpt lat="42.42177" lon="2.71673">
        <ele>1393</ele>
        <time>2024-09-21T09:35:21Z</time>
      </trkpt>
      <trkpt lat="42.42178" lon="2.71677">
        <ele>1393</ele>
        <time>2024-09-21T09:35:25Z</time>
      </trkpt>
      <trkpt lat="42.4218" lon="2.71681">
        <ele>1394</ele>
        <time>2024-09-21T09:35:29Z</time>
      </trkpt>
      <trkpt lat="42.42181" lon="2.71686">
        <ele>1394</ele>
        <time>2024-09-21T09:35:34Z</time>
      </trkpt>
      <trkpt lat="42.42184" lon="2.71689">
        <ele>1396</ele>
        <time>2024-09-21T09:35:36Z</time>
      </trkpt>
      <trkpt lat="42.42183" lon="2.71692">
        <ele>1394</ele>
        <time>2024-09-21T09:35:39Z</time>
      </trkpt>
      <trkpt lat="42.42183" lon="2.71696">
        <ele>1394</ele>
        <time>2024-09-21T09:35:42Z</time>
      </trkpt>
      <trkpt lat="42.42184" lon="2.717">
        <ele>1394</ele>
        <time>2024-09-21T09:35:46Z</time>
      </trkpt>
      <trkpt lat="42.42185" lon="2.71705">
        <ele>1396</ele>
        <time>2024-09-21T09:35:50Z</time>
      </trkpt>
      <trkpt lat="42.42185" lon="2.71709">
        <ele>1396</ele>
        <time>2024-09-21T09:35:54Z</time>
      </trkpt>
      <trkpt lat="42.42185" lon="2.71713">
        <ele>1395</ele>
        <time>2024-09-21T09:35:58Z</time>
      </trkpt>
      <trkpt lat="42.42185" lon="2.71719">
        <ele>1396</ele>
        <time>2024-09-21T09:36:03Z</time>
      </trkpt>
      <trkpt lat="42.42184" lon="2.71724">
        <ele>1396</ele>
        <time>2024-09-21T09:36:06Z</time>
      </trkpt>
      <trkpt lat="42.42184" lon="2.71729">
        <ele>1397</ele>
        <time>2024-09-21T09:36:10Z</time>
      </trkpt>
      <trkpt lat="42.42185" lon="2.71733">
        <ele>1399</ele>
        <time>2024-09-21T09:36:13Z</time>
      </trkpt>
      <trkpt lat="42.42187" lon="2.71736">
        <ele>1402</ele>
        <time>2024-09-21T09:36:25Z</time>
      </trkpt>
      <trkpt lat="42.4219" lon="2.71735">
        <ele>1403</ele>
        <time>2024-09-21T09:36:32Z</time>
      </trkpt>
      <trkpt lat="42.42189" lon="2.71736">
        <ele>1402</ele>
        <time>2024-09-21T09:36:49Z</time>
      </trkpt>
      <trkpt lat="42.42188" lon="2.71739">
        <ele>1399</ele>
        <time>2024-09-21T09:36:55Z</time>
      </trkpt>
      <trkpt lat="42.42189" lon="2.71739">
        <ele>1399</ele>
        <time>2024-09-21T09:38:02Z</time>
      </trkpt>
      <trkpt lat="42.42192" lon="2.71739">
        <ele>1398</ele>
        <time>2024-09-21T09:38:07Z</time>
      </trkpt>
      <trkpt lat="42.42193" lon="2.71742">
        <ele>1398</ele>
        <time>2024-09-21T09:38:11Z</time>
      </trkpt>
      <trkpt lat="42.42192" lon="2.71744">
        <ele>1397</ele>
        <time>2024-09-21T09:38:14Z</time>
      </trkpt>
      <trkpt lat="42.4219" lon="2.71747">
        <ele>1396</ele>
        <time>2024-09-21T09:38:17Z</time>
      </trkpt>
      <trkpt lat="42.42188" lon="2.71751">
        <ele>1395</ele>
        <time>2024-09-21T09:38:21Z</time>
      </trkpt>
      <trkpt lat="42.42187" lon="2.71755">
        <ele>1395</ele>
        <time>2024-09-21T09:38:24Z</time>
      </trkpt>
      <trkpt lat="42.42188" lon="2.71759">
        <ele>1394</ele>
        <time>2024-09-21T09:38:28Z</time>
      </trkpt>
      <trkpt lat="42.42189" lon="2.71763">
        <ele>1395</ele>
        <time>2024-09-21T09:38:31Z</time>
      </trkpt>
      <trkpt lat="42.42191" lon="2.71767">
        <ele>1393</ele>
        <time>2024-09-21T09:38:34Z</time>
      </trkpt>
      <trkpt lat="42.42192" lon="2.71771">
        <ele>1389</ele>
        <time>2024-09-21T09:38:47Z</time>
      </trkpt>
      <trkpt lat="42.42193" lon="2.71774">
        <ele>1388</ele>
        <time>2024-09-21T09:38:50Z</time>
      </trkpt>
      <trkpt lat="42.42194" lon="2.71779">
        <ele>1388</ele>
        <time>2024-09-21T09:38:53Z</time>
      </trkpt>
      <trkpt lat="42.42195" lon="2.71783">
        <ele>1387</ele>
        <time>2024-09-21T09:38:56Z</time>
      </trkpt>
      <trkpt lat="42.42197" lon="2.71786">
        <ele>1387</ele>
        <time>2024-09-21T09:38:59Z</time>
      </trkpt>
      <trkpt lat="42.42199" lon="2.71789">
        <ele>1387</ele>
        <time>2024-09-21T09:39:01Z</time>
      </trkpt>
      <trkpt lat="42.42201" lon="2.71791">
        <ele>1387</ele>
        <time>2024-09-21T09:39:03Z</time>
      </trkpt>
      <trkpt lat="42.42203" lon="2.71795">
        <ele>1387</ele>
        <time>2024-09-21T09:39:06Z</time>
      </trkpt>
      <trkpt lat="42.42203" lon="2.71798">
        <ele>1386</ele>
        <time>2024-09-21T09:39:08Z</time>
      </trkpt>
      <trkpt lat="42.42205" lon="2.71802">
        <ele>1387</ele>
        <time>2024-09-21T09:39:11Z</time>
      </trkpt>
      <trkpt lat="42.42207" lon="2.71805">
        <ele>1387</ele>
        <time>2024-09-21T09:39:12Z</time>
      </trkpt>
      <trkpt lat="42.42209" lon="2.71809">
        <ele>1388</ele>
        <time>2024-09-21T09:39:15Z</time>
      </trkpt>
      <trkpt lat="42.42211" lon="2.71811">
        <ele>1388</ele>
        <time>2024-09-21T09:39:19Z</time>
      </trkpt>
      <trkpt lat="42.42211" lon="2.71815">
        <ele>1389</ele>
        <time>2024-09-21T09:39:22Z</time>
      </trkpt>
      <trkpt lat="42.42212" lon="2.71819">
        <ele>1389</ele>
        <time>2024-09-21T09:39:27Z</time>
      </trkpt>
      <trkpt lat="42.42212" lon="2.71823">
        <ele>1390</ele>
        <time>2024-09-21T09:39:31Z</time>
      </trkpt>
      <trkpt lat="42.42213" lon="2.71826">
        <ele>1390</ele>
        <time>2024-09-21T09:39:33Z</time>
      </trkpt>
      <trkpt lat="42.42214" lon="2.7183">
        <ele>1391</ele>
        <time>2024-09-21T09:39:38Z</time>
      </trkpt>
      <trkpt lat="42.42216" lon="2.71832">
        <ele>1390</ele>
        <time>2024-09-21T09:39:41Z</time>
      </trkpt>
      <trkpt lat="42.42219" lon="2.71833">
        <ele>1391</ele>
        <time>2024-09-21T09:39:45Z</time>
      </trkpt>
      <trkpt lat="42.42218" lon="2.71834">
        <ele>1392</ele>
        <time>2024-09-21T09:39:49Z</time>
      </trkpt>
      <trkpt lat="42.42217" lon="2.71836">
        <ele>1394</ele>
        <time>2024-09-21T09:39:54Z</time>
      </trkpt>
      <trkpt lat="42.42217" lon="2.7184">
        <ele>1394</ele>
        <time>2024-09-21T09:39:59Z</time>
      </trkpt>
      <trkpt lat="42.42218" lon="2.71843">
        <ele>1395</ele>
        <time>2024-09-21T09:40:01Z</time>
      </trkpt>
      <trkpt lat="42.42218" lon="2.71847">
        <ele>1395</ele>
        <time>2024-09-21T09:40:06Z</time>
      </trkpt>
      <trkpt lat="42.42217" lon="2.7185">
        <ele>1393</ele>
        <time>2024-09-21T09:40:09Z</time>
      </trkpt>
      <trkpt lat="42.42216" lon="2.71854">
        <ele>1392</ele>
        <time>2024-09-21T09:40:12Z</time>
      </trkpt>
      <trkpt lat="42.42217" lon="2.71858">
        <ele>1393</ele>
        <time>2024-09-21T09:40:15Z</time>
      </trkpt>
      <trkpt lat="42.42219" lon="2.71861">
        <ele>1393</ele>
        <time>2024-09-21T09:40:18Z</time>
      </trkpt>
      <trkpt lat="42.42219" lon="2.71866">
        <ele>1392</ele>
        <time>2024-09-21T09:40:20Z</time>
      </trkpt>
      <trkpt lat="42.42221" lon="2.71869">
        <ele>1392</ele>
        <time>2024-09-21T09:40:23Z</time>
      </trkpt>
      <trkpt lat="42.42221" lon="2.71873">
        <ele>1392</ele>
        <time>2024-09-21T09:40:25Z</time>
      </trkpt>
      <trkpt lat="42.42223" lon="2.71876">
        <ele>1392</ele>
        <time>2024-09-21T09:40:32Z</time>
      </trkpt>
      <trkpt lat="42.42224" lon="2.71879">
        <ele>1392</ele>
        <time>2024-09-21T09:40:35Z</time>
      </trkpt>
      <trkpt lat="42.42224" lon="2.71883">
        <ele>1390</ele>
        <time>2024-09-21T09:40:41Z</time>
      </trkpt>
      <trkpt lat="42.42224" lon="2.71888">
        <ele>1389</ele>
        <time>2024-09-21T09:40:47Z</time>
      </trkpt>
      <trkpt lat="42.42224" lon="2.71892">
        <ele>1388</ele>
        <time>2024-09-21T09:40:50Z</time>
      </trkpt>
      <trkpt lat="42.42225" lon="2.71895">
        <ele>1388</ele>
        <time>2024-09-21T09:40:53Z</time>
      </trkpt>
      <trkpt lat="42.42226" lon="2.71899">
        <ele>1388</ele>
        <time>2024-09-21T09:40:59Z</time>
      </trkpt>
      <trkpt lat="42.42226" lon="2.71902">
        <ele>1387</ele>
        <time>2024-09-21T09:41:03Z</time>
      </trkpt>
      <trkpt lat="42.42226" lon="2.71906">
        <ele>1384</ele>
        <time>2024-09-21T09:41:10Z</time>
      </trkpt>
      <trkpt lat="42.42226" lon="2.7191">
        <ele>1383</ele>
        <time>2024-09-21T09:41:14Z</time>
      </trkpt>
      <trkpt lat="42.42227" lon="2.71914">
        <ele>1385</ele>
        <time>2024-09-21T09:41:15Z</time>
      </trkpt>
      <trkpt lat="42.42227" lon="2.71919">
        <ele>1382</ele>
        <time>2024-09-21T09:41:25Z</time>
      </trkpt>
      <trkpt lat="42.42225" lon="2.71922">
        <ele>1381</ele>
        <time>2024-09-21T09:41:29Z</time>
      </trkpt>
      <trkpt lat="42.42223" lon="2.71926">
        <ele>1381</ele>
        <time>2024-09-21T09:41:35Z</time>
      </trkpt>
      <trkpt lat="42.42222" lon="2.7193">
        <ele>1381</ele>
        <time>2024-09-21T09:41:38Z</time>
      </trkpt>
      <trkpt lat="42.42221" lon="2.71934">
        <ele>1381</ele>
        <time>2024-09-21T09:41:42Z</time>
      </trkpt>
      <trkpt lat="42.42219" lon="2.71938">
        <ele>1380</ele>
        <time>2024-09-21T09:41:44Z</time>
      </trkpt>
      <trkpt lat="42.42218" lon="2.71942">
        <ele>1378</ele>
        <time>2024-09-21T09:41:48Z</time>
      </trkpt>
      <trkpt lat="42.42219" lon="2.71946">
        <ele>1378</ele>
        <time>2024-09-21T09:41:51Z</time>
      </trkpt>
      <trkpt lat="42.42219" lon="2.7195">
        <ele>1379</ele>
        <time>2024-09-21T09:41:55Z</time>
      </trkpt>
      <trkpt lat="42.4222" lon="2.71954">
        <ele>1375</ele>
        <time>2024-09-21T09:41:59Z</time>
      </trkpt>
      <trkpt lat="42.4222" lon="2.71958">
        <ele>1376</ele>
        <time>2024-09-21T09:42:03Z</time>
      </trkpt>
      <trkpt lat="42.42219" lon="2.71962">
        <ele>1375</ele>
        <time>2024-09-21T09:42:05Z</time>
      </trkpt>
      <trkpt lat="42.42219" lon="2.71967">
        <ele>1373</ele>
        <time>2024-09-21T09:42:08Z</time>
      </trkpt>
      <trkpt lat="42.42219" lon="2.71971">
        <ele>1374</ele>
        <time>2024-09-21T09:42:10Z</time>
      </trkpt>
      <trkpt lat="42.42219" lon="2.71977">
        <ele>1374</ele>
        <time>2024-09-21T09:42:14Z</time>
      </trkpt>
      <trkpt lat="42.4222" lon="2.71977">
        <ele>1375</ele>
        <time>2024-09-21T09:42:50Z</time>
      </trkpt>
      <trkpt lat="42.4222" lon="2.7198">
        <ele>1374</ele>
        <time>2024-09-21T09:43:03Z</time>
      </trkpt>
      <trkpt lat="42.4222" lon="2.71984">
        <ele>1374</ele>
        <time>2024-09-21T09:43:08Z</time>
      </trkpt>
      <trkpt lat="42.42219" lon="2.71988">
        <ele>1373</ele>
        <time>2024-09-21T09:43:11Z</time>
      </trkpt>
      <trkpt lat="42.42219" lon="2.71993">
        <ele>1374</ele>
        <time>2024-09-21T09:43:14Z</time>
      </trkpt>
      <trkpt lat="42.42218" lon="2.71998">
        <ele>1376</ele>
        <time>2024-09-21T09:43:17Z</time>
      </trkpt>
      <trkpt lat="42.42217" lon="2.72002">
        <ele>1375</ele>
        <time>2024-09-21T09:43:20Z</time>
      </trkpt>
      <trkpt lat="42.42217" lon="2.72006">
        <ele>1375</ele>
        <time>2024-09-21T09:43:22Z</time>
      </trkpt>
      <trkpt lat="42.42216" lon="2.7201">
        <ele>1375</ele>
        <time>2024-09-21T09:43:25Z</time>
      </trkpt>
      <trkpt lat="42.42216" lon="2.72015">
        <ele>1375</ele>
        <time>2024-09-21T09:43:28Z</time>
      </trkpt>
      <trkpt lat="42.42215" lon="2.7202">
        <ele>1376</ele>
        <time>2024-09-21T09:43:31Z</time>
      </trkpt>
      <trkpt lat="42.42215" lon="2.72024">
        <ele>1375</ele>
        <time>2024-09-21T09:43:33Z</time>
      </trkpt>
      <trkpt lat="42.42215" lon="2.72028">
        <ele>1374</ele>
        <time>2024-09-21T09:43:36Z</time>
      </trkpt>
      <trkpt lat="42.42216" lon="2.72031">
        <ele>1375</ele>
        <time>2024-09-21T09:43:38Z</time>
      </trkpt>
      <trkpt lat="42.42217" lon="2.72035">
        <ele>1374</ele>
        <time>2024-09-21T09:43:40Z</time>
      </trkpt>
      <trkpt lat="42.42216" lon="2.72039">
        <ele>1373</ele>
        <time>2024-09-21T09:43:43Z</time>
      </trkpt>
      <trkpt lat="42.42217" lon="2.72044">
        <ele>1374</ele>
        <time>2024-09-21T09:43:47Z</time>
      </trkpt>
      <trkpt lat="42.42219" lon="2.72048">
        <ele>1375</ele>
        <time>2024-09-21T09:43:51Z</time>
      </trkpt>
      <trkpt lat="42.42221" lon="2.72051">
        <ele>1375</ele>
        <time>2024-09-21T09:43:54Z</time>
      </trkpt>
      <trkpt lat="42.42222" lon="2.72055">
        <ele>1375</ele>
        <time>2024-09-21T09:43:58Z</time>
      </trkpt>
      <trkpt lat="42.42224" lon="2.72059">
        <ele>1374</ele>
        <time>2024-09-21T09:44:01Z</time>
      </trkpt>
      <trkpt lat="42.42224" lon="2.72063">
        <ele>1373</ele>
        <time>2024-09-21T09:44:05Z</time>
      </trkpt>
      <trkpt lat="42.42226" lon="2.72067">
        <ele>1373</ele>
        <time>2024-09-21T09:44:09Z</time>
      </trkpt>
      <trkpt lat="42.42228" lon="2.72071">
        <ele>1373</ele>
        <time>2024-09-21T09:44:13Z</time>
      </trkpt>
      <trkpt lat="42.42229" lon="2.72075">
        <ele>1373</ele>
        <time>2024-09-21T09:44:16Z</time>
      </trkpt>
      <trkpt lat="42.42231" lon="2.72078">
        <ele>1374</ele>
        <time>2024-09-21T09:44:19Z</time>
      </trkpt>
      <trkpt lat="42.42232" lon="2.72081">
        <ele>1375</ele>
        <time>2024-09-21T09:44:22Z</time>
      </trkpt>
      <trkpt lat="42.42234" lon="2.72085">
        <ele>1375</ele>
        <time>2024-09-21T09:44:24Z</time>
      </trkpt>
      <trkpt lat="42.42235" lon="2.72088">
        <ele>1375</ele>
        <time>2024-09-21T09:44:27Z</time>
      </trkpt>
      <trkpt lat="42.42236" lon="2.72092">
        <ele>1375</ele>
        <time>2024-09-21T09:44:30Z</time>
      </trkpt>
      <trkpt lat="42.42237" lon="2.72095">
        <ele>1374</ele>
        <time>2024-09-21T09:44:34Z</time>
      </trkpt>
      <trkpt lat="42.42238" lon="2.721">
        <ele>1374</ele>
        <time>2024-09-21T09:44:37Z</time>
      </trkpt>
      <trkpt lat="42.42237" lon="2.72104">
        <ele>1374</ele>
        <time>2024-09-21T09:44:40Z</time>
      </trkpt>
      <trkpt lat="42.42237" lon="2.72108">
        <ele>1374</ele>
        <time>2024-09-21T09:44:48Z</time>
      </trkpt>
      <trkpt lat="42.42237" lon="2.72112">
        <ele>1375</ele>
        <time>2024-09-21T09:44:51Z</time>
      </trkpt>
      <trkpt lat="42.42238" lon="2.72116">
        <ele>1375</ele>
        <time>2024-09-21T09:44:54Z</time>
      </trkpt>
      <trkpt lat="42.4224" lon="2.7212">
        <ele>1376</ele>
        <time>2024-09-21T09:44:57Z</time>
      </trkpt>
      <trkpt lat="42.42242" lon="2.72123">
        <ele>1377</ele>
        <time>2024-09-21T09:45:00Z</time>
      </trkpt>
      <trkpt lat="42.42244" lon="2.72125">
        <ele>1376</ele>
        <time>2024-09-21T09:45:09Z</time>
      </trkpt>
      <trkpt lat="42.42247" lon="2.72127">
        <ele>1375</ele>
        <time>2024-09-21T09:45:11Z</time>
      </trkpt>
      <trkpt lat="42.4225" lon="2.72128">
        <ele>1374</ele>
        <time>2024-09-21T09:45:14Z</time>
      </trkpt>
      <trkpt lat="42.42254" lon="2.72129">
        <ele>1374</ele>
        <time>2024-09-21T09:45:17Z</time>
      </trkpt>
      <trkpt lat="42.42256" lon="2.7213">
        <ele>1375</ele>
        <time>2024-09-21T09:45:20Z</time>
      </trkpt>
      <trkpt lat="42.42259" lon="2.72131">
        <ele>1374</ele>
        <time>2024-09-21T09:45:23Z</time>
      </trkpt>
      <trkpt lat="42.42259" lon="2.72134">
        <ele>1375</ele>
        <time>2024-09-21T09:45:24Z</time>
      </trkpt>
      <trkpt lat="42.42261" lon="2.72137">
        <ele>1373</ele>
        <time>2024-09-21T09:45:27Z</time>
      </trkpt>
      <trkpt lat="42.42263" lon="2.72139">
        <ele>1374</ele>
        <time>2024-09-21T09:45:36Z</time>
      </trkpt>
      <trkpt lat="42.42263" lon="2.72142">
        <ele>1373</ele>
        <time>2024-09-21T09:45:39Z</time>
      </trkpt>
      <trkpt lat="42.42264" lon="2.72142">
        <ele>1373</ele>
        <time>2024-09-21T09:45:45Z</time>
      </trkpt>
      <trkpt lat="42.42264" lon="2.72144">
        <ele>1373</ele>
        <time>2024-09-21T09:45:48Z</time>
      </trkpt>
      <trkpt lat="42.42265" lon="2.72143">
        <ele>1372</ele>
        <time>2024-09-21T09:45:54Z</time>
      </trkpt>
      <trkpt lat="42.42267" lon="2.72144">
        <ele>1370</ele>
        <time>2024-09-21T09:46:01Z</time>
      </trkpt>
      <trkpt lat="42.42266" lon="2.72147">
        <ele>1368</ele>
        <time>2024-09-21T09:46:06Z</time>
      </trkpt>
      <trkpt lat="42.42268" lon="2.7215">
        <ele>1369</ele>
        <time>2024-09-21T09:46:10Z</time>
      </trkpt>
      <trkpt lat="42.42269" lon="2.72155">
        <ele>1371</ele>
        <time>2024-09-21T09:46:17Z</time>
      </trkpt>
      <trkpt lat="42.42268" lon="2.72158">
        <ele>1372</ele>
        <time>2024-09-21T09:46:18Z</time>
      </trkpt>
      <trkpt lat="42.42269" lon="2.72162">
        <ele>1369</ele>
        <time>2024-09-21T09:46:21Z</time>
      </trkpt>
      <trkpt lat="42.4227" lon="2.72165">
        <ele>1370</ele>
        <time>2024-09-21T09:46:23Z</time>
      </trkpt>
      <trkpt lat="42.42271" lon="2.72169">
        <ele>1369</ele>
        <time>2024-09-21T09:46:25Z</time>
      </trkpt>
      <trkpt lat="42.42274" lon="2.7217">
        <ele>1370</ele>
        <time>2024-09-21T09:46:27Z</time>
      </trkpt>
      <trkpt lat="42.42276" lon="2.72171">
        <ele>1370</ele>
        <time>2024-09-21T09:46:28Z</time>
      </trkpt>
      <trkpt lat="42.42279" lon="2.72172">
        <ele>1370</ele>
        <time>2024-09-21T09:46:32Z</time>
      </trkpt>
      <trkpt lat="42.42281" lon="2.72176">
        <ele>1371</ele>
        <time>2024-09-21T09:46:34Z</time>
      </trkpt>
      <trkpt lat="42.42283" lon="2.72179">
        <ele>1370</ele>
        <time>2024-09-21T09:46:37Z</time>
      </trkpt>
      <trkpt lat="42.42284" lon="2.72183">
        <ele>1370</ele>
        <time>2024-09-21T09:46:40Z</time>
      </trkpt>
      <trkpt lat="42.42287" lon="2.72187">
        <ele>1371</ele>
        <time>2024-09-21T09:46:45Z</time>
      </trkpt>
      <trkpt lat="42.4229" lon="2.72189">
        <ele>1371</ele>
        <time>2024-09-21T09:46:47Z</time>
      </trkpt>
      <trkpt lat="42.42292" lon="2.72191">
        <ele>1371</ele>
        <time>2024-09-21T09:46:49Z</time>
      </trkpt>
      <trkpt lat="42.42294" lon="2.72195">
        <ele>1367</ele>
        <time>2024-09-21T09:46:53Z</time>
      </trkpt>
      <trkpt lat="42.42296" lon="2.72196">
        <ele>1367</ele>
        <time>2024-09-21T09:46:55Z</time>
      </trkpt>
      <trkpt lat="42.42298" lon="2.72199">
        <ele>1366</ele>
        <time>2024-09-21T09:46:57Z</time>
      </trkpt>
      <trkpt lat="42.423" lon="2.72203">
        <ele>1365</ele>
        <time>2024-09-21T09:46:59Z</time>
      </trkpt>
      <trkpt lat="42.42301" lon="2.72206">
        <ele>1366</ele>
        <time>2024-09-21T09:47:02Z</time>
      </trkpt>
      <trkpt lat="42.42303" lon="2.7221">
        <ele>1366</ele>
        <time>2024-09-21T09:47:05Z</time>
      </trkpt>
      <trkpt lat="42.42306" lon="2.72213">
        <ele>1366</ele>
        <time>2024-09-21T09:47:07Z</time>
      </trkpt>
      <trkpt lat="42.42308" lon="2.72216">
        <ele>1367</ele>
        <time>2024-09-21T09:47:11Z</time>
      </trkpt>
      <trkpt lat="42.4231" lon="2.72218">
        <ele>1364</ele>
        <time>2024-09-21T09:47:13Z</time>
      </trkpt>
      <trkpt lat="42.42313" lon="2.72221">
        <ele>1366</ele>
        <time>2024-09-21T09:47:15Z</time>
      </trkpt>
      <trkpt lat="42.42316" lon="2.72224">
        <ele>1365</ele>
        <time>2024-09-21T09:47:19Z</time>
      </trkpt>
      <trkpt lat="42.42319" lon="2.72227">
        <ele>1366</ele>
        <time>2024-09-21T09:47:24Z</time>
      </trkpt>
      <trkpt lat="42.42321" lon="2.7223">
        <ele>1365</ele>
        <time>2024-09-21T09:47:27Z</time>
      </trkpt>
      <trkpt lat="42.42324" lon="2.72233">
        <ele>1364</ele>
        <time>2024-09-21T09:47:29Z</time>
      </trkpt>
      <trkpt lat="42.42327" lon="2.72236">
        <ele>1362</ele>
        <time>2024-09-21T09:47:32Z</time>
      </trkpt>
      <trkpt lat="42.42328" lon="2.72239">
        <ele>1361</ele>
        <time>2024-09-21T09:47:33Z</time>
      </trkpt>
      <trkpt lat="42.42327" lon="2.72243">
        <ele>1362</ele>
        <time>2024-09-21T09:47:36Z</time>
      </trkpt>
      <trkpt lat="42.42328" lon="2.72247">
        <ele>1358</ele>
        <time>2024-09-21T09:47:39Z</time>
      </trkpt>
      <trkpt lat="42.4233" lon="2.72251">
        <ele>1359</ele>
        <time>2024-09-21T09:47:42Z</time>
      </trkpt>
      <trkpt lat="42.42331" lon="2.72255">
        <ele>1360</ele>
        <time>2024-09-21T09:47:46Z</time>
      </trkpt>
      <trkpt lat="42.42332" lon="2.72259">
        <ele>1359</ele>
        <time>2024-09-21T09:47:50Z</time>
      </trkpt>
      <trkpt lat="42.42334" lon="2.72261">
        <ele>1358</ele>
        <time>2024-09-21T09:47:51Z</time>
      </trkpt>
      <trkpt lat="42.42337" lon="2.72264">
        <ele>1358</ele>
        <time>2024-09-21T09:47:53Z</time>
      </trkpt>
      <trkpt lat="42.42339" lon="2.72267">
        <ele>1358</ele>
        <time>2024-09-21T09:47:56Z</time>
      </trkpt>
      <trkpt lat="42.42342" lon="2.7227">
        <ele>1357</ele>
        <time>2024-09-21T09:48:00Z</time>
      </trkpt>
      <trkpt lat="42.42343" lon="2.72274">
        <ele>1357</ele>
        <time>2024-09-21T09:48:03Z</time>
      </trkpt>
      <trkpt lat="42.42344" lon="2.72279">
        <ele>1356</ele>
        <time>2024-09-21T09:48:06Z</time>
      </trkpt>
      <trkpt lat="42.42346" lon="2.7228">
        <ele>1356</ele>
        <time>2024-09-21T09:48:09Z</time>
      </trkpt>
      <trkpt lat="42.42348" lon="2.72283">
        <ele>1355</ele>
        <time>2024-09-21T09:48:11Z</time>
      </trkpt>
      <trkpt lat="42.42351" lon="2.72287">
        <ele>1356</ele>
        <time>2024-09-21T09:48:13Z</time>
      </trkpt>
      <trkpt lat="42.42353" lon="2.72292">
        <ele>1354</ele>
        <time>2024-09-21T09:48:16Z</time>
      </trkpt>
      <trkpt lat="42.42353" lon="2.72296">
        <ele>1356</ele>
        <time>2024-09-21T09:48:18Z</time>
      </trkpt>
      <trkpt lat="42.42354" lon="2.723">
        <ele>1356</ele>
        <time>2024-09-21T09:48:20Z</time>
      </trkpt>
      <trkpt lat="42.42355" lon="2.72304">
        <ele>1356</ele>
        <time>2024-09-21T09:48:22Z</time>
      </trkpt>
      <trkpt lat="42.42358" lon="2.72307">
        <ele>1356</ele>
        <time>2024-09-21T09:48:26Z</time>
      </trkpt>
      <trkpt lat="42.42359" lon="2.72311">
        <ele>1355</ele>
        <time>2024-09-21T09:48:32Z</time>
      </trkpt>
      <trkpt lat="42.4236" lon="2.72315">
        <ele>1356</ele>
        <time>2024-09-21T09:48:34Z</time>
      </trkpt>
      <trkpt lat="42.42362" lon="2.72318">
        <ele>1356</ele>
        <time>2024-09-21T09:48:35Z</time>
      </trkpt>
      <trkpt lat="42.42364" lon="2.72321">
        <ele>1356</ele>
        <time>2024-09-21T09:48:38Z</time>
      </trkpt>
      <trkpt lat="42.42366" lon="2.72323">
        <ele>1359</ele>
        <time>2024-09-21T09:48:44Z</time>
      </trkpt>
      <trkpt lat="42.4237" lon="2.72324">
        <ele>1358</ele>
        <time>2024-09-21T09:48:45Z</time>
      </trkpt>
      <trkpt lat="42.42373" lon="2.72324">
        <ele>1358</ele>
        <time>2024-09-21T09:48:46Z</time>
      </trkpt>
      <trkpt lat="42.42375" lon="2.72326">
        <ele>1360</ele>
        <time>2024-09-21T09:48:49Z</time>
      </trkpt>
      <trkpt lat="42.42378" lon="2.72327">
        <ele>1359</ele>
        <time>2024-09-21T09:48:53Z</time>
      </trkpt>
      <trkpt lat="42.42382" lon="2.72329">
        <ele>1361</ele>
        <time>2024-09-21T09:48:56Z</time>
      </trkpt>
      <trkpt lat="42.42385" lon="2.72331">
        <ele>1360</ele>
        <time>2024-09-21T09:48:59Z</time>
      </trkpt>
      <trkpt lat="42.42388" lon="2.72333">
        <ele>1359</ele>
        <time>2024-09-21T09:49:02Z</time>
      </trkpt>
      <trkpt lat="42.42391" lon="2.72335">
        <ele>1359</ele>
        <time>2024-09-21T09:49:06Z</time>
      </trkpt>
      <trkpt lat="42.42395" lon="2.72336">
        <ele>1360</ele>
        <time>2024-09-21T09:49:10Z</time>
      </trkpt>
      <trkpt lat="42.42398" lon="2.72335">
        <ele>1360</ele>
        <time>2024-09-21T09:49:15Z</time>
      </trkpt>
      <trkpt lat="42.42401" lon="2.72337">
        <ele>1359</ele>
        <time>2024-09-21T09:49:19Z</time>
      </trkpt>
      <trkpt lat="42.42403" lon="2.72338">
        <ele>1360</ele>
        <time>2024-09-21T09:49:20Z</time>
      </trkpt>
      <trkpt lat="42.42406" lon="2.7234">
        <ele>1360</ele>
        <time>2024-09-21T09:49:25Z</time>
      </trkpt>
      <trkpt lat="42.42408" lon="2.72343">
        <ele>1359</ele>
        <time>2024-09-21T09:49:27Z</time>
      </trkpt>
      <trkpt lat="42.4241" lon="2.72347">
        <ele>1359</ele>
        <time>2024-09-21T09:49:31Z</time>
      </trkpt>
      <trkpt lat="42.42412" lon="2.7235">
        <ele>1359</ele>
        <time>2024-09-21T09:49:35Z</time>
      </trkpt>
      <trkpt lat="42.42415" lon="2.72352">
        <ele>1358</ele>
        <time>2024-09-21T09:49:39Z</time>
      </trkpt>
      <trkpt lat="42.42417" lon="2.72356">
        <ele>1358</ele>
        <time>2024-09-21T09:49:41Z</time>
      </trkpt>
      <trkpt lat="42.42419" lon="2.72359">
        <ele>1356</ele>
        <time>2024-09-21T09:49:45Z</time>
      </trkpt>
      <trkpt lat="42.42422" lon="2.72363">
        <ele>1356</ele>
        <time>2024-09-21T09:49:48Z</time>
      </trkpt>
      <trkpt lat="42.42425" lon="2.72365">
        <ele>1357</ele>
        <time>2024-09-21T09:49:50Z</time>
      </trkpt>
      <trkpt lat="42.42428" lon="2.72367">
        <ele>1355</ele>
        <time>2024-09-21T09:49:53Z</time>
      </trkpt>
      <trkpt lat="42.4243" lon="2.7237">
        <ele>1354</ele>
        <time>2024-09-21T09:49:56Z</time>
      </trkpt>
      <trkpt lat="42.42433" lon="2.72372">
        <ele>1354</ele>
        <time>2024-09-21T09:49:58Z</time>
      </trkpt>
      <trkpt lat="42.42436" lon="2.72373">
        <ele>1354</ele>
        <time>2024-09-21T09:50:01Z</time>
      </trkpt>
      <trkpt lat="42.42438" lon="2.72376">
        <ele>1353</ele>
        <time>2024-09-21T09:50:03Z</time>
      </trkpt>
      <trkpt lat="42.4244" lon="2.72379">
        <ele>1354</ele>
        <time>2024-09-21T09:50:06Z</time>
      </trkpt>
      <trkpt lat="42.42443" lon="2.72382">
        <ele>1353</ele>
        <time>2024-09-21T09:50:09Z</time>
      </trkpt>
      <trkpt lat="42.42444" lon="2.72385">
        <ele>1353</ele>
        <time>2024-09-21T09:50:11Z</time>
      </trkpt>
      <trkpt lat="42.42447" lon="2.72387">
        <ele>1352</ele>
        <time>2024-09-21T09:50:15Z</time>
      </trkpt>
      <trkpt lat="42.4245" lon="2.72387">
        <ele>1351</ele>
        <time>2024-09-21T09:50:17Z</time>
      </trkpt>
      <trkpt lat="42.42453" lon="2.72387">
        <ele>1351</ele>
        <time>2024-09-21T09:50:19Z</time>
      </trkpt>
      <trkpt lat="42.42456" lon="2.72385">
        <ele>1350</ele>
        <time>2024-09-21T09:50:23Z</time>
      </trkpt>
      <trkpt lat="42.42459" lon="2.72384">
        <ele>1349</ele>
        <time>2024-09-21T09:50:27Z</time>
      </trkpt>
      <trkpt lat="42.42462" lon="2.72383">
        <ele>1348</ele>
        <time>2024-09-21T09:50:30Z</time>
      </trkpt>
      <trkpt lat="42.42465" lon="2.72382">
        <ele>1347</ele>
        <time>2024-09-21T09:50:33Z</time>
      </trkpt>
      <trkpt lat="42.42466" lon="2.72379">
        <ele>1345</ele>
        <time>2024-09-21T09:50:38Z</time>
      </trkpt>
      <trkpt lat="42.42467" lon="2.72375">
        <ele>1340</ele>
        <time>2024-09-21T09:51:11Z</time>
      </trkpt>
      <trkpt lat="42.42467" lon="2.72371">
        <ele>1340</ele>
        <time>2024-09-21T09:51:16Z</time>
      </trkpt>
      <trkpt lat="42.42469" lon="2.72367">
        <ele>1340</ele>
        <time>2024-09-21T09:51:18Z</time>
      </trkpt>
      <trkpt lat="42.42471" lon="2.72366">
        <ele>1340</ele>
        <time>2024-09-21T09:51:21Z</time>
      </trkpt>
      <trkpt lat="42.42474" lon="2.72364">
        <ele>1342</ele>
        <time>2024-09-21T09:51:24Z</time>
      </trkpt>
      <trkpt lat="42.42477" lon="2.72365">
        <ele>1343</ele>
        <time>2024-09-21T09:51:29Z</time>
      </trkpt>
      <trkpt lat="42.42481" lon="2.72365">
        <ele>1340</ele>
        <time>2024-09-21T09:51:33Z</time>
      </trkpt>
      <trkpt lat="42.42484" lon="2.72364">
        <ele>1340</ele>
        <time>2024-09-21T09:51:35Z</time>
      </trkpt>
      <trkpt lat="42.42486" lon="2.72362">
        <ele>1339</ele>
        <time>2024-09-21T09:51:39Z</time>
      </trkpt>
      <trkpt lat="42.42489" lon="2.72361">
        <ele>1339</ele>
        <time>2024-09-21T09:51:41Z</time>
      </trkpt>
      <trkpt lat="42.42492" lon="2.72359">
        <ele>1338</ele>
        <time>2024-09-21T09:51:46Z</time>
      </trkpt>
      <trkpt lat="42.42495" lon="2.72356">
        <ele>1337</ele>
        <time>2024-09-21T09:51:48Z</time>
      </trkpt>
      <trkpt lat="42.42498" lon="2.72353">
        <ele>1335</ele>
        <time>2024-09-21T09:51:53Z</time>
      </trkpt>
      <trkpt lat="42.42501" lon="2.72352">
        <ele>1335</ele>
        <time>2024-09-21T09:51:56Z</time>
      </trkpt>
      <trkpt lat="42.42503" lon="2.72351">
        <ele>1334</ele>
        <time>2024-09-21T09:51:59Z</time>
      </trkpt>
      <trkpt lat="42.42506" lon="2.72351">
        <ele>1332</ele>
        <time>2024-09-21T09:52:03Z</time>
      </trkpt>
      <trkpt lat="42.42509" lon="2.72352">
        <ele>1332</ele>
        <time>2024-09-21T09:52:05Z</time>
      </trkpt>
      <trkpt lat="42.42512" lon="2.72352">
        <ele>1333</ele>
        <time>2024-09-21T09:52:08Z</time>
      </trkpt>
      <trkpt lat="42.42517" lon="2.72353">
        <ele>1331</ele>
        <time>2024-09-21T09:52:12Z</time>
      </trkpt>
      <trkpt lat="42.42521" lon="2.72356">
        <ele>1331</ele>
        <time>2024-09-21T09:52:15Z</time>
      </trkpt>
      <trkpt lat="42.42523" lon="2.7236">
        <ele>1331</ele>
        <time>2024-09-21T09:52:19Z</time>
      </trkpt>
      <trkpt lat="42.42525" lon="2.72361">
        <ele>1329</ele>
        <time>2024-09-21T09:52:23Z</time>
      </trkpt>
      <trkpt lat="42.42524" lon="2.72361">
        <ele>1329</ele>
        <time>2024-09-21T09:52:30Z</time>
      </trkpt>
      <trkpt lat="42.42523" lon="2.72363">
        <ele>1328</ele>
        <time>2024-09-21T09:52:32Z</time>
      </trkpt>
      <trkpt lat="42.42521" lon="2.72366">
        <ele>1328</ele>
        <time>2024-09-21T09:52:34Z</time>
      </trkpt>
      <trkpt lat="42.42518" lon="2.72368">
        <ele>1332</ele>
        <time>2024-09-21T09:52:46Z</time>
      </trkpt>
      <trkpt lat="42.42517" lon="2.72372">
        <ele>1330</ele>
        <time>2024-09-21T09:52:50Z</time>
      </trkpt>
      <trkpt lat="42.42515" lon="2.72375">
        <ele>1331</ele>
        <time>2024-09-21T09:52:51Z</time>
      </trkpt>
      <trkpt lat="42.42513" lon="2.72379">
        <ele>1332</ele>
        <time>2024-09-21T09:52:57Z</time>
      </trkpt>
      <trkpt lat="42.4251" lon="2.72382">
        <ele>1331</ele>
        <time>2024-09-21T09:53:01Z</time>
      </trkpt>
      <trkpt lat="42.42508" lon="2.72384">
        <ele>1330</ele>
        <time>2024-09-21T09:53:03Z</time>
      </trkpt>
      <trkpt lat="42.42506" lon="2.72387">
        <ele>1331</ele>
        <time>2024-09-21T09:53:05Z</time>
      </trkpt>
      <trkpt lat="42.42503" lon="2.7239">
        <ele>1330</ele>
        <time>2024-09-21T09:53:10Z</time>
      </trkpt>
      <trkpt lat="42.42501" lon="2.72393">
        <ele>1330</ele>
        <time>2024-09-21T09:53:13Z</time>
      </trkpt>
      <trkpt lat="42.42498" lon="2.72394">
        <ele>1331</ele>
        <time>2024-09-21T09:53:16Z</time>
      </trkpt>
      <trkpt lat="42.42495" lon="2.72396">
        <ele>1331</ele>
        <time>2024-09-21T09:53:21Z</time>
      </trkpt>
      <trkpt lat="42.42493" lon="2.72399">
        <ele>1332</ele>
        <time>2024-09-21T09:53:23Z</time>
      </trkpt>
      <trkpt lat="42.4249" lon="2.724">
        <ele>1332</ele>
        <time>2024-09-21T09:53:26Z</time>
      </trkpt>
      <trkpt lat="42.42488" lon="2.72403">
        <ele>1332</ele>
        <time>2024-09-21T09:53:29Z</time>
      </trkpt>
      <trkpt lat="42.42486" lon="2.72406">
        <ele>1333</ele>
        <time>2024-09-21T09:53:32Z</time>
      </trkpt>
      <trkpt lat="42.42483" lon="2.72409">
        <ele>1333</ele>
        <time>2024-09-21T09:53:35Z</time>
      </trkpt>
      <trkpt lat="42.42479" lon="2.72412">
        <ele>1333</ele>
        <time>2024-09-21T09:53:37Z</time>
      </trkpt>
      <trkpt lat="42.42478" lon="2.72416">
        <ele>1334</ele>
        <time>2024-09-21T09:53:40Z</time>
      </trkpt>
      <trkpt lat="42.42477" lon="2.7242">
        <ele>1335</ele>
        <time>2024-09-21T09:53:42Z</time>
      </trkpt>
      <trkpt lat="42.42477" lon="2.72419">
        <ele>1335</ele>
        <time>2024-09-21T09:53:46Z</time>
      </trkpt>
      <trkpt lat="42.42476" lon="2.7242">
        <ele>1334</ele>
        <time>2024-09-21T09:53:53Z</time>
      </trkpt>
      <trkpt lat="42.42473" lon="2.72422">
        <ele>1332</ele>
        <time>2024-09-21T09:53:59Z</time>
      </trkpt>
      <trkpt lat="42.42471" lon="2.72424">
        <ele>1333</ele>
        <time>2024-09-21T09:54:02Z</time>
      </trkpt>
      <trkpt lat="42.42468" lon="2.72428">
        <ele>1334</ele>
        <time>2024-09-21T09:54:04Z</time>
      </trkpt>
      <trkpt lat="42.42465" lon="2.72431">
        <ele>1333</ele>
        <time>2024-09-21T09:54:05Z</time>
      </trkpt>
      <trkpt lat="42.42463" lon="2.72432">
        <ele>1332</ele>
        <time>2024-09-21T09:54:08Z</time>
      </trkpt>
      <trkpt lat="42.4246" lon="2.72433">
        <ele>1333</ele>
        <time>2024-09-21T09:54:12Z</time>
      </trkpt>
      <trkpt lat="42.42458" lon="2.72434">
        <ele>1334</ele>
        <time>2024-09-21T09:54:13Z</time>
      </trkpt>
      <trkpt lat="42.42455" lon="2.72436">
        <ele>1333</ele>
        <time>2024-09-21T09:54:17Z</time>
      </trkpt>
      <trkpt lat="42.42453" lon="2.72438">
        <ele>1333</ele>
        <time>2024-09-21T09:54:19Z</time>
      </trkpt>
      <trkpt lat="42.42451" lon="2.72441">
        <ele>1334</ele>
        <time>2024-09-21T09:54:22Z</time>
      </trkpt>
      <trkpt lat="42.4245" lon="2.72445">
        <ele>1333</ele>
        <time>2024-09-21T09:54:26Z</time>
      </trkpt>
      <trkpt lat="42.42447" lon="2.72447">
        <ele>1332</ele>
        <time>2024-09-21T09:54:32Z</time>
      </trkpt>
      <trkpt lat="42.42444" lon="2.72447">
        <ele>1332</ele>
        <time>2024-09-21T09:54:36Z</time>
      </trkpt>
      <trkpt lat="42.42442" lon="2.72449">
        <ele>1333</ele>
        <time>2024-09-21T09:54:38Z</time>
      </trkpt>
      <trkpt lat="42.4244" lon="2.72454">
        <ele>1334</ele>
        <time>2024-09-21T09:54:42Z</time>
      </trkpt>
      <trkpt lat="42.42439" lon="2.72458">
        <ele>1335</ele>
        <time>2024-09-21T09:54:44Z</time>
      </trkpt>
      <trkpt lat="42.4244" lon="2.72461">
        <ele>1334</ele>
        <time>2024-09-21T09:54:57Z</time>
      </trkpt>
      <trkpt lat="42.42439" lon="2.72461">
        <ele>1333</ele>
        <time>2024-09-21T09:55:00Z</time>
      </trkpt>
      <trkpt lat="42.42437" lon="2.7246">
        <ele>1334</ele>
        <time>2024-09-21T09:55:04Z</time>
      </trkpt>
      <trkpt lat="42.42434" lon="2.7246">
        <ele>1333</ele>
        <time>2024-09-21T09:55:08Z</time>
      </trkpt>
      <trkpt lat="42.42431" lon="2.72462">
        <ele>1332</ele>
        <time>2024-09-21T09:55:12Z</time>
      </trkpt>
      <trkpt lat="42.42428" lon="2.72464">
        <ele>1336</ele>
        <time>2024-09-21T09:55:49Z</time>
      </trkpt>
      <trkpt lat="42.42424" lon="2.72467">
        <ele>1336</ele>
        <time>2024-09-21T09:55:50Z</time>
      </trkpt>
      <trkpt lat="42.42422" lon="2.7247">
        <ele>1334</ele>
        <time>2024-09-21T09:55:53Z</time>
      </trkpt>
      <trkpt lat="42.4242" lon="2.72473">
        <ele>1335</ele>
        <time>2024-09-21T09:55:54Z</time>
      </trkpt>
      <trkpt lat="42.42416" lon="2.72475">
        <ele>1334</ele>
        <time>2024-09-21T09:55:55Z</time>
      </trkpt>
      <trkpt lat="42.42416" lon="2.72478">
        <ele>1334</ele>
        <time>2024-09-21T09:55:59Z</time>
      </trkpt>
      <trkpt lat="42.42417" lon="2.72482">
        <ele>1334</ele>
        <time>2024-09-21T09:56:01Z</time>
      </trkpt>
      <trkpt lat="42.42417" lon="2.72486">
        <ele>1334</ele>
        <time>2024-09-21T09:56:03Z</time>
      </trkpt>
      <trkpt lat="42.42416" lon="2.72491">
        <ele>1335</ele>
        <time>2024-09-21T09:56:06Z</time>
      </trkpt>
      <trkpt lat="42.42414" lon="2.72497">
        <ele>1335</ele>
        <time>2024-09-21T09:56:08Z</time>
      </trkpt>
      <trkpt lat="42.42414" lon="2.72502">
        <ele>1336</ele>
        <time>2024-09-21T09:56:12Z</time>
      </trkpt>
      <trkpt lat="42.42416" lon="2.72505">
        <ele>1337</ele>
        <time>2024-09-21T09:56:14Z</time>
      </trkpt>
      <trkpt lat="42.42418" lon="2.72508">
        <ele>1337</ele>
        <time>2024-09-21T09:56:18Z</time>
      </trkpt>
      <trkpt lat="42.42419" lon="2.72512">
        <ele>1334</ele>
        <time>2024-09-21T09:56:22Z</time>
      </trkpt>
      <trkpt lat="42.42419" lon="2.72516">
        <ele>1336</ele>
        <time>2024-09-21T09:56:26Z</time>
      </trkpt>
      <trkpt lat="42.42418" lon="2.72519">
        <ele>1337</ele>
        <time>2024-09-21T09:56:30Z</time>
      </trkpt>
      <trkpt lat="42.42418" lon="2.72523">
        <ele>1337</ele>
        <time>2024-09-21T09:56:32Z</time>
      </trkpt>
      <trkpt lat="42.42417" lon="2.72526">
        <ele>1339</ele>
        <time>2024-09-21T09:56:35Z</time>
      </trkpt>
      <trkpt lat="42.42416" lon="2.7253">
        <ele>1338</ele>
        <time>2024-09-21T09:56:39Z</time>
      </trkpt>
      <trkpt lat="42.42416" lon="2.72534">
        <ele>1339</ele>
        <time>2024-09-21T09:56:41Z</time>
      </trkpt>
      <trkpt lat="42.42415" lon="2.72538">
        <ele>1339</ele>
        <time>2024-09-21T09:56:44Z</time>
      </trkpt>
      <trkpt lat="42.42413" lon="2.72541">
        <ele>1339</ele>
        <time>2024-09-21T09:56:47Z</time>
      </trkpt>
      <trkpt lat="42.42412" lon="2.72545">
        <ele>1340</ele>
        <time>2024-09-21T09:56:51Z</time>
      </trkpt>
      <trkpt lat="42.4241" lon="2.7255">
        <ele>1339</ele>
        <time>2024-09-21T09:56:54Z</time>
      </trkpt>
      <trkpt lat="42.42408" lon="2.72554">
        <ele>1340</ele>
        <time>2024-09-21T09:56:55Z</time>
      </trkpt>
      <trkpt lat="42.42409" lon="2.72557">
        <ele>1341</ele>
        <time>2024-09-21T09:57:00Z</time>
      </trkpt>
      <trkpt lat="42.42408" lon="2.7256">
        <ele>1342</ele>
        <time>2024-09-21T09:57:02Z</time>
      </trkpt>
      <trkpt lat="42.42408" lon="2.72565">
        <ele>1341</ele>
        <time>2024-09-21T09:57:07Z</time>
      </trkpt>
      <trkpt lat="42.42408" lon="2.72569">
        <ele>1340</ele>
        <time>2024-09-21T09:57:10Z</time>
      </trkpt>
      <trkpt lat="42.42408" lon="2.72573">
        <ele>1341</ele>
        <time>2024-09-21T09:57:12Z</time>
      </trkpt>
      <trkpt lat="42.42408" lon="2.72577">
        <ele>1342</ele>
        <time>2024-09-21T09:57:14Z</time>
      </trkpt>
      <trkpt lat="42.42409" lon="2.72582">
        <ele>1342</ele>
        <time>2024-09-21T09:57:19Z</time>
      </trkpt>
      <trkpt lat="42.4241" lon="2.72586">
        <ele>1342</ele>
        <time>2024-09-21T09:57:22Z</time>
      </trkpt>
      <trkpt lat="42.42409" lon="2.7259">
        <ele>1343</ele>
        <time>2024-09-21T09:57:24Z</time>
      </trkpt>
      <trkpt lat="42.42409" lon="2.72595">
        <ele>1343</ele>
        <time>2024-09-21T09:57:29Z</time>
      </trkpt>
      <trkpt lat="42.42411" lon="2.72599">
        <ele>1343</ele>
        <time>2024-09-21T09:57:34Z</time>
      </trkpt>
      <trkpt lat="42.42412" lon="2.72603">
        <ele>1343</ele>
        <time>2024-09-21T09:57:36Z</time>
      </trkpt>
      <trkpt lat="42.42413" lon="2.72607">
        <ele>1345</ele>
        <time>2024-09-21T09:57:40Z</time>
      </trkpt>
      <trkpt lat="42.42414" lon="2.72612">
        <ele>1345</ele>
        <time>2024-09-21T09:57:42Z</time>
      </trkpt>
      <trkpt lat="42.42414" lon="2.72617">
        <ele>1346</ele>
        <time>2024-09-21T09:57:44Z</time>
      </trkpt>
      <trkpt lat="42.42416" lon="2.72622">
        <ele>1346</ele>
        <time>2024-09-21T09:57:49Z</time>
      </trkpt>
      <trkpt lat="42.42417" lon="2.72626">
        <ele>1347</ele>
        <time>2024-09-21T09:57:52Z</time>
      </trkpt>
      <trkpt lat="42.42418" lon="2.72631">
        <ele>1347</ele>
        <time>2024-09-21T09:57:55Z</time>
      </trkpt>
      <trkpt lat="42.42418" lon="2.72637">
        <ele>1347</ele>
        <time>2024-09-21T09:57:59Z</time>
      </trkpt>
      <trkpt lat="42.42417" lon="2.72641">
        <ele>1350</ele>
        <time>2024-09-21T09:58:01Z</time>
      </trkpt>
      <trkpt lat="42.42418" lon="2.72645">
        <ele>1347</ele>
        <time>2024-09-21T09:58:07Z</time>
      </trkpt>
      <trkpt lat="42.4242" lon="2.72647">
        <ele>1346</ele>
        <time>2024-09-21T09:58:20Z</time>
      </trkpt>
      <trkpt lat="42.42424" lon="2.72648">
        <ele>1344</ele>
        <time>2024-09-21T09:58:45Z</time>
      </trkpt>
      <trkpt lat="42.42425" lon="2.72651">
        <ele>1345</ele>
        <time>2024-09-21T09:58:47Z</time>
      </trkpt>
      <trkpt lat="42.42425" lon="2.72655">
        <ele>1343</ele>
        <time>2024-09-21T09:58:50Z</time>
      </trkpt>
      <trkpt lat="42.42425" lon="2.72659">
        <ele>1345</ele>
        <time>2024-09-21T09:58:53Z</time>
      </trkpt>
      <trkpt lat="42.42425" lon="2.72663">
        <ele>1345</ele>
        <time>2024-09-21T09:58:55Z</time>
      </trkpt>
      <trkpt lat="42.42422" lon="2.72666">
        <ele>1346</ele>
        <time>2024-09-21T09:59:00Z</time>
      </trkpt>
      <trkpt lat="42.42422" lon="2.7267">
        <ele>1347</ele>
        <time>2024-09-21T09:59:03Z</time>
      </trkpt>
      <trkpt lat="42.4242" lon="2.72674">
        <ele>1346</ele>
        <time>2024-09-21T09:59:10Z</time>
      </trkpt>
      <trkpt lat="42.42421" lon="2.72677">
        <ele>1346</ele>
        <time>2024-09-21T09:59:14Z</time>
      </trkpt>
      <trkpt lat="42.42423" lon="2.7268">
        <ele>1347</ele>
        <time>2024-09-21T09:59:17Z</time>
      </trkpt>
      <trkpt lat="42.42423" lon="2.72684">
        <ele>1348</ele>
        <time>2024-09-21T09:59:20Z</time>
      </trkpt>
      <trkpt lat="42.42424" lon="2.72689">
        <ele>1348</ele>
        <time>2024-09-21T09:59:25Z</time>
      </trkpt>
      <trkpt lat="42.42425" lon="2.72694">
        <ele>1348</ele>
        <time>2024-09-21T09:59:29Z</time>
      </trkpt>
      <trkpt lat="42.42424" lon="2.72697">
        <ele>1347</ele>
        <time>2024-09-21T09:59:39Z</time>
      </trkpt>
      <trkpt lat="42.42424" lon="2.72696">
        <ele>1346</ele>
        <time>2024-09-21T09:59:56Z</time>
      </trkpt>
      <trkpt lat="42.42428" lon="2.72695">
        <ele>1349</ele>
        <time>2024-09-21T10:00:10Z</time>
      </trkpt>
      <trkpt lat="42.42427" lon="2.72697">
        <ele>1347</ele>
        <time>2024-09-21T10:01:59Z</time>
      </trkpt>
      <trkpt lat="42.42426" lon="2.72697">
        <ele>1347</ele>
        <time>2024-09-21T10:02:03Z</time>
      </trkpt>
      <trkpt lat="42.42423" lon="2.72699">
        <ele>1347</ele>
        <time>2024-09-21T10:02:08Z</time>
      </trkpt>
      <trkpt lat="42.42422" lon="2.72703">
        <ele>1348</ele>
        <time>2024-09-21T10:02:11Z</time>
      </trkpt>
      <trkpt lat="42.4242" lon="2.72707">
        <ele>1349</ele>
        <time>2024-09-21T10:02:14Z</time>
      </trkpt>
      <trkpt lat="42.42419" lon="2.7271">
        <ele>1348</ele>
        <time>2024-09-21T10:02:18Z</time>
      </trkpt>
      <trkpt lat="42.42416" lon="2.72715">
        <ele>1349</ele>
        <time>2024-09-21T10:02:19Z</time>
      </trkpt>
      <trkpt lat="42.42417" lon="2.7272">
        <ele>1349</ele>
        <time>2024-09-21T10:02:20Z</time>
      </trkpt>
      <trkpt lat="42.42416" lon="2.72724">
        <ele>1349</ele>
        <time>2024-09-21T10:02:23Z</time>
      </trkpt>
      <trkpt lat="42.42415" lon="2.72728">
        <ele>1349</ele>
        <time>2024-09-21T10:02:26Z</time>
      </trkpt>
      <trkpt lat="42.42416" lon="2.72732">
        <ele>1350</ele>
        <time>2024-09-21T10:02:29Z</time>
      </trkpt>
      <trkpt lat="42.42417" lon="2.72736">
        <ele>1351</ele>
        <time>2024-09-21T10:02:32Z</time>
      </trkpt>
      <trkpt lat="42.42417" lon="2.72741">
        <ele>1351</ele>
        <time>2024-09-21T10:02:36Z</time>
      </trkpt>
      <trkpt lat="42.42419" lon="2.72745">
        <ele>1351</ele>
        <time>2024-09-21T10:02:39Z</time>
      </trkpt>
      <trkpt lat="42.4242" lon="2.72749">
        <ele>1351</ele>
        <time>2024-09-21T10:02:43Z</time>
      </trkpt>
      <trkpt lat="42.42421" lon="2.72754">
        <ele>1352</ele>
        <time>2024-09-21T10:02:46Z</time>
      </trkpt>
      <trkpt lat="42.4242" lon="2.72757">
        <ele>1352</ele>
        <time>2024-09-21T10:02:47Z</time>
      </trkpt>
      <trkpt lat="42.42421" lon="2.72762">
        <ele>1354</ele>
        <time>2024-09-21T10:02:50Z</time>
      </trkpt>
      <trkpt lat="42.42422" lon="2.72766">
        <ele>1353</ele>
        <time>2024-09-21T10:02:52Z</time>
      </trkpt>
      <trkpt lat="42.42424" lon="2.7277">
        <ele>1353</ele>
        <time>2024-09-21T10:02:55Z</time>
      </trkpt>
      <trkpt lat="42.42424" lon="2.72774">
        <ele>1352</ele>
        <time>2024-09-21T10:02:57Z</time>
      </trkpt>
      <trkpt lat="42.42425" lon="2.72778">
        <ele>1353</ele>
        <time>2024-09-21T10:02:59Z</time>
      </trkpt>
      <trkpt lat="42.42425" lon="2.72782">
        <ele>1351</ele>
        <time>2024-09-21T10:03:01Z</time>
      </trkpt>
      <trkpt lat="42.42426" lon="2.72787">
        <ele>1350</ele>
        <time>2024-09-21T10:03:04Z</time>
      </trkpt>
      <trkpt lat="42.42427" lon="2.7279">
        <ele>1350</ele>
        <time>2024-09-21T10:03:07Z</time>
      </trkpt>
      <trkpt lat="42.42428" lon="2.72794">
        <ele>1349</ele>
        <time>2024-09-21T10:03:11Z</time>
      </trkpt>
      <trkpt lat="42.42428" lon="2.72797">
        <ele>1349</ele>
        <time>2024-09-21T10:03:13Z</time>
      </trkpt>
      <trkpt lat="42.4243" lon="2.72801">
        <ele>1349</ele>
        <time>2024-09-21T10:03:15Z</time>
      </trkpt>
      <trkpt lat="42.42433" lon="2.72805">
        <ele>1348</ele>
        <time>2024-09-21T10:03:19Z</time>
      </trkpt>
      <trkpt lat="42.42435" lon="2.72808">
        <ele>1348</ele>
        <time>2024-09-21T10:03:21Z</time>
      </trkpt>
      <trkpt lat="42.42436" lon="2.72812">
        <ele>1348</ele>
        <time>2024-09-21T10:03:23Z</time>
      </trkpt>
      <trkpt lat="42.42436" lon="2.72817">
        <ele>1350</ele>
        <time>2024-09-21T10:03:26Z</time>
      </trkpt>
      <trkpt lat="42.42438" lon="2.7282">
        <ele>1350</ele>
        <time>2024-09-21T10:03:28Z</time>
      </trkpt>
      <trkpt lat="42.42439" lon="2.72824">
        <ele>1349</ele>
        <time>2024-09-21T10:03:31Z</time>
      </trkpt>
      <trkpt lat="42.42441" lon="2.72827">
        <ele>1348</ele>
        <time>2024-09-21T10:03:34Z</time>
      </trkpt>
      <trkpt lat="42.42444" lon="2.7283">
        <ele>1349</ele>
        <time>2024-09-21T10:03:36Z</time>
      </trkpt>
      <trkpt lat="42.42444" lon="2.72834">
        <ele>1346</ele>
        <time>2024-09-21T10:03:38Z</time>
      </trkpt>
      <trkpt lat="42.42447" lon="2.72835">
        <ele>1345</ele>
        <time>2024-09-21T10:03:40Z</time>
      </trkpt>
      <trkpt lat="42.4245" lon="2.72836">
        <ele>1346</ele>
        <time>2024-09-21T10:03:42Z</time>
      </trkpt>
      <trkpt lat="42.42453" lon="2.72839">
        <ele>1345</ele>
        <time>2024-09-21T10:03:44Z</time>
      </trkpt>
      <trkpt lat="42.42455" lon="2.72843">
        <ele>1347</ele>
        <time>2024-09-21T10:03:48Z</time>
      </trkpt>
      <trkpt lat="42.42457" lon="2.72846">
        <ele>1343</ele>
        <time>2024-09-21T10:03:50Z</time>
      </trkpt>
      <trkpt lat="42.4246" lon="2.72849">
        <ele>1345</ele>
        <time>2024-09-21T10:03:52Z</time>
      </trkpt>
      <trkpt lat="42.42461" lon="2.72853">
        <ele>1346</ele>
        <time>2024-09-21T10:03:55Z</time>
      </trkpt>
      <trkpt lat="42.42463" lon="2.72855">
        <ele>1346</ele>
        <time>2024-09-21T10:03:58Z</time>
      </trkpt>
      <trkpt lat="42.42465" lon="2.72859">
        <ele>1342</ele>
        <time>2024-09-21T10:04:04Z</time>
      </trkpt>
      <trkpt lat="42.42468" lon="2.72861">
        <ele>1340</ele>
        <time>2024-09-21T10:04:07Z</time>
      </trkpt>
      <trkpt lat="42.42472" lon="2.72864">
        <ele>1340</ele>
        <time>2024-09-21T10:04:10Z</time>
      </trkpt>
      <trkpt lat="42.42474" lon="2.72868">
        <ele>1339</ele>
        <time>2024-09-21T10:04:13Z</time>
      </trkpt>
      <trkpt lat="42.42476" lon="2.72872">
        <ele>1339</ele>
        <time>2024-09-21T10:04:15Z</time>
      </trkpt>
      <trkpt lat="42.42477" lon="2.72876">
        <ele>1338</ele>
        <time>2024-09-21T10:04:21Z</time>
      </trkpt>
      <trkpt lat="42.42479" lon="2.72879">
        <ele>1338</ele>
        <time>2024-09-21T10:04:23Z</time>
      </trkpt>
      <trkpt lat="42.42481" lon="2.72882">
        <ele>1337</ele>
        <time>2024-09-21T10:04:26Z</time>
      </trkpt>
      <trkpt lat="42.42483" lon="2.72885">
        <ele>1337</ele>
        <time>2024-09-21T10:04:28Z</time>
      </trkpt>
      <trkpt lat="42.42485" lon="2.72888">
        <ele>1336</ele>
        <time>2024-09-21T10:04:30Z</time>
      </trkpt>
      <trkpt lat="42.42488" lon="2.72889">
        <ele>1336</ele>
        <time>2024-09-21T10:04:33Z</time>
      </trkpt>
      <trkpt lat="42.42489" lon="2.72892">
        <ele>1335</ele>
        <time>2024-09-21T10:04:37Z</time>
      </trkpt>
      <trkpt lat="42.4249" lon="2.72896">
        <ele>1335</ele>
        <time>2024-09-21T10:04:40Z</time>
      </trkpt>
      <trkpt lat="42.42493" lon="2.72898">
        <ele>1335</ele>
        <time>2024-09-21T10:04:42Z</time>
      </trkpt>
      <trkpt lat="42.42495" lon="2.72896">
        <ele>1333</ele>
        <time>2024-09-21T10:04:44Z</time>
      </trkpt>
      <trkpt lat="42.42497" lon="2.72893">
        <ele>1332</ele>
        <time>2024-09-21T10:04:46Z</time>
      </trkpt>
      <trkpt lat="42.42497" lon="2.72888">
        <ele>1332</ele>
        <time>2024-09-21T10:04:49Z</time>
      </trkpt>
      <trkpt lat="42.42496" lon="2.72884">
        <ele>1330</ele>
        <time>2024-09-21T10:04:52Z</time>
      </trkpt>
      <trkpt lat="42.42495" lon="2.7288">
        <ele>1331</ele>
        <time>2024-09-21T10:04:54Z</time>
      </trkpt>
      <trkpt lat="42.42497" lon="2.72879">
        <ele>1329</ele>
        <time>2024-09-21T10:05:01Z</time>
      </trkpt>
      <trkpt lat="42.42499" lon="2.72877">
        <ele>1328</ele>
        <time>2024-09-21T10:05:03Z</time>
      </trkpt>
      <trkpt lat="42.42502" lon="2.72878">
        <ele>1327</ele>
        <time>2024-09-21T10:05:05Z</time>
      </trkpt>
      <trkpt lat="42.42504" lon="2.72881">
        <ele>1329</ele>
        <time>2024-09-21T10:05:07Z</time>
      </trkpt>
      <trkpt lat="42.42504" lon="2.72885">
        <ele>1327</ele>
        <time>2024-09-21T10:05:10Z</time>
      </trkpt>
      <trkpt lat="42.42504" lon="2.72889">
        <ele>1327</ele>
        <time>2024-09-21T10:05:12Z</time>
      </trkpt>
      <trkpt lat="42.42505" lon="2.72894">
        <ele>1327</ele>
        <time>2024-09-21T10:05:15Z</time>
      </trkpt>
      <trkpt lat="42.42505" lon="2.72899">
        <ele>1326</ele>
        <time>2024-09-21T10:05:17Z</time>
      </trkpt>
      <trkpt lat="42.42506" lon="2.72903">
        <ele>1327</ele>
        <time>2024-09-21T10:05:20Z</time>
      </trkpt>
      <trkpt lat="42.42506" lon="2.72907">
        <ele>1326</ele>
        <time>2024-09-21T10:05:22Z</time>
      </trkpt>
      <trkpt lat="42.42506" lon="2.72911">
        <ele>1325</ele>
        <time>2024-09-21T10:05:26Z</time>
      </trkpt>
      <trkpt lat="42.42506" lon="2.72915">
        <ele>1325</ele>
        <time>2024-09-21T10:05:28Z</time>
      </trkpt>
      <trkpt lat="42.42506" lon="2.72919">
        <ele>1324</ele>
        <time>2024-09-21T10:05:30Z</time>
      </trkpt>
      <trkpt lat="42.42504" lon="2.72922">
        <ele>1325</ele>
        <time>2024-09-21T10:05:34Z</time>
      </trkpt>
      <trkpt lat="42.42503" lon="2.72926">
        <ele>1324</ele>
        <time>2024-09-21T10:05:36Z</time>
      </trkpt>
      <trkpt lat="42.42501" lon="2.7293">
        <ele>1324</ele>
        <time>2024-09-21T10:05:39Z</time>
      </trkpt>
      <trkpt lat="42.425" lon="2.72935">
        <ele>1324</ele>
        <time>2024-09-21T10:05:41Z</time>
      </trkpt>
      <trkpt lat="42.42498" lon="2.7294">
        <ele>1324</ele>
        <time>2024-09-21T10:05:43Z</time>
      </trkpt>
      <trkpt lat="42.42496" lon="2.72944">
        <ele>1324</ele>
        <time>2024-09-21T10:05:48Z</time>
      </trkpt>
      <trkpt lat="42.42496" lon="2.72947">
        <ele>1325</ele>
        <time>2024-09-21T10:05:50Z</time>
      </trkpt>
      <trkpt lat="42.42497" lon="2.72951">
        <ele>1324</ele>
        <time>2024-09-21T10:05:52Z</time>
      </trkpt>
      <trkpt lat="42.42496" lon="2.72954">
        <ele>1323</ele>
        <time>2024-09-21T10:05:55Z</time>
      </trkpt>
      <trkpt lat="42.42493" lon="2.72957">
        <ele>1323</ele>
        <time>2024-09-21T10:05:57Z</time>
      </trkpt>
      <trkpt lat="42.42491" lon="2.72961">
        <ele>1322</ele>
        <time>2024-09-21T10:05:59Z</time>
      </trkpt>
      <trkpt lat="42.42489" lon="2.72965">
        <ele>1323</ele>
        <time>2024-09-21T10:06:02Z</time>
      </trkpt>
      <trkpt lat="42.42489" lon="2.7297">
        <ele>1322</ele>
        <time>2024-09-21T10:06:05Z</time>
      </trkpt>
      <trkpt lat="42.42486" lon="2.72971">
        <ele>1321</ele>
        <time>2024-09-21T10:06:11Z</time>
      </trkpt>
      <trkpt lat="42.42484" lon="2.72975">
        <ele>1321</ele>
        <time>2024-09-21T10:06:14Z</time>
      </trkpt>
      <trkpt lat="42.42483" lon="2.72981">
        <ele>1321</ele>
        <time>2024-09-21T10:06:19Z</time>
      </trkpt>
      <trkpt lat="42.42483" lon="2.72985">
        <ele>1321</ele>
        <time>2024-09-21T10:06:22Z</time>
      </trkpt>
      <trkpt lat="42.42485" lon="2.7299">
        <ele>1322</ele>
        <time>2024-09-21T10:06:24Z</time>
      </trkpt>
      <trkpt lat="42.42485" lon="2.72994">
        <ele>1322</ele>
        <time>2024-09-21T10:06:26Z</time>
      </trkpt>
      <trkpt lat="42.42486" lon="2.72998">
        <ele>1323</ele>
        <time>2024-09-21T10:06:31Z</time>
      </trkpt>
      <trkpt lat="42.42486" lon="2.73003">
        <ele>1322</ele>
        <time>2024-09-21T10:06:35Z</time>
      </trkpt>
      <trkpt lat="42.42485" lon="2.73009">
        <ele>1321</ele>
        <time>2024-09-21T10:06:42Z</time>
      </trkpt>
      <trkpt lat="42.42487" lon="2.73013">
        <ele>1321</ele>
        <time>2024-09-21T10:06:44Z</time>
      </trkpt>
      <trkpt lat="42.42488" lon="2.73017">
        <ele>1322</ele>
        <time>2024-09-21T10:06:46Z</time>
      </trkpt>
      <trkpt lat="42.4249" lon="2.73022">
        <ele>1321</ele>
        <time>2024-09-21T10:06:50Z</time>
      </trkpt>
      <trkpt lat="42.42492" lon="2.73025">
        <ele>1321</ele>
        <time>2024-09-21T10:06:53Z</time>
      </trkpt>
      <trkpt lat="42.42495" lon="2.73029">
        <ele>1321</ele>
        <time>2024-09-21T10:06:55Z</time>
      </trkpt>
      <trkpt lat="42.42497" lon="2.73033">
        <ele>1322</ele>
        <time>2024-09-21T10:06:57Z</time>
      </trkpt>
      <trkpt lat="42.42498" lon="2.73037">
        <ele>1321</ele>
        <time>2024-09-21T10:07:00Z</time>
      </trkpt>
      <trkpt lat="42.425" lon="2.73039">
        <ele>1321</ele>
        <time>2024-09-21T10:07:04Z</time>
      </trkpt>
      <trkpt lat="42.425" lon="2.73042">
        <ele>1321</ele>
        <time>2024-09-21T10:07:07Z</time>
      </trkpt>
      <trkpt lat="42.425" lon="2.73046">
        <ele>1321</ele>
        <time>2024-09-21T10:07:10Z</time>
      </trkpt>
      <trkpt lat="42.425" lon="2.73051">
        <ele>1320</ele>
        <time>2024-09-21T10:07:13Z</time>
      </trkpt>
      <trkpt lat="42.42501" lon="2.73055">
        <ele>1320</ele>
        <time>2024-09-21T10:07:16Z</time>
      </trkpt>
      <trkpt lat="42.42501" lon="2.73059">
        <ele>1320</ele>
        <time>2024-09-21T10:07:20Z</time>
      </trkpt>
      <trkpt lat="42.42503" lon="2.73062">
        <ele>1320</ele>
        <time>2024-09-21T10:07:23Z</time>
      </trkpt>
      <trkpt lat="42.42505" lon="2.73065">
        <ele>1320</ele>
        <time>2024-09-21T10:07:26Z</time>
      </trkpt>
      <trkpt lat="42.42508" lon="2.73068">
        <ele>1321</ele>
        <time>2024-09-21T10:07:29Z</time>
      </trkpt>
      <trkpt lat="42.42509" lon="2.73072">
        <ele>1319</ele>
        <time>2024-09-21T10:07:32Z</time>
      </trkpt>
      <trkpt lat="42.42511" lon="2.73075">
        <ele>1321</ele>
        <time>2024-09-21T10:07:35Z</time>
      </trkpt>
      <trkpt lat="42.42513" lon="2.73079">
        <ele>1322</ele>
        <time>2024-09-21T10:07:39Z</time>
      </trkpt>
      <trkpt lat="42.42515" lon="2.73079">
        <ele>1321</ele>
        <time>2024-09-21T10:07:42Z</time>
      </trkpt>
      <trkpt lat="42.42517" lon="2.73082">
        <ele>1320</ele>
        <time>2024-09-21T10:07:46Z</time>
      </trkpt>
      <trkpt lat="42.42518" lon="2.73085">
        <ele>1319</ele>
        <time>2024-09-21T10:07:50Z</time>
      </trkpt>
      <trkpt lat="42.42521" lon="2.73086">
        <ele>1319</ele>
        <time>2024-09-21T10:07:52Z</time>
      </trkpt>
      <trkpt lat="42.42524" lon="2.73088">
        <ele>1318</ele>
        <time>2024-09-21T10:07:56Z</time>
      </trkpt>
      <trkpt lat="42.42527" lon="2.7309">
        <ele>1318</ele>
        <time>2024-09-21T10:07:58Z</time>
      </trkpt>
      <trkpt lat="42.42529" lon="2.73091">
        <ele>1317</ele>
        <time>2024-09-21T10:08:03Z</time>
      </trkpt>
      <trkpt lat="42.42533" lon="2.73092">
        <ele>1318</ele>
        <time>2024-09-21T10:08:06Z</time>
      </trkpt>
      <trkpt lat="42.42536" lon="2.73094">
        <ele>1318</ele>
        <time>2024-09-21T10:08:08Z</time>
      </trkpt>
      <trkpt lat="42.42537" lon="2.73097">
        <ele>1318</ele>
        <time>2024-09-21T10:08:14Z</time>
      </trkpt>
      <trkpt lat="42.42539" lon="2.73098">
        <ele>1319</ele>
        <time>2024-09-21T10:08:16Z</time>
      </trkpt>
      <trkpt lat="42.42542" lon="2.73099">
        <ele>1319</ele>
        <time>2024-09-21T10:08:18Z</time>
      </trkpt>
      <trkpt lat="42.42545" lon="2.731">
        <ele>1320</ele>
        <time>2024-09-21T10:08:20Z</time>
      </trkpt>
      <trkpt lat="42.42548" lon="2.73101">
        <ele>1319</ele>
        <time>2024-09-21T10:08:22Z</time>
      </trkpt>
      <trkpt lat="42.42551" lon="2.73101">
        <ele>1320</ele>
        <time>2024-09-21T10:08:27Z</time>
      </trkpt>
      <trkpt lat="42.42555" lon="2.73101">
        <ele>1318</ele>
        <time>2024-09-21T10:08:30Z</time>
      </trkpt>
      <trkpt lat="42.42558" lon="2.731">
        <ele>1316</ele>
        <time>2024-09-21T10:08:34Z</time>
      </trkpt>
      <trkpt lat="42.42561" lon="2.731">
        <ele>1315</ele>
        <time>2024-09-21T10:08:37Z</time>
      </trkpt>
      <trkpt lat="42.42564" lon="2.731">
        <ele>1314</ele>
        <time>2024-09-21T10:08:40Z</time>
      </trkpt>
      <trkpt lat="42.42568" lon="2.731">
        <ele>1313</ele>
        <time>2024-09-21T10:08:49Z</time>
      </trkpt>
      <trkpt lat="42.4257" lon="2.73099">
        <ele>1313</ele>
        <time>2024-09-21T10:08:52Z</time>
      </trkpt>
      <trkpt lat="42.42573" lon="2.73098">
        <ele>1311</ele>
        <time>2024-09-21T10:08:59Z</time>
      </trkpt>
      <trkpt lat="42.42576" lon="2.73097">
        <ele>1311</ele>
        <time>2024-09-21T10:09:01Z</time>
      </trkpt>
      <trkpt lat="42.42579" lon="2.73096">
        <ele>1311</ele>
        <time>2024-09-21T10:09:05Z</time>
      </trkpt>
      <trkpt lat="42.42583" lon="2.73095">
        <ele>1310</ele>
        <time>2024-09-21T10:09:10Z</time>
      </trkpt>
      <trkpt lat="42.42586" lon="2.73095">
        <ele>1310</ele>
        <time>2024-09-21T10:09:13Z</time>
      </trkpt>
      <trkpt lat="42.42589" lon="2.73096">
        <ele>1309</ele>
        <time>2024-09-21T10:09:16Z</time>
      </trkpt>
      <trkpt lat="42.42592" lon="2.73098">
        <ele>1308</ele>
        <time>2024-09-21T10:09:20Z</time>
      </trkpt>
      <trkpt lat="42.42596" lon="2.731">
        <ele>1308</ele>
        <time>2024-09-21T10:09:23Z</time>
      </trkpt>
      <trkpt lat="42.42599" lon="2.73102">
        <ele>1308</ele>
        <time>2024-09-21T10:09:27Z</time>
      </trkpt>
      <trkpt lat="42.42601" lon="2.73106">
        <ele>1308</ele>
        <time>2024-09-21T10:09:29Z</time>
      </trkpt>
      <trkpt lat="42.42601" lon="2.73111">
        <ele>1307</ele>
        <time>2024-09-21T10:09:32Z</time>
      </trkpt>
      <trkpt lat="42.42604" lon="2.73114">
        <ele>1309</ele>
        <time>2024-09-21T10:09:37Z</time>
      </trkpt>
      <trkpt lat="42.42607" lon="2.73116">
        <ele>1309</ele>
        <time>2024-09-21T10:09:43Z</time>
      </trkpt>
      <trkpt lat="42.42609" lon="2.7312">
        <ele>1309</ele>
        <time>2024-09-21T10:09:51Z</time>
      </trkpt>
      <trkpt lat="42.42611" lon="2.73125">
        <ele>1310</ele>
        <time>2024-09-21T10:09:56Z</time>
      </trkpt>
      <trkpt lat="42.42611" lon="2.73129">
        <ele>1311</ele>
        <time>2024-09-21T10:10:03Z</time>
      </trkpt>
      <trkpt lat="42.42612" lon="2.73132">
        <ele>1311</ele>
        <time>2024-09-21T10:10:07Z</time>
      </trkpt>
      <trkpt lat="42.42613" lon="2.73137">
        <ele>1310</ele>
        <time>2024-09-21T10:10:14Z</time>
      </trkpt>
      <trkpt lat="42.42614" lon="2.73141">
        <ele>1311</ele>
        <time>2024-09-21T10:10:19Z</time>
      </trkpt>
      <trkpt lat="42.42616" lon="2.73144">
        <ele>1312</ele>
        <time>2024-09-21T10:10:22Z</time>
      </trkpt>
      <trkpt lat="42.42619" lon="2.73145">
        <ele>1313</ele>
        <time>2024-09-21T10:10:26Z</time>
      </trkpt>
      <trkpt lat="42.42622" lon="2.73146">
        <ele>1315</ele>
        <time>2024-09-21T10:10:30Z</time>
      </trkpt>
      <trkpt lat="42.42626" lon="2.73145">
        <ele>1317</ele>
        <time>2024-09-21T10:10:35Z</time>
      </trkpt>
      <trkpt lat="42.42629" lon="2.73144">
        <ele>1316</ele>
        <time>2024-09-21T10:10:37Z</time>
      </trkpt>
      <trkpt lat="42.42633" lon="2.73143">
        <ele>1316</ele>
        <time>2024-09-21T10:10:43Z</time>
      </trkpt>
      <trkpt lat="42.42636" lon="2.73142">
        <ele>1315</ele>
        <time>2024-09-21T10:10:47Z</time>
      </trkpt>
      <trkpt lat="42.4264" lon="2.73142">
        <ele>1315</ele>
        <time>2024-09-21T10:10:49Z</time>
      </trkpt>
      <trkpt lat="42.42641" lon="2.73144">
        <ele>1314</ele>
        <time>2024-09-21T10:10:52Z</time>
      </trkpt>
      <trkpt lat="42.42642" lon="2.73148">
        <ele>1314</ele>
        <time>2024-09-21T10:10:56Z</time>
      </trkpt>
      <trkpt lat="42.42644" lon="2.73149">
        <ele>1314</ele>
        <time>2024-09-21T10:10:59Z</time>
      </trkpt>
      <trkpt lat="42.42646" lon="2.73151">
        <ele>1317</ele>
        <time>2024-09-21T10:11:05Z</time>
      </trkpt>
      <trkpt lat="42.42648" lon="2.73154">
        <ele>1315</ele>
        <time>2024-09-21T10:11:10Z</time>
      </trkpt>
      <trkpt lat="42.42651" lon="2.73155">
        <ele>1316</ele>
        <time>2024-09-21T10:11:14Z</time>
      </trkpt>
      <trkpt lat="42.42654" lon="2.73155">
        <ele>1317</ele>
        <time>2024-09-21T10:11:17Z</time>
      </trkpt>
      <trkpt lat="42.42658" lon="2.73155">
        <ele>1318</ele>
        <time>2024-09-21T10:11:19Z</time>
      </trkpt>
      <trkpt lat="42.4266" lon="2.73157">
        <ele>1319</ele>
        <time>2024-09-21T10:11:24Z</time>
      </trkpt>
      <trkpt lat="42.42663" lon="2.73159">
        <ele>1321</ele>
        <time>2024-09-21T10:11:33Z</time>
      </trkpt>
      <trkpt lat="42.42666" lon="2.73158">
        <ele>1321</ele>
        <time>2024-09-21T10:11:37Z</time>
      </trkpt>
      <trkpt lat="42.42668" lon="2.73156">
        <ele>1320</ele>
        <time>2024-09-21T10:11:40Z</time>
      </trkpt>
      <trkpt lat="42.42671" lon="2.73156">
        <ele>1319</ele>
        <time>2024-09-21T10:11:44Z</time>
      </trkpt>
      <trkpt lat="42.42674" lon="2.73156">
        <ele>1319</ele>
        <time>2024-09-21T10:11:49Z</time>
      </trkpt>
      <trkpt lat="42.42677" lon="2.73157">
        <ele>1319</ele>
        <time>2024-09-21T10:11:54Z</time>
      </trkpt>
      <trkpt lat="42.4268" lon="2.73159">
        <ele>1318</ele>
        <time>2024-09-21T10:11:57Z</time>
      </trkpt>
      <trkpt lat="42.42681" lon="2.73162">
        <ele>1317</ele>
        <time>2024-09-21T10:12:01Z</time>
      </trkpt>
      <trkpt lat="42.42683" lon="2.73163">
        <ele>1317</ele>
        <time>2024-09-21T10:12:04Z</time>
      </trkpt>
      <trkpt lat="42.42686" lon="2.73165">
        <ele>1319</ele>
        <time>2024-09-21T10:12:09Z</time>
      </trkpt>
      <trkpt lat="42.42689" lon="2.73166">
        <ele>1321</ele>
        <time>2024-09-21T10:12:23Z</time>
      </trkpt>
      <trkpt lat="42.42691" lon="2.73169">
        <ele>1320</ele>
        <time>2024-09-21T10:12:27Z</time>
      </trkpt>
      <trkpt lat="42.42694" lon="2.73171">
        <ele>1321</ele>
        <time>2024-09-21T10:12:33Z</time>
      </trkpt>
      <trkpt lat="42.42696" lon="2.73174">
        <ele>1321</ele>
        <time>2024-09-21T10:12:37Z</time>
      </trkpt>
      <trkpt lat="42.42699" lon="2.73176">
        <ele>1321</ele>
        <time>2024-09-21T10:12:41Z</time>
      </trkpt>
      <trkpt lat="42.42701" lon="2.73179">
        <ele>1322</ele>
        <time>2024-09-21T10:12:44Z</time>
      </trkpt>
      <trkpt lat="42.42703" lon="2.73182">
        <ele>1322</ele>
        <time>2024-09-21T10:12:48Z</time>
      </trkpt>
      <trkpt lat="42.42705" lon="2.73184">
        <ele>1322</ele>
        <time>2024-09-21T10:12:52Z</time>
      </trkpt>
      <trkpt lat="42.42708" lon="2.73187">
        <ele>1322</ele>
        <time>2024-09-21T10:12:55Z</time>
      </trkpt>
      <trkpt lat="42.4271" lon="2.7319">
        <ele>1323</ele>
        <time>2024-09-21T10:12:57Z</time>
      </trkpt>
      <trkpt lat="42.42712" lon="2.73194">
        <ele>1323</ele>
        <time>2024-09-21T10:13:01Z</time>
      </trkpt>
      <trkpt lat="42.42713" lon="2.73198">
        <ele>1323</ele>
        <time>2024-09-21T10:13:04Z</time>
      </trkpt>
      <trkpt lat="42.42714" lon="2.73203">
        <ele>1323</ele>
        <time>2024-09-21T10:13:08Z</time>
      </trkpt>
      <trkpt lat="42.42714" lon="2.73207">
        <ele>1324</ele>
        <time>2024-09-21T10:13:14Z</time>
      </trkpt>
      <trkpt lat="42.42714" lon="2.73212">
        <ele>1326</ele>
        <time>2024-09-21T10:13:16Z</time>
      </trkpt>
      <trkpt lat="42.42713" lon="2.73217">
        <ele>1326</ele>
        <time>2024-09-21T10:13:22Z</time>
      </trkpt>
      <trkpt lat="42.42714" lon="2.73221">
        <ele>1327</ele>
        <time>2024-09-21T10:13:24Z</time>
      </trkpt>
      <trkpt lat="42.42714" lon="2.73225">
        <ele>1328</ele>
        <time>2024-09-21T10:13:27Z</time>
      </trkpt>
      <trkpt lat="42.42714" lon="2.7323">
        <ele>1326</ele>
        <time>2024-09-21T10:13:34Z</time>
      </trkpt>
      <trkpt lat="42.42715" lon="2.73235">
        <ele>1325</ele>
        <time>2024-09-21T10:13:37Z</time>
      </trkpt>
      <trkpt lat="42.42713" lon="2.73239">
        <ele>1324</ele>
        <time>2024-09-21T10:13:41Z</time>
      </trkpt>
      <trkpt lat="42.42712" lon="2.73244">
        <ele>1322</ele>
        <time>2024-09-21T10:13:44Z</time>
      </trkpt>
      <trkpt lat="42.42712" lon="2.73248">
        <ele>1323</ele>
        <time>2024-09-21T10:13:46Z</time>
      </trkpt>
      <trkpt lat="42.42714" lon="2.73251">
        <ele>1322</ele>
        <time>2024-09-21T10:13:50Z</time>
      </trkpt>
      <trkpt lat="42.42714" lon="2.73254">
        <ele>1322</ele>
        <time>2024-09-21T10:13:53Z</time>
      </trkpt>
      <trkpt lat="42.42712" lon="2.73258">
        <ele>1322</ele>
        <time>2024-09-21T10:13:58Z</time>
      </trkpt>
      <trkpt lat="42.4271" lon="2.7326">
        <ele>1321</ele>
        <time>2024-09-21T10:14:03Z</time>
      </trkpt>
      <trkpt lat="42.42707" lon="2.73263">
        <ele>1320</ele>
        <time>2024-09-21T10:14:06Z</time>
      </trkpt>
      <trkpt lat="42.42705" lon="2.73267">
        <ele>1320</ele>
        <time>2024-09-21T10:14:10Z</time>
      </trkpt>
      <trkpt lat="42.42704" lon="2.73271">
        <ele>1319</ele>
        <time>2024-09-21T10:14:13Z</time>
      </trkpt>
      <trkpt lat="42.42704" lon="2.73275">
        <ele>1320</ele>
        <time>2024-09-21T10:14:18Z</time>
      </trkpt>
      <trkpt lat="42.42702" lon="2.73279">
        <ele>1318</ele>
        <time>2024-09-21T10:14:21Z</time>
      </trkpt>
      <trkpt lat="42.42701" lon="2.73283">
        <ele>1318</ele>
        <time>2024-09-21T10:14:24Z</time>
      </trkpt>
      <trkpt lat="42.42701" lon="2.73288">
        <ele>1320</ele>
        <time>2024-09-21T10:14:26Z</time>
      </trkpt>
      <trkpt lat="42.42701" lon="2.73293">
        <ele>1319</ele>
        <time>2024-09-21T10:14:29Z</time>
      </trkpt>
      <trkpt lat="42.42702" lon="2.73298">
        <ele>1319</ele>
        <time>2024-09-21T10:14:31Z</time>
      </trkpt>
      <trkpt lat="42.42704" lon="2.73303">
        <ele>1320</ele>
        <time>2024-09-21T10:14:34Z</time>
      </trkpt>
      <trkpt lat="42.42705" lon="2.73306">
        <ele>1320</ele>
        <time>2024-09-21T10:14:36Z</time>
      </trkpt>
      <trkpt lat="42.42707" lon="2.7331">
        <ele>1321</ele>
        <time>2024-09-21T10:14:39Z</time>
      </trkpt>
      <trkpt lat="42.42707" lon="2.73314">
        <ele>1320</ele>
        <time>2024-09-21T10:14:42Z</time>
      </trkpt>
      <trkpt lat="42.42708" lon="2.73319">
        <ele>1322</ele>
        <time>2024-09-21T10:14:45Z</time>
      </trkpt>
      <trkpt lat="42.4271" lon="2.73322">
        <ele>1322</ele>
        <time>2024-09-21T10:14:49Z</time>
      </trkpt>
      <trkpt lat="42.42711" lon="2.73325">
        <ele>1322</ele>
        <time>2024-09-21T10:14:50Z</time>
      </trkpt>
      <trkpt lat="42.42711" lon="2.73328">
        <ele>1323</ele>
        <time>2024-09-21T10:14:55Z</time>
      </trkpt>
      <trkpt lat="42.42709" lon="2.73331">
        <ele>1323</ele>
        <time>2024-09-21T10:14:57Z</time>
      </trkpt>
      <trkpt lat="42.42708" lon="2.73335">
        <ele>1323</ele>
        <time>2024-09-21T10:15:00Z</time>
      </trkpt>
      <trkpt lat="42.42708" lon="2.73339">
        <ele>1322</ele>
        <time>2024-09-21T10:15:02Z</time>
      </trkpt>
      <trkpt lat="42.42707" lon="2.73343">
        <ele>1321</ele>
        <time>2024-09-21T10:15:06Z</time>
      </trkpt>
      <trkpt lat="42.42707" lon="2.73347">
        <ele>1321</ele>
        <time>2024-09-21T10:15:10Z</time>
      </trkpt>
      <trkpt lat="42.42707" lon="2.73352">
        <ele>1323</ele>
        <time>2024-09-21T10:15:12Z</time>
      </trkpt>
      <trkpt lat="42.42706" lon="2.73356">
        <ele>1322</ele>
        <time>2024-09-21T10:15:16Z</time>
      </trkpt>
      <trkpt lat="42.42705" lon="2.7336">
        <ele>1324</ele>
        <time>2024-09-21T10:15:17Z</time>
      </trkpt>
      <trkpt lat="42.42705" lon="2.73363">
        <ele>1324</ele>
        <time>2024-09-21T10:15:20Z</time>
      </trkpt>
      <trkpt lat="42.42705" lon="2.73368">
        <ele>1324</ele>
        <time>2024-09-21T10:15:28Z</time>
      </trkpt>
      <trkpt lat="42.42704" lon="2.73373">
        <ele>1325</ele>
        <time>2024-09-21T10:15:32Z</time>
      </trkpt>
      <trkpt lat="42.42704" lon="2.73378">
        <ele>1327</ele>
        <time>2024-09-21T10:15:36Z</time>
      </trkpt>
      <trkpt lat="42.42704" lon="2.73383">
        <ele>1328</ele>
        <time>2024-09-21T10:15:40Z</time>
      </trkpt>
      <trkpt lat="42.42703" lon="2.73388">
        <ele>1328</ele>
        <time>2024-09-21T10:15:42Z</time>
      </trkpt>
      <trkpt lat="42.42704" lon="2.73391">
        <ele>1325</ele>
        <time>2024-09-21T10:15:45Z</time>
      </trkpt>
      <trkpt lat="42.42704" lon="2.73394">
        <ele>1326</ele>
        <time>2024-09-21T10:15:49Z</time>
      </trkpt>
      <trkpt lat="42.42703" lon="2.73398">
        <ele>1327</ele>
        <time>2024-09-21T10:15:52Z</time>
      </trkpt>
      <trkpt lat="42.42705" lon="2.73401">
        <ele>1327</ele>
        <time>2024-09-21T10:15:54Z</time>
      </trkpt>
      <trkpt lat="42.42706" lon="2.73404">
        <ele>1329</ele>
        <time>2024-09-21T10:15:56Z</time>
      </trkpt>
      <trkpt lat="42.42705" lon="2.73409">
        <ele>1329</ele>
        <time>2024-09-21T10:16:02Z</time>
      </trkpt>
      <trkpt lat="42.42705" lon="2.73413">
        <ele>1328</ele>
        <time>2024-09-21T10:16:06Z</time>
      </trkpt>
      <trkpt lat="42.42707" lon="2.73417">
        <ele>1330</ele>
        <time>2024-09-21T10:16:12Z</time>
      </trkpt>
      <trkpt lat="42.42707" lon="2.73423">
        <ele>1328</ele>
        <time>2024-09-21T10:16:17Z</time>
      </trkpt>
      <trkpt lat="42.42708" lon="2.73428">
        <ele>1330</ele>
        <time>2024-09-21T10:16:27Z</time>
      </trkpt>
      <trkpt lat="42.42708" lon="2.73432">
        <ele>1331</ele>
        <time>2024-09-21T10:16:30Z</time>
      </trkpt>
      <trkpt lat="42.42707" lon="2.73437">
        <ele>1331</ele>
        <time>2024-09-21T10:16:33Z</time>
      </trkpt>
      <trkpt lat="42.42706" lon="2.73442">
        <ele>1333</ele>
        <time>2024-09-21T10:16:38Z</time>
      </trkpt>
      <trkpt lat="42.42706" lon="2.73446">
        <ele>1334</ele>
        <time>2024-09-21T10:16:44Z</time>
      </trkpt>
      <trkpt lat="42.42708" lon="2.73448">
        <ele>1333</ele>
        <time>2024-09-21T10:16:47Z</time>
      </trkpt>
      <trkpt lat="42.42708" lon="2.73451">
        <ele>1333</ele>
        <time>2024-09-21T10:16:54Z</time>
      </trkpt>
      <trkpt lat="42.42708" lon="2.73456">
        <ele>1334</ele>
        <time>2024-09-21T10:16:57Z</time>
      </trkpt>
      <trkpt lat="42.42706" lon="2.7346">
        <ele>1335</ele>
        <time>2024-09-21T10:17:02Z</time>
      </trkpt>
      <trkpt lat="42.42703" lon="2.7346">
        <ele>1336</ele>
        <time>2024-09-21T10:17:05Z</time>
      </trkpt>
      <trkpt lat="42.42704" lon="2.73463">
        <ele>1336</ele>
        <time>2024-09-21T10:17:10Z</time>
      </trkpt>
      <trkpt lat="42.42702" lon="2.73465">
        <ele>1336</ele>
        <time>2024-09-21T10:17:12Z</time>
      </trkpt>
      <trkpt lat="42.42701" lon="2.73469">
        <ele>1337</ele>
        <time>2024-09-21T10:17:16Z</time>
      </trkpt>
      <trkpt lat="42.427" lon="2.73473">
        <ele>1339</ele>
        <time>2024-09-21T10:17:24Z</time>
      </trkpt>
      <trkpt lat="42.42698" lon="2.73476">
        <ele>1338</ele>
        <time>2024-09-21T10:17:25Z</time>
      </trkpt>
      <trkpt lat="42.42695" lon="2.73477">
        <ele>1339</ele>
        <time>2024-09-21T10:17:26Z</time>
      </trkpt>
      <trkpt lat="42.42693" lon="2.7348">
        <ele>1339</ele>
        <time>2024-09-21T10:17:32Z</time>
      </trkpt>
      <trkpt lat="42.42692" lon="2.73483">
        <ele>1340</ele>
        <time>2024-09-21T10:17:36Z</time>
      </trkpt>
      <trkpt lat="42.42689" lon="2.73486">
        <ele>1340</ele>
        <time>2024-09-21T10:17:37Z</time>
      </trkpt>
      <trkpt lat="42.42687" lon="2.73485">
        <ele>1343</ele>
        <time>2024-09-21T10:17:42Z</time>
      </trkpt>
      <trkpt lat="42.42685" lon="2.73483">
        <ele>1345</ele>
        <time>2024-09-21T10:17:46Z</time>
      </trkpt>
      <trkpt lat="42.42683" lon="2.73479">
        <ele>1344</ele>
        <time>2024-09-21T10:17:48Z</time>
      </trkpt>
      <trkpt lat="42.42683" lon="2.7348">
        <ele>1345</ele>
        <time>2024-09-21T10:17:51Z</time>
      </trkpt>
      <trkpt lat="42.42681" lon="2.7348">
        <ele>1346</ele>
        <time>2024-09-21T10:17:52Z</time>
      </trkpt>
      <trkpt lat="42.42679" lon="2.73482">
        <ele>1346</ele>
        <time>2024-09-21T10:17:55Z</time>
      </trkpt>
      <trkpt lat="42.42678" lon="2.73486">
        <ele>1347</ele>
        <time>2024-09-21T10:17:57Z</time>
      </trkpt>
      <trkpt lat="42.42675" lon="2.73489">
        <ele>1346</ele>
        <time>2024-09-21T10:18:02Z</time>
      </trkpt>
      <trkpt lat="42.42673" lon="2.7349">
        <ele>1347</ele>
        <time>2024-09-21T10:18:04Z</time>
      </trkpt>
      <trkpt lat="42.4267" lon="2.73493">
        <ele>1347</ele>
        <time>2024-09-21T10:18:06Z</time>
      </trkpt>
      <trkpt lat="42.42668" lon="2.73497">
        <ele>1347</ele>
        <time>2024-09-21T10:18:09Z</time>
      </trkpt>
      <trkpt lat="42.42666" lon="2.73501">
        <ele>1348</ele>
        <time>2024-09-21T10:18:13Z</time>
      </trkpt>
      <trkpt lat="42.42664" lon="2.73506">
        <ele>1349</ele>
        <time>2024-09-21T10:18:17Z</time>
      </trkpt>
      <trkpt lat="42.42662" lon="2.7351">
        <ele>1347</ele>
        <time>2024-09-21T10:18:20Z</time>
      </trkpt>
      <trkpt lat="42.42659" lon="2.73514">
        <ele>1346</ele>
        <time>2024-09-21T10:18:23Z</time>
      </trkpt>
      <trkpt lat="42.42659" lon="2.73519">
        <ele>1344</ele>
        <time>2024-09-21T10:18:27Z</time>
      </trkpt>
      <trkpt lat="42.42659" lon="2.73524">
        <ele>1343</ele>
        <time>2024-09-21T10:18:30Z</time>
      </trkpt>
      <trkpt lat="42.42658" lon="2.73527">
        <ele>1342</ele>
        <time>2024-09-21T10:18:35Z</time>
      </trkpt>
      <trkpt lat="42.42656" lon="2.73531">
        <ele>1341</ele>
        <time>2024-09-21T10:18:38Z</time>
      </trkpt>
      <trkpt lat="42.42654" lon="2.7353">
        <ele>1341</ele>
        <time>2024-09-21T10:18:40Z</time>
      </trkpt>
      <trkpt lat="42.42652" lon="2.73528">
        <ele>1341</ele>
        <time>2024-09-21T10:18:41Z</time>
      </trkpt>
      <trkpt lat="42.42649" lon="2.73528">
        <ele>1339</ele>
        <time>2024-09-21T10:18:46Z</time>
      </trkpt>
      <trkpt lat="42.42646" lon="2.73529">
        <ele>1339</ele>
        <time>2024-09-21T10:18:50Z</time>
      </trkpt>
      <trkpt lat="42.42643" lon="2.73529">
        <ele>1338</ele>
        <time>2024-09-21T10:18:54Z</time>
      </trkpt>
      <trkpt lat="42.42642" lon="2.73532">
        <ele>1336</ele>
        <time>2024-09-21T10:18:57Z</time>
      </trkpt>
      <trkpt lat="42.42641" lon="2.73535">
        <ele>1336</ele>
        <time>2024-09-21T10:19:01Z</time>
      </trkpt>
      <trkpt lat="42.42639" lon="2.73536">
        <ele>1335</ele>
        <time>2024-09-21T10:19:07Z</time>
      </trkpt>
      <trkpt lat="42.42638" lon="2.73533">
        <ele>1333</ele>
        <time>2024-09-21T10:19:14Z</time>
      </trkpt>
      <trkpt lat="42.42639" lon="2.73534">
        <ele>1333</ele>
        <time>2024-09-21T10:19:17Z</time>
      </trkpt>
      <trkpt lat="42.42638" lon="2.73534">
        <ele>1332</ele>
        <time>2024-09-21T10:19:26Z</time>
      </trkpt>
      <trkpt lat="42.42636" lon="2.73533">
        <ele>1332</ele>
        <time>2024-09-21T10:19:30Z</time>
      </trkpt>
      <trkpt lat="42.42633" lon="2.73532">
        <ele>1331</ele>
        <time>2024-09-21T10:19:34Z</time>
      </trkpt>
      <trkpt lat="42.42629" lon="2.73533">
        <ele>1330</ele>
        <time>2024-09-21T10:19:37Z</time>
      </trkpt>
      <trkpt lat="42.42626" lon="2.73535">
        <ele>1329</ele>
        <time>2024-09-21T10:19:41Z</time>
      </trkpt>
      <trkpt lat="42.42623" lon="2.73537">
        <ele>1329</ele>
        <time>2024-09-21T10:19:45Z</time>
      </trkpt>
      <trkpt lat="42.42618" lon="2.7354">
        <ele>1329</ele>
        <time>2024-09-21T10:19:48Z</time>
      </trkpt>
      <trkpt lat="42.42615" lon="2.73543">
        <ele>1329</ele>
        <time>2024-09-21T10:19:50Z</time>
      </trkpt>
      <trkpt lat="42.42612" lon="2.73544">
        <ele>1329</ele>
        <time>2024-09-21T10:19:52Z</time>
      </trkpt>
      <trkpt lat="42.42609" lon="2.73545">
        <ele>1329</ele>
        <time>2024-09-21T10:19:54Z</time>
      </trkpt>
      <trkpt lat="42.42607" lon="2.73543">
        <ele>1329</ele>
        <time>2024-09-21T10:19:57Z</time>
      </trkpt>
      <trkpt lat="42.42604" lon="2.73542">
        <ele>1326</ele>
        <time>2024-09-21T10:20:00Z</time>
      </trkpt>
      <trkpt lat="42.42601" lon="2.7354">
        <ele>1325</ele>
        <time>2024-09-21T10:20:04Z</time>
      </trkpt>
      <trkpt lat="42.42598" lon="2.7354">
        <ele>1325</ele>
        <time>2024-09-21T10:20:08Z</time>
      </trkpt>
      <trkpt lat="42.42597" lon="2.73543">
        <ele>1324</ele>
        <time>2024-09-21T10:20:13Z</time>
      </trkpt>
      <trkpt lat="42.42594" lon="2.73546">
        <ele>1325</ele>
        <time>2024-09-21T10:20:16Z</time>
      </trkpt>
      <trkpt lat="42.42591" lon="2.73547">
        <ele>1323</ele>
        <time>2024-09-21T10:20:20Z</time>
      </trkpt>
      <trkpt lat="42.42587" lon="2.73548">
        <ele>1324</ele>
        <time>2024-09-21T10:20:22Z</time>
      </trkpt>
      <trkpt lat="42.42586" lon="2.73546">
        <ele>1324</ele>
        <time>2024-09-21T10:20:24Z</time>
      </trkpt>
      <trkpt lat="42.42582" lon="2.73547">
        <ele>1323</ele>
        <time>2024-09-21T10:20:29Z</time>
      </trkpt>
      <trkpt lat="42.42579" lon="2.73548">
        <ele>1324</ele>
        <time>2024-09-21T10:20:32Z</time>
      </trkpt>
      <trkpt lat="42.42574" lon="2.73551">
        <ele>1322</ele>
        <time>2024-09-21T10:20:34Z</time>
      </trkpt>
      <trkpt lat="42.4257" lon="2.73553">
        <ele>1323</ele>
        <time>2024-09-21T10:20:38Z</time>
      </trkpt>
      <trkpt lat="42.42567" lon="2.73557">
        <ele>1322</ele>
        <time>2024-09-21T10:20:40Z</time>
      </trkpt>
      <trkpt lat="42.42565" lon="2.73561">
        <ele>1323</ele>
        <time>2024-09-21T10:20:42Z</time>
      </trkpt>
      <trkpt lat="42.42567" lon="2.73565">
        <ele>1320</ele>
        <time>2024-09-21T10:20:45Z</time>
      </trkpt>
      <trkpt lat="42.42565" lon="2.7357">
        <ele>1320</ele>
        <time>2024-09-21T10:20:49Z</time>
      </trkpt>
      <trkpt lat="42.42564" lon="2.73575">
        <ele>1319</ele>
        <time>2024-09-21T10:20:51Z</time>
      </trkpt>
      <trkpt lat="42.42565" lon="2.7358">
        <ele>1319</ele>
        <time>2024-09-21T10:20:53Z</time>
      </trkpt>
      <trkpt lat="42.42564" lon="2.73585">
        <ele>1319</ele>
        <time>2024-09-21T10:20:56Z</time>
      </trkpt>
      <trkpt lat="42.42564" lon="2.7359">
        <ele>1320</ele>
        <time>2024-09-21T10:20:59Z</time>
      </trkpt>
      <trkpt lat="42.42561" lon="2.73595">
        <ele>1319</ele>
        <time>2024-09-21T10:21:03Z</time>
      </trkpt>
      <trkpt lat="42.42559" lon="2.73598">
        <ele>1318</ele>
        <time>2024-09-21T10:21:07Z</time>
      </trkpt>
      <trkpt lat="42.42558" lon="2.73603">
        <ele>1317</ele>
        <time>2024-09-21T10:21:09Z</time>
      </trkpt>
      <trkpt lat="42.42556" lon="2.73608">
        <ele>1316</ele>
        <time>2024-09-21T10:21:15Z</time>
      </trkpt>
      <trkpt lat="42.42554" lon="2.73612">
        <ele>1316</ele>
        <time>2024-09-21T10:21:18Z</time>
      </trkpt>
      <trkpt lat="42.42552" lon="2.73616">
        <ele>1318</ele>
        <time>2024-09-21T10:21:21Z</time>
      </trkpt>
      <trkpt lat="42.42551" lon="2.7362">
        <ele>1318</ele>
        <time>2024-09-21T10:21:27Z</time>
      </trkpt>
      <trkpt lat="42.42549" lon="2.73623">
        <ele>1319</ele>
        <time>2024-09-21T10:21:29Z</time>
      </trkpt>
      <trkpt lat="42.42547" lon="2.73626">
        <ele>1319</ele>
        <time>2024-09-21T10:21:33Z</time>
      </trkpt>
      <trkpt lat="42.42546" lon="2.7363">
        <ele>1317</ele>
        <time>2024-09-21T10:21:35Z</time>
      </trkpt>
      <trkpt lat="42.42544" lon="2.73635">
        <ele>1317</ele>
        <time>2024-09-21T10:21:38Z</time>
      </trkpt>
      <trkpt lat="42.42544" lon="2.73639">
        <ele>1318</ele>
        <time>2024-09-21T10:21:39Z</time>
      </trkpt>
      <trkpt lat="42.42544" lon="2.73644">
        <ele>1316</ele>
        <time>2024-09-21T10:21:42Z</time>
      </trkpt>
      <trkpt lat="42.42543" lon="2.73647">
        <ele>1318</ele>
        <time>2024-09-21T10:21:44Z</time>
      </trkpt>
      <trkpt lat="42.4254" lon="2.7365">
        <ele>1318</ele>
        <time>2024-09-21T10:21:46Z</time>
      </trkpt>
      <trkpt lat="42.42539" lon="2.73654">
        <ele>1315</ele>
        <time>2024-09-21T10:21:51Z</time>
      </trkpt>
      <trkpt lat="42.42538" lon="2.73658">
        <ele>1316</ele>
        <time>2024-09-21T10:21:53Z</time>
      </trkpt>
      <trkpt lat="42.42537" lon="2.73662">
        <ele>1313</ele>
        <time>2024-09-21T10:21:56Z</time>
      </trkpt>
      <trkpt lat="42.42537" lon="2.73667">
        <ele>1314</ele>
        <time>2024-09-21T10:21:59Z</time>
      </trkpt>
      <trkpt lat="42.42538" lon="2.73671">
        <ele>1314</ele>
        <time>2024-09-21T10:22:02Z</time>
      </trkpt>
      <trkpt lat="42.42538" lon="2.73676">
        <ele>1314</ele>
        <time>2024-09-21T10:22:06Z</time>
      </trkpt>
      <trkpt lat="42.42537" lon="2.7368">
        <ele>1313</ele>
        <time>2024-09-21T10:22:08Z</time>
      </trkpt>
      <trkpt lat="42.42536" lon="2.73685">
        <ele>1314</ele>
        <time>2024-09-21T10:22:11Z</time>
      </trkpt>
      <trkpt lat="42.42536" lon="2.73689">
        <ele>1312</ele>
        <time>2024-09-21T10:22:13Z</time>
      </trkpt>
      <trkpt lat="42.42536" lon="2.73694">
        <ele>1313</ele>
        <time>2024-09-21T10:22:17Z</time>
      </trkpt>
      <trkpt lat="42.42536" lon="2.73699">
        <ele>1313</ele>
        <time>2024-09-21T10:22:21Z</time>
      </trkpt>
      <trkpt lat="42.42535" lon="2.73703">
        <ele>1312</ele>
        <time>2024-09-21T10:22:24Z</time>
      </trkpt>
      <trkpt lat="42.42535" lon="2.73707">
        <ele>1311</ele>
        <time>2024-09-21T10:22:26Z</time>
      </trkpt>
      <trkpt lat="42.42533" lon="2.73711">
        <ele>1311</ele>
        <time>2024-09-21T10:22:30Z</time>
      </trkpt>
      <trkpt lat="42.42531" lon="2.73715">
        <ele>1311</ele>
        <time>2024-09-21T10:22:32Z</time>
      </trkpt>
      <trkpt lat="42.42529" lon="2.73719">
        <ele>1309</ele>
        <time>2024-09-21T10:22:37Z</time>
      </trkpt>
      <trkpt lat="42.42527" lon="2.73721">
        <ele>1308</ele>
        <time>2024-09-21T10:22:40Z</time>
      </trkpt>
      <trkpt lat="42.42525" lon="2.73724">
        <ele>1308</ele>
        <time>2024-09-21T10:22:43Z</time>
      </trkpt>
      <trkpt lat="42.42524" lon="2.73728">
        <ele>1308</ele>
        <time>2024-09-21T10:22:46Z</time>
      </trkpt>
      <trkpt lat="42.42522" lon="2.73731">
        <ele>1306</ele>
        <time>2024-09-21T10:22:49Z</time>
      </trkpt>
      <trkpt lat="42.42521" lon="2.73735">
        <ele>1306</ele>
        <time>2024-09-21T10:22:52Z</time>
      </trkpt>
      <trkpt lat="42.42519" lon="2.73738">
        <ele>1304</ele>
        <time>2024-09-21T10:22:59Z</time>
      </trkpt>
      <trkpt lat="42.42517" lon="2.73742">
        <ele>1304</ele>
        <time>2024-09-21T10:23:02Z</time>
      </trkpt>
      <trkpt lat="42.42514" lon="2.73745">
        <ele>1303</ele>
        <time>2024-09-21T10:23:06Z</time>
      </trkpt>
      <trkpt lat="42.42512" lon="2.73748">
        <ele>1303</ele>
        <time>2024-09-21T10:23:08Z</time>
      </trkpt>
      <trkpt lat="42.4251" lon="2.7375">
        <ele>1301</ele>
        <time>2024-09-21T10:23:12Z</time>
      </trkpt>
      <trkpt lat="42.42507" lon="2.73753">
        <ele>1300</ele>
        <time>2024-09-21T10:23:15Z</time>
      </trkpt>
      <trkpt lat="42.42505" lon="2.73755">
        <ele>1302</ele>
        <time>2024-09-21T10:23:17Z</time>
      </trkpt>
      <trkpt lat="42.42502" lon="2.73757">
        <ele>1301</ele>
        <time>2024-09-21T10:23:22Z</time>
      </trkpt>
      <trkpt lat="42.425" lon="2.73762">
        <ele>1301</ele>
        <time>2024-09-21T10:23:26Z</time>
      </trkpt>
      <trkpt lat="42.42498" lon="2.73766">
        <ele>1301</ele>
        <time>2024-09-21T10:23:30Z</time>
      </trkpt>
      <trkpt lat="42.42496" lon="2.73769">
        <ele>1300</ele>
        <time>2024-09-21T10:23:33Z</time>
      </trkpt>
      <trkpt lat="42.42493" lon="2.7377">
        <ele>1300</ele>
        <time>2024-09-21T10:23:37Z</time>
      </trkpt>
      <trkpt lat="42.4249" lon="2.73772">
        <ele>1300</ele>
        <time>2024-09-21T10:23:40Z</time>
      </trkpt>
      <trkpt lat="42.42488" lon="2.73774">
        <ele>1299</ele>
        <time>2024-09-21T10:23:44Z</time>
      </trkpt>
      <trkpt lat="42.42486" lon="2.73777">
        <ele>1298</ele>
        <time>2024-09-21T10:23:47Z</time>
      </trkpt>
      <trkpt lat="42.42484" lon="2.7378">
        <ele>1297</ele>
        <time>2024-09-21T10:23:50Z</time>
      </trkpt>
      <trkpt lat="42.42484" lon="2.73784">
        <ele>1297</ele>
        <time>2024-09-21T10:23:53Z</time>
      </trkpt>
      <trkpt lat="42.42484" lon="2.73789">
        <ele>1297</ele>
        <time>2024-09-21T10:23:56Z</time>
      </trkpt>
      <trkpt lat="42.42482" lon="2.73792">
        <ele>1296</ele>
        <time>2024-09-21T10:24:00Z</time>
      </trkpt>
      <trkpt lat="42.42479" lon="2.73795">
        <ele>1295</ele>
        <time>2024-09-21T10:24:05Z</time>
      </trkpt>
      <trkpt lat="42.42477" lon="2.73798">
        <ele>1295</ele>
        <time>2024-09-21T10:24:10Z</time>
      </trkpt>
      <trkpt lat="42.42475" lon="2.738">
        <ele>1294</ele>
        <time>2024-09-21T10:24:13Z</time>
      </trkpt>
      <trkpt lat="42.42473" lon="2.73803">
        <ele>1293</ele>
        <time>2024-09-21T10:24:17Z</time>
      </trkpt>
      <trkpt lat="42.4247" lon="2.73804">
        <ele>1292</ele>
        <time>2024-09-21T10:24:20Z</time>
      </trkpt>
      <trkpt lat="42.42467" lon="2.73806">
        <ele>1291</ele>
        <time>2024-09-21T10:24:22Z</time>
      </trkpt>
      <trkpt lat="42.42467" lon="2.7381">
        <ele>1290</ele>
        <time>2024-09-21T10:24:26Z</time>
      </trkpt>
      <trkpt lat="42.42465" lon="2.73814">
        <ele>1290</ele>
        <time>2024-09-21T10:24:30Z</time>
      </trkpt>
      <trkpt lat="42.42464" lon="2.73817">
        <ele>1290</ele>
        <time>2024-09-21T10:24:33Z</time>
      </trkpt>
      <trkpt lat="42.42462" lon="2.7382">
        <ele>1287</ele>
        <time>2024-09-21T10:24:39Z</time>
      </trkpt>
      <trkpt lat="42.4246" lon="2.73822">
        <ele>1287</ele>
        <time>2024-09-21T10:24:41Z</time>
      </trkpt>
      <trkpt lat="42.42459" lon="2.73825">
        <ele>1286</ele>
        <time>2024-09-21T10:24:44Z</time>
      </trkpt>
      <trkpt lat="42.42458" lon="2.73829">
        <ele>1287</ele>
        <time>2024-09-21T10:24:48Z</time>
      </trkpt>
      <trkpt lat="42.42456" lon="2.73832">
        <ele>1285</ele>
        <time>2024-09-21T10:24:56Z</time>
      </trkpt>
      <trkpt lat="42.42454" lon="2.73833">
        <ele>1282</ele>
        <time>2024-09-21T10:25:01Z</time>
      </trkpt>
      <trkpt lat="42.42451" lon="2.73834">
        <ele>1282</ele>
        <time>2024-09-21T10:25:04Z</time>
      </trkpt>
      <trkpt lat="42.42449" lon="2.73837">
        <ele>1281</ele>
        <time>2024-09-21T10:25:08Z</time>
      </trkpt>
      <trkpt lat="42.42446" lon="2.7384">
        <ele>1282</ele>
        <time>2024-09-21T10:25:11Z</time>
      </trkpt>
      <trkpt lat="42.42445" lon="2.73843">
        <ele>1281</ele>
        <time>2024-09-21T10:25:16Z</time>
      </trkpt>
      <trkpt lat="42.42443" lon="2.73847">
        <ele>1280</ele>
        <time>2024-09-21T10:25:19Z</time>
      </trkpt>
      <trkpt lat="42.42443" lon="2.73851">
        <ele>1278</ele>
        <time>2024-09-21T10:25:22Z</time>
      </trkpt>
      <trkpt lat="42.42442" lon="2.73855">
        <ele>1279</ele>
        <time>2024-09-21T10:25:27Z</time>
      </trkpt>
      <trkpt lat="42.4244" lon="2.73858">
        <ele>1277</ele>
        <time>2024-09-21T10:25:31Z</time>
      </trkpt>
      <trkpt lat="42.4244" lon="2.73862">
        <ele>1275</ele>
        <time>2024-09-21T10:25:36Z</time>
      </trkpt>
      <trkpt lat="42.42439" lon="2.73866">
        <ele>1273</ele>
        <time>2024-09-21T10:25:39Z</time>
      </trkpt>
      <trkpt lat="42.42437" lon="2.7387">
        <ele>1274</ele>
        <time>2024-09-21T10:25:43Z</time>
      </trkpt>
      <trkpt lat="42.42437" lon="2.73874">
        <ele>1272</ele>
        <time>2024-09-21T10:25:48Z</time>
      </trkpt>
      <trkpt lat="42.42435" lon="2.73877">
        <ele>1269</ele>
        <time>2024-09-21T10:25:55Z</time>
      </trkpt>
      <trkpt lat="42.42434" lon="2.73882">
        <ele>1270</ele>
        <time>2024-09-21T10:25:59Z</time>
      </trkpt>
      <trkpt lat="42.42435" lon="2.73886">
        <ele>1270</ele>
        <time>2024-09-21T10:26:09Z</time>
      </trkpt>
      <trkpt lat="42.42434" lon="2.73891">
        <ele>1268</ele>
        <time>2024-09-21T10:26:15Z</time>
      </trkpt>
      <trkpt lat="42.42434" lon="2.73895">
        <ele>1266</ele>
        <time>2024-09-21T10:26:21Z</time>
      </trkpt>
      <trkpt lat="42.42432" lon="2.73899">
        <ele>1266</ele>
        <time>2024-09-21T10:26:24Z</time>
      </trkpt>
      <trkpt lat="42.42431" lon="2.73904">
        <ele>1266</ele>
        <time>2024-09-21T10:26:30Z</time>
      </trkpt>
      <trkpt lat="42.42429" lon="2.73907">
        <ele>1265</ele>
        <time>2024-09-21T10:26:36Z</time>
      </trkpt>
      <trkpt lat="42.42429" lon="2.73911">
        <ele>1263</ele>
        <time>2024-09-21T10:26:42Z</time>
      </trkpt>
      <trkpt lat="42.42428" lon="2.73913">
        <ele>1262</ele>
        <time>2024-09-21T10:26:45Z</time>
      </trkpt>
      <trkpt lat="42.42425" lon="2.73917">
        <ele>1260</ele>
        <time>2024-09-21T10:26:51Z</time>
      </trkpt>
      <trkpt lat="42.42425" lon="2.7392">
        <ele>1256</ele>
        <time>2024-09-21T10:26:57Z</time>
      </trkpt>
      <trkpt lat="42.42425" lon="2.73925">
        <ele>1258</ele>
        <time>2024-09-21T10:26:59Z</time>
      </trkpt>
      <trkpt lat="42.42423" lon="2.73928">
        <ele>1254</ele>
        <time>2024-09-21T10:27:08Z</time>
      </trkpt>
      <trkpt lat="42.42421" lon="2.73932">
        <ele>1253</ele>
        <time>2024-09-21T10:27:11Z</time>
      </trkpt>
      <trkpt lat="42.42419" lon="2.73934">
        <ele>1252</ele>
        <time>2024-09-21T10:27:13Z</time>
      </trkpt>
      <trkpt lat="42.42418" lon="2.73938">
        <ele>1249</ele>
        <time>2024-09-21T10:27:19Z</time>
      </trkpt>
      <trkpt lat="42.42418" lon="2.73942">
        <ele>1248</ele>
        <time>2024-09-21T10:27:22Z</time>
      </trkpt>
      <trkpt lat="42.42417" lon="2.73945">
        <ele>1248</ele>
        <time>2024-09-21T10:27:24Z</time>
      </trkpt>
      <trkpt lat="42.42416" lon="2.7395">
        <ele>1249</ele>
        <time>2024-09-21T10:27:26Z</time>
      </trkpt>
      <trkpt lat="42.42417" lon="2.73954">
        <ele>1248</ele>
        <time>2024-09-21T10:27:30Z</time>
      </trkpt>
      <trkpt lat="42.42417" lon="2.73958">
        <ele>1246</ele>
        <time>2024-09-21T10:27:34Z</time>
      </trkpt>
      <trkpt lat="42.42417" lon="2.73962">
        <ele>1246</ele>
        <time>2024-09-21T10:27:39Z</time>
      </trkpt>
      <trkpt lat="42.42416" lon="2.73965">
        <ele>1245</ele>
        <time>2024-09-21T10:27:43Z</time>
      </trkpt>
      <trkpt lat="42.42416" lon="2.73968">
        <ele>1244</ele>
        <time>2024-09-21T10:27:46Z</time>
      </trkpt>
      <trkpt lat="42.42417" lon="2.73972">
        <ele>1244</ele>
        <time>2024-09-21T10:27:48Z</time>
      </trkpt>
      <trkpt lat="42.42418" lon="2.73977">
        <ele>1245</ele>
        <time>2024-09-21T10:27:51Z</time>
      </trkpt>
      <trkpt lat="42.42418" lon="2.73981">
        <ele>1245</ele>
        <time>2024-09-21T10:27:54Z</time>
      </trkpt>
      <trkpt lat="42.42418" lon="2.73986">
        <ele>1244</ele>
        <time>2024-09-21T10:27:59Z</time>
      </trkpt>
      <trkpt lat="42.42418" lon="2.7399">
        <ele>1244</ele>
        <time>2024-09-21T10:28:02Z</time>
      </trkpt>
      <trkpt lat="42.42416" lon="2.73991">
        <ele>1244</ele>
        <time>2024-09-21T10:28:27Z</time>
      </trkpt>
      <trkpt lat="42.42413" lon="2.73992">
        <ele>1246</ele>
        <time>2024-09-21T10:28:29Z</time>
      </trkpt>
      <trkpt lat="42.42411" lon="2.73994">
        <ele>1245</ele>
        <time>2024-09-21T10:28:31Z</time>
      </trkpt>
      <trkpt lat="42.42408" lon="2.73998">
        <ele>1247</ele>
        <time>2024-09-21T10:28:35Z</time>
      </trkpt>
      <trkpt lat="42.42405" lon="2.74">
        <ele>1246</ele>
        <time>2024-09-21T10:28:38Z</time>
      </trkpt>
      <trkpt lat="42.42402" lon="2.74">
        <ele>1246</ele>
        <time>2024-09-21T10:28:39Z</time>
      </trkpt>
      <trkpt lat="42.424" lon="2.74002">
        <ele>1244</ele>
        <time>2024-09-21T10:28:42Z</time>
      </trkpt>
      <trkpt lat="42.42399" lon="2.74006">
        <ele>1244</ele>
        <time>2024-09-21T10:28:54Z</time>
      </trkpt>
      <trkpt lat="42.424" lon="2.74006">
        <ele>1245</ele>
        <time>2024-09-21T10:28:57Z</time>
      </trkpt>
      <trkpt lat="42.42403" lon="2.74004">
        <ele>1245</ele>
        <time>2024-09-21T10:29:00Z</time>
      </trkpt>
      <trkpt lat="42.42405" lon="2.74004">
        <ele>1245</ele>
        <time>2024-09-21T10:29:02Z</time>
      </trkpt>
      <trkpt lat="42.42408" lon="2.74003">
        <ele>1245</ele>
        <time>2024-09-21T10:29:05Z</time>
      </trkpt>
      <trkpt lat="42.42411" lon="2.74002">
        <ele>1245</ele>
        <time>2024-09-21T10:29:08Z</time>
      </trkpt>
      <trkpt lat="42.42413" lon="2.73999">
        <ele>1244</ele>
        <time>2024-09-21T10:29:11Z</time>
      </trkpt>
      <trkpt lat="42.42415" lon="2.73995">
        <ele>1244</ele>
        <time>2024-09-21T10:29:14Z</time>
      </trkpt>
      <trkpt lat="42.42418" lon="2.73993">
        <ele>1246</ele>
        <time>2024-09-21T10:29:23Z</time>
      </trkpt>
      <trkpt lat="42.42418" lon="2.73995">
        <ele>1245</ele>
        <time>2024-09-21T10:30:03Z</time>
      </trkpt>
      <trkpt lat="42.42416" lon="2.73996">
        <ele>1244</ele>
        <time>2024-09-21T10:30:11Z</time>
      </trkpt>
      <trkpt lat="42.42414" lon="2.73997">
        <ele>1245</ele>
        <time>2024-09-21T10:30:20Z</time>
      </trkpt>
      <trkpt lat="42.42413" lon="2.74">
        <ele>1246</ele>
        <time>2024-09-21T10:30:23Z</time>
      </trkpt>
      <trkpt lat="42.42412" lon="2.74004">
        <ele>1246</ele>
        <time>2024-09-21T10:30:27Z</time>
      </trkpt>
      <trkpt lat="42.4241" lon="2.74006">
        <ele>1245</ele>
        <time>2024-09-21T10:30:55Z</time>
      </trkpt>
      <trkpt lat="42.42408" lon="2.74004">
        <ele>1245</ele>
        <time>2024-09-21T10:31:09Z</time>
      </trkpt>
      <trkpt lat="42.42407" lon="2.74001">
        <ele>1244</ele>
        <time>2024-09-21T10:31:16Z</time>
      </trkpt>
      <trkpt lat="42.42409" lon="2.73999">
        <ele>1245</ele>
        <time>2024-09-21T10:31:42Z</time>
      </trkpt>
      <trkpt lat="42.42411" lon="2.73997">
        <ele>1245</ele>
        <time>2024-09-21T10:31:44Z</time>
      </trkpt>
      <trkpt lat="42.42414" lon="2.73995">
        <ele>1245</ele>
        <time>2024-09-21T10:31:47Z</time>
      </trkpt>
      <trkpt lat="42.42416" lon="2.73993">
        <ele>1247</ele>
        <time>2024-09-21T10:32:02Z</time>
      </trkpt>
      <trkpt lat="42.42419" lon="2.73991">
        <ele>1245</ele>
        <time>2024-09-21T10:32:23Z</time>
      </trkpt>
      <trkpt lat="42.42422" lon="2.73991">
        <ele>1246</ele>
        <time>2024-09-21T10:32:34Z</time>
      </trkpt>
      <trkpt lat="42.42425" lon="2.73991">
        <ele>1244</ele>
        <time>2024-09-21T10:32:37Z</time>
      </trkpt>
      <trkpt lat="42.42428" lon="2.73991">
        <ele>1240</ele>
        <time>2024-09-21T10:32:41Z</time>
      </trkpt>
      <trkpt lat="42.42429" lon="2.73994">
        <ele>1240</ele>
        <time>2024-09-21T10:32:44Z</time>
      </trkpt>
      <trkpt lat="42.42432" lon="2.73994">
        <ele>1238</ele>
        <time>2024-09-21T10:32:48Z</time>
      </trkpt>
      <trkpt lat="42.42434" lon="2.73994">
        <ele>1236</ele>
        <time>2024-09-21T10:32:55Z</time>
      </trkpt>
      <trkpt lat="42.42437" lon="2.73996">
        <ele>1236</ele>
        <time>2024-09-21T10:32:59Z</time>
      </trkpt>
      <trkpt lat="42.42439" lon="2.73999">
        <ele>1234</ele>
        <time>2024-09-21T10:33:03Z</time>
      </trkpt>
      <trkpt lat="42.42441" lon="2.73998">
        <ele>1234</ele>
        <time>2024-09-21T10:33:06Z</time>
      </trkpt>
      <trkpt lat="42.42444" lon="2.73998">
        <ele>1234</ele>
        <time>2024-09-21T10:33:11Z</time>
      </trkpt>
      <trkpt lat="42.42447" lon="2.73996">
        <ele>1231</ele>
        <time>2024-09-21T10:33:17Z</time>
      </trkpt>
      <trkpt lat="42.4245" lon="2.73997">
        <ele>1232</ele>
        <time>2024-09-21T10:33:22Z</time>
      </trkpt>
      <trkpt lat="42.42453" lon="2.73997">
        <ele>1230</ele>
        <time>2024-09-21T10:33:27Z</time>
      </trkpt>
      <trkpt lat="42.42456" lon="2.73998">
        <ele>1230</ele>
        <time>2024-09-21T10:33:30Z</time>
      </trkpt>
      <trkpt lat="42.42458" lon="2.74002">
        <ele>1229</ele>
        <time>2024-09-21T10:33:33Z</time>
      </trkpt>
      <trkpt lat="42.42457" lon="2.74006">
        <ele>1228</ele>
        <time>2024-09-21T10:33:36Z</time>
      </trkpt>
      <trkpt lat="42.42458" lon="2.7401">
        <ele>1228</ele>
        <time>2024-09-21T10:33:39Z</time>
      </trkpt>
      <trkpt lat="42.42459" lon="2.74013">
        <ele>1227</ele>
        <time>2024-09-21T10:33:43Z</time>
      </trkpt>
      <trkpt lat="42.4246" lon="2.74017">
        <ele>1228</ele>
        <time>2024-09-21T10:33:46Z</time>
      </trkpt>
      <trkpt lat="42.42462" lon="2.7402">
        <ele>1227</ele>
        <time>2024-09-21T10:33:50Z</time>
      </trkpt>
      <trkpt lat="42.42464" lon="2.74023">
        <ele>1225</ele>
        <time>2024-09-21T10:33:55Z</time>
      </trkpt>
      <trkpt lat="42.42466" lon="2.74026">
        <ele>1225</ele>
        <time>2024-09-21T10:33:58Z</time>
      </trkpt>
      <trkpt lat="42.42469" lon="2.74029">
        <ele>1223</ele>
        <time>2024-09-21T10:34:02Z</time>
      </trkpt>
      <trkpt lat="42.42471" lon="2.7403">
        <ele>1222</ele>
        <time>2024-09-21T10:34:06Z</time>
      </trkpt>
      <trkpt lat="42.42473" lon="2.74034">
        <ele>1221</ele>
        <time>2024-09-21T10:34:08Z</time>
      </trkpt>
      <trkpt lat="42.42475" lon="2.74035">
        <ele>1220</ele>
        <time>2024-09-21T10:34:12Z</time>
      </trkpt>
      <trkpt lat="42.42479" lon="2.74034">
        <ele>1220</ele>
        <time>2024-09-21T10:34:14Z</time>
      </trkpt>
      <trkpt lat="42.42482" lon="2.74034">
        <ele>1220</ele>
        <time>2024-09-21T10:34:17Z</time>
      </trkpt>
      <trkpt lat="42.42486" lon="2.74035">
        <ele>1218</ele>
        <time>2024-09-21T10:34:21Z</time>
      </trkpt>
      <trkpt lat="42.42489" lon="2.74035">
        <ele>1217</ele>
        <time>2024-09-21T10:34:25Z</time>
      </trkpt>
      <trkpt lat="42.42492" lon="2.74035">
        <ele>1217</ele>
        <time>2024-09-21T10:34:29Z</time>
      </trkpt>
      <trkpt lat="42.42495" lon="2.74035">
        <ele>1215</ele>
        <time>2024-09-21T10:34:33Z</time>
      </trkpt>
      <trkpt lat="42.42499" lon="2.74034">
        <ele>1214</ele>
        <time>2024-09-21T10:34:40Z</time>
      </trkpt>
      <trkpt lat="42.42501" lon="2.74032">
        <ele>1212</ele>
        <time>2024-09-21T10:34:44Z</time>
      </trkpt>
      <trkpt lat="42.42504" lon="2.7403">
        <ele>1213</ele>
        <time>2024-09-21T10:34:49Z</time>
      </trkpt>
      <trkpt lat="42.42508" lon="2.7403">
        <ele>1209</ele>
        <time>2024-09-21T10:34:54Z</time>
      </trkpt>
      <trkpt lat="42.4251" lon="2.74029">
        <ele>1208</ele>
        <time>2024-09-21T10:34:59Z</time>
      </trkpt>
      <trkpt lat="42.42513" lon="2.74029">
        <ele>1208</ele>
        <time>2024-09-21T10:35:01Z</time>
      </trkpt>
      <trkpt lat="42.42514" lon="2.74032">
        <ele>1207</ele>
        <time>2024-09-21T10:35:04Z</time>
      </trkpt>
      <trkpt lat="42.42517" lon="2.74035">
        <ele>1207</ele>
        <time>2024-09-21T10:35:06Z</time>
      </trkpt>
      <trkpt lat="42.42519" lon="2.74038">
        <ele>1208</ele>
        <time>2024-09-21T10:35:08Z</time>
      </trkpt>
      <trkpt lat="42.42521" lon="2.7404">
        <ele>1208</ele>
        <time>2024-09-21T10:35:10Z</time>
      </trkpt>
      <trkpt lat="42.42524" lon="2.74042">
        <ele>1208</ele>
        <time>2024-09-21T10:35:14Z</time>
      </trkpt>
      <trkpt lat="42.42527" lon="2.74041">
        <ele>1207</ele>
        <time>2024-09-21T10:35:17Z</time>
      </trkpt>
      <trkpt lat="42.4253" lon="2.74038">
        <ele>1206</ele>
        <time>2024-09-21T10:35:19Z</time>
      </trkpt>
      <trkpt lat="42.42532" lon="2.74035">
        <ele>1205</ele>
        <time>2024-09-21T10:35:21Z</time>
      </trkpt>
      <trkpt lat="42.42534" lon="2.74031">
        <ele>1203</ele>
        <time>2024-09-21T10:35:24Z</time>
      </trkpt>
      <trkpt lat="42.42536" lon="2.74028">
        <ele>1203</ele>
        <time>2024-09-21T10:35:27Z</time>
      </trkpt>
      <trkpt lat="42.42539" lon="2.74025">
        <ele>1201</ele>
        <time>2024-09-21T10:35:30Z</time>
      </trkpt>
      <trkpt lat="42.42542" lon="2.74026">
        <ele>1202</ele>
        <time>2024-09-21T10:35:33Z</time>
      </trkpt>
      <trkpt lat="42.42541" lon="2.74024">
        <ele>1202</ele>
        <time>2024-09-21T10:35:40Z</time>
      </trkpt>
      <trkpt lat="42.42539" lon="2.74022">
        <ele>1205</ele>
        <time>2024-09-21T10:35:48Z</time>
      </trkpt>
      <trkpt lat="42.42538" lon="2.74018">
        <ele>1204</ele>
        <time>2024-09-21T10:35:52Z</time>
      </trkpt>
      <trkpt lat="42.42539" lon="2.74019">
        <ele>1203</ele>
        <time>2024-09-21T10:35:56Z</time>
      </trkpt>
      <trkpt lat="42.42538" lon="2.74016">
        <ele>1203</ele>
        <time>2024-09-21T10:35:59Z</time>
      </trkpt>
      <trkpt lat="42.42537" lon="2.74017">
        <ele>1202</ele>
        <time>2024-09-21T10:36:07Z</time>
      </trkpt>
      <trkpt lat="42.42537" lon="2.7402">
        <ele>1201</ele>
        <time>2024-09-21T10:36:11Z</time>
      </trkpt>
      <trkpt lat="42.42536" lon="2.74025">
        <ele>1201</ele>
        <time>2024-09-21T10:36:18Z</time>
      </trkpt>
      <trkpt lat="42.42538" lon="2.74027">
        <ele>1202</ele>
        <time>2024-09-21T10:36:23Z</time>
      </trkpt>
      <trkpt lat="42.42541" lon="2.74028">
        <ele>1202</ele>
        <time>2024-09-21T10:36:28Z</time>
      </trkpt>
      <trkpt lat="42.42543" lon="2.7403">
        <ele>1202</ele>
        <time>2024-09-21T10:36:34Z</time>
      </trkpt>
      <trkpt lat="42.42547" lon="2.74033">
        <ele>1202</ele>
        <time>2024-09-21T10:36:36Z</time>
      </trkpt>
      <trkpt lat="42.4255" lon="2.74035">
        <ele>1202</ele>
        <time>2024-09-21T10:36:39Z</time>
      </trkpt>
      <trkpt lat="42.42551" lon="2.74039">
        <ele>1201</ele>
        <time>2024-09-21T10:36:41Z</time>
      </trkpt>
      <trkpt lat="42.42553" lon="2.74044">
        <ele>1199</ele>
        <time>2024-09-21T10:36:46Z</time>
      </trkpt>
      <trkpt lat="42.42554" lon="2.74049">
        <ele>1199</ele>
        <time>2024-09-21T10:36:49Z</time>
      </trkpt>
      <trkpt lat="42.42555" lon="2.74054">
        <ele>1199</ele>
        <time>2024-09-21T10:36:53Z</time>
      </trkpt>
      <trkpt lat="42.42557" lon="2.74057">
        <ele>1199</ele>
        <time>2024-09-21T10:36:57Z</time>
      </trkpt>
      <trkpt lat="42.42558" lon="2.74062">
        <ele>1199</ele>
        <time>2024-09-21T10:36:59Z</time>
      </trkpt>
      <trkpt lat="42.42561" lon="2.74065">
        <ele>1200</ele>
        <time>2024-09-21T10:37:01Z</time>
      </trkpt>
      <trkpt lat="42.42563" lon="2.74068">
        <ele>1199</ele>
        <time>2024-09-21T10:37:04Z</time>
      </trkpt>
      <trkpt lat="42.42565" lon="2.74071">
        <ele>1197</ele>
        <time>2024-09-21T10:37:07Z</time>
      </trkpt>
      <trkpt lat="42.42565" lon="2.74075">
        <ele>1196</ele>
        <time>2024-09-21T10:37:10Z</time>
      </trkpt>
      <trkpt lat="42.42566" lon="2.74079">
        <ele>1193</ele>
        <time>2024-09-21T10:37:14Z</time>
      </trkpt>
      <trkpt lat="42.42568" lon="2.74082">
        <ele>1192</ele>
        <time>2024-09-21T10:37:17Z</time>
      </trkpt>
      <trkpt lat="42.42571" lon="2.74085">
        <ele>1192</ele>
        <time>2024-09-21T10:37:23Z</time>
      </trkpt>
      <trkpt lat="42.42573" lon="2.74089">
        <ele>1192</ele>
        <time>2024-09-21T10:37:27Z</time>
      </trkpt>
      <trkpt lat="42.42575" lon="2.74093">
        <ele>1192</ele>
        <time>2024-09-21T10:37:29Z</time>
      </trkpt>
      <trkpt lat="42.42576" lon="2.74097">
        <ele>1189</ele>
        <time>2024-09-21T10:37:32Z</time>
      </trkpt>
      <trkpt lat="42.42578" lon="2.74099">
        <ele>1189</ele>
        <time>2024-09-21T10:37:36Z</time>
      </trkpt>
      <trkpt lat="42.42582" lon="2.74099">
        <ele>1188</ele>
        <time>2024-09-21T10:37:38Z</time>
      </trkpt>
      <trkpt lat="42.42585" lon="2.74101">
        <ele>1187</ele>
        <time>2024-09-21T10:37:41Z</time>
      </trkpt>
      <trkpt lat="42.42586" lon="2.74105">
        <ele>1186</ele>
        <time>2024-09-21T10:37:44Z</time>
      </trkpt>
      <trkpt lat="42.42588" lon="2.74108">
        <ele>1186</ele>
        <time>2024-09-21T10:37:48Z</time>
      </trkpt>
      <trkpt lat="42.4259" lon="2.74112">
        <ele>1186</ele>
        <time>2024-09-21T10:37:52Z</time>
      </trkpt>
      <trkpt lat="42.42592" lon="2.74115">
        <ele>1185</ele>
        <time>2024-09-21T10:37:55Z</time>
      </trkpt>
      <trkpt lat="42.42595" lon="2.74119">
        <ele>1185</ele>
        <time>2024-09-21T10:37:59Z</time>
      </trkpt>
      <trkpt lat="42.42597" lon="2.74122">
        <ele>1185</ele>
        <time>2024-09-21T10:38:02Z</time>
      </trkpt>
      <trkpt lat="42.426" lon="2.74125">
        <ele>1185</ele>
        <time>2024-09-21T10:38:04Z</time>
      </trkpt>
      <trkpt lat="42.42602" lon="2.74128">
        <ele>1184</ele>
        <time>2024-09-21T10:38:09Z</time>
      </trkpt>
      <trkpt lat="42.42604" lon="2.74132">
        <ele>1183</ele>
        <time>2024-09-21T10:38:13Z</time>
      </trkpt>
      <trkpt lat="42.42606" lon="2.74134">
        <ele>1182</ele>
        <time>2024-09-21T10:38:16Z</time>
      </trkpt>
      <trkpt lat="42.42607" lon="2.74138">
        <ele>1182</ele>
        <time>2024-09-21T10:38:19Z</time>
      </trkpt>
      <trkpt lat="42.42608" lon="2.74143">
        <ele>1182</ele>
        <time>2024-09-21T10:38:22Z</time>
      </trkpt>
      <trkpt lat="42.42608" lon="2.74147">
        <ele>1182</ele>
        <time>2024-09-21T10:38:26Z</time>
      </trkpt>
      <trkpt lat="42.42609" lon="2.74151">
        <ele>1182</ele>
        <time>2024-09-21T10:38:29Z</time>
      </trkpt>
      <trkpt lat="42.4261" lon="2.74155">
        <ele>1182</ele>
        <time>2024-09-21T10:38:32Z</time>
      </trkpt>
      <trkpt lat="42.42612" lon="2.74157">
        <ele>1180</ele>
        <time>2024-09-21T10:38:39Z</time>
      </trkpt>
      <trkpt lat="42.42613" lon="2.74161">
        <ele>1179</ele>
        <time>2024-09-21T10:38:43Z</time>
      </trkpt>
      <trkpt lat="42.42616" lon="2.74164">
        <ele>1179</ele>
        <time>2024-09-21T10:38:48Z</time>
      </trkpt>
      <trkpt lat="42.42618" lon="2.74168">
        <ele>1177</ele>
        <time>2024-09-21T10:38:54Z</time>
      </trkpt>
      <trkpt lat="42.4262" lon="2.74171">
        <ele>1178</ele>
        <time>2024-09-21T10:38:57Z</time>
      </trkpt>
      <trkpt lat="42.42621" lon="2.74174">
        <ele>1177</ele>
        <time>2024-09-21T10:39:00Z</time>
      </trkpt>
      <trkpt lat="42.42623" lon="2.74178">
        <ele>1177</ele>
        <time>2024-09-21T10:39:03Z</time>
      </trkpt>
      <trkpt lat="42.42624" lon="2.74182">
        <ele>1176</ele>
        <time>2024-09-21T10:39:07Z</time>
      </trkpt>
      <trkpt lat="42.42626" lon="2.74185">
        <ele>1176</ele>
        <time>2024-09-21T10:39:11Z</time>
      </trkpt>
      <trkpt lat="42.42627" lon="2.74188">
        <ele>1175</ele>
        <time>2024-09-21T10:39:17Z</time>
      </trkpt>
      <trkpt lat="42.4263" lon="2.74192">
        <ele>1174</ele>
        <time>2024-09-21T10:39:21Z</time>
      </trkpt>
      <trkpt lat="42.42631" lon="2.74195">
        <ele>1173</ele>
        <time>2024-09-21T10:39:26Z</time>
      </trkpt>
      <trkpt lat="42.42633" lon="2.74198">
        <ele>1172</ele>
        <time>2024-09-21T10:39:34Z</time>
      </trkpt>
      <trkpt lat="42.42634" lon="2.74202">
        <ele>1172</ele>
        <time>2024-09-21T10:39:42Z</time>
      </trkpt>
      <trkpt lat="42.42636" lon="2.74206">
        <ele>1171</ele>
        <time>2024-09-21T10:39:48Z</time>
      </trkpt>
      <trkpt lat="42.42637" lon="2.7421">
        <ele>1171</ele>
        <time>2024-09-21T10:39:54Z</time>
      </trkpt>
      <trkpt lat="42.42639" lon="2.74214">
        <ele>1171</ele>
        <time>2024-09-21T10:39:58Z</time>
      </trkpt>
      <trkpt lat="42.42641" lon="2.74216">
        <ele>1171</ele>
        <time>2024-09-21T10:40:03Z</time>
      </trkpt>
      <trkpt lat="42.42644" lon="2.74217">
        <ele>1171</ele>
        <time>2024-09-21T10:40:16Z</time>
      </trkpt>
      <trkpt lat="42.42645" lon="2.7422">
        <ele>1167</ele>
        <time>2024-09-21T10:40:40Z</time>
      </trkpt>
      <trkpt lat="42.42647" lon="2.74223">
        <ele>1168</ele>
        <time>2024-09-21T10:40:44Z</time>
      </trkpt>
      <trkpt lat="42.4265" lon="2.74225">
        <ele>1168</ele>
        <time>2024-09-21T10:40:47Z</time>
      </trkpt>
      <trkpt lat="42.42652" lon="2.74228">
        <ele>1169</ele>
        <time>2024-09-21T10:40:51Z</time>
      </trkpt>
      <trkpt lat="42.42654" lon="2.74231">
        <ele>1168</ele>
        <time>2024-09-21T10:40:56Z</time>
      </trkpt>
      <trkpt lat="42.42656" lon="2.74233">
        <ele>1168</ele>
        <time>2024-09-21T10:41:00Z</time>
      </trkpt>
      <trkpt lat="42.42658" lon="2.74236">
        <ele>1167</ele>
        <time>2024-09-21T10:41:03Z</time>
      </trkpt>
      <trkpt lat="42.4266" lon="2.74239">
        <ele>1166</ele>
        <time>2024-09-21T10:41:06Z</time>
      </trkpt>
      <trkpt lat="42.42662" lon="2.74241">
        <ele>1165</ele>
        <time>2024-09-21T10:41:09Z</time>
      </trkpt>
      <trkpt lat="42.42663" lon="2.7424">
        <ele>1164</ele>
        <time>2024-09-21T10:41:29Z</time>
      </trkpt>
      <trkpt lat="42.42662" lon="2.74238">
        <ele>1163</ele>
        <time>2024-09-21T10:41:47Z</time>
      </trkpt>
      <trkpt lat="42.42663" lon="2.7424">
        <ele>1160</ele>
        <time>2024-09-21T10:42:42Z</time>
      </trkpt>
      <trkpt lat="42.42664" lon="2.74243">
        <ele>1158</ele>
        <time>2024-09-21T10:43:25Z</time>
      </trkpt>
      <trkpt lat="42.42662" lon="2.74244">
        <ele>1159</ele>
        <time>2024-09-21T10:43:37Z</time>
      </trkpt>
      <trkpt lat="42.42662" lon="2.74241">
        <ele>1166</ele>
        <time>2024-09-21T10:46:22Z</time>
      </trkpt>
      <trkpt lat="42.42662" lon="2.74242">
        <ele>1163</ele>
        <time>2024-09-21T10:46:28Z</time>
      </trkpt>
      <trkpt lat="42.42663" lon="2.74245">
        <ele>1160</ele>
        <time>2024-09-21T10:46:33Z</time>
      </trkpt>
      <trkpt lat="42.42666" lon="2.74247">
        <ele>1160</ele>
        <time>2024-09-21T10:46:36Z</time>
      </trkpt>
      <trkpt lat="42.42668" lon="2.74248">
        <ele>1160</ele>
        <time>2024-09-21T10:46:39Z</time>
      </trkpt>
      <trkpt lat="42.42671" lon="2.7425">
        <ele>1159</ele>
        <time>2024-09-21T10:46:42Z</time>
      </trkpt>
      <trkpt lat="42.42674" lon="2.74251">
        <ele>1161</ele>
        <time>2024-09-21T10:46:45Z</time>
      </trkpt>
      <trkpt lat="42.42678" lon="2.7425">
        <ele>1162</ele>
        <time>2024-09-21T10:46:48Z</time>
      </trkpt>
      <trkpt lat="42.4268" lon="2.74252">
        <ele>1161</ele>
        <time>2024-09-21T10:46:53Z</time>
      </trkpt>
      <trkpt lat="42.42682" lon="2.74254">
        <ele>1161</ele>
        <time>2024-09-21T10:46:59Z</time>
      </trkpt>
      <trkpt lat="42.42683" lon="2.74258">
        <ele>1161</ele>
        <time>2024-09-21T10:47:01Z</time>
      </trkpt>
      <trkpt lat="42.42685" lon="2.74259">
        <ele>1159</ele>
        <time>2024-09-21T10:47:03Z</time>
      </trkpt>
      <trkpt lat="42.42686" lon="2.74262">
        <ele>1159</ele>
        <time>2024-09-21T10:47:05Z</time>
      </trkpt>
      <trkpt lat="42.42688" lon="2.74265">
        <ele>1158</ele>
        <time>2024-09-21T10:47:11Z</time>
      </trkpt>
      <trkpt lat="42.42689" lon="2.74268">
        <ele>1158</ele>
        <time>2024-09-21T10:47:13Z</time>
      </trkpt>
      <trkpt lat="42.42689" lon="2.74272">
        <ele>1157</ele>
        <time>2024-09-21T10:47:17Z</time>
      </trkpt>
      <trkpt lat="42.42688" lon="2.74276">
        <ele>1157</ele>
        <time>2024-09-21T10:47:19Z</time>
      </trkpt>
      <trkpt lat="42.4269" lon="2.74279">
        <ele>1155</ele>
        <time>2024-09-21T10:47:23Z</time>
      </trkpt>
      <trkpt lat="42.42692" lon="2.74282">
        <ele>1155</ele>
        <time>2024-09-21T10:47:29Z</time>
      </trkpt>
      <trkpt lat="42.42694" lon="2.74285">
        <ele>1156</ele>
        <time>2024-09-21T10:47:33Z</time>
      </trkpt>
      <trkpt lat="42.42696" lon="2.74289">
        <ele>1157</ele>
        <time>2024-09-21T10:47:37Z</time>
      </trkpt>
      <trkpt lat="42.42698" lon="2.74292">
        <ele>1154</ele>
        <time>2024-09-21T10:47:40Z</time>
      </trkpt>
      <trkpt lat="42.427" lon="2.74295">
        <ele>1155</ele>
        <time>2024-09-21T10:47:44Z</time>
      </trkpt>
      <trkpt lat="42.42702" lon="2.74298">
        <ele>1154</ele>
        <time>2024-09-21T10:47:47Z</time>
      </trkpt>
      <trkpt lat="42.42704" lon="2.74301">
        <ele>1154</ele>
        <time>2024-09-21T10:47:52Z</time>
      </trkpt>
      <trkpt lat="42.42705" lon="2.74305">
        <ele>1154</ele>
        <time>2024-09-21T10:47:54Z</time>
      </trkpt>
      <trkpt lat="42.42707" lon="2.74308">
        <ele>1155</ele>
        <time>2024-09-21T10:47:57Z</time>
      </trkpt>
      <trkpt lat="42.42709" lon="2.74312">
        <ele>1153</ele>
        <time>2024-09-21T10:48:01Z</time>
      </trkpt>
      <trkpt lat="42.42711" lon="2.74316">
        <ele>1153</ele>
        <time>2024-09-21T10:48:04Z</time>
      </trkpt>
      <trkpt lat="42.42713" lon="2.7432">
        <ele>1153</ele>
        <time>2024-09-21T10:48:07Z</time>
      </trkpt>
      <trkpt lat="42.42716" lon="2.74323">
        <ele>1153</ele>
        <time>2024-09-21T10:48:11Z</time>
      </trkpt>
      <trkpt lat="42.42718" lon="2.74326">
        <ele>1152</ele>
        <time>2024-09-21T10:48:15Z</time>
      </trkpt>
      <trkpt lat="42.4272" lon="2.74329">
        <ele>1152</ele>
        <time>2024-09-21T10:48:17Z</time>
      </trkpt>
      <trkpt lat="42.42722" lon="2.74331">
        <ele>1152</ele>
        <time>2024-09-21T10:48:20Z</time>
      </trkpt>
      <trkpt lat="42.42723" lon="2.74335">
        <ele>1152</ele>
        <time>2024-09-21T10:48:23Z</time>
      </trkpt>
      <trkpt lat="42.42724" lon="2.74338">
        <ele>1152</ele>
        <time>2024-09-21T10:48:24Z</time>
      </trkpt>
      <trkpt lat="42.42725" lon="2.74342">
        <ele>1153</ele>
        <time>2024-09-21T10:48:25Z</time>
      </trkpt>
      <trkpt lat="42.42728" lon="2.74345">
        <ele>1152</ele>
        <time>2024-09-21T10:48:30Z</time>
      </trkpt>
      <trkpt lat="42.42731" lon="2.74347">
        <ele>1151</ele>
        <time>2024-09-21T10:48:34Z</time>
      </trkpt>
      <trkpt lat="42.42734" lon="2.74349">
        <ele>1151</ele>
        <time>2024-09-21T10:48:36Z</time>
      </trkpt>
      <trkpt lat="42.42737" lon="2.74351">
        <ele>1149</ele>
        <time>2024-09-21T10:48:40Z</time>
      </trkpt>
      <trkpt lat="42.42739" lon="2.74354">
        <ele>1147</ele>
        <time>2024-09-21T10:48:43Z</time>
      </trkpt>
      <trkpt lat="42.42741" lon="2.74357">
        <ele>1146</ele>
        <time>2024-09-21T10:48:46Z</time>
      </trkpt>
      <trkpt lat="42.42744" lon="2.7436">
        <ele>1146</ele>
        <time>2024-09-21T10:48:50Z</time>
      </trkpt>
      <trkpt lat="42.42746" lon="2.74364">
        <ele>1145</ele>
        <time>2024-09-21T10:48:54Z</time>
      </trkpt>
      <trkpt lat="42.42747" lon="2.74368">
        <ele>1145</ele>
        <time>2024-09-21T10:48:57Z</time>
      </trkpt>
      <trkpt lat="42.42746" lon="2.74372">
        <ele>1145</ele>
        <time>2024-09-21T10:49:00Z</time>
      </trkpt>
      <trkpt lat="42.42744" lon="2.74375">
        <ele>1146</ele>
        <time>2024-09-21T10:49:04Z</time>
      </trkpt>
      <trkpt lat="42.42743" lon="2.74379">
        <ele>1144</ele>
        <time>2024-09-21T10:49:08Z</time>
      </trkpt>
      <trkpt lat="42.42745" lon="2.74382">
        <ele>1143</ele>
        <time>2024-09-21T10:49:13Z</time>
      </trkpt>
      <trkpt lat="42.42745" lon="2.74386">
        <ele>1142</ele>
        <time>2024-09-21T10:49:18Z</time>
      </trkpt>
      <trkpt lat="42.42746" lon="2.7439">
        <ele>1141</ele>
        <time>2024-09-21T10:49:23Z</time>
      </trkpt>
      <trkpt lat="42.42747" lon="2.74394">
        <ele>1139</ele>
        <time>2024-09-21T10:49:30Z</time>
      </trkpt>
      <trkpt lat="42.42748" lon="2.74397">
        <ele>1139</ele>
        <time>2024-09-21T10:49:33Z</time>
      </trkpt>
      <trkpt lat="42.4275" lon="2.74399">
        <ele>1136</ele>
        <time>2024-09-21T10:49:39Z</time>
      </trkpt>
      <trkpt lat="42.42753" lon="2.74399">
        <ele>1135</ele>
        <time>2024-09-21T10:49:44Z</time>
      </trkpt>
      <trkpt lat="42.42756" lon="2.74399">
        <ele>1134</ele>
        <time>2024-09-21T10:49:47Z</time>
      </trkpt>
      <trkpt lat="42.42758" lon="2.74402">
        <ele>1131</ele>
        <time>2024-09-21T10:49:53Z</time>
      </trkpt>
      <trkpt lat="42.42757" lon="2.74406">
        <ele>1128</ele>
        <time>2024-09-21T10:49:58Z</time>
      </trkpt>
      <trkpt lat="42.42755" lon="2.74409">
        <ele>1127</ele>
        <time>2024-09-21T10:50:01Z</time>
      </trkpt>
      <trkpt lat="42.42756" lon="2.74413">
        <ele>1127</ele>
        <time>2024-09-21T10:50:05Z</time>
      </trkpt>
      <trkpt lat="42.42758" lon="2.74414">
        <ele>1126</ele>
        <time>2024-09-21T10:50:08Z</time>
      </trkpt>
      <trkpt lat="42.42759" lon="2.74418">
        <ele>1124</ele>
        <time>2024-09-21T10:50:13Z</time>
      </trkpt>
      <trkpt lat="42.4276" lon="2.74422">
        <ele>1121</ele>
        <time>2024-09-21T10:50:21Z</time>
      </trkpt>
      <trkpt lat="42.42762" lon="2.74423">
        <ele>1121</ele>
        <time>2024-09-21T10:50:23Z</time>
      </trkpt>
      <trkpt lat="42.42765" lon="2.74422">
        <ele>1121</ele>
        <time>2024-09-21T10:50:26Z</time>
      </trkpt>
      <trkpt lat="42.42765" lon="2.74424">
        <ele>1121</ele>
        <time>2024-09-21T10:50:30Z</time>
      </trkpt>
      <trkpt lat="42.42767" lon="2.74427">
        <ele>1120</ele>
        <time>2024-09-21T10:50:35Z</time>
      </trkpt>
      <trkpt lat="42.42767" lon="2.74431">
        <ele>1118</ele>
        <time>2024-09-21T10:50:38Z</time>
      </trkpt>
      <trkpt lat="42.42766" lon="2.74434">
        <ele>1119</ele>
        <time>2024-09-21T10:50:40Z</time>
      </trkpt>
      <trkpt lat="42.42765" lon="2.74438">
        <ele>1117</ele>
        <time>2024-09-21T10:50:43Z</time>
      </trkpt>
      <trkpt lat="42.42763" lon="2.7444">
        <ele>1116</ele>
        <time>2024-09-21T10:50:47Z</time>
      </trkpt>
      <trkpt lat="42.42762" lon="2.74444">
        <ele>1115</ele>
        <time>2024-09-21T10:50:51Z</time>
      </trkpt>
      <trkpt lat="42.42761" lon="2.74447">
        <ele>1115</ele>
        <time>2024-09-21T10:50:53Z</time>
      </trkpt>
      <trkpt lat="42.42761" lon="2.74451">
        <ele>1115</ele>
        <time>2024-09-21T10:50:56Z</time>
      </trkpt>
      <trkpt lat="42.42763" lon="2.74452">
        <ele>1114</ele>
        <time>2024-09-21T10:50:59Z</time>
      </trkpt>
      <trkpt lat="42.42767" lon="2.74453">
        <ele>1113</ele>
        <time>2024-09-21T10:51:02Z</time>
      </trkpt>
      <trkpt lat="42.42769" lon="2.74457">
        <ele>1108</ele>
        <time>2024-09-21T10:51:13Z</time>
      </trkpt>
      <trkpt lat="42.42769" lon="2.74461">
        <ele>1110</ele>
        <time>2024-09-21T10:51:15Z</time>
      </trkpt>
      <trkpt lat="42.4277" lon="2.74465">
        <ele>1108</ele>
        <time>2024-09-21T10:51:18Z</time>
      </trkpt>
      <trkpt lat="42.42769" lon="2.74468">
        <ele>1107</ele>
        <time>2024-09-21T10:51:23Z</time>
      </trkpt>
      <trkpt lat="42.42767" lon="2.74472">
        <ele>1108</ele>
        <time>2024-09-21T10:51:26Z</time>
      </trkpt>
      <trkpt lat="42.42766" lon="2.74476">
        <ele>1108</ele>
        <time>2024-09-21T10:51:29Z</time>
      </trkpt>
      <trkpt lat="42.42766" lon="2.74481">
        <ele>1109</ele>
        <time>2024-09-21T10:51:31Z</time>
      </trkpt>
      <trkpt lat="42.42767" lon="2.74485">
        <ele>1108</ele>
        <time>2024-09-21T10:51:34Z</time>
      </trkpt>
      <trkpt lat="42.42768" lon="2.74489">
        <ele>1108</ele>
        <time>2024-09-21T10:51:37Z</time>
      </trkpt>
      <trkpt lat="42.42769" lon="2.74493">
        <ele>1107</ele>
        <time>2024-09-21T10:51:41Z</time>
      </trkpt>
      <trkpt lat="42.42771" lon="2.74493">
        <ele>1107</ele>
        <time>2024-09-21T10:51:42Z</time>
      </trkpt>
      <trkpt lat="42.42774" lon="2.74491">
        <ele>1102</ele>
        <time>2024-09-21T10:51:51Z</time>
      </trkpt>
      <trkpt lat="42.42776" lon="2.74493">
        <ele>1101</ele>
        <time>2024-09-21T10:51:53Z</time>
      </trkpt>
      <trkpt lat="42.42776" lon="2.74495">
        <ele>1101</ele>
        <time>2024-09-21T10:51:55Z</time>
      </trkpt>
      <trkpt lat="42.42775" lon="2.74498">
        <ele>1102</ele>
        <time>2024-09-21T10:51:57Z</time>
      </trkpt>
      <trkpt lat="42.42773" lon="2.74501">
        <ele>1101</ele>
        <time>2024-09-21T10:52:00Z</time>
      </trkpt>
      <trkpt lat="42.42772" lon="2.74506">
        <ele>1101</ele>
        <time>2024-09-21T10:52:04Z</time>
      </trkpt>
      <trkpt lat="42.42771" lon="2.74511">
        <ele>1102</ele>
        <time>2024-09-21T10:52:06Z</time>
      </trkpt>
      <trkpt lat="42.42771" lon="2.74515">
        <ele>1102</ele>
        <time>2024-09-21T10:52:09Z</time>
      </trkpt>
      <trkpt lat="42.42772" lon="2.74519">
        <ele>1101</ele>
        <time>2024-09-21T10:52:12Z</time>
      </trkpt>
      <trkpt lat="42.42772" lon="2.74523">
        <ele>1102</ele>
        <time>2024-09-21T10:52:15Z</time>
      </trkpt>
      <trkpt lat="42.42772" lon="2.74527">
        <ele>1101</ele>
        <time>2024-09-21T10:52:20Z</time>
      </trkpt>
      <trkpt lat="42.42771" lon="2.74531">
        <ele>1100</ele>
        <time>2024-09-21T10:52:22Z</time>
      </trkpt>
      <trkpt lat="42.42773" lon="2.74534">
        <ele>1100</ele>
        <time>2024-09-21T10:52:25Z</time>
      </trkpt>
      <trkpt lat="42.42773" lon="2.74538">
        <ele>1101</ele>
        <time>2024-09-21T10:52:26Z</time>
      </trkpt>
      <trkpt lat="42.42772" lon="2.74541">
        <ele>1101</ele>
        <time>2024-09-21T10:52:27Z</time>
      </trkpt>
      <trkpt lat="42.42773" lon="2.74544">
        <ele>1100</ele>
        <time>2024-09-21T10:52:31Z</time>
      </trkpt>
      <trkpt lat="42.42773" lon="2.74547">
        <ele>1099</ele>
        <time>2024-09-21T10:52:33Z</time>
      </trkpt>
      <trkpt lat="42.42775" lon="2.7455">
        <ele>1101</ele>
        <time>2024-09-21T10:52:34Z</time>
      </trkpt>
      <trkpt lat="42.42774" lon="2.74553">
        <ele>1100</ele>
        <time>2024-09-21T10:52:36Z</time>
      </trkpt>
      <trkpt lat="42.42777" lon="2.74557">
        <ele>1102</ele>
        <time>2024-09-21T10:52:39Z</time>
      </trkpt>
      <trkpt lat="42.42778" lon="2.7456">
        <ele>1101</ele>
        <time>2024-09-21T10:52:42Z</time>
      </trkpt>
      <trkpt lat="42.42779" lon="2.74564">
        <ele>1102</ele>
        <time>2024-09-21T10:52:47Z</time>
      </trkpt>
      <trkpt lat="42.42781" lon="2.74567">
        <ele>1102</ele>
        <time>2024-09-21T10:52:51Z</time>
      </trkpt>
      <trkpt lat="42.42783" lon="2.74569">
        <ele>1101</ele>
        <time>2024-09-21T10:52:55Z</time>
      </trkpt>
      <trkpt lat="42.42787" lon="2.7457">
        <ele>1098</ele>
        <time>2024-09-21T10:53:11Z</time>
      </trkpt>
      <trkpt lat="42.42788" lon="2.74573">
        <ele>1097</ele>
        <time>2024-09-21T10:53:14Z</time>
      </trkpt>
      <trkpt lat="42.42791" lon="2.74576">
        <ele>1096</ele>
        <time>2024-09-21T10:53:17Z</time>
      </trkpt>
      <trkpt lat="42.42793" lon="2.74579">
        <ele>1097</ele>
        <time>2024-09-21T10:53:20Z</time>
      </trkpt>
      <trkpt lat="42.42793" lon="2.74583">
        <ele>1096</ele>
        <time>2024-09-21T10:53:23Z</time>
      </trkpt>
      <trkpt lat="42.42793" lon="2.74587">
        <ele>1095</ele>
        <time>2024-09-21T10:53:27Z</time>
      </trkpt>
      <trkpt lat="42.42795" lon="2.74591">
        <ele>1096</ele>
        <time>2024-09-21T10:53:31Z</time>
      </trkpt>
      <trkpt lat="42.42796" lon="2.74595">
        <ele>1095</ele>
        <time>2024-09-21T10:53:34Z</time>
      </trkpt>
      <trkpt lat="42.42798" lon="2.74598">
        <ele>1094</ele>
        <time>2024-09-21T10:53:37Z</time>
      </trkpt>
      <trkpt lat="42.42799" lon="2.74602">
        <ele>1093</ele>
        <time>2024-09-21T10:53:42Z</time>
      </trkpt>
      <trkpt lat="42.42802" lon="2.74604">
        <ele>1092</ele>
        <time>2024-09-21T10:53:45Z</time>
      </trkpt>
      <trkpt lat="42.42803" lon="2.74607">
        <ele>1093</ele>
        <time>2024-09-21T10:53:48Z</time>
      </trkpt>
      <trkpt lat="42.42805" lon="2.74609">
        <ele>1092</ele>
        <time>2024-09-21T10:53:52Z</time>
      </trkpt>
      <trkpt lat="42.42808" lon="2.74613">
        <ele>1091</ele>
        <time>2024-09-21T10:53:56Z</time>
      </trkpt>
      <trkpt lat="42.42808" lon="2.74616">
        <ele>1091</ele>
        <time>2024-09-21T10:53:59Z</time>
      </trkpt>
      <trkpt lat="42.42808" lon="2.7462">
        <ele>1091</ele>
        <time>2024-09-21T10:54:03Z</time>
      </trkpt>
      <trkpt lat="42.42807" lon="2.74624">
        <ele>1091</ele>
        <time>2024-09-21T10:54:06Z</time>
      </trkpt>
      <trkpt lat="42.42809" lon="2.74628">
        <ele>1092</ele>
        <time>2024-09-21T10:54:13Z</time>
      </trkpt>
      <trkpt lat="42.42807" lon="2.74633">
        <ele>1092</ele>
        <time>2024-09-21T10:54:17Z</time>
      </trkpt>
      <trkpt lat="42.42808" lon="2.74635">
        <ele>1092</ele>
        <time>2024-09-21T10:54:20Z</time>
      </trkpt>
      <trkpt lat="42.4281" lon="2.74638">
        <ele>1092</ele>
        <time>2024-09-21T10:54:23Z</time>
      </trkpt>
      <trkpt lat="42.42811" lon="2.74642">
        <ele>1091</ele>
        <time>2024-09-21T10:54:25Z</time>
      </trkpt>
      <trkpt lat="42.42812" lon="2.74646">
        <ele>1091</ele>
        <time>2024-09-21T10:54:27Z</time>
      </trkpt>
      <trkpt lat="42.42813" lon="2.74651">
        <ele>1090</ele>
        <time>2024-09-21T10:54:30Z</time>
      </trkpt>
      <trkpt lat="42.42815" lon="2.74652">
        <ele>1089</ele>
        <time>2024-09-21T10:54:33Z</time>
      </trkpt>
      <trkpt lat="42.42817" lon="2.74653">
        <ele>1087</ele>
        <time>2024-09-21T10:54:39Z</time>
      </trkpt>
      <trkpt lat="42.42819" lon="2.74656">
        <ele>1089</ele>
        <time>2024-09-21T10:54:43Z</time>
      </trkpt>
      <trkpt lat="42.42818" lon="2.74658">
        <ele>1089</ele>
        <time>2024-09-21T10:54:47Z</time>
      </trkpt>
      <trkpt lat="42.42817" lon="2.74662">
        <ele>1089</ele>
        <time>2024-09-21T10:54:49Z</time>
      </trkpt>
      <trkpt lat="42.42816" lon="2.74665">
        <ele>1090</ele>
        <time>2024-09-21T10:54:50Z</time>
      </trkpt>
      <trkpt lat="42.42818" lon="2.74667">
        <ele>1089</ele>
        <time>2024-09-21T10:54:54Z</time>
      </trkpt>
      <trkpt lat="42.42821" lon="2.74665">
        <ele>1090</ele>
        <time>2024-09-21T10:55:14Z</time>
      </trkpt>
      <trkpt lat="42.42826" lon="2.74665">
        <ele>1089</ele>
        <time>2024-09-21T10:55:48Z</time>
      </trkpt>
      <trkpt lat="42.42827" lon="2.74667">
        <ele>1089</ele>
        <time>2024-09-21T10:55:51Z</time>
      </trkpt>
      <trkpt lat="42.42825" lon="2.74671">
        <ele>1089</ele>
        <time>2024-09-21T10:55:53Z</time>
      </trkpt>
      <trkpt lat="42.42824" lon="2.74675">
        <ele>1089</ele>
        <time>2024-09-21T10:55:57Z</time>
      </trkpt>
      <trkpt lat="42.42826" lon="2.74679">
        <ele>1090</ele>
        <time>2024-09-21T10:55:59Z</time>
      </trkpt>
      <trkpt lat="42.42828" lon="2.74683">
        <ele>1088</ele>
        <time>2024-09-21T10:56:06Z</time>
      </trkpt>
      <trkpt lat="42.42829" lon="2.74687">
        <ele>1086</ele>
        <time>2024-09-21T10:56:09Z</time>
      </trkpt>
      <trkpt lat="42.4283" lon="2.74691">
        <ele>1087</ele>
        <time>2024-09-21T10:56:11Z</time>
      </trkpt>
      <trkpt lat="42.4283" lon="2.74695">
        <ele>1088</ele>
        <time>2024-09-21T10:56:14Z</time>
      </trkpt>
      <trkpt lat="42.4283" lon="2.74698">
        <ele>1089</ele>
        <time>2024-09-21T10:56:18Z</time>
      </trkpt>
      <trkpt lat="42.42829" lon="2.74702">
        <ele>1088</ele>
        <time>2024-09-21T10:56:22Z</time>
      </trkpt>
      <trkpt lat="42.4283" lon="2.74706">
        <ele>1088</ele>
        <time>2024-09-21T10:56:25Z</time>
      </trkpt>
      <trkpt lat="42.4283" lon="2.7471">
        <ele>1089</ele>
        <time>2024-09-21T10:56:28Z</time>
      </trkpt>
      <trkpt lat="42.42828" lon="2.74714">
        <ele>1089</ele>
        <time>2024-09-21T10:56:32Z</time>
      </trkpt>
      <trkpt lat="42.42827" lon="2.74717">
        <ele>1089</ele>
        <time>2024-09-21T10:56:35Z</time>
      </trkpt>
      <trkpt lat="42.42826" lon="2.74721">
        <ele>1088</ele>
        <time>2024-09-21T10:56:39Z</time>
      </trkpt>
      <trkpt lat="42.42824" lon="2.74726">
        <ele>1087</ele>
        <time>2024-09-21T10:56:43Z</time>
      </trkpt>
      <trkpt lat="42.42824" lon="2.74731">
        <ele>1087</ele>
        <time>2024-09-21T10:56:45Z</time>
      </trkpt>
      <trkpt lat="42.42822" lon="2.74736">
        <ele>1085</ele>
        <time>2024-09-21T10:56:49Z</time>
      </trkpt>
      <trkpt lat="42.42822" lon="2.7474">
        <ele>1085</ele>
        <time>2024-09-21T10:56:52Z</time>
      </trkpt>
      <trkpt lat="42.42822" lon="2.74745">
        <ele>1083</ele>
        <time>2024-09-21T10:56:55Z</time>
      </trkpt>
      <trkpt lat="42.42821" lon="2.74748">
        <ele>1082</ele>
        <time>2024-09-21T10:56:57Z</time>
      </trkpt>
      <trkpt lat="42.42821" lon="2.74754">
        <ele>1082</ele>
        <time>2024-09-21T10:57:00Z</time>
      </trkpt>
      <trkpt lat="42.42822" lon="2.74758">
        <ele>1082</ele>
        <time>2024-09-21T10:57:05Z</time>
      </trkpt>
      <trkpt lat="42.42821" lon="2.74761">
        <ele>1082</ele>
        <time>2024-09-21T10:57:06Z</time>
      </trkpt>
      <trkpt lat="42.4282" lon="2.74765">
        <ele>1083</ele>
        <time>2024-09-21T10:57:11Z</time>
      </trkpt>
      <trkpt lat="42.42821" lon="2.74769">
        <ele>1083</ele>
        <time>2024-09-21T10:57:16Z</time>
      </trkpt>
      <trkpt lat="42.42821" lon="2.74774">
        <ele>1082</ele>
        <time>2024-09-21T10:57:19Z</time>
      </trkpt>
      <trkpt lat="42.42822" lon="2.74779">
        <ele>1083</ele>
        <time>2024-09-21T10:57:23Z</time>
      </trkpt>
      <trkpt lat="42.42824" lon="2.74783">
        <ele>1082</ele>
        <time>2024-09-21T10:57:28Z</time>
      </trkpt>
      <trkpt lat="42.42825" lon="2.74787">
        <ele>1082</ele>
        <time>2024-09-21T10:57:31Z</time>
      </trkpt>
      <trkpt lat="42.42824" lon="2.74792">
        <ele>1081</ele>
        <time>2024-09-21T10:57:34Z</time>
      </trkpt>
      <trkpt lat="42.42823" lon="2.74796">
        <ele>1080</ele>
        <time>2024-09-21T10:57:39Z</time>
      </trkpt>
      <trkpt lat="42.42822" lon="2.74801">
        <ele>1080</ele>
        <time>2024-09-21T10:57:44Z</time>
      </trkpt>
      <trkpt lat="42.42822" lon="2.74806">
        <ele>1081</ele>
        <time>2024-09-21T10:57:47Z</time>
      </trkpt>
      <trkpt lat="42.42823" lon="2.74811">
        <ele>1082</ele>
        <time>2024-09-21T10:57:51Z</time>
      </trkpt>
      <trkpt lat="42.42824" lon="2.74814">
        <ele>1081</ele>
        <time>2024-09-21T10:57:54Z</time>
      </trkpt>
      <trkpt lat="42.42825" lon="2.74818">
        <ele>1080</ele>
        <time>2024-09-21T10:57:57Z</time>
      </trkpt>
      <trkpt lat="42.42824" lon="2.74822">
        <ele>1080</ele>
        <time>2024-09-21T10:58:02Z</time>
      </trkpt>
      <trkpt lat="42.42821" lon="2.74823">
        <ele>1078</ele>
        <time>2024-09-21T10:58:07Z</time>
      </trkpt>
      <trkpt lat="42.42819" lon="2.74827">
        <ele>1076</ele>
        <time>2024-09-21T10:58:13Z</time>
      </trkpt>
      <trkpt lat="42.42818" lon="2.74831">
        <ele>1077</ele>
        <time>2024-09-21T10:58:18Z</time>
      </trkpt>
      <trkpt lat="42.42819" lon="2.74834">
        <ele>1077</ele>
        <time>2024-09-21T10:58:23Z</time>
      </trkpt>
      <trkpt lat="42.42821" lon="2.74835">
        <ele>1075</ele>
        <time>2024-09-21T10:58:30Z</time>
      </trkpt>
      <trkpt lat="42.42824" lon="2.74836">
        <ele>1075</ele>
        <time>2024-09-21T10:58:33Z</time>
      </trkpt>
      <trkpt lat="42.42827" lon="2.74839">
        <ele>1073</ele>
        <time>2024-09-21T10:58:45Z</time>
      </trkpt>
      <trkpt lat="42.4283" lon="2.74841">
        <ele>1072</ele>
        <time>2024-09-21T10:58:52Z</time>
      </trkpt>
      <trkpt lat="42.42833" lon="2.7484">
        <ele>1073</ele>
        <time>2024-09-21T10:58:57Z</time>
      </trkpt>
      <trkpt lat="42.42835" lon="2.74839">
        <ele>1072</ele>
        <time>2024-09-21T10:59:02Z</time>
      </trkpt>
      <trkpt lat="42.42837" lon="2.74841">
        <ele>1070</ele>
        <time>2024-09-21T10:59:14Z</time>
      </trkpt>
      <trkpt lat="42.42836" lon="2.74843">
        <ele>1070</ele>
        <time>2024-09-21T10:59:19Z</time>
      </trkpt>
      <trkpt lat="42.42837" lon="2.74846">
        <ele>1070</ele>
        <time>2024-09-21T10:59:24Z</time>
      </trkpt>
      <trkpt lat="42.42839" lon="2.74848">
        <ele>1070</ele>
        <time>2024-09-21T10:59:32Z</time>
      </trkpt>
      <trkpt lat="42.42842" lon="2.7485">
        <ele>1068</ele>
        <time>2024-09-21T10:59:34Z</time>
      </trkpt>
      <trkpt lat="42.42845" lon="2.74848">
        <ele>1069</ele>
        <time>2024-09-21T10:59:39Z</time>
      </trkpt>
      <trkpt lat="42.42847" lon="2.74846">
        <ele>1068</ele>
        <time>2024-09-21T10:59:42Z</time>
      </trkpt>
      <trkpt lat="42.42851" lon="2.74842">
        <ele>1068</ele>
        <time>2024-09-21T10:59:46Z</time>
      </trkpt>
      <trkpt lat="42.42852" lon="2.74843">
        <ele>1062</ele>
        <time>2024-09-21T11:00:09Z</time>
      </trkpt>
      <trkpt lat="42.42852" lon="2.74846">
        <ele>1063</ele>
        <time>2024-09-21T11:00:12Z</time>
      </trkpt>
      <trkpt lat="42.42853" lon="2.74849">
        <ele>1063</ele>
        <time>2024-09-21T11:00:15Z</time>
      </trkpt>
      <trkpt lat="42.42855" lon="2.74851">
        <ele>1064</ele>
        <time>2024-09-21T11:00:19Z</time>
      </trkpt>
      <trkpt lat="42.42858" lon="2.74852">
        <ele>1063</ele>
        <time>2024-09-21T11:00:23Z</time>
      </trkpt>
      <trkpt lat="42.4286" lon="2.74854">
        <ele>1061</ele>
        <time>2024-09-21T11:00:41Z</time>
      </trkpt>
      <trkpt lat="42.42862" lon="2.74857">
        <ele>1060</ele>
        <time>2024-09-21T11:00:44Z</time>
      </trkpt>
      <trkpt lat="42.42862" lon="2.74856">
        <ele>1059</ele>
        <time>2024-09-21T11:00:47Z</time>
      </trkpt>
      <trkpt lat="42.42865" lon="2.74855">
        <ele>1059</ele>
        <time>2024-09-21T11:00:48Z</time>
      </trkpt>
      <trkpt lat="42.42864" lon="2.74853">
        <ele>1058</ele>
        <time>2024-09-21T11:00:49Z</time>
      </trkpt>
      <trkpt lat="42.42866" lon="2.74851">
        <ele>1057</ele>
        <time>2024-09-21T11:00:56Z</time>
      </trkpt>
      <trkpt lat="42.42865" lon="2.74848">
        <ele>1058</ele>
        <time>2024-09-21T11:01:00Z</time>
      </trkpt>
      <trkpt lat="42.42866" lon="2.74847">
        <ele>1058</ele>
        <time>2024-09-21T11:01:21Z</time>
      </trkpt>
      <trkpt lat="42.42866" lon="2.74848">
        <ele>1061</ele>
        <time>2024-09-21T11:01:53Z</time>
      </trkpt>
      <trkpt lat="42.42866" lon="2.74849">
        <ele>1061</ele>
        <time>2024-09-21T11:01:53Z</time>
      </trkpt>
      <trkpt lat="42.42861" lon="2.74866">
        <ele>1043</ele>
        <time>2024-09-21T11:24:30Z</time>
      </trkpt>
      <trkpt lat="42.42874" lon="2.74862">
        <ele>1044</ele>
        <time>2024-09-21T11:33:05Z</time>
      </trkpt>
      <trkpt lat="42.42879" lon="2.74864">
        <ele>1046</ele>
        <time>2024-09-21T11:33:06Z</time>
      </trkpt>
      <trkpt lat="42.42883" lon="2.74862">
        <ele>1061</ele>
        <time>2024-09-21T11:33:07Z</time>
      </trkpt>
      <trkpt lat="42.42886" lon="2.74859">
        <ele>1062</ele>
        <time>2024-09-21T11:33:09Z</time>
      </trkpt>
      <trkpt lat="42.42889" lon="2.74857">
        <ele>1059</ele>
        <time>2024-09-21T11:33:12Z</time>
      </trkpt>
      <trkpt lat="42.42892" lon="2.74855">
        <ele>1059</ele>
        <time>2024-09-21T11:33:17Z</time>
      </trkpt>
      <trkpt lat="42.42894" lon="2.74857">
        <ele>1055</ele>
        <time>2024-09-21T11:33:30Z</time>
      </trkpt>
      <trkpt lat="42.42896" lon="2.7486">
        <ele>1051</ele>
        <time>2024-09-21T11:33:34Z</time>
      </trkpt>
      <trkpt lat="42.42899" lon="2.74861">
        <ele>1050</ele>
        <time>2024-09-21T11:33:38Z</time>
      </trkpt>
      <trkpt lat="42.42902" lon="2.7486">
        <ele>1048</ele>
        <time>2024-09-21T11:33:42Z</time>
      </trkpt>
      <trkpt lat="42.42905" lon="2.74859">
        <ele>1050</ele>
        <time>2024-09-21T11:33:44Z</time>
      </trkpt>
      <trkpt lat="42.42907" lon="2.74858">
        <ele>1049</ele>
        <time>2024-09-21T11:33:49Z</time>
      </trkpt>
      <trkpt lat="42.42911" lon="2.74859">
        <ele>1048</ele>
        <time>2024-09-21T11:33:55Z</time>
      </trkpt>
      <trkpt lat="42.42914" lon="2.74859">
        <ele>1046</ele>
        <time>2024-09-21T11:33:59Z</time>
      </trkpt>
      <trkpt lat="42.42918" lon="2.74859">
        <ele>1046</ele>
        <time>2024-09-21T11:34:03Z</time>
      </trkpt>
      <trkpt lat="42.42921" lon="2.7486">
        <ele>1045</ele>
        <time>2024-09-21T11:34:12Z</time>
      </trkpt>
      <trkpt lat="42.42923" lon="2.74861">
        <ele>1045</ele>
        <time>2024-09-21T11:34:15Z</time>
      </trkpt>
      <trkpt lat="42.42926" lon="2.74864">
        <ele>1044</ele>
        <time>2024-09-21T11:34:18Z</time>
      </trkpt>
      <trkpt lat="42.42928" lon="2.74867">
        <ele>1044</ele>
        <time>2024-09-21T11:34:22Z</time>
      </trkpt>
      <trkpt lat="42.42931" lon="2.74868">
        <ele>1043</ele>
        <time>2024-09-21T11:34:26Z</time>
      </trkpt>
      <trkpt lat="42.42934" lon="2.74868">
        <ele>1044</ele>
        <time>2024-09-21T11:34:29Z</time>
      </trkpt>
      <trkpt lat="42.42938" lon="2.74867">
        <ele>1044</ele>
        <time>2024-09-21T11:34:33Z</time>
      </trkpt>
      <trkpt lat="42.4294" lon="2.74867">
        <ele>1042</ele>
        <time>2024-09-21T11:34:37Z</time>
      </trkpt>
      <trkpt lat="42.42944" lon="2.74864">
        <ele>1039</ele>
        <time>2024-09-21T11:34:52Z</time>
      </trkpt>
      <trkpt lat="42.42947" lon="2.74863">
        <ele>1037</ele>
        <time>2024-09-21T11:34:57Z</time>
      </trkpt>
      <trkpt lat="42.4295" lon="2.74862">
        <ele>1037</ele>
        <time>2024-09-21T11:34:59Z</time>
      </trkpt>
      <trkpt lat="42.42953" lon="2.74864">
        <ele>1036</ele>
        <time>2024-09-21T11:35:04Z</time>
      </trkpt>
      <trkpt lat="42.42956" lon="2.74865">
        <ele>1035</ele>
        <time>2024-09-21T11:35:10Z</time>
      </trkpt>
      <trkpt lat="42.4296" lon="2.74866">
        <ele>1038</ele>
        <time>2024-09-21T11:35:13Z</time>
      </trkpt>
      <trkpt lat="42.42963" lon="2.74866">
        <ele>1037</ele>
        <time>2024-09-21T11:35:19Z</time>
      </trkpt>
      <trkpt lat="42.42966" lon="2.74866">
        <ele>1037</ele>
        <time>2024-09-21T11:35:24Z</time>
      </trkpt>
      <trkpt lat="42.42968" lon="2.74869">
        <ele>1037</ele>
        <time>2024-09-21T11:35:28Z</time>
      </trkpt>
      <trkpt lat="42.42968" lon="2.74873">
        <ele>1036</ele>
        <time>2024-09-21T11:35:37Z</time>
      </trkpt>
      <trkpt lat="42.4297" lon="2.74875">
        <ele>1036</ele>
        <time>2024-09-21T11:35:44Z</time>
      </trkpt>
      <trkpt lat="42.42973" lon="2.74876">
        <ele>1034</ele>
        <time>2024-09-21T11:35:50Z</time>
      </trkpt>
      <trkpt lat="42.42975" lon="2.74875">
        <ele>1033</ele>
        <time>2024-09-21T11:36:16Z</time>
      </trkpt>
      <trkpt lat="42.42979" lon="2.74875">
        <ele>1032</ele>
        <time>2024-09-21T11:36:20Z</time>
      </trkpt>
      <trkpt lat="42.42982" lon="2.74876">
        <ele>1032</ele>
        <time>2024-09-21T11:36:22Z</time>
      </trkpt>
      <trkpt lat="42.42984" lon="2.74878">
        <ele>1030</ele>
        <time>2024-09-21T11:36:25Z</time>
      </trkpt>
      <trkpt lat="42.42986" lon="2.74881">
        <ele>1032</ele>
        <time>2024-09-21T11:36:31Z</time>
      </trkpt>
      <trkpt lat="42.42988" lon="2.74884">
        <ele>1033</ele>
        <time>2024-09-21T11:36:35Z</time>
      </trkpt>
      <trkpt lat="42.4299" lon="2.74887">
        <ele>1034</ele>
        <time>2024-09-21T11:36:38Z</time>
      </trkpt>
      <trkpt lat="42.42992" lon="2.7489">
        <ele>1035</ele>
        <time>2024-09-21T11:36:44Z</time>
      </trkpt>
      <trkpt lat="42.42993" lon="2.74894">
        <ele>1036</ele>
        <time>2024-09-21T11:36:47Z</time>
      </trkpt>
      <trkpt lat="42.42995" lon="2.74896">
        <ele>1037</ele>
        <time>2024-09-21T11:36:51Z</time>
      </trkpt>
      <trkpt lat="42.42999" lon="2.74899">
        <ele>1037</ele>
        <time>2024-09-21T11:36:54Z</time>
      </trkpt>
      <trkpt lat="42.43001" lon="2.74902">
        <ele>1039</ele>
        <time>2024-09-21T11:37:00Z</time>
      </trkpt>
      <trkpt lat="42.43003" lon="2.74904">
        <ele>1038</ele>
        <time>2024-09-21T11:37:05Z</time>
      </trkpt>
      <trkpt lat="42.43006" lon="2.74904">
        <ele>1035</ele>
        <time>2024-09-21T11:37:10Z</time>
      </trkpt>
      <trkpt lat="42.43009" lon="2.74903">
        <ele>1036</ele>
        <time>2024-09-21T11:37:12Z</time>
      </trkpt>
      <trkpt lat="42.43012" lon="2.74904">
        <ele>1035</ele>
        <time>2024-09-21T11:37:17Z</time>
      </trkpt>
      <trkpt lat="42.43014" lon="2.74905">
        <ele>1035</ele>
        <time>2024-09-21T11:37:19Z</time>
      </trkpt>
      <trkpt lat="42.43017" lon="2.74908">
        <ele>1034</ele>
        <time>2024-09-21T11:37:24Z</time>
      </trkpt>
      <trkpt lat="42.43016" lon="2.74911">
        <ele>1034</ele>
        <time>2024-09-21T11:37:28Z</time>
      </trkpt>
      <trkpt lat="42.43017" lon="2.74915">
        <ele>1034</ele>
        <time>2024-09-21T11:37:31Z</time>
      </trkpt>
      <trkpt lat="42.43017" lon="2.74918">
        <ele>1036</ele>
        <time>2024-09-21T11:37:38Z</time>
      </trkpt>
      <trkpt lat="42.43019" lon="2.7492">
        <ele>1035</ele>
        <time>2024-09-21T11:37:43Z</time>
      </trkpt>
      <trkpt lat="42.43023" lon="2.74922">
        <ele>1035</ele>
        <time>2024-09-21T11:37:48Z</time>
      </trkpt>
      <trkpt lat="42.43026" lon="2.74924">
        <ele>1035</ele>
        <time>2024-09-21T11:37:51Z</time>
      </trkpt>
      <trkpt lat="42.43029" lon="2.74927">
        <ele>1037</ele>
        <time>2024-09-21T11:37:54Z</time>
      </trkpt>
      <trkpt lat="42.43031" lon="2.74931">
        <ele>1036</ele>
        <time>2024-09-21T11:38:06Z</time>
      </trkpt>
      <trkpt lat="42.43033" lon="2.74934">
        <ele>1034</ele>
        <time>2024-09-21T11:38:11Z</time>
      </trkpt>
      <trkpt lat="42.43036" lon="2.74936">
        <ele>1037</ele>
        <time>2024-09-21T11:38:17Z</time>
      </trkpt>
      <trkpt lat="42.43039" lon="2.74938">
        <ele>1037</ele>
        <time>2024-09-21T11:38:21Z</time>
      </trkpt>
      <trkpt lat="42.4304" lon="2.74941">
        <ele>1040</ele>
        <time>2024-09-21T11:38:31Z</time>
      </trkpt>
      <trkpt lat="42.43042" lon="2.74945">
        <ele>1040</ele>
        <time>2024-09-21T11:38:40Z</time>
      </trkpt>
      <trkpt lat="42.43045" lon="2.74946">
        <ele>1042</ele>
        <time>2024-09-21T11:38:45Z</time>
      </trkpt>
      <trkpt lat="42.43046" lon="2.74949">
        <ele>1043</ele>
        <time>2024-09-21T11:38:50Z</time>
      </trkpt>
      <trkpt lat="42.43049" lon="2.74951">
        <ele>1044</ele>
        <time>2024-09-21T11:38:54Z</time>
      </trkpt>
      <trkpt lat="42.43052" lon="2.74952">
        <ele>1044</ele>
        <time>2024-09-21T11:38:57Z</time>
      </trkpt>
      <trkpt lat="42.43055" lon="2.74952">
        <ele>1044</ele>
        <time>2024-09-21T11:39:00Z</time>
      </trkpt>
      <trkpt lat="42.43057" lon="2.74955">
        <ele>1045</ele>
        <time>2024-09-21T11:39:08Z</time>
      </trkpt>
      <trkpt lat="42.4306" lon="2.74955">
        <ele>1046</ele>
        <time>2024-09-21T11:39:11Z</time>
      </trkpt>
      <trkpt lat="42.43063" lon="2.74956">
        <ele>1046</ele>
        <time>2024-09-21T11:39:14Z</time>
      </trkpt>
      <trkpt lat="42.43066" lon="2.74958">
        <ele>1046</ele>
        <time>2024-09-21T11:39:19Z</time>
      </trkpt>
      <trkpt lat="42.43068" lon="2.74961">
        <ele>1047</ele>
        <time>2024-09-21T11:39:28Z</time>
      </trkpt>
      <trkpt lat="42.4307" lon="2.74961">
        <ele>1048</ele>
        <time>2024-09-21T11:39:35Z</time>
      </trkpt>
      <trkpt lat="42.43073" lon="2.74961">
        <ele>1048</ele>
        <time>2024-09-21T11:39:39Z</time>
      </trkpt>
      <trkpt lat="42.43076" lon="2.74961">
        <ele>1048</ele>
        <time>2024-09-21T11:39:42Z</time>
      </trkpt>
      <trkpt lat="42.43079" lon="2.74963">
        <ele>1050</ele>
        <time>2024-09-21T11:39:53Z</time>
      </trkpt>
      <trkpt lat="42.43081" lon="2.74965">
        <ele>1051</ele>
        <time>2024-09-21T11:39:57Z</time>
      </trkpt>
      <trkpt lat="42.43084" lon="2.74967">
        <ele>1051</ele>
        <time>2024-09-21T11:40:01Z</time>
      </trkpt>
      <trkpt lat="42.43087" lon="2.74968">
        <ele>1051</ele>
        <time>2024-09-21T11:40:04Z</time>
      </trkpt>
      <trkpt lat="42.43089" lon="2.74967">
        <ele>1051</ele>
        <time>2024-09-21T11:40:11Z</time>
      </trkpt>
      <trkpt lat="42.43092" lon="2.74968">
        <ele>1049</ele>
        <time>2024-09-21T11:40:19Z</time>
      </trkpt>
      <trkpt lat="42.43095" lon="2.7497">
        <ele>1047</ele>
        <time>2024-09-21T11:40:23Z</time>
      </trkpt>
      <trkpt lat="42.43098" lon="2.74972">
        <ele>1047</ele>
        <time>2024-09-21T11:40:26Z</time>
      </trkpt>
      <trkpt lat="42.431" lon="2.74975">
        <ele>1047</ele>
        <time>2024-09-21T11:40:30Z</time>
      </trkpt>
      <trkpt lat="42.43103" lon="2.74978">
        <ele>1044</ele>
        <time>2024-09-21T11:40:35Z</time>
      </trkpt>
      <trkpt lat="42.43105" lon="2.74981">
        <ele>1043</ele>
        <time>2024-09-21T11:40:38Z</time>
      </trkpt>
      <trkpt lat="42.43108" lon="2.74983">
        <ele>1041</ele>
        <time>2024-09-21T11:40:42Z</time>
      </trkpt>
      <trkpt lat="42.43111" lon="2.74985">
        <ele>1041</ele>
        <time>2024-09-21T11:40:44Z</time>
      </trkpt>
      <trkpt lat="42.43113" lon="2.74987">
        <ele>1039</ele>
        <time>2024-09-21T11:40:49Z</time>
      </trkpt>
      <trkpt lat="42.43116" lon="2.7499">
        <ele>1038</ele>
        <time>2024-09-21T11:40:54Z</time>
      </trkpt>
      <trkpt lat="42.43119" lon="2.7499">
        <ele>1039</ele>
        <time>2024-09-21T11:40:56Z</time>
      </trkpt>
      <trkpt lat="42.43122" lon="2.7499">
        <ele>1038</ele>
        <time>2024-09-21T11:40:59Z</time>
      </trkpt>
      <trkpt lat="42.43125" lon="2.7499">
        <ele>1037</ele>
        <time>2024-09-21T11:41:02Z</time>
      </trkpt>
      <trkpt lat="42.43128" lon="2.74991">
        <ele>1036</ele>
        <time>2024-09-21T11:41:06Z</time>
      </trkpt>
      <trkpt lat="42.43131" lon="2.74993">
        <ele>1035</ele>
        <time>2024-09-21T11:41:12Z</time>
      </trkpt>
      <trkpt lat="42.43134" lon="2.74993">
        <ele>1036</ele>
        <time>2024-09-21T11:41:14Z</time>
      </trkpt>
      <trkpt lat="42.43137" lon="2.74994">
        <ele>1035</ele>
        <time>2024-09-21T11:41:21Z</time>
      </trkpt>
      <trkpt lat="42.4314" lon="2.74995">
        <ele>1035</ele>
        <time>2024-09-21T11:41:24Z</time>
      </trkpt>
      <trkpt lat="42.43143" lon="2.74994">
        <ele>1034</ele>
        <time>2024-09-21T11:41:28Z</time>
      </trkpt>
      <trkpt lat="42.43145" lon="2.74996">
        <ele>1033</ele>
        <time>2024-09-21T11:41:33Z</time>
      </trkpt>
      <trkpt lat="42.43148" lon="2.74997">
        <ele>1031</ele>
        <time>2024-09-21T11:41:37Z</time>
      </trkpt>
      <trkpt lat="42.43152" lon="2.74999">
        <ele>1031</ele>
        <time>2024-09-21T11:41:40Z</time>
      </trkpt>
      <trkpt lat="42.43154" lon="2.75001">
        <ele>1031</ele>
        <time>2024-09-21T11:41:43Z</time>
      </trkpt>
      <trkpt lat="42.43155" lon="2.75004">
        <ele>1031</ele>
        <time>2024-09-21T11:41:50Z</time>
      </trkpt>
      <trkpt lat="42.43158" lon="2.75006">
        <ele>1031</ele>
        <time>2024-09-21T11:41:52Z</time>
      </trkpt>
      <trkpt lat="42.43159" lon="2.75009">
        <ele>1031</ele>
        <time>2024-09-21T11:41:56Z</time>
      </trkpt>
      <trkpt lat="42.43162" lon="2.75011">
        <ele>1031</ele>
        <time>2024-09-21T11:41:59Z</time>
      </trkpt>
      <trkpt lat="42.43164" lon="2.75014">
        <ele>1031</ele>
        <time>2024-09-21T11:42:02Z</time>
      </trkpt>
      <trkpt lat="42.43165" lon="2.75018">
        <ele>1030</ele>
        <time>2024-09-21T11:42:06Z</time>
      </trkpt>
      <trkpt lat="42.43166" lon="2.75021">
        <ele>1030</ele>
        <time>2024-09-21T11:42:09Z</time>
      </trkpt>
      <trkpt lat="42.43168" lon="2.75025">
        <ele>1030</ele>
        <time>2024-09-21T11:42:12Z</time>
      </trkpt>
      <trkpt lat="42.43169" lon="2.75028">
        <ele>1029</ele>
        <time>2024-09-21T11:42:16Z</time>
      </trkpt>
      <trkpt lat="42.43171" lon="2.75032">
        <ele>1028</ele>
        <time>2024-09-21T11:42:20Z</time>
      </trkpt>
      <trkpt lat="42.43172" lon="2.75036">
        <ele>1029</ele>
        <time>2024-09-21T11:42:23Z</time>
      </trkpt>
      <trkpt lat="42.43172" lon="2.7504">
        <ele>1028</ele>
        <time>2024-09-21T11:42:29Z</time>
      </trkpt>
      <trkpt lat="42.43172" lon="2.75044">
        <ele>1027</ele>
        <time>2024-09-21T11:42:32Z</time>
      </trkpt>
      <trkpt lat="42.43172" lon="2.75049">
        <ele>1027</ele>
        <time>2024-09-21T11:42:36Z</time>
      </trkpt>
      <trkpt lat="42.43171" lon="2.75054">
        <ele>1028</ele>
        <time>2024-09-21T11:42:41Z</time>
      </trkpt>
      <trkpt lat="42.43171" lon="2.75059">
        <ele>1029</ele>
        <time>2024-09-21T11:42:44Z</time>
      </trkpt>
      <trkpt lat="42.4317" lon="2.75062">
        <ele>1029</ele>
        <time>2024-09-21T11:42:47Z</time>
      </trkpt>
      <trkpt lat="42.43168" lon="2.75065">
        <ele>1028</ele>
        <time>2024-09-21T11:42:50Z</time>
      </trkpt>
      <trkpt lat="42.43167" lon="2.75068">
        <ele>1028</ele>
        <time>2024-09-21T11:42:52Z</time>
      </trkpt>
      <trkpt lat="42.43165" lon="2.75072">
        <ele>1029</ele>
        <time>2024-09-21T11:42:56Z</time>
      </trkpt>
      <trkpt lat="42.43163" lon="2.75075">
        <ele>1028</ele>
        <time>2024-09-21T11:42:59Z</time>
      </trkpt>
      <trkpt lat="42.43163" lon="2.7508">
        <ele>1029</ele>
        <time>2024-09-21T11:43:02Z</time>
      </trkpt>
      <trkpt lat="42.43162" lon="2.75084">
        <ele>1029</ele>
        <time>2024-09-21T11:43:06Z</time>
      </trkpt>
      <trkpt lat="42.4316" lon="2.75087">
        <ele>1028</ele>
        <time>2024-09-21T11:43:09Z</time>
      </trkpt>
      <trkpt lat="42.43158" lon="2.75091">
        <ele>1028</ele>
        <time>2024-09-21T11:43:14Z</time>
      </trkpt>
      <trkpt lat="42.43157" lon="2.75095">
        <ele>1025</ele>
        <time>2024-09-21T11:43:18Z</time>
      </trkpt>
      <trkpt lat="42.43157" lon="2.75099">
        <ele>1026</ele>
        <time>2024-09-21T11:43:20Z</time>
      </trkpt>
      <trkpt lat="42.43156" lon="2.75103">
        <ele>1026</ele>
        <time>2024-09-21T11:43:24Z</time>
      </trkpt>
      <trkpt lat="42.43153" lon="2.75105">
        <ele>1026</ele>
        <time>2024-09-21T11:43:28Z</time>
      </trkpt>
      <trkpt lat="42.43152" lon="2.75108">
        <ele>1027</ele>
        <time>2024-09-21T11:43:32Z</time>
      </trkpt>
      <trkpt lat="42.43153" lon="2.75112">
        <ele>1026</ele>
        <time>2024-09-21T11:43:35Z</time>
      </trkpt>
      <trkpt lat="42.43153" lon="2.75115">
        <ele>1026</ele>
        <time>2024-09-21T11:43:39Z</time>
      </trkpt>
      <trkpt lat="42.43154" lon="2.75119">
        <ele>1027</ele>
        <time>2024-09-21T11:43:42Z</time>
      </trkpt>
      <trkpt lat="42.43153" lon="2.75123">
        <ele>1027</ele>
        <time>2024-09-21T11:43:48Z</time>
      </trkpt>
      <trkpt lat="42.43152" lon="2.75127">
        <ele>1026</ele>
        <time>2024-09-21T11:43:58Z</time>
      </trkpt>
      <trkpt lat="42.43149" lon="2.75128">
        <ele>1026</ele>
        <time>2024-09-21T11:44:03Z</time>
      </trkpt>
      <trkpt lat="42.43148" lon="2.75132">
        <ele>1025</ele>
        <time>2024-09-21T11:44:06Z</time>
      </trkpt>
      <trkpt lat="42.4315" lon="2.75133">
        <ele>1023</ele>
        <time>2024-09-21T11:44:10Z</time>
      </trkpt>
      <trkpt lat="42.4315" lon="2.75136">
        <ele>1022</ele>
        <time>2024-09-21T11:44:15Z</time>
      </trkpt>
      <trkpt lat="42.43152" lon="2.75139">
        <ele>1022</ele>
        <time>2024-09-21T11:44:23Z</time>
      </trkpt>
      <trkpt lat="42.43154" lon="2.75142">
        <ele>1021</ele>
        <time>2024-09-21T11:44:26Z</time>
      </trkpt>
      <trkpt lat="42.43153" lon="2.75144">
        <ele>1019</ele>
        <time>2024-09-21T11:44:31Z</time>
      </trkpt>
      <trkpt lat="42.4315" lon="2.75143">
        <ele>1019</ele>
        <time>2024-09-21T11:44:35Z</time>
      </trkpt>
      <trkpt lat="42.43149" lon="2.75146">
        <ele>1017</ele>
        <time>2024-09-21T11:44:41Z</time>
      </trkpt>
      <trkpt lat="42.43148" lon="2.7515">
        <ele>1015</ele>
        <time>2024-09-21T11:44:45Z</time>
      </trkpt>
      <trkpt lat="42.43147" lon="2.75154">
        <ele>1015</ele>
        <time>2024-09-21T11:44:50Z</time>
      </trkpt>
      <trkpt lat="42.43147" lon="2.75158">
        <ele>1016</ele>
        <time>2024-09-21T11:44:55Z</time>
      </trkpt>
      <trkpt lat="42.43148" lon="2.75162">
        <ele>1016</ele>
        <time>2024-09-21T11:44:58Z</time>
      </trkpt>
      <trkpt lat="42.43146" lon="2.75165">
        <ele>1014</ele>
        <time>2024-09-21T11:45:03Z</time>
      </trkpt>
      <trkpt lat="42.43145" lon="2.75169">
        <ele>1014</ele>
        <time>2024-09-21T11:45:10Z</time>
      </trkpt>
      <trkpt lat="42.43146" lon="2.75173">
        <ele>1013</ele>
        <time>2024-09-21T11:45:15Z</time>
      </trkpt>
      <trkpt lat="42.43146" lon="2.75178">
        <ele>1013</ele>
        <time>2024-09-21T11:45:25Z</time>
      </trkpt>
      <trkpt lat="42.43144" lon="2.75181">
        <ele>1013</ele>
        <time>2024-09-21T11:45:28Z</time>
      </trkpt>
      <trkpt lat="42.43145" lon="2.75184">
        <ele>1012</ele>
        <time>2024-09-21T11:45:33Z</time>
      </trkpt>
      <trkpt lat="42.43148" lon="2.75186">
        <ele>1010</ele>
        <time>2024-09-21T11:45:36Z</time>
      </trkpt>
      <trkpt lat="42.43152" lon="2.75185">
        <ele>1011</ele>
        <time>2024-09-21T11:45:38Z</time>
      </trkpt>
      <trkpt lat="42.43155" lon="2.75187">
        <ele>1011</ele>
        <time>2024-09-21T11:45:47Z</time>
      </trkpt>
      <trkpt lat="42.43154" lon="2.75187">
        <ele>1011</ele>
        <time>2024-09-21T11:45:49Z</time>
      </trkpt>
      <trkpt lat="42.43151" lon="2.75182">
        <ele>1012</ele>
        <time>2024-09-21T11:45:51Z</time>
      </trkpt>
      <trkpt lat="42.43149" lon="2.75179">
        <ele>1011</ele>
        <time>2024-09-21T11:45:56Z</time>
      </trkpt>
      <trkpt lat="42.43151" lon="2.75178">
        <ele>1011</ele>
        <time>2024-09-21T11:46:00Z</time>
      </trkpt>
      <trkpt lat="42.43156" lon="2.75174">
        <ele>1018</ele>
        <time>2024-09-21T11:46:25Z</time>
      </trkpt>
      <trkpt lat="42.43158" lon="2.75175">
        <ele>1017</ele>
        <time>2024-09-21T11:46:27Z</time>
      </trkpt>
      <trkpt lat="42.4316" lon="2.75179">
        <ele>1017</ele>
        <time>2024-09-21T11:46:29Z</time>
      </trkpt>
      <trkpt lat="42.43162" lon="2.75182">
        <ele>1017</ele>
        <time>2024-09-21T11:46:31Z</time>
      </trkpt>
      <trkpt lat="42.43161" lon="2.75187">
        <ele>1017</ele>
        <time>2024-09-21T11:46:36Z</time>
      </trkpt>
      <trkpt lat="42.43161" lon="2.75191">
        <ele>1017</ele>
        <time>2024-09-21T11:46:41Z</time>
      </trkpt>
      <trkpt lat="42.43163" lon="2.75192">
        <ele>1017</ele>
        <time>2024-09-21T11:46:45Z</time>
      </trkpt>
      <trkpt lat="42.43165" lon="2.75194">
        <ele>1016</ele>
        <time>2024-09-21T11:46:50Z</time>
      </trkpt>
      <trkpt lat="42.43168" lon="2.75196">
        <ele>1016</ele>
        <time>2024-09-21T11:46:54Z</time>
      </trkpt>
      <trkpt lat="42.43171" lon="2.75196">
        <ele>1016</ele>
        <time>2024-09-21T11:46:56Z</time>
      </trkpt>
      <trkpt lat="42.43174" lon="2.75196">
        <ele>1016</ele>
        <time>2024-09-21T11:46:58Z</time>
      </trkpt>
      <trkpt lat="42.43177" lon="2.75197">
        <ele>1016</ele>
        <time>2024-09-21T11:47:05Z</time>
      </trkpt>
      <trkpt lat="42.43181" lon="2.75198">
        <ele>1016</ele>
        <time>2024-09-21T11:47:09Z</time>
      </trkpt>
      <trkpt lat="42.43184" lon="2.752">
        <ele>1015</ele>
        <time>2024-09-21T11:47:14Z</time>
      </trkpt>
      <trkpt lat="42.43187" lon="2.75202">
        <ele>1015</ele>
        <time>2024-09-21T11:47:17Z</time>
      </trkpt>
      <trkpt lat="42.4319" lon="2.75205">
        <ele>1014</ele>
        <time>2024-09-21T11:47:22Z</time>
      </trkpt>
      <trkpt lat="42.43193" lon="2.75208">
        <ele>1013</ele>
        <time>2024-09-21T11:47:25Z</time>
      </trkpt>
      <trkpt lat="42.43195" lon="2.75211">
        <ele>1016</ele>
        <time>2024-09-21T11:47:32Z</time>
      </trkpt>
      <trkpt lat="42.43197" lon="2.75214">
        <ele>1015</ele>
        <time>2024-09-21T11:47:38Z</time>
      </trkpt>
      <trkpt lat="42.43198" lon="2.75218">
        <ele>1014</ele>
        <time>2024-09-21T11:47:42Z</time>
      </trkpt>
      <trkpt lat="42.432" lon="2.75221">
        <ele>1013</ele>
        <time>2024-09-21T11:47:46Z</time>
      </trkpt>
      <trkpt lat="42.43202" lon="2.75225">
        <ele>1012</ele>
        <time>2024-09-21T11:47:53Z</time>
      </trkpt>
      <trkpt lat="42.43204" lon="2.75228">
        <ele>1012</ele>
        <time>2024-09-21T11:47:56Z</time>
      </trkpt>
      <trkpt lat="42.43207" lon="2.75229">
        <ele>1013</ele>
        <time>2024-09-21T11:48:00Z</time>
      </trkpt>
      <trkpt lat="42.4321" lon="2.7523">
        <ele>1015</ele>
        <time>2024-09-21T11:48:03Z</time>
      </trkpt>
      <trkpt lat="42.43213" lon="2.75229">
        <ele>1014</ele>
        <time>2024-09-21T11:48:05Z</time>
      </trkpt>
      <trkpt lat="42.43217" lon="2.75228">
        <ele>1016</ele>
        <time>2024-09-21T11:48:08Z</time>
      </trkpt>
      <trkpt lat="42.43219" lon="2.75227">
        <ele>1016</ele>
        <time>2024-09-21T11:48:12Z</time>
      </trkpt>
      <trkpt lat="42.43223" lon="2.75227">
        <ele>1017</ele>
        <time>2024-09-21T11:48:19Z</time>
      </trkpt>
      <trkpt lat="42.43226" lon="2.75225">
        <ele>1018</ele>
        <time>2024-09-21T11:48:23Z</time>
      </trkpt>
      <trkpt lat="42.43228" lon="2.75222">
        <ele>1019</ele>
        <time>2024-09-21T11:48:26Z</time>
      </trkpt>
      <trkpt lat="42.43231" lon="2.75221">
        <ele>1019</ele>
        <time>2024-09-21T11:48:29Z</time>
      </trkpt>
      <trkpt lat="42.43234" lon="2.75219">
        <ele>1019</ele>
        <time>2024-09-21T11:48:32Z</time>
      </trkpt>
      <trkpt lat="42.43237" lon="2.75219">
        <ele>1020</ele>
        <time>2024-09-21T11:48:36Z</time>
      </trkpt>
      <trkpt lat="42.4324" lon="2.75219">
        <ele>1020</ele>
        <time>2024-09-21T11:48:42Z</time>
      </trkpt>
      <trkpt lat="42.43243" lon="2.7522">
        <ele>1021</ele>
        <time>2024-09-21T11:48:48Z</time>
      </trkpt>
      <trkpt lat="42.43246" lon="2.75219">
        <ele>1021</ele>
        <time>2024-09-21T11:48:52Z</time>
      </trkpt>
      <trkpt lat="42.43249" lon="2.75218">
        <ele>1020</ele>
        <time>2024-09-21T11:48:55Z</time>
      </trkpt>
      <trkpt lat="42.43252" lon="2.75218">
        <ele>1021</ele>
        <time>2024-09-21T11:48:58Z</time>
      </trkpt>
      <trkpt lat="42.43256" lon="2.75218">
        <ele>1021</ele>
        <time>2024-09-21T11:49:03Z</time>
      </trkpt>
      <trkpt lat="42.43259" lon="2.75217">
        <ele>1021</ele>
        <time>2024-09-21T11:49:06Z</time>
      </trkpt>
      <trkpt lat="42.43263" lon="2.75217">
        <ele>1021</ele>
        <time>2024-09-21T11:49:09Z</time>
      </trkpt>
      <trkpt lat="42.43267" lon="2.75216">
        <ele>1022</ele>
        <time>2024-09-21T11:49:12Z</time>
      </trkpt>
      <trkpt lat="42.4327" lon="2.75216">
        <ele>1023</ele>
        <time>2024-09-21T11:49:15Z</time>
      </trkpt>
      <trkpt lat="42.43272" lon="2.75217">
        <ele>1024</ele>
        <time>2024-09-21T11:49:23Z</time>
      </trkpt>
      <trkpt lat="42.43275" lon="2.7522">
        <ele>1024</ele>
        <time>2024-09-21T11:49:26Z</time>
      </trkpt>
      <trkpt lat="42.43278" lon="2.75221">
        <ele>1022</ele>
        <time>2024-09-21T11:49:30Z</time>
      </trkpt>
      <trkpt lat="42.4328" lon="2.7522">
        <ele>1022</ele>
        <time>2024-09-21T11:49:34Z</time>
      </trkpt>
      <trkpt lat="42.43283" lon="2.75219">
        <ele>1021</ele>
        <time>2024-09-21T11:49:38Z</time>
      </trkpt>
      <trkpt lat="42.43286" lon="2.75218">
        <ele>1020</ele>
        <time>2024-09-21T11:49:42Z</time>
      </trkpt>
      <trkpt lat="42.43289" lon="2.75216">
        <ele>1020</ele>
        <time>2024-09-21T11:49:45Z</time>
      </trkpt>
      <trkpt lat="42.43292" lon="2.75217">
        <ele>1018</ele>
        <time>2024-09-21T11:49:49Z</time>
      </trkpt>
      <trkpt lat="42.43294" lon="2.75218">
        <ele>1017</ele>
        <time>2024-09-21T11:49:52Z</time>
      </trkpt>
      <trkpt lat="42.43297" lon="2.75219">
        <ele>1016</ele>
        <time>2024-09-21T11:49:57Z</time>
      </trkpt>
      <trkpt lat="42.43301" lon="2.75218">
        <ele>1016</ele>
        <time>2024-09-21T11:50:00Z</time>
      </trkpt>
      <trkpt lat="42.43304" lon="2.75217">
        <ele>1014</ele>
        <time>2024-09-21T11:50:03Z</time>
      </trkpt>
      <trkpt lat="42.43307" lon="2.75214">
        <ele>1013</ele>
        <time>2024-09-21T11:50:06Z</time>
      </trkpt>
      <trkpt lat="42.4331" lon="2.75212">
        <ele>1013</ele>
        <time>2024-09-21T11:50:10Z</time>
      </trkpt>
      <trkpt lat="42.43314" lon="2.75211">
        <ele>1012</ele>
        <time>2024-09-21T11:50:13Z</time>
      </trkpt>
      <trkpt lat="42.43316" lon="2.75208">
        <ele>1011</ele>
        <time>2024-09-21T11:50:16Z</time>
      </trkpt>
      <trkpt lat="42.4332" lon="2.75205">
        <ele>1013</ele>
        <time>2024-09-21T11:50:20Z</time>
      </trkpt>
      <trkpt lat="42.43323" lon="2.75203">
        <ele>1014</ele>
        <time>2024-09-21T11:50:24Z</time>
      </trkpt>
      <trkpt lat="42.43327" lon="2.75203">
        <ele>1014</ele>
        <time>2024-09-21T11:50:30Z</time>
      </trkpt>
      <trkpt lat="42.4333" lon="2.75204">
        <ele>1015</ele>
        <time>2024-09-21T11:50:33Z</time>
      </trkpt>
      <trkpt lat="42.43333" lon="2.75206">
        <ele>1016</ele>
        <time>2024-09-21T11:50:36Z</time>
      </trkpt>
      <trkpt lat="42.43336" lon="2.75208">
        <ele>1016</ele>
        <time>2024-09-21T11:50:40Z</time>
      </trkpt>
      <trkpt lat="42.43339" lon="2.75209">
        <ele>1016</ele>
        <time>2024-09-21T11:50:44Z</time>
      </trkpt>
      <trkpt lat="42.43342" lon="2.7521">
        <ele>1017</ele>
        <time>2024-09-21T11:50:48Z</time>
      </trkpt>
      <trkpt lat="42.43345" lon="2.75212">
        <ele>1016</ele>
        <time>2024-09-21T11:50:51Z</time>
      </trkpt>
      <trkpt lat="42.43348" lon="2.75213">
        <ele>1015</ele>
        <time>2024-09-21T11:50:55Z</time>
      </trkpt>
      <trkpt lat="42.43352" lon="2.75212">
        <ele>1015</ele>
        <time>2024-09-21T11:50:58Z</time>
      </trkpt>
      <trkpt lat="42.43355" lon="2.75212">
        <ele>1016</ele>
        <time>2024-09-21T11:51:01Z</time>
      </trkpt>
      <trkpt lat="42.43357" lon="2.75215">
        <ele>1015</ele>
        <time>2024-09-21T11:51:04Z</time>
      </trkpt>
      <trkpt lat="42.4336" lon="2.75217">
        <ele>1017</ele>
        <time>2024-09-21T11:51:08Z</time>
      </trkpt>
      <trkpt lat="42.43362" lon="2.75215">
        <ele>1015</ele>
        <time>2024-09-21T11:51:11Z</time>
      </trkpt>
      <trkpt lat="42.43364" lon="2.75214">
        <ele>1015</ele>
        <time>2024-09-21T11:51:13Z</time>
      </trkpt>
      <trkpt lat="42.43367" lon="2.75215">
        <ele>1015</ele>
        <time>2024-09-21T11:51:16Z</time>
      </trkpt>
      <trkpt lat="42.4337" lon="2.75215">
        <ele>1015</ele>
        <time>2024-09-21T11:51:20Z</time>
      </trkpt>
      <trkpt lat="42.43373" lon="2.75215">
        <ele>1015</ele>
        <time>2024-09-21T11:51:22Z</time>
      </trkpt>
      <trkpt lat="42.43377" lon="2.75216">
        <ele>1015</ele>
        <time>2024-09-21T11:51:26Z</time>
      </trkpt>
      <trkpt lat="42.4338" lon="2.75215">
        <ele>1012</ele>
        <time>2024-09-21T11:51:32Z</time>
      </trkpt>
      <trkpt lat="42.43383" lon="2.75215">
        <ele>1012</ele>
        <time>2024-09-21T11:51:34Z</time>
      </trkpt>
      <trkpt lat="42.43384" lon="2.75217">
        <ele>1012</ele>
        <time>2024-09-21T11:51:38Z</time>
      </trkpt>
      <trkpt lat="42.43386" lon="2.75218">
        <ele>1013</ele>
        <time>2024-09-21T11:51:40Z</time>
      </trkpt>
      <trkpt lat="42.4339" lon="2.75218">
        <ele>1014</ele>
        <time>2024-09-21T11:51:42Z</time>
      </trkpt>
      <trkpt lat="42.43393" lon="2.75218">
        <ele>1012</ele>
        <time>2024-09-21T11:51:50Z</time>
      </trkpt>
      <trkpt lat="42.43398" lon="2.75218">
        <ele>1014</ele>
        <time>2024-09-21T11:51:53Z</time>
      </trkpt>
      <trkpt lat="42.43401" lon="2.75217">
        <ele>1014</ele>
        <time>2024-09-21T11:51:56Z</time>
      </trkpt>
      <trkpt lat="42.43405" lon="2.75215">
        <ele>1015</ele>
        <time>2024-09-21T11:51:59Z</time>
      </trkpt>
      <trkpt lat="42.43408" lon="2.75214">
        <ele>1014</ele>
        <time>2024-09-21T11:52:03Z</time>
      </trkpt>
      <trkpt lat="42.43411" lon="2.75213">
        <ele>1016</ele>
        <time>2024-09-21T11:52:07Z</time>
      </trkpt>
      <trkpt lat="42.43414" lon="2.75213">
        <ele>1016</ele>
        <time>2024-09-21T11:52:09Z</time>
      </trkpt>
      <trkpt lat="42.43418" lon="2.75212">
        <ele>1015</ele>
        <time>2024-09-21T11:52:13Z</time>
      </trkpt>
      <trkpt lat="42.43421" lon="2.7521">
        <ele>1015</ele>
        <time>2024-09-21T11:52:15Z</time>
      </trkpt>
      <trkpt lat="42.43424" lon="2.75208">
        <ele>1014</ele>
        <time>2024-09-21T11:52:18Z</time>
      </trkpt>
      <trkpt lat="42.43427" lon="2.75206">
        <ele>1014</ele>
        <time>2024-09-21T11:52:23Z</time>
      </trkpt>
      <trkpt lat="42.4343" lon="2.75207">
        <ele>1014</ele>
        <time>2024-09-21T11:52:29Z</time>
      </trkpt>
      <trkpt lat="42.43433" lon="2.75207">
        <ele>1015</ele>
        <time>2024-09-21T11:52:32Z</time>
      </trkpt>
      <trkpt lat="42.43437" lon="2.75206">
        <ele>1014</ele>
        <time>2024-09-21T11:52:35Z</time>
      </trkpt>
      <trkpt lat="42.4344" lon="2.75207">
        <ele>1014</ele>
        <time>2024-09-21T11:52:39Z</time>
      </trkpt>
      <trkpt lat="42.43443" lon="2.75209">
        <ele>1014</ele>
        <time>2024-09-21T11:52:44Z</time>
      </trkpt>
      <trkpt lat="42.43446" lon="2.75211">
        <ele>1015</ele>
        <time>2024-09-21T11:52:49Z</time>
      </trkpt>
      <trkpt lat="42.43451" lon="2.7521">
        <ele>1014</ele>
        <time>2024-09-21T11:52:51Z</time>
      </trkpt>
      <trkpt lat="42.43455" lon="2.75209">
        <ele>1014</ele>
        <time>2024-09-21T11:52:53Z</time>
      </trkpt>
      <trkpt lat="42.43458" lon="2.75211">
        <ele>1014</ele>
        <time>2024-09-21T11:52:57Z</time>
      </trkpt>
      <trkpt lat="42.43461" lon="2.75212">
        <ele>1016</ele>
        <time>2024-09-21T11:53:04Z</time>
      </trkpt>
      <trkpt lat="42.43464" lon="2.75214">
        <ele>1018</ele>
        <time>2024-09-21T11:53:09Z</time>
      </trkpt>
      <trkpt lat="42.43466" lon="2.75215">
        <ele>1017</ele>
        <time>2024-09-21T11:53:11Z</time>
      </trkpt>
      <trkpt lat="42.43469" lon="2.75215">
        <ele>1017</ele>
        <time>2024-09-21T11:53:13Z</time>
      </trkpt>
      <trkpt lat="42.43472" lon="2.75214">
        <ele>1019</ele>
        <time>2024-09-21T11:53:17Z</time>
      </trkpt>
      <trkpt lat="42.43476" lon="2.75214">
        <ele>1020</ele>
        <time>2024-09-21T11:53:19Z</time>
      </trkpt>
      <trkpt lat="42.43479" lon="2.75214">
        <ele>1021</ele>
        <time>2024-09-21T11:53:23Z</time>
      </trkpt>
      <trkpt lat="42.43482" lon="2.75214">
        <ele>1021</ele>
        <time>2024-09-21T11:53:27Z</time>
      </trkpt>
      <trkpt lat="42.43486" lon="2.75214">
        <ele>1021</ele>
        <time>2024-09-21T11:53:30Z</time>
      </trkpt>
      <trkpt lat="42.43489" lon="2.75214">
        <ele>1021</ele>
        <time>2024-09-21T11:53:32Z</time>
      </trkpt>
      <trkpt lat="42.43492" lon="2.75214">
        <ele>1020</ele>
        <time>2024-09-21T11:53:34Z</time>
      </trkpt>
      <trkpt lat="42.43495" lon="2.75212">
        <ele>1020</ele>
        <time>2024-09-21T11:53:36Z</time>
      </trkpt>
      <trkpt lat="42.43498" lon="2.75211">
        <ele>1020</ele>
        <time>2024-09-21T11:53:40Z</time>
      </trkpt>
      <trkpt lat="42.43501" lon="2.75209">
        <ele>1018</ele>
        <time>2024-09-21T11:53:43Z</time>
      </trkpt>
      <trkpt lat="42.43504" lon="2.75207">
        <ele>1018</ele>
        <time>2024-09-21T11:53:45Z</time>
      </trkpt>
      <trkpt lat="42.43507" lon="2.75205">
        <ele>1017</ele>
        <time>2024-09-21T11:53:51Z</time>
      </trkpt>
      <trkpt lat="42.4351" lon="2.75204">
        <ele>1016</ele>
        <time>2024-09-21T11:53:55Z</time>
      </trkpt>
      <trkpt lat="42.43514" lon="2.75205">
        <ele>1017</ele>
        <time>2024-09-21T11:53:57Z</time>
      </trkpt>
      <trkpt lat="42.43518" lon="2.75205">
        <ele>1017</ele>
        <time>2024-09-21T11:54:00Z</time>
      </trkpt>
      <trkpt lat="42.43521" lon="2.75204">
        <ele>1018</ele>
        <time>2024-09-21T11:54:02Z</time>
      </trkpt>
      <trkpt lat="42.43523" lon="2.75202">
        <ele>1018</ele>
        <time>2024-09-21T11:54:06Z</time>
      </trkpt>
      <trkpt lat="42.43526" lon="2.752">
        <ele>1018</ele>
        <time>2024-09-21T11:54:10Z</time>
      </trkpt>
      <trkpt lat="42.43529" lon="2.75201">
        <ele>1019</ele>
        <time>2024-09-21T11:54:14Z</time>
      </trkpt>
      <trkpt lat="42.43531" lon="2.75204">
        <ele>1019</ele>
        <time>2024-09-21T11:54:16Z</time>
      </trkpt>
      <trkpt lat="42.43534" lon="2.75205">
        <ele>1019</ele>
        <time>2024-09-21T11:54:18Z</time>
      </trkpt>
      <trkpt lat="42.43537" lon="2.75206">
        <ele>1018</ele>
        <time>2024-09-21T11:54:21Z</time>
      </trkpt>
      <trkpt lat="42.4354" lon="2.75209">
        <ele>1018</ele>
        <time>2024-09-21T11:54:24Z</time>
      </trkpt>
      <trkpt lat="42.43543" lon="2.75211">
        <ele>1018</ele>
        <time>2024-09-21T11:54:27Z</time>
      </trkpt>
      <trkpt lat="42.43545" lon="2.75214">
        <ele>1018</ele>
        <time>2024-09-21T11:54:30Z</time>
      </trkpt>
      <trkpt lat="42.43549" lon="2.75216">
        <ele>1017</ele>
        <time>2024-09-21T11:54:32Z</time>
      </trkpt>
      <trkpt lat="42.43552" lon="2.75218">
        <ele>1016</ele>
        <time>2024-09-21T11:54:36Z</time>
      </trkpt>
      <trkpt lat="42.43555" lon="2.7522">
        <ele>1017</ele>
        <time>2024-09-21T11:54:39Z</time>
      </trkpt>
      <trkpt lat="42.43558" lon="2.75221">
        <ele>1015</ele>
        <time>2024-09-21T11:54:41Z</time>
      </trkpt>
      <trkpt lat="42.43561" lon="2.75222">
        <ele>1013</ele>
        <time>2024-09-21T11:54:43Z</time>
      </trkpt>
      <trkpt lat="42.43565" lon="2.75223">
        <ele>1011</ele>
        <time>2024-09-21T11:54:46Z</time>
      </trkpt>
      <trkpt lat="42.43567" lon="2.75224">
        <ele>1010</ele>
        <time>2024-09-21T11:54:48Z</time>
      </trkpt>
      <trkpt lat="42.4357" lon="2.75227">
        <ele>1009</ele>
        <time>2024-09-21T11:54:50Z</time>
      </trkpt>
      <trkpt lat="42.43572" lon="2.7523">
        <ele>1007</ele>
        <time>2024-09-21T11:54:53Z</time>
      </trkpt>
      <trkpt lat="42.43573" lon="2.75234">
        <ele>1007</ele>
        <time>2024-09-21T11:54:55Z</time>
      </trkpt>
      <trkpt lat="42.43574" lon="2.75238">
        <ele>1007</ele>
        <time>2024-09-21T11:54:58Z</time>
      </trkpt>
      <trkpt lat="42.43574" lon="2.75242">
        <ele>1008</ele>
        <time>2024-09-21T11:55:01Z</time>
      </trkpt>
      <trkpt lat="42.43575" lon="2.75245">
        <ele>1007</ele>
        <time>2024-09-21T11:55:03Z</time>
      </trkpt>
      <trkpt lat="42.43574" lon="2.75249">
        <ele>1009</ele>
        <time>2024-09-21T11:55:05Z</time>
      </trkpt>
      <trkpt lat="42.43573" lon="2.75253">
        <ele>1009</ele>
        <time>2024-09-21T11:55:08Z</time>
      </trkpt>
      <trkpt lat="42.43572" lon="2.75258">
        <ele>1010</ele>
        <time>2024-09-21T11:55:10Z</time>
      </trkpt>
      <trkpt lat="42.43572" lon="2.75263">
        <ele>1010</ele>
        <time>2024-09-21T11:55:13Z</time>
      </trkpt>
      <trkpt lat="42.43573" lon="2.75268">
        <ele>1008</ele>
        <time>2024-09-21T11:55:17Z</time>
      </trkpt>
      <trkpt lat="42.43573" lon="2.75273">
        <ele>1008</ele>
        <time>2024-09-21T11:55:20Z</time>
      </trkpt>
      <trkpt lat="42.43575" lon="2.75277">
        <ele>1008</ele>
        <time>2024-09-21T11:55:23Z</time>
      </trkpt>
      <trkpt lat="42.43574" lon="2.75281">
        <ele>1008</ele>
        <time>2024-09-21T11:55:26Z</time>
      </trkpt>
      <trkpt lat="42.43575" lon="2.75282">
        <ele>1009</ele>
        <time>2024-09-21T11:55:27Z</time>
      </trkpt>
      <trkpt lat="42.43576" lon="2.75285">
        <ele>1009</ele>
        <time>2024-09-21T11:55:29Z</time>
      </trkpt>
      <trkpt lat="42.43576" lon="2.7529">
        <ele>1009</ele>
        <time>2024-09-21T11:55:33Z</time>
      </trkpt>
      <trkpt lat="42.43577" lon="2.75295">
        <ele>1009</ele>
        <time>2024-09-21T11:55:36Z</time>
      </trkpt>
      <trkpt lat="42.43579" lon="2.75298">
        <ele>1008</ele>
        <time>2024-09-21T11:55:40Z</time>
      </trkpt>
      <trkpt lat="42.4358" lon="2.75301">
        <ele>1007</ele>
        <time>2024-09-21T11:55:42Z</time>
      </trkpt>
      <trkpt lat="42.43581" lon="2.75305">
        <ele>1007</ele>
        <time>2024-09-21T11:55:44Z</time>
      </trkpt>
      <trkpt lat="42.43583" lon="2.7531">
        <ele>1008</ele>
        <time>2024-09-21T11:55:47Z</time>
      </trkpt>
      <trkpt lat="42.43584" lon="2.75315">
        <ele>1008</ele>
        <time>2024-09-21T11:55:51Z</time>
      </trkpt>
      <trkpt lat="42.43585" lon="2.75319">
        <ele>1008</ele>
        <time>2024-09-21T11:55:53Z</time>
      </trkpt>
      <trkpt lat="42.43588" lon="2.75322">
        <ele>1009</ele>
        <time>2024-09-21T11:55:55Z</time>
      </trkpt>
      <trkpt lat="42.4359" lon="2.75325">
        <ele>1009</ele>
        <time>2024-09-21T11:55:56Z</time>
      </trkpt>
      <trkpt lat="42.43593" lon="2.75327">
        <ele>1008</ele>
        <time>2024-09-21T11:55:59Z</time>
      </trkpt>
      <trkpt lat="42.43596" lon="2.75329">
        <ele>1008</ele>
        <time>2024-09-21T11:56:01Z</time>
      </trkpt>
      <trkpt lat="42.43599" lon="2.75331">
        <ele>1007</ele>
        <time>2024-09-21T11:56:05Z</time>
      </trkpt>
      <trkpt lat="42.43602" lon="2.75332">
        <ele>1005</ele>
        <time>2024-09-21T11:56:08Z</time>
      </trkpt>
      <trkpt lat="42.43605" lon="2.75334">
        <ele>1006</ele>
        <time>2024-09-21T11:56:11Z</time>
      </trkpt>
      <trkpt lat="42.43608" lon="2.75334">
        <ele>1004</ele>
        <time>2024-09-21T11:56:15Z</time>
      </trkpt>
      <trkpt lat="42.4361" lon="2.75337">
        <ele>1003</ele>
        <time>2024-09-21T11:56:19Z</time>
      </trkpt>
      <trkpt lat="42.43612" lon="2.75339">
        <ele>1002</ele>
        <time>2024-09-21T11:56:22Z</time>
      </trkpt>
      <trkpt lat="42.43615" lon="2.75341">
        <ele>1002</ele>
        <time>2024-09-21T11:56:25Z</time>
      </trkpt>
      <trkpt lat="42.4362" lon="2.75344">
        <ele>1002</ele>
        <time>2024-09-21T11:56:30Z</time>
      </trkpt>
      <trkpt lat="42.43623" lon="2.75345">
        <ele>1001</ele>
        <time>2024-09-21T11:56:31Z</time>
      </trkpt>
      <trkpt lat="42.43625" lon="2.75348">
        <ele>1002</ele>
        <time>2024-09-21T11:56:34Z</time>
      </trkpt>
      <trkpt lat="42.43626" lon="2.75352">
        <ele>1001</ele>
        <time>2024-09-21T11:56:37Z</time>
      </trkpt>
      <trkpt lat="42.43628" lon="2.75356">
        <ele>1001</ele>
        <time>2024-09-21T11:56:39Z</time>
      </trkpt>
      <trkpt lat="42.4363" lon="2.75358">
        <ele>1001</ele>
        <time>2024-09-21T11:56:43Z</time>
      </trkpt>
      <trkpt lat="42.43633" lon="2.75362">
        <ele>1001</ele>
        <time>2024-09-21T11:56:47Z</time>
      </trkpt>
      <trkpt lat="42.43635" lon="2.75364">
        <ele>1001</ele>
        <time>2024-09-21T11:56:49Z</time>
      </trkpt>
      <trkpt lat="42.43637" lon="2.75367">
        <ele>1000</ele>
        <time>2024-09-21T11:56:52Z</time>
      </trkpt>
      <trkpt lat="42.4364" lon="2.7537">
        <ele>1001</ele>
        <time>2024-09-21T11:56:55Z</time>
      </trkpt>
      <trkpt lat="42.43642" lon="2.75372">
        <ele>999</ele>
        <time>2024-09-21T11:56:58Z</time>
      </trkpt>
      <trkpt lat="42.43645" lon="2.75374">
        <ele>1000</ele>
        <time>2024-09-21T11:57:01Z</time>
      </trkpt>
      <trkpt lat="42.43647" lon="2.75376">
        <ele>1000</ele>
        <time>2024-09-21T11:57:03Z</time>
      </trkpt>
      <trkpt lat="42.43649" lon="2.7538">
        <ele>1001</ele>
        <time>2024-09-21T11:57:05Z</time>
      </trkpt>
      <trkpt lat="42.4365" lon="2.75384">
        <ele>1000</ele>
        <time>2024-09-21T11:57:08Z</time>
      </trkpt>
      <trkpt lat="42.43652" lon="2.75387">
        <ele>1000</ele>
        <time>2024-09-21T11:57:11Z</time>
      </trkpt>
      <trkpt lat="42.43654" lon="2.7539">
        <ele>999</ele>
        <time>2024-09-21T11:57:14Z</time>
      </trkpt>
      <trkpt lat="42.43654" lon="2.75394">
        <ele>998</ele>
        <time>2024-09-21T11:57:17Z</time>
      </trkpt>
      <trkpt lat="42.43655" lon="2.75398">
        <ele>998</ele>
        <time>2024-09-21T11:57:20Z</time>
      </trkpt>
      <trkpt lat="42.43656" lon="2.75401">
        <ele>999</ele>
        <time>2024-09-21T11:57:23Z</time>
      </trkpt>
      <trkpt lat="42.43656" lon="2.75405">
        <ele>998</ele>
        <time>2024-09-21T11:57:26Z</time>
      </trkpt>
      <trkpt lat="42.43657" lon="2.75409">
        <ele>997</ele>
        <time>2024-09-21T11:57:29Z</time>
      </trkpt>
      <trkpt lat="42.43657" lon="2.75413">
        <ele>997</ele>
        <time>2024-09-21T11:57:32Z</time>
      </trkpt>
      <trkpt lat="42.43657" lon="2.75417">
        <ele>996</ele>
        <time>2024-09-21T11:57:34Z</time>
      </trkpt>
      <trkpt lat="42.43657" lon="2.75421">
        <ele>996</ele>
        <time>2024-09-21T11:57:37Z</time>
      </trkpt>
      <trkpt lat="42.43656" lon="2.75425">
        <ele>995</ele>
        <time>2024-09-21T11:57:39Z</time>
      </trkpt>
      <trkpt lat="42.43655" lon="2.75429">
        <ele>994</ele>
        <time>2024-09-21T11:57:42Z</time>
      </trkpt>
      <trkpt lat="42.43655" lon="2.75432">
        <ele>996</ele>
        <time>2024-09-21T11:57:44Z</time>
      </trkpt>
      <trkpt lat="42.43654" lon="2.75437">
        <ele>994</ele>
        <time>2024-09-21T11:57:47Z</time>
      </trkpt>
      <trkpt lat="42.43654" lon="2.75441">
        <ele>993</ele>
        <time>2024-09-21T11:57:51Z</time>
      </trkpt>
      <trkpt lat="42.43654" lon="2.75445">
        <ele>993</ele>
        <time>2024-09-21T11:57:53Z</time>
      </trkpt>
      <trkpt lat="42.43654" lon="2.75449">
        <ele>992</ele>
        <time>2024-09-21T11:57:56Z</time>
      </trkpt>
      <trkpt lat="42.43655" lon="2.75453">
        <ele>991</ele>
        <time>2024-09-21T11:57:58Z</time>
      </trkpt>
      <trkpt lat="42.43656" lon="2.75457">
        <ele>992</ele>
        <time>2024-09-21T11:58:00Z</time>
      </trkpt>
      <trkpt lat="42.43656" lon="2.75462">
        <ele>992</ele>
        <time>2024-09-21T11:58:02Z</time>
      </trkpt>
      <trkpt lat="42.43657" lon="2.75465">
        <ele>990</ele>
        <time>2024-09-21T11:58:05Z</time>
      </trkpt>
      <trkpt lat="42.43658" lon="2.75469">
        <ele>989</ele>
        <time>2024-09-21T11:58:07Z</time>
      </trkpt>
      <trkpt lat="42.4366" lon="2.75472">
        <ele>990</ele>
        <time>2024-09-21T11:58:09Z</time>
      </trkpt>
      <trkpt lat="42.43662" lon="2.75476">
        <ele>989</ele>
        <time>2024-09-21T11:58:13Z</time>
      </trkpt>
      <trkpt lat="42.43663" lon="2.7548">
        <ele>988</ele>
        <time>2024-09-21T11:58:15Z</time>
      </trkpt>
      <trkpt lat="42.43665" lon="2.75484">
        <ele>986</ele>
        <time>2024-09-21T11:58:19Z</time>
      </trkpt>
      <trkpt lat="42.43668" lon="2.75487">
        <ele>986</ele>
        <time>2024-09-21T11:58:22Z</time>
      </trkpt>
      <trkpt lat="42.43671" lon="2.7549">
        <ele>986</ele>
        <time>2024-09-21T11:58:25Z</time>
      </trkpt>
      <trkpt lat="42.43672" lon="2.75494">
        <ele>985</ele>
        <time>2024-09-21T11:58:27Z</time>
      </trkpt>
      <trkpt lat="42.43675" lon="2.75497">
        <ele>985</ele>
        <time>2024-09-21T11:58:29Z</time>
      </trkpt>
      <trkpt lat="42.43677" lon="2.75501">
        <ele>985</ele>
        <time>2024-09-21T11:58:32Z</time>
      </trkpt>
      <trkpt lat="42.43679" lon="2.75504">
        <ele>984</ele>
        <time>2024-09-21T11:58:35Z</time>
      </trkpt>
      <trkpt lat="42.43681" lon="2.75508">
        <ele>984</ele>
        <time>2024-09-21T11:58:38Z</time>
      </trkpt>
      <trkpt lat="42.43682" lon="2.75513">
        <ele>982</ele>
        <time>2024-09-21T11:58:42Z</time>
      </trkpt>
      <trkpt lat="42.43684" lon="2.75517">
        <ele>982</ele>
        <time>2024-09-21T11:58:45Z</time>
      </trkpt>
      <trkpt lat="42.43686" lon="2.75521">
        <ele>981</ele>
        <time>2024-09-21T11:58:48Z</time>
      </trkpt>
      <trkpt lat="42.43686" lon="2.75525">
        <ele>981</ele>
        <time>2024-09-21T11:58:52Z</time>
      </trkpt>
      <trkpt lat="42.43685" lon="2.7553">
        <ele>980</ele>
        <time>2024-09-21T11:58:54Z</time>
      </trkpt>
      <trkpt lat="42.43683" lon="2.75532">
        <ele>981</ele>
        <time>2024-09-21T11:58:57Z</time>
      </trkpt>
      <trkpt lat="42.4368" lon="2.75536">
        <ele>981</ele>
        <time>2024-09-21T11:59:00Z</time>
      </trkpt>
      <trkpt lat="42.43678" lon="2.75539">
        <ele>983</ele>
        <time>2024-09-21T11:59:02Z</time>
      </trkpt>
      <trkpt lat="42.43676" lon="2.75545">
        <ele>982</ele>
        <time>2024-09-21T11:59:06Z</time>
      </trkpt>
      <trkpt lat="42.43673" lon="2.75549">
        <ele>982</ele>
        <time>2024-09-21T11:59:11Z</time>
      </trkpt>
      <trkpt lat="42.43671" lon="2.75553">
        <ele>981</ele>
        <time>2024-09-21T11:59:15Z</time>
      </trkpt>
      <trkpt lat="42.43669" lon="2.75557">
        <ele>980</ele>
        <time>2024-09-21T11:59:18Z</time>
      </trkpt>
      <trkpt lat="42.43668" lon="2.7556">
        <ele>980</ele>
        <time>2024-09-21T11:59:20Z</time>
      </trkpt>
      <trkpt lat="42.43667" lon="2.75564">
        <ele>981</ele>
        <time>2024-09-21T11:59:23Z</time>
      </trkpt>
      <trkpt lat="42.43664" lon="2.75567">
        <ele>980</ele>
        <time>2024-09-21T11:59:26Z</time>
      </trkpt>
      <trkpt lat="42.4366" lon="2.75569">
        <ele>980</ele>
        <time>2024-09-21T11:59:29Z</time>
      </trkpt>
      <trkpt lat="42.43657" lon="2.75572">
        <ele>978</ele>
        <time>2024-09-21T11:59:32Z</time>
      </trkpt>
      <trkpt lat="42.43655" lon="2.75577">
        <ele>979</ele>
        <time>2024-09-21T11:59:34Z</time>
      </trkpt>
      <trkpt lat="42.43654" lon="2.75581">
        <ele>977</ele>
        <time>2024-09-21T11:59:37Z</time>
      </trkpt>
      <trkpt lat="42.43652" lon="2.75584">
        <ele>976</ele>
        <time>2024-09-21T11:59:39Z</time>
      </trkpt>
      <trkpt lat="42.43649" lon="2.75584">
        <ele>976</ele>
        <time>2024-09-21T11:59:42Z</time>
      </trkpt>
      <trkpt lat="42.43646" lon="2.75585">
        <ele>975</ele>
        <time>2024-09-21T11:59:44Z</time>
      </trkpt>
      <trkpt lat="42.43644" lon="2.75588">
        <ele>975</ele>
        <time>2024-09-21T11:59:47Z</time>
      </trkpt>
      <trkpt lat="42.43643" lon="2.75592">
        <ele>974</ele>
        <time>2024-09-21T11:59:48Z</time>
      </trkpt>
      <trkpt lat="42.43641" lon="2.75595">
        <ele>975</ele>
        <time>2024-09-21T11:59:50Z</time>
      </trkpt>
      <trkpt lat="42.43639" lon="2.75599">
        <ele>974</ele>
        <time>2024-09-21T11:59:53Z</time>
      </trkpt>
      <trkpt lat="42.43638" lon="2.75603">
        <ele>974</ele>
        <time>2024-09-21T11:59:55Z</time>
      </trkpt>
      <trkpt lat="42.43637" lon="2.75606">
        <ele>974</ele>
        <time>2024-09-21T11:59:57Z</time>
      </trkpt>
      <trkpt lat="42.43637" lon="2.75611">
        <ele>970</ele>
        <time>2024-09-21T11:59:59Z</time>
      </trkpt>
      <trkpt lat="42.43638" lon="2.75614">
        <ele>969</ele>
        <time>2024-09-21T12:00:01Z</time>
      </trkpt>
      <trkpt lat="42.4364" lon="2.75618">
        <ele>969</ele>
        <time>2024-09-21T12:00:03Z</time>
      </trkpt>
      <trkpt lat="42.43642" lon="2.7562">
        <ele>970</ele>
        <time>2024-09-21T12:00:06Z</time>
      </trkpt>
      <trkpt lat="42.43641" lon="2.75624">
        <ele>968</ele>
        <time>2024-09-21T12:00:11Z</time>
      </trkpt>
      <trkpt lat="42.43643" lon="2.75626">
        <ele>968</ele>
        <time>2024-09-21T12:00:13Z</time>
      </trkpt>
      <trkpt lat="42.43644" lon="2.7563">
        <ele>968</ele>
        <time>2024-09-21T12:00:20Z</time>
      </trkpt>
      <trkpt lat="42.43645" lon="2.75634">
        <ele>969</ele>
        <time>2024-09-21T12:00:23Z</time>
      </trkpt>
      <trkpt lat="42.43646" lon="2.75638">
        <ele>969</ele>
        <time>2024-09-21T12:00:28Z</time>
      </trkpt>
      <trkpt lat="42.43646" lon="2.75641">
        <ele>967</ele>
        <time>2024-09-21T12:00:32Z</time>
      </trkpt>
      <trkpt lat="42.43647" lon="2.75645">
        <ele>968</ele>
        <time>2024-09-21T12:00:36Z</time>
      </trkpt>
      <trkpt lat="42.43648" lon="2.75649">
        <ele>967</ele>
        <time>2024-09-21T12:00:39Z</time>
      </trkpt>
      <trkpt lat="42.4365" lon="2.75652">
        <ele>967</ele>
        <time>2024-09-21T12:00:42Z</time>
      </trkpt>
      <trkpt lat="42.43652" lon="2.75655">
        <ele>966</ele>
        <time>2024-09-21T12:00:49Z</time>
      </trkpt>
      <trkpt lat="42.43652" lon="2.75658">
        <ele>966</ele>
        <time>2024-09-21T12:00:53Z</time>
      </trkpt>
      <trkpt lat="42.43653" lon="2.75661">
        <ele>965</ele>
        <time>2024-09-21T12:00:57Z</time>
      </trkpt>
      <trkpt lat="42.43654" lon="2.75665">
        <ele>966</ele>
        <time>2024-09-21T12:00:59Z</time>
      </trkpt>
      <trkpt lat="42.43656" lon="2.75668">
        <ele>965</ele>
        <time>2024-09-21T12:01:02Z</time>
      </trkpt>
      <trkpt lat="42.43658" lon="2.7567">
        <ele>964</ele>
        <time>2024-09-21T12:01:09Z</time>
      </trkpt>
      <trkpt lat="42.43661" lon="2.75671">
        <ele>964</ele>
        <time>2024-09-21T12:01:13Z</time>
      </trkpt>
      <trkpt lat="42.43663" lon="2.75671">
        <ele>962</ele>
        <time>2024-09-21T12:01:15Z</time>
      </trkpt>
      <trkpt lat="42.43665" lon="2.75674">
        <ele>962</ele>
        <time>2024-09-21T12:01:18Z</time>
      </trkpt>
      <trkpt lat="42.43667" lon="2.75676">
        <ele>961</ele>
        <time>2024-09-21T12:01:22Z</time>
      </trkpt>
      <trkpt lat="42.43666" lon="2.75676">
        <ele>962</ele>
        <time>2024-09-21T12:01:29Z</time>
      </trkpt>
      <trkpt lat="42.43663" lon="2.75678">
        <ele>964</ele>
        <time>2024-09-21T12:01:33Z</time>
      </trkpt>
      <trkpt lat="42.43664" lon="2.7568">
        <ele>963</ele>
        <time>2024-09-21T12:01:36Z</time>
      </trkpt>
      <trkpt lat="42.43666" lon="2.75683">
        <ele>963</ele>
        <time>2024-09-21T12:01:39Z</time>
      </trkpt>
      <trkpt lat="42.43667" lon="2.75686">
        <ele>963</ele>
        <time>2024-09-21T12:01:42Z</time>
      </trkpt>
      <trkpt lat="42.43669" lon="2.7569">
        <ele>963</ele>
        <time>2024-09-21T12:01:46Z</time>
      </trkpt>
      <trkpt lat="42.4367" lon="2.75695">
        <ele>963</ele>
        <time>2024-09-21T12:01:50Z</time>
      </trkpt>
      <trkpt lat="42.43671" lon="2.75698">
        <ele>964</ele>
        <time>2024-09-21T12:01:52Z</time>
      </trkpt>
      <trkpt lat="42.43674" lon="2.75702">
        <ele>965</ele>
        <time>2024-09-21T12:01:58Z</time>
      </trkpt>
      <trkpt lat="42.43675" lon="2.75706">
        <ele>965</ele>
        <time>2024-09-21T12:02:02Z</time>
      </trkpt>
      <trkpt lat="42.43677" lon="2.75709">
        <ele>965</ele>
        <time>2024-09-21T12:02:06Z</time>
      </trkpt>
      <trkpt lat="42.43677" lon="2.75713">
        <ele>966</ele>
        <time>2024-09-21T12:02:12Z</time>
      </trkpt>
      <trkpt lat="42.43676" lon="2.75717">
        <ele>967</ele>
        <time>2024-09-21T12:02:16Z</time>
      </trkpt>
      <trkpt lat="42.43676" lon="2.75722">
        <ele>967</ele>
        <time>2024-09-21T12:02:20Z</time>
      </trkpt>
      <trkpt lat="42.43676" lon="2.75726">
        <ele>968</ele>
        <time>2024-09-21T12:02:23Z</time>
      </trkpt>
      <trkpt lat="42.43675" lon="2.75731">
        <ele>966</ele>
        <time>2024-09-21T12:02:29Z</time>
      </trkpt>
      <trkpt lat="42.43677" lon="2.75735">
        <ele>967</ele>
        <time>2024-09-21T12:02:37Z</time>
      </trkpt>
      <trkpt lat="42.43677" lon="2.75739">
        <ele>969</ele>
        <time>2024-09-21T12:02:41Z</time>
      </trkpt>
      <trkpt lat="42.43677" lon="2.75743">
        <ele>970</ele>
        <time>2024-09-21T12:02:44Z</time>
      </trkpt>
      <trkpt lat="42.43678" lon="2.75747">
        <ele>971</ele>
        <time>2024-09-21T12:02:47Z</time>
      </trkpt>
      <trkpt lat="42.43678" lon="2.75751">
        <ele>972</ele>
        <time>2024-09-21T12:02:50Z</time>
      </trkpt>
      <trkpt lat="42.4368" lon="2.75755">
        <ele>972</ele>
        <time>2024-09-21T12:02:53Z</time>
      </trkpt>
      <trkpt lat="42.4368" lon="2.75759">
        <ele>972</ele>
        <time>2024-09-21T12:02:57Z</time>
      </trkpt>
      <trkpt lat="42.43678" lon="2.75763">
        <ele>972</ele>
        <time>2024-09-21T12:03:02Z</time>
      </trkpt>
      <trkpt lat="42.43677" lon="2.75766">
        <ele>972</ele>
        <time>2024-09-21T12:03:05Z</time>
      </trkpt>
      <trkpt lat="42.43675" lon="2.75771">
        <ele>973</ele>
        <time>2024-09-21T12:03:07Z</time>
      </trkpt>
      <trkpt lat="42.43675" lon="2.75775">
        <ele>973</ele>
        <time>2024-09-21T12:03:09Z</time>
      </trkpt>
      <trkpt lat="42.43674" lon="2.75779">
        <ele>973</ele>
        <time>2024-09-21T12:03:11Z</time>
      </trkpt>
      <trkpt lat="42.43674" lon="2.75783">
        <ele>972</ele>
        <time>2024-09-21T12:03:13Z</time>
      </trkpt>
      <trkpt lat="42.43675" lon="2.75786">
        <ele>972</ele>
        <time>2024-09-21T12:03:16Z</time>
      </trkpt>
      <trkpt lat="42.43675" lon="2.7579">
        <ele>973</ele>
        <time>2024-09-21T12:03:19Z</time>
      </trkpt>
      <trkpt lat="42.43677" lon="2.75794">
        <ele>973</ele>
        <time>2024-09-21T12:03:22Z</time>
      </trkpt>
      <trkpt lat="42.43679" lon="2.75798">
        <ele>973</ele>
        <time>2024-09-21T12:03:26Z</time>
      </trkpt>
      <trkpt lat="42.43682" lon="2.75801">
        <ele>974</ele>
        <time>2024-09-21T12:03:30Z</time>
      </trkpt>
      <trkpt lat="42.43685" lon="2.75803">
        <ele>975</ele>
        <time>2024-09-21T12:03:32Z</time>
      </trkpt>
      <trkpt lat="42.43686" lon="2.75806">
        <ele>974</ele>
        <time>2024-09-21T12:03:36Z</time>
      </trkpt>
      <trkpt lat="42.43688" lon="2.7581">
        <ele>974</ele>
        <time>2024-09-21T12:03:40Z</time>
      </trkpt>
      <trkpt lat="42.4369" lon="2.75814">
        <ele>974</ele>
        <time>2024-09-21T12:03:43Z</time>
      </trkpt>
      <trkpt lat="42.43692" lon="2.75817">
        <ele>975</ele>
        <time>2024-09-21T12:03:49Z</time>
      </trkpt>
      <trkpt lat="42.43694" lon="2.7582">
        <ele>975</ele>
        <time>2024-09-21T12:03:53Z</time>
      </trkpt>
      <trkpt lat="42.43696" lon="2.75823">
        <ele>976</ele>
        <time>2024-09-21T12:03:54Z</time>
      </trkpt>
      <trkpt lat="42.43699" lon="2.75826">
        <ele>975</ele>
        <time>2024-09-21T12:03:56Z</time>
      </trkpt>
      <trkpt lat="42.437" lon="2.7583">
        <ele>975</ele>
        <time>2024-09-21T12:03:59Z</time>
      </trkpt>
      <trkpt lat="42.437" lon="2.75835">
        <ele>976</ele>
        <time>2024-09-21T12:04:03Z</time>
      </trkpt>
      <trkpt lat="42.43701" lon="2.75839">
        <ele>976</ele>
        <time>2024-09-21T12:04:06Z</time>
      </trkpt>
      <trkpt lat="42.437" lon="2.75843">
        <ele>977</ele>
        <time>2024-09-21T12:04:15Z</time>
      </trkpt>
      <trkpt lat="42.43701" lon="2.75847">
        <ele>976</ele>
        <time>2024-09-21T12:04:19Z</time>
      </trkpt>
      <trkpt lat="42.43702" lon="2.75852">
        <ele>976</ele>
        <time>2024-09-21T12:04:23Z</time>
      </trkpt>
      <trkpt lat="42.43703" lon="2.75855">
        <ele>978</ele>
        <time>2024-09-21T12:04:29Z</time>
      </trkpt>
      <trkpt lat="42.43705" lon="2.75858">
        <ele>976</ele>
        <time>2024-09-21T12:04:31Z</time>
      </trkpt>
      <trkpt lat="42.43707" lon="2.75862">
        <ele>976</ele>
        <time>2024-09-21T12:04:35Z</time>
      </trkpt>
      <trkpt lat="42.43709" lon="2.75865">
        <ele>977</ele>
        <time>2024-09-21T12:04:37Z</time>
      </trkpt>
      <trkpt lat="42.43711" lon="2.75869">
        <ele>977</ele>
        <time>2024-09-21T12:04:41Z</time>
      </trkpt>
      <trkpt lat="42.43711" lon="2.75873">
        <ele>979</ele>
        <time>2024-09-21T12:04:45Z</time>
      </trkpt>
      <trkpt lat="42.43713" lon="2.75875">
        <ele>980</ele>
        <time>2024-09-21T12:04:51Z</time>
      </trkpt>
      <trkpt lat="42.43715" lon="2.75878">
        <ele>979</ele>
        <time>2024-09-21T12:04:54Z</time>
      </trkpt>
      <trkpt lat="42.43718" lon="2.75881">
        <ele>979</ele>
        <time>2024-09-21T12:05:00Z</time>
      </trkpt>
      <trkpt lat="42.4372" lon="2.75885">
        <ele>978</ele>
        <time>2024-09-21T12:05:05Z</time>
      </trkpt>
      <trkpt lat="42.43722" lon="2.75889">
        <ele>980</ele>
        <time>2024-09-21T12:05:16Z</time>
      </trkpt>
      <trkpt lat="42.43724" lon="2.75891">
        <ele>982</ele>
        <time>2024-09-21T12:05:21Z</time>
      </trkpt>
      <trkpt lat="42.43725" lon="2.75895">
        <ele>983</ele>
        <time>2024-09-21T12:05:27Z</time>
      </trkpt>
      <trkpt lat="42.43727" lon="2.75898">
        <ele>984</ele>
        <time>2024-09-21T12:05:35Z</time>
      </trkpt>
      <trkpt lat="42.43728" lon="2.75902">
        <ele>985</ele>
        <time>2024-09-21T12:05:38Z</time>
      </trkpt>
      <trkpt lat="42.4373" lon="2.75905">
        <ele>985</ele>
        <time>2024-09-21T12:05:40Z</time>
      </trkpt>
      <trkpt lat="42.43733" lon="2.75907">
        <ele>985</ele>
        <time>2024-09-21T12:05:43Z</time>
      </trkpt>
      <trkpt lat="42.43736" lon="2.75909">
        <ele>986</ele>
        <time>2024-09-21T12:05:45Z</time>
      </trkpt>
      <trkpt lat="42.43737" lon="2.75913">
        <ele>987</ele>
        <time>2024-09-21T12:05:53Z</time>
      </trkpt>
      <trkpt lat="42.4374" lon="2.75914">
        <ele>988</ele>
        <time>2024-09-21T12:05:56Z</time>
      </trkpt>
      <trkpt lat="42.43744" lon="2.75914">
        <ele>989</ele>
        <time>2024-09-21T12:05:58Z</time>
      </trkpt>
      <trkpt lat="42.43746" lon="2.75916">
        <ele>988</ele>
        <time>2024-09-21T12:06:01Z</time>
      </trkpt>
      <trkpt lat="42.43748" lon="2.75919">
        <ele>989</ele>
        <time>2024-09-21T12:06:05Z</time>
      </trkpt>
      <trkpt lat="42.43749" lon="2.75923">
        <ele>989</ele>
        <time>2024-09-21T12:06:08Z</time>
      </trkpt>
      <trkpt lat="42.43751" lon="2.75925">
        <ele>989</ele>
        <time>2024-09-21T12:06:12Z</time>
      </trkpt>
      <trkpt lat="42.43754" lon="2.75927">
        <ele>988</ele>
        <time>2024-09-21T12:06:14Z</time>
      </trkpt>
      <trkpt lat="42.43757" lon="2.75928">
        <ele>988</ele>
        <time>2024-09-21T12:06:17Z</time>
      </trkpt>
      <trkpt lat="42.43761" lon="2.75929">
        <ele>987</ele>
        <time>2024-09-21T12:06:21Z</time>
      </trkpt>
      <trkpt lat="42.43764" lon="2.75929">
        <ele>987</ele>
        <time>2024-09-21T12:06:23Z</time>
      </trkpt>
      <trkpt lat="42.43767" lon="2.75931">
        <ele>987</ele>
        <time>2024-09-21T12:06:27Z</time>
      </trkpt>
      <trkpt lat="42.4377" lon="2.75932">
        <ele>988</ele>
        <time>2024-09-21T12:06:29Z</time>
      </trkpt>
      <trkpt lat="42.43773" lon="2.75932">
        <ele>989</ele>
        <time>2024-09-21T12:06:32Z</time>
      </trkpt>
      <trkpt lat="42.43776" lon="2.75932">
        <ele>989</ele>
        <time>2024-09-21T12:06:35Z</time>
      </trkpt>
      <trkpt lat="42.43778" lon="2.75934">
        <ele>990</ele>
        <time>2024-09-21T12:06:38Z</time>
      </trkpt>
      <trkpt lat="42.43782" lon="2.75933">
        <ele>989</ele>
        <time>2024-09-21T12:06:41Z</time>
      </trkpt>
      <trkpt lat="42.43785" lon="2.75933">
        <ele>990</ele>
        <time>2024-09-21T12:06:46Z</time>
      </trkpt>
      <trkpt lat="42.43789" lon="2.75932">
        <ele>990</ele>
        <time>2024-09-21T12:06:50Z</time>
      </trkpt>
      <trkpt lat="42.43792" lon="2.75932">
        <ele>989</ele>
        <time>2024-09-21T12:06:52Z</time>
      </trkpt>
      <trkpt lat="42.43795" lon="2.75933">
        <ele>988</ele>
        <time>2024-09-21T12:06:55Z</time>
      </trkpt>
      <trkpt lat="42.43798" lon="2.75933">
        <ele>987</ele>
        <time>2024-09-21T12:06:57Z</time>
      </trkpt>
      <trkpt lat="42.43801" lon="2.75933">
        <ele>987</ele>
        <time>2024-09-21T12:07:00Z</time>
      </trkpt>
      <trkpt lat="42.43804" lon="2.75932">
        <ele>987</ele>
        <time>2024-09-21T12:07:04Z</time>
      </trkpt>
      <trkpt lat="42.43807" lon="2.75932">
        <ele>986</ele>
        <time>2024-09-21T12:07:07Z</time>
      </trkpt>
      <trkpt lat="42.4381" lon="2.75931">
        <ele>986</ele>
        <time>2024-09-21T12:07:10Z</time>
      </trkpt>
      <trkpt lat="42.43813" lon="2.75931">
        <ele>985</ele>
        <time>2024-09-21T12:07:13Z</time>
      </trkpt>
      <trkpt lat="42.43817" lon="2.75931">
        <ele>985</ele>
        <time>2024-09-21T12:07:15Z</time>
      </trkpt>
      <trkpt lat="42.43819" lon="2.75932">
        <ele>984</ele>
        <time>2024-09-21T12:07:21Z</time>
      </trkpt>
      <trkpt lat="42.43822" lon="2.75932">
        <ele>983</ele>
        <time>2024-09-21T12:07:24Z</time>
      </trkpt>
      <trkpt lat="42.43825" lon="2.75931">
        <ele>982</ele>
        <time>2024-09-21T12:07:26Z</time>
      </trkpt>
      <trkpt lat="42.43828" lon="2.75933">
        <ele>983</ele>
        <time>2024-09-21T12:07:28Z</time>
      </trkpt>
      <trkpt lat="42.43831" lon="2.75933">
        <ele>982</ele>
        <time>2024-09-21T12:07:34Z</time>
      </trkpt>
      <trkpt lat="42.43834" lon="2.75931">
        <ele>982</ele>
        <time>2024-09-21T12:07:36Z</time>
      </trkpt>
      <trkpt lat="42.43837" lon="2.75929">
        <ele>980</ele>
        <time>2024-09-21T12:07:41Z</time>
      </trkpt>
      <trkpt lat="42.43841" lon="2.75927">
        <ele>980</ele>
        <time>2024-09-21T12:07:44Z</time>
      </trkpt>
      <trkpt lat="42.43844" lon="2.75928">
        <ele>978</ele>
        <time>2024-09-21T12:07:48Z</time>
      </trkpt>
      <trkpt lat="42.43847" lon="2.75928">
        <ele>979</ele>
        <time>2024-09-21T12:07:51Z</time>
      </trkpt>
      <trkpt lat="42.4385" lon="2.75927">
        <ele>979</ele>
        <time>2024-09-21T12:07:54Z</time>
      </trkpt>
      <trkpt lat="42.43852" lon="2.75928">
        <ele>979</ele>
        <time>2024-09-21T12:07:57Z</time>
      </trkpt>
      <trkpt lat="42.43856" lon="2.75929">
        <ele>978</ele>
        <time>2024-09-21T12:08:01Z</time>
      </trkpt>
      <trkpt lat="42.43859" lon="2.75928">
        <ele>978</ele>
        <time>2024-09-21T12:08:04Z</time>
      </trkpt>
      <trkpt lat="42.43862" lon="2.75928">
        <ele>979</ele>
        <time>2024-09-21T12:08:09Z</time>
      </trkpt>
      <trkpt lat="42.43864" lon="2.75929">
        <ele>978</ele>
        <time>2024-09-21T12:08:12Z</time>
      </trkpt>
      <trkpt lat="42.43868" lon="2.7593">
        <ele>979</ele>
        <time>2024-09-21T12:08:16Z</time>
      </trkpt>
      <trkpt lat="42.43871" lon="2.75929">
        <ele>980</ele>
        <time>2024-09-21T12:08:20Z</time>
      </trkpt>
      <trkpt lat="42.43874" lon="2.75929">
        <ele>979</ele>
        <time>2024-09-21T12:08:22Z</time>
      </trkpt>
      <trkpt lat="42.43878" lon="2.75929">
        <ele>978</ele>
        <time>2024-09-21T12:08:27Z</time>
      </trkpt>
      <trkpt lat="42.43881" lon="2.75928">
        <ele>979</ele>
        <time>2024-09-21T12:08:31Z</time>
      </trkpt>
      <trkpt lat="42.43884" lon="2.75929">
        <ele>981</ele>
        <time>2024-09-21T12:08:35Z</time>
      </trkpt>
      <trkpt lat="42.43887" lon="2.75928">
        <ele>980</ele>
        <time>2024-09-21T12:08:43Z</time>
      </trkpt>
      <trkpt lat="42.43891" lon="2.75929">
        <ele>980</ele>
        <time>2024-09-21T12:08:47Z</time>
      </trkpt>
      <trkpt lat="42.43895" lon="2.7593">
        <ele>982</ele>
        <time>2024-09-21T12:08:51Z</time>
      </trkpt>
      <trkpt lat="42.43897" lon="2.75929">
        <ele>981</ele>
        <time>2024-09-21T12:08:55Z</time>
      </trkpt>
      <trkpt lat="42.439" lon="2.75926">
        <ele>981</ele>
        <time>2024-09-21T12:08:58Z</time>
      </trkpt>
      <trkpt lat="42.43901" lon="2.75927">
        <ele>984</ele>
        <time>2024-09-21T12:09:07Z</time>
      </trkpt>
      <trkpt lat="42.43904" lon="2.75927">
        <ele>986</ele>
        <time>2024-09-21T12:09:14Z</time>
      </trkpt>
      <trkpt lat="42.43907" lon="2.75925">
        <ele>987</ele>
        <time>2024-09-21T12:09:20Z</time>
      </trkpt>
      <trkpt lat="42.4391" lon="2.75925">
        <ele>990</ele>
        <time>2024-09-21T12:09:28Z</time>
      </trkpt>
      <trkpt lat="42.43913" lon="2.75926">
        <ele>992</ele>
        <time>2024-09-21T12:09:32Z</time>
      </trkpt>
      <trkpt lat="42.43915" lon="2.75928">
        <ele>993</ele>
        <time>2024-09-21T12:09:36Z</time>
      </trkpt>
      <trkpt lat="42.43918" lon="2.7593">
        <ele>993</ele>
        <time>2024-09-21T12:09:41Z</time>
      </trkpt>
      <trkpt lat="42.4392" lon="2.75933">
        <ele>993</ele>
        <time>2024-09-21T12:09:44Z</time>
      </trkpt>
      <trkpt lat="42.43921" lon="2.75936">
        <ele>993</ele>
        <time>2024-09-21T12:09:48Z</time>
      </trkpt>
      <trkpt lat="42.43923" lon="2.75938">
        <ele>994</ele>
        <time>2024-09-21T12:09:52Z</time>
      </trkpt>
      <trkpt lat="42.43926" lon="2.75939">
        <ele>992</ele>
        <time>2024-09-21T12:09:55Z</time>
      </trkpt>
      <trkpt lat="42.43929" lon="2.75938">
        <ele>991</ele>
        <time>2024-09-21T12:09:58Z</time>
      </trkpt>
      <trkpt lat="42.43932" lon="2.75937">
        <ele>990</ele>
        <time>2024-09-21T12:10:02Z</time>
      </trkpt>
      <trkpt lat="42.43932" lon="2.75938">
        <ele>999</ele>
        <time>2024-09-21T12:10:20Z</time>
      </trkpt>
      <trkpt lat="42.43933" lon="2.75937">
        <ele>999</ele>
        <time>2024-09-21T12:10:53Z</time>
      </trkpt>
      <trkpt lat="42.43935" lon="2.75934">
        <ele>991</ele>
        <time>2024-09-21T12:11:16Z</time>
      </trkpt>
      <trkpt lat="42.43937" lon="2.75935">
        <ele>991</ele>
        <time>2024-09-21T12:11:19Z</time>
      </trkpt>
      <trkpt lat="42.43941" lon="2.75934">
        <ele>992</ele>
        <time>2024-09-21T12:11:26Z</time>
      </trkpt>
      <trkpt lat="42.43944" lon="2.75933">
        <ele>992</ele>
        <time>2024-09-21T12:11:29Z</time>
      </trkpt>
      <trkpt lat="42.43947" lon="2.75931">
        <ele>992</ele>
        <time>2024-09-21T12:11:34Z</time>
      </trkpt>
      <trkpt lat="42.4395" lon="2.7593">
        <ele>994</ele>
        <time>2024-09-21T12:11:36Z</time>
      </trkpt>
      <trkpt lat="42.43953" lon="2.7593">
        <ele>995</ele>
        <time>2024-09-21T12:11:39Z</time>
      </trkpt>
      <trkpt lat="42.43956" lon="2.7593">
        <ele>1000</ele>
        <time>2024-09-21T12:11:46Z</time>
      </trkpt>
      <trkpt lat="42.43959" lon="2.7593">
        <ele>999</ele>
        <time>2024-09-21T12:11:52Z</time>
      </trkpt>
      <trkpt lat="42.43962" lon="2.7593">
        <ele>1001</ele>
        <time>2024-09-21T12:11:54Z</time>
      </trkpt>
      <trkpt lat="42.43966" lon="2.75928">
        <ele>1002</ele>
        <time>2024-09-21T12:11:58Z</time>
      </trkpt>
      <trkpt lat="42.43969" lon="2.75926">
        <ele>1003</ele>
        <time>2024-09-21T12:12:02Z</time>
      </trkpt>
      <trkpt lat="42.43973" lon="2.75926">
        <ele>1002</ele>
        <time>2024-09-21T12:12:06Z</time>
      </trkpt>
      <trkpt lat="42.43976" lon="2.75926">
        <ele>1003</ele>
        <time>2024-09-21T12:12:10Z</time>
      </trkpt>
      <trkpt lat="42.43978" lon="2.75928">
        <ele>1005</ele>
        <time>2024-09-21T12:12:15Z</time>
      </trkpt>
      <trkpt lat="42.43981" lon="2.75927">
        <ele>1005</ele>
        <time>2024-09-21T12:12:17Z</time>
      </trkpt>
      <trkpt lat="42.43984" lon="2.75926">
        <ele>1007</ele>
        <time>2024-09-21T12:12:21Z</time>
      </trkpt>
      <trkpt lat="42.43987" lon="2.75925">
        <ele>1010</ele>
        <time>2024-09-21T12:12:25Z</time>
      </trkpt>
      <trkpt lat="42.4399" lon="2.75925">
        <ele>1009</ele>
        <time>2024-09-21T12:12:27Z</time>
      </trkpt>
      <trkpt lat="42.43993" lon="2.75924">
        <ele>1008</ele>
        <time>2024-09-21T12:12:33Z</time>
      </trkpt>
      <trkpt lat="42.43996" lon="2.75924">
        <ele>1007</ele>
        <time>2024-09-21T12:12:37Z</time>
      </trkpt>
      <trkpt lat="42.44" lon="2.75924">
        <ele>1007</ele>
        <time>2024-09-21T12:12:43Z</time>
      </trkpt>
      <trkpt lat="42.44003" lon="2.75926">
        <ele>1007</ele>
        <time>2024-09-21T12:12:45Z</time>
      </trkpt>
      <trkpt lat="42.44006" lon="2.75925">
        <ele>1007</ele>
        <time>2024-09-21T12:12:48Z</time>
      </trkpt>
      <trkpt lat="42.4401" lon="2.75925">
        <ele>1009</ele>
        <time>2024-09-21T12:12:52Z</time>
      </trkpt>
      <trkpt lat="42.44013" lon="2.75926">
        <ele>1012</ele>
        <time>2024-09-21T12:13:01Z</time>
      </trkpt>
      <trkpt lat="42.44016" lon="2.75925">
        <ele>1012</ele>
        <time>2024-09-21T12:13:04Z</time>
      </trkpt>
      <trkpt lat="42.44019" lon="2.75925">
        <ele>1013</ele>
        <time>2024-09-21T12:13:09Z</time>
      </trkpt>
      <trkpt lat="42.44022" lon="2.75925">
        <ele>1014</ele>
        <time>2024-09-21T12:13:13Z</time>
      </trkpt>
      <trkpt lat="42.44025" lon="2.75924">
        <ele>1013</ele>
        <time>2024-09-21T12:13:16Z</time>
      </trkpt>
      <trkpt lat="42.44028" lon="2.75924">
        <ele>1015</ele>
        <time>2024-09-21T12:13:23Z</time>
      </trkpt>
      <trkpt lat="42.44031" lon="2.75925">
        <ele>1016</ele>
        <time>2024-09-21T12:13:27Z</time>
      </trkpt>
      <trkpt lat="42.44034" lon="2.75927">
        <ele>1017</ele>
        <time>2024-09-21T12:13:31Z</time>
      </trkpt>
      <trkpt lat="42.44037" lon="2.75929">
        <ele>1017</ele>
        <time>2024-09-21T12:13:34Z</time>
      </trkpt>
      <trkpt lat="42.4404" lon="2.7593">
        <ele>1016</ele>
        <time>2024-09-21T12:13:36Z</time>
      </trkpt>
      <trkpt lat="42.44043" lon="2.7593">
        <ele>1016</ele>
        <time>2024-09-21T12:13:39Z</time>
      </trkpt>
      <trkpt lat="42.44046" lon="2.75929">
        <ele>1016</ele>
        <time>2024-09-21T12:13:41Z</time>
      </trkpt>
      <trkpt lat="42.4405" lon="2.7593">
        <ele>1016</ele>
        <time>2024-09-21T12:13:44Z</time>
      </trkpt>
      <trkpt lat="42.44053" lon="2.75931">
        <ele>1018</ele>
        <time>2024-09-21T12:13:48Z</time>
      </trkpt>
      <trkpt lat="42.44056" lon="2.75932">
        <ele>1021</ele>
        <time>2024-09-21T12:13:52Z</time>
      </trkpt>
      <trkpt lat="42.44058" lon="2.75935">
        <ele>1019</ele>
        <time>2024-09-21T12:13:55Z</time>
      </trkpt>
      <trkpt lat="42.4406" lon="2.75939">
        <ele>1018</ele>
        <time>2024-09-21T12:13:58Z</time>
      </trkpt>
      <trkpt lat="42.44062" lon="2.7594">
        <ele>1020</ele>
        <time>2024-09-21T12:14:04Z</time>
      </trkpt>
      <trkpt lat="42.44061" lon="2.75944">
        <ele>1025</ele>
        <time>2024-09-21T12:14:28Z</time>
      </trkpt>
      <trkpt lat="42.44059" lon="2.75948">
        <ele>1027</ele>
        <time>2024-09-21T12:14:30Z</time>
      </trkpt>
      <trkpt lat="42.44058" lon="2.75952">
        <ele>1026</ele>
        <time>2024-09-21T12:14:33Z</time>
      </trkpt>
      <trkpt lat="42.44056" lon="2.75955">
        <ele>1026</ele>
        <time>2024-09-21T12:14:35Z</time>
      </trkpt>
      <trkpt lat="42.44053" lon="2.75957">
        <ele>1026</ele>
        <time>2024-09-21T12:14:37Z</time>
      </trkpt>
      <trkpt lat="42.4405" lon="2.75959">
        <ele>1028</ele>
        <time>2024-09-21T12:14:41Z</time>
      </trkpt>
      <trkpt lat="42.44047" lon="2.75961">
        <ele>1026</ele>
        <time>2024-09-21T12:14:44Z</time>
      </trkpt>
      <trkpt lat="42.44044" lon="2.75963">
        <ele>1026</ele>
        <time>2024-09-21T12:14:47Z</time>
      </trkpt>
      <trkpt lat="42.44041" lon="2.75966">
        <ele>1026</ele>
        <time>2024-09-21T12:14:49Z</time>
      </trkpt>
      <trkpt lat="42.44039" lon="2.75971">
        <ele>1025</ele>
        <time>2024-09-21T12:14:52Z</time>
      </trkpt>
      <trkpt lat="42.44037" lon="2.75975">
        <ele>1024</ele>
        <time>2024-09-21T12:14:54Z</time>
      </trkpt>
      <trkpt lat="42.44034" lon="2.75978">
        <ele>1021</ele>
        <time>2024-09-21T12:14:56Z</time>
      </trkpt>
      <trkpt lat="42.44032" lon="2.75982">
        <ele>1021</ele>
        <time>2024-09-21T12:15:00Z</time>
      </trkpt>
      <trkpt lat="42.44029" lon="2.75985">
        <ele>1020</ele>
        <time>2024-09-21T12:15:03Z</time>
      </trkpt>
      <trkpt lat="42.44027" lon="2.75988">
        <ele>1021</ele>
        <time>2024-09-21T12:15:05Z</time>
      </trkpt>
      <trkpt lat="42.44025" lon="2.7599">
        <ele>1020</ele>
        <time>2024-09-21T12:15:07Z</time>
      </trkpt>
      <trkpt lat="42.44023" lon="2.75993">
        <ele>1020</ele>
        <time>2024-09-21T12:15:10Z</time>
      </trkpt>
      <trkpt lat="42.4402" lon="2.75996">
        <ele>1021</ele>
        <time>2024-09-21T12:15:13Z</time>
      </trkpt>
      <trkpt lat="42.44017" lon="2.75999">
        <ele>1020</ele>
        <time>2024-09-21T12:15:16Z</time>
      </trkpt>
      <trkpt lat="42.44014" lon="2.76002">
        <ele>1020</ele>
        <time>2024-09-21T12:15:18Z</time>
      </trkpt>
      <trkpt lat="42.44011" lon="2.76004">
        <ele>1021</ele>
        <time>2024-09-21T12:15:21Z</time>
      </trkpt>
      <trkpt lat="42.44008" lon="2.76006">
        <ele>1021</ele>
        <time>2024-09-21T12:15:24Z</time>
      </trkpt>
      <trkpt lat="42.44005" lon="2.76007">
        <ele>1022</ele>
        <time>2024-09-21T12:15:26Z</time>
      </trkpt>
      <trkpt lat="42.44002" lon="2.76009">
        <ele>1022</ele>
        <time>2024-09-21T12:15:29Z</time>
      </trkpt>
      <trkpt lat="42.43998" lon="2.76012">
        <ele>1023</ele>
        <time>2024-09-21T12:15:33Z</time>
      </trkpt>
      <trkpt lat="42.43995" lon="2.76013">
        <ele>1024</ele>
        <time>2024-09-21T12:15:36Z</time>
      </trkpt>
      <trkpt lat="42.43991" lon="2.76013">
        <ele>1025</ele>
        <time>2024-09-21T12:15:39Z</time>
      </trkpt>
      <trkpt lat="42.43987" lon="2.76013">
        <ele>1025</ele>
        <time>2024-09-21T12:15:41Z</time>
      </trkpt>
      <trkpt lat="42.43984" lon="2.76014">
        <ele>1025</ele>
        <time>2024-09-21T12:15:43Z</time>
      </trkpt>
      <trkpt lat="42.43981" lon="2.76016">
        <ele>1026</ele>
        <time>2024-09-21T12:15:46Z</time>
      </trkpt>
      <trkpt lat="42.43978" lon="2.76016">
        <ele>1025</ele>
        <time>2024-09-21T12:15:49Z</time>
      </trkpt>
      <trkpt lat="42.43974" lon="2.76014">
        <ele>1026</ele>
        <time>2024-09-21T12:15:51Z</time>
      </trkpt>
      <trkpt lat="42.43971" lon="2.76012">
        <ele>1027</ele>
        <time>2024-09-21T12:15:54Z</time>
      </trkpt>
      <trkpt lat="42.43968" lon="2.76013">
        <ele>1028</ele>
        <time>2024-09-21T12:15:57Z</time>
      </trkpt>
      <trkpt lat="42.43965" lon="2.76013">
        <ele>1029</ele>
        <time>2024-09-21T12:15:59Z</time>
      </trkpt>
      <trkpt lat="42.43962" lon="2.76014">
        <ele>1032</ele>
        <time>2024-09-21T12:16:01Z</time>
      </trkpt>
      <trkpt lat="42.43959" lon="2.76015">
        <ele>1030</ele>
        <time>2024-09-21T12:16:04Z</time>
      </trkpt>
      <trkpt lat="42.43956" lon="2.76016">
        <ele>1031</ele>
        <time>2024-09-21T12:16:08Z</time>
      </trkpt>
      <trkpt lat="42.43952" lon="2.76018">
        <ele>1030</ele>
        <time>2024-09-21T12:16:11Z</time>
      </trkpt>
      <trkpt lat="42.4395" lon="2.76022">
        <ele>1028</ele>
        <time>2024-09-21T12:16:13Z</time>
      </trkpt>
      <trkpt lat="42.43948" lon="2.76027">
        <ele>1026</ele>
        <time>2024-09-21T12:16:15Z</time>
      </trkpt>
      <trkpt lat="42.43946" lon="2.76031">
        <ele>1023</ele>
        <time>2024-09-21T12:16:17Z</time>
      </trkpt>
      <trkpt lat="42.43946" lon="2.76035">
        <ele>1021</ele>
        <time>2024-09-21T12:16:19Z</time>
      </trkpt>
      <trkpt lat="42.43944" lon="2.7604">
        <ele>1020</ele>
        <time>2024-09-21T12:16:21Z</time>
      </trkpt>
      <trkpt lat="42.43942" lon="2.76043">
        <ele>1018</ele>
        <time>2024-09-21T12:16:23Z</time>
      </trkpt>
      <trkpt lat="42.4394" lon="2.76046">
        <ele>1017</ele>
        <time>2024-09-21T12:16:25Z</time>
      </trkpt>
      <trkpt lat="42.43938" lon="2.76049">
        <ele>1018</ele>
        <time>2024-09-21T12:16:27Z</time>
      </trkpt>
      <trkpt lat="42.43936" lon="2.76052">
        <ele>1015</ele>
        <time>2024-09-21T12:16:29Z</time>
      </trkpt>
      <trkpt lat="42.43934" lon="2.76055">
        <ele>1015</ele>
        <time>2024-09-21T12:16:31Z</time>
      </trkpt>
      <trkpt lat="42.43933" lon="2.76059">
        <ele>1014</ele>
        <time>2024-09-21T12:16:33Z</time>
      </trkpt>
      <trkpt lat="42.43932" lon="2.76063">
        <ele>1015</ele>
        <time>2024-09-21T12:16:35Z</time>
      </trkpt>
      <trkpt lat="42.43932" lon="2.76067">
        <ele>1014</ele>
        <time>2024-09-21T12:16:37Z</time>
      </trkpt>
      <trkpt lat="42.43931" lon="2.76071">
        <ele>1014</ele>
        <time>2024-09-21T12:16:41Z</time>
      </trkpt>
      <trkpt lat="42.4393" lon="2.76075">
        <ele>1013</ele>
        <time>2024-09-21T12:16:43Z</time>
      </trkpt>
      <trkpt lat="42.43929" lon="2.7608">
        <ele>1013</ele>
        <time>2024-09-21T12:16:45Z</time>
      </trkpt>
      <trkpt lat="42.43928" lon="2.76084">
        <ele>1012</ele>
        <time>2024-09-21T12:16:47Z</time>
      </trkpt>
      <trkpt lat="42.43928" lon="2.76088">
        <ele>1014</ele>
        <time>2024-09-21T12:16:50Z</time>
      </trkpt>
      <trkpt lat="42.43927" lon="2.76092">
        <ele>1012</ele>
        <time>2024-09-21T12:16:53Z</time>
      </trkpt>
      <trkpt lat="42.43926" lon="2.76097">
        <ele>1013</ele>
        <time>2024-09-21T12:16:56Z</time>
      </trkpt>
      <trkpt lat="42.43924" lon="2.76101">
        <ele>1013</ele>
        <time>2024-09-21T12:16:58Z</time>
      </trkpt>
      <trkpt lat="42.43923" lon="2.76104">
        <ele>1014</ele>
        <time>2024-09-21T12:17:01Z</time>
      </trkpt>
      <trkpt lat="42.43921" lon="2.76108">
        <ele>1012</ele>
        <time>2024-09-21T12:17:03Z</time>
      </trkpt>
      <trkpt lat="42.43919" lon="2.76114">
        <ele>1011</ele>
        <time>2024-09-21T12:17:07Z</time>
      </trkpt>
      <trkpt lat="42.43917" lon="2.76117">
        <ele>1011</ele>
        <time>2024-09-21T12:17:10Z</time>
      </trkpt>
      <trkpt lat="42.43917" lon="2.76121">
        <ele>1011</ele>
        <time>2024-09-21T12:17:12Z</time>
      </trkpt>
      <trkpt lat="42.43915" lon="2.76124">
        <ele>1011</ele>
        <time>2024-09-21T12:17:15Z</time>
      </trkpt>
      <trkpt lat="42.43913" lon="2.76127">
        <ele>1012</ele>
        <time>2024-09-21T12:17:17Z</time>
      </trkpt>
      <trkpt lat="42.43911" lon="2.76131">
        <ele>1010</ele>
        <time>2024-09-21T12:17:20Z</time>
      </trkpt>
      <trkpt lat="42.4391" lon="2.76135">
        <ele>1010</ele>
        <time>2024-09-21T12:17:22Z</time>
      </trkpt>
      <trkpt lat="42.43909" lon="2.76141">
        <ele>1010</ele>
        <time>2024-09-21T12:17:24Z</time>
      </trkpt>
      <trkpt lat="42.43906" lon="2.76143">
        <ele>1010</ele>
        <time>2024-09-21T12:17:27Z</time>
      </trkpt>
      <trkpt lat="42.43905" lon="2.76146">
        <ele>1010</ele>
        <time>2024-09-21T12:17:30Z</time>
      </trkpt>
      <trkpt lat="42.43904" lon="2.7615">
        <ele>1012</ele>
        <time>2024-09-21T12:17:32Z</time>
      </trkpt>
      <trkpt lat="42.43902" lon="2.76153">
        <ele>1010</ele>
        <time>2024-09-21T12:17:35Z</time>
      </trkpt>
      <trkpt lat="42.439" lon="2.76157">
        <ele>1010</ele>
        <time>2024-09-21T12:17:38Z</time>
      </trkpt>
      <trkpt lat="42.43899" lon="2.7616">
        <ele>1011</ele>
        <time>2024-09-21T12:17:40Z</time>
      </trkpt>
      <trkpt lat="42.43897" lon="2.76164">
        <ele>1011</ele>
        <time>2024-09-21T12:17:42Z</time>
      </trkpt>
      <trkpt lat="42.43895" lon="2.76167">
        <ele>1010</ele>
        <time>2024-09-21T12:17:46Z</time>
      </trkpt>
      <trkpt lat="42.43893" lon="2.7617">
        <ele>1010</ele>
        <time>2024-09-21T12:17:47Z</time>
      </trkpt>
      <trkpt lat="42.43892" lon="2.76174">
        <ele>1008</ele>
        <time>2024-09-21T12:17:49Z</time>
      </trkpt>
      <trkpt lat="42.4389" lon="2.76179">
        <ele>1007</ele>
        <time>2024-09-21T12:17:51Z</time>
      </trkpt>
      <trkpt lat="42.43888" lon="2.76183">
        <ele>1008</ele>
        <time>2024-09-21T12:17:53Z</time>
      </trkpt>
      <trkpt lat="42.43885" lon="2.76187">
        <ele>1007</ele>
        <time>2024-09-21T12:17:56Z</time>
      </trkpt>
      <trkpt lat="42.43882" lon="2.7619">
        <ele>1009</ele>
        <time>2024-09-21T12:17:59Z</time>
      </trkpt>
      <trkpt lat="42.4388" lon="2.76192">
        <ele>1008</ele>
        <time>2024-09-21T12:18:02Z</time>
      </trkpt>
      <trkpt lat="42.43877" lon="2.76195">
        <ele>1008</ele>
        <time>2024-09-21T12:18:05Z</time>
      </trkpt>
      <trkpt lat="42.43874" lon="2.76198">
        <ele>1009</ele>
        <time>2024-09-21T12:18:07Z</time>
      </trkpt>
      <trkpt lat="42.43871" lon="2.76201">
        <ele>1007</ele>
        <time>2024-09-21T12:18:09Z</time>
      </trkpt>
      <trkpt lat="42.43869" lon="2.76205">
        <ele>1007</ele>
        <time>2024-09-21T12:18:11Z</time>
      </trkpt>
      <trkpt lat="42.43867" lon="2.76208">
        <ele>1007</ele>
        <time>2024-09-21T12:18:14Z</time>
      </trkpt>
      <trkpt lat="42.43865" lon="2.7621">
        <ele>1008</ele>
        <time>2024-09-21T12:18:16Z</time>
      </trkpt>
      <trkpt lat="42.43863" lon="2.76213">
        <ele>1008</ele>
        <time>2024-09-21T12:18:18Z</time>
      </trkpt>
      <trkpt lat="42.4386" lon="2.76215">
        <ele>1007</ele>
        <time>2024-09-21T12:18:21Z</time>
      </trkpt>
      <trkpt lat="42.43858" lon="2.76218">
        <ele>1008</ele>
        <time>2024-09-21T12:18:23Z</time>
      </trkpt>
      <trkpt lat="42.43855" lon="2.76221">
        <ele>1009</ele>
        <time>2024-09-21T12:18:26Z</time>
      </trkpt>
      <trkpt lat="42.43853" lon="2.76224">
        <ele>1010</ele>
        <time>2024-09-21T12:18:28Z</time>
      </trkpt>
      <trkpt lat="42.43851" lon="2.76227">
        <ele>1011</ele>
        <time>2024-09-21T12:18:30Z</time>
      </trkpt>
      <trkpt lat="42.43848" lon="2.76231">
        <ele>1011</ele>
        <time>2024-09-21T12:18:33Z</time>
      </trkpt>
      <trkpt lat="42.43846" lon="2.76234">
        <ele>1010</ele>
        <time>2024-09-21T12:18:36Z</time>
      </trkpt>
      <trkpt lat="42.43844" lon="2.76238">
        <ele>1010</ele>
        <time>2024-09-21T12:18:37Z</time>
      </trkpt>
      <trkpt lat="42.43843" lon="2.76242">
        <ele>1011</ele>
        <time>2024-09-21T12:18:40Z</time>
      </trkpt>
      <trkpt lat="42.43841" lon="2.76246">
        <ele>1011</ele>
        <time>2024-09-21T12:18:45Z</time>
      </trkpt>
      <trkpt lat="42.43839" lon="2.7625">
        <ele>1011</ele>
        <time>2024-09-21T12:18:47Z</time>
      </trkpt>
      <trkpt lat="42.43837" lon="2.76254">
        <ele>1013</ele>
        <time>2024-09-21T12:18:49Z</time>
      </trkpt>
      <trkpt lat="42.43835" lon="2.76258">
        <ele>1015</ele>
        <time>2024-09-21T12:18:52Z</time>
      </trkpt>
      <trkpt lat="42.43833" lon="2.7626">
        <ele>1016</ele>
        <time>2024-09-21T12:18:54Z</time>
      </trkpt>
      <trkpt lat="42.4383" lon="2.76263">
        <ele>1015</ele>
        <time>2024-09-21T12:18:56Z</time>
      </trkpt>
      <trkpt lat="42.43828" lon="2.76267">
        <ele>1014</ele>
        <time>2024-09-21T12:18:58Z</time>
      </trkpt>
      <trkpt lat="42.43827" lon="2.76271">
        <ele>1016</ele>
        <time>2024-09-21T12:19:00Z</time>
      </trkpt>
      <trkpt lat="42.43827" lon="2.76275">
        <ele>1016</ele>
        <time>2024-09-21T12:19:02Z</time>
      </trkpt>
      <trkpt lat="42.43828" lon="2.76278">
        <ele>1016</ele>
        <time>2024-09-21T12:19:05Z</time>
      </trkpt>
      <trkpt lat="42.43829" lon="2.76281">
        <ele>1015</ele>
        <time>2024-09-21T12:19:07Z</time>
      </trkpt>
      <trkpt lat="42.4383" lon="2.76285">
        <ele>1015</ele>
        <time>2024-09-21T12:19:09Z</time>
      </trkpt>
      <trkpt lat="42.43831" lon="2.7629">
        <ele>1011</ele>
        <time>2024-09-21T12:19:12Z</time>
      </trkpt>
      <trkpt lat="42.43832" lon="2.76295">
        <ele>1012</ele>
        <time>2024-09-21T12:19:15Z</time>
      </trkpt>
      <trkpt lat="42.43832" lon="2.763">
        <ele>1013</ele>
        <time>2024-09-21T12:19:17Z</time>
      </trkpt>
      <trkpt lat="42.43833" lon="2.76304">
        <ele>1012</ele>
        <time>2024-09-21T12:19:21Z</time>
      </trkpt>
      <trkpt lat="42.43834" lon="2.76308">
        <ele>1013</ele>
        <time>2024-09-21T12:19:24Z</time>
      </trkpt>
      <trkpt lat="42.43833" lon="2.76312">
        <ele>1013</ele>
        <time>2024-09-21T12:19:27Z</time>
      </trkpt>
      <trkpt lat="42.43832" lon="2.76316">
        <ele>1013</ele>
        <time>2024-09-21T12:19:30Z</time>
      </trkpt>
      <trkpt lat="42.43832" lon="2.76319">
        <ele>1011</ele>
        <time>2024-09-21T12:19:33Z</time>
      </trkpt>
      <trkpt lat="42.43835" lon="2.7632">
        <ele>1010</ele>
        <time>2024-09-21T12:19:35Z</time>
      </trkpt>
      <trkpt lat="42.43836" lon="2.76323">
        <ele>1008</ele>
        <time>2024-09-21T12:19:40Z</time>
      </trkpt>
      <trkpt lat="42.43837" lon="2.76326">
        <ele>1003</ele>
        <time>2024-09-21T12:19:49Z</time>
      </trkpt>
      <trkpt lat="42.43839" lon="2.76329">
        <ele>1001</ele>
        <time>2024-09-21T12:19:53Z</time>
      </trkpt>
      <trkpt lat="42.43841" lon="2.76332">
        <ele>998</ele>
        <time>2024-09-21T12:20:00Z</time>
      </trkpt>
      <trkpt lat="42.43842" lon="2.76336">
        <ele>997</ele>
        <time>2024-09-21T12:20:07Z</time>
      </trkpt>
      <trkpt lat="42.43844" lon="2.76339">
        <ele>995</ele>
        <time>2024-09-21T12:20:11Z</time>
      </trkpt>
      <trkpt lat="42.43843" lon="2.76342">
        <ele>995</ele>
        <time>2024-09-21T12:20:14Z</time>
      </trkpt>
      <trkpt lat="42.43844" lon="2.76346">
        <ele>994</ele>
        <time>2024-09-21T12:20:18Z</time>
      </trkpt>
      <trkpt lat="42.43844" lon="2.7635">
        <ele>994</ele>
        <time>2024-09-21T12:20:20Z</time>
      </trkpt>
      <trkpt lat="42.43846" lon="2.76352">
        <ele>992</ele>
        <time>2024-09-21T12:20:26Z</time>
      </trkpt>
      <trkpt lat="42.43846" lon="2.76355">
        <ele>991</ele>
        <time>2024-09-21T12:20:31Z</time>
      </trkpt>
      <trkpt lat="42.43847" lon="2.76358">
        <ele>992</ele>
        <time>2024-09-21T12:20:34Z</time>
      </trkpt>
      <trkpt lat="42.43847" lon="2.76362">
        <ele>992</ele>
        <time>2024-09-21T12:20:39Z</time>
      </trkpt>
      <trkpt lat="42.43849" lon="2.76362">
        <ele>991</ele>
        <time>2024-09-21T12:20:42Z</time>
      </trkpt>
      <trkpt lat="42.43852" lon="2.76362">
        <ele>989</ele>
        <time>2024-09-21T12:20:43Z</time>
      </trkpt>
      <trkpt lat="42.43854" lon="2.76363">
        <ele>988</ele>
        <time>2024-09-21T12:20:45Z</time>
      </trkpt>
      <trkpt lat="42.43857" lon="2.76365">
        <ele>986</ele>
        <time>2024-09-21T12:20:49Z</time>
      </trkpt>
      <trkpt lat="42.43858" lon="2.76368">
        <ele>983</ele>
        <time>2024-09-21T12:21:03Z</time>
      </trkpt>
      <trkpt lat="42.4386" lon="2.76371">
        <ele>980</ele>
        <time>2024-09-21T12:21:19Z</time>
      </trkpt>
      <trkpt lat="42.43861" lon="2.76374">
        <ele>980</ele>
        <time>2024-09-21T12:21:23Z</time>
      </trkpt>
      <trkpt lat="42.43861" lon="2.7638">
        <ele>980</ele>
        <time>2024-09-21T12:21:28Z</time>
      </trkpt>
      <trkpt lat="42.43863" lon="2.76381">
        <ele>977</ele>
        <time>2024-09-21T12:21:32Z</time>
      </trkpt>
      <trkpt lat="42.43866" lon="2.76382">
        <ele>976</ele>
        <time>2024-09-21T12:21:35Z</time>
      </trkpt>
      <trkpt lat="42.43869" lon="2.76383">
        <ele>975</ele>
        <time>2024-09-21T12:21:39Z</time>
      </trkpt>
      <trkpt lat="42.43874" lon="2.76382">
        <ele>974</ele>
        <time>2024-09-21T12:21:41Z</time>
      </trkpt>
      <trkpt lat="42.43876" lon="2.76384">
        <ele>970</ele>
        <time>2024-09-21T12:21:48Z</time>
      </trkpt>
      <trkpt lat="42.43876" lon="2.76388">
        <ele>969</ele>
        <time>2024-09-21T12:21:52Z</time>
      </trkpt>
      <trkpt lat="42.43878" lon="2.7639">
        <ele>968</ele>
        <time>2024-09-21T12:21:56Z</time>
      </trkpt>
      <trkpt lat="42.43879" lon="2.76394">
        <ele>968</ele>
        <time>2024-09-21T12:21:59Z</time>
      </trkpt>
      <trkpt lat="42.43879" lon="2.76396">
        <ele>967</ele>
        <time>2024-09-21T12:22:04Z</time>
      </trkpt>
      <trkpt lat="42.43879" lon="2.76401">
        <ele>967</ele>
        <time>2024-09-21T12:22:07Z</time>
      </trkpt>
      <trkpt lat="42.43879" lon="2.76405">
        <ele>966</ele>
        <time>2024-09-21T12:22:10Z</time>
      </trkpt>
      <trkpt lat="42.43881" lon="2.76408">
        <ele>964</ele>
        <time>2024-09-21T12:22:15Z</time>
      </trkpt>
      <trkpt lat="42.43881" lon="2.76412">
        <ele>964</ele>
        <time>2024-09-21T12:22:18Z</time>
      </trkpt>
      <trkpt lat="42.4388" lon="2.76416">
        <ele>964</ele>
        <time>2024-09-21T12:22:21Z</time>
      </trkpt>
      <trkpt lat="42.4388" lon="2.76421">
        <ele>963</ele>
        <time>2024-09-21T12:22:25Z</time>
      </trkpt>
      <trkpt lat="42.43879" lon="2.76425">
        <ele>960</ele>
        <time>2024-09-21T12:22:30Z</time>
      </trkpt>
      <trkpt lat="42.43878" lon="2.76431">
        <ele>962</ele>
        <time>2024-09-21T12:22:33Z</time>
      </trkpt>
      <trkpt lat="42.43878" lon="2.76435">
        <ele>962</ele>
        <time>2024-09-21T12:22:35Z</time>
      </trkpt>
      <trkpt lat="42.43879" lon="2.7644">
        <ele>963</ele>
        <time>2024-09-21T12:22:39Z</time>
      </trkpt>
      <trkpt lat="42.43881" lon="2.76444">
        <ele>962</ele>
        <time>2024-09-21T12:22:42Z</time>
      </trkpt>
      <trkpt lat="42.43882" lon="2.76449">
        <ele>960</ele>
        <time>2024-09-21T12:22:46Z</time>
      </trkpt>
      <trkpt lat="42.43884" lon="2.76453">
        <ele>959</ele>
        <time>2024-09-21T12:22:49Z</time>
      </trkpt>
      <trkpt lat="42.43886" lon="2.76458">
        <ele>958</ele>
        <time>2024-09-21T12:22:53Z</time>
      </trkpt>
      <trkpt lat="42.43888" lon="2.76461">
        <ele>958</ele>
        <time>2024-09-21T12:22:55Z</time>
      </trkpt>
      <trkpt lat="42.43889" lon="2.76465">
        <ele>957</ele>
        <time>2024-09-21T12:22:58Z</time>
      </trkpt>
      <trkpt lat="42.4389" lon="2.76469">
        <ele>957</ele>
        <time>2024-09-21T12:23:01Z</time>
      </trkpt>
      <trkpt lat="42.43891" lon="2.76473">
        <ele>956</ele>
        <time>2024-09-21T12:23:03Z</time>
      </trkpt>
      <trkpt lat="42.43891" lon="2.76477">
        <ele>958</ele>
        <time>2024-09-21T12:23:06Z</time>
      </trkpt>
      <trkpt lat="42.43892" lon="2.76482">
        <ele>956</ele>
        <time>2024-09-21T12:23:09Z</time>
      </trkpt>
      <trkpt lat="42.43894" lon="2.76485">
        <ele>954</ele>
        <time>2024-09-21T12:23:13Z</time>
      </trkpt>
      <trkpt lat="42.43895" lon="2.76489">
        <ele>954</ele>
        <time>2024-09-21T12:23:16Z</time>
      </trkpt>
      <trkpt lat="42.43896" lon="2.76493">
        <ele>952</ele>
        <time>2024-09-21T12:23:21Z</time>
      </trkpt>
      <trkpt lat="42.43898" lon="2.76497">
        <ele>953</ele>
        <time>2024-09-21T12:23:23Z</time>
      </trkpt>
      <trkpt lat="42.43899" lon="2.765">
        <ele>951</ele>
        <time>2024-09-21T12:23:27Z</time>
      </trkpt>
      <trkpt lat="42.439" lon="2.76504">
        <ele>951</ele>
        <time>2024-09-21T12:23:29Z</time>
      </trkpt>
      <trkpt lat="42.439" lon="2.76508">
        <ele>951</ele>
        <time>2024-09-21T12:23:33Z</time>
      </trkpt>
      <trkpt lat="42.439" lon="2.76511">
        <ele>952</ele>
        <time>2024-09-21T12:23:36Z</time>
      </trkpt>
      <trkpt lat="42.43898" lon="2.76512">
        <ele>952</ele>
        <time>2024-09-21T12:23:41Z</time>
      </trkpt>
      <trkpt lat="42.43895" lon="2.76515">
        <ele>951</ele>
        <time>2024-09-21T12:23:46Z</time>
      </trkpt>
      <trkpt lat="42.43896" lon="2.76519">
        <ele>951</ele>
        <time>2024-09-21T12:23:49Z</time>
      </trkpt>
      <trkpt lat="42.43896" lon="2.76523">
        <ele>952</ele>
        <time>2024-09-21T12:23:52Z</time>
      </trkpt>
      <trkpt lat="42.43896" lon="2.76528">
        <ele>951</ele>
        <time>2024-09-21T12:23:56Z</time>
      </trkpt>
      <trkpt lat="42.43897" lon="2.76532">
        <ele>950</ele>
        <time>2024-09-21T12:24:00Z</time>
      </trkpt>
      <trkpt lat="42.43899" lon="2.76536">
        <ele>949</ele>
        <time>2024-09-21T12:24:03Z</time>
      </trkpt>
      <trkpt lat="42.43901" lon="2.76538">
        <ele>949</ele>
        <time>2024-09-21T12:24:04Z</time>
      </trkpt>
      <trkpt lat="42.43903" lon="2.76541">
        <ele>948</ele>
        <time>2024-09-21T12:24:07Z</time>
      </trkpt>
      <trkpt lat="42.43906" lon="2.76544">
        <ele>946</ele>
        <time>2024-09-21T12:24:11Z</time>
      </trkpt>
      <trkpt lat="42.43909" lon="2.76546">
        <ele>945</ele>
        <time>2024-09-21T12:24:13Z</time>
      </trkpt>
      <trkpt lat="42.43912" lon="2.76548">
        <ele>944</ele>
        <time>2024-09-21T12:24:16Z</time>
      </trkpt>
      <trkpt lat="42.43914" lon="2.76551">
        <ele>942</ele>
        <time>2024-09-21T12:24:20Z</time>
      </trkpt>
      <trkpt lat="42.43917" lon="2.76554">
        <ele>941</ele>
        <time>2024-09-21T12:24:23Z</time>
      </trkpt>
      <trkpt lat="42.43918" lon="2.76557">
        <ele>941</ele>
        <time>2024-09-21T12:24:26Z</time>
      </trkpt>
      <trkpt lat="42.4392" lon="2.76562">
        <ele>941</ele>
        <time>2024-09-21T12:24:30Z</time>
      </trkpt>
      <trkpt lat="42.4392" lon="2.76567">
        <ele>941</ele>
        <time>2024-09-21T12:24:33Z</time>
      </trkpt>
      <trkpt lat="42.43921" lon="2.76571">
        <ele>940</ele>
        <time>2024-09-21T12:24:37Z</time>
      </trkpt>
      <trkpt lat="42.43921" lon="2.76576">
        <ele>941</ele>
        <time>2024-09-21T12:24:41Z</time>
      </trkpt>
      <trkpt lat="42.43923" lon="2.76578">
        <ele>941</ele>
        <time>2024-09-21T12:24:45Z</time>
      </trkpt>
      <trkpt lat="42.43926" lon="2.76579">
        <ele>940</ele>
        <time>2024-09-21T12:24:47Z</time>
      </trkpt>
      <trkpt lat="42.43928" lon="2.76581">
        <ele>939</ele>
        <time>2024-09-21T12:24:51Z</time>
      </trkpt>
      <trkpt lat="42.43931" lon="2.76583">
        <ele>938</ele>
        <time>2024-09-21T12:24:54Z</time>
      </trkpt>
      <trkpt lat="42.43933" lon="2.76586">
        <ele>938</ele>
        <time>2024-09-21T12:24:56Z</time>
      </trkpt>
      <trkpt lat="42.43935" lon="2.76585">
        <ele>933</ele>
        <time>2024-09-21T12:25:09Z</time>
      </trkpt>
      <trkpt lat="42.43939" lon="2.76583">
        <ele>932</ele>
        <time>2024-09-21T12:25:11Z</time>
      </trkpt>
      <trkpt lat="42.43939" lon="2.7658">
        <ele>931</ele>
        <time>2024-09-21T12:25:13Z</time>
      </trkpt>
      <trkpt lat="42.43939" lon="2.76576">
        <ele>931</ele>
        <time>2024-09-21T12:25:16Z</time>
      </trkpt>
      <trkpt lat="42.4394" lon="2.76576">
        <ele>932</ele>
        <time>2024-09-21T12:25:19Z</time>
      </trkpt>
      <trkpt lat="42.43943" lon="2.76578">
        <ele>934</ele>
        <time>2024-09-21T12:25:25Z</time>
      </trkpt>
      <trkpt lat="42.43941" lon="2.76576">
        <ele>933</ele>
        <time>2024-09-21T12:25:50Z</time>
      </trkpt>
      <trkpt lat="42.43939" lon="2.76577">
        <ele>933</ele>
        <time>2024-09-21T12:26:02Z</time>
      </trkpt>
      <trkpt lat="42.43937" lon="2.76578">
        <ele>932</ele>
        <time>2024-09-21T12:26:04Z</time>
      </trkpt>
      <trkpt lat="42.43935" lon="2.76581">
        <ele>933</ele>
        <time>2024-09-21T12:26:09Z</time>
      </trkpt>
      <trkpt lat="42.43936" lon="2.76585">
        <ele>931</ele>
        <time>2024-09-21T12:26:11Z</time>
      </trkpt>
      <trkpt lat="42.43937" lon="2.76588">
        <ele>930</ele>
        <time>2024-09-21T12:26:13Z</time>
      </trkpt>
      <trkpt lat="42.4394" lon="2.76589">
        <ele>929</ele>
        <time>2024-09-21T12:26:16Z</time>
      </trkpt>
      <trkpt lat="42.43941" lon="2.76592">
        <ele>928</ele>
        <time>2024-09-21T12:26:18Z</time>
      </trkpt>
      <trkpt lat="42.43943" lon="2.76596">
        <ele>929</ele>
        <time>2024-09-21T12:26:22Z</time>
      </trkpt>
      <trkpt lat="42.43944" lon="2.76601">
        <ele>929</ele>
        <time>2024-09-21T12:26:25Z</time>
      </trkpt>
      <trkpt lat="42.43946" lon="2.76602">
        <ele>928</ele>
        <time>2024-09-21T12:26:28Z</time>
      </trkpt>
      <trkpt lat="42.43948" lon="2.76606">
        <ele>927</ele>
        <time>2024-09-21T12:26:33Z</time>
      </trkpt>
      <trkpt lat="42.43948" lon="2.76609">
        <ele>926</ele>
        <time>2024-09-21T12:26:35Z</time>
      </trkpt>
      <trkpt lat="42.43949" lon="2.76614">
        <ele>925</ele>
        <time>2024-09-21T12:26:38Z</time>
      </trkpt>
      <trkpt lat="42.4395" lon="2.76618">
        <ele>924</ele>
        <time>2024-09-21T12:26:42Z</time>
      </trkpt>
      <trkpt lat="42.43951" lon="2.76622">
        <ele>923</ele>
        <time>2024-09-21T12:26:45Z</time>
      </trkpt>
      <trkpt lat="42.43952" lon="2.76627">
        <ele>922</ele>
        <time>2024-09-21T12:26:49Z</time>
      </trkpt>
      <trkpt lat="42.43952" lon="2.76632">
        <ele>921</ele>
        <time>2024-09-21T12:26:52Z</time>
      </trkpt>
      <trkpt lat="42.43953" lon="2.76637">
        <ele>919</ele>
        <time>2024-09-21T12:26:56Z</time>
      </trkpt>
      <trkpt lat="42.43953" lon="2.76641">
        <ele>918</ele>
        <time>2024-09-21T12:26:58Z</time>
      </trkpt>
      <trkpt lat="42.43954" lon="2.76647">
        <ele>919</ele>
        <time>2024-09-21T12:27:02Z</time>
      </trkpt>
      <trkpt lat="42.43954" lon="2.76652">
        <ele>918</ele>
        <time>2024-09-21T12:27:07Z</time>
      </trkpt>
      <trkpt lat="42.43954" lon="2.76657">
        <ele>917</ele>
        <time>2024-09-21T12:27:10Z</time>
      </trkpt>
      <trkpt lat="42.43955" lon="2.76661">
        <ele>917</ele>
        <time>2024-09-21T12:27:14Z</time>
      </trkpt>
      <trkpt lat="42.43955" lon="2.76666">
        <ele>918</ele>
        <time>2024-09-21T12:27:18Z</time>
      </trkpt>
      <trkpt lat="42.43955" lon="2.76671">
        <ele>918</ele>
        <time>2024-09-21T12:27:20Z</time>
      </trkpt>
      <trkpt lat="42.43956" lon="2.76675">
        <ele>917</ele>
        <time>2024-09-21T12:27:22Z</time>
      </trkpt>
      <trkpt lat="42.43957" lon="2.76679">
        <ele>917</ele>
        <time>2024-09-21T12:27:25Z</time>
      </trkpt>
      <trkpt lat="42.43959" lon="2.76684">
        <ele>916</ele>
        <time>2024-09-21T12:27:30Z</time>
      </trkpt>
      <trkpt lat="42.43961" lon="2.76686">
        <ele>914</ele>
        <time>2024-09-21T12:27:33Z</time>
      </trkpt>
      <trkpt lat="42.43965" lon="2.76687">
        <ele>914</ele>
        <time>2024-09-21T12:27:36Z</time>
      </trkpt>
      <trkpt lat="42.43967" lon="2.76689">
        <ele>913</ele>
        <time>2024-09-21T12:27:39Z</time>
      </trkpt>
      <trkpt lat="42.43969" lon="2.76693">
        <ele>912</ele>
        <time>2024-09-21T12:27:43Z</time>
      </trkpt>
      <trkpt lat="42.4397" lon="2.76696">
        <ele>911</ele>
        <time>2024-09-21T12:27:48Z</time>
      </trkpt>
      <trkpt lat="42.43972" lon="2.76699">
        <ele>910</ele>
        <time>2024-09-21T12:27:51Z</time>
      </trkpt>
      <trkpt lat="42.43974" lon="2.76701">
        <ele>909</ele>
        <time>2024-09-21T12:27:54Z</time>
      </trkpt>
      <trkpt lat="42.43975" lon="2.76704">
        <ele>908</ele>
        <time>2024-09-21T12:27:57Z</time>
      </trkpt>
      <trkpt lat="42.43977" lon="2.76707">
        <ele>907</ele>
        <time>2024-09-21T12:27:59Z</time>
      </trkpt>
      <trkpt lat="42.43978" lon="2.7671">
        <ele>906</ele>
        <time>2024-09-21T12:28:02Z</time>
      </trkpt>
      <trkpt lat="42.4398" lon="2.76714">
        <ele>906</ele>
        <time>2024-09-21T12:28:05Z</time>
      </trkpt>
      <trkpt lat="42.43983" lon="2.76717">
        <ele>906</ele>
        <time>2024-09-21T12:28:07Z</time>
      </trkpt>
      <trkpt lat="42.43983" lon="2.7672">
        <ele>906</ele>
        <time>2024-09-21T12:28:10Z</time>
      </trkpt>
      <trkpt lat="42.43983" lon="2.76724">
        <ele>905</ele>
        <time>2024-09-21T12:28:15Z</time>
      </trkpt>
      <trkpt lat="42.43983" lon="2.76728">
        <ele>905</ele>
        <time>2024-09-21T12:28:17Z</time>
      </trkpt>
      <trkpt lat="42.43985" lon="2.76731">
        <ele>903</ele>
        <time>2024-09-21T12:28:22Z</time>
      </trkpt>
      <trkpt lat="42.43986" lon="2.76734">
        <ele>900</ele>
        <time>2024-09-21T12:28:27Z</time>
      </trkpt>
      <trkpt lat="42.43988" lon="2.76739">
        <ele>899</ele>
        <time>2024-09-21T12:28:31Z</time>
      </trkpt>
      <trkpt lat="42.43989" lon="2.76743">
        <ele>899</ele>
        <time>2024-09-21T12:28:34Z</time>
      </trkpt>
      <trkpt lat="42.43991" lon="2.76746">
        <ele>900</ele>
        <time>2024-09-21T12:28:37Z</time>
      </trkpt>
      <trkpt lat="42.43993" lon="2.76749">
        <ele>899</ele>
        <time>2024-09-21T12:28:40Z</time>
      </trkpt>
      <trkpt lat="42.43995" lon="2.76753">
        <ele>899</ele>
        <time>2024-09-21T12:28:44Z</time>
      </trkpt>
      <trkpt lat="42.43993" lon="2.76758">
        <ele>898</ele>
        <time>2024-09-21T12:28:54Z</time>
      </trkpt>
      <trkpt lat="42.43994" lon="2.76762">
        <ele>898</ele>
        <time>2024-09-21T12:28:58Z</time>
      </trkpt>
      <trkpt lat="42.43992" lon="2.76764">
        <ele>898</ele>
        <time>2024-09-21T12:29:06Z</time>
      </trkpt>
      <trkpt lat="42.43991" lon="2.76769">
        <ele>898</ele>
        <time>2024-09-21T12:29:10Z</time>
      </trkpt>
      <trkpt lat="42.43989" lon="2.76772">
        <ele>899</ele>
        <time>2024-09-21T12:29:14Z</time>
      </trkpt>
      <trkpt lat="42.43987" lon="2.76774">
        <ele>899</ele>
        <time>2024-09-21T12:29:17Z</time>
      </trkpt>
      <trkpt lat="42.43984" lon="2.76778">
        <ele>899</ele>
        <time>2024-09-21T12:29:20Z</time>
      </trkpt>
      <trkpt lat="42.43983" lon="2.76782">
        <ele>899</ele>
        <time>2024-09-21T12:29:22Z</time>
      </trkpt>
      <trkpt lat="42.4398" lon="2.76785">
        <ele>901</ele>
        <time>2024-09-21T12:29:24Z</time>
      </trkpt>
      <trkpt lat="42.43979" lon="2.76788">
        <ele>898</ele>
        <time>2024-09-21T12:29:28Z</time>
      </trkpt>
      <trkpt lat="42.43978" lon="2.76792">
        <ele>898</ele>
        <time>2024-09-21T12:29:31Z</time>
      </trkpt>
      <trkpt lat="42.43976" lon="2.76796">
        <ele>900</ele>
        <time>2024-09-21T12:29:34Z</time>
      </trkpt>
      <trkpt lat="42.43972" lon="2.76799">
        <ele>900</ele>
        <time>2024-09-21T12:29:46Z</time>
      </trkpt>
      <trkpt lat="42.43972" lon="2.76797">
        <ele>900</ele>
        <time>2024-09-21T12:29:57Z</time>
      </trkpt>
      <trkpt lat="42.43972" lon="2.76798">
        <ele>899</ele>
        <time>2024-09-21T12:30:00Z</time>
      </trkpt>
      <trkpt lat="42.43971" lon="2.76801">
        <ele>896</ele>
        <time>2024-09-21T12:30:03Z</time>
      </trkpt>
      <trkpt lat="42.43971" lon="2.76805">
        <ele>896</ele>
        <time>2024-09-21T12:30:06Z</time>
      </trkpt>
      <trkpt lat="42.43971" lon="2.7681">
        <ele>894</ele>
        <time>2024-09-21T12:30:12Z</time>
      </trkpt>
      <trkpt lat="42.43971" lon="2.76814">
        <ele>894</ele>
        <time>2024-09-21T12:30:15Z</time>
      </trkpt>
      <trkpt lat="42.4397" lon="2.76819">
        <ele>894</ele>
        <time>2024-09-21T12:30:19Z</time>
      </trkpt>
      <trkpt lat="42.4397" lon="2.76823">
        <ele>893</ele>
        <time>2024-09-21T12:30:22Z</time>
      </trkpt>
      <trkpt lat="42.4397" lon="2.76827">
        <ele>891</ele>
        <time>2024-09-21T12:30:24Z</time>
      </trkpt>
      <trkpt lat="42.43968" lon="2.76831">
        <ele>891</ele>
        <time>2024-09-21T12:30:27Z</time>
      </trkpt>
      <trkpt lat="42.43968" lon="2.76836">
        <ele>888</ele>
        <time>2024-09-21T12:30:30Z</time>
      </trkpt>
      <trkpt lat="42.43969" lon="2.7684">
        <ele>887</ele>
        <time>2024-09-21T12:30:33Z</time>
      </trkpt>
      <trkpt lat="42.43968" lon="2.76844">
        <ele>885</ele>
        <time>2024-09-21T12:30:38Z</time>
      </trkpt>
      <trkpt lat="42.43967" lon="2.76848">
        <ele>883</ele>
        <time>2024-09-21T12:30:41Z</time>
      </trkpt>
      <trkpt lat="42.43967" lon="2.76852">
        <ele>882</ele>
        <time>2024-09-21T12:30:43Z</time>
      </trkpt>
      <trkpt lat="42.43967" lon="2.76856">
        <ele>881</ele>
        <time>2024-09-21T12:30:46Z</time>
      </trkpt>
      <trkpt lat="42.43967" lon="2.7686">
        <ele>880</ele>
        <time>2024-09-21T12:30:48Z</time>
      </trkpt>
      <trkpt lat="42.43968" lon="2.76864">
        <ele>877</ele>
        <time>2024-09-21T12:30:53Z</time>
      </trkpt>
      <trkpt lat="42.43968" lon="2.76869">
        <ele>875</ele>
        <time>2024-09-21T12:30:57Z</time>
      </trkpt>
      <trkpt lat="42.43968" lon="2.76873">
        <ele>873</ele>
        <time>2024-09-21T12:30:59Z</time>
      </trkpt>
      <trkpt lat="42.4397" lon="2.76878">
        <ele>874</ele>
        <time>2024-09-21T12:31:01Z</time>
      </trkpt>
      <trkpt lat="42.43971" lon="2.76882">
        <ele>873</ele>
        <time>2024-09-21T12:31:03Z</time>
      </trkpt>
      <trkpt lat="42.43969" lon="2.76884">
        <ele>871</ele>
        <time>2024-09-21T12:31:06Z</time>
      </trkpt>
      <trkpt lat="42.43966" lon="2.76885">
        <ele>870</ele>
        <time>2024-09-21T12:31:08Z</time>
      </trkpt>
      <trkpt lat="42.43965" lon="2.76889">
        <ele>871</ele>
        <time>2024-09-21T12:31:10Z</time>
      </trkpt>
      <trkpt lat="42.43965" lon="2.76892">
        <ele>872</ele>
        <time>2024-09-21T12:31:12Z</time>
      </trkpt>
      <trkpt lat="42.43967" lon="2.76892">
        <ele>871</ele>
        <time>2024-09-21T12:31:15Z</time>
      </trkpt>
      <trkpt lat="42.43971" lon="2.76887">
        <ele>871</ele>
        <time>2024-09-21T12:31:35Z</time>
      </trkpt>
      <trkpt lat="42.43973" lon="2.76888">
        <ele>871</ele>
        <time>2024-09-21T12:31:39Z</time>
      </trkpt>
      <trkpt lat="42.43974" lon="2.7689">
        <ele>870</ele>
        <time>2024-09-21T12:31:43Z</time>
      </trkpt>
      <trkpt lat="42.43975" lon="2.76894">
        <ele>870</ele>
        <time>2024-09-21T12:31:46Z</time>
      </trkpt>
      <trkpt lat="42.43976" lon="2.76898">
        <ele>871</ele>
        <time>2024-09-21T12:31:49Z</time>
      </trkpt>
      <trkpt lat="42.43979" lon="2.769">
        <ele>871</ele>
        <time>2024-09-21T12:31:53Z</time>
      </trkpt>
      <trkpt lat="42.43981" lon="2.76904">
        <ele>871</ele>
        <time>2024-09-21T12:31:56Z</time>
      </trkpt>
      <trkpt lat="42.43983" lon="2.76907">
        <ele>870</ele>
        <time>2024-09-21T12:31:59Z</time>
      </trkpt>
      <trkpt lat="42.43985" lon="2.7691">
        <ele>870</ele>
        <time>2024-09-21T12:32:02Z</time>
      </trkpt>
      <trkpt lat="42.43987" lon="2.76913">
        <ele>869</ele>
        <time>2024-09-21T12:32:05Z</time>
      </trkpt>
      <trkpt lat="42.43989" lon="2.76916">
        <ele>868</ele>
        <time>2024-09-21T12:32:07Z</time>
      </trkpt>
      <trkpt lat="42.43991" lon="2.76919">
        <ele>868</ele>
        <time>2024-09-21T12:32:11Z</time>
      </trkpt>
      <trkpt lat="42.43994" lon="2.76921">
        <ele>867</ele>
        <time>2024-09-21T12:32:14Z</time>
      </trkpt>
      <trkpt lat="42.43996" lon="2.76922">
        <ele>866</ele>
        <time>2024-09-21T12:32:16Z</time>
      </trkpt>
      <trkpt lat="42.44" lon="2.76924">
        <ele>865</ele>
        <time>2024-09-21T12:32:19Z</time>
      </trkpt>
      <trkpt lat="42.44003" lon="2.76926">
        <ele>863</ele>
        <time>2024-09-21T12:32:25Z</time>
      </trkpt>
      <trkpt lat="42.44007" lon="2.76927">
        <ele>862</ele>
        <time>2024-09-21T12:32:27Z</time>
      </trkpt>
      <trkpt lat="42.4401" lon="2.7693">
        <ele>863</ele>
        <time>2024-09-21T12:32:30Z</time>
      </trkpt>
      <trkpt lat="42.44009" lon="2.76932">
        <ele>864</ele>
        <time>2024-09-21T12:32:46Z</time>
      </trkpt>
      <trkpt lat="42.44008" lon="2.76934">
        <ele>862</ele>
        <time>2024-09-21T12:32:51Z</time>
      </trkpt>
      <trkpt lat="42.44007" lon="2.76937">
        <ele>861</ele>
        <time>2024-09-21T12:32:54Z</time>
      </trkpt>
      <trkpt lat="42.44005" lon="2.76938">
        <ele>860</ele>
        <time>2024-09-21T12:32:59Z</time>
      </trkpt>
      <trkpt lat="42.44003" lon="2.76937">
        <ele>859</ele>
        <time>2024-09-21T12:33:01Z</time>
      </trkpt>
      <trkpt lat="42.44" lon="2.76937">
        <ele>859</ele>
        <time>2024-09-21T12:33:03Z</time>
      </trkpt>
      <trkpt lat="42.43997" lon="2.76939">
        <ele>859</ele>
        <time>2024-09-21T12:33:05Z</time>
      </trkpt>
      <trkpt lat="42.43994" lon="2.7694">
        <ele>858</ele>
        <time>2024-09-21T12:33:09Z</time>
      </trkpt>
      <trkpt lat="42.43991" lon="2.76943">
        <ele>859</ele>
        <time>2024-09-21T12:33:12Z</time>
      </trkpt>
      <trkpt lat="42.43988" lon="2.76944">
        <ele>860</ele>
        <time>2024-09-21T12:33:15Z</time>
      </trkpt>
      <trkpt lat="42.43984" lon="2.76945">
        <ele>861</ele>
        <time>2024-09-21T12:33:18Z</time>
      </trkpt>
      <trkpt lat="42.43981" lon="2.76945">
        <ele>861</ele>
        <time>2024-09-21T12:33:20Z</time>
      </trkpt>
      <trkpt lat="42.43978" lon="2.76945">
        <ele>862</ele>
        <time>2024-09-21T12:33:23Z</time>
      </trkpt>
      <trkpt lat="42.43977" lon="2.76948">
        <ele>861</ele>
        <time>2024-09-21T12:33:25Z</time>
      </trkpt>
      <trkpt lat="42.43977" lon="2.76952">
        <ele>859</ele>
        <time>2024-09-21T12:33:28Z</time>
      </trkpt>
      <trkpt lat="42.43976" lon="2.76956">
        <ele>857</ele>
        <time>2024-09-21T12:33:36Z</time>
      </trkpt>
      <trkpt lat="42.43975" lon="2.76954">
        <ele>857</ele>
        <time>2024-09-21T12:33:45Z</time>
      </trkpt>
      <trkpt lat="42.43973" lon="2.76953">
        <ele>857</ele>
        <time>2024-09-21T12:33:46Z</time>
      </trkpt>
      <trkpt lat="42.4397" lon="2.76951">
        <ele>856</ele>
        <time>2024-09-21T12:33:49Z</time>
      </trkpt>
      <trkpt lat="42.43968" lon="2.76949">
        <ele>856</ele>
        <time>2024-09-21T12:33:51Z</time>
      </trkpt>
      <trkpt lat="42.43965" lon="2.76947">
        <ele>856</ele>
        <time>2024-09-21T12:33:53Z</time>
      </trkpt>
      <trkpt lat="42.43962" lon="2.76946">
        <ele>854</ele>
        <time>2024-09-21T12:33:56Z</time>
      </trkpt>
      <trkpt lat="42.43959" lon="2.76945">
        <ele>856</ele>
        <time>2024-09-21T12:33:58Z</time>
      </trkpt>
      <trkpt lat="42.43956" lon="2.76943">
        <ele>855</ele>
        <time>2024-09-21T12:34:00Z</time>
      </trkpt>
      <trkpt lat="42.43953" lon="2.76941">
        <ele>855</ele>
        <time>2024-09-21T12:34:04Z</time>
      </trkpt>
      <trkpt lat="42.43949" lon="2.76941">
        <ele>854</ele>
        <time>2024-09-21T12:34:06Z</time>
      </trkpt>
      <trkpt lat="42.43946" lon="2.7694">
        <ele>854</ele>
        <time>2024-09-21T12:34:10Z</time>
      </trkpt>
      <trkpt lat="42.43943" lon="2.76936">
        <ele>853</ele>
        <time>2024-09-21T12:34:14Z</time>
      </trkpt>
      <trkpt lat="42.4394" lon="2.76933">
        <ele>854</ele>
        <time>2024-09-21T12:34:16Z</time>
      </trkpt>
      <trkpt lat="42.43937" lon="2.7693">
        <ele>855</ele>
        <time>2024-09-21T12:34:18Z</time>
      </trkpt>
      <trkpt lat="42.43934" lon="2.76928">
        <ele>854</ele>
        <time>2024-09-21T12:34:21Z</time>
      </trkpt>
      <trkpt lat="42.43931" lon="2.76926">
        <ele>853</ele>
        <time>2024-09-21T12:34:23Z</time>
      </trkpt>
      <trkpt lat="42.43928" lon="2.76922">
        <ele>852</ele>
        <time>2024-09-21T12:34:26Z</time>
      </trkpt>
      <trkpt lat="42.43926" lon="2.76919">
        <ele>851</ele>
        <time>2024-09-21T12:34:30Z</time>
      </trkpt>
      <trkpt lat="42.43923" lon="2.76916">
        <ele>853</ele>
        <time>2024-09-21T12:34:33Z</time>
      </trkpt>
      <trkpt lat="42.4392" lon="2.76915">
        <ele>853</ele>
        <time>2024-09-21T12:34:36Z</time>
      </trkpt>
      <trkpt lat="42.43919" lon="2.76917">
        <ele>853</ele>
        <time>2024-09-21T12:34:38Z</time>
      </trkpt>
      <trkpt lat="42.4392" lon="2.76921">
        <ele>853</ele>
        <time>2024-09-21T12:34:40Z</time>
      </trkpt>
      <trkpt lat="42.43921" lon="2.76924">
        <ele>852</ele>
        <time>2024-09-21T12:34:42Z</time>
      </trkpt>
      <trkpt lat="42.43923" lon="2.76928">
        <ele>850</ele>
        <time>2024-09-21T12:34:45Z</time>
      </trkpt>
      <trkpt lat="42.43924" lon="2.76933">
        <ele>850</ele>
        <time>2024-09-21T12:34:47Z</time>
      </trkpt>
      <trkpt lat="42.43925" lon="2.76937">
        <ele>849</ele>
        <time>2024-09-21T12:34:49Z</time>
      </trkpt>
      <trkpt lat="42.43926" lon="2.76941">
        <ele>849</ele>
        <time>2024-09-21T12:34:51Z</time>
      </trkpt>
      <trkpt lat="42.43927" lon="2.76945">
        <ele>848</ele>
        <time>2024-09-21T12:34:53Z</time>
      </trkpt>
      <trkpt lat="42.43928" lon="2.76949">
        <ele>847</ele>
        <time>2024-09-21T12:34:55Z</time>
      </trkpt>
      <trkpt lat="42.43928" lon="2.76953">
        <ele>848</ele>
        <time>2024-09-21T12:34:57Z</time>
      </trkpt>
      <trkpt lat="42.43928" lon="2.76957">
        <ele>846</ele>
        <time>2024-09-21T12:34:59Z</time>
      </trkpt>
      <trkpt lat="42.43928" lon="2.76961">
        <ele>846</ele>
        <time>2024-09-21T12:35:01Z</time>
      </trkpt>
      <trkpt lat="42.43929" lon="2.76965">
        <ele>846</ele>
        <time>2024-09-21T12:35:03Z</time>
      </trkpt>
      <trkpt lat="42.43929" lon="2.76969">
        <ele>845</ele>
        <time>2024-09-21T12:35:05Z</time>
      </trkpt>
      <trkpt lat="42.4393" lon="2.76973">
        <ele>845</ele>
        <time>2024-09-21T12:35:07Z</time>
      </trkpt>
      <trkpt lat="42.43931" lon="2.76976">
        <ele>844</ele>
        <time>2024-09-21T12:35:09Z</time>
      </trkpt>
      <trkpt lat="42.43933" lon="2.7698">
        <ele>844</ele>
        <time>2024-09-21T12:35:11Z</time>
      </trkpt>
      <trkpt lat="42.43934" lon="2.76983">
        <ele>845</ele>
        <time>2024-09-21T12:35:13Z</time>
      </trkpt>
      <trkpt lat="42.43936" lon="2.76986">
        <ele>845</ele>
        <time>2024-09-21T12:35:15Z</time>
      </trkpt>
      <trkpt lat="42.43938" lon="2.7699">
        <ele>844</ele>
        <time>2024-09-21T12:35:17Z</time>
      </trkpt>
      <trkpt lat="42.43939" lon="2.76993">
        <ele>845</ele>
        <time>2024-09-21T12:35:19Z</time>
      </trkpt>
      <trkpt lat="42.43941" lon="2.76997">
        <ele>845</ele>
        <time>2024-09-21T12:35:21Z</time>
      </trkpt>
      <trkpt lat="42.43942" lon="2.77">
        <ele>846</ele>
        <time>2024-09-21T12:35:23Z</time>
      </trkpt>
      <trkpt lat="42.43943" lon="2.77004">
        <ele>845</ele>
        <time>2024-09-21T12:35:26Z</time>
      </trkpt>
      <trkpt lat="42.43946" lon="2.77006">
        <ele>844</ele>
        <time>2024-09-21T12:35:28Z</time>
      </trkpt>
      <trkpt lat="42.43949" lon="2.77007">
        <ele>843</ele>
        <time>2024-09-21T12:35:31Z</time>
      </trkpt>
      <trkpt lat="42.43952" lon="2.77009">
        <ele>843</ele>
        <time>2024-09-21T12:35:34Z</time>
      </trkpt>
      <trkpt lat="42.43956" lon="2.77011">
        <ele>842</ele>
        <time>2024-09-21T12:35:37Z</time>
      </trkpt>
      <trkpt lat="42.43959" lon="2.77013">
        <ele>841</ele>
        <time>2024-09-21T12:35:39Z</time>
      </trkpt>
      <trkpt lat="42.43962" lon="2.77014">
        <ele>841</ele>
        <time>2024-09-21T12:35:41Z</time>
      </trkpt>
      <trkpt lat="42.43965" lon="2.77015">
        <ele>840</ele>
        <time>2024-09-21T12:35:43Z</time>
      </trkpt>
      <trkpt lat="42.43968" lon="2.77015">
        <ele>839</ele>
        <time>2024-09-21T12:35:45Z</time>
      </trkpt>
      <trkpt lat="42.43971" lon="2.77015">
        <ele>839</ele>
        <time>2024-09-21T12:35:47Z</time>
      </trkpt>
      <trkpt lat="42.43974" lon="2.77015">
        <ele>838</ele>
        <time>2024-09-21T12:35:49Z</time>
      </trkpt>
      <trkpt lat="42.43977" lon="2.77016">
        <ele>838</ele>
        <time>2024-09-21T12:35:51Z</time>
      </trkpt>
      <trkpt lat="42.4398" lon="2.77016">
        <ele>837</ele>
        <time>2024-09-21T12:35:53Z</time>
      </trkpt>
      <trkpt lat="42.43983" lon="2.77015">
        <ele>838</ele>
        <time>2024-09-21T12:35:55Z</time>
      </trkpt>
      <trkpt lat="42.43987" lon="2.77015">
        <ele>838</ele>
        <time>2024-09-21T12:35:58Z</time>
      </trkpt>
      <trkpt lat="42.4399" lon="2.77014">
        <ele>838</ele>
        <time>2024-09-21T12:36:00Z</time>
      </trkpt>
      <trkpt lat="42.43993" lon="2.77013">
        <ele>839</ele>
        <time>2024-09-21T12:36:02Z</time>
      </trkpt>
      <trkpt lat="42.43995" lon="2.77013">
        <ele>838</ele>
        <time>2024-09-21T12:36:04Z</time>
      </trkpt>
      <trkpt lat="42.43998" lon="2.77015">
        <ele>838</ele>
        <time>2024-09-21T12:36:06Z</time>
      </trkpt>
      <trkpt lat="42.43998" lon="2.77018">
        <ele>836</ele>
        <time>2024-09-21T12:36:10Z</time>
      </trkpt>
      <trkpt lat="42.43995" lon="2.7702">
        <ele>836</ele>
        <time>2024-09-21T12:36:12Z</time>
      </trkpt>
      <trkpt lat="42.43992" lon="2.77022">
        <ele>835</ele>
        <time>2024-09-21T12:36:14Z</time>
      </trkpt>
      <trkpt lat="42.43988" lon="2.77022">
        <ele>836</ele>
        <time>2024-09-21T12:36:16Z</time>
      </trkpt>
      <trkpt lat="42.43984" lon="2.77022">
        <ele>835</ele>
        <time>2024-09-21T12:36:18Z</time>
      </trkpt>
      <trkpt lat="42.43981" lon="2.77022">
        <ele>835</ele>
        <time>2024-09-21T12:36:20Z</time>
      </trkpt>
      <trkpt lat="42.43978" lon="2.77021">
        <ele>836</ele>
        <time>2024-09-21T12:36:22Z</time>
      </trkpt>
      <trkpt lat="42.43975" lon="2.77021">
        <ele>837</ele>
        <time>2024-09-21T12:36:24Z</time>
      </trkpt>
      <trkpt lat="42.43972" lon="2.77021">
        <ele>836</ele>
        <time>2024-09-21T12:36:26Z</time>
      </trkpt>
      <trkpt lat="42.43969" lon="2.77022">
        <ele>837</ele>
        <time>2024-09-21T12:36:28Z</time>
      </trkpt>
      <trkpt lat="42.43966" lon="2.77022">
        <ele>839</ele>
        <time>2024-09-21T12:36:31Z</time>
      </trkpt>
      <trkpt lat="42.43963" lon="2.77022">
        <ele>838</ele>
        <time>2024-09-21T12:36:34Z</time>
      </trkpt>
      <trkpt lat="42.4396" lon="2.77022">
        <ele>839</ele>
        <time>2024-09-21T12:36:36Z</time>
      </trkpt>
      <trkpt lat="42.43957" lon="2.77022">
        <ele>842</ele>
        <time>2024-09-21T12:36:40Z</time>
      </trkpt>
      <trkpt lat="42.43954" lon="2.77021">
        <ele>841</ele>
        <time>2024-09-21T12:36:42Z</time>
      </trkpt>
      <trkpt lat="42.43951" lon="2.77021">
        <ele>843</ele>
        <time>2024-09-21T12:36:45Z</time>
      </trkpt>
      <trkpt lat="42.43947" lon="2.77021">
        <ele>844</ele>
        <time>2024-09-21T12:36:48Z</time>
      </trkpt>
      <trkpt lat="42.43944" lon="2.7702">
        <ele>841</ele>
        <time>2024-09-21T12:36:52Z</time>
      </trkpt>
      <trkpt lat="42.4394" lon="2.7702">
        <ele>842</ele>
        <time>2024-09-21T12:36:54Z</time>
      </trkpt>
      <trkpt lat="42.43936" lon="2.7702">
        <ele>840</ele>
        <time>2024-09-21T12:36:56Z</time>
      </trkpt>
      <trkpt lat="42.43933" lon="2.7702">
        <ele>840</ele>
        <time>2024-09-21T12:36:58Z</time>
      </trkpt>
      <trkpt lat="42.4393" lon="2.77018">
        <ele>840</ele>
        <time>2024-09-21T12:37:01Z</time>
      </trkpt>
      <trkpt lat="42.43927" lon="2.77015">
        <ele>840</ele>
        <time>2024-09-21T12:37:02Z</time>
      </trkpt>
      <trkpt lat="42.43925" lon="2.77013">
        <ele>839</ele>
        <time>2024-09-21T12:37:05Z</time>
      </trkpt>
      <trkpt lat="42.43922" lon="2.77011">
        <ele>840</ele>
        <time>2024-09-21T12:37:07Z</time>
      </trkpt>
      <trkpt lat="42.43918" lon="2.77011">
        <ele>839</ele>
        <time>2024-09-21T12:37:12Z</time>
      </trkpt>
      <trkpt lat="42.43915" lon="2.7701">
        <ele>839</ele>
        <time>2024-09-21T12:37:14Z</time>
      </trkpt>
      <trkpt lat="42.43911" lon="2.77008">
        <ele>839</ele>
        <time>2024-09-21T12:37:17Z</time>
      </trkpt>
      <trkpt lat="42.43908" lon="2.77007">
        <ele>839</ele>
        <time>2024-09-21T12:37:19Z</time>
      </trkpt>
      <trkpt lat="42.43905" lon="2.77007">
        <ele>840</ele>
        <time>2024-09-21T12:37:22Z</time>
      </trkpt>
      <trkpt lat="42.43902" lon="2.77006">
        <ele>839</ele>
        <time>2024-09-21T12:37:26Z</time>
      </trkpt>
      <trkpt lat="42.43899" lon="2.77004">
        <ele>838</ele>
        <time>2024-09-21T12:37:28Z</time>
      </trkpt>
      <trkpt lat="42.43897" lon="2.77002">
        <ele>838</ele>
        <time>2024-09-21T12:37:30Z</time>
      </trkpt>
      <trkpt lat="42.43894" lon="2.76999">
        <ele>839</ele>
        <time>2024-09-21T12:37:32Z</time>
      </trkpt>
      <trkpt lat="42.43892" lon="2.76996">
        <ele>838</ele>
        <time>2024-09-21T12:37:34Z</time>
      </trkpt>
      <trkpt lat="42.43888" lon="2.76994">
        <ele>837</ele>
        <time>2024-09-21T12:37:37Z</time>
      </trkpt>
      <trkpt lat="42.43886" lon="2.76991">
        <ele>837</ele>
        <time>2024-09-21T12:37:39Z</time>
      </trkpt>
      <trkpt lat="42.43883" lon="2.76988">
        <ele>836</ele>
        <time>2024-09-21T12:37:43Z</time>
      </trkpt>
      <trkpt lat="42.4388" lon="2.76987">
        <ele>837</ele>
        <time>2024-09-21T12:37:45Z</time>
      </trkpt>
      <trkpt lat="42.43877" lon="2.76988">
        <ele>837</ele>
        <time>2024-09-21T12:37:47Z</time>
      </trkpt>
      <trkpt lat="42.43876" lon="2.76992">
        <ele>836</ele>
        <time>2024-09-21T12:37:50Z</time>
      </trkpt>
      <trkpt lat="42.43876" lon="2.76998">
        <ele>836</ele>
        <time>2024-09-21T12:37:52Z</time>
      </trkpt>
      <trkpt lat="42.43877" lon="2.77002">
        <ele>833</ele>
        <time>2024-09-21T12:37:54Z</time>
      </trkpt>
      <trkpt lat="42.43878" lon="2.77006">
        <ele>830</ele>
        <time>2024-09-21T12:37:57Z</time>
      </trkpt>
      <trkpt lat="42.43879" lon="2.77011">
        <ele>829</ele>
        <time>2024-09-21T12:37:59Z</time>
      </trkpt>
      <trkpt lat="42.43878" lon="2.77016">
        <ele>828</ele>
        <time>2024-09-21T12:38:01Z</time>
      </trkpt>
      <trkpt lat="42.43879" lon="2.7702">
        <ele>827</ele>
        <time>2024-09-21T12:38:04Z</time>
      </trkpt>
      <trkpt lat="42.4388" lon="2.77025">
        <ele>826</ele>
        <time>2024-09-21T12:38:06Z</time>
      </trkpt>
      <trkpt lat="42.4388" lon="2.7703">
        <ele>824</ele>
        <time>2024-09-21T12:38:09Z</time>
      </trkpt>
      <trkpt lat="42.4388" lon="2.77034">
        <ele>824</ele>
        <time>2024-09-21T12:38:11Z</time>
      </trkpt>
      <trkpt lat="42.43882" lon="2.77038">
        <ele>822</ele>
        <time>2024-09-21T12:38:15Z</time>
      </trkpt>
      <trkpt lat="42.43883" lon="2.77042">
        <ele>820</ele>
        <time>2024-09-21T12:38:17Z</time>
      </trkpt>
      <trkpt lat="42.43884" lon="2.77046">
        <ele>821</ele>
        <time>2024-09-21T12:38:19Z</time>
      </trkpt>
      <trkpt lat="42.43885" lon="2.77049">
        <ele>820</ele>
        <time>2024-09-21T12:38:21Z</time>
      </trkpt>
      <trkpt lat="42.43885" lon="2.77054">
        <ele>819</ele>
        <time>2024-09-21T12:38:24Z</time>
      </trkpt>
      <trkpt lat="42.43886" lon="2.77057">
        <ele>818</ele>
        <time>2024-09-21T12:38:26Z</time>
      </trkpt>
      <trkpt lat="42.43888" lon="2.77061">
        <ele>817</ele>
        <time>2024-09-21T12:38:29Z</time>
      </trkpt>
      <trkpt lat="42.43888" lon="2.77065">
        <ele>817</ele>
        <time>2024-09-21T12:38:31Z</time>
      </trkpt>
      <trkpt lat="42.43889" lon="2.77069">
        <ele>817</ele>
        <time>2024-09-21T12:38:33Z</time>
      </trkpt>
      <trkpt lat="42.43889" lon="2.77073">
        <ele>816</ele>
        <time>2024-09-21T12:38:35Z</time>
      </trkpt>
      <trkpt lat="42.4389" lon="2.77077">
        <ele>816</ele>
        <time>2024-09-21T12:38:37Z</time>
      </trkpt>
      <trkpt lat="42.43891" lon="2.77082">
        <ele>814</ele>
        <time>2024-09-21T12:38:40Z</time>
      </trkpt>
      <trkpt lat="42.43893" lon="2.77086">
        <ele>816</ele>
        <time>2024-09-21T12:38:42Z</time>
      </trkpt>
      <trkpt lat="42.43894" lon="2.77089">
        <ele>814</ele>
        <time>2024-09-21T12:38:45Z</time>
      </trkpt>
      <trkpt lat="42.43896" lon="2.77093">
        <ele>814</ele>
        <time>2024-09-21T12:38:47Z</time>
      </trkpt>
      <trkpt lat="42.43898" lon="2.77095">
        <ele>813</ele>
        <time>2024-09-21T12:38:49Z</time>
      </trkpt>
      <trkpt lat="42.439" lon="2.77099">
        <ele>812</ele>
        <time>2024-09-21T12:38:52Z</time>
      </trkpt>
      <trkpt lat="42.43901" lon="2.77103">
        <ele>811</ele>
        <time>2024-09-21T12:38:54Z</time>
      </trkpt>
      <trkpt lat="42.43902" lon="2.77106">
        <ele>810</ele>
        <time>2024-09-21T12:38:56Z</time>
      </trkpt>
      <trkpt lat="42.43904" lon="2.7711">
        <ele>809</ele>
        <time>2024-09-21T12:38:59Z</time>
      </trkpt>
      <trkpt lat="42.43906" lon="2.77113">
        <ele>809</ele>
        <time>2024-09-21T12:39:01Z</time>
      </trkpt>
      <trkpt lat="42.43906" lon="2.77116">
        <ele>809</ele>
        <time>2024-09-21T12:39:03Z</time>
      </trkpt>
      <trkpt lat="42.43906" lon="2.7712">
        <ele>808</ele>
        <time>2024-09-21T12:39:05Z</time>
      </trkpt>
      <trkpt lat="42.43904" lon="2.77122">
        <ele>808</ele>
        <time>2024-09-21T12:39:07Z</time>
      </trkpt>
      <trkpt lat="42.43903" lon="2.77127">
        <ele>808</ele>
        <time>2024-09-21T12:39:10Z</time>
      </trkpt>
      <trkpt lat="42.43904" lon="2.77131">
        <ele>807</ele>
        <time>2024-09-21T12:39:13Z</time>
      </trkpt>
      <trkpt lat="42.43904" lon="2.77136">
        <ele>807</ele>
        <time>2024-09-21T12:39:15Z</time>
      </trkpt>
      <trkpt lat="42.43906" lon="2.77138">
        <ele>806</ele>
        <time>2024-09-21T12:39:18Z</time>
      </trkpt>
      <trkpt lat="42.43906" lon="2.77141">
        <ele>805</ele>
        <time>2024-09-21T12:39:21Z</time>
      </trkpt>
      <trkpt lat="42.43904" lon="2.77143">
        <ele>805</ele>
        <time>2024-09-21T12:39:24Z</time>
      </trkpt>
      <trkpt lat="42.439" lon="2.77143">
        <ele>804</ele>
        <time>2024-09-21T12:39:28Z</time>
      </trkpt>
      <trkpt lat="42.43896" lon="2.77143">
        <ele>803</ele>
        <time>2024-09-21T12:39:30Z</time>
      </trkpt>
      <trkpt lat="42.43894" lon="2.77146">
        <ele>801</ele>
        <time>2024-09-21T12:39:33Z</time>
      </trkpt>
      <trkpt lat="42.43894" lon="2.7715">
        <ele>799</ele>
        <time>2024-09-21T12:39:35Z</time>
      </trkpt>
      <trkpt lat="42.43895" lon="2.77154">
        <ele>799</ele>
        <time>2024-09-21T12:39:37Z</time>
      </trkpt>
      <trkpt lat="42.43897" lon="2.77158">
        <ele>797</ele>
        <time>2024-09-21T12:39:42Z</time>
      </trkpt>
      <trkpt lat="42.43899" lon="2.77161">
        <ele>796</ele>
        <time>2024-09-21T12:39:45Z</time>
      </trkpt>
      <trkpt lat="42.43901" lon="2.77165">
        <ele>795</ele>
        <time>2024-09-21T12:39:48Z</time>
      </trkpt>
      <trkpt lat="42.43903" lon="2.77168">
        <ele>793</ele>
        <time>2024-09-21T12:39:52Z</time>
      </trkpt>
      <trkpt lat="42.43905" lon="2.77171">
        <ele>793</ele>
        <time>2024-09-21T12:39:55Z</time>
      </trkpt>
      <trkpt lat="42.43907" lon="2.77175">
        <ele>793</ele>
        <time>2024-09-21T12:39:58Z</time>
      </trkpt>
      <trkpt lat="42.43908" lon="2.77178">
        <ele>792</ele>
        <time>2024-09-21T12:40:01Z</time>
      </trkpt>
      <trkpt lat="42.43909" lon="2.77182">
        <ele>791</ele>
        <time>2024-09-21T12:40:04Z</time>
      </trkpt>
      <trkpt lat="42.4391" lon="2.77186">
        <ele>791</ele>
        <time>2024-09-21T12:40:07Z</time>
      </trkpt>
      <trkpt lat="42.43912" lon="2.77189">
        <ele>791</ele>
        <time>2024-09-21T12:40:10Z</time>
      </trkpt>
      <trkpt lat="42.43914" lon="2.77192">
        <ele>790</ele>
        <time>2024-09-21T12:40:13Z</time>
      </trkpt>
      <trkpt lat="42.43916" lon="2.77195">
        <ele>790</ele>
        <time>2024-09-21T12:40:16Z</time>
      </trkpt>
      <trkpt lat="42.43919" lon="2.77198">
        <ele>789</ele>
        <time>2024-09-21T12:40:21Z</time>
      </trkpt>
      <trkpt lat="42.43921" lon="2.77201">
        <ele>789</ele>
        <time>2024-09-21T12:40:24Z</time>
      </trkpt>
      <trkpt lat="42.43924" lon="2.77205">
        <ele>789</ele>
        <time>2024-09-21T12:40:28Z</time>
      </trkpt>
      <trkpt lat="42.43926" lon="2.77208">
        <ele>788</ele>
        <time>2024-09-21T12:40:31Z</time>
      </trkpt>
      <trkpt lat="42.43928" lon="2.77212">
        <ele>788</ele>
        <time>2024-09-21T12:40:34Z</time>
      </trkpt>
      <trkpt lat="42.43931" lon="2.77214">
        <ele>786</ele>
        <time>2024-09-21T12:40:38Z</time>
      </trkpt>
      <trkpt lat="42.43933" lon="2.77217">
        <ele>786</ele>
        <time>2024-09-21T12:40:41Z</time>
      </trkpt>
      <trkpt lat="42.43932" lon="2.77221">
        <ele>785</ele>
        <time>2024-09-21T12:40:44Z</time>
      </trkpt>
      <trkpt lat="42.4393" lon="2.77222">
        <ele>785</ele>
        <time>2024-09-21T12:40:51Z</time>
      </trkpt>
      <trkpt lat="42.43927" lon="2.77221">
        <ele>786</ele>
        <time>2024-09-21T12:40:54Z</time>
      </trkpt>
      <trkpt lat="42.43923" lon="2.77221">
        <ele>785</ele>
        <time>2024-09-21T12:40:57Z</time>
      </trkpt>
      <trkpt lat="42.43919" lon="2.77221">
        <ele>786</ele>
        <time>2024-09-21T12:40:59Z</time>
      </trkpt>
      <trkpt lat="42.43916" lon="2.77221">
        <ele>787</ele>
        <time>2024-09-21T12:41:01Z</time>
      </trkpt>
      <trkpt lat="42.43912" lon="2.77221">
        <ele>788</ele>
        <time>2024-09-21T12:41:03Z</time>
      </trkpt>
      <trkpt lat="42.43909" lon="2.77221">
        <ele>787</ele>
        <time>2024-09-21T12:41:06Z</time>
      </trkpt>
      <trkpt lat="42.43906" lon="2.77223">
        <ele>786</ele>
        <time>2024-09-21T12:41:08Z</time>
      </trkpt>
      <trkpt lat="42.43902" lon="2.77223">
        <ele>787</ele>
        <time>2024-09-21T12:41:11Z</time>
      </trkpt>
      <trkpt lat="42.43899" lon="2.77224">
        <ele>786</ele>
        <time>2024-09-21T12:41:13Z</time>
      </trkpt>
      <trkpt lat="42.43895" lon="2.77224">
        <ele>786</ele>
        <time>2024-09-21T12:41:16Z</time>
      </trkpt>
      <trkpt lat="42.43892" lon="2.77224">
        <ele>785</ele>
        <time>2024-09-21T12:41:18Z</time>
      </trkpt>
      <trkpt lat="42.43889" lon="2.77225">
        <ele>785</ele>
        <time>2024-09-21T12:41:21Z</time>
      </trkpt>
      <trkpt lat="42.43886" lon="2.77225">
        <ele>785</ele>
        <time>2024-09-21T12:41:23Z</time>
      </trkpt>
      <trkpt lat="42.43882" lon="2.77226">
        <ele>785</ele>
        <time>2024-09-21T12:41:26Z</time>
      </trkpt>
      <trkpt lat="42.43878" lon="2.77227">
        <ele>785</ele>
        <time>2024-09-21T12:41:29Z</time>
      </trkpt>
      <trkpt lat="42.43875" lon="2.77228">
        <ele>785</ele>
        <time>2024-09-21T12:41:32Z</time>
      </trkpt>
      <trkpt lat="42.43871" lon="2.77228">
        <ele>785</ele>
        <time>2024-09-21T12:41:35Z</time>
      </trkpt>
      <trkpt lat="42.43868" lon="2.77228">
        <ele>783</ele>
        <time>2024-09-21T12:41:38Z</time>
      </trkpt>
      <trkpt lat="42.43865" lon="2.77229">
        <ele>781</ele>
        <time>2024-09-21T12:41:41Z</time>
      </trkpt>
      <trkpt lat="42.43861" lon="2.77228">
        <ele>780</ele>
        <time>2024-09-21T12:41:44Z</time>
      </trkpt>
      <trkpt lat="42.43858" lon="2.77228">
        <ele>779</ele>
        <time>2024-09-21T12:41:47Z</time>
      </trkpt>
      <trkpt lat="42.43854" lon="2.7723">
        <ele>779</ele>
        <time>2024-09-21T12:41:50Z</time>
      </trkpt>
      <trkpt lat="42.43852" lon="2.77233">
        <ele>778</ele>
        <time>2024-09-21T12:41:52Z</time>
      </trkpt>
      <trkpt lat="42.43851" lon="2.77236">
        <ele>777</ele>
        <time>2024-09-21T12:41:54Z</time>
      </trkpt>
      <trkpt lat="42.43853" lon="2.7724">
        <ele>774</ele>
        <time>2024-09-21T12:41:56Z</time>
      </trkpt>
      <trkpt lat="42.43854" lon="2.77243">
        <ele>773</ele>
        <time>2024-09-21T12:41:58Z</time>
      </trkpt>
      <trkpt lat="42.43854" lon="2.77247">
        <ele>772</ele>
        <time>2024-09-21T12:42:00Z</time>
      </trkpt>
      <trkpt lat="42.43854" lon="2.77252">
        <ele>771</ele>
        <time>2024-09-21T12:42:03Z</time>
      </trkpt>
      <trkpt lat="42.43854" lon="2.77257">
        <ele>770</ele>
        <time>2024-09-21T12:42:06Z</time>
      </trkpt>
      <trkpt lat="42.43855" lon="2.77261">
        <ele>769</ele>
        <time>2024-09-21T12:42:08Z</time>
      </trkpt>
      <trkpt lat="42.43855" lon="2.77266">
        <ele>767</ele>
        <time>2024-09-21T12:42:11Z</time>
      </trkpt>
      <trkpt lat="42.43855" lon="2.7727">
        <ele>767</ele>
        <time>2024-09-21T12:42:13Z</time>
      </trkpt>
      <trkpt lat="42.43856" lon="2.77275">
        <ele>766</ele>
        <time>2024-09-21T12:42:16Z</time>
      </trkpt>
      <trkpt lat="42.43857" lon="2.7728">
        <ele>764</ele>
        <time>2024-09-21T12:42:19Z</time>
      </trkpt>
      <trkpt lat="42.43857" lon="2.77285">
        <ele>763</ele>
        <time>2024-09-21T12:42:22Z</time>
      </trkpt>
      <trkpt lat="42.43858" lon="2.7729">
        <ele>763</ele>
        <time>2024-09-21T12:42:26Z</time>
      </trkpt>
      <trkpt lat="42.43859" lon="2.77294">
        <ele>762</ele>
        <time>2024-09-21T12:42:28Z</time>
      </trkpt>
      <trkpt lat="42.4386" lon="2.77299">
        <ele>761</ele>
        <time>2024-09-21T12:42:31Z</time>
      </trkpt>
      <trkpt lat="42.43861" lon="2.77302">
        <ele>761</ele>
        <time>2024-09-21T12:42:33Z</time>
      </trkpt>
      <trkpt lat="42.43863" lon="2.77305">
        <ele>761</ele>
        <time>2024-09-21T12:42:35Z</time>
      </trkpt>
      <trkpt lat="42.43866" lon="2.77309">
        <ele>761</ele>
        <time>2024-09-21T12:42:38Z</time>
      </trkpt>
      <trkpt lat="42.43868" lon="2.77311">
        <ele>759</ele>
        <time>2024-09-21T12:42:40Z</time>
      </trkpt>
      <trkpt lat="42.43871" lon="2.77312">
        <ele>760</ele>
        <time>2024-09-21T12:42:43Z</time>
      </trkpt>
      <trkpt lat="42.43874" lon="2.77315">
        <ele>759</ele>
        <time>2024-09-21T12:42:46Z</time>
      </trkpt>
      <trkpt lat="42.43878" lon="2.77317">
        <ele>759</ele>
        <time>2024-09-21T12:42:49Z</time>
      </trkpt>
      <trkpt lat="42.43881" lon="2.77319">
        <ele>758</ele>
        <time>2024-09-21T12:42:52Z</time>
      </trkpt>
      <trkpt lat="42.43884" lon="2.77321">
        <ele>758</ele>
        <time>2024-09-21T12:42:55Z</time>
      </trkpt>
      <trkpt lat="42.43887" lon="2.77323">
        <ele>757</ele>
        <time>2024-09-21T12:42:58Z</time>
      </trkpt>
      <trkpt lat="42.4389" lon="2.77324">
        <ele>757</ele>
        <time>2024-09-21T12:42:59Z</time>
      </trkpt>
      <trkpt lat="42.43893" lon="2.77326">
        <ele>757</ele>
        <time>2024-09-21T12:43:02Z</time>
      </trkpt>
      <trkpt lat="42.43896" lon="2.77328">
        <ele>757</ele>
        <time>2024-09-21T12:43:05Z</time>
      </trkpt>
      <trkpt lat="42.43899" lon="2.7733">
        <ele>755</ele>
        <time>2024-09-21T12:43:12Z</time>
      </trkpt>
      <trkpt lat="42.43902" lon="2.77332">
        <ele>755</ele>
        <time>2024-09-21T12:43:14Z</time>
      </trkpt>
      <trkpt lat="42.43905" lon="2.77335">
        <ele>754</ele>
        <time>2024-09-21T12:43:17Z</time>
      </trkpt>
      <trkpt lat="42.43908" lon="2.77338">
        <ele>754</ele>
        <time>2024-09-21T12:43:20Z</time>
      </trkpt>
      <trkpt lat="42.4391" lon="2.77341">
        <ele>754</ele>
        <time>2024-09-21T12:43:22Z</time>
      </trkpt>
      <trkpt lat="42.43914" lon="2.77343">
        <ele>753</ele>
        <time>2024-09-21T12:43:25Z</time>
      </trkpt>
      <trkpt lat="42.43916" lon="2.77346">
        <ele>752</ele>
        <time>2024-09-21T12:43:28Z</time>
      </trkpt>
      <trkpt lat="42.43919" lon="2.77348">
        <ele>752</ele>
        <time>2024-09-21T12:43:30Z</time>
      </trkpt>
      <trkpt lat="42.43922" lon="2.77351">
        <ele>751</ele>
        <time>2024-09-21T12:43:33Z</time>
      </trkpt>
      <trkpt lat="42.43926" lon="2.77353">
        <ele>750</ele>
        <time>2024-09-21T12:43:36Z</time>
      </trkpt>
      <trkpt lat="42.43929" lon="2.77356">
        <ele>750</ele>
        <time>2024-09-21T12:43:39Z</time>
      </trkpt>
      <trkpt lat="42.43932" lon="2.77357">
        <ele>748</ele>
        <time>2024-09-21T12:43:41Z</time>
      </trkpt>
      <trkpt lat="42.43935" lon="2.77359">
        <ele>748</ele>
        <time>2024-09-21T12:43:44Z</time>
      </trkpt>
      <trkpt lat="42.43938" lon="2.7736">
        <ele>746</ele>
        <time>2024-09-21T12:43:47Z</time>
      </trkpt>
      <trkpt lat="42.43941" lon="2.77362">
        <ele>745</ele>
        <time>2024-09-21T12:43:50Z</time>
      </trkpt>
      <trkpt lat="42.43945" lon="2.77364">
        <ele>744</ele>
        <time>2024-09-21T12:43:53Z</time>
      </trkpt>
      <trkpt lat="42.43947" lon="2.77366">
        <ele>744</ele>
        <time>2024-09-21T12:43:55Z</time>
      </trkpt>
      <trkpt lat="42.4395" lon="2.77369">
        <ele>744</ele>
        <time>2024-09-21T12:43:58Z</time>
      </trkpt>
      <trkpt lat="42.43953" lon="2.77371">
        <ele>743</ele>
        <time>2024-09-21T12:44:00Z</time>
      </trkpt>
      <trkpt lat="42.43955" lon="2.77374">
        <ele>742</ele>
        <time>2024-09-21T12:44:02Z</time>
      </trkpt>
      <trkpt lat="42.43958" lon="2.77377">
        <ele>742</ele>
        <time>2024-09-21T12:44:05Z</time>
      </trkpt>
      <trkpt lat="42.4396" lon="2.7738">
        <ele>742</ele>
        <time>2024-09-21T12:44:07Z</time>
      </trkpt>
      <trkpt lat="42.43962" lon="2.77383">
        <ele>741</ele>
        <time>2024-09-21T12:44:09Z</time>
      </trkpt>
      <trkpt lat="42.43964" lon="2.77385">
        <ele>740</ele>
        <time>2024-09-21T12:44:11Z</time>
      </trkpt>
      <trkpt lat="42.43967" lon="2.77389">
        <ele>739</ele>
        <time>2024-09-21T12:44:14Z</time>
      </trkpt>
      <trkpt lat="42.43968" lon="2.77392">
        <ele>739</ele>
        <time>2024-09-21T12:44:16Z</time>
      </trkpt>
      <trkpt lat="42.43969" lon="2.77395">
        <ele>739</ele>
        <time>2024-09-21T12:44:18Z</time>
      </trkpt>
      <trkpt lat="42.43967" lon="2.77398">
        <ele>740</ele>
        <time>2024-09-21T12:44:21Z</time>
      </trkpt>
      <trkpt lat="42.43968" lon="2.77401">
        <ele>740</ele>
        <time>2024-09-21T12:44:23Z</time>
      </trkpt>
      <trkpt lat="42.4397" lon="2.77403">
        <ele>740</ele>
        <time>2024-09-21T12:44:25Z</time>
      </trkpt>
      <trkpt lat="42.43973" lon="2.77405">
        <ele>738</ele>
        <time>2024-09-21T12:44:28Z</time>
      </trkpt>
      <trkpt lat="42.43975" lon="2.77408">
        <ele>738</ele>
        <time>2024-09-21T12:44:30Z</time>
      </trkpt>
      <trkpt lat="42.43978" lon="2.77411">
        <ele>737</ele>
        <time>2024-09-21T12:44:33Z</time>
      </trkpt>
      <trkpt lat="42.43979" lon="2.77414">
        <ele>737</ele>
        <time>2024-09-21T12:44:35Z</time>
      </trkpt>
      <trkpt lat="42.4398" lon="2.77418">
        <ele>736</ele>
        <time>2024-09-21T12:44:38Z</time>
      </trkpt>
      <trkpt lat="42.43981" lon="2.77422">
        <ele>737</ele>
        <time>2024-09-21T12:44:41Z</time>
      </trkpt>
      <trkpt lat="42.43981" lon="2.77427">
        <ele>735</ele>
        <time>2024-09-21T12:44:44Z</time>
      </trkpt>
      <trkpt lat="42.43978" lon="2.7743">
        <ele>735</ele>
        <time>2024-09-21T12:44:47Z</time>
      </trkpt>
      <trkpt lat="42.43975" lon="2.77431">
        <ele>734</ele>
        <time>2024-09-21T12:44:50Z</time>
      </trkpt>
      <trkpt lat="42.43972" lon="2.7743">
        <ele>735</ele>
        <time>2024-09-21T12:44:52Z</time>
      </trkpt>
      <trkpt lat="42.43969" lon="2.77429">
        <ele>735</ele>
        <time>2024-09-21T12:44:54Z</time>
      </trkpt>
      <trkpt lat="42.43966" lon="2.77427">
        <ele>734</ele>
        <time>2024-09-21T12:44:56Z</time>
      </trkpt>
      <trkpt lat="42.43964" lon="2.77426">
        <ele>735</ele>
        <time>2024-09-21T12:44:58Z</time>
      </trkpt>
      <trkpt lat="42.4396" lon="2.77425">
        <ele>735</ele>
        <time>2024-09-21T12:45:01Z</time>
      </trkpt>
      <trkpt lat="42.43957" lon="2.77425">
        <ele>736</ele>
        <time>2024-09-21T12:45:03Z</time>
      </trkpt>
      <trkpt lat="42.43953" lon="2.77425">
        <ele>736</ele>
        <time>2024-09-21T12:45:05Z</time>
      </trkpt>
      <trkpt lat="42.4395" lon="2.77426">
        <ele>736</ele>
        <time>2024-09-21T12:45:07Z</time>
      </trkpt>
      <trkpt lat="42.43947" lon="2.77425">
        <ele>735</ele>
        <time>2024-09-21T12:45:10Z</time>
      </trkpt>
      <trkpt lat="42.43944" lon="2.77426">
        <ele>735</ele>
        <time>2024-09-21T12:45:12Z</time>
      </trkpt>
      <trkpt lat="42.43941" lon="2.77428">
        <ele>732</ele>
        <time>2024-09-21T12:45:16Z</time>
      </trkpt>
      <trkpt lat="42.43939" lon="2.7743">
        <ele>732</ele>
        <time>2024-09-21T12:45:18Z</time>
      </trkpt>
      <trkpt lat="42.43936" lon="2.77432">
        <ele>731</ele>
        <time>2024-09-21T12:45:20Z</time>
      </trkpt>
      <trkpt lat="42.43933" lon="2.77434">
        <ele>731</ele>
        <time>2024-09-21T12:45:23Z</time>
      </trkpt>
      <trkpt lat="42.43934" lon="2.77438">
        <ele>729</ele>
        <time>2024-09-21T12:45:35Z</time>
      </trkpt>
      <trkpt lat="42.43932" lon="2.77441">
        <ele>728</ele>
        <time>2024-09-21T12:46:12Z</time>
      </trkpt>
      <trkpt lat="42.43929" lon="2.77443">
        <ele>727</ele>
        <time>2024-09-21T12:46:15Z</time>
      </trkpt>
      <trkpt lat="42.43927" lon="2.77444">
        <ele>727</ele>
        <time>2024-09-21T12:46:18Z</time>
      </trkpt>
      <trkpt lat="42.43924" lon="2.77446">
        <ele>727</ele>
        <time>2024-09-21T12:46:21Z</time>
      </trkpt>
      <trkpt lat="42.43921" lon="2.77449">
        <ele>727</ele>
        <time>2024-09-21T12:46:24Z</time>
      </trkpt>
      <trkpt lat="42.43918" lon="2.77451">
        <ele>727</ele>
        <time>2024-09-21T12:46:26Z</time>
      </trkpt>
      <trkpt lat="42.43915" lon="2.77453">
        <ele>727</ele>
        <time>2024-09-21T12:46:29Z</time>
      </trkpt>
      <trkpt lat="42.43912" lon="2.77456">
        <ele>727</ele>
        <time>2024-09-21T12:46:32Z</time>
      </trkpt>
      <trkpt lat="42.43909" lon="2.77459">
        <ele>726</ele>
        <time>2024-09-21T12:46:35Z</time>
      </trkpt>
      <trkpt lat="42.43906" lon="2.7746">
        <ele>725</ele>
        <time>2024-09-21T12:46:39Z</time>
      </trkpt>
      <trkpt lat="42.43903" lon="2.77463">
        <ele>725</ele>
        <time>2024-09-21T12:46:42Z</time>
      </trkpt>
      <trkpt lat="42.43902" lon="2.77466">
        <ele>722</ele>
        <time>2024-09-21T12:46:51Z</time>
      </trkpt>
      <trkpt lat="42.43898" lon="2.77468">
        <ele>721</ele>
        <time>2024-09-21T12:46:54Z</time>
      </trkpt>
      <trkpt lat="42.43895" lon="2.77469">
        <ele>720</ele>
        <time>2024-09-21T12:46:56Z</time>
      </trkpt>
      <trkpt lat="42.43893" lon="2.7747">
        <ele>721</ele>
        <time>2024-09-21T12:46:58Z</time>
      </trkpt>
      <trkpt lat="42.4389" lon="2.77472">
        <ele>720</ele>
        <time>2024-09-21T12:47:00Z</time>
      </trkpt>
      <trkpt lat="42.43887" lon="2.77473">
        <ele>720</ele>
        <time>2024-09-21T12:47:02Z</time>
      </trkpt>
      <trkpt lat="42.43884" lon="2.77475">
        <ele>720</ele>
        <time>2024-09-21T12:47:05Z</time>
      </trkpt>
      <trkpt lat="42.43881" lon="2.77477">
        <ele>720</ele>
        <time>2024-09-21T12:47:07Z</time>
      </trkpt>
      <trkpt lat="42.43878" lon="2.77479">
        <ele>720</ele>
        <time>2024-09-21T12:47:09Z</time>
      </trkpt>
      <trkpt lat="42.43876" lon="2.77481">
        <ele>720</ele>
        <time>2024-09-21T12:47:10Z</time>
      </trkpt>
      <trkpt lat="42.43873" lon="2.77483">
        <ele>719</ele>
        <time>2024-09-21T12:47:13Z</time>
      </trkpt>
      <trkpt lat="42.43869" lon="2.77485">
        <ele>720</ele>
        <time>2024-09-21T12:47:16Z</time>
      </trkpt>
      <trkpt lat="42.43866" lon="2.77487">
        <ele>719</ele>
        <time>2024-09-21T12:47:19Z</time>
      </trkpt>
      <trkpt lat="42.43863" lon="2.77489">
        <ele>719</ele>
        <time>2024-09-21T12:47:21Z</time>
      </trkpt>
      <trkpt lat="42.43861" lon="2.77491">
        <ele>719</ele>
        <time>2024-09-21T12:47:23Z</time>
      </trkpt>
      <trkpt lat="42.43859" lon="2.77494">
        <ele>718</ele>
        <time>2024-09-21T12:47:25Z</time>
      </trkpt>
      <trkpt lat="42.43857" lon="2.77497">
        <ele>718</ele>
        <time>2024-09-21T12:47:27Z</time>
      </trkpt>
      <trkpt lat="42.43857" lon="2.77501">
        <ele>717</ele>
        <time>2024-09-21T12:47:29Z</time>
      </trkpt>
      <trkpt lat="42.43857" lon="2.77504">
        <ele>717</ele>
        <time>2024-09-21T12:47:31Z</time>
      </trkpt>
      <trkpt lat="42.43858" lon="2.77508">
        <ele>716</ele>
        <time>2024-09-21T12:47:33Z</time>
      </trkpt>
      <trkpt lat="42.4386" lon="2.7751">
        <ele>714</ele>
        <time>2024-09-21T12:47:39Z</time>
      </trkpt>
      <trkpt lat="42.43863" lon="2.77511">
        <ele>713</ele>
        <time>2024-09-21T12:47:41Z</time>
      </trkpt>
      <trkpt lat="42.43866" lon="2.77512">
        <ele>712</ele>
        <time>2024-09-21T12:47:43Z</time>
      </trkpt>
      <trkpt lat="42.43869" lon="2.77513">
        <ele>711</ele>
        <time>2024-09-21T12:47:48Z</time>
      </trkpt>
      <trkpt lat="42.43872" lon="2.77514">
        <ele>710</ele>
        <time>2024-09-21T12:47:50Z</time>
      </trkpt>
      <trkpt lat="42.43875" lon="2.77514">
        <ele>711</ele>
        <time>2024-09-21T12:47:52Z</time>
      </trkpt>
      <trkpt lat="42.43879" lon="2.77513">
        <ele>710</ele>
        <time>2024-09-21T12:47:55Z</time>
      </trkpt>
      <trkpt lat="42.43882" lon="2.77514">
        <ele>708</ele>
        <time>2024-09-21T12:47:58Z</time>
      </trkpt>
      <trkpt lat="42.43886" lon="2.77515">
        <ele>708</ele>
        <time>2024-09-21T12:48:00Z</time>
      </trkpt>
      <trkpt lat="42.43888" lon="2.77516">
        <ele>706</ele>
        <time>2024-09-21T12:48:02Z</time>
      </trkpt>
      <trkpt lat="42.43891" lon="2.77516">
        <ele>706</ele>
        <time>2024-09-21T12:48:04Z</time>
      </trkpt>
      <trkpt lat="42.43895" lon="2.77516">
        <ele>705</ele>
        <time>2024-09-21T12:48:07Z</time>
      </trkpt>
      <trkpt lat="42.43898" lon="2.77515">
        <ele>704</ele>
        <time>2024-09-21T12:48:09Z</time>
      </trkpt>
      <trkpt lat="42.43902" lon="2.77514">
        <ele>703</ele>
        <time>2024-09-21T12:48:12Z</time>
      </trkpt>
      <trkpt lat="42.43906" lon="2.77513">
        <ele>701</ele>
        <time>2024-09-21T12:48:15Z</time>
      </trkpt>
      <trkpt lat="42.43909" lon="2.77513">
        <ele>701</ele>
        <time>2024-09-21T12:48:17Z</time>
      </trkpt>
      <trkpt lat="42.43912" lon="2.77514">
        <ele>700</ele>
        <time>2024-09-21T12:48:20Z</time>
      </trkpt>
      <trkpt lat="42.43915" lon="2.77518">
        <ele>699</ele>
        <time>2024-09-21T12:48:23Z</time>
      </trkpt>
      <trkpt lat="42.43916" lon="2.77521">
        <ele>699</ele>
        <time>2024-09-21T12:48:25Z</time>
      </trkpt>
      <trkpt lat="42.43916" lon="2.77525">
        <ele>699</ele>
        <time>2024-09-21T12:48:27Z</time>
      </trkpt>
      <trkpt lat="42.43915" lon="2.77528">
        <ele>698</ele>
        <time>2024-09-21T12:48:29Z</time>
      </trkpt>
      <trkpt lat="42.43913" lon="2.77531">
        <ele>699</ele>
        <time>2024-09-21T12:48:31Z</time>
      </trkpt>
      <trkpt lat="42.43911" lon="2.77533">
        <ele>699</ele>
        <time>2024-09-21T12:48:33Z</time>
      </trkpt>
      <trkpt lat="42.43909" lon="2.77536">
        <ele>700</ele>
        <time>2024-09-21T12:48:35Z</time>
      </trkpt>
      <trkpt lat="42.43906" lon="2.77539">
        <ele>698</ele>
        <time>2024-09-21T12:48:38Z</time>
      </trkpt>
      <trkpt lat="42.43904" lon="2.77541">
        <ele>698</ele>
        <time>2024-09-21T12:48:40Z</time>
      </trkpt>
      <trkpt lat="42.43901" lon="2.77542">
        <ele>698</ele>
        <time>2024-09-21T12:48:42Z</time>
      </trkpt>
      <trkpt lat="42.439" lon="2.77546">
        <ele>698</ele>
        <time>2024-09-21T12:48:45Z</time>
      </trkpt>
      <trkpt lat="42.43898" lon="2.77549">
        <ele>698</ele>
        <time>2024-09-21T12:48:47Z</time>
      </trkpt>
      <trkpt lat="42.43897" lon="2.77552">
        <ele>698</ele>
        <time>2024-09-21T12:48:49Z</time>
      </trkpt>
      <trkpt lat="42.43895" lon="2.77556">
        <ele>698</ele>
        <time>2024-09-21T12:48:52Z</time>
      </trkpt>
      <trkpt lat="42.43893" lon="2.7756">
        <ele>696</ele>
        <time>2024-09-21T12:48:55Z</time>
      </trkpt>
      <trkpt lat="42.4389" lon="2.77564">
        <ele>696</ele>
        <time>2024-09-21T12:48:58Z</time>
      </trkpt>
      <trkpt lat="42.43888" lon="2.77568">
        <ele>695</ele>
        <time>2024-09-21T12:49:01Z</time>
      </trkpt>
      <trkpt lat="42.43886" lon="2.77572">
        <ele>693</ele>
        <time>2024-09-21T12:49:04Z</time>
      </trkpt>
      <trkpt lat="42.43883" lon="2.77576">
        <ele>693</ele>
        <time>2024-09-21T12:49:07Z</time>
      </trkpt>
      <trkpt lat="42.43881" lon="2.77579">
        <ele>692</ele>
        <time>2024-09-21T12:49:10Z</time>
      </trkpt>
      <trkpt lat="42.43878" lon="2.77582">
        <ele>691</ele>
        <time>2024-09-21T12:49:13Z</time>
      </trkpt>
      <trkpt lat="42.43875" lon="2.77585">
        <ele>691</ele>
        <time>2024-09-21T12:49:15Z</time>
      </trkpt>
      <trkpt lat="42.43873" lon="2.77589">
        <ele>692</ele>
        <time>2024-09-21T12:49:17Z</time>
      </trkpt>
      <trkpt lat="42.43871" lon="2.77592">
        <ele>691</ele>
        <time>2024-09-21T12:49:20Z</time>
      </trkpt>
      <trkpt lat="42.43869" lon="2.77596">
        <ele>691</ele>
        <time>2024-09-21T12:49:23Z</time>
      </trkpt>
      <trkpt lat="42.43866" lon="2.776">
        <ele>691</ele>
        <time>2024-09-21T12:49:26Z</time>
      </trkpt>
      <trkpt lat="42.43864" lon="2.77604">
        <ele>690</ele>
        <time>2024-09-21T12:49:29Z</time>
      </trkpt>
      <trkpt lat="42.43862" lon="2.77608">
        <ele>689</ele>
        <time>2024-09-21T12:49:34Z</time>
      </trkpt>
      <trkpt lat="42.4386" lon="2.7761">
        <ele>688</ele>
        <time>2024-09-21T12:49:38Z</time>
      </trkpt>
      <trkpt lat="42.43857" lon="2.77612">
        <ele>686</ele>
        <time>2024-09-21T12:49:41Z</time>
      </trkpt>
      <trkpt lat="42.43854" lon="2.77612">
        <ele>686</ele>
        <time>2024-09-21T12:49:43Z</time>
      </trkpt>
      <trkpt lat="42.43851" lon="2.77612">
        <ele>686</ele>
        <time>2024-09-21T12:49:45Z</time>
      </trkpt>
      <trkpt lat="42.43847" lon="2.77613">
        <ele>686</ele>
        <time>2024-09-21T12:49:48Z</time>
      </trkpt>
      <trkpt lat="42.43844" lon="2.77615">
        <ele>685</ele>
        <time>2024-09-21T12:49:51Z</time>
      </trkpt>
      <trkpt lat="42.43843" lon="2.77618">
        <ele>684</ele>
        <time>2024-09-21T12:49:54Z</time>
      </trkpt>
      <trkpt lat="42.43843" lon="2.77622">
        <ele>683</ele>
        <time>2024-09-21T12:49:57Z</time>
      </trkpt>
      <trkpt lat="42.43845" lon="2.77625">
        <ele>682</ele>
        <time>2024-09-21T12:50:00Z</time>
      </trkpt>
      <trkpt lat="42.43847" lon="2.77627">
        <ele>680</ele>
        <time>2024-09-21T12:50:03Z</time>
      </trkpt>
      <trkpt lat="42.4385" lon="2.77629">
        <ele>680</ele>
        <time>2024-09-21T12:50:05Z</time>
      </trkpt>
      <trkpt lat="42.43852" lon="2.77631">
        <ele>679</ele>
        <time>2024-09-21T12:50:08Z</time>
      </trkpt>
      <trkpt lat="42.43855" lon="2.77632">
        <ele>680</ele>
        <time>2024-09-21T12:50:10Z</time>
      </trkpt>
      <trkpt lat="42.43857" lon="2.77634">
        <ele>679</ele>
        <time>2024-09-21T12:50:13Z</time>
      </trkpt>
      <trkpt lat="42.4386" lon="2.77634">
        <ele>679</ele>
        <time>2024-09-21T12:50:15Z</time>
      </trkpt>
      <trkpt lat="42.43863" lon="2.77634">
        <ele>677</ele>
        <time>2024-09-21T12:50:18Z</time>
      </trkpt>
      <trkpt lat="42.43866" lon="2.77636">
        <ele>678</ele>
        <time>2024-09-21T12:50:21Z</time>
      </trkpt>
      <trkpt lat="42.4387" lon="2.77637">
        <ele>677</ele>
        <time>2024-09-21T12:50:24Z</time>
      </trkpt>
      <trkpt lat="42.43873" lon="2.77637">
        <ele>677</ele>
        <time>2024-09-21T12:50:26Z</time>
      </trkpt>
      <trkpt lat="42.43876" lon="2.77635">
        <ele>676</ele>
        <time>2024-09-21T12:50:29Z</time>
      </trkpt>
      <trkpt lat="42.43879" lon="2.77634">
        <ele>675</ele>
        <time>2024-09-21T12:50:32Z</time>
      </trkpt>
      <trkpt lat="42.43882" lon="2.77632">
        <ele>675</ele>
        <time>2024-09-21T12:50:35Z</time>
      </trkpt>
      <trkpt lat="42.43885" lon="2.77631">
        <ele>676</ele>
        <time>2024-09-21T12:50:37Z</time>
      </trkpt>
      <trkpt lat="42.43888" lon="2.77629">
        <ele>674</ele>
        <time>2024-09-21T12:50:41Z</time>
      </trkpt>
      <trkpt lat="42.43891" lon="2.77626">
        <ele>673</ele>
        <time>2024-09-21T12:50:44Z</time>
      </trkpt>
      <trkpt lat="42.43893" lon="2.77623">
        <ele>673</ele>
        <time>2024-09-21T12:50:47Z</time>
      </trkpt>
      <trkpt lat="42.43896" lon="2.7762">
        <ele>672</ele>
        <time>2024-09-21T12:50:51Z</time>
      </trkpt>
      <trkpt lat="42.43897" lon="2.77617">
        <ele>672</ele>
        <time>2024-09-21T12:50:53Z</time>
      </trkpt>
      <trkpt lat="42.439" lon="2.77614">
        <ele>671</ele>
        <time>2024-09-21T12:50:56Z</time>
      </trkpt>
      <trkpt lat="42.43902" lon="2.77611">
        <ele>671</ele>
        <time>2024-09-21T12:50:58Z</time>
      </trkpt>
      <trkpt lat="42.43904" lon="2.77608">
        <ele>671</ele>
        <time>2024-09-21T12:51:00Z</time>
      </trkpt>
      <trkpt lat="42.43906" lon="2.77605">
        <ele>670</ele>
        <time>2024-09-21T12:51:03Z</time>
      </trkpt>
      <trkpt lat="42.43909" lon="2.77603">
        <ele>670</ele>
        <time>2024-09-21T12:51:06Z</time>
      </trkpt>
      <trkpt lat="42.43912" lon="2.77602">
        <ele>671</ele>
        <time>2024-09-21T12:51:08Z</time>
      </trkpt>
      <trkpt lat="42.43914" lon="2.77604">
        <ele>669</ele>
        <time>2024-09-21T12:51:12Z</time>
      </trkpt>
      <trkpt lat="42.43916" lon="2.77606">
        <ele>669</ele>
        <time>2024-09-21T12:51:16Z</time>
      </trkpt>
      <trkpt lat="42.43917" lon="2.7761">
        <ele>669</ele>
        <time>2024-09-21T12:51:19Z</time>
      </trkpt>
      <trkpt lat="42.43919" lon="2.77614">
        <ele>669</ele>
        <time>2024-09-21T12:51:21Z</time>
      </trkpt>
      <trkpt lat="42.4392" lon="2.77618">
        <ele>669</ele>
        <time>2024-09-21T12:51:23Z</time>
      </trkpt>
      <trkpt lat="42.43922" lon="2.77619">
        <ele>669</ele>
        <time>2024-09-21T12:51:28Z</time>
      </trkpt>
      <trkpt lat="42.43923" lon="2.77622">
        <ele>671</ele>
        <time>2024-09-21T12:51:30Z</time>
      </trkpt>
      <trkpt lat="42.43924" lon="2.77625">
        <ele>670</ele>
        <time>2024-09-21T12:51:32Z</time>
      </trkpt>
      <trkpt lat="42.43925" lon="2.7763">
        <ele>670</ele>
        <time>2024-09-21T12:51:36Z</time>
      </trkpt>
      <trkpt lat="42.43926" lon="2.77635">
        <ele>671</ele>
        <time>2024-09-21T12:51:39Z</time>
      </trkpt>
      <trkpt lat="42.43927" lon="2.77639">
        <ele>671</ele>
        <time>2024-09-21T12:51:42Z</time>
      </trkpt>
      <trkpt lat="42.43928" lon="2.77644">
        <ele>672</ele>
        <time>2024-09-21T12:51:44Z</time>
      </trkpt>
      <trkpt lat="42.4393" lon="2.77647">
        <ele>672</ele>
        <time>2024-09-21T12:51:47Z</time>
      </trkpt>
      <trkpt lat="42.43931" lon="2.77651">
        <ele>672</ele>
        <time>2024-09-21T12:51:49Z</time>
      </trkpt>
      <trkpt lat="42.43933" lon="2.77655">
        <ele>671</ele>
        <time>2024-09-21T12:51:52Z</time>
      </trkpt>
      <trkpt lat="42.43935" lon="2.77658">
        <ele>672</ele>
        <time>2024-09-21T12:51:54Z</time>
      </trkpt>
      <trkpt lat="42.43937" lon="2.77661">
        <ele>672</ele>
        <time>2024-09-21T12:51:57Z</time>
      </trkpt>
      <trkpt lat="42.43939" lon="2.77665">
        <ele>672</ele>
        <time>2024-09-21T12:52:00Z</time>
      </trkpt>
      <trkpt lat="42.4394" lon="2.7767">
        <ele>673</ele>
        <time>2024-09-21T12:52:03Z</time>
      </trkpt>
      <trkpt lat="42.43943" lon="2.77674">
        <ele>673</ele>
        <time>2024-09-21T12:52:06Z</time>
      </trkpt>
      <trkpt lat="42.43946" lon="2.77677">
        <ele>671</ele>
        <time>2024-09-21T12:52:09Z</time>
      </trkpt>
      <trkpt lat="42.43948" lon="2.7768">
        <ele>671</ele>
        <time>2024-09-21T12:52:12Z</time>
      </trkpt>
      <trkpt lat="42.4395" lon="2.77683">
        <ele>671</ele>
        <time>2024-09-21T12:52:14Z</time>
      </trkpt>
      <trkpt lat="42.43953" lon="2.77686">
        <ele>669</ele>
        <time>2024-09-21T12:52:17Z</time>
      </trkpt>
      <trkpt lat="42.43956" lon="2.77689">
        <ele>670</ele>
        <time>2024-09-21T12:52:19Z</time>
      </trkpt>
      <trkpt lat="42.43959" lon="2.77691">
        <ele>671</ele>
        <time>2024-09-21T12:52:21Z</time>
      </trkpt>
      <trkpt lat="42.43962" lon="2.77693">
        <ele>672</ele>
        <time>2024-09-21T12:52:23Z</time>
      </trkpt>
      <trkpt lat="42.43965" lon="2.77696">
        <ele>673</ele>
        <time>2024-09-21T12:52:25Z</time>
      </trkpt>
      <trkpt lat="42.43967" lon="2.77699">
        <ele>674</ele>
        <time>2024-09-21T12:52:27Z</time>
      </trkpt>
      <trkpt lat="42.43969" lon="2.77702">
        <ele>673</ele>
        <time>2024-09-21T12:52:30Z</time>
      </trkpt>
      <trkpt lat="42.43971" lon="2.77705">
        <ele>673</ele>
        <time>2024-09-21T12:52:32Z</time>
      </trkpt>
      <trkpt lat="42.43974" lon="2.77708">
        <ele>673</ele>
        <time>2024-09-21T12:52:35Z</time>
      </trkpt>
      <trkpt lat="42.43975" lon="2.77711">
        <ele>672</ele>
        <time>2024-09-21T12:52:37Z</time>
      </trkpt>
      <trkpt lat="42.43977" lon="2.77714">
        <ele>671</ele>
        <time>2024-09-21T12:52:39Z</time>
      </trkpt>
      <trkpt lat="42.43979" lon="2.77717">
        <ele>672</ele>
        <time>2024-09-21T12:52:41Z</time>
      </trkpt>
      <trkpt lat="42.43981" lon="2.77719">
        <ele>671</ele>
        <time>2024-09-21T12:52:44Z</time>
      </trkpt>
      <trkpt lat="42.43983" lon="2.77722">
        <ele>672</ele>
        <time>2024-09-21T12:52:46Z</time>
      </trkpt>
      <trkpt lat="42.43985" lon="2.77725">
        <ele>672</ele>
        <time>2024-09-21T12:52:48Z</time>
      </trkpt>
      <trkpt lat="42.43988" lon="2.77727">
        <ele>672</ele>
        <time>2024-09-21T12:52:50Z</time>
      </trkpt>
      <trkpt lat="42.43989" lon="2.7773">
        <ele>672</ele>
        <time>2024-09-21T12:52:52Z</time>
      </trkpt>
      <trkpt lat="42.4399" lon="2.77734">
        <ele>671</ele>
        <time>2024-09-21T12:52:54Z</time>
      </trkpt>
      <trkpt lat="42.43992" lon="2.77737">
        <ele>671</ele>
        <time>2024-09-21T12:52:58Z</time>
      </trkpt>
      <trkpt lat="42.43993" lon="2.77741">
        <ele>670</ele>
        <time>2024-09-21T12:53:01Z</time>
      </trkpt>
      <trkpt lat="42.43995" lon="2.77745">
        <ele>670</ele>
        <time>2024-09-21T12:53:03Z</time>
      </trkpt>
      <trkpt lat="42.43997" lon="2.77748">
        <ele>670</ele>
        <time>2024-09-21T12:53:05Z</time>
      </trkpt>
      <trkpt lat="42.43999" lon="2.7775">
        <ele>668</ele>
        <time>2024-09-21T12:53:08Z</time>
      </trkpt>
      <trkpt lat="42.44001" lon="2.77754">
        <ele>668</ele>
        <time>2024-09-21T12:53:11Z</time>
      </trkpt>
      <trkpt lat="42.44003" lon="2.77758">
        <ele>667</ele>
        <time>2024-09-21T12:53:13Z</time>
      </trkpt>
      <trkpt lat="42.44004" lon="2.77762">
        <ele>666</ele>
        <time>2024-09-21T12:53:15Z</time>
      </trkpt>
      <trkpt lat="42.44006" lon="2.77765">
        <ele>666</ele>
        <time>2024-09-21T12:53:17Z</time>
      </trkpt>
      <trkpt lat="42.44008" lon="2.77768">
        <ele>666</ele>
        <time>2024-09-21T12:53:20Z</time>
      </trkpt>
      <trkpt lat="42.4401" lon="2.77771">
        <ele>665</ele>
        <time>2024-09-21T12:53:22Z</time>
      </trkpt>
      <trkpt lat="42.44011" lon="2.77775">
        <ele>665</ele>
        <time>2024-09-21T12:53:24Z</time>
      </trkpt>
      <trkpt lat="42.44012" lon="2.77779">
        <ele>664</ele>
        <time>2024-09-21T12:53:26Z</time>
      </trkpt>
      <trkpt lat="42.44013" lon="2.77783">
        <ele>662</ele>
        <time>2024-09-21T12:53:29Z</time>
      </trkpt>
      <trkpt lat="42.44016" lon="2.77784">
        <ele>660</ele>
        <time>2024-09-21T12:53:31Z</time>
      </trkpt>
      <trkpt lat="42.44018" lon="2.77787">
        <ele>660</ele>
        <time>2024-09-21T12:53:34Z</time>
      </trkpt>
      <trkpt lat="42.44021" lon="2.77789">
        <ele>660</ele>
        <time>2024-09-21T12:53:37Z</time>
      </trkpt>
      <trkpt lat="42.44023" lon="2.77792">
        <ele>659</ele>
        <time>2024-09-21T12:53:40Z</time>
      </trkpt>
      <trkpt lat="42.44025" lon="2.77794">
        <ele>659</ele>
        <time>2024-09-21T12:53:42Z</time>
      </trkpt>
      <trkpt lat="42.44028" lon="2.77798">
        <ele>658</ele>
        <time>2024-09-21T12:53:45Z</time>
      </trkpt>
      <trkpt lat="42.4403" lon="2.77802">
        <ele>658</ele>
        <time>2024-09-21T12:53:47Z</time>
      </trkpt>
      <trkpt lat="42.44032" lon="2.77805">
        <ele>658</ele>
        <time>2024-09-21T12:53:49Z</time>
      </trkpt>
      <trkpt lat="42.44034" lon="2.77809">
        <ele>655</ele>
        <time>2024-09-21T12:53:52Z</time>
      </trkpt>
      <trkpt lat="42.44036" lon="2.77812">
        <ele>655</ele>
        <time>2024-09-21T12:53:54Z</time>
      </trkpt>
      <trkpt lat="42.44038" lon="2.77815">
        <ele>655</ele>
        <time>2024-09-21T12:53:56Z</time>
      </trkpt>
      <trkpt lat="42.4404" lon="2.77819">
        <ele>654</ele>
        <time>2024-09-21T12:53:59Z</time>
      </trkpt>
      <trkpt lat="42.44043" lon="2.77822">
        <ele>654</ele>
        <time>2024-09-21T12:54:02Z</time>
      </trkpt>
      <trkpt lat="42.44045" lon="2.77825">
        <ele>655</ele>
        <time>2024-09-21T12:54:04Z</time>
      </trkpt>
      <trkpt lat="42.44046" lon="2.77829">
        <ele>654</ele>
        <time>2024-09-21T12:54:07Z</time>
      </trkpt>
      <trkpt lat="42.44048" lon="2.77833">
        <ele>652</ele>
        <time>2024-09-21T12:54:10Z</time>
      </trkpt>
      <trkpt lat="42.44049" lon="2.77837">
        <ele>652</ele>
        <time>2024-09-21T12:54:12Z</time>
      </trkpt>
      <trkpt lat="42.44052" lon="2.77839">
        <ele>650</ele>
        <time>2024-09-21T12:54:16Z</time>
      </trkpt>
      <trkpt lat="42.44053" lon="2.77844">
        <ele>650</ele>
        <time>2024-09-21T12:54:19Z</time>
      </trkpt>
      <trkpt lat="42.44055" lon="2.77847">
        <ele>648</ele>
        <time>2024-09-21T12:54:23Z</time>
      </trkpt>
      <trkpt lat="42.44057" lon="2.77851">
        <ele>648</ele>
        <time>2024-09-21T12:54:26Z</time>
      </trkpt>
      <trkpt lat="42.4406" lon="2.77853">
        <ele>645</ele>
        <time>2024-09-21T12:54:32Z</time>
      </trkpt>
      <trkpt lat="42.44062" lon="2.77857">
        <ele>645</ele>
        <time>2024-09-21T12:54:34Z</time>
      </trkpt>
      <trkpt lat="42.44064" lon="2.77862">
        <ele>646</ele>
        <time>2024-09-21T12:54:38Z</time>
      </trkpt>
      <trkpt lat="42.44066" lon="2.77866">
        <ele>646</ele>
        <time>2024-09-21T12:54:40Z</time>
      </trkpt>
      <trkpt lat="42.44068" lon="2.77869">
        <ele>645</ele>
        <time>2024-09-21T12:54:42Z</time>
      </trkpt>
      <trkpt lat="42.44071" lon="2.77872">
        <ele>645</ele>
        <time>2024-09-21T12:54:45Z</time>
      </trkpt>
      <trkpt lat="42.44073" lon="2.77875">
        <ele>644</ele>
        <time>2024-09-21T12:54:48Z</time>
      </trkpt>
      <trkpt lat="42.44075" lon="2.77878">
        <ele>644</ele>
        <time>2024-09-21T12:54:50Z</time>
      </trkpt>
      <trkpt lat="42.44077" lon="2.77881">
        <ele>645</ele>
        <time>2024-09-21T12:54:52Z</time>
      </trkpt>
      <trkpt lat="42.44078" lon="2.77885">
        <ele>645</ele>
        <time>2024-09-21T12:54:55Z</time>
      </trkpt>
      <trkpt lat="42.4408" lon="2.77888">
        <ele>644</ele>
        <time>2024-09-21T12:54:58Z</time>
      </trkpt>
      <trkpt lat="42.44082" lon="2.77891">
        <ele>644</ele>
        <time>2024-09-21T12:55:00Z</time>
      </trkpt>
      <trkpt lat="42.44084" lon="2.77895">
        <ele>644</ele>
        <time>2024-09-21T12:55:03Z</time>
      </trkpt>
      <trkpt lat="42.44086" lon="2.77899">
        <ele>642</ele>
        <time>2024-09-21T12:55:06Z</time>
      </trkpt>
      <trkpt lat="42.44088" lon="2.77902">
        <ele>642</ele>
        <time>2024-09-21T12:55:09Z</time>
      </trkpt>
      <trkpt lat="42.4409" lon="2.77906">
        <ele>642</ele>
        <time>2024-09-21T12:55:11Z</time>
      </trkpt>
      <trkpt lat="42.44092" lon="2.77909">
        <ele>642</ele>
        <time>2024-09-21T12:55:13Z</time>
      </trkpt>
      <trkpt lat="42.44093" lon="2.77914">
        <ele>642</ele>
        <time>2024-09-21T12:55:16Z</time>
      </trkpt>
      <trkpt lat="42.44093" lon="2.77918">
        <ele>641</ele>
        <time>2024-09-21T12:55:18Z</time>
      </trkpt>
      <trkpt lat="42.44095" lon="2.77923">
        <ele>641</ele>
        <time>2024-09-21T12:55:21Z</time>
      </trkpt>
      <trkpt lat="42.44096" lon="2.77927">
        <ele>640</ele>
        <time>2024-09-21T12:55:24Z</time>
      </trkpt>
      <trkpt lat="42.44096" lon="2.77932">
        <ele>639</ele>
        <time>2024-09-21T12:55:27Z</time>
      </trkpt>
      <trkpt lat="42.44094" lon="2.77936">
        <ele>638</ele>
        <time>2024-09-21T12:55:30Z</time>
      </trkpt>
      <trkpt lat="42.44092" lon="2.77935">
        <ele>637</ele>
        <time>2024-09-21T12:55:33Z</time>
      </trkpt>
      <trkpt lat="42.44091" lon="2.77932">
        <ele>636</ele>
        <time>2024-09-21T12:55:34Z</time>
      </trkpt>
      <trkpt lat="42.44089" lon="2.77929">
        <ele>636</ele>
        <time>2024-09-21T12:55:37Z</time>
      </trkpt>
      <trkpt lat="42.44087" lon="2.77925">
        <ele>635</ele>
        <time>2024-09-21T12:55:39Z</time>
      </trkpt>
      <trkpt lat="42.44085" lon="2.77922">
        <ele>635</ele>
        <time>2024-09-21T12:55:42Z</time>
      </trkpt>
      <trkpt lat="42.44082" lon="2.77918">
        <ele>633</ele>
        <time>2024-09-21T12:55:46Z</time>
      </trkpt>
      <trkpt lat="42.44079" lon="2.77915">
        <ele>634</ele>
        <time>2024-09-21T12:55:49Z</time>
      </trkpt>
      <trkpt lat="42.44077" lon="2.77911">
        <ele>633</ele>
        <time>2024-09-21T12:55:52Z</time>
      </trkpt>
      <trkpt lat="42.44073" lon="2.77909">
        <ele>635</ele>
        <time>2024-09-21T12:55:55Z</time>
      </trkpt>
      <trkpt lat="42.4407" lon="2.77907">
        <ele>634</ele>
        <time>2024-09-21T12:55:58Z</time>
      </trkpt>
      <trkpt lat="42.44068" lon="2.77904">
        <ele>634</ele>
        <time>2024-09-21T12:56:00Z</time>
      </trkpt>
      <trkpt lat="42.44064" lon="2.77902">
        <ele>635</ele>
        <time>2024-09-21T12:56:03Z</time>
      </trkpt>
      <trkpt lat="42.44062" lon="2.779">
        <ele>633</ele>
        <time>2024-09-21T12:56:06Z</time>
      </trkpt>
      <trkpt lat="42.44058" lon="2.77899">
        <ele>634</ele>
        <time>2024-09-21T12:56:08Z</time>
      </trkpt>
      <trkpt lat="42.44055" lon="2.77897">
        <ele>634</ele>
        <time>2024-09-21T12:56:11Z</time>
      </trkpt>
      <trkpt lat="42.44052" lon="2.77895">
        <ele>631</ele>
        <time>2024-09-21T12:56:15Z</time>
      </trkpt>
      <trkpt lat="42.44049" lon="2.77894">
        <ele>631</ele>
        <time>2024-09-21T12:56:19Z</time>
      </trkpt>
      <trkpt lat="42.44046" lon="2.77895">
        <ele>630</ele>
        <time>2024-09-21T12:56:24Z</time>
      </trkpt>
      <trkpt lat="42.44043" lon="2.77896">
        <ele>630</ele>
        <time>2024-09-21T12:56:28Z</time>
      </trkpt>
      <trkpt lat="42.44042" lon="2.779">
        <ele>630</ele>
        <time>2024-09-21T12:56:31Z</time>
      </trkpt>
      <trkpt lat="42.44042" lon="2.77904">
        <ele>630</ele>
        <time>2024-09-21T12:56:34Z</time>
      </trkpt>
      <trkpt lat="42.44043" lon="2.77907">
        <ele>628</ele>
        <time>2024-09-21T12:56:37Z</time>
      </trkpt>
      <trkpt lat="42.44046" lon="2.7791">
        <ele>628</ele>
        <time>2024-09-21T12:56:41Z</time>
      </trkpt>
      <trkpt lat="42.44048" lon="2.77913">
        <ele>628</ele>
        <time>2024-09-21T12:56:44Z</time>
      </trkpt>
      <trkpt lat="42.4405" lon="2.77916">
        <ele>628</ele>
        <time>2024-09-21T12:56:46Z</time>
      </trkpt>
      <trkpt lat="42.44052" lon="2.77919">
        <ele>629</ele>
        <time>2024-09-21T12:56:49Z</time>
      </trkpt>
      <trkpt lat="42.44053" lon="2.77923">
        <ele>627</ele>
        <time>2024-09-21T12:56:52Z</time>
      </trkpt>
      <trkpt lat="42.44055" lon="2.77927">
        <ele>627</ele>
        <time>2024-09-21T12:56:55Z</time>
      </trkpt>
      <trkpt lat="42.44056" lon="2.7793">
        <ele>626</ele>
        <time>2024-09-21T12:56:57Z</time>
      </trkpt>
      <trkpt lat="42.44058" lon="2.77934">
        <ele>626</ele>
        <time>2024-09-21T12:56:59Z</time>
      </trkpt>
      <trkpt lat="42.44059" lon="2.77938">
        <ele>626</ele>
        <time>2024-09-21T12:57:01Z</time>
      </trkpt>
      <trkpt lat="42.44059" lon="2.77942">
        <ele>627</ele>
        <time>2024-09-21T12:57:03Z</time>
      </trkpt>
      <trkpt lat="42.44058" lon="2.77942">
        <ele>624</ele>
        <time>2024-09-21T12:57:11Z</time>
      </trkpt>
      <trkpt lat="42.44059" lon="2.77942">
        <ele>625</ele>
        <time>2024-09-21T12:57:17Z</time>
      </trkpt>
      <trkpt lat="42.44061" lon="2.77944">
        <ele>625</ele>
        <time>2024-09-21T12:57:21Z</time>
      </trkpt>
      <trkpt lat="42.4406" lon="2.77945">
        <ele>625</ele>
        <time>2024-09-21T12:57:31Z</time>
      </trkpt>
      <trkpt lat="42.44058" lon="2.77942">
        <ele>625</ele>
        <time>2024-09-21T12:57:34Z</time>
      </trkpt>
      <trkpt lat="42.44056" lon="2.77939">
        <ele>625</ele>
        <time>2024-09-21T12:57:37Z</time>
      </trkpt>
      <trkpt lat="42.44054" lon="2.77935">
        <ele>624</ele>
        <time>2024-09-21T12:57:39Z</time>
      </trkpt>
      <trkpt lat="42.44051" lon="2.77932">
        <ele>625</ele>
        <time>2024-09-21T12:57:42Z</time>
      </trkpt>
      <trkpt lat="42.44049" lon="2.77929">
        <ele>625</ele>
        <time>2024-09-21T12:57:44Z</time>
      </trkpt>
      <trkpt lat="42.44047" lon="2.77926">
        <ele>624</ele>
        <time>2024-09-21T12:57:47Z</time>
      </trkpt>
      <trkpt lat="42.44044" lon="2.77922">
        <ele>623</ele>
        <time>2024-09-21T12:57:50Z</time>
      </trkpt>
      <trkpt lat="42.44041" lon="2.77918">
        <ele>623</ele>
        <time>2024-09-21T12:57:52Z</time>
      </trkpt>
      <trkpt lat="42.44039" lon="2.77916">
        <ele>623</ele>
        <time>2024-09-21T12:57:54Z</time>
      </trkpt>
      <trkpt lat="42.44037" lon="2.77912">
        <ele>623</ele>
        <time>2024-09-21T12:57:56Z</time>
      </trkpt>
      <trkpt lat="42.44036" lon="2.77908">
        <ele>623</ele>
        <time>2024-09-21T12:57:58Z</time>
      </trkpt>
      <trkpt lat="42.44033" lon="2.77905">
        <ele>624</ele>
        <time>2024-09-21T12:58:01Z</time>
      </trkpt>
      <trkpt lat="42.4403" lon="2.77902">
        <ele>624</ele>
        <time>2024-09-21T12:58:03Z</time>
      </trkpt>
      <trkpt lat="42.44028" lon="2.77899">
        <ele>623</ele>
        <time>2024-09-21T12:58:06Z</time>
      </trkpt>
      <trkpt lat="42.44025" lon="2.77896">
        <ele>622</ele>
        <time>2024-09-21T12:58:10Z</time>
      </trkpt>
      <trkpt lat="42.44022" lon="2.77893">
        <ele>622</ele>
        <time>2024-09-21T12:58:13Z</time>
      </trkpt>
      <trkpt lat="42.44019" lon="2.77889">
        <ele>623</ele>
        <time>2024-09-21T12:58:15Z</time>
      </trkpt>
      <trkpt lat="42.44016" lon="2.77887">
        <ele>624</ele>
        <time>2024-09-21T12:58:17Z</time>
      </trkpt>
      <trkpt lat="42.44014" lon="2.77884">
        <ele>624</ele>
        <time>2024-09-21T12:58:19Z</time>
      </trkpt>
      <trkpt lat="42.44012" lon="2.77881">
        <ele>623</ele>
        <time>2024-09-21T12:58:21Z</time>
      </trkpt>
      <trkpt lat="42.4401" lon="2.77878">
        <ele>623</ele>
        <time>2024-09-21T12:58:24Z</time>
      </trkpt>
      <trkpt lat="42.44008" lon="2.77874">
        <ele>625</ele>
        <time>2024-09-21T12:58:27Z</time>
      </trkpt>
      <trkpt lat="42.44006" lon="2.77872">
        <ele>624</ele>
        <time>2024-09-21T12:58:29Z</time>
      </trkpt>
      <trkpt lat="42.44003" lon="2.77869">
        <ele>624</ele>
        <time>2024-09-21T12:58:32Z</time>
      </trkpt>
      <trkpt lat="42.44001" lon="2.77866">
        <ele>623</ele>
        <time>2024-09-21T12:58:35Z</time>
      </trkpt>
      <trkpt lat="42.43999" lon="2.77863">
        <ele>622</ele>
        <time>2024-09-21T12:58:37Z</time>
      </trkpt>
      <trkpt lat="42.43996" lon="2.77861">
        <ele>622</ele>
        <time>2024-09-21T12:58:39Z</time>
      </trkpt>
      <trkpt lat="42.43994" lon="2.77858">
        <ele>622</ele>
        <time>2024-09-21T12:58:41Z</time>
      </trkpt>
      <trkpt lat="42.43992" lon="2.77855">
        <ele>623</ele>
        <time>2024-09-21T12:58:44Z</time>
      </trkpt>
      <trkpt lat="42.4399" lon="2.77853">
        <ele>622</ele>
        <time>2024-09-21T12:58:46Z</time>
      </trkpt>
      <trkpt lat="42.43986" lon="2.77851">
        <ele>621</ele>
        <time>2024-09-21T12:58:48Z</time>
      </trkpt>
      <trkpt lat="42.43983" lon="2.7785">
        <ele>622</ele>
        <time>2024-09-21T12:58:51Z</time>
      </trkpt>
      <trkpt lat="42.4398" lon="2.77847">
        <ele>621</ele>
        <time>2024-09-21T12:58:53Z</time>
      </trkpt>
      <trkpt lat="42.43979" lon="2.77843">
        <ele>622</ele>
        <time>2024-09-21T12:58:55Z</time>
      </trkpt>
      <trkpt lat="42.43976" lon="2.77841">
        <ele>620</ele>
        <time>2024-09-21T12:58:57Z</time>
      </trkpt>
      <trkpt lat="42.43974" lon="2.77838">
        <ele>622</ele>
        <time>2024-09-21T12:58:59Z</time>
      </trkpt>
      <trkpt lat="42.43971" lon="2.77836">
        <ele>622</ele>
        <time>2024-09-21T12:59:01Z</time>
      </trkpt>
      <trkpt lat="42.43969" lon="2.77833">
        <ele>620</ele>
        <time>2024-09-21T12:59:05Z</time>
      </trkpt>
      <trkpt lat="42.43967" lon="2.77831">
        <ele>621</ele>
        <time>2024-09-21T12:59:07Z</time>
      </trkpt>
      <trkpt lat="42.43964" lon="2.77829">
        <ele>621</ele>
        <time>2024-09-21T12:59:09Z</time>
      </trkpt>
      <trkpt lat="42.43962" lon="2.77826">
        <ele>623</ele>
        <time>2024-09-21T12:59:11Z</time>
      </trkpt>
      <trkpt lat="42.4396" lon="2.77823">
        <ele>622</ele>
        <time>2024-09-21T12:59:14Z</time>
      </trkpt>
      <trkpt lat="42.43958" lon="2.7782">
        <ele>623</ele>
        <time>2024-09-21T12:59:16Z</time>
      </trkpt>
      <trkpt lat="42.43955" lon="2.77818">
        <ele>623</ele>
        <time>2024-09-21T12:59:18Z</time>
      </trkpt>
      <trkpt lat="42.43953" lon="2.77816">
        <ele>623</ele>
        <time>2024-09-21T12:59:20Z</time>
      </trkpt>
      <trkpt lat="42.4395" lon="2.77814">
        <ele>622</ele>
        <time>2024-09-21T12:59:22Z</time>
      </trkpt>
      <trkpt lat="42.43947" lon="2.77813">
        <ele>622</ele>
        <time>2024-09-21T12:59:24Z</time>
      </trkpt>
      <trkpt lat="42.43945" lon="2.77811">
        <ele>621</ele>
        <time>2024-09-21T12:59:27Z</time>
      </trkpt>
      <trkpt lat="42.43943" lon="2.77808">
        <ele>621</ele>
        <time>2024-09-21T12:59:29Z</time>
      </trkpt>
      <trkpt lat="42.4394" lon="2.77806">
        <ele>620</ele>
        <time>2024-09-21T12:59:32Z</time>
      </trkpt>
      <trkpt lat="42.43936" lon="2.77803">
        <ele>621</ele>
        <time>2024-09-21T12:59:35Z</time>
      </trkpt>
      <trkpt lat="42.43933" lon="2.77801">
        <ele>620</ele>
        <time>2024-09-21T12:59:38Z</time>
      </trkpt>
      <trkpt lat="42.4393" lon="2.77798">
        <ele>619</ele>
        <time>2024-09-21T12:59:40Z</time>
      </trkpt>
      <trkpt lat="42.43927" lon="2.77797">
        <ele>619</ele>
        <time>2024-09-21T12:59:42Z</time>
      </trkpt>
      <trkpt lat="42.43924" lon="2.77795">
        <ele>620</ele>
        <time>2024-09-21T12:59:45Z</time>
      </trkpt>
      <trkpt lat="42.43921" lon="2.77793">
        <ele>620</ele>
        <time>2024-09-21T12:59:46Z</time>
      </trkpt>
      <trkpt lat="42.43918" lon="2.77793">
        <ele>619</ele>
        <time>2024-09-21T12:59:47Z</time>
      </trkpt>
      <trkpt lat="42.43915" lon="2.77791">
        <ele>618</ele>
        <time>2024-09-21T12:59:49Z</time>
      </trkpt>
      <trkpt lat="42.43912" lon="2.7779">
        <ele>621</ele>
        <time>2024-09-21T12:59:51Z</time>
      </trkpt>
      <trkpt lat="42.43908" lon="2.77791">
        <ele>621</ele>
        <time>2024-09-21T12:59:53Z</time>
      </trkpt>
      <trkpt lat="42.43905" lon="2.77792">
        <ele>620</ele>
        <time>2024-09-21T12:59:55Z</time>
      </trkpt>
      <trkpt lat="42.43901" lon="2.77794">
        <ele>621</ele>
        <time>2024-09-21T12:59:57Z</time>
      </trkpt>
      <trkpt lat="42.43898" lon="2.77796">
        <ele>620</ele>
        <time>2024-09-21T12:59:59Z</time>
      </trkpt>
      <trkpt lat="42.43896" lon="2.77799">
        <ele>618</ele>
        <time>2024-09-21T13:00:02Z</time>
      </trkpt>
      <trkpt lat="42.43893" lon="2.77802">
        <ele>619</ele>
        <time>2024-09-21T13:00:05Z</time>
      </trkpt>
      <trkpt lat="42.43892" lon="2.77806">
        <ele>618</ele>
        <time>2024-09-21T13:00:06Z</time>
      </trkpt>
      <trkpt lat="42.43891" lon="2.7781">
        <ele>619</ele>
        <time>2024-09-21T13:00:08Z</time>
      </trkpt>
      <trkpt lat="42.4389" lon="2.77814">
        <ele>618</ele>
        <time>2024-09-21T13:00:11Z</time>
      </trkpt>
      <trkpt lat="42.43889" lon="2.77818">
        <ele>618</ele>
        <time>2024-09-21T13:00:13Z</time>
      </trkpt>
      <trkpt lat="42.43887" lon="2.77823">
        <ele>617</ele>
        <time>2024-09-21T13:00:16Z</time>
      </trkpt>
      <trkpt lat="42.43886" lon="2.77827">
        <ele>615</ele>
        <time>2024-09-21T13:00:19Z</time>
      </trkpt>
      <trkpt lat="42.43884" lon="2.77831">
        <ele>614</ele>
        <time>2024-09-21T13:00:22Z</time>
      </trkpt>
      <trkpt lat="42.43882" lon="2.77834">
        <ele>614</ele>
        <time>2024-09-21T13:00:24Z</time>
      </trkpt>
      <trkpt lat="42.4388" lon="2.77838">
        <ele>617</ele>
        <time>2024-09-21T13:00:28Z</time>
      </trkpt>
      <trkpt lat="42.43878" lon="2.77842">
        <ele>617</ele>
        <time>2024-09-21T13:00:31Z</time>
      </trkpt>
      <trkpt lat="42.43876" lon="2.77845">
        <ele>617</ele>
        <time>2024-09-21T13:00:34Z</time>
      </trkpt>
      <trkpt lat="42.43873" lon="2.77847">
        <ele>617</ele>
        <time>2024-09-21T13:00:37Z</time>
      </trkpt>
      <trkpt lat="42.4387" lon="2.77849">
        <ele>618</ele>
        <time>2024-09-21T13:00:40Z</time>
      </trkpt>
      <trkpt lat="42.43867" lon="2.77849">
        <ele>617</ele>
        <time>2024-09-21T13:00:42Z</time>
      </trkpt>
      <trkpt lat="42.43864" lon="2.77849">
        <ele>617</ele>
        <time>2024-09-21T13:00:44Z</time>
      </trkpt>
      <trkpt lat="42.43861" lon="2.77848">
        <ele>616</ele>
        <time>2024-09-21T13:00:46Z</time>
      </trkpt>
      <trkpt lat="42.43858" lon="2.77847">
        <ele>616</ele>
        <time>2024-09-21T13:00:48Z</time>
      </trkpt>
      <trkpt lat="42.43856" lon="2.77845">
        <ele>616</ele>
        <time>2024-09-21T13:00:50Z</time>
      </trkpt>
      <trkpt lat="42.43853" lon="2.77843">
        <ele>616</ele>
        <time>2024-09-21T13:00:52Z</time>
      </trkpt>
      <trkpt lat="42.43851" lon="2.77841">
        <ele>616</ele>
        <time>2024-09-21T13:00:55Z</time>
      </trkpt>
      <trkpt lat="42.43848" lon="2.77838">
        <ele>615</ele>
        <time>2024-09-21T13:00:58Z</time>
      </trkpt>
      <trkpt lat="42.43845" lon="2.77836">
        <ele>614</ele>
        <time>2024-09-21T13:01:00Z</time>
      </trkpt>
      <trkpt lat="42.43843" lon="2.77833">
        <ele>613</ele>
        <time>2024-09-21T13:01:02Z</time>
      </trkpt>
      <trkpt lat="42.4384" lon="2.77831">
        <ele>614</ele>
        <time>2024-09-21T13:01:04Z</time>
      </trkpt>
      <trkpt lat="42.43838" lon="2.77828">
        <ele>612</ele>
        <time>2024-09-21T13:01:06Z</time>
      </trkpt>
      <trkpt lat="42.43836" lon="2.77825">
        <ele>613</ele>
        <time>2024-09-21T13:01:08Z</time>
      </trkpt>
      <trkpt lat="42.43834" lon="2.77822">
        <ele>612</ele>
        <time>2024-09-21T13:01:11Z</time>
      </trkpt>
      <trkpt lat="42.43831" lon="2.77818">
        <ele>612</ele>
        <time>2024-09-21T13:01:14Z</time>
      </trkpt>
      <trkpt lat="42.43828" lon="2.77816">
        <ele>612</ele>
        <time>2024-09-21T13:01:16Z</time>
      </trkpt>
      <trkpt lat="42.43826" lon="2.77813">
        <ele>613</ele>
        <time>2024-09-21T13:01:18Z</time>
      </trkpt>
      <trkpt lat="42.43824" lon="2.77811">
        <ele>613</ele>
        <time>2024-09-21T13:01:21Z</time>
      </trkpt>
      <trkpt lat="42.43822" lon="2.77808">
        <ele>611</ele>
        <time>2024-09-21T13:01:23Z</time>
      </trkpt>
      <trkpt lat="42.4382" lon="2.77805">
        <ele>611</ele>
        <time>2024-09-21T13:01:26Z</time>
      </trkpt>
      <trkpt lat="42.43818" lon="2.77801">
        <ele>612</ele>
        <time>2024-09-21T13:01:29Z</time>
      </trkpt>
      <trkpt lat="42.43816" lon="2.77797">
        <ele>610</ele>
        <time>2024-09-21T13:01:32Z</time>
      </trkpt>
      <trkpt lat="42.43815" lon="2.77794">
        <ele>610</ele>
        <time>2024-09-21T13:01:35Z</time>
      </trkpt>
      <trkpt lat="42.43813" lon="2.7779">
        <ele>610</ele>
        <time>2024-09-21T13:01:37Z</time>
      </trkpt>
      <trkpt lat="42.43811" lon="2.77788">
        <ele>611</ele>
        <time>2024-09-21T13:01:39Z</time>
      </trkpt>
      <trkpt lat="42.43808" lon="2.77784">
        <ele>612</ele>
        <time>2024-09-21T13:01:42Z</time>
      </trkpt>
      <trkpt lat="42.43806" lon="2.77781">
        <ele>610</ele>
        <time>2024-09-21T13:01:45Z</time>
      </trkpt>
      <trkpt lat="42.43804" lon="2.77777">
        <ele>608</ele>
        <time>2024-09-21T13:01:50Z</time>
      </trkpt>
      <trkpt lat="42.43802" lon="2.77773">
        <ele>609</ele>
        <time>2024-09-21T13:01:53Z</time>
      </trkpt>
      <trkpt lat="42.438" lon="2.7777">
        <ele>609</ele>
        <time>2024-09-21T13:01:55Z</time>
      </trkpt>
      <trkpt lat="42.43798" lon="2.77766">
        <ele>610</ele>
        <time>2024-09-21T13:01:58Z</time>
      </trkpt>
      <trkpt lat="42.43796" lon="2.77763">
        <ele>611</ele>
        <time>2024-09-21T13:02:01Z</time>
      </trkpt>
      <trkpt lat="42.43795" lon="2.7776">
        <ele>609</ele>
        <time>2024-09-21T13:02:03Z</time>
      </trkpt>
      <trkpt lat="42.43793" lon="2.77756">
        <ele>610</ele>
        <time>2024-09-21T13:02:06Z</time>
      </trkpt>
      <trkpt lat="42.43791" lon="2.77752">
        <ele>610</ele>
        <time>2024-09-21T13:02:08Z</time>
      </trkpt>
      <trkpt lat="42.43788" lon="2.77749">
        <ele>610</ele>
        <time>2024-09-21T13:02:10Z</time>
      </trkpt>
      <trkpt lat="42.43786" lon="2.77745">
        <ele>609</ele>
        <time>2024-09-21T13:02:13Z</time>
      </trkpt>
      <trkpt lat="42.43784" lon="2.77742">
        <ele>610</ele>
        <time>2024-09-21T13:02:16Z</time>
      </trkpt>
      <trkpt lat="42.43782" lon="2.77739">
        <ele>610</ele>
        <time>2024-09-21T13:02:18Z</time>
      </trkpt>
      <trkpt lat="42.43779" lon="2.77736">
        <ele>610</ele>
        <time>2024-09-21T13:02:21Z</time>
      </trkpt>
      <trkpt lat="42.43777" lon="2.77733">
        <ele>607</ele>
        <time>2024-09-21T13:02:23Z</time>
      </trkpt>
      <trkpt lat="42.43775" lon="2.77729">
        <ele>608</ele>
        <time>2024-09-21T13:02:25Z</time>
      </trkpt>
      <trkpt lat="42.43773" lon="2.77726">
        <ele>608</ele>
        <time>2024-09-21T13:02:28Z</time>
      </trkpt>
      <trkpt lat="42.43771" lon="2.77722">
        <ele>606</ele>
        <time>2024-09-21T13:02:32Z</time>
      </trkpt>
      <trkpt lat="42.43769" lon="2.77718">
        <ele>606</ele>
        <time>2024-09-21T13:02:34Z</time>
      </trkpt>
      <trkpt lat="42.43767" lon="2.77713">
        <ele>606</ele>
        <time>2024-09-21T13:02:36Z</time>
      </trkpt>
      <trkpt lat="42.43765" lon="2.7771">
        <ele>606</ele>
        <time>2024-09-21T13:02:38Z</time>
      </trkpt>
      <trkpt lat="42.43763" lon="2.77706">
        <ele>604</ele>
        <time>2024-09-21T13:02:41Z</time>
      </trkpt>
      <trkpt lat="42.43761" lon="2.77702">
        <ele>605</ele>
        <time>2024-09-21T13:02:44Z</time>
      </trkpt>
      <trkpt lat="42.43759" lon="2.77698">
        <ele>604</ele>
        <time>2024-09-21T13:02:46Z</time>
      </trkpt>
      <trkpt lat="42.43758" lon="2.77694">
        <ele>604</ele>
        <time>2024-09-21T13:02:48Z</time>
      </trkpt>
      <trkpt lat="42.43756" lon="2.77691">
        <ele>603</ele>
        <time>2024-09-21T13:02:52Z</time>
      </trkpt>
      <trkpt lat="42.43754" lon="2.77687">
        <ele>603</ele>
        <time>2024-09-21T13:02:54Z</time>
      </trkpt>
      <trkpt lat="42.43752" lon="2.77684">
        <ele>603</ele>
        <time>2024-09-21T13:02:56Z</time>
      </trkpt>
      <trkpt lat="42.43751" lon="2.7768">
        <ele>603</ele>
        <time>2024-09-21T13:02:59Z</time>
      </trkpt>
      <trkpt lat="42.43749" lon="2.77676">
        <ele>602</ele>
        <time>2024-09-21T13:03:01Z</time>
      </trkpt>
      <trkpt lat="42.43748" lon="2.77673">
        <ele>603</ele>
        <time>2024-09-21T13:03:04Z</time>
      </trkpt>
      <trkpt lat="42.43746" lon="2.77669">
        <ele>601</ele>
        <time>2024-09-21T13:03:07Z</time>
      </trkpt>
      <trkpt lat="42.43744" lon="2.77666">
        <ele>602</ele>
        <time>2024-09-21T13:03:08Z</time>
      </trkpt>
      <trkpt lat="42.43742" lon="2.77664">
        <ele>602</ele>
        <time>2024-09-21T13:03:10Z</time>
      </trkpt>
      <trkpt lat="42.43739" lon="2.77662">
        <ele>601</ele>
        <time>2024-09-21T13:03:12Z</time>
      </trkpt>
      <trkpt lat="42.43737" lon="2.77659">
        <ele>601</ele>
        <time>2024-09-21T13:03:14Z</time>
      </trkpt>
      <trkpt lat="42.43736" lon="2.77654">
        <ele>600</ele>
        <time>2024-09-21T13:03:18Z</time>
      </trkpt>
      <trkpt lat="42.43734" lon="2.7765">
        <ele>601</ele>
        <time>2024-09-21T13:03:20Z</time>
      </trkpt>
      <trkpt lat="42.43731" lon="2.77647">
        <ele>601</ele>
        <time>2024-09-21T13:03:22Z</time>
      </trkpt>
      <trkpt lat="42.43729" lon="2.77644">
        <ele>602</ele>
        <time>2024-09-21T13:03:24Z</time>
      </trkpt>
      <trkpt lat="42.43727" lon="2.7764">
        <ele>601</ele>
        <time>2024-09-21T13:03:27Z</time>
      </trkpt>
      <trkpt lat="42.43725" lon="2.77637">
        <ele>603</ele>
        <time>2024-09-21T13:03:30Z</time>
      </trkpt>
      <trkpt lat="42.43722" lon="2.77634">
        <ele>602</ele>
        <time>2024-09-21T13:03:34Z</time>
      </trkpt>
      <trkpt lat="42.4372" lon="2.7763">
        <ele>603</ele>
        <time>2024-09-21T13:03:37Z</time>
      </trkpt>
      <trkpt lat="42.43718" lon="2.77626">
        <ele>603</ele>
        <time>2024-09-21T13:03:39Z</time>
      </trkpt>
      <trkpt lat="42.43715" lon="2.77622">
        <ele>604</ele>
        <time>2024-09-21T13:03:42Z</time>
      </trkpt>
      <trkpt lat="42.43713" lon="2.77618">
        <ele>603</ele>
        <time>2024-09-21T13:03:46Z</time>
      </trkpt>
      <trkpt lat="42.43711" lon="2.77614">
        <ele>603</ele>
        <time>2024-09-21T13:03:49Z</time>
      </trkpt>
      <trkpt lat="42.43709" lon="2.7761">
        <ele>602</ele>
        <time>2024-09-21T13:03:51Z</time>
      </trkpt>
      <trkpt lat="42.43707" lon="2.77607">
        <ele>601</ele>
        <time>2024-09-21T13:03:54Z</time>
      </trkpt>
      <trkpt lat="42.43705" lon="2.77603">
        <ele>601</ele>
        <time>2024-09-21T13:03:57Z</time>
      </trkpt>
      <trkpt lat="42.43703" lon="2.77599">
        <ele>601</ele>
        <time>2024-09-21T13:03:58Z</time>
      </trkpt>
      <trkpt lat="42.43701" lon="2.77596">
        <ele>600</ele>
        <time>2024-09-21T13:04:01Z</time>
      </trkpt>
      <trkpt lat="42.43701" lon="2.77592">
        <ele>600</ele>
        <time>2024-09-21T13:04:02Z</time>
      </trkpt>
      <trkpt lat="42.43699" lon="2.77589">
        <ele>601</ele>
        <time>2024-09-21T13:04:04Z</time>
      </trkpt>
      <trkpt lat="42.43698" lon="2.77585">
        <ele>599</ele>
        <time>2024-09-21T13:04:06Z</time>
      </trkpt>
      <trkpt lat="42.43697" lon="2.77581">
        <ele>598</ele>
        <time>2024-09-21T13:04:09Z</time>
      </trkpt>
      <trkpt lat="42.43695" lon="2.77577">
        <ele>598</ele>
        <time>2024-09-21T13:04:11Z</time>
      </trkpt>
      <trkpt lat="42.43695" lon="2.77573">
        <ele>597</ele>
        <time>2024-09-21T13:04:14Z</time>
      </trkpt>
      <trkpt lat="42.43694" lon="2.77568">
        <ele>596</ele>
        <time>2024-09-21T13:04:17Z</time>
      </trkpt>
      <trkpt lat="42.43694" lon="2.77564">
        <ele>595</ele>
        <time>2024-09-21T13:04:19Z</time>
      </trkpt>
      <trkpt lat="42.43693" lon="2.77561">
        <ele>594</ele>
        <time>2024-09-21T13:04:21Z</time>
      </trkpt>
      <trkpt lat="42.43692" lon="2.77556">
        <ele>593</ele>
        <time>2024-09-21T13:04:24Z</time>
      </trkpt>
      <trkpt lat="42.43692" lon="2.77551">
        <ele>593</ele>
        <time>2024-09-21T13:04:27Z</time>
      </trkpt>
      <trkpt lat="42.43692" lon="2.77546">
        <ele>592</ele>
        <time>2024-09-21T13:04:29Z</time>
      </trkpt>
      <trkpt lat="42.43691" lon="2.77542">
        <ele>592</ele>
        <time>2024-09-21T13:04:31Z</time>
      </trkpt>
      <trkpt lat="42.43691" lon="2.77538">
        <ele>590</ele>
        <time>2024-09-21T13:04:34Z</time>
      </trkpt>
      <trkpt lat="42.4369" lon="2.77534">
        <ele>591</ele>
        <time>2024-09-21T13:04:36Z</time>
      </trkpt>
      <trkpt lat="42.43689" lon="2.7753">
        <ele>590</ele>
        <time>2024-09-21T13:04:39Z</time>
      </trkpt>
      <trkpt lat="42.43688" lon="2.77527">
        <ele>590</ele>
        <time>2024-09-21T13:04:41Z</time>
      </trkpt>
      <trkpt lat="42.43688" lon="2.77523">
        <ele>591</ele>
        <time>2024-09-21T13:04:43Z</time>
      </trkpt>
      <trkpt lat="42.43688" lon="2.77519">
        <ele>590</ele>
        <time>2024-09-21T13:04:45Z</time>
      </trkpt>
      <trkpt lat="42.43687" lon="2.77514">
        <ele>590</ele>
        <time>2024-09-21T13:04:48Z</time>
      </trkpt>
      <trkpt lat="42.43687" lon="2.77508">
        <ele>590</ele>
        <time>2024-09-21T13:04:51Z</time>
      </trkpt>
      <trkpt lat="42.43686" lon="2.77503">
        <ele>592</ele>
        <time>2024-09-21T13:04:54Z</time>
      </trkpt>
      <trkpt lat="42.43685" lon="2.77498">
        <ele>591</ele>
        <time>2024-09-21T13:04:57Z</time>
      </trkpt>
      <trkpt lat="42.43685" lon="2.77493">
        <ele>591</ele>
        <time>2024-09-21T13:05:00Z</time>
      </trkpt>
      <trkpt lat="42.43684" lon="2.77489">
        <ele>591</ele>
        <time>2024-09-21T13:05:03Z</time>
      </trkpt>
      <trkpt lat="42.43684" lon="2.77485">
        <ele>592</ele>
        <time>2024-09-21T13:05:05Z</time>
      </trkpt>
      <trkpt lat="42.43684" lon="2.7748">
        <ele>591</ele>
        <time>2024-09-21T13:05:08Z</time>
      </trkpt>
      <trkpt lat="42.43683" lon="2.77476">
        <ele>591</ele>
        <time>2024-09-21T13:05:10Z</time>
      </trkpt>
      <trkpt lat="42.43682" lon="2.77472">
        <ele>592</ele>
        <time>2024-09-21T13:05:13Z</time>
      </trkpt>
      <trkpt lat="42.4368" lon="2.77468">
        <ele>591</ele>
        <time>2024-09-21T13:05:16Z</time>
      </trkpt>
      <trkpt lat="42.43677" lon="2.77465">
        <ele>592</ele>
        <time>2024-09-21T13:05:18Z</time>
      </trkpt>
      <trkpt lat="42.43673" lon="2.77464">
        <ele>594</ele>
        <time>2024-09-21T13:05:20Z</time>
      </trkpt>
      <trkpt lat="42.43669" lon="2.77464">
        <ele>595</ele>
        <time>2024-09-21T13:05:22Z</time>
      </trkpt>
      <trkpt lat="42.43666" lon="2.77465">
        <ele>597</ele>
        <time>2024-09-21T13:05:24Z</time>
      </trkpt>
      <trkpt lat="42.43663" lon="2.77466">
        <ele>597</ele>
        <time>2024-09-21T13:05:26Z</time>
      </trkpt>
      <trkpt lat="42.43661" lon="2.77469">
        <ele>597</ele>
        <time>2024-09-21T13:05:28Z</time>
      </trkpt>
      <trkpt lat="42.43659" lon="2.77472">
        <ele>597</ele>
        <time>2024-09-21T13:05:30Z</time>
      </trkpt>
      <trkpt lat="42.43658" lon="2.77476">
        <ele>597</ele>
        <time>2024-09-21T13:05:33Z</time>
      </trkpt>
      <trkpt lat="42.43657" lon="2.77481">
        <ele>597</ele>
        <time>2024-09-21T13:05:36Z</time>
      </trkpt>
      <trkpt lat="42.43657" lon="2.77486">
        <ele>597</ele>
        <time>2024-09-21T13:05:39Z</time>
      </trkpt>
      <trkpt lat="42.43656" lon="2.77491">
        <ele>596</ele>
        <time>2024-09-21T13:05:41Z</time>
      </trkpt>
      <trkpt lat="42.43656" lon="2.77495">
        <ele>597</ele>
        <time>2024-09-21T13:05:43Z</time>
      </trkpt>
      <trkpt lat="42.43655" lon="2.77499">
        <ele>596</ele>
        <time>2024-09-21T13:05:45Z</time>
      </trkpt>
      <trkpt lat="42.43655" lon="2.77503">
        <ele>597</ele>
        <time>2024-09-21T13:05:47Z</time>
      </trkpt>
      <trkpt lat="42.43655" lon="2.77507">
        <ele>597</ele>
        <time>2024-09-21T13:05:49Z</time>
      </trkpt>
      <trkpt lat="42.43654" lon="2.77511">
        <ele>598</ele>
        <time>2024-09-21T13:05:51Z</time>
      </trkpt>
      <trkpt lat="42.43652" lon="2.77514">
        <ele>597</ele>
        <time>2024-09-21T13:05:53Z</time>
      </trkpt>
      <trkpt lat="42.43652" lon="2.77518">
        <ele>597</ele>
        <time>2024-09-21T13:05:55Z</time>
      </trkpt>
      <trkpt lat="42.43652" lon="2.77522">
        <ele>599</ele>
        <time>2024-09-21T13:05:57Z</time>
      </trkpt>
      <trkpt lat="42.43651" lon="2.77527">
        <ele>599</ele>
        <time>2024-09-21T13:06:00Z</time>
      </trkpt>
      <trkpt lat="42.43651" lon="2.77531">
        <ele>599</ele>
        <time>2024-09-21T13:06:03Z</time>
      </trkpt>
      <trkpt lat="42.4365" lon="2.77535">
        <ele>599</ele>
        <time>2024-09-21T13:06:04Z</time>
      </trkpt>
      <trkpt lat="42.43649" lon="2.77538">
        <ele>599</ele>
        <time>2024-09-21T13:06:06Z</time>
      </trkpt>
      <trkpt lat="42.43647" lon="2.77542">
        <ele>600</ele>
        <time>2024-09-21T13:06:09Z</time>
      </trkpt>
      <trkpt lat="42.43645" lon="2.77546">
        <ele>599</ele>
        <time>2024-09-21T13:06:11Z</time>
      </trkpt>
      <trkpt lat="42.43643" lon="2.7755">
        <ele>598</ele>
        <time>2024-09-21T13:06:14Z</time>
      </trkpt>
      <trkpt lat="42.43643" lon="2.77554">
        <ele>597</ele>
        <time>2024-09-21T13:06:16Z</time>
      </trkpt>
      <trkpt lat="42.43643" lon="2.77558">
        <ele>598</ele>
        <time>2024-09-21T13:06:18Z</time>
      </trkpt>
      <trkpt lat="42.43642" lon="2.77563">
        <ele>598</ele>
        <time>2024-09-21T13:06:21Z</time>
      </trkpt>
      <trkpt lat="42.43641" lon="2.77568">
        <ele>598</ele>
        <time>2024-09-21T13:06:24Z</time>
      </trkpt>
      <trkpt lat="42.43639" lon="2.77573">
        <ele>597</ele>
        <time>2024-09-21T13:06:27Z</time>
      </trkpt>
      <trkpt lat="42.43638" lon="2.77577">
        <ele>597</ele>
        <time>2024-09-21T13:06:30Z</time>
      </trkpt>
      <trkpt lat="42.43637" lon="2.77581">
        <ele>597</ele>
        <time>2024-09-21T13:06:32Z</time>
      </trkpt>
      <trkpt lat="42.43636" lon="2.77585">
        <ele>597</ele>
        <time>2024-09-21T13:06:35Z</time>
      </trkpt>
      <trkpt lat="42.43634" lon="2.7759">
        <ele>597</ele>
        <time>2024-09-21T13:06:38Z</time>
      </trkpt>
      <trkpt lat="42.43633" lon="2.77593">
        <ele>597</ele>
        <time>2024-09-21T13:06:40Z</time>
      </trkpt>
      <trkpt lat="42.43631" lon="2.77597">
        <ele>596</ele>
        <time>2024-09-21T13:06:42Z</time>
      </trkpt>
      <trkpt lat="42.43631" lon="2.77602">
        <ele>597</ele>
        <time>2024-09-21T13:06:44Z</time>
      </trkpt>
      <trkpt lat="42.43631" lon="2.77607">
        <ele>597</ele>
        <time>2024-09-21T13:06:47Z</time>
      </trkpt>
      <trkpt lat="42.43631" lon="2.77611">
        <ele>597</ele>
        <time>2024-09-21T13:06:49Z</time>
      </trkpt>
      <trkpt lat="42.43631" lon="2.77616">
        <ele>597</ele>
        <time>2024-09-21T13:06:52Z</time>
      </trkpt>
      <trkpt lat="42.43632" lon="2.77621">
        <ele>598</ele>
        <time>2024-09-21T13:06:55Z</time>
      </trkpt>
      <trkpt lat="42.43633" lon="2.77625">
        <ele>598</ele>
        <time>2024-09-21T13:06:58Z</time>
      </trkpt>
      <trkpt lat="42.43635" lon="2.7763">
        <ele>598</ele>
        <time>2024-09-21T13:07:01Z</time>
      </trkpt>
      <trkpt lat="42.43637" lon="2.77634">
        <ele>598</ele>
        <time>2024-09-21T13:07:03Z</time>
      </trkpt>
      <trkpt lat="42.43638" lon="2.77639">
        <ele>598</ele>
        <time>2024-09-21T13:07:06Z</time>
      </trkpt>
      <trkpt lat="42.43639" lon="2.77644">
        <ele>597</ele>
        <time>2024-09-21T13:07:09Z</time>
      </trkpt>
      <trkpt lat="42.43639" lon="2.77649">
        <ele>597</ele>
        <time>2024-09-21T13:07:12Z</time>
      </trkpt>
      <trkpt lat="42.43639" lon="2.77655">
        <ele>597</ele>
        <time>2024-09-21T13:07:16Z</time>
      </trkpt>
      <trkpt lat="42.43638" lon="2.77659">
        <ele>598</ele>
        <time>2024-09-21T13:07:18Z</time>
      </trkpt>
      <trkpt lat="42.43637" lon="2.77664">
        <ele>597</ele>
        <time>2024-09-21T13:07:21Z</time>
      </trkpt>
      <trkpt lat="42.43636" lon="2.77668">
        <ele>598</ele>
        <time>2024-09-21T13:07:24Z</time>
      </trkpt>
      <trkpt lat="42.43636" lon="2.77672">
        <ele>598</ele>
        <time>2024-09-21T13:07:26Z</time>
      </trkpt>
      <trkpt lat="42.43636" lon="2.77676">
        <ele>596</ele>
        <time>2024-09-21T13:07:29Z</time>
      </trkpt>
      <trkpt lat="42.43636" lon="2.7768">
        <ele>597</ele>
        <time>2024-09-21T13:07:31Z</time>
      </trkpt>
      <trkpt lat="42.43636" lon="2.77684">
        <ele>596</ele>
        <time>2024-09-21T13:07:33Z</time>
      </trkpt>
      <trkpt lat="42.43636" lon="2.77687">
        <ele>596</ele>
        <time>2024-09-21T13:07:36Z</time>
      </trkpt>
      <trkpt lat="42.43636" lon="2.77691">
        <ele>596</ele>
        <time>2024-09-21T13:07:39Z</time>
      </trkpt>
      <trkpt lat="42.43637" lon="2.77696">
        <ele>598</ele>
        <time>2024-09-21T13:07:42Z</time>
      </trkpt>
      <trkpt lat="42.43636" lon="2.77701">
        <ele>598</ele>
        <time>2024-09-21T13:07:45Z</time>
      </trkpt>
      <trkpt lat="42.43635" lon="2.77706">
        <ele>597</ele>
        <time>2024-09-21T13:07:48Z</time>
      </trkpt>
      <trkpt lat="42.43635" lon="2.77711">
        <ele>597</ele>
        <time>2024-09-21T13:07:50Z</time>
      </trkpt>
      <trkpt lat="42.43635" lon="2.77716">
        <ele>597</ele>
        <time>2024-09-21T13:07:53Z</time>
      </trkpt>
      <trkpt lat="42.43635" lon="2.7772">
        <ele>596</ele>
        <time>2024-09-21T13:07:56Z</time>
      </trkpt>
      <trkpt lat="42.43636" lon="2.77725">
        <ele>597</ele>
        <time>2024-09-21T13:07:59Z</time>
      </trkpt>
      <trkpt lat="42.43636" lon="2.77731">
        <ele>597</ele>
        <time>2024-09-21T13:08:02Z</time>
      </trkpt>
      <trkpt lat="42.43636" lon="2.77736">
        <ele>598</ele>
        <time>2024-09-21T13:08:05Z</time>
      </trkpt>
      <trkpt lat="42.43637" lon="2.7774">
        <ele>599</ele>
        <time>2024-09-21T13:08:07Z</time>
      </trkpt>
      <trkpt lat="42.43636" lon="2.77745">
        <ele>598</ele>
        <time>2024-09-21T13:08:10Z</time>
      </trkpt>
      <trkpt lat="42.43636" lon="2.77749">
        <ele>598</ele>
        <time>2024-09-21T13:08:11Z</time>
      </trkpt>
      <trkpt lat="42.43635" lon="2.77753">
        <ele>598</ele>
        <time>2024-09-21T13:08:14Z</time>
      </trkpt>
      <trkpt lat="42.43635" lon="2.77758">
        <ele>598</ele>
        <time>2024-09-21T13:08:16Z</time>
      </trkpt>
      <trkpt lat="42.43634" lon="2.77762">
        <ele>598</ele>
        <time>2024-09-21T13:08:19Z</time>
      </trkpt>
      <trkpt lat="42.43632" lon="2.77766">
        <ele>598</ele>
        <time>2024-09-21T13:08:22Z</time>
      </trkpt>
      <trkpt lat="42.4363" lon="2.77769">
        <ele>599</ele>
        <time>2024-09-21T13:08:25Z</time>
      </trkpt>
      <trkpt lat="42.43628" lon="2.77773">
        <ele>599</ele>
        <time>2024-09-21T13:08:28Z</time>
      </trkpt>
      <trkpt lat="42.43625" lon="2.77776">
        <ele>599</ele>
        <time>2024-09-21T13:08:31Z</time>
      </trkpt>
      <trkpt lat="42.43622" lon="2.77779">
        <ele>599</ele>
        <time>2024-09-21T13:08:34Z</time>
      </trkpt>
      <trkpt lat="42.43619" lon="2.77784">
        <ele>599</ele>
        <time>2024-09-21T13:08:37Z</time>
      </trkpt>
      <trkpt lat="42.43618" lon="2.77788">
        <ele>599</ele>
        <time>2024-09-21T13:08:39Z</time>
      </trkpt>
      <trkpt lat="42.43617" lon="2.77792">
        <ele>600</ele>
        <time>2024-09-21T13:08:41Z</time>
      </trkpt>
      <trkpt lat="42.43617" lon="2.77796">
        <ele>599</ele>
        <time>2024-09-21T13:08:43Z</time>
      </trkpt>
      <trkpt lat="42.43617" lon="2.778">
        <ele>599</ele>
        <time>2024-09-21T13:08:45Z</time>
      </trkpt>
      <trkpt lat="42.43617" lon="2.77805">
        <ele>599</ele>
        <time>2024-09-21T13:08:47Z</time>
      </trkpt>
      <trkpt lat="42.43617" lon="2.77809">
        <ele>599</ele>
        <time>2024-09-21T13:08:50Z</time>
      </trkpt>
      <trkpt lat="42.43617" lon="2.77813">
        <ele>599</ele>
        <time>2024-09-21T13:08:52Z</time>
      </trkpt>
      <trkpt lat="42.43618" lon="2.77816">
        <ele>599</ele>
        <time>2024-09-21T13:08:54Z</time>
      </trkpt>
      <trkpt lat="42.4362" lon="2.7782">
        <ele>598</ele>
        <time>2024-09-21T13:08:56Z</time>
      </trkpt>
      <trkpt lat="42.43623" lon="2.77824">
        <ele>598</ele>
        <time>2024-09-21T13:08:58Z</time>
      </trkpt>
      <trkpt lat="42.43624" lon="2.77827">
        <ele>598</ele>
        <time>2024-09-21T13:09:01Z</time>
      </trkpt>
      <trkpt lat="42.43626" lon="2.77831">
        <ele>598</ele>
        <time>2024-09-21T13:09:03Z</time>
      </trkpt>
      <trkpt lat="42.43628" lon="2.77835">
        <ele>599</ele>
        <time>2024-09-21T13:09:06Z</time>
      </trkpt>
      <trkpt lat="42.4363" lon="2.77838">
        <ele>598</ele>
        <time>2024-09-21T13:09:09Z</time>
      </trkpt>
      <trkpt lat="42.43633" lon="2.77842">
        <ele>598</ele>
        <time>2024-09-21T13:09:12Z</time>
      </trkpt>
      <trkpt lat="42.43635" lon="2.77846">
        <ele>599</ele>
        <time>2024-09-21T13:09:14Z</time>
      </trkpt>
      <trkpt lat="42.43637" lon="2.77849">
        <ele>599</ele>
        <time>2024-09-21T13:09:17Z</time>
      </trkpt>
      <trkpt lat="42.43639" lon="2.77852">
        <ele>600</ele>
        <time>2024-09-21T13:09:19Z</time>
      </trkpt>
      <trkpt lat="42.43642" lon="2.77855">
        <ele>600</ele>
        <time>2024-09-21T13:09:22Z</time>
      </trkpt>
      <trkpt lat="42.43644" lon="2.77859">
        <ele>600</ele>
        <time>2024-09-21T13:09:25Z</time>
      </trkpt>
      <trkpt lat="42.43646" lon="2.77863">
        <ele>599</ele>
        <time>2024-09-21T13:09:28Z</time>
      </trkpt>
      <trkpt lat="42.43647" lon="2.77868">
        <ele>600</ele>
        <time>2024-09-21T13:09:31Z</time>
      </trkpt>
      <trkpt lat="42.43648" lon="2.77872">
        <ele>600</ele>
        <time>2024-09-21T13:09:34Z</time>
      </trkpt>
      <trkpt lat="42.43649" lon="2.77876">
        <ele>600</ele>
        <time>2024-09-21T13:09:36Z</time>
      </trkpt>
      <trkpt lat="42.4365" lon="2.77882">
        <ele>601</ele>
        <time>2024-09-21T13:09:40Z</time>
      </trkpt>
      <trkpt lat="42.4365" lon="2.77887">
        <ele>601</ele>
        <time>2024-09-21T13:09:44Z</time>
      </trkpt>
      <trkpt lat="42.4365" lon="2.77892">
        <ele>602</ele>
        <time>2024-09-21T13:09:47Z</time>
      </trkpt>
      <trkpt lat="42.43651" lon="2.77897">
        <ele>601</ele>
        <time>2024-09-21T13:09:50Z</time>
      </trkpt>
      <trkpt lat="42.43651" lon="2.77901">
        <ele>601</ele>
        <time>2024-09-21T13:09:53Z</time>
      </trkpt>
      <trkpt lat="42.43651" lon="2.77906">
        <ele>601</ele>
        <time>2024-09-21T13:09:56Z</time>
      </trkpt>
      <trkpt lat="42.43651" lon="2.7791">
        <ele>602</ele>
        <time>2024-09-21T13:09:59Z</time>
      </trkpt>
      <trkpt lat="42.43651" lon="2.77914">
        <ele>602</ele>
        <time>2024-09-21T13:10:01Z</time>
      </trkpt>
      <trkpt lat="42.4365" lon="2.77919">
        <ele>603</ele>
        <time>2024-09-21T13:10:04Z</time>
      </trkpt>
      <trkpt lat="42.4365" lon="2.77924">
        <ele>603</ele>
        <time>2024-09-21T13:10:07Z</time>
      </trkpt>
      <trkpt lat="42.4365" lon="2.77929">
        <ele>603</ele>
        <time>2024-09-21T13:10:10Z</time>
      </trkpt>
      <trkpt lat="42.43649" lon="2.77933">
        <ele>603</ele>
        <time>2024-09-21T13:10:13Z</time>
      </trkpt>
      <trkpt lat="42.43649" lon="2.77937">
        <ele>604</ele>
        <time>2024-09-21T13:10:15Z</time>
      </trkpt>
      <trkpt lat="42.43648" lon="2.77941">
        <ele>603</ele>
        <time>2024-09-21T13:10:16Z</time>
      </trkpt>
      <trkpt lat="42.43648" lon="2.77946">
        <ele>604</ele>
        <time>2024-09-21T13:10:19Z</time>
      </trkpt>
      <trkpt lat="42.43648" lon="2.77951">
        <ele>604</ele>
        <time>2024-09-21T13:10:22Z</time>
      </trkpt>
      <trkpt lat="42.43647" lon="2.77956">
        <ele>606</ele>
        <time>2024-09-21T13:10:25Z</time>
      </trkpt>
      <trkpt lat="42.43647" lon="2.77961">
        <ele>605</ele>
        <time>2024-09-21T13:10:28Z</time>
      </trkpt>
      <trkpt lat="42.43646" lon="2.77966">
        <ele>606</ele>
        <time>2024-09-21T13:10:31Z</time>
      </trkpt>
      <trkpt lat="42.43646" lon="2.7797">
        <ele>606</ele>
        <time>2024-09-21T13:10:33Z</time>
      </trkpt>
      <trkpt lat="42.43645" lon="2.77974">
        <ele>606</ele>
        <time>2024-09-21T13:10:36Z</time>
      </trkpt>
      <trkpt lat="42.43645" lon="2.77978">
        <ele>607</ele>
        <time>2024-09-21T13:10:39Z</time>
      </trkpt>
      <trkpt lat="42.43643" lon="2.77982">
        <ele>607</ele>
        <time>2024-09-21T13:10:41Z</time>
      </trkpt>
      <trkpt lat="42.43642" lon="2.77986">
        <ele>607</ele>
        <time>2024-09-21T13:10:44Z</time>
      </trkpt>
      <trkpt lat="42.43639" lon="2.7799">
        <ele>609</ele>
        <time>2024-09-21T13:10:47Z</time>
      </trkpt>
      <trkpt lat="42.43637" lon="2.77994">
        <ele>608</ele>
        <time>2024-09-21T13:10:50Z</time>
      </trkpt>
      <trkpt lat="42.43635" lon="2.77997">
        <ele>609</ele>
        <time>2024-09-21T13:10:53Z</time>
      </trkpt>
      <trkpt lat="42.43633" lon="2.78001">
        <ele>609</ele>
        <time>2024-09-21T13:10:56Z</time>
      </trkpt>
      <trkpt lat="42.43631" lon="2.78004">
        <ele>609</ele>
        <time>2024-09-21T13:10:59Z</time>
      </trkpt>
      <trkpt lat="42.43629" lon="2.78007">
        <ele>610</ele>
        <time>2024-09-21T13:11:00Z</time>
      </trkpt>
      <trkpt lat="42.43626" lon="2.78009">
        <ele>610</ele>
        <time>2024-09-21T13:11:03Z</time>
      </trkpt>
      <trkpt lat="42.43624" lon="2.78013">
        <ele>611</ele>
        <time>2024-09-21T13:11:06Z</time>
      </trkpt>
      <trkpt lat="42.43622" lon="2.78017">
        <ele>611</ele>
        <time>2024-09-21T13:11:08Z</time>
      </trkpt>
      <trkpt lat="42.4362" lon="2.7802">
        <ele>612</ele>
        <time>2024-09-21T13:11:10Z</time>
      </trkpt>
      <trkpt lat="42.43618" lon="2.78023">
        <ele>611</ele>
        <time>2024-09-21T13:11:12Z</time>
      </trkpt>
      <trkpt lat="42.43616" lon="2.78027">
        <ele>612</ele>
        <time>2024-09-21T13:11:16Z</time>
      </trkpt>
      <trkpt lat="42.43614" lon="2.7803">
        <ele>612</ele>
        <time>2024-09-21T13:11:18Z</time>
      </trkpt>
      <trkpt lat="42.43612" lon="2.78033">
        <ele>613</ele>
        <time>2024-09-21T13:11:21Z</time>
      </trkpt>
      <trkpt lat="42.4361" lon="2.78037">
        <ele>613</ele>
        <time>2024-09-21T13:11:24Z</time>
      </trkpt>
      <trkpt lat="42.43608" lon="2.78041">
        <ele>614</ele>
        <time>2024-09-21T13:11:26Z</time>
      </trkpt>
      <trkpt lat="42.43606" lon="2.78044">
        <ele>612</ele>
        <time>2024-09-21T13:11:29Z</time>
      </trkpt>
      <trkpt lat="42.43604" lon="2.78046">
        <ele>614</ele>
        <time>2024-09-21T13:11:32Z</time>
      </trkpt>
      <trkpt lat="42.43603" lon="2.7805">
        <ele>614</ele>
        <time>2024-09-21T13:11:34Z</time>
      </trkpt>
      <trkpt lat="42.43601" lon="2.78053">
        <ele>614</ele>
        <time>2024-09-21T13:11:37Z</time>
      </trkpt>
      <trkpt lat="42.43599" lon="2.78057">
        <ele>613</ele>
        <time>2024-09-21T13:11:39Z</time>
      </trkpt>
      <trkpt lat="42.43598" lon="2.78061">
        <ele>614</ele>
        <time>2024-09-21T13:11:41Z</time>
      </trkpt>
      <trkpt lat="42.43597" lon="2.78065">
        <ele>613</ele>
        <time>2024-09-21T13:11:44Z</time>
      </trkpt>
      <trkpt lat="42.43596" lon="2.7807">
        <ele>611</ele>
        <time>2024-09-21T13:11:46Z</time>
      </trkpt>
      <trkpt lat="42.43597" lon="2.78074">
        <ele>611</ele>
        <time>2024-09-21T13:11:48Z</time>
      </trkpt>
      <trkpt lat="42.43598" lon="2.78078">
        <ele>611</ele>
        <time>2024-09-21T13:11:52Z</time>
      </trkpt>
      <trkpt lat="42.436" lon="2.78083">
        <ele>611</ele>
        <time>2024-09-21T13:11:54Z</time>
      </trkpt>
      <trkpt lat="42.43603" lon="2.78088">
        <ele>612</ele>
        <time>2024-09-21T13:11:57Z</time>
      </trkpt>
      <trkpt lat="42.43605" lon="2.78092">
        <ele>611</ele>
        <time>2024-09-21T13:12:00Z</time>
      </trkpt>
      <trkpt lat="42.43609" lon="2.78095">
        <ele>611</ele>
        <time>2024-09-21T13:12:03Z</time>
      </trkpt>
      <trkpt lat="42.43612" lon="2.78098">
        <ele>612</ele>
        <time>2024-09-21T13:12:06Z</time>
      </trkpt>
      <trkpt lat="42.43615" lon="2.781">
        <ele>610</ele>
        <time>2024-09-21T13:12:09Z</time>
      </trkpt>
      <trkpt lat="42.43619" lon="2.78101">
        <ele>611</ele>
        <time>2024-09-21T13:12:11Z</time>
      </trkpt>
      <trkpt lat="42.43622" lon="2.78104">
        <ele>612</ele>
        <time>2024-09-21T13:12:13Z</time>
      </trkpt>
      <trkpt lat="42.43625" lon="2.78106">
        <ele>612</ele>
        <time>2024-09-21T13:12:15Z</time>
      </trkpt>
      <trkpt lat="42.43628" lon="2.78109">
        <ele>612</ele>
        <time>2024-09-21T13:12:18Z</time>
      </trkpt>
      <trkpt lat="42.4363" lon="2.78112">
        <ele>612</ele>
        <time>2024-09-21T13:12:21Z</time>
      </trkpt>
      <trkpt lat="42.43633" lon="2.78115">
        <ele>612</ele>
        <time>2024-09-21T13:12:23Z</time>
      </trkpt>
      <trkpt lat="42.43635" lon="2.78118">
        <ele>612</ele>
        <time>2024-09-21T13:12:25Z</time>
      </trkpt>
      <trkpt lat="42.43638" lon="2.7812">
        <ele>612</ele>
        <time>2024-09-21T13:12:27Z</time>
      </trkpt>
      <trkpt lat="42.4364" lon="2.78124">
        <ele>612</ele>
        <time>2024-09-21T13:12:31Z</time>
      </trkpt>
      <trkpt lat="42.43641" lon="2.78128">
        <ele>612</ele>
        <time>2024-09-21T13:12:33Z</time>
      </trkpt>
      <trkpt lat="42.43645" lon="2.7813">
        <ele>613</ele>
        <time>2024-09-21T13:12:36Z</time>
      </trkpt>
      <trkpt lat="42.43647" lon="2.78132">
        <ele>612</ele>
        <time>2024-09-21T13:12:38Z</time>
      </trkpt>
      <trkpt lat="42.4365" lon="2.78136">
        <ele>613</ele>
        <time>2024-09-21T13:12:41Z</time>
      </trkpt>
      <trkpt lat="42.43651" lon="2.78139">
        <ele>612</ele>
        <time>2024-09-21T13:12:44Z</time>
      </trkpt>
      <trkpt lat="42.43653" lon="2.78143">
        <ele>613</ele>
        <time>2024-09-21T13:12:46Z</time>
      </trkpt>
      <trkpt lat="42.43654" lon="2.78147">
        <ele>612</ele>
        <time>2024-09-21T13:12:49Z</time>
      </trkpt>
      <trkpt lat="42.43655" lon="2.78151">
        <ele>612</ele>
        <time>2024-09-21T13:12:52Z</time>
      </trkpt>
      <trkpt lat="42.43654" lon="2.78155">
        <ele>612</ele>
        <time>2024-09-21T13:12:54Z</time>
      </trkpt>
      <trkpt lat="42.43654" lon="2.78159">
        <ele>614</ele>
        <time>2024-09-21T13:12:57Z</time>
      </trkpt>
      <trkpt lat="42.43654" lon="2.78163">
        <ele>614</ele>
        <time>2024-09-21T13:12:59Z</time>
      </trkpt>
      <trkpt lat="42.43655" lon="2.78167">
        <ele>614</ele>
        <time>2024-09-21T13:13:01Z</time>
      </trkpt>
      <trkpt lat="42.43655" lon="2.78171">
        <ele>613</ele>
        <time>2024-09-21T13:13:03Z</time>
      </trkpt>
      <trkpt lat="42.43656" lon="2.78175">
        <ele>614</ele>
        <time>2024-09-21T13:13:06Z</time>
      </trkpt>
      <trkpt lat="42.43656" lon="2.78179">
        <ele>613</ele>
        <time>2024-09-21T13:13:08Z</time>
      </trkpt>
      <trkpt lat="42.43656" lon="2.78184">
        <ele>613</ele>
        <time>2024-09-21T13:13:12Z</time>
      </trkpt>
      <trkpt lat="42.43655" lon="2.78188">
        <ele>614</ele>
        <time>2024-09-21T13:13:15Z</time>
      </trkpt>
      <trkpt lat="42.43654" lon="2.78193">
        <ele>615</ele>
        <time>2024-09-21T13:13:17Z</time>
      </trkpt>
      <trkpt lat="42.43654" lon="2.78197">
        <ele>614</ele>
        <time>2024-09-21T13:13:19Z</time>
      </trkpt>
      <trkpt lat="42.43656" lon="2.78201">
        <ele>614</ele>
        <time>2024-09-21T13:13:21Z</time>
      </trkpt>
      <trkpt lat="42.43657" lon="2.78204">
        <ele>615</ele>
        <time>2024-09-21T13:13:23Z</time>
      </trkpt>
      <trkpt lat="42.43659" lon="2.78208">
        <ele>615</ele>
        <time>2024-09-21T13:13:25Z</time>
      </trkpt>
      <trkpt lat="42.43661" lon="2.78211">
        <ele>615</ele>
        <time>2024-09-21T13:13:27Z</time>
      </trkpt>
      <trkpt lat="42.43662" lon="2.78215">
        <ele>615</ele>
        <time>2024-09-21T13:13:30Z</time>
      </trkpt>
      <trkpt lat="42.43664" lon="2.78219">
        <ele>616</ele>
        <time>2024-09-21T13:13:32Z</time>
      </trkpt>
      <trkpt lat="42.43666" lon="2.78222">
        <ele>615</ele>
        <time>2024-09-21T13:13:35Z</time>
      </trkpt>
      <trkpt lat="42.43668" lon="2.78224">
        <ele>616</ele>
        <time>2024-09-21T13:13:37Z</time>
      </trkpt>
      <trkpt lat="42.43671" lon="2.78226">
        <ele>616</ele>
        <time>2024-09-21T13:13:39Z</time>
      </trkpt>
      <trkpt lat="42.43673" lon="2.78229">
        <ele>617</ele>
        <time>2024-09-21T13:13:42Z</time>
      </trkpt>
      <trkpt lat="42.43675" lon="2.78233">
        <ele>616</ele>
        <time>2024-09-21T13:13:45Z</time>
      </trkpt>
      <trkpt lat="42.43677" lon="2.78238">
        <ele>617</ele>
        <time>2024-09-21T13:13:48Z</time>
      </trkpt>
      <trkpt lat="42.43678" lon="2.78242">
        <ele>615</ele>
        <time>2024-09-21T13:13:51Z</time>
      </trkpt>
      <trkpt lat="42.43679" lon="2.78247">
        <ele>616</ele>
        <time>2024-09-21T13:13:53Z</time>
      </trkpt>
      <trkpt lat="42.43681" lon="2.78249">
        <ele>616</ele>
        <time>2024-09-21T13:13:57Z</time>
      </trkpt>
      <trkpt lat="42.43683" lon="2.78252">
        <ele>616</ele>
        <time>2024-09-21T13:13:59Z</time>
      </trkpt>
      <trkpt lat="42.43683" lon="2.78257">
        <ele>614</ele>
        <time>2024-09-21T13:14:02Z</time>
      </trkpt>
      <trkpt lat="42.43684" lon="2.78261">
        <ele>615</ele>
        <time>2024-09-21T13:14:05Z</time>
      </trkpt>
      <trkpt lat="42.43685" lon="2.78265">
        <ele>615</ele>
        <time>2024-09-21T13:14:07Z</time>
      </trkpt>
      <trkpt lat="42.43686" lon="2.78269">
        <ele>615</ele>
        <time>2024-09-21T13:14:09Z</time>
      </trkpt>
      <trkpt lat="42.43687" lon="2.78273">
        <ele>615</ele>
        <time>2024-09-21T13:14:12Z</time>
      </trkpt>
      <trkpt lat="42.43687" lon="2.78278">
        <ele>616</ele>
        <time>2024-09-21T13:14:15Z</time>
      </trkpt>
      <trkpt lat="42.43689" lon="2.78282">
        <ele>617</ele>
        <time>2024-09-21T13:14:17Z</time>
      </trkpt>
      <trkpt lat="42.4369" lon="2.78286">
        <ele>615</ele>
        <time>2024-09-21T13:14:20Z</time>
      </trkpt>
      <trkpt lat="42.4369" lon="2.78289">
        <ele>616</ele>
        <time>2024-09-21T13:14:22Z</time>
      </trkpt>
      <trkpt lat="42.4369" lon="2.78293">
        <ele>617</ele>
        <time>2024-09-21T13:14:24Z</time>
      </trkpt>
      <trkpt lat="42.43691" lon="2.78297">
        <ele>616</ele>
        <time>2024-09-21T13:14:26Z</time>
      </trkpt>
      <trkpt lat="42.43692" lon="2.783">
        <ele>616</ele>
        <time>2024-09-21T13:14:28Z</time>
      </trkpt>
      <trkpt lat="42.43692" lon="2.78305">
        <ele>617</ele>
        <time>2024-09-21T13:14:30Z</time>
      </trkpt>
      <trkpt lat="42.43693" lon="2.7831">
        <ele>615</ele>
        <time>2024-09-21T13:14:34Z</time>
      </trkpt>
      <trkpt lat="42.43693" lon="2.78314">
        <ele>616</ele>
        <time>2024-09-21T13:14:36Z</time>
      </trkpt>
      <trkpt lat="42.43694" lon="2.78319">
        <ele>616</ele>
        <time>2024-09-21T13:14:39Z</time>
      </trkpt>
      <trkpt lat="42.43694" lon="2.78324">
        <ele>616</ele>
        <time>2024-09-21T13:14:42Z</time>
      </trkpt>
      <trkpt lat="42.43695" lon="2.78329">
        <ele>618</ele>
        <time>2024-09-21T13:14:45Z</time>
      </trkpt>
      <trkpt lat="42.43696" lon="2.78334">
        <ele>616</ele>
        <time>2024-09-21T13:14:49Z</time>
      </trkpt>
      <trkpt lat="42.43698" lon="2.78339">
        <ele>617</ele>
        <time>2024-09-21T13:14:51Z</time>
      </trkpt>
      <trkpt lat="42.437" lon="2.78343">
        <ele>619</ele>
        <time>2024-09-21T13:14:54Z</time>
      </trkpt>
      <trkpt lat="42.43702" lon="2.78348">
        <ele>619</ele>
        <time>2024-09-21T13:14:57Z</time>
      </trkpt>
      <trkpt lat="42.43703" lon="2.78352">
        <ele>618</ele>
        <time>2024-09-21T13:15:00Z</time>
      </trkpt>
      <trkpt lat="42.43705" lon="2.78357">
        <ele>618</ele>
        <time>2024-09-21T13:15:03Z</time>
      </trkpt>
      <trkpt lat="42.43707" lon="2.78361">
        <ele>618</ele>
        <time>2024-09-21T13:15:06Z</time>
      </trkpt>
      <trkpt lat="42.43709" lon="2.78365">
        <ele>618</ele>
        <time>2024-09-21T13:15:09Z</time>
      </trkpt>
      <trkpt lat="42.43711" lon="2.78369">
        <ele>618</ele>
        <time>2024-09-21T13:15:12Z</time>
      </trkpt>
      <trkpt lat="42.43713" lon="2.78372">
        <ele>618</ele>
        <time>2024-09-21T13:15:14Z</time>
      </trkpt>
      <trkpt lat="42.43716" lon="2.78375">
        <ele>618</ele>
        <time>2024-09-21T13:15:17Z</time>
      </trkpt>
      <trkpt lat="42.43718" lon="2.78378">
        <ele>619</ele>
        <time>2024-09-21T13:15:19Z</time>
      </trkpt>
      <trkpt lat="42.4372" lon="2.78382">
        <ele>618</ele>
        <time>2024-09-21T13:15:22Z</time>
      </trkpt>
      <trkpt lat="42.43721" lon="2.78386">
        <ele>618</ele>
        <time>2024-09-21T13:15:24Z</time>
      </trkpt>
      <trkpt lat="42.43723" lon="2.78389">
        <ele>617</ele>
        <time>2024-09-21T13:15:27Z</time>
      </trkpt>
      <trkpt lat="42.43726" lon="2.78392">
        <ele>617</ele>
        <time>2024-09-21T13:15:30Z</time>
      </trkpt>
      <trkpt lat="42.43728" lon="2.78396">
        <ele>617</ele>
        <time>2024-09-21T13:15:32Z</time>
      </trkpt>
      <trkpt lat="42.43729" lon="2.784">
        <ele>617</ele>
        <time>2024-09-21T13:15:34Z</time>
      </trkpt>
      <trkpt lat="42.43732" lon="2.78403">
        <ele>618</ele>
        <time>2024-09-21T13:15:37Z</time>
      </trkpt>
      <trkpt lat="42.43734" lon="2.78406">
        <ele>617</ele>
        <time>2024-09-21T13:15:40Z</time>
      </trkpt>
      <trkpt lat="42.43736" lon="2.7841">
        <ele>619</ele>
        <time>2024-09-21T13:15:42Z</time>
      </trkpt>
      <trkpt lat="42.43737" lon="2.78414">
        <ele>617</ele>
        <time>2024-09-21T13:15:45Z</time>
      </trkpt>
      <trkpt lat="42.43739" lon="2.78418">
        <ele>617</ele>
        <time>2024-09-21T13:15:48Z</time>
      </trkpt>
      <trkpt lat="42.4374" lon="2.78423">
        <ele>618</ele>
        <time>2024-09-21T13:15:51Z</time>
      </trkpt>
      <trkpt lat="42.43741" lon="2.78427">
        <ele>618</ele>
        <time>2024-09-21T13:15:53Z</time>
      </trkpt>
      <trkpt lat="42.43742" lon="2.78432">
        <ele>618</ele>
        <time>2024-09-21T13:15:55Z</time>
      </trkpt>
      <trkpt lat="42.43744" lon="2.78437">
        <ele>617</ele>
        <time>2024-09-21T13:15:58Z</time>
      </trkpt>
      <trkpt lat="42.43745" lon="2.78442">
        <ele>617</ele>
        <time>2024-09-21T13:16:02Z</time>
      </trkpt>
      <trkpt lat="42.43746" lon="2.78446">
        <ele>616</ele>
        <time>2024-09-21T13:16:05Z</time>
      </trkpt>
      <trkpt lat="42.43747" lon="2.78451">
        <ele>616</ele>
        <time>2024-09-21T13:16:08Z</time>
      </trkpt>
      <trkpt lat="42.43749" lon="2.78456">
        <ele>617</ele>
        <time>2024-09-21T13:16:10Z</time>
      </trkpt>
      <trkpt lat="42.43749" lon="2.78459">
        <ele>616</ele>
        <time>2024-09-21T13:16:12Z</time>
      </trkpt>
      <trkpt lat="42.4375" lon="2.78464">
        <ele>615</ele>
        <time>2024-09-21T13:16:15Z</time>
      </trkpt>
      <trkpt lat="42.43752" lon="2.78468">
        <ele>615</ele>
        <time>2024-09-21T13:16:17Z</time>
      </trkpt>
      <trkpt lat="42.43754" lon="2.78472">
        <ele>614</ele>
        <time>2024-09-21T13:16:20Z</time>
      </trkpt>
      <trkpt lat="42.43755" lon="2.78477">
        <ele>615</ele>
        <time>2024-09-21T13:16:22Z</time>
      </trkpt>
      <trkpt lat="42.43756" lon="2.78481">
        <ele>615</ele>
        <time>2024-09-21T13:16:24Z</time>
      </trkpt>
      <trkpt lat="42.43757" lon="2.78485">
        <ele>615</ele>
        <time>2024-09-21T13:16:26Z</time>
      </trkpt>
      <trkpt lat="42.43759" lon="2.78488">
        <ele>614</ele>
        <time>2024-09-21T13:16:28Z</time>
      </trkpt>
      <trkpt lat="42.43761" lon="2.78491">
        <ele>614</ele>
        <time>2024-09-21T13:16:31Z</time>
      </trkpt>
      <trkpt lat="42.43762" lon="2.78495">
        <ele>615</ele>
        <time>2024-09-21T13:16:34Z</time>
      </trkpt>
      <trkpt lat="42.43763" lon="2.78499">
        <ele>615</ele>
        <time>2024-09-21T13:16:35Z</time>
      </trkpt>
      <trkpt lat="42.43763" lon="2.78503">
        <ele>616</ele>
        <time>2024-09-21T13:16:39Z</time>
      </trkpt>
      <trkpt lat="42.43763" lon="2.78508">
        <ele>617</ele>
        <time>2024-09-21T13:16:41Z</time>
      </trkpt>
      <trkpt lat="42.43763" lon="2.78513">
        <ele>618</ele>
        <time>2024-09-21T13:16:44Z</time>
      </trkpt>
      <trkpt lat="42.43763" lon="2.78517">
        <ele>618</ele>
        <time>2024-09-21T13:16:47Z</time>
      </trkpt>
      <trkpt lat="42.43762" lon="2.78521">
        <ele>619</ele>
        <time>2024-09-21T13:16:49Z</time>
      </trkpt>
      <trkpt lat="42.43762" lon="2.78525">
        <ele>620</ele>
        <time>2024-09-21T13:16:52Z</time>
      </trkpt>
      <trkpt lat="42.43762" lon="2.78529">
        <ele>620</ele>
        <time>2024-09-21T13:16:54Z</time>
      </trkpt>
      <trkpt lat="42.4376" lon="2.78533">
        <ele>620</ele>
        <time>2024-09-21T13:16:57Z</time>
      </trkpt>
      <trkpt lat="42.4376" lon="2.78537">
        <ele>621</ele>
        <time>2024-09-21T13:16:59Z</time>
      </trkpt>
      <trkpt lat="42.4376" lon="2.78542">
        <ele>621</ele>
        <time>2024-09-21T13:17:02Z</time>
      </trkpt>
      <trkpt lat="42.4376" lon="2.78546">
        <ele>621</ele>
        <time>2024-09-21T13:17:04Z</time>
      </trkpt>
      <trkpt lat="42.43758" lon="2.78551">
        <ele>621</ele>
        <time>2024-09-21T13:17:09Z</time>
      </trkpt>
      <trkpt lat="42.43758" lon="2.78556">
        <ele>623</ele>
        <time>2024-09-21T13:17:18Z</time>
      </trkpt>
      <trkpt lat="42.43759" lon="2.78561">
        <ele>622</ele>
        <time>2024-09-21T13:17:21Z</time>
      </trkpt>
      <trkpt lat="42.4376" lon="2.78567">
        <ele>621</ele>
        <time>2024-09-21T13:17:23Z</time>
      </trkpt>
      <trkpt lat="42.43762" lon="2.78571">
        <ele>620</ele>
        <time>2024-09-21T13:17:26Z</time>
      </trkpt>
      <trkpt lat="42.43764" lon="2.78577">
        <ele>618</ele>
        <time>2024-09-21T13:17:29Z</time>
      </trkpt>
      <trkpt lat="42.43766" lon="2.78581">
        <ele>618</ele>
        <time>2024-09-21T13:17:32Z</time>
      </trkpt>
      <trkpt lat="42.43768" lon="2.78585">
        <ele>619</ele>
        <time>2024-09-21T13:17:35Z</time>
      </trkpt>
      <trkpt lat="42.43771" lon="2.78589">
        <ele>619</ele>
        <time>2024-09-21T13:17:37Z</time>
      </trkpt>
      <trkpt lat="42.43773" lon="2.78593">
        <ele>619</ele>
        <time>2024-09-21T13:17:40Z</time>
      </trkpt>
      <trkpt lat="42.43775" lon="2.78597">
        <ele>619</ele>
        <time>2024-09-21T13:17:42Z</time>
      </trkpt>
      <trkpt lat="42.43777" lon="2.786">
        <ele>619</ele>
        <time>2024-09-21T13:17:45Z</time>
      </trkpt>
      <trkpt lat="42.43779" lon="2.78603">
        <ele>619</ele>
        <time>2024-09-21T13:17:47Z</time>
      </trkpt>
      <trkpt lat="42.43782" lon="2.78606">
        <ele>619</ele>
        <time>2024-09-21T13:17:49Z</time>
      </trkpt>
      <trkpt lat="42.43784" lon="2.78609">
        <ele>619</ele>
        <time>2024-09-21T13:17:52Z</time>
      </trkpt>
      <trkpt lat="42.43786" lon="2.78614">
        <ele>619</ele>
        <time>2024-09-21T13:17:55Z</time>
      </trkpt>
      <trkpt lat="42.43788" lon="2.78617">
        <ele>618</ele>
        <time>2024-09-21T13:17:58Z</time>
      </trkpt>
      <trkpt lat="42.4379" lon="2.78622">
        <ele>619</ele>
        <time>2024-09-21T13:18:01Z</time>
      </trkpt>
      <trkpt lat="42.43792" lon="2.78626">
        <ele>619</ele>
        <time>2024-09-21T13:18:04Z</time>
      </trkpt>
      <trkpt lat="42.43793" lon="2.7863">
        <ele>620</ele>
        <time>2024-09-21T13:18:08Z</time>
      </trkpt>
      <trkpt lat="42.43793" lon="2.78634">
        <ele>620</ele>
        <time>2024-09-21T13:18:10Z</time>
      </trkpt>
      <trkpt lat="42.43793" lon="2.78639">
        <ele>620</ele>
        <time>2024-09-21T13:18:13Z</time>
      </trkpt>
      <trkpt lat="42.43793" lon="2.78644">
        <ele>620</ele>
        <time>2024-09-21T13:18:16Z</time>
      </trkpt>
      <trkpt lat="42.43793" lon="2.78649">
        <ele>621</ele>
        <time>2024-09-21T13:18:19Z</time>
      </trkpt>
      <trkpt lat="42.43792" lon="2.78654">
        <ele>622</ele>
        <time>2024-09-21T13:18:22Z</time>
      </trkpt>
      <trkpt lat="42.43792" lon="2.78658">
        <ele>621</ele>
        <time>2024-09-21T13:18:24Z</time>
      </trkpt>
      <trkpt lat="42.43792" lon="2.78663">
        <ele>621</ele>
        <time>2024-09-21T13:18:26Z</time>
      </trkpt>
      <trkpt lat="42.43791" lon="2.78667">
        <ele>622</ele>
        <time>2024-09-21T13:18:30Z</time>
      </trkpt>
      <trkpt lat="42.4379" lon="2.78673">
        <ele>622</ele>
        <time>2024-09-21T13:18:32Z</time>
      </trkpt>
      <trkpt lat="42.43789" lon="2.78676">
        <ele>623</ele>
        <time>2024-09-21T13:18:35Z</time>
      </trkpt>
      <trkpt lat="42.43786" lon="2.78679">
        <ele>622</ele>
        <time>2024-09-21T13:18:41Z</time>
      </trkpt>
      <trkpt lat="42.43783" lon="2.7868">
        <ele>621</ele>
        <time>2024-09-21T13:18:44Z</time>
      </trkpt>
      <trkpt lat="42.4378" lon="2.78682">
        <ele>621</ele>
        <time>2024-09-21T13:18:47Z</time>
      </trkpt>
      <trkpt lat="42.43777" lon="2.78684">
        <ele>621</ele>
        <time>2024-09-21T13:18:49Z</time>
      </trkpt>
      <trkpt lat="42.43773" lon="2.78684">
        <ele>621</ele>
        <time>2024-09-21T13:18:52Z</time>
      </trkpt>
      <trkpt lat="42.4377" lon="2.78684">
        <ele>621</ele>
        <time>2024-09-21T13:18:54Z</time>
      </trkpt>
      <trkpt lat="42.43767" lon="2.78684">
        <ele>621</ele>
        <time>2024-09-21T13:18:56Z</time>
      </trkpt>
      <trkpt lat="42.43763" lon="2.78685">
        <ele>620</ele>
        <time>2024-09-21T13:18:59Z</time>
      </trkpt>
      <trkpt lat="42.43762" lon="2.78682">
        <ele>621</ele>
        <time>2024-09-21T13:19:04Z</time>
      </trkpt>
      <trkpt lat="42.43759" lon="2.78682">
        <ele>621</ele>
        <time>2024-09-21T13:19:09Z</time>
      </trkpt>
      <trkpt lat="42.43756" lon="2.78682">
        <ele>621</ele>
        <time>2024-09-21T13:19:10Z</time>
      </trkpt>
      <trkpt lat="42.43752" lon="2.78683">
        <ele>624</ele>
        <time>2024-09-21T13:19:13Z</time>
      </trkpt>
      <trkpt lat="42.43749" lon="2.78684">
        <ele>624</ele>
        <time>2024-09-21T13:19:15Z</time>
      </trkpt>
      <trkpt lat="42.43746" lon="2.78685">
        <ele>623</ele>
        <time>2024-09-21T13:19:18Z</time>
      </trkpt>
      <trkpt lat="42.43743" lon="2.78685">
        <ele>624</ele>
        <time>2024-09-21T13:19:20Z</time>
      </trkpt>
      <trkpt lat="42.43739" lon="2.78685">
        <ele>624</ele>
        <time>2024-09-21T13:19:22Z</time>
      </trkpt>
      <trkpt lat="42.43736" lon="2.78684">
        <ele>623</ele>
        <time>2024-09-21T13:19:27Z</time>
      </trkpt>
      <trkpt lat="42.43733" lon="2.78683">
        <ele>621</ele>
        <time>2024-09-21T13:19:30Z</time>
      </trkpt>
      <trkpt lat="42.4373" lon="2.7868">
        <ele>623</ele>
        <time>2024-09-21T13:19:34Z</time>
      </trkpt>
      <trkpt lat="42.43727" lon="2.78679">
        <ele>623</ele>
        <time>2024-09-21T13:19:36Z</time>
      </trkpt>
      <trkpt lat="42.43725" lon="2.78675">
        <ele>621</ele>
        <time>2024-09-21T13:19:41Z</time>
      </trkpt>
      <trkpt lat="42.43722" lon="2.78672">
        <ele>622</ele>
        <time>2024-09-21T13:19:44Z</time>
      </trkpt>
      <trkpt lat="42.43719" lon="2.7867">
        <ele>621</ele>
        <time>2024-09-21T13:19:47Z</time>
      </trkpt>
      <trkpt lat="42.43716" lon="2.78669">
        <ele>622</ele>
        <time>2024-09-21T13:19:50Z</time>
      </trkpt>
      <trkpt lat="42.43713" lon="2.78667">
        <ele>622</ele>
        <time>2024-09-21T13:19:52Z</time>
      </trkpt>
      <trkpt lat="42.43709" lon="2.78666">
        <ele>622</ele>
        <time>2024-09-21T13:19:54Z</time>
      </trkpt>
      <trkpt lat="42.43704" lon="2.78665">
        <ele>622</ele>
        <time>2024-09-21T13:19:58Z</time>
      </trkpt>
      <trkpt lat="42.43701" lon="2.78664">
        <ele>622</ele>
        <time>2024-09-21T13:20:00Z</time>
      </trkpt>
      <trkpt lat="42.43697" lon="2.78663">
        <ele>622</ele>
        <time>2024-09-21T13:20:02Z</time>
      </trkpt>
      <trkpt lat="42.43694" lon="2.78663">
        <ele>619</ele>
        <time>2024-09-21T13:20:06Z</time>
      </trkpt>
      <trkpt lat="42.4369" lon="2.78662">
        <ele>620</ele>
        <time>2024-09-21T13:20:08Z</time>
      </trkpt>
      <trkpt lat="42.43687" lon="2.78662">
        <ele>620</ele>
        <time>2024-09-21T13:20:10Z</time>
      </trkpt>
      <trkpt lat="42.43684" lon="2.78662">
        <ele>620</ele>
        <time>2024-09-21T13:20:14Z</time>
      </trkpt>
      <trkpt lat="42.43681" lon="2.78662">
        <ele>619</ele>
        <time>2024-09-21T13:20:17Z</time>
      </trkpt>
      <trkpt lat="42.43677" lon="2.78661">
        <ele>618</ele>
        <time>2024-09-21T13:20:20Z</time>
      </trkpt>
      <trkpt lat="42.43674" lon="2.78661">
        <ele>618</ele>
        <time>2024-09-21T13:20:23Z</time>
      </trkpt>
      <trkpt lat="42.43671" lon="2.78661">
        <ele>615</ele>
        <time>2024-09-21T13:20:26Z</time>
      </trkpt>
      <trkpt lat="42.43667" lon="2.78662">
        <ele>618</ele>
        <time>2024-09-21T13:20:28Z</time>
      </trkpt>
      <trkpt lat="42.43664" lon="2.78662">
        <ele>618</ele>
        <time>2024-09-21T13:20:30Z</time>
      </trkpt>
      <trkpt lat="42.4366" lon="2.78662">
        <ele>618</ele>
        <time>2024-09-21T13:20:33Z</time>
      </trkpt>
      <trkpt lat="42.43656" lon="2.78662">
        <ele>618</ele>
        <time>2024-09-21T13:20:37Z</time>
      </trkpt>
      <trkpt lat="42.43653" lon="2.78662">
        <ele>618</ele>
        <time>2024-09-21T13:20:40Z</time>
      </trkpt>
      <trkpt lat="42.43649" lon="2.78661">
        <ele>618</ele>
        <time>2024-09-21T13:20:42Z</time>
      </trkpt>
      <trkpt lat="42.43646" lon="2.7866">
        <ele>617</ele>
        <time>2024-09-21T13:20:45Z</time>
      </trkpt>
      <trkpt lat="42.43643" lon="2.7866">
        <ele>616</ele>
        <time>2024-09-21T13:20:47Z</time>
      </trkpt>
      <trkpt lat="42.43639" lon="2.7866">
        <ele>617</ele>
        <time>2024-09-21T13:20:49Z</time>
      </trkpt>
      <trkpt lat="42.43636" lon="2.7866">
        <ele>618</ele>
        <time>2024-09-21T13:20:52Z</time>
      </trkpt>
      <trkpt lat="42.43632" lon="2.7866">
        <ele>617</ele>
        <time>2024-09-21T13:20:55Z</time>
      </trkpt>
      <trkpt lat="42.43629" lon="2.78659">
        <ele>617</ele>
        <time>2024-09-21T13:20:58Z</time>
      </trkpt>
      <trkpt lat="42.43626" lon="2.78659">
        <ele>618</ele>
        <time>2024-09-21T13:21:00Z</time>
      </trkpt>
      <trkpt lat="42.43622" lon="2.78659">
        <ele>617</ele>
        <time>2024-09-21T13:21:03Z</time>
      </trkpt>
      <trkpt lat="42.43619" lon="2.78658">
        <ele>618</ele>
        <time>2024-09-21T13:21:06Z</time>
      </trkpt>
      <trkpt lat="42.43616" lon="2.78659">
        <ele>619</ele>
        <time>2024-09-21T13:21:08Z</time>
      </trkpt>
      <trkpt lat="42.43612" lon="2.78659">
        <ele>619</ele>
        <time>2024-09-21T13:21:10Z</time>
      </trkpt>
      <trkpt lat="42.43608" lon="2.78659">
        <ele>619</ele>
        <time>2024-09-21T13:21:13Z</time>
      </trkpt>
      <trkpt lat="42.43604" lon="2.78661">
        <ele>620</ele>
        <time>2024-09-21T13:21:15Z</time>
      </trkpt>
      <trkpt lat="42.43601" lon="2.78661">
        <ele>621</ele>
        <time>2024-09-21T13:21:17Z</time>
      </trkpt>
      <trkpt lat="42.43599" lon="2.78661">
        <ele>621</ele>
        <time>2024-09-21T13:21:19Z</time>
      </trkpt>
      <trkpt lat="42.43596" lon="2.7866">
        <ele>621</ele>
        <time>2024-09-21T13:21:22Z</time>
      </trkpt>
      <trkpt lat="42.43593" lon="2.7866">
        <ele>620</ele>
        <time>2024-09-21T13:21:24Z</time>
      </trkpt>
      <trkpt lat="42.4359" lon="2.78659">
        <ele>619</ele>
        <time>2024-09-21T13:21:26Z</time>
      </trkpt>
      <trkpt lat="42.43587" lon="2.78659">
        <ele>619</ele>
        <time>2024-09-21T13:21:29Z</time>
      </trkpt>
      <trkpt lat="42.43584" lon="2.78659">
        <ele>619</ele>
        <time>2024-09-21T13:21:31Z</time>
      </trkpt>
      <trkpt lat="42.43581" lon="2.78657">
        <ele>620</ele>
        <time>2024-09-21T13:21:33Z</time>
      </trkpt>
      <trkpt lat="42.43578" lon="2.78656">
        <ele>619</ele>
        <time>2024-09-21T13:21:36Z</time>
      </trkpt>
      <trkpt lat="42.43575" lon="2.78655">
        <ele>618</ele>
        <time>2024-09-21T13:21:39Z</time>
      </trkpt>
      <trkpt lat="42.43571" lon="2.78654">
        <ele>618</ele>
        <time>2024-09-21T13:21:41Z</time>
      </trkpt>
      <trkpt lat="42.43568" lon="2.78653">
        <ele>617</ele>
        <time>2024-09-21T13:21:43Z</time>
      </trkpt>
      <trkpt lat="42.43565" lon="2.78653">
        <ele>617</ele>
        <time>2024-09-21T13:21:45Z</time>
      </trkpt>
      <trkpt lat="42.43563" lon="2.78652">
        <ele>617</ele>
        <time>2024-09-21T13:21:47Z</time>
      </trkpt>
      <trkpt lat="42.4356" lon="2.78652">
        <ele>618</ele>
        <time>2024-09-21T13:21:49Z</time>
      </trkpt>
      <trkpt lat="42.43557" lon="2.78652">
        <ele>618</ele>
        <time>2024-09-21T13:21:51Z</time>
      </trkpt>
      <trkpt lat="42.43553" lon="2.78652">
        <ele>618</ele>
        <time>2024-09-21T13:21:54Z</time>
      </trkpt>
      <trkpt lat="42.4355" lon="2.78651">
        <ele>616</ele>
        <time>2024-09-21T13:21:57Z</time>
      </trkpt>
      <trkpt lat="42.43547" lon="2.78651">
        <ele>615</ele>
        <time>2024-09-21T13:22:00Z</time>
      </trkpt>
      <trkpt lat="42.43543" lon="2.78651">
        <ele>614</ele>
        <time>2024-09-21T13:22:04Z</time>
      </trkpt>
      <trkpt lat="42.43539" lon="2.7865">
        <ele>614</ele>
        <time>2024-09-21T13:22:07Z</time>
      </trkpt>
      <trkpt lat="42.43534" lon="2.7865">
        <ele>613</ele>
        <time>2024-09-21T13:22:10Z</time>
      </trkpt>
      <trkpt lat="42.43531" lon="2.7865">
        <ele>613</ele>
        <time>2024-09-21T13:22:13Z</time>
      </trkpt>
      <trkpt lat="42.43527" lon="2.78651">
        <ele>613</ele>
        <time>2024-09-21T13:22:16Z</time>
      </trkpt>
      <trkpt lat="42.43524" lon="2.78652">
        <ele>613</ele>
        <time>2024-09-21T13:22:19Z</time>
      </trkpt>
      <trkpt lat="42.43521" lon="2.78653">
        <ele>613</ele>
        <time>2024-09-21T13:22:21Z</time>
      </trkpt>
      <trkpt lat="42.43518" lon="2.78654">
        <ele>613</ele>
        <time>2024-09-21T13:22:24Z</time>
      </trkpt>
      <trkpt lat="42.43515" lon="2.78655">
        <ele>612</ele>
        <time>2024-09-21T13:22:29Z</time>
      </trkpt>
      <trkpt lat="42.43512" lon="2.78656">
        <ele>611</ele>
        <time>2024-09-21T13:22:31Z</time>
      </trkpt>
      <trkpt lat="42.43509" lon="2.78658">
        <ele>611</ele>
        <time>2024-09-21T13:22:34Z</time>
      </trkpt>
      <trkpt lat="42.43507" lon="2.78661">
        <ele>611</ele>
        <time>2024-09-21T13:22:36Z</time>
      </trkpt>
      <trkpt lat="42.43504" lon="2.78663">
        <ele>611</ele>
        <time>2024-09-21T13:22:38Z</time>
      </trkpt>
      <trkpt lat="42.43502" lon="2.78665">
        <ele>611</ele>
        <time>2024-09-21T13:22:40Z</time>
      </trkpt>
      <trkpt lat="42.43499" lon="2.78669">
        <ele>612</ele>
        <time>2024-09-21T13:22:43Z</time>
      </trkpt>
      <trkpt lat="42.43496" lon="2.78671">
        <ele>611</ele>
        <time>2024-09-21T13:22:46Z</time>
      </trkpt>
      <trkpt lat="42.43493" lon="2.78673">
        <ele>611</ele>
        <time>2024-09-21T13:22:48Z</time>
      </trkpt>
      <trkpt lat="42.4349" lon="2.78675">
        <ele>611</ele>
        <time>2024-09-21T13:22:50Z</time>
      </trkpt>
      <trkpt lat="42.43486" lon="2.78677">
        <ele>612</ele>
        <time>2024-09-21T13:22:53Z</time>
      </trkpt>
      <trkpt lat="42.43483" lon="2.78678">
        <ele>612</ele>
        <time>2024-09-21T13:22:55Z</time>
      </trkpt>
      <trkpt lat="42.4348" lon="2.78681">
        <ele>612</ele>
        <time>2024-09-21T13:22:58Z</time>
      </trkpt>
      <trkpt lat="42.43477" lon="2.78682">
        <ele>611</ele>
        <time>2024-09-21T13:23:00Z</time>
      </trkpt>
      <trkpt lat="42.43474" lon="2.78683">
        <ele>612</ele>
        <time>2024-09-21T13:23:03Z</time>
      </trkpt>
      <trkpt lat="42.4347" lon="2.78684">
        <ele>612</ele>
        <time>2024-09-21T13:23:06Z</time>
      </trkpt>
      <trkpt lat="42.43467" lon="2.78685">
        <ele>611</ele>
        <time>2024-09-21T13:23:08Z</time>
      </trkpt>
      <trkpt lat="42.43463" lon="2.78685">
        <ele>610</ele>
        <time>2024-09-21T13:23:11Z</time>
      </trkpt>
      <trkpt lat="42.4346" lon="2.78687">
        <ele>612</ele>
        <time>2024-09-21T13:23:13Z</time>
      </trkpt>
      <trkpt lat="42.43457" lon="2.78687">
        <ele>612</ele>
        <time>2024-09-21T13:23:15Z</time>
      </trkpt>
      <trkpt lat="42.43454" lon="2.78688">
        <ele>613</ele>
        <time>2024-09-21T13:23:18Z</time>
      </trkpt>
      <trkpt lat="42.43451" lon="2.7869">
        <ele>612</ele>
        <time>2024-09-21T13:23:20Z</time>
      </trkpt>
      <trkpt lat="42.43448" lon="2.7869">
        <ele>613</ele>
        <time>2024-09-21T13:23:22Z</time>
      </trkpt>
      <trkpt lat="42.43445" lon="2.78691">
        <ele>612</ele>
        <time>2024-09-21T13:23:24Z</time>
      </trkpt>
      <trkpt lat="42.43442" lon="2.78692">
        <ele>613</ele>
        <time>2024-09-21T13:23:27Z</time>
      </trkpt>
      <trkpt lat="42.43438" lon="2.78692">
        <ele>612</ele>
        <time>2024-09-21T13:23:30Z</time>
      </trkpt>
      <trkpt lat="42.43435" lon="2.78692">
        <ele>613</ele>
        <time>2024-09-21T13:23:32Z</time>
      </trkpt>
      <trkpt lat="42.43431" lon="2.78692">
        <ele>610</ele>
        <time>2024-09-21T13:23:35Z</time>
      </trkpt>
      <trkpt lat="42.43428" lon="2.78691">
        <ele>609</ele>
        <time>2024-09-21T13:23:38Z</time>
      </trkpt>
      <trkpt lat="42.43425" lon="2.7869">
        <ele>609</ele>
        <time>2024-09-21T13:23:40Z</time>
      </trkpt>
      <trkpt lat="42.43421" lon="2.78689">
        <ele>608</ele>
        <time>2024-09-21T13:23:43Z</time>
      </trkpt>
      <trkpt lat="42.43418" lon="2.78688">
        <ele>608</ele>
        <time>2024-09-21T13:23:46Z</time>
      </trkpt>
      <trkpt lat="42.43415" lon="2.78686">
        <ele>606</ele>
        <time>2024-09-21T13:23:49Z</time>
      </trkpt>
      <trkpt lat="42.43412" lon="2.78684">
        <ele>606</ele>
        <time>2024-09-21T13:23:52Z</time>
      </trkpt>
      <trkpt lat="42.43409" lon="2.78683">
        <ele>606</ele>
        <time>2024-09-21T13:23:55Z</time>
      </trkpt>
      <trkpt lat="42.43406" lon="2.78683">
        <ele>605</ele>
        <time>2024-09-21T13:23:57Z</time>
      </trkpt>
      <trkpt lat="42.43404" lon="2.7868">
        <ele>604</ele>
        <time>2024-09-21T13:24:01Z</time>
      </trkpt>
      <trkpt lat="42.43401" lon="2.78678">
        <ele>605</ele>
        <time>2024-09-21T13:24:04Z</time>
      </trkpt>
      <trkpt lat="42.43398" lon="2.78676">
        <ele>604</ele>
        <time>2024-09-21T13:24:07Z</time>
      </trkpt>
      <trkpt lat="42.43394" lon="2.78675">
        <ele>604</ele>
        <time>2024-09-21T13:24:09Z</time>
      </trkpt>
      <trkpt lat="42.43391" lon="2.78674">
        <ele>604</ele>
        <time>2024-09-21T13:24:11Z</time>
      </trkpt>
      <trkpt lat="42.43389" lon="2.78674">
        <ele>604</ele>
        <time>2024-09-21T13:24:13Z</time>
      </trkpt>
      <trkpt lat="42.43385" lon="2.78673">
        <ele>603</ele>
        <time>2024-09-21T13:24:16Z</time>
      </trkpt>
      <trkpt lat="42.43381" lon="2.78672">
        <ele>604</ele>
        <time>2024-09-21T13:24:19Z</time>
      </trkpt>
      <trkpt lat="42.43378" lon="2.78671">
        <ele>604</ele>
        <time>2024-09-21T13:24:21Z</time>
      </trkpt>
      <trkpt lat="42.43375" lon="2.7867">
        <ele>603</ele>
        <time>2024-09-21T13:24:26Z</time>
      </trkpt>
      <trkpt lat="42.43372" lon="2.78669">
        <ele>602</ele>
        <time>2024-09-21T13:24:28Z</time>
      </trkpt>
      <trkpt lat="42.43369" lon="2.78668">
        <ele>603</ele>
        <time>2024-09-21T13:24:30Z</time>
      </trkpt>
      <trkpt lat="42.43366" lon="2.78665">
        <ele>602</ele>
        <time>2024-09-21T13:24:33Z</time>
      </trkpt>
      <trkpt lat="42.43363" lon="2.78663">
        <ele>603</ele>
        <time>2024-09-21T13:24:36Z</time>
      </trkpt>
      <trkpt lat="42.4336" lon="2.78661">
        <ele>603</ele>
        <time>2024-09-21T13:24:38Z</time>
      </trkpt>
      <trkpt lat="42.43358" lon="2.78658">
        <ele>603</ele>
        <time>2024-09-21T13:24:40Z</time>
      </trkpt>
      <trkpt lat="42.43355" lon="2.78656">
        <ele>603</ele>
        <time>2024-09-21T13:24:43Z</time>
      </trkpt>
      <trkpt lat="42.43354" lon="2.78652">
        <ele>601</ele>
        <time>2024-09-21T13:24:46Z</time>
      </trkpt>
      <trkpt lat="42.43353" lon="2.78648">
        <ele>600</ele>
        <time>2024-09-21T13:24:49Z</time>
      </trkpt>
      <trkpt lat="42.43352" lon="2.78644">
        <ele>599</ele>
        <time>2024-09-21T13:24:52Z</time>
      </trkpt>
      <trkpt lat="42.43352" lon="2.7864">
        <ele>598</ele>
        <time>2024-09-21T13:24:54Z</time>
      </trkpt>
      <trkpt lat="42.43351" lon="2.78636">
        <ele>599</ele>
        <time>2024-09-21T13:24:57Z</time>
      </trkpt>
      <trkpt lat="42.43351" lon="2.78632">
        <ele>599</ele>
        <time>2024-09-21T13:24:59Z</time>
      </trkpt>
      <trkpt lat="42.4335" lon="2.78628">
        <ele>597</ele>
        <time>2024-09-21T13:25:02Z</time>
      </trkpt>
      <trkpt lat="42.43349" lon="2.78624">
        <ele>597</ele>
        <time>2024-09-21T13:25:04Z</time>
      </trkpt>
      <trkpt lat="42.43349" lon="2.78619">
        <ele>597</ele>
        <time>2024-09-21T13:25:07Z</time>
      </trkpt>
      <trkpt lat="42.43348" lon="2.78614">
        <ele>596</ele>
        <time>2024-09-21T13:25:10Z</time>
      </trkpt>
      <trkpt lat="42.43347" lon="2.7861">
        <ele>596</ele>
        <time>2024-09-21T13:25:12Z</time>
      </trkpt>
      <trkpt lat="42.43346" lon="2.78607">
        <ele>596</ele>
        <time>2024-09-21T13:25:14Z</time>
      </trkpt>
      <trkpt lat="42.43344" lon="2.78604">
        <ele>596</ele>
        <time>2024-09-21T13:25:16Z</time>
      </trkpt>
      <trkpt lat="42.43342" lon="2.78601">
        <ele>596</ele>
        <time>2024-09-21T13:25:18Z</time>
      </trkpt>
      <trkpt lat="42.43341" lon="2.78598">
        <ele>596</ele>
        <time>2024-09-21T13:25:20Z</time>
      </trkpt>
      <trkpt lat="42.43338" lon="2.78596">
        <ele>597</ele>
        <time>2024-09-21T13:25:22Z</time>
      </trkpt>
      <trkpt lat="42.43335" lon="2.78593">
        <ele>597</ele>
        <time>2024-09-21T13:25:25Z</time>
      </trkpt>
      <trkpt lat="42.43332" lon="2.78591">
        <ele>597</ele>
        <time>2024-09-21T13:25:28Z</time>
      </trkpt>
      <trkpt lat="42.43329" lon="2.78587">
        <ele>596</ele>
        <time>2024-09-21T13:25:31Z</time>
      </trkpt>
      <trkpt lat="42.43327" lon="2.78583">
        <ele>596</ele>
        <time>2024-09-21T13:25:34Z</time>
      </trkpt>
      <trkpt lat="42.43324" lon="2.78581">
        <ele>596</ele>
        <time>2024-09-21T13:25:44Z</time>
      </trkpt>
      <trkpt lat="42.43321" lon="2.78577">
        <ele>595</ele>
        <time>2024-09-21T13:25:47Z</time>
      </trkpt>
      <trkpt lat="42.43319" lon="2.78574">
        <ele>594</ele>
        <time>2024-09-21T13:25:49Z</time>
      </trkpt>
      <trkpt lat="42.43317" lon="2.78571">
        <ele>594</ele>
        <time>2024-09-21T13:25:51Z</time>
      </trkpt>
      <trkpt lat="42.43315" lon="2.78568">
        <ele>593</ele>
        <time>2024-09-21T13:25:53Z</time>
      </trkpt>
      <trkpt lat="42.43313" lon="2.78564">
        <ele>593</ele>
        <time>2024-09-21T13:25:56Z</time>
      </trkpt>
      <trkpt lat="42.43311" lon="2.7856">
        <ele>594</ele>
        <time>2024-09-21T13:25:58Z</time>
      </trkpt>
      <trkpt lat="42.4331" lon="2.78556">
        <ele>593</ele>
        <time>2024-09-21T13:26:00Z</time>
      </trkpt>
      <trkpt lat="42.43308" lon="2.78553">
        <ele>594</ele>
        <time>2024-09-21T13:26:02Z</time>
      </trkpt>
      <trkpt lat="42.43308" lon="2.78549">
        <ele>593</ele>
        <time>2024-09-21T13:26:04Z</time>
      </trkpt>
      <trkpt lat="42.43307" lon="2.78544">
        <ele>592</ele>
        <time>2024-09-21T13:26:07Z</time>
      </trkpt>
      <trkpt lat="42.43306" lon="2.78539">
        <ele>592</ele>
        <time>2024-09-21T13:26:09Z</time>
      </trkpt>
      <trkpt lat="42.43306" lon="2.78535">
        <ele>591</ele>
        <time>2024-09-21T13:26:12Z</time>
      </trkpt>
      <trkpt lat="42.43304" lon="2.78531">
        <ele>591</ele>
        <time>2024-09-21T13:26:14Z</time>
      </trkpt>
      <trkpt lat="42.43302" lon="2.78529">
        <ele>592</ele>
        <time>2024-09-21T13:26:16Z</time>
      </trkpt>
      <trkpt lat="42.43299" lon="2.78527">
        <ele>591</ele>
        <time>2024-09-21T13:26:18Z</time>
      </trkpt>
      <trkpt lat="42.43296" lon="2.78527">
        <ele>591</ele>
        <time>2024-09-21T13:26:20Z</time>
      </trkpt>
      <trkpt lat="42.43292" lon="2.78526">
        <ele>592</ele>
        <time>2024-09-21T13:26:22Z</time>
      </trkpt>
      <trkpt lat="42.43289" lon="2.78526">
        <ele>592</ele>
        <time>2024-09-21T13:26:25Z</time>
      </trkpt>
      <trkpt lat="42.43286" lon="2.78528">
        <ele>593</ele>
        <time>2024-09-21T13:26:27Z</time>
      </trkpt>
      <trkpt lat="42.43283" lon="2.78529">
        <ele>593</ele>
        <time>2024-09-21T13:26:31Z</time>
      </trkpt>
      <trkpt lat="42.43281" lon="2.78532">
        <ele>593</ele>
        <time>2024-09-21T13:26:33Z</time>
      </trkpt>
      <trkpt lat="42.43279" lon="2.78534">
        <ele>593</ele>
        <time>2024-09-21T13:26:35Z</time>
      </trkpt>
      <trkpt lat="42.43277" lon="2.78537">
        <ele>593</ele>
        <time>2024-09-21T13:26:37Z</time>
      </trkpt>
      <trkpt lat="42.43276" lon="2.78541">
        <ele>594</ele>
        <time>2024-09-21T13:26:40Z</time>
      </trkpt>
      <trkpt lat="42.43275" lon="2.78545">
        <ele>594</ele>
        <time>2024-09-21T13:26:42Z</time>
      </trkpt>
      <trkpt lat="42.43273" lon="2.78549">
        <ele>592</ele>
        <time>2024-09-21T13:26:44Z</time>
      </trkpt>
      <trkpt lat="42.43273" lon="2.78553">
        <ele>593</ele>
        <time>2024-09-21T13:26:47Z</time>
      </trkpt>
      <trkpt lat="42.43272" lon="2.78558">
        <ele>594</ele>
        <time>2024-09-21T13:26:49Z</time>
      </trkpt>
      <trkpt lat="42.4327" lon="2.78562">
        <ele>592</ele>
        <time>2024-09-21T13:26:52Z</time>
      </trkpt>
      <trkpt lat="42.43269" lon="2.78566">
        <ele>591</ele>
        <time>2024-09-21T13:26:55Z</time>
      </trkpt>
      <trkpt lat="42.43268" lon="2.7857">
        <ele>589</ele>
        <time>2024-09-21T13:26:58Z</time>
      </trkpt>
      <trkpt lat="42.43266" lon="2.78574">
        <ele>589</ele>
        <time>2024-09-21T13:27:00Z</time>
      </trkpt>
      <trkpt lat="42.43266" lon="2.78577">
        <ele>589</ele>
        <time>2024-09-21T13:27:02Z</time>
      </trkpt>
      <trkpt lat="42.43265" lon="2.78581">
        <ele>589</ele>
        <time>2024-09-21T13:27:03Z</time>
      </trkpt>
      <trkpt lat="42.43264" lon="2.78586">
        <ele>587</ele>
        <time>2024-09-21T13:27:06Z</time>
      </trkpt>
      <trkpt lat="42.43263" lon="2.78589">
        <ele>588</ele>
        <time>2024-09-21T13:27:08Z</time>
      </trkpt>
      <trkpt lat="42.43261" lon="2.78593">
        <ele>589</ele>
        <time>2024-09-21T13:27:10Z</time>
      </trkpt>
      <trkpt lat="42.43259" lon="2.78595">
        <ele>588</ele>
        <time>2024-09-21T13:27:12Z</time>
      </trkpt>
      <trkpt lat="42.43257" lon="2.78597">
        <ele>588</ele>
        <time>2024-09-21T13:27:14Z</time>
      </trkpt>
      <trkpt lat="42.43254" lon="2.78599">
        <ele>587</ele>
        <time>2024-09-21T13:27:17Z</time>
      </trkpt>
      <trkpt lat="42.43251" lon="2.78599">
        <ele>586</ele>
        <time>2024-09-21T13:27:19Z</time>
      </trkpt>
      <trkpt lat="42.43248" lon="2.786">
        <ele>587</ele>
        <time>2024-09-21T13:27:21Z</time>
      </trkpt>
      <trkpt lat="42.43245" lon="2.786">
        <ele>589</ele>
        <time>2024-09-21T13:27:24Z</time>
      </trkpt>
      <trkpt lat="42.43241" lon="2.786">
        <ele>589</ele>
        <time>2024-09-21T13:27:26Z</time>
      </trkpt>
      <trkpt lat="42.43238" lon="2.78599">
        <ele>589</ele>
        <time>2024-09-21T13:27:28Z</time>
      </trkpt>
      <trkpt lat="42.43236" lon="2.78597">
        <ele>589</ele>
        <time>2024-09-21T13:27:30Z</time>
      </trkpt>
      <trkpt lat="42.43233" lon="2.78596">
        <ele>589</ele>
        <time>2024-09-21T13:27:32Z</time>
      </trkpt>
      <trkpt lat="42.4323" lon="2.78594">
        <ele>588</ele>
        <time>2024-09-21T13:27:34Z</time>
      </trkpt>
      <trkpt lat="42.43228" lon="2.78593">
        <ele>588</ele>
        <time>2024-09-21T13:27:36Z</time>
      </trkpt>
      <trkpt lat="42.43225" lon="2.78591">
        <ele>588</ele>
        <time>2024-09-21T13:27:38Z</time>
      </trkpt>
      <trkpt lat="42.43223" lon="2.78589">
        <ele>588</ele>
        <time>2024-09-21T13:27:41Z</time>
      </trkpt>
      <trkpt lat="42.4322" lon="2.78587">
        <ele>589</ele>
        <time>2024-09-21T13:27:44Z</time>
      </trkpt>
      <trkpt lat="42.43217" lon="2.78586">
        <ele>589</ele>
        <time>2024-09-21T13:27:46Z</time>
      </trkpt>
      <trkpt lat="42.43214" lon="2.78586">
        <ele>588</ele>
        <time>2024-09-21T13:27:48Z</time>
      </trkpt>
      <trkpt lat="42.43211" lon="2.78586">
        <ele>588</ele>
        <time>2024-09-21T13:27:51Z</time>
      </trkpt>
      <trkpt lat="42.43207" lon="2.78586">
        <ele>587</ele>
        <time>2024-09-21T13:27:54Z</time>
      </trkpt>
      <trkpt lat="42.43203" lon="2.78586">
        <ele>587</ele>
        <time>2024-09-21T13:27:56Z</time>
      </trkpt>
      <trkpt lat="42.432" lon="2.78587">
        <ele>586</ele>
        <time>2024-09-21T13:27:58Z</time>
      </trkpt>
      <trkpt lat="42.43197" lon="2.78588">
        <ele>587</ele>
        <time>2024-09-21T13:28:00Z</time>
      </trkpt>
      <trkpt lat="42.43194" lon="2.78588">
        <ele>588</ele>
        <time>2024-09-21T13:28:02Z</time>
      </trkpt>
      <trkpt lat="42.43191" lon="2.78589">
        <ele>586</ele>
        <time>2024-09-21T13:28:05Z</time>
      </trkpt>
      <trkpt lat="42.43187" lon="2.78592">
        <ele>588</ele>
        <time>2024-09-21T13:28:08Z</time>
      </trkpt>
      <trkpt lat="42.43184" lon="2.78594">
        <ele>585</ele>
        <time>2024-09-21T13:28:10Z</time>
      </trkpt>
      <trkpt lat="42.43182" lon="2.78596">
        <ele>586</ele>
        <time>2024-09-21T13:28:12Z</time>
      </trkpt>
      <trkpt lat="42.4318" lon="2.78599">
        <ele>586</ele>
        <time>2024-09-21T13:28:14Z</time>
      </trkpt>
      <trkpt lat="42.43177" lon="2.78601">
        <ele>586</ele>
        <time>2024-09-21T13:28:16Z</time>
      </trkpt>
      <trkpt lat="42.43175" lon="2.78603">
        <ele>585</ele>
        <time>2024-09-21T13:28:18Z</time>
      </trkpt>
      <trkpt lat="42.43173" lon="2.78606">
        <ele>585</ele>
        <time>2024-09-21T13:28:20Z</time>
      </trkpt>
      <trkpt lat="42.43169" lon="2.78608">
        <ele>585</ele>
        <time>2024-09-21T13:28:23Z</time>
      </trkpt>
      <trkpt lat="42.43167" lon="2.7861">
        <ele>584</ele>
        <time>2024-09-21T13:28:25Z</time>
      </trkpt>
      <trkpt lat="42.43163" lon="2.78612">
        <ele>585</ele>
        <time>2024-09-21T13:28:28Z</time>
      </trkpt>
      <trkpt lat="42.43161" lon="2.78612">
        <ele>582</ele>
        <time>2024-09-21T13:28:30Z</time>
      </trkpt>
      <trkpt lat="42.43158" lon="2.78612">
        <ele>584</ele>
        <time>2024-09-21T13:28:32Z</time>
      </trkpt>
      <trkpt lat="42.43154" lon="2.78611">
        <ele>583</ele>
        <time>2024-09-21T13:28:35Z</time>
      </trkpt>
      <trkpt lat="42.43151" lon="2.78608">
        <ele>584</ele>
        <time>2024-09-21T13:28:39Z</time>
      </trkpt>
      <trkpt lat="42.43148" lon="2.78606">
        <ele>583</ele>
        <time>2024-09-21T13:28:42Z</time>
      </trkpt>
      <trkpt lat="42.43146" lon="2.78602">
        <ele>580</ele>
        <time>2024-09-21T13:28:45Z</time>
      </trkpt>
      <trkpt lat="42.43145" lon="2.78598">
        <ele>578</ele>
        <time>2024-09-21T13:28:48Z</time>
      </trkpt>
      <trkpt lat="42.43144" lon="2.78594">
        <ele>577</ele>
        <time>2024-09-21T13:28:50Z</time>
      </trkpt>
      <trkpt lat="42.43143" lon="2.78591">
        <ele>576</ele>
        <time>2024-09-21T13:28:53Z</time>
      </trkpt>
      <trkpt lat="42.43141" lon="2.78588">
        <ele>576</ele>
        <time>2024-09-21T13:28:55Z</time>
      </trkpt>
      <trkpt lat="42.43141" lon="2.78584">
        <ele>576</ele>
        <time>2024-09-21T13:28:57Z</time>
      </trkpt>
      <trkpt lat="42.43139" lon="2.78581">
        <ele>575</ele>
        <time>2024-09-21T13:29:00Z</time>
      </trkpt>
      <trkpt lat="42.43137" lon="2.78577">
        <ele>576</ele>
        <time>2024-09-21T13:29:02Z</time>
      </trkpt>
      <trkpt lat="42.43134" lon="2.78575">
        <ele>575</ele>
        <time>2024-09-21T13:29:06Z</time>
      </trkpt>
      <trkpt lat="42.43132" lon="2.78573">
        <ele>575</ele>
        <time>2024-09-21T13:29:08Z</time>
      </trkpt>
      <trkpt lat="42.43128" lon="2.78572">
        <ele>576</ele>
        <time>2024-09-21T13:29:10Z</time>
      </trkpt>
      <trkpt lat="42.43124" lon="2.78571">
        <ele>575</ele>
        <time>2024-09-21T13:29:13Z</time>
      </trkpt>
      <trkpt lat="42.43121" lon="2.78572">
        <ele>575</ele>
        <time>2024-09-21T13:29:16Z</time>
      </trkpt>
      <trkpt lat="42.43117" lon="2.78573">
        <ele>576</ele>
        <time>2024-09-21T13:29:19Z</time>
      </trkpt>
      <trkpt lat="42.43114" lon="2.78574">
        <ele>576</ele>
        <time>2024-09-21T13:29:21Z</time>
      </trkpt>
      <trkpt lat="42.43111" lon="2.78576">
        <ele>578</ele>
        <time>2024-09-21T13:29:23Z</time>
      </trkpt>
      <trkpt lat="42.43107" lon="2.78578">
        <ele>577</ele>
        <time>2024-09-21T13:29:26Z</time>
      </trkpt>
      <trkpt lat="42.43104" lon="2.78578">
        <ele>576</ele>
        <time>2024-09-21T13:29:30Z</time>
      </trkpt>
      <trkpt lat="42.43101" lon="2.7858">
        <ele>576</ele>
        <time>2024-09-21T13:29:32Z</time>
      </trkpt>
      <trkpt lat="42.43098" lon="2.7858">
        <ele>577</ele>
        <time>2024-09-21T13:29:34Z</time>
      </trkpt>
      <trkpt lat="42.43095" lon="2.78581">
        <ele>577</ele>
        <time>2024-09-21T13:29:36Z</time>
      </trkpt>
      <trkpt lat="42.43092" lon="2.78582">
        <ele>577</ele>
        <time>2024-09-21T13:29:39Z</time>
      </trkpt>
      <trkpt lat="42.43089" lon="2.78583">
        <ele>575</ele>
        <time>2024-09-21T13:29:42Z</time>
      </trkpt>
      <trkpt lat="42.43086" lon="2.78583">
        <ele>576</ele>
        <time>2024-09-21T13:29:44Z</time>
      </trkpt>
      <trkpt lat="42.43083" lon="2.78583">
        <ele>575</ele>
        <time>2024-09-21T13:29:46Z</time>
      </trkpt>
      <trkpt lat="42.4308" lon="2.78583">
        <ele>574</ele>
        <time>2024-09-21T13:29:49Z</time>
      </trkpt>
      <trkpt lat="42.43077" lon="2.78582">
        <ele>575</ele>
        <time>2024-09-21T13:29:52Z</time>
      </trkpt>
      <trkpt lat="42.43073" lon="2.78581">
        <ele>574</ele>
        <time>2024-09-21T13:29:56Z</time>
      </trkpt>
      <trkpt lat="42.4307" lon="2.7858">
        <ele>574</ele>
        <time>2024-09-21T13:29:58Z</time>
      </trkpt>
      <trkpt lat="42.43067" lon="2.78579">
        <ele>574</ele>
        <time>2024-09-21T13:30:01Z</time>
      </trkpt>
      <trkpt lat="42.43064" lon="2.78577">
        <ele>573</ele>
        <time>2024-09-21T13:30:03Z</time>
      </trkpt>
      <trkpt lat="42.4306" lon="2.78576">
        <ele>573</ele>
        <time>2024-09-21T13:30:06Z</time>
      </trkpt>
      <trkpt lat="42.43056" lon="2.78576">
        <ele>573</ele>
        <time>2024-09-21T13:30:09Z</time>
      </trkpt>
      <trkpt lat="42.43053" lon="2.78575">
        <ele>572</ele>
        <time>2024-09-21T13:30:11Z</time>
      </trkpt>
      <trkpt lat="42.43049" lon="2.78576">
        <ele>574</ele>
        <time>2024-09-21T13:30:13Z</time>
      </trkpt>
      <trkpt lat="42.43046" lon="2.78576">
        <ele>573</ele>
        <time>2024-09-21T13:30:15Z</time>
      </trkpt>
      <trkpt lat="42.43043" lon="2.78575">
        <ele>572</ele>
        <time>2024-09-21T13:30:18Z</time>
      </trkpt>
      <trkpt lat="42.4304" lon="2.78575">
        <ele>571</ele>
        <time>2024-09-21T13:30:20Z</time>
      </trkpt>
      <trkpt lat="42.43037" lon="2.78574">
        <ele>570</ele>
        <time>2024-09-21T13:30:23Z</time>
      </trkpt>
      <trkpt lat="42.43034" lon="2.78573">
        <ele>570</ele>
        <time>2024-09-21T13:30:25Z</time>
      </trkpt>
      <trkpt lat="42.43032" lon="2.7857">
        <ele>567</ele>
        <time>2024-09-21T13:30:29Z</time>
      </trkpt>
      <trkpt lat="42.43029" lon="2.78567">
        <ele>568</ele>
        <time>2024-09-21T13:30:31Z</time>
      </trkpt>
      <trkpt lat="42.43028" lon="2.78564">
        <ele>566</ele>
        <time>2024-09-21T13:30:33Z</time>
      </trkpt>
      <trkpt lat="42.43027" lon="2.78559">
        <ele>568</ele>
        <time>2024-09-21T13:30:36Z</time>
      </trkpt>
      <trkpt lat="42.43027" lon="2.78555">
        <ele>564</ele>
        <time>2024-09-21T13:30:39Z</time>
      </trkpt>
      <trkpt lat="42.43026" lon="2.78551">
        <ele>565</ele>
        <time>2024-09-21T13:30:41Z</time>
      </trkpt>
      <trkpt lat="42.43026" lon="2.78546">
        <ele>565</ele>
        <time>2024-09-21T13:30:44Z</time>
      </trkpt>
      <trkpt lat="42.43026" lon="2.78542">
        <ele>565</ele>
        <time>2024-09-21T13:30:46Z</time>
      </trkpt>
      <trkpt lat="42.43025" lon="2.78538">
        <ele>565</ele>
        <time>2024-09-21T13:30:49Z</time>
      </trkpt>
      <trkpt lat="42.43023" lon="2.78533">
        <ele>564</ele>
        <time>2024-09-21T13:30:53Z</time>
      </trkpt>
      <trkpt lat="42.43022" lon="2.78529">
        <ele>565</ele>
        <time>2024-09-21T13:30:56Z</time>
      </trkpt>
      <trkpt lat="42.4302" lon="2.78525">
        <ele>566</ele>
        <time>2024-09-21T13:30:58Z</time>
      </trkpt>
      <trkpt lat="42.43018" lon="2.78522">
        <ele>564</ele>
        <time>2024-09-21T13:31:00Z</time>
      </trkpt>
      <trkpt lat="42.43016" lon="2.78519">
        <ele>566</ele>
        <time>2024-09-21T13:31:02Z</time>
      </trkpt>
      <trkpt lat="42.43013" lon="2.78516">
        <ele>566</ele>
        <time>2024-09-21T13:31:05Z</time>
      </trkpt>
      <trkpt lat="42.43009" lon="2.78514">
        <ele>565</ele>
        <time>2024-09-21T13:31:08Z</time>
      </trkpt>
      <trkpt lat="42.43006" lon="2.7851">
        <ele>566</ele>
        <time>2024-09-21T13:31:11Z</time>
      </trkpt>
      <trkpt lat="42.43004" lon="2.78507">
        <ele>565</ele>
        <time>2024-09-21T13:31:13Z</time>
      </trkpt>
      <trkpt lat="42.43001" lon="2.78505">
        <ele>564</ele>
        <time>2024-09-21T13:31:14Z</time>
      </trkpt>
      <trkpt lat="42.42998" lon="2.78503">
        <ele>565</ele>
        <time>2024-09-21T13:31:17Z</time>
      </trkpt>
      <trkpt lat="42.42995" lon="2.78501">
        <ele>564</ele>
        <time>2024-09-21T13:31:20Z</time>
      </trkpt>
      <trkpt lat="42.42992" lon="2.78501">
        <ele>564</ele>
        <time>2024-09-21T13:31:22Z</time>
      </trkpt>
      <trkpt lat="42.42989" lon="2.78502">
        <ele>564</ele>
        <time>2024-09-21T13:31:24Z</time>
      </trkpt>
      <trkpt lat="42.42986" lon="2.78504">
        <ele>564</ele>
        <time>2024-09-21T13:31:27Z</time>
      </trkpt>
      <trkpt lat="42.42983" lon="2.78507">
        <ele>564</ele>
        <time>2024-09-21T13:31:30Z</time>
      </trkpt>
      <trkpt lat="42.42981" lon="2.78511">
        <ele>563</ele>
        <time>2024-09-21T13:31:32Z</time>
      </trkpt>
      <trkpt lat="42.4298" lon="2.78514">
        <ele>564</ele>
        <time>2024-09-21T13:31:34Z</time>
      </trkpt>
      <trkpt lat="42.42978" lon="2.78519">
        <ele>562</ele>
        <time>2024-09-21T13:31:37Z</time>
      </trkpt>
      <trkpt lat="42.42977" lon="2.78522">
        <ele>562</ele>
        <time>2024-09-21T13:31:39Z</time>
      </trkpt>
      <trkpt lat="42.42975" lon="2.78526">
        <ele>562</ele>
        <time>2024-09-21T13:31:42Z</time>
      </trkpt>
      <trkpt lat="42.42973" lon="2.78529">
        <ele>562</ele>
        <time>2024-09-21T13:31:44Z</time>
      </trkpt>
      <trkpt lat="42.42971" lon="2.78533">
        <ele>562</ele>
        <time>2024-09-21T13:31:47Z</time>
      </trkpt>
      <trkpt lat="42.42968" lon="2.78536">
        <ele>562</ele>
        <time>2024-09-21T13:31:50Z</time>
      </trkpt>
      <trkpt lat="42.42966" lon="2.78539">
        <ele>562</ele>
        <time>2024-09-21T13:31:52Z</time>
      </trkpt>
      <trkpt lat="42.42963" lon="2.7854">
        <ele>560</ele>
        <time>2024-09-21T13:31:55Z</time>
      </trkpt>
      <trkpt lat="42.4296" lon="2.78541">
        <ele>561</ele>
        <time>2024-09-21T13:31:57Z</time>
      </trkpt>
      <trkpt lat="42.42957" lon="2.78541">
        <ele>560</ele>
        <time>2024-09-21T13:32:00Z</time>
      </trkpt>
      <trkpt lat="42.42954" lon="2.78541">
        <ele>561</ele>
        <time>2024-09-21T13:32:03Z</time>
      </trkpt>
      <trkpt lat="42.4295" lon="2.7854">
        <ele>560</ele>
        <time>2024-09-21T13:32:06Z</time>
      </trkpt>
      <trkpt lat="42.42947" lon="2.78539">
        <ele>560</ele>
        <time>2024-09-21T13:32:08Z</time>
      </trkpt>
      <trkpt lat="42.42943" lon="2.78537">
        <ele>561</ele>
        <time>2024-09-21T13:32:11Z</time>
      </trkpt>
      <trkpt lat="42.4294" lon="2.78535">
        <ele>563</ele>
        <time>2024-09-21T13:32:13Z</time>
      </trkpt>
      <trkpt lat="42.42938" lon="2.78534">
        <ele>562</ele>
        <time>2024-09-21T13:32:15Z</time>
      </trkpt>
      <trkpt lat="42.42935" lon="2.78532">
        <ele>561</ele>
        <time>2024-09-21T13:32:17Z</time>
      </trkpt>
      <trkpt lat="42.42932" lon="2.78531">
        <ele>561</ele>
        <time>2024-09-21T13:32:20Z</time>
      </trkpt>
      <trkpt lat="42.42928" lon="2.7853">
        <ele>562</ele>
        <time>2024-09-21T13:32:22Z</time>
      </trkpt>
      <trkpt lat="42.42925" lon="2.78529">
        <ele>562</ele>
        <time>2024-09-21T13:32:25Z</time>
      </trkpt>
      <trkpt lat="42.42921" lon="2.78529">
        <ele>561</ele>
        <time>2024-09-21T13:32:28Z</time>
      </trkpt>
      <trkpt lat="42.42918" lon="2.7853">
        <ele>562</ele>
        <time>2024-09-21T13:32:30Z</time>
      </trkpt>
      <trkpt lat="42.42914" lon="2.78529">
        <ele>561</ele>
        <time>2024-09-21T13:32:33Z</time>
      </trkpt>
      <trkpt lat="42.42911" lon="2.78528">
        <ele>561</ele>
        <time>2024-09-21T13:32:35Z</time>
      </trkpt>
      <trkpt lat="42.42908" lon="2.78526">
        <ele>561</ele>
        <time>2024-09-21T13:32:37Z</time>
      </trkpt>
      <trkpt lat="42.42905" lon="2.78524">
        <ele>560</ele>
        <time>2024-09-21T13:32:40Z</time>
      </trkpt>
      <trkpt lat="42.42902" lon="2.78523">
        <ele>560</ele>
        <time>2024-09-21T13:32:42Z</time>
      </trkpt>
      <trkpt lat="42.42899" lon="2.78521">
        <ele>560</ele>
        <time>2024-09-21T13:32:45Z</time>
      </trkpt>
      <trkpt lat="42.42896" lon="2.78519">
        <ele>561</ele>
        <time>2024-09-21T13:32:47Z</time>
      </trkpt>
      <trkpt lat="42.42894" lon="2.78516">
        <ele>561</ele>
        <time>2024-09-21T13:32:50Z</time>
      </trkpt>
      <trkpt lat="42.42891" lon="2.78514">
        <ele>561</ele>
        <time>2024-09-21T13:32:53Z</time>
      </trkpt>
      <trkpt lat="42.42889" lon="2.78511">
        <ele>560</ele>
        <time>2024-09-21T13:32:56Z</time>
      </trkpt>
      <trkpt lat="42.42886" lon="2.78509">
        <ele>561</ele>
        <time>2024-09-21T13:32:59Z</time>
      </trkpt>
      <trkpt lat="42.42884" lon="2.78508">
        <ele>558</ele>
        <time>2024-09-21T13:33:04Z</time>
      </trkpt>
      <trkpt lat="42.4288" lon="2.78506">
        <ele>559</ele>
        <time>2024-09-21T13:33:08Z</time>
      </trkpt>
      <trkpt lat="42.42877" lon="2.78505">
        <ele>558</ele>
        <time>2024-09-21T13:33:10Z</time>
      </trkpt>
      <trkpt lat="42.42874" lon="2.78504">
        <ele>559</ele>
        <time>2024-09-21T13:33:12Z</time>
      </trkpt>
      <trkpt lat="42.42871" lon="2.78502">
        <ele>557</ele>
        <time>2024-09-21T13:33:15Z</time>
      </trkpt>
      <trkpt lat="42.42869" lon="2.785">
        <ele>557</ele>
        <time>2024-09-21T13:33:18Z</time>
      </trkpt>
      <trkpt lat="42.42866" lon="2.78499">
        <ele>557</ele>
        <time>2024-09-21T13:33:19Z</time>
      </trkpt>
      <trkpt lat="42.42862" lon="2.78498">
        <ele>557</ele>
        <time>2024-09-21T13:33:21Z</time>
      </trkpt>
      <trkpt lat="42.42859" lon="2.78499">
        <ele>557</ele>
        <time>2024-09-21T13:33:25Z</time>
      </trkpt>
      <trkpt lat="42.42855" lon="2.78498">
        <ele>558</ele>
        <time>2024-09-21T13:33:27Z</time>
      </trkpt>
      <trkpt lat="42.42852" lon="2.78499">
        <ele>557</ele>
        <time>2024-09-21T13:33:30Z</time>
      </trkpt>
      <trkpt lat="42.42849" lon="2.78498">
        <ele>557</ele>
        <time>2024-09-21T13:33:32Z</time>
      </trkpt>
      <trkpt lat="42.42845" lon="2.78499">
        <ele>556</ele>
        <time>2024-09-21T13:33:35Z</time>
      </trkpt>
      <trkpt lat="42.42842" lon="2.78498">
        <ele>556</ele>
        <time>2024-09-21T13:33:37Z</time>
      </trkpt>
      <trkpt lat="42.42839" lon="2.78498">
        <ele>556</ele>
        <time>2024-09-21T13:33:39Z</time>
      </trkpt>
      <trkpt lat="42.42836" lon="2.78497">
        <ele>556</ele>
        <time>2024-09-21T13:33:42Z</time>
      </trkpt>
      <trkpt lat="42.42833" lon="2.78496">
        <ele>556</ele>
        <time>2024-09-21T13:33:44Z</time>
      </trkpt>
      <trkpt lat="42.4283" lon="2.78495">
        <ele>557</ele>
        <time>2024-09-21T13:33:47Z</time>
      </trkpt>
      <trkpt lat="42.42827" lon="2.78494">
        <ele>556</ele>
        <time>2024-09-21T13:33:50Z</time>
      </trkpt>
      <trkpt lat="42.42823" lon="2.78492">
        <ele>556</ele>
        <time>2024-09-21T13:33:53Z</time>
      </trkpt>
      <trkpt lat="42.4282" lon="2.78491">
        <ele>556</ele>
        <time>2024-09-21T13:33:55Z</time>
      </trkpt>
      <trkpt lat="42.42818" lon="2.7849">
        <ele>557</ele>
        <time>2024-09-21T13:33:57Z</time>
      </trkpt>
      <trkpt lat="42.42815" lon="2.78488">
        <ele>554</ele>
        <time>2024-09-21T13:34:00Z</time>
      </trkpt>
      <trkpt lat="42.42812" lon="2.78487">
        <ele>554</ele>
        <time>2024-09-21T13:34:03Z</time>
      </trkpt>
      <trkpt lat="42.42809" lon="2.78485">
        <ele>553</ele>
        <time>2024-09-21T13:34:05Z</time>
      </trkpt>
      <trkpt lat="42.42806" lon="2.78484">
        <ele>553</ele>
        <time>2024-09-21T13:34:08Z</time>
      </trkpt>
      <trkpt lat="42.42803" lon="2.78482">
        <ele>553</ele>
        <time>2024-09-21T13:34:11Z</time>
      </trkpt>
      <trkpt lat="42.428" lon="2.78481">
        <ele>553</ele>
        <time>2024-09-21T13:34:13Z</time>
      </trkpt>
      <trkpt lat="42.42797" lon="2.7848">
        <ele>553</ele>
        <time>2024-09-21T13:34:16Z</time>
      </trkpt>
      <trkpt lat="42.42793" lon="2.78479">
        <ele>551</ele>
        <time>2024-09-21T13:34:22Z</time>
      </trkpt>
      <trkpt lat="42.4279" lon="2.78478">
        <ele>550</ele>
        <time>2024-09-21T13:34:24Z</time>
      </trkpt>
      <trkpt lat="42.42787" lon="2.78477">
        <ele>550</ele>
        <time>2024-09-21T13:34:27Z</time>
      </trkpt>
      <trkpt lat="42.42784" lon="2.78475">
        <ele>549</ele>
        <time>2024-09-21T13:34:35Z</time>
      </trkpt>
      <trkpt lat="42.42781" lon="2.78473">
        <ele>549</ele>
        <time>2024-09-21T13:34:38Z</time>
      </trkpt>
      <trkpt lat="42.42778" lon="2.7847">
        <ele>548</ele>
        <time>2024-09-21T13:34:41Z</time>
      </trkpt>
      <trkpt lat="42.42775" lon="2.78468">
        <ele>548</ele>
        <time>2024-09-21T13:34:44Z</time>
      </trkpt>
      <trkpt lat="42.42772" lon="2.78466">
        <ele>546</ele>
        <time>2024-09-21T13:34:48Z</time>
      </trkpt>
      <trkpt lat="42.42769" lon="2.78463">
        <ele>549</ele>
        <time>2024-09-21T13:34:51Z</time>
      </trkpt>
      <trkpt lat="42.42767" lon="2.78459">
        <ele>546</ele>
        <time>2024-09-21T13:34:55Z</time>
      </trkpt>
      <trkpt lat="42.42764" lon="2.78456">
        <ele>546</ele>
        <time>2024-09-21T13:34:59Z</time>
      </trkpt>
      <trkpt lat="42.42761" lon="2.78453">
        <ele>546</ele>
        <time>2024-09-21T13:35:02Z</time>
      </trkpt>
      <trkpt lat="42.42758" lon="2.78452">
        <ele>547</ele>
        <time>2024-09-21T13:35:04Z</time>
      </trkpt>
      <trkpt lat="42.42755" lon="2.78451">
        <ele>547</ele>
        <time>2024-09-21T13:35:06Z</time>
      </trkpt>
      <trkpt lat="42.42752" lon="2.78448">
        <ele>546</ele>
        <time>2024-09-21T13:35:09Z</time>
      </trkpt>
      <trkpt lat="42.42749" lon="2.78445">
        <ele>545</ele>
        <time>2024-09-21T13:35:12Z</time>
      </trkpt>
      <trkpt lat="42.42746" lon="2.78442">
        <ele>545</ele>
        <time>2024-09-21T13:35:15Z</time>
      </trkpt>
      <trkpt lat="42.42742" lon="2.78439">
        <ele>545</ele>
        <time>2024-09-21T13:35:18Z</time>
      </trkpt>
      <trkpt lat="42.42739" lon="2.78438">
        <ele>544</ele>
        <time>2024-09-21T13:35:21Z</time>
      </trkpt>
      <trkpt lat="42.42736" lon="2.78437">
        <ele>544</ele>
        <time>2024-09-21T13:35:23Z</time>
      </trkpt>
      <trkpt lat="42.42733" lon="2.78434">
        <ele>545</ele>
        <time>2024-09-21T13:35:26Z</time>
      </trkpt>
      <trkpt lat="42.42729" lon="2.78433">
        <ele>546</ele>
        <time>2024-09-21T13:35:27Z</time>
      </trkpt>
      <trkpt lat="42.42726" lon="2.78431">
        <ele>545</ele>
        <time>2024-09-21T13:35:30Z</time>
      </trkpt>
      <trkpt lat="42.42723" lon="2.78429">
        <ele>545</ele>
        <time>2024-09-21T13:35:33Z</time>
      </trkpt>
      <trkpt lat="42.4272" lon="2.78427">
        <ele>546</ele>
        <time>2024-09-21T13:35:35Z</time>
      </trkpt>
      <trkpt lat="42.42717" lon="2.78427">
        <ele>545</ele>
        <time>2024-09-21T13:35:38Z</time>
      </trkpt>
      <trkpt lat="42.42713" lon="2.78427">
        <ele>546</ele>
        <time>2024-09-21T13:35:40Z</time>
      </trkpt>
      <trkpt lat="42.4271" lon="2.78427">
        <ele>546</ele>
        <time>2024-09-21T13:35:42Z</time>
      </trkpt>
      <trkpt lat="42.42706" lon="2.78427">
        <ele>546</ele>
        <time>2024-09-21T13:35:45Z</time>
      </trkpt>
      <trkpt lat="42.42702" lon="2.78428">
        <ele>546</ele>
        <time>2024-09-21T13:35:48Z</time>
      </trkpt>
      <trkpt lat="42.42698" lon="2.78429">
        <ele>545</ele>
        <time>2024-09-21T13:35:50Z</time>
      </trkpt>
      <trkpt lat="42.42695" lon="2.7843">
        <ele>546</ele>
        <time>2024-09-21T13:35:52Z</time>
      </trkpt>
      <trkpt lat="42.42692" lon="2.78432">
        <ele>545</ele>
        <time>2024-09-21T13:35:54Z</time>
      </trkpt>
      <trkpt lat="42.42688" lon="2.78434">
        <ele>545</ele>
        <time>2024-09-21T13:35:57Z</time>
      </trkpt>
      <trkpt lat="42.42685" lon="2.78436">
        <ele>545</ele>
        <time>2024-09-21T13:36:00Z</time>
      </trkpt>
      <trkpt lat="42.42682" lon="2.78439">
        <ele>544</ele>
        <time>2024-09-21T13:36:03Z</time>
      </trkpt>
      <trkpt lat="42.4268" lon="2.78441">
        <ele>543</ele>
        <time>2024-09-21T13:36:06Z</time>
      </trkpt>
      <trkpt lat="42.42677" lon="2.78445">
        <ele>543</ele>
        <time>2024-09-21T13:36:09Z</time>
      </trkpt>
      <trkpt lat="42.42674" lon="2.78447">
        <ele>542</ele>
        <time>2024-09-21T13:36:11Z</time>
      </trkpt>
      <trkpt lat="42.42672" lon="2.7845">
        <ele>542</ele>
        <time>2024-09-21T13:36:14Z</time>
      </trkpt>
      <trkpt lat="42.42669" lon="2.78452">
        <ele>540</ele>
        <time>2024-09-21T13:36:16Z</time>
      </trkpt>
      <trkpt lat="42.42666" lon="2.78454">
        <ele>541</ele>
        <time>2024-09-21T13:36:19Z</time>
      </trkpt>
      <trkpt lat="42.42663" lon="2.78454">
        <ele>541</ele>
        <time>2024-09-21T13:36:22Z</time>
      </trkpt>
      <trkpt lat="42.42659" lon="2.78453">
        <ele>541</ele>
        <time>2024-09-21T13:36:25Z</time>
      </trkpt>
      <trkpt lat="42.42656" lon="2.7845">
        <ele>541</ele>
        <time>2024-09-21T13:36:33Z</time>
      </trkpt>
      <trkpt lat="42.42653" lon="2.78448">
        <ele>539</ele>
        <time>2024-09-21T13:36:37Z</time>
      </trkpt>
      <trkpt lat="42.4265" lon="2.78445">
        <ele>539</ele>
        <time>2024-09-21T13:36:40Z</time>
      </trkpt>
      <trkpt lat="42.42646" lon="2.78443">
        <ele>538</ele>
        <time>2024-09-21T13:36:43Z</time>
      </trkpt>
      <trkpt lat="42.42643" lon="2.78441">
        <ele>539</ele>
        <time>2024-09-21T13:36:46Z</time>
      </trkpt>
      <trkpt lat="42.4264" lon="2.78439">
        <ele>539</ele>
        <time>2024-09-21T13:36:48Z</time>
      </trkpt>
      <trkpt lat="42.42637" lon="2.78438">
        <ele>539</ele>
        <time>2024-09-21T13:36:51Z</time>
      </trkpt>
      <trkpt lat="42.42633" lon="2.78439">
        <ele>537</ele>
        <time>2024-09-21T13:36:54Z</time>
      </trkpt>
      <trkpt lat="42.42629" lon="2.7844">
        <ele>538</ele>
        <time>2024-09-21T13:36:57Z</time>
      </trkpt>
      <trkpt lat="42.42626" lon="2.78443">
        <ele>538</ele>
        <time>2024-09-21T13:37:01Z</time>
      </trkpt>
      <trkpt lat="42.42623" lon="2.78445">
        <ele>539</ele>
        <time>2024-09-21T13:37:04Z</time>
      </trkpt>
      <trkpt lat="42.42621" lon="2.78449">
        <ele>539</ele>
        <time>2024-09-21T13:37:07Z</time>
      </trkpt>
      <trkpt lat="42.42619" lon="2.78453">
        <ele>539</ele>
        <time>2024-09-21T13:37:11Z</time>
      </trkpt>
      <trkpt lat="42.42618" lon="2.78457">
        <ele>539</ele>
        <time>2024-09-21T13:37:13Z</time>
      </trkpt>
      <trkpt lat="42.42616" lon="2.7846">
        <ele>540</ele>
        <time>2024-09-21T13:37:17Z</time>
      </trkpt>
      <trkpt lat="42.42616" lon="2.78464">
        <ele>539</ele>
        <time>2024-09-21T13:37:21Z</time>
      </trkpt>
      <trkpt lat="42.42617" lon="2.78468">
        <ele>538</ele>
        <time>2024-09-21T13:37:24Z</time>
      </trkpt>
      <trkpt lat="42.42618" lon="2.78472">
        <ele>539</ele>
        <time>2024-09-21T13:37:27Z</time>
      </trkpt>
      <trkpt lat="42.42619" lon="2.78477">
        <ele>540</ele>
        <time>2024-09-21T13:37:31Z</time>
      </trkpt>
      <trkpt lat="42.42621" lon="2.78482">
        <ele>539</ele>
        <time>2024-09-21T13:37:33Z</time>
      </trkpt>
      <trkpt lat="42.42624" lon="2.78485">
        <ele>540</ele>
        <time>2024-09-21T13:37:37Z</time>
      </trkpt>
      <trkpt lat="42.42627" lon="2.78486">
        <ele>540</ele>
        <time>2024-09-21T13:37:49Z</time>
      </trkpt>
      <trkpt lat="42.4263" lon="2.78489">
        <ele>540</ele>
        <time>2024-09-21T13:37:56Z</time>
      </trkpt>
      <trkpt lat="42.42631" lon="2.78492">
        <ele>541</ele>
        <time>2024-09-21T13:37:59Z</time>
      </trkpt>
      <trkpt lat="42.42633" lon="2.78496">
        <ele>540</ele>
        <time>2024-09-21T13:38:02Z</time>
      </trkpt>
      <trkpt lat="42.42636" lon="2.78498">
        <ele>540</ele>
        <time>2024-09-21T13:38:04Z</time>
      </trkpt>
      <trkpt lat="42.42638" lon="2.785">
        <ele>539</ele>
        <time>2024-09-21T13:38:07Z</time>
      </trkpt>
      <trkpt lat="42.42641" lon="2.78503">
        <ele>541</ele>
        <time>2024-09-21T13:38:10Z</time>
      </trkpt>
      <trkpt lat="42.42643" lon="2.78506">
        <ele>540</ele>
        <time>2024-09-21T13:38:13Z</time>
      </trkpt>
      <trkpt lat="42.42645" lon="2.78509">
        <ele>539</ele>
        <time>2024-09-21T13:38:16Z</time>
      </trkpt>
      <trkpt lat="42.42648" lon="2.78512">
        <ele>539</ele>
        <time>2024-09-21T13:38:19Z</time>
      </trkpt>
      <trkpt lat="42.42649" lon="2.78516">
        <ele>539</ele>
        <time>2024-09-21T13:38:22Z</time>
      </trkpt>
      <trkpt lat="42.42651" lon="2.7852">
        <ele>540</ele>
        <time>2024-09-21T13:38:25Z</time>
      </trkpt>
      <trkpt lat="42.42652" lon="2.78525">
        <ele>539</ele>
        <time>2024-09-21T13:38:28Z</time>
      </trkpt>
      <trkpt lat="42.42653" lon="2.78529">
        <ele>540</ele>
        <time>2024-09-21T13:38:31Z</time>
      </trkpt>
      <trkpt lat="42.42654" lon="2.78534">
        <ele>540</ele>
        <time>2024-09-21T13:38:34Z</time>
      </trkpt>
      <trkpt lat="42.42655" lon="2.78538">
        <ele>540</ele>
        <time>2024-09-21T13:38:37Z</time>
      </trkpt>
      <trkpt lat="42.42656" lon="2.78542">
        <ele>541</ele>
        <time>2024-09-21T13:38:41Z</time>
      </trkpt>
      <trkpt lat="42.42658" lon="2.78545">
        <ele>541</ele>
        <time>2024-09-21T13:38:44Z</time>
      </trkpt>
      <trkpt lat="42.42659" lon="2.78549">
        <ele>541</ele>
        <time>2024-09-21T13:38:57Z</time>
      </trkpt>
      <trkpt lat="42.42661" lon="2.78552">
        <ele>541</ele>
        <time>2024-09-21T13:39:00Z</time>
      </trkpt>
      <trkpt lat="42.42664" lon="2.78555">
        <ele>541</ele>
        <time>2024-09-21T13:39:02Z</time>
      </trkpt>
      <trkpt lat="42.42666" lon="2.78558">
        <ele>542</ele>
        <time>2024-09-21T13:39:05Z</time>
      </trkpt>
      <trkpt lat="42.42669" lon="2.78562">
        <ele>540</ele>
        <time>2024-09-21T13:39:10Z</time>
      </trkpt>
      <trkpt lat="42.42671" lon="2.78566">
        <ele>541</ele>
        <time>2024-09-21T13:39:12Z</time>
      </trkpt>
      <trkpt lat="42.42673" lon="2.78569">
        <ele>540</ele>
        <time>2024-09-21T13:39:14Z</time>
      </trkpt>
      <trkpt lat="42.42675" lon="2.78572">
        <ele>541</ele>
        <time>2024-09-21T13:39:17Z</time>
      </trkpt>
      <trkpt lat="42.42676" lon="2.78577">
        <ele>541</ele>
        <time>2024-09-21T13:39:21Z</time>
      </trkpt>
      <trkpt lat="42.42676" lon="2.78582">
        <ele>541</ele>
        <time>2024-09-21T13:39:24Z</time>
      </trkpt>
      <trkpt lat="42.42676" lon="2.78586">
        <ele>542</ele>
        <time>2024-09-21T13:39:27Z</time>
      </trkpt>
      <trkpt lat="42.42677" lon="2.78591">
        <ele>544</ele>
        <time>2024-09-21T13:39:31Z</time>
      </trkpt>
      <trkpt lat="42.42676" lon="2.78595">
        <ele>542</ele>
        <time>2024-09-21T13:39:33Z</time>
      </trkpt>
      <trkpt lat="42.42674" lon="2.78599">
        <ele>543</ele>
        <time>2024-09-21T13:39:35Z</time>
      </trkpt>
      <trkpt lat="42.42673" lon="2.78603">
        <ele>542</ele>
        <time>2024-09-21T13:39:38Z</time>
      </trkpt>
      <trkpt lat="42.4267" lon="2.78606">
        <ele>543</ele>
        <time>2024-09-21T13:39:40Z</time>
      </trkpt>
      <trkpt lat="42.42668" lon="2.78607">
        <ele>543</ele>
        <time>2024-09-21T13:39:43Z</time>
      </trkpt>
      <trkpt lat="42.42665" lon="2.78609">
        <ele>544</ele>
        <time>2024-09-21T13:39:54Z</time>
      </trkpt>
      <trkpt lat="42.42663" lon="2.78607">
        <ele>544</ele>
        <time>2024-09-21T13:40:00Z</time>
      </trkpt>
      <trkpt lat="42.42661" lon="2.78605">
        <ele>544</ele>
        <time>2024-09-21T13:40:02Z</time>
      </trkpt>
      <trkpt lat="42.42658" lon="2.78604">
        <ele>545</ele>
        <time>2024-09-21T13:40:05Z</time>
      </trkpt>
      <trkpt lat="42.42655" lon="2.78603">
        <ele>544</ele>
        <time>2024-09-21T13:40:08Z</time>
      </trkpt>
      <trkpt lat="42.42651" lon="2.78602">
        <ele>544</ele>
        <time>2024-09-21T13:40:11Z</time>
      </trkpt>
      <trkpt lat="42.42648" lon="2.78602">
        <ele>543</ele>
        <time>2024-09-21T13:40:14Z</time>
      </trkpt>
      <trkpt lat="42.42644" lon="2.78602">
        <ele>544</ele>
        <time>2024-09-21T13:40:17Z</time>
      </trkpt>
      <trkpt lat="42.42641" lon="2.78602">
        <ele>543</ele>
        <time>2024-09-21T13:40:21Z</time>
      </trkpt>
      <trkpt lat="42.42641" lon="2.78604">
        <ele>543</ele>
        <time>2024-09-21T13:40:26Z</time>
      </trkpt>
      <trkpt lat="42.42642" lon="2.78607">
        <ele>542</ele>
        <time>2024-09-21T13:40:33Z</time>
      </trkpt>
      <trkpt lat="42.42641" lon="2.78606">
        <ele>540</ele>
        <time>2024-09-21T13:40:55Z</time>
      </trkpt>
      <trkpt lat="42.42639" lon="2.78605">
        <ele>540</ele>
        <time>2024-09-21T13:40:57Z</time>
      </trkpt>
      <trkpt lat="42.42636" lon="2.78604">
        <ele>541</ele>
        <time>2024-09-21T13:40:59Z</time>
      </trkpt>
      <trkpt lat="42.42633" lon="2.78604">
        <ele>542</ele>
        <time>2024-09-21T13:41:02Z</time>
      </trkpt>
      <trkpt lat="42.4263" lon="2.78603">
        <ele>542</ele>
        <time>2024-09-21T13:41:04Z</time>
      </trkpt>
      <trkpt lat="42.42626" lon="2.78601">
        <ele>542</ele>
        <time>2024-09-21T13:41:06Z</time>
      </trkpt>
      <trkpt lat="42.42623" lon="2.786">
        <ele>543</ele>
        <time>2024-09-21T13:41:08Z</time>
      </trkpt>
      <trkpt lat="42.4262" lon="2.786">
        <ele>544</ele>
        <time>2024-09-21T13:41:10Z</time>
      </trkpt>
      <trkpt lat="42.42618" lon="2.786">
        <ele>544</ele>
        <time>2024-09-21T13:41:13Z</time>
      </trkpt>
      <trkpt lat="42.42615" lon="2.78598">
        <ele>546</ele>
        <time>2024-09-21T13:41:16Z</time>
      </trkpt>
      <trkpt lat="42.42612" lon="2.78595">
        <ele>546</ele>
        <time>2024-09-21T13:41:19Z</time>
      </trkpt>
      <trkpt lat="42.4261" lon="2.78592">
        <ele>546</ele>
        <time>2024-09-21T13:41:22Z</time>
      </trkpt>
      <trkpt lat="42.42609" lon="2.78588">
        <ele>546</ele>
        <time>2024-09-21T13:41:24Z</time>
      </trkpt>
      <trkpt lat="42.42608" lon="2.78584">
        <ele>545</ele>
        <time>2024-09-21T13:41:27Z</time>
      </trkpt>
      <trkpt lat="42.42607" lon="2.78579">
        <ele>546</ele>
        <time>2024-09-21T13:41:30Z</time>
      </trkpt>
      <trkpt lat="42.42606" lon="2.78575">
        <ele>546</ele>
        <time>2024-09-21T13:41:32Z</time>
      </trkpt>
      <trkpt lat="42.42605" lon="2.7857">
        <ele>546</ele>
        <time>2024-09-21T13:41:35Z</time>
      </trkpt>
      <trkpt lat="42.42605" lon="2.78566">
        <ele>546</ele>
        <time>2024-09-21T13:41:37Z</time>
      </trkpt>
      <trkpt lat="42.42604" lon="2.78562">
        <ele>546</ele>
        <time>2024-09-21T13:41:40Z</time>
      </trkpt>
      <trkpt lat="42.42603" lon="2.78558">
        <ele>546</ele>
        <time>2024-09-21T13:41:42Z</time>
      </trkpt>
      <trkpt lat="42.42602" lon="2.78554">
        <ele>547</ele>
        <time>2024-09-21T13:41:44Z</time>
      </trkpt>
      <trkpt lat="42.42601" lon="2.78549">
        <ele>548</ele>
        <time>2024-09-21T13:41:47Z</time>
      </trkpt>
      <trkpt lat="42.426" lon="2.78545">
        <ele>549</ele>
        <time>2024-09-21T13:41:49Z</time>
      </trkpt>
      <trkpt lat="42.42598" lon="2.7854">
        <ele>548</ele>
        <time>2024-09-21T13:41:53Z</time>
      </trkpt>
      <trkpt lat="42.42596" lon="2.78536">
        <ele>548</ele>
        <time>2024-09-21T13:41:56Z</time>
      </trkpt>
      <trkpt lat="42.42593" lon="2.78532">
        <ele>548</ele>
        <time>2024-09-21T13:41:59Z</time>
      </trkpt>
      <trkpt lat="42.4259" lon="2.78527">
        <ele>549</ele>
        <time>2024-09-21T13:42:02Z</time>
      </trkpt>
      <trkpt lat="42.42587" lon="2.78524">
        <ele>549</ele>
        <time>2024-09-21T13:42:05Z</time>
      </trkpt>
      <trkpt lat="42.42585" lon="2.78521">
        <ele>551</ele>
        <time>2024-09-21T13:42:07Z</time>
      </trkpt>
      <trkpt lat="42.42583" lon="2.78518">
        <ele>550</ele>
        <time>2024-09-21T13:42:10Z</time>
      </trkpt>
      <trkpt lat="42.4258" lon="2.78515">
        <ele>551</ele>
        <time>2024-09-21T13:42:13Z</time>
      </trkpt>
      <trkpt lat="42.42577" lon="2.78512">
        <ele>551</ele>
        <time>2024-09-21T13:42:16Z</time>
      </trkpt>
      <trkpt lat="42.42573" lon="2.7851">
        <ele>552</ele>
        <time>2024-09-21T13:42:19Z</time>
      </trkpt>
      <trkpt lat="42.4257" lon="2.78507">
        <ele>552</ele>
        <time>2024-09-21T13:42:22Z</time>
      </trkpt>
      <trkpt lat="42.42567" lon="2.78505">
        <ele>552</ele>
        <time>2024-09-21T13:42:24Z</time>
      </trkpt>
      <trkpt lat="42.42564" lon="2.78502">
        <ele>554</ele>
        <time>2024-09-21T13:42:26Z</time>
      </trkpt>
      <trkpt lat="42.42561" lon="2.785">
        <ele>553</ele>
        <time>2024-09-21T13:42:29Z</time>
      </trkpt>
      <trkpt lat="42.42558" lon="2.78497">
        <ele>554</ele>
        <time>2024-09-21T13:42:32Z</time>
      </trkpt>
      <trkpt lat="42.42555" lon="2.78494">
        <ele>553</ele>
        <time>2024-09-21T13:42:35Z</time>
      </trkpt>
      <trkpt lat="42.42552" lon="2.78492">
        <ele>553</ele>
        <time>2024-09-21T13:42:38Z</time>
      </trkpt>
      <trkpt lat="42.42549" lon="2.7849">
        <ele>553</ele>
        <time>2024-09-21T13:42:40Z</time>
      </trkpt>
      <trkpt lat="42.42547" lon="2.78487">
        <ele>555</ele>
        <time>2024-09-21T13:42:42Z</time>
      </trkpt>
      <trkpt lat="42.42544" lon="2.78485">
        <ele>554</ele>
        <time>2024-09-21T13:42:44Z</time>
      </trkpt>
      <trkpt lat="42.42542" lon="2.78482">
        <ele>554</ele>
        <time>2024-09-21T13:42:47Z</time>
      </trkpt>
      <trkpt lat="42.4254" lon="2.7848">
        <ele>553</ele>
        <time>2024-09-21T13:42:50Z</time>
      </trkpt>
      <trkpt lat="42.42537" lon="2.78476">
        <ele>554</ele>
        <time>2024-09-21T13:42:53Z</time>
      </trkpt>
      <trkpt lat="42.42537" lon="2.78473">
        <ele>554</ele>
        <time>2024-09-21T13:42:57Z</time>
      </trkpt>
      <trkpt lat="42.42537" lon="2.78469">
        <ele>553</ele>
        <time>2024-09-21T13:43:00Z</time>
      </trkpt>
      <trkpt lat="42.42539" lon="2.78466">
        <ele>552</ele>
        <time>2024-09-21T13:43:05Z</time>
      </trkpt>
      <trkpt lat="42.42542" lon="2.78464">
        <ele>552</ele>
        <time>2024-09-21T13:43:09Z</time>
      </trkpt>
      <trkpt lat="42.42549" lon="2.78466">
        <ele>553</ele>
        <time>2024-09-21T13:43:17Z</time>
      </trkpt>
      <trkpt lat="42.42549" lon="2.78466">
        <ele>552</ele>
        <time>2024-09-21T13:43:20Z</time>
      </trkpt>
      <trkpt lat="42.42547" lon="2.78464">
        <ele>553</ele>
        <time>2024-09-21T13:43:31Z</time>
      </trkpt>
      <trkpt lat="42.42545" lon="2.78465">
        <ele>553</ele>
        <time>2024-09-21T13:43:35Z</time>
      </trkpt>
      <trkpt lat="42.42545" lon="2.78464">
        <ele>552</ele>
        <time>2024-09-21T13:43:53Z</time>
      </trkpt>
      <trkpt lat="42.42548" lon="2.78463">
        <ele>550</ele>
        <time>2024-09-21T13:43:56Z</time>
      </trkpt>
      <trkpt lat="42.42547" lon="2.78454">
        <ele>548</ele>
        <time>2024-09-21T15:00:36Z</time>
      </trkpt>
      <trkpt lat="42.42547" lon="2.78454">
        <ele>548</ele>
        <time>2024-09-21T15:00:36Z</time>
      </trkpt>
      <trkpt lat="42.42548" lon="2.78462">
        <ele>549</ele>
        <time>2024-09-22T04:48:55Z</time>
      </trkpt>
      <trkpt lat="42.42544" lon="2.78465">
        <ele>549</ele>
        <time>2024-09-22T04:48:56Z</time>
      </trkpt>
      <trkpt lat="42.42543" lon="2.78463">
        <ele>546</ele>
        <time>2024-09-22T04:49:42Z</time>
      </trkpt>
      <trkpt lat="42.42541" lon="2.78464">
        <ele>548</ele>
        <time>2024-09-22T04:49:49Z</time>
      </trkpt>
      <trkpt lat="42.42538" lon="2.78466">
        <ele>548</ele>
        <time>2024-09-22T04:49:54Z</time>
      </trkpt>
      <trkpt lat="42.42536" lon="2.78468">
        <ele>551</ele>
        <time>2024-09-22T04:50:00Z</time>
      </trkpt>
      <trkpt lat="42.42534" lon="2.78471">
        <ele>552</ele>
        <time>2024-09-22T04:50:03Z</time>
      </trkpt>
      <trkpt lat="42.42533" lon="2.78475">
        <ele>552</ele>
        <time>2024-09-22T04:50:07Z</time>
      </trkpt>
      <trkpt lat="42.42531" lon="2.78477">
        <ele>553</ele>
        <time>2024-09-22T04:50:10Z</time>
      </trkpt>
      <trkpt lat="42.42528" lon="2.78478">
        <ele>553</ele>
        <time>2024-09-22T04:50:13Z</time>
      </trkpt>
      <trkpt lat="42.42529" lon="2.7848">
        <ele>553</ele>
        <time>2024-09-22T04:50:18Z</time>
      </trkpt>
      <trkpt lat="42.42531" lon="2.78481">
        <ele>553</ele>
        <time>2024-09-22T04:50:21Z</time>
      </trkpt>
      <trkpt lat="42.42534" lon="2.78484">
        <ele>552</ele>
        <time>2024-09-22T04:50:25Z</time>
      </trkpt>
      <trkpt lat="42.42537" lon="2.78486">
        <ele>552</ele>
        <time>2024-09-22T04:50:28Z</time>
      </trkpt>
      <trkpt lat="42.4254" lon="2.78488">
        <ele>551</ele>
        <time>2024-09-22T04:50:31Z</time>
      </trkpt>
      <trkpt lat="42.42543" lon="2.7849">
        <ele>551</ele>
        <time>2024-09-22T04:50:38Z</time>
      </trkpt>
      <trkpt lat="42.42546" lon="2.78493">
        <ele>551</ele>
        <time>2024-09-22T04:50:41Z</time>
      </trkpt>
      <trkpt lat="42.42549" lon="2.78495">
        <ele>552</ele>
        <time>2024-09-22T04:50:44Z</time>
      </trkpt>
      <trkpt lat="42.42552" lon="2.78497">
        <ele>552</ele>
        <time>2024-09-22T04:50:46Z</time>
      </trkpt>
      <trkpt lat="42.42555" lon="2.78499">
        <ele>552</ele>
        <time>2024-09-22T04:50:49Z</time>
      </trkpt>
      <trkpt lat="42.42558" lon="2.78502">
        <ele>552</ele>
        <time>2024-09-22T04:50:52Z</time>
      </trkpt>
      <trkpt lat="42.42561" lon="2.78504">
        <ele>551</ele>
        <time>2024-09-22T04:50:55Z</time>
      </trkpt>
      <trkpt lat="42.42564" lon="2.78506">
        <ele>551</ele>
        <time>2024-09-22T04:50:57Z</time>
      </trkpt>
      <trkpt lat="42.42567" lon="2.78509">
        <ele>551</ele>
        <time>2024-09-22T04:50:59Z</time>
      </trkpt>
      <trkpt lat="42.4257" lon="2.78511">
        <ele>551</ele>
        <time>2024-09-22T04:51:01Z</time>
      </trkpt>
      <trkpt lat="42.42572" lon="2.78513">
        <ele>551</ele>
        <time>2024-09-22T04:51:03Z</time>
      </trkpt>
      <trkpt lat="42.42575" lon="2.78516">
        <ele>550</ele>
        <time>2024-09-22T04:51:07Z</time>
      </trkpt>
      <trkpt lat="42.42578" lon="2.78518">
        <ele>550</ele>
        <time>2024-09-22T04:51:09Z</time>
      </trkpt>
      <trkpt lat="42.42581" lon="2.78521">
        <ele>549</ele>
        <time>2024-09-22T04:51:12Z</time>
      </trkpt>
      <trkpt lat="42.42584" lon="2.78524">
        <ele>549</ele>
        <time>2024-09-22T04:51:15Z</time>
      </trkpt>
      <trkpt lat="42.42587" lon="2.78528">
        <ele>548</ele>
        <time>2024-09-22T04:51:18Z</time>
      </trkpt>
      <trkpt lat="42.42589" lon="2.78531">
        <ele>548</ele>
        <time>2024-09-22T04:51:20Z</time>
      </trkpt>
      <trkpt lat="42.42591" lon="2.78534">
        <ele>548</ele>
        <time>2024-09-22T04:51:22Z</time>
      </trkpt>
      <trkpt lat="42.42592" lon="2.78537">
        <ele>547</ele>
        <time>2024-09-22T04:51:24Z</time>
      </trkpt>
      <trkpt lat="42.42593" lon="2.78542">
        <ele>547</ele>
        <time>2024-09-22T04:51:27Z</time>
      </trkpt>
      <trkpt lat="42.42595" lon="2.78546">
        <ele>547</ele>
        <time>2024-09-22T04:51:30Z</time>
      </trkpt>
      <trkpt lat="42.42595" lon="2.78551">
        <ele>546</ele>
        <time>2024-09-22T04:51:33Z</time>
      </trkpt>
      <trkpt lat="42.42596" lon="2.78555">
        <ele>546</ele>
        <time>2024-09-22T04:51:35Z</time>
      </trkpt>
      <trkpt lat="42.42597" lon="2.78559">
        <ele>546</ele>
        <time>2024-09-22T04:51:38Z</time>
      </trkpt>
      <trkpt lat="42.42599" lon="2.78564">
        <ele>546</ele>
        <time>2024-09-22T04:51:41Z</time>
      </trkpt>
      <trkpt lat="42.426" lon="2.78569">
        <ele>545</ele>
        <time>2024-09-22T04:51:44Z</time>
      </trkpt>
      <trkpt lat="42.42601" lon="2.78573">
        <ele>545</ele>
        <time>2024-09-22T04:51:47Z</time>
      </trkpt>
      <trkpt lat="42.42602" lon="2.78578">
        <ele>544</ele>
        <time>2024-09-22T04:51:50Z</time>
      </trkpt>
      <trkpt lat="42.42604" lon="2.78582">
        <ele>544</ele>
        <time>2024-09-22T04:51:52Z</time>
      </trkpt>
      <trkpt lat="42.42605" lon="2.78586">
        <ele>544</ele>
        <time>2024-09-22T04:51:55Z</time>
      </trkpt>
      <trkpt lat="42.42606" lon="2.78591">
        <ele>543</ele>
        <time>2024-09-22T04:51:58Z</time>
      </trkpt>
      <trkpt lat="42.42608" lon="2.78596">
        <ele>544</ele>
        <time>2024-09-22T04:52:01Z</time>
      </trkpt>
      <trkpt lat="42.42608" lon="2.786">
        <ele>545</ele>
        <time>2024-09-22T04:52:03Z</time>
      </trkpt>
      <trkpt lat="42.42609" lon="2.78604">
        <ele>546</ele>
        <time>2024-09-22T04:52:07Z</time>
      </trkpt>
      <trkpt lat="42.42607" lon="2.78607">
        <ele>546</ele>
        <time>2024-09-22T04:52:10Z</time>
      </trkpt>
      <trkpt lat="42.42604" lon="2.78609">
        <ele>545</ele>
        <time>2024-09-22T04:52:13Z</time>
      </trkpt>
      <trkpt lat="42.42601" lon="2.7861">
        <ele>548</ele>
        <time>2024-09-22T04:52:18Z</time>
      </trkpt>
      <trkpt lat="42.426" lon="2.78614">
        <ele>547</ele>
        <time>2024-09-22T04:52:22Z</time>
      </trkpt>
      <trkpt lat="42.42599" lon="2.78618">
        <ele>547</ele>
        <time>2024-09-22T04:52:26Z</time>
      </trkpt>
      <trkpt lat="42.42598" lon="2.78623">
        <ele>547</ele>
        <time>2024-09-22T04:52:29Z</time>
      </trkpt>
      <trkpt lat="42.42598" lon="2.78627">
        <ele>545</ele>
        <time>2024-09-22T04:52:32Z</time>
      </trkpt>
      <trkpt lat="42.42598" lon="2.78631">
        <ele>544</ele>
        <time>2024-09-22T04:52:42Z</time>
      </trkpt>
      <trkpt lat="42.42597" lon="2.7863">
        <ele>542</ele>
        <time>2024-09-22T04:52:47Z</time>
      </trkpt>
      <trkpt lat="42.42596" lon="2.78627">
        <ele>541</ele>
        <time>2024-09-22T04:52:50Z</time>
      </trkpt>
      <trkpt lat="42.42594" lon="2.78623">
        <ele>542</ele>
        <time>2024-09-22T04:52:53Z</time>
      </trkpt>
      <trkpt lat="42.42591" lon="2.78621">
        <ele>542</ele>
        <time>2024-09-22T04:52:56Z</time>
      </trkpt>
      <trkpt lat="42.42588" lon="2.78619">
        <ele>544</ele>
        <time>2024-09-22T04:52:59Z</time>
      </trkpt>
      <trkpt lat="42.42585" lon="2.78617">
        <ele>545</ele>
        <time>2024-09-22T04:53:03Z</time>
      </trkpt>
      <trkpt lat="42.42581" lon="2.78618">
        <ele>546</ele>
        <time>2024-09-22T04:53:09Z</time>
      </trkpt>
      <trkpt lat="42.42578" lon="2.78621">
        <ele>547</ele>
        <time>2024-09-22T04:53:13Z</time>
      </trkpt>
      <trkpt lat="42.42576" lon="2.78624">
        <ele>547</ele>
        <time>2024-09-22T04:53:16Z</time>
      </trkpt>
      <trkpt lat="42.42576" lon="2.78628">
        <ele>548</ele>
        <time>2024-09-22T04:53:20Z</time>
      </trkpt>
      <trkpt lat="42.42576" lon="2.78632">
        <ele>548</ele>
        <time>2024-09-22T04:53:23Z</time>
      </trkpt>
      <trkpt lat="42.42578" lon="2.78635">
        <ele>549</ele>
        <time>2024-09-22T04:53:26Z</time>
      </trkpt>
      <trkpt lat="42.42579" lon="2.78639">
        <ele>549</ele>
        <time>2024-09-22T04:53:29Z</time>
      </trkpt>
      <trkpt lat="42.42581" lon="2.78643">
        <ele>549</ele>
        <time>2024-09-22T04:53:33Z</time>
      </trkpt>
      <trkpt lat="42.42582" lon="2.78646">
        <ele>550</ele>
        <time>2024-09-22T04:53:37Z</time>
      </trkpt>
      <trkpt lat="42.42582" lon="2.7865">
        <ele>550</ele>
        <time>2024-09-22T04:53:41Z</time>
      </trkpt>
      <trkpt lat="42.4258" lon="2.78653">
        <ele>551</ele>
        <time>2024-09-22T04:53:45Z</time>
      </trkpt>
      <trkpt lat="42.42577" lon="2.78654">
        <ele>552</ele>
        <time>2024-09-22T04:53:49Z</time>
      </trkpt>
      <trkpt lat="42.42574" lon="2.78652">
        <ele>552</ele>
        <time>2024-09-22T04:53:53Z</time>
      </trkpt>
      <trkpt lat="42.42573" lon="2.7865">
        <ele>555</ele>
        <time>2024-09-22T04:53:56Z</time>
      </trkpt>
      <trkpt lat="42.4257" lon="2.78648">
        <ele>556</ele>
        <time>2024-09-22T04:53:58Z</time>
      </trkpt>
      <trkpt lat="42.42567" lon="2.78646">
        <ele>556</ele>
        <time>2024-09-22T04:54:01Z</time>
      </trkpt>
      <trkpt lat="42.42565" lon="2.78646">
        <ele>556</ele>
        <time>2024-09-22T04:54:04Z</time>
      </trkpt>
      <trkpt lat="42.42563" lon="2.78648">
        <ele>555</ele>
        <time>2024-09-22T04:54:07Z</time>
      </trkpt>
      <trkpt lat="42.42561" lon="2.78652">
        <ele>556</ele>
        <time>2024-09-22T04:54:10Z</time>
      </trkpt>
      <trkpt lat="42.42561" lon="2.78656">
        <ele>555</ele>
        <time>2024-09-22T04:54:14Z</time>
      </trkpt>
      <trkpt lat="42.42562" lon="2.7866">
        <ele>556</ele>
        <time>2024-09-22T04:54:17Z</time>
      </trkpt>
      <trkpt lat="42.42563" lon="2.78664">
        <ele>556</ele>
        <time>2024-09-22T04:54:21Z</time>
      </trkpt>
      <trkpt lat="42.42565" lon="2.78667">
        <ele>557</ele>
        <time>2024-09-22T04:54:23Z</time>
      </trkpt>
      <trkpt lat="42.42567" lon="2.7867">
        <ele>557</ele>
        <time>2024-09-22T04:54:26Z</time>
      </trkpt>
      <trkpt lat="42.42569" lon="2.78673">
        <ele>557</ele>
        <time>2024-09-22T04:54:29Z</time>
      </trkpt>
      <trkpt lat="42.42571" lon="2.78677">
        <ele>557</ele>
        <time>2024-09-22T04:54:33Z</time>
      </trkpt>
      <trkpt lat="42.42573" lon="2.78681">
        <ele>557</ele>
        <time>2024-09-22T04:54:36Z</time>
      </trkpt>
      <trkpt lat="42.42575" lon="2.78684">
        <ele>557</ele>
        <time>2024-09-22T04:54:39Z</time>
      </trkpt>
      <trkpt lat="42.42577" lon="2.78687">
        <ele>557</ele>
        <time>2024-09-22T04:54:42Z</time>
      </trkpt>
      <trkpt lat="42.42579" lon="2.7869">
        <ele>558</ele>
        <time>2024-09-22T04:54:45Z</time>
      </trkpt>
      <trkpt lat="42.42581" lon="2.78693">
        <ele>559</ele>
        <time>2024-09-22T04:54:47Z</time>
      </trkpt>
      <trkpt lat="42.42584" lon="2.78695">
        <ele>559</ele>
        <time>2024-09-22T04:54:50Z</time>
      </trkpt>
      <trkpt lat="42.42586" lon="2.78697">
        <ele>559</ele>
        <time>2024-09-22T04:54:53Z</time>
      </trkpt>
      <trkpt lat="42.4259" lon="2.78699">
        <ele>560</ele>
        <time>2024-09-22T04:54:57Z</time>
      </trkpt>
      <trkpt lat="42.42592" lon="2.78701">
        <ele>560</ele>
        <time>2024-09-22T04:55:00Z</time>
      </trkpt>
      <trkpt lat="42.42595" lon="2.78703">
        <ele>561</ele>
        <time>2024-09-22T04:55:03Z</time>
      </trkpt>
      <trkpt lat="42.42598" lon="2.78706">
        <ele>561</ele>
        <time>2024-09-22T04:55:06Z</time>
      </trkpt>
      <trkpt lat="42.426" lon="2.78709">
        <ele>561</ele>
        <time>2024-09-22T04:55:09Z</time>
      </trkpt>
      <trkpt lat="42.42603" lon="2.78712">
        <ele>561</ele>
        <time>2024-09-22T04:55:12Z</time>
      </trkpt>
      <trkpt lat="42.42605" lon="2.78716">
        <ele>561</ele>
        <time>2024-09-22T04:55:17Z</time>
      </trkpt>
      <trkpt lat="42.42607" lon="2.7872">
        <ele>561</ele>
        <time>2024-09-22T04:55:20Z</time>
      </trkpt>
      <trkpt lat="42.42609" lon="2.78723">
        <ele>562</ele>
        <time>2024-09-22T04:55:23Z</time>
      </trkpt>
      <trkpt lat="42.42611" lon="2.78727">
        <ele>562</ele>
        <time>2024-09-22T04:55:26Z</time>
      </trkpt>
      <trkpt lat="42.42613" lon="2.7873">
        <ele>562</ele>
        <time>2024-09-22T04:55:29Z</time>
      </trkpt>
      <trkpt lat="42.42616" lon="2.78733">
        <ele>563</ele>
        <time>2024-09-22T04:55:32Z</time>
      </trkpt>
      <trkpt lat="42.42617" lon="2.78737">
        <ele>563</ele>
        <time>2024-09-22T04:55:35Z</time>
      </trkpt>
      <trkpt lat="42.42619" lon="2.78741">
        <ele>563</ele>
        <time>2024-09-22T04:55:38Z</time>
      </trkpt>
      <trkpt lat="42.42621" lon="2.78744">
        <ele>564</ele>
        <time>2024-09-22T04:55:41Z</time>
      </trkpt>
      <trkpt lat="42.42622" lon="2.78747">
        <ele>564</ele>
        <time>2024-09-22T04:55:44Z</time>
      </trkpt>
      <trkpt lat="42.42624" lon="2.78751">
        <ele>565</ele>
        <time>2024-09-22T04:55:48Z</time>
      </trkpt>
      <trkpt lat="42.42626" lon="2.78755">
        <ele>564</ele>
        <time>2024-09-22T04:55:51Z</time>
      </trkpt>
      <trkpt lat="42.42628" lon="2.78759">
        <ele>564</ele>
        <time>2024-09-22T04:55:55Z</time>
      </trkpt>
      <trkpt lat="42.42629" lon="2.78763">
        <ele>564</ele>
        <time>2024-09-22T04:55:57Z</time>
      </trkpt>
      <trkpt lat="42.42631" lon="2.78767">
        <ele>565</ele>
        <time>2024-09-22T04:55:59Z</time>
      </trkpt>
      <trkpt lat="42.42632" lon="2.78771">
        <ele>566</ele>
        <time>2024-09-22T04:56:02Z</time>
      </trkpt>
      <trkpt lat="42.42634" lon="2.78774">
        <ele>566</ele>
        <time>2024-09-22T04:56:06Z</time>
      </trkpt>
      <trkpt lat="42.42636" lon="2.78777">
        <ele>566</ele>
        <time>2024-09-22T04:56:09Z</time>
      </trkpt>
      <trkpt lat="42.42638" lon="2.78782">
        <ele>567</ele>
        <time>2024-09-22T04:56:12Z</time>
      </trkpt>
      <trkpt lat="42.4264" lon="2.78785">
        <ele>567</ele>
        <time>2024-09-22T04:56:19Z</time>
      </trkpt>
      <trkpt lat="42.42642" lon="2.78789">
        <ele>566</ele>
        <time>2024-09-22T04:56:21Z</time>
      </trkpt>
      <trkpt lat="42.42644" lon="2.78792">
        <ele>567</ele>
        <time>2024-09-22T04:56:24Z</time>
      </trkpt>
      <trkpt lat="42.42646" lon="2.78795">
        <ele>567</ele>
        <time>2024-09-22T04:56:27Z</time>
      </trkpt>
      <trkpt lat="42.42647" lon="2.78799">
        <ele>566</ele>
        <time>2024-09-22T04:56:30Z</time>
      </trkpt>
      <trkpt lat="42.42648" lon="2.78803">
        <ele>566</ele>
        <time>2024-09-22T04:56:33Z</time>
      </trkpt>
      <trkpt lat="42.42649" lon="2.78806">
        <ele>567</ele>
        <time>2024-09-22T04:56:36Z</time>
      </trkpt>
      <trkpt lat="42.42651" lon="2.7881">
        <ele>567</ele>
        <time>2024-09-22T04:56:39Z</time>
      </trkpt>
      <trkpt lat="42.42653" lon="2.78813">
        <ele>568</ele>
        <time>2024-09-22T04:56:42Z</time>
      </trkpt>
      <trkpt lat="42.42656" lon="2.78816">
        <ele>569</ele>
        <time>2024-09-22T04:56:44Z</time>
      </trkpt>
      <trkpt lat="42.42657" lon="2.7882">
        <ele>569</ele>
        <time>2024-09-22T04:56:48Z</time>
      </trkpt>
      <trkpt lat="42.42659" lon="2.78824">
        <ele>570</ele>
        <time>2024-09-22T04:56:51Z</time>
      </trkpt>
      <trkpt lat="42.4266" lon="2.78828">
        <ele>570</ele>
        <time>2024-09-22T04:56:54Z</time>
      </trkpt>
      <trkpt lat="42.42662" lon="2.78831">
        <ele>571</ele>
        <time>2024-09-22T04:56:57Z</time>
      </trkpt>
      <trkpt lat="42.42664" lon="2.78836">
        <ele>571</ele>
        <time>2024-09-22T04:57:00Z</time>
      </trkpt>
      <trkpt lat="42.42666" lon="2.78839">
        <ele>573</ele>
        <time>2024-09-22T04:57:03Z</time>
      </trkpt>
      <trkpt lat="42.42668" lon="2.78843">
        <ele>573</ele>
        <time>2024-09-22T04:57:06Z</time>
      </trkpt>
      <trkpt lat="42.4267" lon="2.78846">
        <ele>573</ele>
        <time>2024-09-22T04:57:09Z</time>
      </trkpt>
      <trkpt lat="42.42672" lon="2.7885">
        <ele>573</ele>
        <time>2024-09-22T04:57:12Z</time>
      </trkpt>
      <trkpt lat="42.42674" lon="2.78853">
        <ele>574</ele>
        <time>2024-09-22T04:57:15Z</time>
      </trkpt>
      <trkpt lat="42.42676" lon="2.78857">
        <ele>574</ele>
        <time>2024-09-22T04:57:18Z</time>
      </trkpt>
      <trkpt lat="42.42677" lon="2.78861">
        <ele>574</ele>
        <time>2024-09-22T04:57:21Z</time>
      </trkpt>
      <trkpt lat="42.4268" lon="2.78864">
        <ele>574</ele>
        <time>2024-09-22T04:57:25Z</time>
      </trkpt>
      <trkpt lat="42.42682" lon="2.78868">
        <ele>575</ele>
        <time>2024-09-22T04:57:28Z</time>
      </trkpt>
      <trkpt lat="42.42683" lon="2.78872">
        <ele>575</ele>
        <time>2024-09-22T04:57:31Z</time>
      </trkpt>
      <trkpt lat="42.42686" lon="2.78876">
        <ele>575</ele>
        <time>2024-09-22T04:57:34Z</time>
      </trkpt>
      <trkpt lat="42.42688" lon="2.7888">
        <ele>576</ele>
        <time>2024-09-22T04:57:37Z</time>
      </trkpt>
      <trkpt lat="42.4269" lon="2.78883">
        <ele>576</ele>
        <time>2024-09-22T04:57:40Z</time>
      </trkpt>
      <trkpt lat="42.42692" lon="2.78887">
        <ele>576</ele>
        <time>2024-09-22T04:57:43Z</time>
      </trkpt>
      <trkpt lat="42.42694" lon="2.7889">
        <ele>575</ele>
        <time>2024-09-22T04:57:47Z</time>
      </trkpt>
      <trkpt lat="42.42696" lon="2.78894">
        <ele>575</ele>
        <time>2024-09-22T04:57:50Z</time>
      </trkpt>
      <trkpt lat="42.42698" lon="2.78897">
        <ele>575</ele>
        <time>2024-09-22T04:57:53Z</time>
      </trkpt>
      <trkpt lat="42.427" lon="2.78901">
        <ele>576</ele>
        <time>2024-09-22T04:57:56Z</time>
      </trkpt>
      <trkpt lat="42.42701" lon="2.78904">
        <ele>576</ele>
        <time>2024-09-22T04:57:58Z</time>
      </trkpt>
      <trkpt lat="42.42703" lon="2.78909">
        <ele>577</ele>
        <time>2024-09-22T04:58:01Z</time>
      </trkpt>
      <trkpt lat="42.42704" lon="2.78913">
        <ele>577</ele>
        <time>2024-09-22T04:58:04Z</time>
      </trkpt>
      <trkpt lat="42.42705" lon="2.78917">
        <ele>577</ele>
        <time>2024-09-22T04:58:07Z</time>
      </trkpt>
      <trkpt lat="42.42707" lon="2.78921">
        <ele>578</ele>
        <time>2024-09-22T04:58:10Z</time>
      </trkpt>
      <trkpt lat="42.42707" lon="2.78925">
        <ele>578</ele>
        <time>2024-09-22T04:58:13Z</time>
      </trkpt>
      <trkpt lat="42.42708" lon="2.78929">
        <ele>579</ele>
        <time>2024-09-22T04:58:16Z</time>
      </trkpt>
      <trkpt lat="42.42708" lon="2.78933">
        <ele>579</ele>
        <time>2024-09-22T04:58:19Z</time>
      </trkpt>
      <trkpt lat="42.42706" lon="2.78937">
        <ele>580</ele>
        <time>2024-09-22T04:58:22Z</time>
      </trkpt>
      <trkpt lat="42.42705" lon="2.78941">
        <ele>580</ele>
        <time>2024-09-22T04:58:25Z</time>
      </trkpt>
      <trkpt lat="42.42703" lon="2.78945">
        <ele>580</ele>
        <time>2024-09-22T04:58:29Z</time>
      </trkpt>
      <trkpt lat="42.427" lon="2.78948">
        <ele>581</ele>
        <time>2024-09-22T04:58:32Z</time>
      </trkpt>
      <trkpt lat="42.42699" lon="2.78951">
        <ele>580</ele>
        <time>2024-09-22T04:58:34Z</time>
      </trkpt>
      <trkpt lat="42.42697" lon="2.78954">
        <ele>580</ele>
        <time>2024-09-22T04:58:36Z</time>
      </trkpt>
      <trkpt lat="42.42695" lon="2.78957">
        <ele>580</ele>
        <time>2024-09-22T04:58:39Z</time>
      </trkpt>
      <trkpt lat="42.42692" lon="2.7896">
        <ele>579</ele>
        <time>2024-09-22T04:58:42Z</time>
      </trkpt>
      <trkpt lat="42.42691" lon="2.78963">
        <ele>580</ele>
        <time>2024-09-22T04:58:44Z</time>
      </trkpt>
      <trkpt lat="42.42689" lon="2.78967">
        <ele>580</ele>
        <time>2024-09-22T04:58:46Z</time>
      </trkpt>
      <trkpt lat="42.42688" lon="2.78971">
        <ele>580</ele>
        <time>2024-09-22T04:58:49Z</time>
      </trkpt>
      <trkpt lat="42.42688" lon="2.78975">
        <ele>580</ele>
        <time>2024-09-22T04:58:52Z</time>
      </trkpt>
      <trkpt lat="42.42689" lon="2.78979">
        <ele>580</ele>
        <time>2024-09-22T04:58:54Z</time>
      </trkpt>
      <trkpt lat="42.4269" lon="2.78983">
        <ele>580</ele>
        <time>2024-09-22T04:58:56Z</time>
      </trkpt>
      <trkpt lat="42.42692" lon="2.78987">
        <ele>583</ele>
        <time>2024-09-22T04:58:59Z</time>
      </trkpt>
      <trkpt lat="42.42695" lon="2.7899">
        <ele>582</ele>
        <time>2024-09-22T04:59:02Z</time>
      </trkpt>
      <trkpt lat="42.42698" lon="2.78992">
        <ele>582</ele>
        <time>2024-09-22T04:59:06Z</time>
      </trkpt>
      <trkpt lat="42.42702" lon="2.78994">
        <ele>583</ele>
        <time>2024-09-22T04:59:08Z</time>
      </trkpt>
      <trkpt lat="42.42706" lon="2.78995">
        <ele>584</ele>
        <time>2024-09-22T04:59:10Z</time>
      </trkpt>
      <trkpt lat="42.42709" lon="2.78995">
        <ele>584</ele>
        <time>2024-09-22T04:59:13Z</time>
      </trkpt>
      <trkpt lat="42.42713" lon="2.78996">
        <ele>586</ele>
        <time>2024-09-22T04:59:16Z</time>
      </trkpt>
      <trkpt lat="42.42716" lon="2.78996">
        <ele>586</ele>
        <time>2024-09-22T04:59:19Z</time>
      </trkpt>
      <trkpt lat="42.42719" lon="2.78996">
        <ele>585</ele>
        <time>2024-09-22T04:59:21Z</time>
      </trkpt>
      <trkpt lat="42.42722" lon="2.78998">
        <ele>587</ele>
        <time>2024-09-22T04:59:46Z</time>
      </trkpt>
      <trkpt lat="42.42725" lon="2.79">
        <ele>586</ele>
        <time>2024-09-22T04:59:50Z</time>
      </trkpt>
      <trkpt lat="42.42728" lon="2.79003">
        <ele>587</ele>
        <time>2024-09-22T04:59:52Z</time>
      </trkpt>
      <trkpt lat="42.4273" lon="2.79007">
        <ele>588</ele>
        <time>2024-09-22T04:59:54Z</time>
      </trkpt>
      <trkpt lat="42.4273" lon="2.7901">
        <ele>587</ele>
        <time>2024-09-22T05:00:00Z</time>
      </trkpt>
      <trkpt lat="42.42732" lon="2.79012">
        <ele>589</ele>
        <time>2024-09-22T05:00:23Z</time>
      </trkpt>
      <trkpt lat="42.42734" lon="2.79014">
        <ele>589</ele>
        <time>2024-09-22T05:00:26Z</time>
      </trkpt>
      <trkpt lat="42.42737" lon="2.79017">
        <ele>588</ele>
        <time>2024-09-22T05:00:29Z</time>
      </trkpt>
      <trkpt lat="42.42739" lon="2.79019">
        <ele>589</ele>
        <time>2024-09-22T05:00:31Z</time>
      </trkpt>
      <trkpt lat="42.42743" lon="2.79022">
        <ele>588</ele>
        <time>2024-09-22T05:00:35Z</time>
      </trkpt>
      <trkpt lat="42.42746" lon="2.79025">
        <ele>589</ele>
        <time>2024-09-22T05:00:38Z</time>
      </trkpt>
      <trkpt lat="42.42748" lon="2.79028">
        <ele>588</ele>
        <time>2024-09-22T05:00:40Z</time>
      </trkpt>
      <trkpt lat="42.42749" lon="2.79032">
        <ele>589</ele>
        <time>2024-09-22T05:00:43Z</time>
      </trkpt>
      <trkpt lat="42.42751" lon="2.79035">
        <ele>590</ele>
        <time>2024-09-22T05:00:46Z</time>
      </trkpt>
      <trkpt lat="42.42754" lon="2.79038">
        <ele>591</ele>
        <time>2024-09-22T05:00:49Z</time>
      </trkpt>
      <trkpt lat="42.42757" lon="2.79039">
        <ele>591</ele>
        <time>2024-09-22T05:00:52Z</time>
      </trkpt>
      <trkpt lat="42.4276" lon="2.79037">
        <ele>591</ele>
        <time>2024-09-22T05:00:54Z</time>
      </trkpt>
      <trkpt lat="42.42763" lon="2.79035">
        <ele>591</ele>
        <time>2024-09-22T05:00:56Z</time>
      </trkpt>
      <trkpt lat="42.42763" lon="2.79032">
        <ele>591</ele>
        <time>2024-09-22T05:00:58Z</time>
      </trkpt>
      <trkpt lat="42.42764" lon="2.79028">
        <ele>592</ele>
        <time>2024-09-22T05:01:00Z</time>
      </trkpt>
      <trkpt lat="42.42764" lon="2.79024">
        <ele>592</ele>
        <time>2024-09-22T05:01:02Z</time>
      </trkpt>
      <trkpt lat="42.42765" lon="2.7902">
        <ele>592</ele>
        <time>2024-09-22T05:01:05Z</time>
      </trkpt>
      <trkpt lat="42.42765" lon="2.79016">
        <ele>592</ele>
        <time>2024-09-22T05:01:08Z</time>
      </trkpt>
      <trkpt lat="42.42766" lon="2.79012">
        <ele>591</ele>
        <time>2024-09-22T05:01:10Z</time>
      </trkpt>
      <trkpt lat="42.42765" lon="2.79008">
        <ele>592</ele>
        <time>2024-09-22T05:01:12Z</time>
      </trkpt>
      <trkpt lat="42.42765" lon="2.79004">
        <ele>590</ele>
        <time>2024-09-22T05:01:16Z</time>
      </trkpt>
      <trkpt lat="42.42765" lon="2.78999">
        <ele>590</ele>
        <time>2024-09-22T05:01:19Z</time>
      </trkpt>
      <trkpt lat="42.42766" lon="2.78995">
        <ele>590</ele>
        <time>2024-09-22T05:01:21Z</time>
      </trkpt>
      <trkpt lat="42.42768" lon="2.78991">
        <ele>590</ele>
        <time>2024-09-22T05:01:24Z</time>
      </trkpt>
      <trkpt lat="42.42769" lon="2.78987">
        <ele>591</ele>
        <time>2024-09-22T05:01:26Z</time>
      </trkpt>
      <trkpt lat="42.4277" lon="2.78983">
        <ele>590</ele>
        <time>2024-09-22T05:01:29Z</time>
      </trkpt>
      <trkpt lat="42.42772" lon="2.78978">
        <ele>589</ele>
        <time>2024-09-22T05:01:32Z</time>
      </trkpt>
      <trkpt lat="42.42774" lon="2.78975">
        <ele>590</ele>
        <time>2024-09-22T05:01:34Z</time>
      </trkpt>
      <trkpt lat="42.42775" lon="2.7897">
        <ele>589</ele>
        <time>2024-09-22T05:01:38Z</time>
      </trkpt>
      <trkpt lat="42.42778" lon="2.78967">
        <ele>589</ele>
        <time>2024-09-22T05:01:40Z</time>
      </trkpt>
      <trkpt lat="42.42779" lon="2.78964">
        <ele>588</ele>
        <time>2024-09-22T05:01:43Z</time>
      </trkpt>
      <trkpt lat="42.4278" lon="2.7896">
        <ele>588</ele>
        <time>2024-09-22T05:01:46Z</time>
      </trkpt>
      <trkpt lat="42.42781" lon="2.78956">
        <ele>587</ele>
        <time>2024-09-22T05:01:49Z</time>
      </trkpt>
      <trkpt lat="42.42782" lon="2.78952">
        <ele>587</ele>
        <time>2024-09-22T05:01:52Z</time>
      </trkpt>
      <trkpt lat="42.42783" lon="2.78947">
        <ele>587</ele>
        <time>2024-09-22T05:01:54Z</time>
      </trkpt>
      <trkpt lat="42.42785" lon="2.78944">
        <ele>588</ele>
        <time>2024-09-22T05:01:57Z</time>
      </trkpt>
      <trkpt lat="42.42786" lon="2.7894">
        <ele>587</ele>
        <time>2024-09-22T05:01:59Z</time>
      </trkpt>
      <trkpt lat="42.42789" lon="2.78936">
        <ele>589</ele>
        <time>2024-09-22T05:02:02Z</time>
      </trkpt>
      <trkpt lat="42.42791" lon="2.78932">
        <ele>589</ele>
        <time>2024-09-22T05:02:06Z</time>
      </trkpt>
      <trkpt lat="42.42792" lon="2.78928">
        <ele>589</ele>
        <time>2024-09-22T05:02:09Z</time>
      </trkpt>
      <trkpt lat="42.42794" lon="2.78923">
        <ele>589</ele>
        <time>2024-09-22T05:02:12Z</time>
      </trkpt>
      <trkpt lat="42.42795" lon="2.7892">
        <ele>589</ele>
        <time>2024-09-22T05:02:14Z</time>
      </trkpt>
      <trkpt lat="42.42796" lon="2.78916">
        <ele>589</ele>
        <time>2024-09-22T05:02:16Z</time>
      </trkpt>
      <trkpt lat="42.42797" lon="2.78911">
        <ele>589</ele>
        <time>2024-09-22T05:02:20Z</time>
      </trkpt>
      <trkpt lat="42.42798" lon="2.78907">
        <ele>590</ele>
        <time>2024-09-22T05:02:22Z</time>
      </trkpt>
      <trkpt lat="42.428" lon="2.78903">
        <ele>590</ele>
        <time>2024-09-22T05:02:25Z</time>
      </trkpt>
      <trkpt lat="42.42801" lon="2.78899">
        <ele>590</ele>
        <time>2024-09-22T05:02:27Z</time>
      </trkpt>
      <trkpt lat="42.42802" lon="2.78895">
        <ele>591</ele>
        <time>2024-09-22T05:02:29Z</time>
      </trkpt>
      <trkpt lat="42.42802" lon="2.7889">
        <ele>591</ele>
        <time>2024-09-22T05:02:31Z</time>
      </trkpt>
      <trkpt lat="42.42803" lon="2.78884">
        <ele>591</ele>
        <time>2024-09-22T05:02:34Z</time>
      </trkpt>
      <trkpt lat="42.42804" lon="2.78879">
        <ele>591</ele>
        <time>2024-09-22T05:02:39Z</time>
      </trkpt>
      <trkpt lat="42.42807" lon="2.78875">
        <ele>592</ele>
        <time>2024-09-22T05:02:43Z</time>
      </trkpt>
      <trkpt lat="42.42808" lon="2.7887">
        <ele>592</ele>
        <time>2024-09-22T05:02:46Z</time>
      </trkpt>
      <trkpt lat="42.4281" lon="2.78866">
        <ele>593</ele>
        <time>2024-09-22T05:02:49Z</time>
      </trkpt>
      <trkpt lat="42.42812" lon="2.78862">
        <ele>592</ele>
        <time>2024-09-22T05:02:52Z</time>
      </trkpt>
      <trkpt lat="42.42814" lon="2.78859">
        <ele>592</ele>
        <time>2024-09-22T05:02:54Z</time>
      </trkpt>
      <trkpt lat="42.42816" lon="2.78856">
        <ele>592</ele>
        <time>2024-09-22T05:02:57Z</time>
      </trkpt>
      <trkpt lat="42.42819" lon="2.78853">
        <ele>591</ele>
        <time>2024-09-22T05:03:00Z</time>
      </trkpt>
      <trkpt lat="42.42821" lon="2.7885">
        <ele>591</ele>
        <time>2024-09-22T05:03:03Z</time>
      </trkpt>
      <trkpt lat="42.42824" lon="2.78848">
        <ele>591</ele>
        <time>2024-09-22T05:03:05Z</time>
      </trkpt>
      <trkpt lat="42.42827" lon="2.78846">
        <ele>592</ele>
        <time>2024-09-22T05:03:08Z</time>
      </trkpt>
      <trkpt lat="42.4283" lon="2.78845">
        <ele>592</ele>
        <time>2024-09-22T05:03:12Z</time>
      </trkpt>
      <trkpt lat="42.42834" lon="2.78844">
        <ele>592</ele>
        <time>2024-09-22T05:03:16Z</time>
      </trkpt>
      <trkpt lat="42.42837" lon="2.78843">
        <ele>593</ele>
        <time>2024-09-22T05:03:19Z</time>
      </trkpt>
      <trkpt lat="42.42841" lon="2.78843">
        <ele>594</ele>
        <time>2024-09-22T05:03:24Z</time>
      </trkpt>
      <trkpt lat="42.42843" lon="2.78844">
        <ele>594</ele>
        <time>2024-09-22T05:03:27Z</time>
      </trkpt>
      <trkpt lat="42.42843" lon="2.78848">
        <ele>595</ele>
        <time>2024-09-22T05:03:30Z</time>
      </trkpt>
      <trkpt lat="42.42842" lon="2.78851">
        <ele>596</ele>
        <time>2024-09-22T05:03:33Z</time>
      </trkpt>
      <trkpt lat="42.42839" lon="2.78852">
        <ele>597</ele>
        <time>2024-09-22T05:03:38Z</time>
      </trkpt>
      <trkpt lat="42.42836" lon="2.78853">
        <ele>597</ele>
        <time>2024-09-22T05:03:42Z</time>
      </trkpt>
      <trkpt lat="42.42834" lon="2.78856">
        <ele>597</ele>
        <time>2024-09-22T05:03:45Z</time>
      </trkpt>
      <trkpt lat="42.42832" lon="2.78859">
        <ele>597</ele>
        <time>2024-09-22T05:03:48Z</time>
      </trkpt>
      <trkpt lat="42.4283" lon="2.78862">
        <ele>598</ele>
        <time>2024-09-22T05:03:51Z</time>
      </trkpt>
      <trkpt lat="42.42828" lon="2.78865">
        <ele>597</ele>
        <time>2024-09-22T05:03:54Z</time>
      </trkpt>
      <trkpt lat="42.42826" lon="2.78868">
        <ele>597</ele>
        <time>2024-09-22T05:03:57Z</time>
      </trkpt>
      <trkpt lat="42.42824" lon="2.78871">
        <ele>598</ele>
        <time>2024-09-22T05:03:59Z</time>
      </trkpt>
      <trkpt lat="42.42822" lon="2.78875">
        <ele>599</ele>
        <time>2024-09-22T05:04:02Z</time>
      </trkpt>
      <trkpt lat="42.42821" lon="2.78879">
        <ele>599</ele>
        <time>2024-09-22T05:04:05Z</time>
      </trkpt>
      <trkpt lat="42.4282" lon="2.78883">
        <ele>600</ele>
        <time>2024-09-22T05:04:08Z</time>
      </trkpt>
      <trkpt lat="42.42819" lon="2.78887">
        <ele>600</ele>
        <time>2024-09-22T05:04:11Z</time>
      </trkpt>
      <trkpt lat="42.42818" lon="2.78891">
        <ele>600</ele>
        <time>2024-09-22T05:04:13Z</time>
      </trkpt>
      <trkpt lat="42.42817" lon="2.78895">
        <ele>600</ele>
        <time>2024-09-22T05:04:16Z</time>
      </trkpt>
      <trkpt lat="42.42816" lon="2.78899">
        <ele>600</ele>
        <time>2024-09-22T05:04:19Z</time>
      </trkpt>
      <trkpt lat="42.42816" lon="2.78903">
        <ele>600</ele>
        <time>2024-09-22T05:04:22Z</time>
      </trkpt>
      <trkpt lat="42.42814" lon="2.78907">
        <ele>601</ele>
        <time>2024-09-22T05:04:24Z</time>
      </trkpt>
      <trkpt lat="42.42814" lon="2.78911">
        <ele>601</ele>
        <time>2024-09-22T05:04:27Z</time>
      </trkpt>
      <trkpt lat="42.42813" lon="2.78915">
        <ele>602</ele>
        <time>2024-09-22T05:04:30Z</time>
      </trkpt>
      <trkpt lat="42.42813" lon="2.7892">
        <ele>602</ele>
        <time>2024-09-22T05:04:33Z</time>
      </trkpt>
      <trkpt lat="42.42813" lon="2.78924">
        <ele>603</ele>
        <time>2024-09-22T05:04:36Z</time>
      </trkpt>
      <trkpt lat="42.42812" lon="2.78928">
        <ele>603</ele>
        <time>2024-09-22T05:04:38Z</time>
      </trkpt>
      <trkpt lat="42.42812" lon="2.78932">
        <ele>604</ele>
        <time>2024-09-22T05:04:41Z</time>
      </trkpt>
      <trkpt lat="42.42811" lon="2.78936">
        <ele>604</ele>
        <time>2024-09-22T05:04:45Z</time>
      </trkpt>
      <trkpt lat="42.4281" lon="2.7894">
        <ele>604</ele>
        <time>2024-09-22T05:04:48Z</time>
      </trkpt>
      <trkpt lat="42.42809" lon="2.78944">
        <ele>605</ele>
        <time>2024-09-22T05:04:51Z</time>
      </trkpt>
      <trkpt lat="42.42807" lon="2.78949">
        <ele>605</ele>
        <time>2024-09-22T05:04:54Z</time>
      </trkpt>
      <trkpt lat="42.42806" lon="2.78953">
        <ele>605</ele>
        <time>2024-09-22T05:04:57Z</time>
      </trkpt>
      <trkpt lat="42.42805" lon="2.78957">
        <ele>606</ele>
        <time>2024-09-22T05:04:59Z</time>
      </trkpt>
      <trkpt lat="42.42805" lon="2.78961">
        <ele>605</ele>
        <time>2024-09-22T05:05:02Z</time>
      </trkpt>
      <trkpt lat="42.42805" lon="2.78965">
        <ele>606</ele>
        <time>2024-09-22T05:05:04Z</time>
      </trkpt>
      <trkpt lat="42.42804" lon="2.7897">
        <ele>605</ele>
        <time>2024-09-22T05:05:07Z</time>
      </trkpt>
      <trkpt lat="42.42803" lon="2.78975">
        <ele>605</ele>
        <time>2024-09-22T05:05:11Z</time>
      </trkpt>
      <trkpt lat="42.42803" lon="2.78979">
        <ele>606</ele>
        <time>2024-09-22T05:05:14Z</time>
      </trkpt>
      <trkpt lat="42.42803" lon="2.78984">
        <ele>605</ele>
        <time>2024-09-22T05:05:17Z</time>
      </trkpt>
      <trkpt lat="42.42803" lon="2.78988">
        <ele>606</ele>
        <time>2024-09-22T05:05:19Z</time>
      </trkpt>
      <trkpt lat="42.42802" lon="2.78992">
        <ele>606</ele>
        <time>2024-09-22T05:05:22Z</time>
      </trkpt>
      <trkpt lat="42.42802" lon="2.78996">
        <ele>607</ele>
        <time>2024-09-22T05:05:25Z</time>
      </trkpt>
      <trkpt lat="42.42802" lon="2.79">
        <ele>607</ele>
        <time>2024-09-22T05:05:27Z</time>
      </trkpt>
      <trkpt lat="42.42802" lon="2.79005">
        <ele>608</ele>
        <time>2024-09-22T05:05:30Z</time>
      </trkpt>
      <trkpt lat="42.42801" lon="2.79009">
        <ele>608</ele>
        <time>2024-09-22T05:05:33Z</time>
      </trkpt>
      <trkpt lat="42.42802" lon="2.79014">
        <ele>608</ele>
        <time>2024-09-22T05:05:36Z</time>
      </trkpt>
      <trkpt lat="42.42801" lon="2.79018">
        <ele>609</ele>
        <time>2024-09-22T05:05:39Z</time>
      </trkpt>
      <trkpt lat="42.42801" lon="2.79022">
        <ele>609</ele>
        <time>2024-09-22T05:05:41Z</time>
      </trkpt>
      <trkpt lat="42.42801" lon="2.79026">
        <ele>609</ele>
        <time>2024-09-22T05:05:44Z</time>
      </trkpt>
      <trkpt lat="42.428" lon="2.7903">
        <ele>610</ele>
        <time>2024-09-22T05:05:48Z</time>
      </trkpt>
      <trkpt lat="42.42799" lon="2.79034">
        <ele>610</ele>
        <time>2024-09-22T05:05:51Z</time>
      </trkpt>
      <trkpt lat="42.428" lon="2.79039">
        <ele>610</ele>
        <time>2024-09-22T05:05:55Z</time>
      </trkpt>
      <trkpt lat="42.42799" lon="2.79044">
        <ele>610</ele>
        <time>2024-09-22T05:05:58Z</time>
      </trkpt>
      <trkpt lat="42.42799" lon="2.79048">
        <ele>612</ele>
        <time>2024-09-22T05:06:01Z</time>
      </trkpt>
      <trkpt lat="42.42798" lon="2.79053">
        <ele>612</ele>
        <time>2024-09-22T05:06:04Z</time>
      </trkpt>
      <trkpt lat="42.42798" lon="2.79058">
        <ele>612</ele>
        <time>2024-09-22T05:06:07Z</time>
      </trkpt>
      <trkpt lat="42.42797" lon="2.79063">
        <ele>612</ele>
        <time>2024-09-22T05:06:10Z</time>
      </trkpt>
      <trkpt lat="42.42797" lon="2.79067">
        <ele>612</ele>
        <time>2024-09-22T05:06:13Z</time>
      </trkpt>
      <trkpt lat="42.42796" lon="2.79072">
        <ele>612</ele>
        <time>2024-09-22T05:06:16Z</time>
      </trkpt>
      <trkpt lat="42.42796" lon="2.79076">
        <ele>613</ele>
        <time>2024-09-22T05:06:18Z</time>
      </trkpt>
      <trkpt lat="42.42796" lon="2.7908">
        <ele>613</ele>
        <time>2024-09-22T05:06:20Z</time>
      </trkpt>
      <trkpt lat="42.42796" lon="2.79084">
        <ele>612</ele>
        <time>2024-09-22T05:06:23Z</time>
      </trkpt>
      <trkpt lat="42.42795" lon="2.79089">
        <ele>612</ele>
        <time>2024-09-22T05:06:26Z</time>
      </trkpt>
      <trkpt lat="42.42794" lon="2.79093">
        <ele>613</ele>
        <time>2024-09-22T05:06:29Z</time>
      </trkpt>
      <trkpt lat="42.42793" lon="2.79096">
        <ele>612</ele>
        <time>2024-09-22T05:06:31Z</time>
      </trkpt>
      <trkpt lat="42.42792" lon="2.791">
        <ele>613</ele>
        <time>2024-09-22T05:06:34Z</time>
      </trkpt>
      <trkpt lat="42.4279" lon="2.79103">
        <ele>613</ele>
        <time>2024-09-22T05:06:37Z</time>
      </trkpt>
      <trkpt lat="42.42789" lon="2.79106">
        <ele>613</ele>
        <time>2024-09-22T05:06:39Z</time>
      </trkpt>
      <trkpt lat="42.42787" lon="2.7911">
        <ele>614</ele>
        <time>2024-09-22T05:06:43Z</time>
      </trkpt>
      <trkpt lat="42.42786" lon="2.79114">
        <ele>614</ele>
        <time>2024-09-22T05:06:45Z</time>
      </trkpt>
      <trkpt lat="42.42783" lon="2.79118">
        <ele>615</ele>
        <time>2024-09-22T05:06:49Z</time>
      </trkpt>
      <trkpt lat="42.42782" lon="2.79122">
        <ele>616</ele>
        <time>2024-09-22T05:06:52Z</time>
      </trkpt>
      <trkpt lat="42.42779" lon="2.79126">
        <ele>615</ele>
        <time>2024-09-22T05:06:55Z</time>
      </trkpt>
      <trkpt lat="42.42778" lon="2.79131">
        <ele>615</ele>
        <time>2024-09-22T05:06:58Z</time>
      </trkpt>
      <trkpt lat="42.42776" lon="2.79135">
        <ele>616</ele>
        <time>2024-09-22T05:07:01Z</time>
      </trkpt>
      <trkpt lat="42.42776" lon="2.79139">
        <ele>616</ele>
        <time>2024-09-22T05:07:04Z</time>
      </trkpt>
      <trkpt lat="42.42774" lon="2.79142">
        <ele>616</ele>
        <time>2024-09-22T05:07:07Z</time>
      </trkpt>
      <trkpt lat="42.42772" lon="2.79146">
        <ele>617</ele>
        <time>2024-09-22T05:07:10Z</time>
      </trkpt>
      <trkpt lat="42.42771" lon="2.7915">
        <ele>617</ele>
        <time>2024-09-22T05:07:13Z</time>
      </trkpt>
      <trkpt lat="42.42769" lon="2.79154">
        <ele>617</ele>
        <time>2024-09-22T05:07:16Z</time>
      </trkpt>
      <trkpt lat="42.42767" lon="2.79158">
        <ele>618</ele>
        <time>2024-09-22T05:07:19Z</time>
      </trkpt>
      <trkpt lat="42.42765" lon="2.79162">
        <ele>618</ele>
        <time>2024-09-22T05:07:22Z</time>
      </trkpt>
      <trkpt lat="42.42763" lon="2.79166">
        <ele>617</ele>
        <time>2024-09-22T05:07:25Z</time>
      </trkpt>
      <trkpt lat="42.42761" lon="2.7917">
        <ele>618</ele>
        <time>2024-09-22T05:07:29Z</time>
      </trkpt>
      <trkpt lat="42.42762" lon="2.7917">
        <ele>618</ele>
        <time>2024-09-22T05:08:10Z</time>
      </trkpt>
      <trkpt lat="42.42761" lon="2.79171">
        <ele>619</ele>
        <time>2024-09-22T05:08:21Z</time>
      </trkpt>
      <trkpt lat="42.4276" lon="2.79174">
        <ele>621</ele>
        <time>2024-09-22T05:08:48Z</time>
      </trkpt>
      <trkpt lat="42.42759" lon="2.79177">
        <ele>621</ele>
        <time>2024-09-22T05:08:56Z</time>
      </trkpt>
      <trkpt lat="42.42758" lon="2.79181">
        <ele>620</ele>
        <time>2024-09-22T05:09:01Z</time>
      </trkpt>
      <trkpt lat="42.42759" lon="2.79181">
        <ele>619</ele>
        <time>2024-09-22T05:09:20Z</time>
      </trkpt>
      <trkpt lat="42.42762" lon="2.79179">
        <ele>620</ele>
        <time>2024-09-22T05:10:02Z</time>
      </trkpt>
      <trkpt lat="42.42761" lon="2.7918">
        <ele>620</ele>
        <time>2024-09-22T05:10:05Z</time>
      </trkpt>
      <trkpt lat="42.42759" lon="2.79182">
        <ele>619</ele>
        <time>2024-09-22T05:10:08Z</time>
      </trkpt>
      <trkpt lat="42.42761" lon="2.79185">
        <ele>621</ele>
        <time>2024-09-22T05:11:00Z</time>
      </trkpt>
      <trkpt lat="42.42761" lon="2.79188">
        <ele>622</ele>
        <time>2024-09-22T05:11:03Z</time>
      </trkpt>
      <trkpt lat="42.42758" lon="2.79191">
        <ele>622</ele>
        <time>2024-09-22T05:11:08Z</time>
      </trkpt>
      <trkpt lat="42.42757" lon="2.79195">
        <ele>622</ele>
        <time>2024-09-22T05:11:11Z</time>
      </trkpt>
      <trkpt lat="42.42756" lon="2.79199">
        <ele>622</ele>
        <time>2024-09-22T05:11:14Z</time>
      </trkpt>
      <trkpt lat="42.42754" lon="2.79203">
        <ele>623</ele>
        <time>2024-09-22T05:11:17Z</time>
      </trkpt>
      <trkpt lat="42.42754" lon="2.79207">
        <ele>622</ele>
        <time>2024-09-22T05:11:21Z</time>
      </trkpt>
      <trkpt lat="42.42753" lon="2.79212">
        <ele>622</ele>
        <time>2024-09-22T05:11:24Z</time>
      </trkpt>
      <trkpt lat="42.42752" lon="2.79217">
        <ele>623</ele>
        <time>2024-09-22T05:11:27Z</time>
      </trkpt>
      <trkpt lat="42.42751" lon="2.79222">
        <ele>623</ele>
        <time>2024-09-22T05:11:31Z</time>
      </trkpt>
      <trkpt lat="42.42751" lon="2.79227">
        <ele>623</ele>
        <time>2024-09-22T05:11:35Z</time>
      </trkpt>
      <trkpt lat="42.4275" lon="2.79231">
        <ele>623</ele>
        <time>2024-09-22T05:11:38Z</time>
      </trkpt>
      <trkpt lat="42.4275" lon="2.79236">
        <ele>624</ele>
        <time>2024-09-22T05:11:42Z</time>
      </trkpt>
      <trkpt lat="42.4275" lon="2.79241">
        <ele>625</ele>
        <time>2024-09-22T05:11:46Z</time>
      </trkpt>
      <trkpt lat="42.4275" lon="2.79246">
        <ele>624</ele>
        <time>2024-09-22T05:11:49Z</time>
      </trkpt>
      <trkpt lat="42.42752" lon="2.79249">
        <ele>624</ele>
        <time>2024-09-22T05:11:52Z</time>
      </trkpt>
      <trkpt lat="42.42754" lon="2.79252">
        <ele>626</ele>
        <time>2024-09-22T05:11:55Z</time>
      </trkpt>
      <trkpt lat="42.42756" lon="2.79251">
        <ele>626</ele>
        <time>2024-09-22T05:12:01Z</time>
      </trkpt>
      <trkpt lat="42.42758" lon="2.79248">
        <ele>626</ele>
        <time>2024-09-22T05:12:03Z</time>
      </trkpt>
      <trkpt lat="42.4276" lon="2.79245">
        <ele>626</ele>
        <time>2024-09-22T05:12:06Z</time>
      </trkpt>
      <trkpt lat="42.42762" lon="2.79242">
        <ele>627</ele>
        <time>2024-09-22T05:12:08Z</time>
      </trkpt>
      <trkpt lat="42.42764" lon="2.79239">
        <ele>627</ele>
        <time>2024-09-22T05:12:10Z</time>
      </trkpt>
      <trkpt lat="42.42766" lon="2.79235">
        <ele>627</ele>
        <time>2024-09-22T05:12:13Z</time>
      </trkpt>
      <trkpt lat="42.42767" lon="2.79231">
        <ele>628</ele>
        <time>2024-09-22T05:12:16Z</time>
      </trkpt>
      <trkpt lat="42.42768" lon="2.79227">
        <ele>628</ele>
        <time>2024-09-22T05:12:19Z</time>
      </trkpt>
      <trkpt lat="42.42769" lon="2.79223">
        <ele>630</ele>
        <time>2024-09-22T05:12:21Z</time>
      </trkpt>
      <trkpt lat="42.4277" lon="2.79219">
        <ele>628</ele>
        <time>2024-09-22T05:12:24Z</time>
      </trkpt>
      <trkpt lat="42.42771" lon="2.79216">
        <ele>629</ele>
        <time>2024-09-22T05:12:27Z</time>
      </trkpt>
      <trkpt lat="42.42773" lon="2.79212">
        <ele>629</ele>
        <time>2024-09-22T05:12:30Z</time>
      </trkpt>
      <trkpt lat="42.42775" lon="2.79208">
        <ele>629</ele>
        <time>2024-09-22T05:12:33Z</time>
      </trkpt>
      <trkpt lat="42.42776" lon="2.79204">
        <ele>630</ele>
        <time>2024-09-22T05:12:36Z</time>
      </trkpt>
      <trkpt lat="42.42778" lon="2.79201">
        <ele>630</ele>
        <time>2024-09-22T05:12:39Z</time>
      </trkpt>
      <trkpt lat="42.4278" lon="2.79197">
        <ele>630</ele>
        <time>2024-09-22T05:12:42Z</time>
      </trkpt>
      <trkpt lat="42.42783" lon="2.79193">
        <ele>630</ele>
        <time>2024-09-22T05:12:45Z</time>
      </trkpt>
      <trkpt lat="42.42785" lon="2.7919">
        <ele>630</ele>
        <time>2024-09-22T05:12:49Z</time>
      </trkpt>
      <trkpt lat="42.42788" lon="2.79187">
        <ele>631</ele>
        <time>2024-09-22T05:12:52Z</time>
      </trkpt>
      <trkpt lat="42.4279" lon="2.79183">
        <ele>631</ele>
        <time>2024-09-22T05:12:55Z</time>
      </trkpt>
      <trkpt lat="42.42793" lon="2.79179">
        <ele>632</ele>
        <time>2024-09-22T05:12:58Z</time>
      </trkpt>
      <trkpt lat="42.42795" lon="2.79176">
        <ele>632</ele>
        <time>2024-09-22T05:13:01Z</time>
      </trkpt>
      <trkpt lat="42.42797" lon="2.79173">
        <ele>632</ele>
        <time>2024-09-22T05:13:04Z</time>
      </trkpt>
      <trkpt lat="42.428" lon="2.79171">
        <ele>633</ele>
        <time>2024-09-22T05:13:06Z</time>
      </trkpt>
      <trkpt lat="42.42802" lon="2.79168">
        <ele>633</ele>
        <time>2024-09-22T05:13:09Z</time>
      </trkpt>
      <trkpt lat="42.42805" lon="2.79164">
        <ele>634</ele>
        <time>2024-09-22T05:13:12Z</time>
      </trkpt>
      <trkpt lat="42.42807" lon="2.7916">
        <ele>633</ele>
        <time>2024-09-22T05:13:16Z</time>
      </trkpt>
      <trkpt lat="42.42809" lon="2.79156">
        <ele>634</ele>
        <time>2024-09-22T05:13:19Z</time>
      </trkpt>
      <trkpt lat="42.4281" lon="2.79153">
        <ele>633</ele>
        <time>2024-09-22T05:13:22Z</time>
      </trkpt>
      <trkpt lat="42.42813" lon="2.7915">
        <ele>633</ele>
        <time>2024-09-22T05:13:25Z</time>
      </trkpt>
      <trkpt lat="42.42815" lon="2.79147">
        <ele>634</ele>
        <time>2024-09-22T05:13:27Z</time>
      </trkpt>
      <trkpt lat="42.42817" lon="2.79144">
        <ele>633</ele>
        <time>2024-09-22T05:13:31Z</time>
      </trkpt>
      <trkpt lat="42.42819" lon="2.79141">
        <ele>634</ele>
        <time>2024-09-22T05:13:33Z</time>
      </trkpt>
      <trkpt lat="42.42822" lon="2.79138">
        <ele>635</ele>
        <time>2024-09-22T05:13:35Z</time>
      </trkpt>
      <trkpt lat="42.42825" lon="2.79136">
        <ele>634</ele>
        <time>2024-09-22T05:13:39Z</time>
      </trkpt>
      <trkpt lat="42.42827" lon="2.79134">
        <ele>635</ele>
        <time>2024-09-22T05:13:41Z</time>
      </trkpt>
      <trkpt lat="42.42829" lon="2.79132">
        <ele>635</ele>
        <time>2024-09-22T05:13:43Z</time>
      </trkpt>
      <trkpt lat="42.42832" lon="2.79129">
        <ele>636</ele>
        <time>2024-09-22T05:13:46Z</time>
      </trkpt>
      <trkpt lat="42.42834" lon="2.79125">
        <ele>636</ele>
        <time>2024-09-22T05:13:48Z</time>
      </trkpt>
      <trkpt lat="42.42836" lon="2.79122">
        <ele>637</ele>
        <time>2024-09-22T05:13:51Z</time>
      </trkpt>
      <trkpt lat="42.42838" lon="2.79118">
        <ele>637</ele>
        <time>2024-09-22T05:13:54Z</time>
      </trkpt>
      <trkpt lat="42.42839" lon="2.79114">
        <ele>637</ele>
        <time>2024-09-22T05:13:57Z</time>
      </trkpt>
      <trkpt lat="42.4284" lon="2.79109">
        <ele>637</ele>
        <time>2024-09-22T05:13:59Z</time>
      </trkpt>
      <trkpt lat="42.42841" lon="2.79105">
        <ele>637</ele>
        <time>2024-09-22T05:14:03Z</time>
      </trkpt>
      <trkpt lat="42.42842" lon="2.79101">
        <ele>636</ele>
        <time>2024-09-22T05:14:07Z</time>
      </trkpt>
      <trkpt lat="42.42843" lon="2.79097">
        <ele>636</ele>
        <time>2024-09-22T05:14:09Z</time>
      </trkpt>
      <trkpt lat="42.42843" lon="2.79093">
        <ele>637</ele>
        <time>2024-09-22T05:14:12Z</time>
      </trkpt>
      <trkpt lat="42.42844" lon="2.79089">
        <ele>637</ele>
        <time>2024-09-22T05:14:15Z</time>
      </trkpt>
      <trkpt lat="42.42844" lon="2.79084">
        <ele>637</ele>
        <time>2024-09-22T05:14:17Z</time>
      </trkpt>
      <trkpt lat="42.42845" lon="2.7908">
        <ele>637</ele>
        <time>2024-09-22T05:14:21Z</time>
      </trkpt>
      <trkpt lat="42.42846" lon="2.79076">
        <ele>637</ele>
        <time>2024-09-22T05:14:23Z</time>
      </trkpt>
      <trkpt lat="42.42847" lon="2.79072">
        <ele>637</ele>
        <time>2024-09-22T05:14:25Z</time>
      </trkpt>
      <trkpt lat="42.42848" lon="2.79068">
        <ele>637</ele>
        <time>2024-09-22T05:14:28Z</time>
      </trkpt>
      <trkpt lat="42.42849" lon="2.79063">
        <ele>636</ele>
        <time>2024-09-22T05:14:31Z</time>
      </trkpt>
      <trkpt lat="42.4285" lon="2.79058">
        <ele>637</ele>
        <time>2024-09-22T05:14:34Z</time>
      </trkpt>
      <trkpt lat="42.4285" lon="2.79054">
        <ele>637</ele>
        <time>2024-09-22T05:14:37Z</time>
      </trkpt>
      <trkpt lat="42.42852" lon="2.79049">
        <ele>637</ele>
        <time>2024-09-22T05:14:41Z</time>
      </trkpt>
      <trkpt lat="42.42854" lon="2.79044">
        <ele>638</ele>
        <time>2024-09-22T05:14:43Z</time>
      </trkpt>
      <trkpt lat="42.42856" lon="2.7904">
        <ele>637</ele>
        <time>2024-09-22T05:14:46Z</time>
      </trkpt>
      <trkpt lat="42.42857" lon="2.79036">
        <ele>638</ele>
        <time>2024-09-22T05:14:48Z</time>
      </trkpt>
      <trkpt lat="42.42859" lon="2.79033">
        <ele>638</ele>
        <time>2024-09-22T05:14:51Z</time>
      </trkpt>
      <trkpt lat="42.42861" lon="2.79029">
        <ele>638</ele>
        <time>2024-09-22T05:14:54Z</time>
      </trkpt>
      <trkpt lat="42.42863" lon="2.79024">
        <ele>639</ele>
        <time>2024-09-22T05:14:58Z</time>
      </trkpt>
      <trkpt lat="42.42865" lon="2.79021">
        <ele>639</ele>
        <time>2024-09-22T05:15:01Z</time>
      </trkpt>
      <trkpt lat="42.42867" lon="2.79016">
        <ele>639</ele>
        <time>2024-09-22T05:15:04Z</time>
      </trkpt>
      <trkpt lat="42.42869" lon="2.79011">
        <ele>639</ele>
        <time>2024-09-22T05:15:07Z</time>
      </trkpt>
      <trkpt lat="42.42871" lon="2.79007">
        <ele>640</ele>
        <time>2024-09-22T05:15:10Z</time>
      </trkpt>
      <trkpt lat="42.42873" lon="2.79004">
        <ele>640</ele>
        <time>2024-09-22T05:15:12Z</time>
      </trkpt>
      <trkpt lat="42.42875" lon="2.79">
        <ele>641</ele>
        <time>2024-09-22T05:15:15Z</time>
      </trkpt>
      <trkpt lat="42.42877" lon="2.78996">
        <ele>641</ele>
        <time>2024-09-22T05:15:17Z</time>
      </trkpt>
      <trkpt lat="42.42878" lon="2.78993">
        <ele>642</ele>
        <time>2024-09-22T05:15:20Z</time>
      </trkpt>
      <trkpt lat="42.42881" lon="2.7899">
        <ele>641</ele>
        <time>2024-09-22T05:15:23Z</time>
      </trkpt>
      <trkpt lat="42.42883" lon="2.78987">
        <ele>642</ele>
        <time>2024-09-22T05:15:26Z</time>
      </trkpt>
      <trkpt lat="42.42886" lon="2.78985">
        <ele>642</ele>
        <time>2024-09-22T05:15:29Z</time>
      </trkpt>
      <trkpt lat="42.42889" lon="2.78981">
        <ele>643</ele>
        <time>2024-09-22T05:15:31Z</time>
      </trkpt>
      <trkpt lat="42.42892" lon="2.7898">
        <ele>643</ele>
        <time>2024-09-22T05:15:36Z</time>
      </trkpt>
      <trkpt lat="42.42896" lon="2.7898">
        <ele>644</ele>
        <time>2024-09-22T05:15:39Z</time>
      </trkpt>
      <trkpt lat="42.42899" lon="2.78979">
        <ele>645</ele>
        <time>2024-09-22T05:15:42Z</time>
      </trkpt>
      <trkpt lat="42.42902" lon="2.78979">
        <ele>645</ele>
        <time>2024-09-22T05:15:45Z</time>
      </trkpt>
      <trkpt lat="42.42905" lon="2.78981">
        <ele>645</ele>
        <time>2024-09-22T05:15:48Z</time>
      </trkpt>
      <trkpt lat="42.42906" lon="2.78984">
        <ele>646</ele>
        <time>2024-09-22T05:15:52Z</time>
      </trkpt>
      <trkpt lat="42.42908" lon="2.78987">
        <ele>646</ele>
        <time>2024-09-22T05:15:55Z</time>
      </trkpt>
      <trkpt lat="42.42906" lon="2.78991">
        <ele>648</ele>
        <time>2024-09-22T05:15:59Z</time>
      </trkpt>
      <trkpt lat="42.42904" lon="2.78994">
        <ele>647</ele>
        <time>2024-09-22T05:16:02Z</time>
      </trkpt>
      <trkpt lat="42.42902" lon="2.78996">
        <ele>647</ele>
        <time>2024-09-22T05:16:05Z</time>
      </trkpt>
      <trkpt lat="42.42899" lon="2.78997">
        <ele>648</ele>
        <time>2024-09-22T05:16:09Z</time>
      </trkpt>
      <trkpt lat="42.42896" lon="2.79">
        <ele>647</ele>
        <time>2024-09-22T05:16:13Z</time>
      </trkpt>
      <trkpt lat="42.42894" lon="2.79003">
        <ele>647</ele>
        <time>2024-09-22T05:16:17Z</time>
      </trkpt>
      <trkpt lat="42.42892" lon="2.79006">
        <ele>648</ele>
        <time>2024-09-22T05:16:20Z</time>
      </trkpt>
      <trkpt lat="42.4289" lon="2.7901">
        <ele>648</ele>
        <time>2024-09-22T05:16:23Z</time>
      </trkpt>
      <trkpt lat="42.42887" lon="2.79014">
        <ele>648</ele>
        <time>2024-09-22T05:16:26Z</time>
      </trkpt>
      <trkpt lat="42.42885" lon="2.79018">
        <ele>648</ele>
        <time>2024-09-22T05:16:29Z</time>
      </trkpt>
      <trkpt lat="42.42883" lon="2.79022">
        <ele>648</ele>
        <time>2024-09-22T05:16:32Z</time>
      </trkpt>
      <trkpt lat="42.42882" lon="2.79027">
        <ele>649</ele>
        <time>2024-09-22T05:16:35Z</time>
      </trkpt>
      <trkpt lat="42.42881" lon="2.79031">
        <ele>649</ele>
        <time>2024-09-22T05:16:38Z</time>
      </trkpt>
      <trkpt lat="42.4288" lon="2.79035">
        <ele>648</ele>
        <time>2024-09-22T05:16:41Z</time>
      </trkpt>
      <trkpt lat="42.42878" lon="2.79039">
        <ele>649</ele>
        <time>2024-09-22T05:16:44Z</time>
      </trkpt>
      <trkpt lat="42.42877" lon="2.79042">
        <ele>650</ele>
        <time>2024-09-22T05:16:46Z</time>
      </trkpt>
      <trkpt lat="42.42875" lon="2.79046">
        <ele>650</ele>
        <time>2024-09-22T05:16:48Z</time>
      </trkpt>
      <trkpt lat="42.42875" lon="2.79051">
        <ele>650</ele>
        <time>2024-09-22T05:16:51Z</time>
      </trkpt>
      <trkpt lat="42.42873" lon="2.79054">
        <ele>650</ele>
        <time>2024-09-22T05:16:53Z</time>
      </trkpt>
      <trkpt lat="42.42872" lon="2.79058">
        <ele>651</ele>
        <time>2024-09-22T05:16:56Z</time>
      </trkpt>
      <trkpt lat="42.4287" lon="2.79062">
        <ele>651</ele>
        <time>2024-09-22T05:16:58Z</time>
      </trkpt>
      <trkpt lat="42.42869" lon="2.79066">
        <ele>651</ele>
        <time>2024-09-22T05:17:01Z</time>
      </trkpt>
      <trkpt lat="42.42868" lon="2.7907">
        <ele>650</ele>
        <time>2024-09-22T05:17:03Z</time>
      </trkpt>
      <trkpt lat="42.42867" lon="2.79074">
        <ele>651</ele>
        <time>2024-09-22T05:17:06Z</time>
      </trkpt>
      <trkpt lat="42.42866" lon="2.79079">
        <ele>651</ele>
        <time>2024-09-22T05:17:09Z</time>
      </trkpt>
      <trkpt lat="42.42866" lon="2.79084">
        <ele>650</ele>
        <time>2024-09-22T05:17:12Z</time>
      </trkpt>
      <trkpt lat="42.42866" lon="2.79089">
        <ele>650</ele>
        <time>2024-09-22T05:17:15Z</time>
      </trkpt>
      <trkpt lat="42.42865" lon="2.79095">
        <ele>650</ele>
        <time>2024-09-22T05:17:18Z</time>
      </trkpt>
      <trkpt lat="42.42865" lon="2.79099">
        <ele>651</ele>
        <time>2024-09-22T05:17:21Z</time>
      </trkpt>
      <trkpt lat="42.42864" lon="2.79103">
        <ele>651</ele>
        <time>2024-09-22T05:17:23Z</time>
      </trkpt>
      <trkpt lat="42.42864" lon="2.79108">
        <ele>651</ele>
        <time>2024-09-22T05:17:26Z</time>
      </trkpt>
      <trkpt lat="42.42864" lon="2.79113">
        <ele>650</ele>
        <time>2024-09-22T05:17:29Z</time>
      </trkpt>
      <trkpt lat="42.42863" lon="2.79118">
        <ele>650</ele>
        <time>2024-09-22T05:17:32Z</time>
      </trkpt>
      <trkpt lat="42.42862" lon="2.79122">
        <ele>651</ele>
        <time>2024-09-22T05:17:34Z</time>
      </trkpt>
      <trkpt lat="42.42862" lon="2.79126">
        <ele>652</ele>
        <time>2024-09-22T05:17:36Z</time>
      </trkpt>
      <trkpt lat="42.42861" lon="2.7913">
        <ele>652</ele>
        <time>2024-09-22T05:17:39Z</time>
      </trkpt>
      <trkpt lat="42.42859" lon="2.79134">
        <ele>652</ele>
        <time>2024-09-22T05:17:42Z</time>
      </trkpt>
      <trkpt lat="42.42858" lon="2.79138">
        <ele>653</ele>
        <time>2024-09-22T05:17:44Z</time>
      </trkpt>
      <trkpt lat="42.42856" lon="2.79141">
        <ele>653</ele>
        <time>2024-09-22T05:17:47Z</time>
      </trkpt>
      <trkpt lat="42.42855" lon="2.79145">
        <ele>653</ele>
        <time>2024-09-22T05:17:49Z</time>
      </trkpt>
      <trkpt lat="42.42853" lon="2.79149">
        <ele>653</ele>
        <time>2024-09-22T05:17:52Z</time>
      </trkpt>
      <trkpt lat="42.42852" lon="2.79153">
        <ele>654</ele>
        <time>2024-09-22T05:17:54Z</time>
      </trkpt>
      <trkpt lat="42.4285" lon="2.79157">
        <ele>654</ele>
        <time>2024-09-22T05:17:57Z</time>
      </trkpt>
      <trkpt lat="42.42849" lon="2.79161">
        <ele>654</ele>
        <time>2024-09-22T05:18:00Z</time>
      </trkpt>
      <trkpt lat="42.42847" lon="2.79165">
        <ele>654</ele>
        <time>2024-09-22T05:18:03Z</time>
      </trkpt>
      <trkpt lat="42.42845" lon="2.79169">
        <ele>654</ele>
        <time>2024-09-22T05:18:06Z</time>
      </trkpt>
      <trkpt lat="42.42844" lon="2.79173">
        <ele>654</ele>
        <time>2024-09-22T05:18:08Z</time>
      </trkpt>
      <trkpt lat="42.42841" lon="2.79177">
        <ele>654</ele>
        <time>2024-09-22T05:18:11Z</time>
      </trkpt>
      <trkpt lat="42.4284" lon="2.79181">
        <ele>653</ele>
        <time>2024-09-22T05:18:14Z</time>
      </trkpt>
      <trkpt lat="42.42838" lon="2.79185">
        <ele>653</ele>
        <time>2024-09-22T05:18:16Z</time>
      </trkpt>
      <trkpt lat="42.42837" lon="2.79189">
        <ele>654</ele>
        <time>2024-09-22T05:18:18Z</time>
      </trkpt>
      <trkpt lat="42.42835" lon="2.79192">
        <ele>654</ele>
        <time>2024-09-22T05:18:20Z</time>
      </trkpt>
      <trkpt lat="42.42834" lon="2.79196">
        <ele>654</ele>
        <time>2024-09-22T05:18:24Z</time>
      </trkpt>
      <trkpt lat="42.42833" lon="2.79199">
        <ele>654</ele>
        <time>2024-09-22T05:18:26Z</time>
      </trkpt>
      <trkpt lat="42.42832" lon="2.79204">
        <ele>654</ele>
        <time>2024-09-22T05:18:29Z</time>
      </trkpt>
      <trkpt lat="42.42831" lon="2.79209">
        <ele>655</ele>
        <time>2024-09-22T05:18:32Z</time>
      </trkpt>
      <trkpt lat="42.4283" lon="2.79214">
        <ele>654</ele>
        <time>2024-09-22T05:18:35Z</time>
      </trkpt>
      <trkpt lat="42.42828" lon="2.79219">
        <ele>654</ele>
        <time>2024-09-22T05:18:38Z</time>
      </trkpt>
      <trkpt lat="42.42827" lon="2.79224">
        <ele>654</ele>
        <time>2024-09-22T05:18:41Z</time>
      </trkpt>
      <trkpt lat="42.42826" lon="2.79228">
        <ele>654</ele>
        <time>2024-09-22T05:18:44Z</time>
      </trkpt>
      <trkpt lat="42.42825" lon="2.79233">
        <ele>654</ele>
        <time>2024-09-22T05:18:47Z</time>
      </trkpt>
      <trkpt lat="42.42823" lon="2.79237">
        <ele>654</ele>
        <time>2024-09-22T05:18:49Z</time>
      </trkpt>
      <trkpt lat="42.42822" lon="2.79241">
        <ele>655</ele>
        <time>2024-09-22T05:18:51Z</time>
      </trkpt>
      <trkpt lat="42.4282" lon="2.79245">
        <ele>654</ele>
        <time>2024-09-22T05:18:54Z</time>
      </trkpt>
      <trkpt lat="42.4282" lon="2.79249">
        <ele>655</ele>
        <time>2024-09-22T05:18:55Z</time>
      </trkpt>
      <trkpt lat="42.42819" lon="2.79253">
        <ele>654</ele>
        <time>2024-09-22T05:18:58Z</time>
      </trkpt>
      <trkpt lat="42.42818" lon="2.79258">
        <ele>655</ele>
        <time>2024-09-22T05:19:01Z</time>
      </trkpt>
      <trkpt lat="42.42817" lon="2.79262">
        <ele>655</ele>
        <time>2024-09-22T05:19:03Z</time>
      </trkpt>
      <trkpt lat="42.42817" lon="2.79266">
        <ele>655</ele>
        <time>2024-09-22T05:19:06Z</time>
      </trkpt>
      <trkpt lat="42.42816" lon="2.79271">
        <ele>655</ele>
        <time>2024-09-22T05:19:08Z</time>
      </trkpt>
      <trkpt lat="42.42816" lon="2.79275">
        <ele>655</ele>
        <time>2024-09-22T05:19:11Z</time>
      </trkpt>
      <trkpt lat="42.42815" lon="2.7928">
        <ele>656</ele>
        <time>2024-09-22T05:19:14Z</time>
      </trkpt>
      <trkpt lat="42.42815" lon="2.79285">
        <ele>656</ele>
        <time>2024-09-22T05:19:17Z</time>
      </trkpt>
      <trkpt lat="42.42814" lon="2.79289">
        <ele>656</ele>
        <time>2024-09-22T05:19:20Z</time>
      </trkpt>
      <trkpt lat="42.42814" lon="2.79293">
        <ele>656</ele>
        <time>2024-09-22T05:19:22Z</time>
      </trkpt>
      <trkpt lat="42.42813" lon="2.79298">
        <ele>657</ele>
        <time>2024-09-22T05:19:25Z</time>
      </trkpt>
      <trkpt lat="42.42813" lon="2.79302">
        <ele>656</ele>
        <time>2024-09-22T05:19:28Z</time>
      </trkpt>
      <trkpt lat="42.42813" lon="2.79307">
        <ele>656</ele>
        <time>2024-09-22T05:19:31Z</time>
      </trkpt>
      <trkpt lat="42.42812" lon="2.79311">
        <ele>657</ele>
        <time>2024-09-22T05:19:34Z</time>
      </trkpt>
      <trkpt lat="42.42812" lon="2.79315">
        <ele>656</ele>
        <time>2024-09-22T05:19:36Z</time>
      </trkpt>
      <trkpt lat="42.4281" lon="2.79319">
        <ele>657</ele>
        <time>2024-09-22T05:19:39Z</time>
      </trkpt>
      <trkpt lat="42.42809" lon="2.79323">
        <ele>657</ele>
        <time>2024-09-22T05:19:41Z</time>
      </trkpt>
      <trkpt lat="42.42808" lon="2.79327">
        <ele>657</ele>
        <time>2024-09-22T05:19:44Z</time>
      </trkpt>
      <trkpt lat="42.42807" lon="2.79331">
        <ele>658</ele>
        <time>2024-09-22T05:19:46Z</time>
      </trkpt>
      <trkpt lat="42.42806" lon="2.79334">
        <ele>658</ele>
        <time>2024-09-22T05:19:49Z</time>
      </trkpt>
      <trkpt lat="42.42803" lon="2.79338">
        <ele>658</ele>
        <time>2024-09-22T05:19:52Z</time>
      </trkpt>
      <trkpt lat="42.428" lon="2.79341">
        <ele>660</ele>
        <time>2024-09-22T05:19:55Z</time>
      </trkpt>
      <trkpt lat="42.42798" lon="2.79344">
        <ele>660</ele>
        <time>2024-09-22T05:19:58Z</time>
      </trkpt>
      <trkpt lat="42.42796" lon="2.79348">
        <ele>661</ele>
        <time>2024-09-22T05:20:01Z</time>
      </trkpt>
      <trkpt lat="42.42794" lon="2.79352">
        <ele>661</ele>
        <time>2024-09-22T05:20:04Z</time>
      </trkpt>
      <trkpt lat="42.42794" lon="2.79356">
        <ele>661</ele>
        <time>2024-09-22T05:20:07Z</time>
      </trkpt>
      <trkpt lat="42.42796" lon="2.79361">
        <ele>662</ele>
        <time>2024-09-22T05:20:10Z</time>
      </trkpt>
      <trkpt lat="42.428" lon="2.79363">
        <ele>663</ele>
        <time>2024-09-22T05:20:13Z</time>
      </trkpt>
      <trkpt lat="42.42803" lon="2.79364">
        <ele>663</ele>
        <time>2024-09-22T05:20:16Z</time>
      </trkpt>
      <trkpt lat="42.42806" lon="2.79362">
        <ele>663</ele>
        <time>2024-09-22T05:20:18Z</time>
      </trkpt>
      <trkpt lat="42.42809" lon="2.7936">
        <ele>663</ele>
        <time>2024-09-22T05:20:20Z</time>
      </trkpt>
      <trkpt lat="42.42812" lon="2.79358">
        <ele>664</ele>
        <time>2024-09-22T05:20:23Z</time>
      </trkpt>
      <trkpt lat="42.42815" lon="2.79357">
        <ele>664</ele>
        <time>2024-09-22T05:20:25Z</time>
      </trkpt>
      <trkpt lat="42.42817" lon="2.79354">
        <ele>664</ele>
        <time>2024-09-22T05:20:29Z</time>
      </trkpt>
      <trkpt lat="42.4282" lon="2.79352">
        <ele>663</ele>
        <time>2024-09-22T05:20:32Z</time>
      </trkpt>
      <trkpt lat="42.42822" lon="2.79349">
        <ele>664</ele>
        <time>2024-09-22T05:20:34Z</time>
      </trkpt>
      <trkpt lat="42.42823" lon="2.79345">
        <ele>664</ele>
        <time>2024-09-22T05:20:36Z</time>
      </trkpt>
      <trkpt lat="42.42824" lon="2.79342">
        <ele>665</ele>
        <time>2024-09-22T05:20:38Z</time>
      </trkpt>
      <trkpt lat="42.42826" lon="2.79338">
        <ele>665</ele>
        <time>2024-09-22T05:20:41Z</time>
      </trkpt>
      <trkpt lat="42.42828" lon="2.79334">
        <ele>665</ele>
        <time>2024-09-22T05:20:44Z</time>
      </trkpt>
      <trkpt lat="42.42829" lon="2.7933">
        <ele>667</ele>
        <time>2024-09-22T05:20:46Z</time>
      </trkpt>
      <trkpt lat="42.4283" lon="2.79326">
        <ele>665</ele>
        <time>2024-09-22T05:20:49Z</time>
      </trkpt>
      <trkpt lat="42.4283" lon="2.79322">
        <ele>666</ele>
        <time>2024-09-22T05:20:52Z</time>
      </trkpt>
      <trkpt lat="42.42831" lon="2.79318">
        <ele>664</ele>
        <time>2024-09-22T05:20:55Z</time>
      </trkpt>
      <trkpt lat="42.42832" lon="2.79313">
        <ele>664</ele>
        <time>2024-09-22T05:20:58Z</time>
      </trkpt>
      <trkpt lat="42.42833" lon="2.79309">
        <ele>664</ele>
        <time>2024-09-22T05:21:01Z</time>
      </trkpt>
      <trkpt lat="42.42834" lon="2.79305">
        <ele>664</ele>
        <time>2024-09-22T05:21:03Z</time>
      </trkpt>
      <trkpt lat="42.42835" lon="2.79301">
        <ele>665</ele>
        <time>2024-09-22T05:21:05Z</time>
      </trkpt>
      <trkpt lat="42.42837" lon="2.79296">
        <ele>664</ele>
        <time>2024-09-22T05:21:08Z</time>
      </trkpt>
      <trkpt lat="42.42838" lon="2.79291">
        <ele>664</ele>
        <time>2024-09-22T05:21:12Z</time>
      </trkpt>
      <trkpt lat="42.4284" lon="2.79287">
        <ele>665</ele>
        <time>2024-09-22T05:21:14Z</time>
      </trkpt>
      <trkpt lat="42.42841" lon="2.79283">
        <ele>666</ele>
        <time>2024-09-22T05:21:17Z</time>
      </trkpt>
      <trkpt lat="42.42843" lon="2.79279">
        <ele>665</ele>
        <time>2024-09-22T05:21:20Z</time>
      </trkpt>
      <trkpt lat="42.42844" lon="2.79275">
        <ele>666</ele>
        <time>2024-09-22T05:21:22Z</time>
      </trkpt>
      <trkpt lat="42.42845" lon="2.79272">
        <ele>665</ele>
        <time>2024-09-22T05:21:25Z</time>
      </trkpt>
      <trkpt lat="42.42847" lon="2.79268">
        <ele>666</ele>
        <time>2024-09-22T05:21:27Z</time>
      </trkpt>
      <trkpt lat="42.42848" lon="2.79265">
        <ele>666</ele>
        <time>2024-09-22T05:21:30Z</time>
      </trkpt>
      <trkpt lat="42.4285" lon="2.79261">
        <ele>667</ele>
        <time>2024-09-22T05:21:33Z</time>
      </trkpt>
      <trkpt lat="42.42852" lon="2.79256">
        <ele>668</ele>
        <time>2024-09-22T05:21:37Z</time>
      </trkpt>
      <trkpt lat="42.42853" lon="2.79252">
        <ele>667</ele>
        <time>2024-09-22T05:21:39Z</time>
      </trkpt>
      <trkpt lat="42.42855" lon="2.79248">
        <ele>667</ele>
        <time>2024-09-22T05:21:42Z</time>
      </trkpt>
      <trkpt lat="42.42856" lon="2.79244">
        <ele>668</ele>
        <time>2024-09-22T05:21:45Z</time>
      </trkpt>
      <trkpt lat="42.42858" lon="2.7924">
        <ele>668</ele>
        <time>2024-09-22T05:21:48Z</time>
      </trkpt>
      <trkpt lat="42.4286" lon="2.79236">
        <ele>669</ele>
        <time>2024-09-22T05:21:51Z</time>
      </trkpt>
      <trkpt lat="42.42862" lon="2.79231">
        <ele>668</ele>
        <time>2024-09-22T05:21:54Z</time>
      </trkpt>
      <trkpt lat="42.42863" lon="2.79227">
        <ele>668</ele>
        <time>2024-09-22T05:21:57Z</time>
      </trkpt>
      <trkpt lat="42.42864" lon="2.79224">
        <ele>669</ele>
        <time>2024-09-22T05:21:59Z</time>
      </trkpt>
      <trkpt lat="42.42866" lon="2.79219">
        <ele>669</ele>
        <time>2024-09-22T05:22:01Z</time>
      </trkpt>
      <trkpt lat="42.42868" lon="2.79216">
        <ele>669</ele>
        <time>2024-09-22T05:22:04Z</time>
      </trkpt>
      <trkpt lat="42.42869" lon="2.79212">
        <ele>671</ele>
        <time>2024-09-22T05:22:08Z</time>
      </trkpt>
      <trkpt lat="42.42871" lon="2.79207">
        <ele>671</ele>
        <time>2024-09-22T05:22:10Z</time>
      </trkpt>
      <trkpt lat="42.42873" lon="2.79203">
        <ele>671</ele>
        <time>2024-09-22T05:22:14Z</time>
      </trkpt>
      <trkpt lat="42.42874" lon="2.79199">
        <ele>671</ele>
        <time>2024-09-22T05:22:16Z</time>
      </trkpt>
      <trkpt lat="42.42875" lon="2.79194">
        <ele>670</ele>
        <time>2024-09-22T05:22:19Z</time>
      </trkpt>
      <trkpt lat="42.42877" lon="2.79191">
        <ele>671</ele>
        <time>2024-09-22T05:22:22Z</time>
      </trkpt>
      <trkpt lat="42.42878" lon="2.79186">
        <ele>673</ele>
        <time>2024-09-22T05:22:24Z</time>
      </trkpt>
      <trkpt lat="42.42878" lon="2.79182">
        <ele>672</ele>
        <time>2024-09-22T05:22:31Z</time>
      </trkpt>
      <trkpt lat="42.4288" lon="2.79181">
        <ele>672</ele>
        <time>2024-09-22T05:22:37Z</time>
      </trkpt>
      <trkpt lat="42.42883" lon="2.79181">
        <ele>673</ele>
        <time>2024-09-22T05:22:39Z</time>
      </trkpt>
      <trkpt lat="42.42886" lon="2.79179">
        <ele>673</ele>
        <time>2024-09-22T05:22:42Z</time>
      </trkpt>
      <trkpt lat="42.42889" lon="2.79177">
        <ele>672</ele>
        <time>2024-09-22T05:22:45Z</time>
      </trkpt>
      <trkpt lat="42.42891" lon="2.79174">
        <ele>673</ele>
        <time>2024-09-22T05:22:47Z</time>
      </trkpt>
      <trkpt lat="42.42893" lon="2.79171">
        <ele>673</ele>
        <time>2024-09-22T05:22:49Z</time>
      </trkpt>
      <trkpt lat="42.42896" lon="2.79168">
        <ele>673</ele>
        <time>2024-09-22T05:22:52Z</time>
      </trkpt>
      <trkpt lat="42.42897" lon="2.79165">
        <ele>673</ele>
        <time>2024-09-22T05:22:54Z</time>
      </trkpt>
      <trkpt lat="42.42898" lon="2.79161">
        <ele>674</ele>
        <time>2024-09-22T05:22:56Z</time>
      </trkpt>
      <trkpt lat="42.429" lon="2.79157">
        <ele>674</ele>
        <time>2024-09-22T05:22:59Z</time>
      </trkpt>
      <trkpt lat="42.42903" lon="2.79154">
        <ele>674</ele>
        <time>2024-09-22T05:23:02Z</time>
      </trkpt>
      <trkpt lat="42.42905" lon="2.79151">
        <ele>674</ele>
        <time>2024-09-22T05:23:04Z</time>
      </trkpt>
      <trkpt lat="42.42906" lon="2.79147">
        <ele>674</ele>
        <time>2024-09-22T05:23:07Z</time>
      </trkpt>
      <trkpt lat="42.42907" lon="2.79143">
        <ele>674</ele>
        <time>2024-09-22T05:23:08Z</time>
      </trkpt>
      <trkpt lat="42.42909" lon="2.79141">
        <ele>674</ele>
        <time>2024-09-22T05:23:11Z</time>
      </trkpt>
      <trkpt lat="42.42911" lon="2.79139">
        <ele>674</ele>
        <time>2024-09-22T05:23:13Z</time>
      </trkpt>
      <trkpt lat="42.42914" lon="2.79135">
        <ele>673</ele>
        <time>2024-09-22T05:23:16Z</time>
      </trkpt>
      <trkpt lat="42.42915" lon="2.79131">
        <ele>674</ele>
        <time>2024-09-22T05:23:18Z</time>
      </trkpt>
      <trkpt lat="42.42917" lon="2.79127">
        <ele>674</ele>
        <time>2024-09-22T05:23:22Z</time>
      </trkpt>
      <trkpt lat="42.42919" lon="2.79124">
        <ele>674</ele>
        <time>2024-09-22T05:23:25Z</time>
      </trkpt>
      <trkpt lat="42.42923" lon="2.79122">
        <ele>675</ele>
        <time>2024-09-22T05:23:27Z</time>
      </trkpt>
      <trkpt lat="42.42925" lon="2.79119">
        <ele>675</ele>
        <time>2024-09-22T05:23:30Z</time>
      </trkpt>
      <trkpt lat="42.42928" lon="2.79116">
        <ele>675</ele>
        <time>2024-09-22T05:23:33Z</time>
      </trkpt>
      <trkpt lat="42.42931" lon="2.79114">
        <ele>675</ele>
        <time>2024-09-22T05:23:36Z</time>
      </trkpt>
      <trkpt lat="42.42934" lon="2.79114">
        <ele>677</ele>
        <time>2024-09-22T05:23:40Z</time>
      </trkpt>
      <trkpt lat="42.42938" lon="2.79114">
        <ele>678</ele>
        <time>2024-09-22T05:23:43Z</time>
      </trkpt>
      <trkpt lat="42.42942" lon="2.79115">
        <ele>679</ele>
        <time>2024-09-22T05:23:48Z</time>
      </trkpt>
      <trkpt lat="42.42946" lon="2.79116">
        <ele>677</ele>
        <time>2024-09-22T05:23:51Z</time>
      </trkpt>
      <trkpt lat="42.4295" lon="2.79118">
        <ele>677</ele>
        <time>2024-09-22T05:23:54Z</time>
      </trkpt>
      <trkpt lat="42.42953" lon="2.7912">
        <ele>678</ele>
        <time>2024-09-22T05:23:57Z</time>
      </trkpt>
      <trkpt lat="42.42956" lon="2.79123">
        <ele>678</ele>
        <time>2024-09-22T05:24:00Z</time>
      </trkpt>
      <trkpt lat="42.4296" lon="2.79125">
        <ele>679</ele>
        <time>2024-09-22T05:24:03Z</time>
      </trkpt>
      <trkpt lat="42.42963" lon="2.79127">
        <ele>679</ele>
        <time>2024-09-22T05:24:06Z</time>
      </trkpt>
      <trkpt lat="42.42966" lon="2.79129">
        <ele>680</ele>
        <time>2024-09-22T05:24:08Z</time>
      </trkpt>
      <trkpt lat="42.42969" lon="2.79131">
        <ele>681</ele>
        <time>2024-09-22T05:24:11Z</time>
      </trkpt>
      <trkpt lat="42.42972" lon="2.79134">
        <ele>681</ele>
        <time>2024-09-22T05:24:14Z</time>
      </trkpt>
      <trkpt lat="42.42975" lon="2.79136">
        <ele>682</ele>
        <time>2024-09-22T05:24:17Z</time>
      </trkpt>
      <trkpt lat="42.42978" lon="2.79137">
        <ele>681</ele>
        <time>2024-09-22T05:24:20Z</time>
      </trkpt>
      <trkpt lat="42.4298" lon="2.7914">
        <ele>681</ele>
        <time>2024-09-22T05:24:22Z</time>
      </trkpt>
      <trkpt lat="42.42983" lon="2.79141">
        <ele>681</ele>
        <time>2024-09-22T05:24:25Z</time>
      </trkpt>
      <trkpt lat="42.42986" lon="2.79143">
        <ele>681</ele>
        <time>2024-09-22T05:24:28Z</time>
      </trkpt>
      <trkpt lat="42.42989" lon="2.79146">
        <ele>681</ele>
        <time>2024-09-22T05:24:31Z</time>
      </trkpt>
      <trkpt lat="42.42992" lon="2.79149">
        <ele>681</ele>
        <time>2024-09-22T05:24:34Z</time>
      </trkpt>
      <trkpt lat="42.42995" lon="2.79151">
        <ele>681</ele>
        <time>2024-09-22T05:24:37Z</time>
      </trkpt>
      <trkpt lat="42.42998" lon="2.79153">
        <ele>681</ele>
        <time>2024-09-22T05:24:39Z</time>
      </trkpt>
      <trkpt lat="42.43" lon="2.79155">
        <ele>681</ele>
        <time>2024-09-22T05:24:43Z</time>
      </trkpt>
      <trkpt lat="42.43003" lon="2.79158">
        <ele>680</ele>
        <time>2024-09-22T05:24:46Z</time>
      </trkpt>
      <trkpt lat="42.43005" lon="2.79162">
        <ele>682</ele>
        <time>2024-09-22T05:24:49Z</time>
      </trkpt>
      <trkpt lat="42.43007" lon="2.79165">
        <ele>681</ele>
        <time>2024-09-22T05:24:52Z</time>
      </trkpt>
      <trkpt lat="42.43009" lon="2.79168">
        <ele>681</ele>
        <time>2024-09-22T05:24:54Z</time>
      </trkpt>
      <trkpt lat="42.4301" lon="2.79172">
        <ele>682</ele>
        <time>2024-09-22T05:24:56Z</time>
      </trkpt>
      <trkpt lat="42.43012" lon="2.79176">
        <ele>682</ele>
        <time>2024-09-22T05:24:59Z</time>
      </trkpt>
      <trkpt lat="42.43013" lon="2.7918">
        <ele>681</ele>
        <time>2024-09-22T05:25:03Z</time>
      </trkpt>
      <trkpt lat="42.43014" lon="2.79184">
        <ele>681</ele>
        <time>2024-09-22T05:25:05Z</time>
      </trkpt>
      <trkpt lat="42.43015" lon="2.79188">
        <ele>680</ele>
        <time>2024-09-22T05:25:07Z</time>
      </trkpt>
      <trkpt lat="42.43014" lon="2.79192">
        <ele>681</ele>
        <time>2024-09-22T05:25:11Z</time>
      </trkpt>
      <trkpt lat="42.43014" lon="2.79197">
        <ele>682</ele>
        <time>2024-09-22T05:25:12Z</time>
      </trkpt>
      <trkpt lat="42.43014" lon="2.79201">
        <ele>682</ele>
        <time>2024-09-22T05:25:15Z</time>
      </trkpt>
      <trkpt lat="42.43015" lon="2.79205">
        <ele>682</ele>
        <time>2024-09-22T05:25:18Z</time>
      </trkpt>
      <trkpt lat="42.43015" lon="2.7921">
        <ele>682</ele>
        <time>2024-09-22T05:25:20Z</time>
      </trkpt>
      <trkpt lat="42.43015" lon="2.79214">
        <ele>683</ele>
        <time>2024-09-22T05:25:23Z</time>
      </trkpt>
      <trkpt lat="42.43015" lon="2.79219">
        <ele>683</ele>
        <time>2024-09-22T05:25:26Z</time>
      </trkpt>
      <trkpt lat="42.43014" lon="2.79223">
        <ele>683</ele>
        <time>2024-09-22T05:25:29Z</time>
      </trkpt>
      <trkpt lat="42.43014" lon="2.79229">
        <ele>684</ele>
        <time>2024-09-22T05:25:32Z</time>
      </trkpt>
      <trkpt lat="42.43014" lon="2.79234">
        <ele>684</ele>
        <time>2024-09-22T05:25:37Z</time>
      </trkpt>
      <trkpt lat="42.43013" lon="2.7924">
        <ele>684</ele>
        <time>2024-09-22T05:25:41Z</time>
      </trkpt>
      <trkpt lat="42.43012" lon="2.79244">
        <ele>684</ele>
        <time>2024-09-22T05:25:45Z</time>
      </trkpt>
      <trkpt lat="42.43013" lon="2.79248">
        <ele>685</ele>
        <time>2024-09-22T05:25:48Z</time>
      </trkpt>
      <trkpt lat="42.43013" lon="2.79252">
        <ele>686</ele>
        <time>2024-09-22T05:25:50Z</time>
      </trkpt>
      <trkpt lat="42.43013" lon="2.79257">
        <ele>685</ele>
        <time>2024-09-22T05:25:53Z</time>
      </trkpt>
      <trkpt lat="42.43013" lon="2.79262">
        <ele>685</ele>
        <time>2024-09-22T05:25:55Z</time>
      </trkpt>
      <trkpt lat="42.43013" lon="2.79266">
        <ele>684</ele>
        <time>2024-09-22T05:25:58Z</time>
      </trkpt>
      <trkpt lat="42.43013" lon="2.79271">
        <ele>685</ele>
        <time>2024-09-22T05:26:01Z</time>
      </trkpt>
      <trkpt lat="42.43013" lon="2.79277">
        <ele>686</ele>
        <time>2024-09-22T05:26:04Z</time>
      </trkpt>
      <trkpt lat="42.43013" lon="2.79281">
        <ele>685</ele>
        <time>2024-09-22T05:26:07Z</time>
      </trkpt>
      <trkpt lat="42.43013" lon="2.79286">
        <ele>685</ele>
        <time>2024-09-22T05:26:09Z</time>
      </trkpt>
      <trkpt lat="42.43013" lon="2.79291">
        <ele>684</ele>
        <time>2024-09-22T05:26:12Z</time>
      </trkpt>
      <trkpt lat="42.43012" lon="2.79295">
        <ele>684</ele>
        <time>2024-09-22T05:26:14Z</time>
      </trkpt>
      <trkpt lat="42.43012" lon="2.793">
        <ele>685</ele>
        <time>2024-09-22T05:26:17Z</time>
      </trkpt>
      <trkpt lat="42.43011" lon="2.79304">
        <ele>685</ele>
        <time>2024-09-22T05:26:20Z</time>
      </trkpt>
      <trkpt lat="42.43011" lon="2.79309">
        <ele>685</ele>
        <time>2024-09-22T05:26:22Z</time>
      </trkpt>
      <trkpt lat="42.4301" lon="2.79314">
        <ele>686</ele>
        <time>2024-09-22T05:26:25Z</time>
      </trkpt>
      <trkpt lat="42.4301" lon="2.79319">
        <ele>685</ele>
        <time>2024-09-22T05:26:28Z</time>
      </trkpt>
      <trkpt lat="42.4301" lon="2.79325">
        <ele>685</ele>
        <time>2024-09-22T05:26:31Z</time>
      </trkpt>
      <trkpt lat="42.4301" lon="2.7933">
        <ele>685</ele>
        <time>2024-09-22T05:26:34Z</time>
      </trkpt>
      <trkpt lat="42.43011" lon="2.79335">
        <ele>685</ele>
        <time>2024-09-22T05:26:36Z</time>
      </trkpt>
      <trkpt lat="42.43011" lon="2.79339">
        <ele>685</ele>
        <time>2024-09-22T05:26:38Z</time>
      </trkpt>
      <trkpt lat="42.4301" lon="2.79344">
        <ele>685</ele>
        <time>2024-09-22T05:26:41Z</time>
      </trkpt>
      <trkpt lat="42.43008" lon="2.79348">
        <ele>685</ele>
        <time>2024-09-22T05:26:44Z</time>
      </trkpt>
      <trkpt lat="42.43006" lon="2.79353">
        <ele>684</ele>
        <time>2024-09-22T05:26:49Z</time>
      </trkpt>
      <trkpt lat="42.43004" lon="2.79356">
        <ele>685</ele>
        <time>2024-09-22T05:26:51Z</time>
      </trkpt>
      <trkpt lat="42.43002" lon="2.79359">
        <ele>685</ele>
        <time>2024-09-22T05:26:53Z</time>
      </trkpt>
      <trkpt lat="42.43" lon="2.79362">
        <ele>685</ele>
        <time>2024-09-22T05:26:55Z</time>
      </trkpt>
      <trkpt lat="42.42998" lon="2.79366">
        <ele>685</ele>
        <time>2024-09-22T05:26:57Z</time>
      </trkpt>
      <trkpt lat="42.42995" lon="2.79368">
        <ele>684</ele>
        <time>2024-09-22T05:27:00Z</time>
      </trkpt>
      <trkpt lat="42.42993" lon="2.79372">
        <ele>685</ele>
        <time>2024-09-22T05:27:02Z</time>
      </trkpt>
      <trkpt lat="42.42992" lon="2.79375">
        <ele>685</ele>
        <time>2024-09-22T05:27:04Z</time>
      </trkpt>
      <trkpt lat="42.42989" lon="2.79379">
        <ele>685</ele>
        <time>2024-09-22T05:27:07Z</time>
      </trkpt>
      <trkpt lat="42.42987" lon="2.79382">
        <ele>685</ele>
        <time>2024-09-22T05:27:09Z</time>
      </trkpt>
      <trkpt lat="42.42986" lon="2.79385">
        <ele>686</ele>
        <time>2024-09-22T05:27:11Z</time>
      </trkpt>
      <trkpt lat="42.42984" lon="2.79389">
        <ele>687</ele>
        <time>2024-09-22T05:27:13Z</time>
      </trkpt>
      <trkpt lat="42.42983" lon="2.79393">
        <ele>686</ele>
        <time>2024-09-22T05:27:16Z</time>
      </trkpt>
      <trkpt lat="42.42982" lon="2.79397">
        <ele>684</ele>
        <time>2024-09-22T05:27:18Z</time>
      </trkpt>
      <trkpt lat="42.42982" lon="2.79402">
        <ele>685</ele>
        <time>2024-09-22T05:27:21Z</time>
      </trkpt>
      <trkpt lat="42.42981" lon="2.79406">
        <ele>685</ele>
        <time>2024-09-22T05:27:26Z</time>
      </trkpt>
      <trkpt lat="42.4298" lon="2.7941">
        <ele>685</ele>
        <time>2024-09-22T05:27:28Z</time>
      </trkpt>
      <trkpt lat="42.4298" lon="2.79414">
        <ele>684</ele>
        <time>2024-09-22T05:27:31Z</time>
      </trkpt>
      <trkpt lat="42.4298" lon="2.79419">
        <ele>684</ele>
        <time>2024-09-22T05:27:33Z</time>
      </trkpt>
      <trkpt lat="42.4298" lon="2.79423">
        <ele>684</ele>
        <time>2024-09-22T05:27:35Z</time>
      </trkpt>
      <trkpt lat="42.42979" lon="2.79427">
        <ele>685</ele>
        <time>2024-09-22T05:27:38Z</time>
      </trkpt>
      <trkpt lat="42.42978" lon="2.79432">
        <ele>684</ele>
        <time>2024-09-22T05:27:41Z</time>
      </trkpt>
      <trkpt lat="42.42978" lon="2.79436">
        <ele>684</ele>
        <time>2024-09-22T05:27:43Z</time>
      </trkpt>
      <trkpt lat="42.42977" lon="2.7944">
        <ele>684</ele>
        <time>2024-09-22T05:27:45Z</time>
      </trkpt>
      <trkpt lat="42.42977" lon="2.79445">
        <ele>684</ele>
        <time>2024-09-22T05:27:48Z</time>
      </trkpt>
      <trkpt lat="42.42977" lon="2.79449">
        <ele>685</ele>
        <time>2024-09-22T05:27:50Z</time>
      </trkpt>
      <trkpt lat="42.42977" lon="2.79454">
        <ele>684</ele>
        <time>2024-09-22T05:27:53Z</time>
      </trkpt>
      <trkpt lat="42.42976" lon="2.79458">
        <ele>686</ele>
        <time>2024-09-22T05:27:56Z</time>
      </trkpt>
      <trkpt lat="42.42975" lon="2.79462">
        <ele>685</ele>
        <time>2024-09-22T05:28:00Z</time>
      </trkpt>
      <trkpt lat="42.42974" lon="2.79466">
        <ele>684</ele>
        <time>2024-09-22T05:28:03Z</time>
      </trkpt>
      <trkpt lat="42.42972" lon="2.79471">
        <ele>684</ele>
        <time>2024-09-22T05:28:06Z</time>
      </trkpt>
      <trkpt lat="42.4297" lon="2.79475">
        <ele>684</ele>
        <time>2024-09-22T05:28:10Z</time>
      </trkpt>
      <trkpt lat="42.42967" lon="2.79479">
        <ele>684</ele>
        <time>2024-09-22T05:28:13Z</time>
      </trkpt>
      <trkpt lat="42.42965" lon="2.79482">
        <ele>684</ele>
        <time>2024-09-22T05:28:17Z</time>
      </trkpt>
      <trkpt lat="42.42963" lon="2.79485">
        <ele>683</ele>
        <time>2024-09-22T05:28:21Z</time>
      </trkpt>
      <trkpt lat="42.42961" lon="2.79488">
        <ele>684</ele>
        <time>2024-09-22T05:28:24Z</time>
      </trkpt>
      <trkpt lat="42.42958" lon="2.7949">
        <ele>685</ele>
        <time>2024-09-22T05:28:29Z</time>
      </trkpt>
      <trkpt lat="42.42959" lon="2.79493">
        <ele>685</ele>
        <time>2024-09-22T05:28:33Z</time>
      </trkpt>
      <trkpt lat="42.42961" lon="2.79496">
        <ele>686</ele>
        <time>2024-09-22T05:28:35Z</time>
      </trkpt>
      <trkpt lat="42.42965" lon="2.79499">
        <ele>686</ele>
        <time>2024-09-22T05:28:36Z</time>
      </trkpt>
      <trkpt lat="42.42969" lon="2.795">
        <ele>686</ele>
        <time>2024-09-22T05:28:38Z</time>
      </trkpt>
      <trkpt lat="42.42972" lon="2.79502">
        <ele>686</ele>
        <time>2024-09-22T05:28:41Z</time>
      </trkpt>
      <trkpt lat="42.42975" lon="2.79504">
        <ele>687</ele>
        <time>2024-09-22T05:28:44Z</time>
      </trkpt>
      <trkpt lat="42.42978" lon="2.79507">
        <ele>687</ele>
        <time>2024-09-22T05:28:46Z</time>
      </trkpt>
      <trkpt lat="42.42981" lon="2.79509">
        <ele>688</ele>
        <time>2024-09-22T05:28:49Z</time>
      </trkpt>
      <trkpt lat="42.42983" lon="2.79511">
        <ele>689</ele>
        <time>2024-09-22T05:28:53Z</time>
      </trkpt>
      <trkpt lat="42.42985" lon="2.79514">
        <ele>689</ele>
        <time>2024-09-22T05:28:55Z</time>
      </trkpt>
      <trkpt lat="42.42988" lon="2.79517">
        <ele>690</ele>
        <time>2024-09-22T05:28:59Z</time>
      </trkpt>
      <trkpt lat="42.4299" lon="2.79519">
        <ele>691</ele>
        <time>2024-09-22T05:29:02Z</time>
      </trkpt>
      <trkpt lat="42.42993" lon="2.79522">
        <ele>690</ele>
        <time>2024-09-22T05:29:06Z</time>
      </trkpt>
      <trkpt lat="42.42996" lon="2.79526">
        <ele>690</ele>
        <time>2024-09-22T05:29:09Z</time>
      </trkpt>
      <trkpt lat="42.42998" lon="2.79529">
        <ele>690</ele>
        <time>2024-09-22T05:29:13Z</time>
      </trkpt>
      <trkpt lat="42.43001" lon="2.79531">
        <ele>690</ele>
        <time>2024-09-22T05:29:17Z</time>
      </trkpt>
      <trkpt lat="42.43003" lon="2.79535">
        <ele>691</ele>
        <time>2024-09-22T05:29:20Z</time>
      </trkpt>
      <trkpt lat="42.43006" lon="2.79537">
        <ele>690</ele>
        <time>2024-09-22T05:29:23Z</time>
      </trkpt>
      <trkpt lat="42.43008" lon="2.7954">
        <ele>692</ele>
        <time>2024-09-22T05:29:27Z</time>
      </trkpt>
      <trkpt lat="42.4301" lon="2.79543">
        <ele>692</ele>
        <time>2024-09-22T05:29:29Z</time>
      </trkpt>
      <trkpt lat="42.43012" lon="2.79546">
        <ele>692</ele>
        <time>2024-09-22T05:29:31Z</time>
      </trkpt>
      <trkpt lat="42.43015" lon="2.79548">
        <ele>693</ele>
        <time>2024-09-22T05:29:35Z</time>
      </trkpt>
      <trkpt lat="42.43017" lon="2.79551">
        <ele>694</ele>
        <time>2024-09-22T05:29:37Z</time>
      </trkpt>
      <trkpt lat="42.43019" lon="2.79554">
        <ele>694</ele>
        <time>2024-09-22T05:29:39Z</time>
      </trkpt>
      <trkpt lat="42.43021" lon="2.79557">
        <ele>694</ele>
        <time>2024-09-22T05:29:42Z</time>
      </trkpt>
      <trkpt lat="42.43022" lon="2.79559">
        <ele>695</ele>
        <time>2024-09-22T05:29:44Z</time>
      </trkpt>
      <trkpt lat="42.43025" lon="2.79562">
        <ele>695</ele>
        <time>2024-09-22T05:29:47Z</time>
      </trkpt>
      <trkpt lat="42.43027" lon="2.79566">
        <ele>694</ele>
        <time>2024-09-22T05:29:50Z</time>
      </trkpt>
      <trkpt lat="42.43029" lon="2.79569">
        <ele>694</ele>
        <time>2024-09-22T05:29:53Z</time>
      </trkpt>
      <trkpt lat="42.43031" lon="2.79573">
        <ele>694</ele>
        <time>2024-09-22T05:29:56Z</time>
      </trkpt>
      <trkpt lat="42.43033" lon="2.79576">
        <ele>694</ele>
        <time>2024-09-22T05:30:00Z</time>
      </trkpt>
      <trkpt lat="42.43035" lon="2.79579">
        <ele>694</ele>
        <time>2024-09-22T05:30:02Z</time>
      </trkpt>
      <trkpt lat="42.43037" lon="2.79583">
        <ele>695</ele>
        <time>2024-09-22T05:30:04Z</time>
      </trkpt>
      <trkpt lat="42.43039" lon="2.79586">
        <ele>695</ele>
        <time>2024-09-22T05:30:07Z</time>
      </trkpt>
      <trkpt lat="42.43041" lon="2.79589">
        <ele>696</ele>
        <time>2024-09-22T05:30:09Z</time>
      </trkpt>
      <trkpt lat="42.43044" lon="2.79592">
        <ele>695</ele>
        <time>2024-09-22T05:30:13Z</time>
      </trkpt>
      <trkpt lat="42.43046" lon="2.79596">
        <ele>695</ele>
        <time>2024-09-22T05:30:15Z</time>
      </trkpt>
      <trkpt lat="42.43049" lon="2.79599">
        <ele>696</ele>
        <time>2024-09-22T05:30:19Z</time>
      </trkpt>
      <trkpt lat="42.43052" lon="2.79602">
        <ele>697</ele>
        <time>2024-09-22T05:30:23Z</time>
      </trkpt>
      <trkpt lat="42.43054" lon="2.79605">
        <ele>698</ele>
        <time>2024-09-22T05:30:26Z</time>
      </trkpt>
      <trkpt lat="42.43057" lon="2.79608">
        <ele>699</ele>
        <time>2024-09-22T05:30:30Z</time>
      </trkpt>
      <trkpt lat="42.4306" lon="2.79611">
        <ele>699</ele>
        <time>2024-09-22T05:30:33Z</time>
      </trkpt>
      <trkpt lat="42.43062" lon="2.79614">
        <ele>698</ele>
        <time>2024-09-22T05:30:38Z</time>
      </trkpt>
      <trkpt lat="42.43065" lon="2.79617">
        <ele>700</ele>
        <time>2024-09-22T05:30:42Z</time>
      </trkpt>
      <trkpt lat="42.43068" lon="2.7962">
        <ele>700</ele>
        <time>2024-09-22T05:30:44Z</time>
      </trkpt>
      <trkpt lat="42.43071" lon="2.79623">
        <ele>700</ele>
        <time>2024-09-22T05:30:47Z</time>
      </trkpt>
      <trkpt lat="42.43074" lon="2.79626">
        <ele>699</ele>
        <time>2024-09-22T05:30:50Z</time>
      </trkpt>
      <trkpt lat="42.43077" lon="2.79628">
        <ele>701</ele>
        <time>2024-09-22T05:30:53Z</time>
      </trkpt>
      <trkpt lat="42.4308" lon="2.79631">
        <ele>702</ele>
        <time>2024-09-22T05:30:58Z</time>
      </trkpt>
      <trkpt lat="42.43083" lon="2.79633">
        <ele>700</ele>
        <time>2024-09-22T05:31:00Z</time>
      </trkpt>
      <trkpt lat="42.43086" lon="2.79635">
        <ele>702</ele>
        <time>2024-09-22T05:31:02Z</time>
      </trkpt>
      <trkpt lat="42.43089" lon="2.79637">
        <ele>702</ele>
        <time>2024-09-22T05:31:05Z</time>
      </trkpt>
      <trkpt lat="42.43093" lon="2.79639">
        <ele>702</ele>
        <time>2024-09-22T05:31:07Z</time>
      </trkpt>
      <trkpt lat="42.43096" lon="2.7964">
        <ele>702</ele>
        <time>2024-09-22T05:31:13Z</time>
      </trkpt>
      <trkpt lat="42.43099" lon="2.79642">
        <ele>702</ele>
        <time>2024-09-22T05:31:16Z</time>
      </trkpt>
      <trkpt lat="42.43102" lon="2.79644">
        <ele>703</ele>
        <time>2024-09-22T05:31:19Z</time>
      </trkpt>
      <trkpt lat="42.43106" lon="2.79645">
        <ele>705</ele>
        <time>2024-09-22T05:31:22Z</time>
      </trkpt>
      <trkpt lat="42.43109" lon="2.79647">
        <ele>704</ele>
        <time>2024-09-22T05:31:25Z</time>
      </trkpt>
      <trkpt lat="42.43112" lon="2.79649">
        <ele>704</ele>
        <time>2024-09-22T05:31:29Z</time>
      </trkpt>
      <trkpt lat="42.43115" lon="2.7965">
        <ele>704</ele>
        <time>2024-09-22T05:31:32Z</time>
      </trkpt>
      <trkpt lat="42.43118" lon="2.79652">
        <ele>704</ele>
        <time>2024-09-22T05:31:34Z</time>
      </trkpt>
      <trkpt lat="42.43121" lon="2.79654">
        <ele>705</ele>
        <time>2024-09-22T05:31:38Z</time>
      </trkpt>
      <trkpt lat="42.43124" lon="2.79656">
        <ele>705</ele>
        <time>2024-09-22T05:31:40Z</time>
      </trkpt>
      <trkpt lat="42.43127" lon="2.79658">
        <ele>705</ele>
        <time>2024-09-22T05:31:45Z</time>
      </trkpt>
      <trkpt lat="42.4313" lon="2.7966">
        <ele>705</ele>
        <time>2024-09-22T05:31:48Z</time>
      </trkpt>
      <trkpt lat="42.43134" lon="2.79662">
        <ele>706</ele>
        <time>2024-09-22T05:31:54Z</time>
      </trkpt>
      <trkpt lat="42.43137" lon="2.79664">
        <ele>705</ele>
        <time>2024-09-22T05:31:56Z</time>
      </trkpt>
      <trkpt lat="42.43139" lon="2.79666">
        <ele>705</ele>
        <time>2024-09-22T05:31:59Z</time>
      </trkpt>
      <trkpt lat="42.43142" lon="2.79669">
        <ele>706</ele>
        <time>2024-09-22T05:32:03Z</time>
      </trkpt>
      <trkpt lat="42.43145" lon="2.79671">
        <ele>706</ele>
        <time>2024-09-22T05:32:06Z</time>
      </trkpt>
      <trkpt lat="42.43148" lon="2.79674">
        <ele>705</ele>
        <time>2024-09-22T05:32:10Z</time>
      </trkpt>
      <trkpt lat="42.4315" lon="2.79676">
        <ele>705</ele>
        <time>2024-09-22T05:32:13Z</time>
      </trkpt>
      <trkpt lat="42.43153" lon="2.79677">
        <ele>706</ele>
        <time>2024-09-22T05:32:16Z</time>
      </trkpt>
      <trkpt lat="42.43157" lon="2.7968">
        <ele>707</ele>
        <time>2024-09-22T05:32:20Z</time>
      </trkpt>
      <trkpt lat="42.4316" lon="2.79683">
        <ele>708</ele>
        <time>2024-09-22T05:32:24Z</time>
      </trkpt>
      <trkpt lat="42.43162" lon="2.79685">
        <ele>708</ele>
        <time>2024-09-22T05:32:27Z</time>
      </trkpt>
      <trkpt lat="42.43165" lon="2.79687">
        <ele>708</ele>
        <time>2024-09-22T05:32:31Z</time>
      </trkpt>
      <trkpt lat="42.43168" lon="2.79689">
        <ele>709</ele>
        <time>2024-09-22T05:32:34Z</time>
      </trkpt>
      <trkpt lat="42.43171" lon="2.79691">
        <ele>709</ele>
        <time>2024-09-22T05:32:37Z</time>
      </trkpt>
      <trkpt lat="42.43174" lon="2.79693">
        <ele>709</ele>
        <time>2024-09-22T05:32:40Z</time>
      </trkpt>
      <trkpt lat="42.43177" lon="2.79695">
        <ele>709</ele>
        <time>2024-09-22T05:32:44Z</time>
      </trkpt>
      <trkpt lat="42.4318" lon="2.79697">
        <ele>710</ele>
        <time>2024-09-22T05:32:49Z</time>
      </trkpt>
      <trkpt lat="42.43182" lon="2.79699">
        <ele>711</ele>
        <time>2024-09-22T05:32:53Z</time>
      </trkpt>
      <trkpt lat="42.43185" lon="2.79702">
        <ele>710</ele>
        <time>2024-09-22T05:32:56Z</time>
      </trkpt>
      <trkpt lat="42.43188" lon="2.79706">
        <ele>712</ele>
        <time>2024-09-22T05:33:00Z</time>
      </trkpt>
      <trkpt lat="42.4319" lon="2.7971">
        <ele>711</ele>
        <time>2024-09-22T05:33:04Z</time>
      </trkpt>
      <trkpt lat="42.43191" lon="2.79714">
        <ele>711</ele>
        <time>2024-09-22T05:33:08Z</time>
      </trkpt>
      <trkpt lat="42.43191" lon="2.79719">
        <ele>712</ele>
        <time>2024-09-22T05:33:12Z</time>
      </trkpt>
      <trkpt lat="42.43191" lon="2.79723">
        <ele>712</ele>
        <time>2024-09-22T05:33:17Z</time>
      </trkpt>
      <trkpt lat="42.4319" lon="2.79728">
        <ele>711</ele>
        <time>2024-09-22T05:33:22Z</time>
      </trkpt>
      <trkpt lat="42.4319" lon="2.79732">
        <ele>712</ele>
        <time>2024-09-22T05:33:25Z</time>
      </trkpt>
      <trkpt lat="42.43189" lon="2.79736">
        <ele>712</ele>
        <time>2024-09-22T05:33:28Z</time>
      </trkpt>
      <trkpt lat="42.43188" lon="2.7974">
        <ele>713</ele>
        <time>2024-09-22T05:33:31Z</time>
      </trkpt>
      <trkpt lat="42.43187" lon="2.79743">
        <ele>714</ele>
        <time>2024-09-22T05:33:34Z</time>
      </trkpt>
      <trkpt lat="42.43186" lon="2.79748">
        <ele>714</ele>
        <time>2024-09-22T05:33:38Z</time>
      </trkpt>
      <trkpt lat="42.43185" lon="2.79752">
        <ele>715</ele>
        <time>2024-09-22T05:33:40Z</time>
      </trkpt>
      <trkpt lat="42.43184" lon="2.79756">
        <ele>715</ele>
        <time>2024-09-22T05:33:44Z</time>
      </trkpt>
      <trkpt lat="42.43183" lon="2.7976">
        <ele>715</ele>
        <time>2024-09-22T05:33:48Z</time>
      </trkpt>
      <trkpt lat="42.43182" lon="2.79764">
        <ele>716</ele>
        <time>2024-09-22T05:33:51Z</time>
      </trkpt>
      <trkpt lat="42.4318" lon="2.79768">
        <ele>717</ele>
        <time>2024-09-22T05:33:54Z</time>
      </trkpt>
      <trkpt lat="42.43179" lon="2.79772">
        <ele>717</ele>
        <time>2024-09-22T05:33:58Z</time>
      </trkpt>
      <trkpt lat="42.43178" lon="2.79776">
        <ele>718</ele>
        <time>2024-09-22T05:34:01Z</time>
      </trkpt>
      <trkpt lat="42.43177" lon="2.7978">
        <ele>718</ele>
        <time>2024-09-22T05:34:04Z</time>
      </trkpt>
      <trkpt lat="42.43176" lon="2.79783">
        <ele>718</ele>
        <time>2024-09-22T05:34:07Z</time>
      </trkpt>
      <trkpt lat="42.43175" lon="2.79788">
        <ele>719</ele>
        <time>2024-09-22T05:34:10Z</time>
      </trkpt>
      <trkpt lat="42.43174" lon="2.79792">
        <ele>720</ele>
        <time>2024-09-22T05:34:13Z</time>
      </trkpt>
      <trkpt lat="42.43173" lon="2.79796">
        <ele>720</ele>
        <time>2024-09-22T05:34:16Z</time>
      </trkpt>
      <trkpt lat="42.43172" lon="2.798">
        <ele>720</ele>
        <time>2024-09-22T05:34:19Z</time>
      </trkpt>
      <trkpt lat="42.43171" lon="2.79804">
        <ele>720</ele>
        <time>2024-09-22T05:34:22Z</time>
      </trkpt>
      <trkpt lat="42.43171" lon="2.79808">
        <ele>721</ele>
        <time>2024-09-22T05:34:25Z</time>
      </trkpt>
      <trkpt lat="42.43171" lon="2.79812">
        <ele>720</ele>
        <time>2024-09-22T05:34:28Z</time>
      </trkpt>
      <trkpt lat="42.4317" lon="2.79816">
        <ele>720</ele>
        <time>2024-09-22T05:34:31Z</time>
      </trkpt>
      <trkpt lat="42.4317" lon="2.79821">
        <ele>722</ele>
        <time>2024-09-22T05:34:35Z</time>
      </trkpt>
      <trkpt lat="42.4317" lon="2.79826">
        <ele>722</ele>
        <time>2024-09-22T05:34:40Z</time>
      </trkpt>
      <trkpt lat="42.43171" lon="2.79831">
        <ele>722</ele>
        <time>2024-09-22T05:34:43Z</time>
      </trkpt>
      <trkpt lat="42.43171" lon="2.79836">
        <ele>721</ele>
        <time>2024-09-22T05:34:46Z</time>
      </trkpt>
      <trkpt lat="42.43172" lon="2.7984">
        <ele>721</ele>
        <time>2024-09-22T05:34:49Z</time>
      </trkpt>
      <trkpt lat="42.43173" lon="2.79845">
        <ele>720</ele>
        <time>2024-09-22T05:34:52Z</time>
      </trkpt>
      <trkpt lat="42.43173" lon="2.79849">
        <ele>721</ele>
        <time>2024-09-22T05:34:55Z</time>
      </trkpt>
      <trkpt lat="42.43174" lon="2.79854">
        <ele>720</ele>
        <time>2024-09-22T05:34:58Z</time>
      </trkpt>
      <trkpt lat="42.43174" lon="2.79859">
        <ele>719</ele>
        <time>2024-09-22T05:35:01Z</time>
      </trkpt>
      <trkpt lat="42.43174" lon="2.79863">
        <ele>720</ele>
        <time>2024-09-22T05:35:04Z</time>
      </trkpt>
      <trkpt lat="42.43173" lon="2.79867">
        <ele>719</ele>
        <time>2024-09-22T05:35:06Z</time>
      </trkpt>
      <trkpt lat="42.43173" lon="2.79871">
        <ele>718</ele>
        <time>2024-09-22T05:35:10Z</time>
      </trkpt>
      <trkpt lat="42.43173" lon="2.79876">
        <ele>719</ele>
        <time>2024-09-22T05:35:13Z</time>
      </trkpt>
      <trkpt lat="42.43172" lon="2.7988">
        <ele>719</ele>
        <time>2024-09-22T05:35:16Z</time>
      </trkpt>
      <trkpt lat="42.43172" lon="2.79885">
        <ele>718</ele>
        <time>2024-09-22T05:35:19Z</time>
      </trkpt>
      <trkpt lat="42.43171" lon="2.79891">
        <ele>719</ele>
        <time>2024-09-22T05:35:22Z</time>
      </trkpt>
      <trkpt lat="42.43171" lon="2.79896">
        <ele>720</ele>
        <time>2024-09-22T05:35:25Z</time>
      </trkpt>
      <trkpt lat="42.43171" lon="2.79901">
        <ele>720</ele>
        <time>2024-09-22T05:35:27Z</time>
      </trkpt>
      <trkpt lat="42.4317" lon="2.79905">
        <ele>720</ele>
        <time>2024-09-22T05:35:29Z</time>
      </trkpt>
      <trkpt lat="42.4317" lon="2.7991">
        <ele>719</ele>
        <time>2024-09-22T05:35:33Z</time>
      </trkpt>
      <trkpt lat="42.4317" lon="2.79914">
        <ele>719</ele>
        <time>2024-09-22T05:35:36Z</time>
      </trkpt>
      <trkpt lat="42.43169" lon="2.79918">
        <ele>719</ele>
        <time>2024-09-22T05:35:38Z</time>
      </trkpt>
      <trkpt lat="42.43169" lon="2.79923">
        <ele>719</ele>
        <time>2024-09-22T05:35:41Z</time>
      </trkpt>
      <trkpt lat="42.43169" lon="2.79928">
        <ele>718</ele>
        <time>2024-09-22T05:35:43Z</time>
      </trkpt>
      <trkpt lat="42.43169" lon="2.79934">
        <ele>718</ele>
        <time>2024-09-22T05:35:46Z</time>
      </trkpt>
      <trkpt lat="42.43169" lon="2.79939">
        <ele>717</ele>
        <time>2024-09-22T05:35:49Z</time>
      </trkpt>
      <trkpt lat="42.43169" lon="2.79943">
        <ele>718</ele>
        <time>2024-09-22T05:35:51Z</time>
      </trkpt>
      <trkpt lat="42.43169" lon="2.79948">
        <ele>719</ele>
        <time>2024-09-22T05:35:55Z</time>
      </trkpt>
      <trkpt lat="42.4317" lon="2.79954">
        <ele>719</ele>
        <time>2024-09-22T05:35:58Z</time>
      </trkpt>
      <trkpt lat="42.43171" lon="2.79959">
        <ele>719</ele>
        <time>2024-09-22T05:36:00Z</time>
      </trkpt>
      <trkpt lat="42.43172" lon="2.79963">
        <ele>719</ele>
        <time>2024-09-22T05:36:02Z</time>
      </trkpt>
      <trkpt lat="42.43174" lon="2.79968">
        <ele>718</ele>
        <time>2024-09-22T05:36:05Z</time>
      </trkpt>
      <trkpt lat="42.43175" lon="2.79972">
        <ele>717</ele>
        <time>2024-09-22T05:36:08Z</time>
      </trkpt>
      <trkpt lat="42.43176" lon="2.79976">
        <ele>717</ele>
        <time>2024-09-22T05:36:11Z</time>
      </trkpt>
      <trkpt lat="42.43178" lon="2.79981">
        <ele>718</ele>
        <time>2024-09-22T05:36:15Z</time>
      </trkpt>
      <trkpt lat="42.4318" lon="2.79985">
        <ele>717</ele>
        <time>2024-09-22T05:36:18Z</time>
      </trkpt>
      <trkpt lat="42.43182" lon="2.79989">
        <ele>718</ele>
        <time>2024-09-22T05:36:21Z</time>
      </trkpt>
      <trkpt lat="42.43184" lon="2.79993">
        <ele>718</ele>
        <time>2024-09-22T05:36:24Z</time>
      </trkpt>
      <trkpt lat="42.43186" lon="2.79997">
        <ele>718</ele>
        <time>2024-09-22T05:36:27Z</time>
      </trkpt>
      <trkpt lat="42.43187" lon="2.80001">
        <ele>718</ele>
        <time>2024-09-22T05:36:30Z</time>
      </trkpt>
      <trkpt lat="42.43186" lon="2.80004">
        <ele>718</ele>
        <time>2024-09-22T05:36:32Z</time>
      </trkpt>
      <trkpt lat="42.43186" lon="2.80009">
        <ele>717</ele>
        <time>2024-09-22T05:36:34Z</time>
      </trkpt>
      <trkpt lat="42.43186" lon="2.80013">
        <ele>717</ele>
        <time>2024-09-22T05:36:36Z</time>
      </trkpt>
      <trkpt lat="42.43185" lon="2.80017">
        <ele>717</ele>
        <time>2024-09-22T05:36:38Z</time>
      </trkpt>
      <trkpt lat="42.43185" lon="2.80021">
        <ele>716</ele>
        <time>2024-09-22T05:36:41Z</time>
      </trkpt>
      <trkpt lat="42.43186" lon="2.80026">
        <ele>717</ele>
        <time>2024-09-22T05:36:43Z</time>
      </trkpt>
      <trkpt lat="42.43188" lon="2.80029">
        <ele>717</ele>
        <time>2024-09-22T05:36:46Z</time>
      </trkpt>
      <trkpt lat="42.4319" lon="2.80033">
        <ele>717</ele>
        <time>2024-09-22T05:36:49Z</time>
      </trkpt>
      <trkpt lat="42.43193" lon="2.80035">
        <ele>719</ele>
        <time>2024-09-22T05:36:51Z</time>
      </trkpt>
      <trkpt lat="42.43197" lon="2.80035">
        <ele>719</ele>
        <time>2024-09-22T05:36:53Z</time>
      </trkpt>
      <trkpt lat="42.43201" lon="2.80034">
        <ele>719</ele>
        <time>2024-09-22T05:36:56Z</time>
      </trkpt>
      <trkpt lat="42.43204" lon="2.80032">
        <ele>719</ele>
        <time>2024-09-22T05:36:58Z</time>
      </trkpt>
      <trkpt lat="42.43207" lon="2.8003">
        <ele>719</ele>
        <time>2024-09-22T05:37:01Z</time>
      </trkpt>
      <trkpt lat="42.4321" lon="2.80029">
        <ele>719</ele>
        <time>2024-09-22T05:37:04Z</time>
      </trkpt>
      <trkpt lat="42.43213" lon="2.80029">
        <ele>720</ele>
        <time>2024-09-22T05:37:06Z</time>
      </trkpt>
      <trkpt lat="42.43216" lon="2.8003">
        <ele>722</ele>
        <time>2024-09-22T05:37:09Z</time>
      </trkpt>
      <trkpt lat="42.43219" lon="2.80031">
        <ele>722</ele>
        <time>2024-09-22T05:37:13Z</time>
      </trkpt>
      <trkpt lat="42.43223" lon="2.80033">
        <ele>724</ele>
        <time>2024-09-22T05:37:19Z</time>
      </trkpt>
      <trkpt lat="42.43226" lon="2.80033">
        <ele>724</ele>
        <time>2024-09-22T05:37:22Z</time>
      </trkpt>
      <trkpt lat="42.4323" lon="2.80034">
        <ele>724</ele>
        <time>2024-09-22T05:37:25Z</time>
      </trkpt>
      <trkpt lat="42.43234" lon="2.80034">
        <ele>723</ele>
        <time>2024-09-22T05:37:28Z</time>
      </trkpt>
      <trkpt lat="42.43237" lon="2.80035">
        <ele>722</ele>
        <time>2024-09-22T05:37:30Z</time>
      </trkpt>
      <trkpt lat="42.4324" lon="2.80035">
        <ele>722</ele>
        <time>2024-09-22T05:37:34Z</time>
      </trkpt>
      <trkpt lat="42.43243" lon="2.80036">
        <ele>722</ele>
        <time>2024-09-22T05:37:38Z</time>
      </trkpt>
      <trkpt lat="42.43246" lon="2.80035">
        <ele>721</ele>
        <time>2024-09-22T05:37:41Z</time>
      </trkpt>
      <trkpt lat="42.4325" lon="2.80036">
        <ele>721</ele>
        <time>2024-09-22T05:37:44Z</time>
      </trkpt>
      <trkpt lat="42.43253" lon="2.80036">
        <ele>722</ele>
        <time>2024-09-22T05:37:46Z</time>
      </trkpt>
      <trkpt lat="42.43256" lon="2.80037">
        <ele>722</ele>
        <time>2024-09-22T05:37:48Z</time>
      </trkpt>
      <trkpt lat="42.43258" lon="2.80038">
        <ele>721</ele>
        <time>2024-09-22T05:37:50Z</time>
      </trkpt>
      <trkpt lat="42.43261" lon="2.80039">
        <ele>722</ele>
        <time>2024-09-22T05:37:53Z</time>
      </trkpt>
      <trkpt lat="42.43265" lon="2.8004">
        <ele>722</ele>
        <time>2024-09-22T05:37:56Z</time>
      </trkpt>
      <trkpt lat="42.43267" lon="2.80041">
        <ele>723</ele>
        <time>2024-09-22T05:37:59Z</time>
      </trkpt>
      <trkpt lat="42.4327" lon="2.80042">
        <ele>723</ele>
        <time>2024-09-22T05:38:02Z</time>
      </trkpt>
      <trkpt lat="42.43273" lon="2.80043">
        <ele>723</ele>
        <time>2024-09-22T05:38:05Z</time>
      </trkpt>
      <trkpt lat="42.43276" lon="2.80044">
        <ele>723</ele>
        <time>2024-09-22T05:38:08Z</time>
      </trkpt>
      <trkpt lat="42.43279" lon="2.80045">
        <ele>723</ele>
        <time>2024-09-22T05:38:12Z</time>
      </trkpt>
      <trkpt lat="42.43282" lon="2.80047">
        <ele>722</ele>
        <time>2024-09-22T05:38:15Z</time>
      </trkpt>
      <trkpt lat="42.43285" lon="2.80048">
        <ele>723</ele>
        <time>2024-09-22T05:38:17Z</time>
      </trkpt>
      <trkpt lat="42.43288" lon="2.80049">
        <ele>722</ele>
        <time>2024-09-22T05:38:20Z</time>
      </trkpt>
      <trkpt lat="42.43291" lon="2.8005">
        <ele>723</ele>
        <time>2024-09-22T05:38:22Z</time>
      </trkpt>
      <trkpt lat="42.43294" lon="2.80052">
        <ele>722</ele>
        <time>2024-09-22T05:38:26Z</time>
      </trkpt>
      <trkpt lat="42.43297" lon="2.80054">
        <ele>723</ele>
        <time>2024-09-22T05:38:30Z</time>
      </trkpt>
      <trkpt lat="42.43301" lon="2.80055">
        <ele>724</ele>
        <time>2024-09-22T05:38:34Z</time>
      </trkpt>
      <trkpt lat="42.43304" lon="2.80058">
        <ele>724</ele>
        <time>2024-09-22T05:38:37Z</time>
      </trkpt>
      <trkpt lat="42.43306" lon="2.80061">
        <ele>725</ele>
        <time>2024-09-22T05:38:39Z</time>
      </trkpt>
      <trkpt lat="42.43309" lon="2.80063">
        <ele>725</ele>
        <time>2024-09-22T05:38:41Z</time>
      </trkpt>
      <trkpt lat="42.43312" lon="2.80064">
        <ele>724</ele>
        <time>2024-09-22T05:38:44Z</time>
      </trkpt>
      <trkpt lat="42.43314" lon="2.80066">
        <ele>725</ele>
        <time>2024-09-22T05:38:46Z</time>
      </trkpt>
      <trkpt lat="42.43317" lon="2.80068">
        <ele>725</ele>
        <time>2024-09-22T05:38:48Z</time>
      </trkpt>
      <trkpt lat="42.4332" lon="2.80071">
        <ele>725</ele>
        <time>2024-09-22T05:38:51Z</time>
      </trkpt>
      <trkpt lat="42.43322" lon="2.80073">
        <ele>727</ele>
        <time>2024-09-22T05:38:53Z</time>
      </trkpt>
      <trkpt lat="42.43325" lon="2.80076">
        <ele>726</ele>
        <time>2024-09-22T05:38:55Z</time>
      </trkpt>
      <trkpt lat="42.43328" lon="2.80079">
        <ele>727</ele>
        <time>2024-09-22T05:39:00Z</time>
      </trkpt>
      <trkpt lat="42.43331" lon="2.80081">
        <ele>727</ele>
        <time>2024-09-22T05:39:02Z</time>
      </trkpt>
      <trkpt lat="42.43334" lon="2.80084">
        <ele>729</ele>
        <time>2024-09-22T05:39:05Z</time>
      </trkpt>
      <trkpt lat="42.43337" lon="2.80086">
        <ele>729</ele>
        <time>2024-09-22T05:39:08Z</time>
      </trkpt>
      <trkpt lat="42.4334" lon="2.80088">
        <ele>730</ele>
        <time>2024-09-22T05:39:12Z</time>
      </trkpt>
      <trkpt lat="42.43343" lon="2.8009">
        <ele>730</ele>
        <time>2024-09-22T05:39:14Z</time>
      </trkpt>
      <trkpt lat="42.43347" lon="2.80091">
        <ele>729</ele>
        <time>2024-09-22T05:39:18Z</time>
      </trkpt>
      <trkpt lat="42.4335" lon="2.80093">
        <ele>729</ele>
        <time>2024-09-22T05:39:20Z</time>
      </trkpt>
      <trkpt lat="42.43353" lon="2.80094">
        <ele>729</ele>
        <time>2024-09-22T05:39:24Z</time>
      </trkpt>
      <trkpt lat="42.43356" lon="2.80096">
        <ele>730</ele>
        <time>2024-09-22T05:39:26Z</time>
      </trkpt>
      <trkpt lat="42.4336" lon="2.80097">
        <ele>730</ele>
        <time>2024-09-22T05:39:30Z</time>
      </trkpt>
      <trkpt lat="42.43363" lon="2.80098">
        <ele>729</ele>
        <time>2024-09-22T05:39:33Z</time>
      </trkpt>
      <trkpt lat="42.43366" lon="2.80099">
        <ele>729</ele>
        <time>2024-09-22T05:39:35Z</time>
      </trkpt>
      <trkpt lat="42.4337" lon="2.801">
        <ele>730</ele>
        <time>2024-09-22T05:39:38Z</time>
      </trkpt>
      <trkpt lat="42.43373" lon="2.80101">
        <ele>731</ele>
        <time>2024-09-22T05:39:42Z</time>
      </trkpt>
      <trkpt lat="42.43376" lon="2.80102">
        <ele>731</ele>
        <time>2024-09-22T05:39:44Z</time>
      </trkpt>
      <trkpt lat="42.43379" lon="2.80103">
        <ele>731</ele>
        <time>2024-09-22T05:39:46Z</time>
      </trkpt>
      <trkpt lat="42.43381" lon="2.80104">
        <ele>732</ele>
        <time>2024-09-22T05:39:49Z</time>
      </trkpt>
      <trkpt lat="42.43385" lon="2.80105">
        <ele>733</ele>
        <time>2024-09-22T05:39:51Z</time>
      </trkpt>
      <trkpt lat="42.43388" lon="2.80106">
        <ele>733</ele>
        <time>2024-09-22T05:39:54Z</time>
      </trkpt>
      <trkpt lat="42.43391" lon="2.80106">
        <ele>732</ele>
        <time>2024-09-22T05:39:56Z</time>
      </trkpt>
      <trkpt lat="42.43394" lon="2.80107">
        <ele>732</ele>
        <time>2024-09-22T05:40:00Z</time>
      </trkpt>
      <trkpt lat="42.43397" lon="2.80107">
        <ele>732</ele>
        <time>2024-09-22T05:40:03Z</time>
      </trkpt>
      <trkpt lat="42.434" lon="2.80108">
        <ele>732</ele>
        <time>2024-09-22T05:40:07Z</time>
      </trkpt>
      <trkpt lat="42.43403" lon="2.80109">
        <ele>732</ele>
        <time>2024-09-22T05:40:08Z</time>
      </trkpt>
      <trkpt lat="42.43407" lon="2.80109">
        <ele>733</ele>
        <time>2024-09-22T05:40:12Z</time>
      </trkpt>
      <trkpt lat="42.43411" lon="2.80109">
        <ele>732</ele>
        <time>2024-09-22T05:40:15Z</time>
      </trkpt>
      <trkpt lat="42.43414" lon="2.8011">
        <ele>732</ele>
        <time>2024-09-22T05:40:18Z</time>
      </trkpt>
      <trkpt lat="42.43418" lon="2.8011">
        <ele>732</ele>
        <time>2024-09-22T05:40:20Z</time>
      </trkpt>
      <trkpt lat="42.43421" lon="2.8011">
        <ele>733</ele>
        <time>2024-09-22T05:40:25Z</time>
      </trkpt>
      <trkpt lat="42.43424" lon="2.80111">
        <ele>735</ele>
        <time>2024-09-22T05:40:29Z</time>
      </trkpt>
      <trkpt lat="42.43427" lon="2.80111">
        <ele>735</ele>
        <time>2024-09-22T05:40:33Z</time>
      </trkpt>
      <trkpt lat="42.43431" lon="2.80111">
        <ele>735</ele>
        <time>2024-09-22T05:40:36Z</time>
      </trkpt>
      <trkpt lat="42.43434" lon="2.80112">
        <ele>735</ele>
        <time>2024-09-22T05:40:39Z</time>
      </trkpt>
      <trkpt lat="42.43437" lon="2.80113">
        <ele>735</ele>
        <time>2024-09-22T05:40:41Z</time>
      </trkpt>
      <trkpt lat="42.43441" lon="2.80115">
        <ele>735</ele>
        <time>2024-09-22T05:40:43Z</time>
      </trkpt>
      <trkpt lat="42.43445" lon="2.80117">
        <ele>736</ele>
        <time>2024-09-22T05:40:48Z</time>
      </trkpt>
      <trkpt lat="42.43448" lon="2.8012">
        <ele>737</ele>
        <time>2024-09-22T05:40:52Z</time>
      </trkpt>
      <trkpt lat="42.43451" lon="2.80124">
        <ele>737</ele>
        <time>2024-09-22T05:40:56Z</time>
      </trkpt>
      <trkpt lat="42.43453" lon="2.80128">
        <ele>737</ele>
        <time>2024-09-22T05:41:00Z</time>
      </trkpt>
      <trkpt lat="42.43455" lon="2.80133">
        <ele>738</ele>
        <time>2024-09-22T05:41:04Z</time>
      </trkpt>
      <trkpt lat="42.43457" lon="2.80138">
        <ele>739</ele>
        <time>2024-09-22T05:41:08Z</time>
      </trkpt>
      <trkpt lat="42.43458" lon="2.80144">
        <ele>740</ele>
        <time>2024-09-22T05:41:11Z</time>
      </trkpt>
      <trkpt lat="42.43458" lon="2.80148">
        <ele>740</ele>
        <time>2024-09-22T05:41:13Z</time>
      </trkpt>
      <trkpt lat="42.43459" lon="2.80149">
        <ele>740</ele>
        <time>2024-09-22T05:41:14Z</time>
      </trkpt>
      <trkpt lat="42.4346" lon="2.80153">
        <ele>739</ele>
        <time>2024-09-22T05:41:17Z</time>
      </trkpt>
      <trkpt lat="42.43461" lon="2.80158">
        <ele>737</ele>
        <time>2024-09-22T05:41:22Z</time>
      </trkpt>
      <trkpt lat="42.43462" lon="2.80162">
        <ele>737</ele>
        <time>2024-09-22T05:41:26Z</time>
      </trkpt>
      <trkpt lat="42.43464" lon="2.80167">
        <ele>738</ele>
        <time>2024-09-22T05:41:29Z</time>
      </trkpt>
      <trkpt lat="42.43465" lon="2.80171">
        <ele>738</ele>
        <time>2024-09-22T05:41:32Z</time>
      </trkpt>
      <trkpt lat="42.43466" lon="2.80175">
        <ele>739</ele>
        <time>2024-09-22T05:41:34Z</time>
      </trkpt>
      <trkpt lat="42.43468" lon="2.80179">
        <ele>738</ele>
        <time>2024-09-22T05:41:37Z</time>
      </trkpt>
      <trkpt lat="42.4347" lon="2.80183">
        <ele>738</ele>
        <time>2024-09-22T05:41:40Z</time>
      </trkpt>
      <trkpt lat="42.43471" lon="2.80186">
        <ele>737</ele>
        <time>2024-09-22T05:41:42Z</time>
      </trkpt>
      <trkpt lat="42.43472" lon="2.8019">
        <ele>737</ele>
        <time>2024-09-22T05:41:45Z</time>
      </trkpt>
      <trkpt lat="42.43473" lon="2.80194">
        <ele>736</ele>
        <time>2024-09-22T05:41:47Z</time>
      </trkpt>
      <trkpt lat="42.43474" lon="2.80198">
        <ele>736</ele>
        <time>2024-09-22T05:41:50Z</time>
      </trkpt>
      <trkpt lat="42.43475" lon="2.80203">
        <ele>737</ele>
        <time>2024-09-22T05:41:52Z</time>
      </trkpt>
      <trkpt lat="42.43475" lon="2.80207">
        <ele>737</ele>
        <time>2024-09-22T05:41:55Z</time>
      </trkpt>
      <trkpt lat="42.43476" lon="2.80212">
        <ele>738</ele>
        <time>2024-09-22T05:41:57Z</time>
      </trkpt>
      <trkpt lat="42.43478" lon="2.80216">
        <ele>737</ele>
        <time>2024-09-22T05:42:00Z</time>
      </trkpt>
      <trkpt lat="42.43481" lon="2.80217">
        <ele>737</ele>
        <time>2024-09-22T05:42:01Z</time>
      </trkpt>
      <trkpt lat="42.43484" lon="2.80219">
        <ele>737</ele>
        <time>2024-09-22T05:42:03Z</time>
      </trkpt>
      <trkpt lat="42.43484" lon="2.80223">
        <ele>737</ele>
        <time>2024-09-22T05:42:05Z</time>
      </trkpt>
      <trkpt lat="42.43485" lon="2.80226">
        <ele>737</ele>
        <time>2024-09-22T05:42:08Z</time>
      </trkpt>
      <trkpt lat="42.43486" lon="2.8023">
        <ele>737</ele>
        <time>2024-09-22T05:42:11Z</time>
      </trkpt>
      <trkpt lat="42.43488" lon="2.80234">
        <ele>735</ele>
        <time>2024-09-22T05:42:15Z</time>
      </trkpt>
      <trkpt lat="42.4349" lon="2.80238">
        <ele>734</ele>
        <time>2024-09-22T05:42:19Z</time>
      </trkpt>
      <trkpt lat="42.43492" lon="2.80242">
        <ele>734</ele>
        <time>2024-09-22T05:42:21Z</time>
      </trkpt>
      <trkpt lat="42.43493" lon="2.80246">
        <ele>736</ele>
        <time>2024-09-22T05:42:23Z</time>
      </trkpt>
      <trkpt lat="42.43494" lon="2.8025">
        <ele>736</ele>
        <time>2024-09-22T05:42:25Z</time>
      </trkpt>
      <trkpt lat="42.43496" lon="2.80254">
        <ele>735</ele>
        <time>2024-09-22T05:42:28Z</time>
      </trkpt>
      <trkpt lat="42.43497" lon="2.80258">
        <ele>736</ele>
        <time>2024-09-22T05:42:30Z</time>
      </trkpt>
      <trkpt lat="42.43499" lon="2.80262">
        <ele>734</ele>
        <time>2024-09-22T05:42:33Z</time>
      </trkpt>
      <trkpt lat="42.435" lon="2.80267">
        <ele>733</ele>
        <time>2024-09-22T05:42:38Z</time>
      </trkpt>
      <trkpt lat="42.43503" lon="2.8027">
        <ele>732</ele>
        <time>2024-09-22T05:42:40Z</time>
      </trkpt>
      <trkpt lat="42.43505" lon="2.80273">
        <ele>731</ele>
        <time>2024-09-22T05:42:43Z</time>
      </trkpt>
      <trkpt lat="42.43507" lon="2.80277">
        <ele>730</ele>
        <time>2024-09-22T05:42:45Z</time>
      </trkpt>
      <trkpt lat="42.43508" lon="2.80281">
        <ele>728</ele>
        <time>2024-09-22T05:42:48Z</time>
      </trkpt>
      <trkpt lat="42.4351" lon="2.80285">
        <ele>728</ele>
        <time>2024-09-22T05:42:50Z</time>
      </trkpt>
      <trkpt lat="42.43512" lon="2.80288">
        <ele>727</ele>
        <time>2024-09-22T05:42:53Z</time>
      </trkpt>
      <trkpt lat="42.43513" lon="2.80292">
        <ele>727</ele>
        <time>2024-09-22T05:42:55Z</time>
      </trkpt>
      <trkpt lat="42.43516" lon="2.80294">
        <ele>726</ele>
        <time>2024-09-22T05:42:57Z</time>
      </trkpt>
      <trkpt lat="42.43517" lon="2.80299">
        <ele>727</ele>
        <time>2024-09-22T05:42:59Z</time>
      </trkpt>
      <trkpt lat="42.43518" lon="2.80303">
        <ele>727</ele>
        <time>2024-09-22T05:43:02Z</time>
      </trkpt>
      <trkpt lat="42.4352" lon="2.80305">
        <ele>726</ele>
        <time>2024-09-22T05:43:06Z</time>
      </trkpt>
      <trkpt lat="42.43522" lon="2.8031">
        <ele>727</ele>
        <time>2024-09-22T05:43:09Z</time>
      </trkpt>
      <trkpt lat="42.43524" lon="2.80314">
        <ele>726</ele>
        <time>2024-09-22T05:43:11Z</time>
      </trkpt>
      <trkpt lat="42.43527" lon="2.80317">
        <ele>725</ele>
        <time>2024-09-22T05:43:13Z</time>
      </trkpt>
      <trkpt lat="42.4353" lon="2.8032">
        <ele>725</ele>
        <time>2024-09-22T05:43:15Z</time>
      </trkpt>
      <trkpt lat="42.4353" lon="2.80324">
        <ele>724</ele>
        <time>2024-09-22T05:43:19Z</time>
      </trkpt>
      <trkpt lat="42.43532" lon="2.80327">
        <ele>723</ele>
        <time>2024-09-22T05:43:21Z</time>
      </trkpt>
      <trkpt lat="42.43534" lon="2.8033">
        <ele>722</ele>
        <time>2024-09-22T05:43:22Z</time>
      </trkpt>
      <trkpt lat="42.43535" lon="2.80334">
        <ele>723</ele>
        <time>2024-09-22T05:43:24Z</time>
      </trkpt>
      <trkpt lat="42.43536" lon="2.80337">
        <ele>723</ele>
        <time>2024-09-22T05:43:26Z</time>
      </trkpt>
      <trkpt lat="42.43538" lon="2.8034">
        <ele>722</ele>
        <time>2024-09-22T05:43:28Z</time>
      </trkpt>
      <trkpt lat="42.43539" lon="2.80344">
        <ele>722</ele>
        <time>2024-09-22T05:43:32Z</time>
      </trkpt>
      <trkpt lat="42.43542" lon="2.80347">
        <ele>720</ele>
        <time>2024-09-22T05:43:36Z</time>
      </trkpt>
      <trkpt lat="42.43544" lon="2.8035">
        <ele>719</ele>
        <time>2024-09-22T05:43:40Z</time>
      </trkpt>
      <trkpt lat="42.43546" lon="2.80354">
        <ele>718</ele>
        <time>2024-09-22T05:43:42Z</time>
      </trkpt>
      <trkpt lat="42.43548" lon="2.80358">
        <ele>718</ele>
        <time>2024-09-22T05:43:45Z</time>
      </trkpt>
      <trkpt lat="42.4355" lon="2.80362">
        <ele>717</ele>
        <time>2024-09-22T05:43:48Z</time>
      </trkpt>
      <trkpt lat="42.43552" lon="2.80366">
        <ele>717</ele>
        <time>2024-09-22T05:43:50Z</time>
      </trkpt>
      <trkpt lat="42.43554" lon="2.8037">
        <ele>716</ele>
        <time>2024-09-22T05:43:53Z</time>
      </trkpt>
      <trkpt lat="42.43555" lon="2.80374">
        <ele>715</ele>
        <time>2024-09-22T05:43:55Z</time>
      </trkpt>
      <trkpt lat="42.43556" lon="2.80378">
        <ele>715</ele>
        <time>2024-09-22T05:43:58Z</time>
      </trkpt>
      <trkpt lat="42.43557" lon="2.80383">
        <ele>714</ele>
        <time>2024-09-22T05:44:01Z</time>
      </trkpt>
      <trkpt lat="42.43558" lon="2.80388">
        <ele>714</ele>
        <time>2024-09-22T05:44:03Z</time>
      </trkpt>
      <trkpt lat="42.43559" lon="2.80392">
        <ele>714</ele>
        <time>2024-09-22T05:44:05Z</time>
      </trkpt>
      <trkpt lat="42.4356" lon="2.80397">
        <ele>712</ele>
        <time>2024-09-22T05:44:08Z</time>
      </trkpt>
      <trkpt lat="42.43561" lon="2.80402">
        <ele>711</ele>
        <time>2024-09-22T05:44:11Z</time>
      </trkpt>
      <trkpt lat="42.43562" lon="2.80406">
        <ele>712</ele>
        <time>2024-09-22T05:44:14Z</time>
      </trkpt>
      <trkpt lat="42.43565" lon="2.8041">
        <ele>711</ele>
        <time>2024-09-22T05:44:17Z</time>
      </trkpt>
      <trkpt lat="42.43566" lon="2.80414">
        <ele>710</ele>
        <time>2024-09-22T05:44:20Z</time>
      </trkpt>
      <trkpt lat="42.43567" lon="2.80418">
        <ele>711</ele>
        <time>2024-09-22T05:44:22Z</time>
      </trkpt>
      <trkpt lat="42.43566" lon="2.80423">
        <ele>709</ele>
        <time>2024-09-22T05:44:24Z</time>
      </trkpt>
      <trkpt lat="42.43566" lon="2.80426">
        <ele>707</ele>
        <time>2024-09-22T05:44:27Z</time>
      </trkpt>
      <trkpt lat="42.43566" lon="2.8043">
        <ele>706</ele>
        <time>2024-09-22T05:44:29Z</time>
      </trkpt>
      <trkpt lat="42.43565" lon="2.80435">
        <ele>704</ele>
        <time>2024-09-22T05:44:33Z</time>
      </trkpt>
      <trkpt lat="42.43564" lon="2.8044">
        <ele>704</ele>
        <time>2024-09-22T05:44:37Z</time>
      </trkpt>
      <trkpt lat="42.43563" lon="2.80444">
        <ele>705</ele>
        <time>2024-09-22T05:44:39Z</time>
      </trkpt>
      <trkpt lat="42.43561" lon="2.80448">
        <ele>706</ele>
        <time>2024-09-22T05:44:42Z</time>
      </trkpt>
      <trkpt lat="42.4356" lon="2.80453">
        <ele>706</ele>
        <time>2024-09-22T05:44:45Z</time>
      </trkpt>
      <trkpt lat="42.4356" lon="2.80457">
        <ele>706</ele>
        <time>2024-09-22T05:44:46Z</time>
      </trkpt>
      <trkpt lat="42.43559" lon="2.8046">
        <ele>706</ele>
        <time>2024-09-22T05:44:49Z</time>
      </trkpt>
      <trkpt lat="42.43558" lon="2.80464">
        <ele>705</ele>
        <time>2024-09-22T05:44:52Z</time>
      </trkpt>
      <trkpt lat="42.43557" lon="2.80468">
        <ele>704</ele>
        <time>2024-09-22T05:44:55Z</time>
      </trkpt>
      <trkpt lat="42.43556" lon="2.80472">
        <ele>703</ele>
        <time>2024-09-22T05:44:56Z</time>
      </trkpt>
      <trkpt lat="42.43555" lon="2.80478">
        <ele>704</ele>
        <time>2024-09-22T05:44:59Z</time>
      </trkpt>
      <trkpt lat="42.43555" lon="2.80484">
        <ele>701</ele>
        <time>2024-09-22T05:45:03Z</time>
      </trkpt>
      <trkpt lat="42.43556" lon="2.80488">
        <ele>701</ele>
        <time>2024-09-22T05:45:05Z</time>
      </trkpt>
      <trkpt lat="42.43555" lon="2.80493">
        <ele>701</ele>
        <time>2024-09-22T05:45:09Z</time>
      </trkpt>
      <trkpt lat="42.43555" lon="2.80497">
        <ele>700</ele>
        <time>2024-09-22T05:45:13Z</time>
      </trkpt>
      <trkpt lat="42.43553" lon="2.80499">
        <ele>700</ele>
        <time>2024-09-22T05:45:19Z</time>
      </trkpt>
      <trkpt lat="42.43551" lon="2.80503">
        <ele>701</ele>
        <time>2024-09-22T05:45:22Z</time>
      </trkpt>
      <trkpt lat="42.4355" lon="2.80508">
        <ele>700</ele>
        <time>2024-09-22T05:45:25Z</time>
      </trkpt>
      <trkpt lat="42.43549" lon="2.80513">
        <ele>701</ele>
        <time>2024-09-22T05:45:27Z</time>
      </trkpt>
      <trkpt lat="42.43548" lon="2.80517">
        <ele>701</ele>
        <time>2024-09-22T05:45:29Z</time>
      </trkpt>
      <trkpt lat="42.43547" lon="2.80521">
        <ele>700</ele>
        <time>2024-09-22T05:45:33Z</time>
      </trkpt>
      <trkpt lat="42.43546" lon="2.80525">
        <ele>701</ele>
        <time>2024-09-22T05:45:35Z</time>
      </trkpt>
      <trkpt lat="42.43545" lon="2.8053">
        <ele>701</ele>
        <time>2024-09-22T05:45:37Z</time>
      </trkpt>
      <trkpt lat="42.43544" lon="2.80535">
        <ele>701</ele>
        <time>2024-09-22T05:45:40Z</time>
      </trkpt>
      <trkpt lat="42.43544" lon="2.80539">
        <ele>701</ele>
        <time>2024-09-22T05:45:42Z</time>
      </trkpt>
      <trkpt lat="42.43543" lon="2.80544">
        <ele>701</ele>
        <time>2024-09-22T05:45:46Z</time>
      </trkpt>
      <trkpt lat="42.43542" lon="2.80548">
        <ele>701</ele>
        <time>2024-09-22T05:45:48Z</time>
      </trkpt>
      <trkpt lat="42.43541" lon="2.80551">
        <ele>699</ele>
        <time>2024-09-22T05:45:50Z</time>
      </trkpt>
      <trkpt lat="42.4354" lon="2.80555">
        <ele>701</ele>
        <time>2024-09-22T05:45:52Z</time>
      </trkpt>
      <trkpt lat="42.4354" lon="2.80559">
        <ele>701</ele>
        <time>2024-09-22T05:45:54Z</time>
      </trkpt>
      <trkpt lat="42.43539" lon="2.80563">
        <ele>701</ele>
        <time>2024-09-22T05:45:56Z</time>
      </trkpt>
      <trkpt lat="42.43538" lon="2.80568">
        <ele>701</ele>
        <time>2024-09-22T05:45:59Z</time>
      </trkpt>
      <trkpt lat="42.43538" lon="2.80572">
        <ele>701</ele>
        <time>2024-09-22T05:46:02Z</time>
      </trkpt>
      <trkpt lat="42.43539" lon="2.80578">
        <ele>701</ele>
        <time>2024-09-22T05:46:05Z</time>
      </trkpt>
      <trkpt lat="42.4354" lon="2.80583">
        <ele>701</ele>
        <time>2024-09-22T05:46:08Z</time>
      </trkpt>
      <trkpt lat="42.43541" lon="2.80586">
        <ele>703</ele>
        <time>2024-09-22T05:46:11Z</time>
      </trkpt>
      <trkpt lat="42.43542" lon="2.80591">
        <ele>703</ele>
        <time>2024-09-22T05:46:13Z</time>
      </trkpt>
      <trkpt lat="42.43542" lon="2.80595">
        <ele>704</ele>
        <time>2024-09-22T05:46:16Z</time>
      </trkpt>
      <trkpt lat="42.43541" lon="2.80601">
        <ele>706</ele>
        <time>2024-09-22T05:46:18Z</time>
      </trkpt>
      <trkpt lat="42.43541" lon="2.80607">
        <ele>704</ele>
        <time>2024-09-22T05:46:20Z</time>
      </trkpt>
      <trkpt lat="42.43543" lon="2.80608">
        <ele>705</ele>
        <time>2024-09-22T05:46:23Z</time>
      </trkpt>
      <trkpt lat="42.43546" lon="2.80609">
        <ele>705</ele>
        <time>2024-09-22T05:46:24Z</time>
      </trkpt>
      <trkpt lat="42.43548" lon="2.80609">
        <ele>706</ele>
        <time>2024-09-22T05:46:25Z</time>
      </trkpt>
      <trkpt lat="42.43552" lon="2.80608">
        <ele>706</ele>
        <time>2024-09-22T05:46:27Z</time>
      </trkpt>
      <trkpt lat="42.43556" lon="2.80606">
        <ele>705</ele>
        <time>2024-09-22T05:46:29Z</time>
      </trkpt>
      <trkpt lat="42.43558" lon="2.80604">
        <ele>704</ele>
        <time>2024-09-22T05:46:32Z</time>
      </trkpt>
      <trkpt lat="42.4356" lon="2.806">
        <ele>705</ele>
        <time>2024-09-22T05:46:34Z</time>
      </trkpt>
      <trkpt lat="42.43563" lon="2.80596">
        <ele>705</ele>
        <time>2024-09-22T05:46:36Z</time>
      </trkpt>
      <trkpt lat="42.43566" lon="2.80593">
        <ele>704</ele>
        <time>2024-09-22T05:46:38Z</time>
      </trkpt>
      <trkpt lat="42.43568" lon="2.80589">
        <ele>706</ele>
        <time>2024-09-22T05:46:41Z</time>
      </trkpt>
      <trkpt lat="42.43571" lon="2.80588">
        <ele>705</ele>
        <time>2024-09-22T05:46:44Z</time>
      </trkpt>
      <trkpt lat="42.43574" lon="2.80586">
        <ele>706</ele>
        <time>2024-09-22T05:46:46Z</time>
      </trkpt>
      <trkpt lat="42.43578" lon="2.80584">
        <ele>706</ele>
        <time>2024-09-22T05:46:50Z</time>
      </trkpt>
      <trkpt lat="42.43581" lon="2.80582">
        <ele>704</ele>
        <time>2024-09-22T05:46:53Z</time>
      </trkpt>
      <trkpt lat="42.43584" lon="2.80581">
        <ele>704</ele>
        <time>2024-09-22T05:46:56Z</time>
      </trkpt>
      <trkpt lat="42.43587" lon="2.8058">
        <ele>704</ele>
        <time>2024-09-22T05:46:58Z</time>
      </trkpt>
      <trkpt lat="42.43589" lon="2.80577">
        <ele>703</ele>
        <time>2024-09-22T05:47:01Z</time>
      </trkpt>
      <trkpt lat="42.43592" lon="2.80575">
        <ele>705</ele>
        <time>2024-09-22T05:47:04Z</time>
      </trkpt>
      <trkpt lat="42.43595" lon="2.80573">
        <ele>705</ele>
        <time>2024-09-22T05:47:07Z</time>
      </trkpt>
      <trkpt lat="42.43599" lon="2.80572">
        <ele>705</ele>
        <time>2024-09-22T05:47:10Z</time>
      </trkpt>
      <trkpt lat="42.43602" lon="2.80571">
        <ele>704</ele>
        <time>2024-09-22T05:47:12Z</time>
      </trkpt>
      <trkpt lat="42.43604" lon="2.80569">
        <ele>704</ele>
        <time>2024-09-22T05:47:14Z</time>
      </trkpt>
      <trkpt lat="42.43607" lon="2.80568">
        <ele>704</ele>
        <time>2024-09-22T05:47:15Z</time>
      </trkpt>
      <trkpt lat="42.4361" lon="2.80567">
        <ele>704</ele>
        <time>2024-09-22T05:47:18Z</time>
      </trkpt>
      <trkpt lat="42.43613" lon="2.80566">
        <ele>704</ele>
        <time>2024-09-22T05:47:20Z</time>
      </trkpt>
      <trkpt lat="42.43616" lon="2.80565">
        <ele>705</ele>
        <time>2024-09-22T05:47:23Z</time>
      </trkpt>
      <trkpt lat="42.43619" lon="2.80564">
        <ele>704</ele>
        <time>2024-09-22T05:47:25Z</time>
      </trkpt>
      <trkpt lat="42.43622" lon="2.80564">
        <ele>705</ele>
        <time>2024-09-22T05:47:28Z</time>
      </trkpt>
      <trkpt lat="42.43626" lon="2.80564">
        <ele>705</ele>
        <time>2024-09-22T05:47:31Z</time>
      </trkpt>
      <trkpt lat="42.4363" lon="2.80565">
        <ele>704</ele>
        <time>2024-09-22T05:47:34Z</time>
      </trkpt>
      <trkpt lat="42.43633" lon="2.80564">
        <ele>705</ele>
        <time>2024-09-22T05:47:36Z</time>
      </trkpt>
      <trkpt lat="42.43637" lon="2.80566">
        <ele>704</ele>
        <time>2024-09-22T05:47:38Z</time>
      </trkpt>
      <trkpt lat="42.43641" lon="2.80567">
        <ele>704</ele>
        <time>2024-09-22T05:47:41Z</time>
      </trkpt>
      <trkpt lat="42.43644" lon="2.80567">
        <ele>704</ele>
        <time>2024-09-22T05:47:45Z</time>
      </trkpt>
      <trkpt lat="42.43647" lon="2.80568">
        <ele>704</ele>
        <time>2024-09-22T05:47:47Z</time>
      </trkpt>
      <trkpt lat="42.43651" lon="2.80569">
        <ele>703</ele>
        <time>2024-09-22T05:47:50Z</time>
      </trkpt>
      <trkpt lat="42.43654" lon="2.80568">
        <ele>704</ele>
        <time>2024-09-22T05:47:53Z</time>
      </trkpt>
      <trkpt lat="42.43657" lon="2.80569">
        <ele>703</ele>
        <time>2024-09-22T05:47:56Z</time>
      </trkpt>
      <trkpt lat="42.43661" lon="2.8057">
        <ele>702</ele>
        <time>2024-09-22T05:47:58Z</time>
      </trkpt>
      <trkpt lat="42.43665" lon="2.80572">
        <ele>703</ele>
        <time>2024-09-22T05:48:01Z</time>
      </trkpt>
      <trkpt lat="42.43669" lon="2.80575">
        <ele>702</ele>
        <time>2024-09-22T05:48:05Z</time>
      </trkpt>
      <trkpt lat="42.43672" lon="2.80577">
        <ele>701</ele>
        <time>2024-09-22T05:48:07Z</time>
      </trkpt>
      <trkpt lat="42.43675" lon="2.8058">
        <ele>700</ele>
        <time>2024-09-22T05:48:10Z</time>
      </trkpt>
      <trkpt lat="42.43678" lon="2.80583">
        <ele>699</ele>
        <time>2024-09-22T05:48:14Z</time>
      </trkpt>
      <trkpt lat="42.43682" lon="2.80585">
        <ele>699</ele>
        <time>2024-09-22T05:48:15Z</time>
      </trkpt>
      <trkpt lat="42.43685" lon="2.80587">
        <ele>699</ele>
        <time>2024-09-22T05:48:17Z</time>
      </trkpt>
      <trkpt lat="42.43688" lon="2.80589">
        <ele>697</ele>
        <time>2024-09-22T05:48:21Z</time>
      </trkpt>
      <trkpt lat="42.43691" lon="2.80591">
        <ele>698</ele>
        <time>2024-09-22T05:48:23Z</time>
      </trkpt>
      <trkpt lat="42.43694" lon="2.80593">
        <ele>697</ele>
        <time>2024-09-22T05:48:25Z</time>
      </trkpt>
      <trkpt lat="42.43697" lon="2.80595">
        <ele>697</ele>
        <time>2024-09-22T05:48:28Z</time>
      </trkpt>
      <trkpt lat="42.437" lon="2.80596">
        <ele>696</ele>
        <time>2024-09-22T05:48:30Z</time>
      </trkpt>
      <trkpt lat="42.43703" lon="2.80598">
        <ele>696</ele>
        <time>2024-09-22T05:48:31Z</time>
      </trkpt>
      <trkpt lat="42.43706" lon="2.806">
        <ele>698</ele>
        <time>2024-09-22T05:48:36Z</time>
      </trkpt>
      <trkpt lat="42.4371" lon="2.80601">
        <ele>697</ele>
        <time>2024-09-22T05:48:39Z</time>
      </trkpt>
      <trkpt lat="42.43714" lon="2.80601">
        <ele>697</ele>
        <time>2024-09-22T05:48:41Z</time>
      </trkpt>
      <trkpt lat="42.43717" lon="2.80601">
        <ele>696</ele>
        <time>2024-09-22T05:48:42Z</time>
      </trkpt>
      <trkpt lat="42.4372" lon="2.80603">
        <ele>697</ele>
        <time>2024-09-22T05:48:44Z</time>
      </trkpt>
      <trkpt lat="42.43722" lon="2.80605">
        <ele>697</ele>
        <time>2024-09-22T05:48:48Z</time>
      </trkpt>
      <trkpt lat="42.43725" lon="2.80608">
        <ele>697</ele>
        <time>2024-09-22T05:48:52Z</time>
      </trkpt>
      <trkpt lat="42.43728" lon="2.8061">
        <ele>697</ele>
        <time>2024-09-22T05:48:53Z</time>
      </trkpt>
      <trkpt lat="42.43731" lon="2.80613">
        <ele>698</ele>
        <time>2024-09-22T05:48:55Z</time>
      </trkpt>
      <trkpt lat="42.43733" lon="2.80616">
        <ele>697</ele>
        <time>2024-09-22T05:48:57Z</time>
      </trkpt>
      <trkpt lat="42.43735" lon="2.80619">
        <ele>697</ele>
        <time>2024-09-22T05:49:00Z</time>
      </trkpt>
      <trkpt lat="42.43738" lon="2.80623">
        <ele>696</ele>
        <time>2024-09-22T05:49:02Z</time>
      </trkpt>
      <trkpt lat="42.43741" lon="2.80626">
        <ele>696</ele>
        <time>2024-09-22T05:49:04Z</time>
      </trkpt>
      <trkpt lat="42.43744" lon="2.80629">
        <ele>696</ele>
        <time>2024-09-22T05:49:07Z</time>
      </trkpt>
      <trkpt lat="42.43743" lon="2.80629">
        <ele>697</ele>
        <time>2024-09-22T05:49:08Z</time>
      </trkpt>
      <trkpt lat="42.43745" lon="2.80631">
        <ele>696</ele>
        <time>2024-09-22T05:49:10Z</time>
      </trkpt>
      <trkpt lat="42.4375" lon="2.80634">
        <ele>696</ele>
        <time>2024-09-22T05:49:12Z</time>
      </trkpt>
      <trkpt lat="42.43753" lon="2.80636">
        <ele>696</ele>
        <time>2024-09-22T05:49:19Z</time>
      </trkpt>
      <trkpt lat="42.43756" lon="2.80638">
        <ele>696</ele>
        <time>2024-09-22T05:49:20Z</time>
      </trkpt>
      <trkpt lat="42.43758" lon="2.80642">
        <ele>696</ele>
        <time>2024-09-22T05:49:23Z</time>
      </trkpt>
      <trkpt lat="42.4376" lon="2.80644">
        <ele>695</ele>
        <time>2024-09-22T05:49:25Z</time>
      </trkpt>
      <trkpt lat="42.43763" lon="2.80647">
        <ele>694</ele>
        <time>2024-09-22T05:49:28Z</time>
      </trkpt>
      <trkpt lat="42.43766" lon="2.8065">
        <ele>694</ele>
        <time>2024-09-22T05:49:32Z</time>
      </trkpt>
      <trkpt lat="42.43769" lon="2.80652">
        <ele>694</ele>
        <time>2024-09-22T05:49:35Z</time>
      </trkpt>
      <trkpt lat="42.43773" lon="2.80653">
        <ele>694</ele>
        <time>2024-09-22T05:49:38Z</time>
      </trkpt>
      <trkpt lat="42.43776" lon="2.80654">
        <ele>693</ele>
        <time>2024-09-22T05:49:39Z</time>
      </trkpt>
      <trkpt lat="42.43779" lon="2.80656">
        <ele>692</ele>
        <time>2024-09-22T05:49:43Z</time>
      </trkpt>
      <trkpt lat="42.43782" lon="2.80658">
        <ele>693</ele>
        <time>2024-09-22T05:49:45Z</time>
      </trkpt>
      <trkpt lat="42.43785" lon="2.80659">
        <ele>691</ele>
        <time>2024-09-22T05:49:47Z</time>
      </trkpt>
      <trkpt lat="42.43788" lon="2.80662">
        <ele>691</ele>
        <time>2024-09-22T05:49:51Z</time>
      </trkpt>
      <trkpt lat="42.4379" lon="2.80665">
        <ele>691</ele>
        <time>2024-09-22T05:49:53Z</time>
      </trkpt>
      <trkpt lat="42.43793" lon="2.80668">
        <ele>690</ele>
        <time>2024-09-22T05:49:55Z</time>
      </trkpt>
      <trkpt lat="42.43795" lon="2.80671">
        <ele>690</ele>
        <time>2024-09-22T05:49:57Z</time>
      </trkpt>
      <trkpt lat="42.43798" lon="2.80673">
        <ele>691</ele>
        <time>2024-09-22T05:50:00Z</time>
      </trkpt>
      <trkpt lat="42.43802" lon="2.80674">
        <ele>690</ele>
        <time>2024-09-22T05:50:03Z</time>
      </trkpt>
      <trkpt lat="42.43805" lon="2.80676">
        <ele>689</ele>
        <time>2024-09-22T05:50:07Z</time>
      </trkpt>
      <trkpt lat="42.43808" lon="2.80678">
        <ele>688</ele>
        <time>2024-09-22T05:50:09Z</time>
      </trkpt>
      <trkpt lat="42.4381" lon="2.80682">
        <ele>687</ele>
        <time>2024-09-22T05:50:12Z</time>
      </trkpt>
      <trkpt lat="42.43812" lon="2.80684">
        <ele>687</ele>
        <time>2024-09-22T05:50:14Z</time>
      </trkpt>
      <trkpt lat="42.43815" lon="2.80687">
        <ele>686</ele>
        <time>2024-09-22T05:50:17Z</time>
      </trkpt>
      <trkpt lat="42.43818" lon="2.80689">
        <ele>684</ele>
        <time>2024-09-22T05:50:20Z</time>
      </trkpt>
      <trkpt lat="42.4382" lon="2.80692">
        <ele>685</ele>
        <time>2024-09-22T05:50:22Z</time>
      </trkpt>
      <trkpt lat="42.43822" lon="2.80696">
        <ele>686</ele>
        <time>2024-09-22T05:50:24Z</time>
      </trkpt>
      <trkpt lat="42.43824" lon="2.807">
        <ele>683</ele>
        <time>2024-09-22T05:50:27Z</time>
      </trkpt>
      <trkpt lat="42.43827" lon="2.80703">
        <ele>683</ele>
        <time>2024-09-22T05:50:29Z</time>
      </trkpt>
      <trkpt lat="42.43829" lon="2.80705">
        <ele>684</ele>
        <time>2024-09-22T05:50:31Z</time>
      </trkpt>
      <trkpt lat="42.43831" lon="2.80709">
        <ele>683</ele>
        <time>2024-09-22T05:50:34Z</time>
      </trkpt>
      <trkpt lat="42.43833" lon="2.80713">
        <ele>682</ele>
        <time>2024-09-22T05:50:40Z</time>
      </trkpt>
      <trkpt lat="42.43834" lon="2.80716">
        <ele>682</ele>
        <time>2024-09-22T05:50:57Z</time>
      </trkpt>
      <trkpt lat="42.43835" lon="2.8072">
        <ele>681</ele>
        <time>2024-09-22T05:51:00Z</time>
      </trkpt>
      <trkpt lat="42.43836" lon="2.80725">
        <ele>680</ele>
        <time>2024-09-22T05:51:04Z</time>
      </trkpt>
      <trkpt lat="42.43838" lon="2.80729">
        <ele>680</ele>
        <time>2024-09-22T05:51:07Z</time>
      </trkpt>
      <trkpt lat="42.43838" lon="2.80734">
        <ele>679</ele>
        <time>2024-09-22T05:51:11Z</time>
      </trkpt>
      <trkpt lat="42.43839" lon="2.80739">
        <ele>679</ele>
        <time>2024-09-22T05:51:14Z</time>
      </trkpt>
      <trkpt lat="42.4384" lon="2.80743">
        <ele>679</ele>
        <time>2024-09-22T05:51:16Z</time>
      </trkpt>
      <trkpt lat="42.43841" lon="2.80747">
        <ele>678</ele>
        <time>2024-09-22T05:51:19Z</time>
      </trkpt>
      <trkpt lat="42.43841" lon="2.80751">
        <ele>677</ele>
        <time>2024-09-22T05:51:22Z</time>
      </trkpt>
      <trkpt lat="42.43842" lon="2.80756">
        <ele>676</ele>
        <time>2024-09-22T05:51:25Z</time>
      </trkpt>
      <trkpt lat="42.43842" lon="2.80761">
        <ele>676</ele>
        <time>2024-09-22T05:51:28Z</time>
      </trkpt>
      <trkpt lat="42.43843" lon="2.80765">
        <ele>676</ele>
        <time>2024-09-22T05:51:30Z</time>
      </trkpt>
      <trkpt lat="42.43844" lon="2.8077">
        <ele>675</ele>
        <time>2024-09-22T05:51:33Z</time>
      </trkpt>
      <trkpt lat="42.43845" lon="2.80774">
        <ele>676</ele>
        <time>2024-09-22T05:51:35Z</time>
      </trkpt>
      <trkpt lat="42.43846" lon="2.80778">
        <ele>677</ele>
        <time>2024-09-22T05:51:37Z</time>
      </trkpt>
      <trkpt lat="42.43846" lon="2.80782">
        <ele>676</ele>
        <time>2024-09-22T05:51:39Z</time>
      </trkpt>
      <trkpt lat="42.43847" lon="2.80786">
        <ele>676</ele>
        <time>2024-09-22T05:51:41Z</time>
      </trkpt>
      <trkpt lat="42.43848" lon="2.8079">
        <ele>676</ele>
        <time>2024-09-22T05:51:43Z</time>
      </trkpt>
      <trkpt lat="42.43848" lon="2.80793">
        <ele>675</ele>
        <time>2024-09-22T05:51:45Z</time>
      </trkpt>
      <trkpt lat="42.43848" lon="2.80798">
        <ele>675</ele>
        <time>2024-09-22T05:51:48Z</time>
      </trkpt>
      <trkpt lat="42.43849" lon="2.80802">
        <ele>675</ele>
        <time>2024-09-22T05:51:51Z</time>
      </trkpt>
      <trkpt lat="42.43849" lon="2.80806">
        <ele>674</ele>
        <time>2024-09-22T05:51:54Z</time>
      </trkpt>
      <trkpt lat="42.4385" lon="2.80811">
        <ele>674</ele>
        <time>2024-09-22T05:51:58Z</time>
      </trkpt>
      <trkpt lat="42.43851" lon="2.80815">
        <ele>674</ele>
        <time>2024-09-22T05:52:00Z</time>
      </trkpt>
      <trkpt lat="42.43851" lon="2.80819">
        <ele>673</ele>
        <time>2024-09-22T05:52:02Z</time>
      </trkpt>
      <trkpt lat="42.43852" lon="2.80823">
        <ele>673</ele>
        <time>2024-09-22T05:52:05Z</time>
      </trkpt>
      <trkpt lat="42.43853" lon="2.80827">
        <ele>673</ele>
        <time>2024-09-22T05:52:08Z</time>
      </trkpt>
      <trkpt lat="42.43854" lon="2.80833">
        <ele>672</ele>
        <time>2024-09-22T05:52:11Z</time>
      </trkpt>
      <trkpt lat="42.43854" lon="2.80838">
        <ele>672</ele>
        <time>2024-09-22T05:52:14Z</time>
      </trkpt>
      <trkpt lat="42.43855" lon="2.80843">
        <ele>672</ele>
        <time>2024-09-22T05:52:17Z</time>
      </trkpt>
      <trkpt lat="42.43855" lon="2.80848">
        <ele>672</ele>
        <time>2024-09-22T05:52:19Z</time>
      </trkpt>
      <trkpt lat="42.43855" lon="2.80852">
        <ele>672</ele>
        <time>2024-09-22T05:52:21Z</time>
      </trkpt>
      <trkpt lat="42.43856" lon="2.80856">
        <ele>671</ele>
        <time>2024-09-22T05:52:24Z</time>
      </trkpt>
      <trkpt lat="42.43856" lon="2.80861">
        <ele>671</ele>
        <time>2024-09-22T05:52:27Z</time>
      </trkpt>
      <trkpt lat="42.43856" lon="2.80865">
        <ele>671</ele>
        <time>2024-09-22T05:52:28Z</time>
      </trkpt>
      <trkpt lat="42.43857" lon="2.80871">
        <ele>670</ele>
        <time>2024-09-22T05:52:31Z</time>
      </trkpt>
      <trkpt lat="42.43857" lon="2.80876">
        <ele>670</ele>
        <time>2024-09-22T05:52:34Z</time>
      </trkpt>
      <trkpt lat="42.43857" lon="2.80881">
        <ele>670</ele>
        <time>2024-09-22T05:52:37Z</time>
      </trkpt>
      <trkpt lat="42.43857" lon="2.80886">
        <ele>670</ele>
        <time>2024-09-22T05:52:40Z</time>
      </trkpt>
      <trkpt lat="42.43857" lon="2.80892">
        <ele>670</ele>
        <time>2024-09-22T05:52:43Z</time>
      </trkpt>
      <trkpt lat="42.43858" lon="2.80896">
        <ele>670</ele>
        <time>2024-09-22T05:52:45Z</time>
      </trkpt>
      <trkpt lat="42.43857" lon="2.809">
        <ele>670</ele>
        <time>2024-09-22T05:52:47Z</time>
      </trkpt>
      <trkpt lat="42.43856" lon="2.80904">
        <ele>670</ele>
        <time>2024-09-22T05:52:50Z</time>
      </trkpt>
      <trkpt lat="42.43856" lon="2.80909">
        <ele>670</ele>
        <time>2024-09-22T05:52:53Z</time>
      </trkpt>
      <trkpt lat="42.43856" lon="2.80914">
        <ele>670</ele>
        <time>2024-09-22T05:52:56Z</time>
      </trkpt>
      <trkpt lat="42.43856" lon="2.8092">
        <ele>669</ele>
        <time>2024-09-22T05:53:00Z</time>
      </trkpt>
      <trkpt lat="42.43855" lon="2.80924">
        <ele>669</ele>
        <time>2024-09-22T05:53:02Z</time>
      </trkpt>
      <trkpt lat="42.43855" lon="2.80928">
        <ele>669</ele>
        <time>2024-09-22T05:53:05Z</time>
      </trkpt>
      <trkpt lat="42.43855" lon="2.80933">
        <ele>670</ele>
        <time>2024-09-22T05:53:08Z</time>
      </trkpt>
      <trkpt lat="42.43854" lon="2.80938">
        <ele>670</ele>
        <time>2024-09-22T05:53:10Z</time>
      </trkpt>
      <trkpt lat="42.43854" lon="2.80943">
        <ele>669</ele>
        <time>2024-09-22T05:53:12Z</time>
      </trkpt>
      <trkpt lat="42.43852" lon="2.80947">
        <ele>670</ele>
        <time>2024-09-22T05:53:16Z</time>
      </trkpt>
      <trkpt lat="42.4385" lon="2.80951">
        <ele>670</ele>
        <time>2024-09-22T05:53:18Z</time>
      </trkpt>
      <trkpt lat="42.43849" lon="2.80955">
        <ele>671</ele>
        <time>2024-09-22T05:53:21Z</time>
      </trkpt>
      <trkpt lat="42.43847" lon="2.80961">
        <ele>671</ele>
        <time>2024-09-22T05:53:24Z</time>
      </trkpt>
      <trkpt lat="42.43846" lon="2.80965">
        <ele>672</ele>
        <time>2024-09-22T05:53:28Z</time>
      </trkpt>
      <trkpt lat="42.43846" lon="2.8097">
        <ele>672</ele>
        <time>2024-09-22T05:53:31Z</time>
      </trkpt>
      <trkpt lat="42.43845" lon="2.80976">
        <ele>672</ele>
        <time>2024-09-22T05:53:34Z</time>
      </trkpt>
      <trkpt lat="42.43843" lon="2.80979">
        <ele>673</ele>
        <time>2024-09-22T05:53:37Z</time>
      </trkpt>
      <trkpt lat="42.43842" lon="2.80984">
        <ele>672</ele>
        <time>2024-09-22T05:53:39Z</time>
      </trkpt>
      <trkpt lat="42.43841" lon="2.80989">
        <ele>672</ele>
        <time>2024-09-22T05:53:43Z</time>
      </trkpt>
      <trkpt lat="42.43839" lon="2.80994">
        <ele>673</ele>
        <time>2024-09-22T05:53:46Z</time>
      </trkpt>
      <trkpt lat="42.4384" lon="2.81">
        <ele>675</ele>
        <time>2024-09-22T05:53:48Z</time>
      </trkpt>
      <trkpt lat="42.43842" lon="2.81004">
        <ele>673</ele>
        <time>2024-09-22T05:53:51Z</time>
      </trkpt>
      <trkpt lat="42.43843" lon="2.81008">
        <ele>672</ele>
        <time>2024-09-22T05:53:53Z</time>
      </trkpt>
      <trkpt lat="42.43845" lon="2.81011">
        <ele>673</ele>
        <time>2024-09-22T05:53:56Z</time>
      </trkpt>
      <trkpt lat="42.43848" lon="2.81015">
        <ele>673</ele>
        <time>2024-09-22T05:53:58Z</time>
      </trkpt>
      <trkpt lat="42.4385" lon="2.81018">
        <ele>674</ele>
        <time>2024-09-22T05:54:00Z</time>
      </trkpt>
      <trkpt lat="42.43851" lon="2.81021">
        <ele>673</ele>
        <time>2024-09-22T05:54:04Z</time>
      </trkpt>
      <trkpt lat="42.43854" lon="2.81024">
        <ele>672</ele>
        <time>2024-09-22T05:54:07Z</time>
      </trkpt>
      <trkpt lat="42.43857" lon="2.81027">
        <ele>673</ele>
        <time>2024-09-22T05:54:11Z</time>
      </trkpt>
      <trkpt lat="42.43859" lon="2.8103">
        <ele>672</ele>
        <time>2024-09-22T05:54:13Z</time>
      </trkpt>
      <trkpt lat="42.43862" lon="2.81034">
        <ele>673</ele>
        <time>2024-09-22T05:54:16Z</time>
      </trkpt>
      <trkpt lat="42.43864" lon="2.81037">
        <ele>673</ele>
        <time>2024-09-22T05:54:19Z</time>
      </trkpt>
      <trkpt lat="42.43867" lon="2.81041">
        <ele>673</ele>
        <time>2024-09-22T05:54:22Z</time>
      </trkpt>
      <trkpt lat="42.4387" lon="2.81043">
        <ele>674</ele>
        <time>2024-09-22T05:54:26Z</time>
      </trkpt>
      <trkpt lat="42.43873" lon="2.81045">
        <ele>673</ele>
        <time>2024-09-22T05:54:28Z</time>
      </trkpt>
      <trkpt lat="42.43876" lon="2.81047">
        <ele>673</ele>
        <time>2024-09-22T05:54:31Z</time>
      </trkpt>
      <trkpt lat="42.43879" lon="2.8105">
        <ele>673</ele>
        <time>2024-09-22T05:54:34Z</time>
      </trkpt>
      <trkpt lat="42.43882" lon="2.81052">
        <ele>673</ele>
        <time>2024-09-22T05:54:36Z</time>
      </trkpt>
      <trkpt lat="42.43884" lon="2.81055">
        <ele>673</ele>
        <time>2024-09-22T05:54:37Z</time>
      </trkpt>
      <trkpt lat="42.43886" lon="2.81057">
        <ele>674</ele>
        <time>2024-09-22T05:54:40Z</time>
      </trkpt>
      <trkpt lat="42.4389" lon="2.81061">
        <ele>672</ele>
        <time>2024-09-22T05:54:42Z</time>
      </trkpt>
      <trkpt lat="42.43893" lon="2.81064">
        <ele>675</ele>
        <time>2024-09-22T05:54:47Z</time>
      </trkpt>
      <trkpt lat="42.43896" lon="2.81068">
        <ele>675</ele>
        <time>2024-09-22T05:54:49Z</time>
      </trkpt>
      <trkpt lat="42.439" lon="2.8107">
        <ele>675</ele>
        <time>2024-09-22T05:54:52Z</time>
      </trkpt>
      <trkpt lat="42.43903" lon="2.81073">
        <ele>676</ele>
        <time>2024-09-22T05:54:55Z</time>
      </trkpt>
      <trkpt lat="42.43905" lon="2.81075">
        <ele>675</ele>
        <time>2024-09-22T05:54:57Z</time>
      </trkpt>
      <trkpt lat="42.43908" lon="2.81077">
        <ele>674</ele>
        <time>2024-09-22T05:55:00Z</time>
      </trkpt>
      <trkpt lat="42.43911" lon="2.81079">
        <ele>674</ele>
        <time>2024-09-22T05:55:02Z</time>
      </trkpt>
      <trkpt lat="42.43914" lon="2.81081">
        <ele>674</ele>
        <time>2024-09-22T05:55:05Z</time>
      </trkpt>
      <trkpt lat="42.43916" lon="2.81084">
        <ele>673</ele>
        <time>2024-09-22T05:55:08Z</time>
      </trkpt>
      <trkpt lat="42.43919" lon="2.81086">
        <ele>673</ele>
        <time>2024-09-22T05:55:10Z</time>
      </trkpt>
      <trkpt lat="42.43921" lon="2.81089">
        <ele>673</ele>
        <time>2024-09-22T05:55:13Z</time>
      </trkpt>
      <trkpt lat="42.43924" lon="2.81091">
        <ele>673</ele>
        <time>2024-09-22T05:55:15Z</time>
      </trkpt>
      <trkpt lat="42.43927" lon="2.81094">
        <ele>674</ele>
        <time>2024-09-22T05:55:18Z</time>
      </trkpt>
      <trkpt lat="42.4393" lon="2.81098">
        <ele>674</ele>
        <time>2024-09-22T05:55:21Z</time>
      </trkpt>
      <trkpt lat="42.43933" lon="2.81101">
        <ele>674</ele>
        <time>2024-09-22T05:55:24Z</time>
      </trkpt>
      <trkpt lat="42.43936" lon="2.81105">
        <ele>673</ele>
        <time>2024-09-22T05:55:27Z</time>
      </trkpt>
      <trkpt lat="42.43938" lon="2.81107">
        <ele>673</ele>
        <time>2024-09-22T05:55:29Z</time>
      </trkpt>
      <trkpt lat="42.43941" lon="2.81109">
        <ele>673</ele>
        <time>2024-09-22T05:55:32Z</time>
      </trkpt>
      <trkpt lat="42.43945" lon="2.81111">
        <ele>674</ele>
        <time>2024-09-22T05:55:36Z</time>
      </trkpt>
      <trkpt lat="42.43948" lon="2.81112">
        <ele>672</ele>
        <time>2024-09-22T05:55:39Z</time>
      </trkpt>
      <trkpt lat="42.43951" lon="2.81113">
        <ele>673</ele>
        <time>2024-09-22T05:55:41Z</time>
      </trkpt>
      <trkpt lat="42.43954" lon="2.81114">
        <ele>673</ele>
        <time>2024-09-22T05:55:43Z</time>
      </trkpt>
      <trkpt lat="42.43957" lon="2.81114">
        <ele>673</ele>
        <time>2024-09-22T05:55:45Z</time>
      </trkpt>
      <trkpt lat="42.4396" lon="2.81115">
        <ele>674</ele>
        <time>2024-09-22T05:55:47Z</time>
      </trkpt>
      <trkpt lat="42.43963" lon="2.81116">
        <ele>674</ele>
        <time>2024-09-22T05:55:49Z</time>
      </trkpt>
      <trkpt lat="42.43966" lon="2.81116">
        <ele>676</ele>
        <time>2024-09-22T05:55:52Z</time>
      </trkpt>
      <trkpt lat="42.43969" lon="2.81114">
        <ele>675</ele>
        <time>2024-09-22T05:55:54Z</time>
      </trkpt>
      <trkpt lat="42.43972" lon="2.81113">
        <ele>676</ele>
        <time>2024-09-22T05:55:55Z</time>
      </trkpt>
      <trkpt lat="42.43975" lon="2.81112">
        <ele>675</ele>
        <time>2024-09-22T05:55:58Z</time>
      </trkpt>
      <trkpt lat="42.43978" lon="2.81112">
        <ele>675</ele>
        <time>2024-09-22T05:56:01Z</time>
      </trkpt>
      <trkpt lat="42.43981" lon="2.81111">
        <ele>675</ele>
        <time>2024-09-22T05:56:03Z</time>
      </trkpt>
      <trkpt lat="42.43985" lon="2.8111">
        <ele>675</ele>
        <time>2024-09-22T05:56:06Z</time>
      </trkpt>
      <trkpt lat="42.43988" lon="2.81111">
        <ele>675</ele>
        <time>2024-09-22T05:56:09Z</time>
      </trkpt>
      <trkpt lat="42.43991" lon="2.8111">
        <ele>676</ele>
        <time>2024-09-22T05:56:12Z</time>
      </trkpt>
      <trkpt lat="42.43994" lon="2.81109">
        <ele>676</ele>
        <time>2024-09-22T05:56:15Z</time>
      </trkpt>
      <trkpt lat="42.43997" lon="2.81109">
        <ele>675</ele>
        <time>2024-09-22T05:56:18Z</time>
      </trkpt>
      <trkpt lat="42.44001" lon="2.81109">
        <ele>677</ele>
        <time>2024-09-22T05:56:21Z</time>
      </trkpt>
      <trkpt lat="42.44004" lon="2.8111">
        <ele>676</ele>
        <time>2024-09-22T05:56:23Z</time>
      </trkpt>
      <trkpt lat="42.44007" lon="2.8111">
        <ele>677</ele>
        <time>2024-09-22T05:56:25Z</time>
      </trkpt>
      <trkpt lat="42.4401" lon="2.8111">
        <ele>677</ele>
        <time>2024-09-22T05:56:28Z</time>
      </trkpt>
      <trkpt lat="42.44013" lon="2.81111">
        <ele>677</ele>
        <time>2024-09-22T05:56:31Z</time>
      </trkpt>
      <trkpt lat="42.44017" lon="2.81112">
        <ele>677</ele>
        <time>2024-09-22T05:56:34Z</time>
      </trkpt>
      <trkpt lat="42.44021" lon="2.81112">
        <ele>677</ele>
        <time>2024-09-22T05:56:37Z</time>
      </trkpt>
      <trkpt lat="42.44024" lon="2.81112">
        <ele>677</ele>
        <time>2024-09-22T05:56:40Z</time>
      </trkpt>
      <trkpt lat="42.44027" lon="2.81112">
        <ele>676</ele>
        <time>2024-09-22T05:56:43Z</time>
      </trkpt>
      <trkpt lat="42.44031" lon="2.81112">
        <ele>676</ele>
        <time>2024-09-22T05:56:44Z</time>
      </trkpt>
      <trkpt lat="42.44034" lon="2.81114">
        <ele>676</ele>
        <time>2024-09-22T05:56:47Z</time>
      </trkpt>
      <trkpt lat="42.44037" lon="2.81115">
        <ele>676</ele>
        <time>2024-09-22T05:56:50Z</time>
      </trkpt>
      <trkpt lat="42.4404" lon="2.81118">
        <ele>675</ele>
        <time>2024-09-22T05:56:53Z</time>
      </trkpt>
      <trkpt lat="42.44042" lon="2.81122">
        <ele>675</ele>
        <time>2024-09-22T05:56:56Z</time>
      </trkpt>
      <trkpt lat="42.44044" lon="2.81125">
        <ele>676</ele>
        <time>2024-09-22T05:56:59Z</time>
      </trkpt>
      <trkpt lat="42.44046" lon="2.8113">
        <ele>675</ele>
        <time>2024-09-22T05:57:01Z</time>
      </trkpt>
      <trkpt lat="42.44047" lon="2.81134">
        <ele>675</ele>
        <time>2024-09-22T05:57:04Z</time>
      </trkpt>
      <trkpt lat="42.44048" lon="2.81138">
        <ele>675</ele>
        <time>2024-09-22T05:57:07Z</time>
      </trkpt>
      <trkpt lat="42.4405" lon="2.81143">
        <ele>675</ele>
        <time>2024-09-22T05:57:10Z</time>
      </trkpt>
      <trkpt lat="42.44052" lon="2.81146">
        <ele>676</ele>
        <time>2024-09-22T05:57:13Z</time>
      </trkpt>
      <trkpt lat="42.44054" lon="2.81149">
        <ele>676</ele>
        <time>2024-09-22T05:57:15Z</time>
      </trkpt>
      <trkpt lat="42.44056" lon="2.81153">
        <ele>676</ele>
        <time>2024-09-22T05:57:18Z</time>
      </trkpt>
      <trkpt lat="42.44059" lon="2.81157">
        <ele>676</ele>
        <time>2024-09-22T05:57:21Z</time>
      </trkpt>
      <trkpt lat="42.44061" lon="2.8116">
        <ele>676</ele>
        <time>2024-09-22T05:57:24Z</time>
      </trkpt>
      <trkpt lat="42.44063" lon="2.81164">
        <ele>676</ele>
        <time>2024-09-22T05:57:26Z</time>
      </trkpt>
      <trkpt lat="42.44065" lon="2.81167">
        <ele>676</ele>
        <time>2024-09-22T05:57:29Z</time>
      </trkpt>
      <trkpt lat="42.44068" lon="2.81171">
        <ele>676</ele>
        <time>2024-09-22T05:57:32Z</time>
      </trkpt>
      <trkpt lat="42.4407" lon="2.81174">
        <ele>676</ele>
        <time>2024-09-22T05:57:34Z</time>
      </trkpt>
      <trkpt lat="42.44072" lon="2.81177">
        <ele>677</ele>
        <time>2024-09-22T05:57:37Z</time>
      </trkpt>
      <trkpt lat="42.44074" lon="2.81181">
        <ele>677</ele>
        <time>2024-09-22T05:57:40Z</time>
      </trkpt>
      <trkpt lat="42.44077" lon="2.81184">
        <ele>677</ele>
        <time>2024-09-22T05:57:43Z</time>
      </trkpt>
      <trkpt lat="42.44079" lon="2.81188">
        <ele>677</ele>
        <time>2024-09-22T05:57:46Z</time>
      </trkpt>
      <trkpt lat="42.44081" lon="2.81193">
        <ele>677</ele>
        <time>2024-09-22T05:57:49Z</time>
      </trkpt>
      <trkpt lat="42.44083" lon="2.81197">
        <ele>677</ele>
        <time>2024-09-22T05:57:52Z</time>
      </trkpt>
      <trkpt lat="42.44085" lon="2.812">
        <ele>677</ele>
        <time>2024-09-22T05:57:54Z</time>
      </trkpt>
      <trkpt lat="42.44087" lon="2.81202">
        <ele>677</ele>
        <time>2024-09-22T05:57:56Z</time>
      </trkpt>
      <trkpt lat="42.4409" lon="2.81205">
        <ele>677</ele>
        <time>2024-09-22T05:57:59Z</time>
      </trkpt>
      <trkpt lat="42.44092" lon="2.81209">
        <ele>676</ele>
        <time>2024-09-22T05:58:02Z</time>
      </trkpt>
      <trkpt lat="42.44094" lon="2.81213">
        <ele>676</ele>
        <time>2024-09-22T05:58:04Z</time>
      </trkpt>
      <trkpt lat="42.44096" lon="2.81216">
        <ele>676</ele>
        <time>2024-09-22T05:58:07Z</time>
      </trkpt>
      <trkpt lat="42.44097" lon="2.8122">
        <ele>676</ele>
        <time>2024-09-22T05:58:10Z</time>
      </trkpt>
      <trkpt lat="42.44099" lon="2.81223">
        <ele>677</ele>
        <time>2024-09-22T05:58:12Z</time>
      </trkpt>
      <trkpt lat="42.44101" lon="2.81227">
        <ele>677</ele>
        <time>2024-09-22T05:58:15Z</time>
      </trkpt>
      <trkpt lat="42.44102" lon="2.81231">
        <ele>678</ele>
        <time>2024-09-22T05:58:18Z</time>
      </trkpt>
      <trkpt lat="42.44104" lon="2.81235">
        <ele>677</ele>
        <time>2024-09-22T05:58:21Z</time>
      </trkpt>
      <trkpt lat="42.44106" lon="2.81239">
        <ele>678</ele>
        <time>2024-09-22T05:58:24Z</time>
      </trkpt>
      <trkpt lat="42.44107" lon="2.81244">
        <ele>678</ele>
        <time>2024-09-22T05:58:28Z</time>
      </trkpt>
      <trkpt lat="42.44108" lon="2.81248">
        <ele>678</ele>
        <time>2024-09-22T05:58:31Z</time>
      </trkpt>
      <trkpt lat="42.44108" lon="2.81253">
        <ele>678</ele>
        <time>2024-09-22T05:58:34Z</time>
      </trkpt>
      <trkpt lat="42.44107" lon="2.81258">
        <ele>679</ele>
        <time>2024-09-22T05:58:37Z</time>
      </trkpt>
      <trkpt lat="42.44105" lon="2.81262">
        <ele>678</ele>
        <time>2024-09-22T05:58:40Z</time>
      </trkpt>
      <trkpt lat="42.44103" lon="2.81265">
        <ele>679</ele>
        <time>2024-09-22T05:58:43Z</time>
      </trkpt>
      <trkpt lat="42.441" lon="2.81268">
        <ele>680</ele>
        <time>2024-09-22T05:58:45Z</time>
      </trkpt>
      <trkpt lat="42.44098" lon="2.81271">
        <ele>681</ele>
        <time>2024-09-22T05:58:48Z</time>
      </trkpt>
      <trkpt lat="42.44095" lon="2.81274">
        <ele>681</ele>
        <time>2024-09-22T05:58:51Z</time>
      </trkpt>
      <trkpt lat="42.44093" lon="2.81277">
        <ele>680</ele>
        <time>2024-09-22T05:58:54Z</time>
      </trkpt>
      <trkpt lat="42.4409" lon="2.8128">
        <ele>680</ele>
        <time>2024-09-22T05:58:57Z</time>
      </trkpt>
      <trkpt lat="42.44088" lon="2.81284">
        <ele>681</ele>
        <time>2024-09-22T05:58:59Z</time>
      </trkpt>
      <trkpt lat="42.44086" lon="2.81287">
        <ele>680</ele>
        <time>2024-09-22T05:59:02Z</time>
      </trkpt>
      <trkpt lat="42.44083" lon="2.8129">
        <ele>681</ele>
        <time>2024-09-22T05:59:05Z</time>
      </trkpt>
      <trkpt lat="42.44081" lon="2.81293">
        <ele>680</ele>
        <time>2024-09-22T05:59:07Z</time>
      </trkpt>
      <trkpt lat="42.44079" lon="2.81297">
        <ele>680</ele>
        <time>2024-09-22T05:59:09Z</time>
      </trkpt>
      <trkpt lat="42.44077" lon="2.81301">
        <ele>680</ele>
        <time>2024-09-22T05:59:11Z</time>
      </trkpt>
      <trkpt lat="42.44076" lon="2.81306">
        <ele>680</ele>
        <time>2024-09-22T05:59:13Z</time>
      </trkpt>
      <trkpt lat="42.44075" lon="2.8131">
        <ele>680</ele>
        <time>2024-09-22T05:59:15Z</time>
      </trkpt>
      <trkpt lat="42.44075" lon="2.81316">
        <ele>680</ele>
        <time>2024-09-22T05:59:18Z</time>
      </trkpt>
      <trkpt lat="42.44074" lon="2.81321">
        <ele>681</ele>
        <time>2024-09-22T05:59:20Z</time>
      </trkpt>
      <trkpt lat="42.44075" lon="2.81325">
        <ele>681</ele>
        <time>2024-09-22T05:59:22Z</time>
      </trkpt>
      <trkpt lat="42.44076" lon="2.8133">
        <ele>680</ele>
        <time>2024-09-22T05:59:25Z</time>
      </trkpt>
      <trkpt lat="42.44076" lon="2.81334">
        <ele>681</ele>
        <time>2024-09-22T05:59:27Z</time>
      </trkpt>
      <trkpt lat="42.44076" lon="2.81338">
        <ele>681</ele>
        <time>2024-09-22T05:59:29Z</time>
      </trkpt>
      <trkpt lat="42.44077" lon="2.81343">
        <ele>682</ele>
        <time>2024-09-22T05:59:32Z</time>
      </trkpt>
      <trkpt lat="42.44079" lon="2.81347">
        <ele>682</ele>
        <time>2024-09-22T05:59:36Z</time>
      </trkpt>
      <trkpt lat="42.44082" lon="2.81351">
        <ele>681</ele>
        <time>2024-09-22T05:59:39Z</time>
      </trkpt>
      <trkpt lat="42.44084" lon="2.81355">
        <ele>681</ele>
        <time>2024-09-22T05:59:42Z</time>
      </trkpt>
      <trkpt lat="42.44087" lon="2.81358">
        <ele>681</ele>
        <time>2024-09-22T05:59:44Z</time>
      </trkpt>
      <trkpt lat="42.4409" lon="2.8136">
        <ele>680</ele>
        <time>2024-09-22T05:59:47Z</time>
      </trkpt>
      <trkpt lat="42.44092" lon="2.81364">
        <ele>679</ele>
        <time>2024-09-22T05:59:50Z</time>
      </trkpt>
      <trkpt lat="42.44095" lon="2.81368">
        <ele>680</ele>
        <time>2024-09-22T05:59:53Z</time>
      </trkpt>
      <trkpt lat="42.44097" lon="2.81371">
        <ele>678</ele>
        <time>2024-09-22T05:59:56Z</time>
      </trkpt>
      <trkpt lat="42.44099" lon="2.81375">
        <ele>679</ele>
        <time>2024-09-22T05:59:58Z</time>
      </trkpt>
      <trkpt lat="42.441" lon="2.81379">
        <ele>679</ele>
        <time>2024-09-22T06:00:00Z</time>
      </trkpt>
      <trkpt lat="42.44102" lon="2.81383">
        <ele>678</ele>
        <time>2024-09-22T06:00:03Z</time>
      </trkpt>
      <trkpt lat="42.44103" lon="2.81388">
        <ele>678</ele>
        <time>2024-09-22T06:00:06Z</time>
      </trkpt>
      <trkpt lat="42.44105" lon="2.81392">
        <ele>679</ele>
        <time>2024-09-22T06:00:08Z</time>
      </trkpt>
      <trkpt lat="42.44107" lon="2.81395">
        <ele>678</ele>
        <time>2024-09-22T06:00:10Z</time>
      </trkpt>
      <trkpt lat="42.44109" lon="2.814">
        <ele>679</ele>
        <time>2024-09-22T06:00:13Z</time>
      </trkpt>
      <trkpt lat="42.44111" lon="2.81404">
        <ele>679</ele>
        <time>2024-09-22T06:00:16Z</time>
      </trkpt>
      <trkpt lat="42.44112" lon="2.81407">
        <ele>678</ele>
        <time>2024-09-22T06:00:18Z</time>
      </trkpt>
      <trkpt lat="42.44113" lon="2.81411">
        <ele>679</ele>
        <time>2024-09-22T06:00:21Z</time>
      </trkpt>
      <trkpt lat="42.44114" lon="2.81415">
        <ele>679</ele>
        <time>2024-09-22T06:00:24Z</time>
      </trkpt>
      <trkpt lat="42.44115" lon="2.81419">
        <ele>678</ele>
        <time>2024-09-22T06:00:26Z</time>
      </trkpt>
      <trkpt lat="42.44116" lon="2.81423">
        <ele>679</ele>
        <time>2024-09-22T06:00:28Z</time>
      </trkpt>
      <trkpt lat="42.44118" lon="2.81428">
        <ele>678</ele>
        <time>2024-09-22T06:00:31Z</time>
      </trkpt>
      <trkpt lat="42.4412" lon="2.81432">
        <ele>679</ele>
        <time>2024-09-22T06:00:34Z</time>
      </trkpt>
      <trkpt lat="42.44122" lon="2.81435">
        <ele>680</ele>
        <time>2024-09-22T06:00:36Z</time>
      </trkpt>
      <trkpt lat="42.44125" lon="2.81438">
        <ele>680</ele>
        <time>2024-09-22T06:00:39Z</time>
      </trkpt>
      <trkpt lat="42.44127" lon="2.81441">
        <ele>679</ele>
        <time>2024-09-22T06:00:42Z</time>
      </trkpt>
      <trkpt lat="42.44129" lon="2.81445">
        <ele>679</ele>
        <time>2024-09-22T06:00:45Z</time>
      </trkpt>
      <trkpt lat="42.44132" lon="2.81449">
        <ele>679</ele>
        <time>2024-09-22T06:00:48Z</time>
      </trkpt>
      <trkpt lat="42.44134" lon="2.81452">
        <ele>679</ele>
        <time>2024-09-22T06:00:51Z</time>
      </trkpt>
      <trkpt lat="42.44135" lon="2.81456">
        <ele>679</ele>
        <time>2024-09-22T06:00:53Z</time>
      </trkpt>
      <trkpt lat="42.44137" lon="2.81461">
        <ele>679</ele>
        <time>2024-09-22T06:00:55Z</time>
      </trkpt>
      <trkpt lat="42.44138" lon="2.81465">
        <ele>680</ele>
        <time>2024-09-22T06:00:57Z</time>
      </trkpt>
      <trkpt lat="42.44139" lon="2.81469">
        <ele>678</ele>
        <time>2024-09-22T06:01:00Z</time>
      </trkpt>
      <trkpt lat="42.4414" lon="2.81473">
        <ele>680</ele>
        <time>2024-09-22T06:01:02Z</time>
      </trkpt>
      <trkpt lat="42.44141" lon="2.81477">
        <ele>679</ele>
        <time>2024-09-22T06:01:06Z</time>
      </trkpt>
      <trkpt lat="42.44142" lon="2.81481">
        <ele>679</ele>
        <time>2024-09-22T06:01:08Z</time>
      </trkpt>
      <trkpt lat="42.44142" lon="2.81486">
        <ele>679</ele>
        <time>2024-09-22T06:01:11Z</time>
      </trkpt>
      <trkpt lat="42.44143" lon="2.8149">
        <ele>678</ele>
        <time>2024-09-22T06:01:13Z</time>
      </trkpt>
      <trkpt lat="42.44143" lon="2.81496">
        <ele>678</ele>
        <time>2024-09-22T06:01:16Z</time>
      </trkpt>
      <trkpt lat="42.44143" lon="2.815">
        <ele>677</ele>
        <time>2024-09-22T06:01:20Z</time>
      </trkpt>
      <trkpt lat="42.44143" lon="2.81504">
        <ele>677</ele>
        <time>2024-09-22T06:01:22Z</time>
      </trkpt>
      <trkpt lat="42.44144" lon="2.81508">
        <ele>677</ele>
        <time>2024-09-22T06:01:24Z</time>
      </trkpt>
      <trkpt lat="42.44145" lon="2.81512">
        <ele>677</ele>
        <time>2024-09-22T06:01:26Z</time>
      </trkpt>
      <trkpt lat="42.44144" lon="2.81517">
        <ele>677</ele>
        <time>2024-09-22T06:01:29Z</time>
      </trkpt>
      <trkpt lat="42.44144" lon="2.81521">
        <ele>677</ele>
        <time>2024-09-22T06:01:31Z</time>
      </trkpt>
      <trkpt lat="42.44144" lon="2.81525">
        <ele>677</ele>
        <time>2024-09-22T06:01:33Z</time>
      </trkpt>
      <trkpt lat="42.44144" lon="2.81529">
        <ele>677</ele>
        <time>2024-09-22T06:01:40Z</time>
      </trkpt>
      <trkpt lat="42.44142" lon="2.81533">
        <ele>677</ele>
        <time>2024-09-22T06:01:44Z</time>
      </trkpt>
      <trkpt lat="42.44141" lon="2.81536">
        <ele>677</ele>
        <time>2024-09-22T06:01:47Z</time>
      </trkpt>
      <trkpt lat="42.4414" lon="2.81539">
        <ele>676</ele>
        <time>2024-09-22T06:01:49Z</time>
      </trkpt>
      <trkpt lat="42.44139" lon="2.81543">
        <ele>677</ele>
        <time>2024-09-22T06:01:52Z</time>
      </trkpt>
      <trkpt lat="42.44138" lon="2.81547">
        <ele>676</ele>
        <time>2024-09-22T06:01:53Z</time>
      </trkpt>
      <trkpt lat="42.44136" lon="2.81549">
        <ele>675</ele>
        <time>2024-09-22T06:01:55Z</time>
      </trkpt>
      <trkpt lat="42.44134" lon="2.81554">
        <ele>675</ele>
        <time>2024-09-22T06:01:58Z</time>
      </trkpt>
      <trkpt lat="42.44133" lon="2.81558">
        <ele>675</ele>
        <time>2024-09-22T06:02:00Z</time>
      </trkpt>
      <trkpt lat="42.44131" lon="2.81561">
        <ele>675</ele>
        <time>2024-09-22T06:02:02Z</time>
      </trkpt>
      <trkpt lat="42.4413" lon="2.81565">
        <ele>675</ele>
        <time>2024-09-22T06:02:04Z</time>
      </trkpt>
      <trkpt lat="42.44128" lon="2.81568">
        <ele>675</ele>
        <time>2024-09-22T06:02:06Z</time>
      </trkpt>
      <trkpt lat="42.44126" lon="2.81572">
        <ele>676</ele>
        <time>2024-09-22T06:02:09Z</time>
      </trkpt>
      <trkpt lat="42.44126" lon="2.81576">
        <ele>677</ele>
        <time>2024-09-22T06:02:11Z</time>
      </trkpt>
      <trkpt lat="42.44125" lon="2.81581">
        <ele>677</ele>
        <time>2024-09-22T06:02:15Z</time>
      </trkpt>
      <trkpt lat="42.44125" lon="2.81585">
        <ele>676</ele>
        <time>2024-09-22T06:02:17Z</time>
      </trkpt>
      <trkpt lat="42.44124" lon="2.8159">
        <ele>675</ele>
        <time>2024-09-22T06:02:19Z</time>
      </trkpt>
      <trkpt lat="42.44123" lon="2.81594">
        <ele>676</ele>
        <time>2024-09-22T06:02:21Z</time>
      </trkpt>
      <trkpt lat="42.44123" lon="2.81598">
        <ele>676</ele>
        <time>2024-09-22T06:02:24Z</time>
      </trkpt>
      <trkpt lat="42.44123" lon="2.81602">
        <ele>676</ele>
        <time>2024-09-22T06:02:26Z</time>
      </trkpt>
      <trkpt lat="42.44123" lon="2.81607">
        <ele>676</ele>
        <time>2024-09-22T06:02:29Z</time>
      </trkpt>
      <trkpt lat="42.44123" lon="2.81612">
        <ele>677</ele>
        <time>2024-09-22T06:02:32Z</time>
      </trkpt>
      <trkpt lat="42.44123" lon="2.81616">
        <ele>677</ele>
        <time>2024-09-22T06:02:34Z</time>
      </trkpt>
      <trkpt lat="42.44123" lon="2.81622">
        <ele>677</ele>
        <time>2024-09-22T06:02:37Z</time>
      </trkpt>
      <trkpt lat="42.44123" lon="2.81626">
        <ele>676</ele>
        <time>2024-09-22T06:02:40Z</time>
      </trkpt>
      <trkpt lat="42.44122" lon="2.81631">
        <ele>677</ele>
        <time>2024-09-22T06:02:43Z</time>
      </trkpt>
      <trkpt lat="42.44122" lon="2.81635">
        <ele>676</ele>
        <time>2024-09-22T06:02:46Z</time>
      </trkpt>
      <trkpt lat="42.44123" lon="2.8164">
        <ele>675</ele>
        <time>2024-09-22T06:02:49Z</time>
      </trkpt>
      <trkpt lat="42.44124" lon="2.81644">
        <ele>676</ele>
        <time>2024-09-22T06:02:51Z</time>
      </trkpt>
      <trkpt lat="42.44125" lon="2.81649">
        <ele>675</ele>
        <time>2024-09-22T06:02:54Z</time>
      </trkpt>
      <trkpt lat="42.44126" lon="2.81653">
        <ele>676</ele>
        <time>2024-09-22T06:02:56Z</time>
      </trkpt>
      <trkpt lat="42.44128" lon="2.81658">
        <ele>676</ele>
        <time>2024-09-22T06:02:58Z</time>
      </trkpt>
      <trkpt lat="42.44129" lon="2.81662">
        <ele>676</ele>
        <time>2024-09-22T06:03:00Z</time>
      </trkpt>
      <trkpt lat="42.44131" lon="2.81666">
        <ele>677</ele>
        <time>2024-09-22T06:03:03Z</time>
      </trkpt>
      <trkpt lat="42.44132" lon="2.81671">
        <ele>676</ele>
        <time>2024-09-22T06:03:06Z</time>
      </trkpt>
      <trkpt lat="42.44134" lon="2.81675">
        <ele>676</ele>
        <time>2024-09-22T06:03:09Z</time>
      </trkpt>
      <trkpt lat="42.44135" lon="2.81679">
        <ele>677</ele>
        <time>2024-09-22T06:03:11Z</time>
      </trkpt>
      <trkpt lat="42.44137" lon="2.81683">
        <ele>677</ele>
        <time>2024-09-22T06:03:14Z</time>
      </trkpt>
      <trkpt lat="42.44139" lon="2.81686">
        <ele>677</ele>
        <time>2024-09-22T06:03:16Z</time>
      </trkpt>
      <trkpt lat="42.4414" lon="2.8169">
        <ele>677</ele>
        <time>2024-09-22T06:03:20Z</time>
      </trkpt>
      <trkpt lat="42.44142" lon="2.81694">
        <ele>677</ele>
        <time>2024-09-22T06:03:24Z</time>
      </trkpt>
      <trkpt lat="42.44145" lon="2.81696">
        <ele>678</ele>
        <time>2024-09-22T06:03:26Z</time>
      </trkpt>
      <trkpt lat="42.44148" lon="2.81698">
        <ele>679</ele>
        <time>2024-09-22T06:03:29Z</time>
      </trkpt>
      <trkpt lat="42.4415" lon="2.81701">
        <ele>680</ele>
        <time>2024-09-22T06:03:32Z</time>
      </trkpt>
      <trkpt lat="42.44153" lon="2.81702">
        <ele>681</ele>
        <time>2024-09-22T06:03:34Z</time>
      </trkpt>
      <trkpt lat="42.44156" lon="2.81703">
        <ele>681</ele>
        <time>2024-09-22T06:03:35Z</time>
      </trkpt>
      <trkpt lat="42.44159" lon="2.81704">
        <ele>680</ele>
        <time>2024-09-22T06:03:39Z</time>
      </trkpt>
      <trkpt lat="42.44162" lon="2.81705">
        <ele>681</ele>
        <time>2024-09-22T06:03:41Z</time>
      </trkpt>
      <trkpt lat="42.44165" lon="2.81707">
        <ele>680</ele>
        <time>2024-09-22T06:03:45Z</time>
      </trkpt>
      <trkpt lat="42.44168" lon="2.81709">
        <ele>680</ele>
        <time>2024-09-22T06:03:49Z</time>
      </trkpt>
      <trkpt lat="42.44171" lon="2.8171">
        <ele>681</ele>
        <time>2024-09-22T06:03:52Z</time>
      </trkpt>
      <trkpt lat="42.44175" lon="2.81712">
        <ele>681</ele>
        <time>2024-09-22T06:03:55Z</time>
      </trkpt>
      <trkpt lat="42.44177" lon="2.81714">
        <ele>681</ele>
        <time>2024-09-22T06:03:58Z</time>
      </trkpt>
      <trkpt lat="42.4418" lon="2.81716">
        <ele>681</ele>
        <time>2024-09-22T06:04:00Z</time>
      </trkpt>
      <trkpt lat="42.44183" lon="2.81718">
        <ele>680</ele>
        <time>2024-09-22T06:04:03Z</time>
      </trkpt>
      <trkpt lat="42.44186" lon="2.81721">
        <ele>681</ele>
        <time>2024-09-22T06:04:06Z</time>
      </trkpt>
      <trkpt lat="42.44188" lon="2.81724">
        <ele>681</ele>
        <time>2024-09-22T06:04:09Z</time>
      </trkpt>
      <trkpt lat="42.44191" lon="2.81727">
        <ele>681</ele>
        <time>2024-09-22T06:04:12Z</time>
      </trkpt>
      <trkpt lat="42.44192" lon="2.81731">
        <ele>682</ele>
        <time>2024-09-22T06:04:38Z</time>
      </trkpt>
      <trkpt lat="42.44192" lon="2.81735">
        <ele>682</ele>
        <time>2024-09-22T06:04:57Z</time>
      </trkpt>
      <trkpt lat="42.44191" lon="2.8174">
        <ele>681</ele>
        <time>2024-09-22T06:05:00Z</time>
      </trkpt>
      <trkpt lat="42.44189" lon="2.81745">
        <ele>682</ele>
        <time>2024-09-22T06:05:04Z</time>
      </trkpt>
      <trkpt lat="42.44188" lon="2.8175">
        <ele>683</ele>
        <time>2024-09-22T06:05:06Z</time>
      </trkpt>
      <trkpt lat="42.44187" lon="2.81754">
        <ele>683</ele>
        <time>2024-09-22T06:05:09Z</time>
      </trkpt>
      <trkpt lat="42.44186" lon="2.81758">
        <ele>684</ele>
        <time>2024-09-22T06:05:11Z</time>
      </trkpt>
      <trkpt lat="42.44185" lon="2.81762">
        <ele>684</ele>
        <time>2024-09-22T06:05:13Z</time>
      </trkpt>
      <trkpt lat="42.44184" lon="2.81767">
        <ele>685</ele>
        <time>2024-09-22T06:05:16Z</time>
      </trkpt>
      <trkpt lat="42.44183" lon="2.81771">
        <ele>684</ele>
        <time>2024-09-22T06:05:19Z</time>
      </trkpt>
      <trkpt lat="42.44181" lon="2.81775">
        <ele>685</ele>
        <time>2024-09-22T06:05:23Z</time>
      </trkpt>
      <trkpt lat="42.4418" lon="2.8178">
        <ele>685</ele>
        <time>2024-09-22T06:05:26Z</time>
      </trkpt>
      <trkpt lat="42.44178" lon="2.81784">
        <ele>686</ele>
        <time>2024-09-22T06:05:29Z</time>
      </trkpt>
      <trkpt lat="42.44177" lon="2.81789">
        <ele>685</ele>
        <time>2024-09-22T06:05:33Z</time>
      </trkpt>
      <trkpt lat="42.44176" lon="2.81793">
        <ele>686</ele>
        <time>2024-09-22T06:05:36Z</time>
      </trkpt>
      <trkpt lat="42.44174" lon="2.81798">
        <ele>686</ele>
        <time>2024-09-22T06:05:39Z</time>
      </trkpt>
      <trkpt lat="42.44172" lon="2.81801">
        <ele>687</ele>
        <time>2024-09-22T06:05:43Z</time>
      </trkpt>
      <trkpt lat="42.44172" lon="2.81805">
        <ele>687</ele>
        <time>2024-09-22T06:05:45Z</time>
      </trkpt>
      <trkpt lat="42.4417" lon="2.81809">
        <ele>688</ele>
        <time>2024-09-22T06:05:48Z</time>
      </trkpt>
      <trkpt lat="42.44169" lon="2.81813">
        <ele>688</ele>
        <time>2024-09-22T06:05:51Z</time>
      </trkpt>
      <trkpt lat="42.44168" lon="2.81816">
        <ele>688</ele>
        <time>2024-09-22T06:05:54Z</time>
      </trkpt>
      <trkpt lat="42.44167" lon="2.8182">
        <ele>688</ele>
        <time>2024-09-22T06:05:57Z</time>
      </trkpt>
      <trkpt lat="42.44167" lon="2.81824">
        <ele>689</ele>
        <time>2024-09-22T06:06:00Z</time>
      </trkpt>
      <trkpt lat="42.44166" lon="2.81828">
        <ele>689</ele>
        <time>2024-09-22T06:06:03Z</time>
      </trkpt>
      <trkpt lat="42.44164" lon="2.81831">
        <ele>687</ele>
        <time>2024-09-22T06:06:07Z</time>
      </trkpt>
      <trkpt lat="42.44163" lon="2.81835">
        <ele>689</ele>
        <time>2024-09-22T06:06:11Z</time>
      </trkpt>
      <trkpt lat="42.4416" lon="2.81839">
        <ele>689</ele>
        <time>2024-09-22T06:06:14Z</time>
      </trkpt>
      <trkpt lat="42.44158" lon="2.81842">
        <ele>689</ele>
        <time>2024-09-22T06:06:17Z</time>
      </trkpt>
      <trkpt lat="42.44156" lon="2.81845">
        <ele>689</ele>
        <time>2024-09-22T06:06:21Z</time>
      </trkpt>
      <trkpt lat="42.44153" lon="2.81848">
        <ele>690</ele>
        <time>2024-09-22T06:06:24Z</time>
      </trkpt>
      <trkpt lat="42.44151" lon="2.81851">
        <ele>690</ele>
        <time>2024-09-22T06:06:28Z</time>
      </trkpt>
      <trkpt lat="42.44148" lon="2.81855">
        <ele>691</ele>
        <time>2024-09-22T06:06:31Z</time>
      </trkpt>
      <trkpt lat="42.44145" lon="2.81859">
        <ele>690</ele>
        <time>2024-09-22T06:06:35Z</time>
      </trkpt>
      <trkpt lat="42.44143" lon="2.81862">
        <ele>692</ele>
        <time>2024-09-22T06:06:39Z</time>
      </trkpt>
      <trkpt lat="42.4414" lon="2.81866">
        <ele>691</ele>
        <time>2024-09-22T06:06:42Z</time>
      </trkpt>
      <trkpt lat="42.44138" lon="2.81869">
        <ele>692</ele>
        <time>2024-09-22T06:06:45Z</time>
      </trkpt>
      <trkpt lat="42.44136" lon="2.81874">
        <ele>692</ele>
        <time>2024-09-22T06:06:48Z</time>
      </trkpt>
      <trkpt lat="42.44135" lon="2.81878">
        <ele>692</ele>
        <time>2024-09-22T06:06:52Z</time>
      </trkpt>
      <trkpt lat="42.44133" lon="2.81882">
        <ele>693</ele>
        <time>2024-09-22T06:06:56Z</time>
      </trkpt>
      <trkpt lat="42.44131" lon="2.81888">
        <ele>693</ele>
        <time>2024-09-22T06:06:59Z</time>
      </trkpt>
      <trkpt lat="42.4413" lon="2.81892">
        <ele>694</ele>
        <time>2024-09-22T06:07:03Z</time>
      </trkpt>
      <trkpt lat="42.44128" lon="2.81896">
        <ele>695</ele>
        <time>2024-09-22T06:07:07Z</time>
      </trkpt>
      <trkpt lat="42.44127" lon="2.81899">
        <ele>694</ele>
        <time>2024-09-22T06:07:11Z</time>
      </trkpt>
      <trkpt lat="42.44125" lon="2.81903">
        <ele>694</ele>
        <time>2024-09-22T06:07:13Z</time>
      </trkpt>
      <trkpt lat="42.44122" lon="2.81907">
        <ele>694</ele>
        <time>2024-09-22T06:07:16Z</time>
      </trkpt>
      <trkpt lat="42.44121" lon="2.81911">
        <ele>695</ele>
        <time>2024-09-22T06:07:19Z</time>
      </trkpt>
      <trkpt lat="42.44119" lon="2.81914">
        <ele>695</ele>
        <time>2024-09-22T06:07:21Z</time>
      </trkpt>
      <trkpt lat="42.44117" lon="2.81917">
        <ele>696</ele>
        <time>2024-09-22T06:07:24Z</time>
      </trkpt>
      <trkpt lat="42.44114" lon="2.8192">
        <ele>696</ele>
        <time>2024-09-22T06:07:28Z</time>
      </trkpt>
      <trkpt lat="42.44111" lon="2.81924">
        <ele>695</ele>
        <time>2024-09-22T06:07:32Z</time>
      </trkpt>
      <trkpt lat="42.44109" lon="2.81927">
        <ele>696</ele>
        <time>2024-09-22T06:07:35Z</time>
      </trkpt>
      <trkpt lat="42.44106" lon="2.81929">
        <ele>696</ele>
        <time>2024-09-22T06:07:38Z</time>
      </trkpt>
      <trkpt lat="42.44104" lon="2.81931">
        <ele>698</ele>
        <time>2024-09-22T06:07:40Z</time>
      </trkpt>
      <trkpt lat="42.44101" lon="2.81933">
        <ele>698</ele>
        <time>2024-09-22T06:07:43Z</time>
      </trkpt>
      <trkpt lat="42.44098" lon="2.81935">
        <ele>697</ele>
        <time>2024-09-22T06:07:45Z</time>
      </trkpt>
      <trkpt lat="42.44095" lon="2.81938">
        <ele>698</ele>
        <time>2024-09-22T06:07:48Z</time>
      </trkpt>
      <trkpt lat="42.44092" lon="2.81939">
        <ele>698</ele>
        <time>2024-09-22T06:07:51Z</time>
      </trkpt>
      <trkpt lat="42.44089" lon="2.81941">
        <ele>698</ele>
        <time>2024-09-22T06:07:53Z</time>
      </trkpt>
      <trkpt lat="42.44086" lon="2.81944">
        <ele>698</ele>
        <time>2024-09-22T06:07:56Z</time>
      </trkpt>
      <trkpt lat="42.44084" lon="2.81946">
        <ele>698</ele>
        <time>2024-09-22T06:07:58Z</time>
      </trkpt>
      <trkpt lat="42.44081" lon="2.81948">
        <ele>699</ele>
        <time>2024-09-22T06:08:01Z</time>
      </trkpt>
      <trkpt lat="42.44078" lon="2.81952">
        <ele>699</ele>
        <time>2024-09-22T06:08:04Z</time>
      </trkpt>
      <trkpt lat="42.44074" lon="2.81954">
        <ele>700</ele>
        <time>2024-09-22T06:08:07Z</time>
      </trkpt>
      <trkpt lat="42.44071" lon="2.81956">
        <ele>699</ele>
        <time>2024-09-22T06:08:10Z</time>
      </trkpt>
      <trkpt lat="42.44068" lon="2.81958">
        <ele>699</ele>
        <time>2024-09-22T06:08:13Z</time>
      </trkpt>
      <trkpt lat="42.44065" lon="2.8196">
        <ele>699</ele>
        <time>2024-09-22T06:08:16Z</time>
      </trkpt>
      <trkpt lat="42.44063" lon="2.81964">
        <ele>700</ele>
        <time>2024-09-22T06:08:19Z</time>
      </trkpt>
      <trkpt lat="42.4406" lon="2.81968">
        <ele>700</ele>
        <time>2024-09-22T06:08:22Z</time>
      </trkpt>
      <trkpt lat="42.44058" lon="2.81972">
        <ele>701</ele>
        <time>2024-09-22T06:08:26Z</time>
      </trkpt>
      <trkpt lat="42.44056" lon="2.81977">
        <ele>700</ele>
        <time>2024-09-22T06:08:29Z</time>
      </trkpt>
      <trkpt lat="42.44056" lon="2.81983">
        <ele>702</ele>
        <time>2024-09-22T06:08:32Z</time>
      </trkpt>
      <trkpt lat="42.44055" lon="2.81987">
        <ele>701</ele>
        <time>2024-09-22T06:08:35Z</time>
      </trkpt>
      <trkpt lat="42.44055" lon="2.81993">
        <ele>701</ele>
        <time>2024-09-22T06:08:38Z</time>
      </trkpt>
      <trkpt lat="42.44055" lon="2.81998">
        <ele>702</ele>
        <time>2024-09-22T06:08:41Z</time>
      </trkpt>
      <trkpt lat="42.44055" lon="2.82002">
        <ele>701</ele>
        <time>2024-09-22T06:08:45Z</time>
      </trkpt>
      <trkpt lat="42.44056" lon="2.82006">
        <ele>702</ele>
        <time>2024-09-22T06:08:47Z</time>
      </trkpt>
      <trkpt lat="42.44057" lon="2.82011">
        <ele>702</ele>
        <time>2024-09-22T06:08:50Z</time>
      </trkpt>
      <trkpt lat="42.44058" lon="2.82015">
        <ele>702</ele>
        <time>2024-09-22T06:08:53Z</time>
      </trkpt>
      <trkpt lat="42.44059" lon="2.82019">
        <ele>702</ele>
        <time>2024-09-22T06:08:56Z</time>
      </trkpt>
      <trkpt lat="42.4406" lon="2.82023">
        <ele>703</ele>
        <time>2024-09-22T06:08:59Z</time>
      </trkpt>
      <trkpt lat="42.4406" lon="2.82027">
        <ele>703</ele>
        <time>2024-09-22T06:09:01Z</time>
      </trkpt>
      <trkpt lat="42.44061" lon="2.82032">
        <ele>703</ele>
        <time>2024-09-22T06:09:04Z</time>
      </trkpt>
      <trkpt lat="42.4406" lon="2.82036">
        <ele>703</ele>
        <time>2024-09-22T06:09:06Z</time>
      </trkpt>
      <trkpt lat="42.4406" lon="2.8204">
        <ele>703</ele>
        <time>2024-09-22T06:09:09Z</time>
      </trkpt>
      <trkpt lat="42.4406" lon="2.82044">
        <ele>703</ele>
        <time>2024-09-22T06:09:11Z</time>
      </trkpt>
      <trkpt lat="42.44059" lon="2.82048">
        <ele>703</ele>
        <time>2024-09-22T06:09:13Z</time>
      </trkpt>
      <trkpt lat="42.44058" lon="2.82053">
        <ele>703</ele>
        <time>2024-09-22T06:09:16Z</time>
      </trkpt>
      <trkpt lat="42.44058" lon="2.82057">
        <ele>703</ele>
        <time>2024-09-22T06:09:19Z</time>
      </trkpt>
      <trkpt lat="42.44057" lon="2.82061">
        <ele>703</ele>
        <time>2024-09-22T06:09:20Z</time>
      </trkpt>
      <trkpt lat="42.44056" lon="2.82065">
        <ele>704</ele>
        <time>2024-09-22T06:09:23Z</time>
      </trkpt>
      <trkpt lat="42.44055" lon="2.8207">
        <ele>705</ele>
        <time>2024-09-22T06:09:26Z</time>
      </trkpt>
      <trkpt lat="42.44054" lon="2.82075">
        <ele>705</ele>
        <time>2024-09-22T06:09:29Z</time>
      </trkpt>
      <trkpt lat="42.44053" lon="2.82079">
        <ele>706</ele>
        <time>2024-09-22T06:09:33Z</time>
      </trkpt>
      <trkpt lat="42.44051" lon="2.82083">
        <ele>706</ele>
        <time>2024-09-22T06:09:36Z</time>
      </trkpt>
      <trkpt lat="42.44051" lon="2.82088">
        <ele>706</ele>
        <time>2024-09-22T06:09:39Z</time>
      </trkpt>
      <trkpt lat="42.44049" lon="2.82092">
        <ele>706</ele>
        <time>2024-09-22T06:09:42Z</time>
      </trkpt>
      <trkpt lat="42.44048" lon="2.82096">
        <ele>707</ele>
        <time>2024-09-22T06:09:45Z</time>
      </trkpt>
      <trkpt lat="42.44047" lon="2.82101">
        <ele>708</ele>
        <time>2024-09-22T06:09:48Z</time>
      </trkpt>
      <trkpt lat="42.44046" lon="2.82105">
        <ele>707</ele>
        <time>2024-09-22T06:09:52Z</time>
      </trkpt>
      <trkpt lat="42.44044" lon="2.82108">
        <ele>707</ele>
        <time>2024-09-22T06:09:55Z</time>
      </trkpt>
      <trkpt lat="42.44042" lon="2.82113">
        <ele>707</ele>
        <time>2024-09-22T06:09:58Z</time>
      </trkpt>
      <trkpt lat="42.44042" lon="2.82118">
        <ele>708</ele>
        <time>2024-09-22T06:10:02Z</time>
      </trkpt>
      <trkpt lat="42.44041" lon="2.82122">
        <ele>708</ele>
        <time>2024-09-22T06:10:04Z</time>
      </trkpt>
      <trkpt lat="42.4404" lon="2.82128">
        <ele>709</ele>
        <time>2024-09-22T06:10:08Z</time>
      </trkpt>
      <trkpt lat="42.44038" lon="2.82132">
        <ele>709</ele>
        <time>2024-09-22T06:10:12Z</time>
      </trkpt>
      <trkpt lat="42.44037" lon="2.82137">
        <ele>709</ele>
        <time>2024-09-22T06:10:15Z</time>
      </trkpt>
      <trkpt lat="42.44036" lon="2.82141">
        <ele>710</ele>
        <time>2024-09-22T06:10:18Z</time>
      </trkpt>
      <trkpt lat="42.44035" lon="2.82145">
        <ele>709</ele>
        <time>2024-09-22T06:10:21Z</time>
      </trkpt>
      <trkpt lat="42.44034" lon="2.8215">
        <ele>710</ele>
        <time>2024-09-22T06:10:25Z</time>
      </trkpt>
      <trkpt lat="42.44033" lon="2.82154">
        <ele>709</ele>
        <time>2024-09-22T06:10:28Z</time>
      </trkpt>
      <trkpt lat="42.44032" lon="2.82158">
        <ele>710</ele>
        <time>2024-09-22T06:10:31Z</time>
      </trkpt>
      <trkpt lat="42.4403" lon="2.82161">
        <ele>712</ele>
        <time>2024-09-22T06:10:35Z</time>
      </trkpt>
      <trkpt lat="42.44029" lon="2.82166">
        <ele>711</ele>
        <time>2024-09-22T06:10:38Z</time>
      </trkpt>
      <trkpt lat="42.44029" lon="2.8217">
        <ele>713</ele>
        <time>2024-09-22T06:10:41Z</time>
      </trkpt>
      <trkpt lat="42.44028" lon="2.82175">
        <ele>713</ele>
        <time>2024-09-22T06:10:44Z</time>
      </trkpt>
      <trkpt lat="42.44027" lon="2.8218">
        <ele>714</ele>
        <time>2024-09-22T06:10:49Z</time>
      </trkpt>
      <trkpt lat="42.44026" lon="2.82185">
        <ele>714</ele>
        <time>2024-09-22T06:10:53Z</time>
      </trkpt>
      <trkpt lat="42.44025" lon="2.82189">
        <ele>715</ele>
        <time>2024-09-22T06:10:56Z</time>
      </trkpt>
      <trkpt lat="42.44025" lon="2.82193">
        <ele>715</ele>
        <time>2024-09-22T06:10:59Z</time>
      </trkpt>
      <trkpt lat="42.44024" lon="2.82197">
        <ele>715</ele>
        <time>2024-09-22T06:11:02Z</time>
      </trkpt>
      <trkpt lat="42.44023" lon="2.82203">
        <ele>715</ele>
        <time>2024-09-22T06:11:06Z</time>
      </trkpt>
      <trkpt lat="42.44022" lon="2.82207">
        <ele>716</ele>
        <time>2024-09-22T06:11:10Z</time>
      </trkpt>
      <trkpt lat="42.4402" lon="2.82212">
        <ele>717</ele>
        <time>2024-09-22T06:11:13Z</time>
      </trkpt>
      <trkpt lat="42.44019" lon="2.82216">
        <ele>717</ele>
        <time>2024-09-22T06:11:16Z</time>
      </trkpt>
      <trkpt lat="42.44017" lon="2.8222">
        <ele>717</ele>
        <time>2024-09-22T06:11:19Z</time>
      </trkpt>
      <trkpt lat="42.44014" lon="2.82223">
        <ele>717</ele>
        <time>2024-09-22T06:11:23Z</time>
      </trkpt>
      <trkpt lat="42.44012" lon="2.82226">
        <ele>718</ele>
        <time>2024-09-22T06:11:26Z</time>
      </trkpt>
      <trkpt lat="42.44009" lon="2.82229">
        <ele>717</ele>
        <time>2024-09-22T06:11:29Z</time>
      </trkpt>
      <trkpt lat="42.44007" lon="2.82232">
        <ele>718</ele>
        <time>2024-09-22T06:11:32Z</time>
      </trkpt>
      <trkpt lat="42.44005" lon="2.82235">
        <ele>718</ele>
        <time>2024-09-22T06:11:35Z</time>
      </trkpt>
      <trkpt lat="42.44003" lon="2.82238">
        <ele>718</ele>
        <time>2024-09-22T06:11:38Z</time>
      </trkpt>
      <trkpt lat="42.44" lon="2.82242">
        <ele>719</ele>
        <time>2024-09-22T06:11:41Z</time>
      </trkpt>
      <trkpt lat="42.43998" lon="2.82245">
        <ele>718</ele>
        <time>2024-09-22T06:11:44Z</time>
      </trkpt>
      <trkpt lat="42.43996" lon="2.82249">
        <ele>719</ele>
        <time>2024-09-22T06:11:47Z</time>
      </trkpt>
      <trkpt lat="42.43994" lon="2.82252">
        <ele>719</ele>
        <time>2024-09-22T06:11:50Z</time>
      </trkpt>
      <trkpt lat="42.43993" lon="2.82255">
        <ele>720</ele>
        <time>2024-09-22T06:11:52Z</time>
      </trkpt>
      <trkpt lat="42.43991" lon="2.82259">
        <ele>720</ele>
        <time>2024-09-22T06:11:55Z</time>
      </trkpt>
      <trkpt lat="42.4399" lon="2.82262">
        <ele>721</ele>
        <time>2024-09-22T06:11:58Z</time>
      </trkpt>
      <trkpt lat="42.43988" lon="2.82266">
        <ele>721</ele>
        <time>2024-09-22T06:12:00Z</time>
      </trkpt>
      <trkpt lat="42.43987" lon="2.8227">
        <ele>721</ele>
        <time>2024-09-22T06:12:03Z</time>
      </trkpt>
      <trkpt lat="42.43985" lon="2.82275">
        <ele>721</ele>
        <time>2024-09-22T06:12:07Z</time>
      </trkpt>
      <trkpt lat="42.43984" lon="2.8228">
        <ele>721</ele>
        <time>2024-09-22T06:12:10Z</time>
      </trkpt>
      <trkpt lat="42.43982" lon="2.82284">
        <ele>721</ele>
        <time>2024-09-22T06:12:12Z</time>
      </trkpt>
      <trkpt lat="42.43981" lon="2.82288">
        <ele>720</ele>
        <time>2024-09-22T06:12:16Z</time>
      </trkpt>
      <trkpt lat="42.4398" lon="2.82292">
        <ele>721</ele>
        <time>2024-09-22T06:12:18Z</time>
      </trkpt>
      <trkpt lat="42.43978" lon="2.82296">
        <ele>722</ele>
        <time>2024-09-22T06:12:22Z</time>
      </trkpt>
      <trkpt lat="42.43976" lon="2.82298">
        <ele>722</ele>
        <time>2024-09-22T06:12:23Z</time>
      </trkpt>
      <trkpt lat="42.43975" lon="2.82302">
        <ele>723</ele>
        <time>2024-09-22T06:12:26Z</time>
      </trkpt>
      <trkpt lat="42.43974" lon="2.82307">
        <ele>723</ele>
        <time>2024-09-22T06:12:29Z</time>
      </trkpt>
      <trkpt lat="42.43972" lon="2.82311">
        <ele>723</ele>
        <time>2024-09-22T06:12:33Z</time>
      </trkpt>
      <trkpt lat="42.4397" lon="2.82316">
        <ele>723</ele>
        <time>2024-09-22T06:12:37Z</time>
      </trkpt>
      <trkpt lat="42.43969" lon="2.8232">
        <ele>723</ele>
        <time>2024-09-22T06:12:40Z</time>
      </trkpt>
      <trkpt lat="42.43968" lon="2.82324">
        <ele>723</ele>
        <time>2024-09-22T06:12:42Z</time>
      </trkpt>
      <trkpt lat="42.43966" lon="2.82328">
        <ele>723</ele>
        <time>2024-09-22T06:12:45Z</time>
      </trkpt>
      <trkpt lat="42.43965" lon="2.82333">
        <ele>723</ele>
        <time>2024-09-22T06:12:48Z</time>
      </trkpt>
      <trkpt lat="42.43963" lon="2.82336">
        <ele>722</ele>
        <time>2024-09-22T06:12:52Z</time>
      </trkpt>
      <trkpt lat="42.43961" lon="2.82339">
        <ele>723</ele>
        <time>2024-09-22T06:12:55Z</time>
      </trkpt>
      <trkpt lat="42.43959" lon="2.82343">
        <ele>723</ele>
        <time>2024-09-22T06:12:58Z</time>
      </trkpt>
      <trkpt lat="42.43957" lon="2.82347">
        <ele>723</ele>
        <time>2024-09-22T06:13:01Z</time>
      </trkpt>
      <trkpt lat="42.43955" lon="2.82351">
        <ele>723</ele>
        <time>2024-09-22T06:13:04Z</time>
      </trkpt>
      <trkpt lat="42.43953" lon="2.82354">
        <ele>724</ele>
        <time>2024-09-22T06:13:06Z</time>
      </trkpt>
      <trkpt lat="42.43951" lon="2.82358">
        <ele>724</ele>
        <time>2024-09-22T06:13:09Z</time>
      </trkpt>
      <trkpt lat="42.43948" lon="2.82362">
        <ele>724</ele>
        <time>2024-09-22T06:13:12Z</time>
      </trkpt>
      <trkpt lat="42.43946" lon="2.82366">
        <ele>724</ele>
        <time>2024-09-22T06:13:15Z</time>
      </trkpt>
      <trkpt lat="42.43945" lon="2.8237">
        <ele>725</ele>
        <time>2024-09-22T06:13:18Z</time>
      </trkpt>
      <trkpt lat="42.43943" lon="2.82374">
        <ele>725</ele>
        <time>2024-09-22T06:13:20Z</time>
      </trkpt>
      <trkpt lat="42.43942" lon="2.82379">
        <ele>724</ele>
        <time>2024-09-22T06:13:23Z</time>
      </trkpt>
      <trkpt lat="42.43941" lon="2.82384">
        <ele>726</ele>
        <time>2024-09-22T06:13:26Z</time>
      </trkpt>
      <trkpt lat="42.4394" lon="2.82389">
        <ele>724</ele>
        <time>2024-09-22T06:13:29Z</time>
      </trkpt>
      <trkpt lat="42.43939" lon="2.82393">
        <ele>723</ele>
        <time>2024-09-22T06:13:31Z</time>
      </trkpt>
      <trkpt lat="42.43938" lon="2.82398">
        <ele>723</ele>
        <time>2024-09-22T06:13:34Z</time>
      </trkpt>
      <trkpt lat="42.43937" lon="2.82402">
        <ele>724</ele>
        <time>2024-09-22T06:13:37Z</time>
      </trkpt>
      <trkpt lat="42.43936" lon="2.82408">
        <ele>723</ele>
        <time>2024-09-22T06:13:40Z</time>
      </trkpt>
      <trkpt lat="42.43935" lon="2.82412">
        <ele>724</ele>
        <time>2024-09-22T06:13:43Z</time>
      </trkpt>
      <trkpt lat="42.43934" lon="2.82416">
        <ele>724</ele>
        <time>2024-09-22T06:13:45Z</time>
      </trkpt>
      <trkpt lat="42.43933" lon="2.82421">
        <ele>723</ele>
        <time>2024-09-22T06:13:48Z</time>
      </trkpt>
      <trkpt lat="42.43933" lon="2.82425">
        <ele>724</ele>
        <time>2024-09-22T06:13:50Z</time>
      </trkpt>
      <trkpt lat="42.43932" lon="2.82428">
        <ele>725</ele>
        <time>2024-09-22T06:13:52Z</time>
      </trkpt>
      <trkpt lat="42.43931" lon="2.82434">
        <ele>726</ele>
        <time>2024-09-22T06:13:55Z</time>
      </trkpt>
      <trkpt lat="42.43931" lon="2.82439">
        <ele>725</ele>
        <time>2024-09-22T06:13:58Z</time>
      </trkpt>
      <trkpt lat="42.43931" lon="2.82443">
        <ele>724</ele>
        <time>2024-09-22T06:14:01Z</time>
      </trkpt>
      <trkpt lat="42.4393" lon="2.82447">
        <ele>725</ele>
        <time>2024-09-22T06:14:03Z</time>
      </trkpt>
      <trkpt lat="42.4393" lon="2.82451">
        <ele>724</ele>
        <time>2024-09-22T06:14:05Z</time>
      </trkpt>
      <trkpt lat="42.43929" lon="2.82455">
        <ele>723</ele>
        <time>2024-09-22T06:14:07Z</time>
      </trkpt>
      <trkpt lat="42.43928" lon="2.82459">
        <ele>723</ele>
        <time>2024-09-22T06:14:10Z</time>
      </trkpt>
      <trkpt lat="42.43927" lon="2.82463">
        <ele>724</ele>
        <time>2024-09-22T06:14:12Z</time>
      </trkpt>
      <trkpt lat="42.43927" lon="2.82467">
        <ele>724</ele>
        <time>2024-09-22T06:14:15Z</time>
      </trkpt>
      <trkpt lat="42.43926" lon="2.82472">
        <ele>725</ele>
        <time>2024-09-22T06:14:17Z</time>
      </trkpt>
      <trkpt lat="42.43926" lon="2.82476">
        <ele>723</ele>
        <time>2024-09-22T06:14:20Z</time>
      </trkpt>
      <trkpt lat="42.43925" lon="2.82481">
        <ele>725</ele>
        <time>2024-09-22T06:14:23Z</time>
      </trkpt>
      <trkpt lat="42.43925" lon="2.82486">
        <ele>725</ele>
        <time>2024-09-22T06:14:26Z</time>
      </trkpt>
      <trkpt lat="42.43924" lon="2.8249">
        <ele>725</ele>
        <time>2024-09-22T06:14:28Z</time>
      </trkpt>
      <trkpt lat="42.43923" lon="2.82495">
        <ele>725</ele>
        <time>2024-09-22T06:14:31Z</time>
      </trkpt>
      <trkpt lat="42.43923" lon="2.82499">
        <ele>725</ele>
        <time>2024-09-22T06:14:33Z</time>
      </trkpt>
      <trkpt lat="42.43922" lon="2.82503">
        <ele>724</ele>
        <time>2024-09-22T06:14:36Z</time>
      </trkpt>
      <trkpt lat="42.43921" lon="2.82507">
        <ele>724</ele>
        <time>2024-09-22T06:14:40Z</time>
      </trkpt>
      <trkpt lat="42.4392" lon="2.82511">
        <ele>724</ele>
        <time>2024-09-22T06:14:42Z</time>
      </trkpt>
      <trkpt lat="42.4392" lon="2.82515">
        <ele>724</ele>
        <time>2024-09-22T06:14:44Z</time>
      </trkpt>
      <trkpt lat="42.43919" lon="2.8252">
        <ele>724</ele>
        <time>2024-09-22T06:14:47Z</time>
      </trkpt>
      <trkpt lat="42.43918" lon="2.82525">
        <ele>724</ele>
        <time>2024-09-22T06:14:50Z</time>
      </trkpt>
      <trkpt lat="42.43917" lon="2.8253">
        <ele>724</ele>
        <time>2024-09-22T06:14:53Z</time>
      </trkpt>
      <trkpt lat="42.43916" lon="2.82535">
        <ele>723</ele>
        <time>2024-09-22T06:14:57Z</time>
      </trkpt>
      <trkpt lat="42.43914" lon="2.82537">
        <ele>724</ele>
        <time>2024-09-22T06:16:14Z</time>
      </trkpt>
      <trkpt lat="42.43914" lon="2.82539">
        <ele>723</ele>
        <time>2024-09-22T06:16:54Z</time>
      </trkpt>
      <trkpt lat="42.43916" lon="2.82541">
        <ele>723</ele>
        <time>2024-09-22T06:16:57Z</time>
      </trkpt>
      <trkpt lat="42.43917" lon="2.82539">
        <ele>724</ele>
        <time>2024-09-22T06:19:29Z</time>
      </trkpt>
      <trkpt lat="42.43917" lon="2.82541">
        <ele>723</ele>
        <time>2024-09-22T06:19:59Z</time>
      </trkpt>
      <trkpt lat="42.43918" lon="2.82541">
        <ele>723</ele>
        <time>2024-09-22T06:20:28Z</time>
      </trkpt>
      <trkpt lat="42.43918" lon="2.8254">
        <ele>723</ele>
        <time>2024-09-22T06:21:29Z</time>
      </trkpt>
      <trkpt lat="42.43916" lon="2.82539">
        <ele>726</ele>
        <time>2024-09-22T06:21:56Z</time>
      </trkpt>
      <trkpt lat="42.43917" lon="2.8254">
        <ele>723</ele>
        <time>2024-09-22T06:22:18Z</time>
      </trkpt>
      <trkpt lat="42.4392" lon="2.82542">
        <ele>721</ele>
        <time>2024-09-22T06:24:02Z</time>
      </trkpt>
      <trkpt lat="42.43918" lon="2.82543">
        <ele>723</ele>
        <time>2024-09-22T06:24:36Z</time>
      </trkpt>
      <trkpt lat="42.43917" lon="2.82541">
        <ele>723</ele>
        <time>2024-09-22T06:24:52Z</time>
      </trkpt>
      <trkpt lat="42.43917" lon="2.82542">
        <ele>723</ele>
        <time>2024-09-22T06:25:20Z</time>
      </trkpt>
      <trkpt lat="42.43916" lon="2.82539">
        <ele>724</ele>
        <time>2024-09-22T06:26:57Z</time>
      </trkpt>
      <trkpt lat="42.43916" lon="2.82541">
        <ele>724</ele>
        <time>2024-09-22T06:27:17Z</time>
      </trkpt>
      <trkpt lat="42.43917" lon="2.8254">
        <ele>724</ele>
        <time>2024-09-22T06:27:50Z</time>
      </trkpt>
      <trkpt lat="42.43918" lon="2.82537">
        <ele>723</ele>
        <time>2024-09-22T06:28:20Z</time>
      </trkpt>
      <trkpt lat="42.43919" lon="2.82534">
        <ele>723</ele>
        <time>2024-09-22T06:28:24Z</time>
      </trkpt>
      <trkpt lat="42.43919" lon="2.82531">
        <ele>723</ele>
        <time>2024-09-22T06:28:28Z</time>
      </trkpt>
      <trkpt lat="42.4392" lon="2.82527">
        <ele>723</ele>
        <time>2024-09-22T06:28:32Z</time>
      </trkpt>
      <trkpt lat="42.43922" lon="2.82524">
        <ele>725</ele>
        <time>2024-09-22T06:28:40Z</time>
      </trkpt>
      <trkpt lat="42.43922" lon="2.82525">
        <ele>723</ele>
        <time>2024-09-22T06:29:00Z</time>
      </trkpt>
      <trkpt lat="42.43921" lon="2.82527">
        <ele>724</ele>
        <time>2024-09-22T06:29:02Z</time>
      </trkpt>
      <trkpt lat="42.43919" lon="2.8253">
        <ele>724</ele>
        <time>2024-09-22T06:29:06Z</time>
      </trkpt>
      <trkpt lat="42.43918" lon="2.82534">
        <ele>723</ele>
        <time>2024-09-22T06:29:10Z</time>
      </trkpt>
      <trkpt lat="42.43917" lon="2.82538">
        <ele>723</ele>
        <time>2024-09-22T06:29:15Z</time>
      </trkpt>
      <trkpt lat="42.43918" lon="2.82541">
        <ele>723</ele>
        <time>2024-09-22T06:30:21Z</time>
      </trkpt>
      <trkpt lat="42.43917" lon="2.82541">
        <ele>722</ele>
        <time>2024-09-22T06:31:46Z</time>
      </trkpt>
      <trkpt lat="42.43916" lon="2.82543">
        <ele>724</ele>
        <time>2024-09-22T06:32:14Z</time>
      </trkpt>
      <trkpt lat="42.43916" lon="2.82547">
        <ele>722</ele>
        <time>2024-09-22T06:32:16Z</time>
      </trkpt>
      <trkpt lat="42.43916" lon="2.8255">
        <ele>722</ele>
        <time>2024-09-22T06:32:18Z</time>
      </trkpt>
      <trkpt lat="42.43916" lon="2.82554">
        <ele>723</ele>
        <time>2024-09-22T06:32:20Z</time>
      </trkpt>
      <trkpt lat="42.43916" lon="2.82558">
        <ele>722</ele>
        <time>2024-09-22T06:32:22Z</time>
      </trkpt>
      <trkpt lat="42.43916" lon="2.82562">
        <ele>721</ele>
        <time>2024-09-22T06:32:25Z</time>
      </trkpt>
      <trkpt lat="42.43916" lon="2.82566">
        <ele>721</ele>
        <time>2024-09-22T06:32:27Z</time>
      </trkpt>
      <trkpt lat="42.43916" lon="2.82569">
        <ele>721</ele>
        <time>2024-09-22T06:32:29Z</time>
      </trkpt>
      <trkpt lat="42.43916" lon="2.82574">
        <ele>719</ele>
        <time>2024-09-22T06:32:32Z</time>
      </trkpt>
      <trkpt lat="42.43916" lon="2.82578">
        <ele>720</ele>
        <time>2024-09-22T06:32:34Z</time>
      </trkpt>
      <trkpt lat="42.43916" lon="2.82581">
        <ele>720</ele>
        <time>2024-09-22T06:32:36Z</time>
      </trkpt>
      <trkpt lat="42.43917" lon="2.82585">
        <ele>719</ele>
        <time>2024-09-22T06:32:39Z</time>
      </trkpt>
      <trkpt lat="42.43918" lon="2.8259">
        <ele>719</ele>
        <time>2024-09-22T06:32:42Z</time>
      </trkpt>
      <trkpt lat="42.43919" lon="2.82595">
        <ele>719</ele>
        <time>2024-09-22T06:32:45Z</time>
      </trkpt>
      <trkpt lat="42.4392" lon="2.826">
        <ele>718</ele>
        <time>2024-09-22T06:32:48Z</time>
      </trkpt>
      <trkpt lat="42.43921" lon="2.82605">
        <ele>720</ele>
        <time>2024-09-22T06:32:51Z</time>
      </trkpt>
      <trkpt lat="42.43922" lon="2.82609">
        <ele>722</ele>
        <time>2024-09-22T06:33:16Z</time>
      </trkpt>
      <trkpt lat="42.43923" lon="2.82613">
        <ele>720</ele>
        <time>2024-09-22T06:33:51Z</time>
      </trkpt>
      <trkpt lat="42.43923" lon="2.82616">
        <ele>719</ele>
        <time>2024-09-22T06:33:54Z</time>
      </trkpt>
      <trkpt lat="42.43924" lon="2.8262">
        <ele>718</ele>
        <time>2024-09-22T06:33:57Z</time>
      </trkpt>
      <trkpt lat="42.43925" lon="2.82625">
        <ele>718</ele>
        <time>2024-09-22T06:33:59Z</time>
      </trkpt>
      <trkpt lat="42.43925" lon="2.82629">
        <ele>718</ele>
        <time>2024-09-22T06:34:01Z</time>
      </trkpt>
      <trkpt lat="42.43926" lon="2.82634">
        <ele>717</ele>
        <time>2024-09-22T06:34:05Z</time>
      </trkpt>
      <trkpt lat="42.43927" lon="2.82638">
        <ele>717</ele>
        <time>2024-09-22T06:34:07Z</time>
      </trkpt>
      <trkpt lat="42.43927" lon="2.82643">
        <ele>717</ele>
        <time>2024-09-22T06:34:10Z</time>
      </trkpt>
      <trkpt lat="42.43927" lon="2.82647">
        <ele>717</ele>
        <time>2024-09-22T06:34:12Z</time>
      </trkpt>
      <trkpt lat="42.43928" lon="2.82651">
        <ele>717</ele>
        <time>2024-09-22T06:34:14Z</time>
      </trkpt>
      <trkpt lat="42.43928" lon="2.82656">
        <ele>717</ele>
        <time>2024-09-22T06:34:16Z</time>
      </trkpt>
      <trkpt lat="42.43929" lon="2.82661">
        <ele>717</ele>
        <time>2024-09-22T06:34:18Z</time>
      </trkpt>
      <trkpt lat="42.43929" lon="2.82665">
        <ele>716</ele>
        <time>2024-09-22T06:34:20Z</time>
      </trkpt>
      <trkpt lat="42.4393" lon="2.82668">
        <ele>716</ele>
        <time>2024-09-22T06:34:22Z</time>
      </trkpt>
      <trkpt lat="42.43931" lon="2.82672">
        <ele>715</ele>
        <time>2024-09-22T06:34:25Z</time>
      </trkpt>
      <trkpt lat="42.43933" lon="2.82676">
        <ele>714</ele>
        <time>2024-09-22T06:34:27Z</time>
      </trkpt>
      <trkpt lat="42.43935" lon="2.82679">
        <ele>714</ele>
        <time>2024-09-22T06:34:29Z</time>
      </trkpt>
      <trkpt lat="42.43938" lon="2.82681">
        <ele>715</ele>
        <time>2024-09-22T06:34:31Z</time>
      </trkpt>
      <trkpt lat="42.4394" lon="2.82683">
        <ele>715</ele>
        <time>2024-09-22T06:34:33Z</time>
      </trkpt>
      <trkpt lat="42.43943" lon="2.82685">
        <ele>715</ele>
        <time>2024-09-22T06:34:35Z</time>
      </trkpt>
      <trkpt lat="42.43946" lon="2.82686">
        <ele>716</ele>
        <time>2024-09-22T06:34:38Z</time>
      </trkpt>
      <trkpt lat="42.43949" lon="2.82687">
        <ele>716</ele>
        <time>2024-09-22T06:34:40Z</time>
      </trkpt>
      <trkpt lat="42.43953" lon="2.82687">
        <ele>716</ele>
        <time>2024-09-22T06:34:43Z</time>
      </trkpt>
      <trkpt lat="42.43956" lon="2.82687">
        <ele>716</ele>
        <time>2024-09-22T06:34:45Z</time>
      </trkpt>
      <trkpt lat="42.43959" lon="2.82687">
        <ele>716</ele>
        <time>2024-09-22T06:34:49Z</time>
      </trkpt>
      <trkpt lat="42.43963" lon="2.82686">
        <ele>715</ele>
        <time>2024-09-22T06:34:52Z</time>
      </trkpt>
      <trkpt lat="42.43966" lon="2.82686">
        <ele>714</ele>
        <time>2024-09-22T06:34:55Z</time>
      </trkpt>
      <trkpt lat="42.43969" lon="2.82686">
        <ele>715</ele>
        <time>2024-09-22T06:34:57Z</time>
      </trkpt>
      <trkpt lat="42.43973" lon="2.82687">
        <ele>715</ele>
        <time>2024-09-22T06:35:00Z</time>
      </trkpt>
      <trkpt lat="42.43976" lon="2.82687">
        <ele>715</ele>
        <time>2024-09-22T06:35:03Z</time>
      </trkpt>
      <trkpt lat="42.43979" lon="2.82687">
        <ele>715</ele>
        <time>2024-09-22T06:35:06Z</time>
      </trkpt>
      <trkpt lat="42.43983" lon="2.82688">
        <ele>715</ele>
        <time>2024-09-22T06:35:09Z</time>
      </trkpt>
      <trkpt lat="42.43986" lon="2.82689">
        <ele>715</ele>
        <time>2024-09-22T06:35:11Z</time>
      </trkpt>
      <trkpt lat="42.43989" lon="2.82689">
        <ele>715</ele>
        <time>2024-09-22T06:35:14Z</time>
      </trkpt>
      <trkpt lat="42.43992" lon="2.82691">
        <ele>714</ele>
        <time>2024-09-22T06:35:16Z</time>
      </trkpt>
      <trkpt lat="42.43995" lon="2.82693">
        <ele>715</ele>
        <time>2024-09-22T06:35:19Z</time>
      </trkpt>
      <trkpt lat="42.43999" lon="2.82694">
        <ele>715</ele>
        <time>2024-09-22T06:35:21Z</time>
      </trkpt>
      <trkpt lat="42.44002" lon="2.82696">
        <ele>715</ele>
        <time>2024-09-22T06:35:23Z</time>
      </trkpt>
      <trkpt lat="42.44004" lon="2.82697">
        <ele>716</ele>
        <time>2024-09-22T06:35:25Z</time>
      </trkpt>
      <trkpt lat="42.44007" lon="2.82699">
        <ele>716</ele>
        <time>2024-09-22T06:35:27Z</time>
      </trkpt>
      <trkpt lat="42.4401" lon="2.82701">
        <ele>716</ele>
        <time>2024-09-22T06:35:29Z</time>
      </trkpt>
      <trkpt lat="42.44013" lon="2.82702">
        <ele>716</ele>
        <time>2024-09-22T06:35:31Z</time>
      </trkpt>
      <trkpt lat="42.44015" lon="2.82704">
        <ele>715</ele>
        <time>2024-09-22T06:35:33Z</time>
      </trkpt>
      <trkpt lat="42.44018" lon="2.82706">
        <ele>715</ele>
        <time>2024-09-22T06:35:35Z</time>
      </trkpt>
      <trkpt lat="42.44021" lon="2.82708">
        <ele>715</ele>
        <time>2024-09-22T06:35:38Z</time>
      </trkpt>
      <trkpt lat="42.44024" lon="2.8271">
        <ele>716</ele>
        <time>2024-09-22T06:35:40Z</time>
      </trkpt>
      <trkpt lat="42.44027" lon="2.82712">
        <ele>715</ele>
        <time>2024-09-22T06:35:42Z</time>
      </trkpt>
      <trkpt lat="42.4403" lon="2.82714">
        <ele>715</ele>
        <time>2024-09-22T06:35:44Z</time>
      </trkpt>
      <trkpt lat="42.44032" lon="2.82716">
        <ele>714</ele>
        <time>2024-09-22T06:35:46Z</time>
      </trkpt>
      <trkpt lat="42.44035" lon="2.82718">
        <ele>715</ele>
        <time>2024-09-22T06:35:48Z</time>
      </trkpt>
      <trkpt lat="42.44037" lon="2.8272">
        <ele>715</ele>
        <time>2024-09-22T06:35:50Z</time>
      </trkpt>
      <trkpt lat="42.4404" lon="2.82722">
        <ele>714</ele>
        <time>2024-09-22T06:35:53Z</time>
      </trkpt>
      <trkpt lat="42.44043" lon="2.82724">
        <ele>715</ele>
        <time>2024-09-22T06:35:55Z</time>
      </trkpt>
      <trkpt lat="42.44046" lon="2.82725">
        <ele>715</ele>
        <time>2024-09-22T06:35:57Z</time>
      </trkpt>
      <trkpt lat="42.44049" lon="2.82727">
        <ele>715</ele>
        <time>2024-09-22T06:36:00Z</time>
      </trkpt>
      <trkpt lat="42.44052" lon="2.82729">
        <ele>714</ele>
        <time>2024-09-22T06:36:03Z</time>
      </trkpt>
      <trkpt lat="42.44055" lon="2.82732">
        <ele>714</ele>
        <time>2024-09-22T06:36:06Z</time>
      </trkpt>
      <trkpt lat="42.44058" lon="2.82734">
        <ele>714</ele>
        <time>2024-09-22T06:36:08Z</time>
      </trkpt>
      <trkpt lat="42.44061" lon="2.82736">
        <ele>714</ele>
        <time>2024-09-22T06:36:10Z</time>
      </trkpt>
      <trkpt lat="42.44063" lon="2.82737">
        <ele>715</ele>
        <time>2024-09-22T06:36:12Z</time>
      </trkpt>
      <trkpt lat="42.44066" lon="2.82738">
        <ele>715</ele>
        <time>2024-09-22T06:36:14Z</time>
      </trkpt>
      <trkpt lat="42.44068" lon="2.82741">
        <ele>716</ele>
        <time>2024-09-22T06:36:16Z</time>
      </trkpt>
      <trkpt lat="42.44071" lon="2.82743">
        <ele>716</ele>
        <time>2024-09-22T06:36:19Z</time>
      </trkpt>
      <trkpt lat="42.44074" lon="2.82745">
        <ele>716</ele>
        <time>2024-09-22T06:36:21Z</time>
      </trkpt>
      <trkpt lat="42.44077" lon="2.82746">
        <ele>715</ele>
        <time>2024-09-22T06:36:24Z</time>
      </trkpt>
      <trkpt lat="42.4408" lon="2.82748">
        <ele>715</ele>
        <time>2024-09-22T06:36:26Z</time>
      </trkpt>
      <trkpt lat="42.44083" lon="2.8275">
        <ele>714</ele>
        <time>2024-09-22T06:36:29Z</time>
      </trkpt>
      <trkpt lat="42.44086" lon="2.82752">
        <ele>715</ele>
        <time>2024-09-22T06:36:31Z</time>
      </trkpt>
      <trkpt lat="42.4409" lon="2.82754">
        <ele>716</ele>
        <time>2024-09-22T06:36:33Z</time>
      </trkpt>
      <trkpt lat="42.44093" lon="2.82757">
        <ele>715</ele>
        <time>2024-09-22T06:36:35Z</time>
      </trkpt>
      <trkpt lat="42.44096" lon="2.82759">
        <ele>714</ele>
        <time>2024-09-22T06:36:37Z</time>
      </trkpt>
      <trkpt lat="42.44099" lon="2.8276">
        <ele>714</ele>
        <time>2024-09-22T06:36:39Z</time>
      </trkpt>
      <trkpt lat="42.44103" lon="2.82763">
        <ele>713</ele>
        <time>2024-09-22T06:36:42Z</time>
      </trkpt>
      <trkpt lat="42.44105" lon="2.82765">
        <ele>712</ele>
        <time>2024-09-22T06:36:44Z</time>
      </trkpt>
      <trkpt lat="42.44108" lon="2.82766">
        <ele>712</ele>
        <time>2024-09-22T06:36:46Z</time>
      </trkpt>
      <trkpt lat="42.44112" lon="2.82768">
        <ele>712</ele>
        <time>2024-09-22T06:36:49Z</time>
      </trkpt>
      <trkpt lat="42.44115" lon="2.8277">
        <ele>711</ele>
        <time>2024-09-22T06:36:52Z</time>
      </trkpt>
      <trkpt lat="42.44118" lon="2.82772">
        <ele>712</ele>
        <time>2024-09-22T06:36:55Z</time>
      </trkpt>
      <trkpt lat="42.44121" lon="2.82774">
        <ele>712</ele>
        <time>2024-09-22T06:36:57Z</time>
      </trkpt>
      <trkpt lat="42.44124" lon="2.82775">
        <ele>712</ele>
        <time>2024-09-22T06:36:59Z</time>
      </trkpt>
      <trkpt lat="42.44127" lon="2.82777">
        <ele>712</ele>
        <time>2024-09-22T06:37:02Z</time>
      </trkpt>
      <trkpt lat="42.4413" lon="2.82779">
        <ele>710</ele>
        <time>2024-09-22T06:37:05Z</time>
      </trkpt>
      <trkpt lat="42.44133" lon="2.82781">
        <ele>711</ele>
        <time>2024-09-22T06:37:07Z</time>
      </trkpt>
      <trkpt lat="42.44136" lon="2.82783">
        <ele>711</ele>
        <time>2024-09-22T06:37:09Z</time>
      </trkpt>
      <trkpt lat="42.44139" lon="2.82784">
        <ele>711</ele>
        <time>2024-09-22T06:37:12Z</time>
      </trkpt>
      <trkpt lat="42.44142" lon="2.82786">
        <ele>710</ele>
        <time>2024-09-22T06:37:14Z</time>
      </trkpt>
      <trkpt lat="42.44146" lon="2.82788">
        <ele>710</ele>
        <time>2024-09-22T06:37:17Z</time>
      </trkpt>
      <trkpt lat="42.44149" lon="2.82791">
        <ele>711</ele>
        <time>2024-09-22T06:37:20Z</time>
      </trkpt>
      <trkpt lat="42.44152" lon="2.82793">
        <ele>711</ele>
        <time>2024-09-22T06:37:23Z</time>
      </trkpt>
      <trkpt lat="42.44156" lon="2.82795">
        <ele>711</ele>
        <time>2024-09-22T06:37:25Z</time>
      </trkpt>
      <trkpt lat="42.44159" lon="2.82796">
        <ele>710</ele>
        <time>2024-09-22T06:37:28Z</time>
      </trkpt>
      <trkpt lat="42.44162" lon="2.82798">
        <ele>710</ele>
        <time>2024-09-22T06:37:30Z</time>
      </trkpt>
      <trkpt lat="42.44165" lon="2.828">
        <ele>710</ele>
        <time>2024-09-22T06:37:32Z</time>
      </trkpt>
      <trkpt lat="42.44167" lon="2.82803">
        <ele>710</ele>
        <time>2024-09-22T06:37:34Z</time>
      </trkpt>
      <trkpt lat="42.44169" lon="2.82805">
        <ele>710</ele>
        <time>2024-09-22T06:37:36Z</time>
      </trkpt>
      <trkpt lat="42.44173" lon="2.82807">
        <ele>710</ele>
        <time>2024-09-22T06:37:38Z</time>
      </trkpt>
      <trkpt lat="42.44176" lon="2.8281">
        <ele>709</ele>
        <time>2024-09-22T06:37:41Z</time>
      </trkpt>
      <trkpt lat="42.44179" lon="2.82812">
        <ele>709</ele>
        <time>2024-09-22T06:37:44Z</time>
      </trkpt>
      <trkpt lat="42.44182" lon="2.82815">
        <ele>709</ele>
        <time>2024-09-22T06:37:46Z</time>
      </trkpt>
      <trkpt lat="42.44185" lon="2.82817">
        <ele>709</ele>
        <time>2024-09-22T06:37:48Z</time>
      </trkpt>
      <trkpt lat="42.44188" lon="2.82818">
        <ele>708</ele>
        <time>2024-09-22T06:37:50Z</time>
      </trkpt>
      <trkpt lat="42.4419" lon="2.8282">
        <ele>708</ele>
        <time>2024-09-22T06:37:52Z</time>
      </trkpt>
      <trkpt lat="42.44193" lon="2.82822">
        <ele>708</ele>
        <time>2024-09-22T06:37:54Z</time>
      </trkpt>
      <trkpt lat="42.44196" lon="2.82824">
        <ele>708</ele>
        <time>2024-09-22T06:37:57Z</time>
      </trkpt>
      <trkpt lat="42.44199" lon="2.82825">
        <ele>708</ele>
        <time>2024-09-22T06:37:59Z</time>
      </trkpt>
      <trkpt lat="42.44202" lon="2.82826">
        <ele>708</ele>
        <time>2024-09-22T06:38:01Z</time>
      </trkpt>
      <trkpt lat="42.44205" lon="2.82827">
        <ele>706</ele>
        <time>2024-09-22T06:38:03Z</time>
      </trkpt>
      <trkpt lat="42.44208" lon="2.82828">
        <ele>707</ele>
        <time>2024-09-22T06:38:06Z</time>
      </trkpt>
      <trkpt lat="42.44211" lon="2.82829">
        <ele>706</ele>
        <time>2024-09-22T06:38:08Z</time>
      </trkpt>
      <trkpt lat="42.44214" lon="2.8283">
        <ele>705</ele>
        <time>2024-09-22T06:38:11Z</time>
      </trkpt>
      <trkpt lat="42.44218" lon="2.82831">
        <ele>706</ele>
        <time>2024-09-22T06:38:14Z</time>
      </trkpt>
      <trkpt lat="42.44221" lon="2.82832">
        <ele>706</ele>
        <time>2024-09-22T06:38:16Z</time>
      </trkpt>
      <trkpt lat="42.44224" lon="2.82833">
        <ele>705</ele>
        <time>2024-09-22T06:38:18Z</time>
      </trkpt>
      <trkpt lat="42.44227" lon="2.82834">
        <ele>705</ele>
        <time>2024-09-22T06:38:20Z</time>
      </trkpt>
      <trkpt lat="42.44229" lon="2.82836">
        <ele>705</ele>
        <time>2024-09-22T06:38:22Z</time>
      </trkpt>
      <trkpt lat="42.44232" lon="2.82837">
        <ele>704</ele>
        <time>2024-09-22T06:38:24Z</time>
      </trkpt>
      <trkpt lat="42.44235" lon="2.82839">
        <ele>704</ele>
        <time>2024-09-22T06:38:26Z</time>
      </trkpt>
      <trkpt lat="42.44238" lon="2.82841">
        <ele>705</ele>
        <time>2024-09-22T06:38:28Z</time>
      </trkpt>
      <trkpt lat="42.4424" lon="2.82843">
        <ele>704</ele>
        <time>2024-09-22T06:38:30Z</time>
      </trkpt>
      <trkpt lat="42.44242" lon="2.82846">
        <ele>703</ele>
        <time>2024-09-22T06:38:32Z</time>
      </trkpt>
      <trkpt lat="42.44244" lon="2.82849">
        <ele>702</ele>
        <time>2024-09-22T06:38:34Z</time>
      </trkpt>
      <trkpt lat="42.44246" lon="2.82852">
        <ele>702</ele>
        <time>2024-09-22T06:38:36Z</time>
      </trkpt>
      <trkpt lat="42.44248" lon="2.82855">
        <ele>702</ele>
        <time>2024-09-22T06:38:38Z</time>
      </trkpt>
      <trkpt lat="42.4425" lon="2.82859">
        <ele>702</ele>
        <time>2024-09-22T06:38:41Z</time>
      </trkpt>
      <trkpt lat="42.44252" lon="2.82863">
        <ele>702</ele>
        <time>2024-09-22T06:38:43Z</time>
      </trkpt>
      <trkpt lat="42.44254" lon="2.82867">
        <ele>701</ele>
        <time>2024-09-22T06:38:45Z</time>
      </trkpt>
      <trkpt lat="42.44256" lon="2.8287">
        <ele>701</ele>
        <time>2024-09-22T06:38:47Z</time>
      </trkpt>
      <trkpt lat="42.44257" lon="2.82874">
        <ele>700</ele>
        <time>2024-09-22T06:38:49Z</time>
      </trkpt>
      <trkpt lat="42.44258" lon="2.82879">
        <ele>700</ele>
        <time>2024-09-22T06:38:52Z</time>
      </trkpt>
      <trkpt lat="42.4426" lon="2.82882">
        <ele>699</ele>
        <time>2024-09-22T06:38:54Z</time>
      </trkpt>
      <trkpt lat="42.44262" lon="2.82887">
        <ele>699</ele>
        <time>2024-09-22T06:38:57Z</time>
      </trkpt>
      <trkpt lat="42.44263" lon="2.82891">
        <ele>700</ele>
        <time>2024-09-22T06:38:59Z</time>
      </trkpt>
      <trkpt lat="42.44264" lon="2.82894">
        <ele>700</ele>
        <time>2024-09-22T06:39:01Z</time>
      </trkpt>
      <trkpt lat="42.44265" lon="2.82899">
        <ele>700</ele>
        <time>2024-09-22T06:39:04Z</time>
      </trkpt>
      <trkpt lat="42.44266" lon="2.82903">
        <ele>699</ele>
        <time>2024-09-22T06:39:07Z</time>
      </trkpt>
      <trkpt lat="42.44267" lon="2.82908">
        <ele>698</ele>
        <time>2024-09-22T06:39:08Z</time>
      </trkpt>
      <trkpt lat="42.44269" lon="2.82913">
        <ele>698</ele>
        <time>2024-09-22T06:39:11Z</time>
      </trkpt>
      <trkpt lat="42.4427" lon="2.82918">
        <ele>699</ele>
        <time>2024-09-22T06:39:14Z</time>
      </trkpt>
      <trkpt lat="42.44272" lon="2.82923">
        <ele>698</ele>
        <time>2024-09-22T06:39:17Z</time>
      </trkpt>
      <trkpt lat="42.44275" lon="2.82927">
        <ele>698</ele>
        <time>2024-09-22T06:39:19Z</time>
      </trkpt>
      <trkpt lat="42.44277" lon="2.8293">
        <ele>698</ele>
        <time>2024-09-22T06:39:21Z</time>
      </trkpt>
      <trkpt lat="42.44279" lon="2.82933">
        <ele>697</ele>
        <time>2024-09-22T06:39:23Z</time>
      </trkpt>
      <trkpt lat="42.44281" lon="2.82936">
        <ele>697</ele>
        <time>2024-09-22T06:39:25Z</time>
      </trkpt>
      <trkpt lat="42.44284" lon="2.82939">
        <ele>697</ele>
        <time>2024-09-22T06:39:27Z</time>
      </trkpt>
      <trkpt lat="42.44286" lon="2.8294">
        <ele>697</ele>
        <time>2024-09-22T06:39:29Z</time>
      </trkpt>
      <trkpt lat="42.44289" lon="2.82941">
        <ele>698</ele>
        <time>2024-09-22T06:39:31Z</time>
      </trkpt>
      <trkpt lat="42.44292" lon="2.82942">
        <ele>697</ele>
        <time>2024-09-22T06:39:33Z</time>
      </trkpt>
      <trkpt lat="42.44295" lon="2.82943">
        <ele>697</ele>
        <time>2024-09-22T06:39:35Z</time>
      </trkpt>
      <trkpt lat="42.44297" lon="2.82944">
        <ele>696</ele>
        <time>2024-09-22T06:39:37Z</time>
      </trkpt>
      <trkpt lat="42.443" lon="2.82945">
        <ele>695</ele>
        <time>2024-09-22T06:39:39Z</time>
      </trkpt>
      <trkpt lat="42.44303" lon="2.82945">
        <ele>694</ele>
        <time>2024-09-22T06:39:41Z</time>
      </trkpt>
      <trkpt lat="42.44306" lon="2.82946">
        <ele>693</ele>
        <time>2024-09-22T06:39:43Z</time>
      </trkpt>
      <trkpt lat="42.44308" lon="2.82946">
        <ele>693</ele>
        <time>2024-09-22T06:39:46Z</time>
      </trkpt>
      <trkpt lat="42.44312" lon="2.82947">
        <ele>695</ele>
        <time>2024-09-22T06:39:49Z</time>
      </trkpt>
      <trkpt lat="42.44315" lon="2.82947">
        <ele>693</ele>
        <time>2024-09-22T06:39:51Z</time>
      </trkpt>
      <trkpt lat="42.44319" lon="2.82947">
        <ele>693</ele>
        <time>2024-09-22T06:39:53Z</time>
      </trkpt>
      <trkpt lat="42.44323" lon="2.82947">
        <ele>693</ele>
        <time>2024-09-22T06:39:56Z</time>
      </trkpt>
      <trkpt lat="42.44326" lon="2.82947">
        <ele>693</ele>
        <time>2024-09-22T06:39:58Z</time>
      </trkpt>
      <trkpt lat="42.44329" lon="2.82946">
        <ele>692</ele>
        <time>2024-09-22T06:40:00Z</time>
      </trkpt>
      <trkpt lat="42.44332" lon="2.82946">
        <ele>691</ele>
        <time>2024-09-22T06:40:02Z</time>
      </trkpt>
      <trkpt lat="42.44335" lon="2.82945">
        <ele>691</ele>
        <time>2024-09-22T06:40:04Z</time>
      </trkpt>
      <trkpt lat="42.44337" lon="2.82944">
        <ele>690</ele>
        <time>2024-09-22T06:40:06Z</time>
      </trkpt>
      <trkpt lat="42.4434" lon="2.82943">
        <ele>691</ele>
        <time>2024-09-22T06:40:08Z</time>
      </trkpt>
      <trkpt lat="42.44343" lon="2.82942">
        <ele>690</ele>
        <time>2024-09-22T06:40:10Z</time>
      </trkpt>
      <trkpt lat="42.44346" lon="2.82941">
        <ele>691</ele>
        <time>2024-09-22T06:40:13Z</time>
      </trkpt>
      <trkpt lat="42.44349" lon="2.8294">
        <ele>690</ele>
        <time>2024-09-22T06:40:15Z</time>
      </trkpt>
      <trkpt lat="42.44352" lon="2.82939">
        <ele>689</ele>
        <time>2024-09-22T06:40:17Z</time>
      </trkpt>
      <trkpt lat="42.44355" lon="2.82938">
        <ele>689</ele>
        <time>2024-09-22T06:40:19Z</time>
      </trkpt>
      <trkpt lat="42.44358" lon="2.82938">
        <ele>690</ele>
        <time>2024-09-22T06:40:21Z</time>
      </trkpt>
      <trkpt lat="42.4436" lon="2.82937">
        <ele>690</ele>
        <time>2024-09-22T06:40:23Z</time>
      </trkpt>
      <trkpt lat="42.44363" lon="2.82937">
        <ele>690</ele>
        <time>2024-09-22T06:40:25Z</time>
      </trkpt>
      <trkpt lat="42.44366" lon="2.82937">
        <ele>690</ele>
        <time>2024-09-22T06:40:27Z</time>
      </trkpt>
      <trkpt lat="42.44369" lon="2.82937">
        <ele>690</ele>
        <time>2024-09-22T06:40:29Z</time>
      </trkpt>
      <trkpt lat="42.44372" lon="2.82939">
        <ele>689</ele>
        <time>2024-09-22T06:40:31Z</time>
      </trkpt>
      <trkpt lat="42.44375" lon="2.82939">
        <ele>690</ele>
        <time>2024-09-22T06:40:34Z</time>
      </trkpt>
      <trkpt lat="42.44379" lon="2.8294">
        <ele>690</ele>
        <time>2024-09-22T06:40:36Z</time>
      </trkpt>
      <trkpt lat="42.44382" lon="2.82941">
        <ele>689</ele>
        <time>2024-09-22T06:40:38Z</time>
      </trkpt>
      <trkpt lat="42.44384" lon="2.82942">
        <ele>688</ele>
        <time>2024-09-22T06:40:40Z</time>
      </trkpt>
      <trkpt lat="42.44387" lon="2.82943">
        <ele>688</ele>
        <time>2024-09-22T06:40:42Z</time>
      </trkpt>
      <trkpt lat="42.4439" lon="2.82944">
        <ele>687</ele>
        <time>2024-09-22T06:40:44Z</time>
      </trkpt>
      <trkpt lat="42.44393" lon="2.82945">
        <ele>687</ele>
        <time>2024-09-22T06:40:46Z</time>
      </trkpt>
      <trkpt lat="42.44396" lon="2.82947">
        <ele>687</ele>
        <time>2024-09-22T06:40:48Z</time>
      </trkpt>
      <trkpt lat="42.44398" lon="2.82948">
        <ele>687</ele>
        <time>2024-09-22T06:40:50Z</time>
      </trkpt>
      <trkpt lat="42.44402" lon="2.82949">
        <ele>685</ele>
        <time>2024-09-22T06:40:52Z</time>
      </trkpt>
      <trkpt lat="42.44405" lon="2.82951">
        <ele>685</ele>
        <time>2024-09-22T06:40:54Z</time>
      </trkpt>
      <trkpt lat="42.44408" lon="2.82952">
        <ele>685</ele>
        <time>2024-09-22T06:40:56Z</time>
      </trkpt>
      <trkpt lat="42.44411" lon="2.82954">
        <ele>684</ele>
        <time>2024-09-22T06:40:58Z</time>
      </trkpt>
      <trkpt lat="42.44413" lon="2.82955">
        <ele>684</ele>
        <time>2024-09-22T06:41:00Z</time>
      </trkpt>
      <trkpt lat="42.44416" lon="2.82956">
        <ele>684</ele>
        <time>2024-09-22T06:41:02Z</time>
      </trkpt>
      <trkpt lat="42.44419" lon="2.82958">
        <ele>684</ele>
        <time>2024-09-22T06:41:04Z</time>
      </trkpt>
      <trkpt lat="42.44422" lon="2.82959">
        <ele>682</ele>
        <time>2024-09-22T06:41:06Z</time>
      </trkpt>
      <trkpt lat="42.44425" lon="2.82961">
        <ele>683</ele>
        <time>2024-09-22T06:41:09Z</time>
      </trkpt>
      <trkpt lat="42.44428" lon="2.82962">
        <ele>683</ele>
        <time>2024-09-22T06:41:11Z</time>
      </trkpt>
      <trkpt lat="42.44431" lon="2.82964">
        <ele>682</ele>
        <time>2024-09-22T06:41:13Z</time>
      </trkpt>
      <trkpt lat="42.44434" lon="2.82964">
        <ele>681</ele>
        <time>2024-09-22T06:41:15Z</time>
      </trkpt>
      <trkpt lat="42.44437" lon="2.82965">
        <ele>682</ele>
        <time>2024-09-22T06:41:17Z</time>
      </trkpt>
      <trkpt lat="42.4444" lon="2.82966">
        <ele>682</ele>
        <time>2024-09-22T06:41:19Z</time>
      </trkpt>
      <trkpt lat="42.44443" lon="2.82966">
        <ele>682</ele>
        <time>2024-09-22T06:41:21Z</time>
      </trkpt>
      <trkpt lat="42.44446" lon="2.82967">
        <ele>682</ele>
        <time>2024-09-22T06:41:23Z</time>
      </trkpt>
      <trkpt lat="42.44449" lon="2.82968">
        <ele>682</ele>
        <time>2024-09-22T06:41:25Z</time>
      </trkpt>
      <trkpt lat="42.44452" lon="2.82968">
        <ele>682</ele>
        <time>2024-09-22T06:41:27Z</time>
      </trkpt>
      <trkpt lat="42.44455" lon="2.82969">
        <ele>683</ele>
        <time>2024-09-22T06:41:29Z</time>
      </trkpt>
      <trkpt lat="42.44458" lon="2.82969">
        <ele>682</ele>
        <time>2024-09-22T06:41:31Z</time>
      </trkpt>
      <trkpt lat="42.44461" lon="2.8297">
        <ele>682</ele>
        <time>2024-09-22T06:41:33Z</time>
      </trkpt>
      <trkpt lat="42.44463" lon="2.82971">
        <ele>682</ele>
        <time>2024-09-22T06:41:35Z</time>
      </trkpt>
      <trkpt lat="42.44466" lon="2.82973">
        <ele>681</ele>
        <time>2024-09-22T06:41:37Z</time>
      </trkpt>
      <trkpt lat="42.44469" lon="2.82976">
        <ele>680</ele>
        <time>2024-09-22T06:41:40Z</time>
      </trkpt>
      <trkpt lat="42.44471" lon="2.82978">
        <ele>680</ele>
        <time>2024-09-22T06:41:42Z</time>
      </trkpt>
      <trkpt lat="42.44474" lon="2.82981">
        <ele>680</ele>
        <time>2024-09-22T06:41:44Z</time>
      </trkpt>
      <trkpt lat="42.44476" lon="2.82984">
        <ele>679</ele>
        <time>2024-09-22T06:41:46Z</time>
      </trkpt>
      <trkpt lat="42.44478" lon="2.82987">
        <ele>679</ele>
        <time>2024-09-22T06:41:48Z</time>
      </trkpt>
      <trkpt lat="42.4448" lon="2.82989">
        <ele>679</ele>
        <time>2024-09-22T06:41:50Z</time>
      </trkpt>
      <trkpt lat="42.44482" lon="2.82992">
        <ele>679</ele>
        <time>2024-09-22T06:41:52Z</time>
      </trkpt>
      <trkpt lat="42.44484" lon="2.82996">
        <ele>679</ele>
        <time>2024-09-22T06:41:54Z</time>
      </trkpt>
      <trkpt lat="42.44486" lon="2.82999">
        <ele>678</ele>
        <time>2024-09-22T06:41:56Z</time>
      </trkpt>
      <trkpt lat="42.44489" lon="2.83002">
        <ele>678</ele>
        <time>2024-09-22T06:41:59Z</time>
      </trkpt>
      <trkpt lat="42.4449" lon="2.83006">
        <ele>678</ele>
        <time>2024-09-22T06:42:01Z</time>
      </trkpt>
      <trkpt lat="42.44491" lon="2.83011">
        <ele>678</ele>
        <time>2024-09-22T06:42:04Z</time>
      </trkpt>
      <trkpt lat="42.44492" lon="2.83016">
        <ele>678</ele>
        <time>2024-09-22T06:42:07Z</time>
      </trkpt>
      <trkpt lat="42.44491" lon="2.8302">
        <ele>678</ele>
        <time>2024-09-22T06:42:10Z</time>
      </trkpt>
      <trkpt lat="42.4449" lon="2.83025">
        <ele>678</ele>
        <time>2024-09-22T06:42:13Z</time>
      </trkpt>
      <trkpt lat="42.44488" lon="2.83029">
        <ele>677</ele>
        <time>2024-09-22T06:42:17Z</time>
      </trkpt>
      <trkpt lat="42.44486" lon="2.83033">
        <ele>677</ele>
        <time>2024-09-22T06:42:20Z</time>
      </trkpt>
      <trkpt lat="42.44484" lon="2.83037">
        <ele>677</ele>
        <time>2024-09-22T06:42:22Z</time>
      </trkpt>
      <trkpt lat="42.44483" lon="2.83041">
        <ele>676</ele>
        <time>2024-09-22T06:42:24Z</time>
      </trkpt>
      <trkpt lat="42.44481" lon="2.83044">
        <ele>675</ele>
        <time>2024-09-22T06:42:26Z</time>
      </trkpt>
      <trkpt lat="42.4448" lon="2.83048">
        <ele>676</ele>
        <time>2024-09-22T06:42:28Z</time>
      </trkpt>
      <trkpt lat="42.44478" lon="2.83051">
        <ele>675</ele>
        <time>2024-09-22T06:42:30Z</time>
      </trkpt>
      <trkpt lat="42.44477" lon="2.83055">
        <ele>676</ele>
        <time>2024-09-22T06:42:32Z</time>
      </trkpt>
      <trkpt lat="42.44476" lon="2.83058">
        <ele>675</ele>
        <time>2024-09-22T06:42:34Z</time>
      </trkpt>
      <trkpt lat="42.44476" lon="2.83062">
        <ele>675</ele>
        <time>2024-09-22T06:42:36Z</time>
      </trkpt>
      <trkpt lat="42.44475" lon="2.83066">
        <ele>676</ele>
        <time>2024-09-22T06:42:38Z</time>
      </trkpt>
      <trkpt lat="42.44476" lon="2.83071">
        <ele>674</ele>
        <time>2024-09-22T06:42:40Z</time>
      </trkpt>
      <trkpt lat="42.44476" lon="2.83076">
        <ele>674</ele>
        <time>2024-09-22T06:42:43Z</time>
      </trkpt>
      <trkpt lat="42.44477" lon="2.8308">
        <ele>674</ele>
        <time>2024-09-22T06:42:45Z</time>
      </trkpt>
      <trkpt lat="42.44478" lon="2.83084">
        <ele>673</ele>
        <time>2024-09-22T06:42:48Z</time>
      </trkpt>
      <trkpt lat="42.44479" lon="2.83089">
        <ele>673</ele>
        <time>2024-09-22T06:42:51Z</time>
      </trkpt>
      <trkpt lat="42.4448" lon="2.83093">
        <ele>673</ele>
        <time>2024-09-22T06:42:53Z</time>
      </trkpt>
      <trkpt lat="42.44481" lon="2.83097">
        <ele>673</ele>
        <time>2024-09-22T06:42:55Z</time>
      </trkpt>
      <trkpt lat="42.44482" lon="2.83101">
        <ele>672</ele>
        <time>2024-09-22T06:42:56Z</time>
      </trkpt>
      <trkpt lat="42.44483" lon="2.83105">
        <ele>672</ele>
        <time>2024-09-22T06:42:58Z</time>
      </trkpt>
      <trkpt lat="42.44484" lon="2.83109">
        <ele>671</ele>
        <time>2024-09-22T06:43:01Z</time>
      </trkpt>
      <trkpt lat="42.44485" lon="2.83113">
        <ele>671</ele>
        <time>2024-09-22T06:43:03Z</time>
      </trkpt>
      <trkpt lat="42.44486" lon="2.83117">
        <ele>671</ele>
        <time>2024-09-22T06:43:05Z</time>
      </trkpt>
      <trkpt lat="42.44488" lon="2.8312">
        <ele>670</ele>
        <time>2024-09-22T06:43:07Z</time>
      </trkpt>
      <trkpt lat="42.44489" lon="2.83124">
        <ele>670</ele>
        <time>2024-09-22T06:43:10Z</time>
      </trkpt>
      <trkpt lat="42.44491" lon="2.83128">
        <ele>670</ele>
        <time>2024-09-22T06:43:12Z</time>
      </trkpt>
      <trkpt lat="42.44494" lon="2.83131">
        <ele>670</ele>
        <time>2024-09-22T06:43:15Z</time>
      </trkpt>
      <trkpt lat="42.44497" lon="2.83133">
        <ele>671</ele>
        <time>2024-09-22T06:43:17Z</time>
      </trkpt>
      <trkpt lat="42.44499" lon="2.83134">
        <ele>669</ele>
        <time>2024-09-22T06:43:20Z</time>
      </trkpt>
      <trkpt lat="42.44502" lon="2.83135">
        <ele>670</ele>
        <time>2024-09-22T06:43:22Z</time>
      </trkpt>
      <trkpt lat="42.44505" lon="2.83136">
        <ele>670</ele>
        <time>2024-09-22T06:43:24Z</time>
      </trkpt>
      <trkpt lat="42.44508" lon="2.83137">
        <ele>670</ele>
        <time>2024-09-22T06:43:26Z</time>
      </trkpt>
      <trkpt lat="42.44511" lon="2.83137">
        <ele>670</ele>
        <time>2024-09-22T06:43:28Z</time>
      </trkpt>
      <trkpt lat="42.44514" lon="2.83138">
        <ele>670</ele>
        <time>2024-09-22T06:43:30Z</time>
      </trkpt>
      <trkpt lat="42.44517" lon="2.83138">
        <ele>671</ele>
        <time>2024-09-22T06:43:32Z</time>
      </trkpt>
      <trkpt lat="42.4452" lon="2.83138">
        <ele>669</ele>
        <time>2024-09-22T06:43:35Z</time>
      </trkpt>
      <trkpt lat="42.44523" lon="2.83138">
        <ele>669</ele>
        <time>2024-09-22T06:43:37Z</time>
      </trkpt>
      <trkpt lat="42.44526" lon="2.83138">
        <ele>670</ele>
        <time>2024-09-22T06:43:40Z</time>
      </trkpt>
      <trkpt lat="42.44529" lon="2.83138">
        <ele>670</ele>
        <time>2024-09-22T06:43:42Z</time>
      </trkpt>
      <trkpt lat="42.44532" lon="2.83138">
        <ele>670</ele>
        <time>2024-09-22T06:43:45Z</time>
      </trkpt>
      <trkpt lat="42.44536" lon="2.83137">
        <ele>669</ele>
        <time>2024-09-22T06:43:48Z</time>
      </trkpt>
      <trkpt lat="42.4454" lon="2.83137">
        <ele>669</ele>
        <time>2024-09-22T06:43:50Z</time>
      </trkpt>
      <trkpt lat="42.44544" lon="2.83138">
        <ele>671</ele>
        <time>2024-09-22T06:43:54Z</time>
      </trkpt>
      <trkpt lat="42.44547" lon="2.83138">
        <ele>670</ele>
        <time>2024-09-22T06:43:56Z</time>
      </trkpt>
      <trkpt lat="42.44551" lon="2.83139">
        <ele>671</ele>
        <time>2024-09-22T06:43:58Z</time>
      </trkpt>
      <trkpt lat="42.44555" lon="2.83139">
        <ele>673</ele>
        <time>2024-09-22T06:44:02Z</time>
      </trkpt>
      <trkpt lat="42.44558" lon="2.8314">
        <ele>670</ele>
        <time>2024-09-22T06:44:05Z</time>
      </trkpt>
      <trkpt lat="42.44562" lon="2.8314">
        <ele>670</ele>
        <time>2024-09-22T06:44:08Z</time>
      </trkpt>
      <trkpt lat="42.44566" lon="2.83141">
        <ele>670</ele>
        <time>2024-09-22T06:44:11Z</time>
      </trkpt>
      <trkpt lat="42.44571" lon="2.83142">
        <ele>671</ele>
        <time>2024-09-22T06:44:14Z</time>
      </trkpt>
      <trkpt lat="42.44574" lon="2.83143">
        <ele>672</ele>
        <time>2024-09-22T06:44:16Z</time>
      </trkpt>
      <trkpt lat="42.44577" lon="2.83144">
        <ele>673</ele>
        <time>2024-09-22T06:44:18Z</time>
      </trkpt>
      <trkpt lat="42.44581" lon="2.83145">
        <ele>672</ele>
        <time>2024-09-22T06:44:23Z</time>
      </trkpt>
      <trkpt lat="42.44585" lon="2.83146">
        <ele>673</ele>
        <time>2024-09-22T06:44:25Z</time>
      </trkpt>
      <trkpt lat="42.44588" lon="2.83147">
        <ele>673</ele>
        <time>2024-09-22T06:44:28Z</time>
      </trkpt>
      <trkpt lat="42.44592" lon="2.83147">
        <ele>673</ele>
        <time>2024-09-22T06:44:31Z</time>
      </trkpt>
      <trkpt lat="42.44595" lon="2.83148">
        <ele>673</ele>
        <time>2024-09-22T06:44:33Z</time>
      </trkpt>
      <trkpt lat="42.44599" lon="2.83149">
        <ele>673</ele>
        <time>2024-09-22T06:44:36Z</time>
      </trkpt>
      <trkpt lat="42.44602" lon="2.8315">
        <ele>672</ele>
        <time>2024-09-22T06:44:39Z</time>
      </trkpt>
      <trkpt lat="42.44605" lon="2.8315">
        <ele>673</ele>
        <time>2024-09-22T06:44:41Z</time>
      </trkpt>
      <trkpt lat="42.44609" lon="2.83151">
        <ele>674</ele>
        <time>2024-09-22T06:44:43Z</time>
      </trkpt>
      <trkpt lat="42.44613" lon="2.83153">
        <ele>674</ele>
        <time>2024-09-22T06:44:46Z</time>
      </trkpt>
      <trkpt lat="42.44616" lon="2.83154">
        <ele>674</ele>
        <time>2024-09-22T06:44:49Z</time>
      </trkpt>
      <trkpt lat="42.44619" lon="2.83156">
        <ele>674</ele>
        <time>2024-09-22T06:44:51Z</time>
      </trkpt>
      <trkpt lat="42.44622" lon="2.83158">
        <ele>674</ele>
        <time>2024-09-22T06:44:54Z</time>
      </trkpt>
      <trkpt lat="42.44626" lon="2.8316">
        <ele>675</ele>
        <time>2024-09-22T06:44:57Z</time>
      </trkpt>
      <trkpt lat="42.44629" lon="2.83162">
        <ele>676</ele>
        <time>2024-09-22T06:44:59Z</time>
      </trkpt>
      <trkpt lat="42.44632" lon="2.83164">
        <ele>674</ele>
        <time>2024-09-22T06:45:01Z</time>
      </trkpt>
      <trkpt lat="42.44635" lon="2.83166">
        <ele>674</ele>
        <time>2024-09-22T06:45:03Z</time>
      </trkpt>
      <trkpt lat="42.44638" lon="2.83167">
        <ele>674</ele>
        <time>2024-09-22T06:45:06Z</time>
      </trkpt>
      <trkpt lat="42.44641" lon="2.83168">
        <ele>672</ele>
        <time>2024-09-22T06:45:08Z</time>
      </trkpt>
      <trkpt lat="42.44644" lon="2.83169">
        <ele>672</ele>
        <time>2024-09-22T06:45:10Z</time>
      </trkpt>
      <trkpt lat="42.44647" lon="2.83169">
        <ele>672</ele>
        <time>2024-09-22T06:45:12Z</time>
      </trkpt>
      <trkpt lat="42.44651" lon="2.83169">
        <ele>671</ele>
        <time>2024-09-22T06:45:15Z</time>
      </trkpt>
      <trkpt lat="42.44654" lon="2.83169">
        <ele>672</ele>
        <time>2024-09-22T06:45:17Z</time>
      </trkpt>
      <trkpt lat="42.44658" lon="2.83168">
        <ele>671</ele>
        <time>2024-09-22T06:45:20Z</time>
      </trkpt>
      <trkpt lat="42.44662" lon="2.83168">
        <ele>669</ele>
        <time>2024-09-22T06:45:23Z</time>
      </trkpt>
      <trkpt lat="42.44665" lon="2.83167">
        <ele>669</ele>
        <time>2024-09-22T06:45:25Z</time>
      </trkpt>
      <trkpt lat="42.44669" lon="2.83166">
        <ele>669</ele>
        <time>2024-09-22T06:45:28Z</time>
      </trkpt>
      <trkpt lat="42.44672" lon="2.83166">
        <ele>669</ele>
        <time>2024-09-22T06:45:30Z</time>
      </trkpt>
      <trkpt lat="42.44675" lon="2.83165">
        <ele>669</ele>
        <time>2024-09-22T06:45:33Z</time>
      </trkpt>
      <trkpt lat="42.44679" lon="2.83164">
        <ele>668</ele>
        <time>2024-09-22T06:45:36Z</time>
      </trkpt>
      <trkpt lat="42.44682" lon="2.83163">
        <ele>668</ele>
        <time>2024-09-22T06:45:38Z</time>
      </trkpt>
      <trkpt lat="42.44686" lon="2.83162">
        <ele>668</ele>
        <time>2024-09-22T06:45:41Z</time>
      </trkpt>
      <trkpt lat="42.4469" lon="2.8316">
        <ele>667</ele>
        <time>2024-09-22T06:45:44Z</time>
      </trkpt>
      <trkpt lat="42.44692" lon="2.83158">
        <ele>665</ele>
        <time>2024-09-22T06:45:46Z</time>
      </trkpt>
      <trkpt lat="42.44695" lon="2.83157">
        <ele>666</ele>
        <time>2024-09-22T06:45:48Z</time>
      </trkpt>
      <trkpt lat="42.44698" lon="2.83156">
        <ele>666</ele>
        <time>2024-09-22T06:45:50Z</time>
      </trkpt>
      <trkpt lat="42.44701" lon="2.83155">
        <ele>667</ele>
        <time>2024-09-22T06:45:53Z</time>
      </trkpt>
      <trkpt lat="42.44705" lon="2.83153">
        <ele>666</ele>
        <time>2024-09-22T06:45:56Z</time>
      </trkpt>
      <trkpt lat="42.44709" lon="2.83151">
        <ele>665</ele>
        <time>2024-09-22T06:45:59Z</time>
      </trkpt>
      <trkpt lat="42.44712" lon="2.83148">
        <ele>666</ele>
        <time>2024-09-22T06:46:02Z</time>
      </trkpt>
      <trkpt lat="42.44715" lon="2.83146">
        <ele>665</ele>
        <time>2024-09-22T06:46:04Z</time>
      </trkpt>
      <trkpt lat="42.44718" lon="2.83144">
        <ele>665</ele>
        <time>2024-09-22T06:46:07Z</time>
      </trkpt>
      <trkpt lat="42.44721" lon="2.83142">
        <ele>664</ele>
        <time>2024-09-22T06:46:10Z</time>
      </trkpt>
      <trkpt lat="42.44725" lon="2.8314">
        <ele>664</ele>
        <time>2024-09-22T06:46:14Z</time>
      </trkpt>
      <trkpt lat="42.44728" lon="2.83138">
        <ele>663</ele>
        <time>2024-09-22T06:46:16Z</time>
      </trkpt>
      <trkpt lat="42.4473" lon="2.83136">
        <ele>662</ele>
        <time>2024-09-22T06:46:18Z</time>
      </trkpt>
      <trkpt lat="42.44733" lon="2.83134">
        <ele>662</ele>
        <time>2024-09-22T06:46:20Z</time>
      </trkpt>
      <trkpt lat="42.44735" lon="2.83132">
        <ele>662</ele>
        <time>2024-09-22T06:46:22Z</time>
      </trkpt>
      <trkpt lat="42.44739" lon="2.8313">
        <ele>662</ele>
        <time>2024-09-22T06:46:25Z</time>
      </trkpt>
      <trkpt lat="42.44742" lon="2.83129">
        <ele>662</ele>
        <time>2024-09-22T06:46:27Z</time>
      </trkpt>
      <trkpt lat="42.44745" lon="2.83127">
        <ele>661</ele>
        <time>2024-09-22T06:46:32Z</time>
      </trkpt>
      <trkpt lat="42.44748" lon="2.83125">
        <ele>661</ele>
        <time>2024-09-22T06:46:35Z</time>
      </trkpt>
      <trkpt lat="42.44752" lon="2.83123">
        <ele>661</ele>
        <time>2024-09-22T06:46:38Z</time>
      </trkpt>
      <trkpt lat="42.44755" lon="2.8312">
        <ele>662</ele>
        <time>2024-09-22T06:46:40Z</time>
      </trkpt>
      <trkpt lat="42.44759" lon="2.83118">
        <ele>661</ele>
        <time>2024-09-22T06:46:43Z</time>
      </trkpt>
      <trkpt lat="42.44762" lon="2.83115">
        <ele>661</ele>
        <time>2024-09-22T06:46:46Z</time>
      </trkpt>
      <trkpt lat="42.44765" lon="2.83113">
        <ele>660</ele>
        <time>2024-09-22T06:46:49Z</time>
      </trkpt>
      <trkpt lat="42.44768" lon="2.8311">
        <ele>660</ele>
        <time>2024-09-22T06:46:52Z</time>
      </trkpt>
      <trkpt lat="42.44771" lon="2.83107">
        <ele>660</ele>
        <time>2024-09-22T06:46:55Z</time>
      </trkpt>
      <trkpt lat="42.44774" lon="2.83104">
        <ele>659</ele>
        <time>2024-09-22T06:46:57Z</time>
      </trkpt>
      <trkpt lat="42.44777" lon="2.83102">
        <ele>659</ele>
        <time>2024-09-22T06:46:59Z</time>
      </trkpt>
      <trkpt lat="42.4478" lon="2.831">
        <ele>658</ele>
        <time>2024-09-22T06:47:03Z</time>
      </trkpt>
      <trkpt lat="42.44783" lon="2.83097">
        <ele>659</ele>
        <time>2024-09-22T06:47:04Z</time>
      </trkpt>
      <trkpt lat="42.44786" lon="2.83094">
        <ele>658</ele>
        <time>2024-09-22T06:47:07Z</time>
      </trkpt>
      <trkpt lat="42.44788" lon="2.83093">
        <ele>659</ele>
        <time>2024-09-22T06:47:09Z</time>
      </trkpt>
      <trkpt lat="42.44791" lon="2.83091">
        <ele>659</ele>
        <time>2024-09-22T06:47:12Z</time>
      </trkpt>
      <trkpt lat="42.44793" lon="2.83089">
        <ele>658</ele>
        <time>2024-09-22T06:47:15Z</time>
      </trkpt>
      <trkpt lat="42.44796" lon="2.83086">
        <ele>658</ele>
        <time>2024-09-22T06:47:18Z</time>
      </trkpt>
      <trkpt lat="42.44798" lon="2.83084">
        <ele>658</ele>
        <time>2024-09-22T06:47:24Z</time>
      </trkpt>
      <trkpt lat="42.448" lon="2.83081">
        <ele>656</ele>
        <time>2024-09-22T06:47:35Z</time>
      </trkpt>
      <trkpt lat="42.44802" lon="2.83078">
        <ele>656</ele>
        <time>2024-09-22T06:47:38Z</time>
      </trkpt>
      <trkpt lat="42.44805" lon="2.83075">
        <ele>655</ele>
        <time>2024-09-22T06:47:41Z</time>
      </trkpt>
      <trkpt lat="42.44807" lon="2.83073">
        <ele>654</ele>
        <time>2024-09-22T06:47:43Z</time>
      </trkpt>
      <trkpt lat="42.44809" lon="2.8307">
        <ele>655</ele>
        <time>2024-09-22T06:47:45Z</time>
      </trkpt>
      <trkpt lat="42.44812" lon="2.83068">
        <ele>655</ele>
        <time>2024-09-22T06:47:48Z</time>
      </trkpt>
      <trkpt lat="42.44814" lon="2.83065">
        <ele>654</ele>
        <time>2024-09-22T06:47:51Z</time>
      </trkpt>
      <trkpt lat="42.44817" lon="2.83062">
        <ele>654</ele>
        <time>2024-09-22T06:47:54Z</time>
      </trkpt>
      <trkpt lat="42.44819" lon="2.83058">
        <ele>654</ele>
        <time>2024-09-22T06:47:56Z</time>
      </trkpt>
      <trkpt lat="42.44822" lon="2.83055">
        <ele>654</ele>
        <time>2024-09-22T06:47:59Z</time>
      </trkpt>
      <trkpt lat="42.44825" lon="2.83052">
        <ele>653</ele>
        <time>2024-09-22T06:48:01Z</time>
      </trkpt>
      <trkpt lat="42.44827" lon="2.83049">
        <ele>654</ele>
        <time>2024-09-22T06:48:03Z</time>
      </trkpt>
      <trkpt lat="42.4483" lon="2.83046">
        <ele>655</ele>
        <time>2024-09-22T06:48:05Z</time>
      </trkpt>
      <trkpt lat="42.44833" lon="2.83043">
        <ele>653</ele>
        <time>2024-09-22T06:48:07Z</time>
      </trkpt>
      <trkpt lat="42.44835" lon="2.83041">
        <ele>652</ele>
        <time>2024-09-22T06:48:09Z</time>
      </trkpt>
      <trkpt lat="42.44838" lon="2.83038">
        <ele>652</ele>
        <time>2024-09-22T06:48:11Z</time>
      </trkpt>
      <trkpt lat="42.4484" lon="2.83036">
        <ele>653</ele>
        <time>2024-09-22T06:48:13Z</time>
      </trkpt>
      <trkpt lat="42.44843" lon="2.83034">
        <ele>653</ele>
        <time>2024-09-22T06:48:15Z</time>
      </trkpt>
      <trkpt lat="42.44845" lon="2.83031">
        <ele>653</ele>
        <time>2024-09-22T06:48:17Z</time>
      </trkpt>
      <trkpt lat="42.44848" lon="2.83029">
        <ele>653</ele>
        <time>2024-09-22T06:48:19Z</time>
      </trkpt>
      <trkpt lat="42.44851" lon="2.83027">
        <ele>652</ele>
        <time>2024-09-22T06:48:21Z</time>
      </trkpt>
      <trkpt lat="42.44853" lon="2.83025">
        <ele>652</ele>
        <time>2024-09-22T06:48:23Z</time>
      </trkpt>
      <trkpt lat="42.44856" lon="2.83024">
        <ele>652</ele>
        <time>2024-09-22T06:48:25Z</time>
      </trkpt>
      <trkpt lat="42.44859" lon="2.83022">
        <ele>651</ele>
        <time>2024-09-22T06:48:27Z</time>
      </trkpt>
      <trkpt lat="42.44861" lon="2.83021">
        <ele>652</ele>
        <time>2024-09-22T06:48:29Z</time>
      </trkpt>
      <trkpt lat="42.44864" lon="2.83019">
        <ele>650</ele>
        <time>2024-09-22T06:48:32Z</time>
      </trkpt>
      <trkpt lat="42.44866" lon="2.83016">
        <ele>649</ele>
        <time>2024-09-22T06:48:36Z</time>
      </trkpt>
      <trkpt lat="42.44869" lon="2.83014">
        <ele>649</ele>
        <time>2024-09-22T06:48:38Z</time>
      </trkpt>
      <trkpt lat="42.44872" lon="2.83012">
        <ele>647</ele>
        <time>2024-09-22T06:48:41Z</time>
      </trkpt>
      <trkpt lat="42.44874" lon="2.8301">
        <ele>647</ele>
        <time>2024-09-22T06:48:43Z</time>
      </trkpt>
      <trkpt lat="42.44876" lon="2.83008">
        <ele>648</ele>
        <time>2024-09-22T06:48:46Z</time>
      </trkpt>
      <trkpt lat="42.44878" lon="2.83005">
        <ele>646</ele>
        <time>2024-09-22T06:48:49Z</time>
      </trkpt>
      <trkpt lat="42.44881" lon="2.83003">
        <ele>647</ele>
        <time>2024-09-22T06:48:52Z</time>
      </trkpt>
      <trkpt lat="42.44883" lon="2.83">
        <ele>647</ele>
        <time>2024-09-22T06:48:54Z</time>
      </trkpt>
      <trkpt lat="42.44886" lon="2.82997">
        <ele>648</ele>
        <time>2024-09-22T06:48:57Z</time>
      </trkpt>
      <trkpt lat="42.44889" lon="2.82993">
        <ele>647</ele>
        <time>2024-09-22T06:49:00Z</time>
      </trkpt>
      <trkpt lat="42.44891" lon="2.8299">
        <ele>647</ele>
        <time>2024-09-22T06:49:02Z</time>
      </trkpt>
      <trkpt lat="42.44894" lon="2.82987">
        <ele>646</ele>
        <time>2024-09-22T06:49:05Z</time>
      </trkpt>
      <trkpt lat="42.44897" lon="2.82984">
        <ele>645</ele>
        <time>2024-09-22T06:49:07Z</time>
      </trkpt>
      <trkpt lat="42.44899" lon="2.82982">
        <ele>645</ele>
        <time>2024-09-22T06:49:09Z</time>
      </trkpt>
      <trkpt lat="42.44901" lon="2.82979">
        <ele>644</ele>
        <time>2024-09-22T06:49:12Z</time>
      </trkpt>
      <trkpt lat="42.44904" lon="2.82977">
        <ele>645</ele>
        <time>2024-09-22T06:49:14Z</time>
      </trkpt>
      <trkpt lat="42.44906" lon="2.82974">
        <ele>643</ele>
        <time>2024-09-22T06:49:17Z</time>
      </trkpt>
      <trkpt lat="42.44909" lon="2.82971">
        <ele>644</ele>
        <time>2024-09-22T06:49:19Z</time>
      </trkpt>
      <trkpt lat="42.44911" lon="2.82968">
        <ele>645</ele>
        <time>2024-09-22T06:49:21Z</time>
      </trkpt>
      <trkpt lat="42.44913" lon="2.82965">
        <ele>644</ele>
        <time>2024-09-22T06:49:23Z</time>
      </trkpt>
      <trkpt lat="42.44916" lon="2.82962">
        <ele>645</ele>
        <time>2024-09-22T06:49:26Z</time>
      </trkpt>
      <trkpt lat="42.44918" lon="2.82959">
        <ele>645</ele>
        <time>2024-09-22T06:49:28Z</time>
      </trkpt>
      <trkpt lat="42.4492" lon="2.82957">
        <ele>644</ele>
        <time>2024-09-22T06:49:30Z</time>
      </trkpt>
      <trkpt lat="42.44923" lon="2.82953">
        <ele>644</ele>
        <time>2024-09-22T06:49:33Z</time>
      </trkpt>
      <trkpt lat="42.44925" lon="2.8295">
        <ele>644</ele>
        <time>2024-09-22T06:49:35Z</time>
      </trkpt>
      <trkpt lat="42.44928" lon="2.82948">
        <ele>643</ele>
        <time>2024-09-22T06:49:38Z</time>
      </trkpt>
      <trkpt lat="42.44931" lon="2.82949">
        <ele>644</ele>
        <time>2024-09-22T06:49:41Z</time>
      </trkpt>
      <trkpt lat="42.44931" lon="2.82951">
        <ele>644</ele>
        <time>2024-09-22T06:49:44Z</time>
      </trkpt>
      <trkpt lat="42.44931" lon="2.82955">
        <ele>642</ele>
        <time>2024-09-22T06:49:47Z</time>
      </trkpt>
      <trkpt lat="42.44929" lon="2.82959">
        <ele>641</ele>
        <time>2024-09-22T06:49:49Z</time>
      </trkpt>
      <trkpt lat="42.44927" lon="2.82962">
        <ele>643</ele>
        <time>2024-09-22T06:49:51Z</time>
      </trkpt>
      <trkpt lat="42.44925" lon="2.82965">
        <ele>642</ele>
        <time>2024-09-22T06:49:53Z</time>
      </trkpt>
      <trkpt lat="42.44924" lon="2.82969">
        <ele>642</ele>
        <time>2024-09-22T06:49:55Z</time>
      </trkpt>
      <trkpt lat="42.44922" lon="2.82972">
        <ele>642</ele>
        <time>2024-09-22T06:49:57Z</time>
      </trkpt>
      <trkpt lat="42.4492" lon="2.82975">
        <ele>642</ele>
        <time>2024-09-22T06:50:00Z</time>
      </trkpt>
      <trkpt lat="42.44917" lon="2.8298">
        <ele>642</ele>
        <time>2024-09-22T06:50:03Z</time>
      </trkpt>
      <trkpt lat="42.44915" lon="2.82984">
        <ele>640</ele>
        <time>2024-09-22T06:50:06Z</time>
      </trkpt>
      <trkpt lat="42.44914" lon="2.82988">
        <ele>641</ele>
        <time>2024-09-22T06:50:08Z</time>
      </trkpt>
      <trkpt lat="42.44912" lon="2.82992">
        <ele>639</ele>
        <time>2024-09-22T06:50:11Z</time>
      </trkpt>
      <trkpt lat="42.4491" lon="2.82997">
        <ele>640</ele>
        <time>2024-09-22T06:50:15Z</time>
      </trkpt>
      <trkpt lat="42.44908" lon="2.83">
        <ele>640</ele>
        <time>2024-09-22T06:50:17Z</time>
      </trkpt>
      <trkpt lat="42.44906" lon="2.83004">
        <ele>639</ele>
        <time>2024-09-22T06:50:20Z</time>
      </trkpt>
      <trkpt lat="42.44904" lon="2.83008">
        <ele>638</ele>
        <time>2024-09-22T06:50:23Z</time>
      </trkpt>
      <trkpt lat="42.44903" lon="2.83012">
        <ele>638</ele>
        <time>2024-09-22T06:50:25Z</time>
      </trkpt>
      <trkpt lat="42.44901" lon="2.83016">
        <ele>637</ele>
        <time>2024-09-22T06:50:27Z</time>
      </trkpt>
      <trkpt lat="42.44899" lon="2.83021">
        <ele>638</ele>
        <time>2024-09-22T06:50:29Z</time>
      </trkpt>
      <trkpt lat="42.44897" lon="2.83025">
        <ele>636</ele>
        <time>2024-09-22T06:50:32Z</time>
      </trkpt>
      <trkpt lat="42.44895" lon="2.83028">
        <ele>637</ele>
        <time>2024-09-22T06:50:34Z</time>
      </trkpt>
      <trkpt lat="42.44892" lon="2.83031">
        <ele>637</ele>
        <time>2024-09-22T06:50:37Z</time>
      </trkpt>
      <trkpt lat="42.4489" lon="2.83034">
        <ele>637</ele>
        <time>2024-09-22T06:50:41Z</time>
      </trkpt>
      <trkpt lat="42.44888" lon="2.83037">
        <ele>637</ele>
        <time>2024-09-22T06:50:44Z</time>
      </trkpt>
      <trkpt lat="42.44885" lon="2.83041">
        <ele>636</ele>
        <time>2024-09-22T06:50:46Z</time>
      </trkpt>
      <trkpt lat="42.44884" lon="2.83044">
        <ele>636</ele>
        <time>2024-09-22T06:50:48Z</time>
      </trkpt>
      <trkpt lat="42.44882" lon="2.83047">
        <ele>636</ele>
        <time>2024-09-22T06:50:50Z</time>
      </trkpt>
      <trkpt lat="42.4488" lon="2.8305">
        <ele>636</ele>
        <time>2024-09-22T06:50:52Z</time>
      </trkpt>
      <trkpt lat="42.44878" lon="2.83053">
        <ele>635</ele>
        <time>2024-09-22T06:50:54Z</time>
      </trkpt>
      <trkpt lat="42.44876" lon="2.83056">
        <ele>635</ele>
        <time>2024-09-22T06:50:56Z</time>
      </trkpt>
      <trkpt lat="42.44874" lon="2.83059">
        <ele>634</ele>
        <time>2024-09-22T06:50:58Z</time>
      </trkpt>
      <trkpt lat="42.44872" lon="2.83062">
        <ele>635</ele>
        <time>2024-09-22T06:51:00Z</time>
      </trkpt>
      <trkpt lat="42.4487" lon="2.83066">
        <ele>636</ele>
        <time>2024-09-22T06:51:02Z</time>
      </trkpt>
      <trkpt lat="42.44868" lon="2.83069">
        <ele>637</ele>
        <time>2024-09-22T06:51:05Z</time>
      </trkpt>
      <trkpt lat="42.44867" lon="2.83073">
        <ele>636</ele>
        <time>2024-09-22T06:51:07Z</time>
      </trkpt>
      <trkpt lat="42.44866" lon="2.83077">
        <ele>636</ele>
        <time>2024-09-22T06:51:09Z</time>
      </trkpt>
      <trkpt lat="42.44867" lon="2.83075">
        <ele>635</ele>
        <time>2024-09-22T06:51:16Z</time>
      </trkpt>
      <trkpt lat="42.44866" lon="2.83077">
        <ele>633</ele>
        <time>2024-09-22T06:51:24Z</time>
      </trkpt>
      <trkpt lat="42.44866" lon="2.8308">
        <ele>633</ele>
        <time>2024-09-22T06:51:28Z</time>
      </trkpt>
      <trkpt lat="42.44865" lon="2.83085">
        <ele>633</ele>
        <time>2024-09-22T06:51:30Z</time>
      </trkpt>
      <trkpt lat="42.44864" lon="2.83089">
        <ele>634</ele>
        <time>2024-09-22T06:51:37Z</time>
      </trkpt>
      <trkpt lat="42.44864" lon="2.83093">
        <ele>634</ele>
        <time>2024-09-22T06:51:39Z</time>
      </trkpt>
      <trkpt lat="42.44863" lon="2.83097">
        <ele>634</ele>
        <time>2024-09-22T06:51:42Z</time>
      </trkpt>
      <trkpt lat="42.44862" lon="2.83102">
        <ele>632</ele>
        <time>2024-09-22T06:51:45Z</time>
      </trkpt>
      <trkpt lat="42.44861" lon="2.83107">
        <ele>632</ele>
        <time>2024-09-22T06:51:49Z</time>
      </trkpt>
      <trkpt lat="42.4486" lon="2.83112">
        <ele>632</ele>
        <time>2024-09-22T06:51:51Z</time>
      </trkpt>
      <trkpt lat="42.44859" lon="2.83116">
        <ele>632</ele>
        <time>2024-09-22T06:51:53Z</time>
      </trkpt>
      <trkpt lat="42.44858" lon="2.83121">
        <ele>633</ele>
        <time>2024-09-22T06:51:56Z</time>
      </trkpt>
      <trkpt lat="42.44857" lon="2.83125">
        <ele>631</ele>
        <time>2024-09-22T06:51:59Z</time>
      </trkpt>
      <trkpt lat="42.44856" lon="2.83129">
        <ele>630</ele>
        <time>2024-09-22T06:52:01Z</time>
      </trkpt>
      <trkpt lat="42.44856" lon="2.83133">
        <ele>631</ele>
        <time>2024-09-22T06:52:03Z</time>
      </trkpt>
      <trkpt lat="42.44855" lon="2.83137">
        <ele>631</ele>
        <time>2024-09-22T06:52:05Z</time>
      </trkpt>
      <trkpt lat="42.44854" lon="2.83141">
        <ele>630</ele>
        <time>2024-09-22T06:52:07Z</time>
      </trkpt>
      <trkpt lat="42.44852" lon="2.83145">
        <ele>629</ele>
        <time>2024-09-22T06:52:10Z</time>
      </trkpt>
      <trkpt lat="42.44851" lon="2.83149">
        <ele>629</ele>
        <time>2024-09-22T06:52:12Z</time>
      </trkpt>
      <trkpt lat="42.4485" lon="2.83154">
        <ele>629</ele>
        <time>2024-09-22T06:52:15Z</time>
      </trkpt>
      <trkpt lat="42.44849" lon="2.83158">
        <ele>629</ele>
        <time>2024-09-22T06:52:17Z</time>
      </trkpt>
      <trkpt lat="42.44847" lon="2.83162">
        <ele>628</ele>
        <time>2024-09-22T06:52:20Z</time>
      </trkpt>
      <trkpt lat="42.44846" lon="2.83166">
        <ele>627</ele>
        <time>2024-09-22T06:52:22Z</time>
      </trkpt>
      <trkpt lat="42.44844" lon="2.83169">
        <ele>627</ele>
        <time>2024-09-22T06:52:24Z</time>
      </trkpt>
      <trkpt lat="42.44843" lon="2.83173">
        <ele>628</ele>
        <time>2024-09-22T06:52:26Z</time>
      </trkpt>
      <trkpt lat="42.44841" lon="2.83176">
        <ele>628</ele>
        <time>2024-09-22T06:52:28Z</time>
      </trkpt>
      <trkpt lat="42.44839" lon="2.8318">
        <ele>627</ele>
        <time>2024-09-22T06:52:31Z</time>
      </trkpt>
      <trkpt lat="42.44838" lon="2.83184">
        <ele>627</ele>
        <time>2024-09-22T06:52:33Z</time>
      </trkpt>
      <trkpt lat="42.44837" lon="2.83188">
        <ele>627</ele>
        <time>2024-09-22T06:52:35Z</time>
      </trkpt>
      <trkpt lat="42.44835" lon="2.83192">
        <ele>628</ele>
        <time>2024-09-22T06:52:38Z</time>
      </trkpt>
      <trkpt lat="42.44834" lon="2.83196">
        <ele>627</ele>
        <time>2024-09-22T06:52:40Z</time>
      </trkpt>
      <trkpt lat="42.44832" lon="2.832">
        <ele>625</ele>
        <time>2024-09-22T06:52:43Z</time>
      </trkpt>
      <trkpt lat="42.44831" lon="2.83204">
        <ele>626</ele>
        <time>2024-09-22T06:52:45Z</time>
      </trkpt>
      <trkpt lat="42.44829" lon="2.83208">
        <ele>625</ele>
        <time>2024-09-22T06:52:49Z</time>
      </trkpt>
      <trkpt lat="42.44828" lon="2.83213">
        <ele>625</ele>
        <time>2024-09-22T06:52:52Z</time>
      </trkpt>
      <trkpt lat="42.44826" lon="2.83217">
        <ele>625</ele>
        <time>2024-09-22T06:52:54Z</time>
      </trkpt>
      <trkpt lat="42.44824" lon="2.8322">
        <ele>624</ele>
        <time>2024-09-22T06:52:57Z</time>
      </trkpt>
      <trkpt lat="42.44822" lon="2.83224">
        <ele>624</ele>
        <time>2024-09-22T06:52:59Z</time>
      </trkpt>
      <trkpt lat="42.4482" lon="2.83226">
        <ele>625</ele>
        <time>2024-09-22T06:53:01Z</time>
      </trkpt>
      <trkpt lat="42.44818" lon="2.83229">
        <ele>624</ele>
        <time>2024-09-22T06:53:03Z</time>
      </trkpt>
      <trkpt lat="42.44816" lon="2.83233">
        <ele>624</ele>
        <time>2024-09-22T06:53:06Z</time>
      </trkpt>
      <trkpt lat="42.44814" lon="2.83237">
        <ele>623</ele>
        <time>2024-09-22T06:53:09Z</time>
      </trkpt>
      <trkpt lat="42.44812" lon="2.8324">
        <ele>623</ele>
        <time>2024-09-22T06:53:11Z</time>
      </trkpt>
      <trkpt lat="42.44809" lon="2.83242">
        <ele>623</ele>
        <time>2024-09-22T06:53:13Z</time>
      </trkpt>
      <trkpt lat="42.44807" lon="2.83246">
        <ele>621</ele>
        <time>2024-09-22T06:53:16Z</time>
      </trkpt>
      <trkpt lat="42.44806" lon="2.8325">
        <ele>621</ele>
        <time>2024-09-22T06:53:18Z</time>
      </trkpt>
      <trkpt lat="42.44805" lon="2.83254">
        <ele>620</ele>
        <time>2024-09-22T06:53:22Z</time>
      </trkpt>
      <trkpt lat="42.44804" lon="2.83258">
        <ele>620</ele>
        <time>2024-09-22T06:53:24Z</time>
      </trkpt>
      <trkpt lat="42.44804" lon="2.83263">
        <ele>621</ele>
        <time>2024-09-22T06:53:26Z</time>
      </trkpt>
      <trkpt lat="42.44804" lon="2.83267">
        <ele>619</ele>
        <time>2024-09-22T06:53:28Z</time>
      </trkpt>
      <trkpt lat="42.44804" lon="2.83272">
        <ele>622</ele>
        <time>2024-09-22T06:53:29Z</time>
      </trkpt>
      <trkpt lat="42.44805" lon="2.83276">
        <ele>623</ele>
        <time>2024-09-22T06:53:31Z</time>
      </trkpt>
      <trkpt lat="42.44806" lon="2.8328">
        <ele>623</ele>
        <time>2024-09-22T06:53:33Z</time>
      </trkpt>
      <trkpt lat="42.44806" lon="2.83283">
        <ele>623</ele>
        <time>2024-09-22T06:53:35Z</time>
      </trkpt>
      <trkpt lat="42.44808" lon="2.83287">
        <ele>622</ele>
        <time>2024-09-22T06:53:38Z</time>
      </trkpt>
      <trkpt lat="42.4481" lon="2.83292">
        <ele>622</ele>
        <time>2024-09-22T06:53:41Z</time>
      </trkpt>
      <trkpt lat="42.44813" lon="2.83297">
        <ele>621</ele>
        <time>2024-09-22T06:53:44Z</time>
      </trkpt>
      <trkpt lat="42.44816" lon="2.83301">
        <ele>620</ele>
        <time>2024-09-22T06:53:47Z</time>
      </trkpt>
      <trkpt lat="42.44819" lon="2.83304">
        <ele>619</ele>
        <time>2024-09-22T06:53:49Z</time>
      </trkpt>
      <trkpt lat="42.44821" lon="2.83306">
        <ele>619</ele>
        <time>2024-09-22T06:53:51Z</time>
      </trkpt>
      <trkpt lat="42.44824" lon="2.83308">
        <ele>620</ele>
        <time>2024-09-22T06:53:53Z</time>
      </trkpt>
      <trkpt lat="42.44827" lon="2.8331">
        <ele>619</ele>
        <time>2024-09-22T06:53:56Z</time>
      </trkpt>
      <trkpt lat="42.44829" lon="2.83312">
        <ele>619</ele>
        <time>2024-09-22T06:53:58Z</time>
      </trkpt>
      <trkpt lat="42.44832" lon="2.83312">
        <ele>618</ele>
        <time>2024-09-22T06:54:02Z</time>
      </trkpt>
      <trkpt lat="42.44836" lon="2.83312">
        <ele>618</ele>
        <time>2024-09-22T06:54:05Z</time>
      </trkpt>
      <trkpt lat="42.44839" lon="2.83312">
        <ele>616</ele>
        <time>2024-09-22T06:54:07Z</time>
      </trkpt>
      <trkpt lat="42.44842" lon="2.83312">
        <ele>617</ele>
        <time>2024-09-22T06:54:09Z</time>
      </trkpt>
      <trkpt lat="42.44845" lon="2.83311">
        <ele>617</ele>
        <time>2024-09-22T06:54:11Z</time>
      </trkpt>
      <trkpt lat="42.44849" lon="2.8331">
        <ele>617</ele>
        <time>2024-09-22T06:54:14Z</time>
      </trkpt>
      <trkpt lat="42.44853" lon="2.83308">
        <ele>616</ele>
        <time>2024-09-22T06:54:17Z</time>
      </trkpt>
      <trkpt lat="42.44856" lon="2.83306">
        <ele>615</ele>
        <time>2024-09-22T06:54:20Z</time>
      </trkpt>
      <trkpt lat="42.4486" lon="2.83304">
        <ele>615</ele>
        <time>2024-09-22T06:54:23Z</time>
      </trkpt>
      <trkpt lat="42.44863" lon="2.83301">
        <ele>612</ele>
        <time>2024-09-22T06:54:25Z</time>
      </trkpt>
      <trkpt lat="42.44867" lon="2.83299">
        <ele>614</ele>
        <time>2024-09-22T06:54:28Z</time>
      </trkpt>
      <trkpt lat="42.44871" lon="2.83296">
        <ele>614</ele>
        <time>2024-09-22T06:54:31Z</time>
      </trkpt>
      <trkpt lat="42.44875" lon="2.83293">
        <ele>614</ele>
        <time>2024-09-22T06:54:36Z</time>
      </trkpt>
      <trkpt lat="42.44879" lon="2.83292">
        <ele>615</ele>
        <time>2024-09-22T06:54:38Z</time>
      </trkpt>
      <trkpt lat="42.44882" lon="2.83291">
        <ele>613</ele>
        <time>2024-09-22T06:54:41Z</time>
      </trkpt>
      <trkpt lat="42.44886" lon="2.83292">
        <ele>612</ele>
        <time>2024-09-22T06:54:44Z</time>
      </trkpt>
      <trkpt lat="42.4489" lon="2.83292">
        <ele>610</ele>
        <time>2024-09-22T06:54:47Z</time>
      </trkpt>
      <trkpt lat="42.44893" lon="2.83292">
        <ele>610</ele>
        <time>2024-09-22T06:54:49Z</time>
      </trkpt>
      <trkpt lat="42.44897" lon="2.83292">
        <ele>611</ele>
        <time>2024-09-22T06:54:53Z</time>
      </trkpt>
      <trkpt lat="42.44901" lon="2.83292">
        <ele>611</ele>
        <time>2024-09-22T06:54:56Z</time>
      </trkpt>
      <trkpt lat="42.44904" lon="2.83291">
        <ele>610</ele>
        <time>2024-09-22T06:54:58Z</time>
      </trkpt>
      <trkpt lat="42.44907" lon="2.8329">
        <ele>611</ele>
        <time>2024-09-22T06:55:00Z</time>
      </trkpt>
      <trkpt lat="42.4491" lon="2.83289">
        <ele>610</ele>
        <time>2024-09-22T06:55:03Z</time>
      </trkpt>
      <trkpt lat="42.44913" lon="2.83287">
        <ele>610</ele>
        <time>2024-09-22T06:55:05Z</time>
      </trkpt>
      <trkpt lat="42.44916" lon="2.83285">
        <ele>609</ele>
        <time>2024-09-22T06:55:08Z</time>
      </trkpt>
      <trkpt lat="42.44919" lon="2.83283">
        <ele>609</ele>
        <time>2024-09-22T06:55:10Z</time>
      </trkpt>
      <trkpt lat="42.44922" lon="2.83281">
        <ele>609</ele>
        <time>2024-09-22T06:55:12Z</time>
      </trkpt>
      <trkpt lat="42.44924" lon="2.83278">
        <ele>609</ele>
        <time>2024-09-22T06:55:14Z</time>
      </trkpt>
      <trkpt lat="42.44928" lon="2.83276">
        <ele>609</ele>
        <time>2024-09-22T06:55:17Z</time>
      </trkpt>
      <trkpt lat="42.4493" lon="2.83274">
        <ele>607</ele>
        <time>2024-09-22T06:55:19Z</time>
      </trkpt>
      <trkpt lat="42.44933" lon="2.83271">
        <ele>607</ele>
        <time>2024-09-22T06:55:21Z</time>
      </trkpt>
      <trkpt lat="42.44936" lon="2.83269">
        <ele>607</ele>
        <time>2024-09-22T06:55:23Z</time>
      </trkpt>
      <trkpt lat="42.44938" lon="2.83266">
        <ele>607</ele>
        <time>2024-09-22T06:55:25Z</time>
      </trkpt>
      <trkpt lat="42.44941" lon="2.83263">
        <ele>606</ele>
        <time>2024-09-22T06:55:27Z</time>
      </trkpt>
      <trkpt lat="42.44943" lon="2.83259">
        <ele>605</ele>
        <time>2024-09-22T06:55:30Z</time>
      </trkpt>
      <trkpt lat="42.44945" lon="2.83256">
        <ele>604</ele>
        <time>2024-09-22T06:55:33Z</time>
      </trkpt>
      <trkpt lat="42.44948" lon="2.83254">
        <ele>605</ele>
        <time>2024-09-22T06:55:34Z</time>
      </trkpt>
      <trkpt lat="42.4495" lon="2.83251">
        <ele>605</ele>
        <time>2024-09-22T06:55:38Z</time>
      </trkpt>
      <trkpt lat="42.44953" lon="2.83248">
        <ele>604</ele>
        <time>2024-09-22T06:55:40Z</time>
      </trkpt>
      <trkpt lat="42.44956" lon="2.83244">
        <ele>604</ele>
        <time>2024-09-22T06:55:43Z</time>
      </trkpt>
      <trkpt lat="42.44959" lon="2.83241">
        <ele>605</ele>
        <time>2024-09-22T06:55:46Z</time>
      </trkpt>
      <trkpt lat="42.44962" lon="2.83237">
        <ele>604</ele>
        <time>2024-09-22T06:55:49Z</time>
      </trkpt>
      <trkpt lat="42.44965" lon="2.83235">
        <ele>604</ele>
        <time>2024-09-22T06:55:51Z</time>
      </trkpt>
      <trkpt lat="42.44967" lon="2.83232">
        <ele>603</ele>
        <time>2024-09-22T06:55:54Z</time>
      </trkpt>
      <trkpt lat="42.44971" lon="2.8323">
        <ele>603</ele>
        <time>2024-09-22T06:55:56Z</time>
      </trkpt>
      <trkpt lat="42.44974" lon="2.83229">
        <ele>602</ele>
        <time>2024-09-22T06:55:59Z</time>
      </trkpt>
      <trkpt lat="42.44977" lon="2.83227">
        <ele>600</ele>
        <time>2024-09-22T06:56:02Z</time>
      </trkpt>
      <trkpt lat="42.4498" lon="2.83226">
        <ele>600</ele>
        <time>2024-09-22T06:56:04Z</time>
      </trkpt>
      <trkpt lat="42.44984" lon="2.83224">
        <ele>601</ele>
        <time>2024-09-22T06:56:06Z</time>
      </trkpt>
      <trkpt lat="42.44986" lon="2.83222">
        <ele>601</ele>
        <time>2024-09-22T06:56:09Z</time>
      </trkpt>
      <trkpt lat="42.44989" lon="2.83219">
        <ele>601</ele>
        <time>2024-09-22T06:56:13Z</time>
      </trkpt>
      <trkpt lat="42.44992" lon="2.83217">
        <ele>600</ele>
        <time>2024-09-22T06:56:16Z</time>
      </trkpt>
      <trkpt lat="42.44995" lon="2.83215">
        <ele>599</ele>
        <time>2024-09-22T06:56:17Z</time>
      </trkpt>
      <trkpt lat="42.44998" lon="2.83213">
        <ele>600</ele>
        <time>2024-09-22T06:56:20Z</time>
      </trkpt>
      <trkpt lat="42.45002" lon="2.83211">
        <ele>600</ele>
        <time>2024-09-22T06:56:23Z</time>
      </trkpt>
      <trkpt lat="42.45005" lon="2.83209">
        <ele>599</ele>
        <time>2024-09-22T06:56:26Z</time>
      </trkpt>
      <trkpt lat="42.45008" lon="2.83207">
        <ele>599</ele>
        <time>2024-09-22T06:56:28Z</time>
      </trkpt>
      <trkpt lat="42.45011" lon="2.83205">
        <ele>599</ele>
        <time>2024-09-22T06:56:31Z</time>
      </trkpt>
      <trkpt lat="42.45015" lon="2.83202">
        <ele>599</ele>
        <time>2024-09-22T06:56:34Z</time>
      </trkpt>
      <trkpt lat="42.45019" lon="2.83201">
        <ele>598</ele>
        <time>2024-09-22T06:56:37Z</time>
      </trkpt>
      <trkpt lat="42.45022" lon="2.832">
        <ele>597</ele>
        <time>2024-09-22T06:56:39Z</time>
      </trkpt>
      <trkpt lat="42.45024" lon="2.83198">
        <ele>597</ele>
        <time>2024-09-22T06:56:41Z</time>
      </trkpt>
      <trkpt lat="42.45027" lon="2.83197">
        <ele>596</ele>
        <time>2024-09-22T06:56:43Z</time>
      </trkpt>
      <trkpt lat="42.45031" lon="2.83197">
        <ele>595</ele>
        <time>2024-09-22T06:56:46Z</time>
      </trkpt>
      <trkpt lat="42.45035" lon="2.83196">
        <ele>596</ele>
        <time>2024-09-22T06:56:49Z</time>
      </trkpt>
      <trkpt lat="42.45038" lon="2.83195">
        <ele>594</ele>
        <time>2024-09-22T06:56:52Z</time>
      </trkpt>
      <trkpt lat="42.45041" lon="2.83196">
        <ele>593</ele>
        <time>2024-09-22T06:56:55Z</time>
      </trkpt>
      <trkpt lat="42.45045" lon="2.83196">
        <ele>593</ele>
        <time>2024-09-22T06:56:59Z</time>
      </trkpt>
      <trkpt lat="42.45049" lon="2.83197">
        <ele>593</ele>
        <time>2024-09-22T06:57:02Z</time>
      </trkpt>
      <trkpt lat="42.45053" lon="2.83198">
        <ele>592</ele>
        <time>2024-09-22T06:57:04Z</time>
      </trkpt>
      <trkpt lat="42.45056" lon="2.83199">
        <ele>591</ele>
        <time>2024-09-22T06:57:07Z</time>
      </trkpt>
      <trkpt lat="42.45059" lon="2.832">
        <ele>590</ele>
        <time>2024-09-22T06:57:09Z</time>
      </trkpt>
      <trkpt lat="42.45062" lon="2.83201">
        <ele>590</ele>
        <time>2024-09-22T06:57:12Z</time>
      </trkpt>
      <trkpt lat="42.45066" lon="2.83201">
        <ele>591</ele>
        <time>2024-09-22T06:57:15Z</time>
      </trkpt>
      <trkpt lat="42.45069" lon="2.83202">
        <ele>590</ele>
        <time>2024-09-22T06:57:20Z</time>
      </trkpt>
      <trkpt lat="42.45073" lon="2.83202">
        <ele>589</ele>
        <time>2024-09-22T06:57:22Z</time>
      </trkpt>
      <trkpt lat="42.45076" lon="2.83201">
        <ele>590</ele>
        <time>2024-09-22T06:57:24Z</time>
      </trkpt>
      <trkpt lat="42.45079" lon="2.83199">
        <ele>591</ele>
        <time>2024-09-22T06:57:26Z</time>
      </trkpt>
      <trkpt lat="42.45082" lon="2.83197">
        <ele>589</ele>
        <time>2024-09-22T06:57:28Z</time>
      </trkpt>
      <trkpt lat="42.45086" lon="2.83196">
        <ele>589</ele>
        <time>2024-09-22T06:57:30Z</time>
      </trkpt>
      <trkpt lat="42.45089" lon="2.83194">
        <ele>589</ele>
        <time>2024-09-22T06:57:32Z</time>
      </trkpt>
      <trkpt lat="42.45091" lon="2.83191">
        <ele>589</ele>
        <time>2024-09-22T06:57:35Z</time>
      </trkpt>
      <trkpt lat="42.45094" lon="2.83189">
        <ele>587</ele>
        <time>2024-09-22T06:57:37Z</time>
      </trkpt>
      <trkpt lat="42.45097" lon="2.83186">
        <ele>588</ele>
        <time>2024-09-22T06:57:39Z</time>
      </trkpt>
      <trkpt lat="42.45099" lon="2.83182">
        <ele>587</ele>
        <time>2024-09-22T06:57:41Z</time>
      </trkpt>
      <trkpt lat="42.45101" lon="2.83178">
        <ele>587</ele>
        <time>2024-09-22T06:57:44Z</time>
      </trkpt>
      <trkpt lat="42.45104" lon="2.83175">
        <ele>587</ele>
        <time>2024-09-22T06:57:46Z</time>
      </trkpt>
      <trkpt lat="42.45105" lon="2.83172">
        <ele>587</ele>
        <time>2024-09-22T06:57:48Z</time>
      </trkpt>
      <trkpt lat="42.45107" lon="2.83169">
        <ele>587</ele>
        <time>2024-09-22T06:57:50Z</time>
      </trkpt>
      <trkpt lat="42.45109" lon="2.83165">
        <ele>587</ele>
        <time>2024-09-22T06:57:53Z</time>
      </trkpt>
      <trkpt lat="42.45111" lon="2.83161">
        <ele>586</ele>
        <time>2024-09-22T06:57:55Z</time>
      </trkpt>
      <trkpt lat="42.45113" lon="2.83157">
        <ele>586</ele>
        <time>2024-09-22T06:57:58Z</time>
      </trkpt>
      <trkpt lat="42.45115" lon="2.83154">
        <ele>585</ele>
        <time>2024-09-22T06:58:01Z</time>
      </trkpt>
      <trkpt lat="42.45117" lon="2.83151">
        <ele>584</ele>
        <time>2024-09-22T06:58:03Z</time>
      </trkpt>
      <trkpt lat="42.45119" lon="2.83148">
        <ele>585</ele>
        <time>2024-09-22T06:58:05Z</time>
      </trkpt>
      <trkpt lat="42.45121" lon="2.83146">
        <ele>585</ele>
        <time>2024-09-22T06:58:08Z</time>
      </trkpt>
      <trkpt lat="42.45124" lon="2.83143">
        <ele>584</ele>
        <time>2024-09-22T06:58:10Z</time>
      </trkpt>
      <trkpt lat="42.45126" lon="2.83141">
        <ele>584</ele>
        <time>2024-09-22T06:58:13Z</time>
      </trkpt>
      <trkpt lat="42.45129" lon="2.83138">
        <ele>582</ele>
        <time>2024-09-22T06:58:16Z</time>
      </trkpt>
      <trkpt lat="42.45132" lon="2.83136">
        <ele>583</ele>
        <time>2024-09-22T06:58:18Z</time>
      </trkpt>
      <trkpt lat="42.45135" lon="2.83135">
        <ele>583</ele>
        <time>2024-09-22T06:58:20Z</time>
      </trkpt>
      <trkpt lat="42.45139" lon="2.83134">
        <ele>583</ele>
        <time>2024-09-22T06:58:23Z</time>
      </trkpt>
      <trkpt lat="42.45142" lon="2.83132">
        <ele>583</ele>
        <time>2024-09-22T06:58:26Z</time>
      </trkpt>
      <trkpt lat="42.45145" lon="2.8313">
        <ele>583</ele>
        <time>2024-09-22T06:58:28Z</time>
      </trkpt>
      <trkpt lat="42.45148" lon="2.83128">
        <ele>581</ele>
        <time>2024-09-22T06:58:30Z</time>
      </trkpt>
      <trkpt lat="42.45151" lon="2.83125">
        <ele>581</ele>
        <time>2024-09-22T06:58:33Z</time>
      </trkpt>
      <trkpt lat="42.45154" lon="2.83122">
        <ele>581</ele>
        <time>2024-09-22T06:58:36Z</time>
      </trkpt>
      <trkpt lat="42.45156" lon="2.83118">
        <ele>581</ele>
        <time>2024-09-22T06:58:39Z</time>
      </trkpt>
      <trkpt lat="42.45158" lon="2.83114">
        <ele>579</ele>
        <time>2024-09-22T06:58:42Z</time>
      </trkpt>
      <trkpt lat="42.45161" lon="2.83111">
        <ele>579</ele>
        <time>2024-09-22T06:58:45Z</time>
      </trkpt>
      <trkpt lat="42.4516" lon="2.83111">
        <ele>579</ele>
        <time>2024-09-22T06:58:48Z</time>
      </trkpt>
      <trkpt lat="42.45162" lon="2.83109">
        <ele>578</ele>
        <time>2024-09-22T06:58:55Z</time>
      </trkpt>
      <trkpt lat="42.45164" lon="2.83107">
        <ele>577</ele>
        <time>2024-09-22T06:58:56Z</time>
      </trkpt>
      <trkpt lat="42.45167" lon="2.83103">
        <ele>577</ele>
        <time>2024-09-22T06:58:59Z</time>
      </trkpt>
      <trkpt lat="42.45169" lon="2.83101">
        <ele>577</ele>
        <time>2024-09-22T06:59:02Z</time>
      </trkpt>
      <trkpt lat="42.45172" lon="2.83097">
        <ele>576</ele>
        <time>2024-09-22T06:59:06Z</time>
      </trkpt>
      <trkpt lat="42.45175" lon="2.83094">
        <ele>576</ele>
        <time>2024-09-22T06:59:08Z</time>
      </trkpt>
      <trkpt lat="42.45177" lon="2.83091">
        <ele>577</ele>
        <time>2024-09-22T06:59:10Z</time>
      </trkpt>
      <trkpt lat="42.4518" lon="2.83088">
        <ele>575</ele>
        <time>2024-09-22T06:59:14Z</time>
      </trkpt>
      <trkpt lat="42.45182" lon="2.83084">
        <ele>576</ele>
        <time>2024-09-22T06:59:16Z</time>
      </trkpt>
      <trkpt lat="42.45185" lon="2.83081">
        <ele>576</ele>
        <time>2024-09-22T06:59:18Z</time>
      </trkpt>
      <trkpt lat="42.45187" lon="2.83077">
        <ele>576</ele>
        <time>2024-09-22T06:59:21Z</time>
      </trkpt>
      <trkpt lat="42.4519" lon="2.83074">
        <ele>576</ele>
        <time>2024-09-22T06:59:24Z</time>
      </trkpt>
      <trkpt lat="42.45192" lon="2.8307">
        <ele>575</ele>
        <time>2024-09-22T06:59:26Z</time>
      </trkpt>
      <trkpt lat="42.45194" lon="2.83067">
        <ele>576</ele>
        <time>2024-09-22T06:59:29Z</time>
      </trkpt>
      <trkpt lat="42.45196" lon="2.83064">
        <ele>575</ele>
        <time>2024-09-22T06:59:31Z</time>
      </trkpt>
      <trkpt lat="42.45199" lon="2.8306">
        <ele>574</ele>
        <time>2024-09-22T06:59:34Z</time>
      </trkpt>
      <trkpt lat="42.45202" lon="2.83058">
        <ele>574</ele>
        <time>2024-09-22T06:59:37Z</time>
      </trkpt>
      <trkpt lat="42.45205" lon="2.83054">
        <ele>575</ele>
        <time>2024-09-22T06:59:40Z</time>
      </trkpt>
      <trkpt lat="42.45208" lon="2.83052">
        <ele>574</ele>
        <time>2024-09-22T06:59:43Z</time>
      </trkpt>
      <trkpt lat="42.45211" lon="2.8305">
        <ele>575</ele>
        <time>2024-09-22T06:59:44Z</time>
      </trkpt>
      <trkpt lat="42.45214" lon="2.83048">
        <ele>575</ele>
        <time>2024-09-22T06:59:46Z</time>
      </trkpt>
      <trkpt lat="42.45217" lon="2.83046">
        <ele>574</ele>
        <time>2024-09-22T06:59:49Z</time>
      </trkpt>
      <trkpt lat="42.4522" lon="2.83044">
        <ele>573</ele>
        <time>2024-09-22T06:59:51Z</time>
      </trkpt>
      <trkpt lat="42.45223" lon="2.83043">
        <ele>573</ele>
        <time>2024-09-22T06:59:54Z</time>
      </trkpt>
      <trkpt lat="42.45227" lon="2.83041">
        <ele>572</ele>
        <time>2024-09-22T06:59:57Z</time>
      </trkpt>
      <trkpt lat="42.4523" lon="2.8304">
        <ele>571</ele>
        <time>2024-09-22T07:00:00Z</time>
      </trkpt>
      <trkpt lat="42.45234" lon="2.8304">
        <ele>571</ele>
        <time>2024-09-22T07:00:04Z</time>
      </trkpt>
      <trkpt lat="42.45237" lon="2.83039">
        <ele>571</ele>
        <time>2024-09-22T07:00:06Z</time>
      </trkpt>
      <trkpt lat="42.45241" lon="2.83039">
        <ele>571</ele>
        <time>2024-09-22T07:00:09Z</time>
      </trkpt>
      <trkpt lat="42.45244" lon="2.83039">
        <ele>570</ele>
        <time>2024-09-22T07:00:12Z</time>
      </trkpt>
      <trkpt lat="42.45247" lon="2.83038">
        <ele>570</ele>
        <time>2024-09-22T07:00:14Z</time>
      </trkpt>
      <trkpt lat="42.45249" lon="2.83036">
        <ele>570</ele>
        <time>2024-09-22T07:00:16Z</time>
      </trkpt>
      <trkpt lat="42.45252" lon="2.83033">
        <ele>570</ele>
        <time>2024-09-22T07:00:19Z</time>
      </trkpt>
      <trkpt lat="42.45255" lon="2.83031">
        <ele>569</ele>
        <time>2024-09-22T07:00:21Z</time>
      </trkpt>
      <trkpt lat="42.45257" lon="2.83027">
        <ele>568</ele>
        <time>2024-09-22T07:00:23Z</time>
      </trkpt>
      <trkpt lat="42.4526" lon="2.83025">
        <ele>568</ele>
        <time>2024-09-22T07:00:25Z</time>
      </trkpt>
      <trkpt lat="42.45263" lon="2.83022">
        <ele>568</ele>
        <time>2024-09-22T07:00:28Z</time>
      </trkpt>
      <trkpt lat="42.45266" lon="2.8302">
        <ele>568</ele>
        <time>2024-09-22T07:00:30Z</time>
      </trkpt>
      <trkpt lat="42.45269" lon="2.83019">
        <ele>568</ele>
        <time>2024-09-22T07:00:33Z</time>
      </trkpt>
      <trkpt lat="42.45273" lon="2.83018">
        <ele>569</ele>
        <time>2024-09-22T07:00:35Z</time>
      </trkpt>
      <trkpt lat="42.45276" lon="2.83018">
        <ele>567</ele>
        <time>2024-09-22T07:00:39Z</time>
      </trkpt>
      <trkpt lat="42.45279" lon="2.83017">
        <ele>566</ele>
        <time>2024-09-22T07:00:41Z</time>
      </trkpt>
      <trkpt lat="42.45282" lon="2.83018">
        <ele>565</ele>
        <time>2024-09-22T07:00:43Z</time>
      </trkpt>
      <trkpt lat="42.45285" lon="2.83019">
        <ele>566</ele>
        <time>2024-09-22T07:00:45Z</time>
      </trkpt>
      <trkpt lat="42.45288" lon="2.8302">
        <ele>566</ele>
        <time>2024-09-22T07:00:48Z</time>
      </trkpt>
      <trkpt lat="42.45291" lon="2.83022">
        <ele>565</ele>
        <time>2024-09-22T07:00:50Z</time>
      </trkpt>
      <trkpt lat="42.45295" lon="2.83024">
        <ele>565</ele>
        <time>2024-09-22T07:00:53Z</time>
      </trkpt>
      <trkpt lat="42.45298" lon="2.83026">
        <ele>564</ele>
        <time>2024-09-22T07:00:55Z</time>
      </trkpt>
      <trkpt lat="42.453" lon="2.83028">
        <ele>564</ele>
        <time>2024-09-22T07:00:57Z</time>
      </trkpt>
      <trkpt lat="42.45303" lon="2.83031">
        <ele>564</ele>
        <time>2024-09-22T07:01:00Z</time>
      </trkpt>
      <trkpt lat="42.45306" lon="2.83034">
        <ele>563</ele>
        <time>2024-09-22T07:01:03Z</time>
      </trkpt>
      <trkpt lat="42.45308" lon="2.83038">
        <ele>563</ele>
        <time>2024-09-22T07:01:05Z</time>
      </trkpt>
      <trkpt lat="42.45311" lon="2.83041">
        <ele>564</ele>
        <time>2024-09-22T07:01:08Z</time>
      </trkpt>
      <trkpt lat="42.45313" lon="2.83045">
        <ele>564</ele>
        <time>2024-09-22T07:01:11Z</time>
      </trkpt>
      <trkpt lat="42.45315" lon="2.83048">
        <ele>563</ele>
        <time>2024-09-22T07:01:13Z</time>
      </trkpt>
      <trkpt lat="42.45317" lon="2.83051">
        <ele>562</ele>
        <time>2024-09-22T07:01:16Z</time>
      </trkpt>
      <trkpt lat="42.45318" lon="2.83055">
        <ele>563</ele>
        <time>2024-09-22T07:01:18Z</time>
      </trkpt>
      <trkpt lat="42.4532" lon="2.83059">
        <ele>562</ele>
        <time>2024-09-22T07:01:21Z</time>
      </trkpt>
      <trkpt lat="42.45321" lon="2.83063">
        <ele>562</ele>
        <time>2024-09-22T07:01:24Z</time>
      </trkpt>
      <trkpt lat="42.45323" lon="2.83067">
        <ele>562</ele>
        <time>2024-09-22T07:01:27Z</time>
      </trkpt>
      <trkpt lat="42.45324" lon="2.83071">
        <ele>562</ele>
        <time>2024-09-22T07:01:29Z</time>
      </trkpt>
      <trkpt lat="42.45326" lon="2.83074">
        <ele>562</ele>
        <time>2024-09-22T07:01:31Z</time>
      </trkpt>
      <trkpt lat="42.45327" lon="2.83078">
        <ele>561</ele>
        <time>2024-09-22T07:01:34Z</time>
      </trkpt>
      <trkpt lat="42.45329" lon="2.83082">
        <ele>561</ele>
        <time>2024-09-22T07:01:36Z</time>
      </trkpt>
      <trkpt lat="42.4533" lon="2.83085">
        <ele>561</ele>
        <time>2024-09-22T07:01:38Z</time>
      </trkpt>
      <trkpt lat="42.45333" lon="2.83088">
        <ele>562</ele>
        <time>2024-09-22T07:01:42Z</time>
      </trkpt>
      <trkpt lat="42.45336" lon="2.8309">
        <ele>562</ele>
        <time>2024-09-22T07:01:43Z</time>
      </trkpt>
      <trkpt lat="42.45339" lon="2.83093">
        <ele>562</ele>
        <time>2024-09-22T07:01:45Z</time>
      </trkpt>
      <trkpt lat="42.45342" lon="2.83095">
        <ele>561</ele>
        <time>2024-09-22T07:01:47Z</time>
      </trkpt>
      <trkpt lat="42.45344" lon="2.83097">
        <ele>560</ele>
        <time>2024-09-22T07:01:49Z</time>
      </trkpt>
      <trkpt lat="42.45347" lon="2.83099">
        <ele>560</ele>
        <time>2024-09-22T07:01:51Z</time>
      </trkpt>
      <trkpt lat="42.45351" lon="2.83101">
        <ele>559</ele>
        <time>2024-09-22T07:01:54Z</time>
      </trkpt>
      <trkpt lat="42.45353" lon="2.83104">
        <ele>559</ele>
        <time>2024-09-22T07:01:56Z</time>
      </trkpt>
      <trkpt lat="42.45356" lon="2.83106">
        <ele>558</ele>
        <time>2024-09-22T07:01:58Z</time>
      </trkpt>
      <trkpt lat="42.45359" lon="2.83109">
        <ele>558</ele>
        <time>2024-09-22T07:02:01Z</time>
      </trkpt>
      <trkpt lat="42.45362" lon="2.83112">
        <ele>558</ele>
        <time>2024-09-22T07:02:03Z</time>
      </trkpt>
      <trkpt lat="42.45365" lon="2.83114">
        <ele>558</ele>
        <time>2024-09-22T07:02:05Z</time>
      </trkpt>
      <trkpt lat="42.45367" lon="2.83117">
        <ele>558</ele>
        <time>2024-09-22T07:02:07Z</time>
      </trkpt>
      <trkpt lat="42.45369" lon="2.83119">
        <ele>559</ele>
        <time>2024-09-22T07:02:09Z</time>
      </trkpt>
      <trkpt lat="42.45372" lon="2.83122">
        <ele>559</ele>
        <time>2024-09-22T07:02:11Z</time>
      </trkpt>
      <trkpt lat="42.45374" lon="2.83125">
        <ele>558</ele>
        <time>2024-09-22T07:02:13Z</time>
      </trkpt>
      <trkpt lat="42.45377" lon="2.83128">
        <ele>559</ele>
        <time>2024-09-22T07:02:16Z</time>
      </trkpt>
      <trkpt lat="42.45379" lon="2.83131">
        <ele>559</ele>
        <time>2024-09-22T07:02:18Z</time>
      </trkpt>
      <trkpt lat="42.45382" lon="2.83134">
        <ele>558</ele>
        <time>2024-09-22T07:02:21Z</time>
      </trkpt>
      <trkpt lat="42.45385" lon="2.83137">
        <ele>557</ele>
        <time>2024-09-22T07:02:24Z</time>
      </trkpt>
      <trkpt lat="42.45387" lon="2.8314">
        <ele>557</ele>
        <time>2024-09-22T07:02:26Z</time>
      </trkpt>
      <trkpt lat="42.4539" lon="2.83142">
        <ele>556</ele>
        <time>2024-09-22T07:02:28Z</time>
      </trkpt>
      <trkpt lat="42.45392" lon="2.83145">
        <ele>556</ele>
        <time>2024-09-22T07:02:30Z</time>
      </trkpt>
      <trkpt lat="42.45395" lon="2.83148">
        <ele>555</ele>
        <time>2024-09-22T07:02:33Z</time>
      </trkpt>
      <trkpt lat="42.45397" lon="2.83151">
        <ele>555</ele>
        <time>2024-09-22T07:02:35Z</time>
      </trkpt>
      <trkpt lat="42.45399" lon="2.83154">
        <ele>554</ele>
        <time>2024-09-22T07:02:38Z</time>
      </trkpt>
      <trkpt lat="42.45401" lon="2.83158">
        <ele>554</ele>
        <time>2024-09-22T07:02:40Z</time>
      </trkpt>
      <trkpt lat="42.45403" lon="2.83162">
        <ele>553</ele>
        <time>2024-09-22T07:02:43Z</time>
      </trkpt>
      <trkpt lat="42.45405" lon="2.83166">
        <ele>553</ele>
        <time>2024-09-22T07:02:46Z</time>
      </trkpt>
      <trkpt lat="42.45406" lon="2.83171">
        <ele>553</ele>
        <time>2024-09-22T07:02:49Z</time>
      </trkpt>
      <trkpt lat="42.45408" lon="2.83176">
        <ele>553</ele>
        <time>2024-09-22T07:02:52Z</time>
      </trkpt>
      <trkpt lat="42.45409" lon="2.8318">
        <ele>552</ele>
        <time>2024-09-22T07:02:54Z</time>
      </trkpt>
      <trkpt lat="42.4541" lon="2.83183">
        <ele>552</ele>
        <time>2024-09-22T07:02:56Z</time>
      </trkpt>
      <trkpt lat="42.4541" lon="2.83188">
        <ele>552</ele>
        <time>2024-09-22T07:02:59Z</time>
      </trkpt>
      <trkpt lat="42.45411" lon="2.83193">
        <ele>551</ele>
        <time>2024-09-22T07:03:02Z</time>
      </trkpt>
      <trkpt lat="42.45412" lon="2.83197">
        <ele>551</ele>
        <time>2024-09-22T07:03:04Z</time>
      </trkpt>
      <trkpt lat="42.45413" lon="2.83201">
        <ele>551</ele>
        <time>2024-09-22T07:03:07Z</time>
      </trkpt>
      <trkpt lat="42.45414" lon="2.83205">
        <ele>550</ele>
        <time>2024-09-22T07:03:10Z</time>
      </trkpt>
      <trkpt lat="42.45415" lon="2.83209">
        <ele>550</ele>
        <time>2024-09-22T07:03:13Z</time>
      </trkpt>
      <trkpt lat="42.45416" lon="2.83213">
        <ele>549</ele>
        <time>2024-09-22T07:03:15Z</time>
      </trkpt>
      <trkpt lat="42.45418" lon="2.83217">
        <ele>549</ele>
        <time>2024-09-22T07:03:18Z</time>
      </trkpt>
      <trkpt lat="42.45419" lon="2.8322">
        <ele>549</ele>
        <time>2024-09-22T07:03:20Z</time>
      </trkpt>
      <trkpt lat="42.45421" lon="2.83224">
        <ele>549</ele>
        <time>2024-09-22T07:03:22Z</time>
      </trkpt>
      <trkpt lat="42.45422" lon="2.83227">
        <ele>549</ele>
        <time>2024-09-22T07:03:24Z</time>
      </trkpt>
      <trkpt lat="42.45424" lon="2.83231">
        <ele>549</ele>
        <time>2024-09-22T07:03:28Z</time>
      </trkpt>
      <trkpt lat="42.45426" lon="2.83235">
        <ele>548</ele>
        <time>2024-09-22T07:03:31Z</time>
      </trkpt>
      <trkpt lat="42.45428" lon="2.83239">
        <ele>546</ele>
        <time>2024-09-22T07:03:34Z</time>
      </trkpt>
      <trkpt lat="42.45429" lon="2.83243">
        <ele>547</ele>
        <time>2024-09-22T07:03:36Z</time>
      </trkpt>
      <trkpt lat="42.45431" lon="2.83247">
        <ele>547</ele>
        <time>2024-09-22T07:03:38Z</time>
      </trkpt>
      <trkpt lat="42.45433" lon="2.8325">
        <ele>547</ele>
        <time>2024-09-22T07:03:40Z</time>
      </trkpt>
      <trkpt lat="42.45435" lon="2.83253">
        <ele>545</ele>
        <time>2024-09-22T07:03:42Z</time>
      </trkpt>
      <trkpt lat="42.45436" lon="2.83257">
        <ele>545</ele>
        <time>2024-09-22T07:03:44Z</time>
      </trkpt>
      <trkpt lat="42.45438" lon="2.8326">
        <ele>544</ele>
        <time>2024-09-22T07:03:47Z</time>
      </trkpt>
      <trkpt lat="42.4544" lon="2.83264">
        <ele>544</ele>
        <time>2024-09-22T07:03:50Z</time>
      </trkpt>
      <trkpt lat="42.45441" lon="2.83268">
        <ele>543</ele>
        <time>2024-09-22T07:03:51Z</time>
      </trkpt>
      <trkpt lat="42.45442" lon="2.83272">
        <ele>544</ele>
        <time>2024-09-22T07:03:54Z</time>
      </trkpt>
      <trkpt lat="42.45442" lon="2.83277">
        <ele>542</ele>
        <time>2024-09-22T07:04:02Z</time>
      </trkpt>
      <trkpt lat="42.45442" lon="2.83282">
        <ele>540</ele>
        <time>2024-09-22T07:04:06Z</time>
      </trkpt>
      <trkpt lat="42.45442" lon="2.83286">
        <ele>541</ele>
        <time>2024-09-22T07:04:08Z</time>
      </trkpt>
      <trkpt lat="42.45442" lon="2.8329">
        <ele>540</ele>
        <time>2024-09-22T07:04:11Z</time>
      </trkpt>
      <trkpt lat="42.45442" lon="2.83295">
        <ele>541</ele>
        <time>2024-09-22T07:04:14Z</time>
      </trkpt>
      <trkpt lat="42.45443" lon="2.833">
        <ele>541</ele>
        <time>2024-09-22T07:04:16Z</time>
      </trkpt>
      <trkpt lat="42.45444" lon="2.83304">
        <ele>540</ele>
        <time>2024-09-22T07:04:18Z</time>
      </trkpt>
      <trkpt lat="42.45445" lon="2.83308">
        <ele>540</ele>
        <time>2024-09-22T07:04:21Z</time>
      </trkpt>
      <trkpt lat="42.45446" lon="2.83311">
        <ele>540</ele>
        <time>2024-09-22T07:04:23Z</time>
      </trkpt>
      <trkpt lat="42.45448" lon="2.83315">
        <ele>539</ele>
        <time>2024-09-22T07:04:25Z</time>
      </trkpt>
      <trkpt lat="42.45449" lon="2.83318">
        <ele>538</ele>
        <time>2024-09-22T07:04:27Z</time>
      </trkpt>
      <trkpt lat="42.45451" lon="2.83321">
        <ele>538</ele>
        <time>2024-09-22T07:04:29Z</time>
      </trkpt>
      <trkpt lat="42.45453" lon="2.83325">
        <ele>537</ele>
        <time>2024-09-22T07:04:32Z</time>
      </trkpt>
      <trkpt lat="42.45456" lon="2.83328">
        <ele>537</ele>
        <time>2024-09-22T07:04:34Z</time>
      </trkpt>
      <trkpt lat="42.45458" lon="2.8333">
        <ele>537</ele>
        <time>2024-09-22T07:04:36Z</time>
      </trkpt>
      <trkpt lat="42.4546" lon="2.83334">
        <ele>536</ele>
        <time>2024-09-22T07:04:39Z</time>
      </trkpt>
      <trkpt lat="42.45462" lon="2.83337">
        <ele>537</ele>
        <time>2024-09-22T07:04:41Z</time>
      </trkpt>
      <trkpt lat="42.45464" lon="2.83341">
        <ele>538</ele>
        <time>2024-09-22T07:04:44Z</time>
      </trkpt>
      <trkpt lat="42.45465" lon="2.83346">
        <ele>537</ele>
        <time>2024-09-22T07:04:47Z</time>
      </trkpt>
      <trkpt lat="42.45467" lon="2.8335">
        <ele>536</ele>
        <time>2024-09-22T07:04:50Z</time>
      </trkpt>
      <trkpt lat="42.45469" lon="2.83354">
        <ele>535</ele>
        <time>2024-09-22T07:04:53Z</time>
      </trkpt>
      <trkpt lat="42.4547" lon="2.83358">
        <ele>533</ele>
        <time>2024-09-22T07:04:55Z</time>
      </trkpt>
      <trkpt lat="42.45473" lon="2.83361">
        <ele>534</ele>
        <time>2024-09-22T07:04:57Z</time>
      </trkpt>
      <trkpt lat="42.45475" lon="2.83365">
        <ele>533</ele>
        <time>2024-09-22T07:05:00Z</time>
      </trkpt>
      <trkpt lat="42.45477" lon="2.83369">
        <ele>532</ele>
        <time>2024-09-22T07:05:03Z</time>
      </trkpt>
      <trkpt lat="42.45479" lon="2.83373">
        <ele>534</ele>
        <time>2024-09-22T07:05:05Z</time>
      </trkpt>
      <trkpt lat="42.45481" lon="2.83377">
        <ele>534</ele>
        <time>2024-09-22T07:05:08Z</time>
      </trkpt>
      <trkpt lat="42.45483" lon="2.83381">
        <ele>533</ele>
        <time>2024-09-22T07:05:11Z</time>
      </trkpt>
      <trkpt lat="42.45486" lon="2.83386">
        <ele>534</ele>
        <time>2024-09-22T07:05:14Z</time>
      </trkpt>
      <trkpt lat="42.45488" lon="2.83388">
        <ele>533</ele>
        <time>2024-09-22T07:05:16Z</time>
      </trkpt>
      <trkpt lat="42.45491" lon="2.83391">
        <ele>533</ele>
        <time>2024-09-22T07:05:18Z</time>
      </trkpt>
      <trkpt lat="42.45493" lon="2.83394">
        <ele>533</ele>
        <time>2024-09-22T07:05:20Z</time>
      </trkpt>
      <trkpt lat="42.45496" lon="2.83398">
        <ele>532</ele>
        <time>2024-09-22T07:05:24Z</time>
      </trkpt>
      <trkpt lat="42.45498" lon="2.83401">
        <ele>532</ele>
        <time>2024-09-22T07:05:26Z</time>
      </trkpt>
      <trkpt lat="42.45501" lon="2.83403">
        <ele>530</ele>
        <time>2024-09-22T07:05:29Z</time>
      </trkpt>
      <trkpt lat="42.45503" lon="2.83406">
        <ele>530</ele>
        <time>2024-09-22T07:05:31Z</time>
      </trkpt>
      <trkpt lat="42.45505" lon="2.8341">
        <ele>530</ele>
        <time>2024-09-22T07:05:34Z</time>
      </trkpt>
      <trkpt lat="42.45507" lon="2.83413">
        <ele>530</ele>
        <time>2024-09-22T07:05:36Z</time>
      </trkpt>
      <trkpt lat="42.4551" lon="2.83417">
        <ele>530</ele>
        <time>2024-09-22T07:05:39Z</time>
      </trkpt>
      <trkpt lat="42.45513" lon="2.8342">
        <ele>529</ele>
        <time>2024-09-22T07:05:42Z</time>
      </trkpt>
      <trkpt lat="42.45515" lon="2.83423">
        <ele>529</ele>
        <time>2024-09-22T07:05:44Z</time>
      </trkpt>
      <trkpt lat="42.45517" lon="2.83426">
        <ele>530</ele>
        <time>2024-09-22T07:05:46Z</time>
      </trkpt>
      <trkpt lat="42.45519" lon="2.83428">
        <ele>529</ele>
        <time>2024-09-22T07:05:48Z</time>
      </trkpt>
      <trkpt lat="42.45521" lon="2.83432">
        <ele>528</ele>
        <time>2024-09-22T07:05:50Z</time>
      </trkpt>
      <trkpt lat="42.45522" lon="2.83435">
        <ele>526</ele>
        <time>2024-09-22T07:05:54Z</time>
      </trkpt>
      <trkpt lat="42.45525" lon="2.83438">
        <ele>527</ele>
        <time>2024-09-22T07:05:56Z</time>
      </trkpt>
      <trkpt lat="42.45527" lon="2.83442">
        <ele>527</ele>
        <time>2024-09-22T07:05:57Z</time>
      </trkpt>
      <trkpt lat="42.45528" lon="2.83445">
        <ele>527</ele>
        <time>2024-09-22T07:05:59Z</time>
      </trkpt>
      <trkpt lat="42.4553" lon="2.83448">
        <ele>528</ele>
        <time>2024-09-22T07:06:01Z</time>
      </trkpt>
      <trkpt lat="42.45533" lon="2.83451">
        <ele>527</ele>
        <time>2024-09-22T07:06:04Z</time>
      </trkpt>
      <trkpt lat="42.45536" lon="2.83453">
        <ele>528</ele>
        <time>2024-09-22T07:06:07Z</time>
      </trkpt>
      <trkpt lat="42.45539" lon="2.83453">
        <ele>528</ele>
        <time>2024-09-22T07:06:10Z</time>
      </trkpt>
      <trkpt lat="42.45542" lon="2.83454">
        <ele>527</ele>
        <time>2024-09-22T07:06:13Z</time>
      </trkpt>
      <trkpt lat="42.45546" lon="2.83453">
        <ele>526</ele>
        <time>2024-09-22T07:06:16Z</time>
      </trkpt>
      <trkpt lat="42.45549" lon="2.83452">
        <ele>525</ele>
        <time>2024-09-22T07:06:19Z</time>
      </trkpt>
      <trkpt lat="42.45553" lon="2.8345">
        <ele>525</ele>
        <time>2024-09-22T07:06:22Z</time>
      </trkpt>
      <trkpt lat="42.45556" lon="2.83447">
        <ele>524</ele>
        <time>2024-09-22T07:06:25Z</time>
      </trkpt>
      <trkpt lat="42.45559" lon="2.83445">
        <ele>523</ele>
        <time>2024-09-22T07:06:28Z</time>
      </trkpt>
      <trkpt lat="42.45562" lon="2.83442">
        <ele>524</ele>
        <time>2024-09-22T07:06:30Z</time>
      </trkpt>
      <trkpt lat="42.45566" lon="2.83441">
        <ele>522</ele>
        <time>2024-09-22T07:06:33Z</time>
      </trkpt>
      <trkpt lat="42.45569" lon="2.83439">
        <ele>521</ele>
        <time>2024-09-22T07:06:37Z</time>
      </trkpt>
      <trkpt lat="42.45572" lon="2.83439">
        <ele>521</ele>
        <time>2024-09-22T07:06:40Z</time>
      </trkpt>
      <trkpt lat="42.45575" lon="2.83438">
        <ele>520</ele>
        <time>2024-09-22T07:06:43Z</time>
      </trkpt>
      <trkpt lat="42.45579" lon="2.83438">
        <ele>518</ele>
        <time>2024-09-22T07:06:46Z</time>
      </trkpt>
      <trkpt lat="42.45581" lon="2.83438">
        <ele>519</ele>
        <time>2024-09-22T07:06:48Z</time>
      </trkpt>
      <trkpt lat="42.45585" lon="2.83438">
        <ele>519</ele>
        <time>2024-09-22T07:06:51Z</time>
      </trkpt>
      <trkpt lat="42.45588" lon="2.83438">
        <ele>519</ele>
        <time>2024-09-22T07:06:54Z</time>
      </trkpt>
      <trkpt lat="42.45591" lon="2.83438">
        <ele>519</ele>
        <time>2024-09-22T07:06:56Z</time>
      </trkpt>
      <trkpt lat="42.45594" lon="2.83438">
        <ele>519</ele>
        <time>2024-09-22T07:06:58Z</time>
      </trkpt>
      <trkpt lat="42.45598" lon="2.83438">
        <ele>518</ele>
        <time>2024-09-22T07:07:01Z</time>
      </trkpt>
      <trkpt lat="42.45601" lon="2.83439">
        <ele>517</ele>
        <time>2024-09-22T07:07:04Z</time>
      </trkpt>
      <trkpt lat="42.45604" lon="2.83439">
        <ele>517</ele>
        <time>2024-09-22T07:07:06Z</time>
      </trkpt>
      <trkpt lat="42.45607" lon="2.83439">
        <ele>517</ele>
        <time>2024-09-22T07:07:09Z</time>
      </trkpt>
      <trkpt lat="42.4561" lon="2.8344">
        <ele>517</ele>
        <time>2024-09-22T07:07:12Z</time>
      </trkpt>
      <trkpt lat="42.45613" lon="2.8344">
        <ele>516</ele>
        <time>2024-09-22T07:07:14Z</time>
      </trkpt>
      <trkpt lat="42.45617" lon="2.8344">
        <ele>516</ele>
        <time>2024-09-22T07:07:16Z</time>
      </trkpt>
      <trkpt lat="42.4562" lon="2.8344">
        <ele>515</ele>
        <time>2024-09-22T07:07:18Z</time>
      </trkpt>
      <trkpt lat="42.45622" lon="2.8344">
        <ele>515</ele>
        <time>2024-09-22T07:07:20Z</time>
      </trkpt>
      <trkpt lat="42.45626" lon="2.8344">
        <ele>515</ele>
        <time>2024-09-22T07:07:23Z</time>
      </trkpt>
      <trkpt lat="42.45629" lon="2.83439">
        <ele>514</ele>
        <time>2024-09-22T07:07:26Z</time>
      </trkpt>
      <trkpt lat="42.45632" lon="2.83437">
        <ele>513</ele>
        <time>2024-09-22T07:07:29Z</time>
      </trkpt>
      <trkpt lat="42.45635" lon="2.83435">
        <ele>513</ele>
        <time>2024-09-22T07:07:31Z</time>
      </trkpt>
      <trkpt lat="42.45638" lon="2.83434">
        <ele>514</ele>
        <time>2024-09-22T07:07:33Z</time>
      </trkpt>
      <trkpt lat="42.45641" lon="2.83432">
        <ele>514</ele>
        <time>2024-09-22T07:07:35Z</time>
      </trkpt>
      <trkpt lat="42.45644" lon="2.8343">
        <ele>513</ele>
        <time>2024-09-22T07:07:37Z</time>
      </trkpt>
      <trkpt lat="42.45646" lon="2.83428">
        <ele>513</ele>
        <time>2024-09-22T07:07:39Z</time>
      </trkpt>
      <trkpt lat="42.45649" lon="2.83426">
        <ele>512</ele>
        <time>2024-09-22T07:07:41Z</time>
      </trkpt>
      <trkpt lat="42.45652" lon="2.83425">
        <ele>513</ele>
        <time>2024-09-22T07:07:43Z</time>
      </trkpt>
      <trkpt lat="42.45654" lon="2.83423">
        <ele>513</ele>
        <time>2024-09-22T07:07:45Z</time>
      </trkpt>
      <trkpt lat="42.45657" lon="2.83422">
        <ele>513</ele>
        <time>2024-09-22T07:07:47Z</time>
      </trkpt>
      <trkpt lat="42.4566" lon="2.8342">
        <ele>514</ele>
        <time>2024-09-22T07:07:50Z</time>
      </trkpt>
      <trkpt lat="42.45663" lon="2.83417">
        <ele>512</ele>
        <time>2024-09-22T07:07:53Z</time>
      </trkpt>
      <trkpt lat="42.45666" lon="2.83415">
        <ele>513</ele>
        <time>2024-09-22T07:07:55Z</time>
      </trkpt>
      <trkpt lat="42.45669" lon="2.83413">
        <ele>513</ele>
        <time>2024-09-22T07:07:58Z</time>
      </trkpt>
      <trkpt lat="42.45671" lon="2.83411">
        <ele>511</ele>
        <time>2024-09-22T07:08:00Z</time>
      </trkpt>
      <trkpt lat="42.45674" lon="2.83408">
        <ele>512</ele>
        <time>2024-09-22T07:08:03Z</time>
      </trkpt>
      <trkpt lat="42.45677" lon="2.83405">
        <ele>512</ele>
        <time>2024-09-22T07:08:04Z</time>
      </trkpt>
      <trkpt lat="42.45679" lon="2.83403">
        <ele>512</ele>
        <time>2024-09-22T07:08:06Z</time>
      </trkpt>
      <trkpt lat="42.45682" lon="2.83401">
        <ele>511</ele>
        <time>2024-09-22T07:08:08Z</time>
      </trkpt>
      <trkpt lat="42.45684" lon="2.83398">
        <ele>511</ele>
        <time>2024-09-22T07:08:11Z</time>
      </trkpt>
      <trkpt lat="42.45686" lon="2.83395">
        <ele>510</ele>
        <time>2024-09-22T07:08:13Z</time>
      </trkpt>
      <trkpt lat="42.45689" lon="2.83393">
        <ele>510</ele>
        <time>2024-09-22T07:08:15Z</time>
      </trkpt>
      <trkpt lat="42.45691" lon="2.8339">
        <ele>508</ele>
        <time>2024-09-22T07:08:18Z</time>
      </trkpt>
      <trkpt lat="42.45694" lon="2.83387">
        <ele>507</ele>
        <time>2024-09-22T07:08:22Z</time>
      </trkpt>
      <trkpt lat="42.45697" lon="2.83384">
        <ele>507</ele>
        <time>2024-09-22T07:08:24Z</time>
      </trkpt>
      <trkpt lat="42.45699" lon="2.83381">
        <ele>508</ele>
        <time>2024-09-22T07:08:26Z</time>
      </trkpt>
      <trkpt lat="42.45701" lon="2.83378">
        <ele>507</ele>
        <time>2024-09-22T07:08:28Z</time>
      </trkpt>
      <trkpt lat="42.45703" lon="2.83375">
        <ele>507</ele>
        <time>2024-09-22T07:08:31Z</time>
      </trkpt>
      <trkpt lat="42.45705" lon="2.83371">
        <ele>506</ele>
        <time>2024-09-22T07:08:34Z</time>
      </trkpt>
      <trkpt lat="42.45707" lon="2.83368">
        <ele>505</ele>
        <time>2024-09-22T07:08:36Z</time>
      </trkpt>
      <trkpt lat="42.45709" lon="2.83364">
        <ele>506</ele>
        <time>2024-09-22T07:08:38Z</time>
      </trkpt>
      <trkpt lat="42.4571" lon="2.8336">
        <ele>506</ele>
        <time>2024-09-22T07:08:40Z</time>
      </trkpt>
      <trkpt lat="42.45713" lon="2.83357">
        <ele>505</ele>
        <time>2024-09-22T07:08:42Z</time>
      </trkpt>
      <trkpt lat="42.45715" lon="2.83353">
        <ele>506</ele>
        <time>2024-09-22T07:08:45Z</time>
      </trkpt>
      <trkpt lat="42.45717" lon="2.8335">
        <ele>505</ele>
        <time>2024-09-22T07:08:47Z</time>
      </trkpt>
      <trkpt lat="42.45719" lon="2.83346">
        <ele>504</ele>
        <time>2024-09-22T07:08:50Z</time>
      </trkpt>
      <trkpt lat="42.45721" lon="2.83343">
        <ele>504</ele>
        <time>2024-09-22T07:08:52Z</time>
      </trkpt>
      <trkpt lat="42.45723" lon="2.83339">
        <ele>504</ele>
        <time>2024-09-22T07:08:55Z</time>
      </trkpt>
      <trkpt lat="42.45726" lon="2.83336">
        <ele>503</ele>
        <time>2024-09-22T07:08:57Z</time>
      </trkpt>
      <trkpt lat="42.45728" lon="2.83333">
        <ele>504</ele>
        <time>2024-09-22T07:08:59Z</time>
      </trkpt>
      <trkpt lat="42.4573" lon="2.83331">
        <ele>504</ele>
        <time>2024-09-22T07:09:01Z</time>
      </trkpt>
      <trkpt lat="42.45732" lon="2.83327">
        <ele>502</ele>
        <time>2024-09-22T07:09:04Z</time>
      </trkpt>
      <trkpt lat="42.45734" lon="2.83325">
        <ele>502</ele>
        <time>2024-09-22T07:09:06Z</time>
      </trkpt>
      <trkpt lat="42.45737" lon="2.83322">
        <ele>502</ele>
        <time>2024-09-22T07:09:09Z</time>
      </trkpt>
      <trkpt lat="42.4574" lon="2.83319">
        <ele>502</ele>
        <time>2024-09-22T07:09:12Z</time>
      </trkpt>
      <trkpt lat="42.45743" lon="2.83316">
        <ele>501</ele>
        <time>2024-09-22T07:09:14Z</time>
      </trkpt>
      <trkpt lat="42.45745" lon="2.83314">
        <ele>502</ele>
        <time>2024-09-22T07:09:16Z</time>
      </trkpt>
      <trkpt lat="42.45747" lon="2.83311">
        <ele>503</ele>
        <time>2024-09-22T07:09:19Z</time>
      </trkpt>
      <trkpt lat="42.4575" lon="2.83308">
        <ele>502</ele>
        <time>2024-09-22T07:09:22Z</time>
      </trkpt>
      <trkpt lat="42.45753" lon="2.83305">
        <ele>502</ele>
        <time>2024-09-22T07:09:25Z</time>
      </trkpt>
      <trkpt lat="42.45756" lon="2.83302">
        <ele>502</ele>
        <time>2024-09-22T07:09:27Z</time>
      </trkpt>
      <trkpt lat="42.45759" lon="2.83299">
        <ele>502</ele>
        <time>2024-09-22T07:09:30Z</time>
      </trkpt>
      <trkpt lat="42.45762" lon="2.83297">
        <ele>501</ele>
        <time>2024-09-22T07:09:32Z</time>
      </trkpt>
      <trkpt lat="42.45765" lon="2.83294">
        <ele>501</ele>
        <time>2024-09-22T07:09:36Z</time>
      </trkpt>
      <trkpt lat="42.45768" lon="2.83292">
        <ele>501</ele>
        <time>2024-09-22T07:09:39Z</time>
      </trkpt>
      <trkpt lat="42.45772" lon="2.8329">
        <ele>501</ele>
        <time>2024-09-22T07:09:42Z</time>
      </trkpt>
      <trkpt lat="42.45775" lon="2.83288">
        <ele>502</ele>
        <time>2024-09-22T07:09:45Z</time>
      </trkpt>
      <trkpt lat="42.45779" lon="2.83287">
        <ele>502</ele>
        <time>2024-09-22T07:09:47Z</time>
      </trkpt>
      <trkpt lat="42.45782" lon="2.83287">
        <ele>501</ele>
        <time>2024-09-22T07:09:50Z</time>
      </trkpt>
      <trkpt lat="42.45785" lon="2.83287">
        <ele>501</ele>
        <time>2024-09-22T07:09:53Z</time>
      </trkpt>
      <trkpt lat="42.45788" lon="2.83287">
        <ele>500</ele>
        <time>2024-09-22T07:09:55Z</time>
      </trkpt>
      <trkpt lat="42.45791" lon="2.83289">
        <ele>499</ele>
        <time>2024-09-22T07:09:58Z</time>
      </trkpt>
      <trkpt lat="42.45794" lon="2.83292">
        <ele>497</ele>
        <time>2024-09-22T07:10:02Z</time>
      </trkpt>
      <trkpt lat="42.45797" lon="2.83294">
        <ele>496</ele>
        <time>2024-09-22T07:10:04Z</time>
      </trkpt>
      <trkpt lat="42.45799" lon="2.83297">
        <ele>497</ele>
        <time>2024-09-22T07:10:06Z</time>
      </trkpt>
      <trkpt lat="42.45801" lon="2.83299">
        <ele>496</ele>
        <time>2024-09-22T07:10:08Z</time>
      </trkpt>
      <trkpt lat="42.45805" lon="2.83303">
        <ele>496</ele>
        <time>2024-09-22T07:10:11Z</time>
      </trkpt>
      <trkpt lat="42.45807" lon="2.83308">
        <ele>495</ele>
        <time>2024-09-22T07:10:15Z</time>
      </trkpt>
      <trkpt lat="42.45809" lon="2.83311">
        <ele>495</ele>
        <time>2024-09-22T07:10:17Z</time>
      </trkpt>
      <trkpt lat="42.45811" lon="2.83316">
        <ele>494</ele>
        <time>2024-09-22T07:10:21Z</time>
      </trkpt>
      <trkpt lat="42.45813" lon="2.83321">
        <ele>494</ele>
        <time>2024-09-22T07:10:24Z</time>
      </trkpt>
      <trkpt lat="42.45816" lon="2.83327">
        <ele>493</ele>
        <time>2024-09-22T07:10:28Z</time>
      </trkpt>
      <trkpt lat="42.45817" lon="2.83332">
        <ele>494</ele>
        <time>2024-09-22T07:10:30Z</time>
      </trkpt>
      <trkpt lat="42.45817" lon="2.83336">
        <ele>494</ele>
        <time>2024-09-22T07:10:32Z</time>
      </trkpt>
      <trkpt lat="42.45818" lon="2.83342">
        <ele>494</ele>
        <time>2024-09-22T07:10:35Z</time>
      </trkpt>
      <trkpt lat="42.45818" lon="2.83347">
        <ele>494</ele>
        <time>2024-09-22T07:10:37Z</time>
      </trkpt>
      <trkpt lat="42.45818" lon="2.83351">
        <ele>493</ele>
        <time>2024-09-22T07:10:40Z</time>
      </trkpt>
      <trkpt lat="42.45818" lon="2.83356">
        <ele>492</ele>
        <time>2024-09-22T07:10:43Z</time>
      </trkpt>
      <trkpt lat="42.45818" lon="2.83361">
        <ele>493</ele>
        <time>2024-09-22T07:10:45Z</time>
      </trkpt>
      <trkpt lat="42.45818" lon="2.83367">
        <ele>493</ele>
        <time>2024-09-22T07:10:48Z</time>
      </trkpt>
      <trkpt lat="42.45818" lon="2.83371">
        <ele>493</ele>
        <time>2024-09-22T07:10:51Z</time>
      </trkpt>
      <trkpt lat="42.45818" lon="2.83376">
        <ele>492</ele>
        <time>2024-09-22T07:10:54Z</time>
      </trkpt>
      <trkpt lat="42.45817" lon="2.8338">
        <ele>491</ele>
        <time>2024-09-22T07:10:56Z</time>
      </trkpt>
      <trkpt lat="42.45818" lon="2.83385">
        <ele>491</ele>
        <time>2024-09-22T07:10:58Z</time>
      </trkpt>
      <trkpt lat="42.45817" lon="2.83388">
        <ele>490</ele>
        <time>2024-09-22T07:11:00Z</time>
      </trkpt>
      <trkpt lat="42.45817" lon="2.83393">
        <ele>490</ele>
        <time>2024-09-22T07:11:02Z</time>
      </trkpt>
      <trkpt lat="42.45816" lon="2.83397">
        <ele>491</ele>
        <time>2024-09-22T07:11:05Z</time>
      </trkpt>
      <trkpt lat="42.45816" lon="2.83402">
        <ele>490</ele>
        <time>2024-09-22T07:11:08Z</time>
      </trkpt>
      <trkpt lat="42.45815" lon="2.83408">
        <ele>489</ele>
        <time>2024-09-22T07:11:11Z</time>
      </trkpt>
      <trkpt lat="42.45815" lon="2.83413">
        <ele>489</ele>
        <time>2024-09-22T07:11:14Z</time>
      </trkpt>
      <trkpt lat="42.45814" lon="2.83418">
        <ele>487</ele>
        <time>2024-09-22T07:11:17Z</time>
      </trkpt>
      <trkpt lat="42.45814" lon="2.83422">
        <ele>489</ele>
        <time>2024-09-22T07:11:19Z</time>
      </trkpt>
      <trkpt lat="42.45813" lon="2.83427">
        <ele>490</ele>
        <time>2024-09-22T07:11:22Z</time>
      </trkpt>
      <trkpt lat="42.45813" lon="2.83432">
        <ele>488</ele>
        <time>2024-09-22T07:11:25Z</time>
      </trkpt>
      <trkpt lat="42.45812" lon="2.83437">
        <ele>488</ele>
        <time>2024-09-22T07:11:27Z</time>
      </trkpt>
      <trkpt lat="42.45812" lon="2.83441">
        <ele>487</ele>
        <time>2024-09-22T07:11:29Z</time>
      </trkpt>
      <trkpt lat="42.45811" lon="2.83445">
        <ele>487</ele>
        <time>2024-09-22T07:11:31Z</time>
      </trkpt>
      <trkpt lat="42.45811" lon="2.83449">
        <ele>487</ele>
        <time>2024-09-22T07:11:34Z</time>
      </trkpt>
      <trkpt lat="42.4581" lon="2.83454">
        <ele>485</ele>
        <time>2024-09-22T07:11:36Z</time>
      </trkpt>
      <trkpt lat="42.45809" lon="2.83458">
        <ele>485</ele>
        <time>2024-09-22T07:11:39Z</time>
      </trkpt>
      <trkpt lat="42.45808" lon="2.83462">
        <ele>485</ele>
        <time>2024-09-22T07:11:42Z</time>
      </trkpt>
      <trkpt lat="42.45807" lon="2.83467">
        <ele>484</ele>
        <time>2024-09-22T07:11:44Z</time>
      </trkpt>
      <trkpt lat="42.45807" lon="2.83472">
        <ele>483</ele>
        <time>2024-09-22T07:11:47Z</time>
      </trkpt>
      <trkpt lat="42.45806" lon="2.83476">
        <ele>482</ele>
        <time>2024-09-22T07:11:49Z</time>
      </trkpt>
      <trkpt lat="42.45805" lon="2.8348">
        <ele>482</ele>
        <time>2024-09-22T07:11:52Z</time>
      </trkpt>
      <trkpt lat="42.45805" lon="2.83485">
        <ele>481</ele>
        <time>2024-09-22T07:11:55Z</time>
      </trkpt>
      <trkpt lat="42.45804" lon="2.83489">
        <ele>480</ele>
        <time>2024-09-22T07:11:57Z</time>
      </trkpt>
      <trkpt lat="42.45804" lon="2.83493">
        <ele>480</ele>
        <time>2024-09-22T07:11:59Z</time>
      </trkpt>
      <trkpt lat="42.45803" lon="2.83497">
        <ele>481</ele>
        <time>2024-09-22T07:12:01Z</time>
      </trkpt>
      <trkpt lat="42.45803" lon="2.83501">
        <ele>479</ele>
        <time>2024-09-22T07:12:04Z</time>
      </trkpt>
      <trkpt lat="42.45802" lon="2.83506">
        <ele>480</ele>
        <time>2024-09-22T07:12:07Z</time>
      </trkpt>
      <trkpt lat="42.45802" lon="2.8351">
        <ele>480</ele>
        <time>2024-09-22T07:12:15Z</time>
      </trkpt>
      <trkpt lat="42.45802" lon="2.83514">
        <ele>479</ele>
        <time>2024-09-22T07:12:18Z</time>
      </trkpt>
      <trkpt lat="42.45801" lon="2.83519">
        <ele>479</ele>
        <time>2024-09-22T07:12:21Z</time>
      </trkpt>
      <trkpt lat="42.45801" lon="2.83524">
        <ele>479</ele>
        <time>2024-09-22T07:12:24Z</time>
      </trkpt>
      <trkpt lat="42.458" lon="2.83528">
        <ele>478</ele>
        <time>2024-09-22T07:12:26Z</time>
      </trkpt>
      <trkpt lat="42.45801" lon="2.83532">
        <ele>478</ele>
        <time>2024-09-22T07:12:28Z</time>
      </trkpt>
      <trkpt lat="42.45801" lon="2.83537">
        <ele>478</ele>
        <time>2024-09-22T07:12:30Z</time>
      </trkpt>
      <trkpt lat="42.45801" lon="2.83541">
        <ele>477</ele>
        <time>2024-09-22T07:12:34Z</time>
      </trkpt>
      <trkpt lat="42.458" lon="2.83545">
        <ele>477</ele>
        <time>2024-09-22T07:12:36Z</time>
      </trkpt>
      <trkpt lat="42.458" lon="2.83549">
        <ele>476</ele>
        <time>2024-09-22T07:12:40Z</time>
      </trkpt>
      <trkpt lat="42.458" lon="2.83553">
        <ele>477</ele>
        <time>2024-09-22T07:12:42Z</time>
      </trkpt>
      <trkpt lat="42.45801" lon="2.83557">
        <ele>477</ele>
        <time>2024-09-22T07:12:44Z</time>
      </trkpt>
      <trkpt lat="42.45802" lon="2.83561">
        <ele>477</ele>
        <time>2024-09-22T07:12:46Z</time>
      </trkpt>
      <trkpt lat="42.45802" lon="2.83565">
        <ele>477</ele>
        <time>2024-09-22T07:12:48Z</time>
      </trkpt>
      <trkpt lat="42.45803" lon="2.83569">
        <ele>477</ele>
        <time>2024-09-22T07:12:50Z</time>
      </trkpt>
      <trkpt lat="42.45804" lon="2.83573">
        <ele>476</ele>
        <time>2024-09-22T07:12:52Z</time>
      </trkpt>
      <trkpt lat="42.45804" lon="2.83576">
        <ele>476</ele>
        <time>2024-09-22T07:12:54Z</time>
      </trkpt>
      <trkpt lat="42.45805" lon="2.8358">
        <ele>476</ele>
        <time>2024-09-22T07:12:57Z</time>
      </trkpt>
      <trkpt lat="42.45805" lon="2.83584">
        <ele>475</ele>
        <time>2024-09-22T07:12:59Z</time>
      </trkpt>
      <trkpt lat="42.45806" lon="2.83588">
        <ele>475</ele>
        <time>2024-09-22T07:13:01Z</time>
      </trkpt>
      <trkpt lat="42.45806" lon="2.83592">
        <ele>475</ele>
        <time>2024-09-22T07:13:03Z</time>
      </trkpt>
      <trkpt lat="42.45807" lon="2.83597">
        <ele>475</ele>
        <time>2024-09-22T07:13:06Z</time>
      </trkpt>
      <trkpt lat="42.45807" lon="2.83601">
        <ele>474</ele>
        <time>2024-09-22T07:13:08Z</time>
      </trkpt>
      <trkpt lat="42.45807" lon="2.83605">
        <ele>474</ele>
        <time>2024-09-22T07:13:10Z</time>
      </trkpt>
      <trkpt lat="42.45807" lon="2.83611">
        <ele>472</ele>
        <time>2024-09-22T07:13:13Z</time>
      </trkpt>
      <trkpt lat="42.45807" lon="2.83616">
        <ele>473</ele>
        <time>2024-09-22T07:13:16Z</time>
      </trkpt>
      <trkpt lat="42.45807" lon="2.8362">
        <ele>472</ele>
        <time>2024-09-22T07:13:18Z</time>
      </trkpt>
      <trkpt lat="42.45807" lon="2.83626">
        <ele>472</ele>
        <time>2024-09-22T07:13:21Z</time>
      </trkpt>
      <trkpt lat="42.45807" lon="2.8363">
        <ele>472</ele>
        <time>2024-09-22T07:13:23Z</time>
      </trkpt>
      <trkpt lat="42.45806" lon="2.83634">
        <ele>471</ele>
        <time>2024-09-22T07:13:25Z</time>
      </trkpt>
      <trkpt lat="42.45806" lon="2.83639">
        <ele>471</ele>
        <time>2024-09-22T07:13:28Z</time>
      </trkpt>
      <trkpt lat="42.45806" lon="2.83643">
        <ele>471</ele>
        <time>2024-09-22T07:13:30Z</time>
      </trkpt>
      <trkpt lat="42.45805" lon="2.83648">
        <ele>470</ele>
        <time>2024-09-22T07:13:33Z</time>
      </trkpt>
      <trkpt lat="42.45804" lon="2.83652">
        <ele>470</ele>
        <time>2024-09-22T07:13:36Z</time>
      </trkpt>
      <trkpt lat="42.45803" lon="2.83656">
        <ele>470</ele>
        <time>2024-09-22T07:13:38Z</time>
      </trkpt>
      <trkpt lat="42.45802" lon="2.83661">
        <ele>469</ele>
        <time>2024-09-22T07:13:41Z</time>
      </trkpt>
      <trkpt lat="42.458" lon="2.83665">
        <ele>469</ele>
        <time>2024-09-22T07:13:44Z</time>
      </trkpt>
      <trkpt lat="42.45799" lon="2.83669">
        <ele>469</ele>
        <time>2024-09-22T07:13:48Z</time>
      </trkpt>
      <trkpt lat="42.45798" lon="2.83673">
        <ele>468</ele>
        <time>2024-09-22T07:13:51Z</time>
      </trkpt>
      <trkpt lat="42.45796" lon="2.83676">
        <ele>468</ele>
        <time>2024-09-22T07:13:54Z</time>
      </trkpt>
      <trkpt lat="42.45794" lon="2.8368">
        <ele>468</ele>
        <time>2024-09-22T07:13:57Z</time>
      </trkpt>
      <trkpt lat="42.45792" lon="2.83684">
        <ele>467</ele>
        <time>2024-09-22T07:14:00Z</time>
      </trkpt>
      <trkpt lat="42.4579" lon="2.83687">
        <ele>467</ele>
        <time>2024-09-22T07:14:02Z</time>
      </trkpt>
      <trkpt lat="42.45788" lon="2.83691">
        <ele>468</ele>
        <time>2024-09-22T07:14:04Z</time>
      </trkpt>
      <trkpt lat="42.45787" lon="2.83695">
        <ele>469</ele>
        <time>2024-09-22T07:14:07Z</time>
      </trkpt>
      <trkpt lat="42.45787" lon="2.83699">
        <ele>466</ele>
        <time>2024-09-22T07:14:12Z</time>
      </trkpt>
      <trkpt lat="42.45788" lon="2.83703">
        <ele>467</ele>
        <time>2024-09-22T07:14:15Z</time>
      </trkpt>
      <trkpt lat="42.4579" lon="2.83707">
        <ele>466</ele>
        <time>2024-09-22T07:14:18Z</time>
      </trkpt>
      <trkpt lat="42.45791" lon="2.83711">
        <ele>465</ele>
        <time>2024-09-22T07:14:20Z</time>
      </trkpt>
      <trkpt lat="42.45792" lon="2.83715">
        <ele>465</ele>
        <time>2024-09-22T07:14:22Z</time>
      </trkpt>
      <trkpt lat="42.45794" lon="2.83719">
        <ele>465</ele>
        <time>2024-09-22T07:14:25Z</time>
      </trkpt>
      <trkpt lat="42.45796" lon="2.83723">
        <ele>464</ele>
        <time>2024-09-22T07:14:27Z</time>
      </trkpt>
      <trkpt lat="42.45798" lon="2.83727">
        <ele>463</ele>
        <time>2024-09-22T07:14:30Z</time>
      </trkpt>
      <trkpt lat="42.45799" lon="2.83731">
        <ele>462</ele>
        <time>2024-09-22T07:14:33Z</time>
      </trkpt>
      <trkpt lat="42.45801" lon="2.83735">
        <ele>462</ele>
        <time>2024-09-22T07:14:35Z</time>
      </trkpt>
      <trkpt lat="42.45802" lon="2.83739">
        <ele>462</ele>
        <time>2024-09-22T07:14:37Z</time>
      </trkpt>
      <trkpt lat="42.45803" lon="2.83744">
        <ele>462</ele>
        <time>2024-09-22T07:14:40Z</time>
      </trkpt>
      <trkpt lat="42.45804" lon="2.83748">
        <ele>460</ele>
        <time>2024-09-22T07:14:43Z</time>
      </trkpt>
      <trkpt lat="42.45805" lon="2.83753">
        <ele>460</ele>
        <time>2024-09-22T07:14:46Z</time>
      </trkpt>
      <trkpt lat="42.45805" lon="2.83757">
        <ele>459</ele>
        <time>2024-09-22T07:14:49Z</time>
      </trkpt>
      <trkpt lat="42.45806" lon="2.83761">
        <ele>460</ele>
        <time>2024-09-22T07:14:51Z</time>
      </trkpt>
      <trkpt lat="42.45807" lon="2.83765">
        <ele>460</ele>
        <time>2024-09-22T07:14:54Z</time>
      </trkpt>
      <trkpt lat="42.45809" lon="2.8377">
        <ele>460</ele>
        <time>2024-09-22T07:14:57Z</time>
      </trkpt>
      <trkpt lat="42.4581" lon="2.83774">
        <ele>459</ele>
        <time>2024-09-22T07:15:00Z</time>
      </trkpt>
      <trkpt lat="42.45813" lon="2.83779">
        <ele>460</ele>
        <time>2024-09-22T07:15:03Z</time>
      </trkpt>
      <trkpt lat="42.45815" lon="2.83782">
        <ele>460</ele>
        <time>2024-09-22T07:15:06Z</time>
      </trkpt>
      <trkpt lat="42.45817" lon="2.83784">
        <ele>460</ele>
        <time>2024-09-22T07:15:09Z</time>
      </trkpt>
      <trkpt lat="42.4582" lon="2.83783">
        <ele>459</ele>
        <time>2024-09-22T07:15:11Z</time>
      </trkpt>
      <trkpt lat="42.45823" lon="2.83782">
        <ele>459</ele>
        <time>2024-09-22T07:15:18Z</time>
      </trkpt>
      <trkpt lat="42.45822" lon="2.83782">
        <ele>459</ele>
        <time>2024-09-22T07:15:26Z</time>
      </trkpt>
      <trkpt lat="42.4582" lon="2.83786">
        <ele>464</ele>
        <time>2024-09-22T07:15:37Z</time>
      </trkpt>
      <trkpt lat="42.4582" lon="2.83786">
        <ele>462</ele>
        <time>2024-09-22T07:17:05Z</time>
      </trkpt>
      <trkpt lat="42.45822" lon="2.83785">
        <ele>463</ele>
        <time>2024-09-22T07:18:55Z</time>
      </trkpt>
      <trkpt lat="42.45824" lon="2.83786">
        <ele>460</ele>
        <time>2024-09-22T07:19:25Z</time>
      </trkpt>
      <trkpt lat="42.45822" lon="2.83786">
        <ele>459</ele>
        <time>2024-09-22T07:19:29Z</time>
      </trkpt>
      <trkpt lat="42.45824" lon="2.83785">
        <ele>462</ele>
        <time>2024-09-22T07:20:16Z</time>
      </trkpt>
      <trkpt lat="42.45822" lon="2.83787">
        <ele>458</ele>
        <time>2024-09-22T07:21:17Z</time>
      </trkpt>
      <trkpt lat="42.45823" lon="2.83789">
        <ele>459</ele>
        <time>2024-09-22T07:21:23Z</time>
      </trkpt>
      <trkpt lat="42.45825" lon="2.83792">
        <ele>459</ele>
        <time>2024-09-22T07:21:42Z</time>
      </trkpt>
      <trkpt lat="42.45826" lon="2.83795">
        <ele>458</ele>
        <time>2024-09-22T07:22:03Z</time>
      </trkpt>
      <trkpt lat="42.45828" lon="2.83797">
        <ele>459</ele>
        <time>2024-09-22T07:22:15Z</time>
      </trkpt>
      <trkpt lat="42.45829" lon="2.838">
        <ele>460</ele>
        <time>2024-09-22T07:22:24Z</time>
      </trkpt>
      <trkpt lat="42.4583" lon="2.83804">
        <ele>461</ele>
        <time>2024-09-22T07:22:29Z</time>
      </trkpt>
      <trkpt lat="42.4583" lon="2.83809">
        <ele>462</ele>
        <time>2024-09-22T07:22:33Z</time>
      </trkpt>
      <trkpt lat="42.45832" lon="2.83812">
        <ele>462</ele>
        <time>2024-09-22T07:22:38Z</time>
      </trkpt>
      <trkpt lat="42.45834" lon="2.83814">
        <ele>462</ele>
        <time>2024-09-22T07:22:40Z</time>
      </trkpt>
      <trkpt lat="42.45838" lon="2.83815">
        <ele>465</ele>
        <time>2024-09-22T07:22:48Z</time>
      </trkpt>
      <trkpt lat="42.45841" lon="2.83816">
        <ele>467</ele>
        <time>2024-09-22T07:22:54Z</time>
      </trkpt>
      <trkpt lat="42.45844" lon="2.83818">
        <ele>467</ele>
        <time>2024-09-22T07:22:57Z</time>
      </trkpt>
      <trkpt lat="42.45844" lon="2.83822">
        <ele>468</ele>
        <time>2024-09-22T07:23:02Z</time>
      </trkpt>
      <trkpt lat="42.45844" lon="2.83826">
        <ele>468</ele>
        <time>2024-09-22T07:23:06Z</time>
      </trkpt>
      <trkpt lat="42.45844" lon="2.8383">
        <ele>470</ele>
        <time>2024-09-22T07:23:09Z</time>
      </trkpt>
      <trkpt lat="42.45845" lon="2.83834">
        <ele>470</ele>
        <time>2024-09-22T07:23:12Z</time>
      </trkpt>
      <trkpt lat="42.45847" lon="2.83838">
        <ele>470</ele>
        <time>2024-09-22T07:23:15Z</time>
      </trkpt>
      <trkpt lat="42.45848" lon="2.83842">
        <ele>470</ele>
        <time>2024-09-22T07:23:21Z</time>
      </trkpt>
      <trkpt lat="42.4585" lon="2.83845">
        <ele>471</ele>
        <time>2024-09-22T07:23:25Z</time>
      </trkpt>
      <trkpt lat="42.45852" lon="2.83848">
        <ele>471</ele>
        <time>2024-09-22T07:23:28Z</time>
      </trkpt>
      <trkpt lat="42.45855" lon="2.8385">
        <ele>471</ele>
        <time>2024-09-22T07:23:32Z</time>
      </trkpt>
      <trkpt lat="42.45856" lon="2.83853">
        <ele>474</ele>
        <time>2024-09-22T07:23:39Z</time>
      </trkpt>
      <trkpt lat="42.45858" lon="2.83856">
        <ele>475</ele>
        <time>2024-09-22T07:23:42Z</time>
      </trkpt>
      <trkpt lat="42.45858" lon="2.83861">
        <ele>476</ele>
        <time>2024-09-22T07:23:45Z</time>
      </trkpt>
      <trkpt lat="42.45858" lon="2.83865">
        <ele>476</ele>
        <time>2024-09-22T07:23:48Z</time>
      </trkpt>
      <trkpt lat="42.45857" lon="2.83869">
        <ele>476</ele>
        <time>2024-09-22T07:23:51Z</time>
      </trkpt>
      <trkpt lat="42.45855" lon="2.83874">
        <ele>476</ele>
        <time>2024-09-22T07:23:55Z</time>
      </trkpt>
      <trkpt lat="42.45854" lon="2.83878">
        <ele>475</ele>
        <time>2024-09-22T07:23:59Z</time>
      </trkpt>
      <trkpt lat="42.45853" lon="2.83882">
        <ele>476</ele>
        <time>2024-09-22T07:24:02Z</time>
      </trkpt>
      <trkpt lat="42.45854" lon="2.83887">
        <ele>476</ele>
        <time>2024-09-22T07:24:06Z</time>
      </trkpt>
      <trkpt lat="42.45855" lon="2.8389">
        <ele>476</ele>
        <time>2024-09-22T07:24:10Z</time>
      </trkpt>
      <trkpt lat="42.45856" lon="2.83894">
        <ele>476</ele>
        <time>2024-09-22T07:24:13Z</time>
      </trkpt>
      <trkpt lat="42.45857" lon="2.83897">
        <ele>477</ele>
        <time>2024-09-22T07:24:18Z</time>
      </trkpt>
      <trkpt lat="42.45857" lon="2.83901">
        <ele>478</ele>
        <time>2024-09-22T07:24:21Z</time>
      </trkpt>
      <trkpt lat="42.45856" lon="2.83906">
        <ele>479</ele>
        <time>2024-09-22T07:24:25Z</time>
      </trkpt>
      <trkpt lat="42.45856" lon="2.83911">
        <ele>479</ele>
        <time>2024-09-22T07:24:26Z</time>
      </trkpt>
      <trkpt lat="42.45858" lon="2.83914">
        <ele>480</ele>
        <time>2024-09-22T07:24:30Z</time>
      </trkpt>
      <trkpt lat="42.45859" lon="2.83917">
        <ele>480</ele>
        <time>2024-09-22T07:24:34Z</time>
      </trkpt>
      <trkpt lat="42.45861" lon="2.8392">
        <ele>480</ele>
        <time>2024-09-22T07:24:37Z</time>
      </trkpt>
      <trkpt lat="42.45863" lon="2.83922">
        <ele>480</ele>
        <time>2024-09-22T07:24:41Z</time>
      </trkpt>
      <trkpt lat="42.45864" lon="2.83925">
        <ele>481</ele>
        <time>2024-09-22T07:24:43Z</time>
      </trkpt>
      <trkpt lat="42.45866" lon="2.83927">
        <ele>481</ele>
        <time>2024-09-22T07:24:46Z</time>
      </trkpt>
      <trkpt lat="42.45868" lon="2.8393">
        <ele>481</ele>
        <time>2024-09-22T07:24:50Z</time>
      </trkpt>
      <trkpt lat="42.4587" lon="2.83933">
        <ele>483</ele>
        <time>2024-09-22T07:24:52Z</time>
      </trkpt>
      <trkpt lat="42.45872" lon="2.83937">
        <ele>482</ele>
        <time>2024-09-22T07:24:58Z</time>
      </trkpt>
      <trkpt lat="42.45874" lon="2.83941">
        <ele>483</ele>
        <time>2024-09-22T07:25:02Z</time>
      </trkpt>
      <trkpt lat="42.45875" lon="2.83945">
        <ele>484</ele>
        <time>2024-09-22T07:25:06Z</time>
      </trkpt>
      <trkpt lat="42.45877" lon="2.83949">
        <ele>485</ele>
        <time>2024-09-22T07:25:10Z</time>
      </trkpt>
      <trkpt lat="42.45879" lon="2.83953">
        <ele>485</ele>
        <time>2024-09-22T07:25:15Z</time>
      </trkpt>
      <trkpt lat="42.45881" lon="2.83955">
        <ele>485</ele>
        <time>2024-09-22T07:25:19Z</time>
      </trkpt>
      <trkpt lat="42.45884" lon="2.83956">
        <ele>486</ele>
        <time>2024-09-22T07:25:23Z</time>
      </trkpt>
      <trkpt lat="42.45887" lon="2.83958">
        <ele>486</ele>
        <time>2024-09-22T07:25:27Z</time>
      </trkpt>
      <trkpt lat="42.4589" lon="2.83959">
        <ele>486</ele>
        <time>2024-09-22T07:25:32Z</time>
      </trkpt>
      <trkpt lat="42.45893" lon="2.8396">
        <ele>487</ele>
        <time>2024-09-22T07:25:35Z</time>
      </trkpt>
      <trkpt lat="42.45896" lon="2.83963">
        <ele>488</ele>
        <time>2024-09-22T07:25:40Z</time>
      </trkpt>
      <trkpt lat="42.45898" lon="2.83964">
        <ele>487</ele>
        <time>2024-09-22T07:25:44Z</time>
      </trkpt>
      <trkpt lat="42.45901" lon="2.83965">
        <ele>487</ele>
        <time>2024-09-22T07:25:48Z</time>
      </trkpt>
      <trkpt lat="42.45904" lon="2.83967">
        <ele>488</ele>
        <time>2024-09-22T07:25:52Z</time>
      </trkpt>
      <trkpt lat="42.45906" lon="2.8397">
        <ele>489</ele>
        <time>2024-09-22T07:25:57Z</time>
      </trkpt>
      <trkpt lat="42.45909" lon="2.83971">
        <ele>489</ele>
        <time>2024-09-22T07:26:01Z</time>
      </trkpt>
      <trkpt lat="42.45911" lon="2.83974">
        <ele>490</ele>
        <time>2024-09-22T07:26:05Z</time>
      </trkpt>
      <trkpt lat="42.45913" lon="2.83978">
        <ele>492</ele>
        <time>2024-09-22T07:26:10Z</time>
      </trkpt>
      <trkpt lat="42.45915" lon="2.83979">
        <ele>492</ele>
        <time>2024-09-22T07:26:15Z</time>
      </trkpt>
      <trkpt lat="42.45919" lon="2.8398">
        <ele>495</ele>
        <time>2024-09-22T07:26:39Z</time>
      </trkpt>
      <trkpt lat="42.4592" lon="2.83983">
        <ele>493</ele>
        <time>2024-09-22T07:26:43Z</time>
      </trkpt>
      <trkpt lat="42.4592" lon="2.83986">
        <ele>493</ele>
        <time>2024-09-22T07:26:45Z</time>
      </trkpt>
      <trkpt lat="42.45919" lon="2.83989">
        <ele>493</ele>
        <time>2024-09-22T07:26:48Z</time>
      </trkpt>
      <trkpt lat="42.45918" lon="2.83995">
        <ele>491</ele>
        <time>2024-09-22T07:26:51Z</time>
      </trkpt>
      <trkpt lat="42.45916" lon="2.84">
        <ele>490</ele>
        <time>2024-09-22T07:26:56Z</time>
      </trkpt>
      <trkpt lat="42.45914" lon="2.84004">
        <ele>491</ele>
        <time>2024-09-22T07:26:59Z</time>
      </trkpt>
      <trkpt lat="42.45912" lon="2.84006">
        <ele>490</ele>
        <time>2024-09-22T07:27:01Z</time>
      </trkpt>
      <trkpt lat="42.4591" lon="2.8401">
        <ele>488</ele>
        <time>2024-09-22T07:27:04Z</time>
      </trkpt>
      <trkpt lat="42.45909" lon="2.84014">
        <ele>487</ele>
        <time>2024-09-22T07:27:06Z</time>
      </trkpt>
      <trkpt lat="42.45907" lon="2.84017">
        <ele>487</ele>
        <time>2024-09-22T07:27:10Z</time>
      </trkpt>
      <trkpt lat="42.45904" lon="2.8402">
        <ele>488</ele>
        <time>2024-09-22T07:27:13Z</time>
      </trkpt>
      <trkpt lat="42.45901" lon="2.84023">
        <ele>487</ele>
        <time>2024-09-22T07:27:16Z</time>
      </trkpt>
      <trkpt lat="42.45898" lon="2.84024">
        <ele>487</ele>
        <time>2024-09-22T07:27:18Z</time>
      </trkpt>
      <trkpt lat="42.45895" lon="2.84025">
        <ele>487</ele>
        <time>2024-09-22T07:27:21Z</time>
      </trkpt>
      <trkpt lat="42.45895" lon="2.84028">
        <ele>487</ele>
        <time>2024-09-22T07:27:23Z</time>
      </trkpt>
      <trkpt lat="42.45894" lon="2.84033">
        <ele>486</ele>
        <time>2024-09-22T07:27:28Z</time>
      </trkpt>
      <trkpt lat="42.45892" lon="2.84038">
        <ele>486</ele>
        <time>2024-09-22T07:27:31Z</time>
      </trkpt>
      <trkpt lat="42.45891" lon="2.84043">
        <ele>487</ele>
        <time>2024-09-22T07:27:35Z</time>
      </trkpt>
      <trkpt lat="42.45891" lon="2.84047">
        <ele>486</ele>
        <time>2024-09-22T07:27:38Z</time>
      </trkpt>
      <trkpt lat="42.4589" lon="2.84051">
        <ele>487</ele>
        <time>2024-09-22T07:27:40Z</time>
      </trkpt>
      <trkpt lat="42.45889" lon="2.84054">
        <ele>485</ele>
        <time>2024-09-22T07:27:42Z</time>
      </trkpt>
      <trkpt lat="42.45888" lon="2.84058">
        <ele>485</ele>
        <time>2024-09-22T07:27:45Z</time>
      </trkpt>
      <trkpt lat="42.45887" lon="2.84063">
        <ele>484</ele>
        <time>2024-09-22T07:27:49Z</time>
      </trkpt>
      <trkpt lat="42.45886" lon="2.84067">
        <ele>484</ele>
        <time>2024-09-22T07:27:53Z</time>
      </trkpt>
      <trkpt lat="42.45886" lon="2.84072">
        <ele>482</ele>
        <time>2024-09-22T07:27:56Z</time>
      </trkpt>
      <trkpt lat="42.45885" lon="2.84078">
        <ele>483</ele>
        <time>2024-09-22T07:27:59Z</time>
      </trkpt>
      <trkpt lat="42.45884" lon="2.84083">
        <ele>482</ele>
        <time>2024-09-22T07:28:02Z</time>
      </trkpt>
      <trkpt lat="42.45884" lon="2.84087">
        <ele>482</ele>
        <time>2024-09-22T07:28:04Z</time>
      </trkpt>
      <trkpt lat="42.45883" lon="2.84092">
        <ele>482</ele>
        <time>2024-09-22T07:28:07Z</time>
      </trkpt>
      <trkpt lat="42.45883" lon="2.84097">
        <ele>482</ele>
        <time>2024-09-22T07:28:10Z</time>
      </trkpt>
      <trkpt lat="42.45882" lon="2.84101">
        <ele>482</ele>
        <time>2024-09-22T07:28:12Z</time>
      </trkpt>
      <trkpt lat="42.4588" lon="2.84105">
        <ele>482</ele>
        <time>2024-09-22T07:28:15Z</time>
      </trkpt>
      <trkpt lat="42.45878" lon="2.84109">
        <ele>481</ele>
        <time>2024-09-22T07:28:20Z</time>
      </trkpt>
      <trkpt lat="42.45877" lon="2.84113">
        <ele>480</ele>
        <time>2024-09-22T07:28:23Z</time>
      </trkpt>
      <trkpt lat="42.45875" lon="2.84118">
        <ele>479</ele>
        <time>2024-09-22T07:28:26Z</time>
      </trkpt>
      <trkpt lat="42.45874" lon="2.84122">
        <ele>478</ele>
        <time>2024-09-22T07:28:30Z</time>
      </trkpt>
      <trkpt lat="42.45874" lon="2.84127">
        <ele>478</ele>
        <time>2024-09-22T07:28:34Z</time>
      </trkpt>
      <trkpt lat="42.45873" lon="2.84132">
        <ele>477</ele>
        <time>2024-09-22T07:28:37Z</time>
      </trkpt>
      <trkpt lat="42.45872" lon="2.84135">
        <ele>477</ele>
        <time>2024-09-22T07:28:39Z</time>
      </trkpt>
      <trkpt lat="42.45871" lon="2.84139">
        <ele>476</ele>
        <time>2024-09-22T07:28:42Z</time>
      </trkpt>
      <trkpt lat="42.4587" lon="2.84143">
        <ele>477</ele>
        <time>2024-09-22T07:28:45Z</time>
      </trkpt>
      <trkpt lat="42.45869" lon="2.84147">
        <ele>476</ele>
        <time>2024-09-22T07:28:47Z</time>
      </trkpt>
      <trkpt lat="42.45868" lon="2.84151">
        <ele>476</ele>
        <time>2024-09-22T07:28:50Z</time>
      </trkpt>
      <trkpt lat="42.45867" lon="2.84155">
        <ele>476</ele>
        <time>2024-09-22T07:28:53Z</time>
      </trkpt>
      <trkpt lat="42.45866" lon="2.84159">
        <ele>476</ele>
        <time>2024-09-22T07:28:55Z</time>
      </trkpt>
      <trkpt lat="42.45865" lon="2.84163">
        <ele>475</ele>
        <time>2024-09-22T07:28:59Z</time>
      </trkpt>
      <trkpt lat="42.45865" lon="2.84166">
        <ele>475</ele>
        <time>2024-09-22T07:29:04Z</time>
      </trkpt>
      <trkpt lat="42.45863" lon="2.8417">
        <ele>476</ele>
        <time>2024-09-22T07:29:06Z</time>
      </trkpt>
      <trkpt lat="42.45862" lon="2.84174">
        <ele>477</ele>
        <time>2024-09-22T07:29:09Z</time>
      </trkpt>
      <trkpt lat="42.45862" lon="2.84178">
        <ele>476</ele>
        <time>2024-09-22T07:29:17Z</time>
      </trkpt>
      <trkpt lat="42.45862" lon="2.84177">
        <ele>477</ele>
        <time>2024-09-22T07:29:24Z</time>
      </trkpt>
      <trkpt lat="42.45862" lon="2.84179">
        <ele>477</ele>
        <time>2024-09-22T07:29:28Z</time>
      </trkpt>
      <trkpt lat="42.45862" lon="2.84182">
        <ele>475</ele>
        <time>2024-09-22T07:29:32Z</time>
      </trkpt>
      <trkpt lat="42.45861" lon="2.84186">
        <ele>475</ele>
        <time>2024-09-22T07:29:36Z</time>
      </trkpt>
      <trkpt lat="42.4586" lon="2.8419">
        <ele>474</ele>
        <time>2024-09-22T07:29:40Z</time>
      </trkpt>
      <trkpt lat="42.45859" lon="2.84194">
        <ele>472</ele>
        <time>2024-09-22T07:29:44Z</time>
      </trkpt>
      <trkpt lat="42.45858" lon="2.84198">
        <ele>472</ele>
        <time>2024-09-22T07:29:46Z</time>
      </trkpt>
      <trkpt lat="42.45857" lon="2.84203">
        <ele>473</ele>
        <time>2024-09-22T07:29:49Z</time>
      </trkpt>
      <trkpt lat="42.45856" lon="2.84207">
        <ele>473</ele>
        <time>2024-09-22T07:29:52Z</time>
      </trkpt>
      <trkpt lat="42.45855" lon="2.84211">
        <ele>472</ele>
        <time>2024-09-22T07:29:57Z</time>
      </trkpt>
      <trkpt lat="42.45854" lon="2.84215">
        <ele>470</ele>
        <time>2024-09-22T07:30:01Z</time>
      </trkpt>
      <trkpt lat="42.45853" lon="2.84219">
        <ele>472</ele>
        <time>2024-09-22T07:30:04Z</time>
      </trkpt>
      <trkpt lat="42.45851" lon="2.84222">
        <ele>471</ele>
        <time>2024-09-22T07:30:08Z</time>
      </trkpt>
      <trkpt lat="42.45849" lon="2.84227">
        <ele>471</ele>
        <time>2024-09-22T07:30:12Z</time>
      </trkpt>
      <trkpt lat="42.45848" lon="2.84231">
        <ele>470</ele>
        <time>2024-09-22T07:30:15Z</time>
      </trkpt>
      <trkpt lat="42.45847" lon="2.84235">
        <ele>469</ele>
        <time>2024-09-22T07:30:18Z</time>
      </trkpt>
      <trkpt lat="42.45845" lon="2.84239">
        <ele>470</ele>
        <time>2024-09-22T07:30:20Z</time>
      </trkpt>
      <trkpt lat="42.45844" lon="2.84242">
        <ele>469</ele>
        <time>2024-09-22T07:30:23Z</time>
      </trkpt>
      <trkpt lat="42.45842" lon="2.84247">
        <ele>468</ele>
        <time>2024-09-22T07:30:25Z</time>
      </trkpt>
      <trkpt lat="42.4584" lon="2.84251">
        <ele>467</ele>
        <time>2024-09-22T07:30:28Z</time>
      </trkpt>
      <trkpt lat="42.45838" lon="2.84256">
        <ele>468</ele>
        <time>2024-09-22T07:30:31Z</time>
      </trkpt>
      <trkpt lat="42.45837" lon="2.8426">
        <ele>468</ele>
        <time>2024-09-22T07:30:35Z</time>
      </trkpt>
      <trkpt lat="42.45835" lon="2.84264">
        <ele>469</ele>
        <time>2024-09-22T07:30:38Z</time>
      </trkpt>
      <trkpt lat="42.45834" lon="2.84268">
        <ele>469</ele>
        <time>2024-09-22T07:30:41Z</time>
      </trkpt>
      <trkpt lat="42.45833" lon="2.84271">
        <ele>469</ele>
        <time>2024-09-22T07:30:44Z</time>
      </trkpt>
      <trkpt lat="42.45832" lon="2.84275">
        <ele>470</ele>
        <time>2024-09-22T07:30:48Z</time>
      </trkpt>
      <trkpt lat="42.45831" lon="2.84279">
        <ele>469</ele>
        <time>2024-09-22T07:30:51Z</time>
      </trkpt>
      <trkpt lat="42.45831" lon="2.84283">
        <ele>470</ele>
        <time>2024-09-22T07:30:54Z</time>
      </trkpt>
      <trkpt lat="42.45831" lon="2.84287">
        <ele>469</ele>
        <time>2024-09-22T07:30:57Z</time>
      </trkpt>
      <trkpt lat="42.45831" lon="2.84291">
        <ele>469</ele>
        <time>2024-09-22T07:30:59Z</time>
      </trkpt>
      <trkpt lat="42.45831" lon="2.84295">
        <ele>469</ele>
        <time>2024-09-22T07:31:03Z</time>
      </trkpt>
      <trkpt lat="42.45832" lon="2.84299">
        <ele>471</ele>
        <time>2024-09-22T07:31:06Z</time>
      </trkpt>
      <trkpt lat="42.45832" lon="2.84303">
        <ele>471</ele>
        <time>2024-09-22T07:31:09Z</time>
      </trkpt>
      <trkpt lat="42.45833" lon="2.84308">
        <ele>470</ele>
        <time>2024-09-22T07:31:12Z</time>
      </trkpt>
      <trkpt lat="42.45833" lon="2.84312">
        <ele>469</ele>
        <time>2024-09-22T07:31:14Z</time>
      </trkpt>
      <trkpt lat="42.45833" lon="2.84316">
        <ele>469</ele>
        <time>2024-09-22T07:31:17Z</time>
      </trkpt>
      <trkpt lat="42.45833" lon="2.84321">
        <ele>469</ele>
        <time>2024-09-22T07:31:20Z</time>
      </trkpt>
      <trkpt lat="42.45834" lon="2.84326">
        <ele>468</ele>
        <time>2024-09-22T07:31:23Z</time>
      </trkpt>
      <trkpt lat="42.45834" lon="2.8433">
        <ele>468</ele>
        <time>2024-09-22T07:31:26Z</time>
      </trkpt>
      <trkpt lat="42.45833" lon="2.84334">
        <ele>467</ele>
        <time>2024-09-22T07:31:28Z</time>
      </trkpt>
      <trkpt lat="42.45833" lon="2.84338">
        <ele>468</ele>
        <time>2024-09-22T07:31:30Z</time>
      </trkpt>
      <trkpt lat="42.45832" lon="2.84343">
        <ele>467</ele>
        <time>2024-09-22T07:31:33Z</time>
      </trkpt>
      <trkpt lat="42.45832" lon="2.84347">
        <ele>467</ele>
        <time>2024-09-22T07:31:36Z</time>
      </trkpt>
      <trkpt lat="42.45831" lon="2.84352">
        <ele>467</ele>
        <time>2024-09-22T07:31:39Z</time>
      </trkpt>
      <trkpt lat="42.45831" lon="2.84356">
        <ele>465</ele>
        <time>2024-09-22T07:31:45Z</time>
      </trkpt>
      <trkpt lat="42.4583" lon="2.84361">
        <ele>465</ele>
        <time>2024-09-22T07:31:49Z</time>
      </trkpt>
      <trkpt lat="42.4583" lon="2.84366">
        <ele>464</ele>
        <time>2024-09-22T07:31:52Z</time>
      </trkpt>
      <trkpt lat="42.45829" lon="2.8437">
        <ele>463</ele>
        <time>2024-09-22T07:31:54Z</time>
      </trkpt>
      <trkpt lat="42.45829" lon="2.84374">
        <ele>463</ele>
        <time>2024-09-22T07:31:57Z</time>
      </trkpt>
      <trkpt lat="42.45828" lon="2.84379">
        <ele>461</ele>
        <time>2024-09-22T07:32:00Z</time>
      </trkpt>
      <trkpt lat="42.45826" lon="2.84383">
        <ele>460</ele>
        <time>2024-09-22T07:32:05Z</time>
      </trkpt>
      <trkpt lat="42.45824" lon="2.84387">
        <ele>460</ele>
        <time>2024-09-22T07:32:07Z</time>
      </trkpt>
      <trkpt lat="42.45824" lon="2.84391">
        <ele>459</ele>
        <time>2024-09-22T07:32:10Z</time>
      </trkpt>
      <trkpt lat="42.45824" lon="2.84395">
        <ele>459</ele>
        <time>2024-09-22T07:32:12Z</time>
      </trkpt>
      <trkpt lat="42.45823" lon="2.84399">
        <ele>459</ele>
        <time>2024-09-22T07:32:14Z</time>
      </trkpt>
      <trkpt lat="42.45823" lon="2.84403">
        <ele>459</ele>
        <time>2024-09-22T07:32:17Z</time>
      </trkpt>
      <trkpt lat="42.45823" lon="2.84408">
        <ele>459</ele>
        <time>2024-09-22T07:32:20Z</time>
      </trkpt>
      <trkpt lat="42.45822" lon="2.84413">
        <ele>458</ele>
        <time>2024-09-22T07:32:23Z</time>
      </trkpt>
      <trkpt lat="42.45823" lon="2.84417">
        <ele>457</ele>
        <time>2024-09-22T07:32:27Z</time>
      </trkpt>
      <trkpt lat="42.45823" lon="2.84422">
        <ele>457</ele>
        <time>2024-09-22T07:32:31Z</time>
      </trkpt>
      <trkpt lat="42.45823" lon="2.84427">
        <ele>457</ele>
        <time>2024-09-22T07:32:35Z</time>
      </trkpt>
      <trkpt lat="42.45822" lon="2.84431">
        <ele>456</ele>
        <time>2024-09-22T07:32:37Z</time>
      </trkpt>
      <trkpt lat="42.45821" lon="2.84434">
        <ele>456</ele>
        <time>2024-09-22T07:32:41Z</time>
      </trkpt>
      <trkpt lat="42.4582" lon="2.84438">
        <ele>455</ele>
        <time>2024-09-22T07:32:44Z</time>
      </trkpt>
      <trkpt lat="42.45819" lon="2.84442">
        <ele>455</ele>
        <time>2024-09-22T07:32:47Z</time>
      </trkpt>
      <trkpt lat="42.45818" lon="2.84445">
        <ele>455</ele>
        <time>2024-09-22T07:32:51Z</time>
      </trkpt>
      <trkpt lat="42.45818" lon="2.84449">
        <ele>454</ele>
        <time>2024-09-22T07:32:53Z</time>
      </trkpt>
      <trkpt lat="42.45817" lon="2.84453">
        <ele>453</ele>
        <time>2024-09-22T07:32:56Z</time>
      </trkpt>
      <trkpt lat="42.45815" lon="2.84456">
        <ele>452</ele>
        <time>2024-09-22T07:32:59Z</time>
      </trkpt>
      <trkpt lat="42.45814" lon="2.84461">
        <ele>452</ele>
        <time>2024-09-22T07:33:02Z</time>
      </trkpt>
      <trkpt lat="42.45812" lon="2.84465">
        <ele>451</ele>
        <time>2024-09-22T07:33:06Z</time>
      </trkpt>
      <trkpt lat="42.45812" lon="2.8447">
        <ele>450</ele>
        <time>2024-09-22T07:33:11Z</time>
      </trkpt>
      <trkpt lat="42.4581" lon="2.84474">
        <ele>450</ele>
        <time>2024-09-22T07:33:13Z</time>
      </trkpt>
      <trkpt lat="42.45808" lon="2.84477">
        <ele>450</ele>
        <time>2024-09-22T07:33:15Z</time>
      </trkpt>
      <trkpt lat="42.45807" lon="2.84482">
        <ele>450</ele>
        <time>2024-09-22T07:33:18Z</time>
      </trkpt>
      <trkpt lat="42.45807" lon="2.84486">
        <ele>450</ele>
        <time>2024-09-22T07:33:21Z</time>
      </trkpt>
      <trkpt lat="42.45806" lon="2.8449">
        <ele>449</ele>
        <time>2024-09-22T07:33:23Z</time>
      </trkpt>
      <trkpt lat="42.45805" lon="2.84494">
        <ele>448</ele>
        <time>2024-09-22T07:33:25Z</time>
      </trkpt>
      <trkpt lat="42.45803" lon="2.84498">
        <ele>449</ele>
        <time>2024-09-22T07:33:28Z</time>
      </trkpt>
      <trkpt lat="42.45802" lon="2.84503">
        <ele>448</ele>
        <time>2024-09-22T07:33:39Z</time>
      </trkpt>
      <trkpt lat="42.45803" lon="2.84503">
        <ele>448</ele>
        <time>2024-09-22T07:33:54Z</time>
      </trkpt>
      <trkpt lat="42.45803" lon="2.845">
        <ele>451</ele>
        <time>2024-09-22T07:37:37Z</time>
      </trkpt>
      <trkpt lat="42.45803" lon="2.84498">
        <ele>450</ele>
        <time>2024-09-22T07:37:39Z</time>
      </trkpt>
      <trkpt lat="42.458" lon="2.84496">
        <ele>448</ele>
        <time>2024-09-22T07:37:42Z</time>
      </trkpt>
      <trkpt lat="42.45797" lon="2.84495">
        <ele>448</ele>
        <time>2024-09-22T07:37:44Z</time>
      </trkpt>
      <trkpt lat="42.45794" lon="2.84494">
        <ele>448</ele>
        <time>2024-09-22T07:37:46Z</time>
      </trkpt>
      <trkpt lat="42.45791" lon="2.84493">
        <ele>446</ele>
        <time>2024-09-22T07:37:49Z</time>
      </trkpt>
      <trkpt lat="42.45788" lon="2.84493">
        <ele>446</ele>
        <time>2024-09-22T07:37:52Z</time>
      </trkpt>
      <trkpt lat="42.45785" lon="2.84493">
        <ele>446</ele>
        <time>2024-09-22T07:37:55Z</time>
      </trkpt>
      <trkpt lat="42.45782" lon="2.84493">
        <ele>445</ele>
        <time>2024-09-22T07:37:57Z</time>
      </trkpt>
      <trkpt lat="42.45778" lon="2.84492">
        <ele>446</ele>
        <time>2024-09-22T07:38:00Z</time>
      </trkpt>
      <trkpt lat="42.45775" lon="2.84493">
        <ele>445</ele>
        <time>2024-09-22T07:38:02Z</time>
      </trkpt>
      <trkpt lat="42.45772" lon="2.84495">
        <ele>445</ele>
        <time>2024-09-22T07:38:05Z</time>
      </trkpt>
      <trkpt lat="42.45768" lon="2.84496">
        <ele>445</ele>
        <time>2024-09-22T07:38:08Z</time>
      </trkpt>
      <trkpt lat="42.45766" lon="2.845">
        <ele>444</ele>
        <time>2024-09-22T07:38:11Z</time>
      </trkpt>
      <trkpt lat="42.45764" lon="2.84503">
        <ele>443</ele>
        <time>2024-09-22T07:38:14Z</time>
      </trkpt>
      <trkpt lat="42.45762" lon="2.84507">
        <ele>442</ele>
        <time>2024-09-22T07:38:17Z</time>
      </trkpt>
      <trkpt lat="42.45761" lon="2.84511">
        <ele>442</ele>
        <time>2024-09-22T07:38:19Z</time>
      </trkpt>
      <trkpt lat="42.45759" lon="2.84515">
        <ele>442</ele>
        <time>2024-09-22T07:38:21Z</time>
      </trkpt>
      <trkpt lat="42.45757" lon="2.84518">
        <ele>439</ele>
        <time>2024-09-22T07:38:24Z</time>
      </trkpt>
      <trkpt lat="42.45756" lon="2.84522">
        <ele>441</ele>
        <time>2024-09-22T07:38:26Z</time>
      </trkpt>
      <trkpt lat="42.45753" lon="2.84525">
        <ele>441</ele>
        <time>2024-09-22T07:38:28Z</time>
      </trkpt>
      <trkpt lat="42.45751" lon="2.84528">
        <ele>440</ele>
        <time>2024-09-22T07:38:31Z</time>
      </trkpt>
      <trkpt lat="42.45749" lon="2.84533">
        <ele>440</ele>
        <time>2024-09-22T07:38:34Z</time>
      </trkpt>
      <trkpt lat="42.45749" lon="2.84537">
        <ele>439</ele>
        <time>2024-09-22T07:38:37Z</time>
      </trkpt>
      <trkpt lat="42.45747" lon="2.84541">
        <ele>436</ele>
        <time>2024-09-22T07:38:44Z</time>
      </trkpt>
      <trkpt lat="42.45745" lon="2.84543">
        <ele>434</ele>
        <time>2024-09-22T07:38:48Z</time>
      </trkpt>
      <trkpt lat="42.45743" lon="2.84546">
        <ele>434</ele>
        <time>2024-09-22T07:38:51Z</time>
      </trkpt>
      <trkpt lat="42.45741" lon="2.84549">
        <ele>432</ele>
        <time>2024-09-22T07:38:55Z</time>
      </trkpt>
      <trkpt lat="42.45739" lon="2.84552">
        <ele>431</ele>
        <time>2024-09-22T07:38:59Z</time>
      </trkpt>
      <trkpt lat="42.45736" lon="2.84554">
        <ele>430</ele>
        <time>2024-09-22T07:39:02Z</time>
      </trkpt>
      <trkpt lat="42.45733" lon="2.84557">
        <ele>429</ele>
        <time>2024-09-22T07:39:06Z</time>
      </trkpt>
      <trkpt lat="42.45731" lon="2.8456">
        <ele>428</ele>
        <time>2024-09-22T07:39:09Z</time>
      </trkpt>
      <trkpt lat="42.4573" lon="2.84564">
        <ele>426</ele>
        <time>2024-09-22T07:39:12Z</time>
      </trkpt>
      <trkpt lat="42.45728" lon="2.84568">
        <ele>425</ele>
        <time>2024-09-22T07:39:15Z</time>
      </trkpt>
      <trkpt lat="42.45728" lon="2.84572">
        <ele>425</ele>
        <time>2024-09-22T07:39:18Z</time>
      </trkpt>
      <trkpt lat="42.45728" lon="2.84578">
        <ele>423</ele>
        <time>2024-09-22T07:39:21Z</time>
      </trkpt>
      <trkpt lat="42.45727" lon="2.84582">
        <ele>423</ele>
        <time>2024-09-22T07:39:23Z</time>
      </trkpt>
      <trkpt lat="42.45726" lon="2.84587">
        <ele>422</ele>
        <time>2024-09-22T07:39:26Z</time>
      </trkpt>
      <trkpt lat="42.45724" lon="2.84591">
        <ele>422</ele>
        <time>2024-09-22T07:39:29Z</time>
      </trkpt>
      <trkpt lat="42.45723" lon="2.84596">
        <ele>421</ele>
        <time>2024-09-22T07:39:31Z</time>
      </trkpt>
      <trkpt lat="42.45721" lon="2.84599">
        <ele>420</ele>
        <time>2024-09-22T07:39:33Z</time>
      </trkpt>
      <trkpt lat="42.4572" lon="2.84603">
        <ele>419</ele>
        <time>2024-09-22T07:39:38Z</time>
      </trkpt>
      <trkpt lat="42.45717" lon="2.84604">
        <ele>418</ele>
        <time>2024-09-22T07:39:41Z</time>
      </trkpt>
      <trkpt lat="42.45715" lon="2.84606">
        <ele>417</ele>
        <time>2024-09-22T07:39:45Z</time>
      </trkpt>
      <trkpt lat="42.45713" lon="2.84609">
        <ele>416</ele>
        <time>2024-09-22T07:39:49Z</time>
      </trkpt>
      <trkpt lat="42.45712" lon="2.84613">
        <ele>415</ele>
        <time>2024-09-22T07:39:52Z</time>
      </trkpt>
      <trkpt lat="42.4571" lon="2.84616">
        <ele>414</ele>
        <time>2024-09-22T07:39:55Z</time>
      </trkpt>
      <trkpt lat="42.45709" lon="2.8462">
        <ele>413</ele>
        <time>2024-09-22T07:39:59Z</time>
      </trkpt>
      <trkpt lat="42.45708" lon="2.84624">
        <ele>412</ele>
        <time>2024-09-22T07:40:02Z</time>
      </trkpt>
      <trkpt lat="42.45706" lon="2.84629">
        <ele>413</ele>
        <time>2024-09-22T07:40:06Z</time>
      </trkpt>
      <trkpt lat="42.45705" lon="2.84633">
        <ele>412</ele>
        <time>2024-09-22T07:40:10Z</time>
      </trkpt>
      <trkpt lat="42.45705" lon="2.84638">
        <ele>410</ele>
        <time>2024-09-22T07:40:13Z</time>
      </trkpt>
      <trkpt lat="42.45705" lon="2.84642">
        <ele>408</ele>
        <time>2024-09-22T07:40:17Z</time>
      </trkpt>
      <trkpt lat="42.45705" lon="2.84646">
        <ele>407</ele>
        <time>2024-09-22T07:40:20Z</time>
      </trkpt>
      <trkpt lat="42.45705" lon="2.84651">
        <ele>406</ele>
        <time>2024-09-22T07:40:23Z</time>
      </trkpt>
      <trkpt lat="42.45704" lon="2.84654">
        <ele>406</ele>
        <time>2024-09-22T07:40:28Z</time>
      </trkpt>
      <trkpt lat="42.45703" lon="2.84658">
        <ele>406</ele>
        <time>2024-09-22T07:40:30Z</time>
      </trkpt>
      <trkpt lat="42.45702" lon="2.84663">
        <ele>405</ele>
        <time>2024-09-22T07:40:33Z</time>
      </trkpt>
      <trkpt lat="42.45702" lon="2.84668">
        <ele>404</ele>
        <time>2024-09-22T07:40:35Z</time>
      </trkpt>
      <trkpt lat="42.45702" lon="2.84672">
        <ele>404</ele>
        <time>2024-09-22T07:41:09Z</time>
      </trkpt>
      <trkpt lat="42.45701" lon="2.84676">
        <ele>403</ele>
        <time>2024-09-22T07:41:12Z</time>
      </trkpt>
      <trkpt lat="42.457" lon="2.84681">
        <ele>403</ele>
        <time>2024-09-22T07:41:15Z</time>
      </trkpt>
      <trkpt lat="42.457" lon="2.84685">
        <ele>403</ele>
        <time>2024-09-22T07:41:18Z</time>
      </trkpt>
      <trkpt lat="42.45699" lon="2.8469">
        <ele>403</ele>
        <time>2024-09-22T07:41:21Z</time>
      </trkpt>
      <trkpt lat="42.45698" lon="2.84695">
        <ele>402</ele>
        <time>2024-09-22T07:41:24Z</time>
      </trkpt>
      <trkpt lat="42.45698" lon="2.847">
        <ele>402</ele>
        <time>2024-09-22T07:41:27Z</time>
      </trkpt>
      <trkpt lat="42.45697" lon="2.84704">
        <ele>401</ele>
        <time>2024-09-22T07:41:30Z</time>
      </trkpt>
      <trkpt lat="42.45697" lon="2.84709">
        <ele>402</ele>
        <time>2024-09-22T07:41:32Z</time>
      </trkpt>
      <trkpt lat="42.45696" lon="2.84713">
        <ele>401</ele>
        <time>2024-09-22T07:41:35Z</time>
      </trkpt>
      <trkpt lat="42.45696" lon="2.84717">
        <ele>401</ele>
        <time>2024-09-22T07:41:39Z</time>
      </trkpt>
      <trkpt lat="42.45697" lon="2.84721">
        <ele>402</ele>
        <time>2024-09-22T07:41:40Z</time>
      </trkpt>
      <trkpt lat="42.45697" lon="2.84725">
        <ele>400</ele>
        <time>2024-09-22T07:41:43Z</time>
      </trkpt>
      <trkpt lat="42.45698" lon="2.8473">
        <ele>401</ele>
        <time>2024-09-22T07:41:48Z</time>
      </trkpt>
      <trkpt lat="42.457" lon="2.84734">
        <ele>402</ele>
        <time>2024-09-22T07:41:51Z</time>
      </trkpt>
      <trkpt lat="42.45702" lon="2.84737">
        <ele>401</ele>
        <time>2024-09-22T07:41:53Z</time>
      </trkpt>
      <trkpt lat="42.45703" lon="2.8474">
        <ele>402</ele>
        <time>2024-09-22T07:41:56Z</time>
      </trkpt>
      <trkpt lat="42.45703" lon="2.84744">
        <ele>403</ele>
        <time>2024-09-22T07:41:59Z</time>
      </trkpt>
      <trkpt lat="42.45705" lon="2.84748">
        <ele>403</ele>
        <time>2024-09-22T07:42:02Z</time>
      </trkpt>
      <trkpt lat="42.45707" lon="2.84752">
        <ele>403</ele>
        <time>2024-09-22T07:42:04Z</time>
      </trkpt>
      <trkpt lat="42.45708" lon="2.84756">
        <ele>403</ele>
        <time>2024-09-22T07:42:07Z</time>
      </trkpt>
      <trkpt lat="42.4571" lon="2.8476">
        <ele>403</ele>
        <time>2024-09-22T07:42:10Z</time>
      </trkpt>
      <trkpt lat="42.4571" lon="2.84765">
        <ele>402</ele>
        <time>2024-09-22T07:42:13Z</time>
      </trkpt>
      <trkpt lat="42.45709" lon="2.84769">
        <ele>402</ele>
        <time>2024-09-22T07:42:16Z</time>
      </trkpt>
      <trkpt lat="42.45708" lon="2.84772">
        <ele>403</ele>
        <time>2024-09-22T07:42:18Z</time>
      </trkpt>
      <trkpt lat="42.45706" lon="2.84776">
        <ele>403</ele>
        <time>2024-09-22T07:42:21Z</time>
      </trkpt>
      <trkpt lat="42.45705" lon="2.8478">
        <ele>404</ele>
        <time>2024-09-22T07:42:24Z</time>
      </trkpt>
      <trkpt lat="42.45705" lon="2.84784">
        <ele>402</ele>
        <time>2024-09-22T07:42:27Z</time>
      </trkpt>
      <trkpt lat="42.45704" lon="2.84789">
        <ele>403</ele>
        <time>2024-09-22T07:42:30Z</time>
      </trkpt>
      <trkpt lat="42.45703" lon="2.84793">
        <ele>403</ele>
        <time>2024-09-22T07:42:33Z</time>
      </trkpt>
      <trkpt lat="42.45704" lon="2.84797">
        <ele>402</ele>
        <time>2024-09-22T07:42:37Z</time>
      </trkpt>
      <trkpt lat="42.45705" lon="2.84802">
        <ele>401</ele>
        <time>2024-09-22T07:42:40Z</time>
      </trkpt>
      <trkpt lat="42.45704" lon="2.84806">
        <ele>400</ele>
        <time>2024-09-22T07:42:43Z</time>
      </trkpt>
      <trkpt lat="42.45703" lon="2.84809">
        <ele>399</ele>
        <time>2024-09-22T07:42:46Z</time>
      </trkpt>
      <trkpt lat="42.45702" lon="2.84813">
        <ele>397</ele>
        <time>2024-09-22T07:42:50Z</time>
      </trkpt>
      <trkpt lat="42.45702" lon="2.84817">
        <ele>396</ele>
        <time>2024-09-22T07:42:53Z</time>
      </trkpt>
      <trkpt lat="42.457" lon="2.8482">
        <ele>397</ele>
        <time>2024-09-22T07:42:56Z</time>
      </trkpt>
      <trkpt lat="42.45698" lon="2.84823">
        <ele>398</ele>
        <time>2024-09-22T07:42:58Z</time>
      </trkpt>
      <trkpt lat="42.45697" lon="2.84826">
        <ele>396</ele>
        <time>2024-09-22T07:43:01Z</time>
      </trkpt>
      <trkpt lat="42.45696" lon="2.8483">
        <ele>397</ele>
        <time>2024-09-22T07:43:05Z</time>
      </trkpt>
      <trkpt lat="42.45695" lon="2.84834">
        <ele>395</ele>
        <time>2024-09-22T07:43:11Z</time>
      </trkpt>
      <trkpt lat="42.45696" lon="2.84837">
        <ele>394</ele>
        <time>2024-09-22T07:43:16Z</time>
      </trkpt>
      <trkpt lat="42.45697" lon="2.84841">
        <ele>393</ele>
        <time>2024-09-22T07:43:19Z</time>
      </trkpt>
      <trkpt lat="42.45697" lon="2.84845">
        <ele>391</ele>
        <time>2024-09-22T07:43:24Z</time>
      </trkpt>
      <trkpt lat="42.45698" lon="2.84849">
        <ele>391</ele>
        <time>2024-09-22T07:43:26Z</time>
      </trkpt>
      <trkpt lat="42.45697" lon="2.84852">
        <ele>388</ele>
        <time>2024-09-22T07:43:30Z</time>
      </trkpt>
      <trkpt lat="42.45696" lon="2.84856">
        <ele>388</ele>
        <time>2024-09-22T07:43:33Z</time>
      </trkpt>
      <trkpt lat="42.45695" lon="2.84859">
        <ele>387</ele>
        <time>2024-09-22T07:43:36Z</time>
      </trkpt>
      <trkpt lat="42.45694" lon="2.84863">
        <ele>387</ele>
        <time>2024-09-22T07:43:40Z</time>
      </trkpt>
      <trkpt lat="42.45692" lon="2.84867">
        <ele>386</ele>
        <time>2024-09-22T07:43:42Z</time>
      </trkpt>
      <trkpt lat="42.4569" lon="2.8487">
        <ele>386</ele>
        <time>2024-09-22T07:43:45Z</time>
      </trkpt>
      <trkpt lat="42.45687" lon="2.84874">
        <ele>386</ele>
        <time>2024-09-22T07:43:47Z</time>
      </trkpt>
      <trkpt lat="42.45685" lon="2.84877">
        <ele>386</ele>
        <time>2024-09-22T07:43:50Z</time>
      </trkpt>
      <trkpt lat="42.45682" lon="2.8488">
        <ele>386</ele>
        <time>2024-09-22T07:43:53Z</time>
      </trkpt>
      <trkpt lat="42.4568" lon="2.84882">
        <ele>386</ele>
        <time>2024-09-22T07:43:55Z</time>
      </trkpt>
      <trkpt lat="42.45678" lon="2.84885">
        <ele>384</ele>
        <time>2024-09-22T07:44:00Z</time>
      </trkpt>
      <trkpt lat="42.45676" lon="2.84889">
        <ele>384</ele>
        <time>2024-09-22T07:44:03Z</time>
      </trkpt>
      <trkpt lat="42.45676" lon="2.84893">
        <ele>385</ele>
        <time>2024-09-22T07:44:06Z</time>
      </trkpt>
      <trkpt lat="42.45674" lon="2.84897">
        <ele>384</ele>
        <time>2024-09-22T07:44:09Z</time>
      </trkpt>
      <trkpt lat="42.45673" lon="2.849">
        <ele>383</ele>
        <time>2024-09-22T07:44:12Z</time>
      </trkpt>
      <trkpt lat="42.4567" lon="2.84902">
        <ele>383</ele>
        <time>2024-09-22T07:44:15Z</time>
      </trkpt>
      <trkpt lat="42.45668" lon="2.84905">
        <ele>382</ele>
        <time>2024-09-22T07:44:18Z</time>
      </trkpt>
      <trkpt lat="42.45664" lon="2.84908">
        <ele>382</ele>
        <time>2024-09-22T07:44:22Z</time>
      </trkpt>
      <trkpt lat="42.45661" lon="2.84911">
        <ele>382</ele>
        <time>2024-09-22T07:44:26Z</time>
      </trkpt>
      <trkpt lat="42.45658" lon="2.84915">
        <ele>382</ele>
        <time>2024-09-22T07:44:29Z</time>
      </trkpt>
      <trkpt lat="42.45655" lon="2.84917">
        <ele>382</ele>
        <time>2024-09-22T07:44:33Z</time>
      </trkpt>
      <trkpt lat="42.45652" lon="2.8492">
        <ele>383</ele>
        <time>2024-09-22T07:44:36Z</time>
      </trkpt>
      <trkpt lat="42.4565" lon="2.84922">
        <ele>383</ele>
        <time>2024-09-22T07:44:39Z</time>
      </trkpt>
      <trkpt lat="42.45647" lon="2.84924">
        <ele>383</ele>
        <time>2024-09-22T07:44:43Z</time>
      </trkpt>
      <trkpt lat="42.45645" lon="2.84928">
        <ele>383</ele>
        <time>2024-09-22T07:44:46Z</time>
      </trkpt>
      <trkpt lat="42.45645" lon="2.84932">
        <ele>382</ele>
        <time>2024-09-22T07:44:48Z</time>
      </trkpt>
      <trkpt lat="42.45645" lon="2.84936">
        <ele>382</ele>
        <time>2024-09-22T07:44:52Z</time>
      </trkpt>
      <trkpt lat="42.45644" lon="2.8494">
        <ele>381</ele>
        <time>2024-09-22T07:44:55Z</time>
      </trkpt>
      <trkpt lat="42.45643" lon="2.84944">
        <ele>379</ele>
        <time>2024-09-22T07:44:58Z</time>
      </trkpt>
      <trkpt lat="42.45642" lon="2.84949">
        <ele>379</ele>
        <time>2024-09-22T07:45:02Z</time>
      </trkpt>
      <trkpt lat="42.45641" lon="2.84954">
        <ele>378</ele>
        <time>2024-09-22T07:45:07Z</time>
      </trkpt>
      <trkpt lat="42.45639" lon="2.84957">
        <ele>378</ele>
        <time>2024-09-22T07:45:09Z</time>
      </trkpt>
      <trkpt lat="42.45638" lon="2.84961">
        <ele>378</ele>
        <time>2024-09-22T07:45:12Z</time>
      </trkpt>
      <trkpt lat="42.45636" lon="2.84965">
        <ele>377</ele>
        <time>2024-09-22T07:45:16Z</time>
      </trkpt>
      <trkpt lat="42.45634" lon="2.84969">
        <ele>376</ele>
        <time>2024-09-22T07:45:20Z</time>
      </trkpt>
      <trkpt lat="42.45632" lon="2.84973">
        <ele>377</ele>
        <time>2024-09-22T07:45:22Z</time>
      </trkpt>
      <trkpt lat="42.45629" lon="2.84976">
        <ele>377</ele>
        <time>2024-09-22T07:45:25Z</time>
      </trkpt>
      <trkpt lat="42.45626" lon="2.84979">
        <ele>376</ele>
        <time>2024-09-22T07:45:28Z</time>
      </trkpt>
      <trkpt lat="42.45623" lon="2.84982">
        <ele>376</ele>
        <time>2024-09-22T07:45:30Z</time>
      </trkpt>
      <trkpt lat="42.45621" lon="2.84985">
        <ele>376</ele>
        <time>2024-09-22T07:45:33Z</time>
      </trkpt>
      <trkpt lat="42.4562" lon="2.8499">
        <ele>376</ele>
        <time>2024-09-22T07:45:36Z</time>
      </trkpt>
      <trkpt lat="42.45619" lon="2.84994">
        <ele>375</ele>
        <time>2024-09-22T07:45:39Z</time>
      </trkpt>
      <trkpt lat="42.45617" lon="2.84999">
        <ele>376</ele>
        <time>2024-09-22T07:45:42Z</time>
      </trkpt>
      <trkpt lat="42.45614" lon="2.85002">
        <ele>376</ele>
        <time>2024-09-22T07:45:46Z</time>
      </trkpt>
      <trkpt lat="42.45612" lon="2.85005">
        <ele>377</ele>
        <time>2024-09-22T07:45:49Z</time>
      </trkpt>
      <trkpt lat="42.45611" lon="2.85009">
        <ele>376</ele>
        <time>2024-09-22T07:45:52Z</time>
      </trkpt>
      <trkpt lat="42.45609" lon="2.85014">
        <ele>376</ele>
        <time>2024-09-22T07:45:54Z</time>
      </trkpt>
      <trkpt lat="42.45608" lon="2.85018">
        <ele>375</ele>
        <time>2024-09-22T07:45:57Z</time>
      </trkpt>
      <trkpt lat="42.45607" lon="2.85022">
        <ele>375</ele>
        <time>2024-09-22T07:46:01Z</time>
      </trkpt>
      <trkpt lat="42.45605" lon="2.85025">
        <ele>374</ele>
        <time>2024-09-22T07:46:04Z</time>
      </trkpt>
      <trkpt lat="42.45603" lon="2.85028">
        <ele>374</ele>
        <time>2024-09-22T07:46:07Z</time>
      </trkpt>
      <trkpt lat="42.45601" lon="2.85032">
        <ele>375</ele>
        <time>2024-09-22T07:46:10Z</time>
      </trkpt>
      <trkpt lat="42.456" lon="2.85036">
        <ele>375</ele>
        <time>2024-09-22T07:46:15Z</time>
      </trkpt>
      <trkpt lat="42.45598" lon="2.85039">
        <ele>375</ele>
        <time>2024-09-22T07:46:17Z</time>
      </trkpt>
      <trkpt lat="42.45597" lon="2.85044">
        <ele>375</ele>
        <time>2024-09-22T07:46:20Z</time>
      </trkpt>
      <trkpt lat="42.45595" lon="2.85048">
        <ele>374</ele>
        <time>2024-09-22T07:46:23Z</time>
      </trkpt>
      <trkpt lat="42.45594" lon="2.85052">
        <ele>374</ele>
        <time>2024-09-22T07:46:26Z</time>
      </trkpt>
      <trkpt lat="42.45592" lon="2.85055">
        <ele>374</ele>
        <time>2024-09-22T07:46:29Z</time>
      </trkpt>
      <trkpt lat="42.4559" lon="2.85059">
        <ele>374</ele>
        <time>2024-09-22T07:46:32Z</time>
      </trkpt>
      <trkpt lat="42.45588" lon="2.85063">
        <ele>374</ele>
        <time>2024-09-22T07:46:35Z</time>
      </trkpt>
      <trkpt lat="42.45586" lon="2.85068">
        <ele>374</ele>
        <time>2024-09-22T07:46:38Z</time>
      </trkpt>
      <trkpt lat="42.45584" lon="2.85071">
        <ele>374</ele>
        <time>2024-09-22T07:46:40Z</time>
      </trkpt>
      <trkpt lat="42.45582" lon="2.85075">
        <ele>374</ele>
        <time>2024-09-22T07:46:44Z</time>
      </trkpt>
      <trkpt lat="42.4558" lon="2.85079">
        <ele>373</ele>
        <time>2024-09-22T07:46:50Z</time>
      </trkpt>
      <trkpt lat="42.45578" lon="2.85083">
        <ele>372</ele>
        <time>2024-09-22T07:46:53Z</time>
      </trkpt>
      <trkpt lat="42.45577" lon="2.85087">
        <ele>370</ele>
        <time>2024-09-22T07:46:57Z</time>
      </trkpt>
      <trkpt lat="42.45575" lon="2.85092">
        <ele>370</ele>
        <time>2024-09-22T07:47:00Z</time>
      </trkpt>
      <trkpt lat="42.45575" lon="2.85097">
        <ele>369</ele>
        <time>2024-09-22T07:47:03Z</time>
      </trkpt>
      <trkpt lat="42.45574" lon="2.85101">
        <ele>368</ele>
        <time>2024-09-22T07:47:06Z</time>
      </trkpt>
      <trkpt lat="42.45573" lon="2.85105">
        <ele>368</ele>
        <time>2024-09-22T07:47:08Z</time>
      </trkpt>
      <trkpt lat="42.45573" lon="2.8511">
        <ele>368</ele>
        <time>2024-09-22T07:47:11Z</time>
      </trkpt>
      <trkpt lat="42.45571" lon="2.85114">
        <ele>368</ele>
        <time>2024-09-22T07:47:13Z</time>
      </trkpt>
      <trkpt lat="42.4557" lon="2.85118">
        <ele>368</ele>
        <time>2024-09-22T07:47:17Z</time>
      </trkpt>
      <trkpt lat="42.45568" lon="2.85121">
        <ele>368</ele>
        <time>2024-09-22T07:47:20Z</time>
      </trkpt>
      <trkpt lat="42.45565" lon="2.85124">
        <ele>369</ele>
        <time>2024-09-22T07:47:23Z</time>
      </trkpt>
      <trkpt lat="42.45563" lon="2.85127">
        <ele>369</ele>
        <time>2024-09-22T07:47:26Z</time>
      </trkpt>
      <trkpt lat="42.45561" lon="2.8513">
        <ele>368</ele>
        <time>2024-09-22T07:47:28Z</time>
      </trkpt>
      <trkpt lat="42.45559" lon="2.85132">
        <ele>369</ele>
        <time>2024-09-22T07:47:30Z</time>
      </trkpt>
      <trkpt lat="42.45558" lon="2.85136">
        <ele>368</ele>
        <time>2024-09-22T07:47:33Z</time>
      </trkpt>
      <trkpt lat="42.45557" lon="2.8514">
        <ele>367</ele>
        <time>2024-09-22T07:47:35Z</time>
      </trkpt>
      <trkpt lat="42.45556" lon="2.85144">
        <ele>366</ele>
        <time>2024-09-22T07:47:39Z</time>
      </trkpt>
      <trkpt lat="42.45555" lon="2.85149">
        <ele>364</ele>
        <time>2024-09-22T07:47:43Z</time>
      </trkpt>
      <trkpt lat="42.45555" lon="2.85153">
        <ele>365</ele>
        <time>2024-09-22T07:47:45Z</time>
      </trkpt>
      <trkpt lat="42.45555" lon="2.85157">
        <ele>364</ele>
        <time>2024-09-22T07:47:48Z</time>
      </trkpt>
      <trkpt lat="42.45555" lon="2.85157">
        <ele>366</ele>
        <time>2024-09-22T07:47:58Z</time>
      </trkpt>
      <trkpt lat="42.45554" lon="2.85159">
        <ele>366</ele>
        <time>2024-09-22T07:48:16Z</time>
      </trkpt>
      <trkpt lat="42.45552" lon="2.85163">
        <ele>365</ele>
        <time>2024-09-22T07:48:20Z</time>
      </trkpt>
      <trkpt lat="42.4555" lon="2.85167">
        <ele>364</ele>
        <time>2024-09-22T07:48:22Z</time>
      </trkpt>
      <trkpt lat="42.45549" lon="2.85171">
        <ele>365</ele>
        <time>2024-09-22T07:48:25Z</time>
      </trkpt>
      <trkpt lat="42.45548" lon="2.85175">
        <ele>364</ele>
        <time>2024-09-22T07:48:27Z</time>
      </trkpt>
      <trkpt lat="42.45547" lon="2.85179">
        <ele>364</ele>
        <time>2024-09-22T07:48:30Z</time>
      </trkpt>
      <trkpt lat="42.45546" lon="2.85183">
        <ele>364</ele>
        <time>2024-09-22T07:48:32Z</time>
      </trkpt>
      <trkpt lat="42.45544" lon="2.85187">
        <ele>363</ele>
        <time>2024-09-22T07:48:35Z</time>
      </trkpt>
      <trkpt lat="42.45543" lon="2.85191">
        <ele>363</ele>
        <time>2024-09-22T07:48:38Z</time>
      </trkpt>
      <trkpt lat="42.45541" lon="2.85195">
        <ele>363</ele>
        <time>2024-09-22T07:48:41Z</time>
      </trkpt>
      <trkpt lat="42.4554" lon="2.852">
        <ele>363</ele>
        <time>2024-09-22T07:48:44Z</time>
      </trkpt>
      <trkpt lat="42.45538" lon="2.85205">
        <ele>362</ele>
        <time>2024-09-22T07:48:47Z</time>
      </trkpt>
      <trkpt lat="42.45535" lon="2.85208">
        <ele>361</ele>
        <time>2024-09-22T07:48:50Z</time>
      </trkpt>
      <trkpt lat="42.45533" lon="2.85211">
        <ele>360</ele>
        <time>2024-09-22T07:48:54Z</time>
      </trkpt>
      <trkpt lat="42.45531" lon="2.85215">
        <ele>360</ele>
        <time>2024-09-22T07:48:56Z</time>
      </trkpt>
      <trkpt lat="42.45529" lon="2.85218">
        <ele>360</ele>
        <time>2024-09-22T07:48:58Z</time>
      </trkpt>
      <trkpt lat="42.45527" lon="2.85222">
        <ele>359</ele>
        <time>2024-09-22T07:49:01Z</time>
      </trkpt>
      <trkpt lat="42.45524" lon="2.85226">
        <ele>359</ele>
        <time>2024-09-22T07:49:04Z</time>
      </trkpt>
      <trkpt lat="42.45523" lon="2.85231">
        <ele>359</ele>
        <time>2024-09-22T07:49:07Z</time>
      </trkpt>
      <trkpt lat="42.45522" lon="2.85235">
        <ele>360</ele>
        <time>2024-09-22T07:49:09Z</time>
      </trkpt>
      <trkpt lat="42.4552" lon="2.8524">
        <ele>359</ele>
        <time>2024-09-22T07:49:12Z</time>
      </trkpt>
      <trkpt lat="42.45519" lon="2.85244">
        <ele>359</ele>
        <time>2024-09-22T07:49:15Z</time>
      </trkpt>
      <trkpt lat="42.45517" lon="2.85249">
        <ele>358</ele>
        <time>2024-09-22T07:49:18Z</time>
      </trkpt>
      <trkpt lat="42.45516" lon="2.85253">
        <ele>357</ele>
        <time>2024-09-22T07:49:22Z</time>
      </trkpt>
      <trkpt lat="42.45515" lon="2.85256">
        <ele>357</ele>
        <time>2024-09-22T07:49:25Z</time>
      </trkpt>
      <trkpt lat="42.45513" lon="2.85258">
        <ele>356</ele>
        <time>2024-09-22T07:49:37Z</time>
      </trkpt>
      <trkpt lat="42.4551" lon="2.8526">
        <ele>356</ele>
        <time>2024-09-22T07:49:40Z</time>
      </trkpt>
      <trkpt lat="42.45507" lon="2.85263">
        <ele>355</ele>
        <time>2024-09-22T07:49:44Z</time>
      </trkpt>
      <trkpt lat="42.45506" lon="2.85268">
        <ele>355</ele>
        <time>2024-09-22T07:49:47Z</time>
      </trkpt>
      <trkpt lat="42.45506" lon="2.85272">
        <ele>353</ele>
        <time>2024-09-22T07:49:50Z</time>
      </trkpt>
      <trkpt lat="42.45506" lon="2.85276">
        <ele>352</ele>
        <time>2024-09-22T07:49:53Z</time>
      </trkpt>
      <trkpt lat="42.45507" lon="2.8528">
        <ele>351</ele>
        <time>2024-09-22T07:49:56Z</time>
      </trkpt>
      <trkpt lat="42.45509" lon="2.85285">
        <ele>349</ele>
        <time>2024-09-22T07:50:00Z</time>
      </trkpt>
      <trkpt lat="42.45509" lon="2.85289">
        <ele>349</ele>
        <time>2024-09-22T07:50:03Z</time>
      </trkpt>
      <trkpt lat="42.45509" lon="2.85293">
        <ele>348</ele>
        <time>2024-09-22T07:50:06Z</time>
      </trkpt>
      <trkpt lat="42.45509" lon="2.85297">
        <ele>347</ele>
        <time>2024-09-22T07:50:08Z</time>
      </trkpt>
      <trkpt lat="42.45508" lon="2.85302">
        <ele>347</ele>
        <time>2024-09-22T07:50:11Z</time>
      </trkpt>
      <trkpt lat="42.45508" lon="2.85307">
        <ele>346</ele>
        <time>2024-09-22T07:50:15Z</time>
      </trkpt>
      <trkpt lat="42.45507" lon="2.85311">
        <ele>345</ele>
        <time>2024-09-22T07:50:18Z</time>
      </trkpt>
      <trkpt lat="42.45506" lon="2.85315">
        <ele>345</ele>
        <time>2024-09-22T07:50:20Z</time>
      </trkpt>
      <trkpt lat="42.45505" lon="2.85319">
        <ele>345</ele>
        <time>2024-09-22T07:50:23Z</time>
      </trkpt>
      <trkpt lat="42.45504" lon="2.85323">
        <ele>344</ele>
        <time>2024-09-22T07:50:26Z</time>
      </trkpt>
      <trkpt lat="42.45503" lon="2.85326">
        <ele>343</ele>
        <time>2024-09-22T07:50:29Z</time>
      </trkpt>
      <trkpt lat="42.45501" lon="2.85329">
        <ele>344</ele>
        <time>2024-09-22T07:50:31Z</time>
      </trkpt>
      <trkpt lat="42.45499" lon="2.85332">
        <ele>344</ele>
        <time>2024-09-22T07:50:33Z</time>
      </trkpt>
      <trkpt lat="42.45498" lon="2.85337">
        <ele>342</ele>
        <time>2024-09-22T07:50:36Z</time>
      </trkpt>
      <trkpt lat="42.45496" lon="2.85341">
        <ele>343</ele>
        <time>2024-09-22T07:50:39Z</time>
      </trkpt>
      <trkpt lat="42.45494" lon="2.85344">
        <ele>341</ele>
        <time>2024-09-22T07:50:41Z</time>
      </trkpt>
      <trkpt lat="42.45492" lon="2.85347">
        <ele>341</ele>
        <time>2024-09-22T07:50:43Z</time>
      </trkpt>
      <trkpt lat="42.45491" lon="2.85351">
        <ele>341</ele>
        <time>2024-09-22T07:50:45Z</time>
      </trkpt>
      <trkpt lat="42.4549" lon="2.85355">
        <ele>341</ele>
        <time>2024-09-22T07:50:48Z</time>
      </trkpt>
      <trkpt lat="42.45488" lon="2.8536">
        <ele>340</ele>
        <time>2024-09-22T07:50:51Z</time>
      </trkpt>
      <trkpt lat="42.45488" lon="2.85364">
        <ele>340</ele>
        <time>2024-09-22T07:50:53Z</time>
      </trkpt>
      <trkpt lat="42.45488" lon="2.85367">
        <ele>339</ele>
        <time>2024-09-22T07:50:55Z</time>
      </trkpt>
      <trkpt lat="42.45489" lon="2.85371">
        <ele>339</ele>
        <time>2024-09-22T07:50:57Z</time>
      </trkpt>
      <trkpt lat="42.45489" lon="2.85376">
        <ele>339</ele>
        <time>2024-09-22T07:51:00Z</time>
      </trkpt>
      <trkpt lat="42.45489" lon="2.8538">
        <ele>338</ele>
        <time>2024-09-22T07:51:03Z</time>
      </trkpt>
      <trkpt lat="42.45489" lon="2.85384">
        <ele>338</ele>
        <time>2024-09-22T07:51:05Z</time>
      </trkpt>
      <trkpt lat="42.45489" lon="2.85389">
        <ele>337</ele>
        <time>2024-09-22T07:51:08Z</time>
      </trkpt>
      <trkpt lat="42.45489" lon="2.85393">
        <ele>337</ele>
        <time>2024-09-22T07:51:10Z</time>
      </trkpt>
      <trkpt lat="42.45488" lon="2.85397">
        <ele>336</ele>
        <time>2024-09-22T07:51:13Z</time>
      </trkpt>
      <trkpt lat="42.45487" lon="2.85401">
        <ele>336</ele>
        <time>2024-09-22T07:51:16Z</time>
      </trkpt>
      <trkpt lat="42.45485" lon="2.85406">
        <ele>336</ele>
        <time>2024-09-22T07:51:19Z</time>
      </trkpt>
      <trkpt lat="42.45483" lon="2.85409">
        <ele>334</ele>
        <time>2024-09-22T07:52:08Z</time>
      </trkpt>
      <trkpt lat="42.45483" lon="2.85412">
        <ele>337</ele>
        <time>2024-09-22T07:52:48Z</time>
      </trkpt>
      <trkpt lat="42.45483" lon="2.85416">
        <ele>336</ele>
        <time>2024-09-22T07:52:55Z</time>
      </trkpt>
      <trkpt lat="42.45483" lon="2.85421">
        <ele>335</ele>
        <time>2024-09-22T07:52:58Z</time>
      </trkpt>
      <trkpt lat="42.45484" lon="2.85424">
        <ele>335</ele>
        <time>2024-09-22T07:53:00Z</time>
      </trkpt>
      <trkpt lat="42.45485" lon="2.85427">
        <ele>335</ele>
        <time>2024-09-22T07:53:03Z</time>
      </trkpt>
      <trkpt lat="42.45485" lon="2.85431">
        <ele>335</ele>
        <time>2024-09-22T07:53:05Z</time>
      </trkpt>
      <trkpt lat="42.45486" lon="2.85435">
        <ele>336</ele>
        <time>2024-09-22T07:53:10Z</time>
      </trkpt>
      <trkpt lat="42.45486" lon="2.85439">
        <ele>336</ele>
        <time>2024-09-22T07:53:13Z</time>
      </trkpt>
      <trkpt lat="42.45487" lon="2.85443">
        <ele>337</ele>
        <time>2024-09-22T07:53:16Z</time>
      </trkpt>
      <trkpt lat="42.45487" lon="2.85447">
        <ele>336</ele>
        <time>2024-09-22T07:53:19Z</time>
      </trkpt>
      <trkpt lat="42.45488" lon="2.85451">
        <ele>334</ele>
        <time>2024-09-22T07:53:22Z</time>
      </trkpt>
      <trkpt lat="42.45488" lon="2.85455">
        <ele>335</ele>
        <time>2024-09-22T07:53:24Z</time>
      </trkpt>
      <trkpt lat="42.45489" lon="2.85459">
        <ele>335</ele>
        <time>2024-09-22T07:53:27Z</time>
      </trkpt>
      <trkpt lat="42.45491" lon="2.85463">
        <ele>335</ele>
        <time>2024-09-22T07:53:30Z</time>
      </trkpt>
      <trkpt lat="42.45492" lon="2.85467">
        <ele>335</ele>
        <time>2024-09-22T07:53:33Z</time>
      </trkpt>
      <trkpt lat="42.45492" lon="2.85471">
        <ele>335</ele>
        <time>2024-09-22T07:53:37Z</time>
      </trkpt>
      <trkpt lat="42.45492" lon="2.85475">
        <ele>335</ele>
        <time>2024-09-22T07:53:40Z</time>
      </trkpt>
      <trkpt lat="42.45492" lon="2.85479">
        <ele>336</ele>
        <time>2024-09-22T07:53:44Z</time>
      </trkpt>
      <trkpt lat="42.45492" lon="2.85484">
        <ele>336</ele>
        <time>2024-09-22T07:53:48Z</time>
      </trkpt>
      <trkpt lat="42.45492" lon="2.85488">
        <ele>336</ele>
        <time>2024-09-22T07:53:51Z</time>
      </trkpt>
      <trkpt lat="42.45491" lon="2.85493">
        <ele>337</ele>
        <time>2024-09-22T07:53:54Z</time>
      </trkpt>
      <trkpt lat="42.4549" lon="2.85497">
        <ele>339</ele>
        <time>2024-09-22T07:53:57Z</time>
      </trkpt>
      <trkpt lat="42.4549" lon="2.85501">
        <ele>340</ele>
        <time>2024-09-22T07:54:01Z</time>
      </trkpt>
      <trkpt lat="42.45489" lon="2.85506">
        <ele>340</ele>
        <time>2024-09-22T07:54:04Z</time>
      </trkpt>
      <trkpt lat="42.45488" lon="2.85509">
        <ele>341</ele>
        <time>2024-09-22T07:54:09Z</time>
      </trkpt>
      <trkpt lat="42.45486" lon="2.85513">
        <ele>340</ele>
        <time>2024-09-22T07:54:12Z</time>
      </trkpt>
      <trkpt lat="42.45484" lon="2.85517">
        <ele>341</ele>
        <time>2024-09-22T07:54:20Z</time>
      </trkpt>
      <trkpt lat="42.45483" lon="2.85521">
        <ele>340</ele>
        <time>2024-09-22T07:54:22Z</time>
      </trkpt>
      <trkpt lat="42.45482" lon="2.85525">
        <ele>342</ele>
        <time>2024-09-22T07:54:24Z</time>
      </trkpt>
      <trkpt lat="42.4548" lon="2.85529">
        <ele>341</ele>
        <time>2024-09-22T07:54:27Z</time>
      </trkpt>
      <trkpt lat="42.45478" lon="2.85532">
        <ele>341</ele>
        <time>2024-09-22T07:54:29Z</time>
      </trkpt>
      <trkpt lat="42.45478" lon="2.85536">
        <ele>340</ele>
        <time>2024-09-22T07:54:32Z</time>
      </trkpt>
      <trkpt lat="42.45477" lon="2.85542">
        <ele>340</ele>
        <time>2024-09-22T07:54:35Z</time>
      </trkpt>
      <trkpt lat="42.45476" lon="2.85547">
        <ele>340</ele>
        <time>2024-09-22T07:54:38Z</time>
      </trkpt>
      <trkpt lat="42.45475" lon="2.85552">
        <ele>339</ele>
        <time>2024-09-22T07:54:42Z</time>
      </trkpt>
      <trkpt lat="42.45473" lon="2.85556">
        <ele>339</ele>
        <time>2024-09-22T07:54:45Z</time>
      </trkpt>
      <trkpt lat="42.45472" lon="2.85559">
        <ele>339</ele>
        <time>2024-09-22T07:54:47Z</time>
      </trkpt>
      <trkpt lat="42.4547" lon="2.85563">
        <ele>339</ele>
        <time>2024-09-22T07:54:50Z</time>
      </trkpt>
      <trkpt lat="42.45469" lon="2.85567">
        <ele>338</ele>
        <time>2024-09-22T07:55:02Z</time>
      </trkpt>
      <trkpt lat="42.45468" lon="2.8557">
        <ele>338</ele>
        <time>2024-09-22T07:55:04Z</time>
      </trkpt>
      <trkpt lat="42.45467" lon="2.85574">
        <ele>337</ele>
        <time>2024-09-22T07:55:07Z</time>
      </trkpt>
      <trkpt lat="42.45466" lon="2.85578">
        <ele>337</ele>
        <time>2024-09-22T07:55:10Z</time>
      </trkpt>
      <trkpt lat="42.45465" lon="2.85583">
        <ele>334</ele>
        <time>2024-09-22T07:55:14Z</time>
      </trkpt>
      <trkpt lat="42.45465" lon="2.85587">
        <ele>334</ele>
        <time>2024-09-22T07:55:16Z</time>
      </trkpt>
      <trkpt lat="42.45464" lon="2.85591">
        <ele>334</ele>
        <time>2024-09-22T07:55:18Z</time>
      </trkpt>
      <trkpt lat="42.45463" lon="2.85596">
        <ele>335</ele>
        <time>2024-09-22T07:55:21Z</time>
      </trkpt>
      <trkpt lat="42.45462" lon="2.856">
        <ele>335</ele>
        <time>2024-09-22T07:55:23Z</time>
      </trkpt>
      <trkpt lat="42.45461" lon="2.85604">
        <ele>335</ele>
        <time>2024-09-22T07:55:25Z</time>
      </trkpt>
      <trkpt lat="42.4546" lon="2.85608">
        <ele>335</ele>
        <time>2024-09-22T07:55:27Z</time>
      </trkpt>
      <trkpt lat="42.45459" lon="2.85611">
        <ele>335</ele>
        <time>2024-09-22T07:55:29Z</time>
      </trkpt>
      <trkpt lat="42.45459" lon="2.85615">
        <ele>336</ele>
        <time>2024-09-22T07:55:31Z</time>
      </trkpt>
      <trkpt lat="42.45458" lon="2.85619">
        <ele>334</ele>
        <time>2024-09-22T07:55:33Z</time>
      </trkpt>
      <trkpt lat="42.45457" lon="2.85623">
        <ele>334</ele>
        <time>2024-09-22T07:55:36Z</time>
      </trkpt>
      <trkpt lat="42.45455" lon="2.85627">
        <ele>334</ele>
        <time>2024-09-22T07:55:39Z</time>
      </trkpt>
      <trkpt lat="42.45453" lon="2.85632">
        <ele>334</ele>
        <time>2024-09-22T07:55:42Z</time>
      </trkpt>
      <trkpt lat="42.45452" lon="2.85636">
        <ele>335</ele>
        <time>2024-09-22T07:55:45Z</time>
      </trkpt>
      <trkpt lat="42.45451" lon="2.8564">
        <ele>335</ele>
        <time>2024-09-22T07:55:48Z</time>
      </trkpt>
      <trkpt lat="42.4545" lon="2.85644">
        <ele>335</ele>
        <time>2024-09-22T07:55:51Z</time>
      </trkpt>
      <trkpt lat="42.45449" lon="2.85649">
        <ele>335</ele>
        <time>2024-09-22T07:55:54Z</time>
      </trkpt>
      <trkpt lat="42.45448" lon="2.85653">
        <ele>335</ele>
        <time>2024-09-22T07:55:57Z</time>
      </trkpt>
      <trkpt lat="42.45447" lon="2.85657">
        <ele>335</ele>
        <time>2024-09-22T07:56:00Z</time>
      </trkpt>
      <trkpt lat="42.45445" lon="2.85661">
        <ele>334</ele>
        <time>2024-09-22T07:56:04Z</time>
      </trkpt>
      <trkpt lat="42.45444" lon="2.85665">
        <ele>335</ele>
        <time>2024-09-22T07:56:07Z</time>
      </trkpt>
      <trkpt lat="42.45443" lon="2.85669">
        <ele>334</ele>
        <time>2024-09-22T07:56:10Z</time>
      </trkpt>
      <trkpt lat="42.45442" lon="2.85674">
        <ele>333</ele>
        <time>2024-09-22T07:56:13Z</time>
      </trkpt>
      <trkpt lat="42.4544" lon="2.85677">
        <ele>331</ele>
        <time>2024-09-22T07:56:19Z</time>
      </trkpt>
      <trkpt lat="42.45437" lon="2.85681">
        <ele>334</ele>
        <time>2024-09-22T07:56:20Z</time>
      </trkpt>
      <trkpt lat="42.45433" lon="2.85683">
        <ele>332</ele>
        <time>2024-09-22T07:56:25Z</time>
      </trkpt>
      <trkpt lat="42.45431" lon="2.85686">
        <ele>332</ele>
        <time>2024-09-22T07:56:28Z</time>
      </trkpt>
      <trkpt lat="42.4543" lon="2.8569">
        <ele>330</ele>
        <time>2024-09-22T07:56:31Z</time>
      </trkpt>
      <trkpt lat="42.45431" lon="2.85695">
        <ele>330</ele>
        <time>2024-09-22T07:56:34Z</time>
      </trkpt>
      <trkpt lat="42.45432" lon="2.85699">
        <ele>330</ele>
        <time>2024-09-22T07:56:37Z</time>
      </trkpt>
      <trkpt lat="42.45434" lon="2.85701">
        <ele>331</ele>
        <time>2024-09-22T07:56:41Z</time>
      </trkpt>
      <trkpt lat="42.45436" lon="2.85704">
        <ele>330</ele>
        <time>2024-09-22T07:56:44Z</time>
      </trkpt>
      <trkpt lat="42.45436" lon="2.85707">
        <ele>331</ele>
        <time>2024-09-22T07:56:47Z</time>
      </trkpt>
      <trkpt lat="42.45437" lon="2.85712">
        <ele>329</ele>
        <time>2024-09-22T07:56:52Z</time>
      </trkpt>
      <trkpt lat="42.45437" lon="2.85717">
        <ele>329</ele>
        <time>2024-09-22T07:56:55Z</time>
      </trkpt>
      <trkpt lat="42.45437" lon="2.85721">
        <ele>328</ele>
        <time>2024-09-22T07:56:58Z</time>
      </trkpt>
      <trkpt lat="42.45437" lon="2.85726">
        <ele>327</ele>
        <time>2024-09-22T07:57:01Z</time>
      </trkpt>
      <trkpt lat="42.45438" lon="2.8573">
        <ele>327</ele>
        <time>2024-09-22T07:57:04Z</time>
      </trkpt>
      <trkpt lat="42.45438" lon="2.85735">
        <ele>326</ele>
        <time>2024-09-22T07:57:07Z</time>
      </trkpt>
      <trkpt lat="42.45439" lon="2.8574">
        <ele>325</ele>
        <time>2024-09-22T07:57:11Z</time>
      </trkpt>
      <trkpt lat="42.4544" lon="2.85744">
        <ele>325</ele>
        <time>2024-09-22T07:57:14Z</time>
      </trkpt>
      <trkpt lat="42.45442" lon="2.85747">
        <ele>324</ele>
        <time>2024-09-22T07:57:16Z</time>
      </trkpt>
      <trkpt lat="42.45445" lon="2.85751">
        <ele>323</ele>
        <time>2024-09-22T07:57:19Z</time>
      </trkpt>
      <trkpt lat="42.45446" lon="2.85755">
        <ele>324</ele>
        <time>2024-09-22T07:57:22Z</time>
      </trkpt>
      <trkpt lat="42.45448" lon="2.85758">
        <ele>325</ele>
        <time>2024-09-22T07:57:26Z</time>
      </trkpt>
      <trkpt lat="42.4545" lon="2.85762">
        <ele>326</ele>
        <time>2024-09-22T07:57:45Z</time>
      </trkpt>
      <trkpt lat="42.4545" lon="2.85761">
        <ele>327</ele>
        <time>2024-09-22T07:58:48Z</time>
      </trkpt>
      <trkpt lat="42.45448" lon="2.85759">
        <ele>327</ele>
        <time>2024-09-22T07:58:51Z</time>
      </trkpt>
      <trkpt lat="42.45446" lon="2.8576">
        <ele>327</ele>
        <time>2024-09-22T07:58:57Z</time>
      </trkpt>
      <trkpt lat="42.45444" lon="2.85763">
        <ele>326</ele>
        <time>2024-09-22T07:59:06Z</time>
      </trkpt>
      <trkpt lat="42.45441" lon="2.85766">
        <ele>326</ele>
        <time>2024-09-22T07:59:09Z</time>
      </trkpt>
      <trkpt lat="42.45438" lon="2.85767">
        <ele>327</ele>
        <time>2024-09-22T07:59:12Z</time>
      </trkpt>
      <trkpt lat="42.45435" lon="2.8577">
        <ele>327</ele>
        <time>2024-09-22T07:59:15Z</time>
      </trkpt>
      <trkpt lat="42.45433" lon="2.85773">
        <ele>327</ele>
        <time>2024-09-22T07:59:18Z</time>
      </trkpt>
      <trkpt lat="42.45434" lon="2.85775">
        <ele>328</ele>
        <time>2024-09-22T08:00:08Z</time>
      </trkpt>
      <trkpt lat="42.45435" lon="2.85773">
        <ele>328</ele>
        <time>2024-09-22T08:00:11Z</time>
      </trkpt>
      <trkpt lat="42.45437" lon="2.8577">
        <ele>327</ele>
        <time>2024-09-22T08:00:15Z</time>
      </trkpt>
      <trkpt lat="42.45439" lon="2.85767">
        <ele>325</ele>
        <time>2024-09-22T08:00:19Z</time>
      </trkpt>
      <trkpt lat="42.45442" lon="2.85766">
        <ele>327</ele>
        <time>2024-09-22T08:00:22Z</time>
      </trkpt>
      <trkpt lat="42.45445" lon="2.85764">
        <ele>327</ele>
        <time>2024-09-22T08:00:28Z</time>
      </trkpt>
      <trkpt lat="42.45448" lon="2.85766">
        <ele>327</ele>
        <time>2024-09-22T08:00:30Z</time>
      </trkpt>
      <trkpt lat="42.45451" lon="2.85768">
        <ele>326</ele>
        <time>2024-09-22T08:00:32Z</time>
      </trkpt>
      <trkpt lat="42.45453" lon="2.85771">
        <ele>326</ele>
        <time>2024-09-22T08:00:35Z</time>
      </trkpt>
      <trkpt lat="42.45456" lon="2.85772">
        <ele>326</ele>
        <time>2024-09-22T08:00:39Z</time>
      </trkpt>
      <trkpt lat="42.45458" lon="2.8577">
        <ele>326</ele>
        <time>2024-09-22T08:00:47Z</time>
      </trkpt>
      <trkpt lat="42.45458" lon="2.85766">
        <ele>326</ele>
        <time>2024-09-22T08:00:50Z</time>
      </trkpt>
      <trkpt lat="42.45457" lon="2.85762">
        <ele>325</ele>
        <time>2024-09-22T08:00:52Z</time>
      </trkpt>
      <trkpt lat="42.45457" lon="2.85758">
        <ele>325</ele>
        <time>2024-09-22T08:00:54Z</time>
      </trkpt>
      <trkpt lat="42.45458" lon="2.85754">
        <ele>326</ele>
        <time>2024-09-22T08:00:57Z</time>
      </trkpt>
      <trkpt lat="42.45459" lon="2.85751">
        <ele>326</ele>
        <time>2024-09-22T08:00:59Z</time>
      </trkpt>
      <trkpt lat="42.45461" lon="2.85747">
        <ele>326</ele>
        <time>2024-09-22T08:01:01Z</time>
      </trkpt>
      <trkpt lat="42.45463" lon="2.85744">
        <ele>325</ele>
        <time>2024-09-22T08:01:04Z</time>
      </trkpt>
      <trkpt lat="42.45466" lon="2.85741">
        <ele>325</ele>
        <time>2024-09-22T08:01:06Z</time>
      </trkpt>
      <trkpt lat="42.45467" lon="2.85738">
        <ele>325</ele>
        <time>2024-09-22T08:01:08Z</time>
      </trkpt>
      <trkpt lat="42.45469" lon="2.85734">
        <ele>324</ele>
        <time>2024-09-22T08:01:11Z</time>
      </trkpt>
      <trkpt lat="42.4547" lon="2.85729">
        <ele>324</ele>
        <time>2024-09-22T08:01:14Z</time>
      </trkpt>
      <trkpt lat="42.45473" lon="2.85725">
        <ele>324</ele>
        <time>2024-09-22T08:01:17Z</time>
      </trkpt>
      <trkpt lat="42.45474" lon="2.85721">
        <ele>324</ele>
        <time>2024-09-22T08:01:20Z</time>
      </trkpt>
      <trkpt lat="42.45476" lon="2.85717">
        <ele>324</ele>
        <time>2024-09-22T08:01:23Z</time>
      </trkpt>
      <trkpt lat="42.45477" lon="2.85714">
        <ele>324</ele>
        <time>2024-09-22T08:01:26Z</time>
      </trkpt>
      <trkpt lat="42.45479" lon="2.85711">
        <ele>324</ele>
        <time>2024-09-22T08:01:28Z</time>
      </trkpt>
      <trkpt lat="42.45481" lon="2.85707">
        <ele>324</ele>
        <time>2024-09-22T08:01:31Z</time>
      </trkpt>
      <trkpt lat="42.45482" lon="2.85703">
        <ele>323</ele>
        <time>2024-09-22T08:01:41Z</time>
      </trkpt>
      <trkpt lat="42.45484" lon="2.85699">
        <ele>323</ele>
        <time>2024-09-22T08:01:44Z</time>
      </trkpt>
      <trkpt lat="42.45486" lon="2.85695">
        <ele>323</ele>
        <time>2024-09-22T08:01:47Z</time>
      </trkpt>
      <trkpt lat="42.45488" lon="2.85691">
        <ele>323</ele>
        <time>2024-09-22T08:01:50Z</time>
      </trkpt>
      <trkpt lat="42.45489" lon="2.85687">
        <ele>322</ele>
        <time>2024-09-22T08:01:52Z</time>
      </trkpt>
      <trkpt lat="42.45491" lon="2.85683">
        <ele>322</ele>
        <time>2024-09-22T08:01:55Z</time>
      </trkpt>
      <trkpt lat="42.45493" lon="2.85679">
        <ele>322</ele>
        <time>2024-09-22T08:01:57Z</time>
      </trkpt>
      <trkpt lat="42.45495" lon="2.85676">
        <ele>322</ele>
        <time>2024-09-22T08:01:59Z</time>
      </trkpt>
      <trkpt lat="42.45496" lon="2.85673">
        <ele>321</ele>
        <time>2024-09-22T08:02:03Z</time>
      </trkpt>
      <trkpt lat="42.45499" lon="2.8567">
        <ele>322</ele>
        <time>2024-09-22T08:02:05Z</time>
      </trkpt>
      <trkpt lat="42.455" lon="2.85666">
        <ele>321</ele>
        <time>2024-09-22T08:02:08Z</time>
      </trkpt>
      <trkpt lat="42.45502" lon="2.85662">
        <ele>321</ele>
        <time>2024-09-22T08:02:10Z</time>
      </trkpt>
      <trkpt lat="42.45503" lon="2.85659">
        <ele>322</ele>
        <time>2024-09-22T08:02:12Z</time>
      </trkpt>
      <trkpt lat="42.45504" lon="2.85655">
        <ele>321</ele>
        <time>2024-09-22T08:02:14Z</time>
      </trkpt>
      <trkpt lat="42.45505" lon="2.85651">
        <ele>321</ele>
        <time>2024-09-22T08:02:16Z</time>
      </trkpt>
      <trkpt lat="42.45507" lon="2.85648">
        <ele>321</ele>
        <time>2024-09-22T08:02:19Z</time>
      </trkpt>
      <trkpt lat="42.45509" lon="2.85643">
        <ele>320</ele>
        <time>2024-09-22T08:02:22Z</time>
      </trkpt>
      <trkpt lat="42.45511" lon="2.85638">
        <ele>320</ele>
        <time>2024-09-22T08:02:25Z</time>
      </trkpt>
      <trkpt lat="42.45513" lon="2.85634">
        <ele>320</ele>
        <time>2024-09-22T08:02:28Z</time>
      </trkpt>
      <trkpt lat="42.45515" lon="2.85629">
        <ele>319</ele>
        <time>2024-09-22T08:02:31Z</time>
      </trkpt>
      <trkpt lat="42.45516" lon="2.85624">
        <ele>319</ele>
        <time>2024-09-22T08:02:34Z</time>
      </trkpt>
      <trkpt lat="42.45518" lon="2.8562">
        <ele>319</ele>
        <time>2024-09-22T08:02:36Z</time>
      </trkpt>
      <trkpt lat="42.4552" lon="2.85616">
        <ele>319</ele>
        <time>2024-09-22T08:02:38Z</time>
      </trkpt>
      <trkpt lat="42.45522" lon="2.85612">
        <ele>319</ele>
        <time>2024-09-22T08:02:41Z</time>
      </trkpt>
      <trkpt lat="42.45524" lon="2.85608">
        <ele>317</ele>
        <time>2024-09-22T08:02:44Z</time>
      </trkpt>
      <trkpt lat="42.45527" lon="2.85606">
        <ele>318</ele>
        <time>2024-09-22T08:02:46Z</time>
      </trkpt>
      <trkpt lat="42.45529" lon="2.85602">
        <ele>318</ele>
        <time>2024-09-22T08:02:49Z</time>
      </trkpt>
      <trkpt lat="42.45532" lon="2.85598">
        <ele>318</ele>
        <time>2024-09-22T08:02:52Z</time>
      </trkpt>
      <trkpt lat="42.45534" lon="2.85595">
        <ele>317</ele>
        <time>2024-09-22T08:02:55Z</time>
      </trkpt>
      <trkpt lat="42.45537" lon="2.85592">
        <ele>317</ele>
        <time>2024-09-22T08:02:58Z</time>
      </trkpt>
      <trkpt lat="42.45538" lon="2.85593">
        <ele>316</ele>
        <time>2024-09-22T08:03:07Z</time>
      </trkpt>
      <trkpt lat="42.45541" lon="2.85595">
        <ele>315</ele>
        <time>2024-09-22T08:03:09Z</time>
      </trkpt>
      <trkpt lat="42.45543" lon="2.85596">
        <ele>314</ele>
        <time>2024-09-22T08:03:11Z</time>
      </trkpt>
      <trkpt lat="42.45547" lon="2.85596">
        <ele>312</ele>
        <time>2024-09-22T08:03:14Z</time>
      </trkpt>
      <trkpt lat="42.4555" lon="2.85596">
        <ele>311</ele>
        <time>2024-09-22T08:03:17Z</time>
      </trkpt>
      <trkpt lat="42.45553" lon="2.85598">
        <ele>310</ele>
        <time>2024-09-22T08:03:20Z</time>
      </trkpt>
      <trkpt lat="42.45557" lon="2.85599">
        <ele>310</ele>
        <time>2024-09-22T08:03:22Z</time>
      </trkpt>
      <trkpt lat="42.4556" lon="2.85599">
        <ele>310</ele>
        <time>2024-09-22T08:03:24Z</time>
      </trkpt>
      <trkpt lat="42.45563" lon="2.85599">
        <ele>311</ele>
        <time>2024-09-22T08:03:26Z</time>
      </trkpt>
      <trkpt lat="42.45566" lon="2.856">
        <ele>311</ele>
        <time>2024-09-22T08:03:38Z</time>
      </trkpt>
      <trkpt lat="42.45568" lon="2.85601">
        <ele>311</ele>
        <time>2024-09-22T08:03:41Z</time>
      </trkpt>
      <trkpt lat="42.45571" lon="2.85604">
        <ele>309</ele>
        <time>2024-09-22T08:03:50Z</time>
      </trkpt>
      <trkpt lat="42.45574" lon="2.85606">
        <ele>307</ele>
        <time>2024-09-22T08:03:54Z</time>
      </trkpt>
      <trkpt lat="42.45577" lon="2.85606">
        <ele>308</ele>
        <time>2024-09-22T08:03:56Z</time>
      </trkpt>
      <trkpt lat="42.45581" lon="2.85606">
        <ele>308</ele>
        <time>2024-09-22T08:03:59Z</time>
      </trkpt>
      <trkpt lat="42.45584" lon="2.85605">
        <ele>308</ele>
        <time>2024-09-22T08:04:02Z</time>
      </trkpt>
      <trkpt lat="42.45587" lon="2.85605">
        <ele>309</ele>
        <time>2024-09-22T08:04:04Z</time>
      </trkpt>
      <trkpt lat="42.4559" lon="2.85604">
        <ele>308</ele>
        <time>2024-09-22T08:04:07Z</time>
      </trkpt>
      <trkpt lat="42.45594" lon="2.85603">
        <ele>307</ele>
        <time>2024-09-22T08:04:11Z</time>
      </trkpt>
      <trkpt lat="42.45597" lon="2.85602">
        <ele>308</ele>
        <time>2024-09-22T08:04:13Z</time>
      </trkpt>
      <trkpt lat="42.456" lon="2.85601">
        <ele>309</ele>
        <time>2024-09-22T08:04:15Z</time>
      </trkpt>
      <trkpt lat="42.45602" lon="2.85599">
        <ele>309</ele>
        <time>2024-09-22T08:04:17Z</time>
      </trkpt>
      <trkpt lat="42.45605" lon="2.85598">
        <ele>309</ele>
        <time>2024-09-22T08:04:19Z</time>
      </trkpt>
      <trkpt lat="42.45608" lon="2.85598">
        <ele>309</ele>
        <time>2024-09-22T08:04:21Z</time>
      </trkpt>
      <trkpt lat="42.4561" lon="2.85596">
        <ele>309</ele>
        <time>2024-09-22T08:04:24Z</time>
      </trkpt>
      <trkpt lat="42.45614" lon="2.85594">
        <ele>310</ele>
        <time>2024-09-22T08:04:27Z</time>
      </trkpt>
      <trkpt lat="42.45618" lon="2.85592">
        <ele>309</ele>
        <time>2024-09-22T08:04:30Z</time>
      </trkpt>
      <trkpt lat="42.45621" lon="2.85591">
        <ele>311</ele>
        <time>2024-09-22T08:04:33Z</time>
      </trkpt>
      <trkpt lat="42.45625" lon="2.85588">
        <ele>311</ele>
        <time>2024-09-22T08:04:36Z</time>
      </trkpt>
      <trkpt lat="42.45628" lon="2.85587">
        <ele>311</ele>
        <time>2024-09-22T08:04:39Z</time>
      </trkpt>
      <trkpt lat="42.45631" lon="2.85585">
        <ele>311</ele>
        <time>2024-09-22T08:04:41Z</time>
      </trkpt>
      <trkpt lat="42.45634" lon="2.85584">
        <ele>312</ele>
        <time>2024-09-22T08:04:43Z</time>
      </trkpt>
      <trkpt lat="42.45637" lon="2.85583">
        <ele>310</ele>
        <time>2024-09-22T08:04:46Z</time>
      </trkpt>
      <trkpt lat="42.4564" lon="2.85581">
        <ele>311</ele>
        <time>2024-09-22T08:04:48Z</time>
      </trkpt>
      <trkpt lat="42.45643" lon="2.8558">
        <ele>311</ele>
        <time>2024-09-22T08:04:51Z</time>
      </trkpt>
      <trkpt lat="42.45646" lon="2.85578">
        <ele>311</ele>
        <time>2024-09-22T08:04:54Z</time>
      </trkpt>
      <trkpt lat="42.45648" lon="2.85576">
        <ele>311</ele>
        <time>2024-09-22T08:04:56Z</time>
      </trkpt>
      <trkpt lat="42.45652" lon="2.85575">
        <ele>312</ele>
        <time>2024-09-22T08:04:59Z</time>
      </trkpt>
      <trkpt lat="42.45655" lon="2.85574">
        <ele>312</ele>
        <time>2024-09-22T08:05:01Z</time>
      </trkpt>
      <trkpt lat="42.45658" lon="2.85573">
        <ele>312</ele>
        <time>2024-09-22T08:05:04Z</time>
      </trkpt>
      <trkpt lat="42.45661" lon="2.85572">
        <ele>312</ele>
        <time>2024-09-22T08:05:07Z</time>
      </trkpt>
      <trkpt lat="42.45664" lon="2.8557">
        <ele>312</ele>
        <time>2024-09-22T08:05:10Z</time>
      </trkpt>
      <trkpt lat="42.45667" lon="2.85567">
        <ele>312</ele>
        <time>2024-09-22T08:05:12Z</time>
      </trkpt>
      <trkpt lat="42.4567" lon="2.85566">
        <ele>311</ele>
        <time>2024-09-22T08:05:16Z</time>
      </trkpt>
      <trkpt lat="42.45674" lon="2.85565">
        <ele>311</ele>
        <time>2024-09-22T08:05:19Z</time>
      </trkpt>
      <trkpt lat="42.45678" lon="2.85565">
        <ele>311</ele>
        <time>2024-09-22T08:05:22Z</time>
      </trkpt>
      <trkpt lat="42.45681" lon="2.85565">
        <ele>311</ele>
        <time>2024-09-22T08:05:25Z</time>
      </trkpt>
      <trkpt lat="42.45685" lon="2.85566">
        <ele>311</ele>
        <time>2024-09-22T08:05:28Z</time>
      </trkpt>
      <trkpt lat="42.45689" lon="2.85568">
        <ele>311</ele>
        <time>2024-09-22T08:05:31Z</time>
      </trkpt>
      <trkpt lat="42.45692" lon="2.85569">
        <ele>310</ele>
        <time>2024-09-22T08:05:34Z</time>
      </trkpt>
      <trkpt lat="42.45695" lon="2.85569">
        <ele>311</ele>
        <time>2024-09-22T08:05:36Z</time>
      </trkpt>
      <trkpt lat="42.45698" lon="2.85569">
        <ele>311</ele>
        <time>2024-09-22T08:05:38Z</time>
      </trkpt>
      <trkpt lat="42.45701" lon="2.85568">
        <ele>310</ele>
        <time>2024-09-22T08:05:41Z</time>
      </trkpt>
      <trkpt lat="42.45703" lon="2.85566">
        <ele>310</ele>
        <time>2024-09-22T08:05:43Z</time>
      </trkpt>
      <trkpt lat="42.45706" lon="2.85563">
        <ele>311</ele>
        <time>2024-09-22T08:05:46Z</time>
      </trkpt>
      <trkpt lat="42.45708" lon="2.8556">
        <ele>311</ele>
        <time>2024-09-22T08:05:48Z</time>
      </trkpt>
      <trkpt lat="42.4571" lon="2.85557">
        <ele>312</ele>
        <time>2024-09-22T08:05:51Z</time>
      </trkpt>
      <trkpt lat="42.45712" lon="2.85553">
        <ele>313</ele>
        <time>2024-09-22T08:05:53Z</time>
      </trkpt>
      <trkpt lat="42.45713" lon="2.85549">
        <ele>313</ele>
        <time>2024-09-22T08:05:55Z</time>
      </trkpt>
      <trkpt lat="42.45715" lon="2.85545">
        <ele>313</ele>
        <time>2024-09-22T08:05:58Z</time>
      </trkpt>
      <trkpt lat="42.45717" lon="2.85541">
        <ele>313</ele>
        <time>2024-09-22T08:06:01Z</time>
      </trkpt>
      <trkpt lat="42.45719" lon="2.85537">
        <ele>313</ele>
        <time>2024-09-22T08:06:04Z</time>
      </trkpt>
      <trkpt lat="42.45721" lon="2.85534">
        <ele>314</ele>
        <time>2024-09-22T08:06:07Z</time>
      </trkpt>
      <trkpt lat="42.45724" lon="2.85531">
        <ele>314</ele>
        <time>2024-09-22T08:06:10Z</time>
      </trkpt>
      <trkpt lat="42.45728" lon="2.85529">
        <ele>314</ele>
        <time>2024-09-22T08:06:13Z</time>
      </trkpt>
      <trkpt lat="42.45731" lon="2.85527">
        <ele>314</ele>
        <time>2024-09-22T08:06:17Z</time>
      </trkpt>
      <trkpt lat="42.45734" lon="2.85525">
        <ele>315</ele>
        <time>2024-09-22T08:06:20Z</time>
      </trkpt>
      <trkpt lat="42.45738" lon="2.85524">
        <ele>315</ele>
        <time>2024-09-22T08:06:23Z</time>
      </trkpt>
      <trkpt lat="42.45741" lon="2.85522">
        <ele>315</ele>
        <time>2024-09-22T08:06:26Z</time>
      </trkpt>
      <trkpt lat="42.45744" lon="2.8552">
        <ele>316</ele>
        <time>2024-09-22T08:06:29Z</time>
      </trkpt>
      <trkpt lat="42.45747" lon="2.85518">
        <ele>316</ele>
        <time>2024-09-22T08:06:32Z</time>
      </trkpt>
      <trkpt lat="42.45751" lon="2.85516">
        <ele>316</ele>
        <time>2024-09-22T08:06:35Z</time>
      </trkpt>
      <trkpt lat="42.45754" lon="2.85514">
        <ele>316</ele>
        <time>2024-09-22T08:06:38Z</time>
      </trkpt>
      <trkpt lat="42.45756" lon="2.85511">
        <ele>317</ele>
        <time>2024-09-22T08:06:41Z</time>
      </trkpt>
      <trkpt lat="42.45759" lon="2.85508">
        <ele>317</ele>
        <time>2024-09-22T08:06:43Z</time>
      </trkpt>
      <trkpt lat="42.45761" lon="2.85505">
        <ele>317</ele>
        <time>2024-09-22T08:06:46Z</time>
      </trkpt>
      <trkpt lat="42.45764" lon="2.85502">
        <ele>317</ele>
        <time>2024-09-22T08:06:49Z</time>
      </trkpt>
      <trkpt lat="42.45767" lon="2.85499">
        <ele>317</ele>
        <time>2024-09-22T08:06:51Z</time>
      </trkpt>
      <trkpt lat="42.45769" lon="2.85496">
        <ele>318</ele>
        <time>2024-09-22T08:06:54Z</time>
      </trkpt>
      <trkpt lat="42.45772" lon="2.85493">
        <ele>318</ele>
        <time>2024-09-22T08:06:57Z</time>
      </trkpt>
      <trkpt lat="42.45775" lon="2.8549">
        <ele>318</ele>
        <time>2024-09-22T08:07:00Z</time>
      </trkpt>
      <trkpt lat="42.45778" lon="2.85488">
        <ele>319</ele>
        <time>2024-09-22T08:07:03Z</time>
      </trkpt>
      <trkpt lat="42.45781" lon="2.85486">
        <ele>318</ele>
        <time>2024-09-22T08:07:07Z</time>
      </trkpt>
      <trkpt lat="42.45784" lon="2.85485">
        <ele>319</ele>
        <time>2024-09-22T08:07:09Z</time>
      </trkpt>
      <trkpt lat="42.45787" lon="2.85483">
        <ele>319</ele>
        <time>2024-09-22T08:07:12Z</time>
      </trkpt>
      <trkpt lat="42.4579" lon="2.85482">
        <ele>320</ele>
        <time>2024-09-22T08:07:15Z</time>
      </trkpt>
      <trkpt lat="42.45793" lon="2.85481">
        <ele>320</ele>
        <time>2024-09-22T08:07:17Z</time>
      </trkpt>
      <trkpt lat="42.45796" lon="2.85479">
        <ele>319</ele>
        <time>2024-09-22T08:07:20Z</time>
      </trkpt>
      <trkpt lat="42.45799" lon="2.85477">
        <ele>320</ele>
        <time>2024-09-22T08:07:23Z</time>
      </trkpt>
      <trkpt lat="42.45802" lon="2.85476">
        <ele>320</ele>
        <time>2024-09-22T08:07:26Z</time>
      </trkpt>
      <trkpt lat="42.45805" lon="2.85474">
        <ele>320</ele>
        <time>2024-09-22T08:07:28Z</time>
      </trkpt>
      <trkpt lat="42.45808" lon="2.85473">
        <ele>320</ele>
        <time>2024-09-22T08:07:31Z</time>
      </trkpt>
      <trkpt lat="42.4581" lon="2.85471">
        <ele>320</ele>
        <time>2024-09-22T08:07:44Z</time>
      </trkpt>
      <trkpt lat="42.45813" lon="2.85469">
        <ele>320</ele>
        <time>2024-09-22T08:07:46Z</time>
      </trkpt>
      <trkpt lat="42.45816" lon="2.85468">
        <ele>322</ele>
        <time>2024-09-22T08:07:48Z</time>
      </trkpt>
      <trkpt lat="42.45819" lon="2.85466">
        <ele>321</ele>
        <time>2024-09-22T08:07:51Z</time>
      </trkpt>
      <trkpt lat="42.45822" lon="2.85464">
        <ele>321</ele>
        <time>2024-09-22T08:07:54Z</time>
      </trkpt>
      <trkpt lat="42.45825" lon="2.85463">
        <ele>322</ele>
        <time>2024-09-22T08:07:56Z</time>
      </trkpt>
      <trkpt lat="42.45828" lon="2.85461">
        <ele>322</ele>
        <time>2024-09-22T08:07:59Z</time>
      </trkpt>
      <trkpt lat="42.45831" lon="2.8546">
        <ele>322</ele>
        <time>2024-09-22T08:08:02Z</time>
      </trkpt>
      <trkpt lat="42.45834" lon="2.85459">
        <ele>322</ele>
        <time>2024-09-22T08:08:05Z</time>
      </trkpt>
      <trkpt lat="42.45838" lon="2.85458">
        <ele>322</ele>
        <time>2024-09-22T08:08:08Z</time>
      </trkpt>
      <trkpt lat="42.45842" lon="2.85458">
        <ele>322</ele>
        <time>2024-09-22T08:08:11Z</time>
      </trkpt>
      <trkpt lat="42.45845" lon="2.85459">
        <ele>322</ele>
        <time>2024-09-22T08:08:14Z</time>
      </trkpt>
      <trkpt lat="42.45848" lon="2.85461">
        <ele>321</ele>
        <time>2024-09-22T08:08:17Z</time>
      </trkpt>
      <trkpt lat="42.45852" lon="2.85464">
        <ele>321</ele>
        <time>2024-09-22T08:08:21Z</time>
      </trkpt>
      <trkpt lat="42.45855" lon="2.85467">
        <ele>320</ele>
        <time>2024-09-22T08:08:24Z</time>
      </trkpt>
      <trkpt lat="42.45857" lon="2.85471">
        <ele>320</ele>
        <time>2024-09-22T08:08:27Z</time>
      </trkpt>
      <trkpt lat="42.45859" lon="2.85474">
        <ele>321</ele>
        <time>2024-09-22T08:08:30Z</time>
      </trkpt>
      <trkpt lat="42.45861" lon="2.85478">
        <ele>321</ele>
        <time>2024-09-22T08:08:32Z</time>
      </trkpt>
      <trkpt lat="42.45863" lon="2.85482">
        <ele>321</ele>
        <time>2024-09-22T08:08:35Z</time>
      </trkpt>
      <trkpt lat="42.45864" lon="2.85486">
        <ele>321</ele>
        <time>2024-09-22T08:08:38Z</time>
      </trkpt>
      <trkpt lat="42.45866" lon="2.85489">
        <ele>322</ele>
        <time>2024-09-22T08:08:40Z</time>
      </trkpt>
      <trkpt lat="42.45867" lon="2.85493">
        <ele>322</ele>
        <time>2024-09-22T08:08:43Z</time>
      </trkpt>
      <trkpt lat="42.45869" lon="2.85497">
        <ele>321</ele>
        <time>2024-09-22T08:08:46Z</time>
      </trkpt>
      <trkpt lat="42.45871" lon="2.85502">
        <ele>321</ele>
        <time>2024-09-22T08:08:49Z</time>
      </trkpt>
      <trkpt lat="42.45872" lon="2.85506">
        <ele>322</ele>
        <time>2024-09-22T08:08:52Z</time>
      </trkpt>
      <trkpt lat="42.45874" lon="2.8551">
        <ele>322</ele>
        <time>2024-09-22T08:08:54Z</time>
      </trkpt>
      <trkpt lat="42.45875" lon="2.85514">
        <ele>322</ele>
        <time>2024-09-22T08:08:56Z</time>
      </trkpt>
      <trkpt lat="42.45877" lon="2.85517">
        <ele>322</ele>
        <time>2024-09-22T08:08:58Z</time>
      </trkpt>
      <trkpt lat="42.45879" lon="2.85519">
        <ele>322</ele>
        <time>2024-09-22T08:09:00Z</time>
      </trkpt>
      <trkpt lat="42.45882" lon="2.85521">
        <ele>322</ele>
        <time>2024-09-22T08:09:03Z</time>
      </trkpt>
      <trkpt lat="42.45885" lon="2.85522">
        <ele>323</ele>
        <time>2024-09-22T08:09:05Z</time>
      </trkpt>
      <trkpt lat="42.45888" lon="2.85522">
        <ele>324</ele>
        <time>2024-09-22T08:09:08Z</time>
      </trkpt>
      <trkpt lat="42.45892" lon="2.85521">
        <ele>324</ele>
        <time>2024-09-22T08:09:10Z</time>
      </trkpt>
      <trkpt lat="42.45895" lon="2.85519">
        <ele>324</ele>
        <time>2024-09-22T08:09:13Z</time>
      </trkpt>
      <trkpt lat="42.45897" lon="2.85516">
        <ele>324</ele>
        <time>2024-09-22T08:09:15Z</time>
      </trkpt>
      <trkpt lat="42.459" lon="2.85513">
        <ele>324</ele>
        <time>2024-09-22T08:09:18Z</time>
      </trkpt>
      <trkpt lat="42.459" lon="2.8551">
        <ele>322</ele>
        <time>2024-09-22T08:09:20Z</time>
      </trkpt>
      <trkpt lat="42.45903" lon="2.85506">
        <ele>323</ele>
        <time>2024-09-22T08:09:23Z</time>
      </trkpt>
      <trkpt lat="42.45904" lon="2.85502">
        <ele>323</ele>
        <time>2024-09-22T08:09:25Z</time>
      </trkpt>
      <trkpt lat="42.45907" lon="2.85498">
        <ele>324</ele>
        <time>2024-09-22T08:09:28Z</time>
      </trkpt>
      <trkpt lat="42.45909" lon="2.85494">
        <ele>324</ele>
        <time>2024-09-22T08:09:31Z</time>
      </trkpt>
      <trkpt lat="42.45911" lon="2.85489">
        <ele>324</ele>
        <time>2024-09-22T08:09:34Z</time>
      </trkpt>
      <trkpt lat="42.45913" lon="2.85485">
        <ele>324</ele>
        <time>2024-09-22T08:09:37Z</time>
      </trkpt>
      <trkpt lat="42.45915" lon="2.85482">
        <ele>324</ele>
        <time>2024-09-22T08:09:40Z</time>
      </trkpt>
      <trkpt lat="42.45918" lon="2.85477">
        <ele>325</ele>
        <time>2024-09-22T08:09:43Z</time>
      </trkpt>
      <trkpt lat="42.45921" lon="2.85475">
        <ele>325</ele>
        <time>2024-09-22T08:09:46Z</time>
      </trkpt>
      <trkpt lat="42.45923" lon="2.85472">
        <ele>325</ele>
        <time>2024-09-22T08:09:48Z</time>
      </trkpt>
      <trkpt lat="42.45926" lon="2.8547">
        <ele>325</ele>
        <time>2024-09-22T08:09:51Z</time>
      </trkpt>
      <trkpt lat="42.4593" lon="2.85469">
        <ele>324</ele>
        <time>2024-09-22T08:09:54Z</time>
      </trkpt>
      <trkpt lat="42.45933" lon="2.85469">
        <ele>325</ele>
        <time>2024-09-22T08:09:57Z</time>
      </trkpt>
      <trkpt lat="42.45936" lon="2.85469">
        <ele>325</ele>
        <time>2024-09-22T08:09:59Z</time>
      </trkpt>
      <trkpt lat="42.4594" lon="2.85471">
        <ele>325</ele>
        <time>2024-09-22T08:10:03Z</time>
      </trkpt>
      <trkpt lat="42.45943" lon="2.85473">
        <ele>325</ele>
        <time>2024-09-22T08:10:06Z</time>
      </trkpt>
      <trkpt lat="42.45945" lon="2.85476">
        <ele>325</ele>
        <time>2024-09-22T08:10:08Z</time>
      </trkpt>
      <trkpt lat="42.45947" lon="2.85479">
        <ele>325</ele>
        <time>2024-09-22T08:10:11Z</time>
      </trkpt>
      <trkpt lat="42.45949" lon="2.85482">
        <ele>325</ele>
        <time>2024-09-22T08:10:14Z</time>
      </trkpt>
      <trkpt lat="42.45952" lon="2.85486">
        <ele>325</ele>
        <time>2024-09-22T08:10:17Z</time>
      </trkpt>
      <trkpt lat="42.45954" lon="2.8549">
        <ele>324</ele>
        <time>2024-09-22T08:10:20Z</time>
      </trkpt>
      <trkpt lat="42.45956" lon="2.85494">
        <ele>324</ele>
        <time>2024-09-22T08:10:23Z</time>
      </trkpt>
      <trkpt lat="42.45959" lon="2.85498">
        <ele>325</ele>
        <time>2024-09-22T08:10:27Z</time>
      </trkpt>
      <trkpt lat="42.45961" lon="2.85502">
        <ele>326</ele>
        <time>2024-09-22T08:10:30Z</time>
      </trkpt>
      <trkpt lat="42.45964" lon="2.85505">
        <ele>325</ele>
        <time>2024-09-22T08:10:33Z</time>
      </trkpt>
      <trkpt lat="42.45966" lon="2.85508">
        <ele>325</ele>
        <time>2024-09-22T08:10:36Z</time>
      </trkpt>
      <trkpt lat="42.45968" lon="2.85511">
        <ele>326</ele>
        <time>2024-09-22T08:10:38Z</time>
      </trkpt>
      <trkpt lat="42.4597" lon="2.85515">
        <ele>326</ele>
        <time>2024-09-22T08:10:41Z</time>
      </trkpt>
      <trkpt lat="42.45972" lon="2.85519">
        <ele>326</ele>
        <time>2024-09-22T08:10:44Z</time>
      </trkpt>
      <trkpt lat="42.45974" lon="2.85523">
        <ele>326</ele>
        <time>2024-09-22T08:10:47Z</time>
      </trkpt>
      <trkpt lat="42.45976" lon="2.85525">
        <ele>327</ele>
        <time>2024-09-22T08:10:49Z</time>
      </trkpt>
      <trkpt lat="42.45978" lon="2.85528">
        <ele>328</ele>
        <time>2024-09-22T08:10:52Z</time>
      </trkpt>
      <trkpt lat="42.45981" lon="2.85532">
        <ele>328</ele>
        <time>2024-09-22T08:10:56Z</time>
      </trkpt>
      <trkpt lat="42.45983" lon="2.85535">
        <ele>328</ele>
        <time>2024-09-22T08:10:59Z</time>
      </trkpt>
      <trkpt lat="42.45984" lon="2.85539">
        <ele>328</ele>
        <time>2024-09-22T08:11:01Z</time>
      </trkpt>
      <trkpt lat="42.45986" lon="2.85542">
        <ele>329</ele>
        <time>2024-09-22T08:11:03Z</time>
      </trkpt>
      <trkpt lat="42.45988" lon="2.85545">
        <ele>329</ele>
        <time>2024-09-22T08:11:06Z</time>
      </trkpt>
      <trkpt lat="42.4599" lon="2.85548">
        <ele>328</ele>
        <time>2024-09-22T08:11:09Z</time>
      </trkpt>
      <trkpt lat="42.45993" lon="2.85552">
        <ele>329</ele>
        <time>2024-09-22T08:11:12Z</time>
      </trkpt>
      <trkpt lat="42.45995" lon="2.85556">
        <ele>330</ele>
        <time>2024-09-22T08:11:15Z</time>
      </trkpt>
      <trkpt lat="42.45996" lon="2.85559">
        <ele>331</ele>
        <time>2024-09-22T08:11:18Z</time>
      </trkpt>
      <trkpt lat="42.45998" lon="2.85563">
        <ele>331</ele>
        <time>2024-09-22T08:11:22Z</time>
      </trkpt>
      <trkpt lat="42.45996" lon="2.85567">
        <ele>333</ele>
        <time>2024-09-22T08:11:28Z</time>
      </trkpt>
      <trkpt lat="42.45994" lon="2.85567">
        <ele>335</ele>
        <time>2024-09-22T08:11:31Z</time>
      </trkpt>
      <trkpt lat="42.45992" lon="2.85565">
        <ele>334</ele>
        <time>2024-09-22T08:11:35Z</time>
      </trkpt>
      <trkpt lat="42.45989" lon="2.85562">
        <ele>335</ele>
        <time>2024-09-22T08:11:38Z</time>
      </trkpt>
      <trkpt lat="42.45987" lon="2.85559">
        <ele>335</ele>
        <time>2024-09-22T08:11:48Z</time>
      </trkpt>
      <trkpt lat="42.45984" lon="2.85556">
        <ele>335</ele>
        <time>2024-09-22T08:11:52Z</time>
      </trkpt>
      <trkpt lat="42.4598" lon="2.85552">
        <ele>336</ele>
        <time>2024-09-22T08:12:00Z</time>
      </trkpt>
      <trkpt lat="42.45977" lon="2.8555">
        <ele>336</ele>
        <time>2024-09-22T08:12:03Z</time>
      </trkpt>
      <trkpt lat="42.45975" lon="2.85547">
        <ele>336</ele>
        <time>2024-09-22T08:12:05Z</time>
      </trkpt>
      <trkpt lat="42.45972" lon="2.85545">
        <ele>335</ele>
        <time>2024-09-22T08:12:09Z</time>
      </trkpt>
      <trkpt lat="42.45968" lon="2.85543">
        <ele>336</ele>
        <time>2024-09-22T08:12:12Z</time>
      </trkpt>
      <trkpt lat="42.45965" lon="2.85541">
        <ele>336</ele>
        <time>2024-09-22T08:12:15Z</time>
      </trkpt>
      <trkpt lat="42.45963" lon="2.85538">
        <ele>336</ele>
        <time>2024-09-22T08:12:18Z</time>
      </trkpt>
      <trkpt lat="42.4596" lon="2.85536">
        <ele>338</ele>
        <time>2024-09-22T08:12:21Z</time>
      </trkpt>
      <trkpt lat="42.45957" lon="2.85533">
        <ele>338</ele>
        <time>2024-09-22T08:12:24Z</time>
      </trkpt>
      <trkpt lat="42.45954" lon="2.85531">
        <ele>339</ele>
        <time>2024-09-22T08:12:27Z</time>
      </trkpt>
      <trkpt lat="42.4595" lon="2.8553">
        <ele>338</ele>
        <time>2024-09-22T08:12:32Z</time>
      </trkpt>
      <trkpt lat="42.45947" lon="2.85529">
        <ele>338</ele>
        <time>2024-09-22T08:12:35Z</time>
      </trkpt>
      <trkpt lat="42.45944" lon="2.85528">
        <ele>339</ele>
        <time>2024-09-22T08:12:38Z</time>
      </trkpt>
      <trkpt lat="42.4594" lon="2.85528">
        <ele>340</ele>
        <time>2024-09-22T08:12:42Z</time>
      </trkpt>
      <trkpt lat="42.45937" lon="2.85529">
        <ele>340</ele>
        <time>2024-09-22T08:12:45Z</time>
      </trkpt>
      <trkpt lat="42.45934" lon="2.8553">
        <ele>341</ele>
        <time>2024-09-22T08:12:48Z</time>
      </trkpt>
      <trkpt lat="42.45931" lon="2.85534">
        <ele>342</ele>
        <time>2024-09-22T08:12:53Z</time>
      </trkpt>
      <trkpt lat="42.45928" lon="2.85536">
        <ele>342</ele>
        <time>2024-09-22T08:12:55Z</time>
      </trkpt>
      <trkpt lat="42.45929" lon="2.8554">
        <ele>343</ele>
        <time>2024-09-22T08:12:59Z</time>
      </trkpt>
      <trkpt lat="42.45931" lon="2.85543">
        <ele>342</ele>
        <time>2024-09-22T08:13:02Z</time>
      </trkpt>
      <trkpt lat="42.45934" lon="2.85544">
        <ele>343</ele>
        <time>2024-09-22T08:13:04Z</time>
      </trkpt>
      <trkpt lat="42.45937" lon="2.85544">
        <ele>344</ele>
        <time>2024-09-22T08:13:07Z</time>
      </trkpt>
      <trkpt lat="42.4594" lon="2.85545">
        <ele>344</ele>
        <time>2024-09-22T08:13:10Z</time>
      </trkpt>
      <trkpt lat="42.45943" lon="2.85547">
        <ele>344</ele>
        <time>2024-09-22T08:13:13Z</time>
      </trkpt>
      <trkpt lat="42.45946" lon="2.85547">
        <ele>344</ele>
        <time>2024-09-22T08:13:16Z</time>
      </trkpt>
      <trkpt lat="42.45948" lon="2.8555">
        <ele>344</ele>
        <time>2024-09-22T08:13:19Z</time>
      </trkpt>
      <trkpt lat="42.45951" lon="2.85552">
        <ele>344</ele>
        <time>2024-09-22T08:13:21Z</time>
      </trkpt>
      <trkpt lat="42.45953" lon="2.85554">
        <ele>344</ele>
        <time>2024-09-22T08:13:24Z</time>
      </trkpt>
      <trkpt lat="42.45956" lon="2.85556">
        <ele>343</ele>
        <time>2024-09-22T08:13:27Z</time>
      </trkpt>
      <trkpt lat="42.45959" lon="2.85559">
        <ele>344</ele>
        <time>2024-09-22T08:13:30Z</time>
      </trkpt>
      <trkpt lat="42.45961" lon="2.85561">
        <ele>343</ele>
        <time>2024-09-22T08:13:33Z</time>
      </trkpt>
      <trkpt lat="42.45963" lon="2.85564">
        <ele>343</ele>
        <time>2024-09-22T08:13:36Z</time>
      </trkpt>
      <trkpt lat="42.45965" lon="2.85568">
        <ele>343</ele>
        <time>2024-09-22T08:13:39Z</time>
      </trkpt>
      <trkpt lat="42.45967" lon="2.85571">
        <ele>343</ele>
        <time>2024-09-22T08:13:42Z</time>
      </trkpt>
      <trkpt lat="42.45969" lon="2.85574">
        <ele>344</ele>
        <time>2024-09-22T08:13:45Z</time>
      </trkpt>
      <trkpt lat="42.45971" lon="2.85578">
        <ele>344</ele>
        <time>2024-09-22T08:13:48Z</time>
      </trkpt>
      <trkpt lat="42.45972" lon="2.85582">
        <ele>344</ele>
        <time>2024-09-22T08:13:50Z</time>
      </trkpt>
      <trkpt lat="42.45974" lon="2.85586">
        <ele>344</ele>
        <time>2024-09-22T08:13:53Z</time>
      </trkpt>
      <trkpt lat="42.45976" lon="2.85589">
        <ele>345</ele>
        <time>2024-09-22T08:13:56Z</time>
      </trkpt>
      <trkpt lat="42.45979" lon="2.85592">
        <ele>345</ele>
        <time>2024-09-22T08:13:59Z</time>
      </trkpt>
      <trkpt lat="42.45981" lon="2.85596">
        <ele>345</ele>
        <time>2024-09-22T08:14:03Z</time>
      </trkpt>
      <trkpt lat="42.45983" lon="2.85599">
        <ele>345</ele>
        <time>2024-09-22T08:14:06Z</time>
      </trkpt>
      <trkpt lat="42.45986" lon="2.85602">
        <ele>345</ele>
        <time>2024-09-22T08:14:08Z</time>
      </trkpt>
      <trkpt lat="42.45987" lon="2.85606">
        <ele>346</ele>
        <time>2024-09-22T08:14:11Z</time>
      </trkpt>
      <trkpt lat="42.45989" lon="2.85608">
        <ele>346</ele>
        <time>2024-09-22T08:14:14Z</time>
      </trkpt>
      <trkpt lat="42.45991" lon="2.85611">
        <ele>346</ele>
        <time>2024-09-22T08:14:16Z</time>
      </trkpt>
      <trkpt lat="42.45993" lon="2.85614">
        <ele>347</ele>
        <time>2024-09-22T08:14:19Z</time>
      </trkpt>
      <trkpt lat="42.45996" lon="2.85616">
        <ele>347</ele>
        <time>2024-09-22T08:14:22Z</time>
      </trkpt>
      <trkpt lat="42.46" lon="2.85617">
        <ele>347</ele>
        <time>2024-09-22T08:14:24Z</time>
      </trkpt>
      <trkpt lat="42.46" lon="2.8562">
        <ele>348</ele>
        <time>2024-09-22T08:14:26Z</time>
      </trkpt>
      <trkpt lat="42.46002" lon="2.85623">
        <ele>349</ele>
        <time>2024-09-22T08:14:28Z</time>
      </trkpt>
      <trkpt lat="42.46004" lon="2.85624">
        <ele>347</ele>
        <time>2024-09-22T08:14:32Z</time>
      </trkpt>
      <trkpt lat="42.46007" lon="2.85625">
        <ele>349</ele>
        <time>2024-09-22T08:14:35Z</time>
      </trkpt>
      <trkpt lat="42.4601" lon="2.85627">
        <ele>349</ele>
        <time>2024-09-22T08:14:39Z</time>
      </trkpt>
      <trkpt lat="42.46014" lon="2.85628">
        <ele>348</ele>
        <time>2024-09-22T08:14:43Z</time>
      </trkpt>
      <trkpt lat="42.46018" lon="2.85629">
        <ele>350</ele>
        <time>2024-09-22T08:14:46Z</time>
      </trkpt>
      <trkpt lat="42.46021" lon="2.8563">
        <ele>350</ele>
        <time>2024-09-22T08:14:55Z</time>
      </trkpt>
      <trkpt lat="42.46025" lon="2.8563">
        <ele>351</ele>
        <time>2024-09-22T08:14:58Z</time>
      </trkpt>
      <trkpt lat="42.46028" lon="2.85631">
        <ele>351</ele>
        <time>2024-09-22T08:15:01Z</time>
      </trkpt>
      <trkpt lat="42.46031" lon="2.8563">
        <ele>351</ele>
        <time>2024-09-22T08:15:03Z</time>
      </trkpt>
      <trkpt lat="42.46034" lon="2.8563">
        <ele>351</ele>
        <time>2024-09-22T08:15:05Z</time>
      </trkpt>
      <trkpt lat="42.46038" lon="2.8563">
        <ele>351</ele>
        <time>2024-09-22T08:15:09Z</time>
      </trkpt>
      <trkpt lat="42.46041" lon="2.85631">
        <ele>351</ele>
        <time>2024-09-22T08:15:10Z</time>
      </trkpt>
      <trkpt lat="42.46044" lon="2.85631">
        <ele>351</ele>
        <time>2024-09-22T08:15:13Z</time>
      </trkpt>
      <trkpt lat="42.46047" lon="2.85632">
        <ele>351</ele>
        <time>2024-09-22T08:15:16Z</time>
      </trkpt>
      <trkpt lat="42.4605" lon="2.85633">
        <ele>350</ele>
        <time>2024-09-22T08:15:19Z</time>
      </trkpt>
      <trkpt lat="42.46053" lon="2.85635">
        <ele>351</ele>
        <time>2024-09-22T08:15:23Z</time>
      </trkpt>
      <trkpt lat="42.46056" lon="2.85637">
        <ele>351</ele>
        <time>2024-09-22T08:15:26Z</time>
      </trkpt>
      <trkpt lat="42.46059" lon="2.85639">
        <ele>351</ele>
        <time>2024-09-22T08:15:31Z</time>
      </trkpt>
      <trkpt lat="42.46062" lon="2.85642">
        <ele>350</ele>
        <time>2024-09-22T08:15:36Z</time>
      </trkpt>
      <trkpt lat="42.46063" lon="2.85646">
        <ele>351</ele>
        <time>2024-09-22T08:15:39Z</time>
      </trkpt>
      <trkpt lat="42.46064" lon="2.8565">
        <ele>351</ele>
        <time>2024-09-22T08:15:42Z</time>
      </trkpt>
      <trkpt lat="42.46064" lon="2.85654">
        <ele>352</ele>
        <time>2024-09-22T08:15:45Z</time>
      </trkpt>
      <trkpt lat="42.46063" lon="2.85658">
        <ele>352</ele>
        <time>2024-09-22T08:15:48Z</time>
      </trkpt>
      <trkpt lat="42.46062" lon="2.85662">
        <ele>352</ele>
        <time>2024-09-22T08:15:54Z</time>
      </trkpt>
      <trkpt lat="42.4606" lon="2.85665">
        <ele>351</ele>
        <time>2024-09-22T08:15:57Z</time>
      </trkpt>
      <trkpt lat="42.46058" lon="2.85668">
        <ele>352</ele>
        <time>2024-09-22T08:16:00Z</time>
      </trkpt>
      <trkpt lat="42.46056" lon="2.85672">
        <ele>353</ele>
        <time>2024-09-22T08:16:03Z</time>
      </trkpt>
      <trkpt lat="42.46054" lon="2.85675">
        <ele>353</ele>
        <time>2024-09-22T08:16:07Z</time>
      </trkpt>
      <trkpt lat="42.46052" lon="2.85679">
        <ele>354</ele>
        <time>2024-09-22T08:16:10Z</time>
      </trkpt>
      <trkpt lat="42.4605" lon="2.85681">
        <ele>354</ele>
        <time>2024-09-22T08:16:13Z</time>
      </trkpt>
      <trkpt lat="42.46048" lon="2.85684">
        <ele>354</ele>
        <time>2024-09-22T08:16:16Z</time>
      </trkpt>
      <trkpt lat="42.46046" lon="2.85688">
        <ele>355</ele>
        <time>2024-09-22T08:16:19Z</time>
      </trkpt>
      <trkpt lat="42.46044" lon="2.85691">
        <ele>356</ele>
        <time>2024-09-22T08:16:22Z</time>
      </trkpt>
      <trkpt lat="42.46042" lon="2.85693">
        <ele>356</ele>
        <time>2024-09-22T08:16:25Z</time>
      </trkpt>
      <trkpt lat="42.4604" lon="2.85697">
        <ele>357</ele>
        <time>2024-09-22T08:16:28Z</time>
      </trkpt>
      <trkpt lat="42.46037" lon="2.85701">
        <ele>356</ele>
        <time>2024-09-22T08:16:31Z</time>
      </trkpt>
      <trkpt lat="42.46036" lon="2.85704">
        <ele>357</ele>
        <time>2024-09-22T08:16:34Z</time>
      </trkpt>
      <trkpt lat="42.46034" lon="2.85708">
        <ele>357</ele>
        <time>2024-09-22T08:16:37Z</time>
      </trkpt>
      <trkpt lat="42.46032" lon="2.85712">
        <ele>358</ele>
        <time>2024-09-22T08:16:40Z</time>
      </trkpt>
      <trkpt lat="42.46031" lon="2.85716">
        <ele>359</ele>
        <time>2024-09-22T08:16:44Z</time>
      </trkpt>
      <trkpt lat="42.46029" lon="2.8572">
        <ele>359</ele>
        <time>2024-09-22T08:16:48Z</time>
      </trkpt>
      <trkpt lat="42.46029" lon="2.85724">
        <ele>359</ele>
        <time>2024-09-22T08:16:50Z</time>
      </trkpt>
      <trkpt lat="42.46029" lon="2.85729">
        <ele>359</ele>
        <time>2024-09-22T08:16:53Z</time>
      </trkpt>
      <trkpt lat="42.46031" lon="2.85732">
        <ele>359</ele>
        <time>2024-09-22T08:16:56Z</time>
      </trkpt>
      <trkpt lat="42.46032" lon="2.85737">
        <ele>358</ele>
        <time>2024-09-22T08:16:59Z</time>
      </trkpt>
      <trkpt lat="42.46034" lon="2.85739">
        <ele>358</ele>
        <time>2024-09-22T08:17:01Z</time>
      </trkpt>
      <trkpt lat="42.46037" lon="2.85742">
        <ele>359</ele>
        <time>2024-09-22T08:17:04Z</time>
      </trkpt>
      <trkpt lat="42.4604" lon="2.85744">
        <ele>359</ele>
        <time>2024-09-22T08:17:08Z</time>
      </trkpt>
      <trkpt lat="42.46043" lon="2.85746">
        <ele>360</ele>
        <time>2024-09-22T08:17:11Z</time>
      </trkpt>
      <trkpt lat="42.46047" lon="2.85748">
        <ele>360</ele>
        <time>2024-09-22T08:17:14Z</time>
      </trkpt>
      <trkpt lat="42.4605" lon="2.85751">
        <ele>361</ele>
        <time>2024-09-22T08:17:17Z</time>
      </trkpt>
      <trkpt lat="42.46053" lon="2.85753">
        <ele>361</ele>
        <time>2024-09-22T08:17:18Z</time>
      </trkpt>
      <trkpt lat="42.46055" lon="2.85755">
        <ele>361</ele>
        <time>2024-09-22T08:17:21Z</time>
      </trkpt>
      <trkpt lat="42.46058" lon="2.85759">
        <ele>362</ele>
        <time>2024-09-22T08:17:24Z</time>
      </trkpt>
      <trkpt lat="42.4606" lon="2.85763">
        <ele>362</ele>
        <time>2024-09-22T08:17:27Z</time>
      </trkpt>
      <trkpt lat="42.46061" lon="2.85767">
        <ele>361</ele>
        <time>2024-09-22T08:17:31Z</time>
      </trkpt>
      <trkpt lat="42.46062" lon="2.85772">
        <ele>362</ele>
        <time>2024-09-22T08:17:34Z</time>
      </trkpt>
      <trkpt lat="42.46062" lon="2.85777">
        <ele>361</ele>
        <time>2024-09-22T08:17:37Z</time>
      </trkpt>
      <trkpt lat="42.46061" lon="2.85781">
        <ele>362</ele>
        <time>2024-09-22T08:17:40Z</time>
      </trkpt>
      <trkpt lat="42.4606" lon="2.85786">
        <ele>362</ele>
        <time>2024-09-22T08:17:43Z</time>
      </trkpt>
      <trkpt lat="42.4606" lon="2.8579">
        <ele>363</ele>
        <time>2024-09-22T08:17:45Z</time>
      </trkpt>
      <trkpt lat="42.46059" lon="2.85794">
        <ele>363</ele>
        <time>2024-09-22T08:17:48Z</time>
      </trkpt>
      <trkpt lat="42.46058" lon="2.85798">
        <ele>363</ele>
        <time>2024-09-22T08:17:50Z</time>
      </trkpt>
      <trkpt lat="42.46057" lon="2.85802">
        <ele>363</ele>
        <time>2024-09-22T08:17:53Z</time>
      </trkpt>
      <trkpt lat="42.46055" lon="2.85806">
        <ele>364</ele>
        <time>2024-09-22T08:17:55Z</time>
      </trkpt>
      <trkpt lat="42.46054" lon="2.8581">
        <ele>365</ele>
        <time>2024-09-22T08:17:58Z</time>
      </trkpt>
      <trkpt lat="42.46053" lon="2.85816">
        <ele>365</ele>
        <time>2024-09-22T08:18:01Z</time>
      </trkpt>
      <trkpt lat="42.46053" lon="2.8582">
        <ele>364</ele>
        <time>2024-09-22T08:18:04Z</time>
      </trkpt>
      <trkpt lat="42.46053" lon="2.85824">
        <ele>364</ele>
        <time>2024-09-22T08:18:06Z</time>
      </trkpt>
      <trkpt lat="42.46054" lon="2.85829">
        <ele>365</ele>
        <time>2024-09-22T08:18:09Z</time>
      </trkpt>
      <trkpt lat="42.46056" lon="2.85834">
        <ele>364</ele>
        <time>2024-09-22T08:18:12Z</time>
      </trkpt>
      <trkpt lat="42.46059" lon="2.85837">
        <ele>364</ele>
        <time>2024-09-22T08:18:15Z</time>
      </trkpt>
      <trkpt lat="42.46061" lon="2.8584">
        <ele>364</ele>
        <time>2024-09-22T08:18:18Z</time>
      </trkpt>
      <trkpt lat="42.46064" lon="2.85844">
        <ele>365</ele>
        <time>2024-09-22T08:18:21Z</time>
      </trkpt>
      <trkpt lat="42.46066" lon="2.85847">
        <ele>364</ele>
        <time>2024-09-22T08:18:23Z</time>
      </trkpt>
      <trkpt lat="42.46069" lon="2.85849">
        <ele>363</ele>
        <time>2024-09-22T08:18:26Z</time>
      </trkpt>
      <trkpt lat="42.46071" lon="2.85852">
        <ele>363</ele>
        <time>2024-09-22T08:18:29Z</time>
      </trkpt>
      <trkpt lat="42.46073" lon="2.85856">
        <ele>363</ele>
        <time>2024-09-22T08:18:32Z</time>
      </trkpt>
      <trkpt lat="42.46075" lon="2.85859">
        <ele>364</ele>
        <time>2024-09-22T08:18:35Z</time>
      </trkpt>
      <trkpt lat="42.46078" lon="2.85864">
        <ele>363</ele>
        <time>2024-09-22T08:18:38Z</time>
      </trkpt>
      <trkpt lat="42.46079" lon="2.85868">
        <ele>362</ele>
        <time>2024-09-22T08:18:41Z</time>
      </trkpt>
      <trkpt lat="42.46082" lon="2.85872">
        <ele>362</ele>
        <time>2024-09-22T08:18:44Z</time>
      </trkpt>
      <trkpt lat="42.46083" lon="2.85875">
        <ele>361</ele>
        <time>2024-09-22T08:18:46Z</time>
      </trkpt>
      <trkpt lat="42.46085" lon="2.85879">
        <ele>362</ele>
        <time>2024-09-22T08:18:48Z</time>
      </trkpt>
      <trkpt lat="42.46087" lon="2.85882">
        <ele>362</ele>
        <time>2024-09-22T08:18:51Z</time>
      </trkpt>
      <trkpt lat="42.46089" lon="2.85885">
        <ele>361</ele>
        <time>2024-09-22T08:18:53Z</time>
      </trkpt>
      <trkpt lat="42.46091" lon="2.85888">
        <ele>362</ele>
        <time>2024-09-22T08:18:55Z</time>
      </trkpt>
      <trkpt lat="42.46093" lon="2.85891">
        <ele>361</ele>
        <time>2024-09-22T08:18:57Z</time>
      </trkpt>
      <trkpt lat="42.46096" lon="2.85893">
        <ele>362</ele>
        <time>2024-09-22T08:18:59Z</time>
      </trkpt>
      <trkpt lat="42.46098" lon="2.85895">
        <ele>361</ele>
        <time>2024-09-22T08:19:01Z</time>
      </trkpt>
      <trkpt lat="42.46101" lon="2.85897">
        <ele>360</ele>
        <time>2024-09-22T08:19:03Z</time>
      </trkpt>
      <trkpt lat="42.46103" lon="2.85898">
        <ele>360</ele>
        <time>2024-09-22T08:19:05Z</time>
      </trkpt>
      <trkpt lat="42.46106" lon="2.85899">
        <ele>360</ele>
        <time>2024-09-22T08:19:07Z</time>
      </trkpt>
      <trkpt lat="42.46109" lon="2.859">
        <ele>358</ele>
        <time>2024-09-22T08:19:09Z</time>
      </trkpt>
      <trkpt lat="42.46112" lon="2.85901">
        <ele>357</ele>
        <time>2024-09-22T08:19:12Z</time>
      </trkpt>
      <trkpt lat="42.46115" lon="2.85903">
        <ele>358</ele>
        <time>2024-09-22T08:19:14Z</time>
      </trkpt>
      <trkpt lat="42.46118" lon="2.85904">
        <ele>358</ele>
        <time>2024-09-22T08:19:16Z</time>
      </trkpt>
      <trkpt lat="42.46121" lon="2.85905">
        <ele>358</ele>
        <time>2024-09-22T08:19:18Z</time>
      </trkpt>
      <trkpt lat="42.46123" lon="2.85907">
        <ele>358</ele>
        <time>2024-09-22T08:19:20Z</time>
      </trkpt>
      <trkpt lat="42.46126" lon="2.8591">
        <ele>356</ele>
        <time>2024-09-22T08:19:22Z</time>
      </trkpt>
      <trkpt lat="42.46127" lon="2.85914">
        <ele>356</ele>
        <time>2024-09-22T08:19:24Z</time>
      </trkpt>
      <trkpt lat="42.46127" lon="2.85917">
        <ele>356</ele>
        <time>2024-09-22T08:19:26Z</time>
      </trkpt>
      <trkpt lat="42.46127" lon="2.85921">
        <ele>355</ele>
        <time>2024-09-22T08:19:29Z</time>
      </trkpt>
      <trkpt lat="42.46127" lon="2.85925">
        <ele>357</ele>
        <time>2024-09-22T08:19:31Z</time>
      </trkpt>
      <trkpt lat="42.46126" lon="2.85929">
        <ele>357</ele>
        <time>2024-09-22T08:19:33Z</time>
      </trkpt>
      <trkpt lat="42.46125" lon="2.85933">
        <ele>355</ele>
        <time>2024-09-22T08:19:35Z</time>
      </trkpt>
      <trkpt lat="42.46124" lon="2.85936">
        <ele>355</ele>
        <time>2024-09-22T08:19:37Z</time>
      </trkpt>
      <trkpt lat="42.46122" lon="2.8594">
        <ele>356</ele>
        <time>2024-09-22T08:19:40Z</time>
      </trkpt>
      <trkpt lat="42.4612" lon="2.85943">
        <ele>355</ele>
        <time>2024-09-22T08:19:45Z</time>
      </trkpt>
      <trkpt lat="42.46118" lon="2.85947">
        <ele>354</ele>
        <time>2024-09-22T08:19:48Z</time>
      </trkpt>
      <trkpt lat="42.46116" lon="2.8595">
        <ele>354</ele>
        <time>2024-09-22T08:19:51Z</time>
      </trkpt>
      <trkpt lat="42.46114" lon="2.85953">
        <ele>353</ele>
        <time>2024-09-22T08:19:53Z</time>
      </trkpt>
      <trkpt lat="42.46111" lon="2.85956">
        <ele>353</ele>
        <time>2024-09-22T08:19:56Z</time>
      </trkpt>
      <trkpt lat="42.46109" lon="2.85961">
        <ele>352</ele>
        <time>2024-09-22T08:20:00Z</time>
      </trkpt>
      <trkpt lat="42.46108" lon="2.85964">
        <ele>352</ele>
        <time>2024-09-22T08:20:02Z</time>
      </trkpt>
      <trkpt lat="42.46106" lon="2.85969">
        <ele>351</ele>
        <time>2024-09-22T08:20:05Z</time>
      </trkpt>
      <trkpt lat="42.46106" lon="2.85974">
        <ele>351</ele>
        <time>2024-09-22T08:20:08Z</time>
      </trkpt>
      <trkpt lat="42.46106" lon="2.85978">
        <ele>351</ele>
        <time>2024-09-22T08:20:10Z</time>
      </trkpt>
      <trkpt lat="42.46106" lon="2.85983">
        <ele>351</ele>
        <time>2024-09-22T08:20:13Z</time>
      </trkpt>
      <trkpt lat="42.46107" lon="2.85987">
        <ele>350</ele>
        <time>2024-09-22T08:20:16Z</time>
      </trkpt>
      <trkpt lat="42.4611" lon="2.85991">
        <ele>349</ele>
        <time>2024-09-22T08:20:19Z</time>
      </trkpt>
      <trkpt lat="42.46112" lon="2.85995">
        <ele>349</ele>
        <time>2024-09-22T08:20:22Z</time>
      </trkpt>
      <trkpt lat="42.46114" lon="2.85998">
        <ele>348</ele>
        <time>2024-09-22T08:20:24Z</time>
      </trkpt>
      <trkpt lat="42.46116" lon="2.86002">
        <ele>348</ele>
        <time>2024-09-22T08:20:27Z</time>
      </trkpt>
      <trkpt lat="42.46119" lon="2.86004">
        <ele>347</ele>
        <time>2024-09-22T08:20:30Z</time>
      </trkpt>
      <trkpt lat="42.46122" lon="2.86006">
        <ele>347</ele>
        <time>2024-09-22T08:20:32Z</time>
      </trkpt>
      <trkpt lat="42.46125" lon="2.86009">
        <ele>346</ele>
        <time>2024-09-22T08:20:35Z</time>
      </trkpt>
      <trkpt lat="42.46128" lon="2.86012">
        <ele>345</ele>
        <time>2024-09-22T08:20:38Z</time>
      </trkpt>
      <trkpt lat="42.46131" lon="2.86014">
        <ele>345</ele>
        <time>2024-09-22T08:20:41Z</time>
      </trkpt>
      <trkpt lat="42.46134" lon="2.86017">
        <ele>345</ele>
        <time>2024-09-22T08:20:44Z</time>
      </trkpt>
      <trkpt lat="42.46137" lon="2.8602">
        <ele>344</ele>
        <time>2024-09-22T08:20:47Z</time>
      </trkpt>
      <trkpt lat="42.4614" lon="2.86023">
        <ele>343</ele>
        <time>2024-09-22T08:20:50Z</time>
      </trkpt>
      <trkpt lat="42.46142" lon="2.86026">
        <ele>343</ele>
        <time>2024-09-22T08:20:52Z</time>
      </trkpt>
      <trkpt lat="42.46144" lon="2.86029">
        <ele>342</ele>
        <time>2024-09-22T08:20:56Z</time>
      </trkpt>
      <trkpt lat="42.46146" lon="2.86033">
        <ele>342</ele>
        <time>2024-09-22T08:20:59Z</time>
      </trkpt>
      <trkpt lat="42.46147" lon="2.86037">
        <ele>342</ele>
        <time>2024-09-22T08:21:01Z</time>
      </trkpt>
      <trkpt lat="42.46149" lon="2.86041">
        <ele>341</ele>
        <time>2024-09-22T08:21:04Z</time>
      </trkpt>
      <trkpt lat="42.46151" lon="2.86045">
        <ele>341</ele>
        <time>2024-09-22T08:21:06Z</time>
      </trkpt>
      <trkpt lat="42.46152" lon="2.86049">
        <ele>340</ele>
        <time>2024-09-22T08:21:09Z</time>
      </trkpt>
      <trkpt lat="42.46153" lon="2.86053">
        <ele>341</ele>
        <time>2024-09-22T08:21:11Z</time>
      </trkpt>
      <trkpt lat="42.46154" lon="2.86057">
        <ele>341</ele>
        <time>2024-09-22T08:21:13Z</time>
      </trkpt>
      <trkpt lat="42.46155" lon="2.86061">
        <ele>340</ele>
        <time>2024-09-22T08:21:16Z</time>
      </trkpt>
      <trkpt lat="42.46156" lon="2.86065">
        <ele>341</ele>
        <time>2024-09-22T08:21:20Z</time>
      </trkpt>
      <trkpt lat="42.46157" lon="2.86068">
        <ele>340</ele>
        <time>2024-09-22T08:21:22Z</time>
      </trkpt>
      <trkpt lat="42.46158" lon="2.86072">
        <ele>340</ele>
        <time>2024-09-22T08:21:24Z</time>
      </trkpt>
      <trkpt lat="42.4616" lon="2.86076">
        <ele>339</ele>
        <time>2024-09-22T08:21:26Z</time>
      </trkpt>
      <trkpt lat="42.46161" lon="2.8608">
        <ele>340</ele>
        <time>2024-09-22T08:21:28Z</time>
      </trkpt>
      <trkpt lat="42.46163" lon="2.86082">
        <ele>339</ele>
        <time>2024-09-22T08:21:30Z</time>
      </trkpt>
      <trkpt lat="42.46166" lon="2.86086">
        <ele>341</ele>
        <time>2024-09-22T08:21:33Z</time>
      </trkpt>
      <trkpt lat="42.46168" lon="2.86088">
        <ele>341</ele>
        <time>2024-09-22T08:21:35Z</time>
      </trkpt>
      <trkpt lat="42.4617" lon="2.86091">
        <ele>342</ele>
        <time>2024-09-22T08:21:39Z</time>
      </trkpt>
      <trkpt lat="42.46172" lon="2.86094">
        <ele>341</ele>
        <time>2024-09-22T08:21:42Z</time>
      </trkpt>
      <trkpt lat="42.46174" lon="2.86098">
        <ele>341</ele>
        <time>2024-09-22T08:21:45Z</time>
      </trkpt>
      <trkpt lat="42.46176" lon="2.86102">
        <ele>341</ele>
        <time>2024-09-22T08:21:49Z</time>
      </trkpt>
      <trkpt lat="42.46179" lon="2.86105">
        <ele>341</ele>
        <time>2024-09-22T08:21:52Z</time>
      </trkpt>
      <trkpt lat="42.4618" lon="2.86109">
        <ele>341</ele>
        <time>2024-09-22T08:21:55Z</time>
      </trkpt>
      <trkpt lat="42.46182" lon="2.86112">
        <ele>341</ele>
        <time>2024-09-22T08:21:58Z</time>
      </trkpt>
      <trkpt lat="42.46184" lon="2.86116">
        <ele>342</ele>
        <time>2024-09-22T08:22:01Z</time>
      </trkpt>
      <trkpt lat="42.46186" lon="2.8612">
        <ele>343</ele>
        <time>2024-09-22T08:22:04Z</time>
      </trkpt>
      <trkpt lat="42.46187" lon="2.86124">
        <ele>343</ele>
        <time>2024-09-22T08:22:07Z</time>
      </trkpt>
      <trkpt lat="42.4619" lon="2.86127">
        <ele>344</ele>
        <time>2024-09-22T08:22:11Z</time>
      </trkpt>
      <trkpt lat="42.46191" lon="2.8613">
        <ele>344</ele>
        <time>2024-09-22T08:22:18Z</time>
      </trkpt>
      <trkpt lat="42.46194" lon="2.86133">
        <ele>344</ele>
        <time>2024-09-22T08:22:21Z</time>
      </trkpt>
      <trkpt lat="42.46196" lon="2.86134">
        <ele>343</ele>
        <time>2024-09-22T08:22:24Z</time>
      </trkpt>
      <trkpt lat="42.46199" lon="2.86134">
        <ele>343</ele>
        <time>2024-09-22T08:22:26Z</time>
      </trkpt>
      <trkpt lat="42.46202" lon="2.86134">
        <ele>343</ele>
        <time>2024-09-22T08:22:29Z</time>
      </trkpt>
      <trkpt lat="42.46206" lon="2.86135">
        <ele>343</ele>
        <time>2024-09-22T08:22:32Z</time>
      </trkpt>
      <trkpt lat="42.46208" lon="2.86134">
        <ele>342</ele>
        <time>2024-09-22T08:22:34Z</time>
      </trkpt>
      <trkpt lat="42.46212" lon="2.86134">
        <ele>342</ele>
        <time>2024-09-22T08:22:37Z</time>
      </trkpt>
      <trkpt lat="42.46215" lon="2.86135">
        <ele>342</ele>
        <time>2024-09-22T08:22:39Z</time>
      </trkpt>
      <trkpt lat="42.46218" lon="2.86135">
        <ele>342</ele>
        <time>2024-09-22T08:22:41Z</time>
      </trkpt>
      <trkpt lat="42.46221" lon="2.86135">
        <ele>342</ele>
        <time>2024-09-22T08:22:44Z</time>
      </trkpt>
      <trkpt lat="42.46224" lon="2.86135">
        <ele>342</ele>
        <time>2024-09-22T08:22:47Z</time>
      </trkpt>
      <trkpt lat="42.46227" lon="2.86134">
        <ele>341</ele>
        <time>2024-09-22T08:22:49Z</time>
      </trkpt>
      <trkpt lat="42.46231" lon="2.86134">
        <ele>341</ele>
        <time>2024-09-22T08:22:52Z</time>
      </trkpt>
      <trkpt lat="42.46235" lon="2.86134">
        <ele>341</ele>
        <time>2024-09-22T08:22:55Z</time>
      </trkpt>
      <trkpt lat="42.46238" lon="2.86133">
        <ele>341</ele>
        <time>2024-09-22T08:22:57Z</time>
      </trkpt>
      <trkpt lat="42.46241" lon="2.86132">
        <ele>341</ele>
        <time>2024-09-22T08:23:00Z</time>
      </trkpt>
      <trkpt lat="42.46244" lon="2.86131">
        <ele>341</ele>
        <time>2024-09-22T08:23:04Z</time>
      </trkpt>
      <trkpt lat="42.46247" lon="2.86129">
        <ele>340</ele>
        <time>2024-09-22T08:23:07Z</time>
      </trkpt>
      <trkpt lat="42.4625" lon="2.86129">
        <ele>339</ele>
        <time>2024-09-22T08:23:09Z</time>
      </trkpt>
      <trkpt lat="42.46254" lon="2.86128">
        <ele>340</ele>
        <time>2024-09-22T08:23:12Z</time>
      </trkpt>
      <trkpt lat="42.46257" lon="2.86128">
        <ele>339</ele>
        <time>2024-09-22T08:23:14Z</time>
      </trkpt>
      <trkpt lat="42.4626" lon="2.86127">
        <ele>338</ele>
        <time>2024-09-22T08:23:17Z</time>
      </trkpt>
      <trkpt lat="42.46264" lon="2.86126">
        <ele>337</ele>
        <time>2024-09-22T08:23:20Z</time>
      </trkpt>
      <trkpt lat="42.46267" lon="2.86126">
        <ele>338</ele>
        <time>2024-09-22T08:23:22Z</time>
      </trkpt>
      <trkpt lat="42.4627" lon="2.86125">
        <ele>338</ele>
        <time>2024-09-22T08:23:24Z</time>
      </trkpt>
      <trkpt lat="42.46273" lon="2.86124">
        <ele>337</ele>
        <time>2024-09-22T08:23:26Z</time>
      </trkpt>
      <trkpt lat="42.46276" lon="2.86122">
        <ele>337</ele>
        <time>2024-09-22T08:23:29Z</time>
      </trkpt>
      <trkpt lat="42.46279" lon="2.86122">
        <ele>336</ele>
        <time>2024-09-22T08:23:31Z</time>
      </trkpt>
      <trkpt lat="42.46283" lon="2.86122">
        <ele>335</ele>
        <time>2024-09-22T08:23:34Z</time>
      </trkpt>
      <trkpt lat="42.46286" lon="2.86122">
        <ele>334</ele>
        <time>2024-09-22T08:23:36Z</time>
      </trkpt>
      <trkpt lat="42.46289" lon="2.86121">
        <ele>333</ele>
        <time>2024-09-22T08:23:39Z</time>
      </trkpt>
      <trkpt lat="42.46291" lon="2.86118">
        <ele>333</ele>
        <time>2024-09-22T08:23:42Z</time>
      </trkpt>
      <trkpt lat="42.46293" lon="2.86115">
        <ele>332</ele>
        <time>2024-09-22T08:23:45Z</time>
      </trkpt>
      <trkpt lat="42.46296" lon="2.86114">
        <ele>331</ele>
        <time>2024-09-22T08:23:47Z</time>
      </trkpt>
      <trkpt lat="42.46298" lon="2.86111">
        <ele>331</ele>
        <time>2024-09-22T08:23:49Z</time>
      </trkpt>
      <trkpt lat="42.463" lon="2.86108">
        <ele>331</ele>
        <time>2024-09-22T08:23:51Z</time>
      </trkpt>
      <trkpt lat="42.46303" lon="2.86106">
        <ele>330</ele>
        <time>2024-09-22T08:23:54Z</time>
      </trkpt>
      <trkpt lat="42.46305" lon="2.86103">
        <ele>329</ele>
        <time>2024-09-22T08:23:56Z</time>
      </trkpt>
      <trkpt lat="42.46308" lon="2.86101">
        <ele>330</ele>
        <time>2024-09-22T08:23:58Z</time>
      </trkpt>
      <trkpt lat="42.4631" lon="2.86098">
        <ele>330</ele>
        <time>2024-09-22T08:24:00Z</time>
      </trkpt>
      <trkpt lat="42.46311" lon="2.86094">
        <ele>329</ele>
        <time>2024-09-22T08:24:02Z</time>
      </trkpt>
      <trkpt lat="42.46313" lon="2.86091">
        <ele>329</ele>
        <time>2024-09-22T08:24:05Z</time>
      </trkpt>
      <trkpt lat="42.46314" lon="2.86087">
        <ele>328</ele>
        <time>2024-09-22T08:24:09Z</time>
      </trkpt>
      <trkpt lat="42.46316" lon="2.86083">
        <ele>327</ele>
        <time>2024-09-22T08:24:12Z</time>
      </trkpt>
      <trkpt lat="42.46317" lon="2.86079">
        <ele>326</ele>
        <time>2024-09-22T08:24:15Z</time>
      </trkpt>
      <trkpt lat="42.46318" lon="2.86076">
        <ele>325</ele>
        <time>2024-09-22T08:24:17Z</time>
      </trkpt>
      <trkpt lat="42.4632" lon="2.86072">
        <ele>325</ele>
        <time>2024-09-22T08:24:21Z</time>
      </trkpt>
      <trkpt lat="42.46322" lon="2.86068">
        <ele>324</ele>
        <time>2024-09-22T08:24:24Z</time>
      </trkpt>
      <trkpt lat="42.46324" lon="2.86066">
        <ele>324</ele>
        <time>2024-09-22T08:24:27Z</time>
      </trkpt>
      <trkpt lat="42.46327" lon="2.86063">
        <ele>324</ele>
        <time>2024-09-22T08:24:29Z</time>
      </trkpt>
      <trkpt lat="42.46329" lon="2.8606">
        <ele>323</ele>
        <time>2024-09-22T08:24:33Z</time>
      </trkpt>
      <trkpt lat="42.4633" lon="2.86056">
        <ele>322</ele>
        <time>2024-09-22T08:24:35Z</time>
      </trkpt>
      <trkpt lat="42.46332" lon="2.86053">
        <ele>322</ele>
        <time>2024-09-22T08:24:38Z</time>
      </trkpt>
      <trkpt lat="42.46335" lon="2.8605">
        <ele>322</ele>
        <time>2024-09-22T08:24:40Z</time>
      </trkpt>
      <trkpt lat="42.46336" lon="2.86046">
        <ele>321</ele>
        <time>2024-09-22T08:24:42Z</time>
      </trkpt>
      <trkpt lat="42.46338" lon="2.86043">
        <ele>320</ele>
        <time>2024-09-22T08:24:46Z</time>
      </trkpt>
      <trkpt lat="42.4634" lon="2.8604">
        <ele>319</ele>
        <time>2024-09-22T08:24:49Z</time>
      </trkpt>
      <trkpt lat="42.46342" lon="2.86036">
        <ele>319</ele>
        <time>2024-09-22T08:24:51Z</time>
      </trkpt>
      <trkpt lat="42.46344" lon="2.86032">
        <ele>320</ele>
        <time>2024-09-22T08:24:54Z</time>
      </trkpt>
      <trkpt lat="42.46345" lon="2.86028">
        <ele>318</ele>
        <time>2024-09-22T08:24:57Z</time>
      </trkpt>
      <trkpt lat="42.46347" lon="2.86023">
        <ele>318</ele>
        <time>2024-09-22T08:25:00Z</time>
      </trkpt>
      <trkpt lat="42.46349" lon="2.8602">
        <ele>317</ele>
        <time>2024-09-22T08:25:02Z</time>
      </trkpt>
      <trkpt lat="42.46351" lon="2.86017">
        <ele>317</ele>
        <time>2024-09-22T08:25:04Z</time>
      </trkpt>
      <trkpt lat="42.46354" lon="2.86015">
        <ele>317</ele>
        <time>2024-09-22T08:25:09Z</time>
      </trkpt>
      <trkpt lat="42.46356" lon="2.86012">
        <ele>316</ele>
        <time>2024-09-22T08:25:14Z</time>
      </trkpt>
      <trkpt lat="42.46357" lon="2.86009">
        <ele>315</ele>
        <time>2024-09-22T08:25:16Z</time>
      </trkpt>
      <trkpt lat="42.4636" lon="2.86007">
        <ele>315</ele>
        <time>2024-09-22T08:25:21Z</time>
      </trkpt>
      <trkpt lat="42.46363" lon="2.86005">
        <ele>314</ele>
        <time>2024-09-22T08:25:24Z</time>
      </trkpt>
      <trkpt lat="42.46366" lon="2.86004">
        <ele>313</ele>
        <time>2024-09-22T08:25:27Z</time>
      </trkpt>
      <trkpt lat="42.46369" lon="2.86002">
        <ele>312</ele>
        <time>2024-09-22T08:25:29Z</time>
      </trkpt>
      <trkpt lat="42.46372" lon="2.86">
        <ele>312</ele>
        <time>2024-09-22T08:25:31Z</time>
      </trkpt>
      <trkpt lat="42.46375" lon="2.85997">
        <ele>311</ele>
        <time>2024-09-22T08:25:34Z</time>
      </trkpt>
      <trkpt lat="42.46377" lon="2.85993">
        <ele>310</ele>
        <time>2024-09-22T08:25:37Z</time>
      </trkpt>
      <trkpt lat="42.46379" lon="2.85989">
        <ele>308</ele>
        <time>2024-09-22T08:25:40Z</time>
      </trkpt>
      <trkpt lat="42.4638" lon="2.85986">
        <ele>308</ele>
        <time>2024-09-22T08:25:42Z</time>
      </trkpt>
      <trkpt lat="42.46381" lon="2.85982">
        <ele>308</ele>
        <time>2024-09-22T08:25:44Z</time>
      </trkpt>
      <trkpt lat="42.46383" lon="2.85979">
        <ele>306</ele>
        <time>2024-09-22T08:25:47Z</time>
      </trkpt>
      <trkpt lat="42.46386" lon="2.85978">
        <ele>305</ele>
        <time>2024-09-22T08:25:51Z</time>
      </trkpt>
      <trkpt lat="42.46387" lon="2.8598">
        <ele>304</ele>
        <time>2024-09-22T08:25:53Z</time>
      </trkpt>
      <trkpt lat="42.46389" lon="2.85984">
        <ele>305</ele>
        <time>2024-09-22T08:25:56Z</time>
      </trkpt>
      <trkpt lat="42.46391" lon="2.85987">
        <ele>304</ele>
        <time>2024-09-22T08:25:59Z</time>
      </trkpt>
      <trkpt lat="42.46393" lon="2.8599">
        <ele>304</ele>
        <time>2024-09-22T08:26:02Z</time>
      </trkpt>
      <trkpt lat="42.46393" lon="2.8599">
        <ele>302</ele>
        <time>2024-09-22T08:26:07Z</time>
      </trkpt>
      <trkpt lat="42.46392" lon="2.85991">
        <ele>301</ele>
        <time>2024-09-22T08:26:36Z</time>
      </trkpt>
      <trkpt lat="42.4639" lon="2.85993">
        <ele>302</ele>
        <time>2024-09-22T08:26:39Z</time>
      </trkpt>
      <trkpt lat="42.46389" lon="2.85997">
        <ele>303</ele>
        <time>2024-09-22T08:26:41Z</time>
      </trkpt>
      <trkpt lat="42.46387" lon="2.86002">
        <ele>302</ele>
        <time>2024-09-22T08:26:44Z</time>
      </trkpt>
      <trkpt lat="42.46386" lon="2.86007">
        <ele>303</ele>
        <time>2024-09-22T08:26:47Z</time>
      </trkpt>
      <trkpt lat="42.46385" lon="2.8601">
        <ele>304</ele>
        <time>2024-09-22T08:26:50Z</time>
      </trkpt>
      <trkpt lat="42.46384" lon="2.86014">
        <ele>305</ele>
        <time>2024-09-22T08:26:52Z</time>
      </trkpt>
      <trkpt lat="42.46382" lon="2.86015">
        <ele>305</ele>
        <time>2024-09-22T08:26:55Z</time>
      </trkpt>
      <trkpt lat="42.4638" lon="2.86014">
        <ele>305</ele>
        <time>2024-09-22T08:26:58Z</time>
      </trkpt>
      <trkpt lat="42.46381" lon="2.86015">
        <ele>305</ele>
        <time>2024-09-22T08:27:04Z</time>
      </trkpt>
      <trkpt lat="42.46382" lon="2.86019">
        <ele>305</ele>
        <time>2024-09-22T08:27:07Z</time>
      </trkpt>
      <trkpt lat="42.46383" lon="2.86023">
        <ele>305</ele>
        <time>2024-09-22T08:27:10Z</time>
      </trkpt>
      <trkpt lat="42.46384" lon="2.86028">
        <ele>305</ele>
        <time>2024-09-22T08:27:14Z</time>
      </trkpt>
      <trkpt lat="42.46384" lon="2.86032">
        <ele>305</ele>
        <time>2024-09-22T08:27:16Z</time>
      </trkpt>
      <trkpt lat="42.46385" lon="2.86036">
        <ele>305</ele>
        <time>2024-09-22T08:27:20Z</time>
      </trkpt>
      <trkpt lat="42.46386" lon="2.8604">
        <ele>304</ele>
        <time>2024-09-22T08:27:23Z</time>
      </trkpt>
      <trkpt lat="42.46388" lon="2.86043">
        <ele>304</ele>
        <time>2024-09-22T08:27:25Z</time>
      </trkpt>
      <trkpt lat="42.46391" lon="2.86046">
        <ele>305</ele>
        <time>2024-09-22T08:27:28Z</time>
      </trkpt>
      <trkpt lat="42.46394" lon="2.86049">
        <ele>304</ele>
        <time>2024-09-22T08:27:31Z</time>
      </trkpt>
      <trkpt lat="42.46396" lon="2.86054">
        <ele>304</ele>
        <time>2024-09-22T08:27:34Z</time>
      </trkpt>
      <trkpt lat="42.46397" lon="2.86059">
        <ele>305</ele>
        <time>2024-09-22T08:27:36Z</time>
      </trkpt>
      <trkpt lat="42.46398" lon="2.86063">
        <ele>305</ele>
        <time>2024-09-22T08:27:38Z</time>
      </trkpt>
      <trkpt lat="42.464" lon="2.86066">
        <ele>305</ele>
        <time>2024-09-22T08:27:40Z</time>
      </trkpt>
      <trkpt lat="42.46401" lon="2.8607">
        <ele>305</ele>
        <time>2024-09-22T08:27:42Z</time>
      </trkpt>
      <trkpt lat="42.46402" lon="2.86073">
        <ele>304</ele>
        <time>2024-09-22T08:27:45Z</time>
      </trkpt>
      <trkpt lat="42.46404" lon="2.86076">
        <ele>305</ele>
        <time>2024-09-22T08:27:47Z</time>
      </trkpt>
      <trkpt lat="42.46406" lon="2.8608">
        <ele>303</ele>
        <time>2024-09-22T08:27:50Z</time>
      </trkpt>
      <trkpt lat="42.46408" lon="2.86083">
        <ele>304</ele>
        <time>2024-09-22T08:27:52Z</time>
      </trkpt>
      <trkpt lat="42.4641" lon="2.86087">
        <ele>304</ele>
        <time>2024-09-22T08:27:55Z</time>
      </trkpt>
      <trkpt lat="42.46412" lon="2.8609">
        <ele>304</ele>
        <time>2024-09-22T08:27:57Z</time>
      </trkpt>
      <trkpt lat="42.46414" lon="2.86093">
        <ele>303</ele>
        <time>2024-09-22T08:28:00Z</time>
      </trkpt>
      <trkpt lat="42.46417" lon="2.86096">
        <ele>302</ele>
        <time>2024-09-22T08:28:03Z</time>
      </trkpt>
      <trkpt lat="42.46419" lon="2.86099">
        <ele>301</ele>
        <time>2024-09-22T08:28:06Z</time>
      </trkpt>
      <trkpt lat="42.46421" lon="2.86102">
        <ele>301</ele>
        <time>2024-09-22T08:28:08Z</time>
      </trkpt>
      <trkpt lat="42.46422" lon="2.86106">
        <ele>302</ele>
        <time>2024-09-22T08:28:10Z</time>
      </trkpt>
      <trkpt lat="42.46423" lon="2.8611">
        <ele>303</ele>
        <time>2024-09-22T08:28:13Z</time>
      </trkpt>
      <trkpt lat="42.46425" lon="2.86115">
        <ele>305</ele>
        <time>2024-09-22T08:28:15Z</time>
      </trkpt>
      <trkpt lat="42.46426" lon="2.86119">
        <ele>304</ele>
        <time>2024-09-22T08:28:18Z</time>
      </trkpt>
      <trkpt lat="42.46428" lon="2.86124">
        <ele>303</ele>
        <time>2024-09-22T08:28:21Z</time>
      </trkpt>
      <trkpt lat="42.46429" lon="2.86128">
        <ele>306</ele>
        <time>2024-09-22T08:28:24Z</time>
      </trkpt>
      <trkpt lat="42.46431" lon="2.86132">
        <ele>304</ele>
        <time>2024-09-22T08:28:27Z</time>
      </trkpt>
      <trkpt lat="42.46432" lon="2.86136">
        <ele>304</ele>
        <time>2024-09-22T08:28:29Z</time>
      </trkpt>
      <trkpt lat="42.46433" lon="2.8614">
        <ele>303</ele>
        <time>2024-09-22T08:28:33Z</time>
      </trkpt>
      <trkpt lat="42.46435" lon="2.86145">
        <ele>303</ele>
        <time>2024-09-22T08:28:36Z</time>
      </trkpt>
      <trkpt lat="42.46436" lon="2.86149">
        <ele>304</ele>
        <time>2024-09-22T08:28:39Z</time>
      </trkpt>
      <trkpt lat="42.46437" lon="2.86154">
        <ele>304</ele>
        <time>2024-09-22T08:28:42Z</time>
      </trkpt>
      <trkpt lat="42.46439" lon="2.86157">
        <ele>304</ele>
        <time>2024-09-22T08:28:46Z</time>
      </trkpt>
      <trkpt lat="42.4644" lon="2.86162">
        <ele>303</ele>
        <time>2024-09-22T08:28:49Z</time>
      </trkpt>
      <trkpt lat="42.46442" lon="2.86167">
        <ele>303</ele>
        <time>2024-09-22T08:28:52Z</time>
      </trkpt>
      <trkpt lat="42.46442" lon="2.86171">
        <ele>303</ele>
        <time>2024-09-22T08:28:54Z</time>
      </trkpt>
      <trkpt lat="42.46443" lon="2.86176">
        <ele>303</ele>
        <time>2024-09-22T08:28:56Z</time>
      </trkpt>
      <trkpt lat="42.46444" lon="2.8618">
        <ele>304</ele>
        <time>2024-09-22T08:28:58Z</time>
      </trkpt>
      <trkpt lat="42.46444" lon="2.86184">
        <ele>304</ele>
        <time>2024-09-22T08:29:00Z</time>
      </trkpt>
      <trkpt lat="42.46445" lon="2.86189">
        <ele>305</ele>
        <time>2024-09-22T08:29:03Z</time>
      </trkpt>
      <trkpt lat="42.46446" lon="2.86193">
        <ele>305</ele>
        <time>2024-09-22T08:29:05Z</time>
      </trkpt>
      <trkpt lat="42.46446" lon="2.86197">
        <ele>304</ele>
        <time>2024-09-22T08:29:08Z</time>
      </trkpt>
      <trkpt lat="42.46445" lon="2.86201">
        <ele>303</ele>
        <time>2024-09-22T08:29:11Z</time>
      </trkpt>
      <trkpt lat="42.46443" lon="2.86205">
        <ele>304</ele>
        <time>2024-09-22T08:29:13Z</time>
      </trkpt>
      <trkpt lat="42.46442" lon="2.86208">
        <ele>304</ele>
        <time>2024-09-22T08:29:15Z</time>
      </trkpt>
      <trkpt lat="42.46442" lon="2.86213">
        <ele>304</ele>
        <time>2024-09-22T08:29:18Z</time>
      </trkpt>
      <trkpt lat="42.46443" lon="2.86217">
        <ele>303</ele>
        <time>2024-09-22T08:29:22Z</time>
      </trkpt>
      <trkpt lat="42.46443" lon="2.86222">
        <ele>302</ele>
        <time>2024-09-22T08:29:25Z</time>
      </trkpt>
      <trkpt lat="42.46444" lon="2.86226">
        <ele>302</ele>
        <time>2024-09-22T08:29:28Z</time>
      </trkpt>
      <trkpt lat="42.46445" lon="2.86231">
        <ele>301</ele>
        <time>2024-09-22T08:29:35Z</time>
      </trkpt>
      <trkpt lat="42.46447" lon="2.86234">
        <ele>299</ele>
        <time>2024-09-22T08:29:38Z</time>
      </trkpt>
      <trkpt lat="42.46448" lon="2.86238">
        <ele>298</ele>
        <time>2024-09-22T08:29:44Z</time>
      </trkpt>
      <trkpt lat="42.4645" lon="2.86243">
        <ele>298</ele>
        <time>2024-09-22T08:29:47Z</time>
      </trkpt>
      <trkpt lat="42.46451" lon="2.86247">
        <ele>297</ele>
        <time>2024-09-22T08:29:51Z</time>
      </trkpt>
      <trkpt lat="42.46451" lon="2.86251">
        <ele>297</ele>
        <time>2024-09-22T08:29:53Z</time>
      </trkpt>
      <trkpt lat="42.46452" lon="2.86256">
        <ele>294</ele>
        <time>2024-09-22T08:29:59Z</time>
      </trkpt>
      <trkpt lat="42.46452" lon="2.8626">
        <ele>292</ele>
        <time>2024-09-22T08:30:03Z</time>
      </trkpt>
      <trkpt lat="42.46452" lon="2.86263">
        <ele>290</ele>
        <time>2024-09-22T08:30:09Z</time>
      </trkpt>
      <trkpt lat="42.46453" lon="2.86268">
        <ele>290</ele>
        <time>2024-09-22T08:30:12Z</time>
      </trkpt>
      <trkpt lat="42.46453" lon="2.86272">
        <ele>290</ele>
        <time>2024-09-22T08:30:15Z</time>
      </trkpt>
      <trkpt lat="42.46453" lon="2.86276">
        <ele>289</ele>
        <time>2024-09-22T08:30:18Z</time>
      </trkpt>
      <trkpt lat="42.46453" lon="2.8628">
        <ele>288</ele>
        <time>2024-09-22T08:30:21Z</time>
      </trkpt>
      <trkpt lat="42.46453" lon="2.86284">
        <ele>288</ele>
        <time>2024-09-22T08:30:23Z</time>
      </trkpt>
      <trkpt lat="42.46453" lon="2.86288">
        <ele>287</ele>
        <time>2024-09-22T08:30:25Z</time>
      </trkpt>
      <trkpt lat="42.46454" lon="2.86292">
        <ele>288</ele>
        <time>2024-09-22T08:30:27Z</time>
      </trkpt>
      <trkpt lat="42.46455" lon="2.86296">
        <ele>287</ele>
        <time>2024-09-22T08:30:29Z</time>
      </trkpt>
      <trkpt lat="42.46456" lon="2.86299">
        <ele>286</ele>
        <time>2024-09-22T08:30:31Z</time>
      </trkpt>
      <trkpt lat="42.46457" lon="2.86303">
        <ele>286</ele>
        <time>2024-09-22T08:30:33Z</time>
      </trkpt>
      <trkpt lat="42.46457" lon="2.86307">
        <ele>288</ele>
        <time>2024-09-22T08:30:36Z</time>
      </trkpt>
      <trkpt lat="42.46455" lon="2.8631">
        <ele>289</ele>
        <time>2024-09-22T08:30:41Z</time>
      </trkpt>
      <trkpt lat="42.46453" lon="2.86311">
        <ele>290</ele>
        <time>2024-09-22T08:31:23Z</time>
      </trkpt>
      <trkpt lat="42.4645" lon="2.8631">
        <ele>291</ele>
        <time>2024-09-22T08:31:27Z</time>
      </trkpt>
      <trkpt lat="42.46446" lon="2.86308">
        <ele>290</ele>
        <time>2024-09-22T08:31:31Z</time>
      </trkpt>
      <trkpt lat="42.46443" lon="2.86307">
        <ele>290</ele>
        <time>2024-09-22T08:31:33Z</time>
      </trkpt>
      <trkpt lat="42.4644" lon="2.86306">
        <ele>289</ele>
        <time>2024-09-22T08:31:35Z</time>
      </trkpt>
      <trkpt lat="42.46437" lon="2.86306">
        <ele>289</ele>
        <time>2024-09-22T08:31:37Z</time>
      </trkpt>
      <trkpt lat="42.46434" lon="2.86306">
        <ele>289</ele>
        <time>2024-09-22T08:31:40Z</time>
      </trkpt>
      <trkpt lat="42.4643" lon="2.86306">
        <ele>290</ele>
        <time>2024-09-22T08:31:41Z</time>
      </trkpt>
      <trkpt lat="42.46427" lon="2.86306">
        <ele>288</ele>
        <time>2024-09-22T08:31:44Z</time>
      </trkpt>
      <trkpt lat="42.46424" lon="2.86306">
        <ele>289</ele>
        <time>2024-09-22T08:31:46Z</time>
      </trkpt>
      <trkpt lat="42.46421" lon="2.86308">
        <ele>289</ele>
        <time>2024-09-22T08:31:48Z</time>
      </trkpt>
      <trkpt lat="42.46418" lon="2.86308">
        <ele>288</ele>
        <time>2024-09-22T08:31:50Z</time>
      </trkpt>
      <trkpt lat="42.46415" lon="2.86308">
        <ele>288</ele>
        <time>2024-09-22T08:31:54Z</time>
      </trkpt>
      <trkpt lat="42.46411" lon="2.86309">
        <ele>288</ele>
        <time>2024-09-22T08:31:57Z</time>
      </trkpt>
      <trkpt lat="42.46408" lon="2.8631">
        <ele>286</ele>
        <time>2024-09-22T08:32:00Z</time>
      </trkpt>
      <trkpt lat="42.46404" lon="2.86311">
        <ele>285</ele>
        <time>2024-09-22T08:32:02Z</time>
      </trkpt>
      <trkpt lat="42.46401" lon="2.86312">
        <ele>285</ele>
        <time>2024-09-22T08:32:05Z</time>
      </trkpt>
      <trkpt lat="42.46398" lon="2.86314">
        <ele>284</ele>
        <time>2024-09-22T08:32:07Z</time>
      </trkpt>
      <trkpt lat="42.46395" lon="2.86316">
        <ele>286</ele>
        <time>2024-09-22T08:32:10Z</time>
      </trkpt>
      <trkpt lat="42.46392" lon="2.86316">
        <ele>285</ele>
        <time>2024-09-22T08:32:12Z</time>
      </trkpt>
      <trkpt lat="42.46389" lon="2.86316">
        <ele>285</ele>
        <time>2024-09-22T08:32:15Z</time>
      </trkpt>
      <trkpt lat="42.46385" lon="2.86317">
        <ele>285</ele>
        <time>2024-09-22T08:32:18Z</time>
      </trkpt>
      <trkpt lat="42.46382" lon="2.86319">
        <ele>284</ele>
        <time>2024-09-22T08:32:21Z</time>
      </trkpt>
      <trkpt lat="42.46379" lon="2.8632">
        <ele>281</ele>
        <time>2024-09-22T08:32:39Z</time>
      </trkpt>
      <trkpt lat="42.46376" lon="2.8632">
        <ele>279</ele>
        <time>2024-09-22T08:32:42Z</time>
      </trkpt>
      <trkpt lat="42.46373" lon="2.86321">
        <ele>280</ele>
        <time>2024-09-22T08:32:45Z</time>
      </trkpt>
      <trkpt lat="42.4637" lon="2.86321">
        <ele>279</ele>
        <time>2024-09-22T08:32:48Z</time>
      </trkpt>
      <trkpt lat="42.46367" lon="2.86321">
        <ele>278</ele>
        <time>2024-09-22T08:32:51Z</time>
      </trkpt>
      <trkpt lat="42.46364" lon="2.86321">
        <ele>278</ele>
        <time>2024-09-22T08:32:53Z</time>
      </trkpt>
      <trkpt lat="42.46361" lon="2.86322">
        <ele>277</ele>
        <time>2024-09-22T08:32:56Z</time>
      </trkpt>
      <trkpt lat="42.46359" lon="2.86325">
        <ele>278</ele>
        <time>2024-09-22T08:32:59Z</time>
      </trkpt>
      <trkpt lat="42.46357" lon="2.86329">
        <ele>282</ele>
        <time>2024-09-22T08:33:08Z</time>
      </trkpt>
      <trkpt lat="42.46356" lon="2.86334">
        <ele>284</ele>
        <time>2024-09-22T08:33:11Z</time>
      </trkpt>
      <trkpt lat="42.46355" lon="2.86338">
        <ele>286</ele>
        <time>2024-09-22T08:33:13Z</time>
      </trkpt>
      <trkpt lat="42.46354" lon="2.86344">
        <ele>289</ele>
        <time>2024-09-22T08:33:22Z</time>
      </trkpt>
      <trkpt lat="42.46351" lon="2.86346">
        <ele>288</ele>
        <time>2024-09-22T08:33:30Z</time>
      </trkpt>
      <trkpt lat="42.4635" lon="2.86345">
        <ele>287</ele>
        <time>2024-09-22T08:34:09Z</time>
      </trkpt>
      <trkpt lat="42.46352" lon="2.86345">
        <ele>286</ele>
        <time>2024-09-22T08:34:18Z</time>
      </trkpt>
      <trkpt lat="42.46355" lon="2.86345">
        <ele>287</ele>
        <time>2024-09-22T08:34:23Z</time>
      </trkpt>
      <trkpt lat="42.46358" lon="2.86344">
        <ele>285</ele>
        <time>2024-09-22T08:34:26Z</time>
      </trkpt>
      <trkpt lat="42.46362" lon="2.86342">
        <ele>285</ele>
        <time>2024-09-22T08:34:28Z</time>
      </trkpt>
      <trkpt lat="42.46364" lon="2.86338">
        <ele>286</ele>
        <time>2024-09-22T08:34:34Z</time>
      </trkpt>
      <trkpt lat="42.46366" lon="2.86335">
        <ele>286</ele>
        <time>2024-09-22T08:34:36Z</time>
      </trkpt>
      <trkpt lat="42.46369" lon="2.86333">
        <ele>285</ele>
        <time>2024-09-22T08:34:38Z</time>
      </trkpt>
      <trkpt lat="42.46372" lon="2.86331">
        <ele>285</ele>
        <time>2024-09-22T08:34:42Z</time>
      </trkpt>
      <trkpt lat="42.46374" lon="2.86328">
        <ele>285</ele>
        <time>2024-09-22T08:34:44Z</time>
      </trkpt>
      <trkpt lat="42.46375" lon="2.86324">
        <ele>285</ele>
        <time>2024-09-22T08:34:50Z</time>
      </trkpt>
      <trkpt lat="42.46374" lon="2.8632">
        <ele>284</ele>
        <time>2024-09-22T08:34:58Z</time>
      </trkpt>
      <trkpt lat="42.46375" lon="2.86321">
        <ele>284</ele>
        <time>2024-09-22T08:35:09Z</time>
      </trkpt>
      <trkpt lat="42.46375" lon="2.86324">
        <ele>283</ele>
        <time>2024-09-22T08:35:13Z</time>
      </trkpt>
      <trkpt lat="42.46375" lon="2.86323">
        <ele>283</ele>
        <time>2024-09-22T08:35:22Z</time>
      </trkpt>
      <trkpt lat="42.46375" lon="2.8632">
        <ele>281</ele>
        <time>2024-09-22T08:35:41Z</time>
      </trkpt>
      <trkpt lat="42.46375" lon="2.86321">
        <ele>282</ele>
        <time>2024-09-22T08:35:55Z</time>
      </trkpt>
      <trkpt lat="42.46374" lon="2.86324">
        <ele>281</ele>
        <time>2024-09-22T08:36:00Z</time>
      </trkpt>
      <trkpt lat="42.46375" lon="2.86333">
        <ele>281</ele>
        <time>2024-09-22T08:36:06Z</time>
      </trkpt>
      <trkpt lat="42.46375" lon="2.86341">
        <ele>281</ele>
        <time>2024-09-22T08:36:07Z</time>
      </trkpt>
      <trkpt lat="42.46376" lon="2.86346">
        <ele>281</ele>
        <time>2024-09-22T08:36:08Z</time>
      </trkpt>
      <trkpt lat="42.46378" lon="2.8635">
        <ele>280</ele>
        <time>2024-09-22T08:36:11Z</time>
      </trkpt>
      <trkpt lat="42.46379" lon="2.86348">
        <ele>280</ele>
        <time>2024-09-22T08:36:16Z</time>
      </trkpt>
      <trkpt lat="42.46378" lon="2.86351">
        <ele>281</ele>
        <time>2024-09-22T08:36:20Z</time>
      </trkpt>
      <trkpt lat="42.46379" lon="2.8635">
        <ele>281</ele>
        <time>2024-09-22T08:36:21Z</time>
      </trkpt>
      <trkpt lat="42.4638" lon="2.86347">
        <ele>282</ele>
        <time>2024-09-22T08:36:24Z</time>
      </trkpt>
      <trkpt lat="42.4638" lon="2.86344">
        <ele>282</ele>
        <time>2024-09-22T08:36:28Z</time>
      </trkpt>
      <trkpt lat="42.46381" lon="2.86345">
        <ele>282</ele>
        <time>2024-09-22T08:36:30Z</time>
      </trkpt>
      <trkpt lat="42.46381" lon="2.86343">
        <ele>283</ele>
        <time>2024-09-22T08:36:34Z</time>
      </trkpt>
      <trkpt lat="42.46379" lon="2.86341">
        <ele>284</ele>
        <time>2024-09-22T08:36:37Z</time>
      </trkpt>
      <trkpt lat="42.46377" lon="2.86342">
        <ele>283</ele>
        <time>2024-09-22T08:36:38Z</time>
      </trkpt>
      <trkpt lat="42.46376" lon="2.86339">
        <ele>283</ele>
        <time>2024-09-22T08:36:39Z</time>
      </trkpt>
      <trkpt lat="42.46376" lon="2.86335">
        <ele>281</ele>
        <time>2024-09-22T08:36:43Z</time>
      </trkpt>
      <trkpt lat="42.46375" lon="2.86328">
        <ele>278</ele>
        <time>2024-09-22T08:36:54Z</time>
      </trkpt>
      <trkpt lat="42.46375" lon="2.86323">
        <ele>278</ele>
        <time>2024-09-22T08:36:57Z</time>
      </trkpt>
      <trkpt lat="42.46374" lon="2.86319">
        <ele>279</ele>
        <time>2024-09-22T08:37:01Z</time>
      </trkpt>
      <trkpt lat="42.46376" lon="2.86322">
        <ele>279</ele>
        <time>2024-09-22T08:37:13Z</time>
      </trkpt>
      <trkpt lat="42.46376" lon="2.86327">
        <ele>281</ele>
        <time>2024-09-22T08:37:14Z</time>
      </trkpt>
      <trkpt lat="42.46376" lon="2.86333">
        <ele>281</ele>
        <time>2024-09-22T08:37:15Z</time>
      </trkpt>
      <trkpt lat="42.46376" lon="2.8634">
        <ele>281</ele>
        <time>2024-09-22T08:37:16Z</time>
      </trkpt>
      <trkpt lat="42.46376" lon="2.86345">
        <ele>281</ele>
        <time>2024-09-22T08:37:17Z</time>
      </trkpt>
      <trkpt lat="42.46377" lon="2.8635">
        <ele>281</ele>
        <time>2024-09-22T08:37:19Z</time>
      </trkpt>
      <trkpt lat="42.46379" lon="2.86351">
        <ele>280</ele>
        <time>2024-09-22T08:37:36Z</time>
      </trkpt>
      <trkpt lat="42.4638" lon="2.86353">
        <ele>279</ele>
        <time>2024-09-22T08:37:45Z</time>
      </trkpt>
      <trkpt lat="42.46382" lon="2.86351">
        <ele>279</ele>
        <time>2024-09-22T08:37:47Z</time>
      </trkpt>
      <trkpt lat="42.46382" lon="2.86347">
        <ele>279</ele>
        <time>2024-09-22T08:37:48Z</time>
      </trkpt>
      <trkpt lat="42.4638" lon="2.86348">
        <ele>279</ele>
        <time>2024-09-22T08:37:51Z</time>
      </trkpt>
      <trkpt lat="42.46379" lon="2.86351">
        <ele>278</ele>
        <time>2024-09-22T08:37:52Z</time>
      </trkpt>
      <trkpt lat="42.46376" lon="2.86352">
        <ele>279</ele>
        <time>2024-09-22T08:37:56Z</time>
      </trkpt>
      <trkpt lat="42.46374" lon="2.86349">
        <ele>280</ele>
        <time>2024-09-22T08:37:59Z</time>
      </trkpt>
      <trkpt lat="42.46374" lon="2.86347">
        <ele>280</ele>
        <time>2024-09-22T08:38:04Z</time>
      </trkpt>
      <trkpt lat="42.46376" lon="2.86344">
        <ele>280</ele>
        <time>2024-09-22T08:38:05Z</time>
      </trkpt>
      <trkpt lat="42.46378" lon="2.86344">
        <ele>280</ele>
        <time>2024-09-22T08:38:06Z</time>
      </trkpt>
      <trkpt lat="42.4638" lon="2.86345">
        <ele>280</ele>
        <time>2024-09-22T08:38:11Z</time>
      </trkpt>
      <trkpt lat="42.46381" lon="2.86344">
        <ele>280</ele>
        <time>2024-09-22T08:38:30Z</time>
      </trkpt>
      <trkpt lat="42.46378" lon="2.86356">
        <ele>279</ele>
        <time>2024-09-22T08:38:50Z</time>
      </trkpt>
      <trkpt lat="42.46378" lon="2.86358">
        <ele>279</ele>
        <time>2024-09-22T08:39:04Z</time>
      </trkpt>
      <trkpt lat="42.46379" lon="2.86357">
        <ele>279</ele>
        <time>2024-09-22T08:39:06Z</time>
      </trkpt>
      <trkpt lat="42.4638" lon="2.86353">
        <ele>278</ele>
        <time>2024-09-22T08:39:21Z</time>
      </trkpt>
      <trkpt lat="42.46381" lon="2.86352">
        <ele>278</ele>
        <time>2024-09-22T08:39:24Z</time>
      </trkpt>
      <trkpt lat="42.46383" lon="2.86351">
        <ele>278</ele>
        <time>2024-09-22T08:39:32Z</time>
      </trkpt>
      <trkpt lat="42.46379" lon="2.8635">
        <ele>278</ele>
        <time>2024-09-22T08:40:10Z</time>
      </trkpt>
      <trkpt lat="42.46379" lon="2.86352">
        <ele>278</ele>
        <time>2024-09-22T08:40:15Z</time>
      </trkpt>
      <trkpt lat="42.46378" lon="2.86348">
        <ele>278</ele>
        <time>2024-09-22T08:40:19Z</time>
      </trkpt>
      <trkpt lat="42.46376" lon="2.86344">
        <ele>279</ele>
        <time>2024-09-22T08:40:21Z</time>
      </trkpt>
      <trkpt lat="42.46374" lon="2.86338">
        <ele>280</ele>
        <time>2024-09-22T08:40:22Z</time>
      </trkpt>
      <trkpt lat="42.46375" lon="2.86333">
        <ele>281</ele>
        <time>2024-09-22T08:40:22Z</time>
      </trkpt>
      <trkpt lat="42.46374" lon="2.86331">
        <ele>282</ele>
        <time>2024-09-22T08:40:24Z</time>
      </trkpt>
      <trkpt lat="42.46373" lon="2.86327">
        <ele>282</ele>
        <time>2024-09-22T08:40:26Z</time>
      </trkpt>
      <trkpt lat="42.46374" lon="2.86326">
        <ele>282</ele>
        <time>2024-09-22T08:40:28Z</time>
      </trkpt>
      <trkpt lat="42.46375" lon="2.86328">
        <ele>282</ele>
        <time>2024-09-22T08:40:36Z</time>
      </trkpt>
      <trkpt lat="42.46375" lon="2.86324">
        <ele>282</ele>
        <time>2024-09-22T08:40:39Z</time>
      </trkpt>
      <trkpt lat="42.46374" lon="2.8632">
        <ele>281</ele>
        <time>2024-09-22T08:41:08Z</time>
      </trkpt>
      <trkpt lat="42.46374" lon="2.86321">
        <ele>281</ele>
        <time>2024-09-22T08:41:12Z</time>
      </trkpt>
      <trkpt lat="42.46377" lon="2.86326">
        <ele>281</ele>
        <time>2024-09-22T08:41:15Z</time>
      </trkpt>
      <trkpt lat="42.46378" lon="2.86332">
        <ele>281</ele>
        <time>2024-09-22T08:41:16Z</time>
      </trkpt>
      <trkpt lat="42.46378" lon="2.86337">
        <ele>281</ele>
        <time>2024-09-22T08:41:17Z</time>
      </trkpt>
      <trkpt lat="42.46378" lon="2.86341">
        <ele>281</ele>
        <time>2024-09-22T08:41:18Z</time>
      </trkpt>
      <trkpt lat="42.46379" lon="2.86345">
        <ele>281</ele>
        <time>2024-09-22T08:41:21Z</time>
      </trkpt>
      <trkpt lat="42.46379" lon="2.86343">
        <ele>281</ele>
        <time>2024-09-22T08:41:25Z</time>
      </trkpt>
      <trkpt lat="42.4638" lon="2.86345">
        <ele>280</ele>
        <time>2024-09-22T08:41:27Z</time>
      </trkpt>
      <trkpt lat="42.46379" lon="2.86348">
        <ele>280</ele>
        <time>2024-09-22T08:41:29Z</time>
      </trkpt>
      <trkpt lat="42.46379" lon="2.86352">
        <ele>279</ele>
        <time>2024-09-22T08:41:31Z</time>
      </trkpt>
      <trkpt lat="42.46377" lon="2.86358">
        <ele>280</ele>
        <time>2024-09-22T09:07:00Z</time>
      </trkpt>
      <trkpt lat="42.46378" lon="2.86358">
        <ele>279</ele>
        <time>2024-09-22T09:07:03Z</time>
      </trkpt>
      <trkpt lat="42.4638" lon="2.86356">
        <ele>279</ele>
        <time>2024-09-22T09:07:04Z</time>
      </trkpt>
      <trkpt lat="42.4638" lon="2.86352">
        <ele>279</ele>
        <time>2024-09-22T09:07:05Z</time>
      </trkpt>
      <trkpt lat="42.46379" lon="2.86348">
        <ele>279</ele>
        <time>2024-09-22T09:07:09Z</time>
      </trkpt>
      <trkpt lat="42.46379" lon="2.86343">
        <ele>279</ele>
        <time>2024-09-22T09:07:14Z</time>
      </trkpt>
      <trkpt lat="42.46378" lon="2.86339">
        <ele>281</ele>
        <time>2024-09-22T09:07:15Z</time>
      </trkpt>
      <trkpt lat="42.46379" lon="2.86335">
        <ele>282</ele>
        <time>2024-09-22T09:07:16Z</time>
      </trkpt>
      <trkpt lat="42.46379" lon="2.8633">
        <ele>286</ele>
        <time>2024-09-22T09:07:23Z</time>
      </trkpt>
      <trkpt lat="42.46377" lon="2.86326">
        <ele>286</ele>
        <time>2024-09-22T09:07:37Z</time>
      </trkpt>
      <trkpt lat="42.46378" lon="2.86323">
        <ele>289</ele>
        <time>2024-09-22T09:07:54Z</time>
      </trkpt>
      <trkpt lat="42.46379" lon="2.86325">
        <ele>288</ele>
        <time>2024-09-22T09:08:02Z</time>
      </trkpt>
      <trkpt lat="42.46378" lon="2.86323">
        <ele>288</ele>
        <time>2024-09-22T09:08:12Z</time>
      </trkpt>
      <trkpt lat="42.46379" lon="2.86327">
        <ele>291</ele>
        <time>2024-09-22T09:08:21Z</time>
      </trkpt>
      <trkpt lat="42.46379" lon="2.86325">
        <ele>290</ele>
        <time>2024-09-22T09:08:32Z</time>
      </trkpt>
      <trkpt lat="42.46378" lon="2.86326">
        <ele>289</ele>
        <time>2024-09-22T09:08:37Z</time>
      </trkpt>
      <trkpt lat="42.46377" lon="2.86324">
        <ele>289</ele>
        <time>2024-09-22T09:08:40Z</time>
      </trkpt>
      <trkpt lat="42.46373" lon="2.86322">
        <ele>285</ele>
        <time>2024-09-22T09:08:51Z</time>
      </trkpt>
      <trkpt lat="42.46374" lon="2.86323">
        <ele>285</ele>
        <time>2024-09-22T09:08:55Z</time>
      </trkpt>
      <trkpt lat="42.46374" lon="2.86328">
        <ele>285</ele>
        <time>2024-09-22T09:08:57Z</time>
      </trkpt>
      <trkpt lat="42.46374" lon="2.86333">
        <ele>286</ele>
        <time>2024-09-22T09:09:00Z</time>
      </trkpt>
      <trkpt lat="42.46372" lon="2.86333">
        <ele>286</ele>
        <time>2024-09-22T09:09:03Z</time>
      </trkpt>
      <trkpt lat="42.46374" lon="2.86331">
        <ele>285</ele>
        <time>2024-09-22T09:09:06Z</time>
      </trkpt>
      <trkpt lat="42.46374" lon="2.86328">
        <ele>284</ele>
        <time>2024-09-22T09:09:09Z</time>
      </trkpt>
      <trkpt lat="42.46377" lon="2.86329">
        <ele>282</ele>
        <time>2024-09-22T09:09:20Z</time>
      </trkpt>
      <trkpt lat="42.46378" lon="2.86332">
        <ele>281</ele>
        <time>2024-09-22T09:09:21Z</time>
      </trkpt>
      <trkpt lat="42.46379" lon="2.86339">
        <ele>281</ele>
        <time>2024-09-22T09:09:23Z</time>
      </trkpt>
      <trkpt lat="42.4638" lon="2.86344">
        <ele>280</ele>
        <time>2024-09-22T09:09:24Z</time>
      </trkpt>
      <trkpt lat="42.4638" lon="2.86349">
        <ele>283</ele>
        <time>2024-09-22T09:09:26Z</time>
      </trkpt>
      <trkpt lat="42.46379" lon="2.86353">
        <ele>282</ele>
        <time>2024-09-22T09:09:27Z</time>
      </trkpt>
      <trkpt lat="42.46378" lon="2.86358">
        <ele>281</ele>
        <time>2024-09-22T09:09:29Z</time>
      </trkpt>
      <trkpt lat="42.46378" lon="2.86357">
        <ele>279</ele>
        <time>2024-09-22T09:09:40Z</time>
      </trkpt>
      <trkpt lat="42.46377" lon="2.86353">
        <ele>279</ele>
        <time>2024-09-22T09:09:41Z</time>
      </trkpt>
      <trkpt lat="42.46374" lon="2.86345">
        <ele>280</ele>
        <time>2024-09-22T09:09:42Z</time>
      </trkpt>
      <trkpt lat="42.46376" lon="2.86336">
        <ele>280</ele>
        <time>2024-09-22T09:09:44Z</time>
      </trkpt>
      <trkpt lat="42.46375" lon="2.86333">
        <ele>280</ele>
        <time>2024-09-22T09:09:45Z</time>
      </trkpt>
      <trkpt lat="42.46373" lon="2.86331">
        <ele>279</ele>
        <time>2024-09-22T09:09:48Z</time>
      </trkpt>
      <trkpt lat="42.46373" lon="2.86333">
        <ele>279</ele>
        <time>2024-09-22T09:09:57Z</time>
      </trkpt>
      <trkpt lat="42.46372" lon="2.86331">
        <ele>279</ele>
        <time>2024-09-22T09:10:07Z</time>
      </trkpt>
      <trkpt lat="42.46375" lon="2.8633">
        <ele>278</ele>
        <time>2024-09-22T09:10:10Z</time>
      </trkpt>
      <trkpt lat="42.46375" lon="2.86326">
        <ele>278</ele>
        <time>2024-09-22T09:10:11Z</time>
      </trkpt>
      <trkpt lat="42.46375" lon="2.86319">
        <ele>278</ele>
        <time>2024-09-22T09:10:21Z</time>
      </trkpt>
      <trkpt lat="42.46373" lon="2.86319">
        <ele>280</ele>
        <time>2024-09-22T09:10:31Z</time>
      </trkpt>
      <trkpt lat="42.46372" lon="2.86316">
        <ele>279</ele>
        <time>2024-09-22T09:10:37Z</time>
      </trkpt>
      <trkpt lat="42.46372" lon="2.86317">
        <ele>279</ele>
        <time>2024-09-22T09:10:43Z</time>
      </trkpt>
      <trkpt lat="42.46373" lon="2.8632">
        <ele>279</ele>
        <time>2024-09-22T09:10:47Z</time>
      </trkpt>
      <trkpt lat="42.46374" lon="2.86318">
        <ele>278</ele>
        <time>2024-09-22T09:11:00Z</time>
      </trkpt>
      <trkpt lat="42.46377" lon="2.86317">
        <ele>281</ele>
        <time>2024-09-22T09:11:03Z</time>
      </trkpt>
      <trkpt lat="42.4638" lon="2.86317">
        <ele>280</ele>
        <time>2024-09-22T09:11:06Z</time>
      </trkpt>
      <trkpt lat="42.46383" lon="2.86317">
        <ele>282</ele>
        <time>2024-09-22T09:11:09Z</time>
      </trkpt>
      <trkpt lat="42.46386" lon="2.86316">
        <ele>285</ele>
        <time>2024-09-22T09:11:12Z</time>
      </trkpt>
      <trkpt lat="42.46389" lon="2.86316">
        <ele>287</ele>
        <time>2024-09-22T09:11:16Z</time>
      </trkpt>
      <trkpt lat="42.46393" lon="2.86314">
        <ele>289</ele>
        <time>2024-09-22T09:11:20Z</time>
      </trkpt>
      <trkpt lat="42.46396" lon="2.86312">
        <ele>288</ele>
        <time>2024-09-22T09:11:22Z</time>
      </trkpt>
      <trkpt lat="42.46399" lon="2.8631">
        <ele>289</ele>
        <time>2024-09-22T09:11:25Z</time>
      </trkpt>
      <trkpt lat="42.46403" lon="2.86309">
        <ele>288</ele>
        <time>2024-09-22T09:11:28Z</time>
      </trkpt>
      <trkpt lat="42.46407" lon="2.86308">
        <ele>291</ele>
        <time>2024-09-22T09:11:31Z</time>
      </trkpt>
      <trkpt lat="42.4641" lon="2.86307">
        <ele>290</ele>
        <time>2024-09-22T09:11:34Z</time>
      </trkpt>
      <trkpt lat="42.46413" lon="2.86306">
        <ele>290</ele>
        <time>2024-09-22T09:11:37Z</time>
      </trkpt>
      <trkpt lat="42.46417" lon="2.86305">
        <ele>298</ele>
        <time>2024-09-22T09:11:41Z</time>
      </trkpt>
      <trkpt lat="42.4642" lon="2.86307">
        <ele>297</ele>
        <time>2024-09-22T09:11:45Z</time>
      </trkpt>
      <trkpt lat="42.46424" lon="2.86308">
        <ele>298</ele>
        <time>2024-09-22T09:11:47Z</time>
      </trkpt>
      <trkpt lat="42.46427" lon="2.86309">
        <ele>296</ele>
        <time>2024-09-22T09:11:49Z</time>
      </trkpt>
      <trkpt lat="42.4643" lon="2.86309">
        <ele>295</ele>
        <time>2024-09-22T09:11:52Z</time>
      </trkpt>
      <trkpt lat="42.46432" lon="2.86308">
        <ele>295</ele>
        <time>2024-09-22T09:11:56Z</time>
      </trkpt>
      <trkpt lat="42.46435" lon="2.86307">
        <ele>297</ele>
        <time>2024-09-22T09:11:58Z</time>
      </trkpt>
      <trkpt lat="42.46437" lon="2.86305">
        <ele>295</ele>
        <time>2024-09-22T09:12:01Z</time>
      </trkpt>
      <trkpt lat="42.46441" lon="2.86304">
        <ele>293</ele>
        <time>2024-09-22T09:12:05Z</time>
      </trkpt>
      <trkpt lat="42.46444" lon="2.86304">
        <ele>292</ele>
        <time>2024-09-22T09:12:09Z</time>
      </trkpt>
      <trkpt lat="42.46447" lon="2.86304">
        <ele>292</ele>
        <time>2024-09-22T09:12:11Z</time>
      </trkpt>
      <trkpt lat="42.4645" lon="2.86305">
        <ele>291</ele>
        <time>2024-09-22T09:12:13Z</time>
      </trkpt>
      <trkpt lat="42.46452" lon="2.86307">
        <ele>293</ele>
        <time>2024-09-22T09:12:14Z</time>
      </trkpt>
      <trkpt lat="42.46455" lon="2.86309">
        <ele>293</ele>
        <time>2024-09-22T09:12:16Z</time>
      </trkpt>
      <trkpt lat="42.46458" lon="2.86309">
        <ele>295</ele>
        <time>2024-09-22T09:12:21Z</time>
      </trkpt>
      <trkpt lat="42.46461" lon="2.86309">
        <ele>295</ele>
        <time>2024-09-22T09:12:24Z</time>
      </trkpt>
      <trkpt lat="42.46464" lon="2.86308">
        <ele>294</ele>
        <time>2024-09-22T09:12:28Z</time>
      </trkpt>
      <trkpt lat="42.46467" lon="2.86309">
        <ele>297</ele>
        <time>2024-09-22T09:12:32Z</time>
      </trkpt>
      <trkpt lat="42.4647" lon="2.8631">
        <ele>297</ele>
        <time>2024-09-22T09:12:34Z</time>
      </trkpt>
      <trkpt lat="42.46473" lon="2.86309">
        <ele>296</ele>
        <time>2024-09-22T09:12:37Z</time>
      </trkpt>
      <trkpt lat="42.46477" lon="2.8631">
        <ele>297</ele>
        <time>2024-09-22T09:12:40Z</time>
      </trkpt>
      <trkpt lat="42.46481" lon="2.8631">
        <ele>299</ele>
        <time>2024-09-22T09:12:43Z</time>
      </trkpt>
      <trkpt lat="42.46484" lon="2.86312">
        <ele>299</ele>
        <time>2024-09-22T09:12:46Z</time>
      </trkpt>
      <trkpt lat="42.46487" lon="2.86314">
        <ele>298</ele>
        <time>2024-09-22T09:12:49Z</time>
      </trkpt>
      <trkpt lat="42.4649" lon="2.86317">
        <ele>297</ele>
        <time>2024-09-22T09:12:52Z</time>
      </trkpt>
      <trkpt lat="42.46494" lon="2.86317">
        <ele>296</ele>
        <time>2024-09-22T09:12:55Z</time>
      </trkpt>
      <trkpt lat="42.46497" lon="2.86318">
        <ele>294</ele>
        <time>2024-09-22T09:12:58Z</time>
      </trkpt>
      <trkpt lat="42.465" lon="2.8632">
        <ele>294</ele>
        <time>2024-09-22T09:13:00Z</time>
      </trkpt>
      <trkpt lat="42.46503" lon="2.86321">
        <ele>293</ele>
        <time>2024-09-22T09:13:03Z</time>
      </trkpt>
      <trkpt lat="42.46507" lon="2.86321">
        <ele>291</ele>
        <time>2024-09-22T09:13:06Z</time>
      </trkpt>
      <trkpt lat="42.4651" lon="2.8632">
        <ele>292</ele>
        <time>2024-09-22T09:13:09Z</time>
      </trkpt>
      <trkpt lat="42.46513" lon="2.8632">
        <ele>290</ele>
        <time>2024-09-22T09:13:11Z</time>
      </trkpt>
      <trkpt lat="42.46516" lon="2.8632">
        <ele>291</ele>
        <time>2024-09-22T09:13:13Z</time>
      </trkpt>
      <trkpt lat="42.46519" lon="2.86321">
        <ele>291</ele>
        <time>2024-09-22T09:13:16Z</time>
      </trkpt>
      <trkpt lat="42.46522" lon="2.8632">
        <ele>292</ele>
        <time>2024-09-22T09:13:17Z</time>
      </trkpt>
      <trkpt lat="42.46525" lon="2.86319">
        <ele>292</ele>
        <time>2024-09-22T09:13:21Z</time>
      </trkpt>
      <trkpt lat="42.46528" lon="2.86319">
        <ele>291</ele>
        <time>2024-09-22T09:13:25Z</time>
      </trkpt>
      <trkpt lat="42.46531" lon="2.86321">
        <ele>291</ele>
        <time>2024-09-22T09:13:27Z</time>
      </trkpt>
      <trkpt lat="42.46534" lon="2.86323">
        <ele>291</ele>
        <time>2024-09-22T09:13:30Z</time>
      </trkpt>
      <trkpt lat="42.46537" lon="2.86323">
        <ele>292</ele>
        <time>2024-09-22T09:13:33Z</time>
      </trkpt>
      <trkpt lat="42.46541" lon="2.86321">
        <ele>294</ele>
        <time>2024-09-22T09:13:36Z</time>
      </trkpt>
      <trkpt lat="42.46545" lon="2.86319">
        <ele>294</ele>
        <time>2024-09-22T09:13:39Z</time>
      </trkpt>
      <trkpt lat="42.46548" lon="2.86319">
        <ele>297</ele>
        <time>2024-09-22T09:13:41Z</time>
      </trkpt>
      <trkpt lat="42.46552" lon="2.86319">
        <ele>299</ele>
        <time>2024-09-22T09:13:46Z</time>
      </trkpt>
      <trkpt lat="42.46556" lon="2.86319">
        <ele>296</ele>
        <time>2024-09-22T09:13:50Z</time>
      </trkpt>
      <trkpt lat="42.46559" lon="2.8632">
        <ele>297</ele>
        <time>2024-09-22T09:13:53Z</time>
      </trkpt>
      <trkpt lat="42.46563" lon="2.8632">
        <ele>296</ele>
        <time>2024-09-22T09:13:55Z</time>
      </trkpt>
      <trkpt lat="42.46566" lon="2.86319">
        <ele>295</ele>
        <time>2024-09-22T09:13:57Z</time>
      </trkpt>
      <trkpt lat="42.46569" lon="2.86318">
        <ele>293</ele>
        <time>2024-09-22T09:14:00Z</time>
      </trkpt>
      <trkpt lat="42.46572" lon="2.86317">
        <ele>293</ele>
        <time>2024-09-22T09:14:03Z</time>
      </trkpt>
      <trkpt lat="42.46575" lon="2.86315">
        <ele>292</ele>
        <time>2024-09-22T09:14:05Z</time>
      </trkpt>
      <trkpt lat="42.46578" lon="2.86313">
        <ele>291</ele>
        <time>2024-09-22T09:14:07Z</time>
      </trkpt>
      <trkpt lat="42.46582" lon="2.86311">
        <ele>289</ele>
        <time>2024-09-22T09:14:10Z</time>
      </trkpt>
      <trkpt lat="42.46584" lon="2.8631">
        <ele>289</ele>
        <time>2024-09-22T09:14:12Z</time>
      </trkpt>
      <trkpt lat="42.46587" lon="2.86309">
        <ele>290</ele>
        <time>2024-09-22T09:14:13Z</time>
      </trkpt>
      <trkpt lat="42.46589" lon="2.86306">
        <ele>290</ele>
        <time>2024-09-22T09:14:15Z</time>
      </trkpt>
      <trkpt lat="42.46591" lon="2.86303">
        <ele>289</ele>
        <time>2024-09-22T09:14:16Z</time>
      </trkpt>
      <trkpt lat="42.46593" lon="2.86301">
        <ele>291</ele>
        <time>2024-09-22T09:14:18Z</time>
      </trkpt>
      <trkpt lat="42.46595" lon="2.86302">
        <ele>291</ele>
        <time>2024-09-22T09:14:20Z</time>
      </trkpt>
      <trkpt lat="42.46598" lon="2.86304">
        <ele>290</ele>
        <time>2024-09-22T09:14:23Z</time>
      </trkpt>
      <trkpt lat="42.46599" lon="2.86307">
        <ele>290</ele>
        <time>2024-09-22T09:14:27Z</time>
      </trkpt>
      <trkpt lat="42.466" lon="2.86311">
        <ele>289</ele>
        <time>2024-09-22T09:14:32Z</time>
      </trkpt>
      <trkpt lat="42.46602" lon="2.86315">
        <ele>287</ele>
        <time>2024-09-22T09:14:42Z</time>
      </trkpt>
      <trkpt lat="42.46605" lon="2.86318">
        <ele>287</ele>
        <time>2024-09-22T09:14:44Z</time>
      </trkpt>
      <trkpt lat="42.46608" lon="2.86326">
        <ele>287</ele>
        <time>2024-09-22T09:14:45Z</time>
      </trkpt>
      <trkpt lat="42.46611" lon="2.86329">
        <ele>287</ele>
        <time>2024-09-22T09:14:47Z</time>
      </trkpt>
      <trkpt lat="42.46614" lon="2.86331">
        <ele>287</ele>
        <time>2024-09-22T09:14:49Z</time>
      </trkpt>
      <trkpt lat="42.46617" lon="2.86331">
        <ele>288</ele>
        <time>2024-09-22T09:14:51Z</time>
      </trkpt>
      <trkpt lat="42.46621" lon="2.86333">
        <ele>287</ele>
        <time>2024-09-22T09:14:53Z</time>
      </trkpt>
      <trkpt lat="42.46624" lon="2.86333">
        <ele>286</ele>
        <time>2024-09-22T09:14:56Z</time>
      </trkpt>
      <trkpt lat="42.46627" lon="2.86334">
        <ele>285</ele>
        <time>2024-09-22T09:14:59Z</time>
      </trkpt>
      <trkpt lat="42.4663" lon="2.86334">
        <ele>286</ele>
        <time>2024-09-22T09:15:01Z</time>
      </trkpt>
      <trkpt lat="42.46634" lon="2.86335">
        <ele>284</ele>
        <time>2024-09-22T09:15:04Z</time>
      </trkpt>
      <trkpt lat="42.46637" lon="2.86335">
        <ele>284</ele>
        <time>2024-09-22T09:15:07Z</time>
      </trkpt>
      <trkpt lat="42.4664" lon="2.86335">
        <ele>284</ele>
        <time>2024-09-22T09:15:10Z</time>
      </trkpt>
      <trkpt lat="42.46644" lon="2.86335">
        <ele>283</ele>
        <time>2024-09-22T09:15:13Z</time>
      </trkpt>
      <trkpt lat="42.46647" lon="2.86335">
        <ele>285</ele>
        <time>2024-09-22T09:15:15Z</time>
      </trkpt>
      <trkpt lat="42.46651" lon="2.86335">
        <ele>284</ele>
        <time>2024-09-22T09:15:18Z</time>
      </trkpt>
      <trkpt lat="42.46654" lon="2.86335">
        <ele>284</ele>
        <time>2024-09-22T09:15:21Z</time>
      </trkpt>
      <trkpt lat="42.46657" lon="2.86335">
        <ele>285</ele>
        <time>2024-09-22T09:15:23Z</time>
      </trkpt>
      <trkpt lat="42.4666" lon="2.86337">
        <ele>285</ele>
        <time>2024-09-22T09:15:26Z</time>
      </trkpt>
      <trkpt lat="42.46663" lon="2.86338">
        <ele>286</ele>
        <time>2024-09-22T09:15:29Z</time>
      </trkpt>
      <trkpt lat="42.46666" lon="2.8634">
        <ele>285</ele>
        <time>2024-09-22T09:15:33Z</time>
      </trkpt>
      <trkpt lat="42.46669" lon="2.86343">
        <ele>284</ele>
        <time>2024-09-22T09:15:36Z</time>
      </trkpt>
      <trkpt lat="42.46672" lon="2.86345">
        <ele>284</ele>
        <time>2024-09-22T09:15:39Z</time>
      </trkpt>
      <trkpt lat="42.46676" lon="2.86348">
        <ele>285</ele>
        <time>2024-09-22T09:15:42Z</time>
      </trkpt>
      <trkpt lat="42.46679" lon="2.8635">
        <ele>286</ele>
        <time>2024-09-22T09:15:45Z</time>
      </trkpt>
      <trkpt lat="42.46682" lon="2.86353">
        <ele>285</ele>
        <time>2024-09-22T09:15:49Z</time>
      </trkpt>
      <trkpt lat="42.46685" lon="2.86357">
        <ele>284</ele>
        <time>2024-09-22T09:15:53Z</time>
      </trkpt>
      <trkpt lat="42.46687" lon="2.86361">
        <ele>284</ele>
        <time>2024-09-22T09:15:56Z</time>
      </trkpt>
      <trkpt lat="42.4669" lon="2.86364">
        <ele>285</ele>
        <time>2024-09-22T09:15:58Z</time>
      </trkpt>
      <trkpt lat="42.46693" lon="2.86367">
        <ele>285</ele>
        <time>2024-09-22T09:16:01Z</time>
      </trkpt>
      <trkpt lat="42.46695" lon="2.8637">
        <ele>285</ele>
        <time>2024-09-22T09:16:04Z</time>
      </trkpt>
      <trkpt lat="42.46696" lon="2.86374">
        <ele>285</ele>
        <time>2024-09-22T09:16:11Z</time>
      </trkpt>
      <trkpt lat="42.46695" lon="2.86379">
        <ele>285</ele>
        <time>2024-09-22T09:16:14Z</time>
      </trkpt>
      <trkpt lat="42.46694" lon="2.86384">
        <ele>285</ele>
        <time>2024-09-22T09:16:17Z</time>
      </trkpt>
      <trkpt lat="42.46693" lon="2.86388">
        <ele>285</ele>
        <time>2024-09-22T09:16:18Z</time>
      </trkpt>
      <trkpt lat="42.46692" lon="2.86393">
        <ele>284</ele>
        <time>2024-09-22T09:16:22Z</time>
      </trkpt>
      <trkpt lat="42.46691" lon="2.86397">
        <ele>284</ele>
        <time>2024-09-22T09:16:25Z</time>
      </trkpt>
      <trkpt lat="42.46689" lon="2.86401">
        <ele>284</ele>
        <time>2024-09-22T09:16:29Z</time>
      </trkpt>
      <trkpt lat="42.46687" lon="2.86406">
        <ele>285</ele>
        <time>2024-09-22T09:16:32Z</time>
      </trkpt>
      <trkpt lat="42.46686" lon="2.86411">
        <ele>285</ele>
        <time>2024-09-22T09:16:35Z</time>
      </trkpt>
      <trkpt lat="42.46685" lon="2.86416">
        <ele>285</ele>
        <time>2024-09-22T09:16:38Z</time>
      </trkpt>
      <trkpt lat="42.46684" lon="2.86421">
        <ele>286</ele>
        <time>2024-09-22T09:16:40Z</time>
      </trkpt>
      <trkpt lat="42.46683" lon="2.86425">
        <ele>286</ele>
        <time>2024-09-22T09:16:42Z</time>
      </trkpt>
      <trkpt lat="42.46683" lon="2.86429">
        <ele>288</ele>
        <time>2024-09-22T09:16:45Z</time>
      </trkpt>
      <trkpt lat="42.46683" lon="2.86433">
        <ele>287</ele>
        <time>2024-09-22T09:16:49Z</time>
      </trkpt>
      <trkpt lat="42.46682" lon="2.86437">
        <ele>287</ele>
        <time>2024-09-22T09:16:52Z</time>
      </trkpt>
      <trkpt lat="42.46681" lon="2.86441">
        <ele>287</ele>
        <time>2024-09-22T09:16:55Z</time>
      </trkpt>
      <trkpt lat="42.46681" lon="2.86446">
        <ele>288</ele>
        <time>2024-09-22T09:16:58Z</time>
      </trkpt>
      <trkpt lat="42.46681" lon="2.86451">
        <ele>288</ele>
        <time>2024-09-22T09:17:01Z</time>
      </trkpt>
      <trkpt lat="42.4668" lon="2.86455">
        <ele>288</ele>
        <time>2024-09-22T09:17:04Z</time>
      </trkpt>
      <trkpt lat="42.4668" lon="2.86459">
        <ele>287</ele>
        <time>2024-09-22T09:17:07Z</time>
      </trkpt>
      <trkpt lat="42.4668" lon="2.86463">
        <ele>288</ele>
        <time>2024-09-22T09:17:10Z</time>
      </trkpt>
      <trkpt lat="42.46679" lon="2.86467">
        <ele>288</ele>
        <time>2024-09-22T09:17:12Z</time>
      </trkpt>
      <trkpt lat="42.46679" lon="2.86471">
        <ele>288</ele>
        <time>2024-09-22T09:17:14Z</time>
      </trkpt>
      <trkpt lat="42.46679" lon="2.86475">
        <ele>287</ele>
        <time>2024-09-22T09:17:17Z</time>
      </trkpt>
      <trkpt lat="42.4668" lon="2.8648">
        <ele>287</ele>
        <time>2024-09-22T09:17:19Z</time>
      </trkpt>
      <trkpt lat="42.46678" lon="2.86483">
        <ele>288</ele>
        <time>2024-09-22T09:17:27Z</time>
      </trkpt>
      <trkpt lat="42.46677" lon="2.86487">
        <ele>288</ele>
        <time>2024-09-22T09:17:29Z</time>
      </trkpt>
      <trkpt lat="42.46677" lon="2.86491">
        <ele>288</ele>
        <time>2024-09-22T09:17:31Z</time>
      </trkpt>
      <trkpt lat="42.46677" lon="2.86495">
        <ele>288</ele>
        <time>2024-09-22T09:17:33Z</time>
      </trkpt>
      <trkpt lat="42.46677" lon="2.86499">
        <ele>289</ele>
        <time>2024-09-22T09:17:37Z</time>
      </trkpt>
      <trkpt lat="42.46675" lon="2.86502">
        <ele>288</ele>
        <time>2024-09-22T09:17:38Z</time>
      </trkpt>
      <trkpt lat="42.46674" lon="2.86507">
        <ele>288</ele>
        <time>2024-09-22T09:17:40Z</time>
      </trkpt>
      <trkpt lat="42.46671" lon="2.86511">
        <ele>288</ele>
        <time>2024-09-22T09:17:42Z</time>
      </trkpt>
      <trkpt lat="42.4667" lon="2.86515">
        <ele>288</ele>
        <time>2024-09-22T09:17:46Z</time>
      </trkpt>
      <trkpt lat="42.46669" lon="2.86519">
        <ele>288</ele>
        <time>2024-09-22T09:17:48Z</time>
      </trkpt>
      <trkpt lat="42.46667" lon="2.86524">
        <ele>289</ele>
        <time>2024-09-22T09:17:50Z</time>
      </trkpt>
      <trkpt lat="42.46665" lon="2.86529">
        <ele>289</ele>
        <time>2024-09-22T09:17:53Z</time>
      </trkpt>
      <trkpt lat="42.46663" lon="2.86531">
        <ele>289</ele>
        <time>2024-09-22T09:17:57Z</time>
      </trkpt>
      <trkpt lat="42.4666" lon="2.86533">
        <ele>288</ele>
        <time>2024-09-22T09:18:03Z</time>
      </trkpt>
      <trkpt lat="42.46658" lon="2.86536">
        <ele>293</ele>
        <time>2024-09-22T09:19:18Z</time>
      </trkpt>
      <trkpt lat="42.4666" lon="2.86535">
        <ele>288</ele>
        <time>2024-09-22T09:19:43Z</time>
      </trkpt>
      <trkpt lat="42.46658" lon="2.86535">
        <ele>289</ele>
        <time>2024-09-22T09:19:51Z</time>
      </trkpt>
      <trkpt lat="42.46657" lon="2.86537">
        <ele>289</ele>
        <time>2024-09-22T09:19:54Z</time>
      </trkpt>
      <trkpt lat="42.46655" lon="2.8654">
        <ele>291</ele>
        <time>2024-09-22T09:19:57Z</time>
      </trkpt>
      <trkpt lat="42.46654" lon="2.86544">
        <ele>291</ele>
        <time>2024-09-22T09:20:03Z</time>
      </trkpt>
      <trkpt lat="42.46652" lon="2.86547">
        <ele>292</ele>
        <time>2024-09-22T09:20:06Z</time>
      </trkpt>
      <trkpt lat="42.46651" lon="2.86552">
        <ele>293</ele>
        <time>2024-09-22T09:20:10Z</time>
      </trkpt>
      <trkpt lat="42.46649" lon="2.86556">
        <ele>294</ele>
        <time>2024-09-22T09:20:15Z</time>
      </trkpt>
      <trkpt lat="42.46648" lon="2.86559">
        <ele>294</ele>
        <time>2024-09-22T09:20:17Z</time>
      </trkpt>
      <trkpt lat="42.46646" lon="2.86563">
        <ele>295</ele>
        <time>2024-09-22T09:20:20Z</time>
      </trkpt>
      <trkpt lat="42.46645" lon="2.86566">
        <ele>295</ele>
        <time>2024-09-22T09:20:25Z</time>
      </trkpt>
      <trkpt lat="42.46645" lon="2.86571">
        <ele>296</ele>
        <time>2024-09-22T09:20:29Z</time>
      </trkpt>
      <trkpt lat="42.46644" lon="2.86574">
        <ele>297</ele>
        <time>2024-09-22T09:20:33Z</time>
      </trkpt>
      <trkpt lat="42.46642" lon="2.86578">
        <ele>297</ele>
        <time>2024-09-22T09:20:36Z</time>
      </trkpt>
      <trkpt lat="42.46641" lon="2.86581">
        <ele>298</ele>
        <time>2024-09-22T09:20:41Z</time>
      </trkpt>
      <trkpt lat="42.46639" lon="2.86585">
        <ele>299</ele>
        <time>2024-09-22T09:20:45Z</time>
      </trkpt>
      <trkpt lat="42.46637" lon="2.86588">
        <ele>298</ele>
        <time>2024-09-22T09:20:49Z</time>
      </trkpt>
      <trkpt lat="42.46635" lon="2.86591">
        <ele>300</ele>
        <time>2024-09-22T09:20:52Z</time>
      </trkpt>
      <trkpt lat="42.46632" lon="2.86593">
        <ele>300</ele>
        <time>2024-09-22T09:20:56Z</time>
      </trkpt>
      <trkpt lat="42.46629" lon="2.86595">
        <ele>301</ele>
        <time>2024-09-22T09:20:59Z</time>
      </trkpt>
      <trkpt lat="42.46626" lon="2.86597">
        <ele>302</ele>
        <time>2024-09-22T09:21:02Z</time>
      </trkpt>
      <trkpt lat="42.46624" lon="2.86599">
        <ele>303</ele>
        <time>2024-09-22T09:21:06Z</time>
      </trkpt>
      <trkpt lat="42.46621" lon="2.86601">
        <ele>303</ele>
        <time>2024-09-22T09:21:10Z</time>
      </trkpt>
      <trkpt lat="42.46619" lon="2.86604">
        <ele>303</ele>
        <time>2024-09-22T09:21:13Z</time>
      </trkpt>
      <trkpt lat="42.46617" lon="2.86609">
        <ele>304</ele>
        <time>2024-09-22T09:21:17Z</time>
      </trkpt>
      <trkpt lat="42.46617" lon="2.86614">
        <ele>304</ele>
        <time>2024-09-22T09:21:20Z</time>
      </trkpt>
      <trkpt lat="42.46617" lon="2.86618">
        <ele>305</ele>
        <time>2024-09-22T09:21:23Z</time>
      </trkpt>
      <trkpt lat="42.46617" lon="2.86622">
        <ele>305</ele>
        <time>2024-09-22T09:21:27Z</time>
      </trkpt>
      <trkpt lat="42.46619" lon="2.86625">
        <ele>305</ele>
        <time>2024-09-22T09:21:30Z</time>
      </trkpt>
      <trkpt lat="42.46619" lon="2.86629">
        <ele>306</ele>
        <time>2024-09-22T09:21:33Z</time>
      </trkpt>
      <trkpt lat="42.46621" lon="2.86634">
        <ele>306</ele>
        <time>2024-09-22T09:21:37Z</time>
      </trkpt>
      <trkpt lat="42.46622" lon="2.86638">
        <ele>307</ele>
        <time>2024-09-22T09:21:41Z</time>
      </trkpt>
      <trkpt lat="42.46622" lon="2.86642">
        <ele>307</ele>
        <time>2024-09-22T09:21:44Z</time>
      </trkpt>
      <trkpt lat="42.46623" lon="2.86646">
        <ele>306</ele>
        <time>2024-09-22T09:21:49Z</time>
      </trkpt>
      <trkpt lat="42.46622" lon="2.86651">
        <ele>309</ele>
        <time>2024-09-22T09:21:53Z</time>
      </trkpt>
      <trkpt lat="42.46621" lon="2.86654">
        <ele>310</ele>
        <time>2024-09-22T09:21:56Z</time>
      </trkpt>
      <trkpt lat="42.46618" lon="2.86657">
        <ele>310</ele>
        <time>2024-09-22T09:22:00Z</time>
      </trkpt>
      <trkpt lat="42.46615" lon="2.86657">
        <ele>310</ele>
        <time>2024-09-22T09:22:03Z</time>
      </trkpt>
      <trkpt lat="42.46613" lon="2.86654">
        <ele>311</ele>
        <time>2024-09-22T09:22:07Z</time>
      </trkpt>
      <trkpt lat="42.46611" lon="2.86652">
        <ele>311</ele>
        <time>2024-09-22T09:22:09Z</time>
      </trkpt>
      <trkpt lat="42.46609" lon="2.86648">
        <ele>311</ele>
        <time>2024-09-22T09:22:12Z</time>
      </trkpt>
      <trkpt lat="42.46608" lon="2.86644">
        <ele>311</ele>
        <time>2024-09-22T09:22:15Z</time>
      </trkpt>
      <trkpt lat="42.46606" lon="2.86639">
        <ele>311</ele>
        <time>2024-09-22T09:22:18Z</time>
      </trkpt>
      <trkpt lat="42.46604" lon="2.86634">
        <ele>311</ele>
        <time>2024-09-22T09:22:22Z</time>
      </trkpt>
      <trkpt lat="42.46603" lon="2.8663">
        <ele>311</ele>
        <time>2024-09-22T09:22:24Z</time>
      </trkpt>
      <trkpt lat="42.46602" lon="2.86626">
        <ele>311</ele>
        <time>2024-09-22T09:22:27Z</time>
      </trkpt>
      <trkpt lat="42.466" lon="2.86621">
        <ele>312</ele>
        <time>2024-09-22T09:22:31Z</time>
      </trkpt>
      <trkpt lat="42.46598" lon="2.86617">
        <ele>312</ele>
        <time>2024-09-22T09:22:34Z</time>
      </trkpt>
      <trkpt lat="42.46597" lon="2.86613">
        <ele>312</ele>
        <time>2024-09-22T09:22:37Z</time>
      </trkpt>
      <trkpt lat="42.46597" lon="2.86609">
        <ele>312</ele>
        <time>2024-09-22T09:22:40Z</time>
      </trkpt>
      <trkpt lat="42.46595" lon="2.86605">
        <ele>312</ele>
        <time>2024-09-22T09:22:44Z</time>
      </trkpt>
      <trkpt lat="42.46594" lon="2.86601">
        <ele>313</ele>
        <time>2024-09-22T09:22:48Z</time>
      </trkpt>
      <trkpt lat="42.46592" lon="2.86598">
        <ele>314</ele>
        <time>2024-09-22T09:22:52Z</time>
      </trkpt>
      <trkpt lat="42.46589" lon="2.86597">
        <ele>314</ele>
        <time>2024-09-22T09:22:56Z</time>
      </trkpt>
      <trkpt lat="42.46586" lon="2.86597">
        <ele>314</ele>
        <time>2024-09-22T09:22:59Z</time>
      </trkpt>
      <trkpt lat="42.46584" lon="2.86599">
        <ele>314</ele>
        <time>2024-09-22T09:23:03Z</time>
      </trkpt>
      <trkpt lat="42.46582" lon="2.86602">
        <ele>315</ele>
        <time>2024-09-22T09:23:06Z</time>
      </trkpt>
      <trkpt lat="42.4658" lon="2.86605">
        <ele>316</ele>
        <time>2024-09-22T09:23:09Z</time>
      </trkpt>
      <trkpt lat="42.4658" lon="2.86609">
        <ele>316</ele>
        <time>2024-09-22T09:23:12Z</time>
      </trkpt>
      <trkpt lat="42.46579" lon="2.86613">
        <ele>316</ele>
        <time>2024-09-22T09:23:15Z</time>
      </trkpt>
      <trkpt lat="42.46577" lon="2.86617">
        <ele>316</ele>
        <time>2024-09-22T09:23:18Z</time>
      </trkpt>
      <trkpt lat="42.46576" lon="2.86621">
        <ele>318</ele>
        <time>2024-09-22T09:23:22Z</time>
      </trkpt>
      <trkpt lat="42.46576" lon="2.86625">
        <ele>318</ele>
        <time>2024-09-22T09:23:26Z</time>
      </trkpt>
      <trkpt lat="42.46576" lon="2.86629">
        <ele>318</ele>
        <time>2024-09-22T09:23:29Z</time>
      </trkpt>
      <trkpt lat="42.46576" lon="2.86633">
        <ele>319</ele>
        <time>2024-09-22T09:23:32Z</time>
      </trkpt>
      <trkpt lat="42.46576" lon="2.86637">
        <ele>318</ele>
        <time>2024-09-22T09:23:34Z</time>
      </trkpt>
      <trkpt lat="42.46577" lon="2.86641">
        <ele>318</ele>
        <time>2024-09-22T09:23:38Z</time>
      </trkpt>
      <trkpt lat="42.46577" lon="2.86645">
        <ele>318</ele>
        <time>2024-09-22T09:23:40Z</time>
      </trkpt>
      <trkpt lat="42.46578" lon="2.86649">
        <ele>319</ele>
        <time>2024-09-22T09:23:43Z</time>
      </trkpt>
      <trkpt lat="42.46578" lon="2.86653">
        <ele>320</ele>
        <time>2024-09-22T09:23:47Z</time>
      </trkpt>
      <trkpt lat="42.46578" lon="2.86657">
        <ele>319</ele>
        <time>2024-09-22T09:23:50Z</time>
      </trkpt>
      <trkpt lat="42.46577" lon="2.86661">
        <ele>319</ele>
        <time>2024-09-22T09:23:55Z</time>
      </trkpt>
      <trkpt lat="42.46577" lon="2.86666">
        <ele>319</ele>
        <time>2024-09-22T09:23:59Z</time>
      </trkpt>
      <trkpt lat="42.46576" lon="2.86671">
        <ele>320</ele>
        <time>2024-09-22T09:24:02Z</time>
      </trkpt>
      <trkpt lat="42.46576" lon="2.86675">
        <ele>320</ele>
        <time>2024-09-22T09:24:05Z</time>
      </trkpt>
      <trkpt lat="42.46577" lon="2.86679">
        <ele>321</ele>
        <time>2024-09-22T09:24:08Z</time>
      </trkpt>
      <trkpt lat="42.46579" lon="2.86682">
        <ele>321</ele>
        <time>2024-09-22T09:24:12Z</time>
      </trkpt>
      <trkpt lat="42.46582" lon="2.86686">
        <ele>322</ele>
        <time>2024-09-22T09:24:17Z</time>
      </trkpt>
      <trkpt lat="42.46585" lon="2.86689">
        <ele>322</ele>
        <time>2024-09-22T09:24:21Z</time>
      </trkpt>
      <trkpt lat="42.46587" lon="2.86691">
        <ele>323</ele>
        <time>2024-09-22T09:24:27Z</time>
      </trkpt>
      <trkpt lat="42.46589" lon="2.86694">
        <ele>325</ele>
        <time>2024-09-22T09:24:31Z</time>
      </trkpt>
      <trkpt lat="42.46592" lon="2.86696">
        <ele>326</ele>
        <time>2024-09-22T09:24:44Z</time>
      </trkpt>
      <trkpt lat="42.46595" lon="2.86696">
        <ele>322</ele>
        <time>2024-09-22T09:24:55Z</time>
      </trkpt>
      <trkpt lat="42.46596" lon="2.867">
        <ele>325</ele>
        <time>2024-09-22T09:25:07Z</time>
      </trkpt>
      <trkpt lat="42.46594" lon="2.86703">
        <ele>326</ele>
        <time>2024-09-22T09:25:17Z</time>
      </trkpt>
      <trkpt lat="42.46594" lon="2.86707">
        <ele>327</ele>
        <time>2024-09-22T09:25:24Z</time>
      </trkpt>
      <trkpt lat="42.46595" lon="2.8671">
        <ele>328</ele>
        <time>2024-09-22T09:25:49Z</time>
      </trkpt>
      <trkpt lat="42.46597" lon="2.86712">
        <ele>328</ele>
        <time>2024-09-22T09:25:51Z</time>
      </trkpt>
      <trkpt lat="42.46598" lon="2.86714">
        <ele>332</ele>
        <time>2024-09-22T09:26:11Z</time>
      </trkpt>
      <trkpt lat="42.46599" lon="2.86718">
        <ele>333</ele>
        <time>2024-09-22T09:26:16Z</time>
      </trkpt>
      <trkpt lat="42.46599" lon="2.86722">
        <ele>334</ele>
        <time>2024-09-22T09:26:19Z</time>
      </trkpt>
      <trkpt lat="42.46599" lon="2.86725">
        <ele>335</ele>
        <time>2024-09-22T09:26:24Z</time>
      </trkpt>
      <trkpt lat="42.46599" lon="2.8673">
        <ele>336</ele>
        <time>2024-09-22T09:26:29Z</time>
      </trkpt>
      <trkpt lat="42.46598" lon="2.86735">
        <ele>337</ele>
        <time>2024-09-22T09:26:34Z</time>
      </trkpt>
      <trkpt lat="42.46597" lon="2.86739">
        <ele>337</ele>
        <time>2024-09-22T09:26:36Z</time>
      </trkpt>
      <trkpt lat="42.46597" lon="2.86743">
        <ele>337</ele>
        <time>2024-09-22T09:26:40Z</time>
      </trkpt>
      <trkpt lat="42.46599" lon="2.86743">
        <ele>338</ele>
        <time>2024-09-22T09:26:47Z</time>
      </trkpt>
      <trkpt lat="42.46601" lon="2.86742">
        <ele>338</ele>
        <time>2024-09-22T09:26:51Z</time>
      </trkpt>
      <trkpt lat="42.46603" lon="2.86742">
        <ele>340</ele>
        <time>2024-09-22T09:26:59Z</time>
      </trkpt>
      <trkpt lat="42.46604" lon="2.86744">
        <ele>342</ele>
        <time>2024-09-22T09:27:15Z</time>
      </trkpt>
      <trkpt lat="42.46606" lon="2.86747">
        <ele>344</ele>
        <time>2024-09-22T09:27:22Z</time>
      </trkpt>
      <trkpt lat="42.46608" lon="2.8675">
        <ele>345</ele>
        <time>2024-09-22T09:27:27Z</time>
      </trkpt>
      <trkpt lat="42.46609" lon="2.86754">
        <ele>345</ele>
        <time>2024-09-22T09:27:31Z</time>
      </trkpt>
      <trkpt lat="42.4661" lon="2.86758">
        <ele>346</ele>
        <time>2024-09-22T09:27:37Z</time>
      </trkpt>
      <trkpt lat="42.46609" lon="2.86762">
        <ele>346</ele>
        <time>2024-09-22T09:27:41Z</time>
      </trkpt>
      <trkpt lat="42.46608" lon="2.86767">
        <ele>345</ele>
        <time>2024-09-22T09:27:43Z</time>
      </trkpt>
      <trkpt lat="42.46608" lon="2.86771">
        <ele>347</ele>
        <time>2024-09-22T09:27:47Z</time>
      </trkpt>
      <trkpt lat="42.46607" lon="2.86776">
        <ele>347</ele>
        <time>2024-09-22T09:27:51Z</time>
      </trkpt>
      <trkpt lat="42.46608" lon="2.8678">
        <ele>348</ele>
        <time>2024-09-22T09:27:55Z</time>
      </trkpt>
      <trkpt lat="42.46609" lon="2.86783">
        <ele>350</ele>
        <time>2024-09-22T09:28:00Z</time>
      </trkpt>
      <trkpt lat="42.46609" lon="2.86789">
        <ele>351</ele>
        <time>2024-09-22T09:28:05Z</time>
      </trkpt>
      <trkpt lat="42.4661" lon="2.86793">
        <ele>351</ele>
        <time>2024-09-22T09:28:10Z</time>
      </trkpt>
      <trkpt lat="42.4661" lon="2.86798">
        <ele>352</ele>
        <time>2024-09-22T09:28:13Z</time>
      </trkpt>
      <trkpt lat="42.46609" lon="2.86802">
        <ele>350</ele>
        <time>2024-09-22T09:28:16Z</time>
      </trkpt>
      <trkpt lat="42.46609" lon="2.86807">
        <ele>351</ele>
        <time>2024-09-22T09:28:19Z</time>
      </trkpt>
      <trkpt lat="42.46608" lon="2.86811">
        <ele>352</ele>
        <time>2024-09-22T09:28:22Z</time>
      </trkpt>
      <trkpt lat="42.46607" lon="2.86816">
        <ele>351</ele>
        <time>2024-09-22T09:28:25Z</time>
      </trkpt>
      <trkpt lat="42.46606" lon="2.86821">
        <ele>352</ele>
        <time>2024-09-22T09:28:28Z</time>
      </trkpt>
      <trkpt lat="42.46606" lon="2.86826">
        <ele>352</ele>
        <time>2024-09-22T09:28:32Z</time>
      </trkpt>
      <trkpt lat="42.46606" lon="2.8683">
        <ele>352</ele>
        <time>2024-09-22T09:28:35Z</time>
      </trkpt>
      <trkpt lat="42.46606" lon="2.86835">
        <ele>352</ele>
        <time>2024-09-22T09:28:38Z</time>
      </trkpt>
      <trkpt lat="42.46606" lon="2.86839">
        <ele>352</ele>
        <time>2024-09-22T09:28:41Z</time>
      </trkpt>
      <trkpt lat="42.46606" lon="2.86843">
        <ele>353</ele>
        <time>2024-09-22T09:28:45Z</time>
      </trkpt>
      <trkpt lat="42.46606" lon="2.86847">
        <ele>353</ele>
        <time>2024-09-22T09:28:49Z</time>
      </trkpt>
      <trkpt lat="42.46605" lon="2.8685">
        <ele>354</ele>
        <time>2024-09-22T09:28:52Z</time>
      </trkpt>
      <trkpt lat="42.46604" lon="2.86854">
        <ele>355</ele>
        <time>2024-09-22T09:28:56Z</time>
      </trkpt>
      <trkpt lat="42.46605" lon="2.86858">
        <ele>356</ele>
        <time>2024-09-22T09:29:01Z</time>
      </trkpt>
      <trkpt lat="42.46605" lon="2.86861">
        <ele>357</ele>
        <time>2024-09-22T09:29:05Z</time>
      </trkpt>
      <trkpt lat="42.46604" lon="2.86866">
        <ele>358</ele>
        <time>2024-09-22T09:29:09Z</time>
      </trkpt>
      <trkpt lat="42.46604" lon="2.8687">
        <ele>358</ele>
        <time>2024-09-22T09:29:13Z</time>
      </trkpt>
      <trkpt lat="42.46604" lon="2.86874">
        <ele>358</ele>
        <time>2024-09-22T09:29:17Z</time>
      </trkpt>
      <trkpt lat="42.46604" lon="2.86877">
        <ele>359</ele>
        <time>2024-09-22T09:29:20Z</time>
      </trkpt>
      <trkpt lat="42.46604" lon="2.86882">
        <ele>358</ele>
        <time>2024-09-22T09:29:26Z</time>
      </trkpt>
      <trkpt lat="42.46604" lon="2.86886">
        <ele>360</ele>
        <time>2024-09-22T09:29:31Z</time>
      </trkpt>
      <trkpt lat="42.46604" lon="2.8689">
        <ele>360</ele>
        <time>2024-09-22T09:29:36Z</time>
      </trkpt>
      <trkpt lat="42.46603" lon="2.86895">
        <ele>361</ele>
        <time>2024-09-22T09:29:42Z</time>
      </trkpt>
      <trkpt lat="42.46602" lon="2.869">
        <ele>360</ele>
        <time>2024-09-22T09:29:44Z</time>
      </trkpt>
      <trkpt lat="42.46601" lon="2.86906">
        <ele>360</ele>
        <time>2024-09-22T09:29:54Z</time>
      </trkpt>
      <trkpt lat="42.46599" lon="2.86909">
        <ele>362</ele>
        <time>2024-09-22T09:29:58Z</time>
      </trkpt>
      <trkpt lat="42.46598" lon="2.86913">
        <ele>362</ele>
        <time>2024-09-22T09:30:02Z</time>
      </trkpt>
      <trkpt lat="42.46598" lon="2.86918">
        <ele>362</ele>
        <time>2024-09-22T09:30:05Z</time>
      </trkpt>
      <trkpt lat="42.46598" lon="2.86922">
        <ele>363</ele>
        <time>2024-09-22T09:30:09Z</time>
      </trkpt>
      <trkpt lat="42.46599" lon="2.86926">
        <ele>363</ele>
        <time>2024-09-22T09:30:13Z</time>
      </trkpt>
      <trkpt lat="42.46599" lon="2.8693">
        <ele>363</ele>
        <time>2024-09-22T09:30:16Z</time>
      </trkpt>
      <trkpt lat="42.46599" lon="2.86934">
        <ele>363</ele>
        <time>2024-09-22T09:30:19Z</time>
      </trkpt>
      <trkpt lat="42.46599" lon="2.86938">
        <ele>364</ele>
        <time>2024-09-22T09:30:23Z</time>
      </trkpt>
      <trkpt lat="42.466" lon="2.86943">
        <ele>364</ele>
        <time>2024-09-22T09:30:26Z</time>
      </trkpt>
      <trkpt lat="42.46601" lon="2.86948">
        <ele>364</ele>
        <time>2024-09-22T09:30:29Z</time>
      </trkpt>
      <trkpt lat="42.46601" lon="2.86954">
        <ele>366</ele>
        <time>2024-09-22T09:30:35Z</time>
      </trkpt>
      <trkpt lat="42.46602" lon="2.86959">
        <ele>368</ele>
        <time>2024-09-22T09:30:40Z</time>
      </trkpt>
      <trkpt lat="42.46603" lon="2.86963">
        <ele>367</ele>
        <time>2024-09-22T09:30:45Z</time>
      </trkpt>
      <trkpt lat="42.46603" lon="2.86968">
        <ele>368</ele>
        <time>2024-09-22T09:30:51Z</time>
      </trkpt>
      <trkpt lat="42.46604" lon="2.86972">
        <ele>369</ele>
        <time>2024-09-22T09:30:56Z</time>
      </trkpt>
      <trkpt lat="42.46604" lon="2.86976">
        <ele>370</ele>
        <time>2024-09-22T09:30:59Z</time>
      </trkpt>
      <trkpt lat="42.46604" lon="2.8698">
        <ele>371</ele>
        <time>2024-09-22T09:31:04Z</time>
      </trkpt>
      <trkpt lat="42.46603" lon="2.86985">
        <ele>371</ele>
        <time>2024-09-22T09:31:10Z</time>
      </trkpt>
      <trkpt lat="42.46605" lon="2.86985">
        <ele>371</ele>
        <time>2024-09-22T09:31:11Z</time>
      </trkpt>
      <trkpt lat="42.46605" lon="2.86988">
        <ele>371</ele>
        <time>2024-09-22T09:31:14Z</time>
      </trkpt>
      <trkpt lat="42.46606" lon="2.86991">
        <ele>372</ele>
        <time>2024-09-22T09:31:19Z</time>
      </trkpt>
      <trkpt lat="42.46606" lon="2.86996">
        <ele>374</ele>
        <time>2024-09-22T09:31:24Z</time>
      </trkpt>
      <trkpt lat="42.46608" lon="2.87">
        <ele>375</ele>
        <time>2024-09-22T09:31:31Z</time>
      </trkpt>
      <trkpt lat="42.4661" lon="2.87003">
        <ele>376</ele>
        <time>2024-09-22T09:31:36Z</time>
      </trkpt>
      <trkpt lat="42.46612" lon="2.87006">
        <ele>376</ele>
        <time>2024-09-22T09:31:41Z</time>
      </trkpt>
      <trkpt lat="42.46613" lon="2.8701">
        <ele>376</ele>
        <time>2024-09-22T09:31:46Z</time>
      </trkpt>
      <trkpt lat="42.46615" lon="2.87013">
        <ele>377</ele>
        <time>2024-09-22T09:31:49Z</time>
      </trkpt>
      <trkpt lat="42.46618" lon="2.87016">
        <ele>378</ele>
        <time>2024-09-22T09:31:54Z</time>
      </trkpt>
      <trkpt lat="42.46619" lon="2.8702">
        <ele>378</ele>
        <time>2024-09-22T09:31:59Z</time>
      </trkpt>
      <trkpt lat="42.46621" lon="2.87024">
        <ele>379</ele>
        <time>2024-09-22T09:32:03Z</time>
      </trkpt>
      <trkpt lat="42.46622" lon="2.87028">
        <ele>380</ele>
        <time>2024-09-22T09:32:07Z</time>
      </trkpt>
      <trkpt lat="42.46624" lon="2.87032">
        <ele>380</ele>
        <time>2024-09-22T09:32:13Z</time>
      </trkpt>
      <trkpt lat="42.46623" lon="2.87036">
        <ele>381</ele>
        <time>2024-09-22T09:32:16Z</time>
      </trkpt>
      <trkpt lat="42.46624" lon="2.8704">
        <ele>381</ele>
        <time>2024-09-22T09:32:20Z</time>
      </trkpt>
      <trkpt lat="42.46626" lon="2.87044">
        <ele>382</ele>
        <time>2024-09-22T09:32:26Z</time>
      </trkpt>
      <trkpt lat="42.46627" lon="2.87047">
        <ele>384</ele>
        <time>2024-09-22T09:32:31Z</time>
      </trkpt>
      <trkpt lat="42.46627" lon="2.87051">
        <ele>384</ele>
        <time>2024-09-22T09:32:35Z</time>
      </trkpt>
      <trkpt lat="42.46627" lon="2.87055">
        <ele>385</ele>
        <time>2024-09-22T09:32:38Z</time>
      </trkpt>
      <trkpt lat="42.46626" lon="2.87059">
        <ele>385</ele>
        <time>2024-09-22T09:32:42Z</time>
      </trkpt>
      <trkpt lat="42.46626" lon="2.87063">
        <ele>385</ele>
        <time>2024-09-22T09:32:47Z</time>
      </trkpt>
      <trkpt lat="42.46626" lon="2.87067">
        <ele>386</ele>
        <time>2024-09-22T09:32:50Z</time>
      </trkpt>
      <trkpt lat="42.46625" lon="2.87072">
        <ele>385</ele>
        <time>2024-09-22T09:32:53Z</time>
      </trkpt>
      <trkpt lat="42.46625" lon="2.87076">
        <ele>386</ele>
        <time>2024-09-22T09:32:56Z</time>
      </trkpt>
      <trkpt lat="42.46625" lon="2.8708">
        <ele>387</ele>
        <time>2024-09-22T09:33:01Z</time>
      </trkpt>
      <trkpt lat="42.46624" lon="2.87084">
        <ele>387</ele>
        <time>2024-09-22T09:33:03Z</time>
      </trkpt>
      <trkpt lat="42.46623" lon="2.87089">
        <ele>387</ele>
        <time>2024-09-22T09:33:07Z</time>
      </trkpt>
      <trkpt lat="42.46623" lon="2.87093">
        <ele>388</ele>
        <time>2024-09-22T09:33:12Z</time>
      </trkpt>
      <trkpt lat="42.46623" lon="2.87098">
        <ele>389</ele>
        <time>2024-09-22T09:33:16Z</time>
      </trkpt>
      <trkpt lat="42.46624" lon="2.87101">
        <ele>389</ele>
        <time>2024-09-22T09:33:21Z</time>
      </trkpt>
      <trkpt lat="42.46627" lon="2.87101">
        <ele>388</ele>
        <time>2024-09-22T09:33:24Z</time>
      </trkpt>
      <trkpt lat="42.46629" lon="2.87099">
        <ele>389</ele>
        <time>2024-09-22T09:33:28Z</time>
      </trkpt>
      <trkpt lat="42.4663" lon="2.87095">
        <ele>389</ele>
        <time>2024-09-22T09:33:32Z</time>
      </trkpt>
      <trkpt lat="42.46631" lon="2.8709">
        <ele>390</ele>
        <time>2024-09-22T09:33:35Z</time>
      </trkpt>
      <trkpt lat="42.46633" lon="2.87085">
        <ele>390</ele>
        <time>2024-09-22T09:33:39Z</time>
      </trkpt>
      <trkpt lat="42.46633" lon="2.87081">
        <ele>390</ele>
        <time>2024-09-22T09:33:41Z</time>
      </trkpt>
      <trkpt lat="42.46634" lon="2.87078">
        <ele>389</ele>
        <time>2024-09-22T09:33:44Z</time>
      </trkpt>
      <trkpt lat="42.46634" lon="2.87073">
        <ele>389</ele>
        <time>2024-09-22T09:33:47Z</time>
      </trkpt>
      <trkpt lat="42.46635" lon="2.87069">
        <ele>389</ele>
        <time>2024-09-22T09:33:50Z</time>
      </trkpt>
      <trkpt lat="42.46636" lon="2.87065">
        <ele>388</ele>
        <time>2024-09-22T09:33:53Z</time>
      </trkpt>
      <trkpt lat="42.46637" lon="2.8706">
        <ele>389</ele>
        <time>2024-09-22T09:33:56Z</time>
      </trkpt>
      <trkpt lat="42.46637" lon="2.87056">
        <ele>389</ele>
        <time>2024-09-22T09:33:59Z</time>
      </trkpt>
      <trkpt lat="42.46639" lon="2.87052">
        <ele>389</ele>
        <time>2024-09-22T09:34:02Z</time>
      </trkpt>
      <trkpt lat="42.4664" lon="2.87049">
        <ele>390</ele>
        <time>2024-09-22T09:34:04Z</time>
      </trkpt>
      <trkpt lat="42.46641" lon="2.87045">
        <ele>390</ele>
        <time>2024-09-22T09:34:06Z</time>
      </trkpt>
      <trkpt lat="42.46642" lon="2.8704">
        <ele>390</ele>
        <time>2024-09-22T09:34:10Z</time>
      </trkpt>
      <trkpt lat="42.46643" lon="2.87035">
        <ele>391</ele>
        <time>2024-09-22T09:34:13Z</time>
      </trkpt>
      <trkpt lat="42.46644" lon="2.8703">
        <ele>391</ele>
        <time>2024-09-22T09:34:16Z</time>
      </trkpt>
      <trkpt lat="42.46645" lon="2.87025">
        <ele>391</ele>
        <time>2024-09-22T09:34:20Z</time>
      </trkpt>
      <trkpt lat="42.46647" lon="2.87021">
        <ele>390</ele>
        <time>2024-09-22T09:34:28Z</time>
      </trkpt>
      <trkpt lat="42.46649" lon="2.87017">
        <ele>390</ele>
        <time>2024-09-22T09:34:31Z</time>
      </trkpt>
      <trkpt lat="42.46651" lon="2.87014">
        <ele>390</ele>
        <time>2024-09-22T09:34:34Z</time>
      </trkpt>
      <trkpt lat="42.46654" lon="2.87012">
        <ele>391</ele>
        <time>2024-09-22T09:34:36Z</time>
      </trkpt>
      <trkpt lat="42.46656" lon="2.8701">
        <ele>392</ele>
        <time>2024-09-22T09:34:39Z</time>
      </trkpt>
      <trkpt lat="42.46658" lon="2.87007">
        <ele>392</ele>
        <time>2024-09-22T09:34:42Z</time>
      </trkpt>
      <trkpt lat="42.4666" lon="2.87003">
        <ele>392</ele>
        <time>2024-09-22T09:34:46Z</time>
      </trkpt>
      <trkpt lat="42.46662" lon="2.87">
        <ele>393</ele>
        <time>2024-09-22T09:34:48Z</time>
      </trkpt>
      <trkpt lat="42.46664" lon="2.86997">
        <ele>393</ele>
        <time>2024-09-22T09:34:52Z</time>
      </trkpt>
      <trkpt lat="42.46667" lon="2.86994">
        <ele>393</ele>
        <time>2024-09-22T09:34:55Z</time>
      </trkpt>
      <trkpt lat="42.46669" lon="2.86991">
        <ele>394</ele>
        <time>2024-09-22T09:34:58Z</time>
      </trkpt>
      <trkpt lat="42.46671" lon="2.86988">
        <ele>394</ele>
        <time>2024-09-22T09:35:01Z</time>
      </trkpt>
      <trkpt lat="42.46674" lon="2.86986">
        <ele>395</ele>
        <time>2024-09-22T09:35:05Z</time>
      </trkpt>
      <trkpt lat="42.46677" lon="2.86983">
        <ele>394</ele>
        <time>2024-09-22T09:35:07Z</time>
      </trkpt>
      <trkpt lat="42.46679" lon="2.8698">
        <ele>395</ele>
        <time>2024-09-22T09:35:10Z</time>
      </trkpt>
      <trkpt lat="42.46682" lon="2.86977">
        <ele>396</ele>
        <time>2024-09-22T09:35:13Z</time>
      </trkpt>
      <trkpt lat="42.46684" lon="2.86973">
        <ele>396</ele>
        <time>2024-09-22T09:35:16Z</time>
      </trkpt>
      <trkpt lat="42.46687" lon="2.86969">
        <ele>397</ele>
        <time>2024-09-22T09:35:20Z</time>
      </trkpt>
      <trkpt lat="42.46689" lon="2.86966">
        <ele>397</ele>
        <time>2024-09-22T09:35:23Z</time>
      </trkpt>
      <trkpt lat="42.46692" lon="2.86964">
        <ele>396</ele>
        <time>2024-09-22T09:35:26Z</time>
      </trkpt>
      <trkpt lat="42.46695" lon="2.86962">
        <ele>397</ele>
        <time>2024-09-22T09:35:30Z</time>
      </trkpt>
      <trkpt lat="42.46698" lon="2.86958">
        <ele>397</ele>
        <time>2024-09-22T09:35:33Z</time>
      </trkpt>
      <trkpt lat="42.46702" lon="2.86956">
        <ele>397</ele>
        <time>2024-09-22T09:35:37Z</time>
      </trkpt>
      <trkpt lat="42.46705" lon="2.86955">
        <ele>397</ele>
        <time>2024-09-22T09:35:40Z</time>
      </trkpt>
      <trkpt lat="42.46708" lon="2.86954">
        <ele>398</ele>
        <time>2024-09-22T09:35:44Z</time>
      </trkpt>
      <trkpt lat="42.46711" lon="2.86952">
        <ele>399</ele>
        <time>2024-09-22T09:35:46Z</time>
      </trkpt>
      <trkpt lat="42.46714" lon="2.86951">
        <ele>398</ele>
        <time>2024-09-22T09:35:51Z</time>
      </trkpt>
      <trkpt lat="42.46717" lon="2.8695">
        <ele>398</ele>
        <time>2024-09-22T09:35:54Z</time>
      </trkpt>
      <trkpt lat="42.4672" lon="2.86949">
        <ele>397</ele>
        <time>2024-09-22T09:35:57Z</time>
      </trkpt>
      <trkpt lat="42.46723" lon="2.86948">
        <ele>399</ele>
        <time>2024-09-22T09:36:01Z</time>
      </trkpt>
      <trkpt lat="42.46726" lon="2.86946">
        <ele>400</ele>
        <time>2024-09-22T09:36:04Z</time>
      </trkpt>
      <trkpt lat="42.46729" lon="2.86946">
        <ele>400</ele>
        <time>2024-09-22T09:36:07Z</time>
      </trkpt>
      <trkpt lat="42.46733" lon="2.86947">
        <ele>401</ele>
        <time>2024-09-22T09:36:10Z</time>
      </trkpt>
      <trkpt lat="42.46736" lon="2.86949">
        <ele>402</ele>
        <time>2024-09-22T09:36:15Z</time>
      </trkpt>
      <trkpt lat="42.46738" lon="2.86952">
        <ele>403</ele>
        <time>2024-09-22T09:36:21Z</time>
      </trkpt>
      <trkpt lat="42.46737" lon="2.86955">
        <ele>404</ele>
        <time>2024-09-22T09:36:25Z</time>
      </trkpt>
      <trkpt lat="42.46735" lon="2.86957">
        <ele>405</ele>
        <time>2024-09-22T09:36:28Z</time>
      </trkpt>
      <trkpt lat="42.46733" lon="2.86959">
        <ele>404</ele>
        <time>2024-09-22T09:36:32Z</time>
      </trkpt>
      <trkpt lat="42.4673" lon="2.86961">
        <ele>406</ele>
        <time>2024-09-22T09:36:36Z</time>
      </trkpt>
      <trkpt lat="42.46727" lon="2.86963">
        <ele>405</ele>
        <time>2024-09-22T09:36:40Z</time>
      </trkpt>
      <trkpt lat="42.46725" lon="2.86966">
        <ele>406</ele>
        <time>2024-09-22T09:36:43Z</time>
      </trkpt>
      <trkpt lat="42.46723" lon="2.8697">
        <ele>406</ele>
        <time>2024-09-22T09:36:48Z</time>
      </trkpt>
      <trkpt lat="42.46721" lon="2.86974">
        <ele>406</ele>
        <time>2024-09-22T09:36:52Z</time>
      </trkpt>
      <trkpt lat="42.46719" lon="2.86979">
        <ele>406</ele>
        <time>2024-09-22T09:36:56Z</time>
      </trkpt>
      <trkpt lat="42.46718" lon="2.86983">
        <ele>406</ele>
        <time>2024-09-22T09:37:00Z</time>
      </trkpt>
      <trkpt lat="42.46716" lon="2.86987">
        <ele>407</ele>
        <time>2024-09-22T09:37:05Z</time>
      </trkpt>
      <trkpt lat="42.46715" lon="2.86991">
        <ele>407</ele>
        <time>2024-09-22T09:37:08Z</time>
      </trkpt>
      <trkpt lat="42.46714" lon="2.86996">
        <ele>407</ele>
        <time>2024-09-22T09:37:11Z</time>
      </trkpt>
      <trkpt lat="42.46713" lon="2.87">
        <ele>407</ele>
        <time>2024-09-22T09:37:14Z</time>
      </trkpt>
      <trkpt lat="42.46712" lon="2.87004">
        <ele>409</ele>
        <time>2024-09-22T09:37:18Z</time>
      </trkpt>
      <trkpt lat="42.4671" lon="2.87008">
        <ele>409</ele>
        <time>2024-09-22T09:37:21Z</time>
      </trkpt>
      <trkpt lat="42.46709" lon="2.87012">
        <ele>410</ele>
        <time>2024-09-22T09:37:25Z</time>
      </trkpt>
      <trkpt lat="42.46707" lon="2.87016">
        <ele>410</ele>
        <time>2024-09-22T09:37:28Z</time>
      </trkpt>
      <trkpt lat="42.46706" lon="2.8702">
        <ele>410</ele>
        <time>2024-09-22T09:37:31Z</time>
      </trkpt>
      <trkpt lat="42.46705" lon="2.87024">
        <ele>411</ele>
        <time>2024-09-22T09:37:34Z</time>
      </trkpt>
      <trkpt lat="42.46704" lon="2.87028">
        <ele>412</ele>
        <time>2024-09-22T09:37:38Z</time>
      </trkpt>
      <trkpt lat="42.46703" lon="2.87032">
        <ele>412</ele>
        <time>2024-09-22T09:37:41Z</time>
      </trkpt>
      <trkpt lat="42.46703" lon="2.87036">
        <ele>412</ele>
        <time>2024-09-22T09:37:44Z</time>
      </trkpt>
      <trkpt lat="42.46703" lon="2.8704">
        <ele>413</ele>
        <time>2024-09-22T09:37:48Z</time>
      </trkpt>
      <trkpt lat="42.46703" lon="2.87044">
        <ele>413</ele>
        <time>2024-09-22T09:37:51Z</time>
      </trkpt>
      <trkpt lat="42.46702" lon="2.87047">
        <ele>413</ele>
        <time>2024-09-22T09:37:55Z</time>
      </trkpt>
      <trkpt lat="42.46702" lon="2.87052">
        <ele>413</ele>
        <time>2024-09-22T09:37:59Z</time>
      </trkpt>
      <trkpt lat="42.46702" lon="2.87057">
        <ele>413</ele>
        <time>2024-09-22T09:38:04Z</time>
      </trkpt>
      <trkpt lat="42.46701" lon="2.87061">
        <ele>414</ele>
        <time>2024-09-22T09:38:06Z</time>
      </trkpt>
      <trkpt lat="42.46701" lon="2.87065">
        <ele>414</ele>
        <time>2024-09-22T09:38:10Z</time>
      </trkpt>
      <trkpt lat="42.46701" lon="2.87071">
        <ele>416</ele>
        <time>2024-09-22T09:38:13Z</time>
      </trkpt>
      <trkpt lat="42.46701" lon="2.87076">
        <ele>414</ele>
        <time>2024-09-22T09:38:17Z</time>
      </trkpt>
      <trkpt lat="42.46701" lon="2.8708">
        <ele>415</ele>
        <time>2024-09-22T09:38:20Z</time>
      </trkpt>
      <trkpt lat="42.46701" lon="2.87084">
        <ele>415</ele>
        <time>2024-09-22T09:38:24Z</time>
      </trkpt>
      <trkpt lat="42.46701" lon="2.87088">
        <ele>416</ele>
        <time>2024-09-22T09:38:25Z</time>
      </trkpt>
      <trkpt lat="42.46701" lon="2.87093">
        <ele>417</ele>
        <time>2024-09-22T09:38:29Z</time>
      </trkpt>
      <trkpt lat="42.467" lon="2.87098">
        <ele>416</ele>
        <time>2024-09-22T09:38:32Z</time>
      </trkpt>
      <trkpt lat="42.467" lon="2.87102">
        <ele>417</ele>
        <time>2024-09-22T09:38:35Z</time>
      </trkpt>
      <trkpt lat="42.46699" lon="2.87106">
        <ele>416</ele>
        <time>2024-09-22T09:38:39Z</time>
      </trkpt>
      <trkpt lat="42.46698" lon="2.87111">
        <ele>417</ele>
        <time>2024-09-22T09:38:43Z</time>
      </trkpt>
      <trkpt lat="42.46696" lon="2.87114">
        <ele>417</ele>
        <time>2024-09-22T09:38:45Z</time>
      </trkpt>
      <trkpt lat="42.46695" lon="2.87118">
        <ele>417</ele>
        <time>2024-09-22T09:38:48Z</time>
      </trkpt>
      <trkpt lat="42.46693" lon="2.87121">
        <ele>418</ele>
        <time>2024-09-22T09:38:51Z</time>
      </trkpt>
      <trkpt lat="42.46691" lon="2.87125">
        <ele>418</ele>
        <time>2024-09-22T09:38:53Z</time>
      </trkpt>
      <trkpt lat="42.46688" lon="2.87128">
        <ele>418</ele>
        <time>2024-09-22T09:38:56Z</time>
      </trkpt>
      <trkpt lat="42.46686" lon="2.87131">
        <ele>418</ele>
        <time>2024-09-22T09:38:59Z</time>
      </trkpt>
      <trkpt lat="42.46683" lon="2.87134">
        <ele>417</ele>
        <time>2024-09-22T09:39:02Z</time>
      </trkpt>
      <trkpt lat="42.46681" lon="2.87137">
        <ele>418</ele>
        <time>2024-09-22T09:39:05Z</time>
      </trkpt>
      <trkpt lat="42.46678" lon="2.8714">
        <ele>417</ele>
        <time>2024-09-22T09:39:07Z</time>
      </trkpt>
      <trkpt lat="42.46677" lon="2.87143">
        <ele>417</ele>
        <time>2024-09-22T09:39:10Z</time>
      </trkpt>
      <trkpt lat="42.46674" lon="2.87147">
        <ele>418</ele>
        <time>2024-09-22T09:39:16Z</time>
      </trkpt>
      <trkpt lat="42.46673" lon="2.8715">
        <ele>417</ele>
        <time>2024-09-22T09:39:18Z</time>
      </trkpt>
      <trkpt lat="42.46671" lon="2.87154">
        <ele>417</ele>
        <time>2024-09-22T09:39:21Z</time>
      </trkpt>
      <trkpt lat="42.4667" lon="2.87159">
        <ele>417</ele>
        <time>2024-09-22T09:39:24Z</time>
      </trkpt>
      <trkpt lat="42.46668" lon="2.87162">
        <ele>417</ele>
        <time>2024-09-22T09:39:27Z</time>
      </trkpt>
      <trkpt lat="42.46667" lon="2.87166">
        <ele>417</ele>
        <time>2024-09-22T09:39:29Z</time>
      </trkpt>
      <trkpt lat="42.46665" lon="2.8717">
        <ele>418</ele>
        <time>2024-09-22T09:39:32Z</time>
      </trkpt>
      <trkpt lat="42.46664" lon="2.87173">
        <ele>417</ele>
        <time>2024-09-22T09:39:35Z</time>
      </trkpt>
      <trkpt lat="42.46663" lon="2.87177">
        <ele>417</ele>
        <time>2024-09-22T09:39:38Z</time>
      </trkpt>
      <trkpt lat="42.46661" lon="2.87181">
        <ele>417</ele>
        <time>2024-09-22T09:39:40Z</time>
      </trkpt>
      <trkpt lat="42.4666" lon="2.87185">
        <ele>417</ele>
        <time>2024-09-22T09:39:43Z</time>
      </trkpt>
      <trkpt lat="42.4666" lon="2.87189">
        <ele>417</ele>
        <time>2024-09-22T09:39:46Z</time>
      </trkpt>
      <trkpt lat="42.46659" lon="2.87193">
        <ele>418</ele>
        <time>2024-09-22T09:39:49Z</time>
      </trkpt>
      <trkpt lat="42.46658" lon="2.87198">
        <ele>419</ele>
        <time>2024-09-22T09:39:52Z</time>
      </trkpt>
      <trkpt lat="42.46657" lon="2.87202">
        <ele>419</ele>
        <time>2024-09-22T09:39:55Z</time>
      </trkpt>
      <trkpt lat="42.46656" lon="2.87207">
        <ele>419</ele>
        <time>2024-09-22T09:39:58Z</time>
      </trkpt>
      <trkpt lat="42.46654" lon="2.8721">
        <ele>420</ele>
        <time>2024-09-22T09:40:01Z</time>
      </trkpt>
      <trkpt lat="42.46653" lon="2.87214">
        <ele>420</ele>
        <time>2024-09-22T09:40:04Z</time>
      </trkpt>
      <trkpt lat="42.46652" lon="2.87218">
        <ele>420</ele>
        <time>2024-09-22T09:40:06Z</time>
      </trkpt>
      <trkpt lat="42.46651" lon="2.87222">
        <ele>421</ele>
        <time>2024-09-22T09:40:10Z</time>
      </trkpt>
      <trkpt lat="42.46649" lon="2.87226">
        <ele>421</ele>
        <time>2024-09-22T09:40:13Z</time>
      </trkpt>
      <trkpt lat="42.46648" lon="2.87231">
        <ele>423</ele>
        <time>2024-09-22T09:40:17Z</time>
      </trkpt>
      <trkpt lat="42.46646" lon="2.87235">
        <ele>423</ele>
        <time>2024-09-22T09:40:20Z</time>
      </trkpt>
      <trkpt lat="42.46644" lon="2.87239">
        <ele>423</ele>
        <time>2024-09-22T09:40:23Z</time>
      </trkpt>
      <trkpt lat="42.46643" lon="2.87243">
        <ele>424</ele>
        <time>2024-09-22T09:40:26Z</time>
      </trkpt>
      <trkpt lat="42.46641" lon="2.87247">
        <ele>425</ele>
        <time>2024-09-22T09:40:29Z</time>
      </trkpt>
      <trkpt lat="42.4664" lon="2.87251">
        <ele>424</ele>
        <time>2024-09-22T09:40:32Z</time>
      </trkpt>
      <trkpt lat="42.46638" lon="2.87254">
        <ele>424</ele>
        <time>2024-09-22T09:40:35Z</time>
      </trkpt>
      <trkpt lat="42.46637" lon="2.87259">
        <ele>424</ele>
        <time>2024-09-22T09:40:39Z</time>
      </trkpt>
      <trkpt lat="42.46635" lon="2.87262">
        <ele>424</ele>
        <time>2024-09-22T09:40:43Z</time>
      </trkpt>
      <trkpt lat="42.46634" lon="2.87266">
        <ele>425</ele>
        <time>2024-09-22T09:40:45Z</time>
      </trkpt>
      <trkpt lat="42.46633" lon="2.8727">
        <ele>425</ele>
        <time>2024-09-22T09:40:49Z</time>
      </trkpt>
      <trkpt lat="42.46632" lon="2.87274">
        <ele>426</ele>
        <time>2024-09-22T09:40:53Z</time>
      </trkpt>
      <trkpt lat="42.4663" lon="2.87278">
        <ele>427</ele>
        <time>2024-09-22T09:40:57Z</time>
      </trkpt>
      <trkpt lat="42.46629" lon="2.87282">
        <ele>428</ele>
        <time>2024-09-22T09:41:00Z</time>
      </trkpt>
      <trkpt lat="42.46628" lon="2.87286">
        <ele>427</ele>
        <time>2024-09-22T09:41:04Z</time>
      </trkpt>
      <trkpt lat="42.46628" lon="2.87291">
        <ele>428</ele>
        <time>2024-09-22T09:41:08Z</time>
      </trkpt>
      <trkpt lat="42.46627" lon="2.87296">
        <ele>428</ele>
        <time>2024-09-22T09:41:12Z</time>
      </trkpt>
      <trkpt lat="42.46626" lon="2.873">
        <ele>429</ele>
        <time>2024-09-22T09:41:15Z</time>
      </trkpt>
      <trkpt lat="42.46626" lon="2.87304">
        <ele>430</ele>
        <time>2024-09-22T09:41:19Z</time>
      </trkpt>
      <trkpt lat="42.46624" lon="2.87308">
        <ele>431</ele>
        <time>2024-09-22T09:41:22Z</time>
      </trkpt>
      <trkpt lat="42.46624" lon="2.87312">
        <ele>431</ele>
        <time>2024-09-22T09:41:25Z</time>
      </trkpt>
      <trkpt lat="42.46623" lon="2.87316">
        <ele>432</ele>
        <time>2024-09-22T09:41:30Z</time>
      </trkpt>
      <trkpt lat="42.46623" lon="2.8732">
        <ele>433</ele>
        <time>2024-09-22T09:41:33Z</time>
      </trkpt>
      <trkpt lat="42.46622" lon="2.87325">
        <ele>434</ele>
        <time>2024-09-22T09:41:37Z</time>
      </trkpt>
      <trkpt lat="42.46621" lon="2.87329">
        <ele>435</ele>
        <time>2024-09-22T09:41:40Z</time>
      </trkpt>
      <trkpt lat="42.46621" lon="2.87333">
        <ele>435</ele>
        <time>2024-09-22T09:41:45Z</time>
      </trkpt>
      <trkpt lat="42.4662" lon="2.87337">
        <ele>435</ele>
        <time>2024-09-22T09:41:49Z</time>
      </trkpt>
      <trkpt lat="42.4662" lon="2.87341">
        <ele>435</ele>
        <time>2024-09-22T09:41:53Z</time>
      </trkpt>
      <trkpt lat="42.46619" lon="2.87345">
        <ele>437</ele>
        <time>2024-09-22T09:41:57Z</time>
      </trkpt>
      <trkpt lat="42.46618" lon="2.87349">
        <ele>438</ele>
        <time>2024-09-22T09:42:00Z</time>
      </trkpt>
      <trkpt lat="42.46618" lon="2.87354">
        <ele>439</ele>
        <time>2024-09-22T09:42:05Z</time>
      </trkpt>
      <trkpt lat="42.46617" lon="2.87358">
        <ele>439</ele>
        <time>2024-09-22T09:42:10Z</time>
      </trkpt>
      <trkpt lat="42.46616" lon="2.87362">
        <ele>439</ele>
        <time>2024-09-22T09:42:14Z</time>
      </trkpt>
      <trkpt lat="42.46615" lon="2.87366">
        <ele>440</ele>
        <time>2024-09-22T09:42:20Z</time>
      </trkpt>
      <trkpt lat="42.46614" lon="2.8737">
        <ele>440</ele>
        <time>2024-09-22T09:42:24Z</time>
      </trkpt>
      <trkpt lat="42.46614" lon="2.87374">
        <ele>441</ele>
        <time>2024-09-22T09:42:28Z</time>
      </trkpt>
      <trkpt lat="42.46613" lon="2.87378">
        <ele>442</ele>
        <time>2024-09-22T09:42:33Z</time>
      </trkpt>
      <trkpt lat="42.46612" lon="2.87382">
        <ele>442</ele>
        <time>2024-09-22T09:42:37Z</time>
      </trkpt>
      <trkpt lat="42.46612" lon="2.87386">
        <ele>444</ele>
        <time>2024-09-22T09:42:42Z</time>
      </trkpt>
      <trkpt lat="42.46611" lon="2.8739">
        <ele>444</ele>
        <time>2024-09-22T09:42:47Z</time>
      </trkpt>
      <trkpt lat="42.4661" lon="2.87394">
        <ele>445</ele>
        <time>2024-09-22T09:42:52Z</time>
      </trkpt>
      <trkpt lat="42.4661" lon="2.87398">
        <ele>446</ele>
        <time>2024-09-22T09:42:56Z</time>
      </trkpt>
      <trkpt lat="42.46609" lon="2.87402">
        <ele>446</ele>
        <time>2024-09-22T09:42:59Z</time>
      </trkpt>
      <trkpt lat="42.46607" lon="2.87406">
        <ele>447</ele>
        <time>2024-09-22T09:43:03Z</time>
      </trkpt>
      <trkpt lat="42.46606" lon="2.8741">
        <ele>448</ele>
        <time>2024-09-22T09:43:06Z</time>
      </trkpt>
      <trkpt lat="42.46605" lon="2.87413">
        <ele>447</ele>
        <time>2024-09-22T09:43:11Z</time>
      </trkpt>
      <trkpt lat="42.46603" lon="2.87417">
        <ele>449</ele>
        <time>2024-09-22T09:43:15Z</time>
      </trkpt>
      <trkpt lat="42.46601" lon="2.87421">
        <ele>449</ele>
        <time>2024-09-22T09:43:19Z</time>
      </trkpt>
      <trkpt lat="42.46599" lon="2.87424">
        <ele>449</ele>
        <time>2024-09-22T09:43:22Z</time>
      </trkpt>
      <trkpt lat="42.46598" lon="2.87428">
        <ele>449</ele>
        <time>2024-09-22T09:43:24Z</time>
      </trkpt>
      <trkpt lat="42.46596" lon="2.87431">
        <ele>450</ele>
        <time>2024-09-22T09:43:28Z</time>
      </trkpt>
      <trkpt lat="42.46594" lon="2.87435">
        <ele>450</ele>
        <time>2024-09-22T09:43:33Z</time>
      </trkpt>
      <trkpt lat="42.46593" lon="2.87438">
        <ele>451</ele>
        <time>2024-09-22T09:43:36Z</time>
      </trkpt>
      <trkpt lat="42.46591" lon="2.87442">
        <ele>451</ele>
        <time>2024-09-22T09:43:39Z</time>
      </trkpt>
      <trkpt lat="42.46589" lon="2.87444">
        <ele>451</ele>
        <time>2024-09-22T09:43:43Z</time>
      </trkpt>
      <trkpt lat="42.46587" lon="2.87447">
        <ele>452</ele>
        <time>2024-09-22T09:43:48Z</time>
      </trkpt>
      <trkpt lat="42.46585" lon="2.8745">
        <ele>453</ele>
        <time>2024-09-22T09:43:52Z</time>
      </trkpt>
      <trkpt lat="42.46583" lon="2.87454">
        <ele>453</ele>
        <time>2024-09-22T09:43:56Z</time>
      </trkpt>
      <trkpt lat="42.46581" lon="2.87457">
        <ele>453</ele>
        <time>2024-09-22T09:43:58Z</time>
      </trkpt>
      <trkpt lat="42.4658" lon="2.8746">
        <ele>455</ele>
        <time>2024-09-22T09:44:03Z</time>
      </trkpt>
      <trkpt lat="42.46578" lon="2.87463">
        <ele>456</ele>
        <time>2024-09-22T09:44:10Z</time>
      </trkpt>
      <trkpt lat="42.46576" lon="2.87466">
        <ele>456</ele>
        <time>2024-09-22T09:44:13Z</time>
      </trkpt>
      <trkpt lat="42.46574" lon="2.87468">
        <ele>455</ele>
        <time>2024-09-22T09:44:16Z</time>
      </trkpt>
      <trkpt lat="42.46572" lon="2.87471">
        <ele>457</ele>
        <time>2024-09-22T09:44:19Z</time>
      </trkpt>
      <trkpt lat="42.4657" lon="2.87475">
        <ele>457</ele>
        <time>2024-09-22T09:44:24Z</time>
      </trkpt>
      <trkpt lat="42.46569" lon="2.87478">
        <ele>458</ele>
        <time>2024-09-22T09:44:27Z</time>
      </trkpt>
      <trkpt lat="42.46567" lon="2.87482">
        <ele>459</ele>
        <time>2024-09-22T09:44:31Z</time>
      </trkpt>
      <trkpt lat="42.46565" lon="2.87485">
        <ele>460</ele>
        <time>2024-09-22T09:44:34Z</time>
      </trkpt>
      <trkpt lat="42.46563" lon="2.87487">
        <ele>459</ele>
        <time>2024-09-22T09:44:38Z</time>
      </trkpt>
      <trkpt lat="42.46561" lon="2.87491">
        <ele>460</ele>
        <time>2024-09-22T09:44:42Z</time>
      </trkpt>
      <trkpt lat="42.46559" lon="2.87495">
        <ele>461</ele>
        <time>2024-09-22T09:44:46Z</time>
      </trkpt>
      <trkpt lat="42.46557" lon="2.87499">
        <ele>461</ele>
        <time>2024-09-22T09:44:50Z</time>
      </trkpt>
      <trkpt lat="42.46554" lon="2.87502">
        <ele>461</ele>
        <time>2024-09-22T09:44:53Z</time>
      </trkpt>
      <trkpt lat="42.46552" lon="2.87505">
        <ele>461</ele>
        <time>2024-09-22T09:44:58Z</time>
      </trkpt>
      <trkpt lat="42.4655" lon="2.87507">
        <ele>462</ele>
        <time>2024-09-22T09:45:01Z</time>
      </trkpt>
      <trkpt lat="42.46547" lon="2.87509">
        <ele>462</ele>
        <time>2024-09-22T09:45:05Z</time>
      </trkpt>
      <trkpt lat="42.46545" lon="2.87511">
        <ele>463</ele>
        <time>2024-09-22T09:45:08Z</time>
      </trkpt>
      <trkpt lat="42.46542" lon="2.87512">
        <ele>464</ele>
        <time>2024-09-22T09:45:12Z</time>
      </trkpt>
      <trkpt lat="42.4654" lon="2.87515">
        <ele>464</ele>
        <time>2024-09-22T09:45:16Z</time>
      </trkpt>
      <trkpt lat="42.46537" lon="2.87518">
        <ele>464</ele>
        <time>2024-09-22T09:45:20Z</time>
      </trkpt>
      <trkpt lat="42.46534" lon="2.87519">
        <ele>465</ele>
        <time>2024-09-22T09:45:23Z</time>
      </trkpt>
      <trkpt lat="42.46531" lon="2.87521">
        <ele>465</ele>
        <time>2024-09-22T09:45:27Z</time>
      </trkpt>
      <trkpt lat="42.46529" lon="2.87523">
        <ele>466</ele>
        <time>2024-09-22T09:45:30Z</time>
      </trkpt>
      <trkpt lat="42.46527" lon="2.87525">
        <ele>466</ele>
        <time>2024-09-22T09:45:32Z</time>
      </trkpt>
      <trkpt lat="42.46524" lon="2.87527">
        <ele>466</ele>
        <time>2024-09-22T09:45:38Z</time>
      </trkpt>
      <trkpt lat="42.46521" lon="2.8753">
        <ele>467</ele>
        <time>2024-09-22T09:45:42Z</time>
      </trkpt>
      <trkpt lat="42.46519" lon="2.87532">
        <ele>468</ele>
        <time>2024-09-22T09:45:47Z</time>
      </trkpt>
      <trkpt lat="42.46516" lon="2.87535">
        <ele>469</ele>
        <time>2024-09-22T09:45:52Z</time>
      </trkpt>
      <trkpt lat="42.46514" lon="2.87537">
        <ele>468</ele>
        <time>2024-09-22T09:45:56Z</time>
      </trkpt>
      <trkpt lat="42.46511" lon="2.87539">
        <ele>469</ele>
        <time>2024-09-22T09:46:01Z</time>
      </trkpt>
      <trkpt lat="42.46508" lon="2.8754">
        <ele>471</ele>
        <time>2024-09-22T09:46:06Z</time>
      </trkpt>
      <trkpt lat="42.46504" lon="2.87541">
        <ele>471</ele>
        <time>2024-09-22T09:46:09Z</time>
      </trkpt>
      <trkpt lat="42.46501" lon="2.87543">
        <ele>471</ele>
        <time>2024-09-22T09:46:14Z</time>
      </trkpt>
      <trkpt lat="42.46498" lon="2.87545">
        <ele>471</ele>
        <time>2024-09-22T09:46:18Z</time>
      </trkpt>
      <trkpt lat="42.46495" lon="2.87547">
        <ele>473</ele>
        <time>2024-09-22T09:46:23Z</time>
      </trkpt>
      <trkpt lat="42.46493" lon="2.87549">
        <ele>473</ele>
        <time>2024-09-22T09:46:27Z</time>
      </trkpt>
      <trkpt lat="42.4649" lon="2.87551">
        <ele>474</ele>
        <time>2024-09-22T09:46:30Z</time>
      </trkpt>
      <trkpt lat="42.46488" lon="2.87553">
        <ele>474</ele>
        <time>2024-09-22T09:46:33Z</time>
      </trkpt>
      <trkpt lat="42.46485" lon="2.87555">
        <ele>475</ele>
        <time>2024-09-22T09:46:37Z</time>
      </trkpt>
      <trkpt lat="42.46482" lon="2.87557">
        <ele>475</ele>
        <time>2024-09-22T09:46:40Z</time>
      </trkpt>
      <trkpt lat="42.4648" lon="2.8756">
        <ele>475</ele>
        <time>2024-09-22T09:46:44Z</time>
      </trkpt>
      <trkpt lat="42.46477" lon="2.87561">
        <ele>476</ele>
        <time>2024-09-22T09:46:51Z</time>
      </trkpt>
      <trkpt lat="42.46474" lon="2.87561">
        <ele>477</ele>
        <time>2024-09-22T09:46:55Z</time>
      </trkpt>
      <trkpt lat="42.4647" lon="2.87562">
        <ele>478</ele>
        <time>2024-09-22T09:46:59Z</time>
      </trkpt>
      <trkpt lat="42.46467" lon="2.87564">
        <ele>478</ele>
        <time>2024-09-22T09:47:05Z</time>
      </trkpt>
      <trkpt lat="42.46468" lon="2.87567">
        <ele>478</ele>
        <time>2024-09-22T09:47:40Z</time>
      </trkpt>
      <trkpt lat="42.4647" lon="2.87569">
        <ele>478</ele>
        <time>2024-09-22T09:47:45Z</time>
      </trkpt>
      <trkpt lat="42.46473" lon="2.8757">
        <ele>479</ele>
        <time>2024-09-22T09:48:56Z</time>
      </trkpt>
      <trkpt lat="42.46476" lon="2.87572">
        <ele>479</ele>
        <time>2024-09-22T09:49:00Z</time>
      </trkpt>
      <trkpt lat="42.46478" lon="2.87571">
        <ele>478</ele>
        <time>2024-09-22T09:49:20Z</time>
      </trkpt>
      <trkpt lat="42.46481" lon="2.87571">
        <ele>478</ele>
        <time>2024-09-22T09:49:27Z</time>
      </trkpt>
      <trkpt lat="42.46483" lon="2.87573">
        <ele>478</ele>
        <time>2024-09-22T09:49:36Z</time>
      </trkpt>
      <trkpt lat="42.46486" lon="2.87574">
        <ele>478</ele>
        <time>2024-09-22T09:49:39Z</time>
      </trkpt>
      <trkpt lat="42.46489" lon="2.87575">
        <ele>479</ele>
        <time>2024-09-22T09:49:41Z</time>
      </trkpt>
      <trkpt lat="42.46493" lon="2.87577">
        <ele>480</ele>
        <time>2024-09-22T09:49:44Z</time>
      </trkpt>
      <trkpt lat="42.46496" lon="2.87581">
        <ele>480</ele>
        <time>2024-09-22T09:49:48Z</time>
      </trkpt>
      <trkpt lat="42.46496" lon="2.87585">
        <ele>478</ele>
        <time>2024-09-22T09:49:52Z</time>
      </trkpt>
      <trkpt lat="42.46494" lon="2.87588">
        <ele>479</ele>
        <time>2024-09-22T09:49:55Z</time>
      </trkpt>
      <trkpt lat="42.46491" lon="2.87591">
        <ele>480</ele>
        <time>2024-09-22T09:49:58Z</time>
      </trkpt>
      <trkpt lat="42.46489" lon="2.87592">
        <ele>481</ele>
        <time>2024-09-22T09:50:02Z</time>
      </trkpt>
      <trkpt lat="42.46486" lon="2.87594">
        <ele>482</ele>
        <time>2024-09-22T09:50:06Z</time>
      </trkpt>
      <trkpt lat="42.46483" lon="2.87596">
        <ele>482</ele>
        <time>2024-09-22T09:50:15Z</time>
      </trkpt>
      <trkpt lat="42.4648" lon="2.87598">
        <ele>482</ele>
        <time>2024-09-22T09:50:20Z</time>
      </trkpt>
      <trkpt lat="42.46477" lon="2.876">
        <ele>483</ele>
        <time>2024-09-22T09:50:24Z</time>
      </trkpt>
      <trkpt lat="42.46474" lon="2.87601">
        <ele>483</ele>
        <time>2024-09-22T09:50:27Z</time>
      </trkpt>
      <trkpt lat="42.46471" lon="2.87603">
        <ele>483</ele>
        <time>2024-09-22T09:50:30Z</time>
      </trkpt>
      <trkpt lat="42.46467" lon="2.87606">
        <ele>483</ele>
        <time>2024-09-22T09:50:34Z</time>
      </trkpt>
      <trkpt lat="42.46464" lon="2.87607">
        <ele>483</ele>
        <time>2024-09-22T09:50:38Z</time>
      </trkpt>
      <trkpt lat="42.46461" lon="2.87611">
        <ele>483</ele>
        <time>2024-09-22T09:50:42Z</time>
      </trkpt>
      <trkpt lat="42.46459" lon="2.87614">
        <ele>484</ele>
        <time>2024-09-22T09:50:45Z</time>
      </trkpt>
      <trkpt lat="42.46457" lon="2.87616">
        <ele>485</ele>
        <time>2024-09-22T09:50:48Z</time>
      </trkpt>
      <trkpt lat="42.46454" lon="2.87619">
        <ele>484</ele>
        <time>2024-09-22T09:50:52Z</time>
      </trkpt>
      <trkpt lat="42.46452" lon="2.87622">
        <ele>486</ele>
        <time>2024-09-22T09:50:55Z</time>
      </trkpt>
      <trkpt lat="42.46451" lon="2.87626">
        <ele>488</ele>
        <time>2024-09-22T09:50:58Z</time>
      </trkpt>
      <trkpt lat="42.46451" lon="2.8763">
        <ele>488</ele>
        <time>2024-09-22T09:51:02Z</time>
      </trkpt>
      <trkpt lat="42.46451" lon="2.87634">
        <ele>488</ele>
        <time>2024-09-22T09:51:06Z</time>
      </trkpt>
      <trkpt lat="42.46451" lon="2.87638">
        <ele>489</ele>
        <time>2024-09-22T09:51:10Z</time>
      </trkpt>
      <trkpt lat="42.4645" lon="2.87642">
        <ele>489</ele>
        <time>2024-09-22T09:51:20Z</time>
      </trkpt>
      <trkpt lat="42.4645" lon="2.87646">
        <ele>490</ele>
        <time>2024-09-22T09:51:23Z</time>
      </trkpt>
      <trkpt lat="42.46449" lon="2.87648">
        <ele>490</ele>
        <time>2024-09-22T09:51:25Z</time>
      </trkpt>
      <trkpt lat="42.4645" lon="2.87651">
        <ele>491</ele>
        <time>2024-09-22T09:51:27Z</time>
      </trkpt>
      <trkpt lat="42.46451" lon="2.87654">
        <ele>492</ele>
        <time>2024-09-22T09:51:31Z</time>
      </trkpt>
      <trkpt lat="42.4645" lon="2.87657">
        <ele>493</ele>
        <time>2024-09-22T09:51:36Z</time>
      </trkpt>
      <trkpt lat="42.46449" lon="2.87661">
        <ele>493</ele>
        <time>2024-09-22T09:51:41Z</time>
      </trkpt>
      <trkpt lat="42.46447" lon="2.87664">
        <ele>493</ele>
        <time>2024-09-22T09:51:46Z</time>
      </trkpt>
      <trkpt lat="42.46446" lon="2.87668">
        <ele>493</ele>
        <time>2024-09-22T09:51:49Z</time>
      </trkpt>
      <trkpt lat="42.46447" lon="2.87672">
        <ele>494</ele>
        <time>2024-09-22T09:51:53Z</time>
      </trkpt>
      <trkpt lat="42.46446" lon="2.87677">
        <ele>495</ele>
        <time>2024-09-22T09:52:04Z</time>
      </trkpt>
      <trkpt lat="42.46445" lon="2.87679">
        <ele>496</ele>
        <time>2024-09-22T09:52:08Z</time>
      </trkpt>
      <trkpt lat="42.46443" lon="2.87683">
        <ele>497</ele>
        <time>2024-09-22T09:52:11Z</time>
      </trkpt>
      <trkpt lat="42.46442" lon="2.87687">
        <ele>497</ele>
        <time>2024-09-22T09:52:16Z</time>
      </trkpt>
      <trkpt lat="42.46442" lon="2.87692">
        <ele>498</ele>
        <time>2024-09-22T09:52:20Z</time>
      </trkpt>
      <trkpt lat="42.46442" lon="2.87696">
        <ele>498</ele>
        <time>2024-09-22T09:52:24Z</time>
      </trkpt>
      <trkpt lat="42.46442" lon="2.87701">
        <ele>499</ele>
        <time>2024-09-22T09:52:30Z</time>
      </trkpt>
      <trkpt lat="42.46443" lon="2.87705">
        <ele>500</ele>
        <time>2024-09-22T09:52:35Z</time>
      </trkpt>
      <trkpt lat="42.46441" lon="2.87709">
        <ele>501</ele>
        <time>2024-09-22T09:52:38Z</time>
      </trkpt>
      <trkpt lat="42.46441" lon="2.87714">
        <ele>501</ele>
        <time>2024-09-22T09:52:41Z</time>
      </trkpt>
      <trkpt lat="42.46442" lon="2.87718">
        <ele>503</ele>
        <time>2024-09-22T09:52:45Z</time>
      </trkpt>
      <trkpt lat="42.46442" lon="2.87722">
        <ele>504</ele>
        <time>2024-09-22T09:52:48Z</time>
      </trkpt>
      <trkpt lat="42.46441" lon="2.87726">
        <ele>506</ele>
        <time>2024-09-22T09:52:54Z</time>
      </trkpt>
      <trkpt lat="42.4644" lon="2.8773">
        <ele>506</ele>
        <time>2024-09-22T09:52:58Z</time>
      </trkpt>
      <trkpt lat="42.4644" lon="2.87734">
        <ele>507</ele>
        <time>2024-09-22T09:53:02Z</time>
      </trkpt>
      <trkpt lat="42.4644" lon="2.87738">
        <ele>506</ele>
        <time>2024-09-22T09:53:06Z</time>
      </trkpt>
      <trkpt lat="42.46438" lon="2.87743">
        <ele>506</ele>
        <time>2024-09-22T09:53:11Z</time>
      </trkpt>
      <trkpt lat="42.46437" lon="2.87747">
        <ele>508</ele>
        <time>2024-09-22T09:53:16Z</time>
      </trkpt>
      <trkpt lat="42.46439" lon="2.8775">
        <ele>509</ele>
        <time>2024-09-22T09:53:19Z</time>
      </trkpt>
      <trkpt lat="42.46438" lon="2.87753">
        <ele>510</ele>
        <time>2024-09-22T09:53:22Z</time>
      </trkpt>
      <trkpt lat="42.46437" lon="2.87757">
        <ele>512</ele>
        <time>2024-09-22T09:53:27Z</time>
      </trkpt>
      <trkpt lat="42.46436" lon="2.8776">
        <ele>514</ele>
        <time>2024-09-22T09:53:46Z</time>
      </trkpt>
      <trkpt lat="42.46437" lon="2.87764">
        <ele>513</ele>
        <time>2024-09-22T09:53:52Z</time>
      </trkpt>
      <trkpt lat="42.46437" lon="2.87768">
        <ele>514</ele>
        <time>2024-09-22T09:53:55Z</time>
      </trkpt>
      <trkpt lat="42.46437" lon="2.87771">
        <ele>513</ele>
        <time>2024-09-22T09:54:07Z</time>
      </trkpt>
      <trkpt lat="42.46436" lon="2.87775">
        <ele>514</ele>
        <time>2024-09-22T09:54:12Z</time>
      </trkpt>
      <trkpt lat="42.46436" lon="2.8778">
        <ele>517</ele>
        <time>2024-09-22T09:54:19Z</time>
      </trkpt>
      <trkpt lat="42.46435" lon="2.87784">
        <ele>517</ele>
        <time>2024-09-22T09:54:23Z</time>
      </trkpt>
      <trkpt lat="42.46435" lon="2.87789">
        <ele>518</ele>
        <time>2024-09-22T09:54:28Z</time>
      </trkpt>
      <trkpt lat="42.46435" lon="2.87793">
        <ele>520</ele>
        <time>2024-09-22T09:54:32Z</time>
      </trkpt>
      <trkpt lat="42.46435" lon="2.87798">
        <ele>520</ele>
        <time>2024-09-22T09:54:38Z</time>
      </trkpt>
      <trkpt lat="42.46434" lon="2.87802">
        <ele>521</ele>
        <time>2024-09-22T09:54:42Z</time>
      </trkpt>
      <trkpt lat="42.46434" lon="2.87807">
        <ele>522</ele>
        <time>2024-09-22T09:54:47Z</time>
      </trkpt>
      <trkpt lat="42.46436" lon="2.87811">
        <ele>521</ele>
        <time>2024-09-22T09:54:52Z</time>
      </trkpt>
      <trkpt lat="42.46437" lon="2.87815">
        <ele>522</ele>
        <time>2024-09-22T09:54:55Z</time>
      </trkpt>
      <trkpt lat="42.46437" lon="2.8782">
        <ele>521</ele>
        <time>2024-09-22T09:54:58Z</time>
      </trkpt>
      <trkpt lat="42.46436" lon="2.87823">
        <ele>520</ele>
        <time>2024-09-22T09:55:01Z</time>
      </trkpt>
      <trkpt lat="42.46436" lon="2.87827">
        <ele>521</ele>
        <time>2024-09-22T09:55:04Z</time>
      </trkpt>
      <trkpt lat="42.46436" lon="2.87831">
        <ele>522</ele>
        <time>2024-09-22T09:55:08Z</time>
      </trkpt>
      <trkpt lat="42.46436" lon="2.87835">
        <ele>522</ele>
        <time>2024-09-22T09:55:11Z</time>
      </trkpt>
      <trkpt lat="42.46435" lon="2.87839">
        <ele>523</ele>
        <time>2024-09-22T09:55:15Z</time>
      </trkpt>
      <trkpt lat="42.46433" lon="2.87842">
        <ele>523</ele>
        <time>2024-09-22T09:55:17Z</time>
      </trkpt>
      <trkpt lat="42.46431" lon="2.87846">
        <ele>523</ele>
        <time>2024-09-22T09:55:22Z</time>
      </trkpt>
      <trkpt lat="42.46429" lon="2.8785">
        <ele>523</ele>
        <time>2024-09-22T09:55:27Z</time>
      </trkpt>
      <trkpt lat="42.46427" lon="2.87853">
        <ele>524</ele>
        <time>2024-09-22T09:55:29Z</time>
      </trkpt>
      <trkpt lat="42.46426" lon="2.87857">
        <ele>523</ele>
        <time>2024-09-22T09:55:32Z</time>
      </trkpt>
      <trkpt lat="42.46425" lon="2.87861">
        <ele>523</ele>
        <time>2024-09-22T09:55:35Z</time>
      </trkpt>
      <trkpt lat="42.46425" lon="2.87866">
        <ele>524</ele>
        <time>2024-09-22T09:55:38Z</time>
      </trkpt>
      <trkpt lat="42.46425" lon="2.8787">
        <ele>524</ele>
        <time>2024-09-22T09:55:41Z</time>
      </trkpt>
      <trkpt lat="42.46424" lon="2.87875">
        <ele>524</ele>
        <time>2024-09-22T09:55:44Z</time>
      </trkpt>
      <trkpt lat="42.46424" lon="2.87879">
        <ele>523</ele>
        <time>2024-09-22T09:55:47Z</time>
      </trkpt>
      <trkpt lat="42.46423" lon="2.87883">
        <ele>524</ele>
        <time>2024-09-22T09:55:50Z</time>
      </trkpt>
      <trkpt lat="42.46421" lon="2.87888">
        <ele>523</ele>
        <time>2024-09-22T09:55:54Z</time>
      </trkpt>
      <trkpt lat="42.46419" lon="2.87892">
        <ele>523</ele>
        <time>2024-09-22T09:55:56Z</time>
      </trkpt>
      <trkpt lat="42.46417" lon="2.87895">
        <ele>524</ele>
        <time>2024-09-22T09:56:00Z</time>
      </trkpt>
      <trkpt lat="42.46415" lon="2.87898">
        <ele>522</ele>
        <time>2024-09-22T09:56:02Z</time>
      </trkpt>
      <trkpt lat="42.46413" lon="2.87901">
        <ele>523</ele>
        <time>2024-09-22T09:56:04Z</time>
      </trkpt>
      <trkpt lat="42.46412" lon="2.87905">
        <ele>522</ele>
        <time>2024-09-22T09:56:10Z</time>
      </trkpt>
      <trkpt lat="42.4641" lon="2.87908">
        <ele>522</ele>
        <time>2024-09-22T09:56:13Z</time>
      </trkpt>
      <trkpt lat="42.46408" lon="2.87911">
        <ele>522</ele>
        <time>2024-09-22T09:56:15Z</time>
      </trkpt>
      <trkpt lat="42.46406" lon="2.87915">
        <ele>521</ele>
        <time>2024-09-22T09:56:18Z</time>
      </trkpt>
      <trkpt lat="42.46404" lon="2.87919">
        <ele>522</ele>
        <time>2024-09-22T09:56:21Z</time>
      </trkpt>
      <trkpt lat="42.46402" lon="2.87921">
        <ele>523</ele>
        <time>2024-09-22T09:56:23Z</time>
      </trkpt>
      <trkpt lat="42.46399" lon="2.87924">
        <ele>522</ele>
        <time>2024-09-22T09:56:28Z</time>
      </trkpt>
      <trkpt lat="42.46399" lon="2.87928">
        <ele>524</ele>
        <time>2024-09-22T09:56:43Z</time>
      </trkpt>
      <trkpt lat="42.46398" lon="2.87932">
        <ele>524</ele>
        <time>2024-09-22T09:56:59Z</time>
      </trkpt>
      <trkpt lat="42.46399" lon="2.87937">
        <ele>525</ele>
        <time>2024-09-22T09:57:01Z</time>
      </trkpt>
      <trkpt lat="42.46399" lon="2.8794">
        <ele>523</ele>
        <time>2024-09-22T09:57:05Z</time>
      </trkpt>
      <trkpt lat="42.46397" lon="2.87944">
        <ele>524</ele>
        <time>2024-09-22T09:57:08Z</time>
      </trkpt>
      <trkpt lat="42.46398" lon="2.87948">
        <ele>523</ele>
        <time>2024-09-22T09:57:12Z</time>
      </trkpt>
      <trkpt lat="42.46398" lon="2.87952">
        <ele>523</ele>
        <time>2024-09-22T09:57:15Z</time>
      </trkpt>
      <trkpt lat="42.46398" lon="2.87956">
        <ele>523</ele>
        <time>2024-09-22T09:57:17Z</time>
      </trkpt>
      <trkpt lat="42.46397" lon="2.87959">
        <ele>523</ele>
        <time>2024-09-22T09:57:20Z</time>
      </trkpt>
      <trkpt lat="42.46396" lon="2.87963">
        <ele>525</ele>
        <time>2024-09-22T09:57:25Z</time>
      </trkpt>
      <trkpt lat="42.46397" lon="2.87968">
        <ele>525</ele>
        <time>2024-09-22T09:57:30Z</time>
      </trkpt>
      <trkpt lat="42.46395" lon="2.87972">
        <ele>525</ele>
        <time>2024-09-22T09:57:33Z</time>
      </trkpt>
      <trkpt lat="42.46394" lon="2.87976">
        <ele>527</ele>
        <time>2024-09-22T09:57:35Z</time>
      </trkpt>
      <trkpt lat="42.46395" lon="2.8798">
        <ele>526</ele>
        <time>2024-09-22T09:57:38Z</time>
      </trkpt>
      <trkpt lat="42.46395" lon="2.87984">
        <ele>526</ele>
        <time>2024-09-22T09:57:42Z</time>
      </trkpt>
      <trkpt lat="42.46394" lon="2.87988">
        <ele>527</ele>
        <time>2024-09-22T09:57:45Z</time>
      </trkpt>
      <trkpt lat="42.46394" lon="2.87992">
        <ele>527</ele>
        <time>2024-09-22T09:57:49Z</time>
      </trkpt>
      <trkpt lat="42.46392" lon="2.87997">
        <ele>528</ele>
        <time>2024-09-22T09:57:54Z</time>
      </trkpt>
      <trkpt lat="42.46391" lon="2.88001">
        <ele>528</ele>
        <time>2024-09-22T09:57:56Z</time>
      </trkpt>
      <trkpt lat="42.46389" lon="2.88006">
        <ele>528</ele>
        <time>2024-09-22T09:58:00Z</time>
      </trkpt>
      <trkpt lat="42.46387" lon="2.88009">
        <ele>529</ele>
        <time>2024-09-22T09:58:03Z</time>
      </trkpt>
      <trkpt lat="42.46385" lon="2.88014">
        <ele>529</ele>
        <time>2024-09-22T09:58:06Z</time>
      </trkpt>
      <trkpt lat="42.46383" lon="2.88017">
        <ele>530</ele>
        <time>2024-09-22T09:58:10Z</time>
      </trkpt>
      <trkpt lat="42.46382" lon="2.88021">
        <ele>531</ele>
        <time>2024-09-22T09:58:13Z</time>
      </trkpt>
      <trkpt lat="42.4638" lon="2.88025">
        <ele>532</ele>
        <time>2024-09-22T09:58:15Z</time>
      </trkpt>
      <trkpt lat="42.46378" lon="2.88027">
        <ele>533</ele>
        <time>2024-09-22T09:58:20Z</time>
      </trkpt>
      <trkpt lat="42.46376" lon="2.88032">
        <ele>534</ele>
        <time>2024-09-22T09:58:24Z</time>
      </trkpt>
      <trkpt lat="42.46374" lon="2.88035">
        <ele>535</ele>
        <time>2024-09-22T09:58:29Z</time>
      </trkpt>
      <trkpt lat="42.46372" lon="2.88038">
        <ele>535</ele>
        <time>2024-09-22T09:58:31Z</time>
      </trkpt>
      <trkpt lat="42.46371" lon="2.88042">
        <ele>535</ele>
        <time>2024-09-22T09:58:37Z</time>
      </trkpt>
      <trkpt lat="42.46369" lon="2.88046">
        <ele>536</ele>
        <time>2024-09-22T09:58:40Z</time>
      </trkpt>
      <trkpt lat="42.46367" lon="2.88049">
        <ele>536</ele>
        <time>2024-09-22T09:58:44Z</time>
      </trkpt>
      <trkpt lat="42.46365" lon="2.88053">
        <ele>537</ele>
        <time>2024-09-22T09:58:48Z</time>
      </trkpt>
      <trkpt lat="42.46364" lon="2.88057">
        <ele>536</ele>
        <time>2024-09-22T09:58:51Z</time>
      </trkpt>
      <trkpt lat="42.46362" lon="2.8806">
        <ele>537</ele>
        <time>2024-09-22T09:58:55Z</time>
      </trkpt>
      <trkpt lat="42.46361" lon="2.88064">
        <ele>538</ele>
        <time>2024-09-22T09:59:01Z</time>
      </trkpt>
      <trkpt lat="42.4636" lon="2.88068">
        <ele>539</ele>
        <time>2024-09-22T09:59:04Z</time>
      </trkpt>
      <trkpt lat="42.46359" lon="2.88072">
        <ele>539</ele>
        <time>2024-09-22T09:59:07Z</time>
      </trkpt>
      <trkpt lat="42.46358" lon="2.88076">
        <ele>539</ele>
        <time>2024-09-22T09:59:12Z</time>
      </trkpt>
      <trkpt lat="42.46357" lon="2.88079">
        <ele>540</ele>
        <time>2024-09-22T09:59:15Z</time>
      </trkpt>
      <trkpt lat="42.46356" lon="2.88082">
        <ele>540</ele>
        <time>2024-09-22T09:59:18Z</time>
      </trkpt>
      <trkpt lat="42.46355" lon="2.88086">
        <ele>540</ele>
        <time>2024-09-22T09:59:22Z</time>
      </trkpt>
      <trkpt lat="42.46353" lon="2.88089">
        <ele>542</ele>
        <time>2024-09-22T09:59:26Z</time>
      </trkpt>
      <trkpt lat="42.46351" lon="2.88092">
        <ele>541</ele>
        <time>2024-09-22T09:59:30Z</time>
      </trkpt>
      <trkpt lat="42.46348" lon="2.88096">
        <ele>541</ele>
        <time>2024-09-22T09:59:33Z</time>
      </trkpt>
      <trkpt lat="42.46345" lon="2.88098">
        <ele>541</ele>
        <time>2024-09-22T09:59:38Z</time>
      </trkpt>
      <trkpt lat="42.46342" lon="2.88101">
        <ele>542</ele>
        <time>2024-09-22T09:59:42Z</time>
      </trkpt>
      <trkpt lat="42.46338" lon="2.88102">
        <ele>544</ele>
        <time>2024-09-22T09:59:46Z</time>
      </trkpt>
      <trkpt lat="42.46336" lon="2.88104">
        <ele>544</ele>
        <time>2024-09-22T09:59:51Z</time>
      </trkpt>
      <trkpt lat="42.46333" lon="2.88106">
        <ele>544</ele>
        <time>2024-09-22T09:59:52Z</time>
      </trkpt>
      <trkpt lat="42.46331" lon="2.88109">
        <ele>545</ele>
        <time>2024-09-22T09:59:58Z</time>
      </trkpt>
      <trkpt lat="42.46328" lon="2.88111">
        <ele>546</ele>
        <time>2024-09-22T10:00:02Z</time>
      </trkpt>
      <trkpt lat="42.46325" lon="2.88113">
        <ele>545</ele>
        <time>2024-09-22T10:00:06Z</time>
      </trkpt>
      <trkpt lat="42.46323" lon="2.88117">
        <ele>546</ele>
        <time>2024-09-22T10:00:11Z</time>
      </trkpt>
      <trkpt lat="42.4632" lon="2.88117">
        <ele>547</ele>
        <time>2024-09-22T10:00:15Z</time>
      </trkpt>
      <trkpt lat="42.46317" lon="2.88119">
        <ele>547</ele>
        <time>2024-09-22T10:00:18Z</time>
      </trkpt>
      <trkpt lat="42.46316" lon="2.88123">
        <ele>548</ele>
        <time>2024-09-22T10:00:21Z</time>
      </trkpt>
      <trkpt lat="42.46315" lon="2.88127">
        <ele>550</ele>
        <time>2024-09-22T10:00:27Z</time>
      </trkpt>
      <trkpt lat="42.46313" lon="2.88129">
        <ele>550</ele>
        <time>2024-09-22T10:00:30Z</time>
      </trkpt>
      <trkpt lat="42.4631" lon="2.88131">
        <ele>550</ele>
        <time>2024-09-22T10:00:35Z</time>
      </trkpt>
      <trkpt lat="42.46308" lon="2.88132">
        <ele>550</ele>
        <time>2024-09-22T10:00:37Z</time>
      </trkpt>
      <trkpt lat="42.46305" lon="2.88134">
        <ele>550</ele>
        <time>2024-09-22T10:00:40Z</time>
      </trkpt>
      <trkpt lat="42.46303" lon="2.88136">
        <ele>551</ele>
        <time>2024-09-22T10:00:44Z</time>
      </trkpt>
      <trkpt lat="42.463" lon="2.88139">
        <ele>551</ele>
        <time>2024-09-22T10:00:47Z</time>
      </trkpt>
      <trkpt lat="42.46298" lon="2.88142">
        <ele>552</ele>
        <time>2024-09-22T10:00:56Z</time>
      </trkpt>
      <trkpt lat="42.46296" lon="2.88145">
        <ele>555</ele>
        <time>2024-09-22T10:01:01Z</time>
      </trkpt>
      <trkpt lat="42.46294" lon="2.88146">
        <ele>556</ele>
        <time>2024-09-22T10:01:05Z</time>
      </trkpt>
      <trkpt lat="42.46292" lon="2.88149">
        <ele>555</ele>
        <time>2024-09-22T10:01:08Z</time>
      </trkpt>
      <trkpt lat="42.4629" lon="2.88153">
        <ele>555</ele>
        <time>2024-09-22T10:01:10Z</time>
      </trkpt>
      <trkpt lat="42.4629" lon="2.88157">
        <ele>555</ele>
        <time>2024-09-22T10:01:13Z</time>
      </trkpt>
      <trkpt lat="42.46289" lon="2.88162">
        <ele>555</ele>
        <time>2024-09-22T10:01:16Z</time>
      </trkpt>
      <trkpt lat="42.46289" lon="2.88166">
        <ele>554</ele>
        <time>2024-09-22T10:01:19Z</time>
      </trkpt>
      <trkpt lat="42.46288" lon="2.88171">
        <ele>555</ele>
        <time>2024-09-22T10:01:23Z</time>
      </trkpt>
      <trkpt lat="42.46286" lon="2.88175">
        <ele>556</ele>
        <time>2024-09-22T10:01:26Z</time>
      </trkpt>
      <trkpt lat="42.46285" lon="2.88179">
        <ele>556</ele>
        <time>2024-09-22T10:01:29Z</time>
      </trkpt>
      <trkpt lat="42.46284" lon="2.88183">
        <ele>556</ele>
        <time>2024-09-22T10:01:58Z</time>
      </trkpt>
      <trkpt lat="42.46283" lon="2.88188">
        <ele>556</ele>
        <time>2024-09-22T10:02:00Z</time>
      </trkpt>
      <trkpt lat="42.46283" lon="2.88192">
        <ele>556</ele>
        <time>2024-09-22T10:02:03Z</time>
      </trkpt>
      <trkpt lat="42.46283" lon="2.88196">
        <ele>556</ele>
        <time>2024-09-22T10:02:05Z</time>
      </trkpt>
      <trkpt lat="42.46282" lon="2.882">
        <ele>556</ele>
        <time>2024-09-22T10:02:08Z</time>
      </trkpt>
      <trkpt lat="42.46281" lon="2.88203">
        <ele>557</ele>
        <time>2024-09-22T10:02:11Z</time>
      </trkpt>
      <trkpt lat="42.4628" lon="2.88208">
        <ele>558</ele>
        <time>2024-09-22T10:02:15Z</time>
      </trkpt>
      <trkpt lat="42.46278" lon="2.88212">
        <ele>558</ele>
        <time>2024-09-22T10:02:18Z</time>
      </trkpt>
      <trkpt lat="42.46277" lon="2.88215">
        <ele>558</ele>
        <time>2024-09-22T10:02:21Z</time>
      </trkpt>
      <trkpt lat="42.46274" lon="2.88218">
        <ele>557</ele>
        <time>2024-09-22T10:02:25Z</time>
      </trkpt>
      <trkpt lat="42.46272" lon="2.88223">
        <ele>557</ele>
        <time>2024-09-22T10:02:29Z</time>
      </trkpt>
      <trkpt lat="42.4627" lon="2.88226">
        <ele>557</ele>
        <time>2024-09-22T10:02:33Z</time>
      </trkpt>
      <trkpt lat="42.46267" lon="2.8823">
        <ele>557</ele>
        <time>2024-09-22T10:02:37Z</time>
      </trkpt>
      <trkpt lat="42.46265" lon="2.88233">
        <ele>558</ele>
        <time>2024-09-22T10:02:42Z</time>
      </trkpt>
      <trkpt lat="42.46262" lon="2.88236">
        <ele>559</ele>
        <time>2024-09-22T10:02:45Z</time>
      </trkpt>
      <trkpt lat="42.4626" lon="2.88239">
        <ele>559</ele>
        <time>2024-09-22T10:02:49Z</time>
      </trkpt>
      <trkpt lat="42.46257" lon="2.88241">
        <ele>560</ele>
        <time>2024-09-22T10:02:52Z</time>
      </trkpt>
      <trkpt lat="42.46255" lon="2.88244">
        <ele>561</ele>
        <time>2024-09-22T10:02:55Z</time>
      </trkpt>
      <trkpt lat="42.46253" lon="2.88248">
        <ele>561</ele>
        <time>2024-09-22T10:02:58Z</time>
      </trkpt>
      <trkpt lat="42.46251" lon="2.88252">
        <ele>561</ele>
        <time>2024-09-22T10:03:01Z</time>
      </trkpt>
      <trkpt lat="42.46249" lon="2.88255">
        <ele>562</ele>
        <time>2024-09-22T10:03:04Z</time>
      </trkpt>
      <trkpt lat="42.46247" lon="2.88259">
        <ele>562</ele>
        <time>2024-09-22T10:03:08Z</time>
      </trkpt>
      <trkpt lat="42.46246" lon="2.88264">
        <ele>562</ele>
        <time>2024-09-22T10:03:11Z</time>
      </trkpt>
      <trkpt lat="42.46244" lon="2.88267">
        <ele>562</ele>
        <time>2024-09-22T10:03:14Z</time>
      </trkpt>
      <trkpt lat="42.46242" lon="2.88272">
        <ele>563</ele>
        <time>2024-09-22T10:03:17Z</time>
      </trkpt>
      <trkpt lat="42.4624" lon="2.88275">
        <ele>564</ele>
        <time>2024-09-22T10:03:22Z</time>
      </trkpt>
      <trkpt lat="42.46238" lon="2.88279">
        <ele>564</ele>
        <time>2024-09-22T10:03:25Z</time>
      </trkpt>
      <trkpt lat="42.46236" lon="2.88283">
        <ele>565</ele>
        <time>2024-09-22T10:03:27Z</time>
      </trkpt>
      <trkpt lat="42.46236" lon="2.88286">
        <ele>565</ele>
        <time>2024-09-22T10:03:30Z</time>
      </trkpt>
      <trkpt lat="42.46235" lon="2.88291">
        <ele>565</ele>
        <time>2024-09-22T10:03:32Z</time>
      </trkpt>
      <trkpt lat="42.46233" lon="2.88295">
        <ele>566</ele>
        <time>2024-09-22T10:03:38Z</time>
      </trkpt>
      <trkpt lat="42.46232" lon="2.883">
        <ele>567</ele>
        <time>2024-09-22T10:03:41Z</time>
      </trkpt>
      <trkpt lat="42.46231" lon="2.88304">
        <ele>567</ele>
        <time>2024-09-22T10:03:45Z</time>
      </trkpt>
      <trkpt lat="42.46229" lon="2.88308">
        <ele>567</ele>
        <time>2024-09-22T10:03:49Z</time>
      </trkpt>
      <trkpt lat="42.46227" lon="2.88312">
        <ele>566</ele>
        <time>2024-09-22T10:03:53Z</time>
      </trkpt>
      <trkpt lat="42.46225" lon="2.88316">
        <ele>568</ele>
        <time>2024-09-22T10:03:56Z</time>
      </trkpt>
      <trkpt lat="42.46225" lon="2.88321">
        <ele>568</ele>
        <time>2024-09-22T10:03:59Z</time>
      </trkpt>
      <trkpt lat="42.46226" lon="2.88325">
        <ele>568</ele>
        <time>2024-09-22T10:04:02Z</time>
      </trkpt>
      <trkpt lat="42.46227" lon="2.8833">
        <ele>569</ele>
        <time>2024-09-22T10:04:06Z</time>
      </trkpt>
      <trkpt lat="42.46228" lon="2.88335">
        <ele>569</ele>
        <time>2024-09-22T10:04:10Z</time>
      </trkpt>
      <trkpt lat="42.46229" lon="2.88339">
        <ele>568</ele>
        <time>2024-09-22T10:04:14Z</time>
      </trkpt>
      <trkpt lat="42.46231" lon="2.88343">
        <ele>568</ele>
        <time>2024-09-22T10:04:17Z</time>
      </trkpt>
      <trkpt lat="42.46232" lon="2.88347">
        <ele>568</ele>
        <time>2024-09-22T10:04:20Z</time>
      </trkpt>
      <trkpt lat="42.46233" lon="2.88352">
        <ele>568</ele>
        <time>2024-09-22T10:04:23Z</time>
      </trkpt>
      <trkpt lat="42.46234" lon="2.88356">
        <ele>569</ele>
        <time>2024-09-22T10:04:26Z</time>
      </trkpt>
      <trkpt lat="42.46234" lon="2.8836">
        <ele>569</ele>
        <time>2024-09-22T10:04:29Z</time>
      </trkpt>
      <trkpt lat="42.46235" lon="2.88364">
        <ele>569</ele>
        <time>2024-09-22T10:04:32Z</time>
      </trkpt>
      <trkpt lat="42.46235" lon="2.88369">
        <ele>569</ele>
        <time>2024-09-22T10:04:37Z</time>
      </trkpt>
      <trkpt lat="42.46234" lon="2.88373">
        <ele>570</ele>
        <time>2024-09-22T10:04:40Z</time>
      </trkpt>
      <trkpt lat="42.46234" lon="2.88377">
        <ele>570</ele>
        <time>2024-09-22T10:04:43Z</time>
      </trkpt>
      <trkpt lat="42.46234" lon="2.88382">
        <ele>571</ele>
        <time>2024-09-22T10:04:47Z</time>
      </trkpt>
      <trkpt lat="42.46233" lon="2.88386">
        <ele>570</ele>
        <time>2024-09-22T10:04:50Z</time>
      </trkpt>
      <trkpt lat="42.46232" lon="2.88391">
        <ele>571</ele>
        <time>2024-09-22T10:04:53Z</time>
      </trkpt>
      <trkpt lat="42.46233" lon="2.88394">
        <ele>571</ele>
        <time>2024-09-22T10:04:55Z</time>
      </trkpt>
      <trkpt lat="42.46232" lon="2.88399">
        <ele>572</ele>
        <time>2024-09-22T10:04:59Z</time>
      </trkpt>
      <trkpt lat="42.46231" lon="2.88404">
        <ele>572</ele>
        <time>2024-09-22T10:05:03Z</time>
      </trkpt>
      <trkpt lat="42.46231" lon="2.88408">
        <ele>573</ele>
        <time>2024-09-22T10:05:07Z</time>
      </trkpt>
      <trkpt lat="42.46231" lon="2.88413">
        <ele>573</ele>
        <time>2024-09-22T10:05:10Z</time>
      </trkpt>
      <trkpt lat="42.46231" lon="2.88418">
        <ele>573</ele>
        <time>2024-09-22T10:05:14Z</time>
      </trkpt>
      <trkpt lat="42.4623" lon="2.88422">
        <ele>573</ele>
        <time>2024-09-22T10:05:17Z</time>
      </trkpt>
      <trkpt lat="42.4623" lon="2.88426">
        <ele>574</ele>
        <time>2024-09-22T10:05:19Z</time>
      </trkpt>
      <trkpt lat="42.4623" lon="2.88431">
        <ele>574</ele>
        <time>2024-09-22T10:05:24Z</time>
      </trkpt>
      <trkpt lat="42.4623" lon="2.88435">
        <ele>575</ele>
        <time>2024-09-22T10:05:27Z</time>
      </trkpt>
      <trkpt lat="42.4623" lon="2.88439">
        <ele>575</ele>
        <time>2024-09-22T10:05:31Z</time>
      </trkpt>
      <trkpt lat="42.46229" lon="2.88443">
        <ele>575</ele>
        <time>2024-09-22T10:05:35Z</time>
      </trkpt>
      <trkpt lat="42.46228" lon="2.88447">
        <ele>576</ele>
        <time>2024-09-22T10:05:38Z</time>
      </trkpt>
      <trkpt lat="42.46227" lon="2.88452">
        <ele>576</ele>
        <time>2024-09-22T10:05:42Z</time>
      </trkpt>
      <trkpt lat="42.46224" lon="2.88455">
        <ele>576</ele>
        <time>2024-09-22T10:05:46Z</time>
      </trkpt>
      <trkpt lat="42.46222" lon="2.88458">
        <ele>578</ele>
        <time>2024-09-22T10:05:50Z</time>
      </trkpt>
      <trkpt lat="42.4622" lon="2.88462">
        <ele>578</ele>
        <time>2024-09-22T10:05:59Z</time>
      </trkpt>
      <trkpt lat="42.46218" lon="2.88466">
        <ele>578</ele>
        <time>2024-09-22T10:06:02Z</time>
      </trkpt>
      <trkpt lat="42.46215" lon="2.8847">
        <ele>579</ele>
        <time>2024-09-22T10:06:06Z</time>
      </trkpt>
      <trkpt lat="42.46213" lon="2.88473">
        <ele>579</ele>
        <time>2024-09-22T10:06:07Z</time>
      </trkpt>
      <trkpt lat="42.4621" lon="2.88476">
        <ele>580</ele>
        <time>2024-09-22T10:06:11Z</time>
      </trkpt>
      <trkpt lat="42.46207" lon="2.88478">
        <ele>578</ele>
        <time>2024-09-22T10:06:15Z</time>
      </trkpt>
      <trkpt lat="42.46204" lon="2.8848">
        <ele>579</ele>
        <time>2024-09-22T10:06:18Z</time>
      </trkpt>
      <trkpt lat="42.46201" lon="2.88481">
        <ele>580</ele>
        <time>2024-09-22T10:06:20Z</time>
      </trkpt>
      <trkpt lat="42.46199" lon="2.88484">
        <ele>580</ele>
        <time>2024-09-22T10:06:24Z</time>
      </trkpt>
      <trkpt lat="42.46197" lon="2.88486">
        <ele>581</ele>
        <time>2024-09-22T10:06:26Z</time>
      </trkpt>
      <trkpt lat="42.46195" lon="2.88489">
        <ele>581</ele>
        <time>2024-09-22T10:06:30Z</time>
      </trkpt>
      <trkpt lat="42.46192" lon="2.88491">
        <ele>581</ele>
        <time>2024-09-22T10:06:32Z</time>
      </trkpt>
      <trkpt lat="42.4619" lon="2.88495">
        <ele>582</ele>
        <time>2024-09-22T10:06:35Z</time>
      </trkpt>
      <trkpt lat="42.46187" lon="2.88498">
        <ele>583</ele>
        <time>2024-09-22T10:06:38Z</time>
      </trkpt>
      <trkpt lat="42.46185" lon="2.88501">
        <ele>584</ele>
        <time>2024-09-22T10:06:41Z</time>
      </trkpt>
      <trkpt lat="42.46183" lon="2.88504">
        <ele>584</ele>
        <time>2024-09-22T10:06:44Z</time>
      </trkpt>
      <trkpt lat="42.4618" lon="2.88506">
        <ele>585</ele>
        <time>2024-09-22T10:06:47Z</time>
      </trkpt>
      <trkpt lat="42.46177" lon="2.88508">
        <ele>583</ele>
        <time>2024-09-22T10:06:51Z</time>
      </trkpt>
      <trkpt lat="42.46175" lon="2.88511">
        <ele>585</ele>
        <time>2024-09-22T10:06:53Z</time>
      </trkpt>
      <trkpt lat="42.46172" lon="2.88513">
        <ele>586</ele>
        <time>2024-09-22T10:06:57Z</time>
      </trkpt>
      <trkpt lat="42.46169" lon="2.88516">
        <ele>586</ele>
        <time>2024-09-22T10:07:00Z</time>
      </trkpt>
      <trkpt lat="42.46168" lon="2.88519">
        <ele>586</ele>
        <time>2024-09-22T10:07:05Z</time>
      </trkpt>
      <trkpt lat="42.46165" lon="2.88523">
        <ele>588</ele>
        <time>2024-09-22T10:07:08Z</time>
      </trkpt>
      <trkpt lat="42.46163" lon="2.88527">
        <ele>588</ele>
        <time>2024-09-22T10:07:11Z</time>
      </trkpt>
      <trkpt lat="42.46161" lon="2.8853">
        <ele>588</ele>
        <time>2024-09-22T10:07:13Z</time>
      </trkpt>
      <trkpt lat="42.46158" lon="2.88533">
        <ele>587</ele>
        <time>2024-09-22T10:07:18Z</time>
      </trkpt>
      <trkpt lat="42.46155" lon="2.88537">
        <ele>588</ele>
        <time>2024-09-22T10:07:21Z</time>
      </trkpt>
      <trkpt lat="42.46153" lon="2.88542">
        <ele>588</ele>
        <time>2024-09-22T10:07:26Z</time>
      </trkpt>
      <trkpt lat="42.46152" lon="2.88546">
        <ele>590</ele>
        <time>2024-09-22T10:07:29Z</time>
      </trkpt>
      <trkpt lat="42.4615" lon="2.8855">
        <ele>589</ele>
        <time>2024-09-22T10:07:32Z</time>
      </trkpt>
      <trkpt lat="42.4615" lon="2.88554">
        <ele>589</ele>
        <time>2024-09-22T10:07:35Z</time>
      </trkpt>
      <trkpt lat="42.46148" lon="2.88558">
        <ele>590</ele>
        <time>2024-09-22T10:07:38Z</time>
      </trkpt>
      <trkpt lat="42.46147" lon="2.88562">
        <ele>589</ele>
        <time>2024-09-22T10:07:41Z</time>
      </trkpt>
      <trkpt lat="42.46146" lon="2.88566">
        <ele>589</ele>
        <time>2024-09-22T10:07:45Z</time>
      </trkpt>
      <trkpt lat="42.46146" lon="2.88571">
        <ele>590</ele>
        <time>2024-09-22T10:07:48Z</time>
      </trkpt>
      <trkpt lat="42.46145" lon="2.88575">
        <ele>591</ele>
        <time>2024-09-22T10:07:50Z</time>
      </trkpt>
      <trkpt lat="42.46143" lon="2.88578">
        <ele>593</ele>
        <time>2024-09-22T10:07:54Z</time>
      </trkpt>
      <trkpt lat="42.46141" lon="2.88582">
        <ele>592</ele>
        <time>2024-09-22T10:07:56Z</time>
      </trkpt>
      <trkpt lat="42.4614" lon="2.88586">
        <ele>593</ele>
        <time>2024-09-22T10:08:01Z</time>
      </trkpt>
      <trkpt lat="42.46139" lon="2.8859">
        <ele>593</ele>
        <time>2024-09-22T10:08:04Z</time>
      </trkpt>
      <trkpt lat="42.46137" lon="2.88594">
        <ele>593</ele>
        <time>2024-09-22T10:08:07Z</time>
      </trkpt>
      <trkpt lat="42.46136" lon="2.88597">
        <ele>594</ele>
        <time>2024-09-22T10:08:10Z</time>
      </trkpt>
      <trkpt lat="42.46135" lon="2.88602">
        <ele>594</ele>
        <time>2024-09-22T10:08:13Z</time>
      </trkpt>
      <trkpt lat="42.46133" lon="2.88606">
        <ele>594</ele>
        <time>2024-09-22T10:08:17Z</time>
      </trkpt>
      <trkpt lat="42.46131" lon="2.88611">
        <ele>595</ele>
        <time>2024-09-22T10:08:20Z</time>
      </trkpt>
      <trkpt lat="42.46129" lon="2.88615">
        <ele>596</ele>
        <time>2024-09-22T10:08:24Z</time>
      </trkpt>
      <trkpt lat="42.46128" lon="2.88619">
        <ele>596</ele>
        <time>2024-09-22T10:08:28Z</time>
      </trkpt>
      <trkpt lat="42.46127" lon="2.88623">
        <ele>596</ele>
        <time>2024-09-22T10:08:31Z</time>
      </trkpt>
      <trkpt lat="42.46126" lon="2.88628">
        <ele>596</ele>
        <time>2024-09-22T10:08:33Z</time>
      </trkpt>
      <trkpt lat="42.46124" lon="2.88632">
        <ele>596</ele>
        <time>2024-09-22T10:08:36Z</time>
      </trkpt>
      <trkpt lat="42.46124" lon="2.88636">
        <ele>595</ele>
        <time>2024-09-22T10:08:38Z</time>
      </trkpt>
      <trkpt lat="42.46123" lon="2.88639">
        <ele>595</ele>
        <time>2024-09-22T10:08:40Z</time>
      </trkpt>
      <trkpt lat="42.46122" lon="2.88644">
        <ele>597</ele>
        <time>2024-09-22T10:08:44Z</time>
      </trkpt>
      <trkpt lat="42.46124" lon="2.88647">
        <ele>597</ele>
        <time>2024-09-22T10:08:45Z</time>
      </trkpt>
      <trkpt lat="42.46123" lon="2.88651">
        <ele>597</ele>
        <time>2024-09-22T10:08:48Z</time>
      </trkpt>
      <trkpt lat="42.46123" lon="2.88654">
        <ele>596</ele>
        <time>2024-09-22T10:08:50Z</time>
      </trkpt>
      <trkpt lat="42.46122" lon="2.88657">
        <ele>597</ele>
        <time>2024-09-22T10:08:53Z</time>
      </trkpt>
      <trkpt lat="42.4612" lon="2.88661">
        <ele>597</ele>
        <time>2024-09-22T10:08:55Z</time>
      </trkpt>
      <trkpt lat="42.46118" lon="2.88665">
        <ele>597</ele>
        <time>2024-09-22T10:08:58Z</time>
      </trkpt>
      <trkpt lat="42.46118" lon="2.8867">
        <ele>597</ele>
        <time>2024-09-22T10:09:00Z</time>
      </trkpt>
      <trkpt lat="42.46117" lon="2.88674">
        <ele>597</ele>
        <time>2024-09-22T10:09:03Z</time>
      </trkpt>
      <trkpt lat="42.46116" lon="2.88678">
        <ele>597</ele>
        <time>2024-09-22T10:09:06Z</time>
      </trkpt>
      <trkpt lat="42.46115" lon="2.88683">
        <ele>597</ele>
        <time>2024-09-22T10:09:10Z</time>
      </trkpt>
      <trkpt lat="42.46114" lon="2.88688">
        <ele>598</ele>
        <time>2024-09-22T10:09:14Z</time>
      </trkpt>
      <trkpt lat="42.46113" lon="2.88693">
        <ele>598</ele>
        <time>2024-09-22T10:09:16Z</time>
      </trkpt>
      <trkpt lat="42.46112" lon="2.88697">
        <ele>599</ele>
        <time>2024-09-22T10:09:20Z</time>
      </trkpt>
      <trkpt lat="42.46111" lon="2.88701">
        <ele>598</ele>
        <time>2024-09-22T10:09:22Z</time>
      </trkpt>
      <trkpt lat="42.4611" lon="2.88706">
        <ele>599</ele>
        <time>2024-09-22T10:09:24Z</time>
      </trkpt>
      <trkpt lat="42.46108" lon="2.8871">
        <ele>600</ele>
        <time>2024-09-22T10:09:28Z</time>
      </trkpt>
      <trkpt lat="42.46107" lon="2.88714">
        <ele>600</ele>
        <time>2024-09-22T10:09:30Z</time>
      </trkpt>
      <trkpt lat="42.46105" lon="2.88718">
        <ele>600</ele>
        <time>2024-09-22T10:09:33Z</time>
      </trkpt>
      <trkpt lat="42.46103" lon="2.88723">
        <ele>601</ele>
        <time>2024-09-22T10:09:36Z</time>
      </trkpt>
      <trkpt lat="42.46101" lon="2.88727">
        <ele>601</ele>
        <time>2024-09-22T10:09:40Z</time>
      </trkpt>
      <trkpt lat="42.461" lon="2.88731">
        <ele>601</ele>
        <time>2024-09-22T10:09:42Z</time>
      </trkpt>
      <trkpt lat="42.46099" lon="2.88735">
        <ele>601</ele>
        <time>2024-09-22T10:09:45Z</time>
      </trkpt>
      <trkpt lat="42.46097" lon="2.8874">
        <ele>602</ele>
        <time>2024-09-22T10:09:47Z</time>
      </trkpt>
      <trkpt lat="42.46096" lon="2.88744">
        <ele>601</ele>
        <time>2024-09-22T10:09:51Z</time>
      </trkpt>
      <trkpt lat="42.46094" lon="2.88749">
        <ele>601</ele>
        <time>2024-09-22T10:09:52Z</time>
      </trkpt>
      <trkpt lat="42.46093" lon="2.88753">
        <ele>600</ele>
        <time>2024-09-22T10:09:57Z</time>
      </trkpt>
      <trkpt lat="42.46092" lon="2.88758">
        <ele>600</ele>
        <time>2024-09-22T10:10:00Z</time>
      </trkpt>
      <trkpt lat="42.46091" lon="2.88763">
        <ele>601</ele>
        <time>2024-09-22T10:10:03Z</time>
      </trkpt>
      <trkpt lat="42.4609" lon="2.88767">
        <ele>601</ele>
        <time>2024-09-22T10:10:06Z</time>
      </trkpt>
      <trkpt lat="42.46089" lon="2.88772">
        <ele>602</ele>
        <time>2024-09-22T10:10:09Z</time>
      </trkpt>
      <trkpt lat="42.46089" lon="2.88776">
        <ele>601</ele>
        <time>2024-09-22T10:10:12Z</time>
      </trkpt>
      <trkpt lat="42.46089" lon="2.88781">
        <ele>601</ele>
        <time>2024-09-22T10:10:15Z</time>
      </trkpt>
      <trkpt lat="42.46089" lon="2.88786">
        <ele>602</ele>
        <time>2024-09-22T10:10:18Z</time>
      </trkpt>
      <trkpt lat="42.46089" lon="2.88791">
        <ele>602</ele>
        <time>2024-09-22T10:10:21Z</time>
      </trkpt>
      <trkpt lat="42.46089" lon="2.88796">
        <ele>602</ele>
        <time>2024-09-22T10:10:24Z</time>
      </trkpt>
      <trkpt lat="42.4609" lon="2.888">
        <ele>602</ele>
        <time>2024-09-22T10:10:27Z</time>
      </trkpt>
      <trkpt lat="42.46092" lon="2.88805">
        <ele>602</ele>
        <time>2024-09-22T10:10:30Z</time>
      </trkpt>
      <trkpt lat="42.46094" lon="2.88808">
        <ele>604</ele>
        <time>2024-09-22T10:10:33Z</time>
      </trkpt>
      <trkpt lat="42.46097" lon="2.88811">
        <ele>603</ele>
        <time>2024-09-22T10:10:36Z</time>
      </trkpt>
      <trkpt lat="42.46099" lon="2.8881">
        <ele>603</ele>
        <time>2024-09-22T10:10:38Z</time>
      </trkpt>
      <trkpt lat="42.46102" lon="2.8881">
        <ele>603</ele>
        <time>2024-09-22T10:10:40Z</time>
      </trkpt>
      <trkpt lat="42.46105" lon="2.88808">
        <ele>603</ele>
        <time>2024-09-22T10:10:42Z</time>
      </trkpt>
      <trkpt lat="42.46108" lon="2.88806">
        <ele>603</ele>
        <time>2024-09-22T10:10:45Z</time>
      </trkpt>
      <trkpt lat="42.46111" lon="2.88804">
        <ele>603</ele>
        <time>2024-09-22T10:10:48Z</time>
      </trkpt>
      <trkpt lat="42.46113" lon="2.88805">
        <ele>603</ele>
        <time>2024-09-22T10:10:53Z</time>
      </trkpt>
      <trkpt lat="42.46116" lon="2.88805">
        <ele>602</ele>
        <time>2024-09-22T10:10:58Z</time>
      </trkpt>
      <trkpt lat="42.46119" lon="2.88805">
        <ele>603</ele>
        <time>2024-09-22T10:11:03Z</time>
      </trkpt>
      <trkpt lat="42.46122" lon="2.88804">
        <ele>602</ele>
        <time>2024-09-22T10:11:05Z</time>
      </trkpt>
      <trkpt lat="42.46125" lon="2.88804">
        <ele>603</ele>
        <time>2024-09-22T10:11:08Z</time>
      </trkpt>
      <trkpt lat="42.46128" lon="2.88804">
        <ele>603</ele>
        <time>2024-09-22T10:11:11Z</time>
      </trkpt>
      <trkpt lat="42.46132" lon="2.88803">
        <ele>603</ele>
        <time>2024-09-22T10:11:13Z</time>
      </trkpt>
      <trkpt lat="42.46135" lon="2.88802">
        <ele>603</ele>
        <time>2024-09-22T10:11:16Z</time>
      </trkpt>
      <trkpt lat="42.46138" lon="2.888">
        <ele>603</ele>
        <time>2024-09-22T10:11:19Z</time>
      </trkpt>
      <trkpt lat="42.46141" lon="2.88799">
        <ele>603</ele>
        <time>2024-09-22T10:11:22Z</time>
      </trkpt>
      <trkpt lat="42.46145" lon="2.88797">
        <ele>603</ele>
        <time>2024-09-22T10:11:25Z</time>
      </trkpt>
      <trkpt lat="42.46149" lon="2.88795">
        <ele>602</ele>
        <time>2024-09-22T10:11:28Z</time>
      </trkpt>
      <trkpt lat="42.46152" lon="2.88794">
        <ele>602</ele>
        <time>2024-09-22T10:11:31Z</time>
      </trkpt>
      <trkpt lat="42.46155" lon="2.88794">
        <ele>603</ele>
        <time>2024-09-22T10:11:33Z</time>
      </trkpt>
      <trkpt lat="42.46159" lon="2.88792">
        <ele>604</ele>
        <time>2024-09-22T10:11:36Z</time>
      </trkpt>
      <trkpt lat="42.46163" lon="2.88791">
        <ele>603</ele>
        <time>2024-09-22T10:11:39Z</time>
      </trkpt>
      <trkpt lat="42.46166" lon="2.8879">
        <ele>603</ele>
        <time>2024-09-22T10:11:41Z</time>
      </trkpt>
      <trkpt lat="42.46169" lon="2.88787">
        <ele>604</ele>
        <time>2024-09-22T10:11:44Z</time>
      </trkpt>
      <trkpt lat="42.46172" lon="2.88786">
        <ele>603</ele>
        <time>2024-09-22T10:11:47Z</time>
      </trkpt>
      <trkpt lat="42.46175" lon="2.88785">
        <ele>603</ele>
        <time>2024-09-22T10:11:49Z</time>
      </trkpt>
      <trkpt lat="42.46179" lon="2.88784">
        <ele>604</ele>
        <time>2024-09-22T10:11:52Z</time>
      </trkpt>
      <trkpt lat="42.46182" lon="2.88784">
        <ele>603</ele>
        <time>2024-09-22T10:11:55Z</time>
      </trkpt>
      <trkpt lat="42.46186" lon="2.88783">
        <ele>603</ele>
        <time>2024-09-22T10:11:58Z</time>
      </trkpt>
      <trkpt lat="42.4619" lon="2.88781">
        <ele>603</ele>
        <time>2024-09-22T10:12:01Z</time>
      </trkpt>
      <trkpt lat="42.46193" lon="2.8878">
        <ele>604</ele>
        <time>2024-09-22T10:12:04Z</time>
      </trkpt>
      <trkpt lat="42.46197" lon="2.88779">
        <ele>603</ele>
        <time>2024-09-22T10:12:07Z</time>
      </trkpt>
      <trkpt lat="42.46201" lon="2.88778">
        <ele>604</ele>
        <time>2024-09-22T10:12:10Z</time>
      </trkpt>
      <trkpt lat="42.46204" lon="2.88778">
        <ele>605</ele>
        <time>2024-09-22T10:12:13Z</time>
      </trkpt>
      <trkpt lat="42.46207" lon="2.88778">
        <ele>604</ele>
        <time>2024-09-22T10:12:16Z</time>
      </trkpt>
      <trkpt lat="42.4621" lon="2.88779">
        <ele>603</ele>
        <time>2024-09-22T10:12:19Z</time>
      </trkpt>
      <trkpt lat="42.46213" lon="2.8878">
        <ele>603</ele>
        <time>2024-09-22T10:12:22Z</time>
      </trkpt>
      <trkpt lat="42.46216" lon="2.88781">
        <ele>603</ele>
        <time>2024-09-22T10:12:24Z</time>
      </trkpt>
      <trkpt lat="42.46218" lon="2.88783">
        <ele>604</ele>
        <time>2024-09-22T10:12:26Z</time>
      </trkpt>
      <trkpt lat="42.46221" lon="2.88785">
        <ele>605</ele>
        <time>2024-09-22T10:12:28Z</time>
      </trkpt>
      <trkpt lat="42.46224" lon="2.88786">
        <ele>605</ele>
        <time>2024-09-22T10:12:31Z</time>
      </trkpt>
      <trkpt lat="42.46227" lon="2.88788">
        <ele>604</ele>
        <time>2024-09-22T10:12:34Z</time>
      </trkpt>
      <trkpt lat="42.4623" lon="2.88789">
        <ele>604</ele>
        <time>2024-09-22T10:12:36Z</time>
      </trkpt>
      <trkpt lat="42.46233" lon="2.88789">
        <ele>605</ele>
        <time>2024-09-22T10:12:39Z</time>
      </trkpt>
      <trkpt lat="42.46236" lon="2.8879">
        <ele>605</ele>
        <time>2024-09-22T10:12:42Z</time>
      </trkpt>
      <trkpt lat="42.46239" lon="2.88791">
        <ele>606</ele>
        <time>2024-09-22T10:12:44Z</time>
      </trkpt>
      <trkpt lat="42.46242" lon="2.88793">
        <ele>605</ele>
        <time>2024-09-22T10:12:46Z</time>
      </trkpt>
      <trkpt lat="42.46244" lon="2.88796">
        <ele>604</ele>
        <time>2024-09-22T10:12:48Z</time>
      </trkpt>
      <trkpt lat="42.46248" lon="2.88798">
        <ele>605</ele>
        <time>2024-09-22T10:12:53Z</time>
      </trkpt>
      <trkpt lat="42.46251" lon="2.888">
        <ele>605</ele>
        <time>2024-09-22T10:12:55Z</time>
      </trkpt>
      <trkpt lat="42.46254" lon="2.88803">
        <ele>605</ele>
        <time>2024-09-22T10:12:57Z</time>
      </trkpt>
      <trkpt lat="42.46257" lon="2.88805">
        <ele>605</ele>
        <time>2024-09-22T10:13:01Z</time>
      </trkpt>
      <trkpt lat="42.4626" lon="2.88808">
        <ele>605</ele>
        <time>2024-09-22T10:13:04Z</time>
      </trkpt>
      <trkpt lat="42.46264" lon="2.88811">
        <ele>605</ele>
        <time>2024-09-22T10:13:07Z</time>
      </trkpt>
      <trkpt lat="42.46267" lon="2.88814">
        <ele>605</ele>
        <time>2024-09-22T10:13:10Z</time>
      </trkpt>
      <trkpt lat="42.46271" lon="2.88816">
        <ele>606</ele>
        <time>2024-09-22T10:13:13Z</time>
      </trkpt>
      <trkpt lat="42.46274" lon="2.8882">
        <ele>606</ele>
        <time>2024-09-22T10:13:15Z</time>
      </trkpt>
      <trkpt lat="42.46277" lon="2.88822">
        <ele>607</ele>
        <time>2024-09-22T10:13:17Z</time>
      </trkpt>
      <trkpt lat="42.46279" lon="2.88825">
        <ele>606</ele>
        <time>2024-09-22T10:13:21Z</time>
      </trkpt>
      <trkpt lat="42.46281" lon="2.8883">
        <ele>605</ele>
        <time>2024-09-22T10:13:24Z</time>
      </trkpt>
      <trkpt lat="42.46283" lon="2.88833">
        <ele>605</ele>
        <time>2024-09-22T10:13:27Z</time>
      </trkpt>
      <trkpt lat="42.46286" lon="2.88837">
        <ele>605</ele>
        <time>2024-09-22T10:13:31Z</time>
      </trkpt>
      <trkpt lat="42.46289" lon="2.88841">
        <ele>605</ele>
        <time>2024-09-22T10:13:33Z</time>
      </trkpt>
      <trkpt lat="42.4629" lon="2.88844">
        <ele>605</ele>
        <time>2024-09-22T10:13:36Z</time>
      </trkpt>
      <trkpt lat="42.46291" lon="2.88848">
        <ele>606</ele>
        <time>2024-09-22T10:13:39Z</time>
      </trkpt>
      <trkpt lat="42.46292" lon="2.88853">
        <ele>606</ele>
        <time>2024-09-22T10:13:42Z</time>
      </trkpt>
      <trkpt lat="42.46293" lon="2.88857">
        <ele>605</ele>
        <time>2024-09-22T10:13:45Z</time>
      </trkpt>
      <trkpt lat="42.46294" lon="2.88862">
        <ele>605</ele>
        <time>2024-09-22T10:13:48Z</time>
      </trkpt>
      <trkpt lat="42.46295" lon="2.88866">
        <ele>605</ele>
        <time>2024-09-22T10:13:51Z</time>
      </trkpt>
      <trkpt lat="42.46295" lon="2.8887">
        <ele>606</ele>
        <time>2024-09-22T10:13:53Z</time>
      </trkpt>
      <trkpt lat="42.46294" lon="2.88875">
        <ele>606</ele>
        <time>2024-09-22T10:13:57Z</time>
      </trkpt>
      <trkpt lat="42.46294" lon="2.8888">
        <ele>605</ele>
        <time>2024-09-22T10:14:01Z</time>
      </trkpt>
      <trkpt lat="42.46292" lon="2.88884">
        <ele>606</ele>
        <time>2024-09-22T10:14:03Z</time>
      </trkpt>
      <trkpt lat="42.46291" lon="2.88888">
        <ele>605</ele>
        <time>2024-09-22T10:14:24Z</time>
      </trkpt>
      <trkpt lat="42.4629" lon="2.88892">
        <ele>605</ele>
        <time>2024-09-22T10:14:26Z</time>
      </trkpt>
      <trkpt lat="42.46288" lon="2.88895">
        <ele>606</ele>
        <time>2024-09-22T10:14:29Z</time>
      </trkpt>
      <trkpt lat="42.46287" lon="2.88899">
        <ele>605</ele>
        <time>2024-09-22T10:14:31Z</time>
      </trkpt>
      <trkpt lat="42.46285" lon="2.88902">
        <ele>605</ele>
        <time>2024-09-22T10:14:33Z</time>
      </trkpt>
      <trkpt lat="42.46283" lon="2.88906">
        <ele>606</ele>
        <time>2024-09-22T10:14:36Z</time>
      </trkpt>
      <trkpt lat="42.46282" lon="2.8891">
        <ele>606</ele>
        <time>2024-09-22T10:14:38Z</time>
      </trkpt>
      <trkpt lat="42.46281" lon="2.88915">
        <ele>606</ele>
        <time>2024-09-22T10:14:41Z</time>
      </trkpt>
      <trkpt lat="42.46279" lon="2.88919">
        <ele>608</ele>
        <time>2024-09-22T10:14:43Z</time>
      </trkpt>
      <trkpt lat="42.46277" lon="2.88923">
        <ele>608</ele>
        <time>2024-09-22T10:14:45Z</time>
      </trkpt>
      <trkpt lat="42.46275" lon="2.88926">
        <ele>607</ele>
        <time>2024-09-22T10:14:47Z</time>
      </trkpt>
      <trkpt lat="42.46274" lon="2.88929">
        <ele>608</ele>
        <time>2024-09-22T10:14:49Z</time>
      </trkpt>
      <trkpt lat="42.46273" lon="2.88932">
        <ele>609</ele>
        <time>2024-09-22T10:14:51Z</time>
      </trkpt>
      <trkpt lat="42.46272" lon="2.88936">
        <ele>609</ele>
        <time>2024-09-22T10:14:53Z</time>
      </trkpt>
      <trkpt lat="42.4627" lon="2.88939">
        <ele>610</ele>
        <time>2024-09-22T10:14:54Z</time>
      </trkpt>
      <trkpt lat="42.46268" lon="2.88942">
        <ele>610</ele>
        <time>2024-09-22T10:14:56Z</time>
      </trkpt>
      <trkpt lat="42.46266" lon="2.88945">
        <ele>609</ele>
        <time>2024-09-22T10:14:58Z</time>
      </trkpt>
      <trkpt lat="42.46264" lon="2.88948">
        <ele>610</ele>
        <time>2024-09-22T10:15:00Z</time>
      </trkpt>
      <trkpt lat="42.46263" lon="2.88951">
        <ele>609</ele>
        <time>2024-09-22T10:15:02Z</time>
      </trkpt>
      <trkpt lat="42.46261" lon="2.88954">
        <ele>609</ele>
        <time>2024-09-22T10:15:04Z</time>
      </trkpt>
      <trkpt lat="42.46259" lon="2.88958">
        <ele>609</ele>
        <time>2024-09-22T10:15:07Z</time>
      </trkpt>
      <trkpt lat="42.46257" lon="2.88961">
        <ele>608</ele>
        <time>2024-09-22T10:15:11Z</time>
      </trkpt>
      <trkpt lat="42.46257" lon="2.88966">
        <ele>608</ele>
        <time>2024-09-22T10:15:14Z</time>
      </trkpt>
      <trkpt lat="42.46255" lon="2.8897">
        <ele>608</ele>
        <time>2024-09-22T10:15:17Z</time>
      </trkpt>
      <trkpt lat="42.46254" lon="2.88974">
        <ele>608</ele>
        <time>2024-09-22T10:15:19Z</time>
      </trkpt>
      <trkpt lat="42.46252" lon="2.88978">
        <ele>607</ele>
        <time>2024-09-22T10:15:22Z</time>
      </trkpt>
      <trkpt lat="42.46251" lon="2.88981">
        <ele>608</ele>
        <time>2024-09-22T10:15:24Z</time>
      </trkpt>
      <trkpt lat="42.46249" lon="2.88986">
        <ele>607</ele>
        <time>2024-09-22T10:15:29Z</time>
      </trkpt>
      <trkpt lat="42.46247" lon="2.88989">
        <ele>610</ele>
        <time>2024-09-22T10:15:33Z</time>
      </trkpt>
      <trkpt lat="42.46247" lon="2.88994">
        <ele>610</ele>
        <time>2024-09-22T10:15:36Z</time>
      </trkpt>
      <trkpt lat="42.46246" lon="2.88998">
        <ele>610</ele>
        <time>2024-09-22T10:15:39Z</time>
      </trkpt>
      <trkpt lat="42.46244" lon="2.89002">
        <ele>608</ele>
        <time>2024-09-22T10:15:42Z</time>
      </trkpt>
      <trkpt lat="42.46244" lon="2.89006">
        <ele>608</ele>
        <time>2024-09-22T10:15:44Z</time>
      </trkpt>
      <trkpt lat="42.46245" lon="2.8901">
        <ele>608</ele>
        <time>2024-09-22T10:15:46Z</time>
      </trkpt>
      <trkpt lat="42.46248" lon="2.89013">
        <ele>608</ele>
        <time>2024-09-22T10:15:48Z</time>
      </trkpt>
      <trkpt lat="42.4625" lon="2.89017">
        <ele>608</ele>
        <time>2024-09-22T10:15:50Z</time>
      </trkpt>
      <trkpt lat="42.4625" lon="2.89021">
        <ele>608</ele>
        <time>2024-09-22T10:15:52Z</time>
      </trkpt>
      <trkpt lat="42.4625" lon="2.89026">
        <ele>608</ele>
        <time>2024-09-22T10:15:55Z</time>
      </trkpt>
      <trkpt lat="42.46251" lon="2.8903">
        <ele>609</ele>
        <time>2024-09-22T10:15:57Z</time>
      </trkpt>
      <trkpt lat="42.46254" lon="2.89032">
        <ele>608</ele>
        <time>2024-09-22T10:15:59Z</time>
      </trkpt>
      <trkpt lat="42.46255" lon="2.89036">
        <ele>609</ele>
        <time>2024-09-22T10:16:02Z</time>
      </trkpt>
      <trkpt lat="42.46257" lon="2.8904">
        <ele>608</ele>
        <time>2024-09-22T10:16:05Z</time>
      </trkpt>
      <trkpt lat="42.46258" lon="2.89044">
        <ele>608</ele>
        <time>2024-09-22T10:16:08Z</time>
      </trkpt>
      <trkpt lat="42.4626" lon="2.89049">
        <ele>608</ele>
        <time>2024-09-22T10:16:11Z</time>
      </trkpt>
      <trkpt lat="42.46261" lon="2.89052">
        <ele>608</ele>
        <time>2024-09-22T10:16:13Z</time>
      </trkpt>
      <trkpt lat="42.46262" lon="2.89056">
        <ele>607</ele>
        <time>2024-09-22T10:16:15Z</time>
      </trkpt>
      <trkpt lat="42.46262" lon="2.89061">
        <ele>608</ele>
        <time>2024-09-22T10:16:18Z</time>
      </trkpt>
      <trkpt lat="42.46263" lon="2.89065">
        <ele>608</ele>
        <time>2024-09-22T10:16:20Z</time>
      </trkpt>
      <trkpt lat="42.46263" lon="2.89069">
        <ele>607</ele>
        <time>2024-09-22T10:16:24Z</time>
      </trkpt>
      <trkpt lat="42.46262" lon="2.89074">
        <ele>608</ele>
        <time>2024-09-22T10:16:27Z</time>
      </trkpt>
      <trkpt lat="42.46262" lon="2.89078">
        <ele>608</ele>
        <time>2024-09-22T10:16:29Z</time>
      </trkpt>
      <trkpt lat="42.46264" lon="2.89081">
        <ele>608</ele>
        <time>2024-09-22T10:16:31Z</time>
      </trkpt>
      <trkpt lat="42.46264" lon="2.89085">
        <ele>609</ele>
        <time>2024-09-22T10:16:33Z</time>
      </trkpt>
      <trkpt lat="42.46265" lon="2.8909">
        <ele>608</ele>
        <time>2024-09-22T10:16:37Z</time>
      </trkpt>
      <trkpt lat="42.46265" lon="2.89094">
        <ele>608</ele>
        <time>2024-09-22T10:16:39Z</time>
      </trkpt>
      <trkpt lat="42.46266" lon="2.89098">
        <ele>608</ele>
        <time>2024-09-22T10:16:43Z</time>
      </trkpt>
      <trkpt lat="42.46268" lon="2.89102">
        <ele>607</ele>
        <time>2024-09-22T10:16:45Z</time>
      </trkpt>
      <trkpt lat="42.46268" lon="2.89107">
        <ele>607</ele>
        <time>2024-09-22T10:16:48Z</time>
      </trkpt>
      <trkpt lat="42.46268" lon="2.89112">
        <ele>607</ele>
        <time>2024-09-22T10:16:51Z</time>
      </trkpt>
      <trkpt lat="42.46267" lon="2.89116">
        <ele>608</ele>
        <time>2024-09-22T10:16:54Z</time>
      </trkpt>
      <trkpt lat="42.46267" lon="2.89121">
        <ele>609</ele>
        <time>2024-09-22T10:16:56Z</time>
      </trkpt>
      <trkpt lat="42.46267" lon="2.89125">
        <ele>608</ele>
        <time>2024-09-22T10:16:59Z</time>
      </trkpt>
      <trkpt lat="42.46268" lon="2.89129">
        <ele>608</ele>
        <time>2024-09-22T10:17:01Z</time>
      </trkpt>
      <trkpt lat="42.46268" lon="2.89133">
        <ele>609</ele>
        <time>2024-09-22T10:17:02Z</time>
      </trkpt>
      <trkpt lat="42.46268" lon="2.89137">
        <ele>608</ele>
        <time>2024-09-22T10:17:05Z</time>
      </trkpt>
      <trkpt lat="42.46268" lon="2.89142">
        <ele>608</ele>
        <time>2024-09-22T10:17:08Z</time>
      </trkpt>
      <trkpt lat="42.46269" lon="2.89147">
        <ele>609</ele>
        <time>2024-09-22T10:17:11Z</time>
      </trkpt>
      <trkpt lat="42.46269" lon="2.89152">
        <ele>609</ele>
        <time>2024-09-22T10:17:13Z</time>
      </trkpt>
      <trkpt lat="42.46269" lon="2.89156">
        <ele>608</ele>
        <time>2024-09-22T10:17:16Z</time>
      </trkpt>
      <trkpt lat="42.46269" lon="2.89161">
        <ele>608</ele>
        <time>2024-09-22T10:17:19Z</time>
      </trkpt>
      <trkpt lat="42.46268" lon="2.89166">
        <ele>608</ele>
        <time>2024-09-22T10:17:22Z</time>
      </trkpt>
      <trkpt lat="42.46268" lon="2.8917">
        <ele>608</ele>
        <time>2024-09-22T10:17:24Z</time>
      </trkpt>
      <trkpt lat="42.46268" lon="2.89174">
        <ele>608</ele>
        <time>2024-09-22T10:17:27Z</time>
      </trkpt>
      <trkpt lat="42.46268" lon="2.89179">
        <ele>608</ele>
        <time>2024-09-22T10:17:30Z</time>
      </trkpt>
      <trkpt lat="42.46268" lon="2.89183">
        <ele>609</ele>
        <time>2024-09-22T10:17:33Z</time>
      </trkpt>
      <trkpt lat="42.46268" lon="2.89188">
        <ele>608</ele>
        <time>2024-09-22T10:17:36Z</time>
      </trkpt>
      <trkpt lat="42.46267" lon="2.89193">
        <ele>609</ele>
        <time>2024-09-22T10:17:39Z</time>
      </trkpt>
      <trkpt lat="42.46267" lon="2.89198">
        <ele>608</ele>
        <time>2024-09-22T10:17:42Z</time>
      </trkpt>
      <trkpt lat="42.46266" lon="2.89201">
        <ele>609</ele>
        <time>2024-09-22T10:17:44Z</time>
      </trkpt>
      <trkpt lat="42.46267" lon="2.89206">
        <ele>607</ele>
        <time>2024-09-22T10:17:46Z</time>
      </trkpt>
      <trkpt lat="42.46267" lon="2.89209">
        <ele>608</ele>
        <time>2024-09-22T10:17:48Z</time>
      </trkpt>
      <trkpt lat="42.46266" lon="2.89213">
        <ele>608</ele>
        <time>2024-09-22T10:17:52Z</time>
      </trkpt>
      <trkpt lat="42.46265" lon="2.89218">
        <ele>608</ele>
        <time>2024-09-22T10:17:55Z</time>
      </trkpt>
      <trkpt lat="42.46266" lon="2.89222">
        <ele>608</ele>
        <time>2024-09-22T10:17:56Z</time>
      </trkpt>
      <trkpt lat="42.46264" lon="2.89225">
        <ele>608</ele>
        <time>2024-09-22T10:17:58Z</time>
      </trkpt>
      <trkpt lat="42.46262" lon="2.89229">
        <ele>609</ele>
        <time>2024-09-22T10:18:02Z</time>
      </trkpt>
      <trkpt lat="42.46262" lon="2.89234">
        <ele>609</ele>
        <time>2024-09-22T10:18:04Z</time>
      </trkpt>
      <trkpt lat="42.46262" lon="2.89239">
        <ele>609</ele>
        <time>2024-09-22T10:18:07Z</time>
      </trkpt>
      <trkpt lat="42.46262" lon="2.89243">
        <ele>609</ele>
        <time>2024-09-22T10:18:10Z</time>
      </trkpt>
      <trkpt lat="42.46262" lon="2.89247">
        <ele>609</ele>
        <time>2024-09-22T10:18:12Z</time>
      </trkpt>
      <trkpt lat="42.46262" lon="2.89253">
        <ele>610</ele>
        <time>2024-09-22T10:18:14Z</time>
      </trkpt>
      <trkpt lat="42.46262" lon="2.89257">
        <ele>610</ele>
        <time>2024-09-22T10:18:17Z</time>
      </trkpt>
      <trkpt lat="42.46261" lon="2.89261">
        <ele>609</ele>
        <time>2024-09-22T10:18:19Z</time>
      </trkpt>
      <trkpt lat="42.46261" lon="2.89265">
        <ele>608</ele>
        <time>2024-09-22T10:18:22Z</time>
      </trkpt>
      <trkpt lat="42.46262" lon="2.89269">
        <ele>608</ele>
        <time>2024-09-22T10:18:24Z</time>
      </trkpt>
      <trkpt lat="42.46263" lon="2.89273">
        <ele>608</ele>
        <time>2024-09-22T10:18:26Z</time>
      </trkpt>
      <trkpt lat="42.46263" lon="2.89277">
        <ele>609</ele>
        <time>2024-09-22T10:18:28Z</time>
      </trkpt>
      <trkpt lat="42.46264" lon="2.89282">
        <ele>609</ele>
        <time>2024-09-22T10:18:32Z</time>
      </trkpt>
      <trkpt lat="42.46265" lon="2.89286">
        <ele>609</ele>
        <time>2024-09-22T10:18:34Z</time>
      </trkpt>
      <trkpt lat="42.46266" lon="2.8929">
        <ele>608</ele>
        <time>2024-09-22T10:18:36Z</time>
      </trkpt>
      <trkpt lat="42.46266" lon="2.89294">
        <ele>609</ele>
        <time>2024-09-22T10:18:39Z</time>
      </trkpt>
      <trkpt lat="42.46266" lon="2.89298">
        <ele>610</ele>
        <time>2024-09-22T10:18:41Z</time>
      </trkpt>
      <trkpt lat="42.46267" lon="2.89302">
        <ele>610</ele>
        <time>2024-09-22T10:18:44Z</time>
      </trkpt>
      <trkpt lat="42.46268" lon="2.89307">
        <ele>610</ele>
        <time>2024-09-22T10:18:47Z</time>
      </trkpt>
      <trkpt lat="42.46269" lon="2.8931">
        <ele>610</ele>
        <time>2024-09-22T10:18:49Z</time>
      </trkpt>
      <trkpt lat="42.4627" lon="2.89315">
        <ele>610</ele>
        <time>2024-09-22T10:18:52Z</time>
      </trkpt>
      <trkpt lat="42.46272" lon="2.89319">
        <ele>609</ele>
        <time>2024-09-22T10:18:55Z</time>
      </trkpt>
      <trkpt lat="42.46273" lon="2.89323">
        <ele>609</ele>
        <time>2024-09-22T10:18:57Z</time>
      </trkpt>
      <trkpt lat="42.46274" lon="2.89328">
        <ele>610</ele>
        <time>2024-09-22T10:19:00Z</time>
      </trkpt>
      <trkpt lat="42.46274" lon="2.89332">
        <ele>611</ele>
        <time>2024-09-22T10:19:02Z</time>
      </trkpt>
      <trkpt lat="42.46274" lon="2.89337">
        <ele>611</ele>
        <time>2024-09-22T10:19:05Z</time>
      </trkpt>
      <trkpt lat="42.46274" lon="2.89341">
        <ele>610</ele>
        <time>2024-09-22T10:19:07Z</time>
      </trkpt>
      <trkpt lat="42.46272" lon="2.89345">
        <ele>610</ele>
        <time>2024-09-22T10:19:10Z</time>
      </trkpt>
      <trkpt lat="42.46271" lon="2.89349">
        <ele>609</ele>
        <time>2024-09-22T10:19:14Z</time>
      </trkpt>
      <trkpt lat="42.46269" lon="2.89352">
        <ele>610</ele>
        <time>2024-09-22T10:19:16Z</time>
      </trkpt>
      <trkpt lat="42.46267" lon="2.89357">
        <ele>610</ele>
        <time>2024-09-22T10:19:20Z</time>
      </trkpt>
      <trkpt lat="42.46265" lon="2.8936">
        <ele>611</ele>
        <time>2024-09-22T10:19:23Z</time>
      </trkpt>
      <trkpt lat="42.46262" lon="2.89364">
        <ele>610</ele>
        <time>2024-09-22T10:19:26Z</time>
      </trkpt>
      <trkpt lat="42.4626" lon="2.89367">
        <ele>611</ele>
        <time>2024-09-22T10:19:30Z</time>
      </trkpt>
      <trkpt lat="42.46258" lon="2.89371">
        <ele>611</ele>
        <time>2024-09-22T10:19:32Z</time>
      </trkpt>
      <trkpt lat="42.46255" lon="2.89374">
        <ele>610</ele>
        <time>2024-09-22T10:19:35Z</time>
      </trkpt>
      <trkpt lat="42.46253" lon="2.89377">
        <ele>610</ele>
        <time>2024-09-22T10:19:38Z</time>
      </trkpt>
      <trkpt lat="42.4625" lon="2.8938">
        <ele>610</ele>
        <time>2024-09-22T10:19:40Z</time>
      </trkpt>
      <trkpt lat="42.46248" lon="2.89382">
        <ele>610</ele>
        <time>2024-09-22T10:19:44Z</time>
      </trkpt>
      <trkpt lat="42.46246" lon="2.89385">
        <ele>611</ele>
        <time>2024-09-22T10:19:46Z</time>
      </trkpt>
      <trkpt lat="42.46244" lon="2.89388">
        <ele>611</ele>
        <time>2024-09-22T10:19:48Z</time>
      </trkpt>
      <trkpt lat="42.46242" lon="2.89391">
        <ele>611</ele>
        <time>2024-09-22T10:19:51Z</time>
      </trkpt>
      <trkpt lat="42.4624" lon="2.89394">
        <ele>611</ele>
        <time>2024-09-22T10:19:53Z</time>
      </trkpt>
      <trkpt lat="42.46238" lon="2.89398">
        <ele>613</ele>
        <time>2024-09-22T10:19:56Z</time>
      </trkpt>
      <trkpt lat="42.46235" lon="2.89401">
        <ele>613</ele>
        <time>2024-09-22T10:19:58Z</time>
      </trkpt>
      <trkpt lat="42.46234" lon="2.89405">
        <ele>612</ele>
        <time>2024-09-22T10:20:01Z</time>
      </trkpt>
      <trkpt lat="42.46232" lon="2.89409">
        <ele>611</ele>
        <time>2024-09-22T10:20:04Z</time>
      </trkpt>
      <trkpt lat="42.46231" lon="2.89414">
        <ele>611</ele>
        <time>2024-09-22T10:20:07Z</time>
      </trkpt>
      <trkpt lat="42.46229" lon="2.89418">
        <ele>612</ele>
        <time>2024-09-22T10:20:09Z</time>
      </trkpt>
      <trkpt lat="42.46229" lon="2.89424">
        <ele>612</ele>
        <time>2024-09-22T10:20:12Z</time>
      </trkpt>
      <trkpt lat="42.46228" lon="2.89428">
        <ele>612</ele>
        <time>2024-09-22T10:20:14Z</time>
      </trkpt>
      <trkpt lat="42.46227" lon="2.89432">
        <ele>612</ele>
        <time>2024-09-22T10:20:16Z</time>
      </trkpt>
      <trkpt lat="42.46226" lon="2.89436">
        <ele>613</ele>
        <time>2024-09-22T10:20:18Z</time>
      </trkpt>
      <trkpt lat="42.46226" lon="2.8944">
        <ele>612</ele>
        <time>2024-09-22T10:20:21Z</time>
      </trkpt>
      <trkpt lat="42.46225" lon="2.89445">
        <ele>613</ele>
        <time>2024-09-22T10:20:24Z</time>
      </trkpt>
      <trkpt lat="42.46225" lon="2.89449">
        <ele>613</ele>
        <time>2024-09-22T10:20:26Z</time>
      </trkpt>
      <trkpt lat="42.46224" lon="2.89453">
        <ele>612</ele>
        <time>2024-09-22T10:20:28Z</time>
      </trkpt>
      <trkpt lat="42.46224" lon="2.89457">
        <ele>613</ele>
        <time>2024-09-22T10:20:30Z</time>
      </trkpt>
      <trkpt lat="42.46223" lon="2.89462">
        <ele>612</ele>
        <time>2024-09-22T10:20:33Z</time>
      </trkpt>
      <trkpt lat="42.46223" lon="2.89468">
        <ele>613</ele>
        <time>2024-09-22T10:20:38Z</time>
      </trkpt>
      <trkpt lat="42.46222" lon="2.89473">
        <ele>612</ele>
        <time>2024-09-22T10:20:41Z</time>
      </trkpt>
      <trkpt lat="42.46222" lon="2.89478">
        <ele>613</ele>
        <time>2024-09-22T10:20:44Z</time>
      </trkpt>
      <trkpt lat="42.46224" lon="2.89482">
        <ele>613</ele>
        <time>2024-09-22T10:20:46Z</time>
      </trkpt>
      <trkpt lat="42.46224" lon="2.89486">
        <ele>612</ele>
        <time>2024-09-22T10:20:48Z</time>
      </trkpt>
      <trkpt lat="42.46225" lon="2.89491">
        <ele>612</ele>
        <time>2024-09-22T10:20:54Z</time>
      </trkpt>
      <trkpt lat="42.46226" lon="2.89495">
        <ele>612</ele>
        <time>2024-09-22T10:20:57Z</time>
      </trkpt>
      <trkpt lat="42.46227" lon="2.895">
        <ele>611</ele>
        <time>2024-09-22T10:21:00Z</time>
      </trkpt>
      <trkpt lat="42.46228" lon="2.89506">
        <ele>611</ele>
        <time>2024-09-22T10:21:03Z</time>
      </trkpt>
      <trkpt lat="42.46229" lon="2.89511">
        <ele>610</ele>
        <time>2024-09-22T10:21:06Z</time>
      </trkpt>
      <trkpt lat="42.4623" lon="2.89517">
        <ele>611</ele>
        <time>2024-09-22T10:21:09Z</time>
      </trkpt>
      <trkpt lat="42.46231" lon="2.89522">
        <ele>611</ele>
        <time>2024-09-22T10:21:11Z</time>
      </trkpt>
      <trkpt lat="42.46232" lon="2.89527">
        <ele>612</ele>
        <time>2024-09-22T10:21:13Z</time>
      </trkpt>
      <trkpt lat="42.46232" lon="2.89531">
        <ele>612</ele>
        <time>2024-09-22T10:21:15Z</time>
      </trkpt>
      <trkpt lat="42.46233" lon="2.89536">
        <ele>613</ele>
        <time>2024-09-22T10:21:18Z</time>
      </trkpt>
      <trkpt lat="42.46234" lon="2.89541">
        <ele>613</ele>
        <time>2024-09-22T10:21:21Z</time>
      </trkpt>
      <trkpt lat="42.46235" lon="2.89546">
        <ele>612</ele>
        <time>2024-09-22T10:21:24Z</time>
      </trkpt>
      <trkpt lat="42.46235" lon="2.8955">
        <ele>612</ele>
        <time>2024-09-22T10:21:27Z</time>
      </trkpt>
      <trkpt lat="42.46234" lon="2.89555">
        <ele>612</ele>
        <time>2024-09-22T10:21:30Z</time>
      </trkpt>
      <trkpt lat="42.46233" lon="2.8956">
        <ele>613</ele>
        <time>2024-09-22T10:21:33Z</time>
      </trkpt>
      <trkpt lat="42.46232" lon="2.89563">
        <ele>612</ele>
        <time>2024-09-22T10:21:34Z</time>
      </trkpt>
      <trkpt lat="42.4623" lon="2.89567">
        <ele>613</ele>
        <time>2024-09-22T10:21:38Z</time>
      </trkpt>
      <trkpt lat="42.46228" lon="2.89571">
        <ele>612</ele>
        <time>2024-09-22T10:21:41Z</time>
      </trkpt>
      <trkpt lat="42.46225" lon="2.89574">
        <ele>613</ele>
        <time>2024-09-22T10:21:44Z</time>
      </trkpt>
      <trkpt lat="42.46222" lon="2.89576">
        <ele>612</ele>
        <time>2024-09-22T10:21:47Z</time>
      </trkpt>
      <trkpt lat="42.46219" lon="2.89579">
        <ele>612</ele>
        <time>2024-09-22T10:21:51Z</time>
      </trkpt>
      <trkpt lat="42.46216" lon="2.89581">
        <ele>612</ele>
        <time>2024-09-22T10:21:53Z</time>
      </trkpt>
      <trkpt lat="42.46213" lon="2.89583">
        <ele>613</ele>
        <time>2024-09-22T10:21:55Z</time>
      </trkpt>
      <trkpt lat="42.46209" lon="2.89584">
        <ele>612</ele>
        <time>2024-09-22T10:21:59Z</time>
      </trkpt>
      <trkpt lat="42.46206" lon="2.89586">
        <ele>613</ele>
        <time>2024-09-22T10:22:01Z</time>
      </trkpt>
      <trkpt lat="42.46203" lon="2.89588">
        <ele>613</ele>
        <time>2024-09-22T10:22:04Z</time>
      </trkpt>
      <trkpt lat="42.46201" lon="2.8959">
        <ele>615</ele>
        <time>2024-09-22T10:22:15Z</time>
      </trkpt>
      <trkpt lat="42.46198" lon="2.89593">
        <ele>615</ele>
        <time>2024-09-22T10:22:34Z</time>
      </trkpt>
      <trkpt lat="42.46196" lon="2.89596">
        <ele>615</ele>
        <time>2024-09-22T10:22:43Z</time>
      </trkpt>
      <trkpt lat="42.46194" lon="2.89599">
        <ele>614</ele>
        <time>2024-09-22T10:22:45Z</time>
      </trkpt>
      <trkpt lat="42.46191" lon="2.89602">
        <ele>615</ele>
        <time>2024-09-22T10:22:49Z</time>
      </trkpt>
      <trkpt lat="42.46189" lon="2.89606">
        <ele>616</ele>
        <time>2024-09-22T10:22:52Z</time>
      </trkpt>
      <trkpt lat="42.46187" lon="2.89609">
        <ele>616</ele>
        <time>2024-09-22T10:22:57Z</time>
      </trkpt>
      <trkpt lat="42.46184" lon="2.8961">
        <ele>616</ele>
        <time>2024-09-22T10:22:59Z</time>
      </trkpt>
      <trkpt lat="42.46183" lon="2.89614">
        <ele>616</ele>
        <time>2024-09-22T10:23:02Z</time>
      </trkpt>
      <trkpt lat="42.4618" lon="2.89617">
        <ele>616</ele>
        <time>2024-09-22T10:23:05Z</time>
      </trkpt>
      <trkpt lat="42.4618" lon="2.89621">
        <ele>616</ele>
        <time>2024-09-22T10:23:07Z</time>
      </trkpt>
      <trkpt lat="42.46179" lon="2.89624">
        <ele>616</ele>
        <time>2024-09-22T10:23:09Z</time>
      </trkpt>
      <trkpt lat="42.46179" lon="2.89628">
        <ele>616</ele>
        <time>2024-09-22T10:23:12Z</time>
      </trkpt>
      <trkpt lat="42.46177" lon="2.89631">
        <ele>615</ele>
        <time>2024-09-22T10:23:14Z</time>
      </trkpt>
      <trkpt lat="42.46176" lon="2.89635">
        <ele>614</ele>
        <time>2024-09-22T10:23:17Z</time>
      </trkpt>
      <trkpt lat="42.46175" lon="2.89639">
        <ele>615</ele>
        <time>2024-09-22T10:23:19Z</time>
      </trkpt>
      <trkpt lat="42.46173" lon="2.89643">
        <ele>615</ele>
        <time>2024-09-22T10:23:21Z</time>
      </trkpt>
      <trkpt lat="42.46171" lon="2.89646">
        <ele>615</ele>
        <time>2024-09-22T10:23:24Z</time>
      </trkpt>
      <trkpt lat="42.4617" lon="2.8965">
        <ele>614</ele>
        <time>2024-09-22T10:23:26Z</time>
      </trkpt>
      <trkpt lat="42.46169" lon="2.89654">
        <ele>615</ele>
        <time>2024-09-22T10:23:29Z</time>
      </trkpt>
      <trkpt lat="42.46171" lon="2.89653">
        <ele>615</ele>
        <time>2024-09-22T10:23:33Z</time>
      </trkpt>
      <trkpt lat="42.46173" lon="2.89651">
        <ele>615</ele>
        <time>2024-09-22T10:23:35Z</time>
      </trkpt>
      <trkpt lat="42.46175" lon="2.89647">
        <ele>615</ele>
        <time>2024-09-22T10:23:38Z</time>
      </trkpt>
      <trkpt lat="42.46177" lon="2.89643">
        <ele>614</ele>
        <time>2024-09-22T10:23:41Z</time>
      </trkpt>
      <trkpt lat="42.46179" lon="2.89638">
        <ele>615</ele>
        <time>2024-09-22T10:23:43Z</time>
      </trkpt>
      <trkpt lat="42.4618" lon="2.89634">
        <ele>616</ele>
        <time>2024-09-22T10:23:45Z</time>
      </trkpt>
      <trkpt lat="42.46181" lon="2.8963">
        <ele>616</ele>
        <time>2024-09-22T10:23:47Z</time>
      </trkpt>
      <trkpt lat="42.46182" lon="2.89625">
        <ele>616</ele>
        <time>2024-09-22T10:23:49Z</time>
      </trkpt>
      <trkpt lat="42.46183" lon="2.89621">
        <ele>616</ele>
        <time>2024-09-22T10:23:51Z</time>
      </trkpt>
      <trkpt lat="42.46184" lon="2.89617">
        <ele>616</ele>
        <time>2024-09-22T10:23:53Z</time>
      </trkpt>
      <trkpt lat="42.46185" lon="2.89613">
        <ele>616</ele>
        <time>2024-09-22T10:23:55Z</time>
      </trkpt>
      <trkpt lat="42.46187" lon="2.8961">
        <ele>615</ele>
        <time>2024-09-22T10:23:57Z</time>
      </trkpt>
      <trkpt lat="42.46189" lon="2.89606">
        <ele>615</ele>
        <time>2024-09-22T10:24:00Z</time>
      </trkpt>
      <trkpt lat="42.46192" lon="2.89604">
        <ele>616</ele>
        <time>2024-09-22T10:24:02Z</time>
      </trkpt>
      <trkpt lat="42.46194" lon="2.89602">
        <ele>616</ele>
        <time>2024-09-22T10:24:04Z</time>
      </trkpt>
      <trkpt lat="42.46196" lon="2.89599">
        <ele>616</ele>
        <time>2024-09-22T10:24:06Z</time>
      </trkpt>
      <trkpt lat="42.46199" lon="2.89597">
        <ele>615</ele>
        <time>2024-09-22T10:24:08Z</time>
      </trkpt>
      <trkpt lat="42.46201" lon="2.89594">
        <ele>616</ele>
        <time>2024-09-22T10:24:11Z</time>
      </trkpt>
      <trkpt lat="42.46204" lon="2.89591">
        <ele>616</ele>
        <time>2024-09-22T10:24:14Z</time>
      </trkpt>
      <trkpt lat="42.46204" lon="2.89587">
        <ele>613</ele>
        <time>2024-09-22T10:24:17Z</time>
      </trkpt>
      <trkpt lat="42.46203" lon="2.89587">
        <ele>612</ele>
        <time>2024-09-22T10:24:21Z</time>
      </trkpt>
      <trkpt lat="42.462" lon="2.89588">
        <ele>612</ele>
        <time>2024-09-22T10:24:25Z</time>
      </trkpt>
      <trkpt lat="42.46198" lon="2.89592">
        <ele>613</ele>
        <time>2024-09-22T10:24:27Z</time>
      </trkpt>
      <trkpt lat="42.46195" lon="2.89595">
        <ele>613</ele>
        <time>2024-09-22T10:24:30Z</time>
      </trkpt>
      <trkpt lat="42.46193" lon="2.89599">
        <ele>615</ele>
        <time>2024-09-22T10:24:34Z</time>
      </trkpt>
      <trkpt lat="42.46191" lon="2.89602">
        <ele>615</ele>
        <time>2024-09-22T10:24:36Z</time>
      </trkpt>
      <trkpt lat="42.46188" lon="2.89606">
        <ele>615</ele>
        <time>2024-09-22T10:24:38Z</time>
      </trkpt>
      <trkpt lat="42.46186" lon="2.89607">
        <ele>616</ele>
        <time>2024-09-22T10:24:41Z</time>
      </trkpt>
      <trkpt lat="42.46184" lon="2.8961">
        <ele>616</ele>
        <time>2024-09-22T10:24:44Z</time>
      </trkpt>
      <trkpt lat="42.46182" lon="2.89613">
        <ele>614</ele>
        <time>2024-09-22T10:24:48Z</time>
      </trkpt>
      <trkpt lat="42.46181" lon="2.89616">
        <ele>616</ele>
        <time>2024-09-22T10:24:50Z</time>
      </trkpt>
      <trkpt lat="42.46181" lon="2.8962">
        <ele>615</ele>
        <time>2024-09-22T10:24:53Z</time>
      </trkpt>
      <trkpt lat="42.4618" lon="2.89624">
        <ele>615</ele>
        <time>2024-09-22T10:24:55Z</time>
      </trkpt>
      <trkpt lat="42.46179" lon="2.89628">
        <ele>615</ele>
        <time>2024-09-22T10:24:57Z</time>
      </trkpt>
      <trkpt lat="42.46178" lon="2.89631">
        <ele>616</ele>
        <time>2024-09-22T10:24:59Z</time>
      </trkpt>
      <trkpt lat="42.46177" lon="2.89635">
        <ele>616</ele>
        <time>2024-09-22T10:25:01Z</time>
      </trkpt>
      <trkpt lat="42.46176" lon="2.89639">
        <ele>616</ele>
        <time>2024-09-22T10:25:03Z</time>
      </trkpt>
      <trkpt lat="42.46174" lon="2.89643">
        <ele>616</ele>
        <time>2024-09-22T10:25:06Z</time>
      </trkpt>
      <trkpt lat="42.46173" lon="2.89647">
        <ele>614</ele>
        <time>2024-09-22T10:25:09Z</time>
      </trkpt>
      <trkpt lat="42.46171" lon="2.8965">
        <ele>615</ele>
        <time>2024-09-22T10:25:11Z</time>
      </trkpt>
      <trkpt lat="42.46169" lon="2.89654">
        <ele>614</ele>
        <time>2024-09-22T10:25:14Z</time>
      </trkpt>
      <trkpt lat="42.46167" lon="2.89658">
        <ele>614</ele>
        <time>2024-09-22T10:25:17Z</time>
      </trkpt>
      <trkpt lat="42.46164" lon="2.89662">
        <ele>615</ele>
        <time>2024-09-22T10:25:20Z</time>
      </trkpt>
      <trkpt lat="42.46161" lon="2.89665">
        <ele>615</ele>
        <time>2024-09-22T10:25:23Z</time>
      </trkpt>
      <trkpt lat="42.46158" lon="2.89668">
        <ele>615</ele>
        <time>2024-09-22T10:25:25Z</time>
      </trkpt>
      <trkpt lat="42.46156" lon="2.89671">
        <ele>614</ele>
        <time>2024-09-22T10:25:27Z</time>
      </trkpt>
      <trkpt lat="42.46155" lon="2.89675">
        <ele>615</ele>
        <time>2024-09-22T10:25:29Z</time>
      </trkpt>
      <trkpt lat="42.46153" lon="2.89679">
        <ele>614</ele>
        <time>2024-09-22T10:25:31Z</time>
      </trkpt>
      <trkpt lat="42.46151" lon="2.89682">
        <ele>615</ele>
        <time>2024-09-22T10:25:33Z</time>
      </trkpt>
      <trkpt lat="42.46149" lon="2.89685">
        <ele>615</ele>
        <time>2024-09-22T10:25:36Z</time>
      </trkpt>
      <trkpt lat="42.46147" lon="2.89689">
        <ele>615</ele>
        <time>2024-09-22T10:25:38Z</time>
      </trkpt>
      <trkpt lat="42.46144" lon="2.89692">
        <ele>615</ele>
        <time>2024-09-22T10:25:40Z</time>
      </trkpt>
      <trkpt lat="42.46142" lon="2.89695">
        <ele>615</ele>
        <time>2024-09-22T10:25:42Z</time>
      </trkpt>
      <trkpt lat="42.46141" lon="2.89698">
        <ele>615</ele>
        <time>2024-09-22T10:25:44Z</time>
      </trkpt>
      <trkpt lat="42.46139" lon="2.89703">
        <ele>614</ele>
        <time>2024-09-22T10:25:47Z</time>
      </trkpt>
      <trkpt lat="42.46137" lon="2.89706">
        <ele>615</ele>
        <time>2024-09-22T10:25:49Z</time>
      </trkpt>
      <trkpt lat="42.46136" lon="2.8971">
        <ele>614</ele>
        <time>2024-09-22T10:25:52Z</time>
      </trkpt>
      <trkpt lat="42.46135" lon="2.89716">
        <ele>614</ele>
        <time>2024-09-22T10:25:55Z</time>
      </trkpt>
      <trkpt lat="42.46133" lon="2.8972">
        <ele>614</ele>
        <time>2024-09-22T10:25:57Z</time>
      </trkpt>
      <trkpt lat="42.46131" lon="2.89723">
        <ele>614</ele>
        <time>2024-09-22T10:25:58Z</time>
      </trkpt>
      <trkpt lat="42.46131" lon="2.89727">
        <ele>613</ele>
        <time>2024-09-22T10:26:01Z</time>
      </trkpt>
      <trkpt lat="42.4613" lon="2.89731">
        <ele>614</ele>
        <time>2024-09-22T10:26:04Z</time>
      </trkpt>
      <trkpt lat="42.46129" lon="2.89735">
        <ele>615</ele>
        <time>2024-09-22T10:26:06Z</time>
      </trkpt>
      <trkpt lat="42.46128" lon="2.89739">
        <ele>615</ele>
        <time>2024-09-22T10:26:08Z</time>
      </trkpt>
      <trkpt lat="42.46127" lon="2.89744">
        <ele>616</ele>
        <time>2024-09-22T10:26:10Z</time>
      </trkpt>
      <trkpt lat="42.46127" lon="2.89748">
        <ele>616</ele>
        <time>2024-09-22T10:26:12Z</time>
      </trkpt>
      <trkpt lat="42.46126" lon="2.89752">
        <ele>615</ele>
        <time>2024-09-22T10:26:14Z</time>
      </trkpt>
      <trkpt lat="42.46124" lon="2.89756">
        <ele>616</ele>
        <time>2024-09-22T10:26:17Z</time>
      </trkpt>
      <trkpt lat="42.46123" lon="2.8976">
        <ele>616</ele>
        <time>2024-09-22T10:26:19Z</time>
      </trkpt>
      <trkpt lat="42.46121" lon="2.89763">
        <ele>616</ele>
        <time>2024-09-22T10:26:22Z</time>
      </trkpt>
      <trkpt lat="42.4612" lon="2.89766">
        <ele>616</ele>
        <time>2024-09-22T10:26:24Z</time>
      </trkpt>
      <trkpt lat="42.46119" lon="2.8977">
        <ele>616</ele>
        <time>2024-09-22T10:26:26Z</time>
      </trkpt>
      <trkpt lat="42.46118" lon="2.89774">
        <ele>616</ele>
        <time>2024-09-22T10:26:28Z</time>
      </trkpt>
      <trkpt lat="42.46115" lon="2.89776">
        <ele>616</ele>
        <time>2024-09-22T10:26:30Z</time>
      </trkpt>
      <trkpt lat="42.46114" lon="2.89779">
        <ele>615</ele>
        <time>2024-09-22T10:26:32Z</time>
      </trkpt>
      <trkpt lat="42.46112" lon="2.89782">
        <ele>615</ele>
        <time>2024-09-22T10:26:34Z</time>
      </trkpt>
      <trkpt lat="42.46111" lon="2.89786">
        <ele>616</ele>
        <time>2024-09-22T10:26:36Z</time>
      </trkpt>
      <trkpt lat="42.4611" lon="2.8979">
        <ele>616</ele>
        <time>2024-09-22T10:26:38Z</time>
      </trkpt>
      <trkpt lat="42.4611" lon="2.89794">
        <ele>616</ele>
        <time>2024-09-22T10:26:40Z</time>
      </trkpt>
      <trkpt lat="42.46107" lon="2.89799">
        <ele>616</ele>
        <time>2024-09-22T10:26:44Z</time>
      </trkpt>
      <trkpt lat="42.46106" lon="2.89803">
        <ele>616</ele>
        <time>2024-09-22T10:26:46Z</time>
      </trkpt>
      <trkpt lat="42.46105" lon="2.89808">
        <ele>616</ele>
        <time>2024-09-22T10:26:48Z</time>
      </trkpt>
      <trkpt lat="42.46104" lon="2.89811">
        <ele>616</ele>
        <time>2024-09-22T10:26:50Z</time>
      </trkpt>
      <trkpt lat="42.46103" lon="2.89815">
        <ele>616</ele>
        <time>2024-09-22T10:26:53Z</time>
      </trkpt>
      <trkpt lat="42.46102" lon="2.89819">
        <ele>616</ele>
        <time>2024-09-22T10:26:55Z</time>
      </trkpt>
      <trkpt lat="42.46101" lon="2.89823">
        <ele>616</ele>
        <time>2024-09-22T10:26:57Z</time>
      </trkpt>
      <trkpt lat="42.461" lon="2.89828">
        <ele>616</ele>
        <time>2024-09-22T10:27:00Z</time>
      </trkpt>
      <trkpt lat="42.46099" lon="2.89832">
        <ele>616</ele>
        <time>2024-09-22T10:27:02Z</time>
      </trkpt>
      <trkpt lat="42.46098" lon="2.89836">
        <ele>616</ele>
        <time>2024-09-22T10:27:04Z</time>
      </trkpt>
      <trkpt lat="42.46097" lon="2.89839">
        <ele>617</ele>
        <time>2024-09-22T10:27:06Z</time>
      </trkpt>
      <trkpt lat="42.46095" lon="2.89842">
        <ele>615</ele>
        <time>2024-09-22T10:27:08Z</time>
      </trkpt>
      <trkpt lat="42.46095" lon="2.89847">
        <ele>617</ele>
        <time>2024-09-22T10:27:11Z</time>
      </trkpt>
      <trkpt lat="42.46095" lon="2.89853">
        <ele>617</ele>
        <time>2024-09-22T10:27:14Z</time>
      </trkpt>
      <trkpt lat="42.46095" lon="2.89857">
        <ele>617</ele>
        <time>2024-09-22T10:27:17Z</time>
      </trkpt>
      <trkpt lat="42.46094" lon="2.89861">
        <ele>618</ele>
        <time>2024-09-22T10:27:20Z</time>
      </trkpt>
      <trkpt lat="42.46094" lon="2.89866">
        <ele>617</ele>
        <time>2024-09-22T10:27:22Z</time>
      </trkpt>
      <trkpt lat="42.46094" lon="2.8987">
        <ele>618</ele>
        <time>2024-09-22T10:27:24Z</time>
      </trkpt>
      <trkpt lat="42.46095" lon="2.89875">
        <ele>618</ele>
        <time>2024-09-22T10:27:26Z</time>
      </trkpt>
      <trkpt lat="42.46096" lon="2.8988">
        <ele>617</ele>
        <time>2024-09-22T10:27:29Z</time>
      </trkpt>
      <trkpt lat="42.46096" lon="2.89885">
        <ele>617</ele>
        <time>2024-09-22T10:27:31Z</time>
      </trkpt>
      <trkpt lat="42.46096" lon="2.8989">
        <ele>617</ele>
        <time>2024-09-22T10:27:33Z</time>
      </trkpt>
      <trkpt lat="42.46097" lon="2.89895">
        <ele>618</ele>
        <time>2024-09-22T10:27:36Z</time>
      </trkpt>
      <trkpt lat="42.46098" lon="2.899">
        <ele>617</ele>
        <time>2024-09-22T10:27:39Z</time>
      </trkpt>
      <trkpt lat="42.46099" lon="2.89905">
        <ele>618</ele>
        <time>2024-09-22T10:27:42Z</time>
      </trkpt>
      <trkpt lat="42.461" lon="2.8991">
        <ele>618</ele>
        <time>2024-09-22T10:27:44Z</time>
      </trkpt>
      <trkpt lat="42.461" lon="2.89914">
        <ele>618</ele>
        <time>2024-09-22T10:27:46Z</time>
      </trkpt>
      <trkpt lat="42.461" lon="2.89918">
        <ele>617</ele>
        <time>2024-09-22T10:27:48Z</time>
      </trkpt>
      <trkpt lat="42.461" lon="2.89922">
        <ele>618</ele>
        <time>2024-09-22T10:27:50Z</time>
      </trkpt>
      <trkpt lat="42.461" lon="2.89926">
        <ele>617</ele>
        <time>2024-09-22T10:27:52Z</time>
      </trkpt>
      <trkpt lat="42.461" lon="2.8993">
        <ele>617</ele>
        <time>2024-09-22T10:27:54Z</time>
      </trkpt>
      <trkpt lat="42.461" lon="2.89935">
        <ele>617</ele>
        <time>2024-09-22T10:27:57Z</time>
      </trkpt>
      <trkpt lat="42.46099" lon="2.89939">
        <ele>617</ele>
        <time>2024-09-22T10:27:59Z</time>
      </trkpt>
      <trkpt lat="42.46098" lon="2.89943">
        <ele>617</ele>
        <time>2024-09-22T10:28:01Z</time>
      </trkpt>
      <trkpt lat="42.46097" lon="2.89948">
        <ele>618</ele>
        <time>2024-09-22T10:28:04Z</time>
      </trkpt>
      <trkpt lat="42.46095" lon="2.89953">
        <ele>619</ele>
        <time>2024-09-22T10:28:07Z</time>
      </trkpt>
      <trkpt lat="42.46094" lon="2.89957">
        <ele>619</ele>
        <time>2024-09-22T10:28:09Z</time>
      </trkpt>
      <trkpt lat="42.46094" lon="2.89962">
        <ele>618</ele>
        <time>2024-09-22T10:28:11Z</time>
      </trkpt>
      <trkpt lat="42.46093" lon="2.89966">
        <ele>618</ele>
        <time>2024-09-22T10:28:13Z</time>
      </trkpt>
      <trkpt lat="42.46091" lon="2.89969">
        <ele>618</ele>
        <time>2024-09-22T10:28:15Z</time>
      </trkpt>
      <trkpt lat="42.4609" lon="2.89972">
        <ele>619</ele>
        <time>2024-09-22T10:28:17Z</time>
      </trkpt>
      <trkpt lat="42.46088" lon="2.89975">
        <ele>619</ele>
        <time>2024-09-22T10:28:19Z</time>
      </trkpt>
      <trkpt lat="42.46086" lon="2.89978">
        <ele>619</ele>
        <time>2024-09-22T10:28:21Z</time>
      </trkpt>
      <trkpt lat="42.46084" lon="2.89981">
        <ele>619</ele>
        <time>2024-09-22T10:28:23Z</time>
      </trkpt>
      <trkpt lat="42.46082" lon="2.89983">
        <ele>618</ele>
        <time>2024-09-22T10:28:25Z</time>
      </trkpt>
      <trkpt lat="42.46079" lon="2.89985">
        <ele>618</ele>
        <time>2024-09-22T10:28:27Z</time>
      </trkpt>
      <trkpt lat="42.46077" lon="2.89988">
        <ele>619</ele>
        <time>2024-09-22T10:28:29Z</time>
      </trkpt>
      <trkpt lat="42.46075" lon="2.89991">
        <ele>619</ele>
        <time>2024-09-22T10:28:31Z</time>
      </trkpt>
      <trkpt lat="42.46073" lon="2.89994">
        <ele>618</ele>
        <time>2024-09-22T10:28:34Z</time>
      </trkpt>
      <trkpt lat="42.46071" lon="2.89997">
        <ele>618</ele>
        <time>2024-09-22T10:28:36Z</time>
      </trkpt>
      <trkpt lat="42.46068" lon="2.89998">
        <ele>618</ele>
        <time>2024-09-22T10:28:38Z</time>
      </trkpt>
      <trkpt lat="42.46065" lon="2.9">
        <ele>618</ele>
        <time>2024-09-22T10:28:40Z</time>
      </trkpt>
      <trkpt lat="42.46062" lon="2.90002">
        <ele>619</ele>
        <time>2024-09-22T10:28:43Z</time>
      </trkpt>
      <trkpt lat="42.46058" lon="2.90004">
        <ele>619</ele>
        <time>2024-09-22T10:28:46Z</time>
      </trkpt>
      <trkpt lat="42.46055" lon="2.90006">
        <ele>618</ele>
        <time>2024-09-22T10:28:48Z</time>
      </trkpt>
      <trkpt lat="42.46052" lon="2.90008">
        <ele>619</ele>
        <time>2024-09-22T10:28:50Z</time>
      </trkpt>
      <trkpt lat="42.46049" lon="2.9001">
        <ele>620</ele>
        <time>2024-09-22T10:28:52Z</time>
      </trkpt>
      <trkpt lat="42.46047" lon="2.90012">
        <ele>621</ele>
        <time>2024-09-22T10:28:54Z</time>
      </trkpt>
      <trkpt lat="42.46044" lon="2.90014">
        <ele>620</ele>
        <time>2024-09-22T10:28:57Z</time>
      </trkpt>
      <trkpt lat="42.46041" lon="2.90017">
        <ele>620</ele>
        <time>2024-09-22T10:29:01Z</time>
      </trkpt>
      <trkpt lat="42.46038" lon="2.9002">
        <ele>621</ele>
        <time>2024-09-22T10:29:03Z</time>
      </trkpt>
      <trkpt lat="42.46036" lon="2.90023">
        <ele>621</ele>
        <time>2024-09-22T10:29:05Z</time>
      </trkpt>
      <trkpt lat="42.46033" lon="2.90026">
        <ele>622</ele>
        <time>2024-09-22T10:29:07Z</time>
      </trkpt>
      <trkpt lat="42.46032" lon="2.9003">
        <ele>621</ele>
        <time>2024-09-22T10:29:10Z</time>
      </trkpt>
      <trkpt lat="42.46031" lon="2.90035">
        <ele>620</ele>
        <time>2024-09-22T10:29:13Z</time>
      </trkpt>
      <trkpt lat="42.46031" lon="2.9004">
        <ele>620</ele>
        <time>2024-09-22T10:29:15Z</time>
      </trkpt>
      <trkpt lat="42.46031" lon="2.90044">
        <ele>620</ele>
        <time>2024-09-22T10:29:17Z</time>
      </trkpt>
      <trkpt lat="42.4603" lon="2.90048">
        <ele>619</ele>
        <time>2024-09-22T10:29:20Z</time>
      </trkpt>
      <trkpt lat="42.46029" lon="2.90052">
        <ele>618</ele>
        <time>2024-09-22T10:29:21Z</time>
      </trkpt>
      <trkpt lat="42.46028" lon="2.90057">
        <ele>620</ele>
        <time>2024-09-22T10:29:24Z</time>
      </trkpt>
      <trkpt lat="42.46027" lon="2.90062">
        <ele>619</ele>
        <time>2024-09-22T10:29:27Z</time>
      </trkpt>
      <trkpt lat="42.46026" lon="2.90066">
        <ele>620</ele>
        <time>2024-09-22T10:29:29Z</time>
      </trkpt>
      <trkpt lat="42.46024" lon="2.9007">
        <ele>620</ele>
        <time>2024-09-22T10:29:32Z</time>
      </trkpt>
      <trkpt lat="42.46022" lon="2.90073">
        <ele>619</ele>
        <time>2024-09-22T10:29:33Z</time>
      </trkpt>
      <trkpt lat="42.4602" lon="2.90076">
        <ele>619</ele>
        <time>2024-09-22T10:29:35Z</time>
      </trkpt>
      <trkpt lat="42.46017" lon="2.90079">
        <ele>620</ele>
        <time>2024-09-22T10:29:37Z</time>
      </trkpt>
      <trkpt lat="42.46014" lon="2.90081">
        <ele>619</ele>
        <time>2024-09-22T10:29:40Z</time>
      </trkpt>
      <trkpt lat="42.4601" lon="2.90082">
        <ele>619</ele>
        <time>2024-09-22T10:29:43Z</time>
      </trkpt>
      <trkpt lat="42.46007" lon="2.90083">
        <ele>619</ele>
        <time>2024-09-22T10:29:45Z</time>
      </trkpt>
      <trkpt lat="42.46004" lon="2.90084">
        <ele>619</ele>
        <time>2024-09-22T10:29:48Z</time>
      </trkpt>
      <trkpt lat="42.46" lon="2.90085">
        <ele>619</ele>
        <time>2024-09-22T10:29:51Z</time>
      </trkpt>
      <trkpt lat="42.45996" lon="2.90085">
        <ele>619</ele>
        <time>2024-09-22T10:29:53Z</time>
      </trkpt>
      <trkpt lat="42.45993" lon="2.90085">
        <ele>620</ele>
        <time>2024-09-22T10:29:55Z</time>
      </trkpt>
      <trkpt lat="42.4599" lon="2.90087">
        <ele>620</ele>
        <time>2024-09-22T10:29:57Z</time>
      </trkpt>
      <trkpt lat="42.45987" lon="2.90088">
        <ele>621</ele>
        <time>2024-09-22T10:29:59Z</time>
      </trkpt>
      <trkpt lat="42.45984" lon="2.90091">
        <ele>620</ele>
        <time>2024-09-22T10:30:02Z</time>
      </trkpt>
      <trkpt lat="42.4598" lon="2.90092">
        <ele>621</ele>
        <time>2024-09-22T10:30:05Z</time>
      </trkpt>
      <trkpt lat="42.45976" lon="2.90094">
        <ele>621</ele>
        <time>2024-09-22T10:30:07Z</time>
      </trkpt>
      <trkpt lat="42.45974" lon="2.90097">
        <ele>621</ele>
        <time>2024-09-22T10:30:09Z</time>
      </trkpt>
      <trkpt lat="42.45971" lon="2.90099">
        <ele>620</ele>
        <time>2024-09-22T10:30:11Z</time>
      </trkpt>
      <trkpt lat="42.45968" lon="2.90101">
        <ele>620</ele>
        <time>2024-09-22T10:30:13Z</time>
      </trkpt>
      <trkpt lat="42.45964" lon="2.90103">
        <ele>620</ele>
        <time>2024-09-22T10:30:16Z</time>
      </trkpt>
      <trkpt lat="42.4596" lon="2.90106">
        <ele>620</ele>
        <time>2024-09-22T10:30:19Z</time>
      </trkpt>
      <trkpt lat="42.45957" lon="2.90108">
        <ele>620</ele>
        <time>2024-09-22T10:30:21Z</time>
      </trkpt>
      <trkpt lat="42.45955" lon="2.9011">
        <ele>620</ele>
        <time>2024-09-22T10:30:24Z</time>
      </trkpt>
      <trkpt lat="42.45952" lon="2.90113">
        <ele>620</ele>
        <time>2024-09-22T10:30:25Z</time>
      </trkpt>
      <trkpt lat="42.4595" lon="2.90115">
        <ele>621</ele>
        <time>2024-09-22T10:30:27Z</time>
      </trkpt>
      <trkpt lat="42.45947" lon="2.90118">
        <ele>621</ele>
        <time>2024-09-22T10:30:30Z</time>
      </trkpt>
      <trkpt lat="42.45944" lon="2.9012">
        <ele>622</ele>
        <time>2024-09-22T10:30:32Z</time>
      </trkpt>
      <trkpt lat="42.45942" lon="2.90123">
        <ele>622</ele>
        <time>2024-09-22T10:30:34Z</time>
      </trkpt>
      <trkpt lat="42.4594" lon="2.90126">
        <ele>622</ele>
        <time>2024-09-22T10:30:36Z</time>
      </trkpt>
      <trkpt lat="42.45938" lon="2.90129">
        <ele>622</ele>
        <time>2024-09-22T10:30:38Z</time>
      </trkpt>
      <trkpt lat="42.45936" lon="2.90133">
        <ele>622</ele>
        <time>2024-09-22T10:30:40Z</time>
      </trkpt>
      <trkpt lat="42.45934" lon="2.90136">
        <ele>622</ele>
        <time>2024-09-22T10:30:42Z</time>
      </trkpt>
      <trkpt lat="42.45933" lon="2.9014">
        <ele>622</ele>
        <time>2024-09-22T10:30:44Z</time>
      </trkpt>
      <trkpt lat="42.45932" lon="2.90145">
        <ele>622</ele>
        <time>2024-09-22T10:30:47Z</time>
      </trkpt>
      <trkpt lat="42.4593" lon="2.90149">
        <ele>622</ele>
        <time>2024-09-22T10:30:49Z</time>
      </trkpt>
      <trkpt lat="42.45929" lon="2.90153">
        <ele>622</ele>
        <time>2024-09-22T10:30:51Z</time>
      </trkpt>
      <trkpt lat="42.45928" lon="2.90158">
        <ele>622</ele>
        <time>2024-09-22T10:30:53Z</time>
      </trkpt>
      <trkpt lat="42.45926" lon="2.90162">
        <ele>622</ele>
        <time>2024-09-22T10:30:55Z</time>
      </trkpt>
      <trkpt lat="42.45925" lon="2.90167">
        <ele>623</ele>
        <time>2024-09-22T10:30:58Z</time>
      </trkpt>
      <trkpt lat="42.45924" lon="2.90171">
        <ele>623</ele>
        <time>2024-09-22T10:31:00Z</time>
      </trkpt>
      <trkpt lat="42.45924" lon="2.90175">
        <ele>624</ele>
        <time>2024-09-22T10:31:02Z</time>
      </trkpt>
      <trkpt lat="42.45924" lon="2.9018">
        <ele>624</ele>
        <time>2024-09-22T10:31:05Z</time>
      </trkpt>
      <trkpt lat="42.45924" lon="2.90185">
        <ele>624</ele>
        <time>2024-09-22T10:31:08Z</time>
      </trkpt>
      <trkpt lat="42.45923" lon="2.9019">
        <ele>624</ele>
        <time>2024-09-22T10:31:11Z</time>
      </trkpt>
      <trkpt lat="42.45923" lon="2.90195">
        <ele>623</ele>
        <time>2024-09-22T10:31:13Z</time>
      </trkpt>
      <trkpt lat="42.45923" lon="2.90199">
        <ele>623</ele>
        <time>2024-09-22T10:31:15Z</time>
      </trkpt>
      <trkpt lat="42.45923" lon="2.90204">
        <ele>623</ele>
        <time>2024-09-22T10:31:17Z</time>
      </trkpt>
      <trkpt lat="42.45923" lon="2.90208">
        <ele>623</ele>
        <time>2024-09-22T10:31:19Z</time>
      </trkpt>
      <trkpt lat="42.45925" lon="2.90211">
        <ele>624</ele>
        <time>2024-09-22T10:31:21Z</time>
      </trkpt>
      <trkpt lat="42.45926" lon="2.90215">
        <ele>624</ele>
        <time>2024-09-22T10:31:23Z</time>
      </trkpt>
      <trkpt lat="42.45927" lon="2.90219">
        <ele>623</ele>
        <time>2024-09-22T10:31:25Z</time>
      </trkpt>
      <trkpt lat="42.45928" lon="2.90223">
        <ele>623</ele>
        <time>2024-09-22T10:31:27Z</time>
      </trkpt>
      <trkpt lat="42.4593" lon="2.90227">
        <ele>623</ele>
        <time>2024-09-22T10:31:29Z</time>
      </trkpt>
      <trkpt lat="42.45931" lon="2.90231">
        <ele>623</ele>
        <time>2024-09-22T10:31:31Z</time>
      </trkpt>
      <trkpt lat="42.45933" lon="2.90234">
        <ele>623</ele>
        <time>2024-09-22T10:31:33Z</time>
      </trkpt>
      <trkpt lat="42.45935" lon="2.90238">
        <ele>624</ele>
        <time>2024-09-22T10:31:36Z</time>
      </trkpt>
      <trkpt lat="42.45938" lon="2.9024">
        <ele>624</ele>
        <time>2024-09-22T10:31:38Z</time>
      </trkpt>
      <trkpt lat="42.4594" lon="2.90243">
        <ele>623</ele>
        <time>2024-09-22T10:31:40Z</time>
      </trkpt>
      <trkpt lat="42.45942" lon="2.90247">
        <ele>624</ele>
        <time>2024-09-22T10:31:41Z</time>
      </trkpt>
      <trkpt lat="42.45944" lon="2.90251">
        <ele>624</ele>
        <time>2024-09-22T10:31:43Z</time>
      </trkpt>
      <trkpt lat="42.45946" lon="2.90255">
        <ele>624</ele>
        <time>2024-09-22T10:31:46Z</time>
      </trkpt>
      <trkpt lat="42.45948" lon="2.90259">
        <ele>625</ele>
        <time>2024-09-22T10:31:48Z</time>
      </trkpt>
      <trkpt lat="42.4595" lon="2.90263">
        <ele>624</ele>
        <time>2024-09-22T10:31:50Z</time>
      </trkpt>
      <trkpt lat="42.45952" lon="2.90266">
        <ele>625</ele>
        <time>2024-09-22T10:31:52Z</time>
      </trkpt>
      <trkpt lat="42.45953" lon="2.9027">
        <ele>624</ele>
        <time>2024-09-22T10:31:56Z</time>
      </trkpt>
      <trkpt lat="42.45955" lon="2.90274">
        <ele>625</ele>
        <time>2024-09-22T10:31:58Z</time>
      </trkpt>
      <trkpt lat="42.45956" lon="2.90278">
        <ele>625</ele>
        <time>2024-09-22T10:32:01Z</time>
      </trkpt>
      <trkpt lat="42.45958" lon="2.90283">
        <ele>626</ele>
        <time>2024-09-22T10:32:03Z</time>
      </trkpt>
      <trkpt lat="42.4596" lon="2.90286">
        <ele>626</ele>
        <time>2024-09-22T10:32:05Z</time>
      </trkpt>
      <trkpt lat="42.45961" lon="2.90291">
        <ele>627</ele>
        <time>2024-09-22T10:32:07Z</time>
      </trkpt>
      <trkpt lat="42.45962" lon="2.90295">
        <ele>627</ele>
        <time>2024-09-22T10:32:09Z</time>
      </trkpt>
      <trkpt lat="42.45963" lon="2.90299">
        <ele>626</ele>
        <time>2024-09-22T10:32:12Z</time>
      </trkpt>
      <trkpt lat="42.45965" lon="2.90302">
        <ele>626</ele>
        <time>2024-09-22T10:32:13Z</time>
      </trkpt>
      <trkpt lat="42.45967" lon="2.90305">
        <ele>625</ele>
        <time>2024-09-22T10:32:16Z</time>
      </trkpt>
      <trkpt lat="42.45967" lon="2.90309">
        <ele>625</ele>
        <time>2024-09-22T10:32:18Z</time>
      </trkpt>
      <trkpt lat="42.45969" lon="2.90313">
        <ele>625</ele>
        <time>2024-09-22T10:32:20Z</time>
      </trkpt>
      <trkpt lat="42.4597" lon="2.90317">
        <ele>624</ele>
        <time>2024-09-22T10:32:23Z</time>
      </trkpt>
      <trkpt lat="42.4597" lon="2.90321">
        <ele>624</ele>
        <time>2024-09-22T10:32:25Z</time>
      </trkpt>
      <trkpt lat="42.4597" lon="2.90325">
        <ele>625</ele>
        <time>2024-09-22T10:32:27Z</time>
      </trkpt>
      <trkpt lat="42.4597" lon="2.90329">
        <ele>624</ele>
        <time>2024-09-22T10:32:29Z</time>
      </trkpt>
      <trkpt lat="42.45969" lon="2.90333">
        <ele>625</ele>
        <time>2024-09-22T10:32:32Z</time>
      </trkpt>
      <trkpt lat="42.45969" lon="2.90337">
        <ele>626</ele>
        <time>2024-09-22T10:32:34Z</time>
      </trkpt>
      <trkpt lat="42.45969" lon="2.90341">
        <ele>626</ele>
        <time>2024-09-22T10:32:36Z</time>
      </trkpt>
      <trkpt lat="42.45968" lon="2.90347">
        <ele>625</ele>
        <time>2024-09-22T10:32:39Z</time>
      </trkpt>
      <trkpt lat="42.45967" lon="2.90351">
        <ele>626</ele>
        <time>2024-09-22T10:32:41Z</time>
      </trkpt>
      <trkpt lat="42.45966" lon="2.90355">
        <ele>625</ele>
        <time>2024-09-22T10:32:44Z</time>
      </trkpt>
      <trkpt lat="42.45965" lon="2.90359">
        <ele>625</ele>
        <time>2024-09-22T10:32:46Z</time>
      </trkpt>
      <trkpt lat="42.45964" lon="2.90363">
        <ele>626</ele>
        <time>2024-09-22T10:32:48Z</time>
      </trkpt>
      <trkpt lat="42.45963" lon="2.90367">
        <ele>626</ele>
        <time>2024-09-22T10:32:50Z</time>
      </trkpt>
      <trkpt lat="42.45962" lon="2.90372">
        <ele>626</ele>
        <time>2024-09-22T10:32:53Z</time>
      </trkpt>
      <trkpt lat="42.4596" lon="2.90375">
        <ele>626</ele>
        <time>2024-09-22T10:32:55Z</time>
      </trkpt>
      <trkpt lat="42.45958" lon="2.90379">
        <ele>626</ele>
        <time>2024-09-22T10:32:57Z</time>
      </trkpt>
      <trkpt lat="42.45955" lon="2.90382">
        <ele>625</ele>
        <time>2024-09-22T10:33:00Z</time>
      </trkpt>
      <trkpt lat="42.45952" lon="2.90385">
        <ele>626</ele>
        <time>2024-09-22T10:33:02Z</time>
      </trkpt>
      <trkpt lat="42.45949" lon="2.90387">
        <ele>625</ele>
        <time>2024-09-22T10:33:05Z</time>
      </trkpt>
      <trkpt lat="42.45946" lon="2.90389">
        <ele>626</ele>
        <time>2024-09-22T10:33:08Z</time>
      </trkpt>
      <trkpt lat="42.45943" lon="2.9039">
        <ele>625</ele>
        <time>2024-09-22T10:33:11Z</time>
      </trkpt>
      <trkpt lat="42.4594" lon="2.90392">
        <ele>625</ele>
        <time>2024-09-22T10:33:14Z</time>
      </trkpt>
      <trkpt lat="42.45936" lon="2.90393">
        <ele>626</ele>
        <time>2024-09-22T10:33:16Z</time>
      </trkpt>
      <trkpt lat="42.45932" lon="2.90395">
        <ele>626</ele>
        <time>2024-09-22T10:33:19Z</time>
      </trkpt>
      <trkpt lat="42.45929" lon="2.90395">
        <ele>626</ele>
        <time>2024-09-22T10:33:21Z</time>
      </trkpt>
      <trkpt lat="42.45926" lon="2.90396">
        <ele>626</ele>
        <time>2024-09-22T10:33:23Z</time>
      </trkpt>
      <trkpt lat="42.45923" lon="2.90398">
        <ele>626</ele>
        <time>2024-09-22T10:33:25Z</time>
      </trkpt>
      <trkpt lat="42.45919" lon="2.90401">
        <ele>626</ele>
        <time>2024-09-22T10:33:28Z</time>
      </trkpt>
      <trkpt lat="42.45917" lon="2.90403">
        <ele>626</ele>
        <time>2024-09-22T10:33:30Z</time>
      </trkpt>
      <trkpt lat="42.45914" lon="2.90405">
        <ele>626</ele>
        <time>2024-09-22T10:33:32Z</time>
      </trkpt>
      <trkpt lat="42.45911" lon="2.90409">
        <ele>626</ele>
        <time>2024-09-22T10:33:36Z</time>
      </trkpt>
      <trkpt lat="42.45908" lon="2.90412">
        <ele>626</ele>
        <time>2024-09-22T10:33:38Z</time>
      </trkpt>
      <trkpt lat="42.45907" lon="2.90416">
        <ele>626</ele>
        <time>2024-09-22T10:33:40Z</time>
      </trkpt>
      <trkpt lat="42.45906" lon="2.9042">
        <ele>627</ele>
        <time>2024-09-22T10:33:42Z</time>
      </trkpt>
      <trkpt lat="42.45904" lon="2.90424">
        <ele>627</ele>
        <time>2024-09-22T10:33:44Z</time>
      </trkpt>
      <trkpt lat="42.45904" lon="2.90428">
        <ele>627</ele>
        <time>2024-09-22T10:33:45Z</time>
      </trkpt>
      <trkpt lat="42.45903" lon="2.90432">
        <ele>626</ele>
        <time>2024-09-22T10:33:48Z</time>
      </trkpt>
      <trkpt lat="42.45901" lon="2.90437">
        <ele>626</ele>
        <time>2024-09-22T10:33:51Z</time>
      </trkpt>
      <trkpt lat="42.459" lon="2.90443">
        <ele>627</ele>
        <time>2024-09-22T10:33:54Z</time>
      </trkpt>
      <trkpt lat="42.459" lon="2.90447">
        <ele>628</ele>
        <time>2024-09-22T10:33:56Z</time>
      </trkpt>
      <trkpt lat="42.45901" lon="2.90451">
        <ele>627</ele>
        <time>2024-09-22T10:33:58Z</time>
      </trkpt>
      <trkpt lat="42.45902" lon="2.90455">
        <ele>628</ele>
        <time>2024-09-22T10:34:00Z</time>
      </trkpt>
      <trkpt lat="42.45904" lon="2.9046">
        <ele>628</ele>
        <time>2024-09-22T10:34:03Z</time>
      </trkpt>
      <trkpt lat="42.45906" lon="2.90463">
        <ele>627</ele>
        <time>2024-09-22T10:34:05Z</time>
      </trkpt>
      <trkpt lat="42.45908" lon="2.90467">
        <ele>628</ele>
        <time>2024-09-22T10:34:07Z</time>
      </trkpt>
      <trkpt lat="42.4591" lon="2.9047">
        <ele>628</ele>
        <time>2024-09-22T10:34:09Z</time>
      </trkpt>
      <trkpt lat="42.4591" lon="2.90473">
        <ele>629</ele>
        <time>2024-09-22T10:34:11Z</time>
      </trkpt>
      <trkpt lat="42.45911" lon="2.90474">
        <ele>629</ele>
        <time>2024-09-22T10:34:12Z</time>
      </trkpt>
      <trkpt lat="42.45913" lon="2.90477">
        <ele>628</ele>
        <time>2024-09-22T10:34:14Z</time>
      </trkpt>
      <trkpt lat="42.45914" lon="2.90481">
        <ele>628</ele>
        <time>2024-09-22T10:34:17Z</time>
      </trkpt>
      <trkpt lat="42.45916" lon="2.90484">
        <ele>628</ele>
        <time>2024-09-22T10:34:19Z</time>
      </trkpt>
      <trkpt lat="42.45916" lon="2.90488">
        <ele>628</ele>
        <time>2024-09-22T10:34:21Z</time>
      </trkpt>
      <trkpt lat="42.45918" lon="2.90492">
        <ele>628</ele>
        <time>2024-09-22T10:34:24Z</time>
      </trkpt>
      <trkpt lat="42.4592" lon="2.90496">
        <ele>628</ele>
        <time>2024-09-22T10:34:26Z</time>
      </trkpt>
      <trkpt lat="42.45922" lon="2.90499">
        <ele>627</ele>
        <time>2024-09-22T10:34:28Z</time>
      </trkpt>
      <trkpt lat="42.45923" lon="2.90502">
        <ele>627</ele>
        <time>2024-09-22T10:34:30Z</time>
      </trkpt>
      <trkpt lat="42.45924" lon="2.90506">
        <ele>627</ele>
        <time>2024-09-22T10:34:32Z</time>
      </trkpt>
      <trkpt lat="42.45925" lon="2.90511">
        <ele>628</ele>
        <time>2024-09-22T10:34:35Z</time>
      </trkpt>
      <trkpt lat="42.45926" lon="2.90516">
        <ele>627</ele>
        <time>2024-09-22T10:34:38Z</time>
      </trkpt>
      <trkpt lat="42.45926" lon="2.9052">
        <ele>626</ele>
        <time>2024-09-22T10:34:41Z</time>
      </trkpt>
      <trkpt lat="42.45927" lon="2.90524">
        <ele>627</ele>
        <time>2024-09-22T10:34:43Z</time>
      </trkpt>
      <trkpt lat="42.45927" lon="2.90528">
        <ele>627</ele>
        <time>2024-09-22T10:34:45Z</time>
      </trkpt>
      <trkpt lat="42.45927" lon="2.90532">
        <ele>628</ele>
        <time>2024-09-22T10:34:47Z</time>
      </trkpt>
      <trkpt lat="42.45926" lon="2.90537">
        <ele>628</ele>
        <time>2024-09-22T10:34:50Z</time>
      </trkpt>
      <trkpt lat="42.45926" lon="2.90541">
        <ele>628</ele>
        <time>2024-09-22T10:34:52Z</time>
      </trkpt>
      <trkpt lat="42.45926" lon="2.90546">
        <ele>628</ele>
        <time>2024-09-22T10:34:54Z</time>
      </trkpt>
      <trkpt lat="42.45926" lon="2.90551">
        <ele>627</ele>
        <time>2024-09-22T10:34:57Z</time>
      </trkpt>
      <trkpt lat="42.45926" lon="2.90555">
        <ele>628</ele>
        <time>2024-09-22T10:34:59Z</time>
      </trkpt>
      <trkpt lat="42.45926" lon="2.90559">
        <ele>628</ele>
        <time>2024-09-22T10:35:01Z</time>
      </trkpt>
      <trkpt lat="42.45925" lon="2.90563">
        <ele>628</ele>
        <time>2024-09-22T10:35:03Z</time>
      </trkpt>
      <trkpt lat="42.45925" lon="2.90567">
        <ele>628</ele>
        <time>2024-09-22T10:35:05Z</time>
      </trkpt>
      <trkpt lat="42.45925" lon="2.90571">
        <ele>627</ele>
        <time>2024-09-22T10:35:07Z</time>
      </trkpt>
      <trkpt lat="42.45925" lon="2.90575">
        <ele>628</ele>
        <time>2024-09-22T10:35:09Z</time>
      </trkpt>
      <trkpt lat="42.45925" lon="2.90579">
        <ele>629</ele>
        <time>2024-09-22T10:35:11Z</time>
      </trkpt>
      <trkpt lat="42.45925" lon="2.90583">
        <ele>629</ele>
        <time>2024-09-22T10:35:13Z</time>
      </trkpt>
      <trkpt lat="42.45925" lon="2.90587">
        <ele>629</ele>
        <time>2024-09-22T10:35:15Z</time>
      </trkpt>
      <trkpt lat="42.45925" lon="2.90591">
        <ele>630</ele>
        <time>2024-09-22T10:35:18Z</time>
      </trkpt>
      <trkpt lat="42.45925" lon="2.90596">
        <ele>629</ele>
        <time>2024-09-22T10:35:21Z</time>
      </trkpt>
      <trkpt lat="42.45925" lon="2.906">
        <ele>630</ele>
        <time>2024-09-22T10:35:23Z</time>
      </trkpt>
      <trkpt lat="42.45925" lon="2.90604">
        <ele>630</ele>
        <time>2024-09-22T10:35:25Z</time>
      </trkpt>
      <trkpt lat="42.45925" lon="2.90609">
        <ele>630</ele>
        <time>2024-09-22T10:35:27Z</time>
      </trkpt>
      <trkpt lat="42.45925" lon="2.90613">
        <ele>629</ele>
        <time>2024-09-22T10:35:29Z</time>
      </trkpt>
      <trkpt lat="42.45925" lon="2.90617">
        <ele>629</ele>
        <time>2024-09-22T10:35:32Z</time>
      </trkpt>
      <trkpt lat="42.45926" lon="2.90621">
        <ele>630</ele>
        <time>2024-09-22T10:35:34Z</time>
      </trkpt>
      <trkpt lat="42.45926" lon="2.90625">
        <ele>630</ele>
        <time>2024-09-22T10:35:36Z</time>
      </trkpt>
      <trkpt lat="42.45927" lon="2.90629">
        <ele>631</ele>
        <time>2024-09-22T10:35:38Z</time>
      </trkpt>
      <trkpt lat="42.45928" lon="2.90634">
        <ele>631</ele>
        <time>2024-09-22T10:35:41Z</time>
      </trkpt>
      <trkpt lat="42.4593" lon="2.90638">
        <ele>631</ele>
        <time>2024-09-22T10:35:43Z</time>
      </trkpt>
      <trkpt lat="42.45932" lon="2.90642">
        <ele>632</ele>
        <time>2024-09-22T10:35:46Z</time>
      </trkpt>
      <trkpt lat="42.45935" lon="2.90644">
        <ele>632</ele>
        <time>2024-09-22T10:35:48Z</time>
      </trkpt>
      <trkpt lat="42.45938" lon="2.90646">
        <ele>632</ele>
        <time>2024-09-22T10:35:50Z</time>
      </trkpt>
      <trkpt lat="42.45941" lon="2.90647">
        <ele>632</ele>
        <time>2024-09-22T10:35:51Z</time>
      </trkpt>
      <trkpt lat="42.45945" lon="2.90648">
        <ele>630</ele>
        <time>2024-09-22T10:35:54Z</time>
      </trkpt>
      <trkpt lat="42.45948" lon="2.90649">
        <ele>630</ele>
        <time>2024-09-22T10:35:57Z</time>
      </trkpt>
      <trkpt lat="42.45952" lon="2.9065">
        <ele>631</ele>
        <time>2024-09-22T10:35:59Z</time>
      </trkpt>
      <trkpt lat="42.45956" lon="2.90651">
        <ele>631</ele>
        <time>2024-09-22T10:36:02Z</time>
      </trkpt>
      <trkpt lat="42.45959" lon="2.90651">
        <ele>632</ele>
        <time>2024-09-22T10:36:04Z</time>
      </trkpt>
      <trkpt lat="42.45962" lon="2.90652">
        <ele>632</ele>
        <time>2024-09-22T10:36:06Z</time>
      </trkpt>
      <trkpt lat="42.45965" lon="2.90652">
        <ele>632</ele>
        <time>2024-09-22T10:36:08Z</time>
      </trkpt>
      <trkpt lat="42.45968" lon="2.90652">
        <ele>632</ele>
        <time>2024-09-22T10:36:10Z</time>
      </trkpt>
      <trkpt lat="42.45971" lon="2.90653">
        <ele>632</ele>
        <time>2024-09-22T10:36:12Z</time>
      </trkpt>
      <trkpt lat="42.45974" lon="2.90654">
        <ele>631</ele>
        <time>2024-09-22T10:36:15Z</time>
      </trkpt>
      <trkpt lat="42.45977" lon="2.90655">
        <ele>631</ele>
        <time>2024-09-22T10:36:17Z</time>
      </trkpt>
      <trkpt lat="42.45981" lon="2.90657">
        <ele>630</ele>
        <time>2024-09-22T10:36:20Z</time>
      </trkpt>
      <trkpt lat="42.45984" lon="2.90659">
        <ele>629</ele>
        <time>2024-09-22T10:36:23Z</time>
      </trkpt>
      <trkpt lat="42.45987" lon="2.90661">
        <ele>630</ele>
        <time>2024-09-22T10:36:26Z</time>
      </trkpt>
      <trkpt lat="42.4599" lon="2.90664">
        <ele>629</ele>
        <time>2024-09-22T10:36:29Z</time>
      </trkpt>
      <trkpt lat="42.45992" lon="2.90667">
        <ele>628</ele>
        <time>2024-09-22T10:36:31Z</time>
      </trkpt>
      <trkpt lat="42.45994" lon="2.90671">
        <ele>630</ele>
        <time>2024-09-22T10:36:35Z</time>
      </trkpt>
      <trkpt lat="42.45997" lon="2.90674">
        <ele>630</ele>
        <time>2024-09-22T10:36:37Z</time>
      </trkpt>
      <trkpt lat="42.45999" lon="2.90678">
        <ele>631</ele>
        <time>2024-09-22T10:36:41Z</time>
      </trkpt>
      <trkpt lat="42.46002" lon="2.90681">
        <ele>631</ele>
        <time>2024-09-22T10:36:43Z</time>
      </trkpt>
      <trkpt lat="42.46004" lon="2.90684">
        <ele>631</ele>
        <time>2024-09-22T10:36:46Z</time>
      </trkpt>
      <trkpt lat="42.46005" lon="2.90687">
        <ele>631</ele>
        <time>2024-09-22T10:36:48Z</time>
      </trkpt>
      <trkpt lat="42.46008" lon="2.90691">
        <ele>630</ele>
        <time>2024-09-22T10:36:51Z</time>
      </trkpt>
      <trkpt lat="42.4601" lon="2.90695">
        <ele>631</ele>
        <time>2024-09-22T10:36:54Z</time>
      </trkpt>
      <trkpt lat="42.46013" lon="2.90698">
        <ele>632</ele>
        <time>2024-09-22T10:36:57Z</time>
      </trkpt>
      <trkpt lat="42.46015" lon="2.90701">
        <ele>632</ele>
        <time>2024-09-22T10:37:00Z</time>
      </trkpt>
      <trkpt lat="42.46018" lon="2.90703">
        <ele>632</ele>
        <time>2024-09-22T10:37:02Z</time>
      </trkpt>
      <trkpt lat="42.46021" lon="2.90705">
        <ele>631</ele>
        <time>2024-09-22T10:37:04Z</time>
      </trkpt>
      <trkpt lat="42.46024" lon="2.90707">
        <ele>631</ele>
        <time>2024-09-22T10:37:08Z</time>
      </trkpt>
      <trkpt lat="42.46027" lon="2.90709">
        <ele>630</ele>
        <time>2024-09-22T10:37:10Z</time>
      </trkpt>
      <trkpt lat="42.4603" lon="2.90711">
        <ele>632</ele>
        <time>2024-09-22T10:37:12Z</time>
      </trkpt>
      <trkpt lat="42.46032" lon="2.90713">
        <ele>632</ele>
        <time>2024-09-22T10:37:15Z</time>
      </trkpt>
      <trkpt lat="42.46035" lon="2.90714">
        <ele>632</ele>
        <time>2024-09-22T10:37:17Z</time>
      </trkpt>
      <trkpt lat="42.46038" lon="2.90715">
        <ele>633</ele>
        <time>2024-09-22T10:37:19Z</time>
      </trkpt>
      <trkpt lat="42.46041" lon="2.90718">
        <ele>632</ele>
        <time>2024-09-22T10:37:23Z</time>
      </trkpt>
      <trkpt lat="42.46044" lon="2.90719">
        <ele>632</ele>
        <time>2024-09-22T10:37:25Z</time>
      </trkpt>
      <trkpt lat="42.46047" lon="2.90721">
        <ele>633</ele>
        <time>2024-09-22T10:37:27Z</time>
      </trkpt>
      <trkpt lat="42.4605" lon="2.90722">
        <ele>633</ele>
        <time>2024-09-22T10:37:29Z</time>
      </trkpt>
      <trkpt lat="42.46053" lon="2.90724">
        <ele>633</ele>
        <time>2024-09-22T10:37:32Z</time>
      </trkpt>
      <trkpt lat="42.46056" lon="2.90728">
        <ele>634</ele>
        <time>2024-09-22T10:37:35Z</time>
      </trkpt>
      <trkpt lat="42.46059" lon="2.9073">
        <ele>634</ele>
        <time>2024-09-22T10:37:38Z</time>
      </trkpt>
      <trkpt lat="42.46061" lon="2.90733">
        <ele>634</ele>
        <time>2024-09-22T10:37:41Z</time>
      </trkpt>
      <trkpt lat="42.46063" lon="2.90736">
        <ele>634</ele>
        <time>2024-09-22T10:37:43Z</time>
      </trkpt>
      <trkpt lat="42.46066" lon="2.90738">
        <ele>634</ele>
        <time>2024-09-22T10:37:45Z</time>
      </trkpt>
      <trkpt lat="42.46068" lon="2.90742">
        <ele>634</ele>
        <time>2024-09-22T10:37:48Z</time>
      </trkpt>
      <trkpt lat="42.4607" lon="2.90745">
        <ele>633</ele>
        <time>2024-09-22T10:37:51Z</time>
      </trkpt>
      <trkpt lat="42.46072" lon="2.9075">
        <ele>635</ele>
        <time>2024-09-22T10:37:54Z</time>
      </trkpt>
      <trkpt lat="42.46072" lon="2.90754">
        <ele>635</ele>
        <time>2024-09-22T10:37:57Z</time>
      </trkpt>
      <trkpt lat="42.46073" lon="2.90759">
        <ele>636</ele>
        <time>2024-09-22T10:37:59Z</time>
      </trkpt>
      <trkpt lat="42.46074" lon="2.90763">
        <ele>636</ele>
        <time>2024-09-22T10:38:02Z</time>
      </trkpt>
      <trkpt lat="42.46074" lon="2.90768">
        <ele>636</ele>
        <time>2024-09-22T10:38:05Z</time>
      </trkpt>
      <trkpt lat="42.46076" lon="2.90773">
        <ele>636</ele>
        <time>2024-09-22T10:38:08Z</time>
      </trkpt>
      <trkpt lat="42.46075" lon="2.90777">
        <ele>636</ele>
        <time>2024-09-22T10:38:11Z</time>
      </trkpt>
      <trkpt lat="42.46076" lon="2.90783">
        <ele>636</ele>
        <time>2024-09-22T10:38:14Z</time>
      </trkpt>
      <trkpt lat="42.46076" lon="2.90787">
        <ele>636</ele>
        <time>2024-09-22T10:38:16Z</time>
      </trkpt>
      <trkpt lat="42.46076" lon="2.90791">
        <ele>635</ele>
        <time>2024-09-22T10:38:19Z</time>
      </trkpt>
      <trkpt lat="42.46076" lon="2.90796">
        <ele>636</ele>
        <time>2024-09-22T10:38:21Z</time>
      </trkpt>
      <trkpt lat="42.46077" lon="2.90799">
        <ele>636</ele>
        <time>2024-09-22T10:38:23Z</time>
      </trkpt>
      <trkpt lat="42.46078" lon="2.90804">
        <ele>635</ele>
        <time>2024-09-22T10:38:26Z</time>
      </trkpt>
      <trkpt lat="42.46079" lon="2.90808">
        <ele>635</ele>
        <time>2024-09-22T10:38:28Z</time>
      </trkpt>
      <trkpt lat="42.4608" lon="2.90812">
        <ele>634</ele>
        <time>2024-09-22T10:38:31Z</time>
      </trkpt>
      <trkpt lat="42.46081" lon="2.90817">
        <ele>635</ele>
        <time>2024-09-22T10:38:33Z</time>
      </trkpt>
      <trkpt lat="42.46082" lon="2.9082">
        <ele>635</ele>
        <time>2024-09-22T10:38:35Z</time>
      </trkpt>
      <trkpt lat="42.46083" lon="2.90824">
        <ele>635</ele>
        <time>2024-09-22T10:38:37Z</time>
      </trkpt>
      <trkpt lat="42.46084" lon="2.90828">
        <ele>635</ele>
        <time>2024-09-22T10:38:39Z</time>
      </trkpt>
      <trkpt lat="42.46085" lon="2.90833">
        <ele>637</ele>
        <time>2024-09-22T10:38:42Z</time>
      </trkpt>
      <trkpt lat="42.46087" lon="2.90835">
        <ele>637</ele>
        <time>2024-09-22T10:38:43Z</time>
      </trkpt>
      <trkpt lat="42.46091" lon="2.90837">
        <ele>636</ele>
        <time>2024-09-22T10:38:46Z</time>
      </trkpt>
      <trkpt lat="42.46093" lon="2.90841">
        <ele>635</ele>
        <time>2024-09-22T10:38:49Z</time>
      </trkpt>
      <trkpt lat="42.46096" lon="2.90845">
        <ele>636</ele>
        <time>2024-09-22T10:38:52Z</time>
      </trkpt>
      <trkpt lat="42.46098" lon="2.90848">
        <ele>636</ele>
        <time>2024-09-22T10:38:55Z</time>
      </trkpt>
      <trkpt lat="42.46101" lon="2.90851">
        <ele>635</ele>
        <time>2024-09-22T10:38:58Z</time>
      </trkpt>
      <trkpt lat="42.46103" lon="2.90855">
        <ele>635</ele>
        <time>2024-09-22T10:39:01Z</time>
      </trkpt>
      <trkpt lat="42.46105" lon="2.90859">
        <ele>635</ele>
        <time>2024-09-22T10:39:04Z</time>
      </trkpt>
      <trkpt lat="42.46107" lon="2.90862">
        <ele>635</ele>
        <time>2024-09-22T10:39:06Z</time>
      </trkpt>
      <trkpt lat="42.4611" lon="2.90866">
        <ele>635</ele>
        <time>2024-09-22T10:39:09Z</time>
      </trkpt>
      <trkpt lat="42.46112" lon="2.9087">
        <ele>634</ele>
        <time>2024-09-22T10:39:12Z</time>
      </trkpt>
      <trkpt lat="42.46115" lon="2.90875">
        <ele>635</ele>
        <time>2024-09-22T10:39:15Z</time>
      </trkpt>
      <trkpt lat="42.46117" lon="2.90879">
        <ele>634</ele>
        <time>2024-09-22T10:39:18Z</time>
      </trkpt>
      <trkpt lat="42.46119" lon="2.90883">
        <ele>634</ele>
        <time>2024-09-22T10:39:21Z</time>
      </trkpt>
      <trkpt lat="42.46121" lon="2.90886">
        <ele>635</ele>
        <time>2024-09-22T10:39:23Z</time>
      </trkpt>
      <trkpt lat="42.46123" lon="2.90889">
        <ele>635</ele>
        <time>2024-09-22T10:39:25Z</time>
      </trkpt>
      <trkpt lat="42.46124" lon="2.90894">
        <ele>635</ele>
        <time>2024-09-22T10:39:29Z</time>
      </trkpt>
      <trkpt lat="42.46125" lon="2.90898">
        <ele>633</ele>
        <time>2024-09-22T10:39:33Z</time>
      </trkpt>
      <trkpt lat="42.46125" lon="2.90902">
        <ele>632</ele>
        <time>2024-09-22T10:39:37Z</time>
      </trkpt>
      <trkpt lat="42.46126" lon="2.90907">
        <ele>631</ele>
        <time>2024-09-22T10:39:39Z</time>
      </trkpt>
      <trkpt lat="42.46125" lon="2.90911">
        <ele>632</ele>
        <time>2024-09-22T10:39:41Z</time>
      </trkpt>
      <trkpt lat="42.46125" lon="2.90916">
        <ele>633</ele>
        <time>2024-09-22T10:39:44Z</time>
      </trkpt>
      <trkpt lat="42.46124" lon="2.9092">
        <ele>633</ele>
        <time>2024-09-22T10:39:47Z</time>
      </trkpt>
      <trkpt lat="42.46122" lon="2.90925">
        <ele>635</ele>
        <time>2024-09-22T10:39:50Z</time>
      </trkpt>
      <trkpt lat="42.46121" lon="2.9093">
        <ele>633</ele>
        <time>2024-09-22T10:39:53Z</time>
      </trkpt>
      <trkpt lat="42.46118" lon="2.90934">
        <ele>634</ele>
        <time>2024-09-22T10:39:56Z</time>
      </trkpt>
      <trkpt lat="42.46117" lon="2.90938">
        <ele>634</ele>
        <time>2024-09-22T10:39:59Z</time>
      </trkpt>
      <trkpt lat="42.46116" lon="2.90944">
        <ele>633</ele>
        <time>2024-09-22T10:40:02Z</time>
      </trkpt>
      <trkpt lat="42.46114" lon="2.90949">
        <ele>633</ele>
        <time>2024-09-22T10:40:04Z</time>
      </trkpt>
      <trkpt lat="42.46113" lon="2.90953">
        <ele>633</ele>
        <time>2024-09-22T10:40:07Z</time>
      </trkpt>
      <trkpt lat="42.46111" lon="2.90957">
        <ele>633</ele>
        <time>2024-09-22T10:40:09Z</time>
      </trkpt>
      <trkpt lat="42.4611" lon="2.90961">
        <ele>634</ele>
        <time>2024-09-22T10:40:11Z</time>
      </trkpt>
      <trkpt lat="42.46108" lon="2.90964">
        <ele>634</ele>
        <time>2024-09-22T10:40:14Z</time>
      </trkpt>
      <trkpt lat="42.46105" lon="2.90969">
        <ele>633</ele>
        <time>2024-09-22T10:40:17Z</time>
      </trkpt>
      <trkpt lat="42.46105" lon="2.90974">
        <ele>635</ele>
        <time>2024-09-22T10:40:23Z</time>
      </trkpt>
      <trkpt lat="42.46102" lon="2.90979">
        <ele>634</ele>
        <time>2024-09-22T10:40:26Z</time>
      </trkpt>
      <trkpt lat="42.46101" lon="2.90982">
        <ele>633</ele>
        <time>2024-09-22T10:40:28Z</time>
      </trkpt>
      <trkpt lat="42.46099" lon="2.90986">
        <ele>633</ele>
        <time>2024-09-22T10:40:30Z</time>
      </trkpt>
      <trkpt lat="42.46097" lon="2.9099">
        <ele>634</ele>
        <time>2024-09-22T10:40:33Z</time>
      </trkpt>
      <trkpt lat="42.46096" lon="2.90993">
        <ele>635</ele>
        <time>2024-09-22T10:40:35Z</time>
      </trkpt>
      <trkpt lat="42.46094" lon="2.90997">
        <ele>636</ele>
        <time>2024-09-22T10:40:37Z</time>
      </trkpt>
      <trkpt lat="42.46094" lon="2.91001">
        <ele>638</ele>
        <time>2024-09-22T10:40:39Z</time>
      </trkpt>
      <trkpt lat="42.46095" lon="2.91005">
        <ele>639</ele>
        <time>2024-09-22T10:40:41Z</time>
      </trkpt>
      <trkpt lat="42.46096" lon="2.9101">
        <ele>638</ele>
        <time>2024-09-22T10:40:44Z</time>
      </trkpt>
      <trkpt lat="42.46097" lon="2.91014">
        <ele>639</ele>
        <time>2024-09-22T10:40:46Z</time>
      </trkpt>
      <trkpt lat="42.46099" lon="2.91018">
        <ele>638</ele>
        <time>2024-09-22T10:40:49Z</time>
      </trkpt>
      <trkpt lat="42.46103" lon="2.9102">
        <ele>638</ele>
        <time>2024-09-22T10:40:52Z</time>
      </trkpt>
      <trkpt lat="42.46107" lon="2.91022">
        <ele>637</ele>
        <time>2024-09-22T10:40:54Z</time>
      </trkpt>
      <trkpt lat="42.4611" lon="2.91024">
        <ele>638</ele>
        <time>2024-09-22T10:40:57Z</time>
      </trkpt>
      <trkpt lat="42.46113" lon="2.91026">
        <ele>637</ele>
        <time>2024-09-22T10:41:00Z</time>
      </trkpt>
      <trkpt lat="42.46116" lon="2.91027">
        <ele>637</ele>
        <time>2024-09-22T10:41:02Z</time>
      </trkpt>
      <trkpt lat="42.4612" lon="2.91027">
        <ele>637</ele>
        <time>2024-09-22T10:41:05Z</time>
      </trkpt>
      <trkpt lat="42.46123" lon="2.91027">
        <ele>637</ele>
        <time>2024-09-22T10:41:08Z</time>
      </trkpt>
      <trkpt lat="42.46127" lon="2.91027">
        <ele>638</ele>
        <time>2024-09-22T10:41:10Z</time>
      </trkpt>
      <trkpt lat="42.4613" lon="2.91028">
        <ele>637</ele>
        <time>2024-09-22T10:41:13Z</time>
      </trkpt>
      <trkpt lat="42.46133" lon="2.91029">
        <ele>636</ele>
        <time>2024-09-22T10:41:15Z</time>
      </trkpt>
      <trkpt lat="42.46136" lon="2.91029">
        <ele>637</ele>
        <time>2024-09-22T10:41:18Z</time>
      </trkpt>
      <trkpt lat="42.46139" lon="2.91029">
        <ele>636</ele>
        <time>2024-09-22T10:41:20Z</time>
      </trkpt>
      <trkpt lat="42.46142" lon="2.91029">
        <ele>636</ele>
        <time>2024-09-22T10:41:22Z</time>
      </trkpt>
      <trkpt lat="42.46146" lon="2.91028">
        <ele>636</ele>
        <time>2024-09-22T10:41:25Z</time>
      </trkpt>
      <trkpt lat="42.46149" lon="2.91027">
        <ele>636</ele>
        <time>2024-09-22T10:41:28Z</time>
      </trkpt>
      <trkpt lat="42.46152" lon="2.91026">
        <ele>636</ele>
        <time>2024-09-22T10:41:30Z</time>
      </trkpt>
      <trkpt lat="42.46155" lon="2.91026">
        <ele>636</ele>
        <time>2024-09-22T10:41:33Z</time>
      </trkpt>
      <trkpt lat="42.46159" lon="2.91025">
        <ele>636</ele>
        <time>2024-09-22T10:41:38Z</time>
      </trkpt>
      <trkpt lat="42.46162" lon="2.91024">
        <ele>637</ele>
        <time>2024-09-22T10:41:40Z</time>
      </trkpt>
      <trkpt lat="42.46165" lon="2.91024">
        <ele>634</ele>
        <time>2024-09-22T10:41:43Z</time>
      </trkpt>
      <trkpt lat="42.46168" lon="2.91023">
        <ele>636</ele>
        <time>2024-09-22T10:41:46Z</time>
      </trkpt>
      <trkpt lat="42.46172" lon="2.91022">
        <ele>636</ele>
        <time>2024-09-22T10:41:49Z</time>
      </trkpt>
      <trkpt lat="42.46175" lon="2.91022">
        <ele>635</ele>
        <time>2024-09-22T10:41:52Z</time>
      </trkpt>
      <trkpt lat="42.46179" lon="2.91021">
        <ele>636</ele>
        <time>2024-09-22T10:41:54Z</time>
      </trkpt>
      <trkpt lat="42.46182" lon="2.91022">
        <ele>635</ele>
        <time>2024-09-22T10:41:57Z</time>
      </trkpt>
      <trkpt lat="42.46185" lon="2.91023">
        <ele>634</ele>
        <time>2024-09-22T10:41:59Z</time>
      </trkpt>
      <trkpt lat="42.46188" lon="2.91024">
        <ele>634</ele>
        <time>2024-09-22T10:42:01Z</time>
      </trkpt>
      <trkpt lat="42.46191" lon="2.91026">
        <ele>634</ele>
        <time>2024-09-22T10:42:03Z</time>
      </trkpt>
      <trkpt lat="42.46193" lon="2.91029">
        <ele>634</ele>
        <time>2024-09-22T10:42:05Z</time>
      </trkpt>
      <trkpt lat="42.46194" lon="2.91033">
        <ele>633</ele>
        <time>2024-09-22T10:42:07Z</time>
      </trkpt>
      <trkpt lat="42.46193" lon="2.91036">
        <ele>634</ele>
        <time>2024-09-22T10:42:10Z</time>
      </trkpt>
      <trkpt lat="42.46191" lon="2.9104">
        <ele>633</ele>
        <time>2024-09-22T10:42:13Z</time>
      </trkpt>
      <trkpt lat="42.46191" lon="2.91044">
        <ele>634</ele>
        <time>2024-09-22T10:42:15Z</time>
      </trkpt>
      <trkpt lat="42.4619" lon="2.91048">
        <ele>635</ele>
        <time>2024-09-22T10:42:20Z</time>
      </trkpt>
      <trkpt lat="42.46188" lon="2.91052">
        <ele>635</ele>
        <time>2024-09-22T10:42:23Z</time>
      </trkpt>
      <trkpt lat="42.46187" lon="2.91056">
        <ele>636</ele>
        <time>2024-09-22T10:42:26Z</time>
      </trkpt>
      <trkpt lat="42.46186" lon="2.91061">
        <ele>637</ele>
        <time>2024-09-22T10:42:28Z</time>
      </trkpt>
      <trkpt lat="42.46186" lon="2.91065">
        <ele>637</ele>
        <time>2024-09-22T10:42:30Z</time>
      </trkpt>
      <trkpt lat="42.46186" lon="2.91069">
        <ele>635</ele>
        <time>2024-09-22T10:42:32Z</time>
      </trkpt>
      <trkpt lat="42.46186" lon="2.91074">
        <ele>636</ele>
        <time>2024-09-22T10:42:35Z</time>
      </trkpt>
      <trkpt lat="42.46187" lon="2.91079">
        <ele>636</ele>
        <time>2024-09-22T10:42:37Z</time>
      </trkpt>
      <trkpt lat="42.46187" lon="2.91083">
        <ele>637</ele>
        <time>2024-09-22T10:42:39Z</time>
      </trkpt>
      <trkpt lat="42.46188" lon="2.91087">
        <ele>638</ele>
        <time>2024-09-22T10:42:42Z</time>
      </trkpt>
      <trkpt lat="42.46189" lon="2.91091">
        <ele>639</ele>
        <time>2024-09-22T10:42:44Z</time>
      </trkpt>
      <trkpt lat="42.46192" lon="2.91094">
        <ele>637</ele>
        <time>2024-09-22T10:42:47Z</time>
      </trkpt>
      <trkpt lat="42.46195" lon="2.91098">
        <ele>638</ele>
        <time>2024-09-22T10:42:50Z</time>
      </trkpt>
      <trkpt lat="42.46199" lon="2.911">
        <ele>638</ele>
        <time>2024-09-22T10:42:53Z</time>
      </trkpt>
      <trkpt lat="42.46203" lon="2.91103">
        <ele>638</ele>
        <time>2024-09-22T10:42:57Z</time>
      </trkpt>
      <trkpt lat="42.46205" lon="2.91107">
        <ele>637</ele>
        <time>2024-09-22T10:42:59Z</time>
      </trkpt>
      <trkpt lat="42.46207" lon="2.91111">
        <ele>638</ele>
        <time>2024-09-22T10:43:02Z</time>
      </trkpt>
      <trkpt lat="42.46208" lon="2.91115">
        <ele>638</ele>
        <time>2024-09-22T10:43:05Z</time>
      </trkpt>
      <trkpt lat="42.46211" lon="2.91118">
        <ele>638</ele>
        <time>2024-09-22T10:43:07Z</time>
      </trkpt>
      <trkpt lat="42.46213" lon="2.91121">
        <ele>639</ele>
        <time>2024-09-22T10:43:09Z</time>
      </trkpt>
      <trkpt lat="42.46215" lon="2.91124">
        <ele>639</ele>
        <time>2024-09-22T10:43:11Z</time>
      </trkpt>
      <trkpt lat="42.46217" lon="2.91127">
        <ele>639</ele>
        <time>2024-09-22T10:43:14Z</time>
      </trkpt>
      <trkpt lat="42.46219" lon="2.9113">
        <ele>638</ele>
        <time>2024-09-22T10:43:16Z</time>
      </trkpt>
      <trkpt lat="42.46222" lon="2.91132">
        <ele>639</ele>
        <time>2024-09-22T10:43:18Z</time>
      </trkpt>
      <trkpt lat="42.46224" lon="2.91135">
        <ele>638</ele>
        <time>2024-09-22T10:43:20Z</time>
      </trkpt>
      <trkpt lat="42.46228" lon="2.91137">
        <ele>639</ele>
        <time>2024-09-22T10:43:22Z</time>
      </trkpt>
      <trkpt lat="42.46231" lon="2.91138">
        <ele>637</ele>
        <time>2024-09-22T10:43:25Z</time>
      </trkpt>
      <trkpt lat="42.46234" lon="2.91142">
        <ele>639</ele>
        <time>2024-09-22T10:43:28Z</time>
      </trkpt>
      <trkpt lat="42.46236" lon="2.91145">
        <ele>637</ele>
        <time>2024-09-22T10:43:30Z</time>
      </trkpt>
      <trkpt lat="42.46238" lon="2.91148">
        <ele>638</ele>
        <time>2024-09-22T10:43:34Z</time>
      </trkpt>
      <trkpt lat="42.46241" lon="2.9115">
        <ele>639</ele>
        <time>2024-09-22T10:43:36Z</time>
      </trkpt>
      <trkpt lat="42.46245" lon="2.91152">
        <ele>640</ele>
        <time>2024-09-22T10:43:38Z</time>
      </trkpt>
      <trkpt lat="42.46247" lon="2.91155">
        <ele>640</ele>
        <time>2024-09-22T10:43:42Z</time>
      </trkpt>
      <trkpt lat="42.46249" lon="2.91157">
        <ele>639</ele>
        <time>2024-09-22T10:43:44Z</time>
      </trkpt>
      <trkpt lat="42.46252" lon="2.9116">
        <ele>639</ele>
        <time>2024-09-22T10:43:47Z</time>
      </trkpt>
      <trkpt lat="42.46253" lon="2.91163">
        <ele>639</ele>
        <time>2024-09-22T10:43:50Z</time>
      </trkpt>
      <trkpt lat="42.46255" lon="2.91167">
        <ele>639</ele>
        <time>2024-09-22T10:43:52Z</time>
      </trkpt>
      <trkpt lat="42.46257" lon="2.9117">
        <ele>638</ele>
        <time>2024-09-22T10:43:55Z</time>
      </trkpt>
      <trkpt lat="42.4626" lon="2.91175">
        <ele>638</ele>
        <time>2024-09-22T10:43:58Z</time>
      </trkpt>
      <trkpt lat="42.4626" lon="2.91179">
        <ele>638</ele>
        <time>2024-09-22T10:44:01Z</time>
      </trkpt>
      <trkpt lat="42.4626" lon="2.91183">
        <ele>638</ele>
        <time>2024-09-22T10:44:03Z</time>
      </trkpt>
      <trkpt lat="42.4626" lon="2.91187">
        <ele>638</ele>
        <time>2024-09-22T10:44:06Z</time>
      </trkpt>
      <trkpt lat="42.46261" lon="2.91193">
        <ele>639</ele>
        <time>2024-09-22T10:44:09Z</time>
      </trkpt>
      <trkpt lat="42.46262" lon="2.91196">
        <ele>637</ele>
        <time>2024-09-22T10:44:11Z</time>
      </trkpt>
      <trkpt lat="42.46263" lon="2.912">
        <ele>637</ele>
        <time>2024-09-22T10:44:14Z</time>
      </trkpt>
      <trkpt lat="42.46264" lon="2.91205">
        <ele>637</ele>
        <time>2024-09-22T10:44:16Z</time>
      </trkpt>
      <trkpt lat="42.46266" lon="2.91209">
        <ele>637</ele>
        <time>2024-09-22T10:44:18Z</time>
      </trkpt>
      <trkpt lat="42.46267" lon="2.91213">
        <ele>638</ele>
        <time>2024-09-22T10:44:21Z</time>
      </trkpt>
      <trkpt lat="42.46269" lon="2.91217">
        <ele>638</ele>
        <time>2024-09-22T10:44:23Z</time>
      </trkpt>
      <trkpt lat="42.4627" lon="2.91221">
        <ele>638</ele>
        <time>2024-09-22T10:44:25Z</time>
      </trkpt>
      <trkpt lat="42.46273" lon="2.91223">
        <ele>638</ele>
        <time>2024-09-22T10:44:28Z</time>
      </trkpt>
      <trkpt lat="42.46275" lon="2.91225">
        <ele>638</ele>
        <time>2024-09-22T10:44:30Z</time>
      </trkpt>
      <trkpt lat="42.46277" lon="2.91229">
        <ele>639</ele>
        <time>2024-09-22T10:44:33Z</time>
      </trkpt>
      <trkpt lat="42.46279" lon="2.91232">
        <ele>638</ele>
        <time>2024-09-22T10:44:36Z</time>
      </trkpt>
      <trkpt lat="42.4628" lon="2.91236">
        <ele>639</ele>
        <time>2024-09-22T10:44:40Z</time>
      </trkpt>
      <trkpt lat="42.46281" lon="2.9124">
        <ele>639</ele>
        <time>2024-09-22T10:44:44Z</time>
      </trkpt>
      <trkpt lat="42.46281" lon="2.91245">
        <ele>641</ele>
        <time>2024-09-22T10:44:47Z</time>
      </trkpt>
      <trkpt lat="42.46281" lon="2.9125">
        <ele>641</ele>
        <time>2024-09-22T10:44:50Z</time>
      </trkpt>
      <trkpt lat="42.46282" lon="2.91255">
        <ele>640</ele>
        <time>2024-09-22T10:44:53Z</time>
      </trkpt>
      <trkpt lat="42.46281" lon="2.9126">
        <ele>640</ele>
        <time>2024-09-22T10:44:56Z</time>
      </trkpt>
      <trkpt lat="42.4628" lon="2.91264">
        <ele>640</ele>
        <time>2024-09-22T10:44:59Z</time>
      </trkpt>
      <trkpt lat="42.46278" lon="2.9127">
        <ele>641</ele>
        <time>2024-09-22T10:45:03Z</time>
      </trkpt>
      <trkpt lat="42.46276" lon="2.91274">
        <ele>640</ele>
        <time>2024-09-22T10:45:06Z</time>
      </trkpt>
      <trkpt lat="42.46276" lon="2.91278">
        <ele>640</ele>
        <time>2024-09-22T10:45:09Z</time>
      </trkpt>
      <trkpt lat="42.46276" lon="2.91282">
        <ele>640</ele>
        <time>2024-09-22T10:45:12Z</time>
      </trkpt>
      <trkpt lat="42.46276" lon="2.91287">
        <ele>641</ele>
        <time>2024-09-22T10:45:15Z</time>
      </trkpt>
      <trkpt lat="42.46276" lon="2.91291">
        <ele>641</ele>
        <time>2024-09-22T10:45:18Z</time>
      </trkpt>
      <trkpt lat="42.46274" lon="2.91296">
        <ele>642</ele>
        <time>2024-09-22T10:45:21Z</time>
      </trkpt>
      <trkpt lat="42.46274" lon="2.913">
        <ele>642</ele>
        <time>2024-09-22T10:45:23Z</time>
      </trkpt>
      <trkpt lat="42.46273" lon="2.91304">
        <ele>643</ele>
        <time>2024-09-22T10:45:26Z</time>
      </trkpt>
      <trkpt lat="42.46272" lon="2.91308">
        <ele>644</ele>
        <time>2024-09-22T10:45:28Z</time>
      </trkpt>
      <trkpt lat="42.46271" lon="2.91312">
        <ele>644</ele>
        <time>2024-09-22T10:45:31Z</time>
      </trkpt>
      <trkpt lat="42.4627" lon="2.91316">
        <ele>644</ele>
        <time>2024-09-22T10:45:33Z</time>
      </trkpt>
      <trkpt lat="42.46267" lon="2.91319">
        <ele>645</ele>
        <time>2024-09-22T10:45:37Z</time>
      </trkpt>
      <trkpt lat="42.46265" lon="2.91323">
        <ele>645</ele>
        <time>2024-09-22T10:45:40Z</time>
      </trkpt>
      <trkpt lat="42.46264" lon="2.91327">
        <ele>645</ele>
        <time>2024-09-22T10:45:43Z</time>
      </trkpt>
      <trkpt lat="42.46262" lon="2.91331">
        <ele>645</ele>
        <time>2024-09-22T10:45:47Z</time>
      </trkpt>
      <trkpt lat="42.4626" lon="2.91335">
        <ele>646</ele>
        <time>2024-09-22T10:45:50Z</time>
      </trkpt>
      <trkpt lat="42.46258" lon="2.91338">
        <ele>645</ele>
        <time>2024-09-22T10:45:52Z</time>
      </trkpt>
      <trkpt lat="42.46256" lon="2.91342">
        <ele>645</ele>
        <time>2024-09-22T10:45:54Z</time>
      </trkpt>
      <trkpt lat="42.46257" lon="2.91346">
        <ele>645</ele>
        <time>2024-09-22T10:45:58Z</time>
      </trkpt>
      <trkpt lat="42.46255" lon="2.91349">
        <ele>646</ele>
        <time>2024-09-22T10:46:00Z</time>
      </trkpt>
      <trkpt lat="42.46255" lon="2.91354">
        <ele>646</ele>
        <time>2024-09-22T10:46:03Z</time>
      </trkpt>
      <trkpt lat="42.46253" lon="2.91358">
        <ele>645</ele>
        <time>2024-09-22T10:46:06Z</time>
      </trkpt>
      <trkpt lat="42.46253" lon="2.91362">
        <ele>647</ele>
        <time>2024-09-22T10:46:08Z</time>
      </trkpt>
      <trkpt lat="42.46253" lon="2.91367">
        <ele>648</ele>
        <time>2024-09-22T10:46:11Z</time>
      </trkpt>
      <trkpt lat="42.46252" lon="2.91372">
        <ele>648</ele>
        <time>2024-09-22T10:46:13Z</time>
      </trkpt>
      <trkpt lat="42.46251" lon="2.91375">
        <ele>648</ele>
        <time>2024-09-22T10:46:17Z</time>
      </trkpt>
      <trkpt lat="42.4625" lon="2.91379">
        <ele>648</ele>
        <time>2024-09-22T10:46:22Z</time>
      </trkpt>
      <trkpt lat="42.46249" lon="2.91384">
        <ele>648</ele>
        <time>2024-09-22T10:46:23Z</time>
      </trkpt>
      <trkpt lat="42.46248" lon="2.91387">
        <ele>648</ele>
        <time>2024-09-22T10:46:25Z</time>
      </trkpt>
      <trkpt lat="42.46248" lon="2.91391">
        <ele>648</ele>
        <time>2024-09-22T10:46:27Z</time>
      </trkpt>
      <trkpt lat="42.46248" lon="2.91395">
        <ele>648</ele>
        <time>2024-09-22T10:46:29Z</time>
      </trkpt>
      <trkpt lat="42.46248" lon="2.914">
        <ele>650</ele>
        <time>2024-09-22T10:46:31Z</time>
      </trkpt>
      <trkpt lat="42.46248" lon="2.91405">
        <ele>649</ele>
        <time>2024-09-22T10:46:35Z</time>
      </trkpt>
      <trkpt lat="42.46247" lon="2.9141">
        <ele>649</ele>
        <time>2024-09-22T10:46:38Z</time>
      </trkpt>
      <trkpt lat="42.46247" lon="2.91415">
        <ele>649</ele>
        <time>2024-09-22T10:46:41Z</time>
      </trkpt>
      <trkpt lat="42.46247" lon="2.9142">
        <ele>650</ele>
        <time>2024-09-22T10:46:44Z</time>
      </trkpt>
      <trkpt lat="42.46246" lon="2.91424">
        <ele>651</ele>
        <time>2024-09-22T10:46:46Z</time>
      </trkpt>
      <trkpt lat="42.46247" lon="2.91429">
        <ele>650</ele>
        <time>2024-09-22T10:46:50Z</time>
      </trkpt>
      <trkpt lat="42.46247" lon="2.91434">
        <ele>650</ele>
        <time>2024-09-22T10:46:53Z</time>
      </trkpt>
      <trkpt lat="42.46247" lon="2.91439">
        <ele>650</ele>
        <time>2024-09-22T10:46:56Z</time>
      </trkpt>
      <trkpt lat="42.46247" lon="2.91444">
        <ele>650</ele>
        <time>2024-09-22T10:46:59Z</time>
      </trkpt>
      <trkpt lat="42.46247" lon="2.91448">
        <ele>650</ele>
        <time>2024-09-22T10:47:02Z</time>
      </trkpt>
      <trkpt lat="42.46247" lon="2.91453">
        <ele>650</ele>
        <time>2024-09-22T10:47:04Z</time>
      </trkpt>
      <trkpt lat="42.46247" lon="2.91457">
        <ele>650</ele>
        <time>2024-09-22T10:47:07Z</time>
      </trkpt>
      <trkpt lat="42.46247" lon="2.91463">
        <ele>651</ele>
        <time>2024-09-22T10:47:10Z</time>
      </trkpt>
      <trkpt lat="42.46247" lon="2.91467">
        <ele>650</ele>
        <time>2024-09-22T10:47:13Z</time>
      </trkpt>
      <trkpt lat="42.46246" lon="2.91472">
        <ele>651</ele>
        <time>2024-09-22T10:47:15Z</time>
      </trkpt>
      <trkpt lat="42.46245" lon="2.91476">
        <ele>651</ele>
        <time>2024-09-22T10:47:18Z</time>
      </trkpt>
      <trkpt lat="42.46243" lon="2.91481">
        <ele>652</ele>
        <time>2024-09-22T10:47:21Z</time>
      </trkpt>
      <trkpt lat="42.46243" lon="2.91486">
        <ele>652</ele>
        <time>2024-09-22T10:47:23Z</time>
      </trkpt>
      <trkpt lat="42.46241" lon="2.9149">
        <ele>654</ele>
        <time>2024-09-22T10:47:26Z</time>
      </trkpt>
      <trkpt lat="42.46241" lon="2.91495">
        <ele>653</ele>
        <time>2024-09-22T10:47:28Z</time>
      </trkpt>
      <trkpt lat="42.46241" lon="2.915">
        <ele>653</ele>
        <time>2024-09-22T10:47:31Z</time>
      </trkpt>
      <trkpt lat="42.46241" lon="2.91504">
        <ele>655</ele>
        <time>2024-09-22T10:47:35Z</time>
      </trkpt>
      <trkpt lat="42.46241" lon="2.91509">
        <ele>656</ele>
        <time>2024-09-22T10:47:36Z</time>
      </trkpt>
      <trkpt lat="42.46242" lon="2.91512">
        <ele>657</ele>
        <time>2024-09-22T10:47:39Z</time>
      </trkpt>
      <trkpt lat="42.46244" lon="2.91515">
        <ele>657</ele>
        <time>2024-09-22T10:47:41Z</time>
      </trkpt>
      <trkpt lat="42.46247" lon="2.91515">
        <ele>656</ele>
        <time>2024-09-22T10:47:43Z</time>
      </trkpt>
      <trkpt lat="42.46251" lon="2.91514">
        <ele>656</ele>
        <time>2024-09-22T10:47:45Z</time>
      </trkpt>
      <trkpt lat="42.46254" lon="2.91512">
        <ele>656</ele>
        <time>2024-09-22T10:47:47Z</time>
      </trkpt>
      <trkpt lat="42.46258" lon="2.91511">
        <ele>656</ele>
        <time>2024-09-22T10:47:49Z</time>
      </trkpt>
      <trkpt lat="42.46261" lon="2.91509">
        <ele>655</ele>
        <time>2024-09-22T10:47:50Z</time>
      </trkpt>
      <trkpt lat="42.46264" lon="2.91508">
        <ele>655</ele>
        <time>2024-09-22T10:47:53Z</time>
      </trkpt>
      <trkpt lat="42.46267" lon="2.91506">
        <ele>654</ele>
        <time>2024-09-22T10:47:56Z</time>
      </trkpt>
      <trkpt lat="42.46271" lon="2.91504">
        <ele>654</ele>
        <time>2024-09-22T10:47:59Z</time>
      </trkpt>
      <trkpt lat="42.46274" lon="2.91503">
        <ele>653</ele>
        <time>2024-09-22T10:48:01Z</time>
      </trkpt>
      <trkpt lat="42.46276" lon="2.915">
        <ele>653</ele>
        <time>2024-09-22T10:48:03Z</time>
      </trkpt>
      <trkpt lat="42.46279" lon="2.91498">
        <ele>654</ele>
        <time>2024-09-22T10:48:05Z</time>
      </trkpt>
      <trkpt lat="42.4628" lon="2.91495">
        <ele>651</ele>
        <time>2024-09-22T10:48:08Z</time>
      </trkpt>
      <trkpt lat="42.46283" lon="2.91491">
        <ele>653</ele>
        <time>2024-09-22T10:48:10Z</time>
      </trkpt>
      <trkpt lat="42.46286" lon="2.91489">
        <ele>651</ele>
        <time>2024-09-22T10:48:13Z</time>
      </trkpt>
      <trkpt lat="42.46288" lon="2.91486">
        <ele>651</ele>
        <time>2024-09-22T10:48:15Z</time>
      </trkpt>
      <trkpt lat="42.46291" lon="2.91483">
        <ele>651</ele>
        <time>2024-09-22T10:48:18Z</time>
      </trkpt>
      <trkpt lat="42.46294" lon="2.91481">
        <ele>651</ele>
        <time>2024-09-22T10:48:21Z</time>
      </trkpt>
      <trkpt lat="42.46296" lon="2.91477">
        <ele>651</ele>
        <time>2024-09-22T10:48:24Z</time>
      </trkpt>
      <trkpt lat="42.46299" lon="2.91474">
        <ele>651</ele>
        <time>2024-09-22T10:48:26Z</time>
      </trkpt>
      <trkpt lat="42.46301" lon="2.91471">
        <ele>651</ele>
        <time>2024-09-22T10:48:27Z</time>
      </trkpt>
      <trkpt lat="42.46302" lon="2.91467">
        <ele>651</ele>
        <time>2024-09-22T10:48:29Z</time>
      </trkpt>
      <trkpt lat="42.46303" lon="2.91463">
        <ele>651</ele>
        <time>2024-09-22T10:48:31Z</time>
      </trkpt>
      <trkpt lat="42.46305" lon="2.91459">
        <ele>651</ele>
        <time>2024-09-22T10:48:34Z</time>
      </trkpt>
      <trkpt lat="42.46308" lon="2.91456">
        <ele>651</ele>
        <time>2024-09-22T10:48:37Z</time>
      </trkpt>
      <trkpt lat="42.4631" lon="2.91453">
        <ele>650</ele>
        <time>2024-09-22T10:48:40Z</time>
      </trkpt>
      <trkpt lat="42.46313" lon="2.91451">
        <ele>649</ele>
        <time>2024-09-22T10:48:43Z</time>
      </trkpt>
      <trkpt lat="42.46316" lon="2.91447">
        <ele>649</ele>
        <time>2024-09-22T10:48:46Z</time>
      </trkpt>
      <trkpt lat="42.4632" lon="2.91446">
        <ele>649</ele>
        <time>2024-09-22T10:48:48Z</time>
      </trkpt>
      <trkpt lat="42.46324" lon="2.91444">
        <ele>648</ele>
        <time>2024-09-22T10:48:51Z</time>
      </trkpt>
      <trkpt lat="42.46327" lon="2.91441">
        <ele>648</ele>
        <time>2024-09-22T10:48:54Z</time>
      </trkpt>
      <trkpt lat="42.4633" lon="2.91439">
        <ele>649</ele>
        <time>2024-09-22T10:48:56Z</time>
      </trkpt>
      <trkpt lat="42.46333" lon="2.91438">
        <ele>649</ele>
        <time>2024-09-22T10:48:58Z</time>
      </trkpt>
      <trkpt lat="42.46336" lon="2.91435">
        <ele>650</ele>
        <time>2024-09-22T10:49:01Z</time>
      </trkpt>
      <trkpt lat="42.46339" lon="2.91433">
        <ele>648</ele>
        <time>2024-09-22T10:49:04Z</time>
      </trkpt>
      <trkpt lat="42.46341" lon="2.9143">
        <ele>649</ele>
        <time>2024-09-22T10:49:06Z</time>
      </trkpt>
      <trkpt lat="42.46344" lon="2.91429">
        <ele>648</ele>
        <time>2024-09-22T10:49:08Z</time>
      </trkpt>
      <trkpt lat="42.46347" lon="2.91429">
        <ele>648</ele>
        <time>2024-09-22T10:49:11Z</time>
      </trkpt>
      <trkpt lat="42.46349" lon="2.91427">
        <ele>647</ele>
        <time>2024-09-22T10:49:13Z</time>
      </trkpt>
      <trkpt lat="42.46352" lon="2.91425">
        <ele>647</ele>
        <time>2024-09-22T10:49:16Z</time>
      </trkpt>
      <trkpt lat="42.46354" lon="2.91422">
        <ele>647</ele>
        <time>2024-09-22T10:49:18Z</time>
      </trkpt>
      <trkpt lat="42.46357" lon="2.9142">
        <ele>647</ele>
        <time>2024-09-22T10:49:21Z</time>
      </trkpt>
      <trkpt lat="42.4636" lon="2.91417">
        <ele>646</ele>
        <time>2024-09-22T10:49:24Z</time>
      </trkpt>
      <trkpt lat="42.46363" lon="2.91415">
        <ele>645</ele>
        <time>2024-09-22T10:49:31Z</time>
      </trkpt>
      <trkpt lat="42.46366" lon="2.91412">
        <ele>646</ele>
        <time>2024-09-22T10:49:33Z</time>
      </trkpt>
      <trkpt lat="42.46369" lon="2.91411">
        <ele>645</ele>
        <time>2024-09-22T10:49:36Z</time>
      </trkpt>
      <trkpt lat="42.46372" lon="2.9141">
        <ele>645</ele>
        <time>2024-09-22T10:49:39Z</time>
      </trkpt>
      <trkpt lat="42.46374" lon="2.91406">
        <ele>646</ele>
        <time>2024-09-22T10:49:58Z</time>
      </trkpt>
      <trkpt lat="42.46377" lon="2.91404">
        <ele>646</ele>
        <time>2024-09-22T10:50:01Z</time>
      </trkpt>
      <trkpt lat="42.4638" lon="2.91403">
        <ele>646</ele>
        <time>2024-09-22T10:50:03Z</time>
      </trkpt>
      <trkpt lat="42.46383" lon="2.91401">
        <ele>646</ele>
        <time>2024-09-22T10:50:06Z</time>
      </trkpt>
      <trkpt lat="42.46387" lon="2.914">
        <ele>645</ele>
        <time>2024-09-22T10:50:10Z</time>
      </trkpt>
      <trkpt lat="42.4639" lon="2.91398">
        <ele>644</ele>
        <time>2024-09-22T10:50:13Z</time>
      </trkpt>
      <trkpt lat="42.46393" lon="2.91398">
        <ele>644</ele>
        <time>2024-09-22T10:50:15Z</time>
      </trkpt>
      <trkpt lat="42.46396" lon="2.91398">
        <ele>644</ele>
        <time>2024-09-22T10:50:17Z</time>
      </trkpt>
      <trkpt lat="42.46399" lon="2.91399">
        <ele>644</ele>
        <time>2024-09-22T10:50:19Z</time>
      </trkpt>
      <trkpt lat="42.46402" lon="2.91399">
        <ele>644</ele>
        <time>2024-09-22T10:50:22Z</time>
      </trkpt>
      <trkpt lat="42.46405" lon="2.91398">
        <ele>645</ele>
        <time>2024-09-22T10:50:25Z</time>
      </trkpt>
      <trkpt lat="42.46408" lon="2.91399">
        <ele>644</ele>
        <time>2024-09-22T10:50:27Z</time>
      </trkpt>
      <trkpt lat="42.4641" lon="2.914">
        <ele>645</ele>
        <time>2024-09-22T10:50:30Z</time>
      </trkpt>
      <trkpt lat="42.46413" lon="2.91401">
        <ele>645</ele>
        <time>2024-09-22T10:50:31Z</time>
      </trkpt>
      <trkpt lat="42.46416" lon="2.91402">
        <ele>645</ele>
        <time>2024-09-22T10:50:33Z</time>
      </trkpt>
      <trkpt lat="42.46419" lon="2.91403">
        <ele>644</ele>
        <time>2024-09-22T10:50:35Z</time>
      </trkpt>
      <trkpt lat="42.46422" lon="2.91404">
        <ele>644</ele>
        <time>2024-09-22T10:50:37Z</time>
      </trkpt>
      <trkpt lat="42.46424" lon="2.91405">
        <ele>644</ele>
        <time>2024-09-22T10:50:39Z</time>
      </trkpt>
      <trkpt lat="42.46427" lon="2.91407">
        <ele>643</ele>
        <time>2024-09-22T10:50:41Z</time>
      </trkpt>
      <trkpt lat="42.4643" lon="2.91409">
        <ele>643</ele>
        <time>2024-09-22T10:50:43Z</time>
      </trkpt>
      <trkpt lat="42.46433" lon="2.91411">
        <ele>644</ele>
        <time>2024-09-22T10:50:46Z</time>
      </trkpt>
      <trkpt lat="42.46435" lon="2.91414">
        <ele>645</ele>
        <time>2024-09-22T10:50:48Z</time>
      </trkpt>
      <trkpt lat="42.46439" lon="2.91416">
        <ele>644</ele>
        <time>2024-09-22T10:50:51Z</time>
      </trkpt>
      <trkpt lat="42.46441" lon="2.91419">
        <ele>646</ele>
        <time>2024-09-22T10:50:53Z</time>
      </trkpt>
      <trkpt lat="42.46443" lon="2.91422">
        <ele>647</ele>
        <time>2024-09-22T10:50:55Z</time>
      </trkpt>
      <trkpt lat="42.46445" lon="2.91425">
        <ele>647</ele>
        <time>2024-09-22T10:50:57Z</time>
      </trkpt>
      <trkpt lat="42.46448" lon="2.91427">
        <ele>646</ele>
        <time>2024-09-22T10:51:00Z</time>
      </trkpt>
      <trkpt lat="42.46452" lon="2.9143">
        <ele>647</ele>
        <time>2024-09-22T10:51:03Z</time>
      </trkpt>
      <trkpt lat="42.46455" lon="2.91432">
        <ele>647</ele>
        <time>2024-09-22T10:51:06Z</time>
      </trkpt>
      <trkpt lat="42.46458" lon="2.91433">
        <ele>647</ele>
        <time>2024-09-22T10:51:08Z</time>
      </trkpt>
      <trkpt lat="42.46461" lon="2.91435">
        <ele>647</ele>
        <time>2024-09-22T10:51:11Z</time>
      </trkpt>
      <trkpt lat="42.46465" lon="2.91437">
        <ele>648</ele>
        <time>2024-09-22T10:51:13Z</time>
      </trkpt>
      <trkpt lat="42.46468" lon="2.91439">
        <ele>646</ele>
        <time>2024-09-22T10:51:16Z</time>
      </trkpt>
      <trkpt lat="42.46472" lon="2.9144">
        <ele>647</ele>
        <time>2024-09-22T10:51:19Z</time>
      </trkpt>
      <trkpt lat="42.46475" lon="2.91443">
        <ele>647</ele>
        <time>2024-09-22T10:51:21Z</time>
      </trkpt>
      <trkpt lat="42.46478" lon="2.91444">
        <ele>647</ele>
        <time>2024-09-22T10:51:23Z</time>
      </trkpt>
      <trkpt lat="42.46482" lon="2.91444">
        <ele>649</ele>
        <time>2024-09-22T10:51:26Z</time>
      </trkpt>
      <trkpt lat="42.46484" lon="2.91446">
        <ele>648</ele>
        <time>2024-09-22T10:51:29Z</time>
      </trkpt>
      <trkpt lat="42.46487" lon="2.91446">
        <ele>648</ele>
        <time>2024-09-22T10:51:33Z</time>
      </trkpt>
      <trkpt lat="42.4649" lon="2.91447">
        <ele>648</ele>
        <time>2024-09-22T10:51:35Z</time>
      </trkpt>
      <trkpt lat="42.46493" lon="2.91447">
        <ele>648</ele>
        <time>2024-09-22T10:51:37Z</time>
      </trkpt>
      <trkpt lat="42.46496" lon="2.91448">
        <ele>648</ele>
        <time>2024-09-22T10:51:39Z</time>
      </trkpt>
      <trkpt lat="42.46498" lon="2.91453">
        <ele>647</ele>
        <time>2024-09-22T10:51:43Z</time>
      </trkpt>
      <trkpt lat="42.46501" lon="2.91454">
        <ele>647</ele>
        <time>2024-09-22T10:51:45Z</time>
      </trkpt>
      <trkpt lat="42.46504" lon="2.91454">
        <ele>647</ele>
        <time>2024-09-22T10:51:48Z</time>
      </trkpt>
      <trkpt lat="42.46508" lon="2.91454">
        <ele>641</ele>
        <time>2024-09-22T10:51:56Z</time>
      </trkpt>
      <trkpt lat="42.46511" lon="2.91453">
        <ele>641</ele>
        <time>2024-09-22T10:51:57Z</time>
      </trkpt>
      <trkpt lat="42.4651" lon="2.91452">
        <ele>638</ele>
        <time>2024-09-22T10:52:09Z</time>
      </trkpt>
      <trkpt lat="42.46507" lon="2.91455">
        <ele>638</ele>
        <time>2024-09-22T10:52:12Z</time>
      </trkpt>
      <trkpt lat="42.46505" lon="2.91455">
        <ele>639</ele>
        <time>2024-09-22T10:52:14Z</time>
      </trkpt>
      <trkpt lat="42.46503" lon="2.91452">
        <ele>639</ele>
        <time>2024-09-22T10:52:16Z</time>
      </trkpt>
      <trkpt lat="42.465" lon="2.9145">
        <ele>640</ele>
        <time>2024-09-22T10:52:26Z</time>
      </trkpt>
      <trkpt lat="42.46499" lon="2.91445">
        <ele>639</ele>
        <time>2024-09-22T10:52:28Z</time>
      </trkpt>
      <trkpt lat="42.465" lon="2.91448">
        <ele>640</ele>
        <time>2024-09-22T10:52:29Z</time>
      </trkpt>
      <trkpt lat="42.46501" lon="2.91451">
        <ele>640</ele>
        <time>2024-09-22T10:52:30Z</time>
      </trkpt>
      <trkpt lat="42.46502" lon="2.91456">
        <ele>640</ele>
        <time>2024-09-22T10:52:32Z</time>
      </trkpt>
      <trkpt lat="42.46504" lon="2.9146">
        <ele>640</ele>
        <time>2024-09-22T10:52:33Z</time>
      </trkpt>
      <trkpt lat="42.46503" lon="2.91462">
        <ele>641</ele>
        <time>2024-09-22T10:52:35Z</time>
      </trkpt>
      <trkpt lat="42.46505" lon="2.91463">
        <ele>641</ele>
        <time>2024-09-22T10:52:36Z</time>
      </trkpt>
      <trkpt lat="42.46507" lon="2.91461">
        <ele>642</ele>
        <time>2024-09-22T10:52:39Z</time>
      </trkpt>
      <trkpt lat="42.46508" lon="2.91458">
        <ele>642</ele>
        <time>2024-09-22T10:52:41Z</time>
      </trkpt>
      <trkpt lat="42.46507" lon="2.91456">
        <ele>643</ele>
        <time>2024-09-22T10:52:44Z</time>
      </trkpt>
      <trkpt lat="42.46505" lon="2.91453">
        <ele>642</ele>
        <time>2024-09-22T10:52:47Z</time>
      </trkpt>
      <trkpt lat="42.46505" lon="2.9145">
        <ele>642</ele>
        <time>2024-09-22T10:52:48Z</time>
      </trkpt>
      <trkpt lat="42.46505" lon="2.91451">
        <ele>642</ele>
        <time>2024-09-22T10:52:52Z</time>
      </trkpt>
      <trkpt lat="42.46504" lon="2.91448">
        <ele>642</ele>
        <time>2024-09-22T10:52:53Z</time>
      </trkpt>
      <trkpt lat="42.46502" lon="2.91445">
        <ele>643</ele>
        <time>2024-09-22T10:52:56Z</time>
      </trkpt>
      <trkpt lat="42.46502" lon="2.91446">
        <ele>643</ele>
        <time>2024-09-22T10:52:59Z</time>
      </trkpt>
      <trkpt lat="42.465" lon="2.91449">
        <ele>646</ele>
        <time>2024-09-22T10:53:13Z</time>
      </trkpt>
      <trkpt lat="42.46502" lon="2.9145">
        <ele>645</ele>
        <time>2024-09-22T10:53:14Z</time>
      </trkpt>
      <trkpt lat="42.46503" lon="2.91454">
        <ele>646</ele>
        <time>2024-09-22T10:53:15Z</time>
      </trkpt>
      <trkpt lat="42.46505" lon="2.91453">
        <ele>644</ele>
        <time>2024-09-22T10:53:22Z</time>
      </trkpt>
      <trkpt lat="42.46507" lon="2.91452">
        <ele>643</ele>
        <time>2024-09-22T10:53:28Z</time>
      </trkpt>
      <trkpt lat="42.46506" lon="2.91452">
        <ele>639</ele>
        <time>2024-09-22T10:53:33Z</time>
      </trkpt>
      <trkpt lat="42.46504" lon="2.91452">
        <ele>637</ele>
        <time>2024-09-22T10:53:36Z</time>
      </trkpt>
      <trkpt lat="42.46501" lon="2.91453">
        <ele>642</ele>
        <time>2024-09-22T10:53:44Z</time>
      </trkpt>
      <trkpt lat="42.46502" lon="2.91454">
        <ele>641</ele>
        <time>2024-09-22T10:53:47Z</time>
      </trkpt>
      <trkpt lat="42.46503" lon="2.91456">
        <ele>641</ele>
        <time>2024-09-22T10:53:50Z</time>
      </trkpt>
      <trkpt lat="42.46505" lon="2.91459">
        <ele>642</ele>
        <time>2024-09-22T10:53:53Z</time>
      </trkpt>
      <trkpt lat="42.46508" lon="2.91462">
        <ele>646</ele>
        <time>2024-09-22T10:54:18Z</time>
      </trkpt>
      <trkpt lat="42.46509" lon="2.91461">
        <ele>647</ele>
        <time>2024-09-22T10:54:23Z</time>
      </trkpt>
      <trkpt lat="42.46508" lon="2.91457">
        <ele>645</ele>
        <time>2024-09-22T10:54:26Z</time>
      </trkpt>
      <trkpt lat="42.46507" lon="2.91454">
        <ele>644</ele>
        <time>2024-09-22T10:54:29Z</time>
      </trkpt>
      <trkpt lat="42.46504" lon="2.9145">
        <ele>646</ele>
        <time>2024-09-22T10:54:31Z</time>
      </trkpt>
      <trkpt lat="42.46502" lon="2.91448">
        <ele>644</ele>
        <time>2024-09-22T10:54:35Z</time>
      </trkpt>
      <trkpt lat="42.46499" lon="2.91446">
        <ele>643</ele>
        <time>2024-09-22T10:54:37Z</time>
      </trkpt>
      <trkpt lat="42.46496" lon="2.91445">
        <ele>642</ele>
        <time>2024-09-22T10:54:39Z</time>
      </trkpt>
      <trkpt lat="42.46496" lon="2.91447">
        <ele>641</ele>
        <time>2024-09-22T10:54:43Z</time>
      </trkpt>
      <trkpt lat="42.46497" lon="2.9145">
        <ele>642</ele>
        <time>2024-09-22T10:54:48Z</time>
      </trkpt>
      <trkpt lat="42.46496" lon="2.91448">
        <ele>642</ele>
        <time>2024-09-22T10:54:49Z</time>
      </trkpt>
      <trkpt lat="42.46498" lon="2.91449">
        <ele>641</ele>
        <time>2024-09-22T10:54:52Z</time>
      </trkpt>
      <trkpt lat="42.465" lon="2.9145">
        <ele>641</ele>
        <time>2024-09-22T10:54:55Z</time>
      </trkpt>
      <trkpt lat="42.46503" lon="2.91452">
        <ele>640</ele>
        <time>2024-09-22T10:55:02Z</time>
      </trkpt>
      <trkpt lat="42.46503" lon="2.91451">
        <ele>641</ele>
        <time>2024-09-22T10:55:10Z</time>
      </trkpt>
      <trkpt lat="42.46505" lon="2.91451">
        <ele>642</ele>
        <time>2024-09-22T10:55:33Z</time>
      </trkpt>
      <trkpt lat="42.46503" lon="2.9145">
        <ele>640</ele>
        <time>2024-09-22T10:56:26Z</time>
      </trkpt>
      <trkpt lat="42.46501" lon="2.91449">
        <ele>639</ele>
        <time>2024-09-22T10:56:30Z</time>
      </trkpt>
      <trkpt lat="42.46498" lon="2.91447">
        <ele>639</ele>
        <time>2024-09-22T10:56:36Z</time>
      </trkpt>
      <trkpt lat="42.46497" lon="2.91443">
        <ele>639</ele>
        <time>2024-09-22T10:56:39Z</time>
      </trkpt>
      <trkpt lat="42.46495" lon="2.91442">
        <ele>639</ele>
        <time>2024-09-22T10:56:42Z</time>
      </trkpt>
      <trkpt lat="42.46495" lon="2.91444">
        <ele>639</ele>
        <time>2024-09-22T10:56:47Z</time>
      </trkpt>
      <trkpt lat="42.46498" lon="2.91446">
        <ele>639</ele>
        <time>2024-09-22T10:56:48Z</time>
      </trkpt>
      <trkpt lat="42.465" lon="2.91449">
        <ele>638</ele>
        <time>2024-09-22T10:56:48Z</time>
      </trkpt>
      <trkpt lat="42.46502" lon="2.91451">
        <ele>638</ele>
        <time>2024-09-22T10:56:52Z</time>
      </trkpt>
      <trkpt lat="42.46504" lon="2.91449">
        <ele>644</ele>
        <time>2024-09-22T10:57:12Z</time>
      </trkpt>
      <trkpt lat="42.46505" lon="2.9145">
        <ele>643</ele>
        <time>2024-09-22T10:58:00Z</time>
      </trkpt>
      <trkpt lat="42.46506" lon="2.91448">
        <ele>646</ele>
        <time>2024-09-22T10:58:22Z</time>
      </trkpt>
      <trkpt lat="42.46506" lon="2.91449">
        <ele>645</ele>
        <time>2024-09-22T10:59:23Z</time>
      </trkpt>
      <trkpt lat="42.46507" lon="2.9145">
        <ele>645</ele>
        <time>2024-09-22T10:59:23Z</time>
      </trkpt>
      <trkpt lat="42.47196" lon="2.9188">
        <ele>950</ele>
        <time>2024-09-22T12:21:00Z</time>
      </trkpt>
      <trkpt lat="42.47611" lon="2.92137">
        <ele>951</ele>
        <time>2024-09-22T12:21:07Z</time>
      </trkpt>
      <trkpt lat="42.47783" lon="2.92242">
        <ele>950</ele>
        <time>2024-09-22T12:21:12Z</time>
      </trkpt>
      <trkpt lat="42.47852" lon="2.92281">
        <ele>950</ele>
        <time>2024-09-22T12:21:17Z</time>
      </trkpt>
      <trkpt lat="42.4788" lon="2.92296">
        <ele>951</ele>
        <time>2024-09-22T12:21:21Z</time>
      </trkpt>
      <trkpt lat="42.4789" lon="2.92299">
        <ele>949</ele>
        <time>2024-09-22T12:21:28Z</time>
      </trkpt>
      <trkpt lat="42.47895" lon="2.92298">
        <ele>949</ele>
        <time>2024-09-22T12:21:35Z</time>
      </trkpt>
      <trkpt lat="42.47896" lon="2.92295">
        <ele>948</ele>
        <time>2024-09-22T12:21:46Z</time>
      </trkpt>
      <trkpt lat="42.47896" lon="2.92297">
        <ele>952</ele>
        <time>2024-09-22T12:22:11Z</time>
      </trkpt>
      <trkpt lat="42.47898" lon="2.92299">
        <ele>950</ele>
        <time>2024-09-22T12:22:38Z</time>
      </trkpt>
      <trkpt lat="42.47899" lon="2.92297">
        <ele>949</ele>
        <time>2024-09-22T12:22:43Z</time>
      </trkpt>
      <trkpt lat="42.47899" lon="2.92294">
        <ele>951</ele>
        <time>2024-09-22T12:23:39Z</time>
      </trkpt>
      <trkpt lat="42.47901" lon="2.92292">
        <ele>948</ele>
        <time>2024-09-22T12:23:43Z</time>
      </trkpt>
      <trkpt lat="42.47903" lon="2.9229">
        <ele>947</ele>
        <time>2024-09-22T12:23:47Z</time>
      </trkpt>
      <trkpt lat="42.47906" lon="2.92289">
        <ele>945</ele>
        <time>2024-09-22T12:23:57Z</time>
      </trkpt>
      <trkpt lat="42.47908" lon="2.9229">
        <ele>945</ele>
        <time>2024-09-22T12:23:59Z</time>
      </trkpt>
      <trkpt lat="42.47909" lon="2.92293">
        <ele>947</ele>
        <time>2024-09-22T12:24:03Z</time>
      </trkpt>
      <trkpt lat="42.47908" lon="2.92296">
        <ele>949</ele>
        <time>2024-09-22T12:24:25Z</time>
      </trkpt>
      <trkpt lat="42.47906" lon="2.92298">
        <ele>947</ele>
        <time>2024-09-22T12:24:49Z</time>
      </trkpt>
      <trkpt lat="42.47904" lon="2.92298">
        <ele>948</ele>
        <time>2024-09-22T12:25:26Z</time>
      </trkpt>
      <trkpt lat="42.47904" lon="2.92297">
        <ele>948</ele>
        <time>2024-09-22T12:25:29Z</time>
      </trkpt>
      <trkpt lat="42.47906" lon="2.92299">
        <ele>949</ele>
        <time>2024-09-22T12:25:36Z</time>
      </trkpt>
      <trkpt lat="42.47905" lon="2.92298">
        <ele>948</ele>
        <time>2024-09-22T12:25:49Z</time>
      </trkpt>
      <trkpt lat="42.47906" lon="2.92295">
        <ele>948</ele>
        <time>2024-09-22T12:25:52Z</time>
      </trkpt>
      <trkpt lat="42.47905" lon="2.92295">
        <ele>948</ele>
        <time>2024-09-22T12:25:57Z</time>
      </trkpt>
      <trkpt lat="42.47903" lon="2.92295">
        <ele>948</ele>
        <time>2024-09-22T12:26:00Z</time>
      </trkpt>
      <trkpt lat="42.47903" lon="2.92299">
        <ele>948</ele>
        <time>2024-09-22T12:26:04Z</time>
      </trkpt>
      <trkpt lat="42.47903" lon="2.92298">
        <ele>948</ele>
        <time>2024-09-22T12:26:08Z</time>
      </trkpt>
      <trkpt lat="42.47902" lon="2.92297">
        <ele>947</ele>
        <time>2024-09-22T12:26:09Z</time>
      </trkpt>
      <trkpt lat="42.47901" lon="2.92298">
        <ele>947</ele>
        <time>2024-09-22T12:26:12Z</time>
      </trkpt>
      <trkpt lat="42.479" lon="2.92301">
        <ele>948</ele>
        <time>2024-09-22T12:26:17Z</time>
      </trkpt>
      <trkpt lat="42.47899" lon="2.92305">
        <ele>948</ele>
        <time>2024-09-22T12:26:19Z</time>
      </trkpt>
      <trkpt lat="42.47897" lon="2.92304">
        <ele>947</ele>
        <time>2024-09-22T12:26:22Z</time>
      </trkpt>
      <trkpt lat="42.47896" lon="2.92301">
        <ele>947</ele>
        <time>2024-09-22T12:26:36Z</time>
      </trkpt>
      <trkpt lat="42.47894" lon="2.92298">
        <ele>947</ele>
        <time>2024-09-22T12:26:39Z</time>
      </trkpt>
      <trkpt lat="42.47895" lon="2.92298">
        <ele>948</ele>
        <time>2024-09-22T12:26:46Z</time>
      </trkpt>
      <trkpt lat="42.47895" lon="2.923">
        <ele>948</ele>
        <time>2024-09-22T12:26:48Z</time>
      </trkpt>
      <trkpt lat="42.47896" lon="2.92303">
        <ele>950</ele>
        <time>2024-09-22T12:26:50Z</time>
      </trkpt>
      <trkpt lat="42.47895" lon="2.92306">
        <ele>949</ele>
        <time>2024-09-22T12:26:52Z</time>
      </trkpt>
      <trkpt lat="42.47892" lon="2.92306">
        <ele>949</ele>
        <time>2024-09-22T12:26:55Z</time>
      </trkpt>
      <trkpt lat="42.4789" lon="2.92308">
        <ele>949</ele>
        <time>2024-09-22T12:27:00Z</time>
      </trkpt>
      <trkpt lat="42.47887" lon="2.92309">
        <ele>946</ele>
        <time>2024-09-22T12:27:03Z</time>
      </trkpt>
      <trkpt lat="42.47884" lon="2.92311">
        <ele>947</ele>
        <time>2024-09-22T12:27:08Z</time>
      </trkpt>
      <trkpt lat="42.47881" lon="2.92313">
        <ele>946</ele>
        <time>2024-09-22T12:27:12Z</time>
      </trkpt>
      <trkpt lat="42.47877" lon="2.92316">
        <ele>948</ele>
        <time>2024-09-22T12:27:15Z</time>
      </trkpt>
      <trkpt lat="42.47875" lon="2.92319">
        <ele>948</ele>
        <time>2024-09-22T12:27:17Z</time>
      </trkpt>
      <trkpt lat="42.47872" lon="2.92323">
        <ele>947</ele>
        <time>2024-09-22T12:27:20Z</time>
      </trkpt>
      <trkpt lat="42.47872" lon="2.92326">
        <ele>949</ele>
        <time>2024-09-22T12:27:24Z</time>
      </trkpt>
      <trkpt lat="42.47871" lon="2.92328">
        <ele>948</ele>
        <time>2024-09-22T12:27:27Z</time>
      </trkpt>
      <trkpt lat="42.47869" lon="2.92331">
        <ele>948</ele>
        <time>2024-09-22T12:27:28Z</time>
      </trkpt>
      <trkpt lat="42.4787" lon="2.92334">
        <ele>949</ele>
        <time>2024-09-22T12:27:31Z</time>
      </trkpt>
      <trkpt lat="42.47871" lon="2.92338">
        <ele>949</ele>
        <time>2024-09-22T12:27:35Z</time>
      </trkpt>
      <trkpt lat="42.47873" lon="2.92342">
        <ele>949</ele>
        <time>2024-09-22T12:27:36Z</time>
      </trkpt>
      <trkpt lat="42.47875" lon="2.92345">
        <ele>950</ele>
        <time>2024-09-22T12:27:39Z</time>
      </trkpt>
      <trkpt lat="42.47873" lon="2.92346">
        <ele>950</ele>
        <time>2024-09-22T12:27:40Z</time>
      </trkpt>
      <trkpt lat="42.47874" lon="2.92342">
        <ele>949</ele>
        <time>2024-09-22T12:27:43Z</time>
      </trkpt>
      <trkpt lat="42.47874" lon="2.92336">
        <ele>949</ele>
        <time>2024-09-22T12:27:47Z</time>
      </trkpt>
      <trkpt lat="42.47873" lon="2.92332">
        <ele>948</ele>
        <time>2024-09-22T12:27:50Z</time>
      </trkpt>
      <trkpt lat="42.47874" lon="2.92333">
        <ele>949</ele>
        <time>2024-09-22T12:28:04Z</time>
      </trkpt>
      <trkpt lat="42.47873" lon="2.92332">
        <ele>950</ele>
        <time>2024-09-22T12:28:13Z</time>
      </trkpt>
      <trkpt lat="42.47873" lon="2.92334">
        <ele>948</ele>
        <time>2024-09-22T12:28:18Z</time>
      </trkpt>
      <trkpt lat="42.47872" lon="2.92333">
        <ele>949</ele>
        <time>2024-09-22T12:28:26Z</time>
      </trkpt>
      <trkpt lat="42.47877" lon="2.92338">
        <ele>948</ele>
        <time>2024-09-22T12:28:29Z</time>
      </trkpt>
      <trkpt lat="42.4788" lon="2.92341">
        <ele>948</ele>
        <time>2024-09-22T12:28:30Z</time>
      </trkpt>
      <trkpt lat="42.47889" lon="2.92344">
        <ele>950</ele>
        <time>2024-09-22T12:28:31Z</time>
      </trkpt>
      <trkpt lat="42.47886" lon="2.92341">
        <ele>951</ele>
        <time>2024-09-22T12:28:32Z</time>
      </trkpt>
      <trkpt lat="42.47884" lon="2.92339">
        <ele>952</ele>
        <time>2024-09-22T12:28:33Z</time>
      </trkpt>
      <trkpt lat="42.47879" lon="2.92335">
        <ele>952</ele>
        <time>2024-09-22T12:28:34Z</time>
      </trkpt>
      <trkpt lat="42.47876" lon="2.92336">
        <ele>953</ele>
        <time>2024-09-22T12:28:36Z</time>
      </trkpt>
      <trkpt lat="42.47874" lon="2.9234">
        <ele>953</ele>
        <time>2024-09-22T12:28:45Z</time>
      </trkpt>
      <trkpt lat="42.47872" lon="2.9234">
        <ele>953</ele>
        <time>2024-09-22T12:28:46Z</time>
      </trkpt>
      <trkpt lat="42.47871" lon="2.92343">
        <ele>952</ele>
        <time>2024-09-22T12:28:50Z</time>
      </trkpt>
      <trkpt lat="42.47872" lon="2.92342">
        <ele>951</ele>
        <time>2024-09-22T12:28:54Z</time>
      </trkpt>
      <trkpt lat="42.47873" lon="2.9234">
        <ele>951</ele>
        <time>2024-09-22T12:28:55Z</time>
      </trkpt>
      <trkpt lat="42.47874" lon="2.92335">
        <ele>951</ele>
        <time>2024-09-22T12:28:59Z</time>
      </trkpt>
      <trkpt lat="42.47874" lon="2.92331">
        <ele>951</ele>
        <time>2024-09-22T12:29:03Z</time>
      </trkpt>
      <trkpt lat="42.47873" lon="2.92328">
        <ele>951</ele>
        <time>2024-09-22T12:29:07Z</time>
      </trkpt>
      <trkpt lat="42.4787" lon="2.92327">
        <ele>952</ele>
        <time>2024-09-22T12:29:08Z</time>
      </trkpt>
      <trkpt lat="42.47868" lon="2.9233">
        <ele>951</ele>
        <time>2024-09-22T12:29:16Z</time>
      </trkpt>
      <trkpt lat="42.47868" lon="2.92333">
        <ele>951</ele>
        <time>2024-09-22T12:29:27Z</time>
      </trkpt>
      <trkpt lat="42.4787" lon="2.92336">
        <ele>949</ele>
        <time>2024-09-22T12:29:30Z</time>
      </trkpt>
      <trkpt lat="42.47872" lon="2.92337">
        <ele>950</ele>
        <time>2024-09-22T12:29:35Z</time>
      </trkpt>
      <trkpt lat="42.47873" lon="2.92339">
        <ele>949</ele>
        <time>2024-09-22T12:29:38Z</time>
      </trkpt>
      <trkpt lat="42.47873" lon="2.92337">
        <ele>950</ele>
        <time>2024-09-22T12:29:40Z</time>
      </trkpt>
      <trkpt lat="42.47872" lon="2.92339">
        <ele>952</ele>
        <time>2024-09-22T12:31:56Z</time>
      </trkpt>
      <trkpt lat="42.47888" lon="2.92311">
        <ele>935</ele>
        <time>2024-09-22T16:09:24Z</time>
      </trkpt>
      <trkpt lat="42.47894" lon="2.92309">
        <ele>943</ele>
        <time>2024-09-22T16:09:28Z</time>
      </trkpt>
      <trkpt lat="42.47872" lon="2.92324">
        <ele>937</ele>
        <time>2024-09-23T05:49:09Z</time>
      </trkpt>
      <trkpt lat="42.47867" lon="2.92324">
        <ele>942</ele>
        <time>2024-09-23T05:52:56Z</time>
      </trkpt>
      <trkpt lat="42.47877" lon="2.92333">
        <ele>945</ele>
        <time>2024-09-23T05:52:57Z</time>
      </trkpt>
      <trkpt lat="42.47875" lon="2.9233">
        <ele>941</ele>
        <time>2024-09-23T05:52:58Z</time>
      </trkpt>
      <trkpt lat="42.47876" lon="2.92326">
        <ele>945</ele>
        <time>2024-09-23T05:53:11Z</time>
      </trkpt>
      <trkpt lat="42.47876" lon="2.92322">
        <ele>942</ele>
        <time>2024-09-23T05:53:16Z</time>
      </trkpt>
      <trkpt lat="42.47877" lon="2.92317">
        <ele>943</ele>
        <time>2024-09-23T05:53:20Z</time>
      </trkpt>
      <trkpt lat="42.47878" lon="2.92313">
        <ele>942</ele>
        <time>2024-09-23T05:53:25Z</time>
      </trkpt>
      <trkpt lat="42.47878" lon="2.92309">
        <ele>942</ele>
        <time>2024-09-23T05:53:27Z</time>
      </trkpt>
      <trkpt lat="42.4788" lon="2.92307">
        <ele>944</ele>
        <time>2024-09-23T05:53:29Z</time>
      </trkpt>
      <trkpt lat="42.47881" lon="2.92304">
        <ele>945</ele>
        <time>2024-09-23T05:53:31Z</time>
      </trkpt>
      <trkpt lat="42.47883" lon="2.92301">
        <ele>944</ele>
        <time>2024-09-23T05:53:34Z</time>
      </trkpt>
      <trkpt lat="42.47885" lon="2.92297">
        <ele>944</ele>
        <time>2024-09-23T05:53:36Z</time>
      </trkpt>
      <trkpt lat="42.47887" lon="2.92294">
        <ele>943</ele>
        <time>2024-09-23T05:53:41Z</time>
      </trkpt>
      <trkpt lat="42.47889" lon="2.92291">
        <ele>941</ele>
        <time>2024-09-23T05:53:45Z</time>
      </trkpt>
      <trkpt lat="42.47892" lon="2.92289">
        <ele>941</ele>
        <time>2024-09-23T05:53:49Z</time>
      </trkpt>
      <trkpt lat="42.47894" lon="2.92286">
        <ele>940</ele>
        <time>2024-09-23T05:53:52Z</time>
      </trkpt>
      <trkpt lat="42.47897" lon="2.92284">
        <ele>941</ele>
        <time>2024-09-23T05:53:56Z</time>
      </trkpt>
      <trkpt lat="42.479" lon="2.92283">
        <ele>943</ele>
        <time>2024-09-23T05:53:59Z</time>
      </trkpt>
      <trkpt lat="42.47903" lon="2.92281">
        <ele>943</ele>
        <time>2024-09-23T05:54:02Z</time>
      </trkpt>
      <trkpt lat="42.47905" lon="2.92278">
        <ele>942</ele>
        <time>2024-09-23T05:54:05Z</time>
      </trkpt>
      <trkpt lat="42.47908" lon="2.92275">
        <ele>942</ele>
        <time>2024-09-23T05:54:08Z</time>
      </trkpt>
      <trkpt lat="42.47911" lon="2.92272">
        <ele>940</ele>
        <time>2024-09-23T05:54:11Z</time>
      </trkpt>
      <trkpt lat="42.47913" lon="2.92268">
        <ele>941</ele>
        <time>2024-09-23T05:54:13Z</time>
      </trkpt>
      <trkpt lat="42.47915" lon="2.92266">
        <ele>941</ele>
        <time>2024-09-23T05:54:16Z</time>
      </trkpt>
      <trkpt lat="42.47918" lon="2.92263">
        <ele>941</ele>
        <time>2024-09-23T05:54:19Z</time>
      </trkpt>
      <trkpt lat="42.4792" lon="2.92262">
        <ele>940</ele>
        <time>2024-09-23T05:54:22Z</time>
      </trkpt>
      <trkpt lat="42.47923" lon="2.92262">
        <ele>941</ele>
        <time>2024-09-23T05:54:25Z</time>
      </trkpt>
      <trkpt lat="42.47922" lon="2.92262">
        <ele>942</ele>
        <time>2024-09-23T05:54:28Z</time>
      </trkpt>
      <trkpt lat="42.47919" lon="2.92263">
        <ele>942</ele>
        <time>2024-09-23T05:54:31Z</time>
      </trkpt>
      <trkpt lat="42.47916" lon="2.92264">
        <ele>942</ele>
        <time>2024-09-23T05:54:34Z</time>
      </trkpt>
      <trkpt lat="42.47913" lon="2.92266">
        <ele>941</ele>
        <time>2024-09-23T05:54:38Z</time>
      </trkpt>
      <trkpt lat="42.4791" lon="2.92266">
        <ele>939</ele>
        <time>2024-09-23T05:54:44Z</time>
      </trkpt>
      <trkpt lat="42.47907" lon="2.92267">
        <ele>938</ele>
        <time>2024-09-23T05:54:47Z</time>
      </trkpt>
      <trkpt lat="42.47904" lon="2.92269">
        <ele>939</ele>
        <time>2024-09-23T05:54:54Z</time>
      </trkpt>
      <trkpt lat="42.47905" lon="2.92268">
        <ele>939</ele>
        <time>2024-09-23T05:55:02Z</time>
      </trkpt>
      <trkpt lat="42.47909" lon="2.92267">
        <ele>938</ele>
        <time>2024-09-23T05:55:04Z</time>
      </trkpt>
      <trkpt lat="42.47912" lon="2.92267">
        <ele>938</ele>
        <time>2024-09-23T05:55:07Z</time>
      </trkpt>
      <trkpt lat="42.47915" lon="2.92265">
        <ele>939</ele>
        <time>2024-09-23T05:55:13Z</time>
      </trkpt>
      <trkpt lat="42.47916" lon="2.92262">
        <ele>940</ele>
        <time>2024-09-23T05:55:21Z</time>
      </trkpt>
      <trkpt lat="42.47918" lon="2.92259">
        <ele>940</ele>
        <time>2024-09-23T05:55:25Z</time>
      </trkpt>
      <trkpt lat="42.4792" lon="2.92259">
        <ele>939</ele>
        <time>2024-09-23T05:55:27Z</time>
      </trkpt>
      <trkpt lat="42.47923" lon="2.92259">
        <ele>939</ele>
        <time>2024-09-23T05:55:30Z</time>
      </trkpt>
      <trkpt lat="42.47925" lon="2.9226">
        <ele>941</ele>
        <time>2024-09-23T05:55:38Z</time>
      </trkpt>
      <trkpt lat="42.47927" lon="2.92261">
        <ele>942</ele>
        <time>2024-09-23T05:55:40Z</time>
      </trkpt>
      <trkpt lat="42.4793" lon="2.92264">
        <ele>943</ele>
        <time>2024-09-23T05:55:44Z</time>
      </trkpt>
      <trkpt lat="42.47932" lon="2.92266">
        <ele>944</ele>
        <time>2024-09-23T05:55:48Z</time>
      </trkpt>
      <trkpt lat="42.47934" lon="2.9227">
        <ele>944</ele>
        <time>2024-09-23T05:55:53Z</time>
      </trkpt>
      <trkpt lat="42.47935" lon="2.92274">
        <ele>946</ele>
        <time>2024-09-23T05:55:56Z</time>
      </trkpt>
      <trkpt lat="42.47936" lon="2.92279">
        <ele>947</ele>
        <time>2024-09-23T05:55:58Z</time>
      </trkpt>
      <trkpt lat="42.47936" lon="2.92284">
        <ele>948</ele>
        <time>2024-09-23T05:56:01Z</time>
      </trkpt>
      <trkpt lat="42.47936" lon="2.92287">
        <ele>949</ele>
        <time>2024-09-23T05:56:03Z</time>
      </trkpt>
      <trkpt lat="42.47936" lon="2.92287">
        <ele>951</ele>
        <time>2024-09-23T05:56:12Z</time>
      </trkpt>
      <trkpt lat="42.47935" lon="2.92285">
        <ele>951</ele>
        <time>2024-09-23T05:56:19Z</time>
      </trkpt>
      <trkpt lat="42.47936" lon="2.92281">
        <ele>945</ele>
        <time>2024-09-23T05:56:36Z</time>
      </trkpt>
      <trkpt lat="42.47935" lon="2.92282">
        <ele>946</ele>
        <time>2024-09-23T05:57:16Z</time>
      </trkpt>
      <trkpt lat="42.47935" lon="2.92286">
        <ele>946</ele>
        <time>2024-09-23T05:57:19Z</time>
      </trkpt>
      <trkpt lat="42.47934" lon="2.9229">
        <ele>946</ele>
        <time>2024-09-23T05:57:21Z</time>
      </trkpt>
      <trkpt lat="42.47933" lon="2.92294">
        <ele>948</ele>
        <time>2024-09-23T05:57:26Z</time>
      </trkpt>
      <trkpt lat="42.47932" lon="2.92298">
        <ele>947</ele>
        <time>2024-09-23T05:57:29Z</time>
      </trkpt>
      <trkpt lat="42.4793" lon="2.92301">
        <ele>948</ele>
        <time>2024-09-23T05:57:33Z</time>
      </trkpt>
      <trkpt lat="42.47928" lon="2.92304">
        <ele>948</ele>
        <time>2024-09-23T05:57:36Z</time>
      </trkpt>
      <trkpt lat="42.47926" lon="2.92308">
        <ele>951</ele>
        <time>2024-09-23T05:57:42Z</time>
      </trkpt>
      <trkpt lat="42.47924" lon="2.92312">
        <ele>952</ele>
        <time>2024-09-23T05:57:44Z</time>
      </trkpt>
      <trkpt lat="42.47924" lon="2.92316">
        <ele>951</ele>
        <time>2024-09-23T05:57:46Z</time>
      </trkpt>
      <trkpt lat="42.47924" lon="2.9232">
        <ele>953</ele>
        <time>2024-09-23T05:57:51Z</time>
      </trkpt>
      <trkpt lat="42.47924" lon="2.92324">
        <ele>953</ele>
        <time>2024-09-23T05:57:56Z</time>
      </trkpt>
      <trkpt lat="42.47923" lon="2.92329">
        <ele>954</ele>
        <time>2024-09-23T05:57:59Z</time>
      </trkpt>
      <trkpt lat="42.47922" lon="2.92333">
        <ele>954</ele>
        <time>2024-09-23T05:58:02Z</time>
      </trkpt>
      <trkpt lat="42.4792" lon="2.92338">
        <ele>955</ele>
        <time>2024-09-23T05:58:05Z</time>
      </trkpt>
      <trkpt lat="42.47919" lon="2.92342">
        <ele>956</ele>
        <time>2024-09-23T05:58:10Z</time>
      </trkpt>
      <trkpt lat="42.47918" lon="2.92346">
        <ele>956</ele>
        <time>2024-09-23T05:58:13Z</time>
      </trkpt>
      <trkpt lat="42.47917" lon="2.92349">
        <ele>957</ele>
        <time>2024-09-23T05:58:17Z</time>
      </trkpt>
      <trkpt lat="42.47916" lon="2.92353">
        <ele>958</ele>
        <time>2024-09-23T05:58:20Z</time>
      </trkpt>
      <trkpt lat="42.47916" lon="2.92357">
        <ele>958</ele>
        <time>2024-09-23T05:58:26Z</time>
      </trkpt>
      <trkpt lat="42.47915" lon="2.92361">
        <ele>958</ele>
        <time>2024-09-23T05:58:30Z</time>
      </trkpt>
      <trkpt lat="42.47913" lon="2.92364">
        <ele>959</ele>
        <time>2024-09-23T05:58:34Z</time>
      </trkpt>
      <trkpt lat="42.47911" lon="2.92367">
        <ele>960</ele>
        <time>2024-09-23T05:58:40Z</time>
      </trkpt>
      <trkpt lat="42.47909" lon="2.9237">
        <ele>961</ele>
        <time>2024-09-23T05:58:44Z</time>
      </trkpt>
      <trkpt lat="42.47907" lon="2.92373">
        <ele>961</ele>
        <time>2024-09-23T05:58:49Z</time>
      </trkpt>
      <trkpt lat="42.47905" lon="2.92376">
        <ele>961</ele>
        <time>2024-09-23T05:58:54Z</time>
      </trkpt>
      <trkpt lat="42.47903" lon="2.92379">
        <ele>962</ele>
        <time>2024-09-23T05:58:59Z</time>
      </trkpt>
      <trkpt lat="42.47901" lon="2.92382">
        <ele>963</ele>
        <time>2024-09-23T05:59:02Z</time>
      </trkpt>
      <trkpt lat="42.479" lon="2.92386">
        <ele>963</ele>
        <time>2024-09-23T05:59:07Z</time>
      </trkpt>
      <trkpt lat="42.47897" lon="2.92389">
        <ele>964</ele>
        <time>2024-09-23T05:59:09Z</time>
      </trkpt>
      <trkpt lat="42.47896" lon="2.92393">
        <ele>964</ele>
        <time>2024-09-23T05:59:13Z</time>
      </trkpt>
      <trkpt lat="42.47893" lon="2.92395">
        <ele>964</ele>
        <time>2024-09-23T05:59:21Z</time>
      </trkpt>
      <trkpt lat="42.47891" lon="2.92399">
        <ele>965</ele>
        <time>2024-09-23T05:59:24Z</time>
      </trkpt>
      <trkpt lat="42.47889" lon="2.92403">
        <ele>966</ele>
        <time>2024-09-23T05:59:30Z</time>
      </trkpt>
      <trkpt lat="42.47888" lon="2.92407">
        <ele>966</ele>
        <time>2024-09-23T05:59:35Z</time>
      </trkpt>
      <trkpt lat="42.47886" lon="2.92411">
        <ele>967</ele>
        <time>2024-09-23T05:59:39Z</time>
      </trkpt>
      <trkpt lat="42.47886" lon="2.92416">
        <ele>968</ele>
        <time>2024-09-23T05:59:42Z</time>
      </trkpt>
      <trkpt lat="42.47886" lon="2.9242">
        <ele>969</ele>
        <time>2024-09-23T05:59:51Z</time>
      </trkpt>
      <trkpt lat="42.47885" lon="2.92424">
        <ele>968</ele>
        <time>2024-09-23T05:59:53Z</time>
      </trkpt>
      <trkpt lat="42.47883" lon="2.92428">
        <ele>970</ele>
        <time>2024-09-23T05:59:58Z</time>
      </trkpt>
      <trkpt lat="42.47882" lon="2.92432">
        <ele>972</ele>
        <time>2024-09-23T06:00:06Z</time>
      </trkpt>
      <trkpt lat="42.47881" lon="2.92435">
        <ele>972</ele>
        <time>2024-09-23T06:00:08Z</time>
      </trkpt>
      <trkpt lat="42.47878" lon="2.92436">
        <ele>972</ele>
        <time>2024-09-23T06:00:12Z</time>
      </trkpt>
      <trkpt lat="42.47876" lon="2.92439">
        <ele>973</ele>
        <time>2024-09-23T06:00:16Z</time>
      </trkpt>
      <trkpt lat="42.47873" lon="2.92442">
        <ele>973</ele>
        <time>2024-09-23T06:00:17Z</time>
      </trkpt>
      <trkpt lat="42.47873" lon="2.92445">
        <ele>974</ele>
        <time>2024-09-23T06:00:25Z</time>
      </trkpt>
      <trkpt lat="42.47872" lon="2.92449">
        <ele>975</ele>
        <time>2024-09-23T06:00:27Z</time>
      </trkpt>
      <trkpt lat="42.4787" lon="2.92453">
        <ele>976</ele>
        <time>2024-09-23T06:00:37Z</time>
      </trkpt>
      <trkpt lat="42.47868" lon="2.92456">
        <ele>975</ele>
        <time>2024-09-23T06:00:40Z</time>
      </trkpt>
      <trkpt lat="42.47866" lon="2.92459">
        <ele>978</ele>
        <time>2024-09-23T06:00:48Z</time>
      </trkpt>
      <trkpt lat="42.47865" lon="2.92463">
        <ele>978</ele>
        <time>2024-09-23T06:00:51Z</time>
      </trkpt>
      <trkpt lat="42.47863" lon="2.92466">
        <ele>979</ele>
        <time>2024-09-23T06:00:55Z</time>
      </trkpt>
      <trkpt lat="42.47863" lon="2.92469">
        <ele>981</ele>
        <time>2024-09-23T06:01:03Z</time>
      </trkpt>
      <trkpt lat="42.47863" lon="2.92473">
        <ele>982</ele>
        <time>2024-09-23T06:01:08Z</time>
      </trkpt>
      <trkpt lat="42.47862" lon="2.92477">
        <ele>982</ele>
        <time>2024-09-23T06:01:14Z</time>
      </trkpt>
      <trkpt lat="42.47861" lon="2.92481">
        <ele>983</ele>
        <time>2024-09-23T06:01:19Z</time>
      </trkpt>
      <trkpt lat="42.4786" lon="2.92486">
        <ele>984</ele>
        <time>2024-09-23T06:01:23Z</time>
      </trkpt>
      <trkpt lat="42.47857" lon="2.92488">
        <ele>985</ele>
        <time>2024-09-23T06:01:29Z</time>
      </trkpt>
      <trkpt lat="42.47855" lon="2.92492">
        <ele>986</ele>
        <time>2024-09-23T06:01:34Z</time>
      </trkpt>
      <trkpt lat="42.47853" lon="2.92495">
        <ele>986</ele>
        <time>2024-09-23T06:01:40Z</time>
      </trkpt>
      <trkpt lat="42.47853" lon="2.92499">
        <ele>987</ele>
        <time>2024-09-23T06:01:48Z</time>
      </trkpt>
      <trkpt lat="42.47851" lon="2.92503">
        <ele>987</ele>
        <time>2024-09-23T06:01:54Z</time>
      </trkpt>
      <trkpt lat="42.4785" lon="2.92507">
        <ele>988</ele>
        <time>2024-09-23T06:01:58Z</time>
      </trkpt>
      <trkpt lat="42.47849" lon="2.9251">
        <ele>988</ele>
        <time>2024-09-23T06:02:03Z</time>
      </trkpt>
      <trkpt lat="42.47849" lon="2.92514">
        <ele>988</ele>
        <time>2024-09-23T06:02:06Z</time>
      </trkpt>
      <trkpt lat="42.47848" lon="2.92519">
        <ele>989</ele>
        <time>2024-09-23T06:02:12Z</time>
      </trkpt>
      <trkpt lat="42.47848" lon="2.92523">
        <ele>990</ele>
        <time>2024-09-23T06:02:16Z</time>
      </trkpt>
      <trkpt lat="42.47847" lon="2.92527">
        <ele>991</ele>
        <time>2024-09-23T06:02:21Z</time>
      </trkpt>
      <trkpt lat="42.47845" lon="2.9253">
        <ele>991</ele>
        <time>2024-09-23T06:02:29Z</time>
      </trkpt>
      <trkpt lat="42.47842" lon="2.92531">
        <ele>992</ele>
        <time>2024-09-23T06:02:33Z</time>
      </trkpt>
      <trkpt lat="42.4784" lon="2.92533">
        <ele>993</ele>
        <time>2024-09-23T06:02:40Z</time>
      </trkpt>
      <trkpt lat="42.47839" lon="2.92535">
        <ele>993</ele>
        <time>2024-09-23T06:02:46Z</time>
      </trkpt>
      <trkpt lat="42.47837" lon="2.92538">
        <ele>994</ele>
        <time>2024-09-23T06:02:51Z</time>
      </trkpt>
      <trkpt lat="42.47835" lon="2.92542">
        <ele>996</ele>
        <time>2024-09-23T06:03:02Z</time>
      </trkpt>
      <trkpt lat="42.47833" lon="2.92543">
        <ele>996</ele>
        <time>2024-09-23T06:03:06Z</time>
      </trkpt>
      <trkpt lat="42.4783" lon="2.92546">
        <ele>996</ele>
        <time>2024-09-23T06:03:10Z</time>
      </trkpt>
      <trkpt lat="42.47829" lon="2.92549">
        <ele>997</ele>
        <time>2024-09-23T06:03:16Z</time>
      </trkpt>
      <trkpt lat="42.47827" lon="2.92552">
        <ele>998</ele>
        <time>2024-09-23T06:03:20Z</time>
      </trkpt>
      <trkpt lat="42.47825" lon="2.92555">
        <ele>999</ele>
        <time>2024-09-23T06:03:24Z</time>
      </trkpt>
      <trkpt lat="42.47823" lon="2.92559">
        <ele>999</ele>
        <time>2024-09-23T06:03:28Z</time>
      </trkpt>
      <trkpt lat="42.47822" lon="2.92562">
        <ele>999</ele>
        <time>2024-09-23T06:03:32Z</time>
      </trkpt>
      <trkpt lat="42.4782" lon="2.92566">
        <ele>1001</ele>
        <time>2024-09-23T06:03:37Z</time>
      </trkpt>
      <trkpt lat="42.47821" lon="2.92569">
        <ele>1002</ele>
        <time>2024-09-23T06:03:58Z</time>
      </trkpt>
      <trkpt lat="42.47821" lon="2.92572">
        <ele>1002</ele>
        <time>2024-09-23T06:04:02Z</time>
      </trkpt>
      <trkpt lat="42.4782" lon="2.92576">
        <ele>1003</ele>
        <time>2024-09-23T06:04:06Z</time>
      </trkpt>
      <trkpt lat="42.47819" lon="2.9258">
        <ele>1002</ele>
        <time>2024-09-23T06:04:09Z</time>
      </trkpt>
      <trkpt lat="42.47818" lon="2.92584">
        <ele>1003</ele>
        <time>2024-09-23T06:04:14Z</time>
      </trkpt>
      <trkpt lat="42.47816" lon="2.92587">
        <ele>1003</ele>
        <time>2024-09-23T06:04:17Z</time>
      </trkpt>
      <trkpt lat="42.47814" lon="2.92589">
        <ele>1004</ele>
        <time>2024-09-23T06:04:20Z</time>
      </trkpt>
      <trkpt lat="42.47812" lon="2.92592">
        <ele>1005</ele>
        <time>2024-09-23T06:04:26Z</time>
      </trkpt>
      <trkpt lat="42.47809" lon="2.92594">
        <ele>1005</ele>
        <time>2024-09-23T06:04:30Z</time>
      </trkpt>
      <trkpt lat="42.47807" lon="2.92592">
        <ele>1007</ele>
        <time>2024-09-23T06:04:33Z</time>
      </trkpt>
      <trkpt lat="42.47804" lon="2.92591">
        <ele>1007</ele>
        <time>2024-09-23T06:04:36Z</time>
      </trkpt>
      <trkpt lat="42.47801" lon="2.92592">
        <ele>1008</ele>
        <time>2024-09-23T06:04:40Z</time>
      </trkpt>
      <trkpt lat="42.47799" lon="2.92594">
        <ele>1011</ele>
        <time>2024-09-23T06:04:48Z</time>
      </trkpt>
      <trkpt lat="42.47796" lon="2.92597">
        <ele>1011</ele>
        <time>2024-09-23T06:04:53Z</time>
      </trkpt>
      <trkpt lat="42.47794" lon="2.926">
        <ele>1013</ele>
        <time>2024-09-23T06:04:58Z</time>
      </trkpt>
      <trkpt lat="42.47793" lon="2.92603">
        <ele>1013</ele>
        <time>2024-09-23T06:05:02Z</time>
      </trkpt>
      <trkpt lat="42.47793" lon="2.92607">
        <ele>1013</ele>
        <time>2024-09-23T06:05:07Z</time>
      </trkpt>
      <trkpt lat="42.47793" lon="2.92611">
        <ele>1014</ele>
        <time>2024-09-23T06:05:13Z</time>
      </trkpt>
      <trkpt lat="42.47795" lon="2.92616">
        <ele>1014</ele>
        <time>2024-09-23T06:05:18Z</time>
      </trkpt>
      <trkpt lat="42.47795" lon="2.9262">
        <ele>1016</ele>
        <time>2024-09-23T06:05:23Z</time>
      </trkpt>
      <trkpt lat="42.47794" lon="2.92625">
        <ele>1016</ele>
        <time>2024-09-23T06:05:27Z</time>
      </trkpt>
      <trkpt lat="42.47793" lon="2.92629">
        <ele>1017</ele>
        <time>2024-09-23T06:05:32Z</time>
      </trkpt>
      <trkpt lat="42.47792" lon="2.92633">
        <ele>1018</ele>
        <time>2024-09-23T06:05:34Z</time>
      </trkpt>
      <trkpt lat="42.47791" lon="2.92637">
        <ele>1019</ele>
        <time>2024-09-23T06:05:39Z</time>
      </trkpt>
      <trkpt lat="42.4779" lon="2.9264">
        <ele>1018</ele>
        <time>2024-09-23T06:05:47Z</time>
      </trkpt>
      <trkpt lat="42.47792" lon="2.92644">
        <ele>1018</ele>
        <time>2024-09-23T06:05:51Z</time>
      </trkpt>
      <trkpt lat="42.47793" lon="2.92647">
        <ele>1017</ele>
        <time>2024-09-23T06:05:56Z</time>
      </trkpt>
      <trkpt lat="42.47793" lon="2.92651">
        <ele>1017</ele>
        <time>2024-09-23T06:05:58Z</time>
      </trkpt>
      <trkpt lat="42.47793" lon="2.92654">
        <ele>1017</ele>
        <time>2024-09-23T06:06:03Z</time>
      </trkpt>
      <trkpt lat="42.47793" lon="2.92658">
        <ele>1019</ele>
        <time>2024-09-23T06:06:06Z</time>
      </trkpt>
      <trkpt lat="42.47793" lon="2.92662">
        <ele>1021</ele>
        <time>2024-09-23T06:06:13Z</time>
      </trkpt>
      <trkpt lat="42.4779" lon="2.92665">
        <ele>1022</ele>
        <time>2024-09-23T06:06:18Z</time>
      </trkpt>
      <trkpt lat="42.4779" lon="2.92668">
        <ele>1024</ele>
        <time>2024-09-23T06:06:22Z</time>
      </trkpt>
      <trkpt lat="42.47789" lon="2.92672">
        <ele>1026</ele>
        <time>2024-09-23T06:06:31Z</time>
      </trkpt>
      <trkpt lat="42.47788" lon="2.92676">
        <ele>1027</ele>
        <time>2024-09-23T06:06:35Z</time>
      </trkpt>
      <trkpt lat="42.47787" lon="2.92679">
        <ele>1029</ele>
        <time>2024-09-23T06:06:38Z</time>
      </trkpt>
      <trkpt lat="42.47784" lon="2.92681">
        <ele>1030</ele>
        <time>2024-09-23T06:06:43Z</time>
      </trkpt>
      <trkpt lat="42.47784" lon="2.92683">
        <ele>1031</ele>
        <time>2024-09-23T06:06:50Z</time>
      </trkpt>
      <trkpt lat="42.47782" lon="2.92684">
        <ele>1031</ele>
        <time>2024-09-23T06:06:52Z</time>
      </trkpt>
      <trkpt lat="42.4778" lon="2.92685">
        <ele>1032</ele>
        <time>2024-09-23T06:06:58Z</time>
      </trkpt>
      <trkpt lat="42.47779" lon="2.92688">
        <ele>1033</ele>
        <time>2024-09-23T06:07:01Z</time>
      </trkpt>
      <trkpt lat="42.47778" lon="2.92691">
        <ele>1033</ele>
        <time>2024-09-23T06:07:05Z</time>
      </trkpt>
      <trkpt lat="42.47778" lon="2.92696">
        <ele>1034</ele>
        <time>2024-09-23T06:07:07Z</time>
      </trkpt>
      <trkpt lat="42.47779" lon="2.927">
        <ele>1034</ele>
        <time>2024-09-23T06:07:11Z</time>
      </trkpt>
      <trkpt lat="42.47778" lon="2.92705">
        <ele>1035</ele>
        <time>2024-09-23T06:07:19Z</time>
      </trkpt>
      <trkpt lat="42.47777" lon="2.92709">
        <ele>1035</ele>
        <time>2024-09-23T06:07:22Z</time>
      </trkpt>
      <trkpt lat="42.47777" lon="2.92713">
        <ele>1036</ele>
        <time>2024-09-23T06:07:26Z</time>
      </trkpt>
      <trkpt lat="42.47776" lon="2.92717">
        <ele>1037</ele>
        <time>2024-09-23T06:07:31Z</time>
      </trkpt>
      <trkpt lat="42.47774" lon="2.9272">
        <ele>1040</ele>
        <time>2024-09-23T06:07:36Z</time>
      </trkpt>
      <trkpt lat="42.47774" lon="2.92723">
        <ele>1039</ele>
        <time>2024-09-23T06:07:43Z</time>
      </trkpt>
      <trkpt lat="42.47775" lon="2.92726">
        <ele>1040</ele>
        <time>2024-09-23T06:07:44Z</time>
      </trkpt>
      <trkpt lat="42.47775" lon="2.9273">
        <ele>1042</ele>
        <time>2024-09-23T06:07:50Z</time>
      </trkpt>
      <trkpt lat="42.47775" lon="2.92733">
        <ele>1042</ele>
        <time>2024-09-23T06:07:54Z</time>
      </trkpt>
      <trkpt lat="42.47775" lon="2.92738">
        <ele>1043</ele>
        <time>2024-09-23T06:07:57Z</time>
      </trkpt>
      <trkpt lat="42.47773" lon="2.9274">
        <ele>1043</ele>
        <time>2024-09-23T06:07:59Z</time>
      </trkpt>
      <trkpt lat="42.47773" lon="2.92744">
        <ele>1045</ele>
        <time>2024-09-23T06:08:07Z</time>
      </trkpt>
      <trkpt lat="42.47772" lon="2.92748">
        <ele>1047</ele>
        <time>2024-09-23T06:08:13Z</time>
      </trkpt>
      <trkpt lat="42.47773" lon="2.92751">
        <ele>1047</ele>
        <time>2024-09-23T06:08:15Z</time>
      </trkpt>
      <trkpt lat="42.47774" lon="2.92754">
        <ele>1047</ele>
        <time>2024-09-23T06:08:17Z</time>
      </trkpt>
      <trkpt lat="42.47776" lon="2.92756">
        <ele>1045</ele>
        <time>2024-09-23T06:08:19Z</time>
      </trkpt>
      <trkpt lat="42.47778" lon="2.92761">
        <ele>1046</ele>
        <time>2024-09-23T06:08:22Z</time>
      </trkpt>
      <trkpt lat="42.47778" lon="2.92765">
        <ele>1045</ele>
        <time>2024-09-23T06:08:25Z</time>
      </trkpt>
      <trkpt lat="42.47777" lon="2.92769">
        <ele>1045</ele>
        <time>2024-09-23T06:08:29Z</time>
      </trkpt>
      <trkpt lat="42.47775" lon="2.92772">
        <ele>1045</ele>
        <time>2024-09-23T06:08:33Z</time>
      </trkpt>
      <trkpt lat="42.47773" lon="2.92776">
        <ele>1046</ele>
        <time>2024-09-23T06:08:34Z</time>
      </trkpt>
      <trkpt lat="42.47773" lon="2.92779">
        <ele>1046</ele>
        <time>2024-09-23T06:08:36Z</time>
      </trkpt>
      <trkpt lat="42.47772" lon="2.92783">
        <ele>1046</ele>
        <time>2024-09-23T06:08:40Z</time>
      </trkpt>
      <trkpt lat="42.4777" lon="2.92785">
        <ele>1045</ele>
        <time>2024-09-23T06:08:42Z</time>
      </trkpt>
      <trkpt lat="42.47768" lon="2.92788">
        <ele>1045</ele>
        <time>2024-09-23T06:08:45Z</time>
      </trkpt>
      <trkpt lat="42.47767" lon="2.92791">
        <ele>1046</ele>
        <time>2024-09-23T06:08:49Z</time>
      </trkpt>
      <trkpt lat="42.47766" lon="2.92795">
        <ele>1046</ele>
        <time>2024-09-23T06:08:52Z</time>
      </trkpt>
      <trkpt lat="42.47767" lon="2.92799">
        <ele>1048</ele>
        <time>2024-09-23T06:08:55Z</time>
      </trkpt>
      <trkpt lat="42.47767" lon="2.92803">
        <ele>1047</ele>
        <time>2024-09-23T06:08:59Z</time>
      </trkpt>
      <trkpt lat="42.47767" lon="2.92809">
        <ele>1046</ele>
        <time>2024-09-23T06:09:01Z</time>
      </trkpt>
      <trkpt lat="42.47767" lon="2.92814">
        <ele>1048</ele>
        <time>2024-09-23T06:09:03Z</time>
      </trkpt>
      <trkpt lat="42.47767" lon="2.92818">
        <ele>1049</ele>
        <time>2024-09-23T06:09:08Z</time>
      </trkpt>
      <trkpt lat="42.47766" lon="2.92822">
        <ele>1048</ele>
        <time>2024-09-23T06:09:09Z</time>
      </trkpt>
      <trkpt lat="42.47765" lon="2.92826">
        <ele>1049</ele>
        <time>2024-09-23T06:09:12Z</time>
      </trkpt>
      <trkpt lat="42.47764" lon="2.92825">
        <ele>1050</ele>
        <time>2024-09-23T06:09:15Z</time>
      </trkpt>
      <trkpt lat="42.47762" lon="2.92826">
        <ele>1047</ele>
        <time>2024-09-23T06:09:25Z</time>
      </trkpt>
      <trkpt lat="42.4776" lon="2.92828">
        <ele>1049</ele>
        <time>2024-09-23T06:09:29Z</time>
      </trkpt>
      <trkpt lat="42.47758" lon="2.92831">
        <ele>1050</ele>
        <time>2024-09-23T06:09:33Z</time>
      </trkpt>
      <trkpt lat="42.47757" lon="2.92834">
        <ele>1053</ele>
        <time>2024-09-23T06:09:37Z</time>
      </trkpt>
      <trkpt lat="42.47755" lon="2.92835">
        <ele>1052</ele>
        <time>2024-09-23T06:09:41Z</time>
      </trkpt>
      <trkpt lat="42.47752" lon="2.92834">
        <ele>1053</ele>
        <time>2024-09-23T06:09:47Z</time>
      </trkpt>
      <trkpt lat="42.47749" lon="2.92834">
        <ele>1054</ele>
        <time>2024-09-23T06:09:51Z</time>
      </trkpt>
      <trkpt lat="42.47746" lon="2.92835">
        <ele>1055</ele>
        <time>2024-09-23T06:09:54Z</time>
      </trkpt>
      <trkpt lat="42.47744" lon="2.92837">
        <ele>1055</ele>
        <time>2024-09-23T06:09:56Z</time>
      </trkpt>
      <trkpt lat="42.47742" lon="2.92841">
        <ele>1058</ele>
        <time>2024-09-23T06:10:02Z</time>
      </trkpt>
      <trkpt lat="42.47739" lon="2.92843">
        <ele>1059</ele>
        <time>2024-09-23T06:10:06Z</time>
      </trkpt>
      <trkpt lat="42.47737" lon="2.92846">
        <ele>1059</ele>
        <time>2024-09-23T06:10:08Z</time>
      </trkpt>
      <trkpt lat="42.47736" lon="2.9285">
        <ele>1059</ele>
        <time>2024-09-23T06:10:15Z</time>
      </trkpt>
      <trkpt lat="42.47736" lon="2.92854">
        <ele>1060</ele>
        <time>2024-09-23T06:10:18Z</time>
      </trkpt>
      <trkpt lat="42.47736" lon="2.92858">
        <ele>1061</ele>
        <time>2024-09-23T06:10:24Z</time>
      </trkpt>
      <trkpt lat="42.47736" lon="2.92861">
        <ele>1062</ele>
        <time>2024-09-23T06:10:26Z</time>
      </trkpt>
      <trkpt lat="42.47733" lon="2.92864">
        <ele>1062</ele>
        <time>2024-09-23T06:10:30Z</time>
      </trkpt>
      <trkpt lat="42.4773" lon="2.92865">
        <ele>1059</ele>
        <time>2024-09-23T06:10:34Z</time>
      </trkpt>
      <trkpt lat="42.47727" lon="2.92865">
        <ele>1061</ele>
        <time>2024-09-23T06:10:38Z</time>
      </trkpt>
      <trkpt lat="42.47724" lon="2.92866">
        <ele>1060</ele>
        <time>2024-09-23T06:10:43Z</time>
      </trkpt>
      <trkpt lat="42.47721" lon="2.92868">
        <ele>1060</ele>
        <time>2024-09-23T06:10:48Z</time>
      </trkpt>
      <trkpt lat="42.47719" lon="2.92871">
        <ele>1063</ele>
        <time>2024-09-23T06:10:53Z</time>
      </trkpt>
      <trkpt lat="42.47716" lon="2.92872">
        <ele>1064</ele>
        <time>2024-09-23T06:11:01Z</time>
      </trkpt>
      <trkpt lat="42.47714" lon="2.92874">
        <ele>1063</ele>
        <time>2024-09-23T06:11:05Z</time>
      </trkpt>
      <trkpt lat="42.47711" lon="2.92877">
        <ele>1065</ele>
        <time>2024-09-23T06:11:09Z</time>
      </trkpt>
      <trkpt lat="42.47709" lon="2.92879">
        <ele>1065</ele>
        <time>2024-09-23T06:11:16Z</time>
      </trkpt>
      <trkpt lat="42.47706" lon="2.9288">
        <ele>1066</ele>
        <time>2024-09-23T06:11:25Z</time>
      </trkpt>
      <trkpt lat="42.47705" lon="2.92877">
        <ele>1066</ele>
        <time>2024-09-23T06:11:31Z</time>
      </trkpt>
      <trkpt lat="42.47703" lon="2.92874">
        <ele>1066</ele>
        <time>2024-09-23T06:11:35Z</time>
      </trkpt>
      <trkpt lat="42.47702" lon="2.92871">
        <ele>1068</ele>
        <time>2024-09-23T06:11:41Z</time>
      </trkpt>
      <trkpt lat="42.477" lon="2.9287">
        <ele>1068</ele>
        <time>2024-09-23T06:11:46Z</time>
      </trkpt>
      <trkpt lat="42.47697" lon="2.9287">
        <ele>1070</ele>
        <time>2024-09-23T06:11:53Z</time>
      </trkpt>
      <trkpt lat="42.47695" lon="2.92872">
        <ele>1069</ele>
        <time>2024-09-23T06:12:00Z</time>
      </trkpt>
      <trkpt lat="42.47692" lon="2.92874">
        <ele>1069</ele>
        <time>2024-09-23T06:12:04Z</time>
      </trkpt>
      <trkpt lat="42.47691" lon="2.92877">
        <ele>1069</ele>
        <time>2024-09-23T06:12:08Z</time>
      </trkpt>
      <trkpt lat="42.47689" lon="2.9288">
        <ele>1071</ele>
        <time>2024-09-23T06:12:10Z</time>
      </trkpt>
      <trkpt lat="42.47688" lon="2.92883">
        <ele>1073</ele>
        <time>2024-09-23T06:12:15Z</time>
      </trkpt>
      <trkpt lat="42.47686" lon="2.92887">
        <ele>1074</ele>
        <time>2024-09-23T06:12:18Z</time>
      </trkpt>
      <trkpt lat="42.47684" lon="2.92889">
        <ele>1076</ele>
        <time>2024-09-23T06:12:22Z</time>
      </trkpt>
      <trkpt lat="42.47682" lon="2.92889">
        <ele>1075</ele>
        <time>2024-09-23T06:12:29Z</time>
      </trkpt>
      <trkpt lat="42.47679" lon="2.92888">
        <ele>1075</ele>
        <time>2024-09-23T06:12:33Z</time>
      </trkpt>
      <trkpt lat="42.47677" lon="2.92889">
        <ele>1075</ele>
        <time>2024-09-23T06:12:35Z</time>
      </trkpt>
      <trkpt lat="42.47673" lon="2.9289">
        <ele>1076</ele>
        <time>2024-09-23T06:12:39Z</time>
      </trkpt>
      <trkpt lat="42.47671" lon="2.92893">
        <ele>1077</ele>
        <time>2024-09-23T06:12:44Z</time>
      </trkpt>
      <trkpt lat="42.47669" lon="2.92895">
        <ele>1079</ele>
        <time>2024-09-23T06:12:48Z</time>
      </trkpt>
      <trkpt lat="42.47666" lon="2.92894">
        <ele>1080</ele>
        <time>2024-09-23T06:13:08Z</time>
      </trkpt>
      <trkpt lat="42.47663" lon="2.92895">
        <ele>1081</ele>
        <time>2024-09-23T06:13:12Z</time>
      </trkpt>
      <trkpt lat="42.47659" lon="2.92897">
        <ele>1082</ele>
        <time>2024-09-23T06:13:18Z</time>
      </trkpt>
      <trkpt lat="42.47656" lon="2.92898">
        <ele>1082</ele>
        <time>2024-09-23T06:13:25Z</time>
      </trkpt>
      <trkpt lat="42.47653" lon="2.92899">
        <ele>1083</ele>
        <time>2024-09-23T06:13:29Z</time>
      </trkpt>
      <trkpt lat="42.4765" lon="2.92902">
        <ele>1083</ele>
        <time>2024-09-23T06:13:33Z</time>
      </trkpt>
      <trkpt lat="42.47648" lon="2.92904">
        <ele>1084</ele>
        <time>2024-09-23T06:13:40Z</time>
      </trkpt>
      <trkpt lat="42.47646" lon="2.92907">
        <ele>1084</ele>
        <time>2024-09-23T06:13:44Z</time>
      </trkpt>
      <trkpt lat="42.47644" lon="2.9291">
        <ele>1084</ele>
        <time>2024-09-23T06:13:48Z</time>
      </trkpt>
      <trkpt lat="42.47642" lon="2.92914">
        <ele>1084</ele>
        <time>2024-09-23T06:13:51Z</time>
      </trkpt>
      <trkpt lat="42.47639" lon="2.92916">
        <ele>1086</ele>
        <time>2024-09-23T06:13:55Z</time>
      </trkpt>
      <trkpt lat="42.47636" lon="2.92917">
        <ele>1087</ele>
        <time>2024-09-23T06:13:59Z</time>
      </trkpt>
      <trkpt lat="42.47633" lon="2.92918">
        <ele>1088</ele>
        <time>2024-09-23T06:14:04Z</time>
      </trkpt>
      <trkpt lat="42.4763" lon="2.92918">
        <ele>1089</ele>
        <time>2024-09-23T06:14:08Z</time>
      </trkpt>
      <trkpt lat="42.47626" lon="2.92919">
        <ele>1088</ele>
        <time>2024-09-23T06:14:13Z</time>
      </trkpt>
      <trkpt lat="42.47623" lon="2.9292">
        <ele>1087</ele>
        <time>2024-09-23T06:14:18Z</time>
      </trkpt>
      <trkpt lat="42.4762" lon="2.92922">
        <ele>1088</ele>
        <time>2024-09-23T06:14:22Z</time>
      </trkpt>
      <trkpt lat="42.47617" lon="2.92925">
        <ele>1088</ele>
        <time>2024-09-23T06:14:26Z</time>
      </trkpt>
      <trkpt lat="42.47614" lon="2.92928">
        <ele>1090</ele>
        <time>2024-09-23T06:14:31Z</time>
      </trkpt>
      <trkpt lat="42.47612" lon="2.92932">
        <ele>1089</ele>
        <time>2024-09-23T06:14:33Z</time>
      </trkpt>
      <trkpt lat="42.47611" lon="2.92936">
        <ele>1089</ele>
        <time>2024-09-23T06:14:36Z</time>
      </trkpt>
      <trkpt lat="42.4761" lon="2.9294">
        <ele>1090</ele>
        <time>2024-09-23T06:14:40Z</time>
      </trkpt>
      <trkpt lat="42.47609" lon="2.92943">
        <ele>1089</ele>
        <time>2024-09-23T06:14:44Z</time>
      </trkpt>
      <trkpt lat="42.47607" lon="2.92947">
        <ele>1090</ele>
        <time>2024-09-23T06:14:47Z</time>
      </trkpt>
      <trkpt lat="42.47605" lon="2.9295">
        <ele>1090</ele>
        <time>2024-09-23T06:14:50Z</time>
      </trkpt>
      <trkpt lat="42.47603" lon="2.92953">
        <ele>1091</ele>
        <time>2024-09-23T06:14:53Z</time>
      </trkpt>
      <trkpt lat="42.47601" lon="2.92954">
        <ele>1091</ele>
        <time>2024-09-23T06:14:56Z</time>
      </trkpt>
      <trkpt lat="42.47598" lon="2.92956">
        <ele>1092</ele>
        <time>2024-09-23T06:14:59Z</time>
      </trkpt>
      <trkpt lat="42.47595" lon="2.92958">
        <ele>1094</ele>
        <time>2024-09-23T06:15:08Z</time>
      </trkpt>
      <trkpt lat="42.47593" lon="2.92962">
        <ele>1093</ele>
        <time>2024-09-23T06:15:17Z</time>
      </trkpt>
      <trkpt lat="42.47592" lon="2.92961">
        <ele>1092</ele>
        <time>2024-09-23T06:15:24Z</time>
      </trkpt>
      <trkpt lat="42.47593" lon="2.9296">
        <ele>1092</ele>
        <time>2024-09-23T06:15:30Z</time>
      </trkpt>
      <trkpt lat="42.47592" lon="2.92961">
        <ele>1092</ele>
        <time>2024-09-23T06:15:35Z</time>
      </trkpt>
      <trkpt lat="42.47589" lon="2.92963">
        <ele>1092</ele>
        <time>2024-09-23T06:15:38Z</time>
      </trkpt>
      <trkpt lat="42.47586" lon="2.92965">
        <ele>1093</ele>
        <time>2024-09-23T06:15:42Z</time>
      </trkpt>
      <trkpt lat="42.47583" lon="2.92968">
        <ele>1092</ele>
        <time>2024-09-23T06:15:45Z</time>
      </trkpt>
      <trkpt lat="42.47581" lon="2.9297">
        <ele>1090</ele>
        <time>2024-09-23T06:15:48Z</time>
      </trkpt>
      <trkpt lat="42.47578" lon="2.92973">
        <ele>1091</ele>
        <time>2024-09-23T06:15:51Z</time>
      </trkpt>
      <trkpt lat="42.47575" lon="2.92975">
        <ele>1090</ele>
        <time>2024-09-23T06:15:54Z</time>
      </trkpt>
      <trkpt lat="42.47572" lon="2.92977">
        <ele>1088</ele>
        <time>2024-09-23T06:17:17Z</time>
      </trkpt>
      <trkpt lat="42.47569" lon="2.9298">
        <ele>1088</ele>
        <time>2024-09-23T06:17:21Z</time>
      </trkpt>
      <trkpt lat="42.47567" lon="2.92982">
        <ele>1088</ele>
        <time>2024-09-23T06:17:25Z</time>
      </trkpt>
      <trkpt lat="42.47564" lon="2.92985">
        <ele>1089</ele>
        <time>2024-09-23T06:17:29Z</time>
      </trkpt>
      <trkpt lat="42.47562" lon="2.92987">
        <ele>1090</ele>
        <time>2024-09-23T06:17:32Z</time>
      </trkpt>
      <trkpt lat="42.47559" lon="2.9299">
        <ele>1090</ele>
        <time>2024-09-23T06:17:35Z</time>
      </trkpt>
      <trkpt lat="42.47558" lon="2.92993">
        <ele>1091</ele>
        <time>2024-09-23T06:17:38Z</time>
      </trkpt>
      <trkpt lat="42.47558" lon="2.92997">
        <ele>1091</ele>
        <time>2024-09-23T06:17:41Z</time>
      </trkpt>
      <trkpt lat="42.47559" lon="2.93002">
        <ele>1092</ele>
        <time>2024-09-23T06:17:44Z</time>
      </trkpt>
      <trkpt lat="42.4756" lon="2.93006">
        <ele>1092</ele>
        <time>2024-09-23T06:17:47Z</time>
      </trkpt>
      <trkpt lat="42.47561" lon="2.93009">
        <ele>1092</ele>
        <time>2024-09-23T06:17:50Z</time>
      </trkpt>
      <trkpt lat="42.47562" lon="2.93013">
        <ele>1092</ele>
        <time>2024-09-23T06:17:53Z</time>
      </trkpt>
      <trkpt lat="42.47564" lon="2.93017">
        <ele>1093</ele>
        <time>2024-09-23T06:17:56Z</time>
      </trkpt>
      <trkpt lat="42.47565" lon="2.9302">
        <ele>1093</ele>
        <time>2024-09-23T06:17:58Z</time>
      </trkpt>
      <trkpt lat="42.47567" lon="2.93023">
        <ele>1093</ele>
        <time>2024-09-23T06:18:00Z</time>
      </trkpt>
      <trkpt lat="42.4757" lon="2.93026">
        <ele>1092</ele>
        <time>2024-09-23T06:18:02Z</time>
      </trkpt>
      <trkpt lat="42.47573" lon="2.93028">
        <ele>1092</ele>
        <time>2024-09-23T06:18:04Z</time>
      </trkpt>
      <trkpt lat="42.47575" lon="2.93032">
        <ele>1091</ele>
        <time>2024-09-23T06:18:06Z</time>
      </trkpt>
      <trkpt lat="42.47577" lon="2.93035">
        <ele>1090</ele>
        <time>2024-09-23T06:18:09Z</time>
      </trkpt>
      <trkpt lat="42.47579" lon="2.93038">
        <ele>1091</ele>
        <time>2024-09-23T06:18:11Z</time>
      </trkpt>
      <trkpt lat="42.47579" lon="2.93043">
        <ele>1090</ele>
        <time>2024-09-23T06:18:14Z</time>
      </trkpt>
      <trkpt lat="42.4758" lon="2.93048">
        <ele>1090</ele>
        <time>2024-09-23T06:18:18Z</time>
      </trkpt>
      <trkpt lat="42.47581" lon="2.93054">
        <ele>1090</ele>
        <time>2024-09-23T06:18:23Z</time>
      </trkpt>
      <trkpt lat="42.4758" lon="2.93057">
        <ele>1091</ele>
        <time>2024-09-23T06:18:26Z</time>
      </trkpt>
      <trkpt lat="42.47579" lon="2.93061">
        <ele>1091</ele>
        <time>2024-09-23T06:18:28Z</time>
      </trkpt>
      <trkpt lat="42.4758" lon="2.93066">
        <ele>1092</ele>
        <time>2024-09-23T06:18:31Z</time>
      </trkpt>
      <trkpt lat="42.4758" lon="2.93072">
        <ele>1091</ele>
        <time>2024-09-23T06:18:34Z</time>
      </trkpt>
      <trkpt lat="42.47581" lon="2.93077">
        <ele>1091</ele>
        <time>2024-09-23T06:18:37Z</time>
      </trkpt>
      <trkpt lat="42.47581" lon="2.93081">
        <ele>1091</ele>
        <time>2024-09-23T06:18:39Z</time>
      </trkpt>
      <trkpt lat="42.47581" lon="2.93086">
        <ele>1091</ele>
        <time>2024-09-23T06:18:42Z</time>
      </trkpt>
      <trkpt lat="42.47581" lon="2.9309">
        <ele>1091</ele>
        <time>2024-09-23T06:18:46Z</time>
      </trkpt>
      <trkpt lat="42.47582" lon="2.93095">
        <ele>1090</ele>
        <time>2024-09-23T06:18:49Z</time>
      </trkpt>
      <trkpt lat="42.47581" lon="2.93099">
        <ele>1091</ele>
        <time>2024-09-23T06:18:51Z</time>
      </trkpt>
      <trkpt lat="42.47581" lon="2.93103">
        <ele>1091</ele>
        <time>2024-09-23T06:18:54Z</time>
      </trkpt>
      <trkpt lat="42.47581" lon="2.93107">
        <ele>1091</ele>
        <time>2024-09-23T06:18:56Z</time>
      </trkpt>
      <trkpt lat="42.4758" lon="2.9311">
        <ele>1090</ele>
        <time>2024-09-23T06:18:59Z</time>
      </trkpt>
      <trkpt lat="42.47579" lon="2.93114">
        <ele>1091</ele>
        <time>2024-09-23T06:19:01Z</time>
      </trkpt>
      <trkpt lat="42.4758" lon="2.93118">
        <ele>1091</ele>
        <time>2024-09-23T06:19:04Z</time>
      </trkpt>
      <trkpt lat="42.4758" lon="2.93122">
        <ele>1091</ele>
        <time>2024-09-23T06:19:07Z</time>
      </trkpt>
      <trkpt lat="42.4758" lon="2.93128">
        <ele>1090</ele>
        <time>2024-09-23T06:19:11Z</time>
      </trkpt>
      <trkpt lat="42.47581" lon="2.93133">
        <ele>1090</ele>
        <time>2024-09-23T06:19:14Z</time>
      </trkpt>
      <trkpt lat="42.47581" lon="2.93138">
        <ele>1090</ele>
        <time>2024-09-23T06:19:17Z</time>
      </trkpt>
      <trkpt lat="42.47581" lon="2.93143">
        <ele>1090</ele>
        <time>2024-09-23T06:19:19Z</time>
      </trkpt>
      <trkpt lat="42.47582" lon="2.93148">
        <ele>1090</ele>
        <time>2024-09-23T06:19:21Z</time>
      </trkpt>
      <trkpt lat="42.47581" lon="2.93152">
        <ele>1089</ele>
        <time>2024-09-23T06:19:24Z</time>
      </trkpt>
      <trkpt lat="42.4758" lon="2.93156">
        <ele>1089</ele>
        <time>2024-09-23T06:19:27Z</time>
      </trkpt>
      <trkpt lat="42.47579" lon="2.9316">
        <ele>1090</ele>
        <time>2024-09-23T06:19:29Z</time>
      </trkpt>
      <trkpt lat="42.47577" lon="2.93163">
        <ele>1090</ele>
        <time>2024-09-23T06:19:32Z</time>
      </trkpt>
      <trkpt lat="42.47574" lon="2.93166">
        <ele>1090</ele>
        <time>2024-09-23T06:19:34Z</time>
      </trkpt>
      <trkpt lat="42.47574" lon="2.9317">
        <ele>1091</ele>
        <time>2024-09-23T06:19:36Z</time>
      </trkpt>
      <trkpt lat="42.47576" lon="2.93175">
        <ele>1091</ele>
        <time>2024-09-23T06:19:39Z</time>
      </trkpt>
      <trkpt lat="42.47576" lon="2.9318">
        <ele>1091</ele>
        <time>2024-09-23T06:19:43Z</time>
      </trkpt>
      <trkpt lat="42.47574" lon="2.93184">
        <ele>1091</ele>
        <time>2024-09-23T06:19:47Z</time>
      </trkpt>
      <trkpt lat="42.47572" lon="2.93187">
        <ele>1092</ele>
        <time>2024-09-23T06:19:50Z</time>
      </trkpt>
      <trkpt lat="42.47571" lon="2.9319">
        <ele>1092</ele>
        <time>2024-09-23T06:19:52Z</time>
      </trkpt>
      <trkpt lat="42.47572" lon="2.93194">
        <ele>1091</ele>
        <time>2024-09-23T06:19:54Z</time>
      </trkpt>
      <trkpt lat="42.47572" lon="2.93199">
        <ele>1091</ele>
        <time>2024-09-23T06:19:57Z</time>
      </trkpt>
      <trkpt lat="42.47572" lon="2.93203">
        <ele>1091</ele>
        <time>2024-09-23T06:20:00Z</time>
      </trkpt>
      <trkpt lat="42.4757" lon="2.93208">
        <ele>1092</ele>
        <time>2024-09-23T06:20:03Z</time>
      </trkpt>
      <trkpt lat="42.47568" lon="2.93212">
        <ele>1090</ele>
        <time>2024-09-23T06:20:07Z</time>
      </trkpt>
      <trkpt lat="42.47566" lon="2.93216">
        <ele>1090</ele>
        <time>2024-09-23T06:20:09Z</time>
      </trkpt>
      <trkpt lat="42.47565" lon="2.93221">
        <ele>1090</ele>
        <time>2024-09-23T06:20:11Z</time>
      </trkpt>
      <trkpt lat="42.47563" lon="2.93225">
        <ele>1091</ele>
        <time>2024-09-23T06:20:13Z</time>
      </trkpt>
      <trkpt lat="42.47562" lon="2.93229">
        <ele>1091</ele>
        <time>2024-09-23T06:20:17Z</time>
      </trkpt>
      <trkpt lat="42.4756" lon="2.93233">
        <ele>1090</ele>
        <time>2024-09-23T06:20:21Z</time>
      </trkpt>
      <trkpt lat="42.47559" lon="2.93237">
        <ele>1090</ele>
        <time>2024-09-23T06:20:23Z</time>
      </trkpt>
      <trkpt lat="42.47557" lon="2.9324">
        <ele>1091</ele>
        <time>2024-09-23T06:20:25Z</time>
      </trkpt>
      <trkpt lat="42.47556" lon="2.93243">
        <ele>1091</ele>
        <time>2024-09-23T06:20:27Z</time>
      </trkpt>
      <trkpt lat="42.47556" lon="2.93247">
        <ele>1090</ele>
        <time>2024-09-23T06:20:29Z</time>
      </trkpt>
      <trkpt lat="42.47555" lon="2.93251">
        <ele>1090</ele>
        <time>2024-09-23T06:20:31Z</time>
      </trkpt>
      <trkpt lat="42.47555" lon="2.93254">
        <ele>1091</ele>
        <time>2024-09-23T06:20:33Z</time>
      </trkpt>
      <trkpt lat="42.47554" lon="2.93258">
        <ele>1091</ele>
        <time>2024-09-23T06:20:35Z</time>
      </trkpt>
      <trkpt lat="42.47553" lon="2.93263">
        <ele>1091</ele>
        <time>2024-09-23T06:20:38Z</time>
      </trkpt>
      <trkpt lat="42.47552" lon="2.93266">
        <ele>1092</ele>
        <time>2024-09-23T06:20:41Z</time>
      </trkpt>
      <trkpt lat="42.47551" lon="2.93271">
        <ele>1092</ele>
        <time>2024-09-23T06:20:43Z</time>
      </trkpt>
      <trkpt lat="42.47549" lon="2.93275">
        <ele>1093</ele>
        <time>2024-09-23T06:20:47Z</time>
      </trkpt>
      <trkpt lat="42.47547" lon="2.93279">
        <ele>1093</ele>
        <time>2024-09-23T06:20:50Z</time>
      </trkpt>
      <trkpt lat="42.47545" lon="2.93283">
        <ele>1093</ele>
        <time>2024-09-23T06:20:52Z</time>
      </trkpt>
      <trkpt lat="42.47543" lon="2.93287">
        <ele>1093</ele>
        <time>2024-09-23T06:20:55Z</time>
      </trkpt>
      <trkpt lat="42.47543" lon="2.93292">
        <ele>1092</ele>
        <time>2024-09-23T06:20:57Z</time>
      </trkpt>
      <trkpt lat="42.47542" lon="2.93296">
        <ele>1093</ele>
        <time>2024-09-23T06:20:59Z</time>
      </trkpt>
      <trkpt lat="42.47541" lon="2.933">
        <ele>1093</ele>
        <time>2024-09-23T06:21:01Z</time>
      </trkpt>
      <trkpt lat="42.4754" lon="2.93302">
        <ele>1094</ele>
        <time>2024-09-23T06:21:05Z</time>
      </trkpt>
      <trkpt lat="42.47538" lon="2.93307">
        <ele>1093</ele>
        <time>2024-09-23T06:21:12Z</time>
      </trkpt>
      <trkpt lat="42.47536" lon="2.93312">
        <ele>1093</ele>
        <time>2024-09-23T06:21:16Z</time>
      </trkpt>
      <trkpt lat="42.47534" lon="2.93317">
        <ele>1093</ele>
        <time>2024-09-23T06:21:19Z</time>
      </trkpt>
      <trkpt lat="42.47533" lon="2.93322">
        <ele>1093</ele>
        <time>2024-09-23T06:21:24Z</time>
      </trkpt>
      <trkpt lat="42.47533" lon="2.93326">
        <ele>1094</ele>
        <time>2024-09-23T06:21:26Z</time>
      </trkpt>
      <trkpt lat="42.47532" lon="2.93332">
        <ele>1092</ele>
        <time>2024-09-23T06:21:29Z</time>
      </trkpt>
      <trkpt lat="42.47532" lon="2.93336">
        <ele>1092</ele>
        <time>2024-09-23T06:21:31Z</time>
      </trkpt>
      <trkpt lat="42.47531" lon="2.93341">
        <ele>1093</ele>
        <time>2024-09-23T06:21:34Z</time>
      </trkpt>
      <trkpt lat="42.4753" lon="2.93345">
        <ele>1093</ele>
        <time>2024-09-23T06:21:38Z</time>
      </trkpt>
      <trkpt lat="42.4753" lon="2.93349">
        <ele>1093</ele>
        <time>2024-09-23T06:21:41Z</time>
      </trkpt>
      <trkpt lat="42.4753" lon="2.93353">
        <ele>1092</ele>
        <time>2024-09-23T06:21:43Z</time>
      </trkpt>
      <trkpt lat="42.47531" lon="2.93358">
        <ele>1092</ele>
        <time>2024-09-23T06:21:46Z</time>
      </trkpt>
      <trkpt lat="42.4753" lon="2.93362">
        <ele>1093</ele>
        <time>2024-09-23T06:21:48Z</time>
      </trkpt>
      <trkpt lat="42.47528" lon="2.93365">
        <ele>1093</ele>
        <time>2024-09-23T06:21:50Z</time>
      </trkpt>
      <trkpt lat="42.47527" lon="2.93369">
        <ele>1093</ele>
        <time>2024-09-23T06:21:53Z</time>
      </trkpt>
      <trkpt lat="42.47525" lon="2.93374">
        <ele>1094</ele>
        <time>2024-09-23T06:21:55Z</time>
      </trkpt>
      <trkpt lat="42.47524" lon="2.93378">
        <ele>1094</ele>
        <time>2024-09-23T06:22:01Z</time>
      </trkpt>
      <trkpt lat="42.47522" lon="2.93383">
        <ele>1095</ele>
        <time>2024-09-23T06:22:04Z</time>
      </trkpt>
      <trkpt lat="42.4752" lon="2.93386">
        <ele>1096</ele>
        <time>2024-09-23T06:22:06Z</time>
      </trkpt>
      <trkpt lat="42.47517" lon="2.9339">
        <ele>1097</ele>
        <time>2024-09-23T06:22:09Z</time>
      </trkpt>
      <trkpt lat="42.47514" lon="2.93392">
        <ele>1095</ele>
        <time>2024-09-23T06:22:13Z</time>
      </trkpt>
      <trkpt lat="42.47511" lon="2.93393">
        <ele>1096</ele>
        <time>2024-09-23T06:22:17Z</time>
      </trkpt>
      <trkpt lat="42.47508" lon="2.93392">
        <ele>1096</ele>
        <time>2024-09-23T06:22:21Z</time>
      </trkpt>
      <trkpt lat="42.47506" lon="2.93389">
        <ele>1098</ele>
        <time>2024-09-23T06:22:26Z</time>
      </trkpt>
      <trkpt lat="42.47503" lon="2.93388">
        <ele>1099</ele>
        <time>2024-09-23T06:22:29Z</time>
      </trkpt>
      <trkpt lat="42.47501" lon="2.93391">
        <ele>1100</ele>
        <time>2024-09-23T06:22:33Z</time>
      </trkpt>
      <trkpt lat="42.47499" lon="2.93394">
        <ele>1100</ele>
        <time>2024-09-23T06:22:36Z</time>
      </trkpt>
      <trkpt lat="42.47498" lon="2.93398">
        <ele>1100</ele>
        <time>2024-09-23T06:22:39Z</time>
      </trkpt>
      <trkpt lat="42.47496" lon="2.93402">
        <ele>1101</ele>
        <time>2024-09-23T06:22:42Z</time>
      </trkpt>
      <trkpt lat="42.47494" lon="2.93405">
        <ele>1100</ele>
        <time>2024-09-23T06:22:45Z</time>
      </trkpt>
      <trkpt lat="42.47493" lon="2.93409">
        <ele>1101</ele>
        <time>2024-09-23T06:22:48Z</time>
      </trkpt>
      <trkpt lat="42.47492" lon="2.93412">
        <ele>1102</ele>
        <time>2024-09-23T06:22:51Z</time>
      </trkpt>
      <trkpt lat="42.47491" lon="2.93416">
        <ele>1103</ele>
        <time>2024-09-23T06:22:54Z</time>
      </trkpt>
      <trkpt lat="42.4749" lon="2.9342">
        <ele>1103</ele>
        <time>2024-09-23T06:22:57Z</time>
      </trkpt>
      <trkpt lat="42.47489" lon="2.93424">
        <ele>1103</ele>
        <time>2024-09-23T06:22:59Z</time>
      </trkpt>
      <trkpt lat="42.47488" lon="2.93428">
        <ele>1104</ele>
        <time>2024-09-23T06:23:02Z</time>
      </trkpt>
      <trkpt lat="42.47487" lon="2.93432">
        <ele>1103</ele>
        <time>2024-09-23T06:23:05Z</time>
      </trkpt>
      <trkpt lat="42.47486" lon="2.93436">
        <ele>1104</ele>
        <time>2024-09-23T06:23:08Z</time>
      </trkpt>
      <trkpt lat="42.47484" lon="2.93439">
        <ele>1104</ele>
        <time>2024-09-23T06:23:11Z</time>
      </trkpt>
      <trkpt lat="42.47483" lon="2.93444">
        <ele>1105</ele>
        <time>2024-09-23T06:23:15Z</time>
      </trkpt>
      <trkpt lat="42.47481" lon="2.93448">
        <ele>1106</ele>
        <time>2024-09-23T06:23:19Z</time>
      </trkpt>
      <trkpt lat="42.4748" lon="2.93453">
        <ele>1107</ele>
        <time>2024-09-23T06:23:26Z</time>
      </trkpt>
      <trkpt lat="42.4748" lon="2.93457">
        <ele>1106</ele>
        <time>2024-09-23T06:23:29Z</time>
      </trkpt>
      <trkpt lat="42.47478" lon="2.9346">
        <ele>1107</ele>
        <time>2024-09-23T06:23:33Z</time>
      </trkpt>
      <trkpt lat="42.47477" lon="2.93465">
        <ele>1107</ele>
        <time>2024-09-23T06:23:38Z</time>
      </trkpt>
      <trkpt lat="42.47477" lon="2.93469">
        <ele>1107</ele>
        <time>2024-09-23T06:23:40Z</time>
      </trkpt>
      <trkpt lat="42.47479" lon="2.93472">
        <ele>1107</ele>
        <time>2024-09-23T06:23:43Z</time>
      </trkpt>
      <trkpt lat="42.47481" lon="2.93474">
        <ele>1108</ele>
        <time>2024-09-23T06:23:46Z</time>
      </trkpt>
      <trkpt lat="42.47483" lon="2.93477">
        <ele>1108</ele>
        <time>2024-09-23T06:23:49Z</time>
      </trkpt>
      <trkpt lat="42.47484" lon="2.9348">
        <ele>1108</ele>
        <time>2024-09-23T06:23:52Z</time>
      </trkpt>
      <trkpt lat="42.47484" lon="2.93485">
        <ele>1108</ele>
        <time>2024-09-23T06:23:55Z</time>
      </trkpt>
      <trkpt lat="42.47485" lon="2.9349">
        <ele>1109</ele>
        <time>2024-09-23T06:23:58Z</time>
      </trkpt>
      <trkpt lat="42.47486" lon="2.93493">
        <ele>1109</ele>
        <time>2024-09-23T06:24:00Z</time>
      </trkpt>
      <trkpt lat="42.47488" lon="2.93497">
        <ele>1108</ele>
        <time>2024-09-23T06:24:03Z</time>
      </trkpt>
      <trkpt lat="42.47489" lon="2.93501">
        <ele>1109</ele>
        <time>2024-09-23T06:24:05Z</time>
      </trkpt>
      <trkpt lat="42.4749" lon="2.93505">
        <ele>1109</ele>
        <time>2024-09-23T06:24:07Z</time>
      </trkpt>
      <trkpt lat="42.47492" lon="2.93508">
        <ele>1109</ele>
        <time>2024-09-23T06:24:09Z</time>
      </trkpt>
      <trkpt lat="42.47493" lon="2.93512">
        <ele>1109</ele>
        <time>2024-09-23T06:24:12Z</time>
      </trkpt>
      <trkpt lat="42.47495" lon="2.93516">
        <ele>1109</ele>
        <time>2024-09-23T06:24:15Z</time>
      </trkpt>
      <trkpt lat="42.47497" lon="2.93521">
        <ele>1109</ele>
        <time>2024-09-23T06:24:18Z</time>
      </trkpt>
      <trkpt lat="42.47498" lon="2.93525">
        <ele>1109</ele>
        <time>2024-09-23T06:24:21Z</time>
      </trkpt>
      <trkpt lat="42.475" lon="2.93529">
        <ele>1109</ele>
        <time>2024-09-23T06:24:24Z</time>
      </trkpt>
      <trkpt lat="42.47502" lon="2.93534">
        <ele>1109</ele>
        <time>2024-09-23T06:24:27Z</time>
      </trkpt>
      <trkpt lat="42.47504" lon="2.93539">
        <ele>1109</ele>
        <time>2024-09-23T06:24:31Z</time>
      </trkpt>
      <trkpt lat="42.47505" lon="2.93543">
        <ele>1109</ele>
        <time>2024-09-23T06:24:34Z</time>
      </trkpt>
      <trkpt lat="42.47507" lon="2.93546">
        <ele>1110</ele>
        <time>2024-09-23T06:24:37Z</time>
      </trkpt>
      <trkpt lat="42.47508" lon="2.9355">
        <ele>1110</ele>
        <time>2024-09-23T06:24:39Z</time>
      </trkpt>
      <trkpt lat="42.47509" lon="2.93554">
        <ele>1110</ele>
        <time>2024-09-23T06:24:42Z</time>
      </trkpt>
      <trkpt lat="42.47509" lon="2.93558">
        <ele>1111</ele>
        <time>2024-09-23T06:24:45Z</time>
      </trkpt>
      <trkpt lat="42.47509" lon="2.93563">
        <ele>1112</ele>
        <time>2024-09-23T06:24:48Z</time>
      </trkpt>
      <trkpt lat="42.4751" lon="2.93568">
        <ele>1112</ele>
        <time>2024-09-23T06:24:51Z</time>
      </trkpt>
      <trkpt lat="42.4751" lon="2.93572">
        <ele>1112</ele>
        <time>2024-09-23T06:24:54Z</time>
      </trkpt>
      <trkpt lat="42.4751" lon="2.93576">
        <ele>1112</ele>
        <time>2024-09-23T06:24:58Z</time>
      </trkpt>
      <trkpt lat="42.47511" lon="2.9358">
        <ele>1110</ele>
        <time>2024-09-23T06:26:42Z</time>
      </trkpt>
      <trkpt lat="42.47514" lon="2.93583">
        <ele>1110</ele>
        <time>2024-09-23T06:26:44Z</time>
      </trkpt>
      <trkpt lat="42.47516" lon="2.93585">
        <ele>1110</ele>
        <time>2024-09-23T06:26:47Z</time>
      </trkpt>
      <trkpt lat="42.47519" lon="2.93587">
        <ele>1110</ele>
        <time>2024-09-23T06:26:50Z</time>
      </trkpt>
      <trkpt lat="42.47522" lon="2.93589">
        <ele>1110</ele>
        <time>2024-09-23T06:26:53Z</time>
      </trkpt>
      <trkpt lat="42.47525" lon="2.93592">
        <ele>1110</ele>
        <time>2024-09-23T06:26:55Z</time>
      </trkpt>
      <trkpt lat="42.47527" lon="2.93595">
        <ele>1111</ele>
        <time>2024-09-23T06:26:58Z</time>
      </trkpt>
      <trkpt lat="42.47529" lon="2.93598">
        <ele>1111</ele>
        <time>2024-09-23T06:27:01Z</time>
      </trkpt>
      <trkpt lat="42.47532" lon="2.93602">
        <ele>1111</ele>
        <time>2024-09-23T06:27:04Z</time>
      </trkpt>
      <trkpt lat="42.47534" lon="2.93605">
        <ele>1111</ele>
        <time>2024-09-23T06:27:07Z</time>
      </trkpt>
      <trkpt lat="42.47536" lon="2.93609">
        <ele>1111</ele>
        <time>2024-09-23T06:27:10Z</time>
      </trkpt>
      <trkpt lat="42.47539" lon="2.93612">
        <ele>1111</ele>
        <time>2024-09-23T06:27:12Z</time>
      </trkpt>
      <trkpt lat="42.47541" lon="2.93615">
        <ele>1112</ele>
        <time>2024-09-23T06:27:14Z</time>
      </trkpt>
      <trkpt lat="42.47543" lon="2.93618">
        <ele>1112</ele>
        <time>2024-09-23T06:27:16Z</time>
      </trkpt>
      <trkpt lat="42.47545" lon="2.9362">
        <ele>1112</ele>
        <time>2024-09-23T06:27:19Z</time>
      </trkpt>
      <trkpt lat="42.47548" lon="2.93621">
        <ele>1112</ele>
        <time>2024-09-23T06:27:22Z</time>
      </trkpt>
      <trkpt lat="42.47551" lon="2.93623">
        <ele>1113</ele>
        <time>2024-09-23T06:27:25Z</time>
      </trkpt>
      <trkpt lat="42.47554" lon="2.93626">
        <ele>1112</ele>
        <time>2024-09-23T06:27:29Z</time>
      </trkpt>
      <trkpt lat="42.47557" lon="2.93628">
        <ele>1112</ele>
        <time>2024-09-23T06:27:31Z</time>
      </trkpt>
      <trkpt lat="42.47559" lon="2.93631">
        <ele>1112</ele>
        <time>2024-09-23T06:27:33Z</time>
      </trkpt>
      <trkpt lat="42.47561" lon="2.93634">
        <ele>1112</ele>
        <time>2024-09-23T06:27:36Z</time>
      </trkpt>
      <trkpt lat="42.47563" lon="2.93638">
        <ele>1112</ele>
        <time>2024-09-23T06:27:39Z</time>
      </trkpt>
      <trkpt lat="42.47565" lon="2.93642">
        <ele>1112</ele>
        <time>2024-09-23T06:27:42Z</time>
      </trkpt>
      <trkpt lat="42.47567" lon="2.93647">
        <ele>1113</ele>
        <time>2024-09-23T06:27:45Z</time>
      </trkpt>
      <trkpt lat="42.47569" lon="2.93651">
        <ele>1112</ele>
        <time>2024-09-23T06:27:48Z</time>
      </trkpt>
      <trkpt lat="42.4757" lon="2.93656">
        <ele>1113</ele>
        <time>2024-09-23T06:27:51Z</time>
      </trkpt>
      <trkpt lat="42.47571" lon="2.93661">
        <ele>1112</ele>
        <time>2024-09-23T06:27:54Z</time>
      </trkpt>
      <trkpt lat="42.47572" lon="2.93666">
        <ele>1113</ele>
        <time>2024-09-23T06:27:57Z</time>
      </trkpt>
      <trkpt lat="42.47573" lon="2.9367">
        <ele>1113</ele>
        <time>2024-09-23T06:28:00Z</time>
      </trkpt>
      <trkpt lat="42.47574" lon="2.93675">
        <ele>1114</ele>
        <time>2024-09-23T06:28:03Z</time>
      </trkpt>
      <trkpt lat="42.47576" lon="2.93679">
        <ele>1114</ele>
        <time>2024-09-23T06:28:06Z</time>
      </trkpt>
      <trkpt lat="42.47577" lon="2.93682">
        <ele>1114</ele>
        <time>2024-09-23T06:28:10Z</time>
      </trkpt>
      <trkpt lat="42.47579" lon="2.93685">
        <ele>1114</ele>
        <time>2024-09-23T06:28:12Z</time>
      </trkpt>
      <trkpt lat="42.47581" lon="2.93688">
        <ele>1115</ele>
        <time>2024-09-23T06:28:15Z</time>
      </trkpt>
      <trkpt lat="42.47584" lon="2.93692">
        <ele>1115</ele>
        <time>2024-09-23T06:28:18Z</time>
      </trkpt>
      <trkpt lat="42.47586" lon="2.93695">
        <ele>1116</ele>
        <time>2024-09-23T06:28:33Z</time>
      </trkpt>
      <trkpt lat="42.47588" lon="2.93698">
        <ele>1116</ele>
        <time>2024-09-23T06:28:36Z</time>
      </trkpt>
      <trkpt lat="42.4759" lon="2.93702">
        <ele>1116</ele>
        <time>2024-09-23T06:28:39Z</time>
      </trkpt>
      <trkpt lat="42.47593" lon="2.93704">
        <ele>1117</ele>
        <time>2024-09-23T06:28:43Z</time>
      </trkpt>
      <trkpt lat="42.47595" lon="2.93707">
        <ele>1117</ele>
        <time>2024-09-23T06:28:46Z</time>
      </trkpt>
      <trkpt lat="42.47597" lon="2.93709">
        <ele>1117</ele>
        <time>2024-09-23T06:28:49Z</time>
      </trkpt>
      <trkpt lat="42.476" lon="2.93711">
        <ele>1118</ele>
        <time>2024-09-23T06:28:52Z</time>
      </trkpt>
      <trkpt lat="42.47603" lon="2.93713">
        <ele>1119</ele>
        <time>2024-09-23T06:28:56Z</time>
      </trkpt>
      <trkpt lat="42.47605" lon="2.93715">
        <ele>1120</ele>
        <time>2024-09-23T06:28:59Z</time>
      </trkpt>
      <trkpt lat="42.47608" lon="2.93717">
        <ele>1120</ele>
        <time>2024-09-23T06:29:02Z</time>
      </trkpt>
      <trkpt lat="42.47611" lon="2.93719">
        <ele>1121</ele>
        <time>2024-09-23T06:29:06Z</time>
      </trkpt>
      <trkpt lat="42.47614" lon="2.9372">
        <ele>1121</ele>
        <time>2024-09-23T06:29:09Z</time>
      </trkpt>
      <trkpt lat="42.47617" lon="2.93721">
        <ele>1122</ele>
        <time>2024-09-23T06:29:13Z</time>
      </trkpt>
      <trkpt lat="42.4762" lon="2.93723">
        <ele>1122</ele>
        <time>2024-09-23T06:29:16Z</time>
      </trkpt>
      <trkpt lat="42.47623" lon="2.93723">
        <ele>1122</ele>
        <time>2024-09-23T06:29:18Z</time>
      </trkpt>
      <trkpt lat="42.47626" lon="2.93724">
        <ele>1123</ele>
        <time>2024-09-23T06:29:22Z</time>
      </trkpt>
      <trkpt lat="42.47629" lon="2.93725">
        <ele>1124</ele>
        <time>2024-09-23T06:29:26Z</time>
      </trkpt>
      <trkpt lat="42.47632" lon="2.93726">
        <ele>1124</ele>
        <time>2024-09-23T06:29:29Z</time>
      </trkpt>
      <trkpt lat="42.47635" lon="2.93727">
        <ele>1124</ele>
        <time>2024-09-23T06:29:32Z</time>
      </trkpt>
      <trkpt lat="42.47638" lon="2.93729">
        <ele>1123</ele>
        <time>2024-09-23T06:29:35Z</time>
      </trkpt>
      <trkpt lat="42.47641" lon="2.93731">
        <ele>1124</ele>
        <time>2024-09-23T06:29:39Z</time>
      </trkpt>
      <trkpt lat="42.47643" lon="2.93733">
        <ele>1125</ele>
        <time>2024-09-23T06:29:42Z</time>
      </trkpt>
      <trkpt lat="42.47645" lon="2.93736">
        <ele>1125</ele>
        <time>2024-09-23T06:29:45Z</time>
      </trkpt>
      <trkpt lat="42.47647" lon="2.93738">
        <ele>1126</ele>
        <time>2024-09-23T06:29:48Z</time>
      </trkpt>
      <trkpt lat="42.4765" lon="2.9374">
        <ele>1126</ele>
        <time>2024-09-23T06:29:51Z</time>
      </trkpt>
      <trkpt lat="42.47653" lon="2.93742">
        <ele>1128</ele>
        <time>2024-09-23T06:29:55Z</time>
      </trkpt>
      <trkpt lat="42.47656" lon="2.93744">
        <ele>1128</ele>
        <time>2024-09-23T06:29:59Z</time>
      </trkpt>
      <trkpt lat="42.47659" lon="2.93746">
        <ele>1128</ele>
        <time>2024-09-23T06:30:02Z</time>
      </trkpt>
      <trkpt lat="42.47662" lon="2.93748">
        <ele>1129</ele>
        <time>2024-09-23T06:30:06Z</time>
      </trkpt>
      <trkpt lat="42.47665" lon="2.9375">
        <ele>1130</ele>
        <time>2024-09-23T06:30:09Z</time>
      </trkpt>
      <trkpt lat="42.47667" lon="2.93753">
        <ele>1131</ele>
        <time>2024-09-23T06:30:13Z</time>
      </trkpt>
      <trkpt lat="42.47669" lon="2.93755">
        <ele>1131</ele>
        <time>2024-09-23T06:30:16Z</time>
      </trkpt>
      <trkpt lat="42.47672" lon="2.93758">
        <ele>1131</ele>
        <time>2024-09-23T06:30:20Z</time>
      </trkpt>
      <trkpt lat="42.47675" lon="2.93761">
        <ele>1131</ele>
        <time>2024-09-23T06:30:24Z</time>
      </trkpt>
      <trkpt lat="42.47678" lon="2.93762">
        <ele>1133</ele>
        <time>2024-09-23T06:30:28Z</time>
      </trkpt>
      <trkpt lat="42.47681" lon="2.93765">
        <ele>1132</ele>
        <time>2024-09-23T06:30:31Z</time>
      </trkpt>
      <trkpt lat="42.47683" lon="2.93767">
        <ele>1133</ele>
        <time>2024-09-23T06:30:34Z</time>
      </trkpt>
      <trkpt lat="42.47686" lon="2.9377">
        <ele>1133</ele>
        <time>2024-09-23T06:30:38Z</time>
      </trkpt>
      <trkpt lat="42.47688" lon="2.93773">
        <ele>1133</ele>
        <time>2024-09-23T06:30:41Z</time>
      </trkpt>
      <trkpt lat="42.4769" lon="2.93775">
        <ele>1134</ele>
        <time>2024-09-23T06:30:44Z</time>
      </trkpt>
      <trkpt lat="42.47693" lon="2.93777">
        <ele>1133</ele>
        <time>2024-09-23T06:30:49Z</time>
      </trkpt>
      <trkpt lat="42.47695" lon="2.9378">
        <ele>1135</ele>
        <time>2024-09-23T06:30:53Z</time>
      </trkpt>
      <trkpt lat="42.47698" lon="2.93782">
        <ele>1135</ele>
        <time>2024-09-23T06:30:57Z</time>
      </trkpt>
      <trkpt lat="42.47701" lon="2.93785">
        <ele>1135</ele>
        <time>2024-09-23T06:31:01Z</time>
      </trkpt>
      <trkpt lat="42.47704" lon="2.93787">
        <ele>1136</ele>
        <time>2024-09-23T06:31:05Z</time>
      </trkpt>
      <trkpt lat="42.47707" lon="2.9379">
        <ele>1137</ele>
        <time>2024-09-23T06:31:09Z</time>
      </trkpt>
      <trkpt lat="42.47709" lon="2.93792">
        <ele>1138</ele>
        <time>2024-09-23T06:31:12Z</time>
      </trkpt>
      <trkpt lat="42.47712" lon="2.93794">
        <ele>1138</ele>
        <time>2024-09-23T06:31:16Z</time>
      </trkpt>
      <trkpt lat="42.47715" lon="2.93795">
        <ele>1138</ele>
        <time>2024-09-23T06:31:20Z</time>
      </trkpt>
      <trkpt lat="42.47718" lon="2.93797">
        <ele>1139</ele>
        <time>2024-09-23T06:31:24Z</time>
      </trkpt>
      <trkpt lat="42.4772" lon="2.93799">
        <ele>1140</ele>
        <time>2024-09-23T06:31:27Z</time>
      </trkpt>
      <trkpt lat="42.47723" lon="2.93801">
        <ele>1140</ele>
        <time>2024-09-23T06:31:31Z</time>
      </trkpt>
      <trkpt lat="42.47726" lon="2.93802">
        <ele>1141</ele>
        <time>2024-09-23T06:31:36Z</time>
      </trkpt>
      <trkpt lat="42.47729" lon="2.93804">
        <ele>1142</ele>
        <time>2024-09-23T06:31:40Z</time>
      </trkpt>
      <trkpt lat="42.47731" lon="2.93806">
        <ele>1143</ele>
        <time>2024-09-23T06:31:44Z</time>
      </trkpt>
      <trkpt lat="42.47733" lon="2.9381">
        <ele>1144</ele>
        <time>2024-09-23T06:31:48Z</time>
      </trkpt>
      <trkpt lat="42.47735" lon="2.93813">
        <ele>1145</ele>
        <time>2024-09-23T06:31:52Z</time>
      </trkpt>
      <trkpt lat="42.47736" lon="2.93817">
        <ele>1145</ele>
        <time>2024-09-23T06:31:55Z</time>
      </trkpt>
      <trkpt lat="42.47738" lon="2.9382">
        <ele>1146</ele>
        <time>2024-09-23T06:31:59Z</time>
      </trkpt>
      <trkpt lat="42.47739" lon="2.93824">
        <ele>1146</ele>
        <time>2024-09-23T06:32:14Z</time>
      </trkpt>
      <trkpt lat="42.47741" lon="2.93824">
        <ele>1147</ele>
        <time>2024-09-23T06:32:20Z</time>
      </trkpt>
      <trkpt lat="42.47743" lon="2.93825">
        <ele>1145</ele>
        <time>2024-09-23T06:32:29Z</time>
      </trkpt>
      <trkpt lat="42.47746" lon="2.93826">
        <ele>1147</ele>
        <time>2024-09-23T06:32:32Z</time>
      </trkpt>
      <trkpt lat="42.47749" lon="2.93828">
        <ele>1147</ele>
        <time>2024-09-23T06:32:35Z</time>
      </trkpt>
      <trkpt lat="42.47751" lon="2.93831">
        <ele>1148</ele>
        <time>2024-09-23T06:32:39Z</time>
      </trkpt>
      <trkpt lat="42.47754" lon="2.93833">
        <ele>1149</ele>
        <time>2024-09-23T06:32:42Z</time>
      </trkpt>
      <trkpt lat="42.47757" lon="2.93835">
        <ele>1150</ele>
        <time>2024-09-23T06:32:45Z</time>
      </trkpt>
      <trkpt lat="42.47759" lon="2.93838">
        <ele>1151</ele>
        <time>2024-09-23T06:32:48Z</time>
      </trkpt>
      <trkpt lat="42.47761" lon="2.93841">
        <ele>1151</ele>
        <time>2024-09-23T06:32:51Z</time>
      </trkpt>
      <trkpt lat="42.47763" lon="2.93845">
        <ele>1150</ele>
        <time>2024-09-23T06:32:55Z</time>
      </trkpt>
      <trkpt lat="42.47764" lon="2.93848">
        <ele>1151</ele>
        <time>2024-09-23T06:32:58Z</time>
      </trkpt>
      <trkpt lat="42.47766" lon="2.93851">
        <ele>1152</ele>
        <time>2024-09-23T06:33:01Z</time>
      </trkpt>
      <trkpt lat="42.47768" lon="2.93855">
        <ele>1152</ele>
        <time>2024-09-23T06:33:04Z</time>
      </trkpt>
      <trkpt lat="42.4777" lon="2.93858">
        <ele>1153</ele>
        <time>2024-09-23T06:33:07Z</time>
      </trkpt>
      <trkpt lat="42.47772" lon="2.93861">
        <ele>1153</ele>
        <time>2024-09-23T06:33:11Z</time>
      </trkpt>
      <trkpt lat="42.47774" lon="2.93864">
        <ele>1154</ele>
        <time>2024-09-23T06:33:14Z</time>
      </trkpt>
      <trkpt lat="42.47775" lon="2.93868">
        <ele>1154</ele>
        <time>2024-09-23T06:33:17Z</time>
      </trkpt>
      <trkpt lat="42.47777" lon="2.93871">
        <ele>1155</ele>
        <time>2024-09-23T06:33:20Z</time>
      </trkpt>
      <trkpt lat="42.47778" lon="2.93875">
        <ele>1155</ele>
        <time>2024-09-23T06:33:23Z</time>
      </trkpt>
      <trkpt lat="42.47779" lon="2.93878">
        <ele>1155</ele>
        <time>2024-09-23T06:33:26Z</time>
      </trkpt>
      <trkpt lat="42.4778" lon="2.93882">
        <ele>1156</ele>
        <time>2024-09-23T06:33:29Z</time>
      </trkpt>
      <trkpt lat="42.47782" lon="2.93885">
        <ele>1156</ele>
        <time>2024-09-23T06:33:32Z</time>
      </trkpt>
      <trkpt lat="42.47783" lon="2.93889">
        <ele>1157</ele>
        <time>2024-09-23T06:33:36Z</time>
      </trkpt>
      <trkpt lat="42.47784" lon="2.93893">
        <ele>1157</ele>
        <time>2024-09-23T06:33:46Z</time>
      </trkpt>
      <trkpt lat="42.47786" lon="2.93896">
        <ele>1157</ele>
        <time>2024-09-23T06:34:03Z</time>
      </trkpt>
      <trkpt lat="42.47787" lon="2.939">
        <ele>1159</ele>
        <time>2024-09-23T06:34:07Z</time>
      </trkpt>
      <trkpt lat="42.47788" lon="2.93904">
        <ele>1160</ele>
        <time>2024-09-23T06:34:11Z</time>
      </trkpt>
      <trkpt lat="42.47789" lon="2.93908">
        <ele>1160</ele>
        <time>2024-09-23T06:34:14Z</time>
      </trkpt>
      <trkpt lat="42.4779" lon="2.93912">
        <ele>1160</ele>
        <time>2024-09-23T06:34:17Z</time>
      </trkpt>
      <trkpt lat="42.47792" lon="2.93916">
        <ele>1162</ele>
        <time>2024-09-23T06:34:21Z</time>
      </trkpt>
      <trkpt lat="42.47792" lon="2.9392">
        <ele>1162</ele>
        <time>2024-09-23T06:34:24Z</time>
      </trkpt>
      <trkpt lat="42.47793" lon="2.93924">
        <ele>1162</ele>
        <time>2024-09-23T06:34:27Z</time>
      </trkpt>
      <trkpt lat="42.47794" lon="2.93928">
        <ele>1163</ele>
        <time>2024-09-23T06:34:30Z</time>
      </trkpt>
      <trkpt lat="42.47795" lon="2.93932">
        <ele>1163</ele>
        <time>2024-09-23T06:34:34Z</time>
      </trkpt>
      <trkpt lat="42.47795" lon="2.93936">
        <ele>1164</ele>
        <time>2024-09-23T06:34:37Z</time>
      </trkpt>
      <trkpt lat="42.47797" lon="2.93941">
        <ele>1165</ele>
        <time>2024-09-23T06:34:41Z</time>
      </trkpt>
      <trkpt lat="42.47798" lon="2.93944">
        <ele>1165</ele>
        <time>2024-09-23T06:34:45Z</time>
      </trkpt>
      <trkpt lat="42.47801" lon="2.93947">
        <ele>1165</ele>
        <time>2024-09-23T06:34:49Z</time>
      </trkpt>
      <trkpt lat="42.47802" lon="2.9395">
        <ele>1165</ele>
        <time>2024-09-23T06:34:52Z</time>
      </trkpt>
      <trkpt lat="42.47804" lon="2.93954">
        <ele>1165</ele>
        <time>2024-09-23T06:34:55Z</time>
      </trkpt>
      <trkpt lat="42.47806" lon="2.93957">
        <ele>1166</ele>
        <time>2024-09-23T06:34:59Z</time>
      </trkpt>
      <trkpt lat="42.47808" lon="2.93961">
        <ele>1166</ele>
        <time>2024-09-23T06:35:03Z</time>
      </trkpt>
      <trkpt lat="42.4781" lon="2.93964">
        <ele>1167</ele>
        <time>2024-09-23T06:35:06Z</time>
      </trkpt>
      <trkpt lat="42.47811" lon="2.93968">
        <ele>1167</ele>
        <time>2024-09-23T06:35:09Z</time>
      </trkpt>
      <trkpt lat="42.47814" lon="2.93971">
        <ele>1167</ele>
        <time>2024-09-23T06:35:27Z</time>
      </trkpt>
      <trkpt lat="42.47816" lon="2.93975">
        <ele>1168</ele>
        <time>2024-09-23T06:35:30Z</time>
      </trkpt>
      <trkpt lat="42.47817" lon="2.93979">
        <ele>1166</ele>
        <time>2024-09-23T06:35:33Z</time>
      </trkpt>
      <trkpt lat="42.47819" lon="2.93982">
        <ele>1167</ele>
        <time>2024-09-23T06:35:35Z</time>
      </trkpt>
      <trkpt lat="42.47821" lon="2.93986">
        <ele>1167</ele>
        <time>2024-09-23T06:35:38Z</time>
      </trkpt>
      <trkpt lat="42.47822" lon="2.93989">
        <ele>1166</ele>
        <time>2024-09-23T06:35:41Z</time>
      </trkpt>
      <trkpt lat="42.47824" lon="2.93993">
        <ele>1166</ele>
        <time>2024-09-23T06:35:44Z</time>
      </trkpt>
      <trkpt lat="42.47825" lon="2.93997">
        <ele>1167</ele>
        <time>2024-09-23T06:35:47Z</time>
      </trkpt>
      <trkpt lat="42.47826" lon="2.94001">
        <ele>1167</ele>
        <time>2024-09-23T06:35:50Z</time>
      </trkpt>
      <trkpt lat="42.47828" lon="2.94005">
        <ele>1167</ele>
        <time>2024-09-23T06:35:53Z</time>
      </trkpt>
      <trkpt lat="42.47829" lon="2.94009">
        <ele>1167</ele>
        <time>2024-09-23T06:35:57Z</time>
      </trkpt>
      <trkpt lat="42.47831" lon="2.94013">
        <ele>1167</ele>
        <time>2024-09-23T06:36:00Z</time>
      </trkpt>
      <trkpt lat="42.47832" lon="2.94017">
        <ele>1168</ele>
        <time>2024-09-23T06:36:04Z</time>
      </trkpt>
      <trkpt lat="42.47833" lon="2.94022">
        <ele>1169</ele>
        <time>2024-09-23T06:36:07Z</time>
      </trkpt>
      <trkpt lat="42.47834" lon="2.94025">
        <ele>1169</ele>
        <time>2024-09-23T06:36:10Z</time>
      </trkpt>
      <trkpt lat="42.47835" lon="2.94029">
        <ele>1169</ele>
        <time>2024-09-23T06:36:13Z</time>
      </trkpt>
      <trkpt lat="42.47836" lon="2.94033">
        <ele>1169</ele>
        <time>2024-09-23T06:36:16Z</time>
      </trkpt>
      <trkpt lat="42.47836" lon="2.94037">
        <ele>1170</ele>
        <time>2024-09-23T06:36:19Z</time>
      </trkpt>
      <trkpt lat="42.47837" lon="2.94041">
        <ele>1171</ele>
        <time>2024-09-23T06:36:22Z</time>
      </trkpt>
      <trkpt lat="42.47838" lon="2.94045">
        <ele>1171</ele>
        <time>2024-09-23T06:36:25Z</time>
      </trkpt>
      <trkpt lat="42.4784" lon="2.94049">
        <ele>1172</ele>
        <time>2024-09-23T06:36:28Z</time>
      </trkpt>
      <trkpt lat="42.47841" lon="2.94052">
        <ele>1173</ele>
        <time>2024-09-23T06:36:31Z</time>
      </trkpt>
      <trkpt lat="42.47842" lon="2.94056">
        <ele>1174</ele>
        <time>2024-09-23T06:36:34Z</time>
      </trkpt>
      <trkpt lat="42.47844" lon="2.94059">
        <ele>1174</ele>
        <time>2024-09-23T06:36:37Z</time>
      </trkpt>
      <trkpt lat="42.47846" lon="2.94063">
        <ele>1175</ele>
        <time>2024-09-23T06:36:41Z</time>
      </trkpt>
      <trkpt lat="42.47848" lon="2.94067">
        <ele>1176</ele>
        <time>2024-09-23T06:36:45Z</time>
      </trkpt>
      <trkpt lat="42.47849" lon="2.9407">
        <ele>1177</ele>
        <time>2024-09-23T06:36:48Z</time>
      </trkpt>
      <trkpt lat="42.47851" lon="2.94074">
        <ele>1177</ele>
        <time>2024-09-23T06:36:52Z</time>
      </trkpt>
      <trkpt lat="42.47854" lon="2.94077">
        <ele>1177</ele>
        <time>2024-09-23T06:36:55Z</time>
      </trkpt>
      <trkpt lat="42.47856" lon="2.94079">
        <ele>1178</ele>
        <time>2024-09-23T06:36:59Z</time>
      </trkpt>
      <trkpt lat="42.47858" lon="2.94082">
        <ele>1178</ele>
        <time>2024-09-23T06:37:02Z</time>
      </trkpt>
      <trkpt lat="42.47861" lon="2.94084">
        <ele>1180</ele>
        <time>2024-09-23T06:37:07Z</time>
      </trkpt>
      <trkpt lat="42.47863" lon="2.94087">
        <ele>1180</ele>
        <time>2024-09-23T06:37:11Z</time>
      </trkpt>
      <trkpt lat="42.47865" lon="2.9409">
        <ele>1181</ele>
        <time>2024-09-23T06:37:15Z</time>
      </trkpt>
      <trkpt lat="42.47867" lon="2.94093">
        <ele>1181</ele>
        <time>2024-09-23T06:37:19Z</time>
      </trkpt>
      <trkpt lat="42.47869" lon="2.94095">
        <ele>1181</ele>
        <time>2024-09-23T06:37:23Z</time>
      </trkpt>
      <trkpt lat="42.4787" lon="2.94099">
        <ele>1181</ele>
        <time>2024-09-23T06:37:27Z</time>
      </trkpt>
      <trkpt lat="42.47871" lon="2.94102">
        <ele>1182</ele>
        <time>2024-09-23T06:37:31Z</time>
      </trkpt>
      <trkpt lat="42.47871" lon="2.94106">
        <ele>1183</ele>
        <time>2024-09-23T06:37:35Z</time>
      </trkpt>
      <trkpt lat="42.47871" lon="2.94111">
        <ele>1183</ele>
        <time>2024-09-23T06:37:38Z</time>
      </trkpt>
      <trkpt lat="42.47872" lon="2.94115">
        <ele>1184</ele>
        <time>2024-09-23T06:37:42Z</time>
      </trkpt>
      <trkpt lat="42.47873" lon="2.94118">
        <ele>1184</ele>
        <time>2024-09-23T06:37:45Z</time>
      </trkpt>
      <trkpt lat="42.47874" lon="2.94122">
        <ele>1185</ele>
        <time>2024-09-23T06:37:49Z</time>
      </trkpt>
      <trkpt lat="42.47875" lon="2.94126">
        <ele>1186</ele>
        <time>2024-09-23T06:37:52Z</time>
      </trkpt>
      <trkpt lat="42.47877" lon="2.94127">
        <ele>1188</ele>
        <time>2024-09-23T06:37:57Z</time>
      </trkpt>
      <trkpt lat="42.4788" lon="2.94129">
        <ele>1189</ele>
        <time>2024-09-23T06:38:04Z</time>
      </trkpt>
      <trkpt lat="42.47882" lon="2.94132">
        <ele>1190</ele>
        <time>2024-09-23T06:38:08Z</time>
      </trkpt>
      <trkpt lat="42.47884" lon="2.94136">
        <ele>1191</ele>
        <time>2024-09-23T06:38:11Z</time>
      </trkpt>
      <trkpt lat="42.47885" lon="2.94139">
        <ele>1191</ele>
        <time>2024-09-23T06:38:14Z</time>
      </trkpt>
      <trkpt lat="42.47887" lon="2.94143">
        <ele>1192</ele>
        <time>2024-09-23T06:38:17Z</time>
      </trkpt>
      <trkpt lat="42.47888" lon="2.94146">
        <ele>1192</ele>
        <time>2024-09-23T06:38:20Z</time>
      </trkpt>
      <trkpt lat="42.4789" lon="2.94149">
        <ele>1193</ele>
        <time>2024-09-23T06:38:23Z</time>
      </trkpt>
      <trkpt lat="42.47892" lon="2.94152">
        <ele>1193</ele>
        <time>2024-09-23T06:38:26Z</time>
      </trkpt>
      <trkpt lat="42.47894" lon="2.94155">
        <ele>1194</ele>
        <time>2024-09-23T06:38:29Z</time>
      </trkpt>
      <trkpt lat="42.47896" lon="2.94155">
        <ele>1192</ele>
        <time>2024-09-23T06:39:08Z</time>
      </trkpt>
      <trkpt lat="42.47897" lon="2.94157">
        <ele>1192</ele>
        <time>2024-09-23T06:39:12Z</time>
      </trkpt>
      <trkpt lat="42.47898" lon="2.94161">
        <ele>1192</ele>
        <time>2024-09-23T06:39:16Z</time>
      </trkpt>
      <trkpt lat="42.47899" lon="2.94165">
        <ele>1192</ele>
        <time>2024-09-23T06:39:21Z</time>
      </trkpt>
      <trkpt lat="42.47901" lon="2.94169">
        <ele>1192</ele>
        <time>2024-09-23T06:39:24Z</time>
      </trkpt>
      <trkpt lat="42.47903" lon="2.94172">
        <ele>1192</ele>
        <time>2024-09-23T06:39:29Z</time>
      </trkpt>
      <trkpt lat="42.47905" lon="2.94176">
        <ele>1193</ele>
        <time>2024-09-23T06:39:32Z</time>
      </trkpt>
      <trkpt lat="42.47906" lon="2.9418">
        <ele>1193</ele>
        <time>2024-09-23T06:39:34Z</time>
      </trkpt>
      <trkpt lat="42.47908" lon="2.94183">
        <ele>1193</ele>
        <time>2024-09-23T06:39:37Z</time>
      </trkpt>
      <trkpt lat="42.47909" lon="2.94187">
        <ele>1194</ele>
        <time>2024-09-23T06:39:40Z</time>
      </trkpt>
      <trkpt lat="42.4791" lon="2.94192">
        <ele>1194</ele>
        <time>2024-09-23T06:39:43Z</time>
      </trkpt>
      <trkpt lat="42.47912" lon="2.94196">
        <ele>1194</ele>
        <time>2024-09-23T06:39:45Z</time>
      </trkpt>
      <trkpt lat="42.47913" lon="2.94199">
        <ele>1194</ele>
        <time>2024-09-23T06:39:48Z</time>
      </trkpt>
      <trkpt lat="42.47915" lon="2.94203">
        <ele>1194</ele>
        <time>2024-09-23T06:39:51Z</time>
      </trkpt>
      <trkpt lat="42.47917" lon="2.94207">
        <ele>1195</ele>
        <time>2024-09-23T06:39:55Z</time>
      </trkpt>
      <trkpt lat="42.47919" lon="2.9421">
        <ele>1196</ele>
        <time>2024-09-23T06:39:58Z</time>
      </trkpt>
      <trkpt lat="42.4792" lon="2.94214">
        <ele>1195</ele>
        <time>2024-09-23T06:40:01Z</time>
      </trkpt>
      <trkpt lat="42.47922" lon="2.94218">
        <ele>1196</ele>
        <time>2024-09-23T06:40:04Z</time>
      </trkpt>
      <trkpt lat="42.47924" lon="2.94222">
        <ele>1196</ele>
        <time>2024-09-23T06:40:07Z</time>
      </trkpt>
      <trkpt lat="42.47926" lon="2.94226">
        <ele>1196</ele>
        <time>2024-09-23T06:40:10Z</time>
      </trkpt>
      <trkpt lat="42.47927" lon="2.94229">
        <ele>1196</ele>
        <time>2024-09-23T06:40:13Z</time>
      </trkpt>
      <trkpt lat="42.47928" lon="2.94233">
        <ele>1197</ele>
        <time>2024-09-23T06:40:17Z</time>
      </trkpt>
      <trkpt lat="42.47929" lon="2.94237">
        <ele>1199</ele>
        <time>2024-09-23T06:40:20Z</time>
      </trkpt>
      <trkpt lat="42.4793" lon="2.94241">
        <ele>1199</ele>
        <time>2024-09-23T06:40:23Z</time>
      </trkpt>
      <trkpt lat="42.47929" lon="2.94245">
        <ele>1200</ele>
        <time>2024-09-23T06:40:26Z</time>
      </trkpt>
      <trkpt lat="42.47929" lon="2.94249">
        <ele>1201</ele>
        <time>2024-09-23T06:40:29Z</time>
      </trkpt>
      <trkpt lat="42.4793" lon="2.94253">
        <ele>1201</ele>
        <time>2024-09-23T06:40:33Z</time>
      </trkpt>
      <trkpt lat="42.4793" lon="2.94258">
        <ele>1202</ele>
        <time>2024-09-23T06:40:36Z</time>
      </trkpt>
      <trkpt lat="42.47931" lon="2.94262">
        <ele>1202</ele>
        <time>2024-09-23T06:40:40Z</time>
      </trkpt>
      <trkpt lat="42.47932" lon="2.94266">
        <ele>1203</ele>
        <time>2024-09-23T06:40:43Z</time>
      </trkpt>
      <trkpt lat="42.47933" lon="2.9427">
        <ele>1204</ele>
        <time>2024-09-23T06:40:46Z</time>
      </trkpt>
      <trkpt lat="42.47934" lon="2.94273">
        <ele>1204</ele>
        <time>2024-09-23T06:40:49Z</time>
      </trkpt>
      <trkpt lat="42.47936" lon="2.94276">
        <ele>1204</ele>
        <time>2024-09-23T06:40:52Z</time>
      </trkpt>
      <trkpt lat="42.47938" lon="2.94279">
        <ele>1204</ele>
        <time>2024-09-23T06:40:56Z</time>
      </trkpt>
      <trkpt lat="42.47939" lon="2.94283">
        <ele>1204</ele>
        <time>2024-09-23T06:40:59Z</time>
      </trkpt>
      <trkpt lat="42.47941" lon="2.94286">
        <ele>1205</ele>
        <time>2024-09-23T06:41:11Z</time>
      </trkpt>
      <trkpt lat="42.47942" lon="2.9429">
        <ele>1206</ele>
        <time>2024-09-23T06:41:14Z</time>
      </trkpt>
      <trkpt lat="42.47944" lon="2.94293">
        <ele>1206</ele>
        <time>2024-09-23T06:41:18Z</time>
      </trkpt>
      <trkpt lat="42.47945" lon="2.94297">
        <ele>1206</ele>
        <time>2024-09-23T06:41:21Z</time>
      </trkpt>
      <trkpt lat="42.47946" lon="2.94302">
        <ele>1207</ele>
        <time>2024-09-23T06:41:37Z</time>
      </trkpt>
      <trkpt lat="42.47946" lon="2.94306">
        <ele>1208</ele>
        <time>2024-09-23T06:41:40Z</time>
      </trkpt>
      <trkpt lat="42.47947" lon="2.9431">
        <ele>1208</ele>
        <time>2024-09-23T06:41:43Z</time>
      </trkpt>
      <trkpt lat="42.47949" lon="2.94314">
        <ele>1208</ele>
        <time>2024-09-23T06:41:46Z</time>
      </trkpt>
      <trkpt lat="42.4795" lon="2.94318">
        <ele>1208</ele>
        <time>2024-09-23T06:41:49Z</time>
      </trkpt>
      <trkpt lat="42.47951" lon="2.94322">
        <ele>1209</ele>
        <time>2024-09-23T06:41:51Z</time>
      </trkpt>
      <trkpt lat="42.47953" lon="2.94326">
        <ele>1209</ele>
        <time>2024-09-23T06:41:54Z</time>
      </trkpt>
      <trkpt lat="42.47954" lon="2.9433">
        <ele>1209</ele>
        <time>2024-09-23T06:41:57Z</time>
      </trkpt>
      <trkpt lat="42.47956" lon="2.94334">
        <ele>1209</ele>
        <time>2024-09-23T06:42:00Z</time>
      </trkpt>
      <trkpt lat="42.47958" lon="2.94338">
        <ele>1210</ele>
        <time>2024-09-23T06:42:03Z</time>
      </trkpt>
      <trkpt lat="42.47959" lon="2.94342">
        <ele>1209</ele>
        <time>2024-09-23T06:42:06Z</time>
      </trkpt>
      <trkpt lat="42.4796" lon="2.94345">
        <ele>1210</ele>
        <time>2024-09-23T06:42:09Z</time>
      </trkpt>
      <trkpt lat="42.47961" lon="2.9435">
        <ele>1210</ele>
        <time>2024-09-23T06:42:12Z</time>
      </trkpt>
      <trkpt lat="42.47962" lon="2.94354">
        <ele>1210</ele>
        <time>2024-09-23T06:42:15Z</time>
      </trkpt>
      <trkpt lat="42.47963" lon="2.94358">
        <ele>1210</ele>
        <time>2024-09-23T06:42:18Z</time>
      </trkpt>
      <trkpt lat="42.47964" lon="2.94363">
        <ele>1210</ele>
        <time>2024-09-23T06:42:21Z</time>
      </trkpt>
      <trkpt lat="42.47965" lon="2.94367">
        <ele>1211</ele>
        <time>2024-09-23T06:42:24Z</time>
      </trkpt>
      <trkpt lat="42.47966" lon="2.94371">
        <ele>1211</ele>
        <time>2024-09-23T06:42:27Z</time>
      </trkpt>
      <trkpt lat="42.47967" lon="2.94375">
        <ele>1212</ele>
        <time>2024-09-23T06:42:30Z</time>
      </trkpt>
      <trkpt lat="42.47967" lon="2.94379">
        <ele>1212</ele>
        <time>2024-09-23T06:42:39Z</time>
      </trkpt>
      <trkpt lat="42.47968" lon="2.94384">
        <ele>1213</ele>
        <time>2024-09-23T06:42:44Z</time>
      </trkpt>
      <trkpt lat="42.47969" lon="2.94388">
        <ele>1213</ele>
        <time>2024-09-23T06:42:47Z</time>
      </trkpt>
      <trkpt lat="42.47969" lon="2.94392">
        <ele>1214</ele>
        <time>2024-09-23T06:42:50Z</time>
      </trkpt>
      <trkpt lat="42.4797" lon="2.94396">
        <ele>1214</ele>
        <time>2024-09-23T06:42:53Z</time>
      </trkpt>
      <trkpt lat="42.47971" lon="2.944">
        <ele>1215</ele>
        <time>2024-09-23T06:42:56Z</time>
      </trkpt>
      <trkpt lat="42.47972" lon="2.94404">
        <ele>1215</ele>
        <time>2024-09-23T06:42:59Z</time>
      </trkpt>
      <trkpt lat="42.47972" lon="2.94408">
        <ele>1215</ele>
        <time>2024-09-23T06:43:02Z</time>
      </trkpt>
      <trkpt lat="42.47974" lon="2.94411">
        <ele>1214</ele>
        <time>2024-09-23T06:43:05Z</time>
      </trkpt>
      <trkpt lat="42.47975" lon="2.94415">
        <ele>1214</ele>
        <time>2024-09-23T06:43:08Z</time>
      </trkpt>
      <trkpt lat="42.47977" lon="2.94419">
        <ele>1215</ele>
        <time>2024-09-23T06:43:11Z</time>
      </trkpt>
      <trkpt lat="42.47979" lon="2.94423">
        <ele>1215</ele>
        <time>2024-09-23T06:43:14Z</time>
      </trkpt>
      <trkpt lat="42.47981" lon="2.94426">
        <ele>1215</ele>
        <time>2024-09-23T06:43:17Z</time>
      </trkpt>
      <trkpt lat="42.47982" lon="2.94429">
        <ele>1216</ele>
        <time>2024-09-23T06:43:20Z</time>
      </trkpt>
      <trkpt lat="42.47984" lon="2.94432">
        <ele>1218</ele>
        <time>2024-09-23T06:43:24Z</time>
      </trkpt>
      <trkpt lat="42.47986" lon="2.94436">
        <ele>1217</ele>
        <time>2024-09-23T06:43:27Z</time>
      </trkpt>
      <trkpt lat="42.47987" lon="2.9444">
        <ele>1217</ele>
        <time>2024-09-23T06:43:30Z</time>
      </trkpt>
      <trkpt lat="42.47989" lon="2.94443">
        <ele>1218</ele>
        <time>2024-09-23T06:43:33Z</time>
      </trkpt>
      <trkpt lat="42.4799" lon="2.94447">
        <ele>1219</ele>
        <time>2024-09-23T06:43:36Z</time>
      </trkpt>
      <trkpt lat="42.47991" lon="2.9445">
        <ele>1219</ele>
        <time>2024-09-23T06:43:39Z</time>
      </trkpt>
      <trkpt lat="42.4799" lon="2.94454">
        <ele>1220</ele>
        <time>2024-09-23T06:43:43Z</time>
      </trkpt>
      <trkpt lat="42.47992" lon="2.94457">
        <ele>1221</ele>
        <time>2024-09-23T06:43:56Z</time>
      </trkpt>
      <trkpt lat="42.47994" lon="2.94461">
        <ele>1221</ele>
        <time>2024-09-23T06:44:00Z</time>
      </trkpt>
      <trkpt lat="42.47996" lon="2.94464">
        <ele>1221</ele>
        <time>2024-09-23T06:44:03Z</time>
      </trkpt>
      <trkpt lat="42.47998" lon="2.94467">
        <ele>1221</ele>
        <time>2024-09-23T06:44:06Z</time>
      </trkpt>
      <trkpt lat="42.48" lon="2.94471">
        <ele>1221</ele>
        <time>2024-09-23T06:44:09Z</time>
      </trkpt>
      <trkpt lat="42.48003" lon="2.94475">
        <ele>1222</ele>
        <time>2024-09-23T06:44:13Z</time>
      </trkpt>
      <trkpt lat="42.48005" lon="2.94478">
        <ele>1223</ele>
        <time>2024-09-23T06:44:16Z</time>
      </trkpt>
      <trkpt lat="42.48006" lon="2.94482">
        <ele>1223</ele>
        <time>2024-09-23T06:44:19Z</time>
      </trkpt>
      <trkpt lat="42.48008" lon="2.94486">
        <ele>1223</ele>
        <time>2024-09-23T06:44:22Z</time>
      </trkpt>
      <trkpt lat="42.4801" lon="2.94489">
        <ele>1223</ele>
        <time>2024-09-23T06:44:25Z</time>
      </trkpt>
      <trkpt lat="42.48013" lon="2.94492">
        <ele>1223</ele>
        <time>2024-09-23T06:44:28Z</time>
      </trkpt>
      <trkpt lat="42.48015" lon="2.94496">
        <ele>1223</ele>
        <time>2024-09-23T06:44:31Z</time>
      </trkpt>
      <trkpt lat="42.48017" lon="2.945">
        <ele>1223</ele>
        <time>2024-09-23T06:44:34Z</time>
      </trkpt>
      <trkpt lat="42.48019" lon="2.94503">
        <ele>1224</ele>
        <time>2024-09-23T06:44:37Z</time>
      </trkpt>
      <trkpt lat="42.48021" lon="2.94507">
        <ele>1225</ele>
        <time>2024-09-23T06:44:40Z</time>
      </trkpt>
      <trkpt lat="42.48022" lon="2.94511">
        <ele>1224</ele>
        <time>2024-09-23T06:44:43Z</time>
      </trkpt>
      <trkpt lat="42.48023" lon="2.94516">
        <ele>1225</ele>
        <time>2024-09-23T06:44:47Z</time>
      </trkpt>
      <trkpt lat="42.48023" lon="2.9452">
        <ele>1226</ele>
        <time>2024-09-23T06:44:50Z</time>
      </trkpt>
      <trkpt lat="42.48024" lon="2.94525">
        <ele>1227</ele>
        <time>2024-09-23T06:44:53Z</time>
      </trkpt>
      <trkpt lat="42.48024" lon="2.9453">
        <ele>1227</ele>
        <time>2024-09-23T06:44:56Z</time>
      </trkpt>
      <trkpt lat="42.48025" lon="2.94534">
        <ele>1227</ele>
        <time>2024-09-23T06:44:59Z</time>
      </trkpt>
      <trkpt lat="42.48026" lon="2.94538">
        <ele>1227</ele>
        <time>2024-09-23T06:45:02Z</time>
      </trkpt>
      <trkpt lat="42.48028" lon="2.94542">
        <ele>1227</ele>
        <time>2024-09-23T06:45:05Z</time>
      </trkpt>
      <trkpt lat="42.48029" lon="2.94546">
        <ele>1227</ele>
        <time>2024-09-23T06:45:07Z</time>
      </trkpt>
      <trkpt lat="42.48031" lon="2.9455">
        <ele>1227</ele>
        <time>2024-09-23T06:45:10Z</time>
      </trkpt>
      <trkpt lat="42.48033" lon="2.94554">
        <ele>1228</ele>
        <time>2024-09-23T06:45:13Z</time>
      </trkpt>
      <trkpt lat="42.48035" lon="2.94557">
        <ele>1228</ele>
        <time>2024-09-23T06:45:16Z</time>
      </trkpt>
      <trkpt lat="42.48037" lon="2.94561">
        <ele>1228</ele>
        <time>2024-09-23T06:45:19Z</time>
      </trkpt>
      <trkpt lat="42.48039" lon="2.94565">
        <ele>1227</ele>
        <time>2024-09-23T06:45:22Z</time>
      </trkpt>
      <trkpt lat="42.48041" lon="2.94569">
        <ele>1228</ele>
        <time>2024-09-23T06:45:25Z</time>
      </trkpt>
      <trkpt lat="42.48044" lon="2.94572">
        <ele>1228</ele>
        <time>2024-09-23T06:45:28Z</time>
      </trkpt>
      <trkpt lat="42.48047" lon="2.94575">
        <ele>1229</ele>
        <time>2024-09-23T06:45:32Z</time>
      </trkpt>
      <trkpt lat="42.4805" lon="2.94578">
        <ele>1228</ele>
        <time>2024-09-23T06:45:35Z</time>
      </trkpt>
      <trkpt lat="42.48052" lon="2.94581">
        <ele>1228</ele>
        <time>2024-09-23T06:45:38Z</time>
      </trkpt>
      <trkpt lat="42.48055" lon="2.94583">
        <ele>1228</ele>
        <time>2024-09-23T06:45:40Z</time>
      </trkpt>
      <trkpt lat="42.48057" lon="2.94585">
        <ele>1228</ele>
        <time>2024-09-23T06:45:43Z</time>
      </trkpt>
      <trkpt lat="42.4806" lon="2.94587">
        <ele>1230</ele>
        <time>2024-09-23T06:45:46Z</time>
      </trkpt>
      <trkpt lat="42.48063" lon="2.94589">
        <ele>1229</ele>
        <time>2024-09-23T06:45:49Z</time>
      </trkpt>
      <trkpt lat="42.48066" lon="2.94591">
        <ele>1229</ele>
        <time>2024-09-23T06:45:52Z</time>
      </trkpt>
      <trkpt lat="42.48069" lon="2.94593">
        <ele>1229</ele>
        <time>2024-09-23T06:45:55Z</time>
      </trkpt>
      <trkpt lat="42.48072" lon="2.94595">
        <ele>1229</ele>
        <time>2024-09-23T06:45:58Z</time>
      </trkpt>
      <trkpt lat="42.48075" lon="2.94597">
        <ele>1229</ele>
        <time>2024-09-23T06:46:01Z</time>
      </trkpt>
      <trkpt lat="42.48077" lon="2.946">
        <ele>1230</ele>
        <time>2024-09-23T06:46:03Z</time>
      </trkpt>
      <trkpt lat="42.4808" lon="2.94602">
        <ele>1231</ele>
        <time>2024-09-23T06:46:06Z</time>
      </trkpt>
      <trkpt lat="42.48083" lon="2.94604">
        <ele>1231</ele>
        <time>2024-09-23T06:46:09Z</time>
      </trkpt>
      <trkpt lat="42.48086" lon="2.94606">
        <ele>1231</ele>
        <time>2024-09-23T06:46:12Z</time>
      </trkpt>
      <trkpt lat="42.48089" lon="2.94607">
        <ele>1231</ele>
        <time>2024-09-23T06:46:15Z</time>
      </trkpt>
      <trkpt lat="42.48091" lon="2.94609">
        <ele>1232</ele>
        <time>2024-09-23T06:46:18Z</time>
      </trkpt>
      <trkpt lat="42.48094" lon="2.94611">
        <ele>1232</ele>
        <time>2024-09-23T06:46:21Z</time>
      </trkpt>
      <trkpt lat="42.48097" lon="2.94613">
        <ele>1232</ele>
        <time>2024-09-23T06:46:24Z</time>
      </trkpt>
      <trkpt lat="42.481" lon="2.94614">
        <ele>1233</ele>
        <time>2024-09-23T06:46:27Z</time>
      </trkpt>
      <trkpt lat="42.48103" lon="2.94616">
        <ele>1233</ele>
        <time>2024-09-23T06:46:30Z</time>
      </trkpt>
      <trkpt lat="42.48106" lon="2.94617">
        <ele>1234</ele>
        <time>2024-09-23T06:46:32Z</time>
      </trkpt>
      <trkpt lat="42.48108" lon="2.94618">
        <ele>1234</ele>
        <time>2024-09-23T06:46:35Z</time>
      </trkpt>
      <trkpt lat="42.48111" lon="2.9462">
        <ele>1235</ele>
        <time>2024-09-23T06:46:38Z</time>
      </trkpt>
      <trkpt lat="42.48114" lon="2.94622">
        <ele>1235</ele>
        <time>2024-09-23T06:46:41Z</time>
      </trkpt>
      <trkpt lat="42.48116" lon="2.94625">
        <ele>1235</ele>
        <time>2024-09-23T06:46:44Z</time>
      </trkpt>
      <trkpt lat="42.4812" lon="2.94626">
        <ele>1235</ele>
        <time>2024-09-23T06:46:47Z</time>
      </trkpt>
      <trkpt lat="42.48123" lon="2.94627">
        <ele>1236</ele>
        <time>2024-09-23T06:46:50Z</time>
      </trkpt>
      <trkpt lat="42.48126" lon="2.94629">
        <ele>1236</ele>
        <time>2024-09-23T06:46:53Z</time>
      </trkpt>
      <trkpt lat="42.48129" lon="2.9463">
        <ele>1237</ele>
        <time>2024-09-23T06:46:56Z</time>
      </trkpt>
      <trkpt lat="42.48131" lon="2.94632">
        <ele>1237</ele>
        <time>2024-09-23T06:46:59Z</time>
      </trkpt>
      <trkpt lat="42.48134" lon="2.94634">
        <ele>1237</ele>
        <time>2024-09-23T06:47:02Z</time>
      </trkpt>
      <trkpt lat="42.48136" lon="2.94637">
        <ele>1238</ele>
        <time>2024-09-23T06:47:05Z</time>
      </trkpt>
      <trkpt lat="42.48137" lon="2.94639">
        <ele>1239</ele>
        <time>2024-09-23T06:47:08Z</time>
      </trkpt>
      <trkpt lat="42.4814" lon="2.94642">
        <ele>1239</ele>
        <time>2024-09-23T06:47:11Z</time>
      </trkpt>
      <trkpt lat="42.48141" lon="2.94645">
        <ele>1239</ele>
        <time>2024-09-23T06:47:15Z</time>
      </trkpt>
      <trkpt lat="42.48143" lon="2.94648">
        <ele>1239</ele>
        <time>2024-09-23T06:47:18Z</time>
      </trkpt>
      <trkpt lat="42.48146" lon="2.94649">
        <ele>1241</ele>
        <time>2024-09-23T06:47:27Z</time>
      </trkpt>
      <trkpt lat="42.48149" lon="2.94651">
        <ele>1240</ele>
        <time>2024-09-23T06:47:30Z</time>
      </trkpt>
      <trkpt lat="42.48152" lon="2.94653">
        <ele>1242</ele>
        <time>2024-09-23T06:47:33Z</time>
      </trkpt>
      <trkpt lat="42.48154" lon="2.94655">
        <ele>1241</ele>
        <time>2024-09-23T06:47:37Z</time>
      </trkpt>
      <trkpt lat="42.48157" lon="2.94657">
        <ele>1242</ele>
        <time>2024-09-23T06:47:40Z</time>
      </trkpt>
      <trkpt lat="42.48159" lon="2.94659">
        <ele>1242</ele>
        <time>2024-09-23T06:47:43Z</time>
      </trkpt>
      <trkpt lat="42.48162" lon="2.94661">
        <ele>1243</ele>
        <time>2024-09-23T06:47:46Z</time>
      </trkpt>
      <trkpt lat="42.48165" lon="2.94663">
        <ele>1243</ele>
        <time>2024-09-23T06:47:50Z</time>
      </trkpt>
      <trkpt lat="42.48167" lon="2.94666">
        <ele>1244</ele>
        <time>2024-09-23T06:47:53Z</time>
      </trkpt>
      <trkpt lat="42.4817" lon="2.94669">
        <ele>1245</ele>
        <time>2024-09-23T06:47:56Z</time>
      </trkpt>
      <trkpt lat="42.48172" lon="2.94672">
        <ele>1245</ele>
        <time>2024-09-23T06:47:59Z</time>
      </trkpt>
      <trkpt lat="42.48175" lon="2.94675">
        <ele>1245</ele>
        <time>2024-09-23T06:48:02Z</time>
      </trkpt>
      <trkpt lat="42.48177" lon="2.94677">
        <ele>1246</ele>
        <time>2024-09-23T06:48:05Z</time>
      </trkpt>
      <trkpt lat="42.4818" lon="2.94679">
        <ele>1247</ele>
        <time>2024-09-23T06:48:10Z</time>
      </trkpt>
      <trkpt lat="42.48183" lon="2.94681">
        <ele>1247</ele>
        <time>2024-09-23T06:48:13Z</time>
      </trkpt>
      <trkpt lat="42.48186" lon="2.94681">
        <ele>1247</ele>
        <time>2024-09-23T06:48:19Z</time>
      </trkpt>
      <trkpt lat="42.48189" lon="2.9468">
        <ele>1247</ele>
        <time>2024-09-23T06:48:22Z</time>
      </trkpt>
      <trkpt lat="42.48191" lon="2.94679">
        <ele>1248</ele>
        <time>2024-09-23T06:48:26Z</time>
      </trkpt>
      <trkpt lat="42.48193" lon="2.94676">
        <ele>1247</ele>
        <time>2024-09-23T06:48:31Z</time>
      </trkpt>
      <trkpt lat="42.48195" lon="2.94672">
        <ele>1247</ele>
        <time>2024-09-23T06:48:34Z</time>
      </trkpt>
      <trkpt lat="42.48198" lon="2.94669">
        <ele>1247</ele>
        <time>2024-09-23T06:48:37Z</time>
      </trkpt>
      <trkpt lat="42.482" lon="2.94667">
        <ele>1247</ele>
        <time>2024-09-23T06:48:39Z</time>
      </trkpt>
      <trkpt lat="42.48202" lon="2.94664">
        <ele>1246</ele>
        <time>2024-09-23T06:48:42Z</time>
      </trkpt>
      <trkpt lat="42.48205" lon="2.94661">
        <ele>1245</ele>
        <time>2024-09-23T06:48:45Z</time>
      </trkpt>
      <trkpt lat="42.48208" lon="2.94658">
        <ele>1244</ele>
        <time>2024-09-23T06:48:48Z</time>
      </trkpt>
      <trkpt lat="42.48211" lon="2.94656">
        <ele>1243</ele>
        <time>2024-09-23T06:48:51Z</time>
      </trkpt>
      <trkpt lat="42.48213" lon="2.94655">
        <ele>1243</ele>
        <time>2024-09-23T06:48:54Z</time>
      </trkpt>
      <trkpt lat="42.48217" lon="2.94655">
        <ele>1241</ele>
        <time>2024-09-23T06:48:59Z</time>
      </trkpt>
      <trkpt lat="42.4822" lon="2.94656">
        <ele>1241</ele>
        <time>2024-09-23T06:49:02Z</time>
      </trkpt>
      <trkpt lat="42.48222" lon="2.94658">
        <ele>1240</ele>
        <time>2024-09-23T06:49:05Z</time>
      </trkpt>
      <trkpt lat="42.48225" lon="2.9466">
        <ele>1240</ele>
        <time>2024-09-23T06:49:08Z</time>
      </trkpt>
      <trkpt lat="42.48228" lon="2.94659">
        <ele>1239</ele>
        <time>2024-09-23T06:49:11Z</time>
      </trkpt>
      <trkpt lat="42.4823" lon="2.94661">
        <ele>1239</ele>
        <time>2024-09-23T06:49:31Z</time>
      </trkpt>
      <trkpt lat="42.48233" lon="2.94663">
        <ele>1239</ele>
        <time>2024-09-23T06:52:11Z</time>
      </trkpt>
      <trkpt lat="42.48235" lon="2.94665">
        <ele>1238</ele>
        <time>2024-09-23T06:52:13Z</time>
      </trkpt>
      <trkpt lat="42.48237" lon="2.94669">
        <ele>1238</ele>
        <time>2024-09-23T06:52:16Z</time>
      </trkpt>
      <trkpt lat="42.4824" lon="2.94672">
        <ele>1238</ele>
        <time>2024-09-23T06:52:18Z</time>
      </trkpt>
      <trkpt lat="42.48242" lon="2.94675">
        <ele>1237</ele>
        <time>2024-09-23T06:52:21Z</time>
      </trkpt>
      <trkpt lat="42.48244" lon="2.94678">
        <ele>1237</ele>
        <time>2024-09-23T06:52:23Z</time>
      </trkpt>
      <trkpt lat="42.48247" lon="2.94681">
        <ele>1237</ele>
        <time>2024-09-23T06:52:26Z</time>
      </trkpt>
      <trkpt lat="42.4825" lon="2.94683">
        <ele>1237</ele>
        <time>2024-09-23T06:52:28Z</time>
      </trkpt>
      <trkpt lat="42.48252" lon="2.94686">
        <ele>1237</ele>
        <time>2024-09-23T06:52:31Z</time>
      </trkpt>
      <trkpt lat="42.48255" lon="2.94688">
        <ele>1236</ele>
        <time>2024-09-23T06:52:34Z</time>
      </trkpt>
      <trkpt lat="42.48257" lon="2.9469">
        <ele>1235</ele>
        <time>2024-09-23T06:52:36Z</time>
      </trkpt>
      <trkpt lat="42.4826" lon="2.94692">
        <ele>1235</ele>
        <time>2024-09-23T06:52:39Z</time>
      </trkpt>
      <trkpt lat="42.48263" lon="2.94694">
        <ele>1236</ele>
        <time>2024-09-23T06:52:41Z</time>
      </trkpt>
      <trkpt lat="42.48266" lon="2.94696">
        <ele>1236</ele>
        <time>2024-09-23T06:52:44Z</time>
      </trkpt>
      <trkpt lat="42.48269" lon="2.94699">
        <ele>1235</ele>
        <time>2024-09-23T06:52:47Z</time>
      </trkpt>
      <trkpt lat="42.48272" lon="2.94701">
        <ele>1234</ele>
        <time>2024-09-23T06:52:50Z</time>
      </trkpt>
      <trkpt lat="42.48276" lon="2.94702">
        <ele>1233</ele>
        <time>2024-09-23T06:52:53Z</time>
      </trkpt>
      <trkpt lat="42.48279" lon="2.94704">
        <ele>1233</ele>
        <time>2024-09-23T06:52:56Z</time>
      </trkpt>
      <trkpt lat="42.48282" lon="2.94705">
        <ele>1233</ele>
        <time>2024-09-23T06:52:58Z</time>
      </trkpt>
      <trkpt lat="42.48284" lon="2.94707">
        <ele>1233</ele>
        <time>2024-09-23T06:53:00Z</time>
      </trkpt>
      <trkpt lat="42.48287" lon="2.94709">
        <ele>1234</ele>
        <time>2024-09-23T06:53:02Z</time>
      </trkpt>
      <trkpt lat="42.48289" lon="2.94712">
        <ele>1233</ele>
        <time>2024-09-23T06:53:04Z</time>
      </trkpt>
      <trkpt lat="42.48291" lon="2.94715">
        <ele>1233</ele>
        <time>2024-09-23T06:53:06Z</time>
      </trkpt>
      <trkpt lat="42.48292" lon="2.94718">
        <ele>1235</ele>
        <time>2024-09-23T06:53:08Z</time>
      </trkpt>
      <trkpt lat="42.48294" lon="2.94722">
        <ele>1235</ele>
        <time>2024-09-23T06:53:10Z</time>
      </trkpt>
      <trkpt lat="42.48296" lon="2.94725">
        <ele>1235</ele>
        <time>2024-09-23T06:53:12Z</time>
      </trkpt>
      <trkpt lat="42.48298" lon="2.94728">
        <ele>1235</ele>
        <time>2024-09-23T06:53:15Z</time>
      </trkpt>
      <trkpt lat="42.483" lon="2.94732">
        <ele>1234</ele>
        <time>2024-09-23T06:53:18Z</time>
      </trkpt>
      <trkpt lat="42.48302" lon="2.94735">
        <ele>1232</ele>
        <time>2024-09-23T06:53:22Z</time>
      </trkpt>
      <trkpt lat="42.48304" lon="2.94739">
        <ele>1232</ele>
        <time>2024-09-23T06:53:25Z</time>
      </trkpt>
      <trkpt lat="42.48306" lon="2.94743">
        <ele>1232</ele>
        <time>2024-09-23T06:53:28Z</time>
      </trkpt>
      <trkpt lat="42.48308" lon="2.94747">
        <ele>1231</ele>
        <time>2024-09-23T06:53:30Z</time>
      </trkpt>
      <trkpt lat="42.48309" lon="2.9475">
        <ele>1232</ele>
        <time>2024-09-23T06:53:32Z</time>
      </trkpt>
      <trkpt lat="42.48311" lon="2.94754">
        <ele>1231</ele>
        <time>2024-09-23T06:53:35Z</time>
      </trkpt>
      <trkpt lat="42.48313" lon="2.94757">
        <ele>1231</ele>
        <time>2024-09-23T06:53:37Z</time>
      </trkpt>
      <trkpt lat="42.48314" lon="2.94762">
        <ele>1232</ele>
        <time>2024-09-23T06:53:40Z</time>
      </trkpt>
      <trkpt lat="42.48315" lon="2.94767">
        <ele>1231</ele>
        <time>2024-09-23T06:53:43Z</time>
      </trkpt>
      <trkpt lat="42.48315" lon="2.94772">
        <ele>1231</ele>
        <time>2024-09-23T06:53:46Z</time>
      </trkpt>
      <trkpt lat="42.48313" lon="2.94776">
        <ele>1230</ele>
        <time>2024-09-23T06:53:49Z</time>
      </trkpt>
      <trkpt lat="42.48311" lon="2.9478">
        <ele>1230</ele>
        <time>2024-09-23T06:53:52Z</time>
      </trkpt>
      <trkpt lat="42.48309" lon="2.94782">
        <ele>1231</ele>
        <time>2024-09-23T06:53:55Z</time>
      </trkpt>
      <trkpt lat="42.48307" lon="2.94784">
        <ele>1232</ele>
        <time>2024-09-23T06:53:57Z</time>
      </trkpt>
      <trkpt lat="42.48304" lon="2.94786">
        <ele>1232</ele>
        <time>2024-09-23T06:54:00Z</time>
      </trkpt>
      <trkpt lat="42.48301" lon="2.94787">
        <ele>1235</ele>
        <time>2024-09-23T06:54:04Z</time>
      </trkpt>
      <trkpt lat="42.48298" lon="2.94789">
        <ele>1236</ele>
        <time>2024-09-23T06:54:07Z</time>
      </trkpt>
      <trkpt lat="42.48295" lon="2.94792">
        <ele>1236</ele>
        <time>2024-09-23T06:54:10Z</time>
      </trkpt>
      <trkpt lat="42.48292" lon="2.94794">
        <ele>1238</ele>
        <time>2024-09-23T06:54:13Z</time>
      </trkpt>
      <trkpt lat="42.48289" lon="2.94796">
        <ele>1237</ele>
        <time>2024-09-23T06:54:16Z</time>
      </trkpt>
      <trkpt lat="42.48287" lon="2.94799">
        <ele>1238</ele>
        <time>2024-09-23T06:54:19Z</time>
      </trkpt>
      <trkpt lat="42.48285" lon="2.94803">
        <ele>1239</ele>
        <time>2024-09-23T06:54:22Z</time>
      </trkpt>
      <trkpt lat="42.48283" lon="2.94806">
        <ele>1238</ele>
        <time>2024-09-23T06:54:25Z</time>
      </trkpt>
      <trkpt lat="42.4828" lon="2.94808">
        <ele>1238</ele>
        <time>2024-09-23T06:54:27Z</time>
      </trkpt>
      <trkpt lat="42.48277" lon="2.94809">
        <ele>1238</ele>
        <time>2024-09-23T06:54:30Z</time>
      </trkpt>
      <trkpt lat="42.48274" lon="2.94811">
        <ele>1239</ele>
        <time>2024-09-23T06:54:34Z</time>
      </trkpt>
      <trkpt lat="42.48271" lon="2.94813">
        <ele>1239</ele>
        <time>2024-09-23T06:54:39Z</time>
      </trkpt>
      <trkpt lat="42.48269" lon="2.94816">
        <ele>1238</ele>
        <time>2024-09-23T06:54:41Z</time>
      </trkpt>
      <trkpt lat="42.48267" lon="2.94818">
        <ele>1238</ele>
        <time>2024-09-23T06:54:44Z</time>
      </trkpt>
      <trkpt lat="42.48263" lon="2.94823">
        <ele>1238</ele>
        <time>2024-09-23T06:54:47Z</time>
      </trkpt>
      <trkpt lat="42.4826" lon="2.94825">
        <ele>1239</ele>
        <time>2024-09-23T06:54:53Z</time>
      </trkpt>
      <trkpt lat="42.48257" lon="2.94827">
        <ele>1240</ele>
        <time>2024-09-23T06:54:55Z</time>
      </trkpt>
      <trkpt lat="42.48254" lon="2.94829">
        <ele>1241</ele>
        <time>2024-09-23T06:55:00Z</time>
      </trkpt>
      <trkpt lat="42.48251" lon="2.94831">
        <ele>1241</ele>
        <time>2024-09-23T06:55:03Z</time>
      </trkpt>
      <trkpt lat="42.48248" lon="2.94831">
        <ele>1241</ele>
        <time>2024-09-23T06:55:05Z</time>
      </trkpt>
      <trkpt lat="42.48247" lon="2.94835">
        <ele>1240</ele>
        <time>2024-09-23T06:55:08Z</time>
      </trkpt>
      <trkpt lat="42.48246" lon="2.94838">
        <ele>1240</ele>
        <time>2024-09-23T06:55:10Z</time>
      </trkpt>
      <trkpt lat="42.48245" lon="2.94842">
        <ele>1240</ele>
        <time>2024-09-23T06:55:11Z</time>
      </trkpt>
      <trkpt lat="42.48242" lon="2.94846">
        <ele>1241</ele>
        <time>2024-09-23T06:55:15Z</time>
      </trkpt>
      <trkpt lat="42.4824" lon="2.9485">
        <ele>1241</ele>
        <time>2024-09-23T06:55:19Z</time>
      </trkpt>
      <trkpt lat="42.48238" lon="2.94853">
        <ele>1241</ele>
        <time>2024-09-23T06:55:22Z</time>
      </trkpt>
      <trkpt lat="42.48235" lon="2.94856">
        <ele>1241</ele>
        <time>2024-09-23T06:55:25Z</time>
      </trkpt>
      <trkpt lat="42.48232" lon="2.94857">
        <ele>1242</ele>
        <time>2024-09-23T06:55:27Z</time>
      </trkpt>
      <trkpt lat="42.48229" lon="2.94858">
        <ele>1241</ele>
        <time>2024-09-23T06:55:32Z</time>
      </trkpt>
      <trkpt lat="42.48226" lon="2.94856">
        <ele>1240</ele>
        <time>2024-09-23T06:55:37Z</time>
      </trkpt>
      <trkpt lat="42.48222" lon="2.94857">
        <ele>1239</ele>
        <time>2024-09-23T06:55:41Z</time>
      </trkpt>
      <trkpt lat="42.48219" lon="2.94857">
        <ele>1238</ele>
        <time>2024-09-23T06:55:45Z</time>
      </trkpt>
      <trkpt lat="42.48216" lon="2.94859">
        <ele>1237</ele>
        <time>2024-09-23T06:55:48Z</time>
      </trkpt>
      <trkpt lat="42.48213" lon="2.94858">
        <ele>1236</ele>
        <time>2024-09-23T06:55:52Z</time>
      </trkpt>
      <trkpt lat="42.4821" lon="2.94856">
        <ele>1236</ele>
        <time>2024-09-23T06:55:56Z</time>
      </trkpt>
      <trkpt lat="42.48208" lon="2.94853">
        <ele>1236</ele>
        <time>2024-09-23T06:56:00Z</time>
      </trkpt>
      <trkpt lat="42.48206" lon="2.94851">
        <ele>1236</ele>
        <time>2024-09-23T06:56:03Z</time>
      </trkpt>
      <trkpt lat="42.48203" lon="2.94849">
        <ele>1235</ele>
        <time>2024-09-23T06:56:07Z</time>
      </trkpt>
      <trkpt lat="42.482" lon="2.94846">
        <ele>1235</ele>
        <time>2024-09-23T06:56:10Z</time>
      </trkpt>
      <trkpt lat="42.48198" lon="2.94843">
        <ele>1233</ele>
        <time>2024-09-23T06:56:13Z</time>
      </trkpt>
      <trkpt lat="42.48195" lon="2.94842">
        <ele>1232</ele>
        <time>2024-09-23T06:56:17Z</time>
      </trkpt>
      <trkpt lat="42.48192" lon="2.94843">
        <ele>1233</ele>
        <time>2024-09-23T06:56:20Z</time>
      </trkpt>
      <trkpt lat="42.4819" lon="2.94841">
        <ele>1231</ele>
        <time>2024-09-23T06:56:27Z</time>
      </trkpt>
      <trkpt lat="42.48187" lon="2.9484">
        <ele>1230</ele>
        <time>2024-09-23T06:56:30Z</time>
      </trkpt>
      <trkpt lat="42.48184" lon="2.9484">
        <ele>1229</ele>
        <time>2024-09-23T06:56:33Z</time>
      </trkpt>
      <trkpt lat="42.48182" lon="2.94841">
        <ele>1227</ele>
        <time>2024-09-23T06:56:37Z</time>
      </trkpt>
      <trkpt lat="42.48179" lon="2.9484">
        <ele>1225</ele>
        <time>2024-09-23T06:56:41Z</time>
      </trkpt>
      <trkpt lat="42.48176" lon="2.9484">
        <ele>1224</ele>
        <time>2024-09-23T06:56:45Z</time>
      </trkpt>
      <trkpt lat="42.48173" lon="2.9484">
        <ele>1222</ele>
        <time>2024-09-23T06:56:48Z</time>
      </trkpt>
      <trkpt lat="42.4817" lon="2.94841">
        <ele>1221</ele>
        <time>2024-09-23T06:56:51Z</time>
      </trkpt>
      <trkpt lat="42.48167" lon="2.94842">
        <ele>1220</ele>
        <time>2024-09-23T06:56:54Z</time>
      </trkpt>
      <trkpt lat="42.48164" lon="2.94842">
        <ele>1221</ele>
        <time>2024-09-23T06:56:57Z</time>
      </trkpt>
      <trkpt lat="42.48161" lon="2.94843">
        <ele>1216</ele>
        <time>2024-09-23T06:57:03Z</time>
      </trkpt>
      <trkpt lat="42.48158" lon="2.94842">
        <ele>1216</ele>
        <time>2024-09-23T06:57:05Z</time>
      </trkpt>
      <trkpt lat="42.48156" lon="2.94843">
        <ele>1215</ele>
        <time>2024-09-23T06:57:08Z</time>
      </trkpt>
      <trkpt lat="42.48153" lon="2.94846">
        <ele>1215</ele>
        <time>2024-09-23T06:57:11Z</time>
      </trkpt>
      <trkpt lat="42.4815" lon="2.94847">
        <ele>1214</ele>
        <time>2024-09-23T06:57:15Z</time>
      </trkpt>
      <trkpt lat="42.48147" lon="2.94848">
        <ele>1214</ele>
        <time>2024-09-23T06:57:18Z</time>
      </trkpt>
      <trkpt lat="42.48143" lon="2.94849">
        <ele>1212</ele>
        <time>2024-09-23T06:57:22Z</time>
      </trkpt>
      <trkpt lat="42.4814" lon="2.94851">
        <ele>1210</ele>
        <time>2024-09-23T06:57:27Z</time>
      </trkpt>
      <trkpt lat="42.48139" lon="2.94855">
        <ele>1208</ele>
        <time>2024-09-23T06:57:30Z</time>
      </trkpt>
      <trkpt lat="42.48136" lon="2.94858">
        <ele>1207</ele>
        <time>2024-09-23T06:57:34Z</time>
      </trkpt>
      <trkpt lat="42.48134" lon="2.9486">
        <ele>1205</ele>
        <time>2024-09-23T06:57:38Z</time>
      </trkpt>
      <trkpt lat="42.48131" lon="2.94862">
        <ele>1204</ele>
        <time>2024-09-23T06:57:42Z</time>
      </trkpt>
      <trkpt lat="42.48128" lon="2.94863">
        <ele>1203</ele>
        <time>2024-09-23T06:57:47Z</time>
      </trkpt>
      <trkpt lat="42.48125" lon="2.94863">
        <ele>1203</ele>
        <time>2024-09-23T06:57:50Z</time>
      </trkpt>
      <trkpt lat="42.48123" lon="2.94865">
        <ele>1205</ele>
        <time>2024-09-23T06:58:01Z</time>
      </trkpt>
      <trkpt lat="42.4812" lon="2.94866">
        <ele>1200</ele>
        <time>2024-09-23T06:58:18Z</time>
      </trkpt>
      <trkpt lat="42.48118" lon="2.94868">
        <ele>1199</ele>
        <time>2024-09-23T06:58:22Z</time>
      </trkpt>
      <trkpt lat="42.48115" lon="2.94871">
        <ele>1197</ele>
        <time>2024-09-23T06:58:27Z</time>
      </trkpt>
      <trkpt lat="42.48114" lon="2.94874">
        <ele>1196</ele>
        <time>2024-09-23T06:58:31Z</time>
      </trkpt>
      <trkpt lat="42.48111" lon="2.94875">
        <ele>1195</ele>
        <time>2024-09-23T06:58:35Z</time>
      </trkpt>
      <trkpt lat="42.4811" lon="2.94877">
        <ele>1195</ele>
        <time>2024-09-23T06:58:37Z</time>
      </trkpt>
      <trkpt lat="42.48108" lon="2.94881">
        <ele>1193</ele>
        <time>2024-09-23T06:58:42Z</time>
      </trkpt>
      <trkpt lat="42.48106" lon="2.94882">
        <ele>1192</ele>
        <time>2024-09-23T06:58:46Z</time>
      </trkpt>
      <trkpt lat="42.48103" lon="2.94882">
        <ele>1191</ele>
        <time>2024-09-23T06:58:50Z</time>
      </trkpt>
      <trkpt lat="42.48101" lon="2.94886">
        <ele>1190</ele>
        <time>2024-09-23T06:58:54Z</time>
      </trkpt>
      <trkpt lat="42.48101" lon="2.94889">
        <ele>1190</ele>
        <time>2024-09-23T06:58:57Z</time>
      </trkpt>
      <trkpt lat="42.48099" lon="2.94892">
        <ele>1188</ele>
        <time>2024-09-23T06:59:01Z</time>
      </trkpt>
      <trkpt lat="42.48098" lon="2.94896">
        <ele>1188</ele>
        <time>2024-09-23T06:59:05Z</time>
      </trkpt>
      <trkpt lat="42.48096" lon="2.94899">
        <ele>1187</ele>
        <time>2024-09-23T06:59:10Z</time>
      </trkpt>
      <trkpt lat="42.48093" lon="2.94901">
        <ele>1185</ele>
        <time>2024-09-23T06:59:15Z</time>
      </trkpt>
      <trkpt lat="42.48092" lon="2.94904">
        <ele>1184</ele>
        <time>2024-09-23T06:59:19Z</time>
      </trkpt>
      <trkpt lat="42.48089" lon="2.94907">
        <ele>1183</ele>
        <time>2024-09-23T06:59:23Z</time>
      </trkpt>
      <trkpt lat="42.48087" lon="2.94907">
        <ele>1183</ele>
        <time>2024-09-23T06:59:25Z</time>
      </trkpt>
      <trkpt lat="42.48084" lon="2.94908">
        <ele>1180</ele>
        <time>2024-09-23T06:59:30Z</time>
      </trkpt>
      <trkpt lat="42.48081" lon="2.94909">
        <ele>1179</ele>
        <time>2024-09-23T06:59:34Z</time>
      </trkpt>
      <trkpt lat="42.48078" lon="2.94911">
        <ele>1177</ele>
        <time>2024-09-23T06:59:39Z</time>
      </trkpt>
      <trkpt lat="42.48075" lon="2.94912">
        <ele>1176</ele>
        <time>2024-09-23T06:59:44Z</time>
      </trkpt>
      <trkpt lat="42.48072" lon="2.94914">
        <ele>1174</ele>
        <time>2024-09-23T06:59:49Z</time>
      </trkpt>
      <trkpt lat="42.4807" lon="2.94917">
        <ele>1172</ele>
        <time>2024-09-23T06:59:55Z</time>
      </trkpt>
      <trkpt lat="42.48069" lon="2.94921">
        <ele>1171</ele>
        <time>2024-09-23T07:00:00Z</time>
      </trkpt>
      <trkpt lat="42.48068" lon="2.94924">
        <ele>1170</ele>
        <time>2024-09-23T07:00:03Z</time>
      </trkpt>
      <trkpt lat="42.48065" lon="2.94926">
        <ele>1170</ele>
        <time>2024-09-23T07:00:07Z</time>
      </trkpt>
      <trkpt lat="42.48063" lon="2.94929">
        <ele>1168</ele>
        <time>2024-09-23T07:00:13Z</time>
      </trkpt>
      <trkpt lat="42.4806" lon="2.9493">
        <ele>1167</ele>
        <time>2024-09-23T07:00:18Z</time>
      </trkpt>
      <trkpt lat="42.48057" lon="2.94932">
        <ele>1166</ele>
        <time>2024-09-23T07:00:22Z</time>
      </trkpt>
      <trkpt lat="42.48056" lon="2.94935">
        <ele>1166</ele>
        <time>2024-09-23T07:00:24Z</time>
      </trkpt>
      <trkpt lat="42.48056" lon="2.94938">
        <ele>1165</ele>
        <time>2024-09-23T07:00:27Z</time>
      </trkpt>
      <trkpt lat="42.48058" lon="2.94942">
        <ele>1164</ele>
        <time>2024-09-23T07:00:32Z</time>
      </trkpt>
      <trkpt lat="42.48059" lon="2.94945">
        <ele>1163</ele>
        <time>2024-09-23T07:00:35Z</time>
      </trkpt>
      <trkpt lat="42.48059" lon="2.94949">
        <ele>1163</ele>
        <time>2024-09-23T07:00:38Z</time>
      </trkpt>
      <trkpt lat="42.48059" lon="2.94953">
        <ele>1161</ele>
        <time>2024-09-23T07:00:43Z</time>
      </trkpt>
      <trkpt lat="42.4806" lon="2.94957">
        <ele>1160</ele>
        <time>2024-09-23T07:00:46Z</time>
      </trkpt>
      <trkpt lat="42.48059" lon="2.94962">
        <ele>1160</ele>
        <time>2024-09-23T07:00:50Z</time>
      </trkpt>
      <trkpt lat="42.4806" lon="2.94965">
        <ele>1158</ele>
        <time>2024-09-23T07:00:55Z</time>
      </trkpt>
      <trkpt lat="42.48058" lon="2.94968">
        <ele>1156</ele>
        <time>2024-09-23T07:01:00Z</time>
      </trkpt>
      <trkpt lat="42.48056" lon="2.94971">
        <ele>1154</ele>
        <time>2024-09-23T07:01:05Z</time>
      </trkpt>
      <trkpt lat="42.48056" lon="2.94975">
        <ele>1154</ele>
        <time>2024-09-23T07:01:08Z</time>
      </trkpt>
      <trkpt lat="42.48057" lon="2.94979">
        <ele>1154</ele>
        <time>2024-09-23T07:01:12Z</time>
      </trkpt>
      <trkpt lat="42.48059" lon="2.94983">
        <ele>1153</ele>
        <time>2024-09-23T07:01:14Z</time>
      </trkpt>
      <trkpt lat="42.48059" lon="2.94987">
        <ele>1153</ele>
        <time>2024-09-23T07:01:22Z</time>
      </trkpt>
      <trkpt lat="42.48058" lon="2.9499">
        <ele>1151</ele>
        <time>2024-09-23T07:01:28Z</time>
      </trkpt>
      <trkpt lat="42.48055" lon="2.94992">
        <ele>1149</ele>
        <time>2024-09-23T07:01:35Z</time>
      </trkpt>
      <trkpt lat="42.48054" lon="2.94995">
        <ele>1148</ele>
        <time>2024-09-23T07:01:38Z</time>
      </trkpt>
      <trkpt lat="42.48053" lon="2.94999">
        <ele>1149</ele>
        <time>2024-09-23T07:02:02Z</time>
      </trkpt>
      <trkpt lat="42.48052" lon="2.95002">
        <ele>1147</ele>
        <time>2024-09-23T07:03:29Z</time>
      </trkpt>
      <trkpt lat="42.4805" lon="2.95004">
        <ele>1146</ele>
        <time>2024-09-23T07:03:34Z</time>
      </trkpt>
      <trkpt lat="42.48047" lon="2.95003">
        <ele>1145</ele>
        <time>2024-09-23T07:03:39Z</time>
      </trkpt>
      <trkpt lat="42.48045" lon="2.95005">
        <ele>1143</ele>
        <time>2024-09-23T07:03:44Z</time>
      </trkpt>
      <trkpt lat="42.48042" lon="2.95005">
        <ele>1142</ele>
        <time>2024-09-23T07:03:49Z</time>
      </trkpt>
      <trkpt lat="42.48039" lon="2.95006">
        <ele>1142</ele>
        <time>2024-09-23T07:04:04Z</time>
      </trkpt>
      <trkpt lat="42.48036" lon="2.95006">
        <ele>1141</ele>
        <time>2024-09-23T07:04:11Z</time>
      </trkpt>
      <trkpt lat="42.48033" lon="2.95005">
        <ele>1140</ele>
        <time>2024-09-23T07:04:25Z</time>
      </trkpt>
      <trkpt lat="42.48031" lon="2.95004">
        <ele>1139</ele>
        <time>2024-09-23T07:04:29Z</time>
      </trkpt>
      <trkpt lat="42.48028" lon="2.95003">
        <ele>1137</ele>
        <time>2024-09-23T07:04:38Z</time>
      </trkpt>
      <trkpt lat="42.48025" lon="2.95002">
        <ele>1137</ele>
        <time>2024-09-23T07:04:41Z</time>
      </trkpt>
      <trkpt lat="42.48022" lon="2.95002">
        <ele>1137</ele>
        <time>2024-09-23T07:04:45Z</time>
      </trkpt>
      <trkpt lat="42.48019" lon="2.95">
        <ele>1135</ele>
        <time>2024-09-23T07:04:53Z</time>
      </trkpt>
      <trkpt lat="42.48016" lon="2.95">
        <ele>1135</ele>
        <time>2024-09-23T07:05:04Z</time>
      </trkpt>
      <trkpt lat="42.48013" lon="2.95">
        <ele>1134</ele>
        <time>2024-09-23T07:05:08Z</time>
      </trkpt>
      <trkpt lat="42.4801" lon="2.94998">
        <ele>1134</ele>
        <time>2024-09-23T07:05:11Z</time>
      </trkpt>
      <trkpt lat="42.48007" lon="2.94997">
        <ele>1133</ele>
        <time>2024-09-23T07:05:14Z</time>
      </trkpt>
      <trkpt lat="42.48005" lon="2.94998">
        <ele>1132</ele>
        <time>2024-09-23T07:05:18Z</time>
      </trkpt>
      <trkpt lat="42.48002" lon="2.94999">
        <ele>1131</ele>
        <time>2024-09-23T07:05:22Z</time>
      </trkpt>
      <trkpt lat="42.47999" lon="2.95">
        <ele>1131</ele>
        <time>2024-09-23T07:05:39Z</time>
      </trkpt>
      <trkpt lat="42.47996" lon="2.95">
        <ele>1130</ele>
        <time>2024-09-23T07:05:44Z</time>
      </trkpt>
      <trkpt lat="42.47994" lon="2.95001">
        <ele>1129</ele>
        <time>2024-09-23T07:05:49Z</time>
      </trkpt>
      <trkpt lat="42.47991" lon="2.95003">
        <ele>1128</ele>
        <time>2024-09-23T07:05:53Z</time>
      </trkpt>
      <trkpt lat="42.47988" lon="2.95004">
        <ele>1128</ele>
        <time>2024-09-23T07:05:56Z</time>
      </trkpt>
      <trkpt lat="42.47985" lon="2.95004">
        <ele>1126</ele>
        <time>2024-09-23T07:06:01Z</time>
      </trkpt>
      <trkpt lat="42.47982" lon="2.95005">
        <ele>1127</ele>
        <time>2024-09-23T07:06:22Z</time>
      </trkpt>
      <trkpt lat="42.47979" lon="2.95008">
        <ele>1126</ele>
        <time>2024-09-23T07:06:25Z</time>
      </trkpt>
      <trkpt lat="42.47977" lon="2.95011">
        <ele>1125</ele>
        <time>2024-09-23T07:06:31Z</time>
      </trkpt>
      <trkpt lat="42.47975" lon="2.95014">
        <ele>1124</ele>
        <time>2024-09-23T07:06:35Z</time>
      </trkpt>
      <trkpt lat="42.47976" lon="2.95016">
        <ele>1123</ele>
        <time>2024-09-23T07:06:40Z</time>
      </trkpt>
      <trkpt lat="42.47976" lon="2.9502">
        <ele>1121</ele>
        <time>2024-09-23T07:06:46Z</time>
      </trkpt>
      <trkpt lat="42.47974" lon="2.95023">
        <ele>1120</ele>
        <time>2024-09-23T07:06:49Z</time>
      </trkpt>
      <trkpt lat="42.47973" lon="2.95026">
        <ele>1119</ele>
        <time>2024-09-23T07:06:52Z</time>
      </trkpt>
      <trkpt lat="42.47971" lon="2.95029">
        <ele>1118</ele>
        <time>2024-09-23T07:06:55Z</time>
      </trkpt>
      <trkpt lat="42.47968" lon="2.95032">
        <ele>1117</ele>
        <time>2024-09-23T07:06:58Z</time>
      </trkpt>
      <trkpt lat="42.47965" lon="2.95034">
        <ele>1116</ele>
        <time>2024-09-23T07:07:00Z</time>
      </trkpt>
      <trkpt lat="42.47964" lon="2.95037">
        <ele>1114</ele>
        <time>2024-09-23T07:07:05Z</time>
      </trkpt>
      <trkpt lat="42.47964" lon="2.9504">
        <ele>1113</ele>
        <time>2024-09-23T07:07:08Z</time>
      </trkpt>
      <trkpt lat="42.47963" lon="2.95042">
        <ele>1112</ele>
        <time>2024-09-23T07:07:11Z</time>
      </trkpt>
      <trkpt lat="42.4796" lon="2.95043">
        <ele>1111</ele>
        <time>2024-09-23T07:07:15Z</time>
      </trkpt>
      <trkpt lat="42.47958" lon="2.95045">
        <ele>1110</ele>
        <time>2024-09-23T07:07:24Z</time>
      </trkpt>
      <trkpt lat="42.47956" lon="2.95048">
        <ele>1110</ele>
        <time>2024-09-23T07:07:30Z</time>
      </trkpt>
      <trkpt lat="42.47954" lon="2.95051">
        <ele>1109</ele>
        <time>2024-09-23T07:07:33Z</time>
      </trkpt>
      <trkpt lat="42.47951" lon="2.95054">
        <ele>1108</ele>
        <time>2024-09-23T07:07:37Z</time>
      </trkpt>
      <trkpt lat="42.4795" lon="2.95057">
        <ele>1107</ele>
        <time>2024-09-23T07:07:40Z</time>
      </trkpt>
      <trkpt lat="42.47947" lon="2.95058">
        <ele>1106</ele>
        <time>2024-09-23T07:07:44Z</time>
      </trkpt>
      <trkpt lat="42.47944" lon="2.9506">
        <ele>1105</ele>
        <time>2024-09-23T07:07:47Z</time>
      </trkpt>
      <trkpt lat="42.47942" lon="2.95063">
        <ele>1104</ele>
        <time>2024-09-23T07:07:52Z</time>
      </trkpt>
      <trkpt lat="42.47939" lon="2.95064">
        <ele>1103</ele>
        <time>2024-09-23T07:08:37Z</time>
      </trkpt>
      <trkpt lat="42.47936" lon="2.95064">
        <ele>1101</ele>
        <time>2024-09-23T07:08:41Z</time>
      </trkpt>
      <trkpt lat="42.47933" lon="2.95065">
        <ele>1100</ele>
        <time>2024-09-23T07:08:44Z</time>
      </trkpt>
      <trkpt lat="42.4793" lon="2.95068">
        <ele>1099</ele>
        <time>2024-09-23T07:08:47Z</time>
      </trkpt>
      <trkpt lat="42.47927" lon="2.9507">
        <ele>1098</ele>
        <time>2024-09-23T07:08:49Z</time>
      </trkpt>
      <trkpt lat="42.47925" lon="2.95072">
        <ele>1097</ele>
        <time>2024-09-23T07:08:52Z</time>
      </trkpt>
      <trkpt lat="42.47923" lon="2.95075">
        <ele>1096</ele>
        <time>2024-09-23T07:08:55Z</time>
      </trkpt>
      <trkpt lat="42.4792" lon="2.95077">
        <ele>1096</ele>
        <time>2024-09-23T07:08:58Z</time>
      </trkpt>
      <trkpt lat="42.47918" lon="2.9508">
        <ele>1095</ele>
        <time>2024-09-23T07:09:00Z</time>
      </trkpt>
      <trkpt lat="42.47917" lon="2.95084">
        <ele>1095</ele>
        <time>2024-09-23T07:09:02Z</time>
      </trkpt>
      <trkpt lat="42.47915" lon="2.95087">
        <ele>1094</ele>
        <time>2024-09-23T07:09:05Z</time>
      </trkpt>
      <trkpt lat="42.47912" lon="2.95089">
        <ele>1094</ele>
        <time>2024-09-23T07:09:07Z</time>
      </trkpt>
      <trkpt lat="42.4791" lon="2.95093">
        <ele>1092</ele>
        <time>2024-09-23T07:09:09Z</time>
      </trkpt>
      <trkpt lat="42.47909" lon="2.95097">
        <ele>1092</ele>
        <time>2024-09-23T07:09:12Z</time>
      </trkpt>
      <trkpt lat="42.47907" lon="2.951">
        <ele>1091</ele>
        <time>2024-09-23T07:09:15Z</time>
      </trkpt>
      <trkpt lat="42.47905" lon="2.95104">
        <ele>1090</ele>
        <time>2024-09-23T07:09:18Z</time>
      </trkpt>
      <trkpt lat="42.47903" lon="2.95107">
        <ele>1089</ele>
        <time>2024-09-23T07:09:24Z</time>
      </trkpt>
      <trkpt lat="42.479" lon="2.9511">
        <ele>1086</ele>
        <time>2024-09-23T07:09:28Z</time>
      </trkpt>
      <trkpt lat="42.47898" lon="2.95111">
        <ele>1086</ele>
        <time>2024-09-23T07:09:30Z</time>
      </trkpt>
      <trkpt lat="42.47895" lon="2.95114">
        <ele>1085</ele>
        <time>2024-09-23T07:09:33Z</time>
      </trkpt>
      <trkpt lat="42.47893" lon="2.95118">
        <ele>1084</ele>
        <time>2024-09-23T07:09:36Z</time>
      </trkpt>
      <trkpt lat="42.47892" lon="2.95122">
        <ele>1083</ele>
        <time>2024-09-23T07:09:39Z</time>
      </trkpt>
      <trkpt lat="42.4789" lon="2.95126">
        <ele>1082</ele>
        <time>2024-09-23T07:09:42Z</time>
      </trkpt>
      <trkpt lat="42.47888" lon="2.9513">
        <ele>1082</ele>
        <time>2024-09-23T07:09:45Z</time>
      </trkpt>
      <trkpt lat="42.47886" lon="2.95133">
        <ele>1081</ele>
        <time>2024-09-23T07:09:48Z</time>
      </trkpt>
      <trkpt lat="42.47883" lon="2.95136">
        <ele>1080</ele>
        <time>2024-09-23T07:09:51Z</time>
      </trkpt>
      <trkpt lat="42.4788" lon="2.95137">
        <ele>1079</ele>
        <time>2024-09-23T07:09:55Z</time>
      </trkpt>
      <trkpt lat="42.47878" lon="2.9514">
        <ele>1077</ele>
        <time>2024-09-23T07:09:59Z</time>
      </trkpt>
      <trkpt lat="42.47875" lon="2.95142">
        <ele>1075</ele>
        <time>2024-09-23T07:10:04Z</time>
      </trkpt>
      <trkpt lat="42.47873" lon="2.95145">
        <ele>1073</ele>
        <time>2024-09-23T07:10:08Z</time>
      </trkpt>
      <trkpt lat="42.4787" lon="2.95148">
        <ele>1072</ele>
        <time>2024-09-23T07:10:11Z</time>
      </trkpt>
      <trkpt lat="42.47867" lon="2.9515">
        <ele>1072</ele>
        <time>2024-09-23T07:10:13Z</time>
      </trkpt>
      <trkpt lat="42.47864" lon="2.9515">
        <ele>1071</ele>
        <time>2024-09-23T07:10:16Z</time>
      </trkpt>
      <trkpt lat="42.47861" lon="2.95151">
        <ele>1071</ele>
        <time>2024-09-23T07:10:19Z</time>
      </trkpt>
      <trkpt lat="42.47858" lon="2.95154">
        <ele>1070</ele>
        <time>2024-09-23T07:10:21Z</time>
      </trkpt>
      <trkpt lat="42.47857" lon="2.95157">
        <ele>1069</ele>
        <time>2024-09-23T07:10:23Z</time>
      </trkpt>
      <trkpt lat="42.47856" lon="2.95161">
        <ele>1070</ele>
        <time>2024-09-23T07:10:25Z</time>
      </trkpt>
      <trkpt lat="42.47855" lon="2.95165">
        <ele>1069</ele>
        <time>2024-09-23T07:10:28Z</time>
      </trkpt>
      <trkpt lat="42.47855" lon="2.95169">
        <ele>1069</ele>
        <time>2024-09-23T07:10:31Z</time>
      </trkpt>
      <trkpt lat="42.47855" lon="2.95174">
        <ele>1067</ele>
        <time>2024-09-23T07:10:34Z</time>
      </trkpt>
      <trkpt lat="42.47856" lon="2.95179">
        <ele>1067</ele>
        <time>2024-09-23T07:10:37Z</time>
      </trkpt>
      <trkpt lat="42.47856" lon="2.95183">
        <ele>1066</ele>
        <time>2024-09-23T07:10:41Z</time>
      </trkpt>
      <trkpt lat="42.47856" lon="2.95187">
        <ele>1065</ele>
        <time>2024-09-23T07:10:44Z</time>
      </trkpt>
      <trkpt lat="42.47857" lon="2.95185">
        <ele>1064</ele>
        <time>2024-09-23T07:10:49Z</time>
      </trkpt>
      <trkpt lat="42.47856" lon="2.95181">
        <ele>1066</ele>
        <time>2024-09-23T07:10:52Z</time>
      </trkpt>
      <trkpt lat="42.47855" lon="2.95178">
        <ele>1066</ele>
        <time>2024-09-23T07:10:55Z</time>
      </trkpt>
      <trkpt lat="42.47852" lon="2.95176">
        <ele>1065</ele>
        <time>2024-09-23T07:10:57Z</time>
      </trkpt>
      <trkpt lat="42.47848" lon="2.95177">
        <ele>1066</ele>
        <time>2024-09-23T07:11:00Z</time>
      </trkpt>
      <trkpt lat="42.47844" lon="2.95179">
        <ele>1066</ele>
        <time>2024-09-23T07:11:03Z</time>
      </trkpt>
      <trkpt lat="42.47842" lon="2.95182">
        <ele>1065</ele>
        <time>2024-09-23T07:11:06Z</time>
      </trkpt>
      <trkpt lat="42.4784" lon="2.95187">
        <ele>1065</ele>
        <time>2024-09-23T07:11:09Z</time>
      </trkpt>
      <trkpt lat="42.4784" lon="2.95191">
        <ele>1064</ele>
        <time>2024-09-23T07:11:12Z</time>
      </trkpt>
      <trkpt lat="42.4784" lon="2.95195">
        <ele>1063</ele>
        <time>2024-09-23T07:11:14Z</time>
      </trkpt>
      <trkpt lat="42.47839" lon="2.95199">
        <ele>1062</ele>
        <time>2024-09-23T07:11:17Z</time>
      </trkpt>
      <trkpt lat="42.47836" lon="2.95201">
        <ele>1063</ele>
        <time>2024-09-23T07:11:19Z</time>
      </trkpt>
      <trkpt lat="42.47834" lon="2.95205">
        <ele>1061</ele>
        <time>2024-09-23T07:11:22Z</time>
      </trkpt>
      <trkpt lat="42.47833" lon="2.95208">
        <ele>1062</ele>
        <time>2024-09-23T07:11:24Z</time>
      </trkpt>
      <trkpt lat="42.47832" lon="2.95212">
        <ele>1062</ele>
        <time>2024-09-23T07:11:27Z</time>
      </trkpt>
      <trkpt lat="42.4783" lon="2.95216">
        <ele>1062</ele>
        <time>2024-09-23T07:11:30Z</time>
      </trkpt>
      <trkpt lat="42.47829" lon="2.95219">
        <ele>1062</ele>
        <time>2024-09-23T07:11:32Z</time>
      </trkpt>
      <trkpt lat="42.47827" lon="2.95222">
        <ele>1061</ele>
        <time>2024-09-23T07:11:35Z</time>
      </trkpt>
      <trkpt lat="42.47826" lon="2.95225">
        <ele>1060</ele>
        <time>2024-09-23T07:11:38Z</time>
      </trkpt>
      <trkpt lat="42.47824" lon="2.95229">
        <ele>1060</ele>
        <time>2024-09-23T07:11:41Z</time>
      </trkpt>
      <trkpt lat="42.47822" lon="2.95232">
        <ele>1060</ele>
        <time>2024-09-23T07:11:44Z</time>
      </trkpt>
      <trkpt lat="42.47818" lon="2.95234">
        <ele>1060</ele>
        <time>2024-09-23T07:11:55Z</time>
      </trkpt>
      <trkpt lat="42.47816" lon="2.95236">
        <ele>1060</ele>
        <time>2024-09-23T07:11:57Z</time>
      </trkpt>
      <trkpt lat="42.47813" lon="2.95239">
        <ele>1059</ele>
        <time>2024-09-23T07:12:00Z</time>
      </trkpt>
      <trkpt lat="42.47811" lon="2.95242">
        <ele>1058</ele>
        <time>2024-09-23T07:12:03Z</time>
      </trkpt>
      <trkpt lat="42.47808" lon="2.95246">
        <ele>1058</ele>
        <time>2024-09-23T07:12:06Z</time>
      </trkpt>
      <trkpt lat="42.47805" lon="2.95248">
        <ele>1059</ele>
        <time>2024-09-23T07:12:09Z</time>
      </trkpt>
      <trkpt lat="42.47803" lon="2.9525">
        <ele>1058</ele>
        <time>2024-09-23T07:12:11Z</time>
      </trkpt>
      <trkpt lat="42.47801" lon="2.95253">
        <ele>1058</ele>
        <time>2024-09-23T07:12:13Z</time>
      </trkpt>
      <trkpt lat="42.47799" lon="2.95256">
        <ele>1059</ele>
        <time>2024-09-23T07:12:15Z</time>
      </trkpt>
      <trkpt lat="42.47797" lon="2.95261">
        <ele>1058</ele>
        <time>2024-09-23T07:12:18Z</time>
      </trkpt>
      <trkpt lat="42.47794" lon="2.95264">
        <ele>1057</ele>
        <time>2024-09-23T07:12:21Z</time>
      </trkpt>
      <trkpt lat="42.47792" lon="2.95268">
        <ele>1057</ele>
        <time>2024-09-23T07:12:23Z</time>
      </trkpt>
      <trkpt lat="42.4779" lon="2.95272">
        <ele>1057</ele>
        <time>2024-09-23T07:12:26Z</time>
      </trkpt>
      <trkpt lat="42.47787" lon="2.95275">
        <ele>1057</ele>
        <time>2024-09-23T07:12:29Z</time>
      </trkpt>
      <trkpt lat="42.47785" lon="2.95278">
        <ele>1056</ele>
        <time>2024-09-23T07:12:31Z</time>
      </trkpt>
      <trkpt lat="42.47783" lon="2.95282">
        <ele>1056</ele>
        <time>2024-09-23T07:12:34Z</time>
      </trkpt>
      <trkpt lat="42.4778" lon="2.95285">
        <ele>1056</ele>
        <time>2024-09-23T07:12:36Z</time>
      </trkpt>
      <trkpt lat="42.47778" lon="2.95287">
        <ele>1056</ele>
        <time>2024-09-23T07:12:39Z</time>
      </trkpt>
      <trkpt lat="42.47776" lon="2.9529">
        <ele>1056</ele>
        <time>2024-09-23T07:12:41Z</time>
      </trkpt>
      <trkpt lat="42.47774" lon="2.95293">
        <ele>1055</ele>
        <time>2024-09-23T07:12:44Z</time>
      </trkpt>
      <trkpt lat="42.47772" lon="2.95296">
        <ele>1055</ele>
        <time>2024-09-23T07:12:48Z</time>
      </trkpt>
      <trkpt lat="42.4777" lon="2.95298">
        <ele>1056</ele>
        <time>2024-09-23T07:12:50Z</time>
      </trkpt>
      <trkpt lat="42.47767" lon="2.95301">
        <ele>1055</ele>
        <time>2024-09-23T07:12:53Z</time>
      </trkpt>
      <trkpt lat="42.47764" lon="2.95304">
        <ele>1055</ele>
        <time>2024-09-23T07:12:56Z</time>
      </trkpt>
      <trkpt lat="42.4776" lon="2.95305">
        <ele>1055</ele>
        <time>2024-09-23T07:12:59Z</time>
      </trkpt>
      <trkpt lat="42.47757" lon="2.95309">
        <ele>1055</ele>
        <time>2024-09-23T07:13:02Z</time>
      </trkpt>
      <trkpt lat="42.47754" lon="2.95312">
        <ele>1055</ele>
        <time>2024-09-23T07:13:05Z</time>
      </trkpt>
      <trkpt lat="42.47751" lon="2.95314">
        <ele>1055</ele>
        <time>2024-09-23T07:15:16Z</time>
      </trkpt>
      <trkpt lat="42.47749" lon="2.95317">
        <ele>1055</ele>
        <time>2024-09-23T07:15:23Z</time>
      </trkpt>
      <trkpt lat="42.47745" lon="2.95319">
        <ele>1055</ele>
        <time>2024-09-23T07:15:25Z</time>
      </trkpt>
      <trkpt lat="42.47743" lon="2.95322">
        <ele>1055</ele>
        <time>2024-09-23T07:15:28Z</time>
      </trkpt>
      <trkpt lat="42.47741" lon="2.95326">
        <ele>1055</ele>
        <time>2024-09-23T07:15:30Z</time>
      </trkpt>
      <trkpt lat="42.47738" lon="2.95329">
        <ele>1055</ele>
        <time>2024-09-23T07:15:33Z</time>
      </trkpt>
      <trkpt lat="42.47736" lon="2.95332">
        <ele>1055</ele>
        <time>2024-09-23T07:15:35Z</time>
      </trkpt>
      <trkpt lat="42.47734" lon="2.95336">
        <ele>1054</ele>
        <time>2024-09-23T07:15:38Z</time>
      </trkpt>
      <trkpt lat="42.47732" lon="2.95338">
        <ele>1055</ele>
        <time>2024-09-23T07:15:40Z</time>
      </trkpt>
      <trkpt lat="42.47729" lon="2.95342">
        <ele>1055</ele>
        <time>2024-09-23T07:15:43Z</time>
      </trkpt>
      <trkpt lat="42.47726" lon="2.95346">
        <ele>1055</ele>
        <time>2024-09-23T07:15:46Z</time>
      </trkpt>
      <trkpt lat="42.47724" lon="2.95349">
        <ele>1055</ele>
        <time>2024-09-23T07:15:49Z</time>
      </trkpt>
      <trkpt lat="42.47721" lon="2.95352">
        <ele>1055</ele>
        <time>2024-09-23T07:15:51Z</time>
      </trkpt>
      <trkpt lat="42.47719" lon="2.95356">
        <ele>1055</ele>
        <time>2024-09-23T07:15:54Z</time>
      </trkpt>
      <trkpt lat="42.47716" lon="2.95359">
        <ele>1054</ele>
        <time>2024-09-23T07:15:56Z</time>
      </trkpt>
      <trkpt lat="42.47714" lon="2.95361">
        <ele>1054</ele>
        <time>2024-09-23T07:15:58Z</time>
      </trkpt>
      <trkpt lat="42.47712" lon="2.95363">
        <ele>1054</ele>
        <time>2024-09-23T07:16:00Z</time>
      </trkpt>
      <trkpt lat="42.47709" lon="2.95365">
        <ele>1054</ele>
        <time>2024-09-23T07:16:02Z</time>
      </trkpt>
      <trkpt lat="42.47707" lon="2.95368">
        <ele>1053</ele>
        <time>2024-09-23T07:16:05Z</time>
      </trkpt>
      <trkpt lat="42.47704" lon="2.95371">
        <ele>1053</ele>
        <time>2024-09-23T07:16:08Z</time>
      </trkpt>
      <trkpt lat="42.47701" lon="2.95375">
        <ele>1052</ele>
        <time>2024-09-23T07:16:11Z</time>
      </trkpt>
      <trkpt lat="42.47698" lon="2.95378">
        <ele>1053</ele>
        <time>2024-09-23T07:16:14Z</time>
      </trkpt>
      <trkpt lat="42.47695" lon="2.95381">
        <ele>1053</ele>
        <time>2024-09-23T07:16:17Z</time>
      </trkpt>
      <trkpt lat="42.47692" lon="2.95385">
        <ele>1053</ele>
        <time>2024-09-23T07:16:20Z</time>
      </trkpt>
      <trkpt lat="42.4769" lon="2.95388">
        <ele>1053</ele>
        <time>2024-09-23T07:16:22Z</time>
      </trkpt>
      <trkpt lat="42.47687" lon="2.95391">
        <ele>1053</ele>
        <time>2024-09-23T07:16:25Z</time>
      </trkpt>
      <trkpt lat="42.47684" lon="2.95394">
        <ele>1052</ele>
        <time>2024-09-23T07:16:28Z</time>
      </trkpt>
      <trkpt lat="42.47681" lon="2.95398">
        <ele>1053</ele>
        <time>2024-09-23T07:16:31Z</time>
      </trkpt>
      <trkpt lat="42.47679" lon="2.95401">
        <ele>1053</ele>
        <time>2024-09-23T07:16:33Z</time>
      </trkpt>
      <trkpt lat="42.47677" lon="2.95405">
        <ele>1052</ele>
        <time>2024-09-23T07:16:36Z</time>
      </trkpt>
      <trkpt lat="42.47674" lon="2.95408">
        <ele>1053</ele>
        <time>2024-09-23T07:16:39Z</time>
      </trkpt>
      <trkpt lat="42.47672" lon="2.95412">
        <ele>1053</ele>
        <time>2024-09-23T07:16:42Z</time>
      </trkpt>
      <trkpt lat="42.47669" lon="2.95415">
        <ele>1053</ele>
        <time>2024-09-23T07:16:45Z</time>
      </trkpt>
      <trkpt lat="42.47667" lon="2.95419">
        <ele>1053</ele>
        <time>2024-09-23T07:16:48Z</time>
      </trkpt>
      <trkpt lat="42.47665" lon="2.95423">
        <ele>1052</ele>
        <time>2024-09-23T07:16:50Z</time>
      </trkpt>
      <trkpt lat="42.47663" lon="2.95426">
        <ele>1052</ele>
        <time>2024-09-23T07:16:52Z</time>
      </trkpt>
      <trkpt lat="42.47661" lon="2.95429">
        <ele>1051</ele>
        <time>2024-09-23T07:16:54Z</time>
      </trkpt>
      <trkpt lat="42.47659" lon="2.95432">
        <ele>1051</ele>
        <time>2024-09-23T07:16:58Z</time>
      </trkpt>
      <trkpt lat="42.47657" lon="2.95435">
        <ele>1051</ele>
        <time>2024-09-23T07:17:00Z</time>
      </trkpt>
      <trkpt lat="42.47656" lon="2.95439">
        <ele>1051</ele>
        <time>2024-09-23T07:17:03Z</time>
      </trkpt>
      <trkpt lat="42.47654" lon="2.95443">
        <ele>1051</ele>
        <time>2024-09-23T07:17:06Z</time>
      </trkpt>
      <trkpt lat="42.47652" lon="2.95448">
        <ele>1051</ele>
        <time>2024-09-23T07:17:09Z</time>
      </trkpt>
      <trkpt lat="42.4765" lon="2.95451">
        <ele>1051</ele>
        <time>2024-09-23T07:17:11Z</time>
      </trkpt>
      <trkpt lat="42.47647" lon="2.95456">
        <ele>1051</ele>
        <time>2024-09-23T07:17:14Z</time>
      </trkpt>
      <trkpt lat="42.47645" lon="2.95459">
        <ele>1051</ele>
        <time>2024-09-23T07:17:16Z</time>
      </trkpt>
      <trkpt lat="42.47643" lon="2.95463">
        <ele>1051</ele>
        <time>2024-09-23T07:17:19Z</time>
      </trkpt>
      <trkpt lat="42.47642" lon="2.95467">
        <ele>1051</ele>
        <time>2024-09-23T07:17:21Z</time>
      </trkpt>
      <trkpt lat="42.47641" lon="2.9547">
        <ele>1052</ele>
        <time>2024-09-23T07:17:23Z</time>
      </trkpt>
      <trkpt lat="42.47639" lon="2.95474">
        <ele>1051</ele>
        <time>2024-09-23T07:17:26Z</time>
      </trkpt>
      <trkpt lat="42.47637" lon="2.95478">
        <ele>1050</ele>
        <time>2024-09-23T07:17:29Z</time>
      </trkpt>
      <trkpt lat="42.47636" lon="2.95482">
        <ele>1050</ele>
        <time>2024-09-23T07:17:30Z</time>
      </trkpt>
      <trkpt lat="42.47635" lon="2.95486">
        <ele>1050</ele>
        <time>2024-09-23T07:17:32Z</time>
      </trkpt>
      <trkpt lat="42.47634" lon="2.95489">
        <ele>1049</ele>
        <time>2024-09-23T07:17:34Z</time>
      </trkpt>
      <trkpt lat="42.47633" lon="2.95494">
        <ele>1050</ele>
        <time>2024-09-23T07:17:37Z</time>
      </trkpt>
      <trkpt lat="42.47631" lon="2.95498">
        <ele>1050</ele>
        <time>2024-09-23T07:17:40Z</time>
      </trkpt>
      <trkpt lat="42.47629" lon="2.95502">
        <ele>1050</ele>
        <time>2024-09-23T07:17:42Z</time>
      </trkpt>
      <trkpt lat="42.47628" lon="2.95506">
        <ele>1050</ele>
        <time>2024-09-23T07:17:45Z</time>
      </trkpt>
      <trkpt lat="42.47626" lon="2.95511">
        <ele>1050</ele>
        <time>2024-09-23T07:17:48Z</time>
      </trkpt>
      <trkpt lat="42.47625" lon="2.95516">
        <ele>1050</ele>
        <time>2024-09-23T07:17:51Z</time>
      </trkpt>
      <trkpt lat="42.47623" lon="2.95521">
        <ele>1049</ele>
        <time>2024-09-23T07:17:54Z</time>
      </trkpt>
      <trkpt lat="42.47621" lon="2.95525">
        <ele>1049</ele>
        <time>2024-09-23T07:17:56Z</time>
      </trkpt>
      <trkpt lat="42.47619" lon="2.95529">
        <ele>1049</ele>
        <time>2024-09-23T07:17:59Z</time>
      </trkpt>
      <trkpt lat="42.47618" lon="2.95533">
        <ele>1049</ele>
        <time>2024-09-23T07:18:02Z</time>
      </trkpt>
      <trkpt lat="42.47616" lon="2.95538">
        <ele>1048</ele>
        <time>2024-09-23T07:18:09Z</time>
      </trkpt>
      <trkpt lat="42.47615" lon="2.95542">
        <ele>1048</ele>
        <time>2024-09-23T07:18:11Z</time>
      </trkpt>
      <trkpt lat="42.47614" lon="2.95546">
        <ele>1048</ele>
        <time>2024-09-23T07:18:14Z</time>
      </trkpt>
      <trkpt lat="42.47612" lon="2.9555">
        <ele>1048</ele>
        <time>2024-09-23T07:18:17Z</time>
      </trkpt>
      <trkpt lat="42.47611" lon="2.95554">
        <ele>1048</ele>
        <time>2024-09-23T07:18:19Z</time>
      </trkpt>
      <trkpt lat="42.4761" lon="2.95559">
        <ele>1048</ele>
        <time>2024-09-23T07:18:22Z</time>
      </trkpt>
      <trkpt lat="42.47609" lon="2.95564">
        <ele>1048</ele>
        <time>2024-09-23T07:18:25Z</time>
      </trkpt>
      <trkpt lat="42.47608" lon="2.95569">
        <ele>1049</ele>
        <time>2024-09-23T07:18:28Z</time>
      </trkpt>
      <trkpt lat="42.47607" lon="2.95574">
        <ele>1049</ele>
        <time>2024-09-23T07:18:31Z</time>
      </trkpt>
      <trkpt lat="42.47606" lon="2.95579">
        <ele>1050</ele>
        <time>2024-09-23T07:18:34Z</time>
      </trkpt>
      <trkpt lat="42.47606" lon="2.95583">
        <ele>1050</ele>
        <time>2024-09-23T07:18:36Z</time>
      </trkpt>
      <trkpt lat="42.47605" lon="2.95587">
        <ele>1050</ele>
        <time>2024-09-23T07:18:39Z</time>
      </trkpt>
      <trkpt lat="42.47604" lon="2.95591">
        <ele>1050</ele>
        <time>2024-09-23T07:18:41Z</time>
      </trkpt>
      <trkpt lat="42.47604" lon="2.95596">
        <ele>1050</ele>
        <time>2024-09-23T07:18:44Z</time>
      </trkpt>
      <trkpt lat="42.47603" lon="2.956">
        <ele>1051</ele>
        <time>2024-09-23T07:18:49Z</time>
      </trkpt>
      <trkpt lat="42.47602" lon="2.95606">
        <ele>1051</ele>
        <time>2024-09-23T07:18:52Z</time>
      </trkpt>
      <trkpt lat="42.47602" lon="2.9561">
        <ele>1050</ele>
        <time>2024-09-23T07:18:55Z</time>
      </trkpt>
      <trkpt lat="42.47602" lon="2.95614">
        <ele>1050</ele>
        <time>2024-09-23T07:18:57Z</time>
      </trkpt>
      <trkpt lat="42.47601" lon="2.95619">
        <ele>1050</ele>
        <time>2024-09-23T07:19:00Z</time>
      </trkpt>
      <trkpt lat="42.476" lon="2.95624">
        <ele>1051</ele>
        <time>2024-09-23T07:19:04Z</time>
      </trkpt>
      <trkpt lat="42.47601" lon="2.9563">
        <ele>1049</ele>
        <time>2024-09-23T07:19:07Z</time>
      </trkpt>
      <trkpt lat="42.47601" lon="2.95635">
        <ele>1050</ele>
        <time>2024-09-23T07:19:10Z</time>
      </trkpt>
      <trkpt lat="42.47601" lon="2.95639">
        <ele>1050</ele>
        <time>2024-09-23T07:19:12Z</time>
      </trkpt>
      <trkpt lat="42.47601" lon="2.95643">
        <ele>1050</ele>
        <time>2024-09-23T07:19:15Z</time>
      </trkpt>
      <trkpt lat="42.47599" lon="2.95647">
        <ele>1051</ele>
        <time>2024-09-23T07:19:17Z</time>
      </trkpt>
      <trkpt lat="42.47599" lon="2.95652">
        <ele>1051</ele>
        <time>2024-09-23T07:19:21Z</time>
      </trkpt>
      <trkpt lat="42.47598" lon="2.95656">
        <ele>1050</ele>
        <time>2024-09-23T07:19:24Z</time>
      </trkpt>
      <trkpt lat="42.47596" lon="2.9566">
        <ele>1050</ele>
        <time>2024-09-23T07:19:27Z</time>
      </trkpt>
      <trkpt lat="42.47594" lon="2.95664">
        <ele>1049</ele>
        <time>2024-09-23T07:19:29Z</time>
      </trkpt>
      <trkpt lat="42.47592" lon="2.95668">
        <ele>1049</ele>
        <time>2024-09-23T07:19:32Z</time>
      </trkpt>
      <trkpt lat="42.47591" lon="2.95672">
        <ele>1049</ele>
        <time>2024-09-23T07:19:35Z</time>
      </trkpt>
      <trkpt lat="42.47589" lon="2.95676">
        <ele>1050</ele>
        <time>2024-09-23T07:19:36Z</time>
      </trkpt>
      <trkpt lat="42.47589" lon="2.95681">
        <ele>1049</ele>
        <time>2024-09-23T07:19:39Z</time>
      </trkpt>
      <trkpt lat="42.4759" lon="2.95686">
        <ele>1048</ele>
        <time>2024-09-23T07:19:41Z</time>
      </trkpt>
      <trkpt lat="42.47591" lon="2.9569">
        <ele>1048</ele>
        <time>2024-09-23T07:19:44Z</time>
      </trkpt>
      <trkpt lat="42.47592" lon="2.95695">
        <ele>1047</ele>
        <time>2024-09-23T07:19:47Z</time>
      </trkpt>
      <trkpt lat="42.47591" lon="2.95699">
        <ele>1046</ele>
        <time>2024-09-23T07:19:50Z</time>
      </trkpt>
      <trkpt lat="42.47589" lon="2.95703">
        <ele>1047</ele>
        <time>2024-09-23T07:20:06Z</time>
      </trkpt>
      <trkpt lat="42.47588" lon="2.95707">
        <ele>1045</ele>
        <time>2024-09-23T07:20:09Z</time>
      </trkpt>
      <trkpt lat="42.47585" lon="2.9571">
        <ele>1045</ele>
        <time>2024-09-23T07:20:13Z</time>
      </trkpt>
      <trkpt lat="42.47582" lon="2.95713">
        <ele>1044</ele>
        <time>2024-09-23T07:20:15Z</time>
      </trkpt>
      <trkpt lat="42.4758" lon="2.95715">
        <ele>1045</ele>
        <time>2024-09-23T07:20:17Z</time>
      </trkpt>
      <trkpt lat="42.47577" lon="2.95718">
        <ele>1044</ele>
        <time>2024-09-23T07:20:20Z</time>
      </trkpt>
      <trkpt lat="42.47575" lon="2.95722">
        <ele>1045</ele>
        <time>2024-09-23T07:20:25Z</time>
      </trkpt>
      <trkpt lat="42.47573" lon="2.95726">
        <ele>1046</ele>
        <time>2024-09-23T07:20:28Z</time>
      </trkpt>
      <trkpt lat="42.47569" lon="2.95728">
        <ele>1046</ele>
        <time>2024-09-23T07:20:31Z</time>
      </trkpt>
      <trkpt lat="42.47566" lon="2.95731">
        <ele>1046</ele>
        <time>2024-09-23T07:20:34Z</time>
      </trkpt>
      <trkpt lat="42.47563" lon="2.95733">
        <ele>1045</ele>
        <time>2024-09-23T07:20:38Z</time>
      </trkpt>
      <trkpt lat="42.4756" lon="2.95736">
        <ele>1045</ele>
        <time>2024-09-23T07:20:41Z</time>
      </trkpt>
      <trkpt lat="42.47557" lon="2.95739">
        <ele>1044</ele>
        <time>2024-09-23T07:20:44Z</time>
      </trkpt>
      <trkpt lat="42.47555" lon="2.95741">
        <ele>1045</ele>
        <time>2024-09-23T07:20:46Z</time>
      </trkpt>
      <trkpt lat="42.47552" lon="2.95744">
        <ele>1043</ele>
        <time>2024-09-23T07:20:49Z</time>
      </trkpt>
      <trkpt lat="42.47549" lon="2.95747">
        <ele>1041</ele>
        <time>2024-09-23T07:20:52Z</time>
      </trkpt>
      <trkpt lat="42.47546" lon="2.9575">
        <ele>1042</ele>
        <time>2024-09-23T07:20:55Z</time>
      </trkpt>
      <trkpt lat="42.47544" lon="2.95753">
        <ele>1041</ele>
        <time>2024-09-23T07:20:57Z</time>
      </trkpt>
      <trkpt lat="42.47542" lon="2.95755">
        <ele>1040</ele>
        <time>2024-09-23T07:21:00Z</time>
      </trkpt>
      <trkpt lat="42.47539" lon="2.95757">
        <ele>1041</ele>
        <time>2024-09-23T07:21:02Z</time>
      </trkpt>
      <trkpt lat="42.47536" lon="2.95759">
        <ele>1040</ele>
        <time>2024-09-23T07:21:04Z</time>
      </trkpt>
      <trkpt lat="42.47533" lon="2.95761">
        <ele>1041</ele>
        <time>2024-09-23T07:21:06Z</time>
      </trkpt>
      <trkpt lat="42.47531" lon="2.95764">
        <ele>1041</ele>
        <time>2024-09-23T07:21:08Z</time>
      </trkpt>
      <trkpt lat="42.47529" lon="2.95767">
        <ele>1040</ele>
        <time>2024-09-23T07:21:11Z</time>
      </trkpt>
      <trkpt lat="42.47528" lon="2.95771">
        <ele>1040</ele>
        <time>2024-09-23T07:21:14Z</time>
      </trkpt>
      <trkpt lat="42.47526" lon="2.95774">
        <ele>1040</ele>
        <time>2024-09-23T07:21:16Z</time>
      </trkpt>
      <trkpt lat="42.47524" lon="2.95777">
        <ele>1040</ele>
        <time>2024-09-23T07:21:18Z</time>
      </trkpt>
      <trkpt lat="42.47523" lon="2.95781">
        <ele>1040</ele>
        <time>2024-09-23T07:21:20Z</time>
      </trkpt>
      <trkpt lat="42.47522" lon="2.95784">
        <ele>1039</ele>
        <time>2024-09-23T07:21:23Z</time>
      </trkpt>
      <trkpt lat="42.4752" lon="2.95788">
        <ele>1038</ele>
        <time>2024-09-23T07:21:25Z</time>
      </trkpt>
      <trkpt lat="42.47518" lon="2.95792">
        <ele>1038</ele>
        <time>2024-09-23T07:21:28Z</time>
      </trkpt>
      <trkpt lat="42.47517" lon="2.95796">
        <ele>1038</ele>
        <time>2024-09-23T07:21:30Z</time>
      </trkpt>
      <trkpt lat="42.47515" lon="2.95801">
        <ele>1038</ele>
        <time>2024-09-23T07:21:33Z</time>
      </trkpt>
      <trkpt lat="42.47514" lon="2.95805">
        <ele>1038</ele>
        <time>2024-09-23T07:21:36Z</time>
      </trkpt>
      <trkpt lat="42.47512" lon="2.9581">
        <ele>1038</ele>
        <time>2024-09-23T07:21:39Z</time>
      </trkpt>
      <trkpt lat="42.47511" lon="2.95814">
        <ele>1038</ele>
        <time>2024-09-23T07:21:41Z</time>
      </trkpt>
      <trkpt lat="42.47509" lon="2.95818">
        <ele>1036</ele>
        <time>2024-09-23T07:21:43Z</time>
      </trkpt>
      <trkpt lat="42.47508" lon="2.95822">
        <ele>1035</ele>
        <time>2024-09-23T07:21:45Z</time>
      </trkpt>
      <trkpt lat="42.47507" lon="2.95826">
        <ele>1035</ele>
        <time>2024-09-23T07:21:47Z</time>
      </trkpt>
      <trkpt lat="42.47506" lon="2.9583">
        <ele>1035</ele>
        <time>2024-09-23T07:21:50Z</time>
      </trkpt>
      <trkpt lat="42.47505" lon="2.95834">
        <ele>1035</ele>
        <time>2024-09-23T07:21:52Z</time>
      </trkpt>
      <trkpt lat="42.47504" lon="2.95839">
        <ele>1034</ele>
        <time>2024-09-23T07:21:55Z</time>
      </trkpt>
      <trkpt lat="42.47502" lon="2.95843">
        <ele>1034</ele>
        <time>2024-09-23T07:21:58Z</time>
      </trkpt>
      <trkpt lat="42.47501" lon="2.95846">
        <ele>1033</ele>
        <time>2024-09-23T07:22:00Z</time>
      </trkpt>
      <trkpt lat="42.475" lon="2.95851">
        <ele>1033</ele>
        <time>2024-09-23T07:22:03Z</time>
      </trkpt>
      <trkpt lat="42.47499" lon="2.95855">
        <ele>1033</ele>
        <time>2024-09-23T07:22:05Z</time>
      </trkpt>
      <trkpt lat="42.47498" lon="2.95859">
        <ele>1032</ele>
        <time>2024-09-23T07:22:07Z</time>
      </trkpt>
      <trkpt lat="42.47496" lon="2.95862">
        <ele>1032</ele>
        <time>2024-09-23T07:22:09Z</time>
      </trkpt>
      <trkpt lat="42.47494" lon="2.95865">
        <ele>1033</ele>
        <time>2024-09-23T07:22:11Z</time>
      </trkpt>
      <trkpt lat="42.47493" lon="2.95869">
        <ele>1032</ele>
        <time>2024-09-23T07:22:13Z</time>
      </trkpt>
      <trkpt lat="42.47493" lon="2.95872">
        <ele>1033</ele>
        <time>2024-09-23T07:22:15Z</time>
      </trkpt>
      <trkpt lat="42.47492" lon="2.95876">
        <ele>1032</ele>
        <time>2024-09-23T07:22:17Z</time>
      </trkpt>
      <trkpt lat="42.47491" lon="2.9588">
        <ele>1032</ele>
        <time>2024-09-23T07:22:19Z</time>
      </trkpt>
      <trkpt lat="42.47491" lon="2.95884">
        <ele>1033</ele>
        <time>2024-09-23T07:22:21Z</time>
      </trkpt>
      <trkpt lat="42.4749" lon="2.95888">
        <ele>1033</ele>
        <time>2024-09-23T07:22:23Z</time>
      </trkpt>
      <trkpt lat="42.47489" lon="2.95891">
        <ele>1033</ele>
        <time>2024-09-23T07:22:27Z</time>
      </trkpt>
      <trkpt lat="42.47488" lon="2.95895">
        <ele>1032</ele>
        <time>2024-09-23T07:22:31Z</time>
      </trkpt>
      <trkpt lat="42.47487" lon="2.95899">
        <ele>1032</ele>
        <time>2024-09-23T07:22:33Z</time>
      </trkpt>
      <trkpt lat="42.47485" lon="2.95903">
        <ele>1032</ele>
        <time>2024-09-23T07:22:36Z</time>
      </trkpt>
      <trkpt lat="42.47484" lon="2.95907">
        <ele>1030</ele>
        <time>2024-09-23T07:22:39Z</time>
      </trkpt>
      <trkpt lat="42.47482" lon="2.95911">
        <ele>1031</ele>
        <time>2024-09-23T07:22:42Z</time>
      </trkpt>
      <trkpt lat="42.47482" lon="2.95917">
        <ele>1031</ele>
        <time>2024-09-23T07:22:46Z</time>
      </trkpt>
      <trkpt lat="42.47481" lon="2.95921">
        <ele>1031</ele>
        <time>2024-09-23T07:22:48Z</time>
      </trkpt>
      <trkpt lat="42.4748" lon="2.95925">
        <ele>1031</ele>
        <time>2024-09-23T07:22:51Z</time>
      </trkpt>
      <trkpt lat="42.4748" lon="2.95929">
        <ele>1030</ele>
        <time>2024-09-23T07:22:54Z</time>
      </trkpt>
      <trkpt lat="42.4748" lon="2.95933">
        <ele>1029</ele>
        <time>2024-09-23T07:22:57Z</time>
      </trkpt>
      <trkpt lat="42.47479" lon="2.95938">
        <ele>1028</ele>
        <time>2024-09-23T07:23:01Z</time>
      </trkpt>
      <trkpt lat="42.47477" lon="2.95943">
        <ele>1029</ele>
        <time>2024-09-23T07:23:04Z</time>
      </trkpt>
      <trkpt lat="42.47476" lon="2.95947">
        <ele>1029</ele>
        <time>2024-09-23T07:23:06Z</time>
      </trkpt>
      <trkpt lat="42.47474" lon="2.9595">
        <ele>1027</ele>
        <time>2024-09-23T07:23:10Z</time>
      </trkpt>
      <trkpt lat="42.47473" lon="2.95954">
        <ele>1027</ele>
        <time>2024-09-23T07:23:13Z</time>
      </trkpt>
      <trkpt lat="42.47471" lon="2.95958">
        <ele>1028</ele>
        <time>2024-09-23T07:23:17Z</time>
      </trkpt>
      <trkpt lat="42.47469" lon="2.95961">
        <ele>1028</ele>
        <time>2024-09-23T07:23:20Z</time>
      </trkpt>
      <trkpt lat="42.47467" lon="2.95964">
        <ele>1027</ele>
        <time>2024-09-23T07:23:23Z</time>
      </trkpt>
      <trkpt lat="42.47465" lon="2.95968">
        <ele>1028</ele>
        <time>2024-09-23T07:23:26Z</time>
      </trkpt>
      <trkpt lat="42.47464" lon="2.95972">
        <ele>1027</ele>
        <time>2024-09-23T07:23:28Z</time>
      </trkpt>
      <trkpt lat="42.47462" lon="2.95976">
        <ele>1027</ele>
        <time>2024-09-23T07:23:31Z</time>
      </trkpt>
      <trkpt lat="42.4746" lon="2.9598">
        <ele>1026</ele>
        <time>2024-09-23T07:23:35Z</time>
      </trkpt>
      <trkpt lat="42.47458" lon="2.95984">
        <ele>1026</ele>
        <time>2024-09-23T07:23:38Z</time>
      </trkpt>
      <trkpt lat="42.47457" lon="2.95987">
        <ele>1025</ele>
        <time>2024-09-23T07:23:40Z</time>
      </trkpt>
      <trkpt lat="42.47454" lon="2.95991">
        <ele>1025</ele>
        <time>2024-09-23T07:23:44Z</time>
      </trkpt>
      <trkpt lat="42.47452" lon="2.95994">
        <ele>1025</ele>
        <time>2024-09-23T07:23:47Z</time>
      </trkpt>
      <trkpt lat="42.47451" lon="2.95998">
        <ele>1025</ele>
        <time>2024-09-23T07:23:51Z</time>
      </trkpt>
      <trkpt lat="42.47449" lon="2.96003">
        <ele>1025</ele>
        <time>2024-09-23T07:23:54Z</time>
      </trkpt>
      <trkpt lat="42.47447" lon="2.96006">
        <ele>1025</ele>
        <time>2024-09-23T07:23:58Z</time>
      </trkpt>
      <trkpt lat="42.47446" lon="2.96011">
        <ele>1025</ele>
        <time>2024-09-23T07:24:01Z</time>
      </trkpt>
      <trkpt lat="42.47444" lon="2.96014">
        <ele>1026</ele>
        <time>2024-09-23T07:24:05Z</time>
      </trkpt>
      <trkpt lat="42.47442" lon="2.96018">
        <ele>1025</ele>
        <time>2024-09-23T07:24:07Z</time>
      </trkpt>
      <trkpt lat="42.4744" lon="2.96021">
        <ele>1024</ele>
        <time>2024-09-23T07:24:10Z</time>
      </trkpt>
      <trkpt lat="42.47438" lon="2.96025">
        <ele>1024</ele>
        <time>2024-09-23T07:24:14Z</time>
      </trkpt>
      <trkpt lat="42.47435" lon="2.96028">
        <ele>1024</ele>
        <time>2024-09-23T07:24:18Z</time>
      </trkpt>
      <trkpt lat="42.47431" lon="2.96033">
        <ele>1025</ele>
        <time>2024-09-23T07:24:22Z</time>
      </trkpt>
      <trkpt lat="42.47429" lon="2.96037">
        <ele>1024</ele>
        <time>2024-09-23T07:24:26Z</time>
      </trkpt>
      <trkpt lat="42.47426" lon="2.9604">
        <ele>1024</ele>
        <time>2024-09-23T07:24:29Z</time>
      </trkpt>
      <trkpt lat="42.47423" lon="2.96042">
        <ele>1023</ele>
        <time>2024-09-23T07:24:32Z</time>
      </trkpt>
      <trkpt lat="42.4742" lon="2.96043">
        <ele>1023</ele>
        <time>2024-09-23T07:24:35Z</time>
      </trkpt>
      <trkpt lat="42.47417" lon="2.96044">
        <ele>1022</ele>
        <time>2024-09-23T07:24:39Z</time>
      </trkpt>
      <trkpt lat="42.47414" lon="2.96045">
        <ele>1022</ele>
        <time>2024-09-23T07:24:42Z</time>
      </trkpt>
      <trkpt lat="42.47411" lon="2.96047">
        <ele>1022</ele>
        <time>2024-09-23T07:24:45Z</time>
      </trkpt>
      <trkpt lat="42.47408" lon="2.9605">
        <ele>1021</ele>
        <time>2024-09-23T07:24:48Z</time>
      </trkpt>
      <trkpt lat="42.47406" lon="2.96054">
        <ele>1021</ele>
        <time>2024-09-23T07:24:51Z</time>
      </trkpt>
      <trkpt lat="42.47403" lon="2.96056">
        <ele>1022</ele>
        <time>2024-09-23T07:24:53Z</time>
      </trkpt>
      <trkpt lat="42.474" lon="2.96058">
        <ele>1022</ele>
        <time>2024-09-23T07:24:56Z</time>
      </trkpt>
      <trkpt lat="42.47397" lon="2.9606">
        <ele>1019</ele>
        <time>2024-09-23T07:25:00Z</time>
      </trkpt>
      <trkpt lat="42.47394" lon="2.96062">
        <ele>1018</ele>
        <time>2024-09-23T07:25:03Z</time>
      </trkpt>
      <trkpt lat="42.47392" lon="2.96063">
        <ele>1018</ele>
        <time>2024-09-23T07:25:05Z</time>
      </trkpt>
      <trkpt lat="42.47389" lon="2.96066">
        <ele>1017</ele>
        <time>2024-09-23T07:25:07Z</time>
      </trkpt>
      <trkpt lat="42.47387" lon="2.96068">
        <ele>1017</ele>
        <time>2024-09-23T07:25:08Z</time>
      </trkpt>
      <trkpt lat="42.47384" lon="2.96071">
        <ele>1017</ele>
        <time>2024-09-23T07:25:10Z</time>
      </trkpt>
      <trkpt lat="42.4738" lon="2.96073">
        <ele>1016</ele>
        <time>2024-09-23T07:25:13Z</time>
      </trkpt>
      <trkpt lat="42.47377" lon="2.96071">
        <ele>1015</ele>
        <time>2024-09-23T07:25:16Z</time>
      </trkpt>
      <trkpt lat="42.47374" lon="2.96072">
        <ele>1015</ele>
        <time>2024-09-23T07:25:19Z</time>
      </trkpt>
      <trkpt lat="42.47371" lon="2.96074">
        <ele>1014</ele>
        <time>2024-09-23T07:25:23Z</time>
      </trkpt>
      <trkpt lat="42.47367" lon="2.96076">
        <ele>1014</ele>
        <time>2024-09-23T07:25:25Z</time>
      </trkpt>
      <trkpt lat="42.47367" lon="2.96077">
        <ele>1014</ele>
        <time>2024-09-23T07:25:28Z</time>
      </trkpt>
      <trkpt lat="42.47369" lon="2.96077">
        <ele>1015</ele>
        <time>2024-09-23T07:25:32Z</time>
      </trkpt>
      <trkpt lat="42.47372" lon="2.96076">
        <ele>1018</ele>
        <time>2024-09-23T07:25:37Z</time>
      </trkpt>
      <trkpt lat="42.47371" lon="2.96077">
        <ele>1016</ele>
        <time>2024-09-23T07:25:45Z</time>
      </trkpt>
      <trkpt lat="42.47368" lon="2.96078">
        <ele>1016</ele>
        <time>2024-09-23T07:25:47Z</time>
      </trkpt>
      <trkpt lat="42.47365" lon="2.96079">
        <ele>1017</ele>
        <time>2024-09-23T07:25:49Z</time>
      </trkpt>
      <trkpt lat="42.47362" lon="2.96079">
        <ele>1016</ele>
        <time>2024-09-23T07:25:52Z</time>
      </trkpt>
      <trkpt lat="42.47358" lon="2.96079">
        <ele>1016</ele>
        <time>2024-09-23T07:25:54Z</time>
      </trkpt>
      <trkpt lat="42.47354" lon="2.96081">
        <ele>1016</ele>
        <time>2024-09-23T07:25:58Z</time>
      </trkpt>
      <trkpt lat="42.47351" lon="2.96083">
        <ele>1017</ele>
        <time>2024-09-23T07:26:00Z</time>
      </trkpt>
      <trkpt lat="42.47348" lon="2.96084">
        <ele>1018</ele>
        <time>2024-09-23T07:26:05Z</time>
      </trkpt>
      <trkpt lat="42.47344" lon="2.96084">
        <ele>1018</ele>
        <time>2024-09-23T07:26:08Z</time>
      </trkpt>
      <trkpt lat="42.47341" lon="2.96082">
        <ele>1019</ele>
        <time>2024-09-23T07:26:13Z</time>
      </trkpt>
      <trkpt lat="42.47339" lon="2.96079">
        <ele>1020</ele>
        <time>2024-09-23T07:26:20Z</time>
      </trkpt>
      <trkpt lat="42.47336" lon="2.96076">
        <ele>1021</ele>
        <time>2024-09-23T07:26:25Z</time>
      </trkpt>
      <trkpt lat="42.47334" lon="2.96074">
        <ele>1021</ele>
        <time>2024-09-23T07:26:29Z</time>
      </trkpt>
      <trkpt lat="42.4733" lon="2.96072">
        <ele>1022</ele>
        <time>2024-09-23T07:26:32Z</time>
      </trkpt>
      <trkpt lat="42.47326" lon="2.9607">
        <ele>1023</ele>
        <time>2024-09-23T07:26:37Z</time>
      </trkpt>
      <trkpt lat="42.47323" lon="2.96069">
        <ele>1023</ele>
        <time>2024-09-23T07:26:40Z</time>
      </trkpt>
      <trkpt lat="42.4732" lon="2.96069">
        <ele>1022</ele>
        <time>2024-09-23T07:26:48Z</time>
      </trkpt>
      <trkpt lat="42.47317" lon="2.9607">
        <ele>1022</ele>
        <time>2024-09-23T07:26:57Z</time>
      </trkpt>
      <trkpt lat="42.47318" lon="2.96072">
        <ele>1022</ele>
        <time>2024-09-23T07:27:09Z</time>
      </trkpt>
      <trkpt lat="42.47316" lon="2.96072">
        <ele>1022</ele>
        <time>2024-09-23T07:27:24Z</time>
      </trkpt>
      <trkpt lat="42.47314" lon="2.96073">
        <ele>1022</ele>
        <time>2024-09-23T07:27:28Z</time>
      </trkpt>
      <trkpt lat="42.47312" lon="2.96075">
        <ele>1023</ele>
        <time>2024-09-23T07:27:31Z</time>
      </trkpt>
      <trkpt lat="42.4731" lon="2.96077">
        <ele>1024</ele>
        <time>2024-09-23T07:27:34Z</time>
      </trkpt>
      <trkpt lat="42.47307" lon="2.96078">
        <ele>1025</ele>
        <time>2024-09-23T07:27:38Z</time>
      </trkpt>
      <trkpt lat="42.47303" lon="2.9608">
        <ele>1026</ele>
        <time>2024-09-23T07:27:42Z</time>
      </trkpt>
      <trkpt lat="42.47301" lon="2.96083">
        <ele>1027</ele>
        <time>2024-09-23T07:27:46Z</time>
      </trkpt>
      <trkpt lat="42.47298" lon="2.96086">
        <ele>1027</ele>
        <time>2024-09-23T07:27:50Z</time>
      </trkpt>
      <trkpt lat="42.47296" lon="2.96089">
        <ele>1028</ele>
        <time>2024-09-23T07:27:55Z</time>
      </trkpt>
      <trkpt lat="42.47292" lon="2.9609">
        <ele>1028</ele>
        <time>2024-09-23T07:27:58Z</time>
      </trkpt>
      <trkpt lat="42.47289" lon="2.96092">
        <ele>1029</ele>
        <time>2024-09-23T07:28:02Z</time>
      </trkpt>
      <trkpt lat="42.47286" lon="2.96094">
        <ele>1030</ele>
        <time>2024-09-23T07:28:07Z</time>
      </trkpt>
      <trkpt lat="42.47283" lon="2.96096">
        <ele>1031</ele>
        <time>2024-09-23T07:28:11Z</time>
      </trkpt>
      <trkpt lat="42.4728" lon="2.96098">
        <ele>1032</ele>
        <time>2024-09-23T07:28:15Z</time>
      </trkpt>
      <trkpt lat="42.47278" lon="2.96101">
        <ele>1033</ele>
        <time>2024-09-23T07:28:19Z</time>
      </trkpt>
      <trkpt lat="42.47275" lon="2.96104">
        <ele>1032</ele>
        <time>2024-09-23T07:28:23Z</time>
      </trkpt>
      <trkpt lat="42.47273" lon="2.96107">
        <ele>1033</ele>
        <time>2024-09-23T07:28:27Z</time>
      </trkpt>
      <trkpt lat="42.4727" lon="2.9611">
        <ele>1033</ele>
        <time>2024-09-23T07:28:32Z</time>
      </trkpt>
      <trkpt lat="42.47267" lon="2.96112">
        <ele>1034</ele>
        <time>2024-09-23T07:28:36Z</time>
      </trkpt>
      <trkpt lat="42.47264" lon="2.96114">
        <ele>1035</ele>
        <time>2024-09-23T07:28:39Z</time>
      </trkpt>
      <trkpt lat="42.47261" lon="2.96116">
        <ele>1036</ele>
        <time>2024-09-23T07:28:43Z</time>
      </trkpt>
      <trkpt lat="42.47259" lon="2.96118">
        <ele>1037</ele>
        <time>2024-09-23T07:28:47Z</time>
      </trkpt>
      <trkpt lat="42.47257" lon="2.96121">
        <ele>1037</ele>
        <time>2024-09-23T07:28:51Z</time>
      </trkpt>
      <trkpt lat="42.47254" lon="2.96124">
        <ele>1038</ele>
        <time>2024-09-23T07:28:55Z</time>
      </trkpt>
      <trkpt lat="42.47252" lon="2.96126">
        <ele>1040</ele>
        <time>2024-09-23T07:28:59Z</time>
      </trkpt>
      <trkpt lat="42.47249" lon="2.96128">
        <ele>1040</ele>
        <time>2024-09-23T07:29:02Z</time>
      </trkpt>
      <trkpt lat="42.47247" lon="2.9613">
        <ele>1041</ele>
        <time>2024-09-23T07:29:06Z</time>
      </trkpt>
      <trkpt lat="42.47244" lon="2.96132">
        <ele>1042</ele>
        <time>2024-09-23T07:29:10Z</time>
      </trkpt>
      <trkpt lat="42.47241" lon="2.96134">
        <ele>1043</ele>
        <time>2024-09-23T07:29:14Z</time>
      </trkpt>
      <trkpt lat="42.47238" lon="2.96136">
        <ele>1043</ele>
        <time>2024-09-23T07:29:18Z</time>
      </trkpt>
      <trkpt lat="42.47234" lon="2.96137">
        <ele>1043</ele>
        <time>2024-09-23T07:29:22Z</time>
      </trkpt>
      <trkpt lat="42.47231" lon="2.96138">
        <ele>1043</ele>
        <time>2024-09-23T07:29:25Z</time>
      </trkpt>
      <trkpt lat="42.47229" lon="2.96141">
        <ele>1043</ele>
        <time>2024-09-23T07:29:28Z</time>
      </trkpt>
      <trkpt lat="42.47226" lon="2.96143">
        <ele>1043</ele>
        <time>2024-09-23T07:29:32Z</time>
      </trkpt>
      <trkpt lat="42.47223" lon="2.96144">
        <ele>1042</ele>
        <time>2024-09-23T07:29:35Z</time>
      </trkpt>
      <trkpt lat="42.4722" lon="2.96146">
        <ele>1042</ele>
        <time>2024-09-23T07:29:38Z</time>
      </trkpt>
      <trkpt lat="42.47217" lon="2.96147">
        <ele>1042</ele>
        <time>2024-09-23T07:29:41Z</time>
      </trkpt>
      <trkpt lat="42.47213" lon="2.96147">
        <ele>1041</ele>
        <time>2024-09-23T07:29:47Z</time>
      </trkpt>
      <trkpt lat="42.4721" lon="2.96148">
        <ele>1042</ele>
        <time>2024-09-23T07:29:50Z</time>
      </trkpt>
      <trkpt lat="42.47206" lon="2.96148">
        <ele>1041</ele>
        <time>2024-09-23T07:29:53Z</time>
      </trkpt>
      <trkpt lat="42.47203" lon="2.96149">
        <ele>1042</ele>
        <time>2024-09-23T07:29:55Z</time>
      </trkpt>
      <trkpt lat="42.472" lon="2.9615">
        <ele>1041</ele>
        <time>2024-09-23T07:29:58Z</time>
      </trkpt>
      <trkpt lat="42.47197" lon="2.96151">
        <ele>1041</ele>
        <time>2024-09-23T07:30:01Z</time>
      </trkpt>
      <trkpt lat="42.47194" lon="2.96152">
        <ele>1040</ele>
        <time>2024-09-23T07:30:14Z</time>
      </trkpt>
      <trkpt lat="42.47191" lon="2.96153">
        <ele>1039</ele>
        <time>2024-09-23T07:30:22Z</time>
      </trkpt>
      <trkpt lat="42.47188" lon="2.96154">
        <ele>1039</ele>
        <time>2024-09-23T07:30:30Z</time>
      </trkpt>
      <trkpt lat="42.47185" lon="2.96155">
        <ele>1040</ele>
        <time>2024-09-23T07:30:33Z</time>
      </trkpt>
      <trkpt lat="42.47182" lon="2.96156">
        <ele>1040</ele>
        <time>2024-09-23T07:30:36Z</time>
      </trkpt>
      <trkpt lat="42.47178" lon="2.96157">
        <ele>1040</ele>
        <time>2024-09-23T07:30:39Z</time>
      </trkpt>
      <trkpt lat="42.47175" lon="2.96158">
        <ele>1039</ele>
        <time>2024-09-23T07:30:42Z</time>
      </trkpt>
      <trkpt lat="42.47172" lon="2.96158">
        <ele>1039</ele>
        <time>2024-09-23T07:30:45Z</time>
      </trkpt>
      <trkpt lat="42.47169" lon="2.96159">
        <ele>1040</ele>
        <time>2024-09-23T07:30:47Z</time>
      </trkpt>
      <trkpt lat="42.47166" lon="2.96162">
        <ele>1041</ele>
        <time>2024-09-23T07:30:50Z</time>
      </trkpt>
      <trkpt lat="42.47163" lon="2.96164">
        <ele>1040</ele>
        <time>2024-09-23T07:30:52Z</time>
      </trkpt>
      <trkpt lat="42.4716" lon="2.96164">
        <ele>1042</ele>
        <time>2024-09-23T07:30:54Z</time>
      </trkpt>
      <trkpt lat="42.47157" lon="2.96163">
        <ele>1042</ele>
        <time>2024-09-23T07:30:56Z</time>
      </trkpt>
      <trkpt lat="42.47154" lon="2.96164">
        <ele>1042</ele>
        <time>2024-09-23T07:31:02Z</time>
      </trkpt>
      <trkpt lat="42.4715" lon="2.96165">
        <ele>1042</ele>
        <time>2024-09-23T07:31:05Z</time>
      </trkpt>
      <trkpt lat="42.47147" lon="2.96167">
        <ele>1042</ele>
        <time>2024-09-23T07:31:08Z</time>
      </trkpt>
      <trkpt lat="42.47143" lon="2.96168">
        <ele>1041</ele>
        <time>2024-09-23T07:31:11Z</time>
      </trkpt>
      <trkpt lat="42.4714" lon="2.96169">
        <ele>1041</ele>
        <time>2024-09-23T07:31:13Z</time>
      </trkpt>
      <trkpt lat="42.47137" lon="2.9617">
        <ele>1042</ele>
        <time>2024-09-23T07:31:15Z</time>
      </trkpt>
      <trkpt lat="42.47135" lon="2.96172">
        <ele>1042</ele>
        <time>2024-09-23T07:31:20Z</time>
      </trkpt>
      <trkpt lat="42.47131" lon="2.96172">
        <ele>1042</ele>
        <time>2024-09-23T07:31:23Z</time>
      </trkpt>
      <trkpt lat="42.47128" lon="2.96173">
        <ele>1042</ele>
        <time>2024-09-23T07:31:27Z</time>
      </trkpt>
      <trkpt lat="42.47125" lon="2.96174">
        <ele>1042</ele>
        <time>2024-09-23T07:31:30Z</time>
      </trkpt>
      <trkpt lat="42.47121" lon="2.96175">
        <ele>1045</ele>
        <time>2024-09-23T07:31:31Z</time>
      </trkpt>
      <trkpt lat="42.47117" lon="2.96175">
        <ele>1043</ele>
        <time>2024-09-23T07:31:38Z</time>
      </trkpt>
      <trkpt lat="42.47114" lon="2.96177">
        <ele>1045</ele>
        <time>2024-09-23T07:31:42Z</time>
      </trkpt>
      <trkpt lat="42.47111" lon="2.96178">
        <ele>1045</ele>
        <time>2024-09-23T07:31:43Z</time>
      </trkpt>
      <trkpt lat="42.47109" lon="2.96182">
        <ele>1044</ele>
        <time>2024-09-23T07:31:46Z</time>
      </trkpt>
      <trkpt lat="42.47108" lon="2.96186">
        <ele>1044</ele>
        <time>2024-09-23T07:31:49Z</time>
      </trkpt>
      <trkpt lat="42.47105" lon="2.96188">
        <ele>1046</ele>
        <time>2024-09-23T07:31:52Z</time>
      </trkpt>
      <trkpt lat="42.47102" lon="2.96188">
        <ele>1047</ele>
        <time>2024-09-23T07:31:55Z</time>
      </trkpt>
      <trkpt lat="42.47099" lon="2.96188">
        <ele>1048</ele>
        <time>2024-09-23T07:31:58Z</time>
      </trkpt>
      <trkpt lat="42.47096" lon="2.96189">
        <ele>1048</ele>
        <time>2024-09-23T07:32:01Z</time>
      </trkpt>
      <trkpt lat="42.47093" lon="2.96189">
        <ele>1048</ele>
        <time>2024-09-23T07:32:04Z</time>
      </trkpt>
      <trkpt lat="42.4709" lon="2.96191">
        <ele>1048</ele>
        <time>2024-09-23T07:32:08Z</time>
      </trkpt>
      <trkpt lat="42.47087" lon="2.96193">
        <ele>1048</ele>
        <time>2024-09-23T07:32:10Z</time>
      </trkpt>
      <trkpt lat="42.47085" lon="2.96195">
        <ele>1048</ele>
        <time>2024-09-23T07:32:12Z</time>
      </trkpt>
      <trkpt lat="42.47082" lon="2.96198">
        <ele>1048</ele>
        <time>2024-09-23T07:32:15Z</time>
      </trkpt>
      <trkpt lat="42.47079" lon="2.962">
        <ele>1047</ele>
        <time>2024-09-23T07:32:18Z</time>
      </trkpt>
      <trkpt lat="42.47075" lon="2.96203">
        <ele>1047</ele>
        <time>2024-09-23T07:32:21Z</time>
      </trkpt>
      <trkpt lat="42.47073" lon="2.96202">
        <ele>1047</ele>
        <time>2024-09-23T07:32:24Z</time>
      </trkpt>
      <trkpt lat="42.4707" lon="2.96203">
        <ele>1047</ele>
        <time>2024-09-23T07:32:27Z</time>
      </trkpt>
      <trkpt lat="42.47068" lon="2.96205">
        <ele>1047</ele>
        <time>2024-09-23T07:32:30Z</time>
      </trkpt>
      <trkpt lat="42.47067" lon="2.96209">
        <ele>1047</ele>
        <time>2024-09-23T07:32:32Z</time>
      </trkpt>
      <trkpt lat="42.47067" lon="2.96213">
        <ele>1046</ele>
        <time>2024-09-23T07:32:35Z</time>
      </trkpt>
      <trkpt lat="42.47067" lon="2.96217">
        <ele>1045</ele>
        <time>2024-09-23T07:32:39Z</time>
      </trkpt>
      <trkpt lat="42.47068" lon="2.96221">
        <ele>1045</ele>
        <time>2024-09-23T07:32:42Z</time>
      </trkpt>
      <trkpt lat="42.47069" lon="2.96224">
        <ele>1047</ele>
        <time>2024-09-23T07:32:45Z</time>
      </trkpt>
      <trkpt lat="42.47071" lon="2.96226">
        <ele>1046</ele>
        <time>2024-09-23T07:32:50Z</time>
      </trkpt>
      <trkpt lat="42.47073" lon="2.96228">
        <ele>1046</ele>
        <time>2024-09-23T07:32:54Z</time>
      </trkpt>
      <trkpt lat="42.47076" lon="2.96228">
        <ele>1046</ele>
        <time>2024-09-23T07:33:00Z</time>
      </trkpt>
      <trkpt lat="42.47075" lon="2.96228">
        <ele>1045</ele>
        <time>2024-09-23T07:33:07Z</time>
      </trkpt>
      <trkpt lat="42.47072" lon="2.96228">
        <ele>1046</ele>
        <time>2024-09-23T07:33:10Z</time>
      </trkpt>
      <trkpt lat="42.47069" lon="2.96227">
        <ele>1046</ele>
        <time>2024-09-23T07:33:13Z</time>
      </trkpt>
      <trkpt lat="42.47066" lon="2.96227">
        <ele>1047</ele>
        <time>2024-09-23T07:33:16Z</time>
      </trkpt>
      <trkpt lat="42.47063" lon="2.96227">
        <ele>1047</ele>
        <time>2024-09-23T07:33:19Z</time>
      </trkpt>
      <trkpt lat="42.47059" lon="2.96228">
        <ele>1047</ele>
        <time>2024-09-23T07:33:22Z</time>
      </trkpt>
      <trkpt lat="42.47056" lon="2.96229">
        <ele>1047</ele>
        <time>2024-09-23T07:33:24Z</time>
      </trkpt>
      <trkpt lat="42.47053" lon="2.96231">
        <ele>1046</ele>
        <time>2024-09-23T07:33:27Z</time>
      </trkpt>
      <trkpt lat="42.47051" lon="2.96234">
        <ele>1047</ele>
        <time>2024-09-23T07:33:29Z</time>
      </trkpt>
      <trkpt lat="42.4705" lon="2.96238">
        <ele>1048</ele>
        <time>2024-09-23T07:33:32Z</time>
      </trkpt>
      <trkpt lat="42.47049" lon="2.96242">
        <ele>1049</ele>
        <time>2024-09-23T07:33:34Z</time>
      </trkpt>
      <trkpt lat="42.47047" lon="2.96246">
        <ele>1049</ele>
        <time>2024-09-23T07:33:36Z</time>
      </trkpt>
      <trkpt lat="42.47046" lon="2.96249">
        <ele>1048</ele>
        <time>2024-09-23T07:33:39Z</time>
      </trkpt>
      <trkpt lat="42.47045" lon="2.96253">
        <ele>1047</ele>
        <time>2024-09-23T07:33:43Z</time>
      </trkpt>
      <trkpt lat="42.47044" lon="2.96257">
        <ele>1047</ele>
        <time>2024-09-23T07:33:45Z</time>
      </trkpt>
      <trkpt lat="42.47042" lon="2.9626">
        <ele>1047</ele>
        <time>2024-09-23T07:33:47Z</time>
      </trkpt>
      <trkpt lat="42.4704" lon="2.96263">
        <ele>1046</ele>
        <time>2024-09-23T07:33:49Z</time>
      </trkpt>
      <trkpt lat="42.47039" lon="2.96268">
        <ele>1046</ele>
        <time>2024-09-23T07:33:52Z</time>
      </trkpt>
      <trkpt lat="42.47037" lon="2.96271">
        <ele>1045</ele>
        <time>2024-09-23T07:33:54Z</time>
      </trkpt>
      <trkpt lat="42.47035" lon="2.96275">
        <ele>1045</ele>
        <time>2024-09-23T07:33:57Z</time>
      </trkpt>
      <trkpt lat="42.47032" lon="2.96278">
        <ele>1045</ele>
        <time>2024-09-23T07:33:59Z</time>
      </trkpt>
      <trkpt lat="42.4703" lon="2.96281">
        <ele>1043</ele>
        <time>2024-09-23T07:34:01Z</time>
      </trkpt>
      <trkpt lat="42.47029" lon="2.96284">
        <ele>1044</ele>
        <time>2024-09-23T07:34:03Z</time>
      </trkpt>
      <trkpt lat="42.47026" lon="2.96286">
        <ele>1045</ele>
        <time>2024-09-23T07:34:06Z</time>
      </trkpt>
      <trkpt lat="42.47024" lon="2.96289">
        <ele>1044</ele>
        <time>2024-09-23T07:34:09Z</time>
      </trkpt>
      <trkpt lat="42.47022" lon="2.96293">
        <ele>1045</ele>
        <time>2024-09-23T07:34:11Z</time>
      </trkpt>
      <trkpt lat="42.47019" lon="2.96295">
        <ele>1044</ele>
        <time>2024-09-23T07:34:13Z</time>
      </trkpt>
      <trkpt lat="42.47017" lon="2.96298">
        <ele>1043</ele>
        <time>2024-09-23T07:34:15Z</time>
      </trkpt>
      <trkpt lat="42.47015" lon="2.96301">
        <ele>1044</ele>
        <time>2024-09-23T07:34:17Z</time>
      </trkpt>
      <trkpt lat="42.47013" lon="2.96304">
        <ele>1044</ele>
        <time>2024-09-23T07:34:19Z</time>
      </trkpt>
      <trkpt lat="42.47011" lon="2.96306">
        <ele>1045</ele>
        <time>2024-09-23T07:34:21Z</time>
      </trkpt>
      <trkpt lat="42.47008" lon="2.96309">
        <ele>1045</ele>
        <time>2024-09-23T07:34:23Z</time>
      </trkpt>
      <trkpt lat="42.47004" lon="2.9631">
        <ele>1046</ele>
        <time>2024-09-23T07:34:26Z</time>
      </trkpt>
      <trkpt lat="42.47001" lon="2.9631">
        <ele>1047</ele>
        <time>2024-09-23T07:34:29Z</time>
      </trkpt>
      <trkpt lat="42.46997" lon="2.96311">
        <ele>1044</ele>
        <time>2024-09-23T07:34:34Z</time>
      </trkpt>
      <trkpt lat="42.46994" lon="2.96314">
        <ele>1045</ele>
        <time>2024-09-23T07:34:36Z</time>
      </trkpt>
      <trkpt lat="42.46991" lon="2.96317">
        <ele>1044</ele>
        <time>2024-09-23T07:34:38Z</time>
      </trkpt>
      <trkpt lat="42.46988" lon="2.96319">
        <ele>1044</ele>
        <time>2024-09-23T07:34:41Z</time>
      </trkpt>
      <trkpt lat="42.46984" lon="2.9632">
        <ele>1044</ele>
        <time>2024-09-23T07:34:44Z</time>
      </trkpt>
      <trkpt lat="42.46981" lon="2.96322">
        <ele>1045</ele>
        <time>2024-09-23T07:34:46Z</time>
      </trkpt>
      <trkpt lat="42.46977" lon="2.96324">
        <ele>1044</ele>
        <time>2024-09-23T07:34:49Z</time>
      </trkpt>
      <trkpt lat="42.46974" lon="2.96325">
        <ele>1045</ele>
        <time>2024-09-23T07:34:51Z</time>
      </trkpt>
      <trkpt lat="42.46971" lon="2.96326">
        <ele>1044</ele>
        <time>2024-09-23T07:34:53Z</time>
      </trkpt>
      <trkpt lat="42.46968" lon="2.96325">
        <ele>1045</ele>
        <time>2024-09-23T07:34:55Z</time>
      </trkpt>
      <trkpt lat="42.46965" lon="2.96325">
        <ele>1044</ele>
        <time>2024-09-23T07:34:59Z</time>
      </trkpt>
      <trkpt lat="42.46962" lon="2.96326">
        <ele>1044</ele>
        <time>2024-09-23T07:35:02Z</time>
      </trkpt>
      <trkpt lat="42.46959" lon="2.96327">
        <ele>1045</ele>
        <time>2024-09-23T07:35:04Z</time>
      </trkpt>
      <trkpt lat="42.46955" lon="2.96328">
        <ele>1045</ele>
        <time>2024-09-23T07:35:07Z</time>
      </trkpt>
      <trkpt lat="42.46952" lon="2.96329">
        <ele>1046</ele>
        <time>2024-09-23T07:35:09Z</time>
      </trkpt>
      <trkpt lat="42.46949" lon="2.96332">
        <ele>1044</ele>
        <time>2024-09-23T07:35:12Z</time>
      </trkpt>
      <trkpt lat="42.46947" lon="2.96336">
        <ele>1045</ele>
        <time>2024-09-23T07:35:15Z</time>
      </trkpt>
      <trkpt lat="42.46946" lon="2.96341">
        <ele>1043</ele>
        <time>2024-09-23T07:35:17Z</time>
      </trkpt>
      <trkpt lat="42.46945" lon="2.96346">
        <ele>1041</ele>
        <time>2024-09-23T07:35:20Z</time>
      </trkpt>
      <trkpt lat="42.46944" lon="2.96351">
        <ele>1042</ele>
        <time>2024-09-23T07:35:23Z</time>
      </trkpt>
      <trkpt lat="42.46943" lon="2.96356">
        <ele>1041</ele>
        <time>2024-09-23T07:35:27Z</time>
      </trkpt>
      <trkpt lat="42.46939" lon="2.96358">
        <ele>1041</ele>
        <time>2024-09-23T07:35:30Z</time>
      </trkpt>
      <trkpt lat="42.46936" lon="2.9636">
        <ele>1040</ele>
        <time>2024-09-23T07:35:33Z</time>
      </trkpt>
      <trkpt lat="42.46934" lon="2.96363">
        <ele>1039</ele>
        <time>2024-09-23T07:35:35Z</time>
      </trkpt>
      <trkpt lat="42.46932" lon="2.96367">
        <ele>1039</ele>
        <time>2024-09-23T07:35:39Z</time>
      </trkpt>
      <trkpt lat="42.46929" lon="2.96369">
        <ele>1038</ele>
        <time>2024-09-23T07:35:42Z</time>
      </trkpt>
      <trkpt lat="42.46926" lon="2.9637">
        <ele>1038</ele>
        <time>2024-09-23T07:35:45Z</time>
      </trkpt>
      <trkpt lat="42.46923" lon="2.96371">
        <ele>1037</ele>
        <time>2024-09-23T07:35:47Z</time>
      </trkpt>
      <trkpt lat="42.4692" lon="2.96373">
        <ele>1036</ele>
        <time>2024-09-23T07:35:51Z</time>
      </trkpt>
      <trkpt lat="42.46917" lon="2.96374">
        <ele>1035</ele>
        <time>2024-09-23T07:35:55Z</time>
      </trkpt>
      <trkpt lat="42.46912" lon="2.96376">
        <ele>1035</ele>
        <time>2024-09-23T07:35:58Z</time>
      </trkpt>
      <trkpt lat="42.4691" lon="2.96379">
        <ele>1034</ele>
        <time>2024-09-23T07:36:01Z</time>
      </trkpt>
      <trkpt lat="42.46906" lon="2.96382">
        <ele>1033</ele>
        <time>2024-09-23T07:36:06Z</time>
      </trkpt>
      <trkpt lat="42.46904" lon="2.96385">
        <ele>1032</ele>
        <time>2024-09-23T07:36:09Z</time>
      </trkpt>
      <trkpt lat="42.46902" lon="2.9639">
        <ele>1032</ele>
        <time>2024-09-23T07:36:12Z</time>
      </trkpt>
      <trkpt lat="42.469" lon="2.96394">
        <ele>1031</ele>
        <time>2024-09-23T07:36:16Z</time>
      </trkpt>
      <trkpt lat="42.46899" lon="2.96399">
        <ele>1030</ele>
        <time>2024-09-23T07:36:19Z</time>
      </trkpt>
      <trkpt lat="42.46896" lon="2.96402">
        <ele>1029</ele>
        <time>2024-09-23T07:36:22Z</time>
      </trkpt>
      <trkpt lat="42.46895" lon="2.96406">
        <ele>1029</ele>
        <time>2024-09-23T07:36:24Z</time>
      </trkpt>
      <trkpt lat="42.46895" lon="2.9641">
        <ele>1029</ele>
        <time>2024-09-23T07:36:26Z</time>
      </trkpt>
      <trkpt lat="42.46894" lon="2.96413">
        <ele>1028</ele>
        <time>2024-09-23T07:36:28Z</time>
      </trkpt>
      <trkpt lat="42.46892" lon="2.96417">
        <ele>1028</ele>
        <time>2024-09-23T07:36:32Z</time>
      </trkpt>
      <trkpt lat="42.46891" lon="2.96421">
        <ele>1028</ele>
        <time>2024-09-23T07:36:36Z</time>
      </trkpt>
      <trkpt lat="42.46889" lon="2.96425">
        <ele>1026</ele>
        <time>2024-09-23T07:36:39Z</time>
      </trkpt>
      <trkpt lat="42.46886" lon="2.96427">
        <ele>1027</ele>
        <time>2024-09-23T07:36:41Z</time>
      </trkpt>
      <trkpt lat="42.46884" lon="2.9643">
        <ele>1027</ele>
        <time>2024-09-23T07:36:43Z</time>
      </trkpt>
      <trkpt lat="42.46883" lon="2.96434">
        <ele>1027</ele>
        <time>2024-09-23T07:36:47Z</time>
      </trkpt>
      <trkpt lat="42.46882" lon="2.96438">
        <ele>1027</ele>
        <time>2024-09-23T07:36:49Z</time>
      </trkpt>
      <trkpt lat="42.46881" lon="2.96441">
        <ele>1027</ele>
        <time>2024-09-23T07:36:50Z</time>
      </trkpt>
      <trkpt lat="42.46879" lon="2.96445">
        <ele>1025</ele>
        <time>2024-09-23T07:36:54Z</time>
      </trkpt>
      <trkpt lat="42.46878" lon="2.9645">
        <ele>1026</ele>
        <time>2024-09-23T07:36:58Z</time>
      </trkpt>
      <trkpt lat="42.46877" lon="2.96455">
        <ele>1025</ele>
        <time>2024-09-23T07:37:01Z</time>
      </trkpt>
      <trkpt lat="42.46875" lon="2.96458">
        <ele>1024</ele>
        <time>2024-09-23T07:37:03Z</time>
      </trkpt>
      <trkpt lat="42.46873" lon="2.96461">
        <ele>1025</ele>
        <time>2024-09-23T07:37:06Z</time>
      </trkpt>
      <trkpt lat="42.4687" lon="2.96464">
        <ele>1025</ele>
        <time>2024-09-23T07:37:09Z</time>
      </trkpt>
      <trkpt lat="42.46869" lon="2.96468">
        <ele>1024</ele>
        <time>2024-09-23T07:37:12Z</time>
      </trkpt>
      <trkpt lat="42.46867" lon="2.96472">
        <ele>1024</ele>
        <time>2024-09-23T07:37:15Z</time>
      </trkpt>
      <trkpt lat="42.46865" lon="2.96475">
        <ele>1022</ele>
        <time>2024-09-23T07:37:18Z</time>
      </trkpt>
      <trkpt lat="42.46863" lon="2.96478">
        <ele>1023</ele>
        <time>2024-09-23T07:37:21Z</time>
      </trkpt>
      <trkpt lat="42.46861" lon="2.96482">
        <ele>1023</ele>
        <time>2024-09-23T07:37:24Z</time>
      </trkpt>
      <trkpt lat="42.46858" lon="2.96484">
        <ele>1022</ele>
        <time>2024-09-23T07:37:27Z</time>
      </trkpt>
      <trkpt lat="42.46856" lon="2.96485">
        <ele>1023</ele>
        <time>2024-09-23T07:37:29Z</time>
      </trkpt>
      <trkpt lat="42.46852" lon="2.96487">
        <ele>1023</ele>
        <time>2024-09-23T07:37:32Z</time>
      </trkpt>
      <trkpt lat="42.4685" lon="2.96489">
        <ele>1023</ele>
        <time>2024-09-23T07:37:34Z</time>
      </trkpt>
      <trkpt lat="42.46847" lon="2.96491">
        <ele>1022</ele>
        <time>2024-09-23T07:37:37Z</time>
      </trkpt>
      <trkpt lat="42.46844" lon="2.96494">
        <ele>1021</ele>
        <time>2024-09-23T07:37:40Z</time>
      </trkpt>
      <trkpt lat="42.46842" lon="2.96497">
        <ele>1021</ele>
        <time>2024-09-23T07:37:42Z</time>
      </trkpt>
      <trkpt lat="42.4684" lon="2.965">
        <ele>1020</ele>
        <time>2024-09-23T07:37:45Z</time>
      </trkpt>
      <trkpt lat="42.46838" lon="2.96503">
        <ele>1020</ele>
        <time>2024-09-23T07:37:47Z</time>
      </trkpt>
      <trkpt lat="42.46836" lon="2.96507">
        <ele>1019</ele>
        <time>2024-09-23T07:37:50Z</time>
      </trkpt>
      <trkpt lat="42.46834" lon="2.9651">
        <ele>1018</ele>
        <time>2024-09-23T07:37:53Z</time>
      </trkpt>
      <trkpt lat="42.46832" lon="2.96513">
        <ele>1018</ele>
        <time>2024-09-23T07:37:58Z</time>
      </trkpt>
      <trkpt lat="42.4683" lon="2.96516">
        <ele>1017</ele>
        <time>2024-09-23T07:38:01Z</time>
      </trkpt>
      <trkpt lat="42.46828" lon="2.9652">
        <ele>1017</ele>
        <time>2024-09-23T07:38:04Z</time>
      </trkpt>
      <trkpt lat="42.46827" lon="2.96525">
        <ele>1016</ele>
        <time>2024-09-23T07:38:07Z</time>
      </trkpt>
      <trkpt lat="42.46826" lon="2.96529">
        <ele>1015</ele>
        <time>2024-09-23T07:38:10Z</time>
      </trkpt>
      <trkpt lat="42.46825" lon="2.96532">
        <ele>1015</ele>
        <time>2024-09-23T07:38:12Z</time>
      </trkpt>
      <trkpt lat="42.46824" lon="2.96536">
        <ele>1013</ele>
        <time>2024-09-23T07:38:15Z</time>
      </trkpt>
      <trkpt lat="42.46821" lon="2.96539">
        <ele>1012</ele>
        <time>2024-09-23T07:38:19Z</time>
      </trkpt>
      <trkpt lat="42.46819" lon="2.96541">
        <ele>1011</ele>
        <time>2024-09-23T07:38:22Z</time>
      </trkpt>
      <trkpt lat="42.46817" lon="2.96544">
        <ele>1010</ele>
        <time>2024-09-23T07:38:25Z</time>
      </trkpt>
      <trkpt lat="42.46814" lon="2.96547">
        <ele>1009</ele>
        <time>2024-09-23T07:38:28Z</time>
      </trkpt>
      <trkpt lat="42.46811" lon="2.96549">
        <ele>1009</ele>
        <time>2024-09-23T07:38:31Z</time>
      </trkpt>
      <trkpt lat="42.46808" lon="2.96552">
        <ele>1008</ele>
        <time>2024-09-23T07:38:34Z</time>
      </trkpt>
      <trkpt lat="42.46805" lon="2.96553">
        <ele>1007</ele>
        <time>2024-09-23T07:38:38Z</time>
      </trkpt>
      <trkpt lat="42.46802" lon="2.96554">
        <ele>1006</ele>
        <time>2024-09-23T07:38:41Z</time>
      </trkpt>
      <trkpt lat="42.468" lon="2.96555">
        <ele>1006</ele>
        <time>2024-09-23T07:38:44Z</time>
      </trkpt>
      <trkpt lat="42.46797" lon="2.96558">
        <ele>1006</ele>
        <time>2024-09-23T07:38:47Z</time>
      </trkpt>
      <trkpt lat="42.46795" lon="2.9656">
        <ele>1005</ele>
        <time>2024-09-23T07:38:50Z</time>
      </trkpt>
      <trkpt lat="42.46792" lon="2.96563">
        <ele>1004</ele>
        <time>2024-09-23T07:38:54Z</time>
      </trkpt>
      <trkpt lat="42.46789" lon="2.96565">
        <ele>1003</ele>
        <time>2024-09-23T07:38:57Z</time>
      </trkpt>
      <trkpt lat="42.46786" lon="2.96566">
        <ele>1002</ele>
        <time>2024-09-23T07:39:01Z</time>
      </trkpt>
      <trkpt lat="42.46783" lon="2.96567">
        <ele>1000</ele>
        <time>2024-09-23T07:39:04Z</time>
      </trkpt>
      <trkpt lat="42.4678" lon="2.96569">
        <ele>1000</ele>
        <time>2024-09-23T07:39:08Z</time>
      </trkpt>
      <trkpt lat="42.46777" lon="2.96572">
        <ele>1001</ele>
        <time>2024-09-23T07:39:11Z</time>
      </trkpt>
      <trkpt lat="42.46774" lon="2.96574">
        <ele>999</ele>
        <time>2024-09-23T07:39:14Z</time>
      </trkpt>
      <trkpt lat="42.46771" lon="2.96576">
        <ele>998</ele>
        <time>2024-09-23T07:39:17Z</time>
      </trkpt>
      <trkpt lat="42.46769" lon="2.96579">
        <ele>997</ele>
        <time>2024-09-23T07:39:19Z</time>
      </trkpt>
      <trkpt lat="42.46766" lon="2.96581">
        <ele>997</ele>
        <time>2024-09-23T07:39:22Z</time>
      </trkpt>
      <trkpt lat="42.46763" lon="2.96583">
        <ele>997</ele>
        <time>2024-09-23T07:39:25Z</time>
      </trkpt>
      <trkpt lat="42.4676" lon="2.96586">
        <ele>995</ele>
        <time>2024-09-23T07:39:29Z</time>
      </trkpt>
      <trkpt lat="42.46758" lon="2.96588">
        <ele>995</ele>
        <time>2024-09-23T07:39:32Z</time>
      </trkpt>
      <trkpt lat="42.46755" lon="2.9659">
        <ele>994</ele>
        <time>2024-09-23T07:39:35Z</time>
      </trkpt>
      <trkpt lat="42.46752" lon="2.96591">
        <ele>994</ele>
        <time>2024-09-23T07:39:37Z</time>
      </trkpt>
      <trkpt lat="42.46749" lon="2.96593">
        <ele>994</ele>
        <time>2024-09-23T07:39:40Z</time>
      </trkpt>
      <trkpt lat="42.46746" lon="2.96595">
        <ele>992</ele>
        <time>2024-09-23T07:39:44Z</time>
      </trkpt>
      <trkpt lat="42.46745" lon="2.96598">
        <ele>991</ele>
        <time>2024-09-23T07:39:46Z</time>
      </trkpt>
      <trkpt lat="42.46743" lon="2.96602">
        <ele>992</ele>
        <time>2024-09-23T07:39:48Z</time>
      </trkpt>
      <trkpt lat="42.4674" lon="2.96604">
        <ele>991</ele>
        <time>2024-09-23T07:39:50Z</time>
      </trkpt>
      <trkpt lat="42.46738" lon="2.96606">
        <ele>990</ele>
        <time>2024-09-23T07:39:52Z</time>
      </trkpt>
      <trkpt lat="42.46737" lon="2.9661">
        <ele>989</ele>
        <time>2024-09-23T07:39:55Z</time>
      </trkpt>
      <trkpt lat="42.46736" lon="2.96613">
        <ele>989</ele>
        <time>2024-09-23T07:39:58Z</time>
      </trkpt>
      <trkpt lat="42.46736" lon="2.96617">
        <ele>988</ele>
        <time>2024-09-23T07:40:02Z</time>
      </trkpt>
      <trkpt lat="42.46735" lon="2.96621">
        <ele>988</ele>
        <time>2024-09-23T07:40:05Z</time>
      </trkpt>
      <trkpt lat="42.46734" lon="2.96624">
        <ele>988</ele>
        <time>2024-09-23T07:40:07Z</time>
      </trkpt>
      <trkpt lat="42.46732" lon="2.96628">
        <ele>988</ele>
        <time>2024-09-23T07:40:11Z</time>
      </trkpt>
      <trkpt lat="42.4673" lon="2.96632">
        <ele>988</ele>
        <time>2024-09-23T07:40:13Z</time>
      </trkpt>
      <trkpt lat="42.46727" lon="2.96635">
        <ele>989</ele>
        <time>2024-09-23T07:40:16Z</time>
      </trkpt>
      <trkpt lat="42.46725" lon="2.96638">
        <ele>989</ele>
        <time>2024-09-23T07:40:19Z</time>
      </trkpt>
      <trkpt lat="42.46723" lon="2.96641">
        <ele>989</ele>
        <time>2024-09-23T07:40:21Z</time>
      </trkpt>
      <trkpt lat="42.4672" lon="2.96644">
        <ele>989</ele>
        <time>2024-09-23T07:40:24Z</time>
      </trkpt>
      <trkpt lat="42.46717" lon="2.96647">
        <ele>988</ele>
        <time>2024-09-23T07:40:26Z</time>
      </trkpt>
      <trkpt lat="42.46715" lon="2.96651">
        <ele>988</ele>
        <time>2024-09-23T07:40:29Z</time>
      </trkpt>
      <trkpt lat="42.46714" lon="2.96654">
        <ele>988</ele>
        <time>2024-09-23T07:40:31Z</time>
      </trkpt>
      <trkpt lat="42.46714" lon="2.96659">
        <ele>987</ele>
        <time>2024-09-23T07:40:33Z</time>
      </trkpt>
      <trkpt lat="42.46713" lon="2.96663">
        <ele>987</ele>
        <time>2024-09-23T07:40:35Z</time>
      </trkpt>
      <trkpt lat="42.46712" lon="2.96667">
        <ele>988</ele>
        <time>2024-09-23T07:40:37Z</time>
      </trkpt>
      <trkpt lat="42.46711" lon="2.9667">
        <ele>989</ele>
        <time>2024-09-23T07:40:39Z</time>
      </trkpt>
      <trkpt lat="42.46711" lon="2.96675">
        <ele>989</ele>
        <time>2024-09-23T07:40:42Z</time>
      </trkpt>
      <trkpt lat="42.46709" lon="2.96679">
        <ele>989</ele>
        <time>2024-09-23T07:40:45Z</time>
      </trkpt>
      <trkpt lat="42.46708" lon="2.96684">
        <ele>989</ele>
        <time>2024-09-23T07:40:48Z</time>
      </trkpt>
      <trkpt lat="42.46707" lon="2.96688">
        <ele>988</ele>
        <time>2024-09-23T07:40:51Z</time>
      </trkpt>
      <trkpt lat="42.46706" lon="2.96693">
        <ele>988</ele>
        <time>2024-09-23T07:40:53Z</time>
      </trkpt>
      <trkpt lat="42.46705" lon="2.96697">
        <ele>989</ele>
        <time>2024-09-23T07:40:56Z</time>
      </trkpt>
      <trkpt lat="42.46703" lon="2.96701">
        <ele>989</ele>
        <time>2024-09-23T07:40:58Z</time>
      </trkpt>
      <trkpt lat="42.46701" lon="2.96704">
        <ele>989</ele>
        <time>2024-09-23T07:41:00Z</time>
      </trkpt>
      <trkpt lat="42.467" lon="2.96708">
        <ele>989</ele>
        <time>2024-09-23T07:41:03Z</time>
      </trkpt>
      <trkpt lat="42.46698" lon="2.96711">
        <ele>988</ele>
        <time>2024-09-23T07:41:06Z</time>
      </trkpt>
      <trkpt lat="42.46696" lon="2.96715">
        <ele>988</ele>
        <time>2024-09-23T07:41:09Z</time>
      </trkpt>
      <trkpt lat="42.46694" lon="2.96719">
        <ele>987</ele>
        <time>2024-09-23T07:41:12Z</time>
      </trkpt>
      <trkpt lat="42.46692" lon="2.96722">
        <ele>987</ele>
        <time>2024-09-23T07:41:15Z</time>
      </trkpt>
      <trkpt lat="42.4669" lon="2.96726">
        <ele>987</ele>
        <time>2024-09-23T07:41:18Z</time>
      </trkpt>
      <trkpt lat="42.46689" lon="2.96731">
        <ele>987</ele>
        <time>2024-09-23T07:41:21Z</time>
      </trkpt>
      <trkpt lat="42.46687" lon="2.96736">
        <ele>988</ele>
        <time>2024-09-23T07:41:24Z</time>
      </trkpt>
      <trkpt lat="42.46685" lon="2.96741">
        <ele>988</ele>
        <time>2024-09-23T07:41:27Z</time>
      </trkpt>
      <trkpt lat="42.46684" lon="2.96745">
        <ele>988</ele>
        <time>2024-09-23T07:41:30Z</time>
      </trkpt>
      <trkpt lat="42.46683" lon="2.9675">
        <ele>989</ele>
        <time>2024-09-23T07:41:33Z</time>
      </trkpt>
      <trkpt lat="42.46682" lon="2.96755">
        <ele>988</ele>
        <time>2024-09-23T07:41:36Z</time>
      </trkpt>
      <trkpt lat="42.4668" lon="2.9676">
        <ele>987</ele>
        <time>2024-09-23T07:41:39Z</time>
      </trkpt>
      <trkpt lat="42.46679" lon="2.96764">
        <ele>986</ele>
        <time>2024-09-23T07:41:42Z</time>
      </trkpt>
      <trkpt lat="42.46678" lon="2.96769">
        <ele>986</ele>
        <time>2024-09-23T07:41:45Z</time>
      </trkpt>
      <trkpt lat="42.46678" lon="2.96773">
        <ele>986</ele>
        <time>2024-09-23T07:41:47Z</time>
      </trkpt>
      <trkpt lat="42.46677" lon="2.96778">
        <ele>986</ele>
        <time>2024-09-23T07:41:50Z</time>
      </trkpt>
      <trkpt lat="42.46677" lon="2.96783">
        <ele>985</ele>
        <time>2024-09-23T07:41:53Z</time>
      </trkpt>
      <trkpt lat="42.46677" lon="2.96787">
        <ele>985</ele>
        <time>2024-09-23T07:41:55Z</time>
      </trkpt>
      <trkpt lat="42.46676" lon="2.96791">
        <ele>985</ele>
        <time>2024-09-23T07:41:57Z</time>
      </trkpt>
      <trkpt lat="42.46675" lon="2.96795">
        <ele>984</ele>
        <time>2024-09-23T07:41:59Z</time>
      </trkpt>
      <trkpt lat="42.46674" lon="2.96799">
        <ele>984</ele>
        <time>2024-09-23T07:42:02Z</time>
      </trkpt>
      <trkpt lat="42.46674" lon="2.96804">
        <ele>984</ele>
        <time>2024-09-23T07:42:04Z</time>
      </trkpt>
      <trkpt lat="42.46673" lon="2.96809">
        <ele>985</ele>
        <time>2024-09-23T07:42:08Z</time>
      </trkpt>
      <trkpt lat="42.46673" lon="2.96813">
        <ele>985</ele>
        <time>2024-09-23T07:42:10Z</time>
      </trkpt>
      <trkpt lat="42.46672" lon="2.96818">
        <ele>984</ele>
        <time>2024-09-23T07:42:13Z</time>
      </trkpt>
      <trkpt lat="42.46672" lon="2.96822">
        <ele>984</ele>
        <time>2024-09-23T07:42:15Z</time>
      </trkpt>
      <trkpt lat="42.46671" lon="2.96827">
        <ele>984</ele>
        <time>2024-09-23T07:42:18Z</time>
      </trkpt>
      <trkpt lat="42.46671" lon="2.96831">
        <ele>983</ele>
        <time>2024-09-23T07:42:21Z</time>
      </trkpt>
      <trkpt lat="42.4667" lon="2.96836">
        <ele>983</ele>
        <time>2024-09-23T07:42:23Z</time>
      </trkpt>
      <trkpt lat="42.4667" lon="2.9684">
        <ele>983</ele>
        <time>2024-09-23T07:42:25Z</time>
      </trkpt>
      <trkpt lat="42.4667" lon="2.96844">
        <ele>984</ele>
        <time>2024-09-23T07:42:28Z</time>
      </trkpt>
      <trkpt lat="42.4667" lon="2.9685">
        <ele>983</ele>
        <time>2024-09-23T07:42:31Z</time>
      </trkpt>
      <trkpt lat="42.46669" lon="2.96855">
        <ele>983</ele>
        <time>2024-09-23T07:42:34Z</time>
      </trkpt>
      <trkpt lat="42.46668" lon="2.96859">
        <ele>984</ele>
        <time>2024-09-23T07:42:36Z</time>
      </trkpt>
      <trkpt lat="42.46667" lon="2.96863">
        <ele>984</ele>
        <time>2024-09-23T07:42:38Z</time>
      </trkpt>
      <trkpt lat="42.46667" lon="2.96867">
        <ele>984</ele>
        <time>2024-09-23T07:42:39Z</time>
      </trkpt>
      <trkpt lat="42.46667" lon="2.96871">
        <ele>983</ele>
        <time>2024-09-23T07:42:41Z</time>
      </trkpt>
      <trkpt lat="42.46667" lon="2.96876">
        <ele>984</ele>
        <time>2024-09-23T07:42:44Z</time>
      </trkpt>
      <trkpt lat="42.46667" lon="2.9688">
        <ele>985</ele>
        <time>2024-09-23T07:42:46Z</time>
      </trkpt>
      <trkpt lat="42.46666" lon="2.96885">
        <ele>985</ele>
        <time>2024-09-23T07:42:49Z</time>
      </trkpt>
      <trkpt lat="42.46666" lon="2.9689">
        <ele>985</ele>
        <time>2024-09-23T07:42:51Z</time>
      </trkpt>
      <trkpt lat="42.46667" lon="2.96895">
        <ele>984</ele>
        <time>2024-09-23T07:42:54Z</time>
      </trkpt>
      <trkpt lat="42.46668" lon="2.969">
        <ele>983</ele>
        <time>2024-09-23T07:42:57Z</time>
      </trkpt>
      <trkpt lat="42.46668" lon="2.96904">
        <ele>983</ele>
        <time>2024-09-23T07:42:59Z</time>
      </trkpt>
      <trkpt lat="42.46669" lon="2.96908">
        <ele>983</ele>
        <time>2024-09-23T07:43:01Z</time>
      </trkpt>
      <trkpt lat="42.4667" lon="2.96911">
        <ele>983</ele>
        <time>2024-09-23T07:43:03Z</time>
      </trkpt>
      <trkpt lat="42.4667" lon="2.96915">
        <ele>983</ele>
        <time>2024-09-23T07:43:05Z</time>
      </trkpt>
      <trkpt lat="42.4667" lon="2.96919">
        <ele>983</ele>
        <time>2024-09-23T07:43:07Z</time>
      </trkpt>
      <trkpt lat="42.4667" lon="2.96923">
        <ele>983</ele>
        <time>2024-09-23T07:43:09Z</time>
      </trkpt>
      <trkpt lat="42.46671" lon="2.96927">
        <ele>983</ele>
        <time>2024-09-23T07:43:11Z</time>
      </trkpt>
      <trkpt lat="42.46671" lon="2.96931">
        <ele>983</ele>
        <time>2024-09-23T07:43:13Z</time>
      </trkpt>
      <trkpt lat="42.46671" lon="2.96934">
        <ele>982</ele>
        <time>2024-09-23T07:43:15Z</time>
      </trkpt>
      <trkpt lat="42.4667" lon="2.96939">
        <ele>983</ele>
        <time>2024-09-23T07:43:18Z</time>
      </trkpt>
      <trkpt lat="42.46669" lon="2.96945">
        <ele>983</ele>
        <time>2024-09-23T07:43:21Z</time>
      </trkpt>
      <trkpt lat="42.46669" lon="2.96949">
        <ele>983</ele>
        <time>2024-09-23T07:43:23Z</time>
      </trkpt>
      <trkpt lat="42.46668" lon="2.96953">
        <ele>983</ele>
        <time>2024-09-23T07:43:25Z</time>
      </trkpt>
      <trkpt lat="42.46668" lon="2.96957">
        <ele>982</ele>
        <time>2024-09-23T07:43:27Z</time>
      </trkpt>
      <trkpt lat="42.46667" lon="2.96961">
        <ele>982</ele>
        <time>2024-09-23T07:43:29Z</time>
      </trkpt>
      <trkpt lat="42.46667" lon="2.96965">
        <ele>982</ele>
        <time>2024-09-23T07:43:31Z</time>
      </trkpt>
      <trkpt lat="42.46667" lon="2.9697">
        <ele>982</ele>
        <time>2024-09-23T07:43:34Z</time>
      </trkpt>
      <trkpt lat="42.46666" lon="2.96974">
        <ele>982</ele>
        <time>2024-09-23T07:43:36Z</time>
      </trkpt>
      <trkpt lat="42.46665" lon="2.96979">
        <ele>981</ele>
        <time>2024-09-23T07:43:39Z</time>
      </trkpt>
      <trkpt lat="42.46665" lon="2.96984">
        <ele>981</ele>
        <time>2024-09-23T07:43:42Z</time>
      </trkpt>
      <trkpt lat="42.46665" lon="2.96988">
        <ele>981</ele>
        <time>2024-09-23T07:43:44Z</time>
      </trkpt>
      <trkpt lat="42.46665" lon="2.96992">
        <ele>981</ele>
        <time>2024-09-23T07:43:46Z</time>
      </trkpt>
      <trkpt lat="42.46664" lon="2.96996">
        <ele>980</ele>
        <time>2024-09-23T07:43:48Z</time>
      </trkpt>
      <trkpt lat="42.46664" lon="2.97">
        <ele>980</ele>
        <time>2024-09-23T07:43:50Z</time>
      </trkpt>
      <trkpt lat="42.46663" lon="2.97004">
        <ele>980</ele>
        <time>2024-09-23T07:43:52Z</time>
      </trkpt>
      <trkpt lat="42.46663" lon="2.97008">
        <ele>979</ele>
        <time>2024-09-23T07:43:54Z</time>
      </trkpt>
      <trkpt lat="42.46663" lon="2.97012">
        <ele>979</ele>
        <time>2024-09-23T07:43:56Z</time>
      </trkpt>
      <trkpt lat="42.46663" lon="2.97016">
        <ele>978</ele>
        <time>2024-09-23T07:43:58Z</time>
      </trkpt>
      <trkpt lat="42.46663" lon="2.9702">
        <ele>978</ele>
        <time>2024-09-23T07:44:00Z</time>
      </trkpt>
      <trkpt lat="42.46663" lon="2.97024">
        <ele>977</ele>
        <time>2024-09-23T07:44:02Z</time>
      </trkpt>
      <trkpt lat="42.46663" lon="2.97028">
        <ele>977</ele>
        <time>2024-09-23T07:44:04Z</time>
      </trkpt>
      <trkpt lat="42.46662" lon="2.97031">
        <ele>977</ele>
        <time>2024-09-23T07:44:06Z</time>
      </trkpt>
      <trkpt lat="42.46662" lon="2.97035">
        <ele>976</ele>
        <time>2024-09-23T07:44:08Z</time>
      </trkpt>
      <trkpt lat="42.46662" lon="2.97039">
        <ele>975</ele>
        <time>2024-09-23T07:44:10Z</time>
      </trkpt>
      <trkpt lat="42.46662" lon="2.97043">
        <ele>975</ele>
        <time>2024-09-23T07:44:13Z</time>
      </trkpt>
      <trkpt lat="42.46662" lon="2.97047">
        <ele>976</ele>
        <time>2024-09-23T07:44:15Z</time>
      </trkpt>
      <trkpt lat="42.46662" lon="2.97052">
        <ele>976</ele>
        <time>2024-09-23T07:44:18Z</time>
      </trkpt>
      <trkpt lat="42.46662" lon="2.97056">
        <ele>975</ele>
        <time>2024-09-23T07:44:20Z</time>
      </trkpt>
      <trkpt lat="42.46662" lon="2.9706">
        <ele>975</ele>
        <time>2024-09-23T07:44:22Z</time>
      </trkpt>
      <trkpt lat="42.46663" lon="2.97064">
        <ele>975</ele>
        <time>2024-09-23T07:44:24Z</time>
      </trkpt>
      <trkpt lat="42.46664" lon="2.97067">
        <ele>975</ele>
        <time>2024-09-23T07:44:26Z</time>
      </trkpt>
      <trkpt lat="42.46666" lon="2.9707">
        <ele>974</ele>
        <time>2024-09-23T07:44:29Z</time>
      </trkpt>
      <trkpt lat="42.46668" lon="2.97074">
        <ele>975</ele>
        <time>2024-09-23T07:44:32Z</time>
      </trkpt>
      <trkpt lat="42.46668" lon="2.97073">
        <ele>974</ele>
        <time>2024-09-23T07:44:52Z</time>
      </trkpt>
      <trkpt lat="42.46666" lon="2.97075">
        <ele>974</ele>
        <time>2024-09-23T07:46:52Z</time>
      </trkpt>
      <trkpt lat="42.46666" lon="2.97078">
        <ele>974</ele>
        <time>2024-09-23T07:47:14Z</time>
      </trkpt>
      <trkpt lat="42.46665" lon="2.97081">
        <ele>974</ele>
        <time>2024-09-23T07:47:17Z</time>
      </trkpt>
      <trkpt lat="42.46664" lon="2.97085">
        <ele>973</ele>
        <time>2024-09-23T07:47:20Z</time>
      </trkpt>
      <trkpt lat="42.46663" lon="2.9709">
        <ele>973</ele>
        <time>2024-09-23T07:47:23Z</time>
      </trkpt>
      <trkpt lat="42.46663" lon="2.97095">
        <ele>974</ele>
        <time>2024-09-23T07:47:26Z</time>
      </trkpt>
      <trkpt lat="42.46662" lon="2.971">
        <ele>974</ele>
        <time>2024-09-23T07:47:29Z</time>
      </trkpt>
      <trkpt lat="42.46662" lon="2.97105">
        <ele>973</ele>
        <time>2024-09-23T07:47:32Z</time>
      </trkpt>
      <trkpt lat="42.46663" lon="2.9711">
        <ele>973</ele>
        <time>2024-09-23T07:47:35Z</time>
      </trkpt>
      <trkpt lat="42.46663" lon="2.97115">
        <ele>973</ele>
        <time>2024-09-23T07:47:38Z</time>
      </trkpt>
      <trkpt lat="42.46663" lon="2.9712">
        <ele>973</ele>
        <time>2024-09-23T07:47:41Z</time>
      </trkpt>
      <trkpt lat="42.46663" lon="2.97125">
        <ele>974</ele>
        <time>2024-09-23T07:47:44Z</time>
      </trkpt>
      <trkpt lat="42.46663" lon="2.9713">
        <ele>974</ele>
        <time>2024-09-23T07:47:47Z</time>
      </trkpt>
      <trkpt lat="42.46663" lon="2.97135">
        <ele>973</ele>
        <time>2024-09-23T07:47:50Z</time>
      </trkpt>
      <trkpt lat="42.46663" lon="2.9714">
        <ele>974</ele>
        <time>2024-09-23T07:47:53Z</time>
      </trkpt>
      <trkpt lat="42.46664" lon="2.97145">
        <ele>974</ele>
        <time>2024-09-23T07:47:56Z</time>
      </trkpt>
      <trkpt lat="42.46665" lon="2.9715">
        <ele>974</ele>
        <time>2024-09-23T07:47:59Z</time>
      </trkpt>
      <trkpt lat="42.46665" lon="2.97154">
        <ele>974</ele>
        <time>2024-09-23T07:48:01Z</time>
      </trkpt>
      <trkpt lat="42.46666" lon="2.97159">
        <ele>974</ele>
        <time>2024-09-23T07:48:04Z</time>
      </trkpt>
      <trkpt lat="42.46667" lon="2.97164">
        <ele>974</ele>
        <time>2024-09-23T07:48:07Z</time>
      </trkpt>
      <trkpt lat="42.46667" lon="2.97168">
        <ele>975</ele>
        <time>2024-09-23T07:48:09Z</time>
      </trkpt>
      <trkpt lat="42.46669" lon="2.97173">
        <ele>974</ele>
        <time>2024-09-23T07:48:12Z</time>
      </trkpt>
      <trkpt lat="42.46669" lon="2.97178">
        <ele>974</ele>
        <time>2024-09-23T07:48:15Z</time>
      </trkpt>
      <trkpt lat="42.4667" lon="2.97182">
        <ele>975</ele>
        <time>2024-09-23T07:48:18Z</time>
      </trkpt>
      <trkpt lat="42.46671" lon="2.97187">
        <ele>974</ele>
        <time>2024-09-23T07:48:21Z</time>
      </trkpt>
      <trkpt lat="42.46672" lon="2.97192">
        <ele>975</ele>
        <time>2024-09-23T07:48:25Z</time>
      </trkpt>
      <trkpt lat="42.46673" lon="2.97197">
        <ele>976</ele>
        <time>2024-09-23T07:48:28Z</time>
      </trkpt>
      <trkpt lat="42.46674" lon="2.97201">
        <ele>975</ele>
        <time>2024-09-23T07:48:31Z</time>
      </trkpt>
      <trkpt lat="42.46675" lon="2.97205">
        <ele>976</ele>
        <time>2024-09-23T07:48:34Z</time>
      </trkpt>
      <trkpt lat="42.46676" lon="2.9721">
        <ele>977</ele>
        <time>2024-09-23T07:48:37Z</time>
      </trkpt>
      <trkpt lat="42.46677" lon="2.97214">
        <ele>977</ele>
        <time>2024-09-23T07:48:40Z</time>
      </trkpt>
      <trkpt lat="42.46678" lon="2.97218">
        <ele>978</ele>
        <time>2024-09-23T07:48:43Z</time>
      </trkpt>
      <trkpt lat="42.46679" lon="2.97222">
        <ele>979</ele>
        <time>2024-09-23T07:48:48Z</time>
      </trkpt>
      <trkpt lat="42.46681" lon="2.97226">
        <ele>979</ele>
        <time>2024-09-23T07:48:51Z</time>
      </trkpt>
      <trkpt lat="42.46682" lon="2.9723">
        <ele>979</ele>
        <time>2024-09-23T07:48:55Z</time>
      </trkpt>
      <trkpt lat="42.46684" lon="2.97234">
        <ele>980</ele>
        <time>2024-09-23T07:48:57Z</time>
      </trkpt>
      <trkpt lat="42.46686" lon="2.97238">
        <ele>981</ele>
        <time>2024-09-23T07:49:01Z</time>
      </trkpt>
      <trkpt lat="42.46687" lon="2.97242">
        <ele>981</ele>
        <time>2024-09-23T07:49:05Z</time>
      </trkpt>
      <trkpt lat="42.46689" lon="2.97246">
        <ele>981</ele>
        <time>2024-09-23T07:49:09Z</time>
      </trkpt>
      <trkpt lat="42.4669" lon="2.97251">
        <ele>982</ele>
        <time>2024-09-23T07:49:13Z</time>
      </trkpt>
      <trkpt lat="42.46691" lon="2.97255">
        <ele>982</ele>
        <time>2024-09-23T07:49:17Z</time>
      </trkpt>
      <trkpt lat="42.46692" lon="2.97259">
        <ele>984</ele>
        <time>2024-09-23T07:49:21Z</time>
      </trkpt>
      <trkpt lat="42.46693" lon="2.97263">
        <ele>985</ele>
        <time>2024-09-23T07:49:25Z</time>
      </trkpt>
      <trkpt lat="42.46694" lon="2.97266">
        <ele>986</ele>
        <time>2024-09-23T07:49:29Z</time>
      </trkpt>
      <trkpt lat="42.46695" lon="2.9727">
        <ele>988</ele>
        <time>2024-09-23T07:49:33Z</time>
      </trkpt>
      <trkpt lat="42.46697" lon="2.97274">
        <ele>988</ele>
        <time>2024-09-23T07:49:37Z</time>
      </trkpt>
      <trkpt lat="42.46698" lon="2.97278">
        <ele>990</ele>
        <time>2024-09-23T07:49:42Z</time>
      </trkpt>
      <trkpt lat="42.46699" lon="2.97282">
        <ele>991</ele>
        <time>2024-09-23T07:49:46Z</time>
      </trkpt>
      <trkpt lat="42.467" lon="2.97286">
        <ele>992</ele>
        <time>2024-09-23T07:49:50Z</time>
      </trkpt>
      <trkpt lat="42.467" lon="2.9729">
        <ele>993</ele>
        <time>2024-09-23T07:49:54Z</time>
      </trkpt>
      <trkpt lat="42.46701" lon="2.97294">
        <ele>994</ele>
        <time>2024-09-23T07:49:57Z</time>
      </trkpt>
      <trkpt lat="42.46701" lon="2.97298">
        <ele>996</ele>
        <time>2024-09-23T07:50:01Z</time>
      </trkpt>
      <trkpt lat="42.46701" lon="2.97302">
        <ele>997</ele>
        <time>2024-09-23T07:50:05Z</time>
      </trkpt>
      <trkpt lat="42.46702" lon="2.97306">
        <ele>997</ele>
        <time>2024-09-23T07:50:10Z</time>
      </trkpt>
      <trkpt lat="42.46702" lon="2.9731">
        <ele>998</ele>
        <time>2024-09-23T07:50:14Z</time>
      </trkpt>
      <trkpt lat="42.46703" lon="2.97314">
        <ele>998</ele>
        <time>2024-09-23T07:50:18Z</time>
      </trkpt>
      <trkpt lat="42.46704" lon="2.97318">
        <ele>999</ele>
        <time>2024-09-23T07:50:22Z</time>
      </trkpt>
      <trkpt lat="42.46704" lon="2.97322">
        <ele>999</ele>
        <time>2024-09-23T07:50:26Z</time>
      </trkpt>
      <trkpt lat="42.46704" lon="2.97327">
        <ele>1001</ele>
        <time>2024-09-23T07:50:32Z</time>
      </trkpt>
      <trkpt lat="42.46705" lon="2.97331">
        <ele>1002</ele>
        <time>2024-09-23T07:50:36Z</time>
      </trkpt>
      <trkpt lat="42.46705" lon="2.97335">
        <ele>1002</ele>
        <time>2024-09-23T07:50:40Z</time>
      </trkpt>
      <trkpt lat="42.46704" lon="2.9734">
        <ele>1003</ele>
        <time>2024-09-23T07:50:44Z</time>
      </trkpt>
      <trkpt lat="42.46705" lon="2.97344">
        <ele>1004</ele>
        <time>2024-09-23T07:50:48Z</time>
      </trkpt>
      <trkpt lat="42.46705" lon="2.97348">
        <ele>1004</ele>
        <time>2024-09-23T07:50:52Z</time>
      </trkpt>
      <trkpt lat="42.46706" lon="2.97352">
        <ele>1005</ele>
        <time>2024-09-23T07:50:56Z</time>
      </trkpt>
      <trkpt lat="42.46707" lon="2.97356">
        <ele>1006</ele>
        <time>2024-09-23T07:51:01Z</time>
      </trkpt>
      <trkpt lat="42.46708" lon="2.9736">
        <ele>1007</ele>
        <time>2024-09-23T07:51:05Z</time>
      </trkpt>
      <trkpt lat="42.4671" lon="2.97363">
        <ele>1007</ele>
        <time>2024-09-23T07:51:09Z</time>
      </trkpt>
      <trkpt lat="42.46711" lon="2.97367">
        <ele>1007</ele>
        <time>2024-09-23T07:51:13Z</time>
      </trkpt>
      <trkpt lat="42.46712" lon="2.97371">
        <ele>1007</ele>
        <time>2024-09-23T07:51:17Z</time>
      </trkpt>
      <trkpt lat="42.46713" lon="2.97375">
        <ele>1007</ele>
        <time>2024-09-23T07:51:22Z</time>
      </trkpt>
      <trkpt lat="42.46715" lon="2.97379">
        <ele>1009</ele>
        <time>2024-09-23T07:51:25Z</time>
      </trkpt>
      <trkpt lat="42.46716" lon="2.97382">
        <ele>1010</ele>
        <time>2024-09-23T07:51:29Z</time>
      </trkpt>
      <trkpt lat="42.46718" lon="2.97387">
        <ele>1011</ele>
        <time>2024-09-23T07:51:34Z</time>
      </trkpt>
      <trkpt lat="42.46719" lon="2.9739">
        <ele>1011</ele>
        <time>2024-09-23T07:51:38Z</time>
      </trkpt>
      <trkpt lat="42.4672" lon="2.97394">
        <ele>1012</ele>
        <time>2024-09-23T07:51:42Z</time>
      </trkpt>
      <trkpt lat="42.46721" lon="2.97398">
        <ele>1013</ele>
        <time>2024-09-23T07:51:47Z</time>
      </trkpt>
      <trkpt lat="42.46722" lon="2.97402">
        <ele>1013</ele>
        <time>2024-09-23T07:51:52Z</time>
      </trkpt>
      <trkpt lat="42.46723" lon="2.97406">
        <ele>1014</ele>
        <time>2024-09-23T07:51:57Z</time>
      </trkpt>
      <trkpt lat="42.46722" lon="2.9741">
        <ele>1014</ele>
        <time>2024-09-23T07:52:01Z</time>
      </trkpt>
      <trkpt lat="42.46722" lon="2.97414">
        <ele>1015</ele>
        <time>2024-09-23T07:52:05Z</time>
      </trkpt>
      <trkpt lat="42.46722" lon="2.97418">
        <ele>1016</ele>
        <time>2024-09-23T07:52:11Z</time>
      </trkpt>
      <trkpt lat="42.46723" lon="2.97422">
        <ele>1018</ele>
        <time>2024-09-23T07:52:15Z</time>
      </trkpt>
      <trkpt lat="42.46724" lon="2.97426">
        <ele>1018</ele>
        <time>2024-09-23T07:52:19Z</time>
      </trkpt>
      <trkpt lat="42.46725" lon="2.97429">
        <ele>1019</ele>
        <time>2024-09-23T07:52:23Z</time>
      </trkpt>
      <trkpt lat="42.46726" lon="2.97433">
        <ele>1020</ele>
        <time>2024-09-23T07:52:27Z</time>
      </trkpt>
      <trkpt lat="42.46727" lon="2.97437">
        <ele>1019</ele>
        <time>2024-09-23T07:52:32Z</time>
      </trkpt>
      <trkpt lat="42.46726" lon="2.97441">
        <ele>1020</ele>
        <time>2024-09-23T07:52:37Z</time>
      </trkpt>
      <trkpt lat="42.46727" lon="2.97445">
        <ele>1021</ele>
        <time>2024-09-23T07:52:40Z</time>
      </trkpt>
      <trkpt lat="42.46727" lon="2.97449">
        <ele>1021</ele>
        <time>2024-09-23T07:52:44Z</time>
      </trkpt>
      <trkpt lat="42.46727" lon="2.97453">
        <ele>1021</ele>
        <time>2024-09-23T07:52:47Z</time>
      </trkpt>
      <trkpt lat="42.46728" lon="2.97457">
        <ele>1022</ele>
        <time>2024-09-23T07:52:50Z</time>
      </trkpt>
      <trkpt lat="42.46729" lon="2.97461">
        <ele>1023</ele>
        <time>2024-09-23T07:52:54Z</time>
      </trkpt>
      <trkpt lat="42.4673" lon="2.97464">
        <ele>1024</ele>
        <time>2024-09-23T07:52:58Z</time>
      </trkpt>
      <trkpt lat="42.46731" lon="2.97468">
        <ele>1024</ele>
        <time>2024-09-23T07:53:02Z</time>
      </trkpt>
      <trkpt lat="42.46733" lon="2.97471">
        <ele>1025</ele>
        <time>2024-09-23T07:53:06Z</time>
      </trkpt>
      <trkpt lat="42.46734" lon="2.97475">
        <ele>1024</ele>
        <time>2024-09-23T07:53:09Z</time>
      </trkpt>
      <trkpt lat="42.46734" lon="2.97479">
        <ele>1025</ele>
        <time>2024-09-23T07:53:13Z</time>
      </trkpt>
      <trkpt lat="42.46735" lon="2.97483">
        <ele>1025</ele>
        <time>2024-09-23T07:53:17Z</time>
      </trkpt>
      <trkpt lat="42.46735" lon="2.97487">
        <ele>1026</ele>
        <time>2024-09-23T07:53:21Z</time>
      </trkpt>
      <trkpt lat="42.46736" lon="2.97491">
        <ele>1026</ele>
        <time>2024-09-23T07:53:25Z</time>
      </trkpt>
      <trkpt lat="42.46737" lon="2.97495">
        <ele>1027</ele>
        <time>2024-09-23T07:53:30Z</time>
      </trkpt>
      <trkpt lat="42.46739" lon="2.97499">
        <ele>1028</ele>
        <time>2024-09-23T07:53:34Z</time>
      </trkpt>
      <trkpt lat="42.4674" lon="2.97503">
        <ele>1028</ele>
        <time>2024-09-23T07:53:38Z</time>
      </trkpt>
      <trkpt lat="42.46742" lon="2.97506">
        <ele>1029</ele>
        <time>2024-09-23T07:53:42Z</time>
      </trkpt>
      <trkpt lat="42.46744" lon="2.9751">
        <ele>1030</ele>
        <time>2024-09-23T07:53:47Z</time>
      </trkpt>
      <trkpt lat="42.46747" lon="2.97513">
        <ele>1030</ele>
        <time>2024-09-23T07:53:51Z</time>
      </trkpt>
      <trkpt lat="42.46749" lon="2.97516">
        <ele>1032</ele>
        <time>2024-09-23T07:53:56Z</time>
      </trkpt>
      <trkpt lat="42.46751" lon="2.97519">
        <ele>1032</ele>
        <time>2024-09-23T07:54:00Z</time>
      </trkpt>
      <trkpt lat="42.46754" lon="2.97522">
        <ele>1034</ele>
        <time>2024-09-23T07:54:05Z</time>
      </trkpt>
      <trkpt lat="42.46756" lon="2.97525">
        <ele>1034</ele>
        <time>2024-09-23T07:54:08Z</time>
      </trkpt>
      <trkpt lat="42.46759" lon="2.97527">
        <ele>1035</ele>
        <time>2024-09-23T07:54:13Z</time>
      </trkpt>
      <trkpt lat="42.46762" lon="2.9753">
        <ele>1036</ele>
        <time>2024-09-23T07:54:19Z</time>
      </trkpt>
      <trkpt lat="42.46764" lon="2.97532">
        <ele>1036</ele>
        <time>2024-09-23T07:54:24Z</time>
      </trkpt>
      <trkpt lat="42.46767" lon="2.97534">
        <ele>1037</ele>
        <time>2024-09-23T07:54:28Z</time>
      </trkpt>
      <trkpt lat="42.46768" lon="2.97538">
        <ele>1039</ele>
        <time>2024-09-23T07:54:33Z</time>
      </trkpt>
      <trkpt lat="42.46768" lon="2.97541">
        <ele>1039</ele>
        <time>2024-09-23T07:54:38Z</time>
      </trkpt>
      <trkpt lat="42.46769" lon="2.97546">
        <ele>1040</ele>
        <time>2024-09-23T07:54:44Z</time>
      </trkpt>
      <trkpt lat="42.4677" lon="2.97549">
        <ele>1042</ele>
        <time>2024-09-23T07:54:48Z</time>
      </trkpt>
      <trkpt lat="42.46771" lon="2.97553">
        <ele>1042</ele>
        <time>2024-09-23T07:54:52Z</time>
      </trkpt>
      <trkpt lat="42.46771" lon="2.97557">
        <ele>1043</ele>
        <time>2024-09-23T07:54:58Z</time>
      </trkpt>
      <trkpt lat="42.46771" lon="2.97561">
        <ele>1044</ele>
        <time>2024-09-23T07:55:03Z</time>
      </trkpt>
      <trkpt lat="42.4677" lon="2.97565">
        <ele>1045</ele>
        <time>2024-09-23T07:55:07Z</time>
      </trkpt>
      <trkpt lat="42.4677" lon="2.97569">
        <ele>1045</ele>
        <time>2024-09-23T07:55:11Z</time>
      </trkpt>
      <trkpt lat="42.46771" lon="2.97573">
        <ele>1045</ele>
        <time>2024-09-23T07:55:14Z</time>
      </trkpt>
      <trkpt lat="42.46771" lon="2.97578">
        <ele>1046</ele>
        <time>2024-09-23T07:55:18Z</time>
      </trkpt>
      <trkpt lat="42.46771" lon="2.97581">
        <ele>1047</ele>
        <time>2024-09-23T07:55:22Z</time>
      </trkpt>
      <trkpt lat="42.46772" lon="2.97585">
        <ele>1048</ele>
        <time>2024-09-23T07:55:26Z</time>
      </trkpt>
      <trkpt lat="42.46772" lon="2.97589">
        <ele>1049</ele>
        <time>2024-09-23T07:55:30Z</time>
      </trkpt>
      <trkpt lat="42.46773" lon="2.97593">
        <ele>1049</ele>
        <time>2024-09-23T07:55:34Z</time>
      </trkpt>
      <trkpt lat="42.46773" lon="2.97597">
        <ele>1050</ele>
        <time>2024-09-23T07:55:38Z</time>
      </trkpt>
      <trkpt lat="42.46774" lon="2.97601">
        <ele>1050</ele>
        <time>2024-09-23T07:55:42Z</time>
      </trkpt>
      <trkpt lat="42.46775" lon="2.97605">
        <ele>1051</ele>
        <time>2024-09-23T07:55:46Z</time>
      </trkpt>
      <trkpt lat="42.46777" lon="2.97608">
        <ele>1051</ele>
        <time>2024-09-23T07:55:49Z</time>
      </trkpt>
      <trkpt lat="42.46778" lon="2.97612">
        <ele>1052</ele>
        <time>2024-09-23T07:55:53Z</time>
      </trkpt>
      <trkpt lat="42.46779" lon="2.97616">
        <ele>1052</ele>
        <time>2024-09-23T07:55:58Z</time>
      </trkpt>
      <trkpt lat="42.46781" lon="2.97619">
        <ele>1053</ele>
        <time>2024-09-23T07:56:02Z</time>
      </trkpt>
      <trkpt lat="42.46783" lon="2.97623">
        <ele>1054</ele>
        <time>2024-09-23T07:56:06Z</time>
      </trkpt>
      <trkpt lat="42.46784" lon="2.97627">
        <ele>1055</ele>
        <time>2024-09-23T07:56:10Z</time>
      </trkpt>
      <trkpt lat="42.46784" lon="2.97631">
        <ele>1056</ele>
        <time>2024-09-23T07:56:14Z</time>
      </trkpt>
      <trkpt lat="42.46785" lon="2.97635">
        <ele>1057</ele>
        <time>2024-09-23T07:56:18Z</time>
      </trkpt>
      <trkpt lat="42.46786" lon="2.97639">
        <ele>1057</ele>
        <time>2024-09-23T07:56:22Z</time>
      </trkpt>
      <trkpt lat="42.46787" lon="2.97643">
        <ele>1057</ele>
        <time>2024-09-23T07:56:26Z</time>
      </trkpt>
      <trkpt lat="42.46789" lon="2.97647">
        <ele>1058</ele>
        <time>2024-09-23T07:56:30Z</time>
      </trkpt>
      <trkpt lat="42.4679" lon="2.97651">
        <ele>1059</ele>
        <time>2024-09-23T07:56:34Z</time>
      </trkpt>
      <trkpt lat="42.46791" lon="2.97655">
        <ele>1059</ele>
        <time>2024-09-23T07:56:38Z</time>
      </trkpt>
      <trkpt lat="42.46792" lon="2.97659">
        <ele>1059</ele>
        <time>2024-09-23T07:56:41Z</time>
      </trkpt>
      <trkpt lat="42.46793" lon="2.97663">
        <ele>1060</ele>
        <time>2024-09-23T07:56:45Z</time>
      </trkpt>
      <trkpt lat="42.46792" lon="2.97668">
        <ele>1060</ele>
        <time>2024-09-23T07:56:50Z</time>
      </trkpt>
      <trkpt lat="42.46792" lon="2.97672">
        <ele>1060</ele>
        <time>2024-09-23T07:56:53Z</time>
      </trkpt>
      <trkpt lat="42.46792" lon="2.97676">
        <ele>1061</ele>
        <time>2024-09-23T07:56:56Z</time>
      </trkpt>
      <trkpt lat="42.46791" lon="2.97681">
        <ele>1061</ele>
        <time>2024-09-23T07:57:00Z</time>
      </trkpt>
      <trkpt lat="42.46791" lon="2.97685">
        <ele>1062</ele>
        <time>2024-09-23T07:57:03Z</time>
      </trkpt>
      <trkpt lat="42.4679" lon="2.97689">
        <ele>1062</ele>
        <time>2024-09-23T07:57:06Z</time>
      </trkpt>
      <trkpt lat="42.4679" lon="2.97693">
        <ele>1063</ele>
        <time>2024-09-23T07:57:10Z</time>
      </trkpt>
      <trkpt lat="42.4679" lon="2.97698">
        <ele>1063</ele>
        <time>2024-09-23T07:57:13Z</time>
      </trkpt>
      <trkpt lat="42.4679" lon="2.97702">
        <ele>1063</ele>
        <time>2024-09-23T07:57:16Z</time>
      </trkpt>
      <trkpt lat="42.4679" lon="2.97706">
        <ele>1062</ele>
        <time>2024-09-23T07:57:19Z</time>
      </trkpt>
      <trkpt lat="42.4679" lon="2.9771">
        <ele>1063</ele>
        <time>2024-09-23T07:57:21Z</time>
      </trkpt>
      <trkpt lat="42.4679" lon="2.97715">
        <ele>1063</ele>
        <time>2024-09-23T07:57:24Z</time>
      </trkpt>
      <trkpt lat="42.4679" lon="2.97719">
        <ele>1063</ele>
        <time>2024-09-23T07:57:27Z</time>
      </trkpt>
      <trkpt lat="42.4679" lon="2.97723">
        <ele>1063</ele>
        <time>2024-09-23T07:57:30Z</time>
      </trkpt>
      <trkpt lat="42.46791" lon="2.97728">
        <ele>1063</ele>
        <time>2024-09-23T07:57:37Z</time>
      </trkpt>
      <trkpt lat="42.46791" lon="2.97732">
        <ele>1063</ele>
        <time>2024-09-23T07:57:46Z</time>
      </trkpt>
      <trkpt lat="42.46792" lon="2.97736">
        <ele>1064</ele>
        <time>2024-09-23T07:57:49Z</time>
      </trkpt>
      <trkpt lat="42.46792" lon="2.97741">
        <ele>1064</ele>
        <time>2024-09-23T07:57:52Z</time>
      </trkpt>
      <trkpt lat="42.46793" lon="2.97744">
        <ele>1064</ele>
        <time>2024-09-23T07:57:55Z</time>
      </trkpt>
      <trkpt lat="42.46793" lon="2.97748">
        <ele>1064</ele>
        <time>2024-09-23T07:57:57Z</time>
      </trkpt>
      <trkpt lat="42.46794" lon="2.97752">
        <ele>1064</ele>
        <time>2024-09-23T07:58:00Z</time>
      </trkpt>
      <trkpt lat="42.46795" lon="2.97756">
        <ele>1064</ele>
        <time>2024-09-23T07:58:03Z</time>
      </trkpt>
      <trkpt lat="42.46796" lon="2.97761">
        <ele>1065</ele>
        <time>2024-09-23T07:58:06Z</time>
      </trkpt>
      <trkpt lat="42.46797" lon="2.97765">
        <ele>1065</ele>
        <time>2024-09-23T07:58:09Z</time>
      </trkpt>
      <trkpt lat="42.46798" lon="2.97769">
        <ele>1065</ele>
        <time>2024-09-23T07:58:12Z</time>
      </trkpt>
      <trkpt lat="42.46799" lon="2.97774">
        <ele>1065</ele>
        <time>2024-09-23T07:58:15Z</time>
      </trkpt>
      <trkpt lat="42.46799" lon="2.97778">
        <ele>1065</ele>
        <time>2024-09-23T07:58:18Z</time>
      </trkpt>
      <trkpt lat="42.468" lon="2.97782">
        <ele>1065</ele>
        <time>2024-09-23T07:58:21Z</time>
      </trkpt>
      <trkpt lat="42.46801" lon="2.97786">
        <ele>1065</ele>
        <time>2024-09-23T07:58:24Z</time>
      </trkpt>
      <trkpt lat="42.46802" lon="2.97791">
        <ele>1064</ele>
        <time>2024-09-23T07:58:27Z</time>
      </trkpt>
      <trkpt lat="42.46802" lon="2.97795">
        <ele>1064</ele>
        <time>2024-09-23T07:58:30Z</time>
      </trkpt>
      <trkpt lat="42.46803" lon="2.97799">
        <ele>1064</ele>
        <time>2024-09-23T07:58:33Z</time>
      </trkpt>
      <trkpt lat="42.46803" lon="2.97803">
        <ele>1064</ele>
        <time>2024-09-23T07:58:36Z</time>
      </trkpt>
      <trkpt lat="42.46804" lon="2.97808">
        <ele>1064</ele>
        <time>2024-09-23T07:58:39Z</time>
      </trkpt>
      <trkpt lat="42.46804" lon="2.97812">
        <ele>1064</ele>
        <time>2024-09-23T07:58:42Z</time>
      </trkpt>
      <trkpt lat="42.46805" lon="2.97817">
        <ele>1064</ele>
        <time>2024-09-23T07:58:45Z</time>
      </trkpt>
      <trkpt lat="42.46805" lon="2.97821">
        <ele>1064</ele>
        <time>2024-09-23T07:58:48Z</time>
      </trkpt>
      <trkpt lat="42.46805" lon="2.97826">
        <ele>1065</ele>
        <time>2024-09-23T07:58:51Z</time>
      </trkpt>
      <trkpt lat="42.46806" lon="2.97831">
        <ele>1064</ele>
        <time>2024-09-23T07:58:56Z</time>
      </trkpt>
      <trkpt lat="42.46805" lon="2.97835">
        <ele>1065</ele>
        <time>2024-09-23T07:58:58Z</time>
      </trkpt>
      <trkpt lat="42.46806" lon="2.9784">
        <ele>1065</ele>
        <time>2024-09-23T07:59:01Z</time>
      </trkpt>
      <trkpt lat="42.46806" lon="2.97845">
        <ele>1065</ele>
        <time>2024-09-23T07:59:04Z</time>
      </trkpt>
      <trkpt lat="42.46806" lon="2.97849">
        <ele>1066</ele>
        <time>2024-09-23T07:59:07Z</time>
      </trkpt>
      <trkpt lat="42.46806" lon="2.97853">
        <ele>1066</ele>
        <time>2024-09-23T07:59:09Z</time>
      </trkpt>
      <trkpt lat="42.46806" lon="2.97858">
        <ele>1066</ele>
        <time>2024-09-23T07:59:12Z</time>
      </trkpt>
      <trkpt lat="42.46807" lon="2.97863">
        <ele>1066</ele>
        <time>2024-09-23T07:59:15Z</time>
      </trkpt>
      <trkpt lat="42.46808" lon="2.97868">
        <ele>1065</ele>
        <time>2024-09-23T07:59:19Z</time>
      </trkpt>
      <trkpt lat="42.46809" lon="2.97872">
        <ele>1064</ele>
        <time>2024-09-23T07:59:22Z</time>
      </trkpt>
      <trkpt lat="42.4681" lon="2.97876">
        <ele>1064</ele>
        <time>2024-09-23T07:59:25Z</time>
      </trkpt>
      <trkpt lat="42.46811" lon="2.9788">
        <ele>1063</ele>
        <time>2024-09-23T07:59:27Z</time>
      </trkpt>
      <trkpt lat="42.46812" lon="2.97885">
        <ele>1064</ele>
        <time>2024-09-23T07:59:30Z</time>
      </trkpt>
      <trkpt lat="42.46813" lon="2.97889">
        <ele>1064</ele>
        <time>2024-09-23T07:59:33Z</time>
      </trkpt>
      <trkpt lat="42.46814" lon="2.97894">
        <ele>1064</ele>
        <time>2024-09-23T07:59:36Z</time>
      </trkpt>
      <trkpt lat="42.46815" lon="2.97898">
        <ele>1063</ele>
        <time>2024-09-23T07:59:39Z</time>
      </trkpt>
      <trkpt lat="42.46816" lon="2.97903">
        <ele>1063</ele>
        <time>2024-09-23T07:59:42Z</time>
      </trkpt>
      <trkpt lat="42.46817" lon="2.97907">
        <ele>1063</ele>
        <time>2024-09-23T07:59:45Z</time>
      </trkpt>
      <trkpt lat="42.46818" lon="2.97911">
        <ele>1063</ele>
        <time>2024-09-23T07:59:48Z</time>
      </trkpt>
      <trkpt lat="42.46819" lon="2.97915">
        <ele>1063</ele>
        <time>2024-09-23T07:59:51Z</time>
      </trkpt>
      <trkpt lat="42.4682" lon="2.97919">
        <ele>1063</ele>
        <time>2024-09-23T07:59:54Z</time>
      </trkpt>
      <trkpt lat="42.46821" lon="2.97924">
        <ele>1062</ele>
        <time>2024-09-23T07:59:57Z</time>
      </trkpt>
      <trkpt lat="42.46822" lon="2.97928">
        <ele>1063</ele>
        <time>2024-09-23T08:00:00Z</time>
      </trkpt>
      <trkpt lat="42.46822" lon="2.97933">
        <ele>1063</ele>
        <time>2024-09-23T08:00:03Z</time>
      </trkpt>
      <trkpt lat="42.46823" lon="2.97937">
        <ele>1062</ele>
        <time>2024-09-23T08:00:06Z</time>
      </trkpt>
      <trkpt lat="42.46823" lon="2.97941">
        <ele>1062</ele>
        <time>2024-09-23T08:00:09Z</time>
      </trkpt>
      <trkpt lat="42.46824" lon="2.97945">
        <ele>1062</ele>
        <time>2024-09-23T08:00:12Z</time>
      </trkpt>
      <trkpt lat="42.46824" lon="2.97949">
        <ele>1061</ele>
        <time>2024-09-23T08:00:15Z</time>
      </trkpt>
      <trkpt lat="42.46826" lon="2.97953">
        <ele>1060</ele>
        <time>2024-09-23T08:00:18Z</time>
      </trkpt>
      <trkpt lat="42.46827" lon="2.97958">
        <ele>1060</ele>
        <time>2024-09-23T08:00:21Z</time>
      </trkpt>
      <trkpt lat="42.46828" lon="2.97963">
        <ele>1060</ele>
        <time>2024-09-23T08:00:24Z</time>
      </trkpt>
      <trkpt lat="42.46829" lon="2.97967">
        <ele>1060</ele>
        <time>2024-09-23T08:00:27Z</time>
      </trkpt>
      <trkpt lat="42.4683" lon="2.97973">
        <ele>1060</ele>
        <time>2024-09-23T08:00:30Z</time>
      </trkpt>
      <trkpt lat="42.46832" lon="2.97978">
        <ele>1059</ele>
        <time>2024-09-23T08:00:34Z</time>
      </trkpt>
      <trkpt lat="42.46834" lon="2.97983">
        <ele>1057</ele>
        <time>2024-09-23T08:00:37Z</time>
      </trkpt>
      <trkpt lat="42.46836" lon="2.97987">
        <ele>1057</ele>
        <time>2024-09-23T08:00:41Z</time>
      </trkpt>
      <trkpt lat="42.46838" lon="2.9799">
        <ele>1057</ele>
        <time>2024-09-23T08:00:44Z</time>
      </trkpt>
      <trkpt lat="42.4684" lon="2.97994">
        <ele>1056</ele>
        <time>2024-09-23T08:00:47Z</time>
      </trkpt>
      <trkpt lat="42.46843" lon="2.97997">
        <ele>1056</ele>
        <time>2024-09-23T08:00:50Z</time>
      </trkpt>
      <trkpt lat="42.46845" lon="2.98001">
        <ele>1055</ele>
        <time>2024-09-23T08:00:53Z</time>
      </trkpt>
      <trkpt lat="42.46847" lon="2.98005">
        <ele>1055</ele>
        <time>2024-09-23T08:00:56Z</time>
      </trkpt>
      <trkpt lat="42.46849" lon="2.98009">
        <ele>1055</ele>
        <time>2024-09-23T08:01:00Z</time>
      </trkpt>
      <trkpt lat="42.4685" lon="2.98014">
        <ele>1055</ele>
        <time>2024-09-23T08:01:03Z</time>
      </trkpt>
      <trkpt lat="42.4685" lon="2.98018">
        <ele>1055</ele>
        <time>2024-09-23T08:01:12Z</time>
      </trkpt>
      <trkpt lat="42.46849" lon="2.98022">
        <ele>1055</ele>
        <time>2024-09-23T08:01:15Z</time>
      </trkpt>
      <trkpt lat="42.46848" lon="2.98027">
        <ele>1055</ele>
        <time>2024-09-23T08:01:18Z</time>
      </trkpt>
      <trkpt lat="42.46848" lon="2.98031">
        <ele>1055</ele>
        <time>2024-09-23T08:01:20Z</time>
      </trkpt>
      <trkpt lat="42.46847" lon="2.98034">
        <ele>1055</ele>
        <time>2024-09-23T08:01:22Z</time>
      </trkpt>
      <trkpt lat="42.46846" lon="2.98038">
        <ele>1055</ele>
        <time>2024-09-23T08:01:24Z</time>
      </trkpt>
      <trkpt lat="42.46845" lon="2.98042">
        <ele>1054</ele>
        <time>2024-09-23T08:01:27Z</time>
      </trkpt>
      <trkpt lat="42.46845" lon="2.98047">
        <ele>1054</ele>
        <time>2024-09-23T08:01:30Z</time>
      </trkpt>
      <trkpt lat="42.46844" lon="2.98051">
        <ele>1053</ele>
        <time>2024-09-23T08:01:32Z</time>
      </trkpt>
      <trkpt lat="42.46845" lon="2.98054">
        <ele>1053</ele>
        <time>2024-09-23T08:01:34Z</time>
      </trkpt>
      <trkpt lat="42.46846" lon="2.98058">
        <ele>1052</ele>
        <time>2024-09-23T08:01:37Z</time>
      </trkpt>
      <trkpt lat="42.46848" lon="2.98062">
        <ele>1052</ele>
        <time>2024-09-23T08:01:39Z</time>
      </trkpt>
      <trkpt lat="42.4685" lon="2.98065">
        <ele>1052</ele>
        <time>2024-09-23T08:01:42Z</time>
      </trkpt>
      <trkpt lat="42.46851" lon="2.98069">
        <ele>1051</ele>
        <time>2024-09-23T08:01:44Z</time>
      </trkpt>
      <trkpt lat="42.46852" lon="2.98072">
        <ele>1051</ele>
        <time>2024-09-23T08:01:46Z</time>
      </trkpt>
      <trkpt lat="42.46854" lon="2.98076">
        <ele>1051</ele>
        <time>2024-09-23T08:01:49Z</time>
      </trkpt>
      <trkpt lat="42.46856" lon="2.98078">
        <ele>1050</ele>
        <time>2024-09-23T08:02:01Z</time>
      </trkpt>
      <trkpt lat="42.46859" lon="2.98079">
        <ele>1051</ele>
        <time>2024-09-23T08:02:04Z</time>
      </trkpt>
      <trkpt lat="42.46862" lon="2.98079">
        <ele>1052</ele>
        <time>2024-09-23T08:02:07Z</time>
      </trkpt>
      <trkpt lat="42.46865" lon="2.98079">
        <ele>1052</ele>
        <time>2024-09-23T08:02:10Z</time>
      </trkpt>
      <trkpt lat="42.46869" lon="2.98079">
        <ele>1052</ele>
        <time>2024-09-23T08:02:13Z</time>
      </trkpt>
      <trkpt lat="42.46872" lon="2.98079">
        <ele>1053</ele>
        <time>2024-09-23T08:02:16Z</time>
      </trkpt>
      <trkpt lat="42.46876" lon="2.9808">
        <ele>1053</ele>
        <time>2024-09-23T08:02:19Z</time>
      </trkpt>
      <trkpt lat="42.46879" lon="2.98082">
        <ele>1053</ele>
        <time>2024-09-23T08:02:22Z</time>
      </trkpt>
      <trkpt lat="42.46882" lon="2.98084">
        <ele>1052</ele>
        <time>2024-09-23T08:02:25Z</time>
      </trkpt>
      <trkpt lat="42.46885" lon="2.98084">
        <ele>1052</ele>
        <time>2024-09-23T08:02:28Z</time>
      </trkpt>
      <trkpt lat="42.46888" lon="2.98084">
        <ele>1053</ele>
        <time>2024-09-23T08:02:31Z</time>
      </trkpt>
      <trkpt lat="42.4689" lon="2.98085">
        <ele>1053</ele>
        <time>2024-09-23T08:02:34Z</time>
      </trkpt>
      <trkpt lat="42.46893" lon="2.98086">
        <ele>1052</ele>
        <time>2024-09-23T08:02:36Z</time>
      </trkpt>
      <trkpt lat="42.46896" lon="2.98088">
        <ele>1052</ele>
        <time>2024-09-23T08:02:39Z</time>
      </trkpt>
      <trkpt lat="42.46899" lon="2.98091">
        <ele>1052</ele>
        <time>2024-09-23T08:02:43Z</time>
      </trkpt>
      <trkpt lat="42.46901" lon="2.98094">
        <ele>1051</ele>
        <time>2024-09-23T08:02:45Z</time>
      </trkpt>
      <trkpt lat="42.46903" lon="2.98097">
        <ele>1051</ele>
        <time>2024-09-23T08:02:48Z</time>
      </trkpt>
      <trkpt lat="42.46906" lon="2.981">
        <ele>1051</ele>
        <time>2024-09-23T08:02:51Z</time>
      </trkpt>
      <trkpt lat="42.46909" lon="2.98104">
        <ele>1050</ele>
        <time>2024-09-23T08:02:54Z</time>
      </trkpt>
      <trkpt lat="42.46911" lon="2.98106">
        <ele>1049</ele>
        <time>2024-09-23T08:02:57Z</time>
      </trkpt>
      <trkpt lat="42.46914" lon="2.98109">
        <ele>1049</ele>
        <time>2024-09-23T08:03:00Z</time>
      </trkpt>
      <trkpt lat="42.46916" lon="2.98112">
        <ele>1049</ele>
        <time>2024-09-23T08:03:03Z</time>
      </trkpt>
      <trkpt lat="42.46919" lon="2.98114">
        <ele>1049</ele>
        <time>2024-09-23T08:03:07Z</time>
      </trkpt>
      <trkpt lat="42.46923" lon="2.98116">
        <ele>1049</ele>
        <time>2024-09-23T08:03:10Z</time>
      </trkpt>
      <trkpt lat="42.46926" lon="2.98118">
        <ele>1048</ele>
        <time>2024-09-23T08:03:13Z</time>
      </trkpt>
      <trkpt lat="42.46928" lon="2.9812">
        <ele>1049</ele>
        <time>2024-09-23T08:03:15Z</time>
      </trkpt>
      <trkpt lat="42.46931" lon="2.98123">
        <ele>1049</ele>
        <time>2024-09-23T08:03:18Z</time>
      </trkpt>
      <trkpt lat="42.46934" lon="2.98125">
        <ele>1049</ele>
        <time>2024-09-23T08:03:21Z</time>
      </trkpt>
      <trkpt lat="42.46937" lon="2.98128">
        <ele>1049</ele>
        <time>2024-09-23T08:03:24Z</time>
      </trkpt>
      <trkpt lat="42.4694" lon="2.9813">
        <ele>1049</ele>
        <time>2024-09-23T08:03:26Z</time>
      </trkpt>
      <trkpt lat="42.46943" lon="2.98132">
        <ele>1049</ele>
        <time>2024-09-23T08:03:29Z</time>
      </trkpt>
      <trkpt lat="42.46946" lon="2.98134">
        <ele>1049</ele>
        <time>2024-09-23T08:03:32Z</time>
      </trkpt>
      <trkpt lat="42.46949" lon="2.98135">
        <ele>1049</ele>
        <time>2024-09-23T08:03:35Z</time>
      </trkpt>
      <trkpt lat="42.46952" lon="2.98137">
        <ele>1049</ele>
        <time>2024-09-23T08:03:37Z</time>
      </trkpt>
      <trkpt lat="42.46956" lon="2.98139">
        <ele>1049</ele>
        <time>2024-09-23T08:03:40Z</time>
      </trkpt>
      <trkpt lat="42.46959" lon="2.98141">
        <ele>1049</ele>
        <time>2024-09-23T08:03:43Z</time>
      </trkpt>
      <trkpt lat="42.46962" lon="2.98142">
        <ele>1049</ele>
        <time>2024-09-23T08:03:46Z</time>
      </trkpt>
      <trkpt lat="42.46966" lon="2.98144">
        <ele>1050</ele>
        <time>2024-09-23T08:03:49Z</time>
      </trkpt>
      <trkpt lat="42.46969" lon="2.98145">
        <ele>1049</ele>
        <time>2024-09-23T08:03:52Z</time>
      </trkpt>
      <trkpt lat="42.46972" lon="2.98147">
        <ele>1050</ele>
        <time>2024-09-23T08:03:55Z</time>
      </trkpt>
      <trkpt lat="42.46975" lon="2.98149">
        <ele>1049</ele>
        <time>2024-09-23T08:03:58Z</time>
      </trkpt>
      <trkpt lat="42.46979" lon="2.98151">
        <ele>1049</ele>
        <time>2024-09-23T08:04:01Z</time>
      </trkpt>
      <trkpt lat="42.46981" lon="2.98153">
        <ele>1049</ele>
        <time>2024-09-23T08:04:03Z</time>
      </trkpt>
      <trkpt lat="42.46984" lon="2.98155">
        <ele>1049</ele>
        <time>2024-09-23T08:04:05Z</time>
      </trkpt>
      <trkpt lat="42.46987" lon="2.98156">
        <ele>1049</ele>
        <time>2024-09-23T08:04:08Z</time>
      </trkpt>
      <trkpt lat="42.4699" lon="2.98157">
        <ele>1048</ele>
        <time>2024-09-23T08:04:11Z</time>
      </trkpt>
      <trkpt lat="42.46993" lon="2.98159">
        <ele>1047</ele>
        <time>2024-09-23T08:04:14Z</time>
      </trkpt>
      <trkpt lat="42.46997" lon="2.9816">
        <ele>1047</ele>
        <time>2024-09-23T08:04:17Z</time>
      </trkpt>
      <trkpt lat="42.47" lon="2.98162">
        <ele>1048</ele>
        <time>2024-09-23T08:04:20Z</time>
      </trkpt>
      <trkpt lat="42.47003" lon="2.98163">
        <ele>1047</ele>
        <time>2024-09-23T08:04:22Z</time>
      </trkpt>
      <trkpt lat="42.47006" lon="2.98163">
        <ele>1047</ele>
        <time>2024-09-23T08:04:25Z</time>
      </trkpt>
      <trkpt lat="42.4701" lon="2.98164">
        <ele>1047</ele>
        <time>2024-09-23T08:04:28Z</time>
      </trkpt>
      <trkpt lat="42.47013" lon="2.98165">
        <ele>1047</ele>
        <time>2024-09-23T08:04:31Z</time>
      </trkpt>
      <trkpt lat="42.47016" lon="2.98165">
        <ele>1048</ele>
        <time>2024-09-23T08:04:33Z</time>
      </trkpt>
      <trkpt lat="42.47019" lon="2.98166">
        <ele>1049</ele>
        <time>2024-09-23T08:04:36Z</time>
      </trkpt>
      <trkpt lat="42.47022" lon="2.98167">
        <ele>1049</ele>
        <time>2024-09-23T08:04:39Z</time>
      </trkpt>
      <trkpt lat="42.47026" lon="2.98166">
        <ele>1049</ele>
        <time>2024-09-23T08:04:42Z</time>
      </trkpt>
      <trkpt lat="42.47029" lon="2.98166">
        <ele>1049</ele>
        <time>2024-09-23T08:04:45Z</time>
      </trkpt>
      <trkpt lat="42.47032" lon="2.98166">
        <ele>1049</ele>
        <time>2024-09-23T08:04:47Z</time>
      </trkpt>
      <trkpt lat="42.47035" lon="2.98166">
        <ele>1049</ele>
        <time>2024-09-23T08:04:50Z</time>
      </trkpt>
      <trkpt lat="42.47038" lon="2.98166">
        <ele>1049</ele>
        <time>2024-09-23T08:04:52Z</time>
      </trkpt>
      <trkpt lat="42.47041" lon="2.98167">
        <ele>1049</ele>
        <time>2024-09-23T08:04:55Z</time>
      </trkpt>
      <trkpt lat="42.47045" lon="2.98167">
        <ele>1048</ele>
        <time>2024-09-23T08:04:58Z</time>
      </trkpt>
      <trkpt lat="42.47049" lon="2.98168">
        <ele>1048</ele>
        <time>2024-09-23T08:05:01Z</time>
      </trkpt>
      <trkpt lat="42.47052" lon="2.98168">
        <ele>1048</ele>
        <time>2024-09-23T08:05:04Z</time>
      </trkpt>
      <trkpt lat="42.47055" lon="2.98168">
        <ele>1048</ele>
        <time>2024-09-23T08:05:06Z</time>
      </trkpt>
      <trkpt lat="42.47058" lon="2.98169">
        <ele>1047</ele>
        <time>2024-09-23T08:05:09Z</time>
      </trkpt>
      <trkpt lat="42.4706" lon="2.98169">
        <ele>1048</ele>
        <time>2024-09-23T08:05:12Z</time>
      </trkpt>
      <trkpt lat="42.47063" lon="2.98171">
        <ele>1048</ele>
        <time>2024-09-23T08:05:15Z</time>
      </trkpt>
      <trkpt lat="42.47066" lon="2.98172">
        <ele>1049</ele>
        <time>2024-09-23T08:05:18Z</time>
      </trkpt>
      <trkpt lat="42.4707" lon="2.98172">
        <ele>1048</ele>
        <time>2024-09-23T08:05:21Z</time>
      </trkpt>
      <trkpt lat="42.47074" lon="2.98173">
        <ele>1048</ele>
        <time>2024-09-23T08:05:24Z</time>
      </trkpt>
      <trkpt lat="42.47078" lon="2.98173">
        <ele>1048</ele>
        <time>2024-09-23T08:05:28Z</time>
      </trkpt>
      <trkpt lat="42.47081" lon="2.98173">
        <ele>1048</ele>
        <time>2024-09-23T08:05:30Z</time>
      </trkpt>
      <trkpt lat="42.47084" lon="2.98174">
        <ele>1049</ele>
        <time>2024-09-23T08:05:32Z</time>
      </trkpt>
      <trkpt lat="42.47088" lon="2.98175">
        <ele>1049</ele>
        <time>2024-09-23T08:05:35Z</time>
      </trkpt>
      <trkpt lat="42.47091" lon="2.98177">
        <ele>1049</ele>
        <time>2024-09-23T08:05:38Z</time>
      </trkpt>
      <trkpt lat="42.47094" lon="2.9818">
        <ele>1049</ele>
        <time>2024-09-23T08:05:41Z</time>
      </trkpt>
      <trkpt lat="42.47097" lon="2.98182">
        <ele>1049</ele>
        <time>2024-09-23T08:05:44Z</time>
      </trkpt>
      <trkpt lat="42.47101" lon="2.98183">
        <ele>1049</ele>
        <time>2024-09-23T08:05:46Z</time>
      </trkpt>
      <trkpt lat="42.47104" lon="2.98185">
        <ele>1048</ele>
        <time>2024-09-23T08:05:49Z</time>
      </trkpt>
      <trkpt lat="42.47107" lon="2.98186">
        <ele>1048</ele>
        <time>2024-09-23T08:05:51Z</time>
      </trkpt>
      <trkpt lat="42.4711" lon="2.98186">
        <ele>1048</ele>
        <time>2024-09-23T08:05:53Z</time>
      </trkpt>
      <trkpt lat="42.47114" lon="2.98187">
        <ele>1048</ele>
        <time>2024-09-23T08:05:56Z</time>
      </trkpt>
      <trkpt lat="42.47117" lon="2.98187">
        <ele>1048</ele>
        <time>2024-09-23T08:05:58Z</time>
      </trkpt>
      <trkpt lat="42.47121" lon="2.98186">
        <ele>1048</ele>
        <time>2024-09-23T08:06:01Z</time>
      </trkpt>
      <trkpt lat="42.47124" lon="2.98187">
        <ele>1047</ele>
        <time>2024-09-23T08:06:04Z</time>
      </trkpt>
      <trkpt lat="42.47127" lon="2.98187">
        <ele>1047</ele>
        <time>2024-09-23T08:06:06Z</time>
      </trkpt>
      <trkpt lat="42.4713" lon="2.98188">
        <ele>1048</ele>
        <time>2024-09-23T08:06:09Z</time>
      </trkpt>
      <trkpt lat="42.47134" lon="2.98188">
        <ele>1048</ele>
        <time>2024-09-23T08:06:12Z</time>
      </trkpt>
      <trkpt lat="42.47137" lon="2.98189">
        <ele>1047</ele>
        <time>2024-09-23T08:06:15Z</time>
      </trkpt>
      <trkpt lat="42.47141" lon="2.9819">
        <ele>1046</ele>
        <time>2024-09-23T08:06:18Z</time>
      </trkpt>
      <trkpt lat="42.47144" lon="2.98192">
        <ele>1046</ele>
        <time>2024-09-23T08:06:21Z</time>
      </trkpt>
      <trkpt lat="42.47147" lon="2.98194">
        <ele>1046</ele>
        <time>2024-09-23T08:06:24Z</time>
      </trkpt>
      <trkpt lat="42.4715" lon="2.98197">
        <ele>1045</ele>
        <time>2024-09-23T08:06:27Z</time>
      </trkpt>
      <trkpt lat="42.47154" lon="2.982">
        <ele>1044</ele>
        <time>2024-09-23T08:06:30Z</time>
      </trkpt>
      <trkpt lat="42.47156" lon="2.98203">
        <ele>1044</ele>
        <time>2024-09-23T08:06:34Z</time>
      </trkpt>
      <trkpt lat="42.47158" lon="2.98206">
        <ele>1044</ele>
        <time>2024-09-23T08:06:36Z</time>
      </trkpt>
      <trkpt lat="42.47161" lon="2.98208">
        <ele>1044</ele>
        <time>2024-09-23T08:06:38Z</time>
      </trkpt>
      <trkpt lat="42.47164" lon="2.9821">
        <ele>1044</ele>
        <time>2024-09-23T08:06:41Z</time>
      </trkpt>
      <trkpt lat="42.47166" lon="2.98212">
        <ele>1044</ele>
        <time>2024-09-23T08:06:43Z</time>
      </trkpt>
      <trkpt lat="42.47169" lon="2.98215">
        <ele>1044</ele>
        <time>2024-09-23T08:06:46Z</time>
      </trkpt>
      <trkpt lat="42.47172" lon="2.98218">
        <ele>1044</ele>
        <time>2024-09-23T08:06:49Z</time>
      </trkpt>
      <trkpt lat="42.47175" lon="2.98221">
        <ele>1043</ele>
        <time>2024-09-23T08:06:52Z</time>
      </trkpt>
      <trkpt lat="42.47178" lon="2.98224">
        <ele>1043</ele>
        <time>2024-09-23T08:06:55Z</time>
      </trkpt>
      <trkpt lat="42.47181" lon="2.98227">
        <ele>1042</ele>
        <time>2024-09-23T08:06:58Z</time>
      </trkpt>
      <trkpt lat="42.47183" lon="2.9823">
        <ele>1042</ele>
        <time>2024-09-23T08:07:01Z</time>
      </trkpt>
      <trkpt lat="42.47185" lon="2.98234">
        <ele>1041</ele>
        <time>2024-09-23T08:07:04Z</time>
      </trkpt>
      <trkpt lat="42.47186" lon="2.98238">
        <ele>1041</ele>
        <time>2024-09-23T08:07:06Z</time>
      </trkpt>
      <trkpt lat="42.47187" lon="2.98242">
        <ele>1040</ele>
        <time>2024-09-23T08:07:09Z</time>
      </trkpt>
      <trkpt lat="42.4719" lon="2.98246">
        <ele>1039</ele>
        <time>2024-09-23T08:07:15Z</time>
      </trkpt>
      <trkpt lat="42.47191" lon="2.9825">
        <ele>1039</ele>
        <time>2024-09-23T08:07:19Z</time>
      </trkpt>
      <trkpt lat="42.47193" lon="2.98254">
        <ele>1038</ele>
        <time>2024-09-23T08:07:22Z</time>
      </trkpt>
      <trkpt lat="42.47194" lon="2.98259">
        <ele>1039</ele>
        <time>2024-09-23T08:07:26Z</time>
      </trkpt>
      <trkpt lat="42.47196" lon="2.98263">
        <ele>1038</ele>
        <time>2024-09-23T08:07:30Z</time>
      </trkpt>
      <trkpt lat="42.47197" lon="2.98267">
        <ele>1037</ele>
        <time>2024-09-23T08:07:33Z</time>
      </trkpt>
      <trkpt lat="42.47198" lon="2.98271">
        <ele>1037</ele>
        <time>2024-09-23T08:07:35Z</time>
      </trkpt>
      <trkpt lat="42.472" lon="2.98273">
        <ele>1035</ele>
        <time>2024-09-23T08:07:37Z</time>
      </trkpt>
      <trkpt lat="42.47202" lon="2.98277">
        <ele>1034</ele>
        <time>2024-09-23T08:07:40Z</time>
      </trkpt>
      <trkpt lat="42.47203" lon="2.98282">
        <ele>1035</ele>
        <time>2024-09-23T08:07:43Z</time>
      </trkpt>
      <trkpt lat="42.47205" lon="2.98287">
        <ele>1034</ele>
        <time>2024-09-23T08:07:46Z</time>
      </trkpt>
      <trkpt lat="42.47206" lon="2.98291">
        <ele>1034</ele>
        <time>2024-09-23T08:07:48Z</time>
      </trkpt>
      <trkpt lat="42.47208" lon="2.98295">
        <ele>1033</ele>
        <time>2024-09-23T08:07:51Z</time>
      </trkpt>
      <trkpt lat="42.47209" lon="2.98299">
        <ele>1032</ele>
        <time>2024-09-23T08:07:53Z</time>
      </trkpt>
      <trkpt lat="42.47211" lon="2.98304">
        <ele>1031</ele>
        <time>2024-09-23T08:07:56Z</time>
      </trkpt>
      <trkpt lat="42.47213" lon="2.98308">
        <ele>1031</ele>
        <time>2024-09-23T08:07:59Z</time>
      </trkpt>
      <trkpt lat="42.47213" lon="2.98312">
        <ele>1030</ele>
        <time>2024-09-23T08:08:13Z</time>
      </trkpt>
      <trkpt lat="42.47214" lon="2.98316">
        <ele>1031</ele>
        <time>2024-09-23T08:08:17Z</time>
      </trkpt>
      <trkpt lat="42.47216" lon="2.9832">
        <ele>1031</ele>
        <time>2024-09-23T08:08:19Z</time>
      </trkpt>
      <trkpt lat="42.47219" lon="2.98323">
        <ele>1031</ele>
        <time>2024-09-23T08:08:23Z</time>
      </trkpt>
      <trkpt lat="42.47221" lon="2.98325">
        <ele>1031</ele>
        <time>2024-09-23T08:08:33Z</time>
      </trkpt>
      <trkpt lat="42.47221" lon="2.98324">
        <ele>1032</ele>
        <time>2024-09-23T08:08:43Z</time>
      </trkpt>
      <trkpt lat="42.47219" lon="2.98323">
        <ele>1031</ele>
        <time>2024-09-23T08:08:46Z</time>
      </trkpt>
      <trkpt lat="42.47216" lon="2.9832">
        <ele>1031</ele>
        <time>2024-09-23T08:08:49Z</time>
      </trkpt>
      <trkpt lat="42.47214" lon="2.98318">
        <ele>1030</ele>
        <time>2024-09-23T08:09:02Z</time>
      </trkpt>
      <trkpt lat="42.47212" lon="2.98314">
        <ele>1031</ele>
        <time>2024-09-23T08:09:15Z</time>
      </trkpt>
      <trkpt lat="42.47213" lon="2.98315">
        <ele>1031</ele>
        <time>2024-09-23T08:09:20Z</time>
      </trkpt>
      <trkpt lat="42.47213" lon="2.98319">
        <ele>1031</ele>
        <time>2024-09-23T08:09:24Z</time>
      </trkpt>
      <trkpt lat="42.47214" lon="2.98322">
        <ele>1030</ele>
        <time>2024-09-23T08:09:27Z</time>
      </trkpt>
      <trkpt lat="42.47216" lon="2.98326">
        <ele>1029</ele>
        <time>2024-09-23T08:09:32Z</time>
      </trkpt>
      <trkpt lat="42.47217" lon="2.9833">
        <ele>1029</ele>
        <time>2024-09-23T08:09:59Z</time>
      </trkpt>
      <trkpt lat="42.47218" lon="2.98328">
        <ele>1029</ele>
        <time>2024-09-23T08:10:06Z</time>
      </trkpt>
      <trkpt lat="42.47217" lon="2.98325">
        <ele>1030</ele>
        <time>2024-09-23T08:10:08Z</time>
      </trkpt>
      <trkpt lat="42.47216" lon="2.98322">
        <ele>1029</ele>
        <time>2024-09-23T08:10:12Z</time>
      </trkpt>
      <trkpt lat="42.47215" lon="2.98323">
        <ele>1031</ele>
        <time>2024-09-23T08:10:58Z</time>
      </trkpt>
      <trkpt lat="42.47216" lon="2.98326">
        <ele>1031</ele>
        <time>2024-09-23T08:11:25Z</time>
      </trkpt>
      <trkpt lat="42.47218" lon="2.98326">
        <ele>1030</ele>
        <time>2024-09-23T08:11:28Z</time>
      </trkpt>
      <trkpt lat="42.47221" lon="2.98325">
        <ele>1031</ele>
        <time>2024-09-23T08:11:32Z</time>
      </trkpt>
      <trkpt lat="42.47224" lon="2.98326">
        <ele>1031</ele>
        <time>2024-09-23T08:11:35Z</time>
      </trkpt>
      <trkpt lat="42.47227" lon="2.98327">
        <ele>1031</ele>
        <time>2024-09-23T08:11:38Z</time>
      </trkpt>
      <trkpt lat="42.4723" lon="2.98329">
        <ele>1031</ele>
        <time>2024-09-23T08:11:41Z</time>
      </trkpt>
      <trkpt lat="42.47232" lon="2.98332">
        <ele>1031</ele>
        <time>2024-09-23T08:11:45Z</time>
      </trkpt>
      <trkpt lat="42.47234" lon="2.98334">
        <ele>1031</ele>
        <time>2024-09-23T08:11:48Z</time>
      </trkpt>
      <trkpt lat="42.47237" lon="2.98336">
        <ele>1031</ele>
        <time>2024-09-23T08:11:50Z</time>
      </trkpt>
      <trkpt lat="42.47239" lon="2.98339">
        <ele>1032</ele>
        <time>2024-09-23T08:11:53Z</time>
      </trkpt>
      <trkpt lat="42.47242" lon="2.98341">
        <ele>1031</ele>
        <time>2024-09-23T08:11:56Z</time>
      </trkpt>
      <trkpt lat="42.47244" lon="2.98344">
        <ele>1032</ele>
        <time>2024-09-23T08:11:58Z</time>
      </trkpt>
      <trkpt lat="42.47246" lon="2.98346">
        <ele>1032</ele>
        <time>2024-09-23T08:12:01Z</time>
      </trkpt>
      <trkpt lat="42.47249" lon="2.98349">
        <ele>1032</ele>
        <time>2024-09-23T08:12:03Z</time>
      </trkpt>
      <trkpt lat="42.47251" lon="2.98351">
        <ele>1033</ele>
        <time>2024-09-23T08:12:06Z</time>
      </trkpt>
      <trkpt lat="42.47254" lon="2.98354">
        <ele>1034</ele>
        <time>2024-09-23T08:12:09Z</time>
      </trkpt>
      <trkpt lat="42.47256" lon="2.98357">
        <ele>1034</ele>
        <time>2024-09-23T08:12:12Z</time>
      </trkpt>
      <trkpt lat="42.47258" lon="2.9836">
        <ele>1034</ele>
        <time>2024-09-23T08:12:15Z</time>
      </trkpt>
      <trkpt lat="42.47261" lon="2.98363">
        <ele>1036</ele>
        <time>2024-09-23T08:12:19Z</time>
      </trkpt>
      <trkpt lat="42.47263" lon="2.98366">
        <ele>1036</ele>
        <time>2024-09-23T08:12:23Z</time>
      </trkpt>
      <trkpt lat="42.47266" lon="2.98368">
        <ele>1036</ele>
        <time>2024-09-23T08:12:26Z</time>
      </trkpt>
      <trkpt lat="42.47268" lon="2.9837">
        <ele>1037</ele>
        <time>2024-09-23T08:12:29Z</time>
      </trkpt>
      <trkpt lat="42.47271" lon="2.98372">
        <ele>1037</ele>
        <time>2024-09-23T08:12:32Z</time>
      </trkpt>
      <trkpt lat="42.47274" lon="2.98374">
        <ele>1037</ele>
        <time>2024-09-23T08:12:35Z</time>
      </trkpt>
      <trkpt lat="42.47276" lon="2.98377">
        <ele>1038</ele>
        <time>2024-09-23T08:12:38Z</time>
      </trkpt>
      <trkpt lat="42.47278" lon="2.98379">
        <ele>1038</ele>
        <time>2024-09-23T08:12:41Z</time>
      </trkpt>
      <trkpt lat="42.47281" lon="2.98382">
        <ele>1038</ele>
        <time>2024-09-23T08:12:46Z</time>
      </trkpt>
      <trkpt lat="42.47283" lon="2.98384">
        <ele>1039</ele>
        <time>2024-09-23T08:12:49Z</time>
      </trkpt>
      <trkpt lat="42.47284" lon="2.98388">
        <ele>1040</ele>
        <time>2024-09-23T08:12:52Z</time>
      </trkpt>
      <trkpt lat="42.47286" lon="2.98391">
        <ele>1041</ele>
        <time>2024-09-23T08:12:56Z</time>
      </trkpt>
      <trkpt lat="42.47288" lon="2.98393">
        <ele>1041</ele>
        <time>2024-09-23T08:13:00Z</time>
      </trkpt>
      <trkpt lat="42.4729" lon="2.98396">
        <ele>1041</ele>
        <time>2024-09-23T08:13:04Z</time>
      </trkpt>
      <trkpt lat="42.47293" lon="2.98398">
        <ele>1042</ele>
        <time>2024-09-23T08:13:08Z</time>
      </trkpt>
      <trkpt lat="42.47295" lon="2.98401">
        <ele>1043</ele>
        <time>2024-09-23T08:13:12Z</time>
      </trkpt>
      <trkpt lat="42.47298" lon="2.98404">
        <ele>1043</ele>
        <time>2024-09-23T08:13:17Z</time>
      </trkpt>
      <trkpt lat="42.473" lon="2.98406">
        <ele>1043</ele>
        <time>2024-09-23T08:13:21Z</time>
      </trkpt>
      <trkpt lat="42.47302" lon="2.98409">
        <ele>1044</ele>
        <time>2024-09-23T08:13:26Z</time>
      </trkpt>
      <trkpt lat="42.47304" lon="2.98412">
        <ele>1045</ele>
        <time>2024-09-23T08:13:30Z</time>
      </trkpt>
      <trkpt lat="42.47306" lon="2.98414">
        <ele>1045</ele>
        <time>2024-09-23T08:13:33Z</time>
      </trkpt>
      <trkpt lat="42.47308" lon="2.98417">
        <ele>1045</ele>
        <time>2024-09-23T08:13:38Z</time>
      </trkpt>
      <trkpt lat="42.47311" lon="2.98419">
        <ele>1046</ele>
        <time>2024-09-23T08:13:43Z</time>
      </trkpt>
      <trkpt lat="42.47314" lon="2.98421">
        <ele>1047</ele>
        <time>2024-09-23T08:13:47Z</time>
      </trkpt>
      <trkpt lat="42.47317" lon="2.98423">
        <ele>1048</ele>
        <time>2024-09-23T08:13:51Z</time>
      </trkpt>
      <trkpt lat="42.4732" lon="2.98425">
        <ele>1047</ele>
        <time>2024-09-23T08:13:54Z</time>
      </trkpt>
      <trkpt lat="42.47323" lon="2.98426">
        <ele>1047</ele>
        <time>2024-09-23T08:13:57Z</time>
      </trkpt>
      <trkpt lat="42.47326" lon="2.98428">
        <ele>1047</ele>
        <time>2024-09-23T08:14:00Z</time>
      </trkpt>
      <trkpt lat="42.47328" lon="2.98429">
        <ele>1049</ele>
        <time>2024-09-23T08:14:03Z</time>
      </trkpt>
      <trkpt lat="42.47331" lon="2.98432">
        <ele>1049</ele>
        <time>2024-09-23T08:14:07Z</time>
      </trkpt>
      <trkpt lat="42.47334" lon="2.98434">
        <ele>1050</ele>
        <time>2024-09-23T08:14:10Z</time>
      </trkpt>
      <trkpt lat="42.47336" lon="2.98437">
        <ele>1049</ele>
        <time>2024-09-23T08:14:13Z</time>
      </trkpt>
      <trkpt lat="42.47339" lon="2.9844">
        <ele>1049</ele>
        <time>2024-09-23T08:14:17Z</time>
      </trkpt>
      <trkpt lat="42.4734" lon="2.98444">
        <ele>1051</ele>
        <time>2024-09-23T08:14:21Z</time>
      </trkpt>
      <trkpt lat="42.47343" lon="2.98446">
        <ele>1051</ele>
        <time>2024-09-23T08:14:24Z</time>
      </trkpt>
      <trkpt lat="42.47345" lon="2.98449">
        <ele>1051</ele>
        <time>2024-09-23T08:14:28Z</time>
      </trkpt>
      <trkpt lat="42.47347" lon="2.98452">
        <ele>1051</ele>
        <time>2024-09-23T08:14:31Z</time>
      </trkpt>
      <trkpt lat="42.47349" lon="2.98455">
        <ele>1051</ele>
        <time>2024-09-23T08:14:34Z</time>
      </trkpt>
      <trkpt lat="42.47352" lon="2.98458">
        <ele>1053</ele>
        <time>2024-09-23T08:14:37Z</time>
      </trkpt>
      <trkpt lat="42.47354" lon="2.98461">
        <ele>1054</ele>
        <time>2024-09-23T08:14:41Z</time>
      </trkpt>
      <trkpt lat="42.47356" lon="2.98464">
        <ele>1054</ele>
        <time>2024-09-23T08:14:44Z</time>
      </trkpt>
      <trkpt lat="42.47358" lon="2.98467">
        <ele>1054</ele>
        <time>2024-09-23T08:14:48Z</time>
      </trkpt>
      <trkpt lat="42.4736" lon="2.9847">
        <ele>1054</ele>
        <time>2024-09-23T08:14:52Z</time>
      </trkpt>
      <trkpt lat="42.47362" lon="2.98472">
        <ele>1054</ele>
        <time>2024-09-23T08:14:57Z</time>
      </trkpt>
      <trkpt lat="42.47365" lon="2.98476">
        <ele>1054</ele>
        <time>2024-09-23T08:15:02Z</time>
      </trkpt>
      <trkpt lat="42.47368" lon="2.98478">
        <ele>1054</ele>
        <time>2024-09-23T08:15:06Z</time>
      </trkpt>
      <trkpt lat="42.4737" lon="2.9848">
        <ele>1055</ele>
        <time>2024-09-23T08:15:10Z</time>
      </trkpt>
      <trkpt lat="42.47373" lon="2.98483">
        <ele>1055</ele>
        <time>2024-09-23T08:15:13Z</time>
      </trkpt>
      <trkpt lat="42.47374" lon="2.98486">
        <ele>1056</ele>
        <time>2024-09-23T08:15:17Z</time>
      </trkpt>
      <trkpt lat="42.47376" lon="2.98489">
        <ele>1058</ele>
        <time>2024-09-23T08:15:22Z</time>
      </trkpt>
      <trkpt lat="42.47378" lon="2.98491">
        <ele>1059</ele>
        <time>2024-09-23T08:15:25Z</time>
      </trkpt>
      <trkpt lat="42.47379" lon="2.98494">
        <ele>1059</ele>
        <time>2024-09-23T08:15:29Z</time>
      </trkpt>
      <trkpt lat="42.47381" lon="2.98496">
        <ele>1060</ele>
        <time>2024-09-23T08:15:32Z</time>
      </trkpt>
      <trkpt lat="42.47383" lon="2.985">
        <ele>1062</ele>
        <time>2024-09-23T08:15:42Z</time>
      </trkpt>
      <trkpt lat="42.47384" lon="2.98503">
        <ele>1062</ele>
        <time>2024-09-23T08:15:46Z</time>
      </trkpt>
      <trkpt lat="42.47387" lon="2.98505">
        <ele>1062</ele>
        <time>2024-09-23T08:15:48Z</time>
      </trkpt>
      <trkpt lat="42.47388" lon="2.98508">
        <ele>1063</ele>
        <time>2024-09-23T08:15:52Z</time>
      </trkpt>
      <trkpt lat="42.4739" lon="2.98512">
        <ele>1064</ele>
        <time>2024-09-23T08:15:56Z</time>
      </trkpt>
      <trkpt lat="42.47392" lon="2.98516">
        <ele>1065</ele>
        <time>2024-09-23T08:16:01Z</time>
      </trkpt>
      <trkpt lat="42.47393" lon="2.9852">
        <ele>1065</ele>
        <time>2024-09-23T08:16:05Z</time>
      </trkpt>
      <trkpt lat="42.47395" lon="2.98521">
        <ele>1065</ele>
        <time>2024-09-23T08:16:08Z</time>
      </trkpt>
      <trkpt lat="42.47398" lon="2.98524">
        <ele>1067</ele>
        <time>2024-09-23T08:16:13Z</time>
      </trkpt>
      <trkpt lat="42.474" lon="2.98527">
        <ele>1067</ele>
        <time>2024-09-23T08:16:16Z</time>
      </trkpt>
      <trkpt lat="42.47403" lon="2.98528">
        <ele>1068</ele>
        <time>2024-09-23T08:16:21Z</time>
      </trkpt>
      <trkpt lat="42.47404" lon="2.9853">
        <ele>1068</ele>
        <time>2024-09-23T08:16:24Z</time>
      </trkpt>
      <trkpt lat="42.47407" lon="2.98533">
        <ele>1068</ele>
        <time>2024-09-23T08:16:29Z</time>
      </trkpt>
      <trkpt lat="42.4741" lon="2.98535">
        <ele>1068</ele>
        <time>2024-09-23T08:16:32Z</time>
      </trkpt>
      <trkpt lat="42.47414" lon="2.98537">
        <ele>1069</ele>
        <time>2024-09-23T08:16:37Z</time>
      </trkpt>
      <trkpt lat="42.47417" lon="2.9854">
        <ele>1069</ele>
        <time>2024-09-23T08:16:44Z</time>
      </trkpt>
      <trkpt lat="42.4742" lon="2.98543">
        <ele>1069</ele>
        <time>2024-09-23T08:16:47Z</time>
      </trkpt>
      <trkpt lat="42.47422" lon="2.98546">
        <ele>1070</ele>
        <time>2024-09-23T08:16:51Z</time>
      </trkpt>
      <trkpt lat="42.47425" lon="2.98549">
        <ele>1071</ele>
        <time>2024-09-23T08:16:54Z</time>
      </trkpt>
      <trkpt lat="42.47428" lon="2.98552">
        <ele>1074</ele>
        <time>2024-09-23T08:16:59Z</time>
      </trkpt>
      <trkpt lat="42.47431" lon="2.98554">
        <ele>1076</ele>
        <time>2024-09-23T08:17:04Z</time>
      </trkpt>
      <trkpt lat="42.47433" lon="2.98557">
        <ele>1075</ele>
        <time>2024-09-23T08:17:06Z</time>
      </trkpt>
      <trkpt lat="42.47435" lon="2.9856">
        <ele>1076</ele>
        <time>2024-09-23T08:17:09Z</time>
      </trkpt>
      <trkpt lat="42.47438" lon="2.98563">
        <ele>1076</ele>
        <time>2024-09-23T08:17:13Z</time>
      </trkpt>
      <trkpt lat="42.47441" lon="2.98565">
        <ele>1076</ele>
        <time>2024-09-23T08:17:17Z</time>
      </trkpt>
      <trkpt lat="42.47443" lon="2.98568">
        <ele>1078</ele>
        <time>2024-09-23T08:17:20Z</time>
      </trkpt>
      <trkpt lat="42.47445" lon="2.98573">
        <ele>1081</ele>
        <time>2024-09-23T08:17:26Z</time>
      </trkpt>
      <trkpt lat="42.47448" lon="2.98574">
        <ele>1079</ele>
        <time>2024-09-23T08:17:29Z</time>
      </trkpt>
      <trkpt lat="42.47451" lon="2.98576">
        <ele>1080</ele>
        <time>2024-09-23T08:17:33Z</time>
      </trkpt>
      <trkpt lat="42.47455" lon="2.98576">
        <ele>1080</ele>
        <time>2024-09-23T08:17:36Z</time>
      </trkpt>
      <trkpt lat="42.47458" lon="2.98576">
        <ele>1081</ele>
        <time>2024-09-23T08:17:38Z</time>
      </trkpt>
      <trkpt lat="42.4746" lon="2.98575">
        <ele>1081</ele>
        <time>2024-09-23T08:17:41Z</time>
      </trkpt>
      <trkpt lat="42.47462" lon="2.98575">
        <ele>1081</ele>
        <time>2024-09-23T08:17:44Z</time>
      </trkpt>
      <trkpt lat="42.47465" lon="2.98576">
        <ele>1082</ele>
        <time>2024-09-23T08:17:46Z</time>
      </trkpt>
      <trkpt lat="42.47468" lon="2.98577">
        <ele>1081</ele>
        <time>2024-09-23T08:17:53Z</time>
      </trkpt>
      <trkpt lat="42.47471" lon="2.98579">
        <ele>1081</ele>
        <time>2024-09-23T08:17:55Z</time>
      </trkpt>
      <trkpt lat="42.47474" lon="2.98582">
        <ele>1082</ele>
        <time>2024-09-23T08:17:57Z</time>
      </trkpt>
      <trkpt lat="42.47478" lon="2.98584">
        <ele>1083</ele>
        <time>2024-09-23T08:18:02Z</time>
      </trkpt>
      <trkpt lat="42.47478" lon="2.98587">
        <ele>1083</ele>
        <time>2024-09-23T08:18:05Z</time>
      </trkpt>
      <trkpt lat="42.47481" lon="2.98589">
        <ele>1082</ele>
        <time>2024-09-23T08:18:09Z</time>
      </trkpt>
      <trkpt lat="42.47483" lon="2.9859">
        <ele>1082</ele>
        <time>2024-09-23T08:18:11Z</time>
      </trkpt>
      <trkpt lat="42.47486" lon="2.98592">
        <ele>1082</ele>
        <time>2024-09-23T08:18:12Z</time>
      </trkpt>
      <trkpt lat="42.47489" lon="2.98594">
        <ele>1081</ele>
        <time>2024-09-23T08:18:16Z</time>
      </trkpt>
      <trkpt lat="42.47492" lon="2.98593">
        <ele>1082</ele>
        <time>2024-09-23T08:18:19Z</time>
      </trkpt>
      <trkpt lat="42.47495" lon="2.98592">
        <ele>1082</ele>
        <time>2024-09-23T08:18:21Z</time>
      </trkpt>
      <trkpt lat="42.47498" lon="2.98594">
        <ele>1082</ele>
        <time>2024-09-23T08:18:24Z</time>
      </trkpt>
      <trkpt lat="42.47501" lon="2.98595">
        <ele>1084</ele>
        <time>2024-09-23T08:18:28Z</time>
      </trkpt>
      <trkpt lat="42.47505" lon="2.98597">
        <ele>1085</ele>
        <time>2024-09-23T08:18:32Z</time>
      </trkpt>
      <trkpt lat="42.47508" lon="2.98596">
        <ele>1085</ele>
        <time>2024-09-23T08:18:33Z</time>
      </trkpt>
      <trkpt lat="42.47511" lon="2.98597">
        <ele>1087</ele>
        <time>2024-09-23T08:18:39Z</time>
      </trkpt>
      <trkpt lat="42.47512" lon="2.986">
        <ele>1088</ele>
        <time>2024-09-23T08:18:43Z</time>
      </trkpt>
      <trkpt lat="42.47513" lon="2.98604">
        <ele>1088</ele>
        <time>2024-09-23T08:18:46Z</time>
      </trkpt>
      <trkpt lat="42.47516" lon="2.98605">
        <ele>1090</ele>
        <time>2024-09-23T08:18:48Z</time>
      </trkpt>
      <trkpt lat="42.4752" lon="2.98606">
        <ele>1091</ele>
        <time>2024-09-23T08:18:51Z</time>
      </trkpt>
      <trkpt lat="42.47523" lon="2.98606">
        <ele>1091</ele>
        <time>2024-09-23T08:18:53Z</time>
      </trkpt>
      <trkpt lat="42.47526" lon="2.98604">
        <ele>1092</ele>
        <time>2024-09-23T08:18:58Z</time>
      </trkpt>
      <trkpt lat="42.47529" lon="2.98602">
        <ele>1092</ele>
        <time>2024-09-23T08:19:02Z</time>
      </trkpt>
      <trkpt lat="42.47533" lon="2.98599">
        <ele>1090</ele>
        <time>2024-09-23T08:19:07Z</time>
      </trkpt>
      <trkpt lat="42.47536" lon="2.986">
        <ele>1091</ele>
        <time>2024-09-23T08:19:13Z</time>
      </trkpt>
      <trkpt lat="42.4754" lon="2.986">
        <ele>1092</ele>
        <time>2024-09-23T08:19:16Z</time>
      </trkpt>
      <trkpt lat="42.47543" lon="2.98598">
        <ele>1091</ele>
        <time>2024-09-23T08:19:19Z</time>
      </trkpt>
      <trkpt lat="42.47545" lon="2.98595">
        <ele>1091</ele>
        <time>2024-09-23T08:19:22Z</time>
      </trkpt>
      <trkpt lat="42.47549" lon="2.98592">
        <ele>1090</ele>
        <time>2024-09-23T08:19:25Z</time>
      </trkpt>
      <trkpt lat="42.47551" lon="2.98593">
        <ele>1090</ele>
        <time>2024-09-23T08:19:30Z</time>
      </trkpt>
      <trkpt lat="42.47555" lon="2.98592">
        <ele>1090</ele>
        <time>2024-09-23T08:19:33Z</time>
      </trkpt>
      <trkpt lat="42.47559" lon="2.9859">
        <ele>1090</ele>
        <time>2024-09-23T08:19:35Z</time>
      </trkpt>
      <trkpt lat="42.47562" lon="2.98589">
        <ele>1091</ele>
        <time>2024-09-23T08:19:37Z</time>
      </trkpt>
      <trkpt lat="42.47566" lon="2.98589">
        <ele>1091</ele>
        <time>2024-09-23T08:19:42Z</time>
      </trkpt>
      <trkpt lat="42.47569" lon="2.98588">
        <ele>1092</ele>
        <time>2024-09-23T08:19:47Z</time>
      </trkpt>
      <trkpt lat="42.47573" lon="2.98589">
        <ele>1090</ele>
        <time>2024-09-23T08:19:52Z</time>
      </trkpt>
      <trkpt lat="42.47576" lon="2.98588">
        <ele>1092</ele>
        <time>2024-09-23T08:19:56Z</time>
      </trkpt>
      <trkpt lat="42.47579" lon="2.98587">
        <ele>1091</ele>
        <time>2024-09-23T08:19:58Z</time>
      </trkpt>
      <trkpt lat="42.47581" lon="2.98585">
        <ele>1091</ele>
        <time>2024-09-23T08:20:00Z</time>
      </trkpt>
      <trkpt lat="42.47584" lon="2.98585">
        <ele>1091</ele>
        <time>2024-09-23T08:20:04Z</time>
      </trkpt>
      <trkpt lat="42.47588" lon="2.98585">
        <ele>1091</ele>
        <time>2024-09-23T08:20:09Z</time>
      </trkpt>
      <trkpt lat="42.47592" lon="2.98585">
        <ele>1091</ele>
        <time>2024-09-23T08:20:12Z</time>
      </trkpt>
      <trkpt lat="42.47595" lon="2.98584">
        <ele>1091</ele>
        <time>2024-09-23T08:20:15Z</time>
      </trkpt>
      <trkpt lat="42.47598" lon="2.98583">
        <ele>1091</ele>
        <time>2024-09-23T08:20:17Z</time>
      </trkpt>
      <trkpt lat="42.476" lon="2.98581">
        <ele>1091</ele>
        <time>2024-09-23T08:20:21Z</time>
      </trkpt>
      <trkpt lat="42.47603" lon="2.9858">
        <ele>1092</ele>
        <time>2024-09-23T08:20:23Z</time>
      </trkpt>
      <trkpt lat="42.47606" lon="2.9858">
        <ele>1092</ele>
        <time>2024-09-23T08:20:25Z</time>
      </trkpt>
      <trkpt lat="42.47609" lon="2.98579">
        <ele>1091</ele>
        <time>2024-09-23T08:20:28Z</time>
      </trkpt>
      <trkpt lat="42.47613" lon="2.98579">
        <ele>1092</ele>
        <time>2024-09-23T08:20:31Z</time>
      </trkpt>
      <trkpt lat="42.47616" lon="2.98577">
        <ele>1091</ele>
        <time>2024-09-23T08:20:35Z</time>
      </trkpt>
      <trkpt lat="42.47619" lon="2.98576">
        <ele>1091</ele>
        <time>2024-09-23T08:20:37Z</time>
      </trkpt>
      <trkpt lat="42.47622" lon="2.98575">
        <ele>1092</ele>
        <time>2024-09-23T08:20:39Z</time>
      </trkpt>
      <trkpt lat="42.47625" lon="2.98573">
        <ele>1091</ele>
        <time>2024-09-23T08:20:48Z</time>
      </trkpt>
      <trkpt lat="42.47628" lon="2.98572">
        <ele>1091</ele>
        <time>2024-09-23T08:20:52Z</time>
      </trkpt>
      <trkpt lat="42.4763" lon="2.9857">
        <ele>1091</ele>
        <time>2024-09-23T08:20:56Z</time>
      </trkpt>
      <trkpt lat="42.47633" lon="2.98568">
        <ele>1092</ele>
        <time>2024-09-23T08:20:58Z</time>
      </trkpt>
      <trkpt lat="42.47635" lon="2.98567">
        <ele>1091</ele>
        <time>2024-09-23T08:21:00Z</time>
      </trkpt>
      <trkpt lat="42.47638" lon="2.98565">
        <ele>1090</ele>
        <time>2024-09-23T08:21:02Z</time>
      </trkpt>
      <trkpt lat="42.4764" lon="2.98562">
        <ele>1090</ele>
        <time>2024-09-23T08:21:04Z</time>
      </trkpt>
      <trkpt lat="42.47643" lon="2.9856">
        <ele>1091</ele>
        <time>2024-09-23T08:21:06Z</time>
      </trkpt>
      <trkpt lat="42.47647" lon="2.98557">
        <ele>1091</ele>
        <time>2024-09-23T08:21:10Z</time>
      </trkpt>
      <trkpt lat="42.4765" lon="2.98555">
        <ele>1091</ele>
        <time>2024-09-23T08:21:12Z</time>
      </trkpt>
      <trkpt lat="42.47653" lon="2.98553">
        <ele>1092</ele>
        <time>2024-09-23T08:21:14Z</time>
      </trkpt>
      <trkpt lat="42.47657" lon="2.98554">
        <ele>1090</ele>
        <time>2024-09-23T08:21:22Z</time>
      </trkpt>
      <trkpt lat="42.47659" lon="2.98556">
        <ele>1089</ele>
        <time>2024-09-23T08:21:24Z</time>
      </trkpt>
      <trkpt lat="42.47661" lon="2.98558">
        <ele>1090</ele>
        <time>2024-09-23T08:21:26Z</time>
      </trkpt>
      <trkpt lat="42.47663" lon="2.98562">
        <ele>1090</ele>
        <time>2024-09-23T08:21:29Z</time>
      </trkpt>
      <trkpt lat="42.47664" lon="2.98566">
        <ele>1089</ele>
        <time>2024-09-23T08:21:33Z</time>
      </trkpt>
      <trkpt lat="42.47666" lon="2.98571">
        <ele>1090</ele>
        <time>2024-09-23T08:21:38Z</time>
      </trkpt>
      <trkpt lat="42.47668" lon="2.98573">
        <ele>1091</ele>
        <time>2024-09-23T08:21:41Z</time>
      </trkpt>
      <trkpt lat="42.47671" lon="2.98574">
        <ele>1091</ele>
        <time>2024-09-23T08:21:43Z</time>
      </trkpt>
      <trkpt lat="42.47674" lon="2.98573">
        <ele>1091</ele>
        <time>2024-09-23T08:21:46Z</time>
      </trkpt>
      <trkpt lat="42.47677" lon="2.98569">
        <ele>1090</ele>
        <time>2024-09-23T08:21:52Z</time>
      </trkpt>
      <trkpt lat="42.47679" lon="2.98565">
        <ele>1090</ele>
        <time>2024-09-23T08:21:54Z</time>
      </trkpt>
      <trkpt lat="42.47681" lon="2.98563">
        <ele>1090</ele>
        <time>2024-09-23T08:21:56Z</time>
      </trkpt>
      <trkpt lat="42.47684" lon="2.9856">
        <ele>1090</ele>
        <time>2024-09-23T08:21:58Z</time>
      </trkpt>
      <trkpt lat="42.47686" lon="2.98556">
        <ele>1091</ele>
        <time>2024-09-23T08:22:02Z</time>
      </trkpt>
      <trkpt lat="42.47688" lon="2.98551">
        <ele>1091</ele>
        <time>2024-09-23T08:22:05Z</time>
      </trkpt>
      <trkpt lat="42.47691" lon="2.98548">
        <ele>1091</ele>
        <time>2024-09-23T08:22:10Z</time>
      </trkpt>
      <trkpt lat="42.47693" lon="2.98545">
        <ele>1090</ele>
        <time>2024-09-23T08:22:14Z</time>
      </trkpt>
      <trkpt lat="42.47696" lon="2.98544">
        <ele>1089</ele>
        <time>2024-09-23T08:22:18Z</time>
      </trkpt>
      <trkpt lat="42.47699" lon="2.98542">
        <ele>1089</ele>
        <time>2024-09-23T08:22:20Z</time>
      </trkpt>
      <trkpt lat="42.47702" lon="2.98541">
        <ele>1089</ele>
        <time>2024-09-23T08:22:23Z</time>
      </trkpt>
      <trkpt lat="42.47705" lon="2.98539">
        <ele>1088</ele>
        <time>2024-09-23T08:22:25Z</time>
      </trkpt>
      <trkpt lat="42.47707" lon="2.98537">
        <ele>1087</ele>
        <time>2024-09-23T08:22:30Z</time>
      </trkpt>
      <trkpt lat="42.4771" lon="2.98534">
        <ele>1087</ele>
        <time>2024-09-23T08:22:32Z</time>
      </trkpt>
      <trkpt lat="42.47713" lon="2.98533">
        <ele>1088</ele>
        <time>2024-09-23T08:22:34Z</time>
      </trkpt>
      <trkpt lat="42.47715" lon="2.98531">
        <ele>1089</ele>
        <time>2024-09-23T08:22:37Z</time>
      </trkpt>
      <trkpt lat="42.47718" lon="2.98531">
        <ele>1089</ele>
        <time>2024-09-23T08:22:39Z</time>
      </trkpt>
      <trkpt lat="42.47721" lon="2.98533">
        <ele>1090</ele>
        <time>2024-09-23T08:22:45Z</time>
      </trkpt>
      <trkpt lat="42.47724" lon="2.98534">
        <ele>1091</ele>
        <time>2024-09-23T08:22:48Z</time>
      </trkpt>
      <trkpt lat="42.47727" lon="2.98536">
        <ele>1090</ele>
        <time>2024-09-23T08:22:51Z</time>
      </trkpt>
      <trkpt lat="42.4773" lon="2.98537">
        <ele>1090</ele>
        <time>2024-09-23T08:22:54Z</time>
      </trkpt>
      <trkpt lat="42.47731" lon="2.98541">
        <ele>1090</ele>
        <time>2024-09-23T08:22:57Z</time>
      </trkpt>
      <trkpt lat="42.47733" lon="2.98544">
        <ele>1090</ele>
        <time>2024-09-23T08:22:59Z</time>
      </trkpt>
      <trkpt lat="42.47735" lon="2.98548">
        <ele>1090</ele>
        <time>2024-09-23T08:23:02Z</time>
      </trkpt>
      <trkpt lat="42.47737" lon="2.98551">
        <ele>1090</ele>
        <time>2024-09-23T08:23:04Z</time>
      </trkpt>
      <trkpt lat="42.47738" lon="2.98556">
        <ele>1091</ele>
        <time>2024-09-23T08:23:10Z</time>
      </trkpt>
      <trkpt lat="42.4774" lon="2.98559">
        <ele>1093</ele>
        <time>2024-09-23T08:23:13Z</time>
      </trkpt>
      <trkpt lat="42.47741" lon="2.98563">
        <ele>1092</ele>
        <time>2024-09-23T08:23:15Z</time>
      </trkpt>
      <trkpt lat="42.47742" lon="2.98567">
        <ele>1092</ele>
        <time>2024-09-23T08:23:17Z</time>
      </trkpt>
      <trkpt lat="42.47745" lon="2.98569">
        <ele>1092</ele>
        <time>2024-09-23T08:23:20Z</time>
      </trkpt>
      <trkpt lat="42.47749" lon="2.98571">
        <ele>1093</ele>
        <time>2024-09-23T08:23:22Z</time>
      </trkpt>
      <trkpt lat="42.47752" lon="2.98573">
        <ele>1094</ele>
        <time>2024-09-23T08:23:26Z</time>
      </trkpt>
      <trkpt lat="42.47755" lon="2.98576">
        <ele>1094</ele>
        <time>2024-09-23T08:23:28Z</time>
      </trkpt>
      <trkpt lat="42.47758" lon="2.98578">
        <ele>1095</ele>
        <time>2024-09-23T08:23:31Z</time>
      </trkpt>
      <trkpt lat="42.47762" lon="2.9858">
        <ele>1094</ele>
        <time>2024-09-23T08:23:33Z</time>
      </trkpt>
      <trkpt lat="42.47764" lon="2.98582">
        <ele>1094</ele>
        <time>2024-09-23T08:23:36Z</time>
      </trkpt>
      <trkpt lat="42.47768" lon="2.98581">
        <ele>1096</ele>
        <time>2024-09-23T08:23:39Z</time>
      </trkpt>
      <trkpt lat="42.4777" lon="2.98583">
        <ele>1096</ele>
        <time>2024-09-23T08:23:43Z</time>
      </trkpt>
      <trkpt lat="42.47774" lon="2.98585">
        <ele>1097</ele>
        <time>2024-09-23T08:23:45Z</time>
      </trkpt>
      <trkpt lat="42.47776" lon="2.98588">
        <ele>1097</ele>
        <time>2024-09-23T08:23:49Z</time>
      </trkpt>
      <trkpt lat="42.47778" lon="2.98591">
        <ele>1098</ele>
        <time>2024-09-23T08:23:52Z</time>
      </trkpt>
      <trkpt lat="42.47779" lon="2.98594">
        <ele>1098</ele>
        <time>2024-09-23T08:23:57Z</time>
      </trkpt>
      <trkpt lat="42.4778" lon="2.98598">
        <ele>1098</ele>
        <time>2024-09-23T08:24:00Z</time>
      </trkpt>
      <trkpt lat="42.47782" lon="2.98601">
        <ele>1098</ele>
        <time>2024-09-23T08:24:04Z</time>
      </trkpt>
      <trkpt lat="42.47783" lon="2.98605">
        <ele>1098</ele>
        <time>2024-09-23T08:24:08Z</time>
      </trkpt>
      <trkpt lat="42.47786" lon="2.98608">
        <ele>1098</ele>
        <time>2024-09-23T08:24:10Z</time>
      </trkpt>
      <trkpt lat="42.47787" lon="2.98612">
        <ele>1097</ele>
        <time>2024-09-23T08:24:13Z</time>
      </trkpt>
      <trkpt lat="42.47788" lon="2.98615">
        <ele>1098</ele>
        <time>2024-09-23T08:24:15Z</time>
      </trkpt>
      <trkpt lat="42.47788" lon="2.98619">
        <ele>1099</ele>
        <time>2024-09-23T08:24:18Z</time>
      </trkpt>
      <trkpt lat="42.47791" lon="2.98623">
        <ele>1100</ele>
        <time>2024-09-23T08:24:21Z</time>
      </trkpt>
      <trkpt lat="42.47793" lon="2.98626">
        <ele>1101</ele>
        <time>2024-09-23T08:24:27Z</time>
      </trkpt>
      <trkpt lat="42.47794" lon="2.9863">
        <ele>1102</ele>
        <time>2024-09-23T08:24:31Z</time>
      </trkpt>
      <trkpt lat="42.47796" lon="2.98633">
        <ele>1104</ele>
        <time>2024-09-23T08:24:33Z</time>
      </trkpt>
      <trkpt lat="42.47798" lon="2.98637">
        <ele>1105</ele>
        <time>2024-09-23T08:24:38Z</time>
      </trkpt>
      <trkpt lat="42.47799" lon="2.98642">
        <ele>1105</ele>
        <time>2024-09-23T08:24:42Z</time>
      </trkpt>
      <trkpt lat="42.47801" lon="2.98645">
        <ele>1107</ele>
        <time>2024-09-23T08:24:44Z</time>
      </trkpt>
      <trkpt lat="42.47802" lon="2.98649">
        <ele>1105</ele>
        <time>2024-09-23T08:24:46Z</time>
      </trkpt>
      <trkpt lat="42.47803" lon="2.98653">
        <ele>1105</ele>
        <time>2024-09-23T08:24:49Z</time>
      </trkpt>
      <trkpt lat="42.47802" lon="2.98653">
        <ele>1104</ele>
        <time>2024-09-23T08:24:57Z</time>
      </trkpt>
      <trkpt lat="42.478" lon="2.98654">
        <ele>1106</ele>
        <time>2024-09-23T08:24:59Z</time>
      </trkpt>
      <trkpt lat="42.47797" lon="2.98654">
        <ele>1108</ele>
        <time>2024-09-23T08:25:03Z</time>
      </trkpt>
      <trkpt lat="42.47795" lon="2.98655">
        <ele>1107</ele>
        <time>2024-09-23T08:25:05Z</time>
      </trkpt>
      <trkpt lat="42.47792" lon="2.98656">
        <ele>1108</ele>
        <time>2024-09-23T08:25:08Z</time>
      </trkpt>
      <trkpt lat="42.47789" lon="2.98658">
        <ele>1106</ele>
        <time>2024-09-23T08:25:10Z</time>
      </trkpt>
      <trkpt lat="42.47787" lon="2.98662">
        <ele>1109</ele>
        <time>2024-09-23T08:25:14Z</time>
      </trkpt>
      <trkpt lat="42.47787" lon="2.98666">
        <ele>1111</ele>
        <time>2024-09-23T08:25:18Z</time>
      </trkpt>
      <trkpt lat="42.47785" lon="2.98669">
        <ele>1111</ele>
        <time>2024-09-23T08:25:24Z</time>
      </trkpt>
      <trkpt lat="42.47782" lon="2.98671">
        <ele>1111</ele>
        <time>2024-09-23T08:25:28Z</time>
      </trkpt>
      <trkpt lat="42.47779" lon="2.98673">
        <ele>1111</ele>
        <time>2024-09-23T08:25:30Z</time>
      </trkpt>
      <trkpt lat="42.47776" lon="2.98675">
        <ele>1113</ele>
        <time>2024-09-23T08:25:35Z</time>
      </trkpt>
      <trkpt lat="42.47773" lon="2.98679">
        <ele>1115</ele>
        <time>2024-09-23T08:25:40Z</time>
      </trkpt>
      <trkpt lat="42.4777" lon="2.9868">
        <ele>1115</ele>
        <time>2024-09-23T08:25:44Z</time>
      </trkpt>
      <trkpt lat="42.47767" lon="2.98682">
        <ele>1114</ele>
        <time>2024-09-23T08:25:47Z</time>
      </trkpt>
      <trkpt lat="42.47764" lon="2.98684">
        <ele>1115</ele>
        <time>2024-09-23T08:25:50Z</time>
      </trkpt>
      <trkpt lat="42.47763" lon="2.98687">
        <ele>1116</ele>
        <time>2024-09-23T08:25:53Z</time>
      </trkpt>
      <trkpt lat="42.47763" lon="2.98691">
        <ele>1117</ele>
        <time>2024-09-23T08:25:56Z</time>
      </trkpt>
      <trkpt lat="42.47762" lon="2.98696">
        <ele>1117</ele>
        <time>2024-09-23T08:26:01Z</time>
      </trkpt>
      <trkpt lat="42.47761" lon="2.987">
        <ele>1118</ele>
        <time>2024-09-23T08:26:05Z</time>
      </trkpt>
      <trkpt lat="42.47758" lon="2.98703">
        <ele>1118</ele>
        <time>2024-09-23T08:26:08Z</time>
      </trkpt>
      <trkpt lat="42.47757" lon="2.98707">
        <ele>1117</ele>
        <time>2024-09-23T08:26:14Z</time>
      </trkpt>
      <trkpt lat="42.47754" lon="2.98709">
        <ele>1117</ele>
        <time>2024-09-23T08:26:17Z</time>
      </trkpt>
      <trkpt lat="42.47752" lon="2.98712">
        <ele>1117</ele>
        <time>2024-09-23T08:26:20Z</time>
      </trkpt>
      <trkpt lat="42.47751" lon="2.98715">
        <ele>1118</ele>
        <time>2024-09-23T08:26:24Z</time>
      </trkpt>
      <trkpt lat="42.47749" lon="2.98718">
        <ele>1119</ele>
        <time>2024-09-23T08:26:27Z</time>
      </trkpt>
      <trkpt lat="42.47747" lon="2.98722">
        <ele>1119</ele>
        <time>2024-09-23T08:26:31Z</time>
      </trkpt>
      <trkpt lat="42.47746" lon="2.98725">
        <ele>1120</ele>
        <time>2024-09-23T08:26:33Z</time>
      </trkpt>
      <trkpt lat="42.47745" lon="2.98729">
        <ele>1121</ele>
        <time>2024-09-23T08:26:36Z</time>
      </trkpt>
      <trkpt lat="42.47745" lon="2.98734">
        <ele>1121</ele>
        <time>2024-09-23T08:26:39Z</time>
      </trkpt>
      <trkpt lat="42.47742" lon="2.98737">
        <ele>1122</ele>
        <time>2024-09-23T08:26:43Z</time>
      </trkpt>
      <trkpt lat="42.4774" lon="2.9874">
        <ele>1123</ele>
        <time>2024-09-23T08:26:45Z</time>
      </trkpt>
      <trkpt lat="42.47737" lon="2.98741">
        <ele>1124</ele>
        <time>2024-09-23T08:26:48Z</time>
      </trkpt>
      <trkpt lat="42.47735" lon="2.98743">
        <ele>1124</ele>
        <time>2024-09-23T08:26:51Z</time>
      </trkpt>
      <trkpt lat="42.47732" lon="2.98745">
        <ele>1124</ele>
        <time>2024-09-23T08:26:54Z</time>
      </trkpt>
      <trkpt lat="42.47729" lon="2.98746">
        <ele>1124</ele>
        <time>2024-09-23T08:26:58Z</time>
      </trkpt>
      <trkpt lat="42.47726" lon="2.98747">
        <ele>1125</ele>
        <time>2024-09-23T08:27:01Z</time>
      </trkpt>
      <trkpt lat="42.47723" lon="2.98747">
        <ele>1127</ele>
        <time>2024-09-23T08:27:10Z</time>
      </trkpt>
      <trkpt lat="42.4772" lon="2.98749">
        <ele>1127</ele>
        <time>2024-09-23T08:27:13Z</time>
      </trkpt>
      <trkpt lat="42.47718" lon="2.98751">
        <ele>1128</ele>
        <time>2024-09-23T08:27:16Z</time>
      </trkpt>
      <trkpt lat="42.47715" lon="2.98754">
        <ele>1128</ele>
        <time>2024-09-23T08:27:19Z</time>
      </trkpt>
      <trkpt lat="42.47712" lon="2.98756">
        <ele>1129</ele>
        <time>2024-09-23T08:27:22Z</time>
      </trkpt>
      <trkpt lat="42.47709" lon="2.98758">
        <ele>1130</ele>
        <time>2024-09-23T08:27:25Z</time>
      </trkpt>
      <trkpt lat="42.47706" lon="2.98759">
        <ele>1130</ele>
        <time>2024-09-23T08:27:29Z</time>
      </trkpt>
      <trkpt lat="42.47703" lon="2.98759">
        <ele>1130</ele>
        <time>2024-09-23T08:27:31Z</time>
      </trkpt>
      <trkpt lat="42.47699" lon="2.98759">
        <ele>1132</ele>
        <time>2024-09-23T08:27:36Z</time>
      </trkpt>
      <trkpt lat="42.47696" lon="2.9876">
        <ele>1132</ele>
        <time>2024-09-23T08:27:39Z</time>
      </trkpt>
      <trkpt lat="42.47693" lon="2.98761">
        <ele>1131</ele>
        <time>2024-09-23T08:27:42Z</time>
      </trkpt>
      <trkpt lat="42.4769" lon="2.98761">
        <ele>1131</ele>
        <time>2024-09-23T08:27:45Z</time>
      </trkpt>
      <trkpt lat="42.47687" lon="2.98759">
        <ele>1131</ele>
        <time>2024-09-23T08:27:48Z</time>
      </trkpt>
      <trkpt lat="42.47684" lon="2.98756">
        <ele>1129</ele>
        <time>2024-09-23T08:27:55Z</time>
      </trkpt>
      <trkpt lat="42.47681" lon="2.98755">
        <ele>1129</ele>
        <time>2024-09-23T08:27:56Z</time>
      </trkpt>
      <trkpt lat="42.47679" lon="2.98756">
        <ele>1129</ele>
        <time>2024-09-23T08:27:58Z</time>
      </trkpt>
      <trkpt lat="42.47676" lon="2.98758">
        <ele>1128</ele>
        <time>2024-09-23T08:28:00Z</time>
      </trkpt>
      <trkpt lat="42.47673" lon="2.9876">
        <ele>1127</ele>
        <time>2024-09-23T08:28:03Z</time>
      </trkpt>
      <trkpt lat="42.4767" lon="2.98764">
        <ele>1128</ele>
        <time>2024-09-23T08:28:05Z</time>
      </trkpt>
      <trkpt lat="42.47668" lon="2.98766">
        <ele>1127</ele>
        <time>2024-09-23T08:28:08Z</time>
      </trkpt>
      <trkpt lat="42.47665" lon="2.98768">
        <ele>1127</ele>
        <time>2024-09-23T08:28:12Z</time>
      </trkpt>
      <trkpt lat="42.47663" lon="2.98772">
        <ele>1129</ele>
        <time>2024-09-23T08:28:15Z</time>
      </trkpt>
      <trkpt lat="42.4766" lon="2.98774">
        <ele>1129</ele>
        <time>2024-09-23T08:28:19Z</time>
      </trkpt>
      <trkpt lat="42.47657" lon="2.98776">
        <ele>1129</ele>
        <time>2024-09-23T08:28:21Z</time>
      </trkpt>
      <trkpt lat="42.47654" lon="2.98777">
        <ele>1130</ele>
        <time>2024-09-23T08:28:23Z</time>
      </trkpt>
      <trkpt lat="42.47651" lon="2.98777">
        <ele>1130</ele>
        <time>2024-09-23T08:28:27Z</time>
      </trkpt>
      <trkpt lat="42.47648" lon="2.98779">
        <ele>1131</ele>
        <time>2024-09-23T08:28:29Z</time>
      </trkpt>
      <trkpt lat="42.47645" lon="2.98779">
        <ele>1130</ele>
        <time>2024-09-23T08:28:33Z</time>
      </trkpt>
      <trkpt lat="42.47641" lon="2.98779">
        <ele>1128</ele>
        <time>2024-09-23T08:28:36Z</time>
      </trkpt>
      <trkpt lat="42.47638" lon="2.98778">
        <ele>1129</ele>
        <time>2024-09-23T08:28:39Z</time>
      </trkpt>
      <trkpt lat="42.47634" lon="2.98779">
        <ele>1129</ele>
        <time>2024-09-23T08:28:42Z</time>
      </trkpt>
      <trkpt lat="42.47631" lon="2.98779">
        <ele>1130</ele>
        <time>2024-09-23T08:28:44Z</time>
      </trkpt>
      <trkpt lat="42.47631" lon="2.98782">
        <ele>1130</ele>
        <time>2024-09-23T08:28:51Z</time>
      </trkpt>
      <trkpt lat="42.4763" lon="2.98781">
        <ele>1130</ele>
        <time>2024-09-23T08:28:54Z</time>
      </trkpt>
      <trkpt lat="42.47627" lon="2.98781">
        <ele>1130</ele>
        <time>2024-09-23T08:28:57Z</time>
      </trkpt>
      <trkpt lat="42.47624" lon="2.98782">
        <ele>1130</ele>
        <time>2024-09-23T08:28:59Z</time>
      </trkpt>
      <trkpt lat="42.47622" lon="2.98783">
        <ele>1128</ele>
        <time>2024-09-23T08:29:02Z</time>
      </trkpt>
      <trkpt lat="42.47618" lon="2.98784">
        <ele>1128</ele>
        <time>2024-09-23T08:29:05Z</time>
      </trkpt>
      <trkpt lat="42.47615" lon="2.98786">
        <ele>1128</ele>
        <time>2024-09-23T08:29:08Z</time>
      </trkpt>
      <trkpt lat="42.47611" lon="2.98787">
        <ele>1128</ele>
        <time>2024-09-23T08:29:11Z</time>
      </trkpt>
      <trkpt lat="42.47609" lon="2.98789">
        <ele>1128</ele>
        <time>2024-09-23T08:29:15Z</time>
      </trkpt>
      <trkpt lat="42.47607" lon="2.98793">
        <ele>1127</ele>
        <time>2024-09-23T08:29:17Z</time>
      </trkpt>
      <trkpt lat="42.47604" lon="2.98797">
        <ele>1128</ele>
        <time>2024-09-23T08:29:19Z</time>
      </trkpt>
      <trkpt lat="42.47603" lon="2.988">
        <ele>1127</ele>
        <time>2024-09-23T08:29:22Z</time>
      </trkpt>
      <trkpt lat="42.47603" lon="2.98806">
        <ele>1127</ele>
        <time>2024-09-23T08:29:24Z</time>
      </trkpt>
      <trkpt lat="42.47602" lon="2.9881">
        <ele>1126</ele>
        <time>2024-09-23T08:29:29Z</time>
      </trkpt>
      <trkpt lat="42.476" lon="2.98815">
        <ele>1125</ele>
        <time>2024-09-23T08:29:32Z</time>
      </trkpt>
      <trkpt lat="42.47597" lon="2.98818">
        <ele>1126</ele>
        <time>2024-09-23T08:29:34Z</time>
      </trkpt>
      <trkpt lat="42.47594" lon="2.98821">
        <ele>1127</ele>
        <time>2024-09-23T08:29:38Z</time>
      </trkpt>
      <trkpt lat="42.47591" lon="2.98826">
        <ele>1126</ele>
        <time>2024-09-23T08:29:41Z</time>
      </trkpt>
      <trkpt lat="42.47589" lon="2.98829">
        <ele>1127</ele>
        <time>2024-09-23T08:29:45Z</time>
      </trkpt>
      <trkpt lat="42.47586" lon="2.98833">
        <ele>1127</ele>
        <time>2024-09-23T08:29:48Z</time>
      </trkpt>
      <trkpt lat="42.47584" lon="2.98837">
        <ele>1126</ele>
        <time>2024-09-23T08:29:50Z</time>
      </trkpt>
      <trkpt lat="42.47582" lon="2.98841">
        <ele>1127</ele>
        <time>2024-09-23T08:29:53Z</time>
      </trkpt>
      <trkpt lat="42.47581" lon="2.98845">
        <ele>1128</ele>
        <time>2024-09-23T08:29:55Z</time>
      </trkpt>
      <trkpt lat="42.47579" lon="2.98849">
        <ele>1128</ele>
        <time>2024-09-23T08:29:58Z</time>
      </trkpt>
      <trkpt lat="42.47578" lon="2.98854">
        <ele>1130</ele>
        <time>2024-09-23T08:30:01Z</time>
      </trkpt>
      <trkpt lat="42.47576" lon="2.98858">
        <ele>1129</ele>
        <time>2024-09-23T08:30:03Z</time>
      </trkpt>
      <trkpt lat="42.47576" lon="2.98862">
        <ele>1125</ele>
        <time>2024-09-23T08:30:07Z</time>
      </trkpt>
      <trkpt lat="42.47575" lon="2.98866">
        <ele>1125</ele>
        <time>2024-09-23T08:30:10Z</time>
      </trkpt>
      <trkpt lat="42.47574" lon="2.9887">
        <ele>1126</ele>
        <time>2024-09-23T08:30:12Z</time>
      </trkpt>
      <trkpt lat="42.47573" lon="2.98875">
        <ele>1127</ele>
        <time>2024-09-23T08:30:15Z</time>
      </trkpt>
      <trkpt lat="42.47571" lon="2.98878">
        <ele>1126</ele>
        <time>2024-09-23T08:30:19Z</time>
      </trkpt>
      <trkpt lat="42.4757" lon="2.98882">
        <ele>1126</ele>
        <time>2024-09-23T08:30:23Z</time>
      </trkpt>
      <trkpt lat="42.47569" lon="2.98886">
        <ele>1126</ele>
        <time>2024-09-23T08:30:26Z</time>
      </trkpt>
      <trkpt lat="42.47568" lon="2.98889">
        <ele>1127</ele>
        <time>2024-09-23T08:30:28Z</time>
      </trkpt>
      <trkpt lat="42.47567" lon="2.98893">
        <ele>1125</ele>
        <time>2024-09-23T08:30:31Z</time>
      </trkpt>
      <trkpt lat="42.47565" lon="2.98897">
        <ele>1126</ele>
        <time>2024-09-23T08:30:34Z</time>
      </trkpt>
      <trkpt lat="42.47563" lon="2.989">
        <ele>1125</ele>
        <time>2024-09-23T08:30:37Z</time>
      </trkpt>
      <trkpt lat="42.47562" lon="2.98904">
        <ele>1126</ele>
        <time>2024-09-23T08:30:40Z</time>
      </trkpt>
      <trkpt lat="42.47561" lon="2.98909">
        <ele>1124</ele>
        <time>2024-09-23T08:30:43Z</time>
      </trkpt>
      <trkpt lat="42.47559" lon="2.98914">
        <ele>1124</ele>
        <time>2024-09-23T08:30:47Z</time>
      </trkpt>
      <trkpt lat="42.47557" lon="2.98917">
        <ele>1125</ele>
        <time>2024-09-23T08:30:49Z</time>
      </trkpt>
      <trkpt lat="42.47555" lon="2.98922">
        <ele>1125</ele>
        <time>2024-09-23T08:30:52Z</time>
      </trkpt>
      <trkpt lat="42.47555" lon="2.98927">
        <ele>1127</ele>
        <time>2024-09-23T08:30:54Z</time>
      </trkpt>
      <trkpt lat="42.47554" lon="2.98931">
        <ele>1127</ele>
        <time>2024-09-23T08:30:56Z</time>
      </trkpt>
      <trkpt lat="42.47553" lon="2.98935">
        <ele>1127</ele>
        <time>2024-09-23T08:30:58Z</time>
      </trkpt>
      <trkpt lat="42.47553" lon="2.9894">
        <ele>1126</ele>
        <time>2024-09-23T08:31:01Z</time>
      </trkpt>
      <trkpt lat="42.47553" lon="2.98944">
        <ele>1127</ele>
        <time>2024-09-23T08:31:03Z</time>
      </trkpt>
      <trkpt lat="42.47551" lon="2.98948">
        <ele>1127</ele>
        <time>2024-09-23T08:31:06Z</time>
      </trkpt>
      <trkpt lat="42.47549" lon="2.9895">
        <ele>1127</ele>
        <time>2024-09-23T08:31:10Z</time>
      </trkpt>
      <trkpt lat="42.47548" lon="2.98955">
        <ele>1126</ele>
        <time>2024-09-23T08:31:14Z</time>
      </trkpt>
      <trkpt lat="42.47547" lon="2.9896">
        <ele>1125</ele>
        <time>2024-09-23T08:31:18Z</time>
      </trkpt>
      <trkpt lat="42.47546" lon="2.98964">
        <ele>1126</ele>
        <time>2024-09-23T08:31:20Z</time>
      </trkpt>
      <trkpt lat="42.47545" lon="2.98968">
        <ele>1126</ele>
        <time>2024-09-23T08:31:23Z</time>
      </trkpt>
      <trkpt lat="42.47544" lon="2.98972">
        <ele>1125</ele>
        <time>2024-09-23T08:31:25Z</time>
      </trkpt>
      <trkpt lat="42.47543" lon="2.98976">
        <ele>1125</ele>
        <time>2024-09-23T08:31:28Z</time>
      </trkpt>
      <trkpt lat="42.47544" lon="2.9898">
        <ele>1124</ele>
        <time>2024-09-23T08:31:30Z</time>
      </trkpt>
      <trkpt lat="42.47543" lon="2.98985">
        <ele>1124</ele>
        <time>2024-09-23T08:31:33Z</time>
      </trkpt>
      <trkpt lat="42.47543" lon="2.98989">
        <ele>1125</ele>
        <time>2024-09-23T08:31:36Z</time>
      </trkpt>
      <trkpt lat="42.47543" lon="2.98994">
        <ele>1123</ele>
        <time>2024-09-23T08:31:39Z</time>
      </trkpt>
      <trkpt lat="42.47542" lon="2.99">
        <ele>1123</ele>
        <time>2024-09-23T08:31:43Z</time>
      </trkpt>
      <trkpt lat="42.47541" lon="2.99005">
        <ele>1123</ele>
        <time>2024-09-23T08:31:47Z</time>
      </trkpt>
      <trkpt lat="42.4754" lon="2.9901">
        <ele>1123</ele>
        <time>2024-09-23T08:31:50Z</time>
      </trkpt>
      <trkpt lat="42.47538" lon="2.99014">
        <ele>1121</ele>
        <time>2024-09-23T08:31:54Z</time>
      </trkpt>
      <trkpt lat="42.47537" lon="2.99019">
        <ele>1119</ele>
        <time>2024-09-23T08:31:58Z</time>
      </trkpt>
      <trkpt lat="42.47537" lon="2.99024">
        <ele>1119</ele>
        <time>2024-09-23T08:32:01Z</time>
      </trkpt>
      <trkpt lat="42.47536" lon="2.99028">
        <ele>1119</ele>
        <time>2024-09-23T08:32:03Z</time>
      </trkpt>
      <trkpt lat="42.47536" lon="2.99033">
        <ele>1119</ele>
        <time>2024-09-23T08:32:06Z</time>
      </trkpt>
      <trkpt lat="42.47536" lon="2.99037">
        <ele>1119</ele>
        <time>2024-09-23T08:32:09Z</time>
      </trkpt>
      <trkpt lat="42.47537" lon="2.99037">
        <ele>1117</ele>
        <time>2024-09-23T08:32:12Z</time>
      </trkpt>
      <trkpt lat="42.4754" lon="2.99036">
        <ele>1117</ele>
        <time>2024-09-23T08:32:17Z</time>
      </trkpt>
      <trkpt lat="42.47539" lon="2.99036">
        <ele>1116</ele>
        <time>2024-09-23T08:32:19Z</time>
      </trkpt>
      <trkpt lat="42.47538" lon="2.99039">
        <ele>1118</ele>
        <time>2024-09-23T08:32:24Z</time>
      </trkpt>
      <trkpt lat="42.47537" lon="2.99042">
        <ele>1119</ele>
        <time>2024-09-23T08:32:27Z</time>
      </trkpt>
      <trkpt lat="42.47536" lon="2.99046">
        <ele>1117</ele>
        <time>2024-09-23T08:32:30Z</time>
      </trkpt>
      <trkpt lat="42.47535" lon="2.9905">
        <ele>1118</ele>
        <time>2024-09-23T08:32:32Z</time>
      </trkpt>
      <trkpt lat="42.47535" lon="2.99054">
        <ele>1117</ele>
        <time>2024-09-23T08:32:39Z</time>
      </trkpt>
      <trkpt lat="42.47536" lon="2.99058">
        <ele>1117</ele>
        <time>2024-09-23T08:32:44Z</time>
      </trkpt>
      <trkpt lat="42.47534" lon="2.99062">
        <ele>1117</ele>
        <time>2024-09-23T08:32:46Z</time>
      </trkpt>
      <trkpt lat="42.47532" lon="2.99065">
        <ele>1118</ele>
        <time>2024-09-23T08:32:52Z</time>
      </trkpt>
      <trkpt lat="42.47531" lon="2.9907">
        <ele>1119</ele>
        <time>2024-09-23T08:32:55Z</time>
      </trkpt>
      <trkpt lat="42.4753" lon="2.99074">
        <ele>1118</ele>
        <time>2024-09-23T08:32:58Z</time>
      </trkpt>
      <trkpt lat="42.47532" lon="2.99076">
        <ele>1117</ele>
        <time>2024-09-23T08:33:07Z</time>
      </trkpt>
      <trkpt lat="42.47534" lon="2.99076">
        <ele>1117</ele>
        <time>2024-09-23T08:33:15Z</time>
      </trkpt>
      <trkpt lat="42.47534" lon="2.99078">
        <ele>1117</ele>
        <time>2024-09-23T08:33:24Z</time>
      </trkpt>
      <trkpt lat="42.47535" lon="2.99077">
        <ele>1118</ele>
        <time>2024-09-23T08:33:44Z</time>
      </trkpt>
      <trkpt lat="42.47533" lon="2.99077">
        <ele>1119</ele>
        <time>2024-09-23T08:33:59Z</time>
      </trkpt>
      <trkpt lat="42.47532" lon="2.99079">
        <ele>1118</ele>
        <time>2024-09-23T08:34:08Z</time>
      </trkpt>
      <trkpt lat="42.47531" lon="2.99082">
        <ele>1119</ele>
        <time>2024-09-23T08:34:13Z</time>
      </trkpt>
      <trkpt lat="42.4753" lon="2.99085">
        <ele>1118</ele>
        <time>2024-09-23T08:35:36Z</time>
      </trkpt>
      <trkpt lat="42.4753" lon="2.99084">
        <ele>1115</ele>
        <time>2024-09-23T08:35:50Z</time>
      </trkpt>
      <trkpt lat="42.47533" lon="2.99082">
        <ele>1115</ele>
        <time>2024-09-23T08:36:03Z</time>
      </trkpt>
      <trkpt lat="42.47532" lon="2.99086">
        <ele>1121</ele>
        <time>2024-09-23T08:36:15Z</time>
      </trkpt>
      <trkpt lat="42.47533" lon="2.99087">
        <ele>1120</ele>
        <time>2024-09-23T08:36:35Z</time>
      </trkpt>
      <trkpt lat="42.47535" lon="2.99085">
        <ele>1116</ele>
        <time>2024-09-23T08:36:49Z</time>
      </trkpt>
      <trkpt lat="42.47533" lon="2.99085">
        <ele>1118</ele>
        <time>2024-09-23T08:37:25Z</time>
      </trkpt>
      <trkpt lat="42.47531" lon="2.99086">
        <ele>1118</ele>
        <time>2024-09-23T08:37:27Z</time>
      </trkpt>
      <trkpt lat="42.4753" lon="2.9909">
        <ele>1118</ele>
        <time>2024-09-23T08:37:29Z</time>
      </trkpt>
      <trkpt lat="42.47529" lon="2.99094">
        <ele>1118</ele>
        <time>2024-09-23T08:37:32Z</time>
      </trkpt>
      <trkpt lat="42.47527" lon="2.99097">
        <ele>1118</ele>
        <time>2024-09-23T08:37:36Z</time>
      </trkpt>
      <trkpt lat="42.47526" lon="2.99101">
        <ele>1119</ele>
        <time>2024-09-23T08:37:41Z</time>
      </trkpt>
      <trkpt lat="42.47526" lon="2.99106">
        <ele>1116</ele>
        <time>2024-09-23T08:37:50Z</time>
      </trkpt>
      <trkpt lat="42.47524" lon="2.99112">
        <ele>1116</ele>
        <time>2024-09-23T08:37:54Z</time>
      </trkpt>
      <trkpt lat="42.47522" lon="2.99116">
        <ele>1115</ele>
        <time>2024-09-23T08:37:56Z</time>
      </trkpt>
      <trkpt lat="42.47521" lon="2.9912">
        <ele>1116</ele>
        <time>2024-09-23T08:38:02Z</time>
      </trkpt>
      <trkpt lat="42.47518" lon="2.99122">
        <ele>1116</ele>
        <time>2024-09-23T08:38:06Z</time>
      </trkpt>
      <trkpt lat="42.47516" lon="2.99126">
        <ele>1116</ele>
        <time>2024-09-23T08:38:08Z</time>
      </trkpt>
      <trkpt lat="42.47515" lon="2.9913">
        <ele>1117</ele>
        <time>2024-09-23T08:38:10Z</time>
      </trkpt>
      <trkpt lat="42.47515" lon="2.99134">
        <ele>1116</ele>
        <time>2024-09-23T08:38:13Z</time>
      </trkpt>
      <trkpt lat="42.47514" lon="2.99138">
        <ele>1116</ele>
        <time>2024-09-23T08:38:15Z</time>
      </trkpt>
      <trkpt lat="42.47512" lon="2.9914">
        <ele>1115</ele>
        <time>2024-09-23T08:38:19Z</time>
      </trkpt>
      <trkpt lat="42.47509" lon="2.99143">
        <ele>1116</ele>
        <time>2024-09-23T08:38:21Z</time>
      </trkpt>
      <trkpt lat="42.47507" lon="2.99147">
        <ele>1114</ele>
        <time>2024-09-23T08:38:23Z</time>
      </trkpt>
      <trkpt lat="42.47504" lon="2.99151">
        <ele>1116</ele>
        <time>2024-09-23T08:38:27Z</time>
      </trkpt>
      <trkpt lat="42.47502" lon="2.99154">
        <ele>1117</ele>
        <time>2024-09-23T08:38:29Z</time>
      </trkpt>
      <trkpt lat="42.475" lon="2.99157">
        <ele>1117</ele>
        <time>2024-09-23T08:38:34Z</time>
      </trkpt>
      <trkpt lat="42.47499" lon="2.9916">
        <ele>1116</ele>
        <time>2024-09-23T08:38:36Z</time>
      </trkpt>
      <trkpt lat="42.47498" lon="2.99164">
        <ele>1116</ele>
        <time>2024-09-23T08:38:37Z</time>
      </trkpt>
      <trkpt lat="42.47498" lon="2.99168">
        <ele>1116</ele>
        <time>2024-09-23T08:38:40Z</time>
      </trkpt>
      <trkpt lat="42.47497" lon="2.99172">
        <ele>1116</ele>
        <time>2024-09-23T08:38:42Z</time>
      </trkpt>
      <trkpt lat="42.47497" lon="2.99176">
        <ele>1115</ele>
        <time>2024-09-23T08:38:45Z</time>
      </trkpt>
      <trkpt lat="42.47495" lon="2.99179">
        <ele>1116</ele>
        <time>2024-09-23T08:38:50Z</time>
      </trkpt>
      <trkpt lat="42.47493" lon="2.99182">
        <ele>1118</ele>
        <time>2024-09-23T08:38:52Z</time>
      </trkpt>
      <trkpt lat="42.47492" lon="2.99187">
        <ele>1118</ele>
        <time>2024-09-23T08:38:54Z</time>
      </trkpt>
      <trkpt lat="42.4749" lon="2.9919">
        <ele>1120</ele>
        <time>2024-09-23T08:38:57Z</time>
      </trkpt>
      <trkpt lat="42.47488" lon="2.99194">
        <ele>1120</ele>
        <time>2024-09-23T08:39:00Z</time>
      </trkpt>
      <trkpt lat="42.47487" lon="2.99198">
        <ele>1121</ele>
        <time>2024-09-23T08:39:02Z</time>
      </trkpt>
      <trkpt lat="42.47484" lon="2.99202">
        <ele>1121</ele>
        <time>2024-09-23T08:39:06Z</time>
      </trkpt>
      <trkpt lat="42.47482" lon="2.99205">
        <ele>1121</ele>
        <time>2024-09-23T08:39:10Z</time>
      </trkpt>
      <trkpt lat="42.4748" lon="2.99209">
        <ele>1121</ele>
        <time>2024-09-23T08:39:13Z</time>
      </trkpt>
      <trkpt lat="42.47479" lon="2.99213">
        <ele>1121</ele>
        <time>2024-09-23T08:39:16Z</time>
      </trkpt>
      <trkpt lat="42.47479" lon="2.99217">
        <ele>1122</ele>
        <time>2024-09-23T08:39:18Z</time>
      </trkpt>
      <trkpt lat="42.47478" lon="2.99222">
        <ele>1122</ele>
        <time>2024-09-23T08:39:21Z</time>
      </trkpt>
      <trkpt lat="42.4748" lon="2.99225">
        <ele>1119</ele>
        <time>2024-09-23T08:39:29Z</time>
      </trkpt>
      <trkpt lat="42.4748" lon="2.99229">
        <ele>1120</ele>
        <time>2024-09-23T08:39:33Z</time>
      </trkpt>
      <trkpt lat="42.4748" lon="2.99233">
        <ele>1119</ele>
        <time>2024-09-23T08:39:38Z</time>
      </trkpt>
      <trkpt lat="42.47479" lon="2.99238">
        <ele>1118</ele>
        <time>2024-09-23T08:39:40Z</time>
      </trkpt>
      <trkpt lat="42.47478" lon="2.99241">
        <ele>1118</ele>
        <time>2024-09-23T08:39:44Z</time>
      </trkpt>
      <trkpt lat="42.47475" lon="2.99244">
        <ele>1118</ele>
        <time>2024-09-23T08:39:48Z</time>
      </trkpt>
      <trkpt lat="42.47473" lon="2.99246">
        <ele>1118</ele>
        <time>2024-09-23T08:39:51Z</time>
      </trkpt>
      <trkpt lat="42.47471" lon="2.99249">
        <ele>1118</ele>
        <time>2024-09-23T08:39:54Z</time>
      </trkpt>
      <trkpt lat="42.47469" lon="2.99253">
        <ele>1120</ele>
        <time>2024-09-23T08:39:59Z</time>
      </trkpt>
      <trkpt lat="42.47467" lon="2.99257">
        <ele>1118</ele>
        <time>2024-09-23T08:40:03Z</time>
      </trkpt>
      <trkpt lat="42.47466" lon="2.9926">
        <ele>1118</ele>
        <time>2024-09-23T08:40:05Z</time>
      </trkpt>
      <trkpt lat="42.47466" lon="2.99265">
        <ele>1119</ele>
        <time>2024-09-23T08:40:07Z</time>
      </trkpt>
      <trkpt lat="42.47465" lon="2.99269">
        <ele>1119</ele>
        <time>2024-09-23T08:40:10Z</time>
      </trkpt>
      <trkpt lat="42.47463" lon="2.99274">
        <ele>1120</ele>
        <time>2024-09-23T08:40:15Z</time>
      </trkpt>
      <trkpt lat="42.47461" lon="2.99277">
        <ele>1120</ele>
        <time>2024-09-23T08:40:18Z</time>
      </trkpt>
      <trkpt lat="42.47458" lon="2.99279">
        <ele>1120</ele>
        <time>2024-09-23T08:40:21Z</time>
      </trkpt>
      <trkpt lat="42.47457" lon="2.99283">
        <ele>1123</ele>
        <time>2024-09-23T08:40:25Z</time>
      </trkpt>
      <trkpt lat="42.47456" lon="2.99287">
        <ele>1122</ele>
        <time>2024-09-23T08:40:28Z</time>
      </trkpt>
      <trkpt lat="42.47455" lon="2.99292">
        <ele>1122</ele>
        <time>2024-09-23T08:40:31Z</time>
      </trkpt>
      <trkpt lat="42.47456" lon="2.99296">
        <ele>1120</ele>
        <time>2024-09-23T08:40:35Z</time>
      </trkpt>
      <trkpt lat="42.47456" lon="2.993">
        <ele>1121</ele>
        <time>2024-09-23T08:40:37Z</time>
      </trkpt>
      <trkpt lat="42.47456" lon="2.99306">
        <ele>1122</ele>
        <time>2024-09-23T08:40:39Z</time>
      </trkpt>
      <trkpt lat="42.47454" lon="2.99309">
        <ele>1120</ele>
        <time>2024-09-23T08:40:44Z</time>
      </trkpt>
      <trkpt lat="42.47452" lon="2.99312">
        <ele>1121</ele>
        <time>2024-09-23T08:40:49Z</time>
      </trkpt>
      <trkpt lat="42.4745" lon="2.99316">
        <ele>1121</ele>
        <time>2024-09-23T08:40:53Z</time>
      </trkpt>
      <trkpt lat="42.47448" lon="2.99319">
        <ele>1122</ele>
        <time>2024-09-23T08:40:57Z</time>
      </trkpt>
      <trkpt lat="42.47447" lon="2.99323">
        <ele>1122</ele>
        <time>2024-09-23T08:41:01Z</time>
      </trkpt>
      <trkpt lat="42.47445" lon="2.99327">
        <ele>1124</ele>
        <time>2024-09-23T08:41:05Z</time>
      </trkpt>
      <trkpt lat="42.47444" lon="2.99332">
        <ele>1125</ele>
        <time>2024-09-23T08:41:08Z</time>
      </trkpt>
      <trkpt lat="42.47442" lon="2.99336">
        <ele>1125</ele>
        <time>2024-09-23T08:41:11Z</time>
      </trkpt>
      <trkpt lat="42.4744" lon="2.99339">
        <ele>1126</ele>
        <time>2024-09-23T08:41:14Z</time>
      </trkpt>
      <trkpt lat="42.47439" lon="2.99342">
        <ele>1126</ele>
        <time>2024-09-23T08:41:17Z</time>
      </trkpt>
      <trkpt lat="42.47439" lon="2.99346">
        <ele>1126</ele>
        <time>2024-09-23T08:41:22Z</time>
      </trkpt>
      <trkpt lat="42.47439" lon="2.9935">
        <ele>1127</ele>
        <time>2024-09-23T08:41:24Z</time>
      </trkpt>
      <trkpt lat="42.47438" lon="2.99354">
        <ele>1126</ele>
        <time>2024-09-23T08:41:26Z</time>
      </trkpt>
      <trkpt lat="42.47436" lon="2.99358">
        <ele>1127</ele>
        <time>2024-09-23T08:41:29Z</time>
      </trkpt>
      <trkpt lat="42.47436" lon="2.99362">
        <ele>1127</ele>
        <time>2024-09-23T08:41:31Z</time>
      </trkpt>
      <trkpt lat="42.47435" lon="2.99367">
        <ele>1126</ele>
        <time>2024-09-23T08:41:35Z</time>
      </trkpt>
      <trkpt lat="42.47435" lon="2.99371">
        <ele>1126</ele>
        <time>2024-09-23T08:41:38Z</time>
      </trkpt>
      <trkpt lat="42.47434" lon="2.99376">
        <ele>1127</ele>
        <time>2024-09-23T08:41:41Z</time>
      </trkpt>
      <trkpt lat="42.47433" lon="2.9938">
        <ele>1126</ele>
        <time>2024-09-23T08:41:44Z</time>
      </trkpt>
      <trkpt lat="42.47431" lon="2.99384">
        <ele>1126</ele>
        <time>2024-09-23T08:41:47Z</time>
      </trkpt>
      <trkpt lat="42.4743" lon="2.99388">
        <ele>1126</ele>
        <time>2024-09-23T08:41:50Z</time>
      </trkpt>
      <trkpt lat="42.47428" lon="2.99391">
        <ele>1126</ele>
        <time>2024-09-23T08:41:52Z</time>
      </trkpt>
      <trkpt lat="42.47426" lon="2.99394">
        <ele>1127</ele>
        <time>2024-09-23T08:41:55Z</time>
      </trkpt>
      <trkpt lat="42.47424" lon="2.99397">
        <ele>1128</ele>
        <time>2024-09-23T08:41:58Z</time>
      </trkpt>
      <trkpt lat="42.47422" lon="2.99401">
        <ele>1127</ele>
        <time>2024-09-23T08:42:01Z</time>
      </trkpt>
      <trkpt lat="42.4742" lon="2.99405">
        <ele>1128</ele>
        <time>2024-09-23T08:42:04Z</time>
      </trkpt>
      <trkpt lat="42.47418" lon="2.99408">
        <ele>1127</ele>
        <time>2024-09-23T08:42:08Z</time>
      </trkpt>
      <trkpt lat="42.47416" lon="2.99412">
        <ele>1128</ele>
        <time>2024-09-23T08:42:11Z</time>
      </trkpt>
      <trkpt lat="42.47413" lon="2.99414">
        <ele>1128</ele>
        <time>2024-09-23T08:42:14Z</time>
      </trkpt>
      <trkpt lat="42.47411" lon="2.99417">
        <ele>1128</ele>
        <time>2024-09-23T08:42:17Z</time>
      </trkpt>
      <trkpt lat="42.47408" lon="2.9942">
        <ele>1127</ele>
        <time>2024-09-23T08:42:20Z</time>
      </trkpt>
      <trkpt lat="42.47406" lon="2.99423">
        <ele>1128</ele>
        <time>2024-09-23T08:42:23Z</time>
      </trkpt>
      <trkpt lat="42.47403" lon="2.99426">
        <ele>1129</ele>
        <time>2024-09-23T08:42:26Z</time>
      </trkpt>
      <trkpt lat="42.47401" lon="2.99429">
        <ele>1128</ele>
        <time>2024-09-23T08:42:29Z</time>
      </trkpt>
      <trkpt lat="42.47399" lon="2.99433">
        <ele>1129</ele>
        <time>2024-09-23T08:42:32Z</time>
      </trkpt>
      <trkpt lat="42.47398" lon="2.99438">
        <ele>1129</ele>
        <time>2024-09-23T08:42:35Z</time>
      </trkpt>
      <trkpt lat="42.47396" lon="2.99441">
        <ele>1129</ele>
        <time>2024-09-23T08:42:37Z</time>
      </trkpt>
      <trkpt lat="42.47393" lon="2.99444">
        <ele>1127</ele>
        <time>2024-09-23T08:42:39Z</time>
      </trkpt>
      <trkpt lat="42.47392" lon="2.99448">
        <ele>1128</ele>
        <time>2024-09-23T08:42:42Z</time>
      </trkpt>
      <trkpt lat="42.4739" lon="2.99452">
        <ele>1128</ele>
        <time>2024-09-23T08:42:45Z</time>
      </trkpt>
      <trkpt lat="42.47389" lon="2.99456">
        <ele>1128</ele>
        <time>2024-09-23T08:42:48Z</time>
      </trkpt>
      <trkpt lat="42.47387" lon="2.9946">
        <ele>1128</ele>
        <time>2024-09-23T08:42:51Z</time>
      </trkpt>
      <trkpt lat="42.47385" lon="2.99464">
        <ele>1126</ele>
        <time>2024-09-23T08:42:53Z</time>
      </trkpt>
      <trkpt lat="42.47384" lon="2.99468">
        <ele>1127</ele>
        <time>2024-09-23T08:42:55Z</time>
      </trkpt>
      <trkpt lat="42.47383" lon="2.99472">
        <ele>1128</ele>
        <time>2024-09-23T08:42:59Z</time>
      </trkpt>
      <trkpt lat="42.47382" lon="2.99477">
        <ele>1128</ele>
        <time>2024-09-23T08:43:02Z</time>
      </trkpt>
      <trkpt lat="42.47381" lon="2.99481">
        <ele>1128</ele>
        <time>2024-09-23T08:43:04Z</time>
      </trkpt>
      <trkpt lat="42.4738" lon="2.99485">
        <ele>1129</ele>
        <time>2024-09-23T08:43:07Z</time>
      </trkpt>
      <trkpt lat="42.47379" lon="2.9949">
        <ele>1129</ele>
        <time>2024-09-23T08:43:10Z</time>
      </trkpt>
      <trkpt lat="42.47378" lon="2.99494">
        <ele>1130</ele>
        <time>2024-09-23T08:43:12Z</time>
      </trkpt>
      <trkpt lat="42.47377" lon="2.99497">
        <ele>1129</ele>
        <time>2024-09-23T08:43:15Z</time>
      </trkpt>
      <trkpt lat="42.47376" lon="2.99501">
        <ele>1130</ele>
        <time>2024-09-23T08:43:17Z</time>
      </trkpt>
      <trkpt lat="42.47375" lon="2.99505">
        <ele>1131</ele>
        <time>2024-09-23T08:43:20Z</time>
      </trkpt>
      <trkpt lat="42.47374" lon="2.9951">
        <ele>1130</ele>
        <time>2024-09-23T08:43:23Z</time>
      </trkpt>
      <trkpt lat="42.47374" lon="2.99514">
        <ele>1129</ele>
        <time>2024-09-23T08:43:26Z</time>
      </trkpt>
      <trkpt lat="42.47374" lon="2.99519">
        <ele>1129</ele>
        <time>2024-09-23T08:43:29Z</time>
      </trkpt>
      <trkpt lat="42.47375" lon="2.99523">
        <ele>1128</ele>
        <time>2024-09-23T08:43:31Z</time>
      </trkpt>
      <trkpt lat="42.47376" lon="2.99527">
        <ele>1129</ele>
        <time>2024-09-23T08:43:34Z</time>
      </trkpt>
      <trkpt lat="42.47378" lon="2.99532">
        <ele>1129</ele>
        <time>2024-09-23T08:43:37Z</time>
      </trkpt>
      <trkpt lat="42.47379" lon="2.99536">
        <ele>1129</ele>
        <time>2024-09-23T08:43:40Z</time>
      </trkpt>
      <trkpt lat="42.47381" lon="2.99541">
        <ele>1129</ele>
        <time>2024-09-23T08:43:43Z</time>
      </trkpt>
      <trkpt lat="42.47383" lon="2.99544">
        <ele>1129</ele>
        <time>2024-09-23T08:43:46Z</time>
      </trkpt>
      <trkpt lat="42.47385" lon="2.99549">
        <ele>1128</ele>
        <time>2024-09-23T08:43:49Z</time>
      </trkpt>
      <trkpt lat="42.47387" lon="2.99553">
        <ele>1128</ele>
        <time>2024-09-23T08:43:52Z</time>
      </trkpt>
      <trkpt lat="42.47388" lon="2.99557">
        <ele>1129</ele>
        <time>2024-09-23T08:43:55Z</time>
      </trkpt>
      <trkpt lat="42.47389" lon="2.99561">
        <ele>1129</ele>
        <time>2024-09-23T08:43:57Z</time>
      </trkpt>
      <trkpt lat="42.4739" lon="2.99566">
        <ele>1129</ele>
        <time>2024-09-23T08:44:00Z</time>
      </trkpt>
      <trkpt lat="42.47392" lon="2.9957">
        <ele>1128</ele>
        <time>2024-09-23T08:44:03Z</time>
      </trkpt>
      <trkpt lat="42.47393" lon="2.99574">
        <ele>1128</ele>
        <time>2024-09-23T08:44:06Z</time>
      </trkpt>
      <trkpt lat="42.47394" lon="2.99579">
        <ele>1127</ele>
        <time>2024-09-23T08:44:09Z</time>
      </trkpt>
      <trkpt lat="42.47395" lon="2.99583">
        <ele>1128</ele>
        <time>2024-09-23T08:44:12Z</time>
      </trkpt>
      <trkpt lat="42.47396" lon="2.99588">
        <ele>1128</ele>
        <time>2024-09-23T08:44:15Z</time>
      </trkpt>
      <trkpt lat="42.47397" lon="2.99592">
        <ele>1128</ele>
        <time>2024-09-23T08:44:18Z</time>
      </trkpt>
      <trkpt lat="42.47398" lon="2.99597">
        <ele>1128</ele>
        <time>2024-09-23T08:44:21Z</time>
      </trkpt>
      <trkpt lat="42.47399" lon="2.99601">
        <ele>1128</ele>
        <time>2024-09-23T08:44:24Z</time>
      </trkpt>
      <trkpt lat="42.474" lon="2.99606">
        <ele>1128</ele>
        <time>2024-09-23T08:44:27Z</time>
      </trkpt>
      <trkpt lat="42.474" lon="2.9961">
        <ele>1128</ele>
        <time>2024-09-23T08:44:30Z</time>
      </trkpt>
      <trkpt lat="42.47401" lon="2.99615">
        <ele>1129</ele>
        <time>2024-09-23T08:44:33Z</time>
      </trkpt>
      <trkpt lat="42.47401" lon="2.99619">
        <ele>1130</ele>
        <time>2024-09-23T08:44:37Z</time>
      </trkpt>
      <trkpt lat="42.47402" lon="2.99623">
        <ele>1130</ele>
        <time>2024-09-23T08:44:40Z</time>
      </trkpt>
      <trkpt lat="42.47402" lon="2.99628">
        <ele>1130</ele>
        <time>2024-09-23T08:44:43Z</time>
      </trkpt>
      <trkpt lat="42.47402" lon="2.99632">
        <ele>1131</ele>
        <time>2024-09-23T08:44:46Z</time>
      </trkpt>
      <trkpt lat="42.47403" lon="2.99636">
        <ele>1131</ele>
        <time>2024-09-23T08:44:49Z</time>
      </trkpt>
      <trkpt lat="42.47403" lon="2.9964">
        <ele>1132</ele>
        <time>2024-09-23T08:44:52Z</time>
      </trkpt>
      <trkpt lat="42.47404" lon="2.99645">
        <ele>1133</ele>
        <time>2024-09-23T08:44:56Z</time>
      </trkpt>
      <trkpt lat="42.47403" lon="2.99649">
        <ele>1133</ele>
        <time>2024-09-23T08:44:59Z</time>
      </trkpt>
      <trkpt lat="42.47404" lon="2.99653">
        <ele>1134</ele>
        <time>2024-09-23T08:45:02Z</time>
      </trkpt>
      <trkpt lat="42.47404" lon="2.99657">
        <ele>1134</ele>
        <time>2024-09-23T08:45:06Z</time>
      </trkpt>
      <trkpt lat="42.47404" lon="2.99661">
        <ele>1134</ele>
        <time>2024-09-23T08:45:09Z</time>
      </trkpt>
      <trkpt lat="42.47404" lon="2.99666">
        <ele>1134</ele>
        <time>2024-09-23T08:45:13Z</time>
      </trkpt>
      <trkpt lat="42.47405" lon="2.99671">
        <ele>1134</ele>
        <time>2024-09-23T08:45:17Z</time>
      </trkpt>
      <trkpt lat="42.47405" lon="2.99676">
        <ele>1135</ele>
        <time>2024-09-23T08:45:20Z</time>
      </trkpt>
      <trkpt lat="42.47405" lon="2.9968">
        <ele>1135</ele>
        <time>2024-09-23T08:45:23Z</time>
      </trkpt>
      <trkpt lat="42.47405" lon="2.99684">
        <ele>1137</ele>
        <time>2024-09-23T08:45:26Z</time>
      </trkpt>
      <trkpt lat="42.47405" lon="2.99689">
        <ele>1136</ele>
        <time>2024-09-23T08:45:30Z</time>
      </trkpt>
      <trkpt lat="42.47404" lon="2.99693">
        <ele>1135</ele>
        <time>2024-09-23T08:45:33Z</time>
      </trkpt>
      <trkpt lat="42.47404" lon="2.99698">
        <ele>1137</ele>
        <time>2024-09-23T08:45:35Z</time>
      </trkpt>
      <trkpt lat="42.47404" lon="2.99702">
        <ele>1138</ele>
        <time>2024-09-23T08:45:38Z</time>
      </trkpt>
      <trkpt lat="42.47405" lon="2.99706">
        <ele>1138</ele>
        <time>2024-09-23T08:45:41Z</time>
      </trkpt>
      <trkpt lat="42.47405" lon="2.9971">
        <ele>1138</ele>
        <time>2024-09-23T08:45:44Z</time>
      </trkpt>
      <trkpt lat="42.47406" lon="2.99714">
        <ele>1138</ele>
        <time>2024-09-23T08:45:47Z</time>
      </trkpt>
      <trkpt lat="42.47406" lon="2.99718">
        <ele>1139</ele>
        <time>2024-09-23T08:45:50Z</time>
      </trkpt>
      <trkpt lat="42.47407" lon="2.99722">
        <ele>1139</ele>
        <time>2024-09-23T08:45:53Z</time>
      </trkpt>
      <trkpt lat="42.47407" lon="2.99726">
        <ele>1140</ele>
        <time>2024-09-23T08:45:56Z</time>
      </trkpt>
      <trkpt lat="42.47408" lon="2.9973">
        <ele>1140</ele>
        <time>2024-09-23T08:45:59Z</time>
      </trkpt>
      <trkpt lat="42.47408" lon="2.99734">
        <ele>1139</ele>
        <time>2024-09-23T08:46:02Z</time>
      </trkpt>
      <trkpt lat="42.47408" lon="2.99738">
        <ele>1140</ele>
        <time>2024-09-23T08:46:05Z</time>
      </trkpt>
      <trkpt lat="42.47409" lon="2.99742">
        <ele>1140</ele>
        <time>2024-09-23T08:46:08Z</time>
      </trkpt>
      <trkpt lat="42.47409" lon="2.99747">
        <ele>1141</ele>
        <time>2024-09-23T08:46:11Z</time>
      </trkpt>
      <trkpt lat="42.4741" lon="2.99751">
        <ele>1142</ele>
        <time>2024-09-23T08:46:14Z</time>
      </trkpt>
      <trkpt lat="42.4741" lon="2.99756">
        <ele>1142</ele>
        <time>2024-09-23T08:46:18Z</time>
      </trkpt>
      <trkpt lat="42.4741" lon="2.99761">
        <ele>1142</ele>
        <time>2024-09-23T08:46:21Z</time>
      </trkpt>
      <trkpt lat="42.4741" lon="2.9976">
        <ele>1141</ele>
        <time>2024-09-23T08:46:30Z</time>
      </trkpt>
      <trkpt lat="42.47409" lon="2.99758">
        <ele>1141</ele>
        <time>2024-09-23T08:46:52Z</time>
      </trkpt>
      <trkpt lat="42.47407" lon="2.99757">
        <ele>1143</ele>
        <time>2024-09-23T08:47:01Z</time>
      </trkpt>
      <trkpt lat="42.47404" lon="2.99759">
        <ele>1143</ele>
        <time>2024-09-23T08:47:04Z</time>
      </trkpt>
      <trkpt lat="42.47402" lon="2.9976">
        <ele>1144</ele>
        <time>2024-09-23T08:47:08Z</time>
      </trkpt>
      <trkpt lat="42.47399" lon="2.99761">
        <ele>1145</ele>
        <time>2024-09-23T08:47:13Z</time>
      </trkpt>
      <trkpt lat="42.47396" lon="2.99763">
        <ele>1145</ele>
        <time>2024-09-23T08:47:17Z</time>
      </trkpt>
      <trkpt lat="42.47393" lon="2.99765">
        <ele>1145</ele>
        <time>2024-09-23T08:47:20Z</time>
      </trkpt>
      <trkpt lat="42.47392" lon="2.99767">
        <ele>1146</ele>
        <time>2024-09-23T08:47:23Z</time>
      </trkpt>
      <trkpt lat="42.4739" lon="2.9977">
        <ele>1147</ele>
        <time>2024-09-23T08:47:27Z</time>
      </trkpt>
      <trkpt lat="42.47388" lon="2.99772">
        <ele>1147</ele>
        <time>2024-09-23T08:47:31Z</time>
      </trkpt>
      <trkpt lat="42.47385" lon="2.99774">
        <ele>1149</ele>
        <time>2024-09-23T08:47:35Z</time>
      </trkpt>
      <trkpt lat="42.47383" lon="2.99777">
        <ele>1150</ele>
        <time>2024-09-23T08:47:39Z</time>
      </trkpt>
      <trkpt lat="42.4738" lon="2.99778">
        <ele>1151</ele>
        <time>2024-09-23T08:47:42Z</time>
      </trkpt>
      <trkpt lat="42.47377" lon="2.9978">
        <ele>1151</ele>
        <time>2024-09-23T08:47:46Z</time>
      </trkpt>
      <trkpt lat="42.47374" lon="2.99781">
        <ele>1152</ele>
        <time>2024-09-23T08:47:50Z</time>
      </trkpt>
      <trkpt lat="42.47371" lon="2.99783">
        <ele>1153</ele>
        <time>2024-09-23T08:47:54Z</time>
      </trkpt>
      <trkpt lat="42.47369" lon="2.99787">
        <ele>1153</ele>
        <time>2024-09-23T08:48:05Z</time>
      </trkpt>
      <trkpt lat="42.47367" lon="2.9979">
        <ele>1155</ele>
        <time>2024-09-23T08:48:09Z</time>
      </trkpt>
      <trkpt lat="42.47364" lon="2.99793">
        <ele>1155</ele>
        <time>2024-09-23T08:48:13Z</time>
      </trkpt>
      <trkpt lat="42.47362" lon="2.99796">
        <ele>1155</ele>
        <time>2024-09-23T08:48:35Z</time>
      </trkpt>
      <trkpt lat="42.4736" lon="2.99799">
        <ele>1156</ele>
        <time>2024-09-23T08:48:40Z</time>
      </trkpt>
      <trkpt lat="42.47358" lon="2.99801">
        <ele>1158</ele>
        <time>2024-09-23T08:48:46Z</time>
      </trkpt>
      <trkpt lat="42.47355" lon="2.99801">
        <ele>1156</ele>
        <time>2024-09-23T08:48:47Z</time>
      </trkpt>
      <trkpt lat="42.47353" lon="2.99804">
        <ele>1157</ele>
        <time>2024-09-23T08:48:51Z</time>
      </trkpt>
      <trkpt lat="42.47351" lon="2.99807">
        <ele>1157</ele>
        <time>2024-09-23T08:48:55Z</time>
      </trkpt>
      <trkpt lat="42.47349" lon="2.9981">
        <ele>1156</ele>
        <time>2024-09-23T08:48:59Z</time>
      </trkpt>
      <trkpt lat="42.47347" lon="2.99812">
        <ele>1158</ele>
        <time>2024-09-23T08:49:03Z</time>
      </trkpt>
      <trkpt lat="42.47348" lon="2.99812">
        <ele>1160</ele>
        <time>2024-09-23T08:50:15Z</time>
      </trkpt>
      <trkpt lat="42.4735" lon="2.99812">
        <ele>1159</ele>
        <time>2024-09-23T08:50:18Z</time>
      </trkpt>
      <trkpt lat="42.47353" lon="2.99812">
        <ele>1159</ele>
        <time>2024-09-23T08:50:46Z</time>
      </trkpt>
      <trkpt lat="42.47352" lon="2.99813">
        <ele>1160</ele>
        <time>2024-09-23T08:53:18Z</time>
      </trkpt>
      <trkpt lat="42.47349" lon="2.99813">
        <ele>1158</ele>
        <time>2024-09-23T08:53:22Z</time>
      </trkpt>
      <trkpt lat="42.47346" lon="2.99814">
        <ele>1160</ele>
        <time>2024-09-23T08:53:25Z</time>
      </trkpt>
      <trkpt lat="42.47344" lon="2.99814">
        <ele>1160</ele>
        <time>2024-09-23T08:53:29Z</time>
      </trkpt>
      <trkpt lat="42.4734" lon="2.99814">
        <ele>1160</ele>
        <time>2024-09-23T08:53:33Z</time>
      </trkpt>
      <trkpt lat="42.47337" lon="2.99814">
        <ele>1161</ele>
        <time>2024-09-23T08:53:36Z</time>
      </trkpt>
      <trkpt lat="42.47334" lon="2.99815">
        <ele>1161</ele>
        <time>2024-09-23T08:53:39Z</time>
      </trkpt>
      <trkpt lat="42.47331" lon="2.99817">
        <ele>1161</ele>
        <time>2024-09-23T08:53:42Z</time>
      </trkpt>
      <trkpt lat="42.47327" lon="2.99817">
        <ele>1162</ele>
        <time>2024-09-23T08:53:45Z</time>
      </trkpt>
      <trkpt lat="42.47324" lon="2.99818">
        <ele>1163</ele>
        <time>2024-09-23T08:53:48Z</time>
      </trkpt>
      <trkpt lat="42.4732" lon="2.99819">
        <ele>1163</ele>
        <time>2024-09-23T08:53:51Z</time>
      </trkpt>
      <trkpt lat="42.47317" lon="2.9982">
        <ele>1163</ele>
        <time>2024-09-23T08:53:54Z</time>
      </trkpt>
      <trkpt lat="42.47314" lon="2.99822">
        <ele>1163</ele>
        <time>2024-09-23T08:53:57Z</time>
      </trkpt>
      <trkpt lat="42.4731" lon="2.99822">
        <ele>1162</ele>
        <time>2024-09-23T08:53:59Z</time>
      </trkpt>
      <trkpt lat="42.47307" lon="2.99822">
        <ele>1162</ele>
        <time>2024-09-23T08:54:02Z</time>
      </trkpt>
      <trkpt lat="42.47303" lon="2.99823">
        <ele>1163</ele>
        <time>2024-09-23T08:54:05Z</time>
      </trkpt>
      <trkpt lat="42.473" lon="2.99823">
        <ele>1163</ele>
        <time>2024-09-23T08:54:08Z</time>
      </trkpt>
      <trkpt lat="42.47301" lon="2.99824">
        <ele>1165</ele>
        <time>2024-09-23T08:54:26Z</time>
      </trkpt>
      <trkpt lat="42.47303" lon="2.99823">
        <ele>1164</ele>
        <time>2024-09-23T08:54:29Z</time>
      </trkpt>
      <trkpt lat="42.47306" lon="2.99821">
        <ele>1165</ele>
        <time>2024-09-23T08:54:31Z</time>
      </trkpt>
      <trkpt lat="42.47309" lon="2.9982">
        <ele>1163</ele>
        <time>2024-09-23T08:54:34Z</time>
      </trkpt>
      <trkpt lat="42.47312" lon="2.9982">
        <ele>1163</ele>
        <time>2024-09-23T08:54:36Z</time>
      </trkpt>
      <trkpt lat="42.47316" lon="2.99818">
        <ele>1164</ele>
        <time>2024-09-23T08:54:39Z</time>
      </trkpt>
      <trkpt lat="42.47319" lon="2.99817">
        <ele>1163</ele>
        <time>2024-09-23T08:54:41Z</time>
      </trkpt>
      <trkpt lat="42.47323" lon="2.99817">
        <ele>1164</ele>
        <time>2024-09-23T08:54:44Z</time>
      </trkpt>
      <trkpt lat="42.47327" lon="2.99816">
        <ele>1163</ele>
        <time>2024-09-23T08:54:47Z</time>
      </trkpt>
      <trkpt lat="42.4733" lon="2.99817">
        <ele>1164</ele>
        <time>2024-09-23T08:54:49Z</time>
      </trkpt>
      <trkpt lat="42.47333" lon="2.99816">
        <ele>1164</ele>
        <time>2024-09-23T08:54:52Z</time>
      </trkpt>
      <trkpt lat="42.47337" lon="2.99815">
        <ele>1163</ele>
        <time>2024-09-23T08:54:57Z</time>
      </trkpt>
      <trkpt lat="42.47339" lon="2.99815">
        <ele>1162</ele>
        <time>2024-09-23T08:54:59Z</time>
      </trkpt>
      <trkpt lat="42.47342" lon="2.99814">
        <ele>1162</ele>
        <time>2024-09-23T08:55:01Z</time>
      </trkpt>
      <trkpt lat="42.47345" lon="2.99813">
        <ele>1162</ele>
        <time>2024-09-23T08:55:03Z</time>
      </trkpt>
      <trkpt lat="42.47348" lon="2.99812">
        <ele>1162</ele>
        <time>2024-09-23T08:55:06Z</time>
      </trkpt>
      <trkpt lat="42.47351" lon="2.99811">
        <ele>1161</ele>
        <time>2024-09-23T08:55:09Z</time>
      </trkpt>
      <trkpt lat="42.47354" lon="2.99809">
        <ele>1160</ele>
        <time>2024-09-23T08:55:12Z</time>
      </trkpt>
      <trkpt lat="42.47358" lon="2.99808">
        <ele>1160</ele>
        <time>2024-09-23T08:55:15Z</time>
      </trkpt>
      <trkpt lat="42.47362" lon="2.99807">
        <ele>1159</ele>
        <time>2024-09-23T08:55:19Z</time>
      </trkpt>
      <trkpt lat="42.47365" lon="2.99806">
        <ele>1159</ele>
        <time>2024-09-23T08:55:23Z</time>
      </trkpt>
      <trkpt lat="42.47368" lon="2.99803">
        <ele>1157</ele>
        <time>2024-09-23T08:55:27Z</time>
      </trkpt>
      <trkpt lat="42.47371" lon="2.99802">
        <ele>1156</ele>
        <time>2024-09-23T08:55:30Z</time>
      </trkpt>
      <trkpt lat="42.47374" lon="2.99802">
        <ele>1154</ele>
        <time>2024-09-23T08:55:35Z</time>
      </trkpt>
      <trkpt lat="42.47377" lon="2.99802">
        <ele>1154</ele>
        <time>2024-09-23T08:55:37Z</time>
      </trkpt>
      <trkpt lat="42.4738" lon="2.99801">
        <ele>1153</ele>
        <time>2024-09-23T08:55:40Z</time>
      </trkpt>
      <trkpt lat="42.47384" lon="2.99801">
        <ele>1152</ele>
        <time>2024-09-23T08:55:43Z</time>
      </trkpt>
      <trkpt lat="42.47387" lon="2.99801">
        <ele>1151</ele>
        <time>2024-09-23T08:55:52Z</time>
      </trkpt>
      <trkpt lat="42.4739" lon="2.99801">
        <ele>1150</ele>
        <time>2024-09-23T08:55:55Z</time>
      </trkpt>
      <trkpt lat="42.47393" lon="2.99801">
        <ele>1149</ele>
        <time>2024-09-23T08:56:01Z</time>
      </trkpt>
      <trkpt lat="42.47397" lon="2.998">
        <ele>1148</ele>
        <time>2024-09-23T08:56:05Z</time>
      </trkpt>
      <trkpt lat="42.474" lon="2.99799">
        <ele>1147</ele>
        <time>2024-09-23T08:56:07Z</time>
      </trkpt>
      <trkpt lat="42.47403" lon="2.99799">
        <ele>1146</ele>
        <time>2024-09-23T08:56:09Z</time>
      </trkpt>
      <trkpt lat="42.47406" lon="2.998">
        <ele>1145</ele>
        <time>2024-09-23T08:56:16Z</time>
      </trkpt>
      <trkpt lat="42.47409" lon="2.99801">
        <ele>1145</ele>
        <time>2024-09-23T08:56:19Z</time>
      </trkpt>
      <trkpt lat="42.47408" lon="2.99805">
        <ele>1143</ele>
        <time>2024-09-23T08:56:26Z</time>
      </trkpt>
      <trkpt lat="42.47408" lon="2.99809">
        <ele>1142</ele>
        <time>2024-09-23T08:56:33Z</time>
      </trkpt>
      <trkpt lat="42.47406" lon="2.99813">
        <ele>1142</ele>
        <time>2024-09-23T08:56:37Z</time>
      </trkpt>
      <trkpt lat="42.47405" lon="2.99817">
        <ele>1141</ele>
        <time>2024-09-23T08:56:40Z</time>
      </trkpt>
      <trkpt lat="42.47404" lon="2.99821">
        <ele>1141</ele>
        <time>2024-09-23T08:56:43Z</time>
      </trkpt>
      <trkpt lat="42.47403" lon="2.99825">
        <ele>1140</ele>
        <time>2024-09-23T08:56:46Z</time>
      </trkpt>
      <trkpt lat="42.47404" lon="2.99829">
        <ele>1140</ele>
        <time>2024-09-23T08:56:49Z</time>
      </trkpt>
      <trkpt lat="42.47403" lon="2.99833">
        <ele>1139</ele>
        <time>2024-09-23T08:56:52Z</time>
      </trkpt>
      <trkpt lat="42.47402" lon="2.99837">
        <ele>1139</ele>
        <time>2024-09-23T08:56:55Z</time>
      </trkpt>
      <trkpt lat="42.47401" lon="2.99841">
        <ele>1138</ele>
        <time>2024-09-23T08:56:58Z</time>
      </trkpt>
      <trkpt lat="42.47399" lon="2.99845">
        <ele>1138</ele>
        <time>2024-09-23T08:57:01Z</time>
      </trkpt>
      <trkpt lat="42.47398" lon="2.99849">
        <ele>1137</ele>
        <time>2024-09-23T08:57:07Z</time>
      </trkpt>
      <trkpt lat="42.47396" lon="2.99853">
        <ele>1137</ele>
        <time>2024-09-23T08:57:10Z</time>
      </trkpt>
      <trkpt lat="42.47394" lon="2.99857">
        <ele>1137</ele>
        <time>2024-09-23T08:57:13Z</time>
      </trkpt>
      <trkpt lat="42.47392" lon="2.99861">
        <ele>1136</ele>
        <time>2024-09-23T08:57:16Z</time>
      </trkpt>
      <trkpt lat="42.4739" lon="2.99865">
        <ele>1135</ele>
        <time>2024-09-23T08:57:19Z</time>
      </trkpt>
      <trkpt lat="42.47388" lon="2.99868">
        <ele>1135</ele>
        <time>2024-09-23T08:57:21Z</time>
      </trkpt>
      <trkpt lat="42.47386" lon="2.99871">
        <ele>1135</ele>
        <time>2024-09-23T08:57:24Z</time>
      </trkpt>
      <trkpt lat="42.47385" lon="2.99875">
        <ele>1134</ele>
        <time>2024-09-23T08:57:27Z</time>
      </trkpt>
      <trkpt lat="42.47384" lon="2.9988">
        <ele>1133</ele>
        <time>2024-09-23T08:57:30Z</time>
      </trkpt>
      <trkpt lat="42.47383" lon="2.99884">
        <ele>1133</ele>
        <time>2024-09-23T08:57:32Z</time>
      </trkpt>
      <trkpt lat="42.47381" lon="2.99888">
        <ele>1132</ele>
        <time>2024-09-23T08:57:35Z</time>
      </trkpt>
      <trkpt lat="42.47379" lon="2.99892">
        <ele>1133</ele>
        <time>2024-09-23T08:57:39Z</time>
      </trkpt>
      <trkpt lat="42.47377" lon="2.99896">
        <ele>1132</ele>
        <time>2024-09-23T08:57:43Z</time>
      </trkpt>
      <trkpt lat="42.47375" lon="2.99899">
        <ele>1132</ele>
        <time>2024-09-23T08:57:45Z</time>
      </trkpt>
      <trkpt lat="42.47372" lon="2.99903">
        <ele>1132</ele>
        <time>2024-09-23T08:57:48Z</time>
      </trkpt>
      <trkpt lat="42.4737" lon="2.99906">
        <ele>1132</ele>
        <time>2024-09-23T08:57:51Z</time>
      </trkpt>
      <trkpt lat="42.47368" lon="2.9991">
        <ele>1131</ele>
        <time>2024-09-23T08:57:53Z</time>
      </trkpt>
      <trkpt lat="42.47366" lon="2.99913">
        <ele>1130</ele>
        <time>2024-09-23T08:57:56Z</time>
      </trkpt>
      <trkpt lat="42.47364" lon="2.99916">
        <ele>1130</ele>
        <time>2024-09-23T08:57:58Z</time>
      </trkpt>
      <trkpt lat="42.47362" lon="2.99919">
        <ele>1130</ele>
        <time>2024-09-23T08:58:01Z</time>
      </trkpt>
      <trkpt lat="42.47361" lon="2.99922">
        <ele>1130</ele>
        <time>2024-09-23T08:58:03Z</time>
      </trkpt>
      <trkpt lat="42.47359" lon="2.99926">
        <ele>1129</ele>
        <time>2024-09-23T08:58:06Z</time>
      </trkpt>
      <trkpt lat="42.47357" lon="2.99931">
        <ele>1129</ele>
        <time>2024-09-23T08:58:09Z</time>
      </trkpt>
      <trkpt lat="42.47356" lon="2.99935">
        <ele>1129</ele>
        <time>2024-09-23T08:58:12Z</time>
      </trkpt>
      <trkpt lat="42.47355" lon="2.99939">
        <ele>1129</ele>
        <time>2024-09-23T08:58:13Z</time>
      </trkpt>
      <trkpt lat="42.47354" lon="2.99943">
        <ele>1129</ele>
        <time>2024-09-23T08:58:15Z</time>
      </trkpt>
      <trkpt lat="42.47354" lon="2.99948">
        <ele>1130</ele>
        <time>2024-09-23T08:58:18Z</time>
      </trkpt>
      <trkpt lat="42.47353" lon="2.99953">
        <ele>1130</ele>
        <time>2024-09-23T08:58:21Z</time>
      </trkpt>
      <trkpt lat="42.47352" lon="2.99958">
        <ele>1130</ele>
        <time>2024-09-23T08:58:24Z</time>
      </trkpt>
      <trkpt lat="42.47351" lon="2.99962">
        <ele>1130</ele>
        <time>2024-09-23T08:58:27Z</time>
      </trkpt>
      <trkpt lat="42.4735" lon="2.99966">
        <ele>1129</ele>
        <time>2024-09-23T08:58:30Z</time>
      </trkpt>
      <trkpt lat="42.47348" lon="2.9997">
        <ele>1128</ele>
        <time>2024-09-23T08:58:33Z</time>
      </trkpt>
      <trkpt lat="42.47346" lon="2.99973">
        <ele>1128</ele>
        <time>2024-09-23T08:58:36Z</time>
      </trkpt>
      <trkpt lat="42.47344" lon="2.99977">
        <ele>1128</ele>
        <time>2024-09-23T08:58:39Z</time>
      </trkpt>
      <trkpt lat="42.47342" lon="2.9998">
        <ele>1127</ele>
        <time>2024-09-23T08:58:41Z</time>
      </trkpt>
      <trkpt lat="42.47341" lon="2.99983">
        <ele>1126</ele>
        <time>2024-09-23T08:58:43Z</time>
      </trkpt>
      <trkpt lat="42.47339" lon="2.99987">
        <ele>1126</ele>
        <time>2024-09-23T08:58:46Z</time>
      </trkpt>
      <trkpt lat="42.47338" lon="2.99991">
        <ele>1126</ele>
        <time>2024-09-23T08:58:49Z</time>
      </trkpt>
      <trkpt lat="42.47336" lon="2.99995">
        <ele>1125</ele>
        <time>2024-09-23T08:58:52Z</time>
      </trkpt>
      <trkpt lat="42.47335" lon="2.99998">
        <ele>1124</ele>
        <time>2024-09-23T08:58:56Z</time>
      </trkpt>
      <trkpt lat="42.47333" lon="3.00002">
        <ele>1124</ele>
        <time>2024-09-23T08:58:59Z</time>
      </trkpt>
      <trkpt lat="42.47331" lon="3.00006">
        <ele>1124</ele>
        <time>2024-09-23T08:59:01Z</time>
      </trkpt>
      <trkpt lat="42.4733" lon="3.0001">
        <ele>1124</ele>
        <time>2024-09-23T08:59:05Z</time>
      </trkpt>
      <trkpt lat="42.47328" lon="3.00015">
        <ele>1124</ele>
        <time>2024-09-23T08:59:08Z</time>
      </trkpt>
      <trkpt lat="42.47327" lon="3.00019">
        <ele>1123</ele>
        <time>2024-09-23T08:59:11Z</time>
      </trkpt>
      <trkpt lat="42.47325" lon="3.00022">
        <ele>1123</ele>
        <time>2024-09-23T08:59:13Z</time>
      </trkpt>
      <trkpt lat="42.47324" lon="3.00026">
        <ele>1123</ele>
        <time>2024-09-23T08:59:16Z</time>
      </trkpt>
      <trkpt lat="42.47322" lon="3.0003">
        <ele>1122</ele>
        <time>2024-09-23T08:59:19Z</time>
      </trkpt>
      <trkpt lat="42.4732" lon="3.00034">
        <ele>1122</ele>
        <time>2024-09-23T08:59:22Z</time>
      </trkpt>
      <trkpt lat="42.47318" lon="3.00038">
        <ele>1121</ele>
        <time>2024-09-23T08:59:24Z</time>
      </trkpt>
      <trkpt lat="42.47316" lon="3.00042">
        <ele>1121</ele>
        <time>2024-09-23T08:59:27Z</time>
      </trkpt>
      <trkpt lat="42.47314" lon="3.00047">
        <ele>1121</ele>
        <time>2024-09-23T08:59:31Z</time>
      </trkpt>
      <trkpt lat="42.47311" lon="3.00051">
        <ele>1121</ele>
        <time>2024-09-23T08:59:33Z</time>
      </trkpt>
      <trkpt lat="42.4731" lon="3.00055">
        <ele>1121</ele>
        <time>2024-09-23T08:59:35Z</time>
      </trkpt>
      <trkpt lat="42.47308" lon="3.00058">
        <ele>1121</ele>
        <time>2024-09-23T08:59:37Z</time>
      </trkpt>
      <trkpt lat="42.47306" lon="3.00061">
        <ele>1120</ele>
        <time>2024-09-23T08:59:39Z</time>
      </trkpt>
      <trkpt lat="42.47304" lon="3.00064">
        <ele>1120</ele>
        <time>2024-09-23T08:59:41Z</time>
      </trkpt>
      <trkpt lat="42.47302" lon="3.00068">
        <ele>1120</ele>
        <time>2024-09-23T08:59:45Z</time>
      </trkpt>
      <trkpt lat="42.473" lon="3.00072">
        <ele>1119</ele>
        <time>2024-09-23T08:59:48Z</time>
      </trkpt>
      <trkpt lat="42.47298" lon="3.00076">
        <ele>1118</ele>
        <time>2024-09-23T08:59:51Z</time>
      </trkpt>
      <trkpt lat="42.47296" lon="3.00081">
        <ele>1117</ele>
        <time>2024-09-23T08:59:54Z</time>
      </trkpt>
      <trkpt lat="42.47295" lon="3.00085">
        <ele>1118</ele>
        <time>2024-09-23T08:59:56Z</time>
      </trkpt>
      <trkpt lat="42.47293" lon="3.00089">
        <ele>1117</ele>
        <time>2024-09-23T08:59:59Z</time>
      </trkpt>
      <trkpt lat="42.47291" lon="3.00094">
        <ele>1116</ele>
        <time>2024-09-23T09:00:02Z</time>
      </trkpt>
      <trkpt lat="42.4729" lon="3.00099">
        <ele>1115</ele>
        <time>2024-09-23T09:00:05Z</time>
      </trkpt>
      <trkpt lat="42.47288" lon="3.00103">
        <ele>1116</ele>
        <time>2024-09-23T09:00:07Z</time>
      </trkpt>
      <trkpt lat="42.47286" lon="3.00106">
        <ele>1115</ele>
        <time>2024-09-23T09:00:09Z</time>
      </trkpt>
      <trkpt lat="42.47285" lon="3.0011">
        <ele>1115</ele>
        <time>2024-09-23T09:00:12Z</time>
      </trkpt>
      <trkpt lat="42.47283" lon="3.00114">
        <ele>1115</ele>
        <time>2024-09-23T09:00:14Z</time>
      </trkpt>
      <trkpt lat="42.47281" lon="3.00117">
        <ele>1115</ele>
        <time>2024-09-23T09:00:16Z</time>
      </trkpt>
      <trkpt lat="42.4728" lon="3.00121">
        <ele>1114</ele>
        <time>2024-09-23T09:00:18Z</time>
      </trkpt>
      <trkpt lat="42.47279" lon="3.00125">
        <ele>1114</ele>
        <time>2024-09-23T09:00:20Z</time>
      </trkpt>
      <trkpt lat="42.47278" lon="3.00129">
        <ele>1114</ele>
        <time>2024-09-23T09:00:22Z</time>
      </trkpt>
      <trkpt lat="42.47278" lon="3.00133">
        <ele>1114</ele>
        <time>2024-09-23T09:00:24Z</time>
      </trkpt>
      <trkpt lat="42.47277" lon="3.00138">
        <ele>1113</ele>
        <time>2024-09-23T09:00:27Z</time>
      </trkpt>
      <trkpt lat="42.47275" lon="3.0014">
        <ele>1111</ele>
        <time>2024-09-23T09:00:41Z</time>
      </trkpt>
      <trkpt lat="42.47273" lon="3.00143">
        <ele>1110</ele>
        <time>2024-09-23T09:00:44Z</time>
      </trkpt>
      <trkpt lat="42.47272" lon="3.00146">
        <ele>1110</ele>
        <time>2024-09-23T09:00:47Z</time>
      </trkpt>
      <trkpt lat="42.4727" lon="3.0015">
        <ele>1109</ele>
        <time>2024-09-23T09:00:50Z</time>
      </trkpt>
      <trkpt lat="42.47268" lon="3.00154">
        <ele>1107</ele>
        <time>2024-09-23T09:00:53Z</time>
      </trkpt>
      <trkpt lat="42.47266" lon="3.00157">
        <ele>1107</ele>
        <time>2024-09-23T09:00:56Z</time>
      </trkpt>
      <trkpt lat="42.47264" lon="3.00161">
        <ele>1107</ele>
        <time>2024-09-23T09:00:59Z</time>
      </trkpt>
      <trkpt lat="42.47261" lon="3.00164">
        <ele>1106</ele>
        <time>2024-09-23T09:01:02Z</time>
      </trkpt>
      <trkpt lat="42.47259" lon="3.00168">
        <ele>1105</ele>
        <time>2024-09-23T09:01:05Z</time>
      </trkpt>
      <trkpt lat="42.47256" lon="3.00171">
        <ele>1104</ele>
        <time>2024-09-23T09:01:09Z</time>
      </trkpt>
      <trkpt lat="42.47253" lon="3.00173">
        <ele>1104</ele>
        <time>2024-09-23T09:01:12Z</time>
      </trkpt>
      <trkpt lat="42.47251" lon="3.00175">
        <ele>1103</ele>
        <time>2024-09-23T09:01:14Z</time>
      </trkpt>
      <trkpt lat="42.47249" lon="3.00178">
        <ele>1103</ele>
        <time>2024-09-23T09:01:17Z</time>
      </trkpt>
      <trkpt lat="42.47248" lon="3.00182">
        <ele>1102</ele>
        <time>2024-09-23T09:01:20Z</time>
      </trkpt>
      <trkpt lat="42.47246" lon="3.00186">
        <ele>1101</ele>
        <time>2024-09-23T09:01:23Z</time>
      </trkpt>
      <trkpt lat="42.47244" lon="3.00189">
        <ele>1100</ele>
        <time>2024-09-23T09:01:26Z</time>
      </trkpt>
      <trkpt lat="42.47242" lon="3.00193">
        <ele>1099</ele>
        <time>2024-09-23T09:01:29Z</time>
      </trkpt>
      <trkpt lat="42.4724" lon="3.00197">
        <ele>1099</ele>
        <time>2024-09-23T09:01:31Z</time>
      </trkpt>
      <trkpt lat="42.47238" lon="3.002">
        <ele>1098</ele>
        <time>2024-09-23T09:01:34Z</time>
      </trkpt>
      <trkpt lat="42.47237" lon="3.00203">
        <ele>1097</ele>
        <time>2024-09-23T09:01:37Z</time>
      </trkpt>
      <trkpt lat="42.47235" lon="3.00206">
        <ele>1096</ele>
        <time>2024-09-23T09:01:40Z</time>
      </trkpt>
      <trkpt lat="42.47232" lon="3.00209">
        <ele>1096</ele>
        <time>2024-09-23T09:01:43Z</time>
      </trkpt>
      <trkpt lat="42.47231" lon="3.00212">
        <ele>1095</ele>
        <time>2024-09-23T09:01:46Z</time>
      </trkpt>
      <trkpt lat="42.47229" lon="3.00216">
        <ele>1095</ele>
        <time>2024-09-23T09:01:50Z</time>
      </trkpt>
      <trkpt lat="42.47227" lon="3.00218">
        <ele>1093</ele>
        <time>2024-09-23T09:01:54Z</time>
      </trkpt>
      <trkpt lat="42.47225" lon="3.00222">
        <ele>1092</ele>
        <time>2024-09-23T09:01:57Z</time>
      </trkpt>
      <trkpt lat="42.47225" lon="3.00227">
        <ele>1092</ele>
        <time>2024-09-23T09:02:00Z</time>
      </trkpt>
      <trkpt lat="42.47224" lon="3.00231">
        <ele>1091</ele>
        <time>2024-09-23T09:02:06Z</time>
      </trkpt>
      <trkpt lat="42.47224" lon="3.00235">
        <ele>1090</ele>
        <time>2024-09-23T09:02:10Z</time>
      </trkpt>
      <trkpt lat="42.47224" lon="3.00239">
        <ele>1088</ele>
        <time>2024-09-23T09:02:13Z</time>
      </trkpt>
      <trkpt lat="42.47223" lon="3.00243">
        <ele>1087</ele>
        <time>2024-09-23T09:02:17Z</time>
      </trkpt>
      <trkpt lat="42.47221" lon="3.00247">
        <ele>1087</ele>
        <time>2024-09-23T09:02:22Z</time>
      </trkpt>
      <trkpt lat="42.4722" lon="3.00251">
        <ele>1085</ele>
        <time>2024-09-23T09:02:25Z</time>
      </trkpt>
      <trkpt lat="42.47219" lon="3.00254">
        <ele>1084</ele>
        <time>2024-09-23T09:02:28Z</time>
      </trkpt>
      <trkpt lat="42.47217" lon="3.00257">
        <ele>1084</ele>
        <time>2024-09-23T09:02:37Z</time>
      </trkpt>
      <trkpt lat="42.47216" lon="3.00261">
        <ele>1084</ele>
        <time>2024-09-23T09:02:40Z</time>
      </trkpt>
      <trkpt lat="42.47214" lon="3.00264">
        <ele>1083</ele>
        <time>2024-09-23T09:02:43Z</time>
      </trkpt>
      <trkpt lat="42.47213" lon="3.00264">
        <ele>1080</ele>
        <time>2024-09-23T09:02:54Z</time>
      </trkpt>
      <trkpt lat="42.47211" lon="3.00265">
        <ele>1079</ele>
        <time>2024-09-23T09:02:58Z</time>
      </trkpt>
      <trkpt lat="42.4721" lon="3.00268">
        <ele>1079</ele>
        <time>2024-09-23T09:03:02Z</time>
      </trkpt>
      <trkpt lat="42.47209" lon="3.00271">
        <ele>1078</ele>
        <time>2024-09-23T09:03:06Z</time>
      </trkpt>
      <trkpt lat="42.47208" lon="3.00275">
        <ele>1077</ele>
        <time>2024-09-23T09:03:09Z</time>
      </trkpt>
      <trkpt lat="42.47205" lon="3.00277">
        <ele>1076</ele>
        <time>2024-09-23T09:03:13Z</time>
      </trkpt>
      <trkpt lat="42.47203" lon="3.00277">
        <ele>1075</ele>
        <time>2024-09-23T09:03:16Z</time>
      </trkpt>
      <trkpt lat="42.472" lon="3.00279">
        <ele>1074</ele>
        <time>2024-09-23T09:03:20Z</time>
      </trkpt>
      <trkpt lat="42.47197" lon="3.00279">
        <ele>1073</ele>
        <time>2024-09-23T09:03:23Z</time>
      </trkpt>
      <trkpt lat="42.47194" lon="3.00279">
        <ele>1071</ele>
        <time>2024-09-23T09:03:27Z</time>
      </trkpt>
      <trkpt lat="42.47191" lon="3.00279">
        <ele>1070</ele>
        <time>2024-09-23T09:03:30Z</time>
      </trkpt>
      <trkpt lat="42.47188" lon="3.00278">
        <ele>1069</ele>
        <time>2024-09-23T09:03:33Z</time>
      </trkpt>
      <trkpt lat="42.47185" lon="3.00279">
        <ele>1069</ele>
        <time>2024-09-23T09:03:36Z</time>
      </trkpt>
      <trkpt lat="42.47183" lon="3.00277">
        <ele>1068</ele>
        <time>2024-09-23T09:03:39Z</time>
      </trkpt>
      <trkpt lat="42.4718" lon="3.00275">
        <ele>1067</ele>
        <time>2024-09-23T09:03:42Z</time>
      </trkpt>
      <trkpt lat="42.47178" lon="3.00277">
        <ele>1066</ele>
        <time>2024-09-23T09:03:45Z</time>
      </trkpt>
      <trkpt lat="42.47177" lon="3.0028">
        <ele>1066</ele>
        <time>2024-09-23T09:03:47Z</time>
      </trkpt>
      <trkpt lat="42.47176" lon="3.00283">
        <ele>1065</ele>
        <time>2024-09-23T09:03:50Z</time>
      </trkpt>
      <trkpt lat="42.47174" lon="3.00286">
        <ele>1065</ele>
        <time>2024-09-23T09:03:53Z</time>
      </trkpt>
      <trkpt lat="42.47172" lon="3.00288">
        <ele>1063</ele>
        <time>2024-09-23T09:03:58Z</time>
      </trkpt>
      <trkpt lat="42.47169" lon="3.00288">
        <ele>1063</ele>
        <time>2024-09-23T09:04:01Z</time>
      </trkpt>
      <trkpt lat="42.47166" lon="3.00287">
        <ele>1062</ele>
        <time>2024-09-23T09:04:05Z</time>
      </trkpt>
      <trkpt lat="42.47163" lon="3.00287">
        <ele>1061</ele>
        <time>2024-09-23T09:04:45Z</time>
      </trkpt>
      <trkpt lat="42.47159" lon="3.00288">
        <ele>1060</ele>
        <time>2024-09-23T09:04:48Z</time>
      </trkpt>
      <trkpt lat="42.47156" lon="3.00289">
        <ele>1059</ele>
        <time>2024-09-23T09:04:51Z</time>
      </trkpt>
      <trkpt lat="42.47152" lon="3.0029">
        <ele>1059</ele>
        <time>2024-09-23T09:04:54Z</time>
      </trkpt>
      <trkpt lat="42.47149" lon="3.00291">
        <ele>1057</ele>
        <time>2024-09-23T09:04:57Z</time>
      </trkpt>
      <trkpt lat="42.47146" lon="3.00293">
        <ele>1057</ele>
        <time>2024-09-23T09:05:00Z</time>
      </trkpt>
      <trkpt lat="42.47143" lon="3.00294">
        <ele>1056</ele>
        <time>2024-09-23T09:05:03Z</time>
      </trkpt>
      <trkpt lat="42.4714" lon="3.00296">
        <ele>1055</ele>
        <time>2024-09-23T09:05:06Z</time>
      </trkpt>
      <trkpt lat="42.47136" lon="3.00297">
        <ele>1054</ele>
        <time>2024-09-23T09:05:10Z</time>
      </trkpt>
      <trkpt lat="42.47133" lon="3.00297">
        <ele>1053</ele>
        <time>2024-09-23T09:05:13Z</time>
      </trkpt>
      <trkpt lat="42.47129" lon="3.00298">
        <ele>1053</ele>
        <time>2024-09-23T09:05:15Z</time>
      </trkpt>
      <trkpt lat="42.47126" lon="3.00299">
        <ele>1051</ele>
        <time>2024-09-23T09:05:19Z</time>
      </trkpt>
      <trkpt lat="42.47122" lon="3.003">
        <ele>1050</ele>
        <time>2024-09-23T09:05:22Z</time>
      </trkpt>
      <trkpt lat="42.47119" lon="3.003">
        <ele>1050</ele>
        <time>2024-09-23T09:05:25Z</time>
      </trkpt>
      <trkpt lat="42.47115" lon="3.00301">
        <ele>1048</ele>
        <time>2024-09-23T09:05:38Z</time>
      </trkpt>
      <trkpt lat="42.47112" lon="3.00301">
        <ele>1048</ele>
        <time>2024-09-23T09:05:41Z</time>
      </trkpt>
      <trkpt lat="42.4711" lon="3.00303">
        <ele>1046</ele>
        <time>2024-09-23T09:06:01Z</time>
      </trkpt>
      <trkpt lat="42.47107" lon="3.00305">
        <ele>1045</ele>
        <time>2024-09-23T09:06:04Z</time>
      </trkpt>
      <trkpt lat="42.47104" lon="3.00308">
        <ele>1044</ele>
        <time>2024-09-23T09:06:07Z</time>
      </trkpt>
      <trkpt lat="42.47101" lon="3.0031">
        <ele>1044</ele>
        <time>2024-09-23T09:06:10Z</time>
      </trkpt>
      <trkpt lat="42.47098" lon="3.00312">
        <ele>1043</ele>
        <time>2024-09-23T09:06:14Z</time>
      </trkpt>
      <trkpt lat="42.47095" lon="3.00314">
        <ele>1042</ele>
        <time>2024-09-23T09:06:18Z</time>
      </trkpt>
      <trkpt lat="42.47093" lon="3.00318">
        <ele>1042</ele>
        <time>2024-09-23T09:06:45Z</time>
      </trkpt>
      <trkpt lat="42.47091" lon="3.00321">
        <ele>1041</ele>
        <time>2024-09-23T09:06:49Z</time>
      </trkpt>
      <trkpt lat="42.47089" lon="3.00324">
        <ele>1040</ele>
        <time>2024-09-23T09:06:53Z</time>
      </trkpt>
      <trkpt lat="42.47087" lon="3.00327">
        <ele>1040</ele>
        <time>2024-09-23T09:06:56Z</time>
      </trkpt>
      <trkpt lat="42.47085" lon="3.0033">
        <ele>1039</ele>
        <time>2024-09-23T09:06:59Z</time>
      </trkpt>
      <trkpt lat="42.47082" lon="3.00333">
        <ele>1039</ele>
        <time>2024-09-23T09:07:01Z</time>
      </trkpt>
      <trkpt lat="42.4708" lon="3.00336">
        <ele>1038</ele>
        <time>2024-09-23T09:07:04Z</time>
      </trkpt>
      <trkpt lat="42.47078" lon="3.0034">
        <ele>1037</ele>
        <time>2024-09-23T09:07:06Z</time>
      </trkpt>
      <trkpt lat="42.47076" lon="3.00342">
        <ele>1038</ele>
        <time>2024-09-23T09:07:08Z</time>
      </trkpt>
      <trkpt lat="42.47074" lon="3.00345">
        <ele>1038</ele>
        <time>2024-09-23T09:07:10Z</time>
      </trkpt>
      <trkpt lat="42.47071" lon="3.00348">
        <ele>1037</ele>
        <time>2024-09-23T09:07:13Z</time>
      </trkpt>
      <trkpt lat="42.47069" lon="3.00351">
        <ele>1037</ele>
        <time>2024-09-23T09:07:15Z</time>
      </trkpt>
      <trkpt lat="42.47067" lon="3.00355">
        <ele>1037</ele>
        <time>2024-09-23T09:07:18Z</time>
      </trkpt>
      <trkpt lat="42.47065" lon="3.00358">
        <ele>1036</ele>
        <time>2024-09-23T09:07:21Z</time>
      </trkpt>
      <trkpt lat="42.47062" lon="3.00361">
        <ele>1036</ele>
        <time>2024-09-23T09:07:24Z</time>
      </trkpt>
      <trkpt lat="42.4706" lon="3.00364">
        <ele>1036</ele>
        <time>2024-09-23T09:07:27Z</time>
      </trkpt>
      <trkpt lat="42.47057" lon="3.00368">
        <ele>1035</ele>
        <time>2024-09-23T09:07:30Z</time>
      </trkpt>
      <trkpt lat="42.47055" lon="3.00371">
        <ele>1034</ele>
        <time>2024-09-23T09:07:33Z</time>
      </trkpt>
      <trkpt lat="42.47052" lon="3.00375">
        <ele>1034</ele>
        <time>2024-09-23T09:07:35Z</time>
      </trkpt>
      <trkpt lat="42.47051" lon="3.00379">
        <ele>1032</ele>
        <time>2024-09-23T09:07:38Z</time>
      </trkpt>
      <trkpt lat="42.47049" lon="3.00383">
        <ele>1032</ele>
        <time>2024-09-23T09:07:40Z</time>
      </trkpt>
      <trkpt lat="42.47048" lon="3.00386">
        <ele>1032</ele>
        <time>2024-09-23T09:07:42Z</time>
      </trkpt>
      <trkpt lat="42.47047" lon="3.0039">
        <ele>1032</ele>
        <time>2024-09-23T09:07:44Z</time>
      </trkpt>
      <trkpt lat="42.47047" lon="3.00394">
        <ele>1033</ele>
        <time>2024-09-23T09:07:46Z</time>
      </trkpt>
      <trkpt lat="42.47046" lon="3.00397">
        <ele>1032</ele>
        <time>2024-09-23T09:07:48Z</time>
      </trkpt>
      <trkpt lat="42.47045" lon="3.004">
        <ele>1033</ele>
        <time>2024-09-23T09:07:50Z</time>
      </trkpt>
      <trkpt lat="42.47043" lon="3.00405">
        <ele>1034</ele>
        <time>2024-09-23T09:07:53Z</time>
      </trkpt>
      <trkpt lat="42.47042" lon="3.00409">
        <ele>1033</ele>
        <time>2024-09-23T09:07:56Z</time>
      </trkpt>
      <trkpt lat="42.47041" lon="3.00413">
        <ele>1033</ele>
        <time>2024-09-23T09:07:58Z</time>
      </trkpt>
      <trkpt lat="42.4704" lon="3.00417">
        <ele>1032</ele>
        <time>2024-09-23T09:08:01Z</time>
      </trkpt>
      <trkpt lat="42.47039" lon="3.00422">
        <ele>1031</ele>
        <time>2024-09-23T09:08:04Z</time>
      </trkpt>
      <trkpt lat="42.47039" lon="3.00427">
        <ele>1029</ele>
        <time>2024-09-23T09:08:08Z</time>
      </trkpt>
      <trkpt lat="42.47038" lon="3.00431">
        <ele>1029</ele>
        <time>2024-09-23T09:08:10Z</time>
      </trkpt>
      <trkpt lat="42.47038" lon="3.00435">
        <ele>1029</ele>
        <time>2024-09-23T09:08:12Z</time>
      </trkpt>
      <trkpt lat="42.47037" lon="3.0044">
        <ele>1029</ele>
        <time>2024-09-23T09:08:15Z</time>
      </trkpt>
      <trkpt lat="42.47035" lon="3.00443">
        <ele>1029</ele>
        <time>2024-09-23T09:08:17Z</time>
      </trkpt>
      <trkpt lat="42.47035" lon="3.00447">
        <ele>1029</ele>
        <time>2024-09-23T09:08:19Z</time>
      </trkpt>
      <trkpt lat="42.47034" lon="3.00452">
        <ele>1028</ele>
        <time>2024-09-23T09:08:22Z</time>
      </trkpt>
      <trkpt lat="42.47034" lon="3.00457">
        <ele>1026</ele>
        <time>2024-09-23T09:08:25Z</time>
      </trkpt>
      <trkpt lat="42.47032" lon="3.00462">
        <ele>1025</ele>
        <time>2024-09-23T09:08:28Z</time>
      </trkpt>
      <trkpt lat="42.47031" lon="3.00466">
        <ele>1025</ele>
        <time>2024-09-23T09:08:31Z</time>
      </trkpt>
      <trkpt lat="42.47029" lon="3.00471">
        <ele>1025</ele>
        <time>2024-09-23T09:08:34Z</time>
      </trkpt>
      <trkpt lat="42.47029" lon="3.00476">
        <ele>1024</ele>
        <time>2024-09-23T09:08:36Z</time>
      </trkpt>
      <trkpt lat="42.47028" lon="3.0048">
        <ele>1022</ele>
        <time>2024-09-23T09:08:38Z</time>
      </trkpt>
      <trkpt lat="42.47027" lon="3.00484">
        <ele>1022</ele>
        <time>2024-09-23T09:08:40Z</time>
      </trkpt>
      <trkpt lat="42.47026" lon="3.00488">
        <ele>1023</ele>
        <time>2024-09-23T09:08:43Z</time>
      </trkpt>
      <trkpt lat="42.47025" lon="3.00492">
        <ele>1022</ele>
        <time>2024-09-23T09:08:45Z</time>
      </trkpt>
      <trkpt lat="42.47024" lon="3.00496">
        <ele>1023</ele>
        <time>2024-09-23T09:08:47Z</time>
      </trkpt>
      <trkpt lat="42.47023" lon="3.00499">
        <ele>1022</ele>
        <time>2024-09-23T09:08:49Z</time>
      </trkpt>
      <trkpt lat="42.47022" lon="3.00503">
        <ele>1021</ele>
        <time>2024-09-23T09:08:52Z</time>
      </trkpt>
      <trkpt lat="42.47021" lon="3.00508">
        <ele>1021</ele>
        <time>2024-09-23T09:08:55Z</time>
      </trkpt>
      <trkpt lat="42.47019" lon="3.00512">
        <ele>1021</ele>
        <time>2024-09-23T09:08:58Z</time>
      </trkpt>
      <trkpt lat="42.47018" lon="3.00517">
        <ele>1020</ele>
        <time>2024-09-23T09:09:01Z</time>
      </trkpt>
      <trkpt lat="42.47018" lon="3.00521">
        <ele>1020</ele>
        <time>2024-09-23T09:09:03Z</time>
      </trkpt>
      <trkpt lat="42.47019" lon="3.00525">
        <ele>1019</ele>
        <time>2024-09-23T09:09:06Z</time>
      </trkpt>
      <trkpt lat="42.47021" lon="3.00529">
        <ele>1019</ele>
        <time>2024-09-23T09:09:10Z</time>
      </trkpt>
      <trkpt lat="42.47023" lon="3.00532">
        <ele>1018</ele>
        <time>2024-09-23T09:09:13Z</time>
      </trkpt>
      <trkpt lat="42.47025" lon="3.00536">
        <ele>1018</ele>
        <time>2024-09-23T09:09:16Z</time>
      </trkpt>
      <trkpt lat="42.47026" lon="3.0054">
        <ele>1017</ele>
        <time>2024-09-23T09:09:18Z</time>
      </trkpt>
      <trkpt lat="42.47026" lon="3.00543">
        <ele>1016</ele>
        <time>2024-09-23T09:09:21Z</time>
      </trkpt>
      <trkpt lat="42.47025" lon="3.00548">
        <ele>1016</ele>
        <time>2024-09-23T09:09:24Z</time>
      </trkpt>
      <trkpt lat="42.47023" lon="3.00552">
        <ele>1014</ele>
        <time>2024-09-23T09:09:27Z</time>
      </trkpt>
      <trkpt lat="42.47023" lon="3.00556">
        <ele>1014</ele>
        <time>2024-09-23T09:09:30Z</time>
      </trkpt>
      <trkpt lat="42.47022" lon="3.0056">
        <ele>1014</ele>
        <time>2024-09-23T09:09:32Z</time>
      </trkpt>
      <trkpt lat="42.47021" lon="3.00564">
        <ele>1014</ele>
        <time>2024-09-23T09:09:35Z</time>
      </trkpt>
      <trkpt lat="42.4702" lon="3.00569">
        <ele>1013</ele>
        <time>2024-09-23T09:09:38Z</time>
      </trkpt>
      <trkpt lat="42.47018" lon="3.00573">
        <ele>1012</ele>
        <time>2024-09-23T09:09:41Z</time>
      </trkpt>
      <trkpt lat="42.47016" lon="3.00577">
        <ele>1011</ele>
        <time>2024-09-23T09:09:43Z</time>
      </trkpt>
      <trkpt lat="42.47014" lon="3.0058">
        <ele>1011</ele>
        <time>2024-09-23T09:09:46Z</time>
      </trkpt>
      <trkpt lat="42.47012" lon="3.00583">
        <ele>1011</ele>
        <time>2024-09-23T09:09:48Z</time>
      </trkpt>
      <trkpt lat="42.4701" lon="3.00587">
        <ele>1010</ele>
        <time>2024-09-23T09:09:51Z</time>
      </trkpt>
      <trkpt lat="42.47008" lon="3.0059">
        <ele>1009</ele>
        <time>2024-09-23T09:09:54Z</time>
      </trkpt>
      <trkpt lat="42.47006" lon="3.00594">
        <ele>1008</ele>
        <time>2024-09-23T09:09:57Z</time>
      </trkpt>
      <trkpt lat="42.47005" lon="3.00597">
        <ele>1008</ele>
        <time>2024-09-23T09:10:00Z</time>
      </trkpt>
      <trkpt lat="42.47003" lon="3.00601">
        <ele>1007</ele>
        <time>2024-09-23T09:10:04Z</time>
      </trkpt>
      <trkpt lat="42.47" lon="3.00604">
        <ele>1007</ele>
        <time>2024-09-23T09:10:07Z</time>
      </trkpt>
      <trkpt lat="42.46999" lon="3.00608">
        <ele>1006</ele>
        <time>2024-09-23T09:10:10Z</time>
      </trkpt>
      <trkpt lat="42.46997" lon="3.00612">
        <ele>1005</ele>
        <time>2024-09-23T09:10:14Z</time>
      </trkpt>
      <trkpt lat="42.46995" lon="3.00615">
        <ele>1004</ele>
        <time>2024-09-23T09:10:18Z</time>
      </trkpt>
      <trkpt lat="42.46994" lon="3.0062">
        <ele>1003</ele>
        <time>2024-09-23T09:10:21Z</time>
      </trkpt>
      <trkpt lat="42.46992" lon="3.00624">
        <ele>1002</ele>
        <time>2024-09-23T09:10:25Z</time>
      </trkpt>
      <trkpt lat="42.46992" lon="3.00628">
        <ele>1002</ele>
        <time>2024-09-23T09:10:28Z</time>
      </trkpt>
      <trkpt lat="42.4699" lon="3.00632">
        <ele>1001</ele>
        <time>2024-09-23T09:10:31Z</time>
      </trkpt>
      <trkpt lat="42.46988" lon="3.00635">
        <ele>1000</ele>
        <time>2024-09-23T09:10:34Z</time>
      </trkpt>
      <trkpt lat="42.46987" lon="3.00639">
        <ele>999</ele>
        <time>2024-09-23T09:10:36Z</time>
      </trkpt>
      <trkpt lat="42.46986" lon="3.00642">
        <ele>998</ele>
        <time>2024-09-23T09:10:39Z</time>
      </trkpt>
      <trkpt lat="42.46983" lon="3.00646">
        <ele>998</ele>
        <time>2024-09-23T09:10:42Z</time>
      </trkpt>
      <trkpt lat="42.46981" lon="3.00647">
        <ele>997</ele>
        <time>2024-09-23T09:10:43Z</time>
      </trkpt>
      <trkpt lat="42.46978" lon="3.00651">
        <ele>997</ele>
        <time>2024-09-23T09:10:46Z</time>
      </trkpt>
      <trkpt lat="42.46977" lon="3.00654">
        <ele>997</ele>
        <time>2024-09-23T09:10:48Z</time>
      </trkpt>
      <trkpt lat="42.46976" lon="3.00658">
        <ele>996</ele>
        <time>2024-09-23T09:10:50Z</time>
      </trkpt>
      <trkpt lat="42.46975" lon="3.00662">
        <ele>995</ele>
        <time>2024-09-23T09:10:53Z</time>
      </trkpt>
      <trkpt lat="42.46974" lon="3.00666">
        <ele>995</ele>
        <time>2024-09-23T09:10:56Z</time>
      </trkpt>
      <trkpt lat="42.46973" lon="3.0067">
        <ele>994</ele>
        <time>2024-09-23T09:10:58Z</time>
      </trkpt>
      <trkpt lat="42.46972" lon="3.00674">
        <ele>993</ele>
        <time>2024-09-23T09:11:01Z</time>
      </trkpt>
      <trkpt lat="42.46972" lon="3.00679">
        <ele>992</ele>
        <time>2024-09-23T09:11:04Z</time>
      </trkpt>
      <trkpt lat="42.46971" lon="3.00683">
        <ele>991</ele>
        <time>2024-09-23T09:11:07Z</time>
      </trkpt>
      <trkpt lat="42.46971" lon="3.00689">
        <ele>991</ele>
        <time>2024-09-23T09:11:10Z</time>
      </trkpt>
      <trkpt lat="42.4697" lon="3.00694">
        <ele>989</ele>
        <time>2024-09-23T09:11:13Z</time>
      </trkpt>
      <trkpt lat="42.46971" lon="3.00699">
        <ele>990</ele>
        <time>2024-09-23T09:11:16Z</time>
      </trkpt>
      <trkpt lat="42.46971" lon="3.00703">
        <ele>989</ele>
        <time>2024-09-23T09:11:19Z</time>
      </trkpt>
      <trkpt lat="42.46971" lon="3.00708">
        <ele>989</ele>
        <time>2024-09-23T09:11:22Z</time>
      </trkpt>
      <trkpt lat="42.46971" lon="3.00713">
        <ele>989</ele>
        <time>2024-09-23T09:11:25Z</time>
      </trkpt>
      <trkpt lat="42.46971" lon="3.00717">
        <ele>989</ele>
        <time>2024-09-23T09:11:27Z</time>
      </trkpt>
      <trkpt lat="42.46972" lon="3.00722">
        <ele>988</ele>
        <time>2024-09-23T09:11:30Z</time>
      </trkpt>
      <trkpt lat="42.46972" lon="3.00726">
        <ele>987</ele>
        <time>2024-09-23T09:11:33Z</time>
      </trkpt>
      <trkpt lat="42.46973" lon="3.0073">
        <ele>986</ele>
        <time>2024-09-23T09:11:36Z</time>
      </trkpt>
      <trkpt lat="42.46973" lon="3.00734">
        <ele>985</ele>
        <time>2024-09-23T09:11:39Z</time>
      </trkpt>
      <trkpt lat="42.46975" lon="3.00738">
        <ele>984</ele>
        <time>2024-09-23T09:11:43Z</time>
      </trkpt>
      <trkpt lat="42.46976" lon="3.00743">
        <ele>983</ele>
        <time>2024-09-23T09:11:46Z</time>
      </trkpt>
      <trkpt lat="42.46977" lon="3.00746">
        <ele>981</ele>
        <time>2024-09-23T09:11:49Z</time>
      </trkpt>
      <trkpt lat="42.46979" lon="3.0075">
        <ele>981</ele>
        <time>2024-09-23T09:11:52Z</time>
      </trkpt>
      <trkpt lat="42.4698" lon="3.00754">
        <ele>980</ele>
        <time>2024-09-23T09:11:55Z</time>
      </trkpt>
      <trkpt lat="42.4698" lon="3.00758">
        <ele>979</ele>
        <time>2024-09-23T09:11:58Z</time>
      </trkpt>
      <trkpt lat="42.4698" lon="3.00763">
        <ele>979</ele>
        <time>2024-09-23T09:12:01Z</time>
      </trkpt>
      <trkpt lat="42.46979" lon="3.00767">
        <ele>978</ele>
        <time>2024-09-23T09:12:04Z</time>
      </trkpt>
      <trkpt lat="42.46979" lon="3.00771">
        <ele>978</ele>
        <time>2024-09-23T09:12:07Z</time>
      </trkpt>
      <trkpt lat="42.46979" lon="3.00775">
        <ele>978</ele>
        <time>2024-09-23T09:12:09Z</time>
      </trkpt>
      <trkpt lat="42.46978" lon="3.00779">
        <ele>978</ele>
        <time>2024-09-23T09:12:12Z</time>
      </trkpt>
      <trkpt lat="42.46977" lon="3.00783">
        <ele>977</ele>
        <time>2024-09-23T09:12:15Z</time>
      </trkpt>
      <trkpt lat="42.46975" lon="3.00788">
        <ele>978</ele>
        <time>2024-09-23T09:12:19Z</time>
      </trkpt>
      <trkpt lat="42.46975" lon="3.00793">
        <ele>976</ele>
        <time>2024-09-23T09:12:23Z</time>
      </trkpt>
      <trkpt lat="42.46974" lon="3.00797">
        <ele>976</ele>
        <time>2024-09-23T09:12:26Z</time>
      </trkpt>
      <trkpt lat="42.46973" lon="3.00801">
        <ele>976</ele>
        <time>2024-09-23T09:12:29Z</time>
      </trkpt>
      <trkpt lat="42.46971" lon="3.00804">
        <ele>976</ele>
        <time>2024-09-23T09:12:32Z</time>
      </trkpt>
      <trkpt lat="42.4697" lon="3.00809">
        <ele>976</ele>
        <time>2024-09-23T09:12:35Z</time>
      </trkpt>
      <trkpt lat="42.46969" lon="3.00813">
        <ele>976</ele>
        <time>2024-09-23T09:12:38Z</time>
      </trkpt>
      <trkpt lat="42.46969" lon="3.00817">
        <ele>975</ele>
        <time>2024-09-23T09:12:42Z</time>
      </trkpt>
      <trkpt lat="42.46969" lon="3.00821">
        <ele>974</ele>
        <time>2024-09-23T09:12:45Z</time>
      </trkpt>
      <trkpt lat="42.46969" lon="3.00825">
        <ele>975</ele>
        <time>2024-09-23T09:12:48Z</time>
      </trkpt>
      <trkpt lat="42.46969" lon="3.00829">
        <ele>974</ele>
        <time>2024-09-23T09:12:53Z</time>
      </trkpt>
      <trkpt lat="42.46969" lon="3.00834">
        <ele>973</ele>
        <time>2024-09-23T09:12:57Z</time>
      </trkpt>
      <trkpt lat="42.46968" lon="3.00838">
        <ele>973</ele>
        <time>2024-09-23T09:13:00Z</time>
      </trkpt>
      <trkpt lat="42.46967" lon="3.00842">
        <ele>972</ele>
        <time>2024-09-23T09:13:03Z</time>
      </trkpt>
      <trkpt lat="42.46965" lon="3.00846">
        <ele>972</ele>
        <time>2024-09-23T09:13:06Z</time>
      </trkpt>
      <trkpt lat="42.46964" lon="3.0085">
        <ele>972</ele>
        <time>2024-09-23T09:13:09Z</time>
      </trkpt>
      <trkpt lat="42.46963" lon="3.00853">
        <ele>972</ele>
        <time>2024-09-23T09:13:12Z</time>
      </trkpt>
      <trkpt lat="42.46961" lon="3.00857">
        <ele>972</ele>
        <time>2024-09-23T09:13:15Z</time>
      </trkpt>
      <trkpt lat="42.4696" lon="3.00861">
        <ele>972</ele>
        <time>2024-09-23T09:13:19Z</time>
      </trkpt>
      <trkpt lat="42.46959" lon="3.00865">
        <ele>972</ele>
        <time>2024-09-23T09:13:22Z</time>
      </trkpt>
      <trkpt lat="42.46958" lon="3.00869">
        <ele>974</ele>
        <time>2024-09-23T09:15:07Z</time>
      </trkpt>
      <trkpt lat="42.46957" lon="3.00873">
        <ele>973</ele>
        <time>2024-09-23T09:15:11Z</time>
      </trkpt>
      <trkpt lat="42.46956" lon="3.00878">
        <ele>972</ele>
        <time>2024-09-23T09:15:14Z</time>
      </trkpt>
      <trkpt lat="42.46955" lon="3.00881">
        <ele>972</ele>
        <time>2024-09-23T09:15:17Z</time>
      </trkpt>
      <trkpt lat="42.46953" lon="3.00884">
        <ele>971</ele>
        <time>2024-09-23T09:15:20Z</time>
      </trkpt>
      <trkpt lat="42.46952" lon="3.00888">
        <ele>971</ele>
        <time>2024-09-23T09:15:23Z</time>
      </trkpt>
      <trkpt lat="42.4695" lon="3.00891">
        <ele>970</ele>
        <time>2024-09-23T09:15:32Z</time>
      </trkpt>
      <trkpt lat="42.46949" lon="3.00895">
        <ele>970</ele>
        <time>2024-09-23T09:15:35Z</time>
      </trkpt>
      <trkpt lat="42.46948" lon="3.00899">
        <ele>969</ele>
        <time>2024-09-23T09:15:37Z</time>
      </trkpt>
      <trkpt lat="42.46948" lon="3.00904">
        <ele>969</ele>
        <time>2024-09-23T09:15:41Z</time>
      </trkpt>
      <trkpt lat="42.46947" lon="3.00908">
        <ele>968</ele>
        <time>2024-09-23T09:15:44Z</time>
      </trkpt>
      <trkpt lat="42.46946" lon="3.00912">
        <ele>968</ele>
        <time>2024-09-23T09:15:47Z</time>
      </trkpt>
      <trkpt lat="42.46945" lon="3.00917">
        <ele>968</ele>
        <time>2024-09-23T09:15:51Z</time>
      </trkpt>
      <trkpt lat="42.46943" lon="3.0092">
        <ele>968</ele>
        <time>2024-09-23T09:15:54Z</time>
      </trkpt>
      <trkpt lat="42.46942" lon="3.00924">
        <ele>968</ele>
        <time>2024-09-23T09:15:57Z</time>
      </trkpt>
      <trkpt lat="42.4694" lon="3.00928">
        <ele>967</ele>
        <time>2024-09-23T09:16:00Z</time>
      </trkpt>
      <trkpt lat="42.46939" lon="3.00932">
        <ele>967</ele>
        <time>2024-09-23T09:16:03Z</time>
      </trkpt>
      <trkpt lat="42.46937" lon="3.00935">
        <ele>967</ele>
        <time>2024-09-23T09:16:06Z</time>
      </trkpt>
      <trkpt lat="42.46936" lon="3.00939">
        <ele>966</ele>
        <time>2024-09-23T09:16:08Z</time>
      </trkpt>
      <trkpt lat="42.46935" lon="3.00942">
        <ele>967</ele>
        <time>2024-09-23T09:16:10Z</time>
      </trkpt>
      <trkpt lat="42.46934" lon="3.00947">
        <ele>966</ele>
        <time>2024-09-23T09:16:13Z</time>
      </trkpt>
      <trkpt lat="42.46934" lon="3.00951">
        <ele>966</ele>
        <time>2024-09-23T09:16:16Z</time>
      </trkpt>
      <trkpt lat="42.46933" lon="3.00955">
        <ele>966</ele>
        <time>2024-09-23T09:16:19Z</time>
      </trkpt>
      <trkpt lat="42.46931" lon="3.00959">
        <ele>965</ele>
        <time>2024-09-23T09:16:22Z</time>
      </trkpt>
      <trkpt lat="42.46929" lon="3.00962">
        <ele>965</ele>
        <time>2024-09-23T09:16:25Z</time>
      </trkpt>
      <trkpt lat="42.46926" lon="3.00965">
        <ele>965</ele>
        <time>2024-09-23T09:16:28Z</time>
      </trkpt>
      <trkpt lat="42.46923" lon="3.00968">
        <ele>966</ele>
        <time>2024-09-23T09:16:32Z</time>
      </trkpt>
      <trkpt lat="42.46922" lon="3.00971">
        <ele>965</ele>
        <time>2024-09-23T09:16:35Z</time>
      </trkpt>
      <trkpt lat="42.4692" lon="3.00976">
        <ele>967</ele>
        <time>2024-09-23T09:16:38Z</time>
      </trkpt>
      <trkpt lat="42.46918" lon="3.00979">
        <ele>967</ele>
        <time>2024-09-23T09:16:44Z</time>
      </trkpt>
      <trkpt lat="42.46917" lon="3.00984">
        <ele>966</ele>
        <time>2024-09-23T09:16:50Z</time>
      </trkpt>
      <trkpt lat="42.46915" lon="3.00988">
        <ele>967</ele>
        <time>2024-09-23T09:16:53Z</time>
      </trkpt>
      <trkpt lat="42.46913" lon="3.00991">
        <ele>966</ele>
        <time>2024-09-23T09:16:56Z</time>
      </trkpt>
      <trkpt lat="42.46911" lon="3.00996">
        <ele>966</ele>
        <time>2024-09-23T09:16:59Z</time>
      </trkpt>
      <trkpt lat="42.46909" lon="3.01">
        <ele>967</ele>
        <time>2024-09-23T09:17:01Z</time>
      </trkpt>
      <trkpt lat="42.46908" lon="3.01004">
        <ele>967</ele>
        <time>2024-09-23T09:17:03Z</time>
      </trkpt>
      <trkpt lat="42.46906" lon="3.01008">
        <ele>967</ele>
        <time>2024-09-23T09:17:06Z</time>
      </trkpt>
      <trkpt lat="42.46904" lon="3.01013">
        <ele>968</ele>
        <time>2024-09-23T09:17:09Z</time>
      </trkpt>
      <trkpt lat="42.46903" lon="3.01017">
        <ele>968</ele>
        <time>2024-09-23T09:17:12Z</time>
      </trkpt>
      <trkpt lat="42.46902" lon="3.01022">
        <ele>968</ele>
        <time>2024-09-23T09:17:15Z</time>
      </trkpt>
      <trkpt lat="42.469" lon="3.01026">
        <ele>967</ele>
        <time>2024-09-23T09:17:18Z</time>
      </trkpt>
      <trkpt lat="42.46898" lon="3.0103">
        <ele>967</ele>
        <time>2024-09-23T09:17:21Z</time>
      </trkpt>
      <trkpt lat="42.46896" lon="3.01033">
        <ele>966</ele>
        <time>2024-09-23T09:17:23Z</time>
      </trkpt>
      <trkpt lat="42.46895" lon="3.01038">
        <ele>966</ele>
        <time>2024-09-23T09:17:26Z</time>
      </trkpt>
      <trkpt lat="42.46893" lon="3.01041">
        <ele>967</ele>
        <time>2024-09-23T09:17:28Z</time>
      </trkpt>
      <trkpt lat="42.46891" lon="3.01045">
        <ele>967</ele>
        <time>2024-09-23T09:17:30Z</time>
      </trkpt>
      <trkpt lat="42.4689" lon="3.01049">
        <ele>967</ele>
        <time>2024-09-23T09:17:33Z</time>
      </trkpt>
      <trkpt lat="42.46888" lon="3.01053">
        <ele>966</ele>
        <time>2024-09-23T09:17:36Z</time>
      </trkpt>
      <trkpt lat="42.46887" lon="3.01056">
        <ele>967</ele>
        <time>2024-09-23T09:17:38Z</time>
      </trkpt>
      <trkpt lat="42.46886" lon="3.0106">
        <ele>967</ele>
        <time>2024-09-23T09:17:40Z</time>
      </trkpt>
      <trkpt lat="42.46884" lon="3.01064">
        <ele>966</ele>
        <time>2024-09-23T09:17:43Z</time>
      </trkpt>
      <trkpt lat="42.46882" lon="3.01067">
        <ele>967</ele>
        <time>2024-09-23T09:17:46Z</time>
      </trkpt>
      <trkpt lat="42.4688" lon="3.01071">
        <ele>966</ele>
        <time>2024-09-23T09:17:49Z</time>
      </trkpt>
      <trkpt lat="42.46879" lon="3.01075">
        <ele>966</ele>
        <time>2024-09-23T09:17:52Z</time>
      </trkpt>
      <trkpt lat="42.46877" lon="3.01078">
        <ele>966</ele>
        <time>2024-09-23T09:17:54Z</time>
      </trkpt>
      <trkpt lat="42.46876" lon="3.01082">
        <ele>967</ele>
        <time>2024-09-23T09:17:56Z</time>
      </trkpt>
      <trkpt lat="42.46875" lon="3.01086">
        <ele>966</ele>
        <time>2024-09-23T09:17:59Z</time>
      </trkpt>
      <trkpt lat="42.46873" lon="3.0109">
        <ele>966</ele>
        <time>2024-09-23T09:18:02Z</time>
      </trkpt>
      <trkpt lat="42.46872" lon="3.01093">
        <ele>966</ele>
        <time>2024-09-23T09:18:04Z</time>
      </trkpt>
      <trkpt lat="42.46869" lon="3.01095">
        <ele>966</ele>
        <time>2024-09-23T09:18:07Z</time>
      </trkpt>
      <trkpt lat="42.46866" lon="3.01097">
        <ele>967</ele>
        <time>2024-09-23T09:18:10Z</time>
      </trkpt>
      <trkpt lat="42.46863" lon="3.01099">
        <ele>966</ele>
        <time>2024-09-23T09:18:13Z</time>
      </trkpt>
      <trkpt lat="42.4686" lon="3.01101">
        <ele>966</ele>
        <time>2024-09-23T09:18:16Z</time>
      </trkpt>
      <trkpt lat="42.46857" lon="3.01105">
        <ele>966</ele>
        <time>2024-09-23T09:18:19Z</time>
      </trkpt>
      <trkpt lat="42.46855" lon="3.01108">
        <ele>966</ele>
        <time>2024-09-23T09:18:22Z</time>
      </trkpt>
      <trkpt lat="42.46853" lon="3.01112">
        <ele>966</ele>
        <time>2024-09-23T09:18:24Z</time>
      </trkpt>
      <trkpt lat="42.4685" lon="3.01115">
        <ele>965</ele>
        <time>2024-09-23T09:18:27Z</time>
      </trkpt>
      <trkpt lat="42.46847" lon="3.01117">
        <ele>965</ele>
        <time>2024-09-23T09:18:30Z</time>
      </trkpt>
      <trkpt lat="42.46844" lon="3.01118">
        <ele>964</ele>
        <time>2024-09-23T09:18:33Z</time>
      </trkpt>
      <trkpt lat="42.46842" lon="3.01121">
        <ele>964</ele>
        <time>2024-09-23T09:18:36Z</time>
      </trkpt>
      <trkpt lat="42.46841" lon="3.01125">
        <ele>964</ele>
        <time>2024-09-23T09:18:39Z</time>
      </trkpt>
      <trkpt lat="42.46841" lon="3.0113">
        <ele>964</ele>
        <time>2024-09-23T09:18:42Z</time>
      </trkpt>
      <trkpt lat="42.4684" lon="3.01134">
        <ele>963</ele>
        <time>2024-09-23T09:18:44Z</time>
      </trkpt>
      <trkpt lat="42.4684" lon="3.01139">
        <ele>963</ele>
        <time>2024-09-23T09:18:48Z</time>
      </trkpt>
      <trkpt lat="42.4684" lon="3.01143">
        <ele>962</ele>
        <time>2024-09-23T09:18:51Z</time>
      </trkpt>
      <trkpt lat="42.4684" lon="3.01147">
        <ele>962</ele>
        <time>2024-09-23T09:18:53Z</time>
      </trkpt>
      <trkpt lat="42.4684" lon="3.01151">
        <ele>961</ele>
        <time>2024-09-23T09:18:56Z</time>
      </trkpt>
      <trkpt lat="42.46839" lon="3.01156">
        <ele>961</ele>
        <time>2024-09-23T09:18:59Z</time>
      </trkpt>
      <trkpt lat="42.46837" lon="3.0116">
        <ele>960</ele>
        <time>2024-09-23T09:19:03Z</time>
      </trkpt>
      <trkpt lat="42.46835" lon="3.01164">
        <ele>961</ele>
        <time>2024-09-23T09:19:06Z</time>
      </trkpt>
      <trkpt lat="42.46834" lon="3.01169">
        <ele>961</ele>
        <time>2024-09-23T09:19:08Z</time>
      </trkpt>
      <trkpt lat="42.46833" lon="3.01174">
        <ele>960</ele>
        <time>2024-09-23T09:19:11Z</time>
      </trkpt>
      <trkpt lat="42.46833" lon="3.01179">
        <ele>960</ele>
        <time>2024-09-23T09:19:14Z</time>
      </trkpt>
      <trkpt lat="42.46832" lon="3.01183">
        <ele>961</ele>
        <time>2024-09-23T09:19:16Z</time>
      </trkpt>
      <trkpt lat="42.46831" lon="3.01188">
        <ele>961</ele>
        <time>2024-09-23T09:19:19Z</time>
      </trkpt>
      <trkpt lat="42.4683" lon="3.01193">
        <ele>961</ele>
        <time>2024-09-23T09:19:22Z</time>
      </trkpt>
      <trkpt lat="42.46829" lon="3.01197">
        <ele>961</ele>
        <time>2024-09-23T09:19:24Z</time>
      </trkpt>
      <trkpt lat="42.46828" lon="3.01201">
        <ele>961</ele>
        <time>2024-09-23T09:19:26Z</time>
      </trkpt>
      <trkpt lat="42.46828" lon="3.01205">
        <ele>961</ele>
        <time>2024-09-23T09:19:29Z</time>
      </trkpt>
      <trkpt lat="42.46826" lon="3.0121">
        <ele>961</ele>
        <time>2024-09-23T09:19:32Z</time>
      </trkpt>
      <trkpt lat="42.46826" lon="3.01214">
        <ele>962</ele>
        <time>2024-09-23T09:19:35Z</time>
      </trkpt>
      <trkpt lat="42.46826" lon="3.01218">
        <ele>961</ele>
        <time>2024-09-23T09:19:38Z</time>
      </trkpt>
      <trkpt lat="42.46825" lon="3.01223">
        <ele>961</ele>
        <time>2024-09-23T09:19:41Z</time>
      </trkpt>
      <trkpt lat="42.46824" lon="3.01228">
        <ele>960</ele>
        <time>2024-09-23T09:19:44Z</time>
      </trkpt>
      <trkpt lat="42.46824" lon="3.01232">
        <ele>961</ele>
        <time>2024-09-23T09:19:46Z</time>
      </trkpt>
      <trkpt lat="42.46823" lon="3.01236">
        <ele>961</ele>
        <time>2024-09-23T09:19:49Z</time>
      </trkpt>
      <trkpt lat="42.46823" lon="3.01241">
        <ele>961</ele>
        <time>2024-09-23T09:19:52Z</time>
      </trkpt>
      <trkpt lat="42.46823" lon="3.01246">
        <ele>961</ele>
        <time>2024-09-23T09:19:54Z</time>
      </trkpt>
      <trkpt lat="42.46823" lon="3.0125">
        <ele>960</ele>
        <time>2024-09-23T09:19:57Z</time>
      </trkpt>
      <trkpt lat="42.46822" lon="3.01254">
        <ele>958</ele>
        <time>2024-09-23T09:20:00Z</time>
      </trkpt>
      <trkpt lat="42.46821" lon="3.01258">
        <ele>959</ele>
        <time>2024-09-23T09:20:03Z</time>
      </trkpt>
      <trkpt lat="42.4682" lon="3.01262">
        <ele>959</ele>
        <time>2024-09-23T09:20:06Z</time>
      </trkpt>
      <trkpt lat="42.46819" lon="3.01266">
        <ele>960</ele>
        <time>2024-09-23T09:20:08Z</time>
      </trkpt>
      <trkpt lat="42.46818" lon="3.0127">
        <ele>959</ele>
        <time>2024-09-23T09:20:11Z</time>
      </trkpt>
      <trkpt lat="42.46818" lon="3.01274">
        <ele>959</ele>
        <time>2024-09-23T09:20:13Z</time>
      </trkpt>
      <trkpt lat="42.46816" lon="3.01277">
        <ele>958</ele>
        <time>2024-09-23T09:20:16Z</time>
      </trkpt>
      <trkpt lat="42.46815" lon="3.01282">
        <ele>958</ele>
        <time>2024-09-23T09:20:19Z</time>
      </trkpt>
      <trkpt lat="42.46814" lon="3.01286">
        <ele>957</ele>
        <time>2024-09-23T09:20:22Z</time>
      </trkpt>
      <trkpt lat="42.46814" lon="3.0129">
        <ele>956</ele>
        <time>2024-09-23T09:20:25Z</time>
      </trkpt>
      <trkpt lat="42.46813" lon="3.01295">
        <ele>955</ele>
        <time>2024-09-23T09:20:28Z</time>
      </trkpt>
      <trkpt lat="42.46812" lon="3.01299">
        <ele>955</ele>
        <time>2024-09-23T09:20:31Z</time>
      </trkpt>
      <trkpt lat="42.46811" lon="3.01304">
        <ele>954</ele>
        <time>2024-09-23T09:20:34Z</time>
      </trkpt>
      <trkpt lat="42.46812" lon="3.01308">
        <ele>955</ele>
        <time>2024-09-23T09:20:37Z</time>
      </trkpt>
      <trkpt lat="42.46812" lon="3.01313">
        <ele>954</ele>
        <time>2024-09-23T09:20:40Z</time>
      </trkpt>
      <trkpt lat="42.46811" lon="3.01318">
        <ele>954</ele>
        <time>2024-09-23T09:20:44Z</time>
      </trkpt>
      <trkpt lat="42.4681" lon="3.01323">
        <ele>954</ele>
        <time>2024-09-23T09:20:47Z</time>
      </trkpt>
      <trkpt lat="42.46809" lon="3.01327">
        <ele>954</ele>
        <time>2024-09-23T09:20:50Z</time>
      </trkpt>
      <trkpt lat="42.46809" lon="3.01331">
        <ele>953</ele>
        <time>2024-09-23T09:20:53Z</time>
      </trkpt>
      <trkpt lat="42.46808" lon="3.01336">
        <ele>953</ele>
        <time>2024-09-23T09:20:56Z</time>
      </trkpt>
      <trkpt lat="42.46808" lon="3.0134">
        <ele>952</ele>
        <time>2024-09-23T09:20:59Z</time>
      </trkpt>
      <trkpt lat="42.46808" lon="3.01345">
        <ele>951</ele>
        <time>2024-09-23T09:21:02Z</time>
      </trkpt>
      <trkpt lat="42.46808" lon="3.01349">
        <ele>951</ele>
        <time>2024-09-23T09:21:04Z</time>
      </trkpt>
      <trkpt lat="42.46808" lon="3.01354">
        <ele>952</ele>
        <time>2024-09-23T09:21:07Z</time>
      </trkpt>
      <trkpt lat="42.46807" lon="3.01359">
        <ele>951</ele>
        <time>2024-09-23T09:21:11Z</time>
      </trkpt>
      <trkpt lat="42.46808" lon="3.01364">
        <ele>950</ele>
        <time>2024-09-23T09:21:14Z</time>
      </trkpt>
      <trkpt lat="42.46808" lon="3.01368">
        <ele>950</ele>
        <time>2024-09-23T09:21:15Z</time>
      </trkpt>
      <trkpt lat="42.46808" lon="3.01373">
        <ele>949</ele>
        <time>2024-09-23T09:21:18Z</time>
      </trkpt>
      <trkpt lat="42.46807" lon="3.01378">
        <ele>949</ele>
        <time>2024-09-23T09:21:21Z</time>
      </trkpt>
      <trkpt lat="42.46807" lon="3.01383">
        <ele>949</ele>
        <time>2024-09-23T09:21:24Z</time>
      </trkpt>
      <trkpt lat="42.46806" lon="3.01387">
        <ele>948</ele>
        <time>2024-09-23T09:21:27Z</time>
      </trkpt>
      <trkpt lat="42.46806" lon="3.01392">
        <ele>949</ele>
        <time>2024-09-23T09:21:29Z</time>
      </trkpt>
      <trkpt lat="42.46806" lon="3.01396">
        <ele>948</ele>
        <time>2024-09-23T09:21:32Z</time>
      </trkpt>
      <trkpt lat="42.46807" lon="3.014">
        <ele>947</ele>
        <time>2024-09-23T09:21:35Z</time>
      </trkpt>
      <trkpt lat="42.46808" lon="3.01405">
        <ele>946</ele>
        <time>2024-09-23T09:21:38Z</time>
      </trkpt>
      <trkpt lat="42.4681" lon="3.01409">
        <ele>946</ele>
        <time>2024-09-23T09:21:41Z</time>
      </trkpt>
      <trkpt lat="42.46811" lon="3.01414">
        <ele>945</ele>
        <time>2024-09-23T09:21:44Z</time>
      </trkpt>
      <trkpt lat="42.46811" lon="3.01418">
        <ele>945</ele>
        <time>2024-09-23T09:21:47Z</time>
      </trkpt>
      <trkpt lat="42.46813" lon="3.01422">
        <ele>944</ele>
        <time>2024-09-23T09:21:50Z</time>
      </trkpt>
      <trkpt lat="42.46814" lon="3.01426">
        <ele>943</ele>
        <time>2024-09-23T09:21:53Z</time>
      </trkpt>
      <trkpt lat="42.46816" lon="3.0143">
        <ele>943</ele>
        <time>2024-09-23T09:21:57Z</time>
      </trkpt>
      <trkpt lat="42.46817" lon="3.01435">
        <ele>943</ele>
        <time>2024-09-23T09:22:00Z</time>
      </trkpt>
      <trkpt lat="42.46819" lon="3.01439">
        <ele>943</ele>
        <time>2024-09-23T09:22:03Z</time>
      </trkpt>
      <trkpt lat="42.46822" lon="3.01442">
        <ele>942</ele>
        <time>2024-09-23T09:22:07Z</time>
      </trkpt>
      <trkpt lat="42.46824" lon="3.01446">
        <ele>941</ele>
        <time>2024-09-23T09:22:12Z</time>
      </trkpt>
      <trkpt lat="42.46826" lon="3.0145">
        <ele>940</ele>
        <time>2024-09-23T09:22:15Z</time>
      </trkpt>
      <trkpt lat="42.46828" lon="3.01453">
        <ele>940</ele>
        <time>2024-09-23T09:22:18Z</time>
      </trkpt>
      <trkpt lat="42.46831" lon="3.01456">
        <ele>939</ele>
        <time>2024-09-23T09:22:21Z</time>
      </trkpt>
      <trkpt lat="42.46832" lon="3.0146">
        <ele>938</ele>
        <time>2024-09-23T09:22:24Z</time>
      </trkpt>
      <trkpt lat="42.46833" lon="3.01464">
        <ele>938</ele>
        <time>2024-09-23T09:22:26Z</time>
      </trkpt>
      <trkpt lat="42.46834" lon="3.01468">
        <ele>938</ele>
        <time>2024-09-23T09:22:29Z</time>
      </trkpt>
      <trkpt lat="42.46835" lon="3.01472">
        <ele>938</ele>
        <time>2024-09-23T09:22:32Z</time>
      </trkpt>
      <trkpt lat="42.46835" lon="3.01476">
        <ele>938</ele>
        <time>2024-09-23T09:22:34Z</time>
      </trkpt>
      <trkpt lat="42.46837" lon="3.01479">
        <ele>937</ele>
        <time>2024-09-23T09:22:37Z</time>
      </trkpt>
      <trkpt lat="42.46839" lon="3.01484">
        <ele>937</ele>
        <time>2024-09-23T09:22:40Z</time>
      </trkpt>
      <trkpt lat="42.4684" lon="3.01487">
        <ele>936</ele>
        <time>2024-09-23T09:22:43Z</time>
      </trkpt>
      <trkpt lat="42.46843" lon="3.01491">
        <ele>936</ele>
        <time>2024-09-23T09:22:46Z</time>
      </trkpt>
      <trkpt lat="42.46844" lon="3.01496">
        <ele>936</ele>
        <time>2024-09-23T09:22:51Z</time>
      </trkpt>
      <trkpt lat="42.46845" lon="3.015">
        <ele>936</ele>
        <time>2024-09-23T09:22:53Z</time>
      </trkpt>
      <trkpt lat="42.46845" lon="3.01504">
        <ele>936</ele>
        <time>2024-09-23T09:22:56Z</time>
      </trkpt>
      <trkpt lat="42.46847" lon="3.01508">
        <ele>936</ele>
        <time>2024-09-23T09:22:59Z</time>
      </trkpt>
      <trkpt lat="42.46849" lon="3.01511">
        <ele>935</ele>
        <time>2024-09-23T09:23:02Z</time>
      </trkpt>
      <trkpt lat="42.4685" lon="3.01515">
        <ele>935</ele>
        <time>2024-09-23T09:23:04Z</time>
      </trkpt>
      <trkpt lat="42.46852" lon="3.01518">
        <ele>934</ele>
        <time>2024-09-23T09:23:07Z</time>
      </trkpt>
      <trkpt lat="42.46854" lon="3.01522">
        <ele>935</ele>
        <time>2024-09-23T09:23:10Z</time>
      </trkpt>
      <trkpt lat="42.46856" lon="3.01525">
        <ele>934</ele>
        <time>2024-09-23T09:23:12Z</time>
      </trkpt>
      <trkpt lat="42.46857" lon="3.01529">
        <ele>934</ele>
        <time>2024-09-23T09:23:14Z</time>
      </trkpt>
      <trkpt lat="42.46857" lon="3.01533">
        <ele>934</ele>
        <time>2024-09-23T09:23:17Z</time>
      </trkpt>
      <trkpt lat="42.46858" lon="3.01537">
        <ele>934</ele>
        <time>2024-09-23T09:23:20Z</time>
      </trkpt>
      <trkpt lat="42.4686" lon="3.0154">
        <ele>933</ele>
        <time>2024-09-23T09:23:21Z</time>
      </trkpt>
      <trkpt lat="42.46861" lon="3.01544">
        <ele>934</ele>
        <time>2024-09-23T09:23:24Z</time>
      </trkpt>
      <trkpt lat="42.46863" lon="3.01548">
        <ele>933</ele>
        <time>2024-09-23T09:23:27Z</time>
      </trkpt>
      <trkpt lat="42.46865" lon="3.01553">
        <ele>934</ele>
        <time>2024-09-23T09:23:30Z</time>
      </trkpt>
      <trkpt lat="42.46867" lon="3.01556">
        <ele>933</ele>
        <time>2024-09-23T09:23:33Z</time>
      </trkpt>
      <trkpt lat="42.46869" lon="3.0156">
        <ele>933</ele>
        <time>2024-09-23T09:23:35Z</time>
      </trkpt>
      <trkpt lat="42.46871" lon="3.01563">
        <ele>932</ele>
        <time>2024-09-23T09:23:38Z</time>
      </trkpt>
      <trkpt lat="42.46873" lon="3.01565">
        <ele>933</ele>
        <time>2024-09-23T09:23:41Z</time>
      </trkpt>
      <trkpt lat="42.46876" lon="3.01569">
        <ele>932</ele>
        <time>2024-09-23T09:23:44Z</time>
      </trkpt>
      <trkpt lat="42.46879" lon="3.01571">
        <ele>931</ele>
        <time>2024-09-23T09:23:47Z</time>
      </trkpt>
      <trkpt lat="42.46882" lon="3.01574">
        <ele>932</ele>
        <time>2024-09-23T09:23:50Z</time>
      </trkpt>
      <trkpt lat="42.46885" lon="3.01576">
        <ele>931</ele>
        <time>2024-09-23T09:23:53Z</time>
      </trkpt>
      <trkpt lat="42.46888" lon="3.01578">
        <ele>932</ele>
        <time>2024-09-23T09:23:56Z</time>
      </trkpt>
      <trkpt lat="42.46891" lon="3.0158">
        <ele>932</ele>
        <time>2024-09-23T09:23:59Z</time>
      </trkpt>
      <trkpt lat="42.46893" lon="3.01583">
        <ele>932</ele>
        <time>2024-09-23T09:24:02Z</time>
      </trkpt>
      <trkpt lat="42.46894" lon="3.01587">
        <ele>932</ele>
        <time>2024-09-23T09:24:08Z</time>
      </trkpt>
      <trkpt lat="42.46897" lon="3.0159">
        <ele>933</ele>
        <time>2024-09-23T09:24:11Z</time>
      </trkpt>
      <trkpt lat="42.46899" lon="3.01592">
        <ele>934</ele>
        <time>2024-09-23T09:24:14Z</time>
      </trkpt>
      <trkpt lat="42.46902" lon="3.01594">
        <ele>932</ele>
        <time>2024-09-23T09:24:18Z</time>
      </trkpt>
      <trkpt lat="42.46903" lon="3.01597">
        <ele>933</ele>
        <time>2024-09-23T09:24:21Z</time>
      </trkpt>
      <trkpt lat="42.46906" lon="3.01601">
        <ele>933</ele>
        <time>2024-09-23T09:24:24Z</time>
      </trkpt>
      <trkpt lat="42.46907" lon="3.01605">
        <ele>932</ele>
        <time>2024-09-23T09:24:29Z</time>
      </trkpt>
      <trkpt lat="42.46909" lon="3.01608">
        <ele>931</ele>
        <time>2024-09-23T09:24:32Z</time>
      </trkpt>
      <trkpt lat="42.46912" lon="3.01611">
        <ele>930</ele>
        <time>2024-09-23T09:24:35Z</time>
      </trkpt>
      <trkpt lat="42.46914" lon="3.01615">
        <ele>930</ele>
        <time>2024-09-23T09:24:38Z</time>
      </trkpt>
      <trkpt lat="42.46915" lon="3.01618">
        <ele>931</ele>
        <time>2024-09-23T09:24:40Z</time>
      </trkpt>
      <trkpt lat="42.46917" lon="3.01621">
        <ele>930</ele>
        <time>2024-09-23T09:24:42Z</time>
      </trkpt>
      <trkpt lat="42.4692" lon="3.01624">
        <ele>930</ele>
        <time>2024-09-23T09:24:45Z</time>
      </trkpt>
      <trkpt lat="42.46922" lon="3.01627">
        <ele>930</ele>
        <time>2024-09-23T09:24:48Z</time>
      </trkpt>
      <trkpt lat="42.46926" lon="3.01629">
        <ele>929</ele>
        <time>2024-09-23T09:24:51Z</time>
      </trkpt>
      <trkpt lat="42.4693" lon="3.01631">
        <ele>930</ele>
        <time>2024-09-23T09:24:55Z</time>
      </trkpt>
      <trkpt lat="42.46933" lon="3.01633">
        <ele>929</ele>
        <time>2024-09-23T09:24:58Z</time>
      </trkpt>
      <trkpt lat="42.46936" lon="3.01634">
        <ele>929</ele>
        <time>2024-09-23T09:25:01Z</time>
      </trkpt>
      <trkpt lat="42.46938" lon="3.01637">
        <ele>929</ele>
        <time>2024-09-23T09:25:05Z</time>
      </trkpt>
      <trkpt lat="42.46942" lon="3.01638">
        <ele>930</ele>
        <time>2024-09-23T09:25:08Z</time>
      </trkpt>
      <trkpt lat="42.46944" lon="3.01641">
        <ele>930</ele>
        <time>2024-09-23T09:25:11Z</time>
      </trkpt>
      <trkpt lat="42.46947" lon="3.01644">
        <ele>930</ele>
        <time>2024-09-23T09:25:14Z</time>
      </trkpt>
      <trkpt lat="42.46948" lon="3.01647">
        <ele>931</ele>
        <time>2024-09-23T09:25:18Z</time>
      </trkpt>
      <trkpt lat="42.46949" lon="3.01651">
        <ele>930</ele>
        <time>2024-09-23T09:25:21Z</time>
      </trkpt>
      <trkpt lat="42.4695" lon="3.01655">
        <ele>930</ele>
        <time>2024-09-23T09:25:25Z</time>
      </trkpt>
      <trkpt lat="42.46951" lon="3.01659">
        <ele>931</ele>
        <time>2024-09-23T09:25:28Z</time>
      </trkpt>
      <trkpt lat="42.46952" lon="3.01662">
        <ele>931</ele>
        <time>2024-09-23T09:25:31Z</time>
      </trkpt>
      <trkpt lat="42.46952" lon="3.01666">
        <ele>931</ele>
        <time>2024-09-23T09:25:34Z</time>
      </trkpt>
      <trkpt lat="42.46953" lon="3.0167">
        <ele>931</ele>
        <time>2024-09-23T09:25:37Z</time>
      </trkpt>
      <trkpt lat="42.46954" lon="3.01673">
        <ele>931</ele>
        <time>2024-09-23T09:25:41Z</time>
      </trkpt>
      <trkpt lat="42.46955" lon="3.01677">
        <ele>930</ele>
        <time>2024-09-23T09:25:44Z</time>
      </trkpt>
      <trkpt lat="42.46957" lon="3.01681">
        <ele>930</ele>
        <time>2024-09-23T09:25:47Z</time>
      </trkpt>
      <trkpt lat="42.46958" lon="3.01686">
        <ele>930</ele>
        <time>2024-09-23T09:25:51Z</time>
      </trkpt>
      <trkpt lat="42.46958" lon="3.0169">
        <ele>930</ele>
        <time>2024-09-23T09:25:54Z</time>
      </trkpt>
      <trkpt lat="42.46959" lon="3.01694">
        <ele>929</ele>
        <time>2024-09-23T09:25:57Z</time>
      </trkpt>
      <trkpt lat="42.46959" lon="3.01698">
        <ele>929</ele>
        <time>2024-09-23T09:26:01Z</time>
      </trkpt>
      <trkpt lat="42.4696" lon="3.01702">
        <ele>929</ele>
        <time>2024-09-23T09:26:04Z</time>
      </trkpt>
      <trkpt lat="42.46961" lon="3.01705">
        <ele>928</ele>
        <time>2024-09-23T09:26:07Z</time>
      </trkpt>
      <trkpt lat="42.46962" lon="3.01709">
        <ele>928</ele>
        <time>2024-09-23T09:26:10Z</time>
      </trkpt>
      <trkpt lat="42.46964" lon="3.01714">
        <ele>927</ele>
        <time>2024-09-23T09:26:14Z</time>
      </trkpt>
      <trkpt lat="42.46965" lon="3.01718">
        <ele>927</ele>
        <time>2024-09-23T09:26:17Z</time>
      </trkpt>
      <trkpt lat="42.46966" lon="3.01721">
        <ele>927</ele>
        <time>2024-09-23T09:26:20Z</time>
      </trkpt>
      <trkpt lat="42.46968" lon="3.01726">
        <ele>926</ele>
        <time>2024-09-23T09:26:24Z</time>
      </trkpt>
      <trkpt lat="42.46969" lon="3.0173">
        <ele>926</ele>
        <time>2024-09-23T09:26:27Z</time>
      </trkpt>
      <trkpt lat="42.4697" lon="3.01733">
        <ele>926</ele>
        <time>2024-09-23T09:26:29Z</time>
      </trkpt>
      <trkpt lat="42.46972" lon="3.01738">
        <ele>925</ele>
        <time>2024-09-23T09:26:33Z</time>
      </trkpt>
      <trkpt lat="42.46972" lon="3.01742">
        <ele>925</ele>
        <time>2024-09-23T09:26:36Z</time>
      </trkpt>
      <trkpt lat="42.46974" lon="3.01746">
        <ele>924</ele>
        <time>2024-09-23T09:26:40Z</time>
      </trkpt>
      <trkpt lat="42.46975" lon="3.01751">
        <ele>924</ele>
        <time>2024-09-23T09:26:43Z</time>
      </trkpt>
      <trkpt lat="42.46976" lon="3.01755">
        <ele>924</ele>
        <time>2024-09-23T09:26:46Z</time>
      </trkpt>
      <trkpt lat="42.46978" lon="3.01758">
        <ele>924</ele>
        <time>2024-09-23T09:26:48Z</time>
      </trkpt>
      <trkpt lat="42.4698" lon="3.01762">
        <ele>924</ele>
        <time>2024-09-23T09:26:51Z</time>
      </trkpt>
      <trkpt lat="42.46981" lon="3.01767">
        <ele>923</ele>
        <time>2024-09-23T09:26:54Z</time>
      </trkpt>
      <trkpt lat="42.46982" lon="3.0177">
        <ele>923</ele>
        <time>2024-09-23T09:26:57Z</time>
      </trkpt>
      <trkpt lat="42.46983" lon="3.01774">
        <ele>922</ele>
        <time>2024-09-23T09:27:01Z</time>
      </trkpt>
      <trkpt lat="42.46983" lon="3.01778">
        <ele>921</ele>
        <time>2024-09-23T09:27:05Z</time>
      </trkpt>
      <trkpt lat="42.46984" lon="3.01782">
        <ele>921</ele>
        <time>2024-09-23T09:27:08Z</time>
      </trkpt>
      <trkpt lat="42.46986" lon="3.01784">
        <ele>920</ele>
        <time>2024-09-23T09:27:12Z</time>
      </trkpt>
      <trkpt lat="42.46989" lon="3.01787">
        <ele>918</ele>
        <time>2024-09-23T09:27:15Z</time>
      </trkpt>
      <trkpt lat="42.4699" lon="3.01791">
        <ele>917</ele>
        <time>2024-09-23T09:27:18Z</time>
      </trkpt>
      <trkpt lat="42.4699" lon="3.01795">
        <ele>917</ele>
        <time>2024-09-23T09:27:22Z</time>
      </trkpt>
      <trkpt lat="42.46991" lon="3.01799">
        <ele>917</ele>
        <time>2024-09-23T09:27:25Z</time>
      </trkpt>
      <trkpt lat="42.46993" lon="3.01802">
        <ele>917</ele>
        <time>2024-09-23T09:27:28Z</time>
      </trkpt>
      <trkpt lat="42.46996" lon="3.01805">
        <ele>916</ele>
        <time>2024-09-23T09:27:32Z</time>
      </trkpt>
      <trkpt lat="42.46997" lon="3.01808">
        <ele>916</ele>
        <time>2024-09-23T09:27:34Z</time>
      </trkpt>
      <trkpt lat="42.46999" lon="3.01811">
        <ele>916</ele>
        <time>2024-09-23T09:27:37Z</time>
      </trkpt>
      <trkpt lat="42.47001" lon="3.01814">
        <ele>915</ele>
        <time>2024-09-23T09:27:40Z</time>
      </trkpt>
      <trkpt lat="42.47004" lon="3.01817">
        <ele>915</ele>
        <time>2024-09-23T09:27:44Z</time>
      </trkpt>
      <trkpt lat="42.47006" lon="3.0182">
        <ele>915</ele>
        <time>2024-09-23T09:27:50Z</time>
      </trkpt>
      <trkpt lat="42.47009" lon="3.01823">
        <ele>914</ele>
        <time>2024-09-23T09:27:53Z</time>
      </trkpt>
      <trkpt lat="42.47012" lon="3.01825">
        <ele>914</ele>
        <time>2024-09-23T09:27:56Z</time>
      </trkpt>
      <trkpt lat="42.47015" lon="3.01827">
        <ele>914</ele>
        <time>2024-09-23T09:27:59Z</time>
      </trkpt>
      <trkpt lat="42.47017" lon="3.0183">
        <ele>914</ele>
        <time>2024-09-23T09:28:01Z</time>
      </trkpt>
      <trkpt lat="42.4702" lon="3.01832">
        <ele>914</ele>
        <time>2024-09-23T09:28:03Z</time>
      </trkpt>
      <trkpt lat="42.47022" lon="3.01834">
        <ele>914</ele>
        <time>2024-09-23T09:28:06Z</time>
      </trkpt>
      <trkpt lat="42.47025" lon="3.01837">
        <ele>914</ele>
        <time>2024-09-23T09:28:09Z</time>
      </trkpt>
      <trkpt lat="42.47028" lon="3.01838">
        <ele>913</ele>
        <time>2024-09-23T09:28:12Z</time>
      </trkpt>
      <trkpt lat="42.47031" lon="3.01839">
        <ele>913</ele>
        <time>2024-09-23T09:28:15Z</time>
      </trkpt>
      <trkpt lat="42.47034" lon="3.01841">
        <ele>913</ele>
        <time>2024-09-23T09:28:18Z</time>
      </trkpt>
      <trkpt lat="42.47037" lon="3.01843">
        <ele>912</ele>
        <time>2024-09-23T09:28:22Z</time>
      </trkpt>
      <trkpt lat="42.4704" lon="3.01846">
        <ele>913</ele>
        <time>2024-09-23T09:28:25Z</time>
      </trkpt>
      <trkpt lat="42.47042" lon="3.01848">
        <ele>913</ele>
        <time>2024-09-23T09:28:28Z</time>
      </trkpt>
      <trkpt lat="42.47045" lon="3.0185">
        <ele>913</ele>
        <time>2024-09-23T09:28:31Z</time>
      </trkpt>
      <trkpt lat="42.47047" lon="3.01853">
        <ele>913</ele>
        <time>2024-09-23T09:28:34Z</time>
      </trkpt>
      <trkpt lat="42.4705" lon="3.01854">
        <ele>912</ele>
        <time>2024-09-23T09:28:37Z</time>
      </trkpt>
      <trkpt lat="42.47053" lon="3.01856">
        <ele>913</ele>
        <time>2024-09-23T09:28:40Z</time>
      </trkpt>
      <trkpt lat="42.47056" lon="3.01859">
        <ele>913</ele>
        <time>2024-09-23T09:28:44Z</time>
      </trkpt>
      <trkpt lat="42.47059" lon="3.01861">
        <ele>913</ele>
        <time>2024-09-23T09:28:47Z</time>
      </trkpt>
      <trkpt lat="42.47062" lon="3.01863">
        <ele>913</ele>
        <time>2024-09-23T09:28:50Z</time>
      </trkpt>
      <trkpt lat="42.47064" lon="3.01865">
        <ele>913</ele>
        <time>2024-09-23T09:28:53Z</time>
      </trkpt>
      <trkpt lat="42.47067" lon="3.01868">
        <ele>913</ele>
        <time>2024-09-23T09:28:56Z</time>
      </trkpt>
      <trkpt lat="42.4707" lon="3.01869">
        <ele>913</ele>
        <time>2024-09-23T09:28:59Z</time>
      </trkpt>
      <trkpt lat="42.47073" lon="3.01871">
        <ele>913</ele>
        <time>2024-09-23T09:29:02Z</time>
      </trkpt>
      <trkpt lat="42.47075" lon="3.01872">
        <ele>913</ele>
        <time>2024-09-23T09:29:06Z</time>
      </trkpt>
      <trkpt lat="42.47078" lon="3.01873">
        <ele>913</ele>
        <time>2024-09-23T09:29:09Z</time>
      </trkpt>
      <trkpt lat="42.47081" lon="3.01875">
        <ele>913</ele>
        <time>2024-09-23T09:29:12Z</time>
      </trkpt>
      <trkpt lat="42.47084" lon="3.01876">
        <ele>914</ele>
        <time>2024-09-23T09:29:16Z</time>
      </trkpt>
      <trkpt lat="42.47087" lon="3.01878">
        <ele>914</ele>
        <time>2024-09-23T09:29:19Z</time>
      </trkpt>
      <trkpt lat="42.4709" lon="3.01879">
        <ele>914</ele>
        <time>2024-09-23T09:29:22Z</time>
      </trkpt>
      <trkpt lat="42.47093" lon="3.0188">
        <ele>915</ele>
        <time>2024-09-23T09:29:25Z</time>
      </trkpt>
      <trkpt lat="42.47096" lon="3.01881">
        <ele>914</ele>
        <time>2024-09-23T09:29:29Z</time>
      </trkpt>
      <trkpt lat="42.471" lon="3.01883">
        <ele>916</ele>
        <time>2024-09-23T09:29:32Z</time>
      </trkpt>
      <trkpt lat="42.47103" lon="3.01884">
        <ele>916</ele>
        <time>2024-09-23T09:29:36Z</time>
      </trkpt>
      <trkpt lat="42.47107" lon="3.01885">
        <ele>916</ele>
        <time>2024-09-23T09:29:38Z</time>
      </trkpt>
      <trkpt lat="42.4711" lon="3.01887">
        <ele>916</ele>
        <time>2024-09-23T09:29:41Z</time>
      </trkpt>
      <trkpt lat="42.47113" lon="3.01889">
        <ele>917</ele>
        <time>2024-09-23T09:29:44Z</time>
      </trkpt>
      <trkpt lat="42.47116" lon="3.01891">
        <ele>917</ele>
        <time>2024-09-23T09:29:46Z</time>
      </trkpt>
      <trkpt lat="42.47119" lon="3.01893">
        <ele>917</ele>
        <time>2024-09-23T09:29:49Z</time>
      </trkpt>
      <trkpt lat="42.47121" lon="3.01895">
        <ele>918</ele>
        <time>2024-09-23T09:29:52Z</time>
      </trkpt>
      <trkpt lat="42.47124" lon="3.01897">
        <ele>918</ele>
        <time>2024-09-23T09:29:55Z</time>
      </trkpt>
      <trkpt lat="42.47127" lon="3.019">
        <ele>918</ele>
        <time>2024-09-23T09:29:58Z</time>
      </trkpt>
      <trkpt lat="42.4713" lon="3.01902">
        <ele>918</ele>
        <time>2024-09-23T09:30:01Z</time>
      </trkpt>
      <trkpt lat="42.47133" lon="3.01904">
        <ele>918</ele>
        <time>2024-09-23T09:30:05Z</time>
      </trkpt>
      <trkpt lat="42.47136" lon="3.01906">
        <ele>918</ele>
        <time>2024-09-23T09:30:07Z</time>
      </trkpt>
      <trkpt lat="42.47138" lon="3.01908">
        <ele>918</ele>
        <time>2024-09-23T09:30:10Z</time>
      </trkpt>
      <trkpt lat="42.4714" lon="3.0191">
        <ele>919</ele>
        <time>2024-09-23T09:30:13Z</time>
      </trkpt>
      <trkpt lat="42.47142" lon="3.01913">
        <ele>919</ele>
        <time>2024-09-23T09:30:16Z</time>
      </trkpt>
      <trkpt lat="42.47144" lon="3.01916">
        <ele>920</ele>
        <time>2024-09-23T09:30:20Z</time>
      </trkpt>
      <trkpt lat="42.47147" lon="3.01919">
        <ele>921</ele>
        <time>2024-09-23T09:30:24Z</time>
      </trkpt>
      <trkpt lat="42.47149" lon="3.01923">
        <ele>921</ele>
        <time>2024-09-23T09:30:28Z</time>
      </trkpt>
      <trkpt lat="42.4715" lon="3.01927">
        <ele>922</ele>
        <time>2024-09-23T09:30:31Z</time>
      </trkpt>
      <trkpt lat="42.47152" lon="3.0193">
        <ele>922</ele>
        <time>2024-09-23T09:30:35Z</time>
      </trkpt>
      <trkpt lat="42.47154" lon="3.01932">
        <ele>922</ele>
        <time>2024-09-23T09:30:38Z</time>
      </trkpt>
      <trkpt lat="42.47157" lon="3.01935">
        <ele>923</ele>
        <time>2024-09-23T09:30:46Z</time>
      </trkpt>
      <trkpt lat="42.47159" lon="3.01938">
        <ele>923</ele>
        <time>2024-09-23T09:30:49Z</time>
      </trkpt>
      <trkpt lat="42.47161" lon="3.01941">
        <ele>924</ele>
        <time>2024-09-23T09:30:53Z</time>
      </trkpt>
      <trkpt lat="42.47162" lon="3.01945">
        <ele>924</ele>
        <time>2024-09-23T09:30:56Z</time>
      </trkpt>
      <trkpt lat="42.47164" lon="3.01948">
        <ele>924</ele>
        <time>2024-09-23T09:31:00Z</time>
      </trkpt>
      <trkpt lat="42.47166" lon="3.01951">
        <ele>925</ele>
        <time>2024-09-23T09:31:03Z</time>
      </trkpt>
      <trkpt lat="42.47168" lon="3.01955">
        <ele>926</ele>
        <time>2024-09-23T09:31:06Z</time>
      </trkpt>
      <trkpt lat="42.47169" lon="3.01959">
        <ele>927</ele>
        <time>2024-09-23T09:31:12Z</time>
      </trkpt>
      <trkpt lat="42.47171" lon="3.01963">
        <ele>928</ele>
        <time>2024-09-23T09:31:16Z</time>
      </trkpt>
      <trkpt lat="42.47172" lon="3.01967">
        <ele>928</ele>
        <time>2024-09-23T09:31:19Z</time>
      </trkpt>
      <trkpt lat="42.47172" lon="3.01971">
        <ele>929</ele>
        <time>2024-09-23T09:31:23Z</time>
      </trkpt>
      <trkpt lat="42.47174" lon="3.01975">
        <ele>929</ele>
        <time>2024-09-23T09:31:26Z</time>
      </trkpt>
      <trkpt lat="42.47175" lon="3.01979">
        <ele>930</ele>
        <time>2024-09-23T09:31:30Z</time>
      </trkpt>
      <trkpt lat="42.47176" lon="3.01984">
        <ele>931</ele>
        <time>2024-09-23T09:31:35Z</time>
      </trkpt>
      <trkpt lat="42.47177" lon="3.01988">
        <ele>931</ele>
        <time>2024-09-23T09:31:49Z</time>
      </trkpt>
      <trkpt lat="42.47177" lon="3.01991">
        <ele>932</ele>
        <time>2024-09-23T09:31:52Z</time>
      </trkpt>
      <trkpt lat="42.47179" lon="3.01995">
        <ele>932</ele>
        <time>2024-09-23T09:31:56Z</time>
      </trkpt>
      <trkpt lat="42.47179" lon="3.01999">
        <ele>933</ele>
        <time>2024-09-23T09:32:00Z</time>
      </trkpt>
      <trkpt lat="42.4718" lon="3.02003">
        <ele>934</ele>
        <time>2024-09-23T09:32:04Z</time>
      </trkpt>
      <trkpt lat="42.4718" lon="3.02007">
        <ele>935</ele>
        <time>2024-09-23T09:32:08Z</time>
      </trkpt>
      <trkpt lat="42.4718" lon="3.02011">
        <ele>936</ele>
        <time>2024-09-23T09:32:13Z</time>
      </trkpt>
      <trkpt lat="42.4718" lon="3.02015">
        <ele>937</ele>
        <time>2024-09-23T09:32:17Z</time>
      </trkpt>
      <trkpt lat="42.47181" lon="3.02018">
        <ele>936</ele>
        <time>2024-09-23T09:32:23Z</time>
      </trkpt>
      <trkpt lat="42.47181" lon="3.02022">
        <ele>937</ele>
        <time>2024-09-23T09:32:27Z</time>
      </trkpt>
      <trkpt lat="42.47181" lon="3.02026">
        <ele>937</ele>
        <time>2024-09-23T09:32:31Z</time>
      </trkpt>
      <trkpt lat="42.47182" lon="3.0203">
        <ele>938</ele>
        <time>2024-09-23T09:32:34Z</time>
      </trkpt>
      <trkpt lat="42.47183" lon="3.02034">
        <ele>939</ele>
        <time>2024-09-23T09:32:37Z</time>
      </trkpt>
      <trkpt lat="42.47184" lon="3.02038">
        <ele>940</ele>
        <time>2024-09-23T09:32:47Z</time>
      </trkpt>
      <trkpt lat="42.47184" lon="3.02042">
        <ele>940</ele>
        <time>2024-09-23T09:32:50Z</time>
      </trkpt>
      <trkpt lat="42.47185" lon="3.02046">
        <ele>940</ele>
        <time>2024-09-23T09:32:53Z</time>
      </trkpt>
      <trkpt lat="42.47185" lon="3.02051">
        <ele>941</ele>
        <time>2024-09-23T09:32:57Z</time>
      </trkpt>
      <trkpt lat="42.47186" lon="3.02055">
        <ele>942</ele>
        <time>2024-09-23T09:33:01Z</time>
      </trkpt>
      <trkpt lat="42.47186" lon="3.02059">
        <ele>942</ele>
        <time>2024-09-23T09:33:05Z</time>
      </trkpt>
      <trkpt lat="42.47186" lon="3.02063">
        <ele>942</ele>
        <time>2024-09-23T09:33:08Z</time>
      </trkpt>
      <trkpt lat="42.47187" lon="3.02067">
        <ele>942</ele>
        <time>2024-09-23T09:33:12Z</time>
      </trkpt>
      <trkpt lat="42.47187" lon="3.02071">
        <ele>943</ele>
        <time>2024-09-23T09:33:16Z</time>
      </trkpt>
      <trkpt lat="42.47186" lon="3.02075">
        <ele>944</ele>
        <time>2024-09-23T09:33:20Z</time>
      </trkpt>
      <trkpt lat="42.47186" lon="3.02079">
        <ele>944</ele>
        <time>2024-09-23T09:33:24Z</time>
      </trkpt>
      <trkpt lat="42.47186" lon="3.02083">
        <ele>945</ele>
        <time>2024-09-23T09:33:27Z</time>
      </trkpt>
      <trkpt lat="42.47188" lon="3.02088">
        <ele>945</ele>
        <time>2024-09-23T09:33:30Z</time>
      </trkpt>
      <trkpt lat="42.47189" lon="3.02092">
        <ele>945</ele>
        <time>2024-09-23T09:33:33Z</time>
      </trkpt>
      <trkpt lat="42.4719" lon="3.02096">
        <ele>946</ele>
        <time>2024-09-23T09:33:37Z</time>
      </trkpt>
      <trkpt lat="42.47191" lon="3.021">
        <ele>946</ele>
        <time>2024-09-23T09:33:40Z</time>
      </trkpt>
      <trkpt lat="42.47192" lon="3.02104">
        <ele>946</ele>
        <time>2024-09-23T09:33:43Z</time>
      </trkpt>
      <trkpt lat="42.47192" lon="3.02108">
        <ele>946</ele>
        <time>2024-09-23T09:33:46Z</time>
      </trkpt>
      <trkpt lat="42.47191" lon="3.02112">
        <ele>947</ele>
        <time>2024-09-23T09:33:49Z</time>
      </trkpt>
      <trkpt lat="42.47192" lon="3.02116">
        <ele>947</ele>
        <time>2024-09-23T09:33:52Z</time>
      </trkpt>
      <trkpt lat="42.47194" lon="3.02119">
        <ele>947</ele>
        <time>2024-09-23T09:33:55Z</time>
      </trkpt>
      <trkpt lat="42.47196" lon="3.02122">
        <ele>947</ele>
        <time>2024-09-23T09:33:58Z</time>
      </trkpt>
      <trkpt lat="42.47198" lon="3.02126">
        <ele>947</ele>
        <time>2024-09-23T09:34:02Z</time>
      </trkpt>
      <trkpt lat="42.472" lon="3.02129">
        <ele>948</ele>
        <time>2024-09-23T09:34:06Z</time>
      </trkpt>
      <trkpt lat="42.47201" lon="3.02132">
        <ele>948</ele>
        <time>2024-09-23T09:34:11Z</time>
      </trkpt>
      <trkpt lat="42.47202" lon="3.02136">
        <ele>949</ele>
        <time>2024-09-23T09:34:14Z</time>
      </trkpt>
      <trkpt lat="42.47204" lon="3.0214">
        <ele>949</ele>
        <time>2024-09-23T09:34:18Z</time>
      </trkpt>
      <trkpt lat="42.47206" lon="3.02143">
        <ele>950</ele>
        <time>2024-09-23T09:34:23Z</time>
      </trkpt>
      <trkpt lat="42.47208" lon="3.02146">
        <ele>949</ele>
        <time>2024-09-23T09:34:26Z</time>
      </trkpt>
      <trkpt lat="42.4721" lon="3.02148">
        <ele>950</ele>
        <time>2024-09-23T09:34:29Z</time>
      </trkpt>
      <trkpt lat="42.47213" lon="3.0215">
        <ele>950</ele>
        <time>2024-09-23T09:34:32Z</time>
      </trkpt>
      <trkpt lat="42.47215" lon="3.02153">
        <ele>950</ele>
        <time>2024-09-23T09:34:35Z</time>
      </trkpt>
      <trkpt lat="42.47217" lon="3.02155">
        <ele>950</ele>
        <time>2024-09-23T09:34:38Z</time>
      </trkpt>
      <trkpt lat="42.47219" lon="3.02158">
        <ele>952</ele>
        <time>2024-09-23T09:34:42Z</time>
      </trkpt>
      <trkpt lat="42.47221" lon="3.02161">
        <ele>951</ele>
        <time>2024-09-23T09:34:45Z</time>
      </trkpt>
      <trkpt lat="42.47224" lon="3.02163">
        <ele>952</ele>
        <time>2024-09-23T09:34:49Z</time>
      </trkpt>
      <trkpt lat="42.47227" lon="3.02165">
        <ele>953</ele>
        <time>2024-09-23T09:34:53Z</time>
      </trkpt>
      <trkpt lat="42.47229" lon="3.02168">
        <ele>953</ele>
        <time>2024-09-23T09:34:57Z</time>
      </trkpt>
      <trkpt lat="42.47231" lon="3.02171">
        <ele>953</ele>
        <time>2024-09-23T09:35:00Z</time>
      </trkpt>
      <trkpt lat="42.47233" lon="3.02173">
        <ele>953</ele>
        <time>2024-09-23T09:35:03Z</time>
      </trkpt>
      <trkpt lat="42.47236" lon="3.02174">
        <ele>953</ele>
        <time>2024-09-23T09:35:07Z</time>
      </trkpt>
      <trkpt lat="42.47239" lon="3.02176">
        <ele>953</ele>
        <time>2024-09-23T09:35:11Z</time>
      </trkpt>
      <trkpt lat="42.47242" lon="3.02178">
        <ele>953</ele>
        <time>2024-09-23T09:35:15Z</time>
      </trkpt>
      <trkpt lat="42.47244" lon="3.0218">
        <ele>953</ele>
        <time>2024-09-23T09:35:19Z</time>
      </trkpt>
      <trkpt lat="42.47247" lon="3.02183">
        <ele>954</ele>
        <time>2024-09-23T09:35:24Z</time>
      </trkpt>
      <trkpt lat="42.47249" lon="3.02185">
        <ele>954</ele>
        <time>2024-09-23T09:35:28Z</time>
      </trkpt>
      <trkpt lat="42.47251" lon="3.02186">
        <ele>955</ele>
        <time>2024-09-23T09:35:32Z</time>
      </trkpt>
      <trkpt lat="42.47253" lon="3.02189">
        <ele>955</ele>
        <time>2024-09-23T09:35:37Z</time>
      </trkpt>
      <trkpt lat="42.47255" lon="3.02192">
        <ele>956</ele>
        <time>2024-09-23T09:35:42Z</time>
      </trkpt>
      <trkpt lat="42.47255" lon="3.02196">
        <ele>957</ele>
        <time>2024-09-23T09:35:47Z</time>
      </trkpt>
      <trkpt lat="42.47255" lon="3.02199">
        <ele>958</ele>
        <time>2024-09-23T09:35:51Z</time>
      </trkpt>
      <trkpt lat="42.47257" lon="3.02202">
        <ele>959</ele>
        <time>2024-09-23T09:35:55Z</time>
      </trkpt>
      <trkpt lat="42.47258" lon="3.02206">
        <ele>960</ele>
        <time>2024-09-23T09:35:59Z</time>
      </trkpt>
      <trkpt lat="42.47258" lon="3.02209">
        <ele>963</ele>
        <time>2024-09-23T09:37:05Z</time>
      </trkpt>
      <trkpt lat="42.47259" lon="3.02213">
        <ele>963</ele>
        <time>2024-09-23T09:37:12Z</time>
      </trkpt>
      <trkpt lat="42.47261" lon="3.02217">
        <ele>964</ele>
        <time>2024-09-23T09:37:19Z</time>
      </trkpt>
      <trkpt lat="42.47262" lon="3.0222">
        <ele>966</ele>
        <time>2024-09-23T09:37:23Z</time>
      </trkpt>
      <trkpt lat="42.47264" lon="3.02224">
        <ele>967</ele>
        <time>2024-09-23T09:37:27Z</time>
      </trkpt>
      <trkpt lat="42.47264" lon="3.02228">
        <ele>968</ele>
        <time>2024-09-23T09:37:32Z</time>
      </trkpt>
      <trkpt lat="42.47265" lon="3.02232">
        <ele>969</ele>
        <time>2024-09-23T09:37:38Z</time>
      </trkpt>
      <trkpt lat="42.47265" lon="3.02236">
        <ele>969</ele>
        <time>2024-09-23T09:37:42Z</time>
      </trkpt>
      <trkpt lat="42.47266" lon="3.0224">
        <ele>969</ele>
        <time>2024-09-23T09:37:45Z</time>
      </trkpt>
      <trkpt lat="42.47267" lon="3.02244">
        <ele>970</ele>
        <time>2024-09-23T09:37:49Z</time>
      </trkpt>
      <trkpt lat="42.47268" lon="3.02248">
        <ele>971</ele>
        <time>2024-09-23T09:37:53Z</time>
      </trkpt>
      <trkpt lat="42.47269" lon="3.02252">
        <ele>972</ele>
        <time>2024-09-23T09:37:56Z</time>
      </trkpt>
      <trkpt lat="42.4727" lon="3.02256">
        <ele>972</ele>
        <time>2024-09-23T09:38:00Z</time>
      </trkpt>
      <trkpt lat="42.47272" lon="3.02259">
        <ele>972</ele>
        <time>2024-09-23T09:38:03Z</time>
      </trkpt>
      <trkpt lat="42.47274" lon="3.02263">
        <ele>973</ele>
        <time>2024-09-23T09:38:06Z</time>
      </trkpt>
      <trkpt lat="42.47275" lon="3.02266">
        <ele>973</ele>
        <time>2024-09-23T09:38:09Z</time>
      </trkpt>
      <trkpt lat="42.47277" lon="3.0227">
        <ele>974</ele>
        <time>2024-09-23T09:38:12Z</time>
      </trkpt>
      <trkpt lat="42.47279" lon="3.02274">
        <ele>973</ele>
        <time>2024-09-23T09:38:15Z</time>
      </trkpt>
      <trkpt lat="42.47281" lon="3.02276">
        <ele>974</ele>
        <time>2024-09-23T09:38:18Z</time>
      </trkpt>
      <trkpt lat="42.47282" lon="3.0228">
        <ele>974</ele>
        <time>2024-09-23T09:38:21Z</time>
      </trkpt>
      <trkpt lat="42.47283" lon="3.02284">
        <ele>974</ele>
        <time>2024-09-23T09:38:25Z</time>
      </trkpt>
      <trkpt lat="42.47285" lon="3.02288">
        <ele>974</ele>
        <time>2024-09-23T09:38:29Z</time>
      </trkpt>
      <trkpt lat="42.47286" lon="3.02292">
        <ele>974</ele>
        <time>2024-09-23T09:38:32Z</time>
      </trkpt>
      <trkpt lat="42.47287" lon="3.02297">
        <ele>973</ele>
        <time>2024-09-23T09:38:35Z</time>
      </trkpt>
      <trkpt lat="42.47288" lon="3.023">
        <ele>973</ele>
        <time>2024-09-23T09:38:38Z</time>
      </trkpt>
      <trkpt lat="42.47289" lon="3.02304">
        <ele>972</ele>
        <time>2024-09-23T09:38:41Z</time>
      </trkpt>
      <trkpt lat="42.47291" lon="3.02308">
        <ele>972</ele>
        <time>2024-09-23T09:38:44Z</time>
      </trkpt>
      <trkpt lat="42.47293" lon="3.02312">
        <ele>972</ele>
        <time>2024-09-23T09:38:47Z</time>
      </trkpt>
      <trkpt lat="42.47294" lon="3.02315">
        <ele>972</ele>
        <time>2024-09-23T09:38:51Z</time>
      </trkpt>
      <trkpt lat="42.47295" lon="3.02319">
        <ele>971</ele>
        <time>2024-09-23T09:38:54Z</time>
      </trkpt>
      <trkpt lat="42.47295" lon="3.02324">
        <ele>971</ele>
        <time>2024-09-23T09:38:57Z</time>
      </trkpt>
      <trkpt lat="42.47296" lon="3.02328">
        <ele>971</ele>
        <time>2024-09-23T09:39:08Z</time>
      </trkpt>
      <trkpt lat="42.47297" lon="3.02332">
        <ele>971</ele>
        <time>2024-09-23T09:39:11Z</time>
      </trkpt>
      <trkpt lat="42.473" lon="3.02335">
        <ele>970</ele>
        <time>2024-09-23T09:39:18Z</time>
      </trkpt>
      <trkpt lat="42.47303" lon="3.02338">
        <ele>969</ele>
        <time>2024-09-23T09:39:21Z</time>
      </trkpt>
      <trkpt lat="42.47305" lon="3.02343">
        <ele>969</ele>
        <time>2024-09-23T09:39:28Z</time>
      </trkpt>
      <trkpt lat="42.47307" lon="3.02347">
        <ele>968</ele>
        <time>2024-09-23T09:39:30Z</time>
      </trkpt>
      <trkpt lat="42.47308" lon="3.02351">
        <ele>968</ele>
        <time>2024-09-23T09:39:33Z</time>
      </trkpt>
      <trkpt lat="42.47308" lon="3.02355">
        <ele>967</ele>
        <time>2024-09-23T09:39:37Z</time>
      </trkpt>
      <trkpt lat="42.47308" lon="3.02359">
        <ele>967</ele>
        <time>2024-09-23T09:39:40Z</time>
      </trkpt>
      <trkpt lat="42.47307" lon="3.02363">
        <ele>966</ele>
        <time>2024-09-23T09:39:43Z</time>
      </trkpt>
      <trkpt lat="42.47307" lon="3.02367">
        <ele>966</ele>
        <time>2024-09-23T09:39:46Z</time>
      </trkpt>
      <trkpt lat="42.47307" lon="3.02371">
        <ele>967</ele>
        <time>2024-09-23T09:39:49Z</time>
      </trkpt>
      <trkpt lat="42.47307" lon="3.02376">
        <ele>966</ele>
        <time>2024-09-23T09:39:52Z</time>
      </trkpt>
      <trkpt lat="42.47307" lon="3.0238">
        <ele>966</ele>
        <time>2024-09-23T09:39:55Z</time>
      </trkpt>
      <trkpt lat="42.47307" lon="3.02385">
        <ele>965</ele>
        <time>2024-09-23T09:39:58Z</time>
      </trkpt>
      <trkpt lat="42.47306" lon="3.02389">
        <ele>965</ele>
        <time>2024-09-23T09:40:01Z</time>
      </trkpt>
      <trkpt lat="42.47305" lon="3.02393">
        <ele>965</ele>
        <time>2024-09-23T09:40:04Z</time>
      </trkpt>
      <trkpt lat="42.47304" lon="3.02397">
        <ele>964</ele>
        <time>2024-09-23T09:40:07Z</time>
      </trkpt>
      <trkpt lat="42.47303" lon="3.02401">
        <ele>963</ele>
        <time>2024-09-23T09:40:09Z</time>
      </trkpt>
      <trkpt lat="42.47302" lon="3.02405">
        <ele>963</ele>
        <time>2024-09-23T09:40:11Z</time>
      </trkpt>
      <trkpt lat="42.47302" lon="3.0241">
        <ele>963</ele>
        <time>2024-09-23T09:40:14Z</time>
      </trkpt>
      <trkpt lat="42.47304" lon="3.02413">
        <ele>964</ele>
        <time>2024-09-23T09:40:17Z</time>
      </trkpt>
      <trkpt lat="42.47306" lon="3.02417">
        <ele>964</ele>
        <time>2024-09-23T09:40:20Z</time>
      </trkpt>
      <trkpt lat="42.47307" lon="3.0242">
        <ele>964</ele>
        <time>2024-09-23T09:40:24Z</time>
      </trkpt>
      <trkpt lat="42.47308" lon="3.02423">
        <ele>965</ele>
        <time>2024-09-23T09:40:27Z</time>
      </trkpt>
      <trkpt lat="42.47309" lon="3.02427">
        <ele>966</ele>
        <time>2024-09-23T09:40:30Z</time>
      </trkpt>
      <trkpt lat="42.4731" lon="3.02431">
        <ele>966</ele>
        <time>2024-09-23T09:40:34Z</time>
      </trkpt>
      <trkpt lat="42.4731" lon="3.02436">
        <ele>967</ele>
        <time>2024-09-23T09:40:38Z</time>
      </trkpt>
      <trkpt lat="42.47311" lon="3.02441">
        <ele>967</ele>
        <time>2024-09-23T09:40:41Z</time>
      </trkpt>
      <trkpt lat="42.47312" lon="3.02445">
        <ele>967</ele>
        <time>2024-09-23T09:40:44Z</time>
      </trkpt>
      <trkpt lat="42.47312" lon="3.02449">
        <ele>966</ele>
        <time>2024-09-23T09:40:47Z</time>
      </trkpt>
      <trkpt lat="42.47313" lon="3.02453">
        <ele>966</ele>
        <time>2024-09-23T09:40:50Z</time>
      </trkpt>
      <trkpt lat="42.47314" lon="3.02457">
        <ele>967</ele>
        <time>2024-09-23T09:40:54Z</time>
      </trkpt>
      <trkpt lat="42.47315" lon="3.02461">
        <ele>967</ele>
        <time>2024-09-23T09:40:56Z</time>
      </trkpt>
      <trkpt lat="42.47316" lon="3.02464">
        <ele>967</ele>
        <time>2024-09-23T09:41:00Z</time>
      </trkpt>
      <trkpt lat="42.47317" lon="3.02468">
        <ele>967</ele>
        <time>2024-09-23T09:41:03Z</time>
      </trkpt>
      <trkpt lat="42.47318" lon="3.02472">
        <ele>967</ele>
        <time>2024-09-23T09:41:06Z</time>
      </trkpt>
      <trkpt lat="42.47318" lon="3.02476">
        <ele>966</ele>
        <time>2024-09-23T09:41:09Z</time>
      </trkpt>
      <trkpt lat="42.47319" lon="3.0248">
        <ele>967</ele>
        <time>2024-09-23T09:41:12Z</time>
      </trkpt>
      <trkpt lat="42.47319" lon="3.02485">
        <ele>967</ele>
        <time>2024-09-23T09:41:16Z</time>
      </trkpt>
      <trkpt lat="42.4732" lon="3.02489">
        <ele>966</ele>
        <time>2024-09-23T09:41:19Z</time>
      </trkpt>
      <trkpt lat="42.47321" lon="3.02493">
        <ele>966</ele>
        <time>2024-09-23T09:41:21Z</time>
      </trkpt>
      <trkpt lat="42.47321" lon="3.02497">
        <ele>966</ele>
        <time>2024-09-23T09:41:24Z</time>
      </trkpt>
      <trkpt lat="42.47321" lon="3.02501">
        <ele>965</ele>
        <time>2024-09-23T09:41:27Z</time>
      </trkpt>
      <trkpt lat="42.47321" lon="3.02506">
        <ele>965</ele>
        <time>2024-09-23T09:41:31Z</time>
      </trkpt>
      <trkpt lat="42.47319" lon="3.0251">
        <ele>964</ele>
        <time>2024-09-23T09:45:02Z</time>
      </trkpt>
      <trkpt lat="42.47319" lon="3.02514">
        <ele>965</ele>
        <time>2024-09-23T09:45:05Z</time>
      </trkpt>
      <trkpt lat="42.47318" lon="3.02518">
        <ele>964</ele>
        <time>2024-09-23T09:45:08Z</time>
      </trkpt>
      <trkpt lat="42.47317" lon="3.02522">
        <ele>965</ele>
        <time>2024-09-23T09:45:10Z</time>
      </trkpt>
      <trkpt lat="42.47316" lon="3.02527">
        <ele>963</ele>
        <time>2024-09-23T09:45:14Z</time>
      </trkpt>
      <trkpt lat="42.47315" lon="3.02531">
        <ele>964</ele>
        <time>2024-09-23T09:45:16Z</time>
      </trkpt>
      <trkpt lat="42.47314" lon="3.02534">
        <ele>963</ele>
        <time>2024-09-23T09:45:19Z</time>
      </trkpt>
      <trkpt lat="42.47313" lon="3.02539">
        <ele>962</ele>
        <time>2024-09-23T09:45:22Z</time>
      </trkpt>
      <trkpt lat="42.47312" lon="3.02543">
        <ele>962</ele>
        <time>2024-09-23T09:45:25Z</time>
      </trkpt>
      <trkpt lat="42.4731" lon="3.02547">
        <ele>962</ele>
        <time>2024-09-23T09:45:28Z</time>
      </trkpt>
      <trkpt lat="42.47309" lon="3.02551">
        <ele>961</ele>
        <time>2024-09-23T09:45:30Z</time>
      </trkpt>
      <trkpt lat="42.47309" lon="3.02555">
        <ele>961</ele>
        <time>2024-09-23T09:45:33Z</time>
      </trkpt>
      <trkpt lat="42.47308" lon="3.02559">
        <ele>960</ele>
        <time>2024-09-23T09:45:36Z</time>
      </trkpt>
      <trkpt lat="42.47307" lon="3.02564">
        <ele>959</ele>
        <time>2024-09-23T09:45:39Z</time>
      </trkpt>
      <trkpt lat="42.47307" lon="3.02568">
        <ele>958</ele>
        <time>2024-09-23T09:45:42Z</time>
      </trkpt>
      <trkpt lat="42.47307" lon="3.02572">
        <ele>958</ele>
        <time>2024-09-23T09:45:46Z</time>
      </trkpt>
      <trkpt lat="42.47307" lon="3.02577">
        <ele>958</ele>
        <time>2024-09-23T09:45:48Z</time>
      </trkpt>
      <trkpt lat="42.47306" lon="3.0258">
        <ele>957</ele>
        <time>2024-09-23T09:45:51Z</time>
      </trkpt>
      <trkpt lat="42.47306" lon="3.02584">
        <ele>957</ele>
        <time>2024-09-23T09:45:55Z</time>
      </trkpt>
      <trkpt lat="42.47305" lon="3.02588">
        <ele>956</ele>
        <time>2024-09-23T09:45:57Z</time>
      </trkpt>
      <trkpt lat="42.47305" lon="3.02592">
        <ele>956</ele>
        <time>2024-09-23T09:45:59Z</time>
      </trkpt>
      <trkpt lat="42.47305" lon="3.02595">
        <ele>957</ele>
        <time>2024-09-23T09:46:01Z</time>
      </trkpt>
      <trkpt lat="42.47304" lon="3.026">
        <ele>955</ele>
        <time>2024-09-23T09:46:04Z</time>
      </trkpt>
      <trkpt lat="42.47302" lon="3.02604">
        <ele>955</ele>
        <time>2024-09-23T09:46:07Z</time>
      </trkpt>
      <trkpt lat="42.47301" lon="3.02609">
        <ele>955</ele>
        <time>2024-09-23T09:46:10Z</time>
      </trkpt>
      <trkpt lat="42.47301" lon="3.02613">
        <ele>955</ele>
        <time>2024-09-23T09:46:13Z</time>
      </trkpt>
      <trkpt lat="42.47302" lon="3.02618">
        <ele>954</ele>
        <time>2024-09-23T09:46:16Z</time>
      </trkpt>
      <trkpt lat="42.47302" lon="3.02622">
        <ele>953</ele>
        <time>2024-09-23T09:46:19Z</time>
      </trkpt>
      <trkpt lat="42.47303" lon="3.02626">
        <ele>952</ele>
        <time>2024-09-23T09:46:22Z</time>
      </trkpt>
      <trkpt lat="42.47303" lon="3.02631">
        <ele>951</ele>
        <time>2024-09-23T09:46:25Z</time>
      </trkpt>
      <trkpt lat="42.47304" lon="3.02636">
        <ele>951</ele>
        <time>2024-09-23T09:46:28Z</time>
      </trkpt>
      <trkpt lat="42.47304" lon="3.02641">
        <ele>950</ele>
        <time>2024-09-23T09:46:31Z</time>
      </trkpt>
      <trkpt lat="42.47305" lon="3.02645">
        <ele>949</ele>
        <time>2024-09-23T09:46:34Z</time>
      </trkpt>
      <trkpt lat="42.47305" lon="3.0265">
        <ele>949</ele>
        <time>2024-09-23T09:46:37Z</time>
      </trkpt>
      <trkpt lat="42.47306" lon="3.02655">
        <ele>949</ele>
        <time>2024-09-23T09:46:41Z</time>
      </trkpt>
      <trkpt lat="42.47306" lon="3.0266">
        <ele>948</ele>
        <time>2024-09-23T09:46:44Z</time>
      </trkpt>
      <trkpt lat="42.47306" lon="3.02664">
        <ele>947</ele>
        <time>2024-09-23T09:46:47Z</time>
      </trkpt>
      <trkpt lat="42.47307" lon="3.02668">
        <ele>947</ele>
        <time>2024-09-23T09:46:50Z</time>
      </trkpt>
      <trkpt lat="42.47308" lon="3.02672">
        <ele>946</ele>
        <time>2024-09-23T09:46:53Z</time>
      </trkpt>
      <trkpt lat="42.47309" lon="3.02676">
        <ele>946</ele>
        <time>2024-09-23T09:46:56Z</time>
      </trkpt>
      <trkpt lat="42.47309" lon="3.0268">
        <ele>946</ele>
        <time>2024-09-23T09:46:59Z</time>
      </trkpt>
      <trkpt lat="42.4731" lon="3.02685">
        <ele>945</ele>
        <time>2024-09-23T09:47:02Z</time>
      </trkpt>
      <trkpt lat="42.47311" lon="3.02688">
        <ele>944</ele>
        <time>2024-09-23T09:47:05Z</time>
      </trkpt>
      <trkpt lat="42.47312" lon="3.02693">
        <ele>943</ele>
        <time>2024-09-23T09:47:09Z</time>
      </trkpt>
      <trkpt lat="42.47312" lon="3.02697">
        <ele>943</ele>
        <time>2024-09-23T09:47:12Z</time>
      </trkpt>
      <trkpt lat="42.47312" lon="3.02701">
        <ele>942</ele>
        <time>2024-09-23T09:47:15Z</time>
      </trkpt>
      <trkpt lat="42.47312" lon="3.02705">
        <ele>942</ele>
        <time>2024-09-23T09:47:17Z</time>
      </trkpt>
      <trkpt lat="42.47311" lon="3.02709">
        <ele>942</ele>
        <time>2024-09-23T09:47:20Z</time>
      </trkpt>
      <trkpt lat="42.47312" lon="3.02713">
        <ele>941</ele>
        <time>2024-09-23T09:47:23Z</time>
      </trkpt>
      <trkpt lat="42.47312" lon="3.02717">
        <ele>941</ele>
        <time>2024-09-23T09:47:27Z</time>
      </trkpt>
      <trkpt lat="42.47312" lon="3.02721">
        <ele>941</ele>
        <time>2024-09-23T09:47:30Z</time>
      </trkpt>
      <trkpt lat="42.47312" lon="3.02725">
        <ele>941</ele>
        <time>2024-09-23T09:47:33Z</time>
      </trkpt>
      <trkpt lat="42.47312" lon="3.02729">
        <ele>940</ele>
        <time>2024-09-23T09:47:37Z</time>
      </trkpt>
      <trkpt lat="42.47311" lon="3.02734">
        <ele>939</ele>
        <time>2024-09-23T09:47:40Z</time>
      </trkpt>
      <trkpt lat="42.47312" lon="3.02738">
        <ele>939</ele>
        <time>2024-09-23T09:47:43Z</time>
      </trkpt>
      <trkpt lat="42.47312" lon="3.02742">
        <ele>938</ele>
        <time>2024-09-23T09:47:46Z</time>
      </trkpt>
      <trkpt lat="42.47312" lon="3.02747">
        <ele>939</ele>
        <time>2024-09-23T09:47:49Z</time>
      </trkpt>
      <trkpt lat="42.47313" lon="3.02751">
        <ele>937</ele>
        <time>2024-09-23T09:47:52Z</time>
      </trkpt>
      <trkpt lat="42.47313" lon="3.02755">
        <ele>937</ele>
        <time>2024-09-23T09:47:55Z</time>
      </trkpt>
      <trkpt lat="42.47313" lon="3.0276">
        <ele>937</ele>
        <time>2024-09-23T09:47:59Z</time>
      </trkpt>
      <trkpt lat="42.47313" lon="3.02763">
        <ele>936</ele>
        <time>2024-09-23T09:48:02Z</time>
      </trkpt>
      <trkpt lat="42.47313" lon="3.02768">
        <ele>935</ele>
        <time>2024-09-23T09:48:05Z</time>
      </trkpt>
      <trkpt lat="42.47313" lon="3.02772">
        <ele>935</ele>
        <time>2024-09-23T09:48:08Z</time>
      </trkpt>
      <trkpt lat="42.47314" lon="3.02776">
        <ele>934</ele>
        <time>2024-09-23T09:48:10Z</time>
      </trkpt>
      <trkpt lat="42.47315" lon="3.02779">
        <ele>933</ele>
        <time>2024-09-23T09:48:13Z</time>
      </trkpt>
      <trkpt lat="42.47318" lon="3.02782">
        <ele>932</ele>
        <time>2024-09-23T09:48:16Z</time>
      </trkpt>
      <trkpt lat="42.4732" lon="3.02785">
        <ele>931</ele>
        <time>2024-09-23T09:48:19Z</time>
      </trkpt>
      <trkpt lat="42.47322" lon="3.02788">
        <ele>930</ele>
        <time>2024-09-23T09:48:22Z</time>
      </trkpt>
      <trkpt lat="42.47324" lon="3.02791">
        <ele>929</ele>
        <time>2024-09-23T09:48:25Z</time>
      </trkpt>
      <trkpt lat="42.47326" lon="3.02794">
        <ele>929</ele>
        <time>2024-09-23T09:48:27Z</time>
      </trkpt>
      <trkpt lat="42.47328" lon="3.02798">
        <ele>930</ele>
        <time>2024-09-23T09:48:30Z</time>
      </trkpt>
      <trkpt lat="42.4733" lon="3.02802">
        <ele>930</ele>
        <time>2024-09-23T09:48:34Z</time>
      </trkpt>
      <trkpt lat="42.47332" lon="3.02807">
        <ele>930</ele>
        <time>2024-09-23T09:48:38Z</time>
      </trkpt>
      <trkpt lat="42.47334" lon="3.0281">
        <ele>930</ele>
        <time>2024-09-23T09:48:53Z</time>
      </trkpt>
      <trkpt lat="42.47336" lon="3.02813">
        <ele>929</ele>
        <time>2024-09-23T09:48:56Z</time>
      </trkpt>
      <trkpt lat="42.47337" lon="3.02817">
        <ele>929</ele>
        <time>2024-09-23T09:48:59Z</time>
      </trkpt>
      <trkpt lat="42.47339" lon="3.02822">
        <ele>929</ele>
        <time>2024-09-23T09:49:03Z</time>
      </trkpt>
      <trkpt lat="42.47341" lon="3.02825">
        <ele>929</ele>
        <time>2024-09-23T09:49:06Z</time>
      </trkpt>
      <trkpt lat="42.47342" lon="3.02829">
        <ele>927</ele>
        <time>2024-09-23T09:49:09Z</time>
      </trkpt>
      <trkpt lat="42.47344" lon="3.02832">
        <ele>928</ele>
        <time>2024-09-23T09:49:26Z</time>
      </trkpt>
      <trkpt lat="42.47345" lon="3.02836">
        <ele>927</ele>
        <time>2024-09-23T09:49:29Z</time>
      </trkpt>
      <trkpt lat="42.47347" lon="3.02839">
        <ele>927</ele>
        <time>2024-09-23T09:49:32Z</time>
      </trkpt>
      <trkpt lat="42.47349" lon="3.02843">
        <ele>926</ele>
        <time>2024-09-23T09:49:35Z</time>
      </trkpt>
      <trkpt lat="42.47351" lon="3.02846">
        <ele>926</ele>
        <time>2024-09-23T09:49:38Z</time>
      </trkpt>
      <trkpt lat="42.47353" lon="3.0285">
        <ele>925</ele>
        <time>2024-09-23T09:49:41Z</time>
      </trkpt>
      <trkpt lat="42.47355" lon="3.02854">
        <ele>925</ele>
        <time>2024-09-23T09:49:45Z</time>
      </trkpt>
      <trkpt lat="42.47357" lon="3.02858">
        <ele>925</ele>
        <time>2024-09-23T09:49:48Z</time>
      </trkpt>
      <trkpt lat="42.47359" lon="3.02862">
        <ele>924</ele>
        <time>2024-09-23T09:49:51Z</time>
      </trkpt>
      <trkpt lat="42.4736" lon="3.02866">
        <ele>924</ele>
        <time>2024-09-23T09:49:53Z</time>
      </trkpt>
      <trkpt lat="42.47362" lon="3.02869">
        <ele>923</ele>
        <time>2024-09-23T09:49:56Z</time>
      </trkpt>
      <trkpt lat="42.47364" lon="3.02872">
        <ele>923</ele>
        <time>2024-09-23T09:49:59Z</time>
      </trkpt>
      <trkpt lat="42.47366" lon="3.02876">
        <ele>923</ele>
        <time>2024-09-23T09:50:02Z</time>
      </trkpt>
      <trkpt lat="42.47368" lon="3.02879">
        <ele>923</ele>
        <time>2024-09-23T09:50:06Z</time>
      </trkpt>
      <trkpt lat="42.47371" lon="3.02882">
        <ele>922</ele>
        <time>2024-09-23T09:50:09Z</time>
      </trkpt>
      <trkpt lat="42.47374" lon="3.02885">
        <ele>921</ele>
        <time>2024-09-23T09:50:12Z</time>
      </trkpt>
      <trkpt lat="42.47376" lon="3.02888">
        <ele>922</ele>
        <time>2024-09-23T09:50:15Z</time>
      </trkpt>
      <trkpt lat="42.4738" lon="3.0289">
        <ele>921</ele>
        <time>2024-09-23T09:50:18Z</time>
      </trkpt>
      <trkpt lat="42.47383" lon="3.02893">
        <ele>921</ele>
        <time>2024-09-23T09:50:21Z</time>
      </trkpt>
      <trkpt lat="42.47386" lon="3.02895">
        <ele>921</ele>
        <time>2024-09-23T09:50:24Z</time>
      </trkpt>
      <trkpt lat="42.47389" lon="3.02897">
        <ele>921</ele>
        <time>2024-09-23T09:50:27Z</time>
      </trkpt>
      <trkpt lat="42.47392" lon="3.02899">
        <ele>920</ele>
        <time>2024-09-23T09:50:30Z</time>
      </trkpt>
      <trkpt lat="42.47395" lon="3.02902">
        <ele>921</ele>
        <time>2024-09-23T09:50:32Z</time>
      </trkpt>
      <trkpt lat="42.47399" lon="3.02905">
        <ele>921</ele>
        <time>2024-09-23T09:50:35Z</time>
      </trkpt>
      <trkpt lat="42.47402" lon="3.02907">
        <ele>921</ele>
        <time>2024-09-23T09:50:39Z</time>
      </trkpt>
      <trkpt lat="42.47405" lon="3.0291">
        <ele>921</ele>
        <time>2024-09-23T09:50:42Z</time>
      </trkpt>
      <trkpt lat="42.47408" lon="3.02913">
        <ele>920</ele>
        <time>2024-09-23T09:50:45Z</time>
      </trkpt>
      <trkpt lat="42.4741" lon="3.02916">
        <ele>920</ele>
        <time>2024-09-23T09:50:48Z</time>
      </trkpt>
      <trkpt lat="42.47412" lon="3.02918">
        <ele>919</ele>
        <time>2024-09-23T09:50:51Z</time>
      </trkpt>
      <trkpt lat="42.47414" lon="3.0292">
        <ele>920</ele>
        <time>2024-09-23T09:50:53Z</time>
      </trkpt>
      <trkpt lat="42.47417" lon="3.02922">
        <ele>919</ele>
        <time>2024-09-23T09:50:56Z</time>
      </trkpt>
      <trkpt lat="42.47419" lon="3.02925">
        <ele>919</ele>
        <time>2024-09-23T09:50:58Z</time>
      </trkpt>
      <trkpt lat="42.47421" lon="3.02928">
        <ele>919</ele>
        <time>2024-09-23T09:51:01Z</time>
      </trkpt>
      <trkpt lat="42.47423" lon="3.02931">
        <ele>919</ele>
        <time>2024-09-23T09:51:04Z</time>
      </trkpt>
      <trkpt lat="42.47426" lon="3.02933">
        <ele>919</ele>
        <time>2024-09-23T09:51:06Z</time>
      </trkpt>
      <trkpt lat="42.47428" lon="3.02935">
        <ele>919</ele>
        <time>2024-09-23T09:51:08Z</time>
      </trkpt>
      <trkpt lat="42.4743" lon="3.02938">
        <ele>919</ele>
        <time>2024-09-23T09:51:10Z</time>
      </trkpt>
      <trkpt lat="42.47434" lon="3.0294">
        <ele>919</ele>
        <time>2024-09-23T09:51:13Z</time>
      </trkpt>
      <trkpt lat="42.47437" lon="3.02942">
        <ele>920</ele>
        <time>2024-09-23T09:51:16Z</time>
      </trkpt>
      <trkpt lat="42.4744" lon="3.02944">
        <ele>920</ele>
        <time>2024-09-23T09:51:20Z</time>
      </trkpt>
      <trkpt lat="42.47442" lon="3.02946">
        <ele>920</ele>
        <time>2024-09-23T09:51:23Z</time>
      </trkpt>
      <trkpt lat="42.47445" lon="3.02949">
        <ele>919</ele>
        <time>2024-09-23T09:51:26Z</time>
      </trkpt>
      <trkpt lat="42.47447" lon="3.02952">
        <ele>920</ele>
        <time>2024-09-23T09:51:30Z</time>
      </trkpt>
      <trkpt lat="42.47449" lon="3.02956">
        <ele>919</ele>
        <time>2024-09-23T09:51:34Z</time>
      </trkpt>
      <trkpt lat="42.47451" lon="3.0296">
        <ele>919</ele>
        <time>2024-09-23T09:51:37Z</time>
      </trkpt>
      <trkpt lat="42.47452" lon="3.02964">
        <ele>919</ele>
        <time>2024-09-23T09:51:40Z</time>
      </trkpt>
      <trkpt lat="42.47453" lon="3.02968">
        <ele>920</ele>
        <time>2024-09-23T09:51:43Z</time>
      </trkpt>
      <trkpt lat="42.47456" lon="3.02972">
        <ele>919</ele>
        <time>2024-09-23T09:51:47Z</time>
      </trkpt>
      <trkpt lat="42.47458" lon="3.02975">
        <ele>918</ele>
        <time>2024-09-23T09:51:51Z</time>
      </trkpt>
      <trkpt lat="42.47459" lon="3.0298">
        <ele>919</ele>
        <time>2024-09-23T09:51:55Z</time>
      </trkpt>
      <trkpt lat="42.4746" lon="3.02984">
        <ele>918</ele>
        <time>2024-09-23T09:52:13Z</time>
      </trkpt>
      <trkpt lat="42.47461" lon="3.02988">
        <ele>917</ele>
        <time>2024-09-23T09:52:16Z</time>
      </trkpt>
      <trkpt lat="42.47461" lon="3.02993">
        <ele>916</ele>
        <time>2024-09-23T09:52:20Z</time>
      </trkpt>
      <trkpt lat="42.47463" lon="3.02996">
        <ele>915</ele>
        <time>2024-09-23T09:52:24Z</time>
      </trkpt>
      <trkpt lat="42.47465" lon="3.02999">
        <ele>914</ele>
        <time>2024-09-23T09:52:27Z</time>
      </trkpt>
      <trkpt lat="42.47466" lon="3.03002">
        <ele>913</ele>
        <time>2024-09-23T09:52:30Z</time>
      </trkpt>
      <trkpt lat="42.47467" lon="3.03006">
        <ele>913</ele>
        <time>2024-09-23T09:52:33Z</time>
      </trkpt>
      <trkpt lat="42.47469" lon="3.0301">
        <ele>912</ele>
        <time>2024-09-23T09:52:36Z</time>
      </trkpt>
      <trkpt lat="42.4747" lon="3.03014">
        <ele>912</ele>
        <time>2024-09-23T09:52:38Z</time>
      </trkpt>
      <trkpt lat="42.47471" lon="3.03018">
        <ele>912</ele>
        <time>2024-09-23T09:52:41Z</time>
      </trkpt>
      <trkpt lat="42.47471" lon="3.03021">
        <ele>912</ele>
        <time>2024-09-23T09:52:44Z</time>
      </trkpt>
      <trkpt lat="42.47471" lon="3.03026">
        <ele>910</ele>
        <time>2024-09-23T09:52:51Z</time>
      </trkpt>
      <trkpt lat="42.47471" lon="3.0303">
        <ele>909</ele>
        <time>2024-09-23T09:52:54Z</time>
      </trkpt>
      <trkpt lat="42.47471" lon="3.03035">
        <ele>908</ele>
        <time>2024-09-23T09:52:58Z</time>
      </trkpt>
      <trkpt lat="42.47471" lon="3.03039">
        <ele>908</ele>
        <time>2024-09-23T09:53:01Z</time>
      </trkpt>
      <trkpt lat="42.47472" lon="3.03043">
        <ele>908</ele>
        <time>2024-09-23T09:53:03Z</time>
      </trkpt>
      <trkpt lat="42.47473" lon="3.03047">
        <ele>907</ele>
        <time>2024-09-23T09:53:06Z</time>
      </trkpt>
      <trkpt lat="42.47473" lon="3.03051">
        <ele>906</ele>
        <time>2024-09-23T09:53:08Z</time>
      </trkpt>
      <trkpt lat="42.47475" lon="3.03054">
        <ele>905</ele>
        <time>2024-09-23T09:53:11Z</time>
      </trkpt>
      <trkpt lat="42.47476" lon="3.03058">
        <ele>904</ele>
        <time>2024-09-23T09:53:14Z</time>
      </trkpt>
      <trkpt lat="42.47476" lon="3.03062">
        <ele>904</ele>
        <time>2024-09-23T09:53:17Z</time>
      </trkpt>
      <trkpt lat="42.47478" lon="3.03065">
        <ele>903</ele>
        <time>2024-09-23T09:53:20Z</time>
      </trkpt>
      <trkpt lat="42.47479" lon="3.03069">
        <ele>902</ele>
        <time>2024-09-23T09:53:23Z</time>
      </trkpt>
      <trkpt lat="42.4748" lon="3.03073">
        <ele>901</ele>
        <time>2024-09-23T09:53:26Z</time>
      </trkpt>
      <trkpt lat="42.47482" lon="3.03077">
        <ele>900</ele>
        <time>2024-09-23T09:53:30Z</time>
      </trkpt>
      <trkpt lat="42.47484" lon="3.03082">
        <ele>899</ele>
        <time>2024-09-23T09:53:33Z</time>
      </trkpt>
      <trkpt lat="42.47484" lon="3.03086">
        <ele>899</ele>
        <time>2024-09-23T09:53:36Z</time>
      </trkpt>
      <trkpt lat="42.47485" lon="3.0309">
        <ele>897</ele>
        <time>2024-09-23T09:53:38Z</time>
      </trkpt>
      <trkpt lat="42.47486" lon="3.03095">
        <ele>897</ele>
        <time>2024-09-23T09:53:41Z</time>
      </trkpt>
      <trkpt lat="42.47487" lon="3.03099">
        <ele>897</ele>
        <time>2024-09-23T09:53:44Z</time>
      </trkpt>
      <trkpt lat="42.47487" lon="3.03104">
        <ele>896</ele>
        <time>2024-09-23T09:53:47Z</time>
      </trkpt>
      <trkpt lat="42.47488" lon="3.03108">
        <ele>896</ele>
        <time>2024-09-23T09:53:49Z</time>
      </trkpt>
      <trkpt lat="42.47489" lon="3.03113">
        <ele>895</ele>
        <time>2024-09-23T09:53:52Z</time>
      </trkpt>
      <trkpt lat="42.47489" lon="3.03117">
        <ele>896</ele>
        <time>2024-09-23T09:54:16Z</time>
      </trkpt>
      <trkpt lat="42.47489" lon="3.03122">
        <ele>897</ele>
        <time>2024-09-23T09:54:19Z</time>
      </trkpt>
      <trkpt lat="42.47489" lon="3.03127">
        <ele>897</ele>
        <time>2024-09-23T09:54:22Z</time>
      </trkpt>
      <trkpt lat="42.47489" lon="3.03131">
        <ele>898</ele>
        <time>2024-09-23T09:54:25Z</time>
      </trkpt>
      <trkpt lat="42.47489" lon="3.03136">
        <ele>898</ele>
        <time>2024-09-23T09:54:29Z</time>
      </trkpt>
      <trkpt lat="42.47489" lon="3.03141">
        <ele>899</ele>
        <time>2024-09-23T09:54:33Z</time>
      </trkpt>
      <trkpt lat="42.47489" lon="3.03145">
        <ele>900</ele>
        <time>2024-09-23T09:54:36Z</time>
      </trkpt>
      <trkpt lat="42.4749" lon="3.0315">
        <ele>900</ele>
        <time>2024-09-23T09:54:40Z</time>
      </trkpt>
      <trkpt lat="42.4749" lon="3.03154">
        <ele>900</ele>
        <time>2024-09-23T09:54:43Z</time>
      </trkpt>
      <trkpt lat="42.47489" lon="3.03158">
        <ele>899</ele>
        <time>2024-09-23T09:54:46Z</time>
      </trkpt>
      <trkpt lat="42.47488" lon="3.03163">
        <ele>899</ele>
        <time>2024-09-23T09:54:49Z</time>
      </trkpt>
      <trkpt lat="42.47488" lon="3.03168">
        <ele>899</ele>
        <time>2024-09-23T09:54:52Z</time>
      </trkpt>
      <trkpt lat="42.47487" lon="3.03173">
        <ele>899</ele>
        <time>2024-09-23T09:54:55Z</time>
      </trkpt>
      <trkpt lat="42.47485" lon="3.03176">
        <ele>899</ele>
        <time>2024-09-23T09:54:58Z</time>
      </trkpt>
      <trkpt lat="42.47484" lon="3.0318">
        <ele>899</ele>
        <time>2024-09-23T09:55:01Z</time>
      </trkpt>
      <trkpt lat="42.47483" lon="3.03184">
        <ele>899</ele>
        <time>2024-09-23T09:55:04Z</time>
      </trkpt>
      <trkpt lat="42.47483" lon="3.03189">
        <ele>899</ele>
        <time>2024-09-23T09:55:07Z</time>
      </trkpt>
      <trkpt lat="42.47483" lon="3.03193">
        <ele>900</ele>
        <time>2024-09-23T09:55:10Z</time>
      </trkpt>
      <trkpt lat="42.47483" lon="3.03198">
        <ele>900</ele>
        <time>2024-09-23T09:55:13Z</time>
      </trkpt>
      <trkpt lat="42.47484" lon="3.03203">
        <ele>900</ele>
        <time>2024-09-23T09:55:16Z</time>
      </trkpt>
      <trkpt lat="42.47484" lon="3.03207">
        <ele>901</ele>
        <time>2024-09-23T09:55:19Z</time>
      </trkpt>
      <trkpt lat="42.47484" lon="3.03211">
        <ele>901</ele>
        <time>2024-09-23T09:55:22Z</time>
      </trkpt>
      <trkpt lat="42.47484" lon="3.03215">
        <ele>901</ele>
        <time>2024-09-23T09:55:25Z</time>
      </trkpt>
      <trkpt lat="42.47483" lon="3.03219">
        <ele>902</ele>
        <time>2024-09-23T09:55:29Z</time>
      </trkpt>
      <trkpt lat="42.47483" lon="3.03224">
        <ele>902</ele>
        <time>2024-09-23T09:55:32Z</time>
      </trkpt>
      <trkpt lat="42.47482" lon="3.03228">
        <ele>902</ele>
        <time>2024-09-23T09:55:36Z</time>
      </trkpt>
      <trkpt lat="42.4748" lon="3.03231">
        <ele>902</ele>
        <time>2024-09-23T09:55:39Z</time>
      </trkpt>
      <trkpt lat="42.47479" lon="3.03235">
        <ele>903</ele>
        <time>2024-09-23T09:55:42Z</time>
      </trkpt>
      <trkpt lat="42.47477" lon="3.03239">
        <ele>904</ele>
        <time>2024-09-23T09:55:46Z</time>
      </trkpt>
      <trkpt lat="42.47476" lon="3.03243">
        <ele>904</ele>
        <time>2024-09-23T09:55:49Z</time>
      </trkpt>
      <trkpt lat="42.47475" lon="3.03247">
        <ele>904</ele>
        <time>2024-09-23T09:55:53Z</time>
      </trkpt>
      <trkpt lat="42.47474" lon="3.03251">
        <ele>904</ele>
        <time>2024-09-23T09:55:57Z</time>
      </trkpt>
      <trkpt lat="42.47473" lon="3.03255">
        <ele>905</ele>
        <time>2024-09-23T09:56:02Z</time>
      </trkpt>
      <trkpt lat="42.47472" lon="3.03258">
        <ele>906</ele>
        <time>2024-09-23T09:56:12Z</time>
      </trkpt>
      <trkpt lat="42.4747" lon="3.03261">
        <ele>907</ele>
        <time>2024-09-23T09:56:16Z</time>
      </trkpt>
      <trkpt lat="42.47468" lon="3.03265">
        <ele>908</ele>
        <time>2024-09-23T09:56:19Z</time>
      </trkpt>
      <trkpt lat="42.47467" lon="3.03269">
        <ele>908</ele>
        <time>2024-09-23T09:56:24Z</time>
      </trkpt>
      <trkpt lat="42.47467" lon="3.03273">
        <ele>907</ele>
        <time>2024-09-23T09:56:28Z</time>
      </trkpt>
      <trkpt lat="42.47467" lon="3.03277">
        <ele>908</ele>
        <time>2024-09-23T09:56:32Z</time>
      </trkpt>
      <trkpt lat="42.47466" lon="3.03281">
        <ele>909</ele>
        <time>2024-09-23T09:56:36Z</time>
      </trkpt>
      <trkpt lat="42.47466" lon="3.03285">
        <ele>909</ele>
        <time>2024-09-23T09:56:40Z</time>
      </trkpt>
      <trkpt lat="42.47466" lon="3.03289">
        <ele>910</ele>
        <time>2024-09-23T09:56:44Z</time>
      </trkpt>
      <trkpt lat="42.47465" lon="3.03293">
        <ele>911</ele>
        <time>2024-09-23T09:56:48Z</time>
      </trkpt>
      <trkpt lat="42.47465" lon="3.03298">
        <ele>912</ele>
        <time>2024-09-23T09:56:53Z</time>
      </trkpt>
      <trkpt lat="42.47464" lon="3.03302">
        <ele>913</ele>
        <time>2024-09-23T09:56:56Z</time>
      </trkpt>
      <trkpt lat="42.47465" lon="3.03306">
        <ele>913</ele>
        <time>2024-09-23T09:57:00Z</time>
      </trkpt>
      <trkpt lat="42.47465" lon="3.0331">
        <ele>913</ele>
        <time>2024-09-23T09:57:05Z</time>
      </trkpt>
      <trkpt lat="42.47465" lon="3.03313">
        <ele>914</ele>
        <time>2024-09-23T09:57:09Z</time>
      </trkpt>
      <trkpt lat="42.47464" lon="3.03317">
        <ele>915</ele>
        <time>2024-09-23T09:57:13Z</time>
      </trkpt>
      <trkpt lat="42.47463" lon="3.03321">
        <ele>914</ele>
        <time>2024-09-23T09:57:17Z</time>
      </trkpt>
      <trkpt lat="42.47463" lon="3.03325">
        <ele>915</ele>
        <time>2024-09-23T09:57:21Z</time>
      </trkpt>
      <trkpt lat="42.47464" lon="3.03329">
        <ele>916</ele>
        <time>2024-09-23T09:57:25Z</time>
      </trkpt>
      <trkpt lat="42.47465" lon="3.03333">
        <ele>916</ele>
        <time>2024-09-23T09:57:30Z</time>
      </trkpt>
      <trkpt lat="42.47467" lon="3.03336">
        <ele>917</ele>
        <time>2024-09-23T09:57:35Z</time>
      </trkpt>
      <trkpt lat="42.47468" lon="3.0334">
        <ele>916</ele>
        <time>2024-09-23T09:57:39Z</time>
      </trkpt>
      <trkpt lat="42.47469" lon="3.03344">
        <ele>917</ele>
        <time>2024-09-23T09:57:43Z</time>
      </trkpt>
      <trkpt lat="42.47471" lon="3.03349">
        <ele>917</ele>
        <time>2024-09-23T09:57:47Z</time>
      </trkpt>
      <trkpt lat="42.47472" lon="3.03353">
        <ele>918</ele>
        <time>2024-09-23T09:57:51Z</time>
      </trkpt>
      <trkpt lat="42.47473" lon="3.03357">
        <ele>919</ele>
        <time>2024-09-23T09:57:55Z</time>
      </trkpt>
      <trkpt lat="42.47474" lon="3.03361">
        <ele>919</ele>
        <time>2024-09-23T09:57:59Z</time>
      </trkpt>
      <trkpt lat="42.47475" lon="3.03366">
        <ele>920</ele>
        <time>2024-09-23T09:58:03Z</time>
      </trkpt>
      <trkpt lat="42.47477" lon="3.03369">
        <ele>921</ele>
        <time>2024-09-23T09:58:07Z</time>
      </trkpt>
      <trkpt lat="42.47478" lon="3.03373">
        <ele>921</ele>
        <time>2024-09-23T09:58:11Z</time>
      </trkpt>
      <trkpt lat="42.47479" lon="3.03377">
        <ele>922</ele>
        <time>2024-09-23T09:58:15Z</time>
      </trkpt>
      <trkpt lat="42.4748" lon="3.03381">
        <ele>923</ele>
        <time>2024-09-23T09:58:19Z</time>
      </trkpt>
      <trkpt lat="42.47482" lon="3.03385">
        <ele>924</ele>
        <time>2024-09-23T09:58:22Z</time>
      </trkpt>
      <trkpt lat="42.47484" lon="3.03388">
        <ele>925</ele>
        <time>2024-09-23T09:58:30Z</time>
      </trkpt>
      <trkpt lat="42.47483" lon="3.03392">
        <ele>925</ele>
        <time>2024-09-23T09:58:40Z</time>
      </trkpt>
      <trkpt lat="42.47482" lon="3.03394">
        <ele>925</ele>
        <time>2024-09-23T09:58:43Z</time>
      </trkpt>
      <trkpt lat="42.47479" lon="3.03397">
        <ele>926</ele>
        <time>2024-09-23T09:58:47Z</time>
      </trkpt>
      <trkpt lat="42.47477" lon="3.03399">
        <ele>927</ele>
        <time>2024-09-23T09:58:50Z</time>
      </trkpt>
      <trkpt lat="42.47476" lon="3.03403">
        <ele>927</ele>
        <time>2024-09-23T09:58:53Z</time>
      </trkpt>
      <trkpt lat="42.47476" lon="3.03407">
        <ele>928</ele>
        <time>2024-09-23T09:58:57Z</time>
      </trkpt>
      <trkpt lat="42.47475" lon="3.0341">
        <ele>929</ele>
        <time>2024-09-23T09:59:01Z</time>
      </trkpt>
      <trkpt lat="42.47474" lon="3.03414">
        <ele>929</ele>
        <time>2024-09-23T09:59:16Z</time>
      </trkpt>
      <trkpt lat="42.47472" lon="3.03417">
        <ele>929</ele>
        <time>2024-09-23T09:59:20Z</time>
      </trkpt>
      <trkpt lat="42.4747" lon="3.0342">
        <ele>930</ele>
        <time>2024-09-23T09:59:24Z</time>
      </trkpt>
      <trkpt lat="42.47469" lon="3.03424">
        <ele>930</ele>
        <time>2024-09-23T09:59:27Z</time>
      </trkpt>
      <trkpt lat="42.47468" lon="3.03427">
        <ele>931</ele>
        <time>2024-09-23T09:59:31Z</time>
      </trkpt>
      <trkpt lat="42.47466" lon="3.0343">
        <ele>932</ele>
        <time>2024-09-23T09:59:35Z</time>
      </trkpt>
      <trkpt lat="42.47465" lon="3.03434">
        <ele>933</ele>
        <time>2024-09-23T09:59:40Z</time>
      </trkpt>
      <trkpt lat="42.47464" lon="3.03438">
        <ele>933</ele>
        <time>2024-09-23T09:59:44Z</time>
      </trkpt>
      <trkpt lat="42.47463" lon="3.03441">
        <ele>934</ele>
        <time>2024-09-23T09:59:47Z</time>
      </trkpt>
      <trkpt lat="42.47462" lon="3.03445">
        <ele>934</ele>
        <time>2024-09-23T09:59:51Z</time>
      </trkpt>
      <trkpt lat="42.47461" lon="3.03449">
        <ele>935</ele>
        <time>2024-09-23T09:59:55Z</time>
      </trkpt>
      <trkpt lat="42.4746" lon="3.03453">
        <ele>936</ele>
        <time>2024-09-23T09:59:58Z</time>
      </trkpt>
      <trkpt lat="42.4746" lon="3.03456">
        <ele>937</ele>
        <time>2024-09-23T10:00:25Z</time>
      </trkpt>
      <trkpt lat="42.4746" lon="3.0346">
        <ele>938</ele>
        <time>2024-09-23T10:00:28Z</time>
      </trkpt>
      <trkpt lat="42.4746" lon="3.03464">
        <ele>937</ele>
        <time>2024-09-23T10:00:31Z</time>
      </trkpt>
      <trkpt lat="42.4746" lon="3.03468">
        <ele>938</ele>
        <time>2024-09-23T10:00:36Z</time>
      </trkpt>
      <trkpt lat="42.4746" lon="3.03472">
        <ele>939</ele>
        <time>2024-09-23T10:00:41Z</time>
      </trkpt>
      <trkpt lat="42.4746" lon="3.03476">
        <ele>939</ele>
        <time>2024-09-23T10:00:44Z</time>
      </trkpt>
      <trkpt lat="42.47459" lon="3.0348">
        <ele>939</ele>
        <time>2024-09-23T10:00:48Z</time>
      </trkpt>
      <trkpt lat="42.47459" lon="3.03485">
        <ele>940</ele>
        <time>2024-09-23T10:00:51Z</time>
      </trkpt>
      <trkpt lat="42.47459" lon="3.0349">
        <ele>940</ele>
        <time>2024-09-23T10:00:55Z</time>
      </trkpt>
      <trkpt lat="42.47459" lon="3.03494">
        <ele>940</ele>
        <time>2024-09-23T10:00:58Z</time>
      </trkpt>
      <trkpt lat="42.4746" lon="3.03498">
        <ele>941</ele>
        <time>2024-09-23T10:01:01Z</time>
      </trkpt>
      <trkpt lat="42.4746" lon="3.03501">
        <ele>941</ele>
        <time>2024-09-23T10:01:03Z</time>
      </trkpt>
      <trkpt lat="42.4746" lon="3.03506">
        <ele>941</ele>
        <time>2024-09-23T10:01:06Z</time>
      </trkpt>
      <trkpt lat="42.47461" lon="3.0351">
        <ele>941</ele>
        <time>2024-09-23T10:01:09Z</time>
      </trkpt>
      <trkpt lat="42.47462" lon="3.03513">
        <ele>940</ele>
        <time>2024-09-23T10:01:12Z</time>
      </trkpt>
      <trkpt lat="42.47463" lon="3.03518">
        <ele>941</ele>
        <time>2024-09-23T10:01:15Z</time>
      </trkpt>
      <trkpt lat="42.47463" lon="3.03522">
        <ele>941</ele>
        <time>2024-09-23T10:01:17Z</time>
      </trkpt>
      <trkpt lat="42.47463" lon="3.03526">
        <ele>942</ele>
        <time>2024-09-23T10:01:20Z</time>
      </trkpt>
      <trkpt lat="42.47464" lon="3.03531">
        <ele>942</ele>
        <time>2024-09-23T10:01:24Z</time>
      </trkpt>
      <trkpt lat="42.47464" lon="3.03536">
        <ele>942</ele>
        <time>2024-09-23T10:01:27Z</time>
      </trkpt>
      <trkpt lat="42.47465" lon="3.03541">
        <ele>942</ele>
        <time>2024-09-23T10:01:30Z</time>
      </trkpt>
      <trkpt lat="42.47466" lon="3.03545">
        <ele>942</ele>
        <time>2024-09-23T10:01:34Z</time>
      </trkpt>
      <trkpt lat="42.47467" lon="3.03549">
        <ele>943</ele>
        <time>2024-09-23T10:01:37Z</time>
      </trkpt>
      <trkpt lat="42.47468" lon="3.03553">
        <ele>943</ele>
        <time>2024-09-23T10:01:40Z</time>
      </trkpt>
      <trkpt lat="42.47468" lon="3.03558">
        <ele>943</ele>
        <time>2024-09-23T10:01:44Z</time>
      </trkpt>
      <trkpt lat="42.47468" lon="3.03562">
        <ele>943</ele>
        <time>2024-09-23T10:01:47Z</time>
      </trkpt>
      <trkpt lat="42.47469" lon="3.03566">
        <ele>944</ele>
        <time>2024-09-23T10:02:15Z</time>
      </trkpt>
      <trkpt lat="42.4747" lon="3.0357">
        <ele>944</ele>
        <time>2024-09-23T10:02:18Z</time>
      </trkpt>
      <trkpt lat="42.4747" lon="3.03574">
        <ele>944</ele>
        <time>2024-09-23T10:02:21Z</time>
      </trkpt>
      <trkpt lat="42.47469" lon="3.03578">
        <ele>945</ele>
        <time>2024-09-23T10:02:24Z</time>
      </trkpt>
      <trkpt lat="42.4747" lon="3.03583">
        <ele>945</ele>
        <time>2024-09-23T10:02:28Z</time>
      </trkpt>
      <trkpt lat="42.47469" lon="3.03587">
        <ele>945</ele>
        <time>2024-09-23T10:02:31Z</time>
      </trkpt>
      <trkpt lat="42.47469" lon="3.03591">
        <ele>946</ele>
        <time>2024-09-23T10:02:34Z</time>
      </trkpt>
      <trkpt lat="42.47468" lon="3.03594">
        <ele>946</ele>
        <time>2024-09-23T10:02:37Z</time>
      </trkpt>
      <trkpt lat="42.47468" lon="3.03598">
        <ele>946</ele>
        <time>2024-09-23T10:02:41Z</time>
      </trkpt>
      <trkpt lat="42.47469" lon="3.03602">
        <ele>946</ele>
        <time>2024-09-23T10:02:44Z</time>
      </trkpt>
      <trkpt lat="42.47469" lon="3.03607">
        <ele>946</ele>
        <time>2024-09-23T10:02:47Z</time>
      </trkpt>
      <trkpt lat="42.47468" lon="3.03611">
        <ele>947</ele>
        <time>2024-09-23T10:02:50Z</time>
      </trkpt>
      <trkpt lat="42.47468" lon="3.03615">
        <ele>948</ele>
        <time>2024-09-23T10:02:55Z</time>
      </trkpt>
      <trkpt lat="42.47469" lon="3.0362">
        <ele>948</ele>
        <time>2024-09-23T10:02:58Z</time>
      </trkpt>
      <trkpt lat="42.47468" lon="3.03624">
        <ele>947</ele>
        <time>2024-09-23T10:03:01Z</time>
      </trkpt>
      <trkpt lat="42.47467" lon="3.03628">
        <ele>948</ele>
        <time>2024-09-23T10:03:04Z</time>
      </trkpt>
      <trkpt lat="42.47467" lon="3.03633">
        <ele>948</ele>
        <time>2024-09-23T10:03:07Z</time>
      </trkpt>
      <trkpt lat="42.47467" lon="3.03637">
        <ele>948</ele>
        <time>2024-09-23T10:03:10Z</time>
      </trkpt>
      <trkpt lat="42.47467" lon="3.03642">
        <ele>947</ele>
        <time>2024-09-23T10:03:13Z</time>
      </trkpt>
      <trkpt lat="42.47468" lon="3.03646">
        <ele>948</ele>
        <time>2024-09-23T10:03:16Z</time>
      </trkpt>
      <trkpt lat="42.47468" lon="3.0365">
        <ele>948</ele>
        <time>2024-09-23T10:03:19Z</time>
      </trkpt>
      <trkpt lat="42.47468" lon="3.03654">
        <ele>948</ele>
        <time>2024-09-23T10:03:21Z</time>
      </trkpt>
      <trkpt lat="42.47468" lon="3.03659">
        <ele>948</ele>
        <time>2024-09-23T10:03:24Z</time>
      </trkpt>
      <trkpt lat="42.47467" lon="3.03664">
        <ele>948</ele>
        <time>2024-09-23T10:03:28Z</time>
      </trkpt>
      <trkpt lat="42.47467" lon="3.03668">
        <ele>948</ele>
        <time>2024-09-23T10:03:31Z</time>
      </trkpt>
      <trkpt lat="42.47468" lon="3.03672">
        <ele>949</ele>
        <time>2024-09-23T10:03:34Z</time>
      </trkpt>
      <trkpt lat="42.47468" lon="3.03677">
        <ele>949</ele>
        <time>2024-09-23T10:03:37Z</time>
      </trkpt>
      <trkpt lat="42.47467" lon="3.03681">
        <ele>950</ele>
        <time>2024-09-23T10:03:42Z</time>
      </trkpt>
      <trkpt lat="42.47468" lon="3.03686">
        <ele>951</ele>
        <time>2024-09-23T10:03:44Z</time>
      </trkpt>
      <trkpt lat="42.47468" lon="3.03689">
        <ele>951</ele>
        <time>2024-09-23T10:03:47Z</time>
      </trkpt>
      <trkpt lat="42.47469" lon="3.03693">
        <ele>951</ele>
        <time>2024-09-23T10:03:50Z</time>
      </trkpt>
      <trkpt lat="42.4747" lon="3.03697">
        <ele>950</ele>
        <time>2024-09-23T10:03:53Z</time>
      </trkpt>
      <trkpt lat="42.47471" lon="3.03701">
        <ele>951</ele>
        <time>2024-09-23T10:03:56Z</time>
      </trkpt>
      <trkpt lat="42.47471" lon="3.03705">
        <ele>951</ele>
        <time>2024-09-23T10:03:58Z</time>
      </trkpt>
      <trkpt lat="42.47472" lon="3.03709">
        <ele>951</ele>
        <time>2024-09-23T10:04:01Z</time>
      </trkpt>
      <trkpt lat="42.47473" lon="3.03713">
        <ele>951</ele>
        <time>2024-09-23T10:04:04Z</time>
      </trkpt>
      <trkpt lat="42.47474" lon="3.03717">
        <ele>951</ele>
        <time>2024-09-23T10:04:07Z</time>
      </trkpt>
      <trkpt lat="42.47475" lon="3.03721">
        <ele>951</ele>
        <time>2024-09-23T10:04:10Z</time>
      </trkpt>
      <trkpt lat="42.47477" lon="3.03726">
        <ele>951</ele>
        <time>2024-09-23T10:04:13Z</time>
      </trkpt>
      <trkpt lat="42.47478" lon="3.0373">
        <ele>951</ele>
        <time>2024-09-23T10:04:17Z</time>
      </trkpt>
      <trkpt lat="42.47479" lon="3.03735">
        <ele>951</ele>
        <time>2024-09-23T10:04:20Z</time>
      </trkpt>
      <trkpt lat="42.4748" lon="3.0374">
        <ele>951</ele>
        <time>2024-09-23T10:04:24Z</time>
      </trkpt>
      <trkpt lat="42.4748" lon="3.03745">
        <ele>951</ele>
        <time>2024-09-23T10:04:27Z</time>
      </trkpt>
      <trkpt lat="42.47481" lon="3.03749">
        <ele>952</ele>
        <time>2024-09-23T10:04:30Z</time>
      </trkpt>
      <trkpt lat="42.47482" lon="3.03753">
        <ele>952</ele>
        <time>2024-09-23T10:04:33Z</time>
      </trkpt>
      <trkpt lat="42.47483" lon="3.03757">
        <ele>953</ele>
        <time>2024-09-23T10:04:36Z</time>
      </trkpt>
      <trkpt lat="42.47485" lon="3.03762">
        <ele>953</ele>
        <time>2024-09-23T10:04:39Z</time>
      </trkpt>
      <trkpt lat="42.47485" lon="3.03766">
        <ele>953</ele>
        <time>2024-09-23T10:04:43Z</time>
      </trkpt>
      <trkpt lat="42.47484" lon="3.03771">
        <ele>954</ele>
        <time>2024-09-23T10:04:48Z</time>
      </trkpt>
      <trkpt lat="42.47484" lon="3.03776">
        <ele>955</ele>
        <time>2024-09-23T10:04:52Z</time>
      </trkpt>
      <trkpt lat="42.47485" lon="3.0378">
        <ele>955</ele>
        <time>2024-09-23T10:04:55Z</time>
      </trkpt>
      <trkpt lat="42.47486" lon="3.03784">
        <ele>956</ele>
        <time>2024-09-23T10:04:58Z</time>
      </trkpt>
      <trkpt lat="42.47486" lon="3.03789">
        <ele>956</ele>
        <time>2024-09-23T10:05:02Z</time>
      </trkpt>
      <trkpt lat="42.47486" lon="3.03793">
        <ele>956</ele>
        <time>2024-09-23T10:05:06Z</time>
      </trkpt>
      <trkpt lat="42.47486" lon="3.03798">
        <ele>956</ele>
        <time>2024-09-23T10:05:10Z</time>
      </trkpt>
      <trkpt lat="42.47487" lon="3.03802">
        <ele>957</ele>
        <time>2024-09-23T10:05:13Z</time>
      </trkpt>
      <trkpt lat="42.47488" lon="3.03806">
        <ele>956</ele>
        <time>2024-09-23T10:05:16Z</time>
      </trkpt>
      <trkpt lat="42.47489" lon="3.0381">
        <ele>957</ele>
        <time>2024-09-23T10:05:19Z</time>
      </trkpt>
      <trkpt lat="42.4749" lon="3.03814">
        <ele>957</ele>
        <time>2024-09-23T10:05:29Z</time>
      </trkpt>
      <trkpt lat="42.4749" lon="3.03818">
        <ele>956</ele>
        <time>2024-09-23T10:05:32Z</time>
      </trkpt>
      <trkpt lat="42.47491" lon="3.03822">
        <ele>957</ele>
        <time>2024-09-23T10:05:35Z</time>
      </trkpt>
      <trkpt lat="42.47491" lon="3.03826">
        <ele>958</ele>
        <time>2024-09-23T10:05:41Z</time>
      </trkpt>
      <trkpt lat="42.47492" lon="3.0383">
        <ele>958</ele>
        <time>2024-09-23T10:05:45Z</time>
      </trkpt>
      <trkpt lat="42.47493" lon="3.03835">
        <ele>958</ele>
        <time>2024-09-23T10:05:49Z</time>
      </trkpt>
      <trkpt lat="42.47494" lon="3.0384">
        <ele>958</ele>
        <time>2024-09-23T10:05:53Z</time>
      </trkpt>
      <trkpt lat="42.47494" lon="3.03844">
        <ele>959</ele>
        <time>2024-09-23T10:05:56Z</time>
      </trkpt>
      <trkpt lat="42.47495" lon="3.03848">
        <ele>959</ele>
        <time>2024-09-23T10:05:59Z</time>
      </trkpt>
      <trkpt lat="42.47496" lon="3.03852">
        <ele>960</ele>
        <time>2024-09-23T10:06:02Z</time>
      </trkpt>
      <trkpt lat="42.47497" lon="3.03856">
        <ele>960</ele>
        <time>2024-09-23T10:06:05Z</time>
      </trkpt>
      <trkpt lat="42.47498" lon="3.0386">
        <ele>960</ele>
        <time>2024-09-23T10:06:08Z</time>
      </trkpt>
      <trkpt lat="42.47498" lon="3.03864">
        <ele>961</ele>
        <time>2024-09-23T10:06:11Z</time>
      </trkpt>
      <trkpt lat="42.47499" lon="3.03869">
        <ele>961</ele>
        <time>2024-09-23T10:06:14Z</time>
      </trkpt>
      <trkpt lat="42.475" lon="3.03873">
        <ele>961</ele>
        <time>2024-09-23T10:06:17Z</time>
      </trkpt>
      <trkpt lat="42.47501" lon="3.03877">
        <ele>961</ele>
        <time>2024-09-23T10:06:20Z</time>
      </trkpt>
      <trkpt lat="42.47502" lon="3.03881">
        <ele>961</ele>
        <time>2024-09-23T10:06:23Z</time>
      </trkpt>
      <trkpt lat="42.47503" lon="3.03885">
        <ele>961</ele>
        <time>2024-09-23T10:06:26Z</time>
      </trkpt>
      <trkpt lat="42.47504" lon="3.03889">
        <ele>961</ele>
        <time>2024-09-23T10:06:29Z</time>
      </trkpt>
      <trkpt lat="42.47504" lon="3.03894">
        <ele>962</ele>
        <time>2024-09-23T10:06:33Z</time>
      </trkpt>
      <trkpt lat="42.47505" lon="3.03899">
        <ele>962</ele>
        <time>2024-09-23T10:06:36Z</time>
      </trkpt>
      <trkpt lat="42.47507" lon="3.03902">
        <ele>963</ele>
        <time>2024-09-23T10:06:39Z</time>
      </trkpt>
      <trkpt lat="42.47508" lon="3.03906">
        <ele>963</ele>
        <time>2024-09-23T10:06:42Z</time>
      </trkpt>
      <trkpt lat="42.4751" lon="3.0391">
        <ele>964</ele>
        <time>2024-09-23T10:06:45Z</time>
      </trkpt>
      <trkpt lat="42.47512" lon="3.03913">
        <ele>963</ele>
        <time>2024-09-23T10:06:48Z</time>
      </trkpt>
      <trkpt lat="42.47514" lon="3.03915">
        <ele>963</ele>
        <time>2024-09-23T10:06:50Z</time>
      </trkpt>
      <trkpt lat="42.47517" lon="3.03918">
        <ele>964</ele>
        <time>2024-09-23T10:06:54Z</time>
      </trkpt>
      <trkpt lat="42.47519" lon="3.03921">
        <ele>963</ele>
        <time>2024-09-23T10:06:56Z</time>
      </trkpt>
      <trkpt lat="42.4752" lon="3.03924">
        <ele>964</ele>
        <time>2024-09-23T10:06:59Z</time>
      </trkpt>
      <trkpt lat="42.47522" lon="3.03928">
        <ele>964</ele>
        <time>2024-09-23T10:07:06Z</time>
      </trkpt>
      <trkpt lat="42.47524" lon="3.03931">
        <ele>964</ele>
        <time>2024-09-23T10:07:08Z</time>
      </trkpt>
      <trkpt lat="42.47526" lon="3.03934">
        <ele>965</ele>
        <time>2024-09-23T10:07:18Z</time>
      </trkpt>
      <trkpt lat="42.47528" lon="3.03938">
        <ele>965</ele>
        <time>2024-09-23T10:07:21Z</time>
      </trkpt>
      <trkpt lat="42.4753" lon="3.03942">
        <ele>965</ele>
        <time>2024-09-23T10:07:24Z</time>
      </trkpt>
      <trkpt lat="42.47532" lon="3.03945">
        <ele>965</ele>
        <time>2024-09-23T10:07:27Z</time>
      </trkpt>
      <trkpt lat="42.47534" lon="3.03949">
        <ele>965</ele>
        <time>2024-09-23T10:07:29Z</time>
      </trkpt>
      <trkpt lat="42.47535" lon="3.03953">
        <ele>966</ele>
        <time>2024-09-23T10:07:32Z</time>
      </trkpt>
      <trkpt lat="42.47537" lon="3.03956">
        <ele>967</ele>
        <time>2024-09-23T10:07:35Z</time>
      </trkpt>
      <trkpt lat="42.47539" lon="3.0396">
        <ele>967</ele>
        <time>2024-09-23T10:07:38Z</time>
      </trkpt>
      <trkpt lat="42.47541" lon="3.03962">
        <ele>966</ele>
        <time>2024-09-23T10:07:41Z</time>
      </trkpt>
      <trkpt lat="42.47544" lon="3.03965">
        <ele>967</ele>
        <time>2024-09-23T10:07:44Z</time>
      </trkpt>
      <trkpt lat="42.47547" lon="3.03967">
        <ele>967</ele>
        <time>2024-09-23T10:07:47Z</time>
      </trkpt>
      <trkpt lat="42.4755" lon="3.0397">
        <ele>968</ele>
        <time>2024-09-23T10:07:50Z</time>
      </trkpt>
      <trkpt lat="42.47553" lon="3.03973">
        <ele>968</ele>
        <time>2024-09-23T10:07:53Z</time>
      </trkpt>
      <trkpt lat="42.47556" lon="3.03975">
        <ele>968</ele>
        <time>2024-09-23T10:07:56Z</time>
      </trkpt>
      <trkpt lat="42.47559" lon="3.03978">
        <ele>968</ele>
        <time>2024-09-23T10:07:59Z</time>
      </trkpt>
      <trkpt lat="42.47561" lon="3.03979">
        <ele>968</ele>
        <time>2024-09-23T10:08:02Z</time>
      </trkpt>
      <trkpt lat="42.47564" lon="3.03982">
        <ele>968</ele>
        <time>2024-09-23T10:08:06Z</time>
      </trkpt>
      <trkpt lat="42.47567" lon="3.03983">
        <ele>968</ele>
        <time>2024-09-23T10:08:36Z</time>
      </trkpt>
      <trkpt lat="42.47569" lon="3.03984">
        <ele>968</ele>
        <time>2024-09-23T10:08:39Z</time>
      </trkpt>
      <trkpt lat="42.47572" lon="3.03987">
        <ele>968</ele>
        <time>2024-09-23T10:08:42Z</time>
      </trkpt>
      <trkpt lat="42.47576" lon="3.03989">
        <ele>968</ele>
        <time>2024-09-23T10:08:45Z</time>
      </trkpt>
      <trkpt lat="42.47579" lon="3.03991">
        <ele>968</ele>
        <time>2024-09-23T10:08:48Z</time>
      </trkpt>
      <trkpt lat="42.47582" lon="3.03993">
        <ele>968</ele>
        <time>2024-09-23T10:08:51Z</time>
      </trkpt>
      <trkpt lat="42.47585" lon="3.03995">
        <ele>968</ele>
        <time>2024-09-23T10:08:54Z</time>
      </trkpt>
      <trkpt lat="42.47589" lon="3.03998">
        <ele>968</ele>
        <time>2024-09-23T10:08:58Z</time>
      </trkpt>
      <trkpt lat="42.47593" lon="3.04">
        <ele>969</ele>
        <time>2024-09-23T10:09:01Z</time>
      </trkpt>
      <trkpt lat="42.47596" lon="3.04002">
        <ele>969</ele>
        <time>2024-09-23T10:09:04Z</time>
      </trkpt>
      <trkpt lat="42.47599" lon="3.04003">
        <ele>968</ele>
        <time>2024-09-23T10:09:06Z</time>
      </trkpt>
      <trkpt lat="42.47602" lon="3.04005">
        <ele>968</ele>
        <time>2024-09-23T10:09:09Z</time>
      </trkpt>
      <trkpt lat="42.47605" lon="3.04007">
        <ele>968</ele>
        <time>2024-09-23T10:09:11Z</time>
      </trkpt>
      <trkpt lat="42.47608" lon="3.04008">
        <ele>968</ele>
        <time>2024-09-23T10:09:14Z</time>
      </trkpt>
      <trkpt lat="42.47611" lon="3.04009">
        <ele>968</ele>
        <time>2024-09-23T10:09:17Z</time>
      </trkpt>
      <trkpt lat="42.47614" lon="3.04011">
        <ele>967</ele>
        <time>2024-09-23T10:09:20Z</time>
      </trkpt>
      <trkpt lat="42.47617" lon="3.04014">
        <ele>968</ele>
        <time>2024-09-23T10:09:23Z</time>
      </trkpt>
      <trkpt lat="42.4762" lon="3.04017">
        <ele>968</ele>
        <time>2024-09-23T10:09:26Z</time>
      </trkpt>
      <trkpt lat="42.47622" lon="3.04019">
        <ele>968</ele>
        <time>2024-09-23T10:09:28Z</time>
      </trkpt>
      <trkpt lat="42.47624" lon="3.04023">
        <ele>968</ele>
        <time>2024-09-23T10:09:31Z</time>
      </trkpt>
      <trkpt lat="42.47625" lon="3.04027">
        <ele>967</ele>
        <time>2024-09-23T10:09:33Z</time>
      </trkpt>
      <trkpt lat="42.47627" lon="3.04031">
        <ele>967</ele>
        <time>2024-09-23T10:09:36Z</time>
      </trkpt>
      <trkpt lat="42.47628" lon="3.04035">
        <ele>967</ele>
        <time>2024-09-23T10:09:39Z</time>
      </trkpt>
      <trkpt lat="42.47629" lon="3.04039">
        <ele>967</ele>
        <time>2024-09-23T10:09:53Z</time>
      </trkpt>
      <trkpt lat="42.4763" lon="3.04043">
        <ele>966</ele>
        <time>2024-09-23T10:10:42Z</time>
      </trkpt>
      <trkpt lat="42.4763" lon="3.04047">
        <ele>965</ele>
        <time>2024-09-23T10:10:48Z</time>
      </trkpt>
      <trkpt lat="42.4763" lon="3.04051">
        <ele>965</ele>
        <time>2024-09-23T10:10:51Z</time>
      </trkpt>
      <trkpt lat="42.47631" lon="3.04054">
        <ele>964</ele>
        <time>2024-09-23T10:10:54Z</time>
      </trkpt>
      <trkpt lat="42.47631" lon="3.04059">
        <ele>963</ele>
        <time>2024-09-23T10:10:58Z</time>
      </trkpt>
      <trkpt lat="42.47631" lon="3.04063">
        <ele>963</ele>
        <time>2024-09-23T10:11:01Z</time>
      </trkpt>
      <trkpt lat="42.47632" lon="3.04067">
        <ele>962</ele>
        <time>2024-09-23T10:11:07Z</time>
      </trkpt>
      <trkpt lat="42.47632" lon="3.04071">
        <ele>961</ele>
        <time>2024-09-23T10:11:10Z</time>
      </trkpt>
      <trkpt lat="42.47631" lon="3.04075">
        <ele>961</ele>
        <time>2024-09-23T10:11:13Z</time>
      </trkpt>
      <trkpt lat="42.47631" lon="3.0408">
        <ele>961</ele>
        <time>2024-09-23T10:11:16Z</time>
      </trkpt>
      <trkpt lat="42.4763" lon="3.04083">
        <ele>959</ele>
        <time>2024-09-23T10:11:22Z</time>
      </trkpt>
      <trkpt lat="42.47628" lon="3.04087">
        <ele>958</ele>
        <time>2024-09-23T10:11:25Z</time>
      </trkpt>
      <trkpt lat="42.47627" lon="3.04086">
        <ele>958</ele>
        <time>2024-09-23T10:12:05Z</time>
      </trkpt>
      <trkpt lat="42.47626" lon="3.04088">
        <ele>960</ele>
        <time>2024-09-23T10:15:58Z</time>
      </trkpt>
      <trkpt lat="42.47625" lon="3.04089">
        <ele>960</ele>
        <time>2024-09-23T10:15:58Z</time>
      </trkpt>
      <trkpt lat="42.47625" lon="3.04086">
        <ele>939</ele>
        <time>2024-09-23T10:31:32Z</time>
      </trkpt>
      <trkpt lat="42.4763" lon="3.04095">
        <ele>941</ele>
        <time>2024-09-23T10:42:57Z</time>
      </trkpt>
      <trkpt lat="42.47629" lon="3.04094">
        <ele>957</ele>
        <time>2024-09-23T10:42:58Z</time>
      </trkpt>
      <trkpt lat="42.47629" lon="3.04091">
        <ele>959</ele>
        <time>2024-09-23T10:42:59Z</time>
      </trkpt>
      <trkpt lat="42.47631" lon="3.04092">
        <ele>957</ele>
        <time>2024-09-23T10:43:10Z</time>
      </trkpt>
      <trkpt lat="42.47634" lon="3.04093">
        <ele>958</ele>
        <time>2024-09-23T10:43:13Z</time>
      </trkpt>
      <trkpt lat="42.47637" lon="3.04094">
        <ele>956</ele>
        <time>2024-09-23T10:43:17Z</time>
      </trkpt>
      <trkpt lat="42.47639" lon="3.04096">
        <ele>956</ele>
        <time>2024-09-23T10:43:20Z</time>
      </trkpt>
      <trkpt lat="42.47642" lon="3.04099">
        <ele>954</ele>
        <time>2024-09-23T10:43:23Z</time>
      </trkpt>
      <trkpt lat="42.47644" lon="3.04102">
        <ele>953</ele>
        <time>2024-09-23T10:43:25Z</time>
      </trkpt>
      <trkpt lat="42.47645" lon="3.04105">
        <ele>952</ele>
        <time>2024-09-23T10:43:28Z</time>
      </trkpt>
      <trkpt lat="42.47646" lon="3.04109">
        <ele>953</ele>
        <time>2024-09-23T10:43:31Z</time>
      </trkpt>
      <trkpt lat="42.47648" lon="3.04112">
        <ele>952</ele>
        <time>2024-09-23T10:43:34Z</time>
      </trkpt>
      <trkpt lat="42.4765" lon="3.04116">
        <ele>951</ele>
        <time>2024-09-23T10:43:37Z</time>
      </trkpt>
      <trkpt lat="42.47652" lon="3.04119">
        <ele>949</ele>
        <time>2024-09-23T10:43:39Z</time>
      </trkpt>
      <trkpt lat="42.47654" lon="3.04122">
        <ele>948</ele>
        <time>2024-09-23T10:43:42Z</time>
      </trkpt>
      <trkpt lat="42.47656" lon="3.04125">
        <ele>947</ele>
        <time>2024-09-23T10:43:45Z</time>
      </trkpt>
      <trkpt lat="42.47657" lon="3.04129">
        <ele>946</ele>
        <time>2024-09-23T10:43:48Z</time>
      </trkpt>
      <trkpt lat="42.47657" lon="3.04133">
        <ele>944</ele>
        <time>2024-09-23T10:43:51Z</time>
      </trkpt>
      <trkpt lat="42.47654" lon="3.04135">
        <ele>944</ele>
        <time>2024-09-23T10:43:54Z</time>
      </trkpt>
      <trkpt lat="42.47652" lon="3.04138">
        <ele>942</ele>
        <time>2024-09-23T10:44:00Z</time>
      </trkpt>
      <trkpt lat="42.47649" lon="3.04138">
        <ele>941</ele>
        <time>2024-09-23T10:44:03Z</time>
      </trkpt>
      <trkpt lat="42.47646" lon="3.04139">
        <ele>941</ele>
        <time>2024-09-23T10:44:06Z</time>
      </trkpt>
      <trkpt lat="42.47644" lon="3.04141">
        <ele>940</ele>
        <time>2024-09-23T10:44:10Z</time>
      </trkpt>
      <trkpt lat="42.47641" lon="3.04143">
        <ele>939</ele>
        <time>2024-09-23T10:44:28Z</time>
      </trkpt>
      <trkpt lat="42.47638" lon="3.04145">
        <ele>938</ele>
        <time>2024-09-23T10:44:33Z</time>
      </trkpt>
      <trkpt lat="42.47636" lon="3.04148">
        <ele>937</ele>
        <time>2024-09-23T10:44:37Z</time>
      </trkpt>
      <trkpt lat="42.47633" lon="3.0415">
        <ele>935</ele>
        <time>2024-09-23T10:44:41Z</time>
      </trkpt>
      <trkpt lat="42.47631" lon="3.04153">
        <ele>934</ele>
        <time>2024-09-23T10:44:46Z</time>
      </trkpt>
      <trkpt lat="42.47628" lon="3.04154">
        <ele>933</ele>
        <time>2024-09-23T10:44:49Z</time>
      </trkpt>
      <trkpt lat="42.47625" lon="3.04154">
        <ele>933</ele>
        <time>2024-09-23T10:44:53Z</time>
      </trkpt>
      <trkpt lat="42.47624" lon="3.04156">
        <ele>931</ele>
        <time>2024-09-23T10:46:41Z</time>
      </trkpt>
      <trkpt lat="42.47621" lon="3.04158">
        <ele>930</ele>
        <time>2024-09-23T10:46:45Z</time>
      </trkpt>
      <trkpt lat="42.47619" lon="3.04159">
        <ele>928</ele>
        <time>2024-09-23T10:46:49Z</time>
      </trkpt>
      <trkpt lat="42.47616" lon="3.04161">
        <ele>927</ele>
        <time>2024-09-23T10:46:55Z</time>
      </trkpt>
      <trkpt lat="42.47613" lon="3.04163">
        <ele>926</ele>
        <time>2024-09-23T10:46:58Z</time>
      </trkpt>
      <trkpt lat="42.4761" lon="3.04163">
        <ele>926</ele>
        <time>2024-09-23T10:47:02Z</time>
      </trkpt>
      <trkpt lat="42.47607" lon="3.04165">
        <ele>928</ele>
        <time>2024-09-23T10:47:06Z</time>
      </trkpt>
      <trkpt lat="42.47605" lon="3.04166">
        <ele>925</ele>
        <time>2024-09-23T10:47:11Z</time>
      </trkpt>
      <trkpt lat="42.47602" lon="3.04167">
        <ele>924</ele>
        <time>2024-09-23T10:47:15Z</time>
      </trkpt>
      <trkpt lat="42.47599" lon="3.04168">
        <ele>924</ele>
        <time>2024-09-23T10:47:18Z</time>
      </trkpt>
      <trkpt lat="42.47596" lon="3.04168">
        <ele>924</ele>
        <time>2024-09-23T10:47:21Z</time>
      </trkpt>
      <trkpt lat="42.47593" lon="3.0417">
        <ele>921</ele>
        <time>2024-09-23T10:47:27Z</time>
      </trkpt>
      <trkpt lat="42.47589" lon="3.04172">
        <ele>921</ele>
        <time>2024-09-23T10:47:30Z</time>
      </trkpt>
      <trkpt lat="42.47586" lon="3.04172">
        <ele>921</ele>
        <time>2024-09-23T10:47:32Z</time>
      </trkpt>
      <trkpt lat="42.47584" lon="3.04171">
        <ele>922</ele>
        <time>2024-09-23T10:47:35Z</time>
      </trkpt>
      <trkpt lat="42.47581" lon="3.0417">
        <ele>922</ele>
        <time>2024-09-23T10:47:37Z</time>
      </trkpt>
      <trkpt lat="42.47579" lon="3.04171">
        <ele>920</ele>
        <time>2024-09-23T10:47:41Z</time>
      </trkpt>
      <trkpt lat="42.47577" lon="3.04174">
        <ele>918</ele>
        <time>2024-09-23T10:47:44Z</time>
      </trkpt>
      <trkpt lat="42.47574" lon="3.04175">
        <ele>918</ele>
        <time>2024-09-23T10:47:47Z</time>
      </trkpt>
      <trkpt lat="42.47571" lon="3.04175">
        <ele>917</ele>
        <time>2024-09-23T10:47:51Z</time>
      </trkpt>
      <trkpt lat="42.47568" lon="3.04177">
        <ele>916</ele>
        <time>2024-09-23T10:47:55Z</time>
      </trkpt>
      <trkpt lat="42.47565" lon="3.04179">
        <ele>915</ele>
        <time>2024-09-23T10:47:58Z</time>
      </trkpt>
      <trkpt lat="42.47562" lon="3.04181">
        <ele>914</ele>
        <time>2024-09-23T10:48:01Z</time>
      </trkpt>
      <trkpt lat="42.47559" lon="3.04182">
        <ele>914</ele>
        <time>2024-09-23T10:48:04Z</time>
      </trkpt>
      <trkpt lat="42.47556" lon="3.04181">
        <ele>914</ele>
        <time>2024-09-23T10:48:08Z</time>
      </trkpt>
      <trkpt lat="42.47553" lon="3.04181">
        <ele>913</ele>
        <time>2024-09-23T10:48:12Z</time>
      </trkpt>
      <trkpt lat="42.47549" lon="3.04181">
        <ele>911</ele>
        <time>2024-09-23T10:48:15Z</time>
      </trkpt>
      <trkpt lat="42.47547" lon="3.04179">
        <ele>912</ele>
        <time>2024-09-23T10:48:19Z</time>
      </trkpt>
      <trkpt lat="42.47543" lon="3.04179">
        <ele>912</ele>
        <time>2024-09-23T10:48:22Z</time>
      </trkpt>
      <trkpt lat="42.4754" lon="3.0418">
        <ele>912</ele>
        <time>2024-09-23T10:48:25Z</time>
      </trkpt>
      <trkpt lat="42.47537" lon="3.04182">
        <ele>911</ele>
        <time>2024-09-23T10:48:29Z</time>
      </trkpt>
      <trkpt lat="42.47534" lon="3.04184">
        <ele>910</ele>
        <time>2024-09-23T10:48:32Z</time>
      </trkpt>
      <trkpt lat="42.47531" lon="3.04186">
        <ele>911</ele>
        <time>2024-09-23T10:48:43Z</time>
      </trkpt>
      <trkpt lat="42.47528" lon="3.04186">
        <ele>910</ele>
        <time>2024-09-23T10:48:46Z</time>
      </trkpt>
      <trkpt lat="42.47525" lon="3.04185">
        <ele>910</ele>
        <time>2024-09-23T10:48:51Z</time>
      </trkpt>
      <trkpt lat="42.47523" lon="3.04187">
        <ele>908</ele>
        <time>2024-09-23T10:48:58Z</time>
      </trkpt>
      <trkpt lat="42.47521" lon="3.04189">
        <ele>908</ele>
        <time>2024-09-23T10:49:02Z</time>
      </trkpt>
      <trkpt lat="42.47518" lon="3.04191">
        <ele>909</ele>
        <time>2024-09-23T10:49:18Z</time>
      </trkpt>
      <trkpt lat="42.47515" lon="3.04193">
        <ele>908</ele>
        <time>2024-09-23T10:49:55Z</time>
      </trkpt>
      <trkpt lat="42.47512" lon="3.04196">
        <ele>909</ele>
        <time>2024-09-23T10:49:58Z</time>
      </trkpt>
      <trkpt lat="42.47511" lon="3.042">
        <ele>911</ele>
        <time>2024-09-23T10:50:01Z</time>
      </trkpt>
      <trkpt lat="42.4751" lon="3.04204">
        <ele>908</ele>
        <time>2024-09-23T10:50:08Z</time>
      </trkpt>
      <trkpt lat="42.47508" lon="3.04207">
        <ele>908</ele>
        <time>2024-09-23T10:50:13Z</time>
      </trkpt>
      <trkpt lat="42.47508" lon="3.04211">
        <ele>907</ele>
        <time>2024-09-23T10:50:16Z</time>
      </trkpt>
      <trkpt lat="42.47507" lon="3.04215">
        <ele>907</ele>
        <time>2024-09-23T10:50:20Z</time>
      </trkpt>
      <trkpt lat="42.47509" lon="3.04217">
        <ele>906</ele>
        <time>2024-09-23T10:50:24Z</time>
      </trkpt>
      <trkpt lat="42.47509" lon="3.04219">
        <ele>904</ele>
        <time>2024-09-23T10:50:28Z</time>
      </trkpt>
      <trkpt lat="42.47507" lon="3.04222">
        <ele>900</ele>
        <time>2024-09-23T10:50:40Z</time>
      </trkpt>
      <trkpt lat="42.47505" lon="3.04224">
        <ele>901</ele>
        <time>2024-09-23T10:50:42Z</time>
      </trkpt>
      <trkpt lat="42.47503" lon="3.04224">
        <ele>901</ele>
        <time>2024-09-23T10:50:46Z</time>
      </trkpt>
      <trkpt lat="42.475" lon="3.04226">
        <ele>898</ele>
        <time>2024-09-23T10:50:59Z</time>
      </trkpt>
      <trkpt lat="42.47497" lon="3.04227">
        <ele>897</ele>
        <time>2024-09-23T10:51:03Z</time>
      </trkpt>
      <trkpt lat="42.47493" lon="3.04228">
        <ele>897</ele>
        <time>2024-09-23T10:51:07Z</time>
      </trkpt>
      <trkpt lat="42.4749" lon="3.0423">
        <ele>898</ele>
        <time>2024-09-23T10:51:17Z</time>
      </trkpt>
      <trkpt lat="42.47488" lon="3.04233">
        <ele>897</ele>
        <time>2024-09-23T10:51:20Z</time>
      </trkpt>
      <trkpt lat="42.47485" lon="3.04236">
        <ele>901</ele>
        <time>2024-09-23T10:51:38Z</time>
      </trkpt>
      <trkpt lat="42.47484" lon="3.04239">
        <ele>901</ele>
        <time>2024-09-23T10:51:42Z</time>
      </trkpt>
      <trkpt lat="42.47481" lon="3.04241">
        <ele>900</ele>
        <time>2024-09-23T10:51:44Z</time>
      </trkpt>
      <trkpt lat="42.47479" lon="3.04242">
        <ele>898</ele>
        <time>2024-09-23T10:51:49Z</time>
      </trkpt>
      <trkpt lat="42.47476" lon="3.04241">
        <ele>897</ele>
        <time>2024-09-23T10:51:54Z</time>
      </trkpt>
      <trkpt lat="42.47474" lon="3.0424">
        <ele>895</ele>
        <time>2024-09-23T10:51:56Z</time>
      </trkpt>
      <trkpt lat="42.47471" lon="3.04241">
        <ele>897</ele>
        <time>2024-09-23T10:51:57Z</time>
      </trkpt>
      <trkpt lat="42.47468" lon="3.04242">
        <ele>897</ele>
        <time>2024-09-23T10:52:00Z</time>
      </trkpt>
      <trkpt lat="42.47465" lon="3.04243">
        <ele>893</ele>
        <time>2024-09-23T10:52:04Z</time>
      </trkpt>
      <trkpt lat="42.47463" lon="3.04246">
        <ele>892</ele>
        <time>2024-09-23T10:52:14Z</time>
      </trkpt>
      <trkpt lat="42.47462" lon="3.04249">
        <ele>893</ele>
        <time>2024-09-23T10:52:22Z</time>
      </trkpt>
      <trkpt lat="42.47461" lon="3.04252">
        <ele>892</ele>
        <time>2024-09-23T10:52:25Z</time>
      </trkpt>
      <trkpt lat="42.47459" lon="3.04255">
        <ele>893</ele>
        <time>2024-09-23T10:52:28Z</time>
      </trkpt>
      <trkpt lat="42.47457" lon="3.04259">
        <ele>892</ele>
        <time>2024-09-23T10:52:50Z</time>
      </trkpt>
      <trkpt lat="42.47454" lon="3.04262">
        <ele>893</ele>
        <time>2024-09-23T10:52:54Z</time>
      </trkpt>
      <trkpt lat="42.47452" lon="3.04263">
        <ele>894</ele>
        <time>2024-09-23T10:52:57Z</time>
      </trkpt>
      <trkpt lat="42.4745" lon="3.04266">
        <ele>891</ele>
        <time>2024-09-23T10:53:00Z</time>
      </trkpt>
      <trkpt lat="42.47448" lon="3.04269">
        <ele>891</ele>
        <time>2024-09-23T10:53:03Z</time>
      </trkpt>
      <trkpt lat="42.47446" lon="3.04272">
        <ele>891</ele>
        <time>2024-09-23T10:53:06Z</time>
      </trkpt>
      <trkpt lat="42.47443" lon="3.04273">
        <ele>892</ele>
        <time>2024-09-23T10:53:09Z</time>
      </trkpt>
      <trkpt lat="42.47441" lon="3.04276">
        <ele>890</ele>
        <time>2024-09-23T10:53:12Z</time>
      </trkpt>
      <trkpt lat="42.47441" lon="3.0428">
        <ele>889</ele>
        <time>2024-09-23T10:53:16Z</time>
      </trkpt>
      <trkpt lat="42.4744" lon="3.04283">
        <ele>888</ele>
        <time>2024-09-23T10:53:18Z</time>
      </trkpt>
      <trkpt lat="42.47439" lon="3.04287">
        <ele>887</ele>
        <time>2024-09-23T10:53:21Z</time>
      </trkpt>
      <trkpt lat="42.47438" lon="3.04291">
        <ele>887</ele>
        <time>2024-09-23T10:53:24Z</time>
      </trkpt>
      <trkpt lat="42.47436" lon="3.04295">
        <ele>887</ele>
        <time>2024-09-23T10:53:27Z</time>
      </trkpt>
      <trkpt lat="42.47434" lon="3.04299">
        <ele>886</ele>
        <time>2024-09-23T10:53:30Z</time>
      </trkpt>
      <trkpt lat="42.47432" lon="3.04301">
        <ele>886</ele>
        <time>2024-09-23T10:53:38Z</time>
      </trkpt>
      <trkpt lat="42.4743" lon="3.04303">
        <ele>885</ele>
        <time>2024-09-23T10:53:41Z</time>
      </trkpt>
      <trkpt lat="42.47428" lon="3.04306">
        <ele>885</ele>
        <time>2024-09-23T10:53:49Z</time>
      </trkpt>
      <trkpt lat="42.47427" lon="3.0431">
        <ele>885</ele>
        <time>2024-09-23T10:53:57Z</time>
      </trkpt>
      <trkpt lat="42.47426" lon="3.04314">
        <ele>883</ele>
        <time>2024-09-23T10:54:01Z</time>
      </trkpt>
      <trkpt lat="42.47425" lon="3.04319">
        <ele>882</ele>
        <time>2024-09-23T10:54:05Z</time>
      </trkpt>
      <trkpt lat="42.47423" lon="3.04321">
        <ele>881</ele>
        <time>2024-09-23T10:54:10Z</time>
      </trkpt>
      <trkpt lat="42.47421" lon="3.04324">
        <ele>880</ele>
        <time>2024-09-23T10:54:14Z</time>
      </trkpt>
      <trkpt lat="42.47418" lon="3.04325">
        <ele>879</ele>
        <time>2024-09-23T10:54:17Z</time>
      </trkpt>
      <trkpt lat="42.47415" lon="3.04327">
        <ele>878</ele>
        <time>2024-09-23T10:54:21Z</time>
      </trkpt>
      <trkpt lat="42.47413" lon="3.04329">
        <ele>876</ele>
        <time>2024-09-23T10:54:26Z</time>
      </trkpt>
      <trkpt lat="42.47413" lon="3.04333">
        <ele>875</ele>
        <time>2024-09-23T10:54:30Z</time>
      </trkpt>
      <trkpt lat="42.47414" lon="3.04337">
        <ele>875</ele>
        <time>2024-09-23T10:54:35Z</time>
      </trkpt>
      <trkpt lat="42.47416" lon="3.04341">
        <ele>873</ele>
        <time>2024-09-23T10:54:40Z</time>
      </trkpt>
      <trkpt lat="42.47415" lon="3.04343">
        <ele>872</ele>
        <time>2024-09-23T10:54:44Z</time>
      </trkpt>
      <trkpt lat="42.47415" lon="3.04347">
        <ele>870</ele>
        <time>2024-09-23T10:54:51Z</time>
      </trkpt>
      <trkpt lat="42.47414" lon="3.04351">
        <ele>868</ele>
        <time>2024-09-23T10:54:56Z</time>
      </trkpt>
      <trkpt lat="42.47412" lon="3.04352">
        <ele>869</ele>
        <time>2024-09-23T10:55:09Z</time>
      </trkpt>
      <trkpt lat="42.4741" lon="3.04354">
        <ele>867</ele>
        <time>2024-09-23T10:55:31Z</time>
      </trkpt>
      <trkpt lat="42.47408" lon="3.04357">
        <ele>867</ele>
        <time>2024-09-23T10:55:34Z</time>
      </trkpt>
      <trkpt lat="42.47408" lon="3.04361">
        <ele>866</ele>
        <time>2024-09-23T10:55:39Z</time>
      </trkpt>
      <trkpt lat="42.47409" lon="3.04364">
        <ele>865</ele>
        <time>2024-09-23T10:55:43Z</time>
      </trkpt>
      <trkpt lat="42.47411" lon="3.04367">
        <ele>863</ele>
        <time>2024-09-23T10:55:46Z</time>
      </trkpt>
      <trkpt lat="42.47412" lon="3.0437">
        <ele>862</ele>
        <time>2024-09-23T10:55:50Z</time>
      </trkpt>
      <trkpt lat="42.47414" lon="3.04374">
        <ele>861</ele>
        <time>2024-09-23T10:55:54Z</time>
      </trkpt>
      <trkpt lat="42.47413" lon="3.04377">
        <ele>859</ele>
        <time>2024-09-23T10:55:58Z</time>
      </trkpt>
      <trkpt lat="42.4741" lon="3.04377">
        <ele>859</ele>
        <time>2024-09-23T10:56:01Z</time>
      </trkpt>
      <trkpt lat="42.47408" lon="3.04376">
        <ele>858</ele>
        <time>2024-09-23T10:56:05Z</time>
      </trkpt>
      <trkpt lat="42.47406" lon="3.04377">
        <ele>857</ele>
        <time>2024-09-23T10:56:08Z</time>
      </trkpt>
      <trkpt lat="42.47403" lon="3.04379">
        <ele>856</ele>
        <time>2024-09-23T10:56:12Z</time>
      </trkpt>
      <trkpt lat="42.474" lon="3.04381">
        <ele>854</ele>
        <time>2024-09-23T10:56:17Z</time>
      </trkpt>
      <trkpt lat="42.47398" lon="3.04383">
        <ele>853</ele>
        <time>2024-09-23T10:56:20Z</time>
      </trkpt>
      <trkpt lat="42.47397" lon="3.04386">
        <ele>852</ele>
        <time>2024-09-23T10:56:23Z</time>
      </trkpt>
      <trkpt lat="42.47398" lon="3.0439">
        <ele>852</ele>
        <time>2024-09-23T10:56:26Z</time>
      </trkpt>
      <trkpt lat="42.47398" lon="3.04394">
        <ele>852</ele>
        <time>2024-09-23T10:56:30Z</time>
      </trkpt>
      <trkpt lat="42.47398" lon="3.04398">
        <ele>850</ele>
        <time>2024-09-23T10:56:32Z</time>
      </trkpt>
      <trkpt lat="42.47399" lon="3.04402">
        <ele>849</ele>
        <time>2024-09-23T10:56:35Z</time>
      </trkpt>
      <trkpt lat="42.47399" lon="3.04405">
        <ele>848</ele>
        <time>2024-09-23T10:56:38Z</time>
      </trkpt>
      <trkpt lat="42.47399" lon="3.0441">
        <ele>848</ele>
        <time>2024-09-23T10:56:43Z</time>
      </trkpt>
      <trkpt lat="42.47399" lon="3.04414">
        <ele>847</ele>
        <time>2024-09-23T10:56:45Z</time>
      </trkpt>
      <trkpt lat="42.47399" lon="3.04418">
        <ele>847</ele>
        <time>2024-09-23T10:56:48Z</time>
      </trkpt>
      <trkpt lat="42.474" lon="3.04422">
        <ele>847</ele>
        <time>2024-09-23T10:56:50Z</time>
      </trkpt>
      <trkpt lat="42.47401" lon="3.04426">
        <ele>847</ele>
        <time>2024-09-23T10:56:54Z</time>
      </trkpt>
      <trkpt lat="42.47403" lon="3.04429">
        <ele>845</ele>
        <time>2024-09-23T10:56:57Z</time>
      </trkpt>
      <trkpt lat="42.47404" lon="3.04433">
        <ele>845</ele>
        <time>2024-09-23T10:57:00Z</time>
      </trkpt>
      <trkpt lat="42.47405" lon="3.04437">
        <ele>843</ele>
        <time>2024-09-23T10:57:03Z</time>
      </trkpt>
      <trkpt lat="42.47406" lon="3.04441">
        <ele>842</ele>
        <time>2024-09-23T10:57:08Z</time>
      </trkpt>
      <trkpt lat="42.47407" lon="3.04445">
        <ele>841</ele>
        <time>2024-09-23T10:57:12Z</time>
      </trkpt>
      <trkpt lat="42.47407" lon="3.04449">
        <ele>840</ele>
        <time>2024-09-23T10:57:16Z</time>
      </trkpt>
      <trkpt lat="42.47405" lon="3.04451">
        <ele>837</ele>
        <time>2024-09-23T10:57:22Z</time>
      </trkpt>
      <trkpt lat="42.47403" lon="3.04454">
        <ele>835</ele>
        <time>2024-09-23T10:57:26Z</time>
      </trkpt>
      <trkpt lat="42.47401" lon="3.04457">
        <ele>836</ele>
        <time>2024-09-23T10:57:29Z</time>
      </trkpt>
      <trkpt lat="42.47402" lon="3.0446">
        <ele>834</ele>
        <time>2024-09-23T10:57:33Z</time>
      </trkpt>
      <trkpt lat="42.47404" lon="3.04464">
        <ele>834</ele>
        <time>2024-09-23T10:57:37Z</time>
      </trkpt>
      <trkpt lat="42.47404" lon="3.04468">
        <ele>833</ele>
        <time>2024-09-23T10:57:40Z</time>
      </trkpt>
      <trkpt lat="42.47404" lon="3.04472">
        <ele>832</ele>
        <time>2024-09-23T10:57:45Z</time>
      </trkpt>
      <trkpt lat="42.47403" lon="3.04473">
        <ele>830</ele>
        <time>2024-09-23T10:57:50Z</time>
      </trkpt>
      <trkpt lat="42.474" lon="3.04471">
        <ele>829</ele>
        <time>2024-09-23T10:57:55Z</time>
      </trkpt>
      <trkpt lat="42.47399" lon="3.04474">
        <ele>827</ele>
        <time>2024-09-23T10:58:02Z</time>
      </trkpt>
      <trkpt lat="42.47399" lon="3.04477">
        <ele>825</ele>
        <time>2024-09-23T10:58:06Z</time>
      </trkpt>
      <trkpt lat="42.47397" lon="3.04479">
        <ele>826</ele>
        <time>2024-09-23T10:58:10Z</time>
      </trkpt>
      <trkpt lat="42.47394" lon="3.04482">
        <ele>824</ele>
        <time>2024-09-23T10:58:14Z</time>
      </trkpt>
      <trkpt lat="42.47394" lon="3.04486">
        <ele>823</ele>
        <time>2024-09-23T10:58:18Z</time>
      </trkpt>
      <trkpt lat="42.47396" lon="3.0449">
        <ele>824</ele>
        <time>2024-09-23T10:58:21Z</time>
      </trkpt>
      <trkpt lat="42.47398" lon="3.04493">
        <ele>822</ele>
        <time>2024-09-23T10:58:25Z</time>
      </trkpt>
      <trkpt lat="42.47397" lon="3.04496">
        <ele>820</ele>
        <time>2024-09-23T10:58:31Z</time>
      </trkpt>
      <trkpt lat="42.47397" lon="3.04499">
        <ele>818</ele>
        <time>2024-09-23T10:58:36Z</time>
      </trkpt>
      <trkpt lat="42.47398" lon="3.04503">
        <ele>818</ele>
        <time>2024-09-23T10:58:40Z</time>
      </trkpt>
      <trkpt lat="42.47398" lon="3.04507">
        <ele>817</ele>
        <time>2024-09-23T10:58:45Z</time>
      </trkpt>
      <trkpt lat="42.47397" lon="3.0451">
        <ele>815</ele>
        <time>2024-09-23T10:58:50Z</time>
      </trkpt>
      <trkpt lat="42.47395" lon="3.04513">
        <ele>815</ele>
        <time>2024-09-23T10:58:56Z</time>
      </trkpt>
      <trkpt lat="42.47395" lon="3.04517">
        <ele>814</ele>
        <time>2024-09-23T10:59:28Z</time>
      </trkpt>
      <trkpt lat="42.47395" lon="3.04521">
        <ele>813</ele>
        <time>2024-09-23T10:59:32Z</time>
      </trkpt>
      <trkpt lat="42.47395" lon="3.04525">
        <ele>812</ele>
        <time>2024-09-23T10:59:36Z</time>
      </trkpt>
      <trkpt lat="42.47396" lon="3.04529">
        <ele>810</ele>
        <time>2024-09-23T10:59:40Z</time>
      </trkpt>
      <trkpt lat="42.47398" lon="3.04532">
        <ele>810</ele>
        <time>2024-09-23T10:59:43Z</time>
      </trkpt>
      <trkpt lat="42.47399" lon="3.04536">
        <ele>809</ele>
        <time>2024-09-23T10:59:47Z</time>
      </trkpt>
      <trkpt lat="42.47401" lon="3.04539">
        <ele>809</ele>
        <time>2024-09-23T10:59:53Z</time>
      </trkpt>
      <trkpt lat="42.47404" lon="3.0454">
        <ele>807</ele>
        <time>2024-09-23T10:59:58Z</time>
      </trkpt>
      <trkpt lat="42.47406" lon="3.04539">
        <ele>806</ele>
        <time>2024-09-23T11:00:02Z</time>
      </trkpt>
      <trkpt lat="42.47409" lon="3.04538">
        <ele>804</ele>
        <time>2024-09-23T11:00:15Z</time>
      </trkpt>
      <trkpt lat="42.47412" lon="3.04539">
        <ele>802</ele>
        <time>2024-09-23T11:00:53Z</time>
      </trkpt>
      <trkpt lat="42.47412" lon="3.04541">
        <ele>800</ele>
        <time>2024-09-23T11:00:59Z</time>
      </trkpt>
      <trkpt lat="42.47413" lon="3.04545">
        <ele>800</ele>
        <time>2024-09-23T11:01:03Z</time>
      </trkpt>
      <trkpt lat="42.47413" lon="3.04549">
        <ele>800</ele>
        <time>2024-09-23T11:01:06Z</time>
      </trkpt>
      <trkpt lat="42.47413" lon="3.04553">
        <ele>799</ele>
        <time>2024-09-23T11:01:14Z</time>
      </trkpt>
      <trkpt lat="42.47412" lon="3.04557">
        <ele>796</ele>
        <time>2024-09-23T11:01:23Z</time>
      </trkpt>
      <trkpt lat="42.47412" lon="3.04561">
        <ele>795</ele>
        <time>2024-09-23T11:01:28Z</time>
      </trkpt>
      <trkpt lat="42.47411" lon="3.04564">
        <ele>794</ele>
        <time>2024-09-23T11:01:33Z</time>
      </trkpt>
      <trkpt lat="42.47409" lon="3.04568">
        <ele>793</ele>
        <time>2024-09-23T11:01:37Z</time>
      </trkpt>
      <trkpt lat="42.47409" lon="3.04572">
        <ele>792</ele>
        <time>2024-09-23T11:01:42Z</time>
      </trkpt>
      <trkpt lat="42.47409" lon="3.04576">
        <ele>790</ele>
        <time>2024-09-23T11:01:48Z</time>
      </trkpt>
      <trkpt lat="42.47409" lon="3.0458">
        <ele>790</ele>
        <time>2024-09-23T11:01:53Z</time>
      </trkpt>
      <trkpt lat="42.47408" lon="3.04584">
        <ele>789</ele>
        <time>2024-09-23T11:01:57Z</time>
      </trkpt>
      <trkpt lat="42.47407" lon="3.04588">
        <ele>788</ele>
        <time>2024-09-23T11:02:01Z</time>
      </trkpt>
      <trkpt lat="42.47405" lon="3.04592">
        <ele>787</ele>
        <time>2024-09-23T11:02:07Z</time>
      </trkpt>
      <trkpt lat="42.47405" lon="3.04595">
        <ele>785</ele>
        <time>2024-09-23T11:02:12Z</time>
      </trkpt>
      <trkpt lat="42.47404" lon="3.04599">
        <ele>785</ele>
        <time>2024-09-23T11:02:17Z</time>
      </trkpt>
      <trkpt lat="42.47403" lon="3.04603">
        <ele>783</ele>
        <time>2024-09-23T11:02:22Z</time>
      </trkpt>
      <trkpt lat="42.47402" lon="3.04607">
        <ele>784</ele>
        <time>2024-09-23T11:02:26Z</time>
      </trkpt>
      <trkpt lat="42.474" lon="3.04609">
        <ele>782</ele>
        <time>2024-09-23T11:02:31Z</time>
      </trkpt>
      <trkpt lat="42.47399" lon="3.04612">
        <ele>781</ele>
        <time>2024-09-23T11:02:37Z</time>
      </trkpt>
      <trkpt lat="42.47398" lon="3.04616">
        <ele>781</ele>
        <time>2024-09-23T11:02:41Z</time>
      </trkpt>
      <trkpt lat="42.47398" lon="3.04619">
        <ele>779</ele>
        <time>2024-09-23T11:02:45Z</time>
      </trkpt>
      <trkpt lat="42.47397" lon="3.04623">
        <ele>778</ele>
        <time>2024-09-23T11:02:50Z</time>
      </trkpt>
      <trkpt lat="42.47396" lon="3.04627">
        <ele>777</ele>
        <time>2024-09-23T11:02:57Z</time>
      </trkpt>
      <trkpt lat="42.47394" lon="3.04629">
        <ele>775</ele>
        <time>2024-09-23T11:03:06Z</time>
      </trkpt>
      <trkpt lat="42.47393" lon="3.04632">
        <ele>773</ele>
        <time>2024-09-23T11:03:10Z</time>
      </trkpt>
      <trkpt lat="42.4739" lon="3.04634">
        <ele>772</ele>
        <time>2024-09-23T11:03:14Z</time>
      </trkpt>
      <trkpt lat="42.4739" lon="3.04638">
        <ele>772</ele>
        <time>2024-09-23T11:03:17Z</time>
      </trkpt>
      <trkpt lat="42.47387" lon="3.0464">
        <ele>770</ele>
        <time>2024-09-23T11:03:23Z</time>
      </trkpt>
      <trkpt lat="42.47385" lon="3.04639">
        <ele>770</ele>
        <time>2024-09-23T11:03:28Z</time>
      </trkpt>
      <trkpt lat="42.47382" lon="3.04639">
        <ele>768</ele>
        <time>2024-09-23T11:03:32Z</time>
      </trkpt>
      <trkpt lat="42.47379" lon="3.04641">
        <ele>768</ele>
        <time>2024-09-23T11:03:35Z</time>
      </trkpt>
      <trkpt lat="42.47378" lon="3.04644">
        <ele>765</ele>
        <time>2024-09-23T11:03:39Z</time>
      </trkpt>
      <trkpt lat="42.47379" lon="3.04646">
        <ele>764</ele>
        <time>2024-09-23T11:03:42Z</time>
      </trkpt>
      <trkpt lat="42.4738" lon="3.0465">
        <ele>764</ele>
        <time>2024-09-23T11:03:45Z</time>
      </trkpt>
      <trkpt lat="42.47379" lon="3.04653">
        <ele>764</ele>
        <time>2024-09-23T11:03:47Z</time>
      </trkpt>
      <trkpt lat="42.47377" lon="3.04654">
        <ele>762</ele>
        <time>2024-09-23T11:03:51Z</time>
      </trkpt>
      <trkpt lat="42.47375" lon="3.04652">
        <ele>763</ele>
        <time>2024-09-23T11:04:21Z</time>
      </trkpt>
      <trkpt lat="42.47372" lon="3.04653">
        <ele>761</ele>
        <time>2024-09-23T11:04:33Z</time>
      </trkpt>
      <trkpt lat="42.47369" lon="3.04654">
        <ele>759</ele>
        <time>2024-09-23T11:04:37Z</time>
      </trkpt>
      <trkpt lat="42.47368" lon="3.04657">
        <ele>758</ele>
        <time>2024-09-23T11:04:42Z</time>
      </trkpt>
      <trkpt lat="42.47368" lon="3.0466">
        <ele>758</ele>
        <time>2024-09-23T11:04:45Z</time>
      </trkpt>
      <trkpt lat="42.47368" lon="3.04664">
        <ele>758</ele>
        <time>2024-09-23T11:04:48Z</time>
      </trkpt>
      <trkpt lat="42.47367" lon="3.04668">
        <ele>757</ele>
        <time>2024-09-23T11:04:54Z</time>
      </trkpt>
      <trkpt lat="42.47367" lon="3.04672">
        <ele>756</ele>
        <time>2024-09-23T11:04:57Z</time>
      </trkpt>
      <trkpt lat="42.47367" lon="3.04677">
        <ele>756</ele>
        <time>2024-09-23T11:04:59Z</time>
      </trkpt>
      <trkpt lat="42.47367" lon="3.04681">
        <ele>755</ele>
        <time>2024-09-23T11:05:02Z</time>
      </trkpt>
      <trkpt lat="42.47367" lon="3.04685">
        <ele>756</ele>
        <time>2024-09-23T11:05:05Z</time>
      </trkpt>
      <trkpt lat="42.47367" lon="3.0469">
        <ele>755</ele>
        <time>2024-09-23T11:05:09Z</time>
      </trkpt>
      <trkpt lat="42.47369" lon="3.04693">
        <ele>755</ele>
        <time>2024-09-23T11:05:12Z</time>
      </trkpt>
      <trkpt lat="42.47369" lon="3.04697">
        <ele>753</ele>
        <time>2024-09-23T11:05:17Z</time>
      </trkpt>
      <trkpt lat="42.47371" lon="3.04701">
        <ele>752</ele>
        <time>2024-09-23T11:05:20Z</time>
      </trkpt>
      <trkpt lat="42.47372" lon="3.04705">
        <ele>751</ele>
        <time>2024-09-23T11:05:23Z</time>
      </trkpt>
      <trkpt lat="42.47371" lon="3.04709">
        <ele>749</ele>
        <time>2024-09-23T11:05:28Z</time>
      </trkpt>
      <trkpt lat="42.47372" lon="3.04713">
        <ele>749</ele>
        <time>2024-09-23T11:05:31Z</time>
      </trkpt>
      <trkpt lat="42.47374" lon="3.04716">
        <ele>750</ele>
        <time>2024-09-23T11:05:34Z</time>
      </trkpt>
      <trkpt lat="42.47376" lon="3.04719">
        <ele>749</ele>
        <time>2024-09-23T11:05:38Z</time>
      </trkpt>
      <trkpt lat="42.47378" lon="3.04724">
        <ele>749</ele>
        <time>2024-09-23T11:05:41Z</time>
      </trkpt>
      <trkpt lat="42.47378" lon="3.04727">
        <ele>749</ele>
        <time>2024-09-23T11:05:45Z</time>
      </trkpt>
      <trkpt lat="42.47379" lon="3.04731">
        <ele>748</ele>
        <time>2024-09-23T11:05:48Z</time>
      </trkpt>
      <trkpt lat="42.47381" lon="3.04734">
        <ele>750</ele>
        <time>2024-09-23T11:05:51Z</time>
      </trkpt>
      <trkpt lat="42.47384" lon="3.04734">
        <ele>749</ele>
        <time>2024-09-23T11:05:54Z</time>
      </trkpt>
      <trkpt lat="42.47386" lon="3.04737">
        <ele>748</ele>
        <time>2024-09-23T11:05:57Z</time>
      </trkpt>
      <trkpt lat="42.47388" lon="3.0474">
        <ele>747</ele>
        <time>2024-09-23T11:06:02Z</time>
      </trkpt>
      <trkpt lat="42.47389" lon="3.04744">
        <ele>745</ele>
        <time>2024-09-23T11:06:06Z</time>
      </trkpt>
      <trkpt lat="42.47389" lon="3.04748">
        <ele>744</ele>
        <time>2024-09-23T11:06:11Z</time>
      </trkpt>
      <trkpt lat="42.4739" lon="3.04751">
        <ele>743</ele>
        <time>2024-09-23T11:06:15Z</time>
      </trkpt>
      <trkpt lat="42.47392" lon="3.04754">
        <ele>742</ele>
        <time>2024-09-23T11:06:19Z</time>
      </trkpt>
      <trkpt lat="42.47393" lon="3.04758">
        <ele>742</ele>
        <time>2024-09-23T11:06:22Z</time>
      </trkpt>
      <trkpt lat="42.47394" lon="3.04761">
        <ele>741</ele>
        <time>2024-09-23T11:06:26Z</time>
      </trkpt>
      <trkpt lat="42.47395" lon="3.04766">
        <ele>739</ele>
        <time>2024-09-23T11:06:31Z</time>
      </trkpt>
      <trkpt lat="42.47396" lon="3.0477">
        <ele>738</ele>
        <time>2024-09-23T11:06:35Z</time>
      </trkpt>
      <trkpt lat="42.47397" lon="3.04774">
        <ele>738</ele>
        <time>2024-09-23T11:06:38Z</time>
      </trkpt>
      <trkpt lat="42.47397" lon="3.04777">
        <ele>738</ele>
        <time>2024-09-23T11:06:41Z</time>
      </trkpt>
      <trkpt lat="42.47396" lon="3.04781">
        <ele>737</ele>
        <time>2024-09-23T11:06:44Z</time>
      </trkpt>
      <trkpt lat="42.47395" lon="3.04784">
        <ele>737</ele>
        <time>2024-09-23T11:06:47Z</time>
      </trkpt>
      <trkpt lat="42.47394" lon="3.04788">
        <ele>735</ele>
        <time>2024-09-23T11:06:51Z</time>
      </trkpt>
      <trkpt lat="42.47394" lon="3.04792">
        <ele>736</ele>
        <time>2024-09-23T11:06:54Z</time>
      </trkpt>
      <trkpt lat="42.47393" lon="3.04796">
        <ele>733</ele>
        <time>2024-09-23T11:07:04Z</time>
      </trkpt>
      <trkpt lat="42.47391" lon="3.04799">
        <ele>732</ele>
        <time>2024-09-23T11:07:08Z</time>
      </trkpt>
      <trkpt lat="42.4739" lon="3.04802">
        <ele>731</ele>
        <time>2024-09-23T11:07:12Z</time>
      </trkpt>
      <trkpt lat="42.4739" lon="3.04806">
        <ele>730</ele>
        <time>2024-09-23T11:07:16Z</time>
      </trkpt>
      <trkpt lat="42.4739" lon="3.04811">
        <ele>731</ele>
        <time>2024-09-23T11:07:20Z</time>
      </trkpt>
      <trkpt lat="42.47388" lon="3.04814">
        <ele>730</ele>
        <time>2024-09-23T11:07:24Z</time>
      </trkpt>
      <trkpt lat="42.47386" lon="3.04817">
        <ele>728</ele>
        <time>2024-09-23T11:07:28Z</time>
      </trkpt>
      <trkpt lat="42.47383" lon="3.04819">
        <ele>727</ele>
        <time>2024-09-23T11:07:37Z</time>
      </trkpt>
      <trkpt lat="42.4738" lon="3.0482">
        <ele>727</ele>
        <time>2024-09-23T11:07:46Z</time>
      </trkpt>
      <trkpt lat="42.47378" lon="3.04823">
        <ele>728</ele>
        <time>2024-09-23T11:08:14Z</time>
      </trkpt>
      <trkpt lat="42.47378" lon="3.04827">
        <ele>727</ele>
        <time>2024-09-23T11:08:18Z</time>
      </trkpt>
      <trkpt lat="42.47377" lon="3.04831">
        <ele>726</ele>
        <time>2024-09-23T11:08:22Z</time>
      </trkpt>
      <trkpt lat="42.47376" lon="3.04835">
        <ele>724</ele>
        <time>2024-09-23T11:08:26Z</time>
      </trkpt>
      <trkpt lat="42.47376" lon="3.04839">
        <ele>723</ele>
        <time>2024-09-23T11:08:29Z</time>
      </trkpt>
      <trkpt lat="42.47378" lon="3.04841">
        <ele>723</ele>
        <time>2024-09-23T11:08:32Z</time>
      </trkpt>
      <trkpt lat="42.47379" lon="3.04845">
        <ele>721</ele>
        <time>2024-09-23T11:08:41Z</time>
      </trkpt>
      <trkpt lat="42.4738" lon="3.04849">
        <ele>719</ele>
        <time>2024-09-23T11:08:44Z</time>
      </trkpt>
      <trkpt lat="42.4738" lon="3.04853">
        <ele>718</ele>
        <time>2024-09-23T11:08:50Z</time>
      </trkpt>
      <trkpt lat="42.4738" lon="3.04857">
        <ele>718</ele>
        <time>2024-09-23T11:08:54Z</time>
      </trkpt>
      <trkpt lat="42.47381" lon="3.04861">
        <ele>717</ele>
        <time>2024-09-23T11:08:57Z</time>
      </trkpt>
      <trkpt lat="42.47383" lon="3.04863">
        <ele>716</ele>
        <time>2024-09-23T11:09:01Z</time>
      </trkpt>
      <trkpt lat="42.47385" lon="3.04865">
        <ele>715</ele>
        <time>2024-09-23T11:09:06Z</time>
      </trkpt>
      <trkpt lat="42.47386" lon="3.04868">
        <ele>714</ele>
        <time>2024-09-23T11:09:11Z</time>
      </trkpt>
      <trkpt lat="42.47387" lon="3.04872">
        <ele>713</ele>
        <time>2024-09-23T11:09:15Z</time>
      </trkpt>
      <trkpt lat="42.47388" lon="3.04874">
        <ele>711</ele>
        <time>2024-09-23T11:09:20Z</time>
      </trkpt>
      <trkpt lat="42.47391" lon="3.04876">
        <ele>709</ele>
        <time>2024-09-23T11:09:25Z</time>
      </trkpt>
      <trkpt lat="42.47392" lon="3.0488">
        <ele>709</ele>
        <time>2024-09-23T11:09:29Z</time>
      </trkpt>
      <trkpt lat="42.47394" lon="3.04883">
        <ele>707</ele>
        <time>2024-09-23T11:09:33Z</time>
      </trkpt>
      <trkpt lat="42.47397" lon="3.04883">
        <ele>706</ele>
        <time>2024-09-23T11:09:38Z</time>
      </trkpt>
      <trkpt lat="42.474" lon="3.04883">
        <ele>704</ele>
        <time>2024-09-23T11:09:42Z</time>
      </trkpt>
      <trkpt lat="42.47404" lon="3.04883">
        <ele>704</ele>
        <time>2024-09-23T11:09:45Z</time>
      </trkpt>
      <trkpt lat="42.47405" lon="3.04886">
        <ele>703</ele>
        <time>2024-09-23T11:09:50Z</time>
      </trkpt>
      <trkpt lat="42.47405" lon="3.04889">
        <ele>703</ele>
        <time>2024-09-23T11:09:53Z</time>
      </trkpt>
      <trkpt lat="42.47405" lon="3.04892">
        <ele>702</ele>
        <time>2024-09-23T11:09:57Z</time>
      </trkpt>
      <trkpt lat="42.47405" lon="3.04896">
        <ele>701</ele>
        <time>2024-09-23T11:10:00Z</time>
      </trkpt>
      <trkpt lat="42.47405" lon="3.049">
        <ele>701</ele>
        <time>2024-09-23T11:10:04Z</time>
      </trkpt>
      <trkpt lat="42.47404" lon="3.04905">
        <ele>700</ele>
        <time>2024-09-23T11:10:07Z</time>
      </trkpt>
      <trkpt lat="42.47404" lon="3.04909">
        <ele>700</ele>
        <time>2024-09-23T11:10:11Z</time>
      </trkpt>
      <trkpt lat="42.47404" lon="3.04913">
        <ele>700</ele>
        <time>2024-09-23T11:10:15Z</time>
      </trkpt>
      <trkpt lat="42.47403" lon="3.04917">
        <ele>697</ele>
        <time>2024-09-23T11:10:21Z</time>
      </trkpt>
      <trkpt lat="42.47403" lon="3.04921">
        <ele>698</ele>
        <time>2024-09-23T11:10:24Z</time>
      </trkpt>
      <trkpt lat="42.47402" lon="3.04925">
        <ele>699</ele>
        <time>2024-09-23T11:10:27Z</time>
      </trkpt>
      <trkpt lat="42.47401" lon="3.04928">
        <ele>697</ele>
        <time>2024-09-23T11:10:33Z</time>
      </trkpt>
      <trkpt lat="42.474" lon="3.04932">
        <ele>695</ele>
        <time>2024-09-23T11:10:37Z</time>
      </trkpt>
      <trkpt lat="42.47398" lon="3.04936">
        <ele>694</ele>
        <time>2024-09-23T11:10:41Z</time>
      </trkpt>
      <trkpt lat="42.47398" lon="3.0494">
        <ele>693</ele>
        <time>2024-09-23T11:10:44Z</time>
      </trkpt>
      <trkpt lat="42.47397" lon="3.04944">
        <ele>692</ele>
        <time>2024-09-23T11:10:48Z</time>
      </trkpt>
      <trkpt lat="42.47397" lon="3.04948">
        <ele>691</ele>
        <time>2024-09-23T11:10:51Z</time>
      </trkpt>
      <trkpt lat="42.47396" lon="3.04952">
        <ele>690</ele>
        <time>2024-09-23T11:10:54Z</time>
      </trkpt>
      <trkpt lat="42.47395" lon="3.04956">
        <ele>690</ele>
        <time>2024-09-23T11:10:57Z</time>
      </trkpt>
      <trkpt lat="42.47394" lon="3.0496">
        <ele>690</ele>
        <time>2024-09-23T11:11:00Z</time>
      </trkpt>
      <trkpt lat="42.47394" lon="3.04964">
        <ele>689</ele>
        <time>2024-09-23T11:11:04Z</time>
      </trkpt>
      <trkpt lat="42.47394" lon="3.04968">
        <ele>688</ele>
        <time>2024-09-23T11:11:08Z</time>
      </trkpt>
      <trkpt lat="42.47394" lon="3.04971">
        <ele>688</ele>
        <time>2024-09-23T11:11:12Z</time>
      </trkpt>
      <trkpt lat="42.47393" lon="3.04975">
        <ele>687</ele>
        <time>2024-09-23T11:11:21Z</time>
      </trkpt>
      <trkpt lat="42.47391" lon="3.04978">
        <ele>686</ele>
        <time>2024-09-23T11:11:26Z</time>
      </trkpt>
      <trkpt lat="42.47391" lon="3.04983">
        <ele>685</ele>
        <time>2024-09-23T11:11:31Z</time>
      </trkpt>
      <trkpt lat="42.47389" lon="3.04986">
        <ele>685</ele>
        <time>2024-09-23T11:11:34Z</time>
      </trkpt>
      <trkpt lat="42.47388" lon="3.0499">
        <ele>684</ele>
        <time>2024-09-23T11:11:39Z</time>
      </trkpt>
      <trkpt lat="42.47389" lon="3.04994">
        <ele>683</ele>
        <time>2024-09-23T11:11:43Z</time>
      </trkpt>
      <trkpt lat="42.47388" lon="3.04998">
        <ele>682</ele>
        <time>2024-09-23T11:11:48Z</time>
      </trkpt>
      <trkpt lat="42.47389" lon="3.05001">
        <ele>681</ele>
        <time>2024-09-23T11:11:51Z</time>
      </trkpt>
      <trkpt lat="42.4739" lon="3.05006">
        <ele>680</ele>
        <time>2024-09-23T11:11:55Z</time>
      </trkpt>
      <trkpt lat="42.4739" lon="3.0501">
        <ele>680</ele>
        <time>2024-09-23T11:11:59Z</time>
      </trkpt>
      <trkpt lat="42.47391" lon="3.05013">
        <ele>679</ele>
        <time>2024-09-23T11:12:02Z</time>
      </trkpt>
      <trkpt lat="42.47393" lon="3.05017">
        <ele>679</ele>
        <time>2024-09-23T11:12:05Z</time>
      </trkpt>
      <trkpt lat="42.47395" lon="3.05018">
        <ele>677</ele>
        <time>2024-09-23T11:12:09Z</time>
      </trkpt>
      <trkpt lat="42.47397" lon="3.05021">
        <ele>677</ele>
        <time>2024-09-23T11:12:12Z</time>
      </trkpt>
      <trkpt lat="42.47398" lon="3.05025">
        <ele>676</ele>
        <time>2024-09-23T11:12:16Z</time>
      </trkpt>
      <trkpt lat="42.474" lon="3.05028">
        <ele>675</ele>
        <time>2024-09-23T11:12:20Z</time>
      </trkpt>
      <trkpt lat="42.47401" lon="3.05032">
        <ele>675</ele>
        <time>2024-09-23T11:12:23Z</time>
      </trkpt>
      <trkpt lat="42.47401" lon="3.05036">
        <ele>674</ele>
        <time>2024-09-23T11:12:27Z</time>
      </trkpt>
      <trkpt lat="42.474" lon="3.0504">
        <ele>675</ele>
        <time>2024-09-23T11:12:30Z</time>
      </trkpt>
      <trkpt lat="42.474" lon="3.05044">
        <ele>675</ele>
        <time>2024-09-23T11:12:33Z</time>
      </trkpt>
      <trkpt lat="42.47401" lon="3.05048">
        <ele>675</ele>
        <time>2024-09-23T11:12:36Z</time>
      </trkpt>
      <trkpt lat="42.47403" lon="3.05051">
        <ele>674</ele>
        <time>2024-09-23T11:12:39Z</time>
      </trkpt>
      <trkpt lat="42.47405" lon="3.05055">
        <ele>674</ele>
        <time>2024-09-23T11:12:43Z</time>
      </trkpt>
      <trkpt lat="42.47406" lon="3.05058">
        <ele>674</ele>
        <time>2024-09-23T11:12:46Z</time>
      </trkpt>
      <trkpt lat="42.47404" lon="3.05061">
        <ele>674</ele>
        <time>2024-09-23T11:12:54Z</time>
      </trkpt>
      <trkpt lat="42.47402" lon="3.05063">
        <ele>673</ele>
        <time>2024-09-23T11:12:57Z</time>
      </trkpt>
      <trkpt lat="42.47399" lon="3.05065">
        <ele>673</ele>
        <time>2024-09-23T11:13:02Z</time>
      </trkpt>
      <trkpt lat="42.47398" lon="3.05069">
        <ele>672</ele>
        <time>2024-09-23T11:13:06Z</time>
      </trkpt>
      <trkpt lat="42.47397" lon="3.05071">
        <ele>671</ele>
        <time>2024-09-23T11:13:10Z</time>
      </trkpt>
      <trkpt lat="42.47396" lon="3.05075">
        <ele>670</ele>
        <time>2024-09-23T11:13:17Z</time>
      </trkpt>
      <trkpt lat="42.47396" lon="3.05079">
        <ele>669</ele>
        <time>2024-09-23T11:13:21Z</time>
      </trkpt>
      <trkpt lat="42.47396" lon="3.05083">
        <ele>667</ele>
        <time>2024-09-23T11:13:26Z</time>
      </trkpt>
      <trkpt lat="42.47397" lon="3.05087">
        <ele>667</ele>
        <time>2024-09-23T11:13:30Z</time>
      </trkpt>
      <trkpt lat="42.47398" lon="3.0509">
        <ele>665</ele>
        <time>2024-09-23T11:13:35Z</time>
      </trkpt>
      <trkpt lat="42.47398" lon="3.05094">
        <ele>664</ele>
        <time>2024-09-23T11:13:40Z</time>
      </trkpt>
      <trkpt lat="42.47398" lon="3.05098">
        <ele>663</ele>
        <time>2024-09-23T11:13:45Z</time>
      </trkpt>
      <trkpt lat="42.47399" lon="3.05102">
        <ele>662</ele>
        <time>2024-09-23T11:13:50Z</time>
      </trkpt>
      <trkpt lat="42.474" lon="3.05106">
        <ele>660</ele>
        <time>2024-09-23T11:13:55Z</time>
      </trkpt>
      <trkpt lat="42.47401" lon="3.05109">
        <ele>660</ele>
        <time>2024-09-23T11:13:59Z</time>
      </trkpt>
      <trkpt lat="42.47402" lon="3.05113">
        <ele>658</ele>
        <time>2024-09-23T11:14:04Z</time>
      </trkpt>
      <trkpt lat="42.47402" lon="3.05117">
        <ele>659</ele>
        <time>2024-09-23T11:14:07Z</time>
      </trkpt>
      <trkpt lat="42.47405" lon="3.0512">
        <ele>658</ele>
        <time>2024-09-23T11:14:10Z</time>
      </trkpt>
      <trkpt lat="42.47407" lon="3.05123">
        <ele>658</ele>
        <time>2024-09-23T11:14:13Z</time>
      </trkpt>
      <trkpt lat="42.47409" lon="3.05126">
        <ele>658</ele>
        <time>2024-09-23T11:14:16Z</time>
      </trkpt>
      <trkpt lat="42.47409" lon="3.0513">
        <ele>658</ele>
        <time>2024-09-23T11:14:19Z</time>
      </trkpt>
      <trkpt lat="42.47411" lon="3.05134">
        <ele>657</ele>
        <time>2024-09-23T11:14:23Z</time>
      </trkpt>
      <trkpt lat="42.47412" lon="3.05138">
        <ele>656</ele>
        <time>2024-09-23T11:14:27Z</time>
      </trkpt>
      <trkpt lat="42.47414" lon="3.05142">
        <ele>655</ele>
        <time>2024-09-23T11:14:33Z</time>
      </trkpt>
      <trkpt lat="42.47415" lon="3.05145">
        <ele>654</ele>
        <time>2024-09-23T11:14:38Z</time>
      </trkpt>
      <trkpt lat="42.47414" lon="3.05149">
        <ele>653</ele>
        <time>2024-09-23T11:14:42Z</time>
      </trkpt>
      <trkpt lat="42.47414" lon="3.05153">
        <ele>653</ele>
        <time>2024-09-23T11:14:52Z</time>
      </trkpt>
      <trkpt lat="42.47414" lon="3.05152">
        <ele>652</ele>
        <time>2024-09-23T11:15:08Z</time>
      </trkpt>
      <trkpt lat="42.47415" lon="3.05154">
        <ele>654</ele>
        <time>2024-09-23T11:17:15Z</time>
      </trkpt>
      <trkpt lat="42.47416" lon="3.05157">
        <ele>652</ele>
        <time>2024-09-23T11:17:20Z</time>
      </trkpt>
      <trkpt lat="42.47419" lon="3.05159">
        <ele>650</ele>
        <time>2024-09-23T11:17:24Z</time>
      </trkpt>
      <trkpt lat="42.47421" lon="3.05162">
        <ele>649</ele>
        <time>2024-09-23T11:17:27Z</time>
      </trkpt>
      <trkpt lat="42.47423" lon="3.05165">
        <ele>648</ele>
        <time>2024-09-23T11:17:33Z</time>
      </trkpt>
      <trkpt lat="42.47423" lon="3.0517">
        <ele>646</ele>
        <time>2024-09-23T11:17:37Z</time>
      </trkpt>
      <trkpt lat="42.47424" lon="3.05174">
        <ele>645</ele>
        <time>2024-09-23T11:17:42Z</time>
      </trkpt>
      <trkpt lat="42.47425" lon="3.05178">
        <ele>643</ele>
        <time>2024-09-23T11:17:46Z</time>
      </trkpt>
      <trkpt lat="42.47427" lon="3.05181">
        <ele>641</ele>
        <time>2024-09-23T11:17:50Z</time>
      </trkpt>
      <trkpt lat="42.47428" lon="3.05185">
        <ele>640</ele>
        <time>2024-09-23T11:17:53Z</time>
      </trkpt>
      <trkpt lat="42.47427" lon="3.05189">
        <ele>640</ele>
        <time>2024-09-23T11:17:56Z</time>
      </trkpt>
      <trkpt lat="42.47428" lon="3.05194">
        <ele>639</ele>
        <time>2024-09-23T11:18:00Z</time>
      </trkpt>
      <trkpt lat="42.47429" lon="3.05197">
        <ele>639</ele>
        <time>2024-09-23T11:18:02Z</time>
      </trkpt>
      <trkpt lat="42.47429" lon="3.05202">
        <ele>638</ele>
        <time>2024-09-23T11:18:06Z</time>
      </trkpt>
      <trkpt lat="42.4743" lon="3.05206">
        <ele>636</ele>
        <time>2024-09-23T11:18:10Z</time>
      </trkpt>
      <trkpt lat="42.4743" lon="3.0521">
        <ele>635</ele>
        <time>2024-09-23T11:18:15Z</time>
      </trkpt>
      <trkpt lat="42.47431" lon="3.05214">
        <ele>635</ele>
        <time>2024-09-23T11:18:18Z</time>
      </trkpt>
      <trkpt lat="42.4743" lon="3.05217">
        <ele>634</ele>
        <time>2024-09-23T11:18:21Z</time>
      </trkpt>
      <trkpt lat="42.47429" lon="3.05221">
        <ele>635</ele>
        <time>2024-09-23T11:18:24Z</time>
      </trkpt>
      <trkpt lat="42.47428" lon="3.05226">
        <ele>634</ele>
        <time>2024-09-23T11:18:28Z</time>
      </trkpt>
      <trkpt lat="42.47426" lon="3.05225">
        <ele>634</ele>
        <time>2024-09-23T11:18:34Z</time>
      </trkpt>
      <trkpt lat="42.47426" lon="3.05227">
        <ele>635</ele>
        <time>2024-09-23T11:19:03Z</time>
      </trkpt>
      <trkpt lat="42.47428" lon="3.05229">
        <ele>635</ele>
        <time>2024-09-23T11:19:06Z</time>
      </trkpt>
      <trkpt lat="42.4743" lon="3.05232">
        <ele>633</ele>
        <time>2024-09-23T11:19:09Z</time>
      </trkpt>
      <trkpt lat="42.47433" lon="3.05234">
        <ele>632</ele>
        <time>2024-09-23T11:19:12Z</time>
      </trkpt>
      <trkpt lat="42.47434" lon="3.05238">
        <ele>632</ele>
        <time>2024-09-23T11:19:14Z</time>
      </trkpt>
      <trkpt lat="42.47436" lon="3.05242">
        <ele>632</ele>
        <time>2024-09-23T11:19:16Z</time>
      </trkpt>
      <trkpt lat="42.47437" lon="3.05246">
        <ele>629</ele>
        <time>2024-09-23T11:19:20Z</time>
      </trkpt>
      <trkpt lat="42.47439" lon="3.0525">
        <ele>628</ele>
        <time>2024-09-23T11:19:23Z</time>
      </trkpt>
      <trkpt lat="42.47441" lon="3.05253">
        <ele>628</ele>
        <time>2024-09-23T11:19:26Z</time>
      </trkpt>
      <trkpt lat="42.47443" lon="3.05255">
        <ele>628</ele>
        <time>2024-09-23T11:19:29Z</time>
      </trkpt>
      <trkpt lat="42.47445" lon="3.05259">
        <ele>626</ele>
        <time>2024-09-23T11:19:36Z</time>
      </trkpt>
      <trkpt lat="42.47447" lon="3.05262">
        <ele>625</ele>
        <time>2024-09-23T11:19:40Z</time>
      </trkpt>
      <trkpt lat="42.47448" lon="3.05266">
        <ele>624</ele>
        <time>2024-09-23T11:19:44Z</time>
      </trkpt>
      <trkpt lat="42.47449" lon="3.05269">
        <ele>623</ele>
        <time>2024-09-23T11:19:47Z</time>
      </trkpt>
      <trkpt lat="42.47449" lon="3.05273">
        <ele>622</ele>
        <time>2024-09-23T11:19:51Z</time>
      </trkpt>
      <trkpt lat="42.47449" lon="3.05278">
        <ele>621</ele>
        <time>2024-09-23T11:19:54Z</time>
      </trkpt>
      <trkpt lat="42.47448" lon="3.05282">
        <ele>620</ele>
        <time>2024-09-23T11:19:58Z</time>
      </trkpt>
      <trkpt lat="42.47448" lon="3.05286">
        <ele>620</ele>
        <time>2024-09-23T11:20:00Z</time>
      </trkpt>
      <trkpt lat="42.47449" lon="3.0529">
        <ele>619</ele>
        <time>2024-09-23T11:20:02Z</time>
      </trkpt>
      <trkpt lat="42.4745" lon="3.05293">
        <ele>619</ele>
        <time>2024-09-23T11:20:05Z</time>
      </trkpt>
      <trkpt lat="42.4745" lon="3.05297">
        <ele>618</ele>
        <time>2024-09-23T11:20:09Z</time>
      </trkpt>
      <trkpt lat="42.4745" lon="3.05301">
        <ele>618</ele>
        <time>2024-09-23T11:20:12Z</time>
      </trkpt>
      <trkpt lat="42.4745" lon="3.05305">
        <ele>617</ele>
        <time>2024-09-23T11:20:16Z</time>
      </trkpt>
      <trkpt lat="42.47452" lon="3.05308">
        <ele>615</ele>
        <time>2024-09-23T11:20:23Z</time>
      </trkpt>
      <trkpt lat="42.47454" lon="3.05311">
        <ele>614</ele>
        <time>2024-09-23T11:20:26Z</time>
      </trkpt>
      <trkpt lat="42.47456" lon="3.05315">
        <ele>613</ele>
        <time>2024-09-23T11:20:29Z</time>
      </trkpt>
      <trkpt lat="42.47457" lon="3.05319">
        <ele>612</ele>
        <time>2024-09-23T11:20:33Z</time>
      </trkpt>
      <trkpt lat="42.47458" lon="3.05323">
        <ele>610</ele>
        <time>2024-09-23T11:20:37Z</time>
      </trkpt>
      <trkpt lat="42.47459" lon="3.05327">
        <ele>609</ele>
        <time>2024-09-23T11:20:42Z</time>
      </trkpt>
      <trkpt lat="42.47461" lon="3.05331">
        <ele>608</ele>
        <time>2024-09-23T11:20:46Z</time>
      </trkpt>
      <trkpt lat="42.47462" lon="3.05335">
        <ele>607</ele>
        <time>2024-09-23T11:20:51Z</time>
      </trkpt>
      <trkpt lat="42.47461" lon="3.05338">
        <ele>606</ele>
        <time>2024-09-23T11:20:55Z</time>
      </trkpt>
      <trkpt lat="42.47461" lon="3.05342">
        <ele>606</ele>
        <time>2024-09-23T11:20:58Z</time>
      </trkpt>
      <trkpt lat="42.47461" lon="3.05346">
        <ele>605</ele>
        <time>2024-09-23T11:21:02Z</time>
      </trkpt>
      <trkpt lat="42.47462" lon="3.0535">
        <ele>604</ele>
        <time>2024-09-23T11:21:05Z</time>
      </trkpt>
      <trkpt lat="42.47462" lon="3.05354">
        <ele>603</ele>
        <time>2024-09-23T11:21:09Z</time>
      </trkpt>
      <trkpt lat="42.47463" lon="3.05358">
        <ele>602</ele>
        <time>2024-09-23T11:21:13Z</time>
      </trkpt>
      <trkpt lat="42.47464" lon="3.05362">
        <ele>601</ele>
        <time>2024-09-23T11:21:18Z</time>
      </trkpt>
      <trkpt lat="42.47466" lon="3.05365">
        <ele>600</ele>
        <time>2024-09-23T11:21:22Z</time>
      </trkpt>
      <trkpt lat="42.47466" lon="3.05369">
        <ele>598</ele>
        <time>2024-09-23T11:21:27Z</time>
      </trkpt>
      <trkpt lat="42.47467" lon="3.05373">
        <ele>597</ele>
        <time>2024-09-23T11:21:33Z</time>
      </trkpt>
      <trkpt lat="42.47468" lon="3.05377">
        <ele>596</ele>
        <time>2024-09-23T11:21:38Z</time>
      </trkpt>
      <trkpt lat="42.47469" lon="3.05381">
        <ele>594</ele>
        <time>2024-09-23T11:21:42Z</time>
      </trkpt>
      <trkpt lat="42.47471" lon="3.05384">
        <ele>593</ele>
        <time>2024-09-23T11:21:48Z</time>
      </trkpt>
      <trkpt lat="42.47472" lon="3.05388">
        <ele>593</ele>
        <time>2024-09-23T11:21:52Z</time>
      </trkpt>
      <trkpt lat="42.47473" lon="3.05392">
        <ele>591</ele>
        <time>2024-09-23T11:21:56Z</time>
      </trkpt>
      <trkpt lat="42.47475" lon="3.05396">
        <ele>590</ele>
        <time>2024-09-23T11:22:00Z</time>
      </trkpt>
      <trkpt lat="42.47476" lon="3.054">
        <ele>589</ele>
        <time>2024-09-23T11:22:05Z</time>
      </trkpt>
      <trkpt lat="42.47477" lon="3.05403">
        <ele>588</ele>
        <time>2024-09-23T11:22:08Z</time>
      </trkpt>
      <trkpt lat="42.47479" lon="3.05407">
        <ele>587</ele>
        <time>2024-09-23T11:22:11Z</time>
      </trkpt>
      <trkpt lat="42.47479" lon="3.05411">
        <ele>586</ele>
        <time>2024-09-23T11:22:15Z</time>
      </trkpt>
      <trkpt lat="42.4748" lon="3.05416">
        <ele>585</ele>
        <time>2024-09-23T11:22:19Z</time>
      </trkpt>
      <trkpt lat="42.47481" lon="3.05419">
        <ele>584</ele>
        <time>2024-09-23T11:22:23Z</time>
      </trkpt>
      <trkpt lat="42.47483" lon="3.05423">
        <ele>582</ele>
        <time>2024-09-23T11:22:30Z</time>
      </trkpt>
      <trkpt lat="42.47484" lon="3.05425">
        <ele>581</ele>
        <time>2024-09-23T11:22:34Z</time>
      </trkpt>
      <trkpt lat="42.47487" lon="3.05427">
        <ele>578</ele>
        <time>2024-09-23T11:22:43Z</time>
      </trkpt>
      <trkpt lat="42.47488" lon="3.0543">
        <ele>578</ele>
        <time>2024-09-23T11:22:46Z</time>
      </trkpt>
      <trkpt lat="42.47488" lon="3.05434">
        <ele>579</ele>
        <time>2024-09-23T11:22:53Z</time>
      </trkpt>
      <trkpt lat="42.47488" lon="3.05438">
        <ele>579</ele>
        <time>2024-09-23T11:22:57Z</time>
      </trkpt>
      <trkpt lat="42.47488" lon="3.05442">
        <ele>579</ele>
        <time>2024-09-23T11:23:02Z</time>
      </trkpt>
      <trkpt lat="42.4749" lon="3.05446">
        <ele>578</ele>
        <time>2024-09-23T11:23:18Z</time>
      </trkpt>
      <trkpt lat="42.47491" lon="3.0545">
        <ele>577</ele>
        <time>2024-09-23T11:23:24Z</time>
      </trkpt>
      <trkpt lat="42.47492" lon="3.05453">
        <ele>577</ele>
        <time>2024-09-23T11:23:27Z</time>
      </trkpt>
      <trkpt lat="42.47492" lon="3.05457">
        <ele>576</ele>
        <time>2024-09-23T11:23:30Z</time>
      </trkpt>
      <trkpt lat="42.47492" lon="3.05462">
        <ele>575</ele>
        <time>2024-09-23T11:23:34Z</time>
      </trkpt>
      <trkpt lat="42.47492" lon="3.05466">
        <ele>575</ele>
        <time>2024-09-23T11:23:37Z</time>
      </trkpt>
      <trkpt lat="42.47491" lon="3.0547">
        <ele>575</ele>
        <time>2024-09-23T11:23:40Z</time>
      </trkpt>
      <trkpt lat="42.47491" lon="3.05475">
        <ele>575</ele>
        <time>2024-09-23T11:23:44Z</time>
      </trkpt>
      <trkpt lat="42.47492" lon="3.05479">
        <ele>574</ele>
        <time>2024-09-23T11:23:47Z</time>
      </trkpt>
      <trkpt lat="42.47492" lon="3.05483">
        <ele>575</ele>
        <time>2024-09-23T11:23:50Z</time>
      </trkpt>
      <trkpt lat="42.47493" lon="3.05486">
        <ele>574</ele>
        <time>2024-09-23T11:23:53Z</time>
      </trkpt>
      <trkpt lat="42.47494" lon="3.05491">
        <ele>574</ele>
        <time>2024-09-23T11:23:56Z</time>
      </trkpt>
      <trkpt lat="42.47495" lon="3.05494">
        <ele>573</ele>
        <time>2024-09-23T11:23:59Z</time>
      </trkpt>
      <trkpt lat="42.47498" lon="3.05497">
        <ele>571</ele>
        <time>2024-09-23T11:24:04Z</time>
      </trkpt>
      <trkpt lat="42.47501" lon="3.05496">
        <ele>570</ele>
        <time>2024-09-23T11:24:08Z</time>
      </trkpt>
      <trkpt lat="42.47503" lon="3.05495">
        <ele>570</ele>
        <time>2024-09-23T11:24:11Z</time>
      </trkpt>
      <trkpt lat="42.47506" lon="3.05495">
        <ele>569</ele>
        <time>2024-09-23T11:24:17Z</time>
      </trkpt>
      <trkpt lat="42.47509" lon="3.05496">
        <ele>568</ele>
        <time>2024-09-23T11:24:20Z</time>
      </trkpt>
      <trkpt lat="42.47512" lon="3.05495">
        <ele>567</ele>
        <time>2024-09-23T11:24:25Z</time>
      </trkpt>
      <trkpt lat="42.47515" lon="3.05495">
        <ele>566</ele>
        <time>2024-09-23T11:24:28Z</time>
      </trkpt>
      <trkpt lat="42.47516" lon="3.05492">
        <ele>565</ele>
        <time>2024-09-23T11:24:32Z</time>
      </trkpt>
      <trkpt lat="42.47518" lon="3.05489">
        <ele>564</ele>
        <time>2024-09-23T11:24:37Z</time>
      </trkpt>
      <trkpt lat="42.4752" lon="3.05487">
        <ele>562</ele>
        <time>2024-09-23T11:24:45Z</time>
      </trkpt>
      <trkpt lat="42.47522" lon="3.05486">
        <ele>560</ele>
        <time>2024-09-23T11:24:50Z</time>
      </trkpt>
      <trkpt lat="42.47524" lon="3.05483">
        <ele>559</ele>
        <time>2024-09-23T11:24:57Z</time>
      </trkpt>
      <trkpt lat="42.47526" lon="3.0548">
        <ele>558</ele>
        <time>2024-09-23T11:25:02Z</time>
      </trkpt>
      <trkpt lat="42.47526" lon="3.05476">
        <ele>556</ele>
        <time>2024-09-23T11:25:05Z</time>
      </trkpt>
      <trkpt lat="42.47528" lon="3.05474">
        <ele>557</ele>
        <time>2024-09-23T11:25:19Z</time>
      </trkpt>
      <trkpt lat="42.47529" lon="3.05476">
        <ele>554</ele>
        <time>2024-09-23T11:25:26Z</time>
      </trkpt>
      <trkpt lat="42.4753" lon="3.0548">
        <ele>554</ele>
        <time>2024-09-23T11:25:29Z</time>
      </trkpt>
      <trkpt lat="42.47531" lon="3.05484">
        <ele>553</ele>
        <time>2024-09-23T11:25:32Z</time>
      </trkpt>
      <trkpt lat="42.47531" lon="3.05487">
        <ele>553</ele>
        <time>2024-09-23T11:25:35Z</time>
      </trkpt>
      <trkpt lat="42.47532" lon="3.05492">
        <ele>553</ele>
        <time>2024-09-23T11:25:39Z</time>
      </trkpt>
      <trkpt lat="42.47533" lon="3.05496">
        <ele>552</ele>
        <time>2024-09-23T11:25:42Z</time>
      </trkpt>
      <trkpt lat="42.47533" lon="3.055">
        <ele>551</ele>
        <time>2024-09-23T11:25:45Z</time>
      </trkpt>
      <trkpt lat="42.47535" lon="3.05504">
        <ele>551</ele>
        <time>2024-09-23T11:25:49Z</time>
      </trkpt>
      <trkpt lat="42.47536" lon="3.05508">
        <ele>551</ele>
        <time>2024-09-23T11:25:51Z</time>
      </trkpt>
      <trkpt lat="42.47538" lon="3.0551">
        <ele>551</ele>
        <time>2024-09-23T11:25:54Z</time>
      </trkpt>
      <trkpt lat="42.4754" lon="3.05514">
        <ele>550</ele>
        <time>2024-09-23T11:25:56Z</time>
      </trkpt>
      <trkpt lat="42.47541" lon="3.05518">
        <ele>550</ele>
        <time>2024-09-23T11:25:59Z</time>
      </trkpt>
      <trkpt lat="42.47542" lon="3.05521">
        <ele>549</ele>
        <time>2024-09-23T11:26:02Z</time>
      </trkpt>
      <trkpt lat="42.47544" lon="3.05525">
        <ele>549</ele>
        <time>2024-09-23T11:26:04Z</time>
      </trkpt>
      <trkpt lat="42.47545" lon="3.05528">
        <ele>549</ele>
        <time>2024-09-23T11:26:08Z</time>
      </trkpt>
      <trkpt lat="42.47546" lon="3.05532">
        <ele>548</ele>
        <time>2024-09-23T11:26:11Z</time>
      </trkpt>
      <trkpt lat="42.47548" lon="3.05537">
        <ele>548</ele>
        <time>2024-09-23T11:26:14Z</time>
      </trkpt>
      <trkpt lat="42.4755" lon="3.05541">
        <ele>547</ele>
        <time>2024-09-23T11:26:18Z</time>
      </trkpt>
      <trkpt lat="42.47551" lon="3.05545">
        <ele>547</ele>
        <time>2024-09-23T11:26:20Z</time>
      </trkpt>
      <trkpt lat="42.47553" lon="3.05549">
        <ele>546</ele>
        <time>2024-09-23T11:26:25Z</time>
      </trkpt>
      <trkpt lat="42.47555" lon="3.05552">
        <ele>545</ele>
        <time>2024-09-23T11:26:28Z</time>
      </trkpt>
      <trkpt lat="42.47556" lon="3.05557">
        <ele>545</ele>
        <time>2024-09-23T11:26:31Z</time>
      </trkpt>
      <trkpt lat="42.47558" lon="3.0556">
        <ele>544</ele>
        <time>2024-09-23T11:26:35Z</time>
      </trkpt>
      <trkpt lat="42.4756" lon="3.05564">
        <ele>543</ele>
        <time>2024-09-23T11:26:38Z</time>
      </trkpt>
      <trkpt lat="42.47562" lon="3.05567">
        <ele>543</ele>
        <time>2024-09-23T11:26:41Z</time>
      </trkpt>
      <trkpt lat="42.47563" lon="3.05571">
        <ele>542</ele>
        <time>2024-09-23T11:26:45Z</time>
      </trkpt>
      <trkpt lat="42.47565" lon="3.05575">
        <ele>541</ele>
        <time>2024-09-23T11:26:48Z</time>
      </trkpt>
      <trkpt lat="42.47567" lon="3.05578">
        <ele>540</ele>
        <time>2024-09-23T11:26:52Z</time>
      </trkpt>
      <trkpt lat="42.47569" lon="3.05582">
        <ele>540</ele>
        <time>2024-09-23T11:27:52Z</time>
      </trkpt>
      <trkpt lat="42.47571" lon="3.05586">
        <ele>540</ele>
        <time>2024-09-23T11:27:55Z</time>
      </trkpt>
      <trkpt lat="42.47574" lon="3.05589">
        <ele>539</ele>
        <time>2024-09-23T11:27:58Z</time>
      </trkpt>
      <trkpt lat="42.47577" lon="3.05593">
        <ele>539</ele>
        <time>2024-09-23T11:28:01Z</time>
      </trkpt>
      <trkpt lat="42.4758" lon="3.05596">
        <ele>538</ele>
        <time>2024-09-23T11:28:04Z</time>
      </trkpt>
      <trkpt lat="42.47582" lon="3.056">
        <ele>538</ele>
        <time>2024-09-23T11:28:07Z</time>
      </trkpt>
      <trkpt lat="42.47585" lon="3.05603">
        <ele>537</ele>
        <time>2024-09-23T11:28:10Z</time>
      </trkpt>
      <trkpt lat="42.47588" lon="3.05607">
        <ele>535</ele>
        <time>2024-09-23T11:28:14Z</time>
      </trkpt>
      <trkpt lat="42.4759" lon="3.0561">
        <ele>535</ele>
        <time>2024-09-23T11:28:16Z</time>
      </trkpt>
      <trkpt lat="42.47593" lon="3.05613">
        <ele>534</ele>
        <time>2024-09-23T11:28:19Z</time>
      </trkpt>
      <trkpt lat="42.47596" lon="3.05615">
        <ele>534</ele>
        <time>2024-09-23T11:28:21Z</time>
      </trkpt>
      <trkpt lat="42.47598" lon="3.05618">
        <ele>533</ele>
        <time>2024-09-23T11:28:24Z</time>
      </trkpt>
      <trkpt lat="42.476" lon="3.0562">
        <ele>533</ele>
        <time>2024-09-23T11:28:27Z</time>
      </trkpt>
      <trkpt lat="42.47602" lon="3.05623">
        <ele>532</ele>
        <time>2024-09-23T11:28:30Z</time>
      </trkpt>
      <trkpt lat="42.47603" lon="3.05627">
        <ele>532</ele>
        <time>2024-09-23T11:28:32Z</time>
      </trkpt>
      <trkpt lat="42.47605" lon="3.0563">
        <ele>531</ele>
        <time>2024-09-23T11:28:36Z</time>
      </trkpt>
      <trkpt lat="42.47607" lon="3.05634">
        <ele>530</ele>
        <time>2024-09-23T11:28:40Z</time>
      </trkpt>
      <trkpt lat="42.47609" lon="3.05637">
        <ele>530</ele>
        <time>2024-09-23T11:28:43Z</time>
      </trkpt>
      <trkpt lat="42.47611" lon="3.0564">
        <ele>530</ele>
        <time>2024-09-23T11:28:47Z</time>
      </trkpt>
      <trkpt lat="42.47613" lon="3.05643">
        <ele>529</ele>
        <time>2024-09-23T11:28:50Z</time>
      </trkpt>
      <trkpt lat="42.47615" lon="3.05646">
        <ele>529</ele>
        <time>2024-09-23T11:28:53Z</time>
      </trkpt>
      <trkpt lat="42.47618" lon="3.05649">
        <ele>528</ele>
        <time>2024-09-23T11:28:56Z</time>
      </trkpt>
      <trkpt lat="42.4762" lon="3.05652">
        <ele>528</ele>
        <time>2024-09-23T11:28:59Z</time>
      </trkpt>
      <trkpt lat="42.47622" lon="3.05655">
        <ele>527</ele>
        <time>2024-09-23T11:29:04Z</time>
      </trkpt>
      <trkpt lat="42.47625" lon="3.05657">
        <ele>527</ele>
        <time>2024-09-23T11:29:06Z</time>
      </trkpt>
      <trkpt lat="42.47627" lon="3.0566">
        <ele>526</ele>
        <time>2024-09-23T11:29:10Z</time>
      </trkpt>
      <trkpt lat="42.47629" lon="3.05663">
        <ele>526</ele>
        <time>2024-09-23T11:29:14Z</time>
      </trkpt>
      <trkpt lat="42.47632" lon="3.05667">
        <ele>525</ele>
        <time>2024-09-23T11:29:19Z</time>
      </trkpt>
      <trkpt lat="42.47634" lon="3.0567">
        <ele>524</ele>
        <time>2024-09-23T11:29:22Z</time>
      </trkpt>
      <trkpt lat="42.47636" lon="3.05673">
        <ele>524</ele>
        <time>2024-09-23T11:29:26Z</time>
      </trkpt>
      <trkpt lat="42.47639" lon="3.05675">
        <ele>523</ele>
        <time>2024-09-23T11:29:29Z</time>
      </trkpt>
      <trkpt lat="42.47642" lon="3.05678">
        <ele>523</ele>
        <time>2024-09-23T11:29:34Z</time>
      </trkpt>
      <trkpt lat="42.47644" lon="3.05681">
        <ele>523</ele>
        <time>2024-09-23T11:29:37Z</time>
      </trkpt>
      <trkpt lat="42.47646" lon="3.05685">
        <ele>523</ele>
        <time>2024-09-23T11:29:40Z</time>
      </trkpt>
      <trkpt lat="42.47647" lon="3.05688">
        <ele>523</ele>
        <time>2024-09-23T11:29:45Z</time>
      </trkpt>
      <trkpt lat="42.4765" lon="3.05691">
        <ele>522</ele>
        <time>2024-09-23T11:29:48Z</time>
      </trkpt>
      <trkpt lat="42.47652" lon="3.05694">
        <ele>521</ele>
        <time>2024-09-23T11:29:52Z</time>
      </trkpt>
      <trkpt lat="42.47654" lon="3.05698">
        <ele>521</ele>
        <time>2024-09-23T11:29:55Z</time>
      </trkpt>
      <trkpt lat="42.47656" lon="3.05701">
        <ele>520</ele>
        <time>2024-09-23T11:29:58Z</time>
      </trkpt>
      <trkpt lat="42.47658" lon="3.05704">
        <ele>520</ele>
        <time>2024-09-23T11:30:01Z</time>
      </trkpt>
      <trkpt lat="42.4766" lon="3.05707">
        <ele>518</ele>
        <time>2024-09-23T11:30:05Z</time>
      </trkpt>
      <trkpt lat="42.47662" lon="3.05711">
        <ele>517</ele>
        <time>2024-09-23T11:30:09Z</time>
      </trkpt>
      <trkpt lat="42.47663" lon="3.05715">
        <ele>517</ele>
        <time>2024-09-23T11:30:12Z</time>
      </trkpt>
      <trkpt lat="42.47665" lon="3.05718">
        <ele>516</ele>
        <time>2024-09-23T11:30:16Z</time>
      </trkpt>
      <trkpt lat="42.47667" lon="3.05722">
        <ele>516</ele>
        <time>2024-09-23T11:30:19Z</time>
      </trkpt>
      <trkpt lat="42.47669" lon="3.05726">
        <ele>515</ele>
        <time>2024-09-23T11:30:24Z</time>
      </trkpt>
      <trkpt lat="42.47671" lon="3.0573">
        <ele>515</ele>
        <time>2024-09-23T11:30:27Z</time>
      </trkpt>
      <trkpt lat="42.47673" lon="3.05734">
        <ele>514</ele>
        <time>2024-09-23T11:30:32Z</time>
      </trkpt>
      <trkpt lat="42.47675" lon="3.05737">
        <ele>513</ele>
        <time>2024-09-23T11:30:36Z</time>
      </trkpt>
      <trkpt lat="42.47678" lon="3.05741">
        <ele>512</ele>
        <time>2024-09-23T11:30:40Z</time>
      </trkpt>
      <trkpt lat="42.47679" lon="3.05745">
        <ele>512</ele>
        <time>2024-09-23T11:30:44Z</time>
      </trkpt>
      <trkpt lat="42.4768" lon="3.05749">
        <ele>512</ele>
        <time>2024-09-23T11:30:48Z</time>
      </trkpt>
      <trkpt lat="42.47681" lon="3.05754">
        <ele>511</ele>
        <time>2024-09-23T11:30:51Z</time>
      </trkpt>
      <trkpt lat="42.47682" lon="3.05759">
        <ele>510</ele>
        <time>2024-09-23T11:30:55Z</time>
      </trkpt>
      <trkpt lat="42.47682" lon="3.05763">
        <ele>511</ele>
        <time>2024-09-23T11:30:58Z</time>
      </trkpt>
      <trkpt lat="42.47684" lon="3.05767">
        <ele>510</ele>
        <time>2024-09-23T11:31:02Z</time>
      </trkpt>
      <trkpt lat="42.47686" lon="3.05771">
        <ele>509</ele>
        <time>2024-09-23T11:31:06Z</time>
      </trkpt>
      <trkpt lat="42.47688" lon="3.05775">
        <ele>508</ele>
        <time>2024-09-23T11:31:10Z</time>
      </trkpt>
      <trkpt lat="42.47689" lon="3.05779">
        <ele>508</ele>
        <time>2024-09-23T11:31:13Z</time>
      </trkpt>
      <trkpt lat="42.47691" lon="3.05781">
        <ele>507</ele>
        <time>2024-09-23T11:31:17Z</time>
      </trkpt>
      <trkpt lat="42.47693" lon="3.05784">
        <ele>507</ele>
        <time>2024-09-23T11:31:22Z</time>
      </trkpt>
      <trkpt lat="42.47695" lon="3.05787">
        <ele>505</ele>
        <time>2024-09-23T11:31:26Z</time>
      </trkpt>
      <trkpt lat="42.47697" lon="3.05791">
        <ele>505</ele>
        <time>2024-09-23T11:31:29Z</time>
      </trkpt>
      <trkpt lat="42.47698" lon="3.05795">
        <ele>505</ele>
        <time>2024-09-23T11:31:32Z</time>
      </trkpt>
      <trkpt lat="42.47699" lon="3.05799">
        <ele>504</ele>
        <time>2024-09-23T11:31:36Z</time>
      </trkpt>
      <trkpt lat="42.477" lon="3.05803">
        <ele>504</ele>
        <time>2024-09-23T11:31:39Z</time>
      </trkpt>
      <trkpt lat="42.47701" lon="3.05807">
        <ele>504</ele>
        <time>2024-09-23T11:31:42Z</time>
      </trkpt>
      <trkpt lat="42.47703" lon="3.05811">
        <ele>503</ele>
        <time>2024-09-23T11:31:46Z</time>
      </trkpt>
      <trkpt lat="42.47705" lon="3.05815">
        <ele>503</ele>
        <time>2024-09-23T11:31:49Z</time>
      </trkpt>
      <trkpt lat="42.47707" lon="3.05818">
        <ele>500</ele>
        <time>2024-09-23T11:31:53Z</time>
      </trkpt>
      <trkpt lat="42.47709" lon="3.05822">
        <ele>501</ele>
        <time>2024-09-23T11:31:57Z</time>
      </trkpt>
      <trkpt lat="42.4771" lon="3.05825">
        <ele>501</ele>
        <time>2024-09-23T11:31:59Z</time>
      </trkpt>
      <trkpt lat="42.47713" lon="3.05828">
        <ele>500</ele>
        <time>2024-09-23T11:32:03Z</time>
      </trkpt>
      <trkpt lat="42.47714" lon="3.05831">
        <ele>500</ele>
        <time>2024-09-23T11:32:07Z</time>
      </trkpt>
      <trkpt lat="42.47716" lon="3.05834">
        <ele>499</ele>
        <time>2024-09-23T11:32:12Z</time>
      </trkpt>
      <trkpt lat="42.47718" lon="3.05838">
        <ele>498</ele>
        <time>2024-09-23T11:32:17Z</time>
      </trkpt>
      <trkpt lat="42.4772" lon="3.05841">
        <ele>497</ele>
        <time>2024-09-23T11:32:20Z</time>
      </trkpt>
      <trkpt lat="42.47722" lon="3.05844">
        <ele>497</ele>
        <time>2024-09-23T11:32:24Z</time>
      </trkpt>
      <trkpt lat="42.47724" lon="3.05848">
        <ele>495</ele>
        <time>2024-09-23T11:32:29Z</time>
      </trkpt>
      <trkpt lat="42.47726" lon="3.05851">
        <ele>496</ele>
        <time>2024-09-23T11:32:31Z</time>
      </trkpt>
      <trkpt lat="42.47727" lon="3.05854">
        <ele>495</ele>
        <time>2024-09-23T11:32:35Z</time>
      </trkpt>
      <trkpt lat="42.4773" lon="3.05857">
        <ele>495</ele>
        <time>2024-09-23T11:32:39Z</time>
      </trkpt>
      <trkpt lat="42.47732" lon="3.0586">
        <ele>494</ele>
        <time>2024-09-23T11:32:42Z</time>
      </trkpt>
      <trkpt lat="42.47734" lon="3.05863">
        <ele>494</ele>
        <time>2024-09-23T11:32:46Z</time>
      </trkpt>
      <trkpt lat="42.47737" lon="3.05866">
        <ele>493</ele>
        <time>2024-09-23T11:32:49Z</time>
      </trkpt>
      <trkpt lat="42.47739" lon="3.05868">
        <ele>493</ele>
        <time>2024-09-23T11:32:53Z</time>
      </trkpt>
      <trkpt lat="42.47742" lon="3.05872">
        <ele>493</ele>
        <time>2024-09-23T11:32:57Z</time>
      </trkpt>
      <trkpt lat="42.47745" lon="3.05874">
        <ele>493</ele>
        <time>2024-09-23T11:33:00Z</time>
      </trkpt>
      <trkpt lat="42.47747" lon="3.05877">
        <ele>492</ele>
        <time>2024-09-23T11:33:04Z</time>
      </trkpt>
      <trkpt lat="42.4775" lon="3.0588">
        <ele>491</ele>
        <time>2024-09-23T11:33:09Z</time>
      </trkpt>
      <trkpt lat="42.47752" lon="3.05883">
        <ele>490</ele>
        <time>2024-09-23T11:33:12Z</time>
      </trkpt>
      <trkpt lat="42.47754" lon="3.05886">
        <ele>490</ele>
        <time>2024-09-23T11:33:17Z</time>
      </trkpt>
      <trkpt lat="42.47757" lon="3.05888">
        <ele>490</ele>
        <time>2024-09-23T11:33:20Z</time>
      </trkpt>
      <trkpt lat="42.4776" lon="3.05891">
        <ele>490</ele>
        <time>2024-09-23T11:33:23Z</time>
      </trkpt>
      <trkpt lat="42.47762" lon="3.05895">
        <ele>489</ele>
        <time>2024-09-23T11:33:28Z</time>
      </trkpt>
      <trkpt lat="42.47765" lon="3.05898">
        <ele>488</ele>
        <time>2024-09-23T11:33:32Z</time>
      </trkpt>
      <trkpt lat="42.47766" lon="3.05902">
        <ele>487</ele>
        <time>2024-09-23T11:33:35Z</time>
      </trkpt>
      <trkpt lat="42.47769" lon="3.05904">
        <ele>485</ele>
        <time>2024-09-23T11:34:02Z</time>
      </trkpt>
      <trkpt lat="42.47771" lon="3.05906">
        <ele>484</ele>
        <time>2024-09-23T11:35:04Z</time>
      </trkpt>
      <trkpt lat="42.47773" lon="3.05909">
        <ele>484</ele>
        <time>2024-09-23T11:35:07Z</time>
      </trkpt>
      <trkpt lat="42.47773" lon="3.05912">
        <ele>483</ele>
        <time>2024-09-23T11:35:10Z</time>
      </trkpt>
      <trkpt lat="42.47774" lon="3.05916">
        <ele>483</ele>
        <time>2024-09-23T11:35:13Z</time>
      </trkpt>
      <trkpt lat="42.47776" lon="3.05919">
        <ele>483</ele>
        <time>2024-09-23T11:35:17Z</time>
      </trkpt>
      <trkpt lat="42.47778" lon="3.05923">
        <ele>483</ele>
        <time>2024-09-23T11:35:20Z</time>
      </trkpt>
      <trkpt lat="42.4778" lon="3.05927">
        <ele>483</ele>
        <time>2024-09-23T11:35:24Z</time>
      </trkpt>
      <trkpt lat="42.47783" lon="3.0593">
        <ele>483</ele>
        <time>2024-09-23T11:35:26Z</time>
      </trkpt>
      <trkpt lat="42.47784" lon="3.05934">
        <ele>482</ele>
        <time>2024-09-23T11:35:31Z</time>
      </trkpt>
      <trkpt lat="42.47785" lon="3.05939">
        <ele>482</ele>
        <time>2024-09-23T11:35:34Z</time>
      </trkpt>
      <trkpt lat="42.47787" lon="3.05942">
        <ele>480</ele>
        <time>2024-09-23T11:35:39Z</time>
      </trkpt>
      <trkpt lat="42.47789" lon="3.05946">
        <ele>481</ele>
        <time>2024-09-23T11:35:41Z</time>
      </trkpt>
      <trkpt lat="42.47791" lon="3.0595">
        <ele>481</ele>
        <time>2024-09-23T11:35:44Z</time>
      </trkpt>
      <trkpt lat="42.47792" lon="3.05954">
        <ele>480</ele>
        <time>2024-09-23T11:35:49Z</time>
      </trkpt>
      <trkpt lat="42.47793" lon="3.05957">
        <ele>479</ele>
        <time>2024-09-23T11:35:52Z</time>
      </trkpt>
      <trkpt lat="42.47795" lon="3.05961">
        <ele>479</ele>
        <time>2024-09-23T11:35:56Z</time>
      </trkpt>
      <trkpt lat="42.47796" lon="3.05964">
        <ele>478</ele>
        <time>2024-09-23T11:35:58Z</time>
      </trkpt>
      <trkpt lat="42.47798" lon="3.05968">
        <ele>478</ele>
        <time>2024-09-23T11:36:01Z</time>
      </trkpt>
      <trkpt lat="42.47799" lon="3.05972">
        <ele>478</ele>
        <time>2024-09-23T11:36:03Z</time>
      </trkpt>
      <trkpt lat="42.47801" lon="3.05974">
        <ele>478</ele>
        <time>2024-09-23T11:36:17Z</time>
      </trkpt>
      <trkpt lat="42.478" lon="3.05976">
        <ele>477</ele>
        <time>2024-09-23T11:36:54Z</time>
      </trkpt>
      <trkpt lat="42.47801" lon="3.0598">
        <ele>477</ele>
        <time>2024-09-23T11:37:03Z</time>
      </trkpt>
      <trkpt lat="42.47803" lon="3.05982">
        <ele>476</ele>
        <time>2024-09-23T11:37:39Z</time>
      </trkpt>
      <trkpt lat="42.47802" lon="3.05986">
        <ele>475</ele>
        <time>2024-09-23T11:37:42Z</time>
      </trkpt>
      <trkpt lat="42.47803" lon="3.05991">
        <ele>475</ele>
        <time>2024-09-23T11:37:46Z</time>
      </trkpt>
      <trkpt lat="42.47803" lon="3.05995">
        <ele>475</ele>
        <time>2024-09-23T11:37:49Z</time>
      </trkpt>
      <trkpt lat="42.47804" lon="3.05999">
        <ele>474</ele>
        <time>2024-09-23T11:37:52Z</time>
      </trkpt>
      <trkpt lat="42.47804" lon="3.06004">
        <ele>474</ele>
        <time>2024-09-23T11:37:55Z</time>
      </trkpt>
      <trkpt lat="42.47804" lon="3.06008">
        <ele>474</ele>
        <time>2024-09-23T11:37:57Z</time>
      </trkpt>
      <trkpt lat="42.47804" lon="3.06012">
        <ele>474</ele>
        <time>2024-09-23T11:38:00Z</time>
      </trkpt>
      <trkpt lat="42.47803" lon="3.06017">
        <ele>474</ele>
        <time>2024-09-23T11:38:03Z</time>
      </trkpt>
      <trkpt lat="42.47803" lon="3.06022">
        <ele>473</ele>
        <time>2024-09-23T11:38:06Z</time>
      </trkpt>
      <trkpt lat="42.47803" lon="3.06027">
        <ele>473</ele>
        <time>2024-09-23T11:38:09Z</time>
      </trkpt>
      <trkpt lat="42.47801" lon="3.06031">
        <ele>472</ele>
        <time>2024-09-23T11:38:11Z</time>
      </trkpt>
      <trkpt lat="42.47801" lon="3.06035">
        <ele>472</ele>
        <time>2024-09-23T11:38:14Z</time>
      </trkpt>
      <trkpt lat="42.478" lon="3.06039">
        <ele>472</ele>
        <time>2024-09-23T11:38:17Z</time>
      </trkpt>
      <trkpt lat="42.47799" lon="3.06044">
        <ele>472</ele>
        <time>2024-09-23T11:38:20Z</time>
      </trkpt>
      <trkpt lat="42.47798" lon="3.06049">
        <ele>472</ele>
        <time>2024-09-23T11:38:23Z</time>
      </trkpt>
      <trkpt lat="42.47797" lon="3.06053">
        <ele>471</ele>
        <time>2024-09-23T11:38:26Z</time>
      </trkpt>
      <trkpt lat="42.47797" lon="3.06058">
        <ele>470</ele>
        <time>2024-09-23T11:38:29Z</time>
      </trkpt>
      <trkpt lat="42.47795" lon="3.06063">
        <ele>470</ele>
        <time>2024-09-23T11:38:32Z</time>
      </trkpt>
      <trkpt lat="42.47795" lon="3.06068">
        <ele>469</ele>
        <time>2024-09-23T11:38:35Z</time>
      </trkpt>
      <trkpt lat="42.47794" lon="3.06073">
        <ele>469</ele>
        <time>2024-09-23T11:38:38Z</time>
      </trkpt>
      <trkpt lat="42.47794" lon="3.06079">
        <ele>468</ele>
        <time>2024-09-23T11:38:41Z</time>
      </trkpt>
      <trkpt lat="42.47794" lon="3.06084">
        <ele>469</ele>
        <time>2024-09-23T11:38:44Z</time>
      </trkpt>
      <trkpt lat="42.47793" lon="3.06088">
        <ele>468</ele>
        <time>2024-09-23T11:38:46Z</time>
      </trkpt>
      <trkpt lat="42.47792" lon="3.06092">
        <ele>469</ele>
        <time>2024-09-23T11:38:49Z</time>
      </trkpt>
      <trkpt lat="42.47792" lon="3.06097">
        <ele>468</ele>
        <time>2024-09-23T11:38:52Z</time>
      </trkpt>
      <trkpt lat="42.47792" lon="3.06102">
        <ele>467</ele>
        <time>2024-09-23T11:38:55Z</time>
      </trkpt>
      <trkpt lat="42.47791" lon="3.06106">
        <ele>467</ele>
        <time>2024-09-23T11:38:58Z</time>
      </trkpt>
      <trkpt lat="42.47792" lon="3.0611">
        <ele>466</ele>
        <time>2024-09-23T11:39:00Z</time>
      </trkpt>
      <trkpt lat="42.47793" lon="3.06114">
        <ele>465</ele>
        <time>2024-09-23T11:39:03Z</time>
      </trkpt>
      <trkpt lat="42.47795" lon="3.06119">
        <ele>464</ele>
        <time>2024-09-23T11:39:06Z</time>
      </trkpt>
      <trkpt lat="42.47796" lon="3.06123">
        <ele>465</ele>
        <time>2024-09-23T11:39:08Z</time>
      </trkpt>
      <trkpt lat="42.47796" lon="3.06127">
        <ele>465</ele>
        <time>2024-09-23T11:39:10Z</time>
      </trkpt>
      <trkpt lat="42.47796" lon="3.06131">
        <ele>464</ele>
        <time>2024-09-23T11:39:13Z</time>
      </trkpt>
      <trkpt lat="42.47797" lon="3.06135">
        <ele>464</ele>
        <time>2024-09-23T11:39:15Z</time>
      </trkpt>
      <trkpt lat="42.47798" lon="3.06139">
        <ele>464</ele>
        <time>2024-09-23T11:39:18Z</time>
      </trkpt>
      <trkpt lat="42.47799" lon="3.06143">
        <ele>463</ele>
        <time>2024-09-23T11:39:21Z</time>
      </trkpt>
      <trkpt lat="42.47799" lon="3.06148">
        <ele>463</ele>
        <time>2024-09-23T11:39:23Z</time>
      </trkpt>
      <trkpt lat="42.47801" lon="3.06152">
        <ele>462</ele>
        <time>2024-09-23T11:39:26Z</time>
      </trkpt>
      <trkpt lat="42.47802" lon="3.06156">
        <ele>462</ele>
        <time>2024-09-23T11:39:29Z</time>
      </trkpt>
      <trkpt lat="42.47803" lon="3.06161">
        <ele>461</ele>
        <time>2024-09-23T11:39:32Z</time>
      </trkpt>
      <trkpt lat="42.47804" lon="3.06165">
        <ele>462</ele>
        <time>2024-09-23T11:39:35Z</time>
      </trkpt>
      <trkpt lat="42.47804" lon="3.06169">
        <ele>461</ele>
        <time>2024-09-23T11:39:38Z</time>
      </trkpt>
      <trkpt lat="42.47804" lon="3.06173">
        <ele>461</ele>
        <time>2024-09-23T11:39:40Z</time>
      </trkpt>
      <trkpt lat="42.47805" lon="3.06177">
        <ele>460</ele>
        <time>2024-09-23T11:39:43Z</time>
      </trkpt>
      <trkpt lat="42.47805" lon="3.06181">
        <ele>459</ele>
        <time>2024-09-23T11:39:46Z</time>
      </trkpt>
      <trkpt lat="42.47807" lon="3.06185">
        <ele>460</ele>
        <time>2024-09-23T11:39:48Z</time>
      </trkpt>
      <trkpt lat="42.47808" lon="3.06189">
        <ele>459</ele>
        <time>2024-09-23T11:39:50Z</time>
      </trkpt>
      <trkpt lat="42.47809" lon="3.06192">
        <ele>458</ele>
        <time>2024-09-23T11:39:53Z</time>
      </trkpt>
      <trkpt lat="42.47812" lon="3.06196">
        <ele>458</ele>
        <time>2024-09-23T11:39:56Z</time>
      </trkpt>
      <trkpt lat="42.47813" lon="3.06199">
        <ele>457</ele>
        <time>2024-09-23T11:39:58Z</time>
      </trkpt>
      <trkpt lat="42.47815" lon="3.06202">
        <ele>456</ele>
        <time>2024-09-23T11:40:02Z</time>
      </trkpt>
      <trkpt lat="42.47817" lon="3.06205">
        <ele>456</ele>
        <time>2024-09-23T11:40:04Z</time>
      </trkpt>
      <trkpt lat="42.47819" lon="3.06209">
        <ele>457</ele>
        <time>2024-09-23T11:40:06Z</time>
      </trkpt>
      <trkpt lat="42.47821" lon="3.06212">
        <ele>456</ele>
        <time>2024-09-23T11:40:09Z</time>
      </trkpt>
      <trkpt lat="42.47824" lon="3.06215">
        <ele>455</ele>
        <time>2024-09-23T11:40:12Z</time>
      </trkpt>
      <trkpt lat="42.47826" lon="3.06219">
        <ele>454</ele>
        <time>2024-09-23T11:40:16Z</time>
      </trkpt>
      <trkpt lat="42.47828" lon="3.06223">
        <ele>454</ele>
        <time>2024-09-23T11:40:17Z</time>
      </trkpt>
      <trkpt lat="42.4783" lon="3.06226">
        <ele>454</ele>
        <time>2024-09-23T11:40:20Z</time>
      </trkpt>
      <trkpt lat="42.47832" lon="3.06231">
        <ele>454</ele>
        <time>2024-09-23T11:40:22Z</time>
      </trkpt>
      <trkpt lat="42.47834" lon="3.06233">
        <ele>453</ele>
        <time>2024-09-23T11:40:26Z</time>
      </trkpt>
      <trkpt lat="42.47837" lon="3.06236">
        <ele>453</ele>
        <time>2024-09-23T11:40:28Z</time>
      </trkpt>
      <trkpt lat="42.47839" lon="3.06238">
        <ele>452</ele>
        <time>2024-09-23T11:40:30Z</time>
      </trkpt>
      <trkpt lat="42.47841" lon="3.06242">
        <ele>453</ele>
        <time>2024-09-23T11:40:33Z</time>
      </trkpt>
      <trkpt lat="42.47841" lon="3.06246">
        <ele>453</ele>
        <time>2024-09-23T11:40:35Z</time>
      </trkpt>
      <trkpt lat="42.47844" lon="3.06249">
        <ele>451</ele>
        <time>2024-09-23T11:40:39Z</time>
      </trkpt>
      <trkpt lat="42.47846" lon="3.06252">
        <ele>451</ele>
        <time>2024-09-23T11:40:41Z</time>
      </trkpt>
      <trkpt lat="42.47848" lon="3.06254">
        <ele>451</ele>
        <time>2024-09-23T11:40:43Z</time>
      </trkpt>
      <trkpt lat="42.47851" lon="3.06256">
        <ele>450</ele>
        <time>2024-09-23T11:40:46Z</time>
      </trkpt>
      <trkpt lat="42.47852" lon="3.06259">
        <ele>450</ele>
        <time>2024-09-23T11:40:48Z</time>
      </trkpt>
      <trkpt lat="42.47855" lon="3.0626">
        <ele>449</ele>
        <time>2024-09-23T11:40:51Z</time>
      </trkpt>
      <trkpt lat="42.47858" lon="3.06264">
        <ele>449</ele>
        <time>2024-09-23T11:40:54Z</time>
      </trkpt>
      <trkpt lat="42.4786" lon="3.06268">
        <ele>448</ele>
        <time>2024-09-23T11:40:58Z</time>
      </trkpt>
      <trkpt lat="42.47862" lon="3.0627">
        <ele>447</ele>
        <time>2024-09-23T11:41:00Z</time>
      </trkpt>
      <trkpt lat="42.47865" lon="3.06273">
        <ele>446</ele>
        <time>2024-09-23T11:41:03Z</time>
      </trkpt>
      <trkpt lat="42.47868" lon="3.06276">
        <ele>447</ele>
        <time>2024-09-23T11:41:06Z</time>
      </trkpt>
      <trkpt lat="42.47871" lon="3.06279">
        <ele>447</ele>
        <time>2024-09-23T11:41:08Z</time>
      </trkpt>
      <trkpt lat="42.47873" lon="3.06282">
        <ele>447</ele>
        <time>2024-09-23T11:41:11Z</time>
      </trkpt>
      <trkpt lat="42.47875" lon="3.06286">
        <ele>447</ele>
        <time>2024-09-23T11:41:14Z</time>
      </trkpt>
      <trkpt lat="42.47877" lon="3.06288">
        <ele>448</ele>
        <time>2024-09-23T11:41:17Z</time>
      </trkpt>
      <trkpt lat="42.4788" lon="3.0629">
        <ele>446</ele>
        <time>2024-09-23T11:41:20Z</time>
      </trkpt>
      <trkpt lat="42.47883" lon="3.06293">
        <ele>446</ele>
        <time>2024-09-23T11:41:23Z</time>
      </trkpt>
      <trkpt lat="42.47886" lon="3.06296">
        <ele>446</ele>
        <time>2024-09-23T11:41:26Z</time>
      </trkpt>
      <trkpt lat="42.47889" lon="3.06298">
        <ele>446</ele>
        <time>2024-09-23T11:41:29Z</time>
      </trkpt>
      <trkpt lat="42.47892" lon="3.063">
        <ele>445</ele>
        <time>2024-09-23T11:41:32Z</time>
      </trkpt>
      <trkpt lat="42.47895" lon="3.06302">
        <ele>444</ele>
        <time>2024-09-23T11:41:35Z</time>
      </trkpt>
      <trkpt lat="42.47898" lon="3.06304">
        <ele>445</ele>
        <time>2024-09-23T11:41:39Z</time>
      </trkpt>
      <trkpt lat="42.47901" lon="3.06306">
        <ele>444</ele>
        <time>2024-09-23T11:41:43Z</time>
      </trkpt>
      <trkpt lat="42.47903" lon="3.06307">
        <ele>445</ele>
        <time>2024-09-23T11:41:47Z</time>
      </trkpt>
      <trkpt lat="42.47906" lon="3.0631">
        <ele>444</ele>
        <time>2024-09-23T11:41:51Z</time>
      </trkpt>
      <trkpt lat="42.47908" lon="3.06313">
        <ele>443</ele>
        <time>2024-09-23T11:41:54Z</time>
      </trkpt>
      <trkpt lat="42.47911" lon="3.06315">
        <ele>443</ele>
        <time>2024-09-23T11:41:57Z</time>
      </trkpt>
      <trkpt lat="42.47914" lon="3.06316">
        <ele>443</ele>
        <time>2024-09-23T11:42:00Z</time>
      </trkpt>
      <trkpt lat="42.47917" lon="3.06318">
        <ele>443</ele>
        <time>2024-09-23T11:42:02Z</time>
      </trkpt>
      <trkpt lat="42.47919" lon="3.06318">
        <ele>442</ele>
        <time>2024-09-23T11:42:05Z</time>
      </trkpt>
      <trkpt lat="42.47922" lon="3.06319">
        <ele>442</ele>
        <time>2024-09-23T11:42:07Z</time>
      </trkpt>
      <trkpt lat="42.47926" lon="3.06319">
        <ele>443</ele>
        <time>2024-09-23T11:42:10Z</time>
      </trkpt>
      <trkpt lat="42.47929" lon="3.06318">
        <ele>442</ele>
        <time>2024-09-23T11:42:13Z</time>
      </trkpt>
      <trkpt lat="42.47932" lon="3.06318">
        <ele>442</ele>
        <time>2024-09-23T11:42:16Z</time>
      </trkpt>
      <trkpt lat="42.47935" lon="3.06319">
        <ele>443</ele>
        <time>2024-09-23T11:42:19Z</time>
      </trkpt>
      <trkpt lat="42.47938" lon="3.0632">
        <ele>442</ele>
        <time>2024-09-23T11:42:21Z</time>
      </trkpt>
      <trkpt lat="42.47938" lon="3.06319">
        <ele>442</ele>
        <time>2024-09-23T11:43:21Z</time>
      </trkpt>
      <trkpt lat="42.47936" lon="3.06318">
        <ele>443</ele>
        <time>2024-09-23T11:43:24Z</time>
      </trkpt>
      <trkpt lat="42.47938" lon="3.06317">
        <ele>443</ele>
        <time>2024-09-23T11:44:37Z</time>
      </trkpt>
      <trkpt lat="42.4794" lon="3.06319">
        <ele>442</ele>
        <time>2024-09-23T11:44:40Z</time>
      </trkpt>
      <trkpt lat="42.47943" lon="3.0632">
        <ele>443</ele>
        <time>2024-09-23T11:44:42Z</time>
      </trkpt>
      <trkpt lat="42.47946" lon="3.06321">
        <ele>442</ele>
        <time>2024-09-23T11:44:44Z</time>
      </trkpt>
      <trkpt lat="42.4795" lon="3.06323">
        <ele>443</ele>
        <time>2024-09-23T11:44:47Z</time>
      </trkpt>
      <trkpt lat="42.47954" lon="3.06325">
        <ele>443</ele>
        <time>2024-09-23T11:44:50Z</time>
      </trkpt>
      <trkpt lat="42.47957" lon="3.06325">
        <ele>442</ele>
        <time>2024-09-23T11:44:54Z</time>
      </trkpt>
      <trkpt lat="42.47961" lon="3.06325">
        <ele>443</ele>
        <time>2024-09-23T11:44:56Z</time>
      </trkpt>
      <trkpt lat="42.47964" lon="3.06326">
        <ele>443</ele>
        <time>2024-09-23T11:44:59Z</time>
      </trkpt>
      <trkpt lat="42.47967" lon="3.06328">
        <ele>442</ele>
        <time>2024-09-23T11:45:02Z</time>
      </trkpt>
      <trkpt lat="42.4797" lon="3.0633">
        <ele>442</ele>
        <time>2024-09-23T11:45:05Z</time>
      </trkpt>
      <trkpt lat="42.47973" lon="3.0633">
        <ele>442</ele>
        <time>2024-09-23T11:45:08Z</time>
      </trkpt>
      <trkpt lat="42.47976" lon="3.06332">
        <ele>441</ele>
        <time>2024-09-23T11:45:10Z</time>
      </trkpt>
      <trkpt lat="42.47979" lon="3.06334">
        <ele>441</ele>
        <time>2024-09-23T11:45:12Z</time>
      </trkpt>
      <trkpt lat="42.47982" lon="3.06336">
        <ele>440</ele>
        <time>2024-09-23T11:45:15Z</time>
      </trkpt>
      <trkpt lat="42.47985" lon="3.06339">
        <ele>439</ele>
        <time>2024-09-23T11:45:18Z</time>
      </trkpt>
      <trkpt lat="42.47988" lon="3.06341">
        <ele>439</ele>
        <time>2024-09-23T11:45:21Z</time>
      </trkpt>
      <trkpt lat="42.47991" lon="3.06344">
        <ele>439</ele>
        <time>2024-09-23T11:45:24Z</time>
      </trkpt>
      <trkpt lat="42.47994" lon="3.06347">
        <ele>438</ele>
        <time>2024-09-23T11:45:27Z</time>
      </trkpt>
      <trkpt lat="42.47997" lon="3.0635">
        <ele>438</ele>
        <time>2024-09-23T11:45:29Z</time>
      </trkpt>
      <trkpt lat="42.47999" lon="3.06352">
        <ele>437</ele>
        <time>2024-09-23T11:45:32Z</time>
      </trkpt>
      <trkpt lat="42.48002" lon="3.06355">
        <ele>437</ele>
        <time>2024-09-23T11:45:35Z</time>
      </trkpt>
      <trkpt lat="42.48004" lon="3.06358">
        <ele>436</ele>
        <time>2024-09-23T11:45:38Z</time>
      </trkpt>
      <trkpt lat="42.48007" lon="3.06361">
        <ele>436</ele>
        <time>2024-09-23T11:45:40Z</time>
      </trkpt>
      <trkpt lat="42.48008" lon="3.06365">
        <ele>435</ele>
        <time>2024-09-23T11:45:43Z</time>
      </trkpt>
      <trkpt lat="42.48011" lon="3.06367">
        <ele>434</ele>
        <time>2024-09-23T11:45:46Z</time>
      </trkpt>
      <trkpt lat="42.48013" lon="3.06371">
        <ele>434</ele>
        <time>2024-09-23T11:45:49Z</time>
      </trkpt>
      <trkpt lat="42.48016" lon="3.06375">
        <ele>434</ele>
        <time>2024-09-23T11:45:52Z</time>
      </trkpt>
      <trkpt lat="42.48018" lon="3.06378">
        <ele>433</ele>
        <time>2024-09-23T11:45:54Z</time>
      </trkpt>
      <trkpt lat="42.4802" lon="3.06382">
        <ele>433</ele>
        <time>2024-09-23T11:45:57Z</time>
      </trkpt>
      <trkpt lat="42.48022" lon="3.06385">
        <ele>432</ele>
        <time>2024-09-23T11:46:01Z</time>
      </trkpt>
      <trkpt lat="42.48024" lon="3.06388">
        <ele>432</ele>
        <time>2024-09-23T11:46:03Z</time>
      </trkpt>
      <trkpt lat="42.48027" lon="3.06392">
        <ele>432</ele>
        <time>2024-09-23T11:46:06Z</time>
      </trkpt>
      <trkpt lat="42.48028" lon="3.06395">
        <ele>431</ele>
        <time>2024-09-23T11:46:08Z</time>
      </trkpt>
      <trkpt lat="42.48029" lon="3.064">
        <ele>431</ele>
        <time>2024-09-23T11:46:11Z</time>
      </trkpt>
      <trkpt lat="42.4803" lon="3.06404">
        <ele>430</ele>
        <time>2024-09-23T11:46:13Z</time>
      </trkpt>
      <trkpt lat="42.48033" lon="3.06406">
        <ele>430</ele>
        <time>2024-09-23T11:46:15Z</time>
      </trkpt>
      <trkpt lat="42.48034" lon="3.06409">
        <ele>430</ele>
        <time>2024-09-23T11:46:17Z</time>
      </trkpt>
      <trkpt lat="42.48036" lon="3.06413">
        <ele>429</ele>
        <time>2024-09-23T11:46:20Z</time>
      </trkpt>
      <trkpt lat="42.48039" lon="3.06416">
        <ele>429</ele>
        <time>2024-09-23T11:46:22Z</time>
      </trkpt>
      <trkpt lat="42.48042" lon="3.06418">
        <ele>430</ele>
        <time>2024-09-23T11:46:25Z</time>
      </trkpt>
      <trkpt lat="42.48045" lon="3.0642">
        <ele>430</ele>
        <time>2024-09-23T11:46:27Z</time>
      </trkpt>
      <trkpt lat="42.48048" lon="3.06423">
        <ele>429</ele>
        <time>2024-09-23T11:46:30Z</time>
      </trkpt>
      <trkpt lat="42.48051" lon="3.06425">
        <ele>429</ele>
        <time>2024-09-23T11:46:33Z</time>
      </trkpt>
      <trkpt lat="42.48054" lon="3.06428">
        <ele>429</ele>
        <time>2024-09-23T11:46:36Z</time>
      </trkpt>
      <trkpt lat="42.48057" lon="3.06429">
        <ele>428</ele>
        <time>2024-09-23T11:46:40Z</time>
      </trkpt>
      <trkpt lat="42.4806" lon="3.06431">
        <ele>427</ele>
        <time>2024-09-23T11:46:42Z</time>
      </trkpt>
      <trkpt lat="42.48064" lon="3.06431">
        <ele>429</ele>
        <time>2024-09-23T11:46:44Z</time>
      </trkpt>
      <trkpt lat="42.48066" lon="3.06433">
        <ele>428</ele>
        <time>2024-09-23T11:46:46Z</time>
      </trkpt>
      <trkpt lat="42.48069" lon="3.06435">
        <ele>428</ele>
        <time>2024-09-23T11:46:49Z</time>
      </trkpt>
      <trkpt lat="42.48072" lon="3.06436">
        <ele>428</ele>
        <time>2024-09-23T11:46:52Z</time>
      </trkpt>
      <trkpt lat="42.48075" lon="3.06437">
        <ele>428</ele>
        <time>2024-09-23T11:46:55Z</time>
      </trkpt>
      <trkpt lat="42.48079" lon="3.06437">
        <ele>427</ele>
        <time>2024-09-23T11:46:58Z</time>
      </trkpt>
      <trkpt lat="42.48082" lon="3.06439">
        <ele>427</ele>
        <time>2024-09-23T11:47:01Z</time>
      </trkpt>
      <trkpt lat="42.48085" lon="3.06439">
        <ele>427</ele>
        <time>2024-09-23T11:47:05Z</time>
      </trkpt>
      <trkpt lat="42.48088" lon="3.06438">
        <ele>427</ele>
        <time>2024-09-23T11:47:07Z</time>
      </trkpt>
      <trkpt lat="42.48091" lon="3.06438">
        <ele>427</ele>
        <time>2024-09-23T11:47:09Z</time>
      </trkpt>
      <trkpt lat="42.48095" lon="3.06438">
        <ele>426</ele>
        <time>2024-09-23T11:47:12Z</time>
      </trkpt>
      <trkpt lat="42.48097" lon="3.06437">
        <ele>426</ele>
        <time>2024-09-23T11:47:14Z</time>
      </trkpt>
      <trkpt lat="42.48101" lon="3.06437">
        <ele>427</ele>
        <time>2024-09-23T11:47:16Z</time>
      </trkpt>
      <trkpt lat="42.48104" lon="3.06436">
        <ele>427</ele>
        <time>2024-09-23T11:47:18Z</time>
      </trkpt>
      <trkpt lat="42.48107" lon="3.06436">
        <ele>425</ele>
        <time>2024-09-23T11:47:22Z</time>
      </trkpt>
      <trkpt lat="42.4811" lon="3.06435">
        <ele>425</ele>
        <time>2024-09-23T11:47:24Z</time>
      </trkpt>
      <trkpt lat="42.48113" lon="3.06436">
        <ele>426</ele>
        <time>2024-09-23T11:47:27Z</time>
      </trkpt>
      <trkpt lat="42.48116" lon="3.06437">
        <ele>426</ele>
        <time>2024-09-23T11:47:29Z</time>
      </trkpt>
      <trkpt lat="42.48119" lon="3.06437">
        <ele>426</ele>
        <time>2024-09-23T11:47:31Z</time>
      </trkpt>
      <trkpt lat="42.48122" lon="3.06438">
        <ele>425</ele>
        <time>2024-09-23T11:47:34Z</time>
      </trkpt>
      <trkpt lat="42.48125" lon="3.06438">
        <ele>425</ele>
        <time>2024-09-23T11:47:36Z</time>
      </trkpt>
      <trkpt lat="42.48128" lon="3.06438">
        <ele>424</ele>
        <time>2024-09-23T11:47:38Z</time>
      </trkpt>
      <trkpt lat="42.48132" lon="3.06439">
        <ele>426</ele>
        <time>2024-09-23T11:47:41Z</time>
      </trkpt>
      <trkpt lat="42.48135" lon="3.06439">
        <ele>425</ele>
        <time>2024-09-23T11:47:44Z</time>
      </trkpt>
      <trkpt lat="42.48138" lon="3.0644">
        <ele>425</ele>
        <time>2024-09-23T11:47:47Z</time>
      </trkpt>
      <trkpt lat="42.48141" lon="3.0644">
        <ele>425</ele>
        <time>2024-09-23T11:47:49Z</time>
      </trkpt>
      <trkpt lat="42.48144" lon="3.06439">
        <ele>424</ele>
        <time>2024-09-23T11:47:51Z</time>
      </trkpt>
      <trkpt lat="42.48147" lon="3.06438">
        <ele>424</ele>
        <time>2024-09-23T11:47:53Z</time>
      </trkpt>
      <trkpt lat="42.4815" lon="3.06438">
        <ele>423</ele>
        <time>2024-09-23T11:47:56Z</time>
      </trkpt>
      <trkpt lat="42.48154" lon="3.06437">
        <ele>423</ele>
        <time>2024-09-23T11:47:58Z</time>
      </trkpt>
      <trkpt lat="42.48157" lon="3.06435">
        <ele>423</ele>
        <time>2024-09-23T11:48:01Z</time>
      </trkpt>
      <trkpt lat="42.4816" lon="3.06433">
        <ele>422</ele>
        <time>2024-09-23T11:48:04Z</time>
      </trkpt>
      <trkpt lat="42.48163" lon="3.06431">
        <ele>420</ele>
        <time>2024-09-23T11:48:11Z</time>
      </trkpt>
      <trkpt lat="42.48166" lon="3.06429">
        <ele>420</ele>
        <time>2024-09-23T11:48:13Z</time>
      </trkpt>
      <trkpt lat="42.48169" lon="3.06429">
        <ele>420</ele>
        <time>2024-09-23T11:48:16Z</time>
      </trkpt>
      <trkpt lat="42.48172" lon="3.06429">
        <ele>419</ele>
        <time>2024-09-23T11:48:19Z</time>
      </trkpt>
      <trkpt lat="42.48175" lon="3.06429">
        <ele>420</ele>
        <time>2024-09-23T11:48:21Z</time>
      </trkpt>
      <trkpt lat="42.48178" lon="3.06429">
        <ele>419</ele>
        <time>2024-09-23T11:48:24Z</time>
      </trkpt>
      <trkpt lat="42.48181" lon="3.06429">
        <ele>419</ele>
        <time>2024-09-23T11:48:26Z</time>
      </trkpt>
      <trkpt lat="42.48185" lon="3.06429">
        <ele>419</ele>
        <time>2024-09-23T11:48:29Z</time>
      </trkpt>
      <trkpt lat="42.48188" lon="3.06428">
        <ele>418</ele>
        <time>2024-09-23T11:48:32Z</time>
      </trkpt>
      <trkpt lat="42.48191" lon="3.06427">
        <ele>418</ele>
        <time>2024-09-23T11:48:35Z</time>
      </trkpt>
      <trkpt lat="42.48194" lon="3.06425">
        <ele>418</ele>
        <time>2024-09-23T11:48:38Z</time>
      </trkpt>
      <trkpt lat="42.48197" lon="3.06425">
        <ele>417</ele>
        <time>2024-09-23T11:48:40Z</time>
      </trkpt>
      <trkpt lat="42.482" lon="3.06426">
        <ele>417</ele>
        <time>2024-09-23T11:48:43Z</time>
      </trkpt>
      <trkpt lat="42.48203" lon="3.06427">
        <ele>418</ele>
        <time>2024-09-23T11:48:46Z</time>
      </trkpt>
      <trkpt lat="42.48206" lon="3.06428">
        <ele>418</ele>
        <time>2024-09-23T11:48:48Z</time>
      </trkpt>
      <trkpt lat="42.48209" lon="3.06432">
        <ele>417</ele>
        <time>2024-09-23T11:48:51Z</time>
      </trkpt>
      <trkpt lat="42.4821" lon="3.06436">
        <ele>416</ele>
        <time>2024-09-23T11:48:54Z</time>
      </trkpt>
      <trkpt lat="42.48211" lon="3.0644">
        <ele>417</ele>
        <time>2024-09-23T11:48:57Z</time>
      </trkpt>
      <trkpt lat="42.48212" lon="3.06444">
        <ele>417</ele>
        <time>2024-09-23T11:49:00Z</time>
      </trkpt>
      <trkpt lat="42.48212" lon="3.06448">
        <ele>416</ele>
        <time>2024-09-23T11:49:03Z</time>
      </trkpt>
      <trkpt lat="42.48211" lon="3.06453">
        <ele>415</ele>
        <time>2024-09-23T11:49:06Z</time>
      </trkpt>
      <trkpt lat="42.48211" lon="3.06458">
        <ele>415</ele>
        <time>2024-09-23T11:49:09Z</time>
      </trkpt>
      <trkpt lat="42.48211" lon="3.06463">
        <ele>414</ele>
        <time>2024-09-23T11:49:13Z</time>
      </trkpt>
      <trkpt lat="42.48211" lon="3.06467">
        <ele>414</ele>
        <time>2024-09-23T11:49:16Z</time>
      </trkpt>
      <trkpt lat="42.4821" lon="3.06471">
        <ele>415</ele>
        <time>2024-09-23T11:49:18Z</time>
      </trkpt>
      <trkpt lat="42.4821" lon="3.06475">
        <ele>414</ele>
        <time>2024-09-23T11:49:21Z</time>
      </trkpt>
      <trkpt lat="42.4821" lon="3.0648">
        <ele>413</ele>
        <time>2024-09-23T11:49:24Z</time>
      </trkpt>
      <trkpt lat="42.48209" lon="3.06484">
        <ele>413</ele>
        <time>2024-09-23T11:49:27Z</time>
      </trkpt>
      <trkpt lat="42.48209" lon="3.06489">
        <ele>414</ele>
        <time>2024-09-23T11:49:30Z</time>
      </trkpt>
      <trkpt lat="42.48208" lon="3.06493">
        <ele>414</ele>
        <time>2024-09-23T11:49:33Z</time>
      </trkpt>
      <trkpt lat="42.48208" lon="3.06497">
        <ele>414</ele>
        <time>2024-09-23T11:49:36Z</time>
      </trkpt>
      <trkpt lat="42.48208" lon="3.06502">
        <ele>414</ele>
        <time>2024-09-23T11:49:39Z</time>
      </trkpt>
      <trkpt lat="42.48207" lon="3.06507">
        <ele>414</ele>
        <time>2024-09-23T11:49:42Z</time>
      </trkpt>
      <trkpt lat="42.48207" lon="3.06512">
        <ele>414</ele>
        <time>2024-09-23T11:49:45Z</time>
      </trkpt>
      <trkpt lat="42.48208" lon="3.06516">
        <ele>414</ele>
        <time>2024-09-23T11:49:48Z</time>
      </trkpt>
      <trkpt lat="42.48208" lon="3.06521">
        <ele>414</ele>
        <time>2024-09-23T11:49:51Z</time>
      </trkpt>
      <trkpt lat="42.48208" lon="3.06526">
        <ele>414</ele>
        <time>2024-09-23T11:49:54Z</time>
      </trkpt>
      <trkpt lat="42.48208" lon="3.0653">
        <ele>414</ele>
        <time>2024-09-23T11:49:57Z</time>
      </trkpt>
      <trkpt lat="42.48208" lon="3.06535">
        <ele>414</ele>
        <time>2024-09-23T11:50:01Z</time>
      </trkpt>
      <trkpt lat="42.48209" lon="3.06539">
        <ele>414</ele>
        <time>2024-09-23T11:50:04Z</time>
      </trkpt>
      <trkpt lat="42.4821" lon="3.06543">
        <ele>414</ele>
        <time>2024-09-23T11:50:08Z</time>
      </trkpt>
      <trkpt lat="42.4821" lon="3.06548">
        <ele>414</ele>
        <time>2024-09-23T11:50:13Z</time>
      </trkpt>
      <trkpt lat="42.4821" lon="3.06553">
        <ele>414</ele>
        <time>2024-09-23T11:50:17Z</time>
      </trkpt>
      <trkpt lat="42.48211" lon="3.06557">
        <ele>414</ele>
        <time>2024-09-23T11:50:19Z</time>
      </trkpt>
      <trkpt lat="42.4821" lon="3.06561">
        <ele>413</ele>
        <time>2024-09-23T11:50:23Z</time>
      </trkpt>
      <trkpt lat="42.4821" lon="3.06566">
        <ele>414</ele>
        <time>2024-09-23T11:50:29Z</time>
      </trkpt>
      <trkpt lat="42.4821" lon="3.0657">
        <ele>413</ele>
        <time>2024-09-23T11:50:33Z</time>
      </trkpt>
      <trkpt lat="42.48209" lon="3.06575">
        <ele>413</ele>
        <time>2024-09-23T11:50:36Z</time>
      </trkpt>
      <trkpt lat="42.48208" lon="3.0658">
        <ele>413</ele>
        <time>2024-09-23T11:50:39Z</time>
      </trkpt>
      <trkpt lat="42.48208" lon="3.06584">
        <ele>414</ele>
        <time>2024-09-23T11:50:41Z</time>
      </trkpt>
      <trkpt lat="42.48207" lon="3.06589">
        <ele>413</ele>
        <time>2024-09-23T11:50:45Z</time>
      </trkpt>
      <trkpt lat="42.48206" lon="3.06594">
        <ele>412</ele>
        <time>2024-09-23T11:50:48Z</time>
      </trkpt>
      <trkpt lat="42.48205" lon="3.06599">
        <ele>412</ele>
        <time>2024-09-23T11:50:51Z</time>
      </trkpt>
      <trkpt lat="42.48205" lon="3.06603">
        <ele>413</ele>
        <time>2024-09-23T11:50:54Z</time>
      </trkpt>
      <trkpt lat="42.48204" lon="3.06609">
        <ele>413</ele>
        <time>2024-09-23T11:50:57Z</time>
      </trkpt>
      <trkpt lat="42.48204" lon="3.06613">
        <ele>414</ele>
        <time>2024-09-23T11:50:59Z</time>
      </trkpt>
      <trkpt lat="42.48204" lon="3.06618">
        <ele>414</ele>
        <time>2024-09-23T11:51:03Z</time>
      </trkpt>
      <trkpt lat="42.48204" lon="3.06623">
        <ele>414</ele>
        <time>2024-09-23T11:51:07Z</time>
      </trkpt>
      <trkpt lat="42.48205" lon="3.06628">
        <ele>414</ele>
        <time>2024-09-23T11:51:10Z</time>
      </trkpt>
      <trkpt lat="42.48206" lon="3.06633">
        <ele>415</ele>
        <time>2024-09-23T11:51:13Z</time>
      </trkpt>
      <trkpt lat="42.48207" lon="3.06637">
        <ele>415</ele>
        <time>2024-09-23T11:51:15Z</time>
      </trkpt>
      <trkpt lat="42.48208" lon="3.06642">
        <ele>413</ele>
        <time>2024-09-23T11:51:18Z</time>
      </trkpt>
      <trkpt lat="42.48209" lon="3.06646">
        <ele>413</ele>
        <time>2024-09-23T11:51:21Z</time>
      </trkpt>
      <trkpt lat="42.48211" lon="3.0665">
        <ele>413</ele>
        <time>2024-09-23T11:51:23Z</time>
      </trkpt>
      <trkpt lat="42.48212" lon="3.06654">
        <ele>414</ele>
        <time>2024-09-23T11:51:26Z</time>
      </trkpt>
      <trkpt lat="42.48213" lon="3.06658">
        <ele>413</ele>
        <time>2024-09-23T11:51:29Z</time>
      </trkpt>
      <trkpt lat="42.48214" lon="3.06661">
        <ele>413</ele>
        <time>2024-09-23T11:51:32Z</time>
      </trkpt>
      <trkpt lat="42.48216" lon="3.06666">
        <ele>413</ele>
        <time>2024-09-23T11:51:35Z</time>
      </trkpt>
      <trkpt lat="42.48218" lon="3.06669">
        <ele>412</ele>
        <time>2024-09-23T11:51:38Z</time>
      </trkpt>
      <trkpt lat="42.4822" lon="3.06673">
        <ele>413</ele>
        <time>2024-09-23T11:51:40Z</time>
      </trkpt>
      <trkpt lat="42.48222" lon="3.06676">
        <ele>413</ele>
        <time>2024-09-23T11:51:43Z</time>
      </trkpt>
      <trkpt lat="42.48225" lon="3.06679">
        <ele>414</ele>
        <time>2024-09-23T11:51:46Z</time>
      </trkpt>
      <trkpt lat="42.48227" lon="3.06682">
        <ele>413</ele>
        <time>2024-09-23T11:51:49Z</time>
      </trkpt>
      <trkpt lat="42.4823" lon="3.06685">
        <ele>414</ele>
        <time>2024-09-23T11:51:52Z</time>
      </trkpt>
      <trkpt lat="42.48231" lon="3.0669">
        <ele>414</ele>
        <time>2024-09-23T11:51:55Z</time>
      </trkpt>
      <trkpt lat="42.48232" lon="3.06694">
        <ele>414</ele>
        <time>2024-09-23T11:51:58Z</time>
      </trkpt>
      <trkpt lat="42.48233" lon="3.06698">
        <ele>413</ele>
        <time>2024-09-23T11:52:01Z</time>
      </trkpt>
      <trkpt lat="42.48235" lon="3.06701">
        <ele>414</ele>
        <time>2024-09-23T11:52:04Z</time>
      </trkpt>
      <trkpt lat="42.48236" lon="3.06706">
        <ele>413</ele>
        <time>2024-09-23T11:52:07Z</time>
      </trkpt>
      <trkpt lat="42.48238" lon="3.06709">
        <ele>413</ele>
        <time>2024-09-23T11:52:09Z</time>
      </trkpt>
      <trkpt lat="42.4824" lon="3.06713">
        <ele>414</ele>
        <time>2024-09-23T11:52:12Z</time>
      </trkpt>
      <trkpt lat="42.48242" lon="3.06717">
        <ele>414</ele>
        <time>2024-09-23T11:52:16Z</time>
      </trkpt>
      <trkpt lat="42.48243" lon="3.0672">
        <ele>414</ele>
        <time>2024-09-23T11:52:19Z</time>
      </trkpt>
      <trkpt lat="42.48245" lon="3.06724">
        <ele>414</ele>
        <time>2024-09-23T11:52:22Z</time>
      </trkpt>
      <trkpt lat="42.48247" lon="3.06727">
        <ele>414</ele>
        <time>2024-09-23T11:52:24Z</time>
      </trkpt>
      <trkpt lat="42.4825" lon="3.0673">
        <ele>414</ele>
        <time>2024-09-23T11:52:27Z</time>
      </trkpt>
      <trkpt lat="42.48252" lon="3.06733">
        <ele>414</ele>
        <time>2024-09-23T11:52:30Z</time>
      </trkpt>
      <trkpt lat="42.48254" lon="3.06736">
        <ele>414</ele>
        <time>2024-09-23T11:52:33Z</time>
      </trkpt>
      <trkpt lat="42.48257" lon="3.06738">
        <ele>414</ele>
        <time>2024-09-23T11:52:35Z</time>
      </trkpt>
      <trkpt lat="42.48259" lon="3.0674">
        <ele>414</ele>
        <time>2024-09-23T11:52:37Z</time>
      </trkpt>
      <trkpt lat="42.48262" lon="3.06743">
        <ele>415</ele>
        <time>2024-09-23T11:52:42Z</time>
      </trkpt>
      <trkpt lat="42.48265" lon="3.06745">
        <ele>414</ele>
        <time>2024-09-23T11:52:45Z</time>
      </trkpt>
      <trkpt lat="42.48267" lon="3.06747">
        <ele>414</ele>
        <time>2024-09-23T11:52:48Z</time>
      </trkpt>
      <trkpt lat="42.48269" lon="3.0675">
        <ele>414</ele>
        <time>2024-09-23T11:52:50Z</time>
      </trkpt>
      <trkpt lat="42.48272" lon="3.06751">
        <ele>413</ele>
        <time>2024-09-23T11:52:52Z</time>
      </trkpt>
      <trkpt lat="42.48276" lon="3.06753">
        <ele>414</ele>
        <time>2024-09-23T11:52:55Z</time>
      </trkpt>
      <trkpt lat="42.48279" lon="3.06755">
        <ele>413</ele>
        <time>2024-09-23T11:52:58Z</time>
      </trkpt>
      <trkpt lat="42.48282" lon="3.06756">
        <ele>412</ele>
        <time>2024-09-23T11:53:01Z</time>
      </trkpt>
      <trkpt lat="42.48285" lon="3.06757">
        <ele>413</ele>
        <time>2024-09-23T11:53:04Z</time>
      </trkpt>
      <trkpt lat="42.48289" lon="3.06758">
        <ele>414</ele>
        <time>2024-09-23T11:53:07Z</time>
      </trkpt>
      <trkpt lat="42.48293" lon="3.06759">
        <ele>414</ele>
        <time>2024-09-23T11:53:10Z</time>
      </trkpt>
      <trkpt lat="42.48296" lon="3.0676">
        <ele>413</ele>
        <time>2024-09-23T11:53:13Z</time>
      </trkpt>
      <trkpt lat="42.483" lon="3.0676">
        <ele>414</ele>
        <time>2024-09-23T11:53:16Z</time>
      </trkpt>
      <trkpt lat="42.48303" lon="3.06762">
        <ele>414</ele>
        <time>2024-09-23T11:53:19Z</time>
      </trkpt>
      <trkpt lat="42.48306" lon="3.06763">
        <ele>414</ele>
        <time>2024-09-23T11:53:21Z</time>
      </trkpt>
      <trkpt lat="42.48309" lon="3.06765">
        <ele>414</ele>
        <time>2024-09-23T11:53:24Z</time>
      </trkpt>
      <trkpt lat="42.48313" lon="3.06766">
        <ele>414</ele>
        <time>2024-09-23T11:53:27Z</time>
      </trkpt>
      <trkpt lat="42.48316" lon="3.06767">
        <ele>414</ele>
        <time>2024-09-23T11:53:30Z</time>
      </trkpt>
      <trkpt lat="42.48319" lon="3.06769">
        <ele>415</ele>
        <time>2024-09-23T11:53:32Z</time>
      </trkpt>
      <trkpt lat="42.48322" lon="3.0677">
        <ele>414</ele>
        <time>2024-09-23T11:53:34Z</time>
      </trkpt>
      <trkpt lat="42.48325" lon="3.06772">
        <ele>414</ele>
        <time>2024-09-23T11:53:37Z</time>
      </trkpt>
      <trkpt lat="42.48328" lon="3.06774">
        <ele>414</ele>
        <time>2024-09-23T11:53:40Z</time>
      </trkpt>
      <trkpt lat="42.4833" lon="3.06776">
        <ele>414</ele>
        <time>2024-09-23T11:53:43Z</time>
      </trkpt>
      <trkpt lat="42.48334" lon="3.06779">
        <ele>413</ele>
        <time>2024-09-23T11:53:46Z</time>
      </trkpt>
      <trkpt lat="42.48336" lon="3.06783">
        <ele>413</ele>
        <time>2024-09-23T11:53:49Z</time>
      </trkpt>
      <trkpt lat="42.48338" lon="3.06786">
        <ele>412</ele>
        <time>2024-09-23T11:53:52Z</time>
      </trkpt>
      <trkpt lat="42.48341" lon="3.0679">
        <ele>412</ele>
        <time>2024-09-23T11:53:55Z</time>
      </trkpt>
      <trkpt lat="42.48343" lon="3.06794">
        <ele>412</ele>
        <time>2024-09-23T11:53:58Z</time>
      </trkpt>
      <trkpt lat="42.48344" lon="3.06798">
        <ele>412</ele>
        <time>2024-09-23T11:54:01Z</time>
      </trkpt>
      <trkpt lat="42.48344" lon="3.06802">
        <ele>411</ele>
        <time>2024-09-23T11:54:04Z</time>
      </trkpt>
      <trkpt lat="42.48345" lon="3.06807">
        <ele>411</ele>
        <time>2024-09-23T11:54:07Z</time>
      </trkpt>
      <trkpt lat="42.48344" lon="3.06812">
        <ele>411</ele>
        <time>2024-09-23T11:54:10Z</time>
      </trkpt>
      <trkpt lat="42.48343" lon="3.06817">
        <ele>411</ele>
        <time>2024-09-23T11:54:13Z</time>
      </trkpt>
      <trkpt lat="42.48344" lon="3.06822">
        <ele>411</ele>
        <time>2024-09-23T11:54:16Z</time>
      </trkpt>
      <trkpt lat="42.48344" lon="3.06826">
        <ele>410</ele>
        <time>2024-09-23T11:54:19Z</time>
      </trkpt>
      <trkpt lat="42.48344" lon="3.06831">
        <ele>410</ele>
        <time>2024-09-23T11:54:22Z</time>
      </trkpt>
      <trkpt lat="42.48345" lon="3.06836">
        <ele>410</ele>
        <time>2024-09-23T11:54:26Z</time>
      </trkpt>
      <trkpt lat="42.48345" lon="3.06841">
        <ele>411</ele>
        <time>2024-09-23T11:54:29Z</time>
      </trkpt>
      <trkpt lat="42.48344" lon="3.06845">
        <ele>411</ele>
        <time>2024-09-23T11:54:32Z</time>
      </trkpt>
      <trkpt lat="42.48344" lon="3.06849">
        <ele>413</ele>
        <time>2024-09-23T11:54:46Z</time>
      </trkpt>
      <trkpt lat="42.48343" lon="3.06853">
        <ele>412</ele>
        <time>2024-09-23T11:54:49Z</time>
      </trkpt>
      <trkpt lat="42.48342" lon="3.06857">
        <ele>413</ele>
        <time>2024-09-23T11:54:52Z</time>
      </trkpt>
      <trkpt lat="42.48341" lon="3.06862">
        <ele>413</ele>
        <time>2024-09-23T11:54:55Z</time>
      </trkpt>
      <trkpt lat="42.4834" lon="3.06865">
        <ele>413</ele>
        <time>2024-09-23T11:54:56Z</time>
      </trkpt>
      <trkpt lat="42.48339" lon="3.0687">
        <ele>413</ele>
        <time>2024-09-23T11:55:00Z</time>
      </trkpt>
      <trkpt lat="42.48338" lon="3.06874">
        <ele>413</ele>
        <time>2024-09-23T11:55:03Z</time>
      </trkpt>
      <trkpt lat="42.48337" lon="3.06878">
        <ele>414</ele>
        <time>2024-09-23T11:55:06Z</time>
      </trkpt>
      <trkpt lat="42.48336" lon="3.06882">
        <ele>416</ele>
        <time>2024-09-23T11:55:22Z</time>
      </trkpt>
      <trkpt lat="42.48336" lon="3.06887">
        <ele>416</ele>
        <time>2024-09-23T11:55:25Z</time>
      </trkpt>
      <trkpt lat="42.48336" lon="3.06891">
        <ele>417</ele>
        <time>2024-09-23T11:55:28Z</time>
      </trkpt>
      <trkpt lat="42.48336" lon="3.06896">
        <ele>417</ele>
        <time>2024-09-23T11:55:31Z</time>
      </trkpt>
      <trkpt lat="42.48336" lon="3.06901">
        <ele>417</ele>
        <time>2024-09-23T11:55:35Z</time>
      </trkpt>
      <trkpt lat="42.48336" lon="3.06906">
        <ele>416</ele>
        <time>2024-09-23T11:55:38Z</time>
      </trkpt>
      <trkpt lat="42.48336" lon="3.06911">
        <ele>417</ele>
        <time>2024-09-23T11:55:41Z</time>
      </trkpt>
      <trkpt lat="42.48337" lon="3.06915">
        <ele>417</ele>
        <time>2024-09-23T11:55:43Z</time>
      </trkpt>
      <trkpt lat="42.48337" lon="3.06919">
        <ele>418</ele>
        <time>2024-09-23T11:55:46Z</time>
      </trkpt>
      <trkpt lat="42.48336" lon="3.06923">
        <ele>419</ele>
        <time>2024-09-23T11:55:49Z</time>
      </trkpt>
      <trkpt lat="42.48336" lon="3.06928">
        <ele>419</ele>
        <time>2024-09-23T11:55:52Z</time>
      </trkpt>
      <trkpt lat="42.48336" lon="3.06932">
        <ele>420</ele>
        <time>2024-09-23T11:55:55Z</time>
      </trkpt>
      <trkpt lat="42.48335" lon="3.06937">
        <ele>421</ele>
        <time>2024-09-23T11:55:58Z</time>
      </trkpt>
      <trkpt lat="42.48335" lon="3.06941">
        <ele>421</ele>
        <time>2024-09-23T11:56:01Z</time>
      </trkpt>
      <trkpt lat="42.48335" lon="3.06945">
        <ele>421</ele>
        <time>2024-09-23T11:56:04Z</time>
      </trkpt>
      <trkpt lat="42.48335" lon="3.06949">
        <ele>421</ele>
        <time>2024-09-23T11:56:08Z</time>
      </trkpt>
      <trkpt lat="42.48336" lon="3.06953">
        <ele>423</ele>
        <time>2024-09-23T11:56:12Z</time>
      </trkpt>
      <trkpt lat="42.48337" lon="3.06957">
        <ele>423</ele>
        <time>2024-09-23T11:56:19Z</time>
      </trkpt>
      <trkpt lat="42.48339" lon="3.0696">
        <ele>424</ele>
        <time>2024-09-23T11:56:21Z</time>
      </trkpt>
      <trkpt lat="42.4834" lon="3.06964">
        <ele>423</ele>
        <time>2024-09-23T11:56:24Z</time>
      </trkpt>
      <trkpt lat="42.48342" lon="3.06967">
        <ele>424</ele>
        <time>2024-09-23T11:56:27Z</time>
      </trkpt>
      <trkpt lat="42.48345" lon="3.0697">
        <ele>425</ele>
        <time>2024-09-23T11:56:31Z</time>
      </trkpt>
      <trkpt lat="42.48347" lon="3.06973">
        <ele>425</ele>
        <time>2024-09-23T11:56:35Z</time>
      </trkpt>
      <trkpt lat="42.48349" lon="3.06976">
        <ele>424</ele>
        <time>2024-09-23T11:56:37Z</time>
      </trkpt>
      <trkpt lat="42.48352" lon="3.06979">
        <ele>424</ele>
        <time>2024-09-23T11:56:40Z</time>
      </trkpt>
      <trkpt lat="42.48354" lon="3.06982">
        <ele>423</ele>
        <time>2024-09-23T11:56:43Z</time>
      </trkpt>
      <trkpt lat="42.48356" lon="3.06986">
        <ele>424</ele>
        <time>2024-09-23T11:56:46Z</time>
      </trkpt>
      <trkpt lat="42.48357" lon="3.06991">
        <ele>422</ele>
        <time>2024-09-23T11:56:49Z</time>
      </trkpt>
      <trkpt lat="42.48358" lon="3.06995">
        <ele>422</ele>
        <time>2024-09-23T11:56:52Z</time>
      </trkpt>
      <trkpt lat="42.48359" lon="3.07">
        <ele>422</ele>
        <time>2024-09-23T11:56:55Z</time>
      </trkpt>
      <trkpt lat="42.48359" lon="3.07004">
        <ele>424</ele>
        <time>2024-09-23T11:56:58Z</time>
      </trkpt>
      <trkpt lat="42.48361" lon="3.07008">
        <ele>424</ele>
        <time>2024-09-23T11:57:01Z</time>
      </trkpt>
      <trkpt lat="42.48362" lon="3.07012">
        <ele>424</ele>
        <time>2024-09-23T11:57:03Z</time>
      </trkpt>
      <trkpt lat="42.48362" lon="3.07015">
        <ele>425</ele>
        <time>2024-09-23T11:57:07Z</time>
      </trkpt>
      <trkpt lat="42.48361" lon="3.07019">
        <ele>424</ele>
        <time>2024-09-23T11:57:10Z</time>
      </trkpt>
      <trkpt lat="42.4836" lon="3.07023">
        <ele>425</ele>
        <time>2024-09-23T11:57:14Z</time>
      </trkpt>
      <trkpt lat="42.48359" lon="3.07027">
        <ele>428</ele>
        <time>2024-09-23T11:57:19Z</time>
      </trkpt>
      <trkpt lat="42.48357" lon="3.0703">
        <ele>430</ele>
        <time>2024-09-23T11:57:23Z</time>
      </trkpt>
      <trkpt lat="42.48355" lon="3.07032">
        <ele>432</ele>
        <time>2024-09-23T11:57:26Z</time>
      </trkpt>
      <trkpt lat="42.48354" lon="3.07036">
        <ele>433</ele>
        <time>2024-09-23T11:57:31Z</time>
      </trkpt>
      <trkpt lat="42.48355" lon="3.07038">
        <ele>434</ele>
        <time>2024-09-23T11:57:35Z</time>
      </trkpt>
      <trkpt lat="42.48357" lon="3.0704">
        <ele>434</ele>
        <time>2024-09-23T11:57:38Z</time>
      </trkpt>
      <trkpt lat="42.4836" lon="3.07042">
        <ele>434</ele>
        <time>2024-09-23T11:57:42Z</time>
      </trkpt>
      <trkpt lat="42.48363" lon="3.07043">
        <ele>436</ele>
        <time>2024-09-23T11:57:46Z</time>
      </trkpt>
      <trkpt lat="42.48365" lon="3.07045">
        <ele>436</ele>
        <time>2024-09-23T11:57:49Z</time>
      </trkpt>
      <trkpt lat="42.48367" lon="3.07047">
        <ele>438</ele>
        <time>2024-09-23T11:57:53Z</time>
      </trkpt>
      <trkpt lat="42.48369" lon="3.07051">
        <ele>437</ele>
        <time>2024-09-23T11:57:57Z</time>
      </trkpt>
      <trkpt lat="42.4837" lon="3.07054">
        <ele>438</ele>
        <time>2024-09-23T11:58:01Z</time>
      </trkpt>
      <trkpt lat="42.48371" lon="3.07058">
        <ele>438</ele>
        <time>2024-09-23T11:58:06Z</time>
      </trkpt>
      <trkpt lat="42.48373" lon="3.07062">
        <ele>442</ele>
        <time>2024-09-23T11:58:12Z</time>
      </trkpt>
      <trkpt lat="42.48375" lon="3.07064">
        <ele>443</ele>
        <time>2024-09-23T11:58:15Z</time>
      </trkpt>
      <trkpt lat="42.48378" lon="3.07065">
        <ele>444</ele>
        <time>2024-09-23T11:58:19Z</time>
      </trkpt>
      <trkpt lat="42.48381" lon="3.07066">
        <ele>445</ele>
        <time>2024-09-23T11:58:29Z</time>
      </trkpt>
      <trkpt lat="42.48384" lon="3.07067">
        <ele>446</ele>
        <time>2024-09-23T11:58:32Z</time>
      </trkpt>
      <trkpt lat="42.48387" lon="3.07068">
        <ele>446</ele>
        <time>2024-09-23T11:58:34Z</time>
      </trkpt>
      <trkpt lat="42.48389" lon="3.0707">
        <ele>445</ele>
        <time>2024-09-23T11:58:38Z</time>
      </trkpt>
      <trkpt lat="42.48392" lon="3.07071">
        <ele>445</ele>
        <time>2024-09-23T11:58:40Z</time>
      </trkpt>
      <trkpt lat="42.48395" lon="3.07072">
        <ele>444</ele>
        <time>2024-09-23T11:58:44Z</time>
      </trkpt>
      <trkpt lat="42.48398" lon="3.07074">
        <ele>446</ele>
        <time>2024-09-23T11:58:47Z</time>
      </trkpt>
      <trkpt lat="42.48401" lon="3.07074">
        <ele>445</ele>
        <time>2024-09-23T11:58:50Z</time>
      </trkpt>
      <trkpt lat="42.48404" lon="3.07074">
        <ele>446</ele>
        <time>2024-09-23T11:58:54Z</time>
      </trkpt>
      <trkpt lat="42.48407" lon="3.07075">
        <ele>446</ele>
        <time>2024-09-23T11:58:57Z</time>
      </trkpt>
      <trkpt lat="42.4841" lon="3.07075">
        <ele>445</ele>
        <time>2024-09-23T11:59:00Z</time>
      </trkpt>
      <trkpt lat="42.48413" lon="3.07076">
        <ele>446</ele>
        <time>2024-09-23T11:59:03Z</time>
      </trkpt>
      <trkpt lat="42.48416" lon="3.07079">
        <ele>446</ele>
        <time>2024-09-23T11:59:06Z</time>
      </trkpt>
      <trkpt lat="42.48418" lon="3.07082">
        <ele>445</ele>
        <time>2024-09-23T11:59:09Z</time>
      </trkpt>
      <trkpt lat="42.4842" lon="3.07085">
        <ele>445</ele>
        <time>2024-09-23T11:59:12Z</time>
      </trkpt>
      <trkpt lat="42.48422" lon="3.07087">
        <ele>445</ele>
        <time>2024-09-23T11:59:16Z</time>
      </trkpt>
      <trkpt lat="42.48424" lon="3.0709">
        <ele>446</ele>
        <time>2024-09-23T11:59:18Z</time>
      </trkpt>
      <trkpt lat="42.48426" lon="3.07093">
        <ele>445</ele>
        <time>2024-09-23T11:59:22Z</time>
      </trkpt>
      <trkpt lat="42.48429" lon="3.07095">
        <ele>447</ele>
        <time>2024-09-23T11:59:26Z</time>
      </trkpt>
      <trkpt lat="42.48432" lon="3.07098">
        <ele>447</ele>
        <time>2024-09-23T11:59:29Z</time>
      </trkpt>
      <trkpt lat="42.48434" lon="3.07102">
        <ele>445</ele>
        <time>2024-09-23T11:59:33Z</time>
      </trkpt>
      <trkpt lat="42.48437" lon="3.07104">
        <ele>447</ele>
        <time>2024-09-23T11:59:36Z</time>
      </trkpt>
      <trkpt lat="42.48439" lon="3.07107">
        <ele>448</ele>
        <time>2024-09-23T11:59:39Z</time>
      </trkpt>
      <trkpt lat="42.48442" lon="3.07109">
        <ele>448</ele>
        <time>2024-09-23T11:59:42Z</time>
      </trkpt>
      <trkpt lat="42.48444" lon="3.07112">
        <ele>449</ele>
        <time>2024-09-23T11:59:47Z</time>
      </trkpt>
      <trkpt lat="42.48447" lon="3.07114">
        <ele>449</ele>
        <time>2024-09-23T11:59:50Z</time>
      </trkpt>
      <trkpt lat="42.4845" lon="3.07115">
        <ele>450</ele>
        <time>2024-09-23T11:59:54Z</time>
      </trkpt>
      <trkpt lat="42.48453" lon="3.07115">
        <ele>450</ele>
        <time>2024-09-23T11:59:58Z</time>
      </trkpt>
      <trkpt lat="42.48456" lon="3.07116">
        <ele>450</ele>
        <time>2024-09-23T12:00:03Z</time>
      </trkpt>
      <trkpt lat="42.48456" lon="3.07119">
        <ele>448</ele>
        <time>2024-09-23T12:00:15Z</time>
      </trkpt>
      <trkpt lat="42.48457" lon="3.07121">
        <ele>450</ele>
        <time>2024-09-23T12:00:25Z</time>
      </trkpt>
      <trkpt lat="42.48459" lon="3.07124">
        <ele>452</ele>
        <time>2024-09-23T12:00:31Z</time>
      </trkpt>
      <trkpt lat="42.48461" lon="3.07127">
        <ele>451</ele>
        <time>2024-09-23T12:00:37Z</time>
      </trkpt>
      <trkpt lat="42.4846" lon="3.07131">
        <ele>452</ele>
        <time>2024-09-23T12:00:45Z</time>
      </trkpt>
      <trkpt lat="42.48462" lon="3.07134">
        <ele>455</ele>
        <time>2024-09-23T12:00:53Z</time>
      </trkpt>
      <trkpt lat="42.48465" lon="3.07136">
        <ele>455</ele>
        <time>2024-09-23T12:00:58Z</time>
      </trkpt>
      <trkpt lat="42.48467" lon="3.07139">
        <ele>456</ele>
        <time>2024-09-23T12:01:09Z</time>
      </trkpt>
      <trkpt lat="42.48469" lon="3.07141">
        <ele>459</ele>
        <time>2024-09-23T12:01:17Z</time>
      </trkpt>
      <trkpt lat="42.48472" lon="3.07141">
        <ele>462</ele>
        <time>2024-09-23T12:01:46Z</time>
      </trkpt>
      <trkpt lat="42.48475" lon="3.07141">
        <ele>463</ele>
        <time>2024-09-23T12:01:52Z</time>
      </trkpt>
      <trkpt lat="42.48478" lon="3.07143">
        <ele>465</ele>
        <time>2024-09-23T12:01:57Z</time>
      </trkpt>
      <trkpt lat="42.48481" lon="3.07144">
        <ele>466</ele>
        <time>2024-09-23T12:02:01Z</time>
      </trkpt>
      <trkpt lat="42.48484" lon="3.07144">
        <ele>468</ele>
        <time>2024-09-23T12:02:09Z</time>
      </trkpt>
      <trkpt lat="42.48487" lon="3.07144">
        <ele>469</ele>
        <time>2024-09-23T12:02:12Z</time>
      </trkpt>
      <trkpt lat="42.48491" lon="3.07142">
        <ele>469</ele>
        <time>2024-09-23T12:02:16Z</time>
      </trkpt>
      <trkpt lat="42.48493" lon="3.07141">
        <ele>469</ele>
        <time>2024-09-23T12:02:19Z</time>
      </trkpt>
      <trkpt lat="42.48496" lon="3.07138">
        <ele>469</ele>
        <time>2024-09-23T12:02:23Z</time>
      </trkpt>
      <trkpt lat="42.48499" lon="3.07136">
        <ele>467</ele>
        <time>2024-09-23T12:02:27Z</time>
      </trkpt>
      <trkpt lat="42.48501" lon="3.07136">
        <ele>469</ele>
        <time>2024-09-23T12:02:30Z</time>
      </trkpt>
      <trkpt lat="42.48504" lon="3.07137">
        <ele>470</ele>
        <time>2024-09-23T12:02:34Z</time>
      </trkpt>
      <trkpt lat="42.48507" lon="3.07137">
        <ele>470</ele>
        <time>2024-09-23T12:02:38Z</time>
      </trkpt>
      <trkpt lat="42.48507" lon="3.07135">
        <ele>468</ele>
        <time>2024-09-23T12:03:17Z</time>
      </trkpt>
      <trkpt lat="42.4851" lon="3.07134">
        <ele>467</ele>
        <time>2024-09-23T12:03:24Z</time>
      </trkpt>
      <trkpt lat="42.48512" lon="3.07136">
        <ele>467</ele>
        <time>2024-09-23T12:03:31Z</time>
      </trkpt>
      <trkpt lat="42.48515" lon="3.07137">
        <ele>467</ele>
        <time>2024-09-23T12:03:34Z</time>
      </trkpt>
      <trkpt lat="42.48518" lon="3.07139">
        <ele>467</ele>
        <time>2024-09-23T12:03:38Z</time>
      </trkpt>
      <trkpt lat="42.4852" lon="3.07142">
        <ele>467</ele>
        <time>2024-09-23T12:03:41Z</time>
      </trkpt>
      <trkpt lat="42.48521" lon="3.07145">
        <ele>467</ele>
        <time>2024-09-23T12:03:44Z</time>
      </trkpt>
      <trkpt lat="42.48523" lon="3.07149">
        <ele>467</ele>
        <time>2024-09-23T12:03:48Z</time>
      </trkpt>
      <trkpt lat="42.48524" lon="3.07153">
        <ele>468</ele>
        <time>2024-09-23T12:03:52Z</time>
      </trkpt>
      <trkpt lat="42.48526" lon="3.07157">
        <ele>470</ele>
        <time>2024-09-23T12:04:01Z</time>
      </trkpt>
      <trkpt lat="42.48528" lon="3.0716">
        <ele>471</ele>
        <time>2024-09-23T12:04:05Z</time>
      </trkpt>
      <trkpt lat="42.48529" lon="3.07163">
        <ele>472</ele>
        <time>2024-09-23T12:04:10Z</time>
      </trkpt>
      <trkpt lat="42.48531" lon="3.07166">
        <ele>471</ele>
        <time>2024-09-23T12:04:13Z</time>
      </trkpt>
      <trkpt lat="42.48532" lon="3.0717">
        <ele>472</ele>
        <time>2024-09-23T12:04:19Z</time>
      </trkpt>
      <trkpt lat="42.48534" lon="3.07172">
        <ele>474</ele>
        <time>2024-09-23T12:04:23Z</time>
      </trkpt>
      <trkpt lat="42.48536" lon="3.07175">
        <ele>473</ele>
        <time>2024-09-23T12:04:27Z</time>
      </trkpt>
      <trkpt lat="42.48537" lon="3.07178">
        <ele>473</ele>
        <time>2024-09-23T12:04:31Z</time>
      </trkpt>
      <trkpt lat="42.48539" lon="3.07181">
        <ele>474</ele>
        <time>2024-09-23T12:04:36Z</time>
      </trkpt>
      <trkpt lat="42.48542" lon="3.07182">
        <ele>474</ele>
        <time>2024-09-23T12:04:39Z</time>
      </trkpt>
      <trkpt lat="42.48544" lon="3.07186">
        <ele>474</ele>
        <time>2024-09-23T12:04:42Z</time>
      </trkpt>
      <trkpt lat="42.48546" lon="3.07189">
        <ele>474</ele>
        <time>2024-09-23T12:04:45Z</time>
      </trkpt>
      <trkpt lat="42.48547" lon="3.07191">
        <ele>474</ele>
        <time>2024-09-23T12:04:49Z</time>
      </trkpt>
      <trkpt lat="42.48549" lon="3.07194">
        <ele>475</ele>
        <time>2024-09-23T12:04:53Z</time>
      </trkpt>
      <trkpt lat="42.48551" lon="3.07197">
        <ele>475</ele>
        <time>2024-09-23T12:04:57Z</time>
      </trkpt>
      <trkpt lat="42.48552" lon="3.07201">
        <ele>476</ele>
        <time>2024-09-23T12:05:01Z</time>
      </trkpt>
      <trkpt lat="42.48552" lon="3.07205">
        <ele>477</ele>
        <time>2024-09-23T12:05:06Z</time>
      </trkpt>
      <trkpt lat="42.48553" lon="3.07209">
        <ele>478</ele>
        <time>2024-09-23T12:05:12Z</time>
      </trkpt>
      <trkpt lat="42.48554" lon="3.07212">
        <ele>479</ele>
        <time>2024-09-23T12:05:16Z</time>
      </trkpt>
      <trkpt lat="42.48556" lon="3.07215">
        <ele>479</ele>
        <time>2024-09-23T12:05:20Z</time>
      </trkpt>
      <trkpt lat="42.48558" lon="3.07218">
        <ele>479</ele>
        <time>2024-09-23T12:05:23Z</time>
      </trkpt>
      <trkpt lat="42.48558" lon="3.07222">
        <ele>480</ele>
        <time>2024-09-23T12:05:26Z</time>
      </trkpt>
      <trkpt lat="42.4856" lon="3.07224">
        <ele>481</ele>
        <time>2024-09-23T12:05:30Z</time>
      </trkpt>
      <trkpt lat="42.48561" lon="3.07227">
        <ele>481</ele>
        <time>2024-09-23T12:05:33Z</time>
      </trkpt>
      <trkpt lat="42.48562" lon="3.0723">
        <ele>481</ele>
        <time>2024-09-23T12:05:38Z</time>
      </trkpt>
      <trkpt lat="42.48564" lon="3.07233">
        <ele>482</ele>
        <time>2024-09-23T12:05:43Z</time>
      </trkpt>
      <trkpt lat="42.48566" lon="3.07236">
        <ele>482</ele>
        <time>2024-09-23T12:05:47Z</time>
      </trkpt>
      <trkpt lat="42.48569" lon="3.07238">
        <ele>483</ele>
        <time>2024-09-23T12:05:51Z</time>
      </trkpt>
      <trkpt lat="42.48571" lon="3.07241">
        <ele>485</ele>
        <time>2024-09-23T12:05:56Z</time>
      </trkpt>
      <trkpt lat="42.48573" lon="3.07245">
        <ele>485</ele>
        <time>2024-09-23T12:06:00Z</time>
      </trkpt>
      <trkpt lat="42.48575" lon="3.07246">
        <ele>485</ele>
        <time>2024-09-23T12:06:13Z</time>
      </trkpt>
      <trkpt lat="42.48577" lon="3.07248">
        <ele>486</ele>
        <time>2024-09-23T12:06:17Z</time>
      </trkpt>
      <trkpt lat="42.4858" lon="3.07251">
        <ele>486</ele>
        <time>2024-09-23T12:06:20Z</time>
      </trkpt>
      <trkpt lat="42.48582" lon="3.07254">
        <ele>486</ele>
        <time>2024-09-23T12:06:24Z</time>
      </trkpt>
      <trkpt lat="42.48584" lon="3.07257">
        <ele>486</ele>
        <time>2024-09-23T12:06:29Z</time>
      </trkpt>
      <trkpt lat="42.48586" lon="3.07261">
        <ele>487</ele>
        <time>2024-09-23T12:06:34Z</time>
      </trkpt>
      <trkpt lat="42.48589" lon="3.07264">
        <ele>488</ele>
        <time>2024-09-23T12:06:39Z</time>
      </trkpt>
      <trkpt lat="42.48591" lon="3.07267">
        <ele>488</ele>
        <time>2024-09-23T12:06:43Z</time>
      </trkpt>
      <trkpt lat="42.48592" lon="3.07271">
        <ele>488</ele>
        <time>2024-09-23T12:06:46Z</time>
      </trkpt>
      <trkpt lat="42.48593" lon="3.07275">
        <ele>488</ele>
        <time>2024-09-23T12:06:51Z</time>
      </trkpt>
      <trkpt lat="42.48594" lon="3.07279">
        <ele>488</ele>
        <time>2024-09-23T12:06:55Z</time>
      </trkpt>
      <trkpt lat="42.48594" lon="3.07283">
        <ele>488</ele>
        <time>2024-09-23T12:06:59Z</time>
      </trkpt>
      <trkpt lat="42.48595" lon="3.07287">
        <ele>490</ele>
        <time>2024-09-23T12:07:03Z</time>
      </trkpt>
      <trkpt lat="42.48596" lon="3.07291">
        <ele>491</ele>
        <time>2024-09-23T12:07:07Z</time>
      </trkpt>
      <trkpt lat="42.48597" lon="3.07295">
        <ele>492</ele>
        <time>2024-09-23T12:07:12Z</time>
      </trkpt>
      <trkpt lat="42.48597" lon="3.073">
        <ele>492</ele>
        <time>2024-09-23T12:07:15Z</time>
      </trkpt>
      <trkpt lat="42.48598" lon="3.07304">
        <ele>492</ele>
        <time>2024-09-23T12:07:19Z</time>
      </trkpt>
      <trkpt lat="42.48599" lon="3.07308">
        <ele>492</ele>
        <time>2024-09-23T12:07:23Z</time>
      </trkpt>
      <trkpt lat="42.48599" lon="3.07312">
        <ele>493</ele>
        <time>2024-09-23T12:07:26Z</time>
      </trkpt>
      <trkpt lat="42.48599" lon="3.07317">
        <ele>493</ele>
        <time>2024-09-23T12:07:30Z</time>
      </trkpt>
      <trkpt lat="42.486" lon="3.07321">
        <ele>494</ele>
        <time>2024-09-23T12:07:32Z</time>
      </trkpt>
      <trkpt lat="42.48601" lon="3.07325">
        <ele>494</ele>
        <time>2024-09-23T12:07:35Z</time>
      </trkpt>
      <trkpt lat="42.48602" lon="3.07329">
        <ele>493</ele>
        <time>2024-09-23T12:07:39Z</time>
      </trkpt>
      <trkpt lat="42.48604" lon="3.07332">
        <ele>494</ele>
        <time>2024-09-23T12:08:46Z</time>
      </trkpt>
      <trkpt lat="42.48605" lon="3.07336">
        <ele>494</ele>
        <time>2024-09-23T12:08:50Z</time>
      </trkpt>
      <trkpt lat="42.48605" lon="3.07334">
        <ele>494</ele>
        <time>2024-09-23T12:09:00Z</time>
      </trkpt>
      <trkpt lat="42.48608" lon="3.07333">
        <ele>495</ele>
        <time>2024-09-23T12:09:05Z</time>
      </trkpt>
      <trkpt lat="42.48611" lon="3.07332">
        <ele>495</ele>
        <time>2024-09-23T12:09:09Z</time>
      </trkpt>
      <trkpt lat="42.48614" lon="3.0733">
        <ele>495</ele>
        <time>2024-09-23T12:09:14Z</time>
      </trkpt>
      <trkpt lat="42.48614" lon="3.0733">
        <ele>495</ele>
        <time>2024-09-23T12:09:30Z</time>
      </trkpt>
      <trkpt lat="42.48612" lon="3.07331">
        <ele>494</ele>
        <time>2024-09-23T12:09:33Z</time>
      </trkpt>
      <trkpt lat="42.48609" lon="3.07331">
        <ele>493</ele>
        <time>2024-09-23T12:09:44Z</time>
      </trkpt>
      <trkpt lat="42.48608" lon="3.07334">
        <ele>493</ele>
        <time>2024-09-23T12:09:47Z</time>
      </trkpt>
      <trkpt lat="42.48609" lon="3.07338">
        <ele>492</ele>
        <time>2024-09-23T12:09:52Z</time>
      </trkpt>
      <trkpt lat="42.48608" lon="3.0734">
        <ele>494</ele>
        <time>2024-09-23T12:11:18Z</time>
      </trkpt>
      <trkpt lat="42.48608" lon="3.07344">
        <ele>492</ele>
        <time>2024-09-23T12:11:25Z</time>
      </trkpt>
      <trkpt lat="42.48608" lon="3.07348">
        <ele>491</ele>
        <time>2024-09-23T12:11:33Z</time>
      </trkpt>
      <trkpt lat="42.48609" lon="3.07352">
        <ele>491</ele>
        <time>2024-09-23T12:11:36Z</time>
      </trkpt>
      <trkpt lat="42.48611" lon="3.07356">
        <ele>489</ele>
        <time>2024-09-23T12:11:41Z</time>
      </trkpt>
      <trkpt lat="42.48612" lon="3.07359">
        <ele>487</ele>
        <time>2024-09-23T12:11:44Z</time>
      </trkpt>
      <trkpt lat="42.48614" lon="3.07363">
        <ele>487</ele>
        <time>2024-09-23T12:11:47Z</time>
      </trkpt>
      <trkpt lat="42.48616" lon="3.07366">
        <ele>487</ele>
        <time>2024-09-23T12:11:50Z</time>
      </trkpt>
      <trkpt lat="42.48618" lon="3.0737">
        <ele>488</ele>
        <time>2024-09-23T12:11:53Z</time>
      </trkpt>
      <trkpt lat="42.4862" lon="3.07373">
        <ele>487</ele>
        <time>2024-09-23T12:11:56Z</time>
      </trkpt>
      <trkpt lat="42.48622" lon="3.07376">
        <ele>487</ele>
        <time>2024-09-23T12:11:59Z</time>
      </trkpt>
      <trkpt lat="42.48624" lon="3.07379">
        <ele>488</ele>
        <time>2024-09-23T12:12:05Z</time>
      </trkpt>
      <trkpt lat="42.48626" lon="3.07382">
        <ele>487</ele>
        <time>2024-09-23T12:12:08Z</time>
      </trkpt>
      <trkpt lat="42.48628" lon="3.07386">
        <ele>487</ele>
        <time>2024-09-23T12:12:11Z</time>
      </trkpt>
      <trkpt lat="42.48629" lon="3.07389">
        <ele>487</ele>
        <time>2024-09-23T12:12:14Z</time>
      </trkpt>
      <trkpt lat="42.48631" lon="3.07393">
        <ele>487</ele>
        <time>2024-09-23T12:12:17Z</time>
      </trkpt>
      <trkpt lat="42.48633" lon="3.07397">
        <ele>487</ele>
        <time>2024-09-23T12:12:20Z</time>
      </trkpt>
      <trkpt lat="42.48636" lon="3.074">
        <ele>488</ele>
        <time>2024-09-23T12:12:23Z</time>
      </trkpt>
      <trkpt lat="42.48637" lon="3.07403">
        <ele>488</ele>
        <time>2024-09-23T12:12:26Z</time>
      </trkpt>
      <trkpt lat="42.48639" lon="3.07407">
        <ele>487</ele>
        <time>2024-09-23T12:12:29Z</time>
      </trkpt>
      <trkpt lat="42.4864" lon="3.07412">
        <ele>486</ele>
        <time>2024-09-23T12:12:32Z</time>
      </trkpt>
      <trkpt lat="42.48642" lon="3.07416">
        <ele>486</ele>
        <time>2024-09-23T12:12:35Z</time>
      </trkpt>
      <trkpt lat="42.48643" lon="3.0742">
        <ele>486</ele>
        <time>2024-09-23T12:12:38Z</time>
      </trkpt>
      <trkpt lat="42.48645" lon="3.07425">
        <ele>485</ele>
        <time>2024-09-23T12:12:42Z</time>
      </trkpt>
      <trkpt lat="42.48646" lon="3.07428">
        <ele>484</ele>
        <time>2024-09-23T12:12:45Z</time>
      </trkpt>
      <trkpt lat="42.48647" lon="3.07433">
        <ele>484</ele>
        <time>2024-09-23T12:12:48Z</time>
      </trkpt>
      <trkpt lat="42.48649" lon="3.07436">
        <ele>484</ele>
        <time>2024-09-23T12:12:51Z</time>
      </trkpt>
      <trkpt lat="42.4865" lon="3.0744">
        <ele>484</ele>
        <time>2024-09-23T12:12:54Z</time>
      </trkpt>
      <trkpt lat="42.48652" lon="3.07444">
        <ele>484</ele>
        <time>2024-09-23T12:12:56Z</time>
      </trkpt>
      <trkpt lat="42.48653" lon="3.07447">
        <ele>484</ele>
        <time>2024-09-23T12:12:58Z</time>
      </trkpt>
      <trkpt lat="42.48655" lon="3.0745">
        <ele>484</ele>
        <time>2024-09-23T12:13:01Z</time>
      </trkpt>
      <trkpt lat="42.48657" lon="3.07453">
        <ele>484</ele>
        <time>2024-09-23T12:13:06Z</time>
      </trkpt>
      <trkpt lat="42.48658" lon="3.07457">
        <ele>483</ele>
        <time>2024-09-23T12:13:10Z</time>
      </trkpt>
      <trkpt lat="42.4866" lon="3.0746">
        <ele>482</ele>
        <time>2024-09-23T12:13:13Z</time>
      </trkpt>
      <trkpt lat="42.48662" lon="3.07463">
        <ele>480</ele>
        <time>2024-09-23T12:13:23Z</time>
      </trkpt>
      <trkpt lat="42.48666" lon="3.07465">
        <ele>481</ele>
        <time>2024-09-23T12:13:26Z</time>
      </trkpt>
      <trkpt lat="42.48668" lon="3.07468">
        <ele>481</ele>
        <time>2024-09-23T12:13:28Z</time>
      </trkpt>
      <trkpt lat="42.4867" lon="3.07471">
        <ele>482</ele>
        <time>2024-09-23T12:13:34Z</time>
      </trkpt>
      <trkpt lat="42.48672" lon="3.07474">
        <ele>483</ele>
        <time>2024-09-23T12:13:37Z</time>
      </trkpt>
      <trkpt lat="42.48674" lon="3.07477">
        <ele>483</ele>
        <time>2024-09-23T12:13:40Z</time>
      </trkpt>
      <trkpt lat="42.48676" lon="3.07481">
        <ele>482</ele>
        <time>2024-09-23T12:13:43Z</time>
      </trkpt>
      <trkpt lat="42.48678" lon="3.07484">
        <ele>480</ele>
        <time>2024-09-23T12:13:46Z</time>
      </trkpt>
      <trkpt lat="42.4868" lon="3.07487">
        <ele>480</ele>
        <time>2024-09-23T12:13:49Z</time>
      </trkpt>
      <trkpt lat="42.48682" lon="3.07491">
        <ele>480</ele>
        <time>2024-09-23T12:13:51Z</time>
      </trkpt>
      <trkpt lat="42.48684" lon="3.07495">
        <ele>480</ele>
        <time>2024-09-23T12:13:54Z</time>
      </trkpt>
      <trkpt lat="42.48685" lon="3.07498">
        <ele>480</ele>
        <time>2024-09-23T12:13:56Z</time>
      </trkpt>
      <trkpt lat="42.48686" lon="3.07502">
        <ele>480</ele>
        <time>2024-09-23T12:13:59Z</time>
      </trkpt>
      <trkpt lat="42.48687" lon="3.07506">
        <ele>479</ele>
        <time>2024-09-23T12:14:02Z</time>
      </trkpt>
      <trkpt lat="42.48687" lon="3.07511">
        <ele>478</ele>
        <time>2024-09-23T12:14:04Z</time>
      </trkpt>
      <trkpt lat="42.48688" lon="3.07514">
        <ele>479</ele>
        <time>2024-09-23T12:14:07Z</time>
      </trkpt>
      <trkpt lat="42.48689" lon="3.07518">
        <ele>479</ele>
        <time>2024-09-23T12:14:09Z</time>
      </trkpt>
      <trkpt lat="42.4869" lon="3.07522">
        <ele>479</ele>
        <time>2024-09-23T12:14:11Z</time>
      </trkpt>
      <trkpt lat="42.4869" lon="3.07526">
        <ele>480</ele>
        <time>2024-09-23T12:14:20Z</time>
      </trkpt>
      <trkpt lat="42.48691" lon="3.0753">
        <ele>479</ele>
        <time>2024-09-23T12:14:22Z</time>
      </trkpt>
      <trkpt lat="42.48691" lon="3.07534">
        <ele>479</ele>
        <time>2024-09-23T12:14:25Z</time>
      </trkpt>
      <trkpt lat="42.48692" lon="3.07539">
        <ele>479</ele>
        <time>2024-09-23T12:14:28Z</time>
      </trkpt>
      <trkpt lat="42.48693" lon="3.07543">
        <ele>478</ele>
        <time>2024-09-23T12:14:31Z</time>
      </trkpt>
      <trkpt lat="42.48694" lon="3.07547">
        <ele>479</ele>
        <time>2024-09-23T12:14:33Z</time>
      </trkpt>
      <trkpt lat="42.48694" lon="3.07551">
        <ele>479</ele>
        <time>2024-09-23T12:14:35Z</time>
      </trkpt>
      <trkpt lat="42.48694" lon="3.07555">
        <ele>480</ele>
        <time>2024-09-23T12:14:37Z</time>
      </trkpt>
      <trkpt lat="42.48694" lon="3.0756">
        <ele>480</ele>
        <time>2024-09-23T12:14:40Z</time>
      </trkpt>
      <trkpt lat="42.48695" lon="3.07564">
        <ele>480</ele>
        <time>2024-09-23T12:14:43Z</time>
      </trkpt>
      <trkpt lat="42.48695" lon="3.07569">
        <ele>479</ele>
        <time>2024-09-23T12:14:46Z</time>
      </trkpt>
      <trkpt lat="42.48696" lon="3.07574">
        <ele>478</ele>
        <time>2024-09-23T12:14:49Z</time>
      </trkpt>
      <trkpt lat="42.48697" lon="3.07578">
        <ele>478</ele>
        <time>2024-09-23T12:14:52Z</time>
      </trkpt>
      <trkpt lat="42.48697" lon="3.07582">
        <ele>478</ele>
        <time>2024-09-23T12:14:54Z</time>
      </trkpt>
      <trkpt lat="42.48698" lon="3.07586">
        <ele>477</ele>
        <time>2024-09-23T12:14:58Z</time>
      </trkpt>
      <trkpt lat="42.48698" lon="3.07591">
        <ele>477</ele>
        <time>2024-09-23T12:15:00Z</time>
      </trkpt>
      <trkpt lat="42.48698" lon="3.07595">
        <ele>476</ele>
        <time>2024-09-23T12:15:03Z</time>
      </trkpt>
      <trkpt lat="42.48698" lon="3.076">
        <ele>475</ele>
        <time>2024-09-23T12:15:05Z</time>
      </trkpt>
      <trkpt lat="42.48698" lon="3.07604">
        <ele>474</ele>
        <time>2024-09-23T12:15:08Z</time>
      </trkpt>
      <trkpt lat="42.48699" lon="3.07609">
        <ele>475</ele>
        <time>2024-09-23T12:15:10Z</time>
      </trkpt>
      <trkpt lat="42.48699" lon="3.07613">
        <ele>475</ele>
        <time>2024-09-23T12:15:13Z</time>
      </trkpt>
      <trkpt lat="42.487" lon="3.07618">
        <ele>475</ele>
        <time>2024-09-23T12:15:16Z</time>
      </trkpt>
      <trkpt lat="42.48699" lon="3.07622">
        <ele>473</ele>
        <time>2024-09-23T12:15:19Z</time>
      </trkpt>
      <trkpt lat="42.487" lon="3.07626">
        <ele>473</ele>
        <time>2024-09-23T12:15:22Z</time>
      </trkpt>
      <trkpt lat="42.48701" lon="3.07631">
        <ele>473</ele>
        <time>2024-09-23T12:15:26Z</time>
      </trkpt>
      <trkpt lat="42.48702" lon="3.07635">
        <ele>474</ele>
        <time>2024-09-23T12:15:29Z</time>
      </trkpt>
      <trkpt lat="42.48703" lon="3.07638">
        <ele>474</ele>
        <time>2024-09-23T12:15:32Z</time>
      </trkpt>
      <trkpt lat="42.48706" lon="3.07642">
        <ele>473</ele>
        <time>2024-09-23T12:15:35Z</time>
      </trkpt>
      <trkpt lat="42.48708" lon="3.07646">
        <ele>473</ele>
        <time>2024-09-23T12:15:38Z</time>
      </trkpt>
      <trkpt lat="42.4871" lon="3.07649">
        <ele>473</ele>
        <time>2024-09-23T12:15:41Z</time>
      </trkpt>
      <trkpt lat="42.48711" lon="3.07654">
        <ele>473</ele>
        <time>2024-09-23T12:15:44Z</time>
      </trkpt>
      <trkpt lat="42.48712" lon="3.07658">
        <ele>474</ele>
        <time>2024-09-23T12:15:46Z</time>
      </trkpt>
      <trkpt lat="42.48713" lon="3.07662">
        <ele>473</ele>
        <time>2024-09-23T12:15:52Z</time>
      </trkpt>
      <trkpt lat="42.48713" lon="3.07666">
        <ele>474</ele>
        <time>2024-09-23T12:15:55Z</time>
      </trkpt>
      <trkpt lat="42.48712" lon="3.0767">
        <ele>474</ele>
        <time>2024-09-23T12:15:57Z</time>
      </trkpt>
      <trkpt lat="42.48712" lon="3.07674">
        <ele>474</ele>
        <time>2024-09-23T12:15:59Z</time>
      </trkpt>
      <trkpt lat="42.48713" lon="3.07678">
        <ele>473</ele>
        <time>2024-09-23T12:16:07Z</time>
      </trkpt>
      <trkpt lat="42.48712" lon="3.07682">
        <ele>473</ele>
        <time>2024-09-23T12:16:10Z</time>
      </trkpt>
      <trkpt lat="42.4871" lon="3.07686">
        <ele>473</ele>
        <time>2024-09-23T12:16:12Z</time>
      </trkpt>
      <trkpt lat="42.48709" lon="3.0769">
        <ele>473</ele>
        <time>2024-09-23T12:16:16Z</time>
      </trkpt>
      <trkpt lat="42.48707" lon="3.07694">
        <ele>472</ele>
        <time>2024-09-23T12:16:19Z</time>
      </trkpt>
      <trkpt lat="42.48705" lon="3.07697">
        <ele>471</ele>
        <time>2024-09-23T12:16:24Z</time>
      </trkpt>
      <trkpt lat="42.48702" lon="3.077">
        <ele>471</ele>
        <time>2024-09-23T12:16:27Z</time>
      </trkpt>
      <trkpt lat="42.487" lon="3.07704">
        <ele>470</ele>
        <time>2024-09-23T12:16:31Z</time>
      </trkpt>
      <trkpt lat="42.48697" lon="3.07708">
        <ele>469</ele>
        <time>2024-09-23T12:16:35Z</time>
      </trkpt>
      <trkpt lat="42.48695" lon="3.07712">
        <ele>468</ele>
        <time>2024-09-23T12:16:38Z</time>
      </trkpt>
      <trkpt lat="42.48693" lon="3.07715">
        <ele>468</ele>
        <time>2024-09-23T12:16:41Z</time>
      </trkpt>
      <trkpt lat="42.48692" lon="3.07719">
        <ele>467</ele>
        <time>2024-09-23T12:16:44Z</time>
      </trkpt>
      <trkpt lat="42.4869" lon="3.07722">
        <ele>466</ele>
        <time>2024-09-23T12:16:48Z</time>
      </trkpt>
      <trkpt lat="42.48688" lon="3.07726">
        <ele>465</ele>
        <time>2024-09-23T12:16:51Z</time>
      </trkpt>
      <trkpt lat="42.48685" lon="3.07729">
        <ele>463</ele>
        <time>2024-09-23T12:16:57Z</time>
      </trkpt>
      <trkpt lat="42.48682" lon="3.07731">
        <ele>463</ele>
        <time>2024-09-23T12:17:00Z</time>
      </trkpt>
      <trkpt lat="42.48681" lon="3.07735">
        <ele>463</ele>
        <time>2024-09-23T12:17:03Z</time>
      </trkpt>
      <trkpt lat="42.4868" lon="3.07739">
        <ele>462</ele>
        <time>2024-09-23T12:17:07Z</time>
      </trkpt>
      <trkpt lat="42.48677" lon="3.07742">
        <ele>462</ele>
        <time>2024-09-23T12:17:10Z</time>
      </trkpt>
      <trkpt lat="42.48675" lon="3.07745">
        <ele>462</ele>
        <time>2024-09-23T12:17:13Z</time>
      </trkpt>
      <trkpt lat="42.48673" lon="3.07749">
        <ele>461</ele>
        <time>2024-09-23T12:17:16Z</time>
      </trkpt>
      <trkpt lat="42.48671" lon="3.07751">
        <ele>461</ele>
        <time>2024-09-23T12:17:19Z</time>
      </trkpt>
      <trkpt lat="42.48669" lon="3.07754">
        <ele>461</ele>
        <time>2024-09-23T12:17:27Z</time>
      </trkpt>
      <trkpt lat="42.48667" lon="3.07757">
        <ele>461</ele>
        <time>2024-09-23T12:17:31Z</time>
      </trkpt>
      <trkpt lat="42.48667" lon="3.07756">
        <ele>465</ele>
        <time>2024-09-23T12:18:07Z</time>
      </trkpt>
      <trkpt lat="42.48666" lon="3.07758">
        <ele>465</ele>
        <time>2024-09-23T12:20:04Z</time>
      </trkpt>
      <trkpt lat="42.48665" lon="3.07761">
        <ele>464</ele>
        <time>2024-09-23T12:20:07Z</time>
      </trkpt>
      <trkpt lat="42.48663" lon="3.07764">
        <ele>464</ele>
        <time>2024-09-23T12:20:09Z</time>
      </trkpt>
      <trkpt lat="42.48661" lon="3.07768">
        <ele>464</ele>
        <time>2024-09-23T12:20:11Z</time>
      </trkpt>
      <trkpt lat="42.48659" lon="3.07772">
        <ele>463</ele>
        <time>2024-09-23T12:20:14Z</time>
      </trkpt>
      <trkpt lat="42.48656" lon="3.07775">
        <ele>463</ele>
        <time>2024-09-23T12:20:17Z</time>
      </trkpt>
      <trkpt lat="42.48654" lon="3.07778">
        <ele>463</ele>
        <time>2024-09-23T12:20:19Z</time>
      </trkpt>
      <trkpt lat="42.48652" lon="3.07782">
        <ele>461</ele>
        <time>2024-09-23T12:20:23Z</time>
      </trkpt>
      <trkpt lat="42.4865" lon="3.07785">
        <ele>462</ele>
        <time>2024-09-23T12:20:24Z</time>
      </trkpt>
      <trkpt lat="42.48648" lon="3.07788">
        <ele>461</ele>
        <time>2024-09-23T12:20:28Z</time>
      </trkpt>
      <trkpt lat="42.48645" lon="3.0779">
        <ele>461</ele>
        <time>2024-09-23T12:20:31Z</time>
      </trkpt>
      <trkpt lat="42.48643" lon="3.07793">
        <ele>461</ele>
        <time>2024-09-23T12:20:34Z</time>
      </trkpt>
      <trkpt lat="42.48641" lon="3.07797">
        <ele>461</ele>
        <time>2024-09-23T12:20:37Z</time>
      </trkpt>
      <trkpt lat="42.4864" lon="3.078">
        <ele>461</ele>
        <time>2024-09-23T12:20:39Z</time>
      </trkpt>
      <trkpt lat="42.48638" lon="3.07803">
        <ele>461</ele>
        <time>2024-09-23T12:20:41Z</time>
      </trkpt>
      <trkpt lat="42.48636" lon="3.07807">
        <ele>462</ele>
        <time>2024-09-23T12:20:44Z</time>
      </trkpt>
      <trkpt lat="42.48634" lon="3.0781">
        <ele>461</ele>
        <time>2024-09-23T12:20:47Z</time>
      </trkpt>
      <trkpt lat="42.48631" lon="3.07814">
        <ele>461</ele>
        <time>2024-09-23T12:20:50Z</time>
      </trkpt>
      <trkpt lat="42.48629" lon="3.07817">
        <ele>461</ele>
        <time>2024-09-23T12:20:52Z</time>
      </trkpt>
      <trkpt lat="42.48629" lon="3.07821">
        <ele>461</ele>
        <time>2024-09-23T12:20:54Z</time>
      </trkpt>
      <trkpt lat="42.4863" lon="3.07825">
        <ele>461</ele>
        <time>2024-09-23T12:20:57Z</time>
      </trkpt>
      <trkpt lat="42.48632" lon="3.07829">
        <ele>460</ele>
        <time>2024-09-23T12:20:59Z</time>
      </trkpt>
      <trkpt lat="42.48633" lon="3.07833">
        <ele>459</ele>
        <time>2024-09-23T12:21:02Z</time>
      </trkpt>
      <trkpt lat="42.48634" lon="3.07837">
        <ele>460</ele>
        <time>2024-09-23T12:21:05Z</time>
      </trkpt>
      <trkpt lat="42.48636" lon="3.0784">
        <ele>460</ele>
        <time>2024-09-23T12:21:12Z</time>
      </trkpt>
      <trkpt lat="42.48638" lon="3.07844">
        <ele>460</ele>
        <time>2024-09-23T12:21:15Z</time>
      </trkpt>
      <trkpt lat="42.4864" lon="3.07848">
        <ele>461</ele>
        <time>2024-09-23T12:21:18Z</time>
      </trkpt>
      <trkpt lat="42.48642" lon="3.07852">
        <ele>460</ele>
        <time>2024-09-23T12:21:21Z</time>
      </trkpt>
      <trkpt lat="42.48644" lon="3.07856">
        <ele>460</ele>
        <time>2024-09-23T12:21:24Z</time>
      </trkpt>
      <trkpt lat="42.48646" lon="3.0786">
        <ele>460</ele>
        <time>2024-09-23T12:21:28Z</time>
      </trkpt>
      <trkpt lat="42.48648" lon="3.07864">
        <ele>460</ele>
        <time>2024-09-23T12:21:32Z</time>
      </trkpt>
      <trkpt lat="42.4865" lon="3.07868">
        <ele>461</ele>
        <time>2024-09-23T12:21:35Z</time>
      </trkpt>
      <trkpt lat="42.48652" lon="3.07872">
        <ele>461</ele>
        <time>2024-09-23T12:21:38Z</time>
      </trkpt>
      <trkpt lat="42.48653" lon="3.07877">
        <ele>461</ele>
        <time>2024-09-23T12:21:41Z</time>
      </trkpt>
      <trkpt lat="42.48654" lon="3.07881">
        <ele>461</ele>
        <time>2024-09-23T12:21:45Z</time>
      </trkpt>
      <trkpt lat="42.48654" lon="3.07886">
        <ele>461</ele>
        <time>2024-09-23T12:21:48Z</time>
      </trkpt>
      <trkpt lat="42.48654" lon="3.07891">
        <ele>460</ele>
        <time>2024-09-23T12:21:55Z</time>
      </trkpt>
      <trkpt lat="42.48654" lon="3.07895">
        <ele>461</ele>
        <time>2024-09-23T12:21:57Z</time>
      </trkpt>
      <trkpt lat="42.48654" lon="3.079">
        <ele>461</ele>
        <time>2024-09-23T12:22:00Z</time>
      </trkpt>
      <trkpt lat="42.48654" lon="3.07904">
        <ele>460</ele>
        <time>2024-09-23T12:22:03Z</time>
      </trkpt>
      <trkpt lat="42.48654" lon="3.07908">
        <ele>459</ele>
        <time>2024-09-23T12:22:12Z</time>
      </trkpt>
      <trkpt lat="42.48655" lon="3.07912">
        <ele>459</ele>
        <time>2024-09-23T12:22:14Z</time>
      </trkpt>
      <trkpt lat="42.48655" lon="3.07916">
        <ele>459</ele>
        <time>2024-09-23T12:22:16Z</time>
      </trkpt>
      <trkpt lat="42.48657" lon="3.0792">
        <ele>459</ele>
        <time>2024-09-23T12:22:18Z</time>
      </trkpt>
      <trkpt lat="42.48657" lon="3.07924">
        <ele>459</ele>
        <time>2024-09-23T12:22:21Z</time>
      </trkpt>
      <trkpt lat="42.48659" lon="3.07927">
        <ele>458</ele>
        <time>2024-09-23T12:22:24Z</time>
      </trkpt>
      <trkpt lat="42.4866" lon="3.07931">
        <ele>457</ele>
        <time>2024-09-23T12:22:27Z</time>
      </trkpt>
      <trkpt lat="42.4866" lon="3.07935">
        <ele>457</ele>
        <time>2024-09-23T12:22:29Z</time>
      </trkpt>
      <trkpt lat="42.4866" lon="3.07939">
        <ele>456</ele>
        <time>2024-09-23T12:22:32Z</time>
      </trkpt>
      <trkpt lat="42.4866" lon="3.07943">
        <ele>455</ele>
        <time>2024-09-23T12:22:35Z</time>
      </trkpt>
      <trkpt lat="42.4866" lon="3.07947">
        <ele>455</ele>
        <time>2024-09-23T12:22:39Z</time>
      </trkpt>
      <trkpt lat="42.48661" lon="3.07951">
        <ele>455</ele>
        <time>2024-09-23T12:22:41Z</time>
      </trkpt>
      <trkpt lat="42.48663" lon="3.07955">
        <ele>455</ele>
        <time>2024-09-23T12:22:44Z</time>
      </trkpt>
      <trkpt lat="42.48664" lon="3.0796">
        <ele>454</ele>
        <time>2024-09-23T12:22:47Z</time>
      </trkpt>
      <trkpt lat="42.48665" lon="3.07964">
        <ele>454</ele>
        <time>2024-09-23T12:22:49Z</time>
      </trkpt>
      <trkpt lat="42.48667" lon="3.07968">
        <ele>454</ele>
        <time>2024-09-23T12:22:51Z</time>
      </trkpt>
      <trkpt lat="42.48668" lon="3.07971">
        <ele>453</ele>
        <time>2024-09-23T12:22:54Z</time>
      </trkpt>
      <trkpt lat="42.4867" lon="3.07975">
        <ele>454</ele>
        <time>2024-09-23T12:22:57Z</time>
      </trkpt>
      <trkpt lat="42.4867" lon="3.07979">
        <ele>453</ele>
        <time>2024-09-23T12:23:01Z</time>
      </trkpt>
      <trkpt lat="42.4867" lon="3.07983">
        <ele>452</ele>
        <time>2024-09-23T12:23:05Z</time>
      </trkpt>
      <trkpt lat="42.48669" lon="3.07987">
        <ele>453</ele>
        <time>2024-09-23T12:23:09Z</time>
      </trkpt>
      <trkpt lat="42.48668" lon="3.0799">
        <ele>453</ele>
        <time>2024-09-23T12:23:11Z</time>
      </trkpt>
      <trkpt lat="42.48666" lon="3.07994">
        <ele>454</ele>
        <time>2024-09-23T12:23:14Z</time>
      </trkpt>
      <trkpt lat="42.48664" lon="3.07998">
        <ele>455</ele>
        <time>2024-09-23T12:23:17Z</time>
      </trkpt>
      <trkpt lat="42.48662" lon="3.08">
        <ele>455</ele>
        <time>2024-09-23T12:23:21Z</time>
      </trkpt>
      <trkpt lat="42.48659" lon="3.08003">
        <ele>456</ele>
        <time>2024-09-23T12:23:23Z</time>
      </trkpt>
      <trkpt lat="42.48657" lon="3.08006">
        <ele>457</ele>
        <time>2024-09-23T12:23:26Z</time>
      </trkpt>
      <trkpt lat="42.48655" lon="3.08009">
        <ele>457</ele>
        <time>2024-09-23T12:23:29Z</time>
      </trkpt>
      <trkpt lat="42.48653" lon="3.08013">
        <ele>458</ele>
        <time>2024-09-23T12:23:32Z</time>
      </trkpt>
      <trkpt lat="42.48651" lon="3.08016">
        <ele>457</ele>
        <time>2024-09-23T12:23:35Z</time>
      </trkpt>
      <trkpt lat="42.48649" lon="3.08019">
        <ele>457</ele>
        <time>2024-09-23T12:23:38Z</time>
      </trkpt>
      <trkpt lat="42.48648" lon="3.08023">
        <ele>456</ele>
        <time>2024-09-23T12:23:42Z</time>
      </trkpt>
      <trkpt lat="42.48646" lon="3.08026">
        <ele>457</ele>
        <time>2024-09-23T12:23:44Z</time>
      </trkpt>
      <trkpt lat="42.48644" lon="3.08031">
        <ele>457</ele>
        <time>2024-09-23T12:23:50Z</time>
      </trkpt>
      <trkpt lat="42.48642" lon="3.08034">
        <ele>457</ele>
        <time>2024-09-23T12:23:53Z</time>
      </trkpt>
      <trkpt lat="42.4864" lon="3.08038">
        <ele>457</ele>
        <time>2024-09-23T12:23:56Z</time>
      </trkpt>
      <trkpt lat="42.48638" lon="3.08042">
        <ele>456</ele>
        <time>2024-09-23T12:23:59Z</time>
      </trkpt>
      <trkpt lat="42.48635" lon="3.08046">
        <ele>456</ele>
        <time>2024-09-23T12:24:03Z</time>
      </trkpt>
      <trkpt lat="42.48633" lon="3.0805">
        <ele>456</ele>
        <time>2024-09-23T12:24:06Z</time>
      </trkpt>
      <trkpt lat="42.48633" lon="3.08054">
        <ele>455</ele>
        <time>2024-09-23T12:24:09Z</time>
      </trkpt>
      <trkpt lat="42.48632" lon="3.08058">
        <ele>454</ele>
        <time>2024-09-23T12:24:12Z</time>
      </trkpt>
      <trkpt lat="42.4863" lon="3.08062">
        <ele>453</ele>
        <time>2024-09-23T12:24:15Z</time>
      </trkpt>
      <trkpt lat="42.48628" lon="3.08066">
        <ele>453</ele>
        <time>2024-09-23T12:24:18Z</time>
      </trkpt>
      <trkpt lat="42.48627" lon="3.08069">
        <ele>452</ele>
        <time>2024-09-23T12:24:21Z</time>
      </trkpt>
      <trkpt lat="42.48625" lon="3.08073">
        <ele>451</ele>
        <time>2024-09-23T12:24:24Z</time>
      </trkpt>
      <trkpt lat="42.48623" lon="3.08077">
        <ele>451</ele>
        <time>2024-09-23T12:24:27Z</time>
      </trkpt>
      <trkpt lat="42.48622" lon="3.08081">
        <ele>450</ele>
        <time>2024-09-23T12:24:30Z</time>
      </trkpt>
      <trkpt lat="42.48622" lon="3.08085">
        <ele>449</ele>
        <time>2024-09-23T12:24:33Z</time>
      </trkpt>
      <trkpt lat="42.48622" lon="3.08089">
        <ele>449</ele>
        <time>2024-09-23T12:24:36Z</time>
      </trkpt>
      <trkpt lat="42.48623" lon="3.08093">
        <ele>448</ele>
        <time>2024-09-23T12:24:39Z</time>
      </trkpt>
      <trkpt lat="42.48624" lon="3.08098">
        <ele>448</ele>
        <time>2024-09-23T12:24:42Z</time>
      </trkpt>
      <trkpt lat="42.48624" lon="3.08103">
        <ele>448</ele>
        <time>2024-09-23T12:24:45Z</time>
      </trkpt>
      <trkpt lat="42.48624" lon="3.08108">
        <ele>447</ele>
        <time>2024-09-23T12:24:48Z</time>
      </trkpt>
      <trkpt lat="42.48624" lon="3.08112">
        <ele>446</ele>
        <time>2024-09-23T12:24:51Z</time>
      </trkpt>
      <trkpt lat="42.48625" lon="3.08117">
        <ele>446</ele>
        <time>2024-09-23T12:24:54Z</time>
      </trkpt>
      <trkpt lat="42.48624" lon="3.08122">
        <ele>445</ele>
        <time>2024-09-23T12:24:58Z</time>
      </trkpt>
      <trkpt lat="42.48624" lon="3.08127">
        <ele>445</ele>
        <time>2024-09-23T12:25:01Z</time>
      </trkpt>
      <trkpt lat="42.48624" lon="3.08131">
        <ele>445</ele>
        <time>2024-09-23T12:25:04Z</time>
      </trkpt>
      <trkpt lat="42.48624" lon="3.08135">
        <ele>444</ele>
        <time>2024-09-23T12:25:07Z</time>
      </trkpt>
      <trkpt lat="42.48624" lon="3.0814">
        <ele>444</ele>
        <time>2024-09-23T12:25:10Z</time>
      </trkpt>
      <trkpt lat="42.48624" lon="3.08144">
        <ele>444</ele>
        <time>2024-09-23T12:25:13Z</time>
      </trkpt>
      <trkpt lat="42.48625" lon="3.08148">
        <ele>443</ele>
        <time>2024-09-23T12:25:16Z</time>
      </trkpt>
      <trkpt lat="42.48625" lon="3.08152">
        <ele>444</ele>
        <time>2024-09-23T12:25:19Z</time>
      </trkpt>
      <trkpt lat="42.48625" lon="3.08157">
        <ele>444</ele>
        <time>2024-09-23T12:25:22Z</time>
      </trkpt>
      <trkpt lat="42.48623" lon="3.08161">
        <ele>444</ele>
        <time>2024-09-23T12:25:26Z</time>
      </trkpt>
      <trkpt lat="42.48621" lon="3.08165">
        <ele>445</ele>
        <time>2024-09-23T12:25:29Z</time>
      </trkpt>
      <trkpt lat="42.48619" lon="3.08168">
        <ele>445</ele>
        <time>2024-09-23T12:25:33Z</time>
      </trkpt>
      <trkpt lat="42.48617" lon="3.08172">
        <ele>445</ele>
        <time>2024-09-23T12:25:36Z</time>
      </trkpt>
      <trkpt lat="42.48615" lon="3.08175">
        <ele>445</ele>
        <time>2024-09-23T12:25:39Z</time>
      </trkpt>
      <trkpt lat="42.48612" lon="3.08179">
        <ele>445</ele>
        <time>2024-09-23T12:25:43Z</time>
      </trkpt>
      <trkpt lat="42.4861" lon="3.08182">
        <ele>445</ele>
        <time>2024-09-23T12:25:45Z</time>
      </trkpt>
      <trkpt lat="42.48608" lon="3.08186">
        <ele>444</ele>
        <time>2024-09-23T12:25:48Z</time>
      </trkpt>
      <trkpt lat="42.48607" lon="3.0819">
        <ele>445</ele>
        <time>2024-09-23T12:25:51Z</time>
      </trkpt>
      <trkpt lat="42.48605" lon="3.08194">
        <ele>444</ele>
        <time>2024-09-23T12:25:55Z</time>
      </trkpt>
      <trkpt lat="42.48604" lon="3.08198">
        <ele>443</ele>
        <time>2024-09-23T12:25:58Z</time>
      </trkpt>
      <trkpt lat="42.48602" lon="3.08202">
        <ele>443</ele>
        <time>2024-09-23T12:26:01Z</time>
      </trkpt>
      <trkpt lat="42.48601" lon="3.08206">
        <ele>443</ele>
        <time>2024-09-23T12:26:04Z</time>
      </trkpt>
      <trkpt lat="42.486" lon="3.0821">
        <ele>443</ele>
        <time>2024-09-23T12:26:07Z</time>
      </trkpt>
      <trkpt lat="42.48598" lon="3.08214">
        <ele>444</ele>
        <time>2024-09-23T12:26:11Z</time>
      </trkpt>
      <trkpt lat="42.48597" lon="3.08219">
        <ele>444</ele>
        <time>2024-09-23T12:26:14Z</time>
      </trkpt>
      <trkpt lat="42.48596" lon="3.08223">
        <ele>443</ele>
        <time>2024-09-23T12:26:17Z</time>
      </trkpt>
      <trkpt lat="42.48595" lon="3.08228">
        <ele>443</ele>
        <time>2024-09-23T12:26:20Z</time>
      </trkpt>
      <trkpt lat="42.48594" lon="3.08231">
        <ele>444</ele>
        <time>2024-09-23T12:26:23Z</time>
      </trkpt>
      <trkpt lat="42.48593" lon="3.08235">
        <ele>444</ele>
        <time>2024-09-23T12:26:26Z</time>
      </trkpt>
      <trkpt lat="42.48592" lon="3.0824">
        <ele>444</ele>
        <time>2024-09-23T12:26:28Z</time>
      </trkpt>
      <trkpt lat="42.4859" lon="3.08244">
        <ele>444</ele>
        <time>2024-09-23T12:26:31Z</time>
      </trkpt>
      <trkpt lat="42.48589" lon="3.08248">
        <ele>445</ele>
        <time>2024-09-23T12:26:34Z</time>
      </trkpt>
      <trkpt lat="42.48587" lon="3.08251">
        <ele>446</ele>
        <time>2024-09-23T12:26:37Z</time>
      </trkpt>
      <trkpt lat="42.48585" lon="3.08254">
        <ele>447</ele>
        <time>2024-09-23T12:26:40Z</time>
      </trkpt>
      <trkpt lat="42.48582" lon="3.08256">
        <ele>446</ele>
        <time>2024-09-23T12:26:44Z</time>
      </trkpt>
      <trkpt lat="42.48579" lon="3.08259">
        <ele>446</ele>
        <time>2024-09-23T12:26:48Z</time>
      </trkpt>
      <trkpt lat="42.48577" lon="3.08262">
        <ele>445</ele>
        <time>2024-09-23T12:26:52Z</time>
      </trkpt>
      <trkpt lat="42.48575" lon="3.08266">
        <ele>445</ele>
        <time>2024-09-23T12:26:55Z</time>
      </trkpt>
      <trkpt lat="42.48574" lon="3.08269">
        <ele>444</ele>
        <time>2024-09-23T12:26:59Z</time>
      </trkpt>
      <trkpt lat="42.48571" lon="3.08273">
        <ele>445</ele>
        <time>2024-09-23T12:27:02Z</time>
      </trkpt>
      <trkpt lat="42.4857" lon="3.08276">
        <ele>446</ele>
        <time>2024-09-23T12:27:04Z</time>
      </trkpt>
      <trkpt lat="42.48567" lon="3.0828">
        <ele>447</ele>
        <time>2024-09-23T12:27:07Z</time>
      </trkpt>
      <trkpt lat="42.48566" lon="3.08284">
        <ele>447</ele>
        <time>2024-09-23T12:27:10Z</time>
      </trkpt>
      <trkpt lat="42.48564" lon="3.08289">
        <ele>448</ele>
        <time>2024-09-23T12:27:14Z</time>
      </trkpt>
      <trkpt lat="42.48563" lon="3.08292">
        <ele>448</ele>
        <time>2024-09-23T12:27:17Z</time>
      </trkpt>
      <trkpt lat="42.48561" lon="3.08296">
        <ele>449</ele>
        <time>2024-09-23T12:27:19Z</time>
      </trkpt>
      <trkpt lat="42.48559" lon="3.08298">
        <ele>449</ele>
        <time>2024-09-23T12:27:23Z</time>
      </trkpt>
      <trkpt lat="42.48556" lon="3.08301">
        <ele>449</ele>
        <time>2024-09-23T12:27:25Z</time>
      </trkpt>
      <trkpt lat="42.48553" lon="3.08303">
        <ele>446</ele>
        <time>2024-09-23T12:27:37Z</time>
      </trkpt>
      <trkpt lat="42.48551" lon="3.08304">
        <ele>448</ele>
        <time>2024-09-23T12:27:43Z</time>
      </trkpt>
      <trkpt lat="42.48548" lon="3.08307">
        <ele>445</ele>
        <time>2024-09-23T12:28:05Z</time>
      </trkpt>
      <trkpt lat="42.48546" lon="3.0831">
        <ele>445</ele>
        <time>2024-09-23T12:28:08Z</time>
      </trkpt>
      <trkpt lat="42.48543" lon="3.08312">
        <ele>446</ele>
        <time>2024-09-23T12:28:11Z</time>
      </trkpt>
      <trkpt lat="42.4854" lon="3.08314">
        <ele>447</ele>
        <time>2024-09-23T12:28:13Z</time>
      </trkpt>
      <trkpt lat="42.48537" lon="3.08316">
        <ele>447</ele>
        <time>2024-09-23T12:28:16Z</time>
      </trkpt>
      <trkpt lat="42.48533" lon="3.08318">
        <ele>448</ele>
        <time>2024-09-23T12:28:19Z</time>
      </trkpt>
      <trkpt lat="42.4853" lon="3.08321">
        <ele>448</ele>
        <time>2024-09-23T12:28:22Z</time>
      </trkpt>
      <trkpt lat="42.48527" lon="3.08323">
        <ele>448</ele>
        <time>2024-09-23T12:28:25Z</time>
      </trkpt>
      <trkpt lat="42.48525" lon="3.08324">
        <ele>448</ele>
        <time>2024-09-23T12:28:27Z</time>
      </trkpt>
      <trkpt lat="42.48522" lon="3.08326">
        <ele>448</ele>
        <time>2024-09-23T12:28:30Z</time>
      </trkpt>
      <trkpt lat="42.48518" lon="3.08328">
        <ele>448</ele>
        <time>2024-09-23T12:28:33Z</time>
      </trkpt>
      <trkpt lat="42.48515" lon="3.0833">
        <ele>447</ele>
        <time>2024-09-23T12:28:35Z</time>
      </trkpt>
      <trkpt lat="42.48512" lon="3.08333">
        <ele>447</ele>
        <time>2024-09-23T12:28:38Z</time>
      </trkpt>
      <trkpt lat="42.48509" lon="3.08335">
        <ele>447</ele>
        <time>2024-09-23T12:28:41Z</time>
      </trkpt>
      <trkpt lat="42.48506" lon="3.08337">
        <ele>447</ele>
        <time>2024-09-23T12:28:44Z</time>
      </trkpt>
      <trkpt lat="42.48502" lon="3.08339">
        <ele>447</ele>
        <time>2024-09-23T12:28:47Z</time>
      </trkpt>
      <trkpt lat="42.485" lon="3.08341">
        <ele>446</ele>
        <time>2024-09-23T12:28:50Z</time>
      </trkpt>
      <trkpt lat="42.48496" lon="3.08344">
        <ele>447</ele>
        <time>2024-09-23T12:28:53Z</time>
      </trkpt>
      <trkpt lat="42.48493" lon="3.08347">
        <ele>446</ele>
        <time>2024-09-23T12:28:56Z</time>
      </trkpt>
      <trkpt lat="42.48491" lon="3.0835">
        <ele>445</ele>
        <time>2024-09-23T12:28:58Z</time>
      </trkpt>
      <trkpt lat="42.4849" lon="3.08354">
        <ele>445</ele>
        <time>2024-09-23T12:29:00Z</time>
      </trkpt>
      <trkpt lat="42.48488" lon="3.08357">
        <ele>444</ele>
        <time>2024-09-23T12:29:02Z</time>
      </trkpt>
      <trkpt lat="42.48486" lon="3.0836">
        <ele>444</ele>
        <time>2024-09-23T12:29:05Z</time>
      </trkpt>
      <trkpt lat="42.48485" lon="3.08364">
        <ele>444</ele>
        <time>2024-09-23T12:29:08Z</time>
      </trkpt>
      <trkpt lat="42.48484" lon="3.08368">
        <ele>444</ele>
        <time>2024-09-23T12:29:11Z</time>
      </trkpt>
      <trkpt lat="42.48482" lon="3.08373">
        <ele>444</ele>
        <time>2024-09-23T12:29:14Z</time>
      </trkpt>
      <trkpt lat="42.4848" lon="3.08377">
        <ele>444</ele>
        <time>2024-09-23T12:29:17Z</time>
      </trkpt>
      <trkpt lat="42.48478" lon="3.08381">
        <ele>442</ele>
        <time>2024-09-23T12:29:20Z</time>
      </trkpt>
      <trkpt lat="42.48476" lon="3.08385">
        <ele>443</ele>
        <time>2024-09-23T12:29:23Z</time>
      </trkpt>
      <trkpt lat="42.48474" lon="3.08389">
        <ele>442</ele>
        <time>2024-09-23T12:29:26Z</time>
      </trkpt>
      <trkpt lat="42.48472" lon="3.08393">
        <ele>442</ele>
        <time>2024-09-23T12:29:29Z</time>
      </trkpt>
      <trkpt lat="42.4847" lon="3.08397">
        <ele>442</ele>
        <time>2024-09-23T12:29:32Z</time>
      </trkpt>
      <trkpt lat="42.48467" lon="3.08399">
        <ele>440</ele>
        <time>2024-09-23T12:29:37Z</time>
      </trkpt>
      <trkpt lat="42.48465" lon="3.08401">
        <ele>440</ele>
        <time>2024-09-23T12:29:39Z</time>
      </trkpt>
      <trkpt lat="42.48462" lon="3.08404">
        <ele>440</ele>
        <time>2024-09-23T12:29:43Z</time>
      </trkpt>
      <trkpt lat="42.4846" lon="3.08407">
        <ele>439</ele>
        <time>2024-09-23T12:29:46Z</time>
      </trkpt>
      <trkpt lat="42.48458" lon="3.0841">
        <ele>438</ele>
        <time>2024-09-23T12:29:50Z</time>
      </trkpt>
      <trkpt lat="42.48457" lon="3.08413">
        <ele>435</ele>
        <time>2024-09-23T12:30:31Z</time>
      </trkpt>
      <trkpt lat="42.48455" lon="3.08416">
        <ele>434</ele>
        <time>2024-09-23T12:30:35Z</time>
      </trkpt>
      <trkpt lat="42.48453" lon="3.08417">
        <ele>434</ele>
        <time>2024-09-23T12:30:38Z</time>
      </trkpt>
      <trkpt lat="42.4845" lon="3.08417">
        <ele>434</ele>
        <time>2024-09-23T12:30:40Z</time>
      </trkpt>
      <trkpt lat="42.48449" lon="3.0842">
        <ele>432</ele>
        <time>2024-09-23T12:30:44Z</time>
      </trkpt>
      <trkpt lat="42.48447" lon="3.08422">
        <ele>432</ele>
        <time>2024-09-23T12:30:47Z</time>
      </trkpt>
      <trkpt lat="42.48444" lon="3.08425">
        <ele>431</ele>
        <time>2024-09-23T12:30:51Z</time>
      </trkpt>
      <trkpt lat="42.48443" lon="3.08429">
        <ele>430</ele>
        <time>2024-09-23T12:30:55Z</time>
      </trkpt>
      <trkpt lat="42.48441" lon="3.08431">
        <ele>428</ele>
        <time>2024-09-23T12:30:59Z</time>
      </trkpt>
      <trkpt lat="42.48438" lon="3.08434">
        <ele>428</ele>
        <time>2024-09-23T12:31:02Z</time>
      </trkpt>
      <trkpt lat="42.48437" lon="3.08437">
        <ele>427</ele>
        <time>2024-09-23T12:31:06Z</time>
      </trkpt>
      <trkpt lat="42.48435" lon="3.08441">
        <ele>425</ele>
        <time>2024-09-23T12:31:12Z</time>
      </trkpt>
      <trkpt lat="42.48434" lon="3.08444">
        <ele>424</ele>
        <time>2024-09-23T12:31:19Z</time>
      </trkpt>
      <trkpt lat="42.48432" lon="3.08446">
        <ele>422</ele>
        <time>2024-09-23T12:31:24Z</time>
      </trkpt>
      <trkpt lat="42.48429" lon="3.08447">
        <ele>420</ele>
        <time>2024-09-23T12:31:29Z</time>
      </trkpt>
      <trkpt lat="42.48427" lon="3.08449">
        <ele>419</ele>
        <time>2024-09-23T12:31:33Z</time>
      </trkpt>
      <trkpt lat="42.48423" lon="3.0845">
        <ele>416</ele>
        <time>2024-09-23T12:32:05Z</time>
      </trkpt>
      <trkpt lat="42.48421" lon="3.08452">
        <ele>416</ele>
        <time>2024-09-23T12:32:09Z</time>
      </trkpt>
      <trkpt lat="42.48418" lon="3.08455">
        <ele>414</ele>
        <time>2024-09-23T12:32:15Z</time>
      </trkpt>
      <trkpt lat="42.48416" lon="3.08458">
        <ele>413</ele>
        <time>2024-09-23T12:32:17Z</time>
      </trkpt>
      <trkpt lat="42.48414" lon="3.08459">
        <ele>410</ele>
        <time>2024-09-23T12:32:22Z</time>
      </trkpt>
      <trkpt lat="42.4841" lon="3.0846">
        <ele>407</ele>
        <time>2024-09-23T12:32:28Z</time>
      </trkpt>
      <trkpt lat="42.48408" lon="3.08463">
        <ele>407</ele>
        <time>2024-09-23T12:32:32Z</time>
      </trkpt>
      <trkpt lat="42.48405" lon="3.08465">
        <ele>405</ele>
        <time>2024-09-23T12:32:36Z</time>
      </trkpt>
      <trkpt lat="42.48402" lon="3.08467">
        <ele>405</ele>
        <time>2024-09-23T12:32:40Z</time>
      </trkpt>
      <trkpt lat="42.48399" lon="3.08468">
        <ele>403</ele>
        <time>2024-09-23T12:32:44Z</time>
      </trkpt>
      <trkpt lat="42.48396" lon="3.08469">
        <ele>403</ele>
        <time>2024-09-23T12:32:46Z</time>
      </trkpt>
      <trkpt lat="42.48393" lon="3.0847">
        <ele>401</ele>
        <time>2024-09-23T12:32:50Z</time>
      </trkpt>
      <trkpt lat="42.48391" lon="3.08473">
        <ele>400</ele>
        <time>2024-09-23T12:32:53Z</time>
      </trkpt>
      <trkpt lat="42.48388" lon="3.08477">
        <ele>400</ele>
        <time>2024-09-23T12:32:56Z</time>
      </trkpt>
      <trkpt lat="42.48386" lon="3.0848">
        <ele>400</ele>
        <time>2024-09-23T12:32:59Z</time>
      </trkpt>
      <trkpt lat="42.48383" lon="3.08483">
        <ele>399</ele>
        <time>2024-09-23T12:33:02Z</time>
      </trkpt>
      <trkpt lat="42.48381" lon="3.08486">
        <ele>398</ele>
        <time>2024-09-23T12:33:05Z</time>
      </trkpt>
      <trkpt lat="42.48378" lon="3.08489">
        <ele>397</ele>
        <time>2024-09-23T12:33:08Z</time>
      </trkpt>
      <trkpt lat="42.48376" lon="3.08493">
        <ele>397</ele>
        <time>2024-09-23T12:33:10Z</time>
      </trkpt>
      <trkpt lat="42.48374" lon="3.08496">
        <ele>396</ele>
        <time>2024-09-23T12:33:13Z</time>
      </trkpt>
      <trkpt lat="42.48372" lon="3.085">
        <ele>396</ele>
        <time>2024-09-23T12:33:16Z</time>
      </trkpt>
      <trkpt lat="42.4837" lon="3.08504">
        <ele>396</ele>
        <time>2024-09-23T12:33:18Z</time>
      </trkpt>
      <trkpt lat="42.48368" lon="3.08508">
        <ele>395</ele>
        <time>2024-09-23T12:33:21Z</time>
      </trkpt>
      <trkpt lat="42.48366" lon="3.08511">
        <ele>395</ele>
        <time>2024-09-23T12:33:24Z</time>
      </trkpt>
      <trkpt lat="42.48364" lon="3.08514">
        <ele>393</ele>
        <time>2024-09-23T12:33:27Z</time>
      </trkpt>
      <trkpt lat="42.48361" lon="3.08517">
        <ele>393</ele>
        <time>2024-09-23T12:33:30Z</time>
      </trkpt>
      <trkpt lat="42.48359" lon="3.08521">
        <ele>393</ele>
        <time>2024-09-23T12:33:33Z</time>
      </trkpt>
      <trkpt lat="42.48357" lon="3.08526">
        <ele>393</ele>
        <time>2024-09-23T12:33:36Z</time>
      </trkpt>
      <trkpt lat="42.48359" lon="3.08524">
        <ele>393</ele>
        <time>2024-09-23T12:33:46Z</time>
      </trkpt>
      <trkpt lat="42.4836" lon="3.08521">
        <ele>393</ele>
        <time>2024-09-23T12:33:48Z</time>
      </trkpt>
      <trkpt lat="42.48363" lon="3.08518">
        <ele>393</ele>
        <time>2024-09-23T12:33:51Z</time>
      </trkpt>
      <trkpt lat="42.48364" lon="3.08515">
        <ele>394</ele>
        <time>2024-09-23T12:33:55Z</time>
      </trkpt>
      <trkpt lat="42.48363" lon="3.08516">
        <ele>394</ele>
        <time>2024-09-23T12:34:36Z</time>
      </trkpt>
      <trkpt lat="42.48362" lon="3.08519">
        <ele>393</ele>
        <time>2024-09-23T12:34:38Z</time>
      </trkpt>
      <trkpt lat="42.4836" lon="3.08522">
        <ele>394</ele>
        <time>2024-09-23T12:34:40Z</time>
      </trkpt>
      <trkpt lat="42.48359" lon="3.08525">
        <ele>394</ele>
        <time>2024-09-23T12:34:43Z</time>
      </trkpt>
      <trkpt lat="42.4836" lon="3.08527">
        <ele>393</ele>
        <time>2024-09-23T12:34:47Z</time>
      </trkpt>
      <trkpt lat="42.48361" lon="3.08531">
        <ele>392</ele>
        <time>2024-09-23T12:34:50Z</time>
      </trkpt>
      <trkpt lat="42.48362" lon="3.08535">
        <ele>391</ele>
        <time>2024-09-23T12:34:53Z</time>
      </trkpt>
      <trkpt lat="42.48361" lon="3.0854">
        <ele>391</ele>
        <time>2024-09-23T12:34:56Z</time>
      </trkpt>
      <trkpt lat="42.4836" lon="3.08545">
        <ele>391</ele>
        <time>2024-09-23T12:34:59Z</time>
      </trkpt>
      <trkpt lat="42.48359" lon="3.08549">
        <ele>390</ele>
        <time>2024-09-23T12:35:01Z</time>
      </trkpt>
      <trkpt lat="42.48358" lon="3.08553">
        <ele>390</ele>
        <time>2024-09-23T12:35:03Z</time>
      </trkpt>
      <trkpt lat="42.48357" lon="3.08557">
        <ele>389</ele>
        <time>2024-09-23T12:35:06Z</time>
      </trkpt>
      <trkpt lat="42.48355" lon="3.08561">
        <ele>389</ele>
        <time>2024-09-23T12:35:08Z</time>
      </trkpt>
      <trkpt lat="42.48355" lon="3.08566">
        <ele>388</ele>
        <time>2024-09-23T12:35:11Z</time>
      </trkpt>
      <trkpt lat="42.48354" lon="3.0857">
        <ele>389</ele>
        <time>2024-09-23T12:35:13Z</time>
      </trkpt>
      <trkpt lat="42.48354" lon="3.08574">
        <ele>389</ele>
        <time>2024-09-23T12:35:15Z</time>
      </trkpt>
      <trkpt lat="42.48353" lon="3.08577">
        <ele>387</ele>
        <time>2024-09-23T12:35:17Z</time>
      </trkpt>
      <trkpt lat="42.48354" lon="3.08582">
        <ele>387</ele>
        <time>2024-09-23T12:35:20Z</time>
      </trkpt>
      <trkpt lat="42.48353" lon="3.08586">
        <ele>387</ele>
        <time>2024-09-23T12:35:23Z</time>
      </trkpt>
      <trkpt lat="42.48352" lon="3.08591">
        <ele>387</ele>
        <time>2024-09-23T12:35:26Z</time>
      </trkpt>
      <trkpt lat="42.48352" lon="3.08595">
        <ele>386</ele>
        <time>2024-09-23T12:35:30Z</time>
      </trkpt>
      <trkpt lat="42.4835" lon="3.08599">
        <ele>386</ele>
        <time>2024-09-23T12:35:33Z</time>
      </trkpt>
      <trkpt lat="42.48349" lon="3.08604">
        <ele>386</ele>
        <time>2024-09-23T12:35:36Z</time>
      </trkpt>
      <trkpt lat="42.48351" lon="3.08605">
        <ele>386</ele>
        <time>2024-09-23T12:35:40Z</time>
      </trkpt>
      <trkpt lat="42.48353" lon="3.08603">
        <ele>385</ele>
        <time>2024-09-23T12:35:42Z</time>
      </trkpt>
      <trkpt lat="42.48353" lon="3.08604">
        <ele>382</ele>
        <time>2024-09-23T12:35:50Z</time>
      </trkpt>
      <trkpt lat="42.48354" lon="3.08608">
        <ele>380</ele>
        <time>2024-09-23T12:35:56Z</time>
      </trkpt>
      <trkpt lat="42.48354" lon="3.08612">
        <ele>380</ele>
        <time>2024-09-23T12:35:59Z</time>
      </trkpt>
      <trkpt lat="42.48353" lon="3.08615">
        <ele>380</ele>
        <time>2024-09-23T12:36:02Z</time>
      </trkpt>
      <trkpt lat="42.48353" lon="3.08619">
        <ele>378</ele>
        <time>2024-09-23T12:36:15Z</time>
      </trkpt>
      <trkpt lat="42.48353" lon="3.08623">
        <ele>376</ele>
        <time>2024-09-23T12:36:20Z</time>
      </trkpt>
      <trkpt lat="42.48354" lon="3.08626">
        <ele>375</ele>
        <time>2024-09-23T12:36:23Z</time>
      </trkpt>
      <trkpt lat="42.48355" lon="3.0863">
        <ele>374</ele>
        <time>2024-09-23T12:36:28Z</time>
      </trkpt>
      <trkpt lat="42.48356" lon="3.08634">
        <ele>374</ele>
        <time>2024-09-23T12:36:31Z</time>
      </trkpt>
      <trkpt lat="42.48357" lon="3.08637">
        <ele>374</ele>
        <time>2024-09-23T12:36:40Z</time>
      </trkpt>
      <trkpt lat="42.48357" lon="3.08642">
        <ele>368</ele>
        <time>2024-09-23T12:37:16Z</time>
      </trkpt>
      <trkpt lat="42.48357" lon="3.08646">
        <ele>369</ele>
        <time>2024-09-23T12:37:18Z</time>
      </trkpt>
      <trkpt lat="42.48357" lon="3.0865">
        <ele>369</ele>
        <time>2024-09-23T12:37:21Z</time>
      </trkpt>
      <trkpt lat="42.48356" lon="3.08654">
        <ele>368</ele>
        <time>2024-09-23T12:37:24Z</time>
      </trkpt>
      <trkpt lat="42.48356" lon="3.08658">
        <ele>366</ele>
        <time>2024-09-23T12:37:27Z</time>
      </trkpt>
      <trkpt lat="42.48355" lon="3.08662">
        <ele>366</ele>
        <time>2024-09-23T12:37:30Z</time>
      </trkpt>
      <trkpt lat="42.48353" lon="3.08666">
        <ele>366</ele>
        <time>2024-09-23T12:37:33Z</time>
      </trkpt>
      <trkpt lat="42.48353" lon="3.08671">
        <ele>365</ele>
        <time>2024-09-23T12:37:37Z</time>
      </trkpt>
      <trkpt lat="42.48353" lon="3.08675">
        <ele>364</ele>
        <time>2024-09-23T12:37:39Z</time>
      </trkpt>
      <trkpt lat="42.48353" lon="3.08679">
        <ele>362</ele>
        <time>2024-09-23T12:37:44Z</time>
      </trkpt>
      <trkpt lat="42.48354" lon="3.08685">
        <ele>364</ele>
        <time>2024-09-23T12:37:48Z</time>
      </trkpt>
      <trkpt lat="42.48352" lon="3.08688">
        <ele>362</ele>
        <time>2024-09-23T12:38:19Z</time>
      </trkpt>
      <trkpt lat="42.48353" lon="3.08688">
        <ele>362</ele>
        <time>2024-09-23T12:38:56Z</time>
      </trkpt>
      <trkpt lat="42.48354" lon="3.08691">
        <ele>358</ele>
        <time>2024-09-23T12:39:05Z</time>
      </trkpt>
      <trkpt lat="42.48356" lon="3.08695">
        <ele>355</ele>
        <time>2024-09-23T12:39:13Z</time>
      </trkpt>
      <trkpt lat="42.48357" lon="3.08698">
        <ele>354</ele>
        <time>2024-09-23T12:39:16Z</time>
      </trkpt>
      <trkpt lat="42.4836" lon="3.08701">
        <ele>354</ele>
        <time>2024-09-23T12:39:21Z</time>
      </trkpt>
      <trkpt lat="42.48363" lon="3.08703">
        <ele>348</ele>
        <time>2024-09-23T12:39:32Z</time>
      </trkpt>
      <trkpt lat="42.48366" lon="3.08704">
        <ele>347</ele>
        <time>2024-09-23T12:39:35Z</time>
      </trkpt>
      <trkpt lat="42.48369" lon="3.08705">
        <ele>345</ele>
        <time>2024-09-23T12:39:39Z</time>
      </trkpt>
      <trkpt lat="42.48372" lon="3.08706">
        <ele>342</ele>
        <time>2024-09-23T12:39:45Z</time>
      </trkpt>
      <trkpt lat="42.48375" lon="3.08707">
        <ele>342</ele>
        <time>2024-09-23T12:39:48Z</time>
      </trkpt>
      <trkpt lat="42.48376" lon="3.08709">
        <ele>345</ele>
        <time>2024-09-23T12:40:05Z</time>
      </trkpt>
      <trkpt lat="42.48374" lon="3.0871">
        <ele>343</ele>
        <time>2024-09-23T12:40:27Z</time>
      </trkpt>
      <trkpt lat="42.48375" lon="3.08709">
        <ele>343</ele>
        <time>2024-09-23T12:40:45Z</time>
      </trkpt>
      <trkpt lat="42.48374" lon="3.08709">
        <ele>342</ele>
        <time>2024-09-23T12:40:55Z</time>
      </trkpt>
      <trkpt lat="42.48375" lon="3.08709">
        <ele>342</ele>
        <time>2024-09-23T12:40:57Z</time>
      </trkpt>
      <trkpt lat="42.48375" lon="3.08712">
        <ele>342</ele>
        <time>2024-09-23T12:41:02Z</time>
      </trkpt>
      <trkpt lat="42.48375" lon="3.08715">
        <ele>342</ele>
        <time>2024-09-23T12:41:16Z</time>
      </trkpt>
      <trkpt lat="42.48375" lon="3.08719">
        <ele>341</ele>
        <time>2024-09-23T12:41:21Z</time>
      </trkpt>
      <trkpt lat="42.48377" lon="3.08722">
        <ele>340</ele>
        <time>2024-09-23T12:41:23Z</time>
      </trkpt>
      <trkpt lat="42.48377" lon="3.08725">
        <ele>340</ele>
        <time>2024-09-23T12:41:31Z</time>
      </trkpt>
      <trkpt lat="42.48378" lon="3.08729">
        <ele>336</ele>
        <time>2024-09-23T12:41:42Z</time>
      </trkpt>
      <trkpt lat="42.48378" lon="3.08733">
        <ele>336</ele>
        <time>2024-09-23T12:41:45Z</time>
      </trkpt>
      <trkpt lat="42.4838" lon="3.08736">
        <ele>334</ele>
        <time>2024-09-23T12:41:50Z</time>
      </trkpt>
      <trkpt lat="42.4838" lon="3.0874">
        <ele>333</ele>
        <time>2024-09-23T12:42:01Z</time>
      </trkpt>
      <trkpt lat="42.48379" lon="3.08744">
        <ele>331</ele>
        <time>2024-09-23T12:42:13Z</time>
      </trkpt>
      <trkpt lat="42.4838" lon="3.08748">
        <ele>330</ele>
        <time>2024-09-23T12:42:17Z</time>
      </trkpt>
      <trkpt lat="42.48381" lon="3.08752">
        <ele>329</ele>
        <time>2024-09-23T12:42:22Z</time>
      </trkpt>
      <trkpt lat="42.48381" lon="3.08756">
        <ele>329</ele>
        <time>2024-09-23T12:42:28Z</time>
      </trkpt>
      <trkpt lat="42.48382" lon="3.0876">
        <ele>327</ele>
        <time>2024-09-23T12:42:34Z</time>
      </trkpt>
      <trkpt lat="42.48384" lon="3.08764">
        <ele>324</ele>
        <time>2024-09-23T12:42:43Z</time>
      </trkpt>
      <trkpt lat="42.48384" lon="3.08769">
        <ele>320</ele>
        <time>2024-09-23T12:42:50Z</time>
      </trkpt>
      <trkpt lat="42.48385" lon="3.08774">
        <ele>319</ele>
        <time>2024-09-23T12:42:53Z</time>
      </trkpt>
      <trkpt lat="42.48385" lon="3.08778">
        <ele>318</ele>
        <time>2024-09-23T12:42:55Z</time>
      </trkpt>
      <trkpt lat="42.48386" lon="3.08783">
        <ele>318</ele>
        <time>2024-09-23T12:42:58Z</time>
      </trkpt>
      <trkpt lat="42.48387" lon="3.08787">
        <ele>311</ele>
        <time>2024-09-23T12:43:42Z</time>
      </trkpt>
      <trkpt lat="42.48387" lon="3.0879">
        <ele>311</ele>
        <time>2024-09-23T12:43:46Z</time>
      </trkpt>
      <trkpt lat="42.4839" lon="3.08793">
        <ele>310</ele>
        <time>2024-09-23T12:43:51Z</time>
      </trkpt>
      <trkpt lat="42.48391" lon="3.08796">
        <ele>308</ele>
        <time>2024-09-23T12:43:59Z</time>
      </trkpt>
      <trkpt lat="42.48394" lon="3.08798">
        <ele>307</ele>
        <time>2024-09-23T12:44:03Z</time>
      </trkpt>
      <trkpt lat="42.48397" lon="3.08801">
        <ele>306</ele>
        <time>2024-09-23T12:44:06Z</time>
      </trkpt>
      <trkpt lat="42.48399" lon="3.08805">
        <ele>304</ele>
        <time>2024-09-23T12:44:09Z</time>
      </trkpt>
      <trkpt lat="42.48399" lon="3.08809">
        <ele>304</ele>
        <time>2024-09-23T12:44:11Z</time>
      </trkpt>
      <trkpt lat="42.48398" lon="3.08813">
        <ele>303</ele>
        <time>2024-09-23T12:44:15Z</time>
      </trkpt>
      <trkpt lat="42.48398" lon="3.08817">
        <ele>302</ele>
        <time>2024-09-23T12:44:18Z</time>
      </trkpt>
      <trkpt lat="42.48398" lon="3.08821">
        <ele>301</ele>
        <time>2024-09-23T12:44:24Z</time>
      </trkpt>
      <trkpt lat="42.484" lon="3.08826">
        <ele>299</ele>
        <time>2024-09-23T12:44:29Z</time>
      </trkpt>
      <trkpt lat="42.48402" lon="3.08829">
        <ele>298</ele>
        <time>2024-09-23T12:44:33Z</time>
      </trkpt>
      <trkpt lat="42.48403" lon="3.08833">
        <ele>296</ele>
        <time>2024-09-23T12:44:38Z</time>
      </trkpt>
      <trkpt lat="42.48403" lon="3.08836">
        <ele>295</ele>
        <time>2024-09-23T12:44:43Z</time>
      </trkpt>
      <trkpt lat="42.48402" lon="3.0884">
        <ele>295</ele>
        <time>2024-09-23T12:44:46Z</time>
      </trkpt>
      <trkpt lat="42.48401" lon="3.08844">
        <ele>295</ele>
        <time>2024-09-23T12:44:51Z</time>
      </trkpt>
      <trkpt lat="42.484" lon="3.08849">
        <ele>296</ele>
        <time>2024-09-23T12:44:58Z</time>
      </trkpt>
      <trkpt lat="42.48398" lon="3.08853">
        <ele>297</ele>
        <time>2024-09-23T12:45:01Z</time>
      </trkpt>
      <trkpt lat="42.48397" lon="3.08857">
        <ele>295</ele>
        <time>2024-09-23T12:45:06Z</time>
      </trkpt>
      <trkpt lat="42.48396" lon="3.08861">
        <ele>293</ele>
        <time>2024-09-23T12:46:08Z</time>
      </trkpt>
      <trkpt lat="42.48395" lon="3.08865">
        <ele>292</ele>
        <time>2024-09-23T12:46:11Z</time>
      </trkpt>
      <trkpt lat="42.48394" lon="3.08869">
        <ele>292</ele>
        <time>2024-09-23T12:46:16Z</time>
      </trkpt>
      <trkpt lat="42.48393" lon="3.08873">
        <ele>291</ele>
        <time>2024-09-23T12:46:19Z</time>
      </trkpt>
      <trkpt lat="42.48392" lon="3.08878">
        <ele>291</ele>
        <time>2024-09-23T12:46:37Z</time>
      </trkpt>
      <trkpt lat="42.48393" lon="3.08881">
        <ele>289</ele>
        <time>2024-09-23T12:46:48Z</time>
      </trkpt>
      <trkpt lat="42.48394" lon="3.08886">
        <ele>289</ele>
        <time>2024-09-23T12:46:58Z</time>
      </trkpt>
      <trkpt lat="42.48395" lon="3.0889">
        <ele>289</ele>
        <time>2024-09-23T12:47:01Z</time>
      </trkpt>
      <trkpt lat="42.48396" lon="3.08895">
        <ele>289</ele>
        <time>2024-09-23T12:47:04Z</time>
      </trkpt>
      <trkpt lat="42.48396" lon="3.08898">
        <ele>289</ele>
        <time>2024-09-23T12:47:06Z</time>
      </trkpt>
      <trkpt lat="42.48396" lon="3.08903">
        <ele>290</ele>
        <time>2024-09-23T12:47:09Z</time>
      </trkpt>
      <trkpt lat="42.48397" lon="3.08907">
        <ele>290</ele>
        <time>2024-09-23T12:47:12Z</time>
      </trkpt>
      <trkpt lat="42.48398" lon="3.08911">
        <ele>290</ele>
        <time>2024-09-23T12:47:14Z</time>
      </trkpt>
      <trkpt lat="42.48399" lon="3.08914">
        <ele>290</ele>
        <time>2024-09-23T12:47:17Z</time>
      </trkpt>
      <trkpt lat="42.484" lon="3.08919">
        <ele>291</ele>
        <time>2024-09-23T12:47:20Z</time>
      </trkpt>
      <trkpt lat="42.48402" lon="3.08923">
        <ele>291</ele>
        <time>2024-09-23T12:47:23Z</time>
      </trkpt>
      <trkpt lat="42.48403" lon="3.08927">
        <ele>291</ele>
        <time>2024-09-23T12:47:25Z</time>
      </trkpt>
      <trkpt lat="42.48403" lon="3.08932">
        <ele>291</ele>
        <time>2024-09-23T12:47:28Z</time>
      </trkpt>
      <trkpt lat="42.48404" lon="3.08936">
        <ele>292</ele>
        <time>2024-09-23T12:47:31Z</time>
      </trkpt>
      <trkpt lat="42.48405" lon="3.0894">
        <ele>292</ele>
        <time>2024-09-23T12:47:34Z</time>
      </trkpt>
      <trkpt lat="42.48405" lon="3.08944">
        <ele>293</ele>
        <time>2024-09-23T12:47:41Z</time>
      </trkpt>
      <trkpt lat="42.48406" lon="3.08948">
        <ele>293</ele>
        <time>2024-09-23T12:47:44Z</time>
      </trkpt>
      <trkpt lat="42.48406" lon="3.08953">
        <ele>293</ele>
        <time>2024-09-23T12:47:48Z</time>
      </trkpt>
      <trkpt lat="42.48407" lon="3.08957">
        <ele>294</ele>
        <time>2024-09-23T12:47:50Z</time>
      </trkpt>
      <trkpt lat="42.48407" lon="3.08961">
        <ele>294</ele>
        <time>2024-09-23T12:47:53Z</time>
      </trkpt>
      <trkpt lat="42.48408" lon="3.08966">
        <ele>293</ele>
        <time>2024-09-23T12:47:58Z</time>
      </trkpt>
      <trkpt lat="42.48408" lon="3.08971">
        <ele>293</ele>
        <time>2024-09-23T12:48:00Z</time>
      </trkpt>
      <trkpt lat="42.48408" lon="3.08975">
        <ele>294</ele>
        <time>2024-09-23T12:48:03Z</time>
      </trkpt>
      <trkpt lat="42.48408" lon="3.08979">
        <ele>294</ele>
        <time>2024-09-23T12:48:05Z</time>
      </trkpt>
      <trkpt lat="42.48408" lon="3.08984">
        <ele>294</ele>
        <time>2024-09-23T12:48:08Z</time>
      </trkpt>
      <trkpt lat="42.48408" lon="3.08989">
        <ele>293</ele>
        <time>2024-09-23T12:48:11Z</time>
      </trkpt>
      <trkpt lat="42.48409" lon="3.08993">
        <ele>294</ele>
        <time>2024-09-23T12:48:13Z</time>
      </trkpt>
      <trkpt lat="42.48408" lon="3.08997">
        <ele>294</ele>
        <time>2024-09-23T12:48:16Z</time>
      </trkpt>
      <trkpt lat="42.48409" lon="3.09003">
        <ele>294</ele>
        <time>2024-09-23T12:48:19Z</time>
      </trkpt>
      <trkpt lat="42.48409" lon="3.09007">
        <ele>294</ele>
        <time>2024-09-23T12:48:21Z</time>
      </trkpt>
      <trkpt lat="42.48408" lon="3.09012">
        <ele>295</ele>
        <time>2024-09-23T12:48:25Z</time>
      </trkpt>
      <trkpt lat="42.48408" lon="3.09017">
        <ele>295</ele>
        <time>2024-09-23T12:48:28Z</time>
      </trkpt>
      <trkpt lat="42.48408" lon="3.09022">
        <ele>295</ele>
        <time>2024-09-23T12:48:31Z</time>
      </trkpt>
      <trkpt lat="42.48408" lon="3.09026">
        <ele>295</ele>
        <time>2024-09-23T12:48:34Z</time>
      </trkpt>
      <trkpt lat="42.48407" lon="3.0903">
        <ele>296</ele>
        <time>2024-09-23T12:48:37Z</time>
      </trkpt>
      <trkpt lat="42.48407" lon="3.09034">
        <ele>296</ele>
        <time>2024-09-23T12:48:39Z</time>
      </trkpt>
      <trkpt lat="42.48406" lon="3.09039">
        <ele>295</ele>
        <time>2024-09-23T12:48:42Z</time>
      </trkpt>
      <trkpt lat="42.48405" lon="3.09043">
        <ele>294</ele>
        <time>2024-09-23T12:48:49Z</time>
      </trkpt>
      <trkpt lat="42.48405" lon="3.09047">
        <ele>294</ele>
        <time>2024-09-23T12:48:52Z</time>
      </trkpt>
      <trkpt lat="42.48406" lon="3.09052">
        <ele>293</ele>
        <time>2024-09-23T12:48:57Z</time>
      </trkpt>
      <trkpt lat="42.48406" lon="3.09056">
        <ele>294</ele>
        <time>2024-09-23T12:49:00Z</time>
      </trkpt>
      <trkpt lat="42.48406" lon="3.0906">
        <ele>294</ele>
        <time>2024-09-23T12:49:02Z</time>
      </trkpt>
      <trkpt lat="42.48405" lon="3.09064">
        <ele>294</ele>
        <time>2024-09-23T12:49:05Z</time>
      </trkpt>
      <trkpt lat="42.48405" lon="3.09068">
        <ele>294</ele>
        <time>2024-09-23T12:49:07Z</time>
      </trkpt>
      <trkpt lat="42.48406" lon="3.09073">
        <ele>294</ele>
        <time>2024-09-23T12:49:09Z</time>
      </trkpt>
      <trkpt lat="42.48405" lon="3.09077">
        <ele>294</ele>
        <time>2024-09-23T12:49:12Z</time>
      </trkpt>
      <trkpt lat="42.48405" lon="3.09082">
        <ele>293</ele>
        <time>2024-09-23T12:49:15Z</time>
      </trkpt>
      <trkpt lat="42.48404" lon="3.09086">
        <ele>293</ele>
        <time>2024-09-23T12:49:18Z</time>
      </trkpt>
      <trkpt lat="42.48404" lon="3.09091">
        <ele>293</ele>
        <time>2024-09-23T12:49:21Z</time>
      </trkpt>
      <trkpt lat="42.48403" lon="3.09096">
        <ele>292</ele>
        <time>2024-09-23T12:49:24Z</time>
      </trkpt>
      <trkpt lat="42.48403" lon="3.09101">
        <ele>291</ele>
        <time>2024-09-23T12:49:27Z</time>
      </trkpt>
      <trkpt lat="42.48403" lon="3.09105">
        <ele>291</ele>
        <time>2024-09-23T12:49:30Z</time>
      </trkpt>
      <trkpt lat="42.48402" lon="3.09109">
        <ele>290</ele>
        <time>2024-09-23T12:49:32Z</time>
      </trkpt>
      <trkpt lat="42.48402" lon="3.09113">
        <ele>290</ele>
        <time>2024-09-23T12:49:35Z</time>
      </trkpt>
      <trkpt lat="42.484" lon="3.09117">
        <ele>291</ele>
        <time>2024-09-23T12:49:38Z</time>
      </trkpt>
      <trkpt lat="42.48399" lon="3.09121">
        <ele>290</ele>
        <time>2024-09-23T12:49:42Z</time>
      </trkpt>
      <trkpt lat="42.48398" lon="3.09125">
        <ele>290</ele>
        <time>2024-09-23T12:49:44Z</time>
      </trkpt>
      <trkpt lat="42.48398" lon="3.09129">
        <ele>290</ele>
        <time>2024-09-23T12:49:52Z</time>
      </trkpt>
      <trkpt lat="42.48397" lon="3.09133">
        <ele>290</ele>
        <time>2024-09-23T12:49:55Z</time>
      </trkpt>
      <trkpt lat="42.48397" lon="3.09138">
        <ele>290</ele>
        <time>2024-09-23T12:49:58Z</time>
      </trkpt>
      <trkpt lat="42.48396" lon="3.09142">
        <ele>289</ele>
        <time>2024-09-23T12:50:01Z</time>
      </trkpt>
      <trkpt lat="42.48394" lon="3.09146">
        <ele>289</ele>
        <time>2024-09-23T12:50:08Z</time>
      </trkpt>
      <trkpt lat="42.48394" lon="3.09151">
        <ele>289</ele>
        <time>2024-09-23T12:50:11Z</time>
      </trkpt>
      <trkpt lat="42.48392" lon="3.09155">
        <ele>288</ele>
        <time>2024-09-23T12:50:14Z</time>
      </trkpt>
      <trkpt lat="42.48391" lon="3.09159">
        <ele>288</ele>
        <time>2024-09-23T12:50:17Z</time>
      </trkpt>
      <trkpt lat="42.4839" lon="3.09164">
        <ele>286</ele>
        <time>2024-09-23T12:50:23Z</time>
      </trkpt>
      <trkpt lat="42.48388" lon="3.09167">
        <ele>286</ele>
        <time>2024-09-23T12:50:25Z</time>
      </trkpt>
      <trkpt lat="42.48387" lon="3.09171">
        <ele>285</ele>
        <time>2024-09-23T12:50:31Z</time>
      </trkpt>
      <trkpt lat="42.48385" lon="3.09174">
        <ele>286</ele>
        <time>2024-09-23T12:50:35Z</time>
      </trkpt>
      <trkpt lat="42.48383" lon="3.09178">
        <ele>286</ele>
        <time>2024-09-23T12:50:38Z</time>
      </trkpt>
      <trkpt lat="42.48382" lon="3.09181">
        <ele>285</ele>
        <time>2024-09-23T12:50:41Z</time>
      </trkpt>
      <trkpt lat="42.48379" lon="3.09183">
        <ele>285</ele>
        <time>2024-09-23T12:50:44Z</time>
      </trkpt>
      <trkpt lat="42.48376" lon="3.09185">
        <ele>286</ele>
        <time>2024-09-23T12:50:47Z</time>
      </trkpt>
      <trkpt lat="42.48374" lon="3.09187">
        <ele>285</ele>
        <time>2024-09-23T12:50:50Z</time>
      </trkpt>
      <trkpt lat="42.48371" lon="3.09188">
        <ele>284</ele>
        <time>2024-09-23T12:50:54Z</time>
      </trkpt>
      <trkpt lat="42.48367" lon="3.09188">
        <ele>284</ele>
        <time>2024-09-23T12:50:57Z</time>
      </trkpt>
      <trkpt lat="42.48365" lon="3.09188">
        <ele>283</ele>
        <time>2024-09-23T12:50:59Z</time>
      </trkpt>
      <trkpt lat="42.48361" lon="3.09188">
        <ele>283</ele>
        <time>2024-09-23T12:51:02Z</time>
      </trkpt>
      <trkpt lat="42.48358" lon="3.09187">
        <ele>282</ele>
        <time>2024-09-23T12:51:04Z</time>
      </trkpt>
      <trkpt lat="42.48355" lon="3.09187">
        <ele>282</ele>
        <time>2024-09-23T12:51:08Z</time>
      </trkpt>
      <trkpt lat="42.48352" lon="3.09187">
        <ele>282</ele>
        <time>2024-09-23T12:51:11Z</time>
      </trkpt>
      <trkpt lat="42.48348" lon="3.09187">
        <ele>280</ele>
        <time>2024-09-23T12:51:14Z</time>
      </trkpt>
      <trkpt lat="42.48345" lon="3.09187">
        <ele>280</ele>
        <time>2024-09-23T12:51:17Z</time>
      </trkpt>
      <trkpt lat="42.48342" lon="3.09187">
        <ele>281</ele>
        <time>2024-09-23T12:51:20Z</time>
      </trkpt>
      <trkpt lat="42.48339" lon="3.09187">
        <ele>281</ele>
        <time>2024-09-23T12:51:22Z</time>
      </trkpt>
      <trkpt lat="42.48335" lon="3.09187">
        <ele>280</ele>
        <time>2024-09-23T12:51:25Z</time>
      </trkpt>
      <trkpt lat="42.48332" lon="3.09188">
        <ele>279</ele>
        <time>2024-09-23T12:51:38Z</time>
      </trkpt>
      <trkpt lat="42.48329" lon="3.09189">
        <ele>279</ele>
        <time>2024-09-23T12:51:40Z</time>
      </trkpt>
      <trkpt lat="42.48326" lon="3.09191">
        <ele>280</ele>
        <time>2024-09-23T12:51:42Z</time>
      </trkpt>
      <trkpt lat="42.48323" lon="3.09191">
        <ele>279</ele>
        <time>2024-09-23T12:51:44Z</time>
      </trkpt>
      <trkpt lat="42.4832" lon="3.09192">
        <ele>278</ele>
        <time>2024-09-23T12:51:47Z</time>
      </trkpt>
      <trkpt lat="42.48316" lon="3.09193">
        <ele>278</ele>
        <time>2024-09-23T12:51:50Z</time>
      </trkpt>
      <trkpt lat="42.48313" lon="3.09194">
        <ele>279</ele>
        <time>2024-09-23T12:51:53Z</time>
      </trkpt>
      <trkpt lat="42.48309" lon="3.09195">
        <ele>278</ele>
        <time>2024-09-23T12:51:55Z</time>
      </trkpt>
      <trkpt lat="42.48307" lon="3.09197">
        <ele>278</ele>
        <time>2024-09-23T12:51:57Z</time>
      </trkpt>
      <trkpt lat="42.48304" lon="3.09199">
        <ele>279</ele>
        <time>2024-09-23T12:51:59Z</time>
      </trkpt>
      <trkpt lat="42.48302" lon="3.09201">
        <ele>278</ele>
        <time>2024-09-23T12:52:01Z</time>
      </trkpt>
      <trkpt lat="42.48299" lon="3.09203">
        <ele>277</ele>
        <time>2024-09-23T12:52:03Z</time>
      </trkpt>
      <trkpt lat="42.48297" lon="3.09206">
        <ele>277</ele>
        <time>2024-09-23T12:52:06Z</time>
      </trkpt>
      <trkpt lat="42.48295" lon="3.09209">
        <ele>278</ele>
        <time>2024-09-23T12:52:10Z</time>
      </trkpt>
      <trkpt lat="42.48293" lon="3.09213">
        <ele>277</ele>
        <time>2024-09-23T12:52:13Z</time>
      </trkpt>
      <trkpt lat="42.48292" lon="3.09218">
        <ele>277</ele>
        <time>2024-09-23T12:52:16Z</time>
      </trkpt>
      <trkpt lat="42.48291" lon="3.09222">
        <ele>277</ele>
        <time>2024-09-23T12:52:18Z</time>
      </trkpt>
      <trkpt lat="42.48291" lon="3.09226">
        <ele>277</ele>
        <time>2024-09-23T12:52:20Z</time>
      </trkpt>
      <trkpt lat="42.48291" lon="3.09231">
        <ele>277</ele>
        <time>2024-09-23T12:52:23Z</time>
      </trkpt>
      <trkpt lat="42.48292" lon="3.09235">
        <ele>277</ele>
        <time>2024-09-23T12:52:25Z</time>
      </trkpt>
      <trkpt lat="42.48292" lon="3.09239">
        <ele>276</ele>
        <time>2024-09-23T12:52:27Z</time>
      </trkpt>
      <trkpt lat="42.48291" lon="3.09244">
        <ele>275</ele>
        <time>2024-09-23T12:52:30Z</time>
      </trkpt>
      <trkpt lat="42.48291" lon="3.09248">
        <ele>275</ele>
        <time>2024-09-23T12:52:33Z</time>
      </trkpt>
      <trkpt lat="42.48291" lon="3.09253">
        <ele>274</ele>
        <time>2024-09-23T12:52:36Z</time>
      </trkpt>
      <trkpt lat="42.48291" lon="3.09258">
        <ele>274</ele>
        <time>2024-09-23T12:52:39Z</time>
      </trkpt>
      <trkpt lat="42.4829" lon="3.09262">
        <ele>274</ele>
        <time>2024-09-23T12:52:52Z</time>
      </trkpt>
      <trkpt lat="42.4829" lon="3.09266">
        <ele>274</ele>
        <time>2024-09-23T12:52:53Z</time>
      </trkpt>
      <trkpt lat="42.48289" lon="3.0927">
        <ele>273</ele>
        <time>2024-09-23T12:52:54Z</time>
      </trkpt>
      <trkpt lat="42.48288" lon="3.09274">
        <ele>273</ele>
        <time>2024-09-23T12:52:58Z</time>
      </trkpt>
      <trkpt lat="42.48288" lon="3.09278">
        <ele>273</ele>
        <time>2024-09-23T12:53:01Z</time>
      </trkpt>
      <trkpt lat="42.48287" lon="3.09282">
        <ele>272</ele>
        <time>2024-09-23T12:53:04Z</time>
      </trkpt>
      <trkpt lat="42.48286" lon="3.09287">
        <ele>272</ele>
        <time>2024-09-23T12:53:06Z</time>
      </trkpt>
      <trkpt lat="42.48285" lon="3.09291">
        <ele>272</ele>
        <time>2024-09-23T12:53:09Z</time>
      </trkpt>
      <trkpt lat="42.48284" lon="3.09294">
        <ele>273</ele>
        <time>2024-09-23T12:53:12Z</time>
      </trkpt>
      <trkpt lat="42.48283" lon="3.09298">
        <ele>273</ele>
        <time>2024-09-23T12:53:15Z</time>
      </trkpt>
      <trkpt lat="42.48282" lon="3.09302">
        <ele>273</ele>
        <time>2024-09-23T12:53:18Z</time>
      </trkpt>
      <trkpt lat="42.48281" lon="3.09306">
        <ele>273</ele>
        <time>2024-09-23T12:53:21Z</time>
      </trkpt>
      <trkpt lat="42.48279" lon="3.0931">
        <ele>273</ele>
        <time>2024-09-23T12:53:24Z</time>
      </trkpt>
      <trkpt lat="42.48279" lon="3.09314">
        <ele>273</ele>
        <time>2024-09-23T12:53:27Z</time>
      </trkpt>
      <trkpt lat="42.48278" lon="3.09318">
        <ele>273</ele>
        <time>2024-09-23T12:53:29Z</time>
      </trkpt>
      <trkpt lat="42.48277" lon="3.09322">
        <ele>274</ele>
        <time>2024-09-23T12:53:31Z</time>
      </trkpt>
      <trkpt lat="42.48276" lon="3.09325">
        <ele>272</ele>
        <time>2024-09-23T12:53:34Z</time>
      </trkpt>
      <trkpt lat="42.48275" lon="3.0933">
        <ele>273</ele>
        <time>2024-09-23T12:53:37Z</time>
      </trkpt>
      <trkpt lat="42.48274" lon="3.09334">
        <ele>272</ele>
        <time>2024-09-23T12:53:40Z</time>
      </trkpt>
      <trkpt lat="42.48273" lon="3.09339">
        <ele>271</ele>
        <time>2024-09-23T12:53:44Z</time>
      </trkpt>
      <trkpt lat="42.48272" lon="3.09343">
        <ele>271</ele>
        <time>2024-09-23T12:53:46Z</time>
      </trkpt>
      <trkpt lat="42.4827" lon="3.09346">
        <ele>270</ele>
        <time>2024-09-23T12:53:48Z</time>
      </trkpt>
      <trkpt lat="42.48269" lon="3.0935">
        <ele>270</ele>
        <time>2024-09-23T12:53:51Z</time>
      </trkpt>
      <trkpt lat="42.48267" lon="3.09354">
        <ele>270</ele>
        <time>2024-09-23T12:53:53Z</time>
      </trkpt>
      <trkpt lat="42.48266" lon="3.09357">
        <ele>269</ele>
        <time>2024-09-23T12:53:55Z</time>
      </trkpt>
      <trkpt lat="42.48264" lon="3.09362">
        <ele>269</ele>
        <time>2024-09-23T12:53:58Z</time>
      </trkpt>
      <trkpt lat="42.48262" lon="3.09366">
        <ele>268</ele>
        <time>2024-09-23T12:54:01Z</time>
      </trkpt>
      <trkpt lat="42.48261" lon="3.0937">
        <ele>269</ele>
        <time>2024-09-23T12:54:03Z</time>
      </trkpt>
      <trkpt lat="42.4826" lon="3.09375">
        <ele>269</ele>
        <time>2024-09-23T12:54:06Z</time>
      </trkpt>
      <trkpt lat="42.48258" lon="3.09378">
        <ele>270</ele>
        <time>2024-09-23T12:54:11Z</time>
      </trkpt>
      <trkpt lat="42.48256" lon="3.09382">
        <ele>269</ele>
        <time>2024-09-23T12:54:24Z</time>
      </trkpt>
      <trkpt lat="42.48255" lon="3.09386">
        <ele>269</ele>
        <time>2024-09-23T12:54:26Z</time>
      </trkpt>
      <trkpt lat="42.48254" lon="3.0939">
        <ele>269</ele>
        <time>2024-09-23T12:54:28Z</time>
      </trkpt>
      <trkpt lat="42.48253" lon="3.09394">
        <ele>269</ele>
        <time>2024-09-23T12:54:31Z</time>
      </trkpt>
      <trkpt lat="42.48253" lon="3.09399">
        <ele>269</ele>
        <time>2024-09-23T12:54:33Z</time>
      </trkpt>
      <trkpt lat="42.48254" lon="3.09404">
        <ele>269</ele>
        <time>2024-09-23T12:54:36Z</time>
      </trkpt>
      <trkpt lat="42.48254" lon="3.09408">
        <ele>269</ele>
        <time>2024-09-23T12:54:38Z</time>
      </trkpt>
      <trkpt lat="42.48255" lon="3.09411">
        <ele>270</ele>
        <time>2024-09-23T12:54:40Z</time>
      </trkpt>
      <trkpt lat="42.48256" lon="3.09415">
        <ele>269</ele>
        <time>2024-09-23T12:54:42Z</time>
      </trkpt>
      <trkpt lat="42.48258" lon="3.09419">
        <ele>269</ele>
        <time>2024-09-23T12:54:45Z</time>
      </trkpt>
      <trkpt lat="42.48259" lon="3.09423">
        <ele>268</ele>
        <time>2024-09-23T12:54:48Z</time>
      </trkpt>
      <trkpt lat="42.48261" lon="3.09428">
        <ele>268</ele>
        <time>2024-09-23T12:54:51Z</time>
      </trkpt>
      <trkpt lat="42.48263" lon="3.09432">
        <ele>267</ele>
        <time>2024-09-23T12:54:54Z</time>
      </trkpt>
      <trkpt lat="42.48265" lon="3.09436">
        <ele>267</ele>
        <time>2024-09-23T12:54:57Z</time>
      </trkpt>
      <trkpt lat="42.48266" lon="3.0944">
        <ele>267</ele>
        <time>2024-09-23T12:54:59Z</time>
      </trkpt>
      <trkpt lat="42.48268" lon="3.09444">
        <ele>266</ele>
        <time>2024-09-23T12:55:02Z</time>
      </trkpt>
      <trkpt lat="42.4827" lon="3.09449">
        <ele>266</ele>
        <time>2024-09-23T12:55:05Z</time>
      </trkpt>
      <trkpt lat="42.48271" lon="3.09453">
        <ele>266</ele>
        <time>2024-09-23T12:55:08Z</time>
      </trkpt>
      <trkpt lat="42.48272" lon="3.09458">
        <ele>266</ele>
        <time>2024-09-23T12:55:11Z</time>
      </trkpt>
      <trkpt lat="42.48274" lon="3.09462">
        <ele>267</ele>
        <time>2024-09-23T12:55:14Z</time>
      </trkpt>
      <trkpt lat="42.48275" lon="3.09467">
        <ele>266</ele>
        <time>2024-09-23T12:55:18Z</time>
      </trkpt>
      <trkpt lat="42.48275" lon="3.09471">
        <ele>268</ele>
        <time>2024-09-23T12:55:22Z</time>
      </trkpt>
      <trkpt lat="42.48276" lon="3.09475">
        <ele>267</ele>
        <time>2024-09-23T12:55:25Z</time>
      </trkpt>
      <trkpt lat="42.48277" lon="3.09479">
        <ele>266</ele>
        <time>2024-09-23T12:55:28Z</time>
      </trkpt>
      <trkpt lat="42.48278" lon="3.09483">
        <ele>266</ele>
        <time>2024-09-23T12:55:31Z</time>
      </trkpt>
      <trkpt lat="42.4828" lon="3.09488">
        <ele>267</ele>
        <time>2024-09-23T12:55:34Z</time>
      </trkpt>
      <trkpt lat="42.48281" lon="3.09493">
        <ele>267</ele>
        <time>2024-09-23T12:55:37Z</time>
      </trkpt>
      <trkpt lat="42.48283" lon="3.09497">
        <ele>266</ele>
        <time>2024-09-23T12:55:40Z</time>
      </trkpt>
      <trkpt lat="42.48284" lon="3.09502">
        <ele>266</ele>
        <time>2024-09-23T12:55:43Z</time>
      </trkpt>
      <trkpt lat="42.48286" lon="3.09507">
        <ele>264</ele>
        <time>2024-09-23T12:55:46Z</time>
      </trkpt>
      <trkpt lat="42.48287" lon="3.09511">
        <ele>264</ele>
        <time>2024-09-23T12:55:48Z</time>
      </trkpt>
      <trkpt lat="42.48289" lon="3.09515">
        <ele>263</ele>
        <time>2024-09-23T12:55:50Z</time>
      </trkpt>
      <trkpt lat="42.4829" lon="3.09519">
        <ele>262</ele>
        <time>2024-09-23T12:55:53Z</time>
      </trkpt>
      <trkpt lat="42.48293" lon="3.09523">
        <ele>261</ele>
        <time>2024-09-23T12:55:55Z</time>
      </trkpt>
      <trkpt lat="42.48295" lon="3.09526">
        <ele>262</ele>
        <time>2024-09-23T12:55:57Z</time>
      </trkpt>
      <trkpt lat="42.48297" lon="3.09529">
        <ele>261</ele>
        <time>2024-09-23T12:56:00Z</time>
      </trkpt>
      <trkpt lat="42.48299" lon="3.09532">
        <ele>261</ele>
        <time>2024-09-23T12:56:03Z</time>
      </trkpt>
      <trkpt lat="42.48301" lon="3.09535">
        <ele>261</ele>
        <time>2024-09-23T12:56:05Z</time>
      </trkpt>
      <trkpt lat="42.48303" lon="3.09538">
        <ele>261</ele>
        <time>2024-09-23T12:56:08Z</time>
      </trkpt>
      <trkpt lat="42.48305" lon="3.09541">
        <ele>262</ele>
        <time>2024-09-23T12:56:10Z</time>
      </trkpt>
      <trkpt lat="42.48307" lon="3.09544">
        <ele>261</ele>
        <time>2024-09-23T12:56:13Z</time>
      </trkpt>
      <trkpt lat="42.48309" lon="3.09548">
        <ele>262</ele>
        <time>2024-09-23T12:56:16Z</time>
      </trkpt>
      <trkpt lat="42.4831" lon="3.09552">
        <ele>262</ele>
        <time>2024-09-23T12:56:19Z</time>
      </trkpt>
      <trkpt lat="42.48311" lon="3.09555">
        <ele>262</ele>
        <time>2024-09-23T12:56:22Z</time>
      </trkpt>
      <trkpt lat="42.48312" lon="3.09559">
        <ele>262</ele>
        <time>2024-09-23T12:56:25Z</time>
      </trkpt>
      <trkpt lat="42.48314" lon="3.09563">
        <ele>263</ele>
        <time>2024-09-23T12:56:28Z</time>
      </trkpt>
      <trkpt lat="42.48316" lon="3.09567">
        <ele>264</ele>
        <time>2024-09-23T12:56:31Z</time>
      </trkpt>
      <trkpt lat="42.48317" lon="3.0957">
        <ele>264</ele>
        <time>2024-09-23T12:56:34Z</time>
      </trkpt>
      <trkpt lat="42.48319" lon="3.09574">
        <ele>264</ele>
        <time>2024-09-23T12:56:37Z</time>
      </trkpt>
      <trkpt lat="42.48321" lon="3.09578">
        <ele>266</ele>
        <time>2024-09-23T12:56:43Z</time>
      </trkpt>
      <trkpt lat="42.48322" lon="3.09582">
        <ele>266</ele>
        <time>2024-09-23T12:56:46Z</time>
      </trkpt>
      <trkpt lat="42.48324" lon="3.09587">
        <ele>267</ele>
        <time>2024-09-23T12:56:49Z</time>
      </trkpt>
      <trkpt lat="42.48325" lon="3.09591">
        <ele>268</ele>
        <time>2024-09-23T12:56:52Z</time>
      </trkpt>
      <trkpt lat="42.48327" lon="3.09595">
        <ele>268</ele>
        <time>2024-09-23T12:56:55Z</time>
      </trkpt>
      <trkpt lat="42.48328" lon="3.09599">
        <ele>268</ele>
        <time>2024-09-23T12:56:57Z</time>
      </trkpt>
      <trkpt lat="42.48328" lon="3.09604">
        <ele>269</ele>
        <time>2024-09-23T12:57:01Z</time>
      </trkpt>
      <trkpt lat="42.48329" lon="3.09608">
        <ele>268</ele>
        <time>2024-09-23T12:57:04Z</time>
      </trkpt>
      <trkpt lat="42.4833" lon="3.09612">
        <ele>268</ele>
        <time>2024-09-23T12:57:08Z</time>
      </trkpt>
      <trkpt lat="42.4833" lon="3.09616">
        <ele>268</ele>
        <time>2024-09-23T12:57:13Z</time>
      </trkpt>
      <trkpt lat="42.4833" lon="3.0962">
        <ele>268</ele>
        <time>2024-09-23T12:57:16Z</time>
      </trkpt>
      <trkpt lat="42.48327" lon="3.09624">
        <ele>268</ele>
        <time>2024-09-23T12:57:17Z</time>
      </trkpt>
      <trkpt lat="42.48326" lon="3.09628">
        <ele>268</ele>
        <time>2024-09-23T12:57:21Z</time>
      </trkpt>
      <trkpt lat="42.48325" lon="3.09632">
        <ele>269</ele>
        <time>2024-09-23T12:57:25Z</time>
      </trkpt>
      <trkpt lat="42.48325" lon="3.09636">
        <ele>269</ele>
        <time>2024-09-23T12:57:28Z</time>
      </trkpt>
      <trkpt lat="42.48324" lon="3.0964">
        <ele>269</ele>
        <time>2024-09-23T12:57:31Z</time>
      </trkpt>
      <trkpt lat="42.48324" lon="3.09644">
        <ele>270</ele>
        <time>2024-09-23T12:57:35Z</time>
      </trkpt>
      <trkpt lat="42.48323" lon="3.09649">
        <ele>270</ele>
        <time>2024-09-23T12:57:39Z</time>
      </trkpt>
      <trkpt lat="42.48322" lon="3.09653">
        <ele>271</ele>
        <time>2024-09-23T12:57:44Z</time>
      </trkpt>
      <trkpt lat="42.48322" lon="3.09657">
        <ele>271</ele>
        <time>2024-09-23T12:57:47Z</time>
      </trkpt>
      <trkpt lat="42.48321" lon="3.09661">
        <ele>272</ele>
        <time>2024-09-23T12:57:51Z</time>
      </trkpt>
      <trkpt lat="42.4832" lon="3.09665">
        <ele>272</ele>
        <time>2024-09-23T12:57:54Z</time>
      </trkpt>
      <trkpt lat="42.48319" lon="3.09669">
        <ele>272</ele>
        <time>2024-09-23T12:57:56Z</time>
      </trkpt>
      <trkpt lat="42.48319" lon="3.09673">
        <ele>272</ele>
        <time>2024-09-23T12:57:59Z</time>
      </trkpt>
      <trkpt lat="42.48318" lon="3.09677">
        <ele>272</ele>
        <time>2024-09-23T12:58:01Z</time>
      </trkpt>
      <trkpt lat="42.48317" lon="3.09682">
        <ele>272</ele>
        <time>2024-09-23T12:58:04Z</time>
      </trkpt>
      <trkpt lat="42.48317" lon="3.09685">
        <ele>271</ele>
        <time>2024-09-23T12:58:06Z</time>
      </trkpt>
      <trkpt lat="42.48317" lon="3.09689">
        <ele>269</ele>
        <time>2024-09-23T12:58:08Z</time>
      </trkpt>
      <trkpt lat="42.48316" lon="3.09694">
        <ele>270</ele>
        <time>2024-09-23T12:58:11Z</time>
      </trkpt>
      <trkpt lat="42.48316" lon="3.09699">
        <ele>270</ele>
        <time>2024-09-23T12:58:14Z</time>
      </trkpt>
      <trkpt lat="42.48316" lon="3.09704">
        <ele>270</ele>
        <time>2024-09-23T12:58:17Z</time>
      </trkpt>
      <trkpt lat="42.48317" lon="3.09709">
        <ele>269</ele>
        <time>2024-09-23T12:58:20Z</time>
      </trkpt>
      <trkpt lat="42.48317" lon="3.09713">
        <ele>270</ele>
        <time>2024-09-23T12:58:22Z</time>
      </trkpt>
      <trkpt lat="42.48317" lon="3.09717">
        <ele>270</ele>
        <time>2024-09-23T12:58:24Z</time>
      </trkpt>
      <trkpt lat="42.48318" lon="3.09722">
        <ele>269</ele>
        <time>2024-09-23T12:58:27Z</time>
      </trkpt>
      <trkpt lat="42.48318" lon="3.09726">
        <ele>269</ele>
        <time>2024-09-23T12:58:30Z</time>
      </trkpt>
      <trkpt lat="42.4832" lon="3.0973">
        <ele>269</ele>
        <time>2024-09-23T12:58:33Z</time>
      </trkpt>
      <trkpt lat="42.48322" lon="3.09734">
        <ele>269</ele>
        <time>2024-09-23T12:58:36Z</time>
      </trkpt>
      <trkpt lat="42.48323" lon="3.09739">
        <ele>268</ele>
        <time>2024-09-23T12:58:39Z</time>
      </trkpt>
      <trkpt lat="42.48324" lon="3.09743">
        <ele>267</ele>
        <time>2024-09-23T12:58:42Z</time>
      </trkpt>
      <trkpt lat="42.48324" lon="3.09747">
        <ele>266</ele>
        <time>2024-09-23T12:58:45Z</time>
      </trkpt>
      <trkpt lat="42.48324" lon="3.09752">
        <ele>266</ele>
        <time>2024-09-23T12:58:47Z</time>
      </trkpt>
      <trkpt lat="42.48324" lon="3.09756">
        <ele>265</ele>
        <time>2024-09-23T12:58:52Z</time>
      </trkpt>
      <trkpt lat="42.48324" lon="3.09761">
        <ele>265</ele>
        <time>2024-09-23T12:58:55Z</time>
      </trkpt>
      <trkpt lat="42.48325" lon="3.09765">
        <ele>265</ele>
        <time>2024-09-23T12:58:59Z</time>
      </trkpt>
      <trkpt lat="42.48325" lon="3.09769">
        <ele>264</ele>
        <time>2024-09-23T12:59:02Z</time>
      </trkpt>
      <trkpt lat="42.48325" lon="3.09774">
        <ele>264</ele>
        <time>2024-09-23T12:59:06Z</time>
      </trkpt>
      <trkpt lat="42.48325" lon="3.09778">
        <ele>264</ele>
        <time>2024-09-23T12:59:09Z</time>
      </trkpt>
      <trkpt lat="42.48326" lon="3.09783">
        <ele>263</ele>
        <time>2024-09-23T12:59:11Z</time>
      </trkpt>
      <trkpt lat="42.48326" lon="3.09787">
        <ele>263</ele>
        <time>2024-09-23T12:59:13Z</time>
      </trkpt>
      <trkpt lat="42.48326" lon="3.09792">
        <ele>264</ele>
        <time>2024-09-23T12:59:16Z</time>
      </trkpt>
      <trkpt lat="42.48327" lon="3.09797">
        <ele>263</ele>
        <time>2024-09-23T12:59:19Z</time>
      </trkpt>
      <trkpt lat="42.48326" lon="3.09802">
        <ele>263</ele>
        <time>2024-09-23T12:59:22Z</time>
      </trkpt>
      <trkpt lat="42.48326" lon="3.09808">
        <ele>263</ele>
        <time>2024-09-23T12:59:25Z</time>
      </trkpt>
      <trkpt lat="42.48327" lon="3.09813">
        <ele>264</ele>
        <time>2024-09-23T12:59:28Z</time>
      </trkpt>
      <trkpt lat="42.48326" lon="3.09818">
        <ele>264</ele>
        <time>2024-09-23T12:59:32Z</time>
      </trkpt>
      <trkpt lat="42.48327" lon="3.09823">
        <ele>263</ele>
        <time>2024-09-23T12:59:35Z</time>
      </trkpt>
      <trkpt lat="42.48328" lon="3.09828">
        <ele>263</ele>
        <time>2024-09-23T12:59:38Z</time>
      </trkpt>
      <trkpt lat="42.48328" lon="3.09832">
        <ele>262</ele>
        <time>2024-09-23T12:59:41Z</time>
      </trkpt>
      <trkpt lat="42.48329" lon="3.09836">
        <ele>263</ele>
        <time>2024-09-23T12:59:43Z</time>
      </trkpt>
      <trkpt lat="42.4833" lon="3.09841">
        <ele>261</ele>
        <time>2024-09-23T12:59:46Z</time>
      </trkpt>
      <trkpt lat="42.4833" lon="3.09845">
        <ele>261</ele>
        <time>2024-09-23T12:59:48Z</time>
      </trkpt>
      <trkpt lat="42.48331" lon="3.09848">
        <ele>260</ele>
        <time>2024-09-23T12:59:51Z</time>
      </trkpt>
      <trkpt lat="42.48332" lon="3.09853">
        <ele>260</ele>
        <time>2024-09-23T12:59:54Z</time>
      </trkpt>
      <trkpt lat="42.48333" lon="3.09857">
        <ele>259</ele>
        <time>2024-09-23T12:59:57Z</time>
      </trkpt>
      <trkpt lat="42.48334" lon="3.09862">
        <ele>258</ele>
        <time>2024-09-23T13:00:00Z</time>
      </trkpt>
      <trkpt lat="42.48335" lon="3.09867">
        <ele>257</ele>
        <time>2024-09-23T13:00:03Z</time>
      </trkpt>
      <trkpt lat="42.48335" lon="3.09871">
        <ele>258</ele>
        <time>2024-09-23T13:00:06Z</time>
      </trkpt>
      <trkpt lat="42.48335" lon="3.09876">
        <ele>258</ele>
        <time>2024-09-23T13:00:08Z</time>
      </trkpt>
      <trkpt lat="42.48335" lon="3.09879">
        <ele>259</ele>
        <time>2024-09-23T13:00:10Z</time>
      </trkpt>
      <trkpt lat="42.48336" lon="3.09884">
        <ele>257</ele>
        <time>2024-09-23T13:00:12Z</time>
      </trkpt>
      <trkpt lat="42.48336" lon="3.09888">
        <ele>257</ele>
        <time>2024-09-23T13:00:15Z</time>
      </trkpt>
      <trkpt lat="42.48337" lon="3.09892">
        <ele>256</ele>
        <time>2024-09-23T13:00:18Z</time>
      </trkpt>
      <trkpt lat="42.48337" lon="3.09896">
        <ele>257</ele>
        <time>2024-09-23T13:00:20Z</time>
      </trkpt>
      <trkpt lat="42.48338" lon="3.099">
        <ele>256</ele>
        <time>2024-09-23T13:00:23Z</time>
      </trkpt>
      <trkpt lat="42.48339" lon="3.09905">
        <ele>256</ele>
        <time>2024-09-23T13:00:26Z</time>
      </trkpt>
      <trkpt lat="42.48339" lon="3.0991">
        <ele>255</ele>
        <time>2024-09-23T13:00:30Z</time>
      </trkpt>
      <trkpt lat="42.4834" lon="3.09915">
        <ele>255</ele>
        <time>2024-09-23T13:00:33Z</time>
      </trkpt>
      <trkpt lat="42.4834" lon="3.09921">
        <ele>255</ele>
        <time>2024-09-23T13:00:36Z</time>
      </trkpt>
      <trkpt lat="42.48341" lon="3.09925">
        <ele>255</ele>
        <time>2024-09-23T13:00:39Z</time>
      </trkpt>
      <trkpt lat="42.48342" lon="3.0993">
        <ele>254</ele>
        <time>2024-09-23T13:00:42Z</time>
      </trkpt>
      <trkpt lat="42.48343" lon="3.09934">
        <ele>254</ele>
        <time>2024-09-23T13:00:45Z</time>
      </trkpt>
      <trkpt lat="42.48344" lon="3.09938">
        <ele>254</ele>
        <time>2024-09-23T13:00:47Z</time>
      </trkpt>
      <trkpt lat="42.48345" lon="3.09942">
        <ele>254</ele>
        <time>2024-09-23T13:00:50Z</time>
      </trkpt>
      <trkpt lat="42.48346" lon="3.09946">
        <ele>253</ele>
        <time>2024-09-23T13:00:53Z</time>
      </trkpt>
      <trkpt lat="42.48347" lon="3.0995">
        <ele>253</ele>
        <time>2024-09-23T13:00:56Z</time>
      </trkpt>
      <trkpt lat="42.48349" lon="3.09955">
        <ele>253</ele>
        <time>2024-09-23T13:01:02Z</time>
      </trkpt>
      <trkpt lat="42.48351" lon="3.09959">
        <ele>252</ele>
        <time>2024-09-23T13:01:05Z</time>
      </trkpt>
      <trkpt lat="42.48353" lon="3.09964">
        <ele>252</ele>
        <time>2024-09-23T13:01:07Z</time>
      </trkpt>
      <trkpt lat="42.48354" lon="3.09968">
        <ele>253</ele>
        <time>2024-09-23T13:01:10Z</time>
      </trkpt>
      <trkpt lat="42.48355" lon="3.09971">
        <ele>252</ele>
        <time>2024-09-23T13:01:12Z</time>
      </trkpt>
      <trkpt lat="42.48356" lon="3.09975">
        <ele>252</ele>
        <time>2024-09-23T13:01:14Z</time>
      </trkpt>
      <trkpt lat="42.48357" lon="3.09978">
        <ele>251</ele>
        <time>2024-09-23T13:01:17Z</time>
      </trkpt>
      <trkpt lat="42.48358" lon="3.09982">
        <ele>251</ele>
        <time>2024-09-23T13:01:20Z</time>
      </trkpt>
      <trkpt lat="42.4836" lon="3.09986">
        <ele>251</ele>
        <time>2024-09-23T13:01:23Z</time>
      </trkpt>
      <trkpt lat="42.48361" lon="3.09991">
        <ele>250</ele>
        <time>2024-09-23T13:01:26Z</time>
      </trkpt>
      <trkpt lat="42.48362" lon="3.09996">
        <ele>250</ele>
        <time>2024-09-23T13:01:29Z</time>
      </trkpt>
      <trkpt lat="42.48363" lon="3.1">
        <ele>249</ele>
        <time>2024-09-23T13:01:32Z</time>
      </trkpt>
      <trkpt lat="42.48363" lon="3.10005">
        <ele>249</ele>
        <time>2024-09-23T13:01:36Z</time>
      </trkpt>
      <trkpt lat="42.48363" lon="3.1001">
        <ele>250</ele>
        <time>2024-09-23T13:01:39Z</time>
      </trkpt>
      <trkpt lat="42.48363" lon="3.10015">
        <ele>249</ele>
        <time>2024-09-23T13:01:42Z</time>
      </trkpt>
      <trkpt lat="42.48363" lon="3.10019">
        <ele>249</ele>
        <time>2024-09-23T13:01:44Z</time>
      </trkpt>
      <trkpt lat="42.48363" lon="3.10024">
        <ele>248</ele>
        <time>2024-09-23T13:01:47Z</time>
      </trkpt>
      <trkpt lat="42.48364" lon="3.10028">
        <ele>248</ele>
        <time>2024-09-23T13:01:50Z</time>
      </trkpt>
      <trkpt lat="42.48365" lon="3.10033">
        <ele>247</ele>
        <time>2024-09-23T13:01:53Z</time>
      </trkpt>
      <trkpt lat="42.48366" lon="3.10038">
        <ele>247</ele>
        <time>2024-09-23T13:01:56Z</time>
      </trkpt>
      <trkpt lat="42.48367" lon="3.10042">
        <ele>247</ele>
        <time>2024-09-23T13:01:59Z</time>
      </trkpt>
      <trkpt lat="42.48368" lon="3.10046">
        <ele>247</ele>
        <time>2024-09-23T13:02:01Z</time>
      </trkpt>
      <trkpt lat="42.48368" lon="3.1005">
        <ele>247</ele>
        <time>2024-09-23T13:02:03Z</time>
      </trkpt>
      <trkpt lat="42.48368" lon="3.10054">
        <ele>246</ele>
        <time>2024-09-23T13:02:06Z</time>
      </trkpt>
      <trkpt lat="42.48369" lon="3.10058">
        <ele>245</ele>
        <time>2024-09-23T13:02:09Z</time>
      </trkpt>
      <trkpt lat="42.48369" lon="3.10062">
        <ele>245</ele>
        <time>2024-09-23T13:02:12Z</time>
      </trkpt>
      <trkpt lat="42.4837" lon="3.10067">
        <ele>243</ele>
        <time>2024-09-23T13:02:15Z</time>
      </trkpt>
      <trkpt lat="42.48369" lon="3.10072">
        <ele>243</ele>
        <time>2024-09-23T13:02:17Z</time>
      </trkpt>
      <trkpt lat="42.48369" lon="3.10076">
        <ele>243</ele>
        <time>2024-09-23T13:02:20Z</time>
      </trkpt>
      <trkpt lat="42.48368" lon="3.10081">
        <ele>244</ele>
        <time>2024-09-23T13:02:23Z</time>
      </trkpt>
      <trkpt lat="42.48367" lon="3.10086">
        <ele>242</ele>
        <time>2024-09-23T13:02:25Z</time>
      </trkpt>
      <trkpt lat="42.48367" lon="3.10091">
        <ele>242</ele>
        <time>2024-09-23T13:02:28Z</time>
      </trkpt>
      <trkpt lat="42.48366" lon="3.10095">
        <ele>242</ele>
        <time>2024-09-23T13:02:30Z</time>
      </trkpt>
      <trkpt lat="42.48366" lon="3.10099">
        <ele>242</ele>
        <time>2024-09-23T13:02:33Z</time>
      </trkpt>
      <trkpt lat="42.48365" lon="3.10103">
        <ele>241</ele>
        <time>2024-09-23T13:02:35Z</time>
      </trkpt>
      <trkpt lat="42.48364" lon="3.10106">
        <ele>242</ele>
        <time>2024-09-23T13:02:37Z</time>
      </trkpt>
      <trkpt lat="42.48364" lon="3.1011">
        <ele>241</ele>
        <time>2024-09-23T13:02:40Z</time>
      </trkpt>
      <trkpt lat="42.48362" lon="3.10114">
        <ele>242</ele>
        <time>2024-09-23T13:02:43Z</time>
      </trkpt>
      <trkpt lat="42.48361" lon="3.10118">
        <ele>242</ele>
        <time>2024-09-23T13:02:45Z</time>
      </trkpt>
      <trkpt lat="42.48359" lon="3.10122">
        <ele>240</ele>
        <time>2024-09-23T13:02:49Z</time>
      </trkpt>
      <trkpt lat="42.48357" lon="3.10126">
        <ele>239</ele>
        <time>2024-09-23T13:02:52Z</time>
      </trkpt>
      <trkpt lat="42.48355" lon="3.1013">
        <ele>239</ele>
        <time>2024-09-23T13:02:55Z</time>
      </trkpt>
      <trkpt lat="42.48353" lon="3.10133">
        <ele>238</ele>
        <time>2024-09-23T13:02:58Z</time>
      </trkpt>
      <trkpt lat="42.48351" lon="3.10137">
        <ele>237</ele>
        <time>2024-09-23T13:03:01Z</time>
      </trkpt>
      <trkpt lat="42.48349" lon="3.1014">
        <ele>236</ele>
        <time>2024-09-23T13:03:05Z</time>
      </trkpt>
      <trkpt lat="42.48346" lon="3.10143">
        <ele>236</ele>
        <time>2024-09-23T13:03:08Z</time>
      </trkpt>
      <trkpt lat="42.48344" lon="3.10147">
        <ele>236</ele>
        <time>2024-09-23T13:03:11Z</time>
      </trkpt>
      <trkpt lat="42.48342" lon="3.1015">
        <ele>235</ele>
        <time>2024-09-23T13:03:14Z</time>
      </trkpt>
      <trkpt lat="42.48341" lon="3.10155">
        <ele>234</ele>
        <time>2024-09-23T13:03:19Z</time>
      </trkpt>
      <trkpt lat="42.4834" lon="3.10159">
        <ele>235</ele>
        <time>2024-09-23T13:03:21Z</time>
      </trkpt>
      <trkpt lat="42.48338" lon="3.10163">
        <ele>234</ele>
        <time>2024-09-23T13:03:24Z</time>
      </trkpt>
      <trkpt lat="42.48338" lon="3.10167">
        <ele>230</ele>
        <time>2024-09-23T13:03:29Z</time>
      </trkpt>
      <trkpt lat="42.48337" lon="3.10171">
        <ele>229</ele>
        <time>2024-09-23T13:03:31Z</time>
      </trkpt>
      <trkpt lat="42.48335" lon="3.10175">
        <ele>227</ele>
        <time>2024-09-23T13:03:35Z</time>
      </trkpt>
      <trkpt lat="42.48334" lon="3.10178">
        <ele>227</ele>
        <time>2024-09-23T13:03:37Z</time>
      </trkpt>
      <trkpt lat="42.48332" lon="3.10183">
        <ele>227</ele>
        <time>2024-09-23T13:03:40Z</time>
      </trkpt>
      <trkpt lat="42.48331" lon="3.10187">
        <ele>226</ele>
        <time>2024-09-23T13:03:44Z</time>
      </trkpt>
      <trkpt lat="42.4833" lon="3.10192">
        <ele>226</ele>
        <time>2024-09-23T13:03:47Z</time>
      </trkpt>
      <trkpt lat="42.4833" lon="3.10196">
        <ele>225</ele>
        <time>2024-09-23T13:03:50Z</time>
      </trkpt>
      <trkpt lat="42.48329" lon="3.10201">
        <ele>225</ele>
        <time>2024-09-23T13:03:54Z</time>
      </trkpt>
      <trkpt lat="42.48329" lon="3.10206">
        <ele>224</ele>
        <time>2024-09-23T13:03:58Z</time>
      </trkpt>
      <trkpt lat="42.48328" lon="3.1021">
        <ele>223</ele>
        <time>2024-09-23T13:04:01Z</time>
      </trkpt>
      <trkpt lat="42.48328" lon="3.10215">
        <ele>223</ele>
        <time>2024-09-23T13:04:05Z</time>
      </trkpt>
      <trkpt lat="42.48328" lon="3.10219">
        <ele>223</ele>
        <time>2024-09-23T13:04:09Z</time>
      </trkpt>
      <trkpt lat="42.48328" lon="3.10223">
        <ele>222</ele>
        <time>2024-09-23T13:04:13Z</time>
      </trkpt>
      <trkpt lat="42.48327" lon="3.10227">
        <ele>221</ele>
        <time>2024-09-23T13:04:18Z</time>
      </trkpt>
      <trkpt lat="42.48327" lon="3.10231">
        <ele>220</ele>
        <time>2024-09-23T13:04:21Z</time>
      </trkpt>
      <trkpt lat="42.48325" lon="3.10231">
        <ele>219</ele>
        <time>2024-09-23T13:04:27Z</time>
      </trkpt>
      <trkpt lat="42.48324" lon="3.10229">
        <ele>218</ele>
        <time>2024-09-23T13:04:30Z</time>
      </trkpt>
      <trkpt lat="42.48323" lon="3.10225">
        <ele>218</ele>
        <time>2024-09-23T13:04:33Z</time>
      </trkpt>
      <trkpt lat="42.48322" lon="3.10222">
        <ele>218</ele>
        <time>2024-09-23T13:04:36Z</time>
      </trkpt>
      <trkpt lat="42.48321" lon="3.10217">
        <ele>218</ele>
        <time>2024-09-23T13:04:39Z</time>
      </trkpt>
      <trkpt lat="42.4832" lon="3.10213">
        <ele>218</ele>
        <time>2024-09-23T13:04:48Z</time>
      </trkpt>
      <trkpt lat="42.48319" lon="3.10208">
        <ele>218</ele>
        <time>2024-09-23T13:04:51Z</time>
      </trkpt>
      <trkpt lat="42.48318" lon="3.10204">
        <ele>217</ele>
        <time>2024-09-23T13:04:53Z</time>
      </trkpt>
      <trkpt lat="42.48318" lon="3.102">
        <ele>217</ele>
        <time>2024-09-23T13:04:56Z</time>
      </trkpt>
      <trkpt lat="42.48317" lon="3.10195">
        <ele>217</ele>
        <time>2024-09-23T13:05:02Z</time>
      </trkpt>
      <trkpt lat="42.48316" lon="3.10189">
        <ele>218</ele>
        <time>2024-09-23T13:05:05Z</time>
      </trkpt>
      <trkpt lat="42.48316" lon="3.10184">
        <ele>217</ele>
        <time>2024-09-23T13:05:08Z</time>
      </trkpt>
      <trkpt lat="42.48315" lon="3.1018">
        <ele>216</ele>
        <time>2024-09-23T13:05:11Z</time>
      </trkpt>
      <trkpt lat="42.48315" lon="3.10176">
        <ele>216</ele>
        <time>2024-09-23T13:05:13Z</time>
      </trkpt>
      <trkpt lat="42.48314" lon="3.10171">
        <ele>216</ele>
        <time>2024-09-23T13:05:16Z</time>
      </trkpt>
      <trkpt lat="42.48314" lon="3.10166">
        <ele>217</ele>
        <time>2024-09-23T13:05:19Z</time>
      </trkpt>
      <trkpt lat="42.48313" lon="3.10161">
        <ele>217</ele>
        <time>2024-09-23T13:05:22Z</time>
      </trkpt>
      <trkpt lat="42.48313" lon="3.10157">
        <ele>216</ele>
        <time>2024-09-23T13:05:24Z</time>
      </trkpt>
      <trkpt lat="42.48311" lon="3.10153">
        <ele>215</ele>
        <time>2024-09-23T13:05:27Z</time>
      </trkpt>
      <trkpt lat="42.48309" lon="3.1015">
        <ele>215</ele>
        <time>2024-09-23T13:05:30Z</time>
      </trkpt>
      <trkpt lat="42.48306" lon="3.10149">
        <ele>216</ele>
        <time>2024-09-23T13:05:32Z</time>
      </trkpt>
      <trkpt lat="42.48305" lon="3.10151">
        <ele>214</ele>
        <time>2024-09-23T13:05:35Z</time>
      </trkpt>
      <trkpt lat="42.48304" lon="3.10154">
        <ele>214</ele>
        <time>2024-09-23T13:05:37Z</time>
      </trkpt>
      <trkpt lat="42.48304" lon="3.10158">
        <ele>213</ele>
        <time>2024-09-23T13:05:40Z</time>
      </trkpt>
      <trkpt lat="42.48305" lon="3.10162">
        <ele>213</ele>
        <time>2024-09-23T13:05:43Z</time>
      </trkpt>
      <trkpt lat="42.48305" lon="3.10167">
        <ele>213</ele>
        <time>2024-09-23T13:05:46Z</time>
      </trkpt>
      <trkpt lat="42.48304" lon="3.10171">
        <ele>213</ele>
        <time>2024-09-23T13:05:50Z</time>
      </trkpt>
      <trkpt lat="42.48304" lon="3.10176">
        <ele>212</ele>
        <time>2024-09-23T13:05:53Z</time>
      </trkpt>
      <trkpt lat="42.48304" lon="3.10182">
        <ele>211</ele>
        <time>2024-09-23T13:05:56Z</time>
      </trkpt>
      <trkpt lat="42.48304" lon="3.10187">
        <ele>211</ele>
        <time>2024-09-23T13:05:59Z</time>
      </trkpt>
      <trkpt lat="42.48303" lon="3.10191">
        <ele>210</ele>
        <time>2024-09-23T13:06:01Z</time>
      </trkpt>
      <trkpt lat="42.48303" lon="3.10196">
        <ele>211</ele>
        <time>2024-09-23T13:06:04Z</time>
      </trkpt>
      <trkpt lat="42.48303" lon="3.10201">
        <ele>211</ele>
        <time>2024-09-23T13:06:07Z</time>
      </trkpt>
      <trkpt lat="42.48303" lon="3.10205">
        <ele>211</ele>
        <time>2024-09-23T13:06:10Z</time>
      </trkpt>
      <trkpt lat="42.48303" lon="3.1021">
        <ele>211</ele>
        <time>2024-09-23T13:06:13Z</time>
      </trkpt>
      <trkpt lat="42.48303" lon="3.10214">
        <ele>210</ele>
        <time>2024-09-23T13:06:17Z</time>
      </trkpt>
      <trkpt lat="42.48303" lon="3.10218">
        <ele>211</ele>
        <time>2024-09-23T13:06:19Z</time>
      </trkpt>
      <trkpt lat="42.48302" lon="3.10222">
        <ele>211</ele>
        <time>2024-09-23T13:06:21Z</time>
      </trkpt>
      <trkpt lat="42.48301" lon="3.10226">
        <ele>211</ele>
        <time>2024-09-23T13:06:24Z</time>
      </trkpt>
      <trkpt lat="42.48301" lon="3.10231">
        <ele>210</ele>
        <time>2024-09-23T13:06:27Z</time>
      </trkpt>
      <trkpt lat="42.483" lon="3.10235">
        <ele>210</ele>
        <time>2024-09-23T13:06:30Z</time>
      </trkpt>
      <trkpt lat="42.48298" lon="3.10239">
        <ele>209</ele>
        <time>2024-09-23T13:06:33Z</time>
      </trkpt>
      <trkpt lat="42.48297" lon="3.10243">
        <ele>208</ele>
        <time>2024-09-23T13:06:36Z</time>
      </trkpt>
      <trkpt lat="42.48296" lon="3.10248">
        <ele>209</ele>
        <time>2024-09-23T13:06:39Z</time>
      </trkpt>
      <trkpt lat="42.48295" lon="3.10253">
        <ele>208</ele>
        <time>2024-09-23T13:06:42Z</time>
      </trkpt>
      <trkpt lat="42.48294" lon="3.10257">
        <ele>208</ele>
        <time>2024-09-23T13:06:44Z</time>
      </trkpt>
      <trkpt lat="42.48293" lon="3.10262">
        <ele>207</ele>
        <time>2024-09-23T13:06:47Z</time>
      </trkpt>
      <trkpt lat="42.48294" lon="3.10267">
        <ele>207</ele>
        <time>2024-09-23T13:06:51Z</time>
      </trkpt>
      <trkpt lat="42.48294" lon="3.10272">
        <ele>207</ele>
        <time>2024-09-23T13:06:53Z</time>
      </trkpt>
      <trkpt lat="42.48294" lon="3.10276">
        <ele>207</ele>
        <time>2024-09-23T13:06:56Z</time>
      </trkpt>
      <trkpt lat="42.48293" lon="3.1028">
        <ele>206</ele>
        <time>2024-09-23T13:06:59Z</time>
      </trkpt>
      <trkpt lat="42.48291" lon="3.10284">
        <ele>206</ele>
        <time>2024-09-23T13:07:01Z</time>
      </trkpt>
      <trkpt lat="42.48289" lon="3.10287">
        <ele>204</ele>
        <time>2024-09-23T13:07:04Z</time>
      </trkpt>
      <trkpt lat="42.48287" lon="3.1029">
        <ele>203</ele>
        <time>2024-09-23T13:07:06Z</time>
      </trkpt>
      <trkpt lat="42.48285" lon="3.10294">
        <ele>202</ele>
        <time>2024-09-23T13:07:10Z</time>
      </trkpt>
      <trkpt lat="42.48283" lon="3.10299">
        <ele>202</ele>
        <time>2024-09-23T13:07:13Z</time>
      </trkpt>
      <trkpt lat="42.48281" lon="3.10302">
        <ele>204</ele>
        <time>2024-09-23T13:07:18Z</time>
      </trkpt>
      <trkpt lat="42.48281" lon="3.10305">
        <ele>202</ele>
        <time>2024-09-23T13:07:29Z</time>
      </trkpt>
      <trkpt lat="42.4828" lon="3.1031">
        <ele>201</ele>
        <time>2024-09-23T13:07:32Z</time>
      </trkpt>
      <trkpt lat="42.4828" lon="3.10314">
        <ele>201</ele>
        <time>2024-09-23T13:07:35Z</time>
      </trkpt>
      <trkpt lat="42.4828" lon="3.10319">
        <ele>201</ele>
        <time>2024-09-23T13:07:38Z</time>
      </trkpt>
      <trkpt lat="42.48279" lon="3.10324">
        <ele>200</ele>
        <time>2024-09-23T13:07:46Z</time>
      </trkpt>
      <trkpt lat="42.48278" lon="3.10328">
        <ele>199</ele>
        <time>2024-09-23T13:07:49Z</time>
      </trkpt>
      <trkpt lat="42.48278" lon="3.10333">
        <ele>200</ele>
        <time>2024-09-23T13:07:52Z</time>
      </trkpt>
      <trkpt lat="42.48277" lon="3.10337">
        <ele>199</ele>
        <time>2024-09-23T13:07:56Z</time>
      </trkpt>
      <trkpt lat="42.48277" lon="3.10342">
        <ele>198</ele>
        <time>2024-09-23T13:07:59Z</time>
      </trkpt>
      <trkpt lat="42.48277" lon="3.10347">
        <ele>199</ele>
        <time>2024-09-23T13:08:02Z</time>
      </trkpt>
      <trkpt lat="42.48277" lon="3.10351">
        <ele>197</ele>
        <time>2024-09-23T13:08:05Z</time>
      </trkpt>
      <trkpt lat="42.48277" lon="3.10355">
        <ele>197</ele>
        <time>2024-09-23T13:08:07Z</time>
      </trkpt>
      <trkpt lat="42.48277" lon="3.10359">
        <ele>197</ele>
        <time>2024-09-23T13:08:10Z</time>
      </trkpt>
      <trkpt lat="42.48277" lon="3.10363">
        <ele>196</ele>
        <time>2024-09-23T13:08:12Z</time>
      </trkpt>
      <trkpt lat="42.48277" lon="3.10367">
        <ele>196</ele>
        <time>2024-09-23T13:08:14Z</time>
      </trkpt>
      <trkpt lat="42.48277" lon="3.10371">
        <ele>196</ele>
        <time>2024-09-23T13:08:17Z</time>
      </trkpt>
      <trkpt lat="42.48276" lon="3.10376">
        <ele>195</ele>
        <time>2024-09-23T13:08:19Z</time>
      </trkpt>
      <trkpt lat="42.48276" lon="3.10381">
        <ele>195</ele>
        <time>2024-09-23T13:08:21Z</time>
      </trkpt>
      <trkpt lat="42.48275" lon="3.10385">
        <ele>194</ele>
        <time>2024-09-23T13:08:23Z</time>
      </trkpt>
      <trkpt lat="42.48275" lon="3.10389">
        <ele>195</ele>
        <time>2024-09-23T13:08:25Z</time>
      </trkpt>
      <trkpt lat="42.48275" lon="3.10393">
        <ele>194</ele>
        <time>2024-09-23T13:08:27Z</time>
      </trkpt>
      <trkpt lat="42.48274" lon="3.10396">
        <ele>195</ele>
        <time>2024-09-23T13:08:29Z</time>
      </trkpt>
      <trkpt lat="42.48274" lon="3.10401">
        <ele>194</ele>
        <time>2024-09-23T13:08:32Z</time>
      </trkpt>
      <trkpt lat="42.48273" lon="3.10406">
        <ele>192</ele>
        <time>2024-09-23T13:08:35Z</time>
      </trkpt>
      <trkpt lat="42.48272" lon="3.10411">
        <ele>192</ele>
        <time>2024-09-23T13:08:38Z</time>
      </trkpt>
      <trkpt lat="42.48272" lon="3.10416">
        <ele>191</ele>
        <time>2024-09-23T13:08:41Z</time>
      </trkpt>
      <trkpt lat="42.48271" lon="3.10421">
        <ele>191</ele>
        <time>2024-09-23T13:08:44Z</time>
      </trkpt>
      <trkpt lat="42.4827" lon="3.10427">
        <ele>190</ele>
        <time>2024-09-23T13:08:47Z</time>
      </trkpt>
      <trkpt lat="42.4827" lon="3.10431">
        <ele>189</ele>
        <time>2024-09-23T13:08:49Z</time>
      </trkpt>
      <trkpt lat="42.48269" lon="3.10435">
        <ele>188</ele>
        <time>2024-09-23T13:08:52Z</time>
      </trkpt>
      <trkpt lat="42.48268" lon="3.10439">
        <ele>188</ele>
        <time>2024-09-23T13:08:55Z</time>
      </trkpt>
      <trkpt lat="42.48267" lon="3.10444">
        <ele>187</ele>
        <time>2024-09-23T13:08:58Z</time>
      </trkpt>
      <trkpt lat="42.48266" lon="3.10448">
        <ele>187</ele>
        <time>2024-09-23T13:09:01Z</time>
      </trkpt>
      <trkpt lat="42.48265" lon="3.10453">
        <ele>186</ele>
        <time>2024-09-23T13:09:04Z</time>
      </trkpt>
      <trkpt lat="42.48264" lon="3.10458">
        <ele>186</ele>
        <time>2024-09-23T13:09:07Z</time>
      </trkpt>
      <trkpt lat="42.48263" lon="3.10462">
        <ele>186</ele>
        <time>2024-09-23T13:09:10Z</time>
      </trkpt>
      <trkpt lat="42.48262" lon="3.10467">
        <ele>185</ele>
        <time>2024-09-23T13:09:13Z</time>
      </trkpt>
      <trkpt lat="42.48262" lon="3.10471">
        <ele>183</ele>
        <time>2024-09-23T13:09:17Z</time>
      </trkpt>
      <trkpt lat="42.4826" lon="3.10475">
        <ele>184</ele>
        <time>2024-09-23T13:09:20Z</time>
      </trkpt>
      <trkpt lat="42.48259" lon="3.10479">
        <ele>183</ele>
        <time>2024-09-23T13:09:22Z</time>
      </trkpt>
      <trkpt lat="42.48258" lon="3.10484">
        <ele>184</ele>
        <time>2024-09-23T13:09:25Z</time>
      </trkpt>
      <trkpt lat="42.48257" lon="3.10487">
        <ele>183</ele>
        <time>2024-09-23T13:09:28Z</time>
      </trkpt>
      <trkpt lat="42.48257" lon="3.10491">
        <ele>184</ele>
        <time>2024-09-23T13:09:30Z</time>
      </trkpt>
      <trkpt lat="42.48256" lon="3.10496">
        <ele>183</ele>
        <time>2024-09-23T13:09:33Z</time>
      </trkpt>
      <trkpt lat="42.48255" lon="3.105">
        <ele>183</ele>
        <time>2024-09-23T13:09:35Z</time>
      </trkpt>
      <trkpt lat="42.48254" lon="3.10504">
        <ele>183</ele>
        <time>2024-09-23T13:09:38Z</time>
      </trkpt>
      <trkpt lat="42.48254" lon="3.10508">
        <ele>183</ele>
        <time>2024-09-23T13:09:40Z</time>
      </trkpt>
      <trkpt lat="42.48252" lon="3.10511">
        <ele>181</ele>
        <time>2024-09-23T13:09:43Z</time>
      </trkpt>
      <trkpt lat="42.48251" lon="3.10515">
        <ele>182</ele>
        <time>2024-09-23T13:09:45Z</time>
      </trkpt>
      <trkpt lat="42.4825" lon="3.10519">
        <ele>182</ele>
        <time>2024-09-23T13:09:48Z</time>
      </trkpt>
      <trkpt lat="42.48249" lon="3.10523">
        <ele>182</ele>
        <time>2024-09-23T13:09:51Z</time>
      </trkpt>
      <trkpt lat="42.48249" lon="3.10527">
        <ele>182</ele>
        <time>2024-09-23T13:09:53Z</time>
      </trkpt>
      <trkpt lat="42.48248" lon="3.10531">
        <ele>182</ele>
        <time>2024-09-23T13:09:56Z</time>
      </trkpt>
      <trkpt lat="42.48246" lon="3.10536">
        <ele>181</ele>
        <time>2024-09-23T13:10:00Z</time>
      </trkpt>
      <trkpt lat="42.48245" lon="3.1054">
        <ele>181</ele>
        <time>2024-09-23T13:10:03Z</time>
      </trkpt>
      <trkpt lat="42.48244" lon="3.10545">
        <ele>181</ele>
        <time>2024-09-23T13:10:06Z</time>
      </trkpt>
      <trkpt lat="42.48244" lon="3.10549">
        <ele>180</ele>
        <time>2024-09-23T13:10:09Z</time>
      </trkpt>
      <trkpt lat="42.48243" lon="3.10554">
        <ele>180</ele>
        <time>2024-09-23T13:10:12Z</time>
      </trkpt>
      <trkpt lat="42.48243" lon="3.10558">
        <ele>179</ele>
        <time>2024-09-23T13:10:14Z</time>
      </trkpt>
      <trkpt lat="42.48242" lon="3.10562">
        <ele>179</ele>
        <time>2024-09-23T13:10:17Z</time>
      </trkpt>
      <trkpt lat="42.48243" lon="3.10566">
        <ele>179</ele>
        <time>2024-09-23T13:10:20Z</time>
      </trkpt>
      <trkpt lat="42.48243" lon="3.1057">
        <ele>179</ele>
        <time>2024-09-23T13:10:22Z</time>
      </trkpt>
      <trkpt lat="42.48242" lon="3.10574">
        <ele>178</ele>
        <time>2024-09-23T13:10:25Z</time>
      </trkpt>
      <trkpt lat="42.48242" lon="3.10578">
        <ele>178</ele>
        <time>2024-09-23T13:10:27Z</time>
      </trkpt>
      <trkpt lat="42.48241" lon="3.10582">
        <ele>177</ele>
        <time>2024-09-23T13:10:30Z</time>
      </trkpt>
      <trkpt lat="42.4824" lon="3.10586">
        <ele>177</ele>
        <time>2024-09-23T13:10:32Z</time>
      </trkpt>
      <trkpt lat="42.4824" lon="3.1059">
        <ele>177</ele>
        <time>2024-09-23T13:10:34Z</time>
      </trkpt>
      <trkpt lat="42.48239" lon="3.10595">
        <ele>177</ele>
        <time>2024-09-23T13:10:37Z</time>
      </trkpt>
      <trkpt lat="42.48239" lon="3.10599">
        <ele>176</ele>
        <time>2024-09-23T13:10:39Z</time>
      </trkpt>
      <trkpt lat="42.48239" lon="3.10603">
        <ele>176</ele>
        <time>2024-09-23T13:10:41Z</time>
      </trkpt>
      <trkpt lat="42.48241" lon="3.10606">
        <ele>175</ele>
        <time>2024-09-23T13:10:44Z</time>
      </trkpt>
      <trkpt lat="42.48243" lon="3.10608">
        <ele>175</ele>
        <time>2024-09-23T13:10:47Z</time>
      </trkpt>
      <trkpt lat="42.48246" lon="3.10609">
        <ele>175</ele>
        <time>2024-09-23T13:10:49Z</time>
      </trkpt>
      <trkpt lat="42.48249" lon="3.10611">
        <ele>176</ele>
        <time>2024-09-23T13:10:52Z</time>
      </trkpt>
      <trkpt lat="42.48251" lon="3.10613">
        <ele>175</ele>
        <time>2024-09-23T13:10:55Z</time>
      </trkpt>
      <trkpt lat="42.48252" lon="3.10617">
        <ele>174</ele>
        <time>2024-09-23T13:10:59Z</time>
      </trkpt>
      <trkpt lat="42.48252" lon="3.10622">
        <ele>174</ele>
        <time>2024-09-23T13:11:02Z</time>
      </trkpt>
      <trkpt lat="42.48251" lon="3.10626">
        <ele>174</ele>
        <time>2024-09-23T13:11:05Z</time>
      </trkpt>
      <trkpt lat="42.4825" lon="3.10631">
        <ele>174</ele>
        <time>2024-09-23T13:11:08Z</time>
      </trkpt>
      <trkpt lat="42.48247" lon="3.10634">
        <ele>172</ele>
        <time>2024-09-23T13:11:11Z</time>
      </trkpt>
      <trkpt lat="42.48245" lon="3.10637">
        <ele>172</ele>
        <time>2024-09-23T13:11:14Z</time>
      </trkpt>
      <trkpt lat="42.48243" lon="3.10642">
        <ele>170</ele>
        <time>2024-09-23T13:11:17Z</time>
      </trkpt>
      <trkpt lat="42.48241" lon="3.10645">
        <ele>169</ele>
        <time>2024-09-23T13:11:20Z</time>
      </trkpt>
      <trkpt lat="42.48239" lon="3.10649">
        <ele>169</ele>
        <time>2024-09-23T13:11:22Z</time>
      </trkpt>
      <trkpt lat="42.48237" lon="3.10653">
        <ele>169</ele>
        <time>2024-09-23T13:11:25Z</time>
      </trkpt>
      <trkpt lat="42.48236" lon="3.10657">
        <ele>169</ele>
        <time>2024-09-23T13:11:28Z</time>
      </trkpt>
      <trkpt lat="42.48235" lon="3.10661">
        <ele>168</ele>
        <time>2024-09-23T13:11:31Z</time>
      </trkpt>
      <trkpt lat="42.48233" lon="3.10664">
        <ele>167</ele>
        <time>2024-09-23T13:11:34Z</time>
      </trkpt>
      <trkpt lat="42.48231" lon="3.10668">
        <ele>165</ele>
        <time>2024-09-23T13:11:37Z</time>
      </trkpt>
      <trkpt lat="42.48229" lon="3.1067">
        <ele>165</ele>
        <time>2024-09-23T13:11:39Z</time>
      </trkpt>
      <trkpt lat="42.48226" lon="3.10673">
        <ele>164</ele>
        <time>2024-09-23T13:11:42Z</time>
      </trkpt>
      <trkpt lat="42.48224" lon="3.10676">
        <ele>164</ele>
        <time>2024-09-23T13:11:45Z</time>
      </trkpt>
      <trkpt lat="42.48221" lon="3.10679">
        <ele>163</ele>
        <time>2024-09-23T13:11:48Z</time>
      </trkpt>
      <trkpt lat="42.48219" lon="3.10684">
        <ele>163</ele>
        <time>2024-09-23T13:11:51Z</time>
      </trkpt>
      <trkpt lat="42.48218" lon="3.10688">
        <ele>162</ele>
        <time>2024-09-23T13:11:54Z</time>
      </trkpt>
      <trkpt lat="42.48217" lon="3.10692">
        <ele>162</ele>
        <time>2024-09-23T13:11:58Z</time>
      </trkpt>
      <trkpt lat="42.48215" lon="3.10696">
        <ele>162</ele>
        <time>2024-09-23T13:12:00Z</time>
      </trkpt>
      <trkpt lat="42.48213" lon="3.10699">
        <ele>160</ele>
        <time>2024-09-23T13:12:04Z</time>
      </trkpt>
      <trkpt lat="42.48211" lon="3.10702">
        <ele>160</ele>
        <time>2024-09-23T13:12:07Z</time>
      </trkpt>
      <trkpt lat="42.48209" lon="3.10706">
        <ele>159</ele>
        <time>2024-09-23T13:12:10Z</time>
      </trkpt>
      <trkpt lat="42.48207" lon="3.1071">
        <ele>158</ele>
        <time>2024-09-23T13:12:13Z</time>
      </trkpt>
      <trkpt lat="42.48204" lon="3.10711">
        <ele>159</ele>
        <time>2024-09-23T13:12:15Z</time>
      </trkpt>
      <trkpt lat="42.48202" lon="3.10715">
        <ele>158</ele>
        <time>2024-09-23T13:12:18Z</time>
      </trkpt>
      <trkpt lat="42.482" lon="3.10719">
        <ele>158</ele>
        <time>2024-09-23T13:12:22Z</time>
      </trkpt>
      <trkpt lat="42.48198" lon="3.10723">
        <ele>157</ele>
        <time>2024-09-23T13:12:25Z</time>
      </trkpt>
      <trkpt lat="42.48196" lon="3.10726">
        <ele>156</ele>
        <time>2024-09-23T13:12:28Z</time>
      </trkpt>
      <trkpt lat="42.48195" lon="3.1073">
        <ele>155</ele>
        <time>2024-09-23T13:12:31Z</time>
      </trkpt>
      <trkpt lat="42.48193" lon="3.10733">
        <ele>155</ele>
        <time>2024-09-23T13:12:33Z</time>
      </trkpt>
      <trkpt lat="42.48191" lon="3.10737">
        <ele>154</ele>
        <time>2024-09-23T13:12:37Z</time>
      </trkpt>
      <trkpt lat="42.48189" lon="3.1074">
        <ele>153</ele>
        <time>2024-09-23T13:12:41Z</time>
      </trkpt>
      <trkpt lat="42.48188" lon="3.10744">
        <ele>152</ele>
        <time>2024-09-23T13:12:43Z</time>
      </trkpt>
      <trkpt lat="42.48186" lon="3.10747">
        <ele>152</ele>
        <time>2024-09-23T13:12:45Z</time>
      </trkpt>
      <trkpt lat="42.48184" lon="3.10751">
        <ele>150</ele>
        <time>2024-09-23T13:12:48Z</time>
      </trkpt>
      <trkpt lat="42.48182" lon="3.10754">
        <ele>150</ele>
        <time>2024-09-23T13:12:51Z</time>
      </trkpt>
      <trkpt lat="42.48181" lon="3.10758">
        <ele>149</ele>
        <time>2024-09-23T13:12:54Z</time>
      </trkpt>
      <trkpt lat="42.4818" lon="3.10762">
        <ele>148</ele>
        <time>2024-09-23T13:12:57Z</time>
      </trkpt>
      <trkpt lat="42.48178" lon="3.10766">
        <ele>148</ele>
        <time>2024-09-23T13:13:00Z</time>
      </trkpt>
      <trkpt lat="42.48178" lon="3.10771">
        <ele>148</ele>
        <time>2024-09-23T13:13:04Z</time>
      </trkpt>
      <trkpt lat="42.48178" lon="3.10776">
        <ele>148</ele>
        <time>2024-09-23T13:13:07Z</time>
      </trkpt>
      <trkpt lat="42.48178" lon="3.10781">
        <ele>148</ele>
        <time>2024-09-23T13:13:10Z</time>
      </trkpt>
      <trkpt lat="42.48176" lon="3.10785">
        <ele>147</ele>
        <time>2024-09-23T13:13:13Z</time>
      </trkpt>
      <trkpt lat="42.48176" lon="3.10789">
        <ele>147</ele>
        <time>2024-09-23T13:13:15Z</time>
      </trkpt>
      <trkpt lat="42.48175" lon="3.10794">
        <ele>146</ele>
        <time>2024-09-23T13:13:19Z</time>
      </trkpt>
      <trkpt lat="42.48175" lon="3.10798">
        <ele>146</ele>
        <time>2024-09-23T13:13:22Z</time>
      </trkpt>
      <trkpt lat="42.48174" lon="3.10803">
        <ele>145</ele>
        <time>2024-09-23T13:13:28Z</time>
      </trkpt>
      <trkpt lat="42.48172" lon="3.10807">
        <ele>145</ele>
        <time>2024-09-23T13:13:31Z</time>
      </trkpt>
      <trkpt lat="42.48171" lon="3.10811">
        <ele>145</ele>
        <time>2024-09-23T13:13:33Z</time>
      </trkpt>
      <trkpt lat="42.4817" lon="3.10815">
        <ele>144</ele>
        <time>2024-09-23T13:13:36Z</time>
      </trkpt>
      <trkpt lat="42.48169" lon="3.10818">
        <ele>144</ele>
        <time>2024-09-23T13:13:38Z</time>
      </trkpt>
      <trkpt lat="42.48167" lon="3.10822">
        <ele>142</ele>
        <time>2024-09-23T13:13:41Z</time>
      </trkpt>
      <trkpt lat="42.48166" lon="3.10826">
        <ele>142</ele>
        <time>2024-09-23T13:13:44Z</time>
      </trkpt>
      <trkpt lat="42.48165" lon="3.1083">
        <ele>141</ele>
        <time>2024-09-23T13:13:47Z</time>
      </trkpt>
      <trkpt lat="42.48165" lon="3.10834">
        <ele>140</ele>
        <time>2024-09-23T13:13:50Z</time>
      </trkpt>
      <trkpt lat="42.48164" lon="3.10839">
        <ele>139</ele>
        <time>2024-09-23T13:13:54Z</time>
      </trkpt>
      <trkpt lat="42.48162" lon="3.10843">
        <ele>138</ele>
        <time>2024-09-23T13:13:58Z</time>
      </trkpt>
      <trkpt lat="42.48161" lon="3.10847">
        <ele>137</ele>
        <time>2024-09-23T13:14:01Z</time>
      </trkpt>
      <trkpt lat="42.4816" lon="3.10851">
        <ele>136</ele>
        <time>2024-09-23T13:14:04Z</time>
      </trkpt>
      <trkpt lat="42.48159" lon="3.10855">
        <ele>134</ele>
        <time>2024-09-23T13:14:07Z</time>
      </trkpt>
      <trkpt lat="42.48158" lon="3.10859">
        <ele>133</ele>
        <time>2024-09-23T13:14:10Z</time>
      </trkpt>
      <trkpt lat="42.48158" lon="3.10863">
        <ele>132</ele>
        <time>2024-09-23T13:14:15Z</time>
      </trkpt>
      <trkpt lat="42.48158" lon="3.10867">
        <ele>132</ele>
        <time>2024-09-23T13:14:18Z</time>
      </trkpt>
      <trkpt lat="42.48156" lon="3.10872">
        <ele>132</ele>
        <time>2024-09-23T13:14:21Z</time>
      </trkpt>
      <trkpt lat="42.48156" lon="3.10876">
        <ele>130</ele>
        <time>2024-09-23T13:14:24Z</time>
      </trkpt>
      <trkpt lat="42.48156" lon="3.10881">
        <ele>130</ele>
        <time>2024-09-23T13:14:27Z</time>
      </trkpt>
      <trkpt lat="42.48155" lon="3.10885">
        <ele>129</ele>
        <time>2024-09-23T13:14:30Z</time>
      </trkpt>
      <trkpt lat="42.48154" lon="3.10889">
        <ele>128</ele>
        <time>2024-09-23T13:14:33Z</time>
      </trkpt>
      <trkpt lat="42.48154" lon="3.10894">
        <ele>128</ele>
        <time>2024-09-23T13:14:36Z</time>
      </trkpt>
      <trkpt lat="42.48153" lon="3.10898">
        <ele>128</ele>
        <time>2024-09-23T13:14:38Z</time>
      </trkpt>
      <trkpt lat="42.48153" lon="3.10903">
        <ele>127</ele>
        <time>2024-09-23T13:14:42Z</time>
      </trkpt>
      <trkpt lat="42.48152" lon="3.10907">
        <ele>127</ele>
        <time>2024-09-23T13:14:44Z</time>
      </trkpt>
      <trkpt lat="42.48151" lon="3.1091">
        <ele>127</ele>
        <time>2024-09-23T13:14:47Z</time>
      </trkpt>
      <trkpt lat="42.48152" lon="3.10915">
        <ele>127</ele>
        <time>2024-09-23T13:14:49Z</time>
      </trkpt>
      <trkpt lat="42.48153" lon="3.10917">
        <ele>126</ele>
        <time>2024-09-23T13:14:52Z</time>
      </trkpt>
      <trkpt lat="42.48155" lon="3.1092">
        <ele>126</ele>
        <time>2024-09-23T13:14:55Z</time>
      </trkpt>
      <trkpt lat="42.48156" lon="3.10925">
        <ele>125</ele>
        <time>2024-09-23T13:14:58Z</time>
      </trkpt>
      <trkpt lat="42.48156" lon="3.10928">
        <ele>126</ele>
        <time>2024-09-23T13:15:05Z</time>
      </trkpt>
      <trkpt lat="42.48155" lon="3.10928">
        <ele>124</ele>
        <time>2024-09-23T13:16:57Z</time>
      </trkpt>
      <trkpt lat="42.48153" lon="3.10926">
        <ele>125</ele>
        <time>2024-09-23T13:17:01Z</time>
      </trkpt>
      <trkpt lat="42.48151" lon="3.10924">
        <ele>124</ele>
        <time>2024-09-23T13:17:04Z</time>
      </trkpt>
      <trkpt lat="42.48147" lon="3.10924">
        <ele>124</ele>
        <time>2024-09-23T13:17:07Z</time>
      </trkpt>
      <trkpt lat="42.48144" lon="3.10925">
        <ele>124</ele>
        <time>2024-09-23T13:17:10Z</time>
      </trkpt>
      <trkpt lat="42.48141" lon="3.10927">
        <ele>123</ele>
        <time>2024-09-23T13:17:13Z</time>
      </trkpt>
      <trkpt lat="42.48138" lon="3.1093">
        <ele>123</ele>
        <time>2024-09-23T13:17:16Z</time>
      </trkpt>
      <trkpt lat="42.48136" lon="3.10933">
        <ele>123</ele>
        <time>2024-09-23T13:17:19Z</time>
      </trkpt>
      <trkpt lat="42.48133" lon="3.10936">
        <ele>122</ele>
        <time>2024-09-23T13:17:22Z</time>
      </trkpt>
      <trkpt lat="42.4813" lon="3.10938">
        <ele>122</ele>
        <time>2024-09-23T13:17:25Z</time>
      </trkpt>
      <trkpt lat="42.48128" lon="3.10942">
        <ele>122</ele>
        <time>2024-09-23T13:17:28Z</time>
      </trkpt>
      <trkpt lat="42.48125" lon="3.10946">
        <ele>122</ele>
        <time>2024-09-23T13:17:31Z</time>
      </trkpt>
      <trkpt lat="42.48123" lon="3.1095">
        <ele>122</ele>
        <time>2024-09-23T13:17:34Z</time>
      </trkpt>
      <trkpt lat="42.48121" lon="3.10954">
        <ele>121</ele>
        <time>2024-09-23T13:17:37Z</time>
      </trkpt>
      <trkpt lat="42.4812" lon="3.10959">
        <ele>120</ele>
        <time>2024-09-23T13:17:41Z</time>
      </trkpt>
      <trkpt lat="42.48119" lon="3.10963">
        <ele>119</ele>
        <time>2024-09-23T13:17:43Z</time>
      </trkpt>
      <trkpt lat="42.48118" lon="3.10967">
        <ele>120</ele>
        <time>2024-09-23T13:17:45Z</time>
      </trkpt>
      <trkpt lat="42.48116" lon="3.1097">
        <ele>120</ele>
        <time>2024-09-23T13:17:48Z</time>
      </trkpt>
      <trkpt lat="42.48115" lon="3.10974">
        <ele>121</ele>
        <time>2024-09-23T13:17:50Z</time>
      </trkpt>
      <trkpt lat="42.48114" lon="3.10979">
        <ele>121</ele>
        <time>2024-09-23T13:17:53Z</time>
      </trkpt>
      <trkpt lat="42.48112" lon="3.10983">
        <ele>120</ele>
        <time>2024-09-23T13:17:56Z</time>
      </trkpt>
      <trkpt lat="42.48111" lon="3.10988">
        <ele>120</ele>
        <time>2024-09-23T13:17:59Z</time>
      </trkpt>
      <trkpt lat="42.48109" lon="3.10993">
        <ele>119</ele>
        <time>2024-09-23T13:18:03Z</time>
      </trkpt>
      <trkpt lat="42.48108" lon="3.10997">
        <ele>119</ele>
        <time>2024-09-23T13:18:06Z</time>
      </trkpt>
      <trkpt lat="42.48107" lon="3.11001">
        <ele>119</ele>
        <time>2024-09-23T13:18:09Z</time>
      </trkpt>
      <trkpt lat="42.48106" lon="3.11006">
        <ele>118</ele>
        <time>2024-09-23T13:18:12Z</time>
      </trkpt>
      <trkpt lat="42.48105" lon="3.1101">
        <ele>118</ele>
        <time>2024-09-23T13:18:15Z</time>
      </trkpt>
      <trkpt lat="42.48104" lon="3.11015">
        <ele>117</ele>
        <time>2024-09-23T13:18:18Z</time>
      </trkpt>
      <trkpt lat="42.48102" lon="3.1102">
        <ele>117</ele>
        <time>2024-09-23T13:18:21Z</time>
      </trkpt>
      <trkpt lat="42.48101" lon="3.11024">
        <ele>117</ele>
        <time>2024-09-23T13:18:25Z</time>
      </trkpt>
      <trkpt lat="42.48099" lon="3.11028">
        <ele>117</ele>
        <time>2024-09-23T13:18:27Z</time>
      </trkpt>
      <trkpt lat="42.48098" lon="3.11032">
        <ele>117</ele>
        <time>2024-09-23T13:18:29Z</time>
      </trkpt>
      <trkpt lat="42.48098" lon="3.11036">
        <ele>117</ele>
        <time>2024-09-23T13:18:31Z</time>
      </trkpt>
      <trkpt lat="42.48097" lon="3.11039">
        <ele>116</ele>
        <time>2024-09-23T13:18:33Z</time>
      </trkpt>
      <trkpt lat="42.48096" lon="3.11043">
        <ele>117</ele>
        <time>2024-09-23T13:18:35Z</time>
      </trkpt>
      <trkpt lat="42.48095" lon="3.11046">
        <ele>117</ele>
        <time>2024-09-23T13:18:37Z</time>
      </trkpt>
      <trkpt lat="42.48095" lon="3.11051">
        <ele>117</ele>
        <time>2024-09-23T13:18:40Z</time>
      </trkpt>
      <trkpt lat="42.48094" lon="3.11056">
        <ele>117</ele>
        <time>2024-09-23T13:18:43Z</time>
      </trkpt>
      <trkpt lat="42.48093" lon="3.1106">
        <ele>116</ele>
        <time>2024-09-23T13:18:46Z</time>
      </trkpt>
      <trkpt lat="42.48091" lon="3.11064">
        <ele>116</ele>
        <time>2024-09-23T13:18:48Z</time>
      </trkpt>
      <trkpt lat="42.4809" lon="3.11068">
        <ele>116</ele>
        <time>2024-09-23T13:18:51Z</time>
      </trkpt>
      <trkpt lat="42.48088" lon="3.11072">
        <ele>116</ele>
        <time>2024-09-23T13:18:56Z</time>
      </trkpt>
      <trkpt lat="42.48086" lon="3.11076">
        <ele>116</ele>
        <time>2024-09-23T13:18:58Z</time>
      </trkpt>
      <trkpt lat="42.48084" lon="3.1108">
        <ele>115</ele>
        <time>2024-09-23T13:19:01Z</time>
      </trkpt>
      <trkpt lat="42.48082" lon="3.11084">
        <ele>115</ele>
        <time>2024-09-23T13:19:04Z</time>
      </trkpt>
      <trkpt lat="42.4808" lon="3.11088">
        <ele>114</ele>
        <time>2024-09-23T13:19:06Z</time>
      </trkpt>
      <trkpt lat="42.48078" lon="3.11092">
        <ele>114</ele>
        <time>2024-09-23T13:19:09Z</time>
      </trkpt>
      <trkpt lat="42.48076" lon="3.11096">
        <ele>114</ele>
        <time>2024-09-23T13:19:12Z</time>
      </trkpt>
      <trkpt lat="42.48075" lon="3.11099">
        <ele>113</ele>
        <time>2024-09-23T13:19:14Z</time>
      </trkpt>
      <trkpt lat="42.48073" lon="3.11104">
        <ele>113</ele>
        <time>2024-09-23T13:19:17Z</time>
      </trkpt>
      <trkpt lat="42.48072" lon="3.11109">
        <ele>112</ele>
        <time>2024-09-23T13:19:20Z</time>
      </trkpt>
      <trkpt lat="42.48071" lon="3.11114">
        <ele>112</ele>
        <time>2024-09-23T13:19:23Z</time>
      </trkpt>
      <trkpt lat="42.4807" lon="3.11119">
        <ele>112</ele>
        <time>2024-09-23T13:19:26Z</time>
      </trkpt>
      <trkpt lat="42.4807" lon="3.11123">
        <ele>111</ele>
        <time>2024-09-23T13:19:29Z</time>
      </trkpt>
      <trkpt lat="42.48069" lon="3.11128">
        <ele>110</ele>
        <time>2024-09-23T13:19:32Z</time>
      </trkpt>
      <trkpt lat="42.48069" lon="3.11133">
        <ele>110</ele>
        <time>2024-09-23T13:19:35Z</time>
      </trkpt>
      <trkpt lat="42.48069" lon="3.11137">
        <ele>110</ele>
        <time>2024-09-23T13:19:37Z</time>
      </trkpt>
      <trkpt lat="42.48069" lon="3.11142">
        <ele>109</ele>
        <time>2024-09-23T13:19:40Z</time>
      </trkpt>
      <trkpt lat="42.48068" lon="3.11146">
        <ele>109</ele>
        <time>2024-09-23T13:19:42Z</time>
      </trkpt>
      <trkpt lat="42.48067" lon="3.11151">
        <ele>108</ele>
        <time>2024-09-23T13:19:45Z</time>
      </trkpt>
      <trkpt lat="42.48067" lon="3.11155">
        <ele>109</ele>
        <time>2024-09-23T13:19:47Z</time>
      </trkpt>
      <trkpt lat="42.48065" lon="3.11159">
        <ele>108</ele>
        <time>2024-09-23T13:19:50Z</time>
      </trkpt>
      <trkpt lat="42.48065" lon="3.11164">
        <ele>109</ele>
        <time>2024-09-23T13:19:53Z</time>
      </trkpt>
      <trkpt lat="42.48064" lon="3.11168">
        <ele>108</ele>
        <time>2024-09-23T13:19:56Z</time>
      </trkpt>
      <trkpt lat="42.48064" lon="3.11173">
        <ele>108</ele>
        <time>2024-09-23T13:19:59Z</time>
      </trkpt>
      <trkpt lat="42.48065" lon="3.11178">
        <ele>106</ele>
        <time>2024-09-23T13:20:02Z</time>
      </trkpt>
      <trkpt lat="42.48064" lon="3.11182">
        <ele>107</ele>
        <time>2024-09-23T13:20:05Z</time>
      </trkpt>
      <trkpt lat="42.48063" lon="3.11187">
        <ele>106</ele>
        <time>2024-09-23T13:20:08Z</time>
      </trkpt>
      <trkpt lat="42.48063" lon="3.11191">
        <ele>105</ele>
        <time>2024-09-23T13:20:11Z</time>
      </trkpt>
      <trkpt lat="42.48061" lon="3.11196">
        <ele>105</ele>
        <time>2024-09-23T13:20:14Z</time>
      </trkpt>
      <trkpt lat="42.4806" lon="3.112">
        <ele>104</ele>
        <time>2024-09-23T13:20:16Z</time>
      </trkpt>
      <trkpt lat="42.48058" lon="3.11204">
        <ele>104</ele>
        <time>2024-09-23T13:20:19Z</time>
      </trkpt>
      <trkpt lat="42.48057" lon="3.11209">
        <ele>104</ele>
        <time>2024-09-23T13:20:22Z</time>
      </trkpt>
      <trkpt lat="42.48056" lon="3.11212">
        <ele>103</ele>
        <time>2024-09-23T13:20:25Z</time>
      </trkpt>
      <trkpt lat="42.48055" lon="3.11216">
        <ele>103</ele>
        <time>2024-09-23T13:20:27Z</time>
      </trkpt>
      <trkpt lat="42.48053" lon="3.1122">
        <ele>103</ele>
        <time>2024-09-23T13:20:31Z</time>
      </trkpt>
      <trkpt lat="42.48051" lon="3.11225">
        <ele>102</ele>
        <time>2024-09-23T13:20:34Z</time>
      </trkpt>
      <trkpt lat="42.48049" lon="3.11228">
        <ele>101</ele>
        <time>2024-09-23T13:20:37Z</time>
      </trkpt>
      <trkpt lat="42.48046" lon="3.11231">
        <ele>101</ele>
        <time>2024-09-23T13:20:40Z</time>
      </trkpt>
      <trkpt lat="42.48044" lon="3.11234">
        <ele>101</ele>
        <time>2024-09-23T13:20:42Z</time>
      </trkpt>
      <trkpt lat="42.48041" lon="3.11237">
        <ele>100</ele>
        <time>2024-09-23T13:20:45Z</time>
      </trkpt>
      <trkpt lat="42.48038" lon="3.1124">
        <ele>100</ele>
        <time>2024-09-23T13:20:48Z</time>
      </trkpt>
      <trkpt lat="42.48036" lon="3.11243">
        <ele>99</ele>
        <time>2024-09-23T13:20:51Z</time>
      </trkpt>
      <trkpt lat="42.48034" lon="3.11247">
        <ele>99</ele>
        <time>2024-09-23T13:20:54Z</time>
      </trkpt>
      <trkpt lat="42.48031" lon="3.1125">
        <ele>99</ele>
        <time>2024-09-23T13:20:57Z</time>
      </trkpt>
      <trkpt lat="42.48029" lon="3.11254">
        <ele>99</ele>
        <time>2024-09-23T13:21:00Z</time>
      </trkpt>
      <trkpt lat="42.48028" lon="3.11257">
        <ele>99</ele>
        <time>2024-09-23T13:21:02Z</time>
      </trkpt>
      <trkpt lat="42.48027" lon="3.11262">
        <ele>99</ele>
        <time>2024-09-23T13:21:05Z</time>
      </trkpt>
      <trkpt lat="42.48026" lon="3.11266">
        <ele>100</ele>
        <time>2024-09-23T13:21:07Z</time>
      </trkpt>
      <trkpt lat="42.48025" lon="3.1127">
        <ele>100</ele>
        <time>2024-09-23T13:21:10Z</time>
      </trkpt>
      <trkpt lat="42.48024" lon="3.11274">
        <ele>99</ele>
        <time>2024-09-23T13:21:36Z</time>
      </trkpt>
      <trkpt lat="42.48023" lon="3.11278">
        <ele>98</ele>
        <time>2024-09-23T13:21:38Z</time>
      </trkpt>
      <trkpt lat="42.48023" lon="3.11282">
        <ele>99</ele>
        <time>2024-09-23T13:21:41Z</time>
      </trkpt>
      <trkpt lat="42.48024" lon="3.11287">
        <ele>99</ele>
        <time>2024-09-23T13:21:45Z</time>
      </trkpt>
      <trkpt lat="42.48023" lon="3.11291">
        <ele>100</ele>
        <time>2024-09-23T13:21:48Z</time>
      </trkpt>
      <trkpt lat="42.48022" lon="3.11296">
        <ele>99</ele>
        <time>2024-09-23T13:21:51Z</time>
      </trkpt>
      <trkpt lat="42.48022" lon="3.113">
        <ele>99</ele>
        <time>2024-09-23T13:21:54Z</time>
      </trkpt>
      <trkpt lat="42.48021" lon="3.11305">
        <ele>99</ele>
        <time>2024-09-23T13:21:57Z</time>
      </trkpt>
      <trkpt lat="42.48021" lon="3.11309">
        <ele>99</ele>
        <time>2024-09-23T13:22:00Z</time>
      </trkpt>
      <trkpt lat="42.4802" lon="3.11314">
        <ele>98</ele>
        <time>2024-09-23T13:22:03Z</time>
      </trkpt>
      <trkpt lat="42.48018" lon="3.11318">
        <ele>99</ele>
        <time>2024-09-23T13:22:06Z</time>
      </trkpt>
      <trkpt lat="42.48018" lon="3.11322">
        <ele>99</ele>
        <time>2024-09-23T13:22:08Z</time>
      </trkpt>
      <trkpt lat="42.48018" lon="3.11327">
        <ele>99</ele>
        <time>2024-09-23T13:22:11Z</time>
      </trkpt>
      <trkpt lat="42.48018" lon="3.11331">
        <ele>98</ele>
        <time>2024-09-23T13:22:13Z</time>
      </trkpt>
      <trkpt lat="42.48019" lon="3.11335">
        <ele>98</ele>
        <time>2024-09-23T13:22:16Z</time>
      </trkpt>
      <trkpt lat="42.48019" lon="3.1134">
        <ele>98</ele>
        <time>2024-09-23T13:22:19Z</time>
      </trkpt>
      <trkpt lat="42.48019" lon="3.11344">
        <ele>97</ele>
        <time>2024-09-23T13:22:22Z</time>
      </trkpt>
      <trkpt lat="42.48017" lon="3.11349">
        <ele>97</ele>
        <time>2024-09-23T13:22:24Z</time>
      </trkpt>
      <trkpt lat="42.48017" lon="3.11353">
        <ele>97</ele>
        <time>2024-09-23T13:22:28Z</time>
      </trkpt>
      <trkpt lat="42.48019" lon="3.11356">
        <ele>96</ele>
        <time>2024-09-23T13:22:31Z</time>
      </trkpt>
      <trkpt lat="42.4802" lon="3.1136">
        <ele>96</ele>
        <time>2024-09-23T13:22:33Z</time>
      </trkpt>
      <trkpt lat="42.48022" lon="3.11364">
        <ele>95</ele>
        <time>2024-09-23T13:22:38Z</time>
      </trkpt>
      <trkpt lat="42.48023" lon="3.11368">
        <ele>95</ele>
        <time>2024-09-23T13:22:42Z</time>
      </trkpt>
      <trkpt lat="42.48024" lon="3.11373">
        <ele>94</ele>
        <time>2024-09-23T13:22:45Z</time>
      </trkpt>
      <trkpt lat="42.48024" lon="3.11377">
        <ele>93</ele>
        <time>2024-09-23T13:22:48Z</time>
      </trkpt>
      <trkpt lat="42.48023" lon="3.11381">
        <ele>93</ele>
        <time>2024-09-23T13:22:51Z</time>
      </trkpt>
      <trkpt lat="42.48023" lon="3.11385">
        <ele>92</ele>
        <time>2024-09-23T13:22:54Z</time>
      </trkpt>
      <trkpt lat="42.48024" lon="3.11389">
        <ele>92</ele>
        <time>2024-09-23T13:22:57Z</time>
      </trkpt>
      <trkpt lat="42.48026" lon="3.11392">
        <ele>91</ele>
        <time>2024-09-23T13:23:01Z</time>
      </trkpt>
      <trkpt lat="42.48027" lon="3.11397">
        <ele>90</ele>
        <time>2024-09-23T13:23:05Z</time>
      </trkpt>
      <trkpt lat="42.48027" lon="3.11401">
        <ele>90</ele>
        <time>2024-09-23T13:23:08Z</time>
      </trkpt>
      <trkpt lat="42.48026" lon="3.11405">
        <ele>89</ele>
        <time>2024-09-23T13:23:11Z</time>
      </trkpt>
      <trkpt lat="42.48025" lon="3.11409">
        <ele>88</ele>
        <time>2024-09-23T13:23:14Z</time>
      </trkpt>
      <trkpt lat="42.48025" lon="3.11413">
        <ele>88</ele>
        <time>2024-09-23T13:23:17Z</time>
      </trkpt>
      <trkpt lat="42.48026" lon="3.11417">
        <ele>88</ele>
        <time>2024-09-23T13:23:20Z</time>
      </trkpt>
      <trkpt lat="42.48027" lon="3.11421">
        <ele>87</ele>
        <time>2024-09-23T13:23:22Z</time>
      </trkpt>
      <trkpt lat="42.48028" lon="3.11425">
        <ele>86</ele>
        <time>2024-09-23T13:23:25Z</time>
      </trkpt>
      <trkpt lat="42.48029" lon="3.11429">
        <ele>85</ele>
        <time>2024-09-23T13:23:28Z</time>
      </trkpt>
      <trkpt lat="42.4803" lon="3.11434">
        <ele>85</ele>
        <time>2024-09-23T13:23:31Z</time>
      </trkpt>
      <trkpt lat="42.48032" lon="3.11437">
        <ele>84</ele>
        <time>2024-09-23T13:23:35Z</time>
      </trkpt>
      <trkpt lat="42.48034" lon="3.11441">
        <ele>82</ele>
        <time>2024-09-23T13:24:08Z</time>
      </trkpt>
      <trkpt lat="42.48034" lon="3.11445">
        <ele>81</ele>
        <time>2024-09-23T13:24:11Z</time>
      </trkpt>
      <trkpt lat="42.48034" lon="3.1145">
        <ele>81</ele>
        <time>2024-09-23T13:24:14Z</time>
      </trkpt>
      <trkpt lat="42.48032" lon="3.11454">
        <ele>79</ele>
        <time>2024-09-23T13:24:18Z</time>
      </trkpt>
      <trkpt lat="42.48032" lon="3.11458">
        <ele>79</ele>
        <time>2024-09-23T13:24:23Z</time>
      </trkpt>
      <trkpt lat="42.48033" lon="3.11462">
        <ele>78</ele>
        <time>2024-09-23T13:24:27Z</time>
      </trkpt>
      <trkpt lat="42.48033" lon="3.11466">
        <ele>78</ele>
        <time>2024-09-23T13:24:29Z</time>
      </trkpt>
      <trkpt lat="42.48034" lon="3.1147">
        <ele>77</ele>
        <time>2024-09-23T13:24:35Z</time>
      </trkpt>
      <trkpt lat="42.48036" lon="3.11472">
        <ele>76</ele>
        <time>2024-09-23T13:24:51Z</time>
      </trkpt>
      <trkpt lat="42.48038" lon="3.11476">
        <ele>75</ele>
        <time>2024-09-23T13:24:58Z</time>
      </trkpt>
      <trkpt lat="42.4804" lon="3.11478">
        <ele>74</ele>
        <time>2024-09-23T13:25:02Z</time>
      </trkpt>
      <trkpt lat="42.48043" lon="3.1148">
        <ele>72</ele>
        <time>2024-09-23T13:25:07Z</time>
      </trkpt>
      <trkpt lat="42.48045" lon="3.11483">
        <ele>71</ele>
        <time>2024-09-23T13:25:11Z</time>
      </trkpt>
      <trkpt lat="42.48046" lon="3.11487">
        <ele>72</ele>
        <time>2024-09-23T13:25:13Z</time>
      </trkpt>
      <trkpt lat="42.48048" lon="3.1149">
        <ele>71</ele>
        <time>2024-09-23T13:25:16Z</time>
      </trkpt>
      <trkpt lat="42.4805" lon="3.11494">
        <ele>70</ele>
        <time>2024-09-23T13:25:19Z</time>
      </trkpt>
      <trkpt lat="42.48052" lon="3.11496">
        <ele>70</ele>
        <time>2024-09-23T13:25:23Z</time>
      </trkpt>
      <trkpt lat="42.48055" lon="3.11497">
        <ele>69</ele>
        <time>2024-09-23T13:25:32Z</time>
      </trkpt>
      <trkpt lat="42.48058" lon="3.11498">
        <ele>68</ele>
        <time>2024-09-23T13:25:35Z</time>
      </trkpt>
      <trkpt lat="42.48061" lon="3.11499">
        <ele>68</ele>
        <time>2024-09-23T13:25:38Z</time>
      </trkpt>
      <trkpt lat="42.48063" lon="3.115">
        <ele>68</ele>
        <time>2024-09-23T13:25:45Z</time>
      </trkpt>
      <trkpt lat="42.48066" lon="3.11502">
        <ele>67</ele>
        <time>2024-09-23T13:25:48Z</time>
      </trkpt>
      <trkpt lat="42.48068" lon="3.11506">
        <ele>66</ele>
        <time>2024-09-23T13:25:51Z</time>
      </trkpt>
      <trkpt lat="42.4807" lon="3.1151">
        <ele>66</ele>
        <time>2024-09-23T13:25:54Z</time>
      </trkpt>
      <trkpt lat="42.48071" lon="3.11515">
        <ele>65</ele>
        <time>2024-09-23T13:25:57Z</time>
      </trkpt>
      <trkpt lat="42.48073" lon="3.11519">
        <ele>64</ele>
        <time>2024-09-23T13:26:01Z</time>
      </trkpt>
      <trkpt lat="42.48075" lon="3.11522">
        <ele>64</ele>
        <time>2024-09-23T13:26:03Z</time>
      </trkpt>
      <trkpt lat="42.48077" lon="3.11525">
        <ele>63</ele>
        <time>2024-09-23T13:26:07Z</time>
      </trkpt>
      <trkpt lat="42.4808" lon="3.11527">
        <ele>64</ele>
        <time>2024-09-23T13:26:10Z</time>
      </trkpt>
      <trkpt lat="42.48083" lon="3.1153">
        <ele>62</ele>
        <time>2024-09-23T13:26:14Z</time>
      </trkpt>
      <trkpt lat="42.48085" lon="3.11533">
        <ele>62</ele>
        <time>2024-09-23T13:26:16Z</time>
      </trkpt>
      <trkpt lat="42.48087" lon="3.11533">
        <ele>60</ele>
        <time>2024-09-23T13:26:28Z</time>
      </trkpt>
      <trkpt lat="42.4809" lon="3.11535">
        <ele>60</ele>
        <time>2024-09-23T13:26:32Z</time>
      </trkpt>
      <trkpt lat="42.48091" lon="3.11538">
        <ele>60</ele>
        <time>2024-09-23T13:26:35Z</time>
      </trkpt>
      <trkpt lat="42.48092" lon="3.11542">
        <ele>61</ele>
        <time>2024-09-23T13:26:37Z</time>
      </trkpt>
      <trkpt lat="42.48093" lon="3.11546">
        <ele>59</ele>
        <time>2024-09-23T13:26:41Z</time>
      </trkpt>
      <trkpt lat="42.48095" lon="3.11549">
        <ele>59</ele>
        <time>2024-09-23T13:26:43Z</time>
      </trkpt>
      <trkpt lat="42.48098" lon="3.11551">
        <ele>58</ele>
        <time>2024-09-23T13:26:48Z</time>
      </trkpt>
      <trkpt lat="42.481" lon="3.11555">
        <ele>59</ele>
        <time>2024-09-23T13:26:51Z</time>
      </trkpt>
      <trkpt lat="42.48102" lon="3.11559">
        <ele>57</ele>
        <time>2024-09-23T13:26:55Z</time>
      </trkpt>
      <trkpt lat="42.48104" lon="3.11562">
        <ele>57</ele>
        <time>2024-09-23T13:26:57Z</time>
      </trkpt>
      <trkpt lat="42.48106" lon="3.11565">
        <ele>57</ele>
        <time>2024-09-23T13:27:00Z</time>
      </trkpt>
      <trkpt lat="42.48109" lon="3.11567">
        <ele>57</ele>
        <time>2024-09-23T13:27:04Z</time>
      </trkpt>
      <trkpt lat="42.48112" lon="3.11568">
        <ele>56</ele>
        <time>2024-09-23T13:27:07Z</time>
      </trkpt>
      <trkpt lat="42.48114" lon="3.11571">
        <ele>55</ele>
        <time>2024-09-23T13:27:17Z</time>
      </trkpt>
      <trkpt lat="42.48115" lon="3.11575">
        <ele>55</ele>
        <time>2024-09-23T13:27:20Z</time>
      </trkpt>
      <trkpt lat="42.48116" lon="3.11579">
        <ele>55</ele>
        <time>2024-09-23T13:27:22Z</time>
      </trkpt>
      <trkpt lat="42.48116" lon="3.11583">
        <ele>54</ele>
        <time>2024-09-23T13:27:25Z</time>
      </trkpt>
      <trkpt lat="42.48117" lon="3.11587">
        <ele>54</ele>
        <time>2024-09-23T13:27:27Z</time>
      </trkpt>
      <trkpt lat="42.48118" lon="3.11592">
        <ele>54</ele>
        <time>2024-09-23T13:27:30Z</time>
      </trkpt>
      <trkpt lat="42.48119" lon="3.11596">
        <ele>54</ele>
        <time>2024-09-23T13:27:33Z</time>
      </trkpt>
      <trkpt lat="42.48121" lon="3.11601">
        <ele>52</ele>
        <time>2024-09-23T13:27:36Z</time>
      </trkpt>
      <trkpt lat="42.48123" lon="3.11606">
        <ele>51</ele>
        <time>2024-09-23T13:27:39Z</time>
      </trkpt>
      <trkpt lat="42.48124" lon="3.11611">
        <ele>50</ele>
        <time>2024-09-23T13:27:42Z</time>
      </trkpt>
      <trkpt lat="42.48125" lon="3.11615">
        <ele>50</ele>
        <time>2024-09-23T13:27:44Z</time>
      </trkpt>
      <trkpt lat="42.48127" lon="3.11619">
        <ele>50</ele>
        <time>2024-09-23T13:27:47Z</time>
      </trkpt>
      <trkpt lat="42.48129" lon="3.11623">
        <ele>50</ele>
        <time>2024-09-23T13:27:49Z</time>
      </trkpt>
      <trkpt lat="42.4813" lon="3.11625">
        <ele>50</ele>
        <time>2024-09-23T13:27:51Z</time>
      </trkpt>
      <trkpt lat="42.48132" lon="3.11629">
        <ele>49</ele>
        <time>2024-09-23T13:27:54Z</time>
      </trkpt>
      <trkpt lat="42.48134" lon="3.11633">
        <ele>51</ele>
        <time>2024-09-23T13:27:57Z</time>
      </trkpt>
      <trkpt lat="42.48136" lon="3.11637">
        <ele>52</ele>
        <time>2024-09-23T13:28:00Z</time>
      </trkpt>
      <trkpt lat="42.4814" lon="3.11639">
        <ele>52</ele>
        <time>2024-09-23T13:28:03Z</time>
      </trkpt>
      <trkpt lat="42.48142" lon="3.11642">
        <ele>52</ele>
        <time>2024-09-23T13:28:08Z</time>
      </trkpt>
      <trkpt lat="42.48144" lon="3.11645">
        <ele>52</ele>
        <time>2024-09-23T13:28:11Z</time>
      </trkpt>
      <trkpt lat="42.48146" lon="3.11649">
        <ele>53</ele>
        <time>2024-09-23T13:28:14Z</time>
      </trkpt>
      <trkpt lat="42.48148" lon="3.11653">
        <ele>53</ele>
        <time>2024-09-23T13:28:17Z</time>
      </trkpt>
      <trkpt lat="42.48149" lon="3.11656">
        <ele>52</ele>
        <time>2024-09-23T13:28:19Z</time>
      </trkpt>
      <trkpt lat="42.4815" lon="3.1166">
        <ele>53</ele>
        <time>2024-09-23T13:28:22Z</time>
      </trkpt>
      <trkpt lat="42.48151" lon="3.11664">
        <ele>53</ele>
        <time>2024-09-23T13:28:25Z</time>
      </trkpt>
      <trkpt lat="42.48151" lon="3.11668">
        <ele>53</ele>
        <time>2024-09-23T13:28:28Z</time>
      </trkpt>
      <trkpt lat="42.48151" lon="3.11673">
        <ele>54</ele>
        <time>2024-09-23T13:28:31Z</time>
      </trkpt>
      <trkpt lat="42.48152" lon="3.11677">
        <ele>53</ele>
        <time>2024-09-23T13:28:34Z</time>
      </trkpt>
      <trkpt lat="42.48153" lon="3.11682">
        <ele>54</ele>
        <time>2024-09-23T13:28:37Z</time>
      </trkpt>
      <trkpt lat="42.48153" lon="3.11687">
        <ele>54</ele>
        <time>2024-09-23T13:28:40Z</time>
      </trkpt>
      <trkpt lat="42.48153" lon="3.11692">
        <ele>54</ele>
        <time>2024-09-23T13:28:42Z</time>
      </trkpt>
      <trkpt lat="42.48153" lon="3.11697">
        <ele>54</ele>
        <time>2024-09-23T13:28:45Z</time>
      </trkpt>
      <trkpt lat="42.48152" lon="3.11702">
        <ele>54</ele>
        <time>2024-09-23T13:28:48Z</time>
      </trkpt>
      <trkpt lat="42.48151" lon="3.11707">
        <ele>53</ele>
        <time>2024-09-23T13:28:51Z</time>
      </trkpt>
      <trkpt lat="42.4815" lon="3.11711">
        <ele>53</ele>
        <time>2024-09-23T13:28:55Z</time>
      </trkpt>
      <trkpt lat="42.4815" lon="3.11715">
        <ele>52</ele>
        <time>2024-09-23T13:28:57Z</time>
      </trkpt>
      <trkpt lat="42.4815" lon="3.1172">
        <ele>52</ele>
        <time>2024-09-23T13:29:00Z</time>
      </trkpt>
      <trkpt lat="42.4815" lon="3.11724">
        <ele>51</ele>
        <time>2024-09-23T13:29:03Z</time>
      </trkpt>
      <trkpt lat="42.48149" lon="3.11729">
        <ele>51</ele>
        <time>2024-09-23T13:29:06Z</time>
      </trkpt>
      <trkpt lat="42.48149" lon="3.11734">
        <ele>51</ele>
        <time>2024-09-23T13:29:09Z</time>
      </trkpt>
      <trkpt lat="42.48148" lon="3.11739">
        <ele>51</ele>
        <time>2024-09-23T13:29:12Z</time>
      </trkpt>
      <trkpt lat="42.48146" lon="3.11744">
        <ele>51</ele>
        <time>2024-09-23T13:29:15Z</time>
      </trkpt>
      <trkpt lat="42.48145" lon="3.11748">
        <ele>51</ele>
        <time>2024-09-23T13:29:22Z</time>
      </trkpt>
      <trkpt lat="42.48143" lon="3.11751">
        <ele>50</ele>
        <time>2024-09-23T13:29:24Z</time>
      </trkpt>
      <trkpt lat="42.48141" lon="3.11754">
        <ele>49</ele>
        <time>2024-09-23T13:29:25Z</time>
      </trkpt>
      <trkpt lat="42.48139" lon="3.11757">
        <ele>50</ele>
        <time>2024-09-23T13:29:28Z</time>
      </trkpt>
      <trkpt lat="42.48137" lon="3.1176">
        <ele>50</ele>
        <time>2024-09-23T13:29:30Z</time>
      </trkpt>
      <trkpt lat="42.48135" lon="3.11763">
        <ele>50</ele>
        <time>2024-09-23T13:29:33Z</time>
      </trkpt>
      <trkpt lat="42.48132" lon="3.11766">
        <ele>50</ele>
        <time>2024-09-23T13:29:36Z</time>
      </trkpt>
      <trkpt lat="42.4813" lon="3.11769">
        <ele>50</ele>
        <time>2024-09-23T13:29:38Z</time>
      </trkpt>
      <trkpt lat="42.48128" lon="3.11772">
        <ele>50</ele>
        <time>2024-09-23T13:29:40Z</time>
      </trkpt>
      <trkpt lat="42.48125" lon="3.11775">
        <ele>50</ele>
        <time>2024-09-23T13:29:43Z</time>
      </trkpt>
      <trkpt lat="42.48122" lon="3.11778">
        <ele>49</ele>
        <time>2024-09-23T13:29:46Z</time>
      </trkpt>
      <trkpt lat="42.4812" lon="3.1178">
        <ele>49</ele>
        <time>2024-09-23T13:29:48Z</time>
      </trkpt>
      <trkpt lat="42.48117" lon="3.11783">
        <ele>49</ele>
        <time>2024-09-23T13:29:50Z</time>
      </trkpt>
      <trkpt lat="42.48115" lon="3.11786">
        <ele>49</ele>
        <time>2024-09-23T13:29:52Z</time>
      </trkpt>
      <trkpt lat="42.48114" lon="3.11789">
        <ele>49</ele>
        <time>2024-09-23T13:29:54Z</time>
      </trkpt>
      <trkpt lat="42.48111" lon="3.11792">
        <ele>49</ele>
        <time>2024-09-23T13:29:57Z</time>
      </trkpt>
      <trkpt lat="42.48109" lon="3.11795">
        <ele>50</ele>
        <time>2024-09-23T13:29:59Z</time>
      </trkpt>
      <trkpt lat="42.48107" lon="3.11798">
        <ele>49</ele>
        <time>2024-09-23T13:30:01Z</time>
      </trkpt>
      <trkpt lat="42.48105" lon="3.11801">
        <ele>49</ele>
        <time>2024-09-23T13:30:04Z</time>
      </trkpt>
      <trkpt lat="42.48103" lon="3.11805">
        <ele>49</ele>
        <time>2024-09-23T13:30:07Z</time>
      </trkpt>
      <trkpt lat="42.48101" lon="3.11808">
        <ele>49</ele>
        <time>2024-09-23T13:30:10Z</time>
      </trkpt>
      <trkpt lat="42.48099" lon="3.11812">
        <ele>49</ele>
        <time>2024-09-23T13:30:13Z</time>
      </trkpt>
      <trkpt lat="42.48097" lon="3.11817">
        <ele>49</ele>
        <time>2024-09-23T13:30:16Z</time>
      </trkpt>
      <trkpt lat="42.48096" lon="3.1182">
        <ele>49</ele>
        <time>2024-09-23T13:30:18Z</time>
      </trkpt>
      <trkpt lat="42.48094" lon="3.11824">
        <ele>49</ele>
        <time>2024-09-23T13:30:20Z</time>
      </trkpt>
      <trkpt lat="42.48092" lon="3.11827">
        <ele>48</ele>
        <time>2024-09-23T13:30:22Z</time>
      </trkpt>
      <trkpt lat="42.4809" lon="3.11831">
        <ele>48</ele>
        <time>2024-09-23T13:30:25Z</time>
      </trkpt>
      <trkpt lat="42.48089" lon="3.11835">
        <ele>48</ele>
        <time>2024-09-23T13:30:27Z</time>
      </trkpt>
      <trkpt lat="42.48087" lon="3.11839">
        <ele>49</ele>
        <time>2024-09-23T13:30:30Z</time>
      </trkpt>
      <trkpt lat="42.48085" lon="3.11843">
        <ele>49</ele>
        <time>2024-09-23T13:30:33Z</time>
      </trkpt>
      <trkpt lat="42.48085" lon="3.11848">
        <ele>49</ele>
        <time>2024-09-23T13:30:36Z</time>
      </trkpt>
      <trkpt lat="42.48084" lon="3.11852">
        <ele>49</ele>
        <time>2024-09-23T13:30:39Z</time>
      </trkpt>
      <trkpt lat="42.48082" lon="3.11855">
        <ele>48</ele>
        <time>2024-09-23T13:30:42Z</time>
      </trkpt>
      <trkpt lat="42.4808" lon="3.11858">
        <ele>49</ele>
        <time>2024-09-23T13:30:45Z</time>
      </trkpt>
      <trkpt lat="42.48077" lon="3.11861">
        <ele>49</ele>
        <time>2024-09-23T13:30:48Z</time>
      </trkpt>
      <trkpt lat="42.48075" lon="3.11864">
        <ele>49</ele>
        <time>2024-09-23T13:30:50Z</time>
      </trkpt>
      <trkpt lat="42.48073" lon="3.11868">
        <ele>49</ele>
        <time>2024-09-23T13:30:53Z</time>
      </trkpt>
      <trkpt lat="42.48072" lon="3.11872">
        <ele>49</ele>
        <time>2024-09-23T13:30:55Z</time>
      </trkpt>
      <trkpt lat="42.4807" lon="3.11876">
        <ele>49</ele>
        <time>2024-09-23T13:30:59Z</time>
      </trkpt>
      <trkpt lat="42.48068" lon="3.1188">
        <ele>49</ele>
        <time>2024-09-23T13:31:02Z</time>
      </trkpt>
      <trkpt lat="42.48067" lon="3.11884">
        <ele>49</ele>
        <time>2024-09-23T13:31:05Z</time>
      </trkpt>
      <trkpt lat="42.48065" lon="3.11888">
        <ele>49</ele>
        <time>2024-09-23T13:31:08Z</time>
      </trkpt>
      <trkpt lat="42.48064" lon="3.11893">
        <ele>49</ele>
        <time>2024-09-23T13:31:11Z</time>
      </trkpt>
      <trkpt lat="42.48062" lon="3.11897">
        <ele>50</ele>
        <time>2024-09-23T13:31:14Z</time>
      </trkpt>
      <trkpt lat="42.48062" lon="3.11902">
        <ele>49</ele>
        <time>2024-09-23T13:31:17Z</time>
      </trkpt>
      <trkpt lat="42.48061" lon="3.11908">
        <ele>49</ele>
        <time>2024-09-23T13:31:20Z</time>
      </trkpt>
      <trkpt lat="42.48061" lon="3.11913">
        <ele>50</ele>
        <time>2024-09-23T13:31:23Z</time>
      </trkpt>
      <trkpt lat="42.4806" lon="3.11917">
        <ele>50</ele>
        <time>2024-09-23T13:31:26Z</time>
      </trkpt>
      <trkpt lat="42.4806" lon="3.11922">
        <ele>49</ele>
        <time>2024-09-23T13:31:29Z</time>
      </trkpt>
      <trkpt lat="42.48059" lon="3.11927">
        <ele>49</ele>
        <time>2024-09-23T13:31:32Z</time>
      </trkpt>
      <trkpt lat="42.48058" lon="3.11931">
        <ele>50</ele>
        <time>2024-09-23T13:31:34Z</time>
      </trkpt>
      <trkpt lat="42.48057" lon="3.11935">
        <ele>49</ele>
        <time>2024-09-23T13:31:36Z</time>
      </trkpt>
      <trkpt lat="42.48056" lon="3.1194">
        <ele>49</ele>
        <time>2024-09-23T13:31:40Z</time>
      </trkpt>
      <trkpt lat="42.48055" lon="3.11944">
        <ele>49</ele>
        <time>2024-09-23T13:31:42Z</time>
      </trkpt>
      <trkpt lat="42.48055" lon="3.11948">
        <ele>49</ele>
        <time>2024-09-23T13:31:44Z</time>
      </trkpt>
      <trkpt lat="42.48054" lon="3.11952">
        <ele>49</ele>
        <time>2024-09-23T13:31:47Z</time>
      </trkpt>
      <trkpt lat="42.48053" lon="3.11956">
        <ele>49</ele>
        <time>2024-09-23T13:31:49Z</time>
      </trkpt>
      <trkpt lat="42.48052" lon="3.1196">
        <ele>49</ele>
        <time>2024-09-23T13:31:52Z</time>
      </trkpt>
      <trkpt lat="42.48051" lon="3.11965">
        <ele>48</ele>
        <time>2024-09-23T13:31:56Z</time>
      </trkpt>
      <trkpt lat="42.4805" lon="3.11969">
        <ele>47</ele>
        <time>2024-09-23T13:31:58Z</time>
      </trkpt>
      <trkpt lat="42.4805" lon="3.11974">
        <ele>47</ele>
        <time>2024-09-23T13:32:01Z</time>
      </trkpt>
      <trkpt lat="42.48049" lon="3.11979">
        <ele>46</ele>
        <time>2024-09-23T13:32:03Z</time>
      </trkpt>
      <trkpt lat="42.4805" lon="3.11983">
        <ele>46</ele>
        <time>2024-09-23T13:32:05Z</time>
      </trkpt>
      <trkpt lat="42.4805" lon="3.11988">
        <ele>46</ele>
        <time>2024-09-23T13:32:08Z</time>
      </trkpt>
      <trkpt lat="42.4805" lon="3.11993">
        <ele>46</ele>
        <time>2024-09-23T13:32:11Z</time>
      </trkpt>
      <trkpt lat="42.4805" lon="3.11998">
        <ele>44</ele>
        <time>2024-09-23T13:32:14Z</time>
      </trkpt>
      <trkpt lat="42.4805" lon="3.12003">
        <ele>44</ele>
        <time>2024-09-23T13:32:17Z</time>
      </trkpt>
      <trkpt lat="42.48048" lon="3.12006">
        <ele>45</ele>
        <time>2024-09-23T13:32:20Z</time>
      </trkpt>
      <trkpt lat="42.48047" lon="3.1201">
        <ele>44</ele>
        <time>2024-09-23T13:32:22Z</time>
      </trkpt>
      <trkpt lat="42.48047" lon="3.12015">
        <ele>45</ele>
        <time>2024-09-23T13:32:25Z</time>
      </trkpt>
      <trkpt lat="42.48048" lon="3.12019">
        <ele>44</ele>
        <time>2024-09-23T13:32:27Z</time>
      </trkpt>
      <trkpt lat="42.48047" lon="3.12023">
        <ele>44</ele>
        <time>2024-09-23T13:32:30Z</time>
      </trkpt>
      <trkpt lat="42.48047" lon="3.12029">
        <ele>44</ele>
        <time>2024-09-23T13:32:33Z</time>
      </trkpt>
      <trkpt lat="42.48047" lon="3.12033">
        <ele>43</ele>
        <time>2024-09-23T13:32:36Z</time>
      </trkpt>
      <trkpt lat="42.48047" lon="3.12037">
        <ele>43</ele>
        <time>2024-09-23T13:32:39Z</time>
      </trkpt>
      <trkpt lat="42.48046" lon="3.12041">
        <ele>43</ele>
        <time>2024-09-23T13:32:41Z</time>
      </trkpt>
      <trkpt lat="42.48046" lon="3.12046">
        <ele>41</ele>
        <time>2024-09-23T13:32:44Z</time>
      </trkpt>
      <trkpt lat="42.48046" lon="3.12051">
        <ele>41</ele>
        <time>2024-09-23T13:32:47Z</time>
      </trkpt>
      <trkpt lat="42.48046" lon="3.12056">
        <ele>40</ele>
        <time>2024-09-23T13:32:50Z</time>
      </trkpt>
      <trkpt lat="42.48046" lon="3.1206">
        <ele>40</ele>
        <time>2024-09-23T13:32:53Z</time>
      </trkpt>
      <trkpt lat="42.48046" lon="3.12064">
        <ele>39</ele>
        <time>2024-09-23T13:32:56Z</time>
      </trkpt>
      <trkpt lat="42.48045" lon="3.12068">
        <ele>38</ele>
        <time>2024-09-23T13:32:58Z</time>
      </trkpt>
      <trkpt lat="42.48044" lon="3.12072">
        <ele>38</ele>
        <time>2024-09-23T13:33:00Z</time>
      </trkpt>
      <trkpt lat="42.48044" lon="3.12077">
        <ele>38</ele>
        <time>2024-09-23T13:33:02Z</time>
      </trkpt>
      <trkpt lat="42.48044" lon="3.12081">
        <ele>37</ele>
        <time>2024-09-23T13:33:07Z</time>
      </trkpt>
      <trkpt lat="42.48044" lon="3.12086">
        <ele>37</ele>
        <time>2024-09-23T13:33:10Z</time>
      </trkpt>
      <trkpt lat="42.48044" lon="3.1209">
        <ele>37</ele>
        <time>2024-09-23T13:33:12Z</time>
      </trkpt>
      <trkpt lat="42.48045" lon="3.12094">
        <ele>36</ele>
        <time>2024-09-23T13:33:14Z</time>
      </trkpt>
      <trkpt lat="42.48046" lon="3.12098">
        <ele>36</ele>
        <time>2024-09-23T13:33:17Z</time>
      </trkpt>
      <trkpt lat="42.48046" lon="3.12103">
        <ele>36</ele>
        <time>2024-09-23T13:33:20Z</time>
      </trkpt>
      <trkpt lat="42.48046" lon="3.12107">
        <ele>36</ele>
        <time>2024-09-23T13:33:22Z</time>
      </trkpt>
      <trkpt lat="42.48046" lon="3.12111">
        <ele>36</ele>
        <time>2024-09-23T13:33:24Z</time>
      </trkpt>
      <trkpt lat="42.48045" lon="3.12115">
        <ele>35</ele>
        <time>2024-09-23T13:33:28Z</time>
      </trkpt>
      <trkpt lat="42.48044" lon="3.12121">
        <ele>36</ele>
        <time>2024-09-23T13:33:31Z</time>
      </trkpt>
      <trkpt lat="42.48044" lon="3.12125">
        <ele>36</ele>
        <time>2024-09-23T13:33:36Z</time>
      </trkpt>
      <trkpt lat="42.48044" lon="3.12129">
        <ele>35</ele>
        <time>2024-09-23T13:33:37Z</time>
      </trkpt>
      <trkpt lat="42.48043" lon="3.12133">
        <ele>34</ele>
        <time>2024-09-23T13:33:41Z</time>
      </trkpt>
      <trkpt lat="42.48043" lon="3.12137">
        <ele>34</ele>
        <time>2024-09-23T13:33:43Z</time>
      </trkpt>
      <trkpt lat="42.48042" lon="3.12141">
        <ele>35</ele>
        <time>2024-09-23T13:33:46Z</time>
      </trkpt>
      <trkpt lat="42.48042" lon="3.12146">
        <ele>34</ele>
        <time>2024-09-23T13:33:49Z</time>
      </trkpt>
      <trkpt lat="42.48041" lon="3.1215">
        <ele>34</ele>
        <time>2024-09-23T13:33:51Z</time>
      </trkpt>
      <trkpt lat="42.48041" lon="3.12155">
        <ele>34</ele>
        <time>2024-09-23T13:33:54Z</time>
      </trkpt>
      <trkpt lat="42.48041" lon="3.12159">
        <ele>34</ele>
        <time>2024-09-23T13:33:56Z</time>
      </trkpt>
      <trkpt lat="42.4804" lon="3.12163">
        <ele>34</ele>
        <time>2024-09-23T13:33:59Z</time>
      </trkpt>
      <trkpt lat="42.4804" lon="3.12167">
        <ele>34</ele>
        <time>2024-09-23T13:34:02Z</time>
      </trkpt>
      <trkpt lat="42.4804" lon="3.12171">
        <ele>34</ele>
        <time>2024-09-23T13:34:04Z</time>
      </trkpt>
      <trkpt lat="42.48039" lon="3.12176">
        <ele>35</ele>
        <time>2024-09-23T13:34:07Z</time>
      </trkpt>
      <trkpt lat="42.48039" lon="3.1218">
        <ele>35</ele>
        <time>2024-09-23T13:34:09Z</time>
      </trkpt>
      <trkpt lat="42.48038" lon="3.12184">
        <ele>35</ele>
        <time>2024-09-23T13:34:12Z</time>
      </trkpt>
      <trkpt lat="42.48038" lon="3.12189">
        <ele>35</ele>
        <time>2024-09-23T13:34:15Z</time>
      </trkpt>
      <trkpt lat="42.48037" lon="3.12193">
        <ele>34</ele>
        <time>2024-09-23T13:34:18Z</time>
      </trkpt>
      <trkpt lat="42.48037" lon="3.12197">
        <ele>34</ele>
        <time>2024-09-23T13:34:21Z</time>
      </trkpt>
      <trkpt lat="42.48037" lon="3.12202">
        <ele>34</ele>
        <time>2024-09-23T13:34:24Z</time>
      </trkpt>
      <trkpt lat="42.48036" lon="3.12206">
        <ele>34</ele>
        <time>2024-09-23T13:34:27Z</time>
      </trkpt>
      <trkpt lat="42.48035" lon="3.1221">
        <ele>34</ele>
        <time>2024-09-23T13:34:29Z</time>
      </trkpt>
      <trkpt lat="42.48035" lon="3.12214">
        <ele>33</ele>
        <time>2024-09-23T13:34:32Z</time>
      </trkpt>
      <trkpt lat="42.48034" lon="3.12219">
        <ele>33</ele>
        <time>2024-09-23T13:34:35Z</time>
      </trkpt>
      <trkpt lat="42.48033" lon="3.12224">
        <ele>33</ele>
        <time>2024-09-23T13:34:38Z</time>
      </trkpt>
      <trkpt lat="42.48032" lon="3.12228">
        <ele>33</ele>
        <time>2024-09-23T13:34:41Z</time>
      </trkpt>
      <trkpt lat="42.48031" lon="3.12233">
        <ele>32</ele>
        <time>2024-09-23T13:34:44Z</time>
      </trkpt>
      <trkpt lat="42.4803" lon="3.12237">
        <ele>32</ele>
        <time>2024-09-23T13:34:46Z</time>
      </trkpt>
      <trkpt lat="42.48028" lon="3.12241">
        <ele>32</ele>
        <time>2024-09-23T13:34:50Z</time>
      </trkpt>
      <trkpt lat="42.48025" lon="3.12244">
        <ele>31</ele>
        <time>2024-09-23T13:34:53Z</time>
      </trkpt>
      <trkpt lat="42.48023" lon="3.12248">
        <ele>30</ele>
        <time>2024-09-23T13:34:56Z</time>
      </trkpt>
      <trkpt lat="42.48021" lon="3.12251">
        <ele>29</ele>
        <time>2024-09-23T13:34:59Z</time>
      </trkpt>
      <trkpt lat="42.48019" lon="3.12255">
        <ele>29</ele>
        <time>2024-09-23T13:35:02Z</time>
      </trkpt>
      <trkpt lat="42.48017" lon="3.12259">
        <ele>29</ele>
        <time>2024-09-23T13:35:04Z</time>
      </trkpt>
      <trkpt lat="42.48016" lon="3.12263">
        <ele>28</ele>
        <time>2024-09-23T13:35:07Z</time>
      </trkpt>
      <trkpt lat="42.48014" lon="3.12267">
        <ele>28</ele>
        <time>2024-09-23T13:35:09Z</time>
      </trkpt>
      <trkpt lat="42.48011" lon="3.1227">
        <ele>27</ele>
        <time>2024-09-23T13:35:13Z</time>
      </trkpt>
      <trkpt lat="42.48009" lon="3.12274">
        <ele>27</ele>
        <time>2024-09-23T13:35:16Z</time>
      </trkpt>
      <trkpt lat="42.48007" lon="3.12277">
        <ele>26</ele>
        <time>2024-09-23T13:35:20Z</time>
      </trkpt>
      <trkpt lat="42.48005" lon="3.1228">
        <ele>25</ele>
        <time>2024-09-23T13:35:23Z</time>
      </trkpt>
      <trkpt lat="42.48003" lon="3.12283">
        <ele>26</ele>
        <time>2024-09-23T13:35:26Z</time>
      </trkpt>
      <trkpt lat="42.48001" lon="3.12286">
        <ele>24</ele>
        <time>2024-09-23T13:35:30Z</time>
      </trkpt>
      <trkpt lat="42.47998" lon="3.12287">
        <ele>23</ele>
        <time>2024-09-23T13:35:34Z</time>
      </trkpt>
      <trkpt lat="42.47995" lon="3.12289">
        <ele>22</ele>
        <time>2024-09-23T13:35:37Z</time>
      </trkpt>
      <trkpt lat="42.47992" lon="3.1229">
        <ele>21</ele>
        <time>2024-09-23T13:35:41Z</time>
      </trkpt>
      <trkpt lat="42.47989" lon="3.12292">
        <ele>20</ele>
        <time>2024-09-23T13:35:45Z</time>
      </trkpt>
      <trkpt lat="42.47986" lon="3.12293">
        <ele>19</ele>
        <time>2024-09-23T13:35:48Z</time>
      </trkpt>
      <trkpt lat="42.47983" lon="3.12295">
        <ele>18</ele>
        <time>2024-09-23T13:35:52Z</time>
      </trkpt>
      <trkpt lat="42.4798" lon="3.12296">
        <ele>17</ele>
        <time>2024-09-23T13:35:56Z</time>
      </trkpt>
      <trkpt lat="42.47977" lon="3.12298">
        <ele>17</ele>
        <time>2024-09-23T13:36:02Z</time>
      </trkpt>
      <trkpt lat="42.47975" lon="3.12298">
        <ele>15</ele>
        <time>2024-09-23T13:36:11Z</time>
      </trkpt>
      <trkpt lat="42.47972" lon="3.12298">
        <ele>15</ele>
        <time>2024-09-23T13:36:15Z</time>
      </trkpt>
      <trkpt lat="42.47969" lon="3.12297">
        <ele>14</ele>
        <time>2024-09-23T13:36:20Z</time>
      </trkpt>
      <trkpt lat="42.47966" lon="3.12297">
        <ele>13</ele>
        <time>2024-09-23T13:36:26Z</time>
      </trkpt>
      <trkpt lat="42.47963" lon="3.12297">
        <ele>13</ele>
        <time>2024-09-23T13:36:31Z</time>
      </trkpt>
      <trkpt lat="42.4796" lon="3.12298">
        <ele>12</ele>
        <time>2024-09-23T13:36:35Z</time>
      </trkpt>
      <trkpt lat="42.47957" lon="3.12298">
        <ele>12</ele>
        <time>2024-09-23T13:36:38Z</time>
      </trkpt>
      <trkpt lat="42.47954" lon="3.12299">
        <ele>11</ele>
        <time>2024-09-23T13:36:43Z</time>
      </trkpt>
      <trkpt lat="42.47951" lon="3.12299">
        <ele>11</ele>
        <time>2024-09-23T13:36:46Z</time>
      </trkpt>
      <trkpt lat="42.47948" lon="3.123">
        <ele>9</ele>
        <time>2024-09-23T13:36:51Z</time>
      </trkpt>
      <trkpt lat="42.47947" lon="3.12304">
        <ele>9</ele>
        <time>2024-09-23T13:36:57Z</time>
      </trkpt>
      <trkpt lat="42.47948" lon="3.12307">
        <ele>10</ele>
        <time>2024-09-23T13:37:30Z</time>
      </trkpt>
      <trkpt lat="42.4795" lon="3.1231">
        <ele>11</ele>
        <time>2024-09-23T13:37:34Z</time>
      </trkpt>
      <trkpt lat="42.47953" lon="3.12312">
        <ele>11</ele>
        <time>2024-09-23T13:37:38Z</time>
      </trkpt>
      <trkpt lat="42.47956" lon="3.12313">
        <ele>12</ele>
        <time>2024-09-23T13:37:41Z</time>
      </trkpt>
      <trkpt lat="42.47959" lon="3.12316">
        <ele>12</ele>
        <time>2024-09-23T13:37:44Z</time>
      </trkpt>
      <trkpt lat="42.47962" lon="3.12319">
        <ele>13</ele>
        <time>2024-09-23T13:37:47Z</time>
      </trkpt>
      <trkpt lat="42.47964" lon="3.12322">
        <ele>12</ele>
        <time>2024-09-23T13:37:50Z</time>
      </trkpt>
      <trkpt lat="42.47966" lon="3.12327">
        <ele>14</ele>
        <time>2024-09-23T13:37:53Z</time>
      </trkpt>
      <trkpt lat="42.47966" lon="3.12331">
        <ele>13</ele>
        <time>2024-09-23T13:37:55Z</time>
      </trkpt>
      <trkpt lat="42.47965" lon="3.12335">
        <ele>14</ele>
        <time>2024-09-23T13:37:59Z</time>
      </trkpt>
      <trkpt lat="42.47964" lon="3.1234">
        <ele>15</ele>
        <time>2024-09-23T13:38:03Z</time>
      </trkpt>
      <trkpt lat="42.47963" lon="3.12344">
        <ele>16</ele>
        <time>2024-09-23T13:38:06Z</time>
      </trkpt>
      <trkpt lat="42.47962" lon="3.12347">
        <ele>15</ele>
        <time>2024-09-23T13:38:09Z</time>
      </trkpt>
      <trkpt lat="42.47961" lon="3.12351">
        <ele>16</ele>
        <time>2024-09-23T13:38:13Z</time>
      </trkpt>
      <trkpt lat="42.47961" lon="3.12355">
        <ele>15</ele>
        <time>2024-09-23T13:38:15Z</time>
      </trkpt>
      <trkpt lat="42.47963" lon="3.12359">
        <ele>15</ele>
        <time>2024-09-23T13:38:16Z</time>
      </trkpt>
      <trkpt lat="42.47961" lon="3.12361">
        <ele>15</ele>
        <time>2024-09-23T13:38:17Z</time>
      </trkpt>
      <trkpt lat="42.47963" lon="3.12366">
        <ele>15</ele>
        <time>2024-09-23T13:38:18Z</time>
      </trkpt>
      <trkpt lat="42.47961" lon="3.12368">
        <ele>15</ele>
        <time>2024-09-23T13:38:19Z</time>
      </trkpt>
      <trkpt lat="42.47959" lon="3.12371">
        <ele>14</ele>
        <time>2024-09-23T13:38:20Z</time>
      </trkpt>
      <trkpt lat="42.47958" lon="3.12374">
        <ele>13</ele>
        <time>2024-09-23T13:38:22Z</time>
      </trkpt>
      <trkpt lat="42.47957" lon="3.12378">
        <ele>12</ele>
        <time>2024-09-23T13:38:25Z</time>
      </trkpt>
      <trkpt lat="42.47956" lon="3.12383">
        <ele>12</ele>
        <time>2024-09-23T13:38:28Z</time>
      </trkpt>
      <trkpt lat="42.47955" lon="3.12387">
        <ele>11</ele>
        <time>2024-09-23T13:38:30Z</time>
      </trkpt>
      <trkpt lat="42.47954" lon="3.12392">
        <ele>11</ele>
        <time>2024-09-23T13:38:33Z</time>
      </trkpt>
      <trkpt lat="42.47954" lon="3.12396">
        <ele>9</ele>
        <time>2024-09-23T13:38:38Z</time>
      </trkpt>
      <trkpt lat="42.47953" lon="3.124">
        <ele>8</ele>
        <time>2024-09-23T13:39:01Z</time>
      </trkpt>
      <trkpt lat="42.47952" lon="3.12405">
        <ele>8</ele>
        <time>2024-09-23T13:39:05Z</time>
      </trkpt>
      <trkpt lat="42.4795" lon="3.12408">
        <ele>8</ele>
        <time>2024-09-23T13:39:08Z</time>
      </trkpt>
      <trkpt lat="42.4795" lon="3.12407">
        <ele>8</ele>
        <time>2024-09-23T13:39:10Z</time>
      </trkpt>
      <trkpt lat="42.47952" lon="3.12406">
        <ele>9</ele>
        <time>2024-09-23T13:39:17Z</time>
      </trkpt>
      <trkpt lat="42.47953" lon="3.12401">
        <ele>10</ele>
        <time>2024-09-23T13:39:23Z</time>
      </trkpt>
      <trkpt lat="42.47954" lon="3.12397">
        <ele>9</ele>
        <time>2024-09-23T13:39:27Z</time>
      </trkpt>
      <trkpt lat="42.47952" lon="3.12393">
        <ele>9</ele>
        <time>2024-09-23T13:39:30Z</time>
      </trkpt>
      <trkpt lat="42.4795" lon="3.12389">
        <ele>9</ele>
        <time>2024-09-23T13:39:32Z</time>
      </trkpt>
      <trkpt lat="42.47948" lon="3.12387">
        <ele>8</ele>
        <time>2024-09-23T13:39:35Z</time>
      </trkpt>
      <trkpt lat="42.47945" lon="3.12384">
        <ele>9</ele>
        <time>2024-09-23T13:39:38Z</time>
      </trkpt>
      <trkpt lat="42.47942" lon="3.12381">
        <ele>8</ele>
        <time>2024-09-23T13:39:41Z</time>
      </trkpt>
      <trkpt lat="42.47938" lon="3.12379">
        <ele>9</ele>
        <time>2024-09-23T13:39:44Z</time>
      </trkpt>
      <trkpt lat="42.47935" lon="3.12377">
        <ele>9</ele>
        <time>2024-09-23T13:39:47Z</time>
      </trkpt>
      <trkpt lat="42.47931" lon="3.12375">
        <ele>10</ele>
        <time>2024-09-23T13:39:50Z</time>
      </trkpt>
      <trkpt lat="42.47927" lon="3.12373">
        <ele>9</ele>
        <time>2024-09-23T13:39:54Z</time>
      </trkpt>
      <trkpt lat="42.47923" lon="3.12372">
        <ele>9</ele>
        <time>2024-09-23T13:39:56Z</time>
      </trkpt>
      <trkpt lat="42.4792" lon="3.12372">
        <ele>9</ele>
        <time>2024-09-23T13:39:58Z</time>
      </trkpt>
      <trkpt lat="42.47917" lon="3.12371">
        <ele>9</ele>
        <time>2024-09-23T13:40:00Z</time>
      </trkpt>
      <trkpt lat="42.47914" lon="3.1237">
        <ele>10</ele>
        <time>2024-09-23T13:40:03Z</time>
      </trkpt>
      <trkpt lat="42.4791" lon="3.1237">
        <ele>9</ele>
        <time>2024-09-23T13:40:06Z</time>
      </trkpt>
      <trkpt lat="42.47907" lon="3.12369">
        <ele>9</ele>
        <time>2024-09-23T13:40:08Z</time>
      </trkpt>
      <trkpt lat="42.47904" lon="3.12369">
        <ele>9</ele>
        <time>2024-09-23T13:40:10Z</time>
      </trkpt>
      <trkpt lat="42.47901" lon="3.12369">
        <ele>10</ele>
        <time>2024-09-23T13:40:13Z</time>
      </trkpt>
      <trkpt lat="42.47897" lon="3.12368">
        <ele>10</ele>
        <time>2024-09-23T13:40:15Z</time>
      </trkpt>
      <trkpt lat="42.47894" lon="3.12367">
        <ele>10</ele>
        <time>2024-09-23T13:40:17Z</time>
      </trkpt>
      <trkpt lat="42.47891" lon="3.12367">
        <ele>9</ele>
        <time>2024-09-23T13:40:20Z</time>
      </trkpt>
      <trkpt lat="42.47887" lon="3.12367">
        <ele>9</ele>
        <time>2024-09-23T13:40:23Z</time>
      </trkpt>
      <trkpt lat="42.47884" lon="3.12366">
        <ele>9</ele>
        <time>2024-09-23T13:40:25Z</time>
      </trkpt>
      <trkpt lat="42.47881" lon="3.12365">
        <ele>9</ele>
        <time>2024-09-23T13:40:27Z</time>
      </trkpt>
      <trkpt lat="42.47878" lon="3.12365">
        <ele>9</ele>
        <time>2024-09-23T13:40:29Z</time>
      </trkpt>
      <trkpt lat="42.47875" lon="3.12365">
        <ele>8</ele>
        <time>2024-09-23T13:40:32Z</time>
      </trkpt>
      <trkpt lat="42.47872" lon="3.12364">
        <ele>9</ele>
        <time>2024-09-23T13:40:35Z</time>
      </trkpt>
      <trkpt lat="42.47868" lon="3.12362">
        <ele>9</ele>
        <time>2024-09-23T13:40:38Z</time>
      </trkpt>
      <trkpt lat="42.47864" lon="3.12361">
        <ele>9</ele>
        <time>2024-09-23T13:40:41Z</time>
      </trkpt>
      <trkpt lat="42.47861" lon="3.12361">
        <ele>8</ele>
        <time>2024-09-23T13:40:44Z</time>
      </trkpt>
      <trkpt lat="42.47858" lon="3.12362">
        <ele>8</ele>
        <time>2024-09-23T13:40:46Z</time>
      </trkpt>
      <trkpt lat="42.47855" lon="3.12362">
        <ele>8</ele>
        <time>2024-09-23T13:40:49Z</time>
      </trkpt>
      <trkpt lat="42.47852" lon="3.12362">
        <ele>8</ele>
        <time>2024-09-23T13:40:51Z</time>
      </trkpt>
      <trkpt lat="42.47848" lon="3.12362">
        <ele>8</ele>
        <time>2024-09-23T13:40:54Z</time>
      </trkpt>
      <trkpt lat="42.47845" lon="3.12361">
        <ele>8</ele>
        <time>2024-09-23T13:40:57Z</time>
      </trkpt>
      <trkpt lat="42.47842" lon="3.12362">
        <ele>8</ele>
        <time>2024-09-23T13:41:00Z</time>
      </trkpt>
      <trkpt lat="42.47839" lon="3.12363">
        <ele>8</ele>
        <time>2024-09-23T13:41:03Z</time>
      </trkpt>
      <trkpt lat="42.47835" lon="3.12364">
        <ele>8</ele>
        <time>2024-09-23T13:41:06Z</time>
      </trkpt>
      <trkpt lat="42.47831" lon="3.12364">
        <ele>8</ele>
        <time>2024-09-23T13:41:09Z</time>
      </trkpt>
      <trkpt lat="42.47828" lon="3.12366">
        <ele>8</ele>
        <time>2024-09-23T13:41:12Z</time>
      </trkpt>
      <trkpt lat="42.47826" lon="3.12368">
        <ele>7</ele>
        <time>2024-09-23T13:41:15Z</time>
      </trkpt>
      <trkpt lat="42.47824" lon="3.12372">
        <ele>6</ele>
        <time>2024-09-23T13:41:18Z</time>
      </trkpt>
      <trkpt lat="42.47823" lon="3.12377">
        <ele>6</ele>
        <time>2024-09-23T13:41:20Z</time>
      </trkpt>
      <trkpt lat="42.47823" lon="3.12381">
        <ele>6</ele>
        <time>2024-09-23T13:41:22Z</time>
      </trkpt>
      <trkpt lat="42.47824" lon="3.12385">
        <ele>5</ele>
        <time>2024-09-23T13:41:25Z</time>
      </trkpt>
      <trkpt lat="42.47825" lon="3.12389">
        <ele>6</ele>
        <time>2024-09-23T13:41:27Z</time>
      </trkpt>
      <trkpt lat="42.47826" lon="3.12393">
        <ele>6</ele>
        <time>2024-09-23T13:41:30Z</time>
      </trkpt>
      <trkpt lat="42.47827" lon="3.12397">
        <ele>5</ele>
        <time>2024-09-23T13:41:33Z</time>
      </trkpt>
      <trkpt lat="42.47828" lon="3.12402">
        <ele>5</ele>
        <time>2024-09-23T13:41:36Z</time>
      </trkpt>
      <trkpt lat="42.47829" lon="3.12407">
        <ele>4</ele>
        <time>2024-09-23T13:41:39Z</time>
      </trkpt>
      <trkpt lat="42.4783" lon="3.12411">
        <ele>6</ele>
        <time>2024-09-23T13:41:41Z</time>
      </trkpt>
      <trkpt lat="42.47832" lon="3.12415">
        <ele>5</ele>
        <time>2024-09-23T13:41:44Z</time>
      </trkpt>
      <trkpt lat="42.47833" lon="3.1242">
        <ele>4</ele>
        <time>2024-09-23T13:41:47Z</time>
      </trkpt>
      <trkpt lat="42.47833" lon="3.12424">
        <ele>5</ele>
        <time>2024-09-23T13:41:50Z</time>
      </trkpt>
      <trkpt lat="42.47835" lon="3.12429">
        <ele>5</ele>
        <time>2024-09-23T13:41:53Z</time>
      </trkpt>
      <trkpt lat="42.47836" lon="3.12433">
        <ele>6</ele>
        <time>2024-09-23T13:41:55Z</time>
      </trkpt>
      <trkpt lat="42.47837" lon="3.12437">
        <ele>4</ele>
        <time>2024-09-23T13:41:57Z</time>
      </trkpt>
      <trkpt lat="42.47838" lon="3.12441">
        <ele>5</ele>
        <time>2024-09-23T13:42:00Z</time>
      </trkpt>
      <trkpt lat="42.4784" lon="3.12446">
        <ele>5</ele>
        <time>2024-09-23T13:42:02Z</time>
      </trkpt>
      <trkpt lat="42.47841" lon="3.1245">
        <ele>4</ele>
        <time>2024-09-23T13:42:05Z</time>
      </trkpt>
      <trkpt lat="42.47842" lon="3.12454">
        <ele>5</ele>
        <time>2024-09-23T13:42:07Z</time>
      </trkpt>
      <trkpt lat="42.47844" lon="3.12457">
        <ele>5</ele>
        <time>2024-09-23T13:42:09Z</time>
      </trkpt>
      <trkpt lat="42.47845" lon="3.12461">
        <ele>5</ele>
        <time>2024-09-23T13:42:12Z</time>
      </trkpt>
      <trkpt lat="42.47847" lon="3.12466">
        <ele>5</ele>
        <time>2024-09-23T13:42:15Z</time>
      </trkpt>
      <trkpt lat="42.47848" lon="3.1247">
        <ele>4</ele>
        <time>2024-09-23T13:42:17Z</time>
      </trkpt>
      <trkpt lat="42.47849" lon="3.12474">
        <ele>5</ele>
        <time>2024-09-23T13:42:20Z</time>
      </trkpt>
      <trkpt lat="42.4785" lon="3.12478">
        <ele>5</ele>
        <time>2024-09-23T13:42:22Z</time>
      </trkpt>
      <trkpt lat="42.47851" lon="3.12482">
        <ele>5</ele>
        <time>2024-09-23T13:42:24Z</time>
      </trkpt>
      <trkpt lat="42.47853" lon="3.12485">
        <ele>6</ele>
        <time>2024-09-23T13:42:26Z</time>
      </trkpt>
      <trkpt lat="42.47855" lon="3.12489">
        <ele>6</ele>
        <time>2024-09-23T13:42:29Z</time>
      </trkpt>
      <trkpt lat="42.47856" lon="3.12492">
        <ele>8</ele>
        <time>2024-09-23T13:42:31Z</time>
      </trkpt>
      <trkpt lat="42.47857" lon="3.12496">
        <ele>6</ele>
        <time>2024-09-23T13:42:34Z</time>
      </trkpt>
      <trkpt lat="42.47859" lon="3.12499">
        <ele>6</ele>
        <time>2024-09-23T13:42:37Z</time>
      </trkpt>
      <trkpt lat="42.47861" lon="3.12501">
        <ele>6</ele>
        <time>2024-09-23T13:42:40Z</time>
      </trkpt>
      <trkpt lat="42.47862" lon="3.12505">
        <ele>6</ele>
        <time>2024-09-23T13:42:43Z</time>
      </trkpt>
      <trkpt lat="42.47864" lon="3.12509">
        <ele>6</ele>
        <time>2024-09-23T13:42:46Z</time>
      </trkpt>
      <trkpt lat="42.47866" lon="3.12512">
        <ele>6</ele>
        <time>2024-09-23T13:42:48Z</time>
      </trkpt>
      <trkpt lat="42.47867" lon="3.12516">
        <ele>7</ele>
        <time>2024-09-23T13:42:50Z</time>
      </trkpt>
      <trkpt lat="42.47869" lon="3.1252">
        <ele>6</ele>
        <time>2024-09-23T13:42:53Z</time>
      </trkpt>
      <trkpt lat="42.4787" lon="3.12524">
        <ele>5</ele>
        <time>2024-09-23T13:42:56Z</time>
      </trkpt>
      <trkpt lat="42.47872" lon="3.12528">
        <ele>5</ele>
        <time>2024-09-23T13:42:59Z</time>
      </trkpt>
      <trkpt lat="42.47875" lon="3.12531">
        <ele>5</ele>
        <time>2024-09-23T13:43:02Z</time>
      </trkpt>
      <trkpt lat="42.47877" lon="3.12535">
        <ele>6</ele>
        <time>2024-09-23T13:43:05Z</time>
      </trkpt>
      <trkpt lat="42.47879" lon="3.12538">
        <ele>6</ele>
        <time>2024-09-23T13:43:07Z</time>
      </trkpt>
      <trkpt lat="42.47881" lon="3.12542">
        <ele>6</ele>
        <time>2024-09-23T13:43:10Z</time>
      </trkpt>
      <trkpt lat="42.47882" lon="3.12546">
        <ele>6</ele>
        <time>2024-09-23T13:43:13Z</time>
      </trkpt>
      <trkpt lat="42.47883" lon="3.1255">
        <ele>6</ele>
        <time>2024-09-23T13:43:16Z</time>
      </trkpt>
      <trkpt lat="42.47883" lon="3.12554">
        <ele>6</ele>
        <time>2024-09-23T13:43:19Z</time>
      </trkpt>
      <trkpt lat="42.47883" lon="3.12558">
        <ele>5</ele>
        <time>2024-09-23T13:43:22Z</time>
      </trkpt>
      <trkpt lat="42.47884" lon="3.12563">
        <ele>6</ele>
        <time>2024-09-23T13:43:24Z</time>
      </trkpt>
      <trkpt lat="42.47884" lon="3.12568">
        <ele>6</ele>
        <time>2024-09-23T13:43:28Z</time>
      </trkpt>
      <trkpt lat="42.47883" lon="3.12574">
        <ele>5</ele>
        <time>2024-09-23T13:43:31Z</time>
      </trkpt>
      <trkpt lat="42.47884" lon="3.12579">
        <ele>5</ele>
        <time>2024-09-23T13:43:35Z</time>
      </trkpt>
      <trkpt lat="42.47884" lon="3.12585">
        <ele>6</ele>
        <time>2024-09-23T13:43:38Z</time>
      </trkpt>
      <trkpt lat="42.47885" lon="3.1259">
        <ele>5</ele>
        <time>2024-09-23T13:43:42Z</time>
      </trkpt>
      <trkpt lat="42.47885" lon="3.12595">
        <ele>6</ele>
        <time>2024-09-23T13:43:45Z</time>
      </trkpt>
      <trkpt lat="42.47885" lon="3.12599">
        <ele>6</ele>
        <time>2024-09-23T13:43:47Z</time>
      </trkpt>
      <trkpt lat="42.47887" lon="3.12603">
        <ele>5</ele>
        <time>2024-09-23T13:43:50Z</time>
      </trkpt>
      <trkpt lat="42.4789" lon="3.12606">
        <ele>5</ele>
        <time>2024-09-23T13:43:53Z</time>
      </trkpt>
      <trkpt lat="42.47893" lon="3.12607">
        <ele>5</ele>
        <time>2024-09-23T13:43:55Z</time>
      </trkpt>
      <trkpt lat="42.47896" lon="3.12608">
        <ele>5</ele>
        <time>2024-09-23T13:43:58Z</time>
      </trkpt>
      <trkpt lat="42.47899" lon="3.12608">
        <ele>5</ele>
        <time>2024-09-23T13:44:01Z</time>
      </trkpt>
      <trkpt lat="42.47903" lon="3.1261">
        <ele>5</ele>
        <time>2024-09-23T13:44:05Z</time>
      </trkpt>
      <trkpt lat="42.47906" lon="3.12612">
        <ele>7</ele>
        <time>2024-09-23T13:44:07Z</time>
      </trkpt>
      <trkpt lat="42.47909" lon="3.12612">
        <ele>6</ele>
        <time>2024-09-23T13:44:09Z</time>
      </trkpt>
      <trkpt lat="42.47911" lon="3.12615">
        <ele>6</ele>
        <time>2024-09-23T13:44:11Z</time>
      </trkpt>
      <trkpt lat="42.47915" lon="3.12617">
        <ele>6</ele>
        <time>2024-09-23T13:44:14Z</time>
      </trkpt>
      <trkpt lat="42.47918" lon="3.12618">
        <ele>4</ele>
        <time>2024-09-23T13:44:17Z</time>
      </trkpt>
      <trkpt lat="42.47922" lon="3.12619">
        <ele>6</ele>
        <time>2024-09-23T13:44:20Z</time>
      </trkpt>
      <trkpt lat="42.47926" lon="3.1262">
        <ele>5</ele>
        <time>2024-09-23T13:44:23Z</time>
      </trkpt>
      <trkpt lat="42.47929" lon="3.12623">
        <ele>5</ele>
        <time>2024-09-23T13:44:26Z</time>
      </trkpt>
      <trkpt lat="42.47932" lon="3.12626">
        <ele>6</ele>
        <time>2024-09-23T13:44:28Z</time>
      </trkpt>
      <trkpt lat="42.47934" lon="3.12629">
        <ele>4</ele>
        <time>2024-09-23T13:44:30Z</time>
      </trkpt>
      <trkpt lat="42.47936" lon="3.12632">
        <ele>5</ele>
        <time>2024-09-23T13:44:31Z</time>
      </trkpt>
      <trkpt lat="42.47936" lon="3.12636">
        <ele>5</ele>
        <time>2024-09-23T13:44:33Z</time>
      </trkpt>
      <trkpt lat="42.47938" lon="3.12638">
        <ele>5</ele>
        <time>2024-09-23T13:44:35Z</time>
      </trkpt>
      <trkpt lat="42.47941" lon="3.12641">
        <ele>5</ele>
        <time>2024-09-23T13:44:37Z</time>
      </trkpt>
      <trkpt lat="42.47942" lon="3.12644">
        <ele>5</ele>
        <time>2024-09-23T13:44:42Z</time>
      </trkpt>
      <trkpt lat="42.47945" lon="3.12647">
        <ele>6</ele>
        <time>2024-09-23T13:44:43Z</time>
      </trkpt>
      <trkpt lat="42.47947" lon="3.12649">
        <ele>5</ele>
        <time>2024-09-23T13:44:45Z</time>
      </trkpt>
      <trkpt lat="42.4795" lon="3.12651">
        <ele>4</ele>
        <time>2024-09-23T13:44:51Z</time>
      </trkpt>
      <trkpt lat="42.47952" lon="3.12654">
        <ele>5</ele>
        <time>2024-09-23T13:44:54Z</time>
      </trkpt>
      <trkpt lat="42.47955" lon="3.12657">
        <ele>5</ele>
        <time>2024-09-23T13:44:56Z</time>
      </trkpt>
      <trkpt lat="42.47957" lon="3.12658">
        <ele>5</ele>
        <time>2024-09-23T13:44:58Z</time>
      </trkpt>
      <trkpt lat="42.47961" lon="3.12658">
        <ele>4</ele>
        <time>2024-09-23T13:45:00Z</time>
      </trkpt>
      <trkpt lat="42.47965" lon="3.1266">
        <ele>6</ele>
        <time>2024-09-23T13:45:03Z</time>
      </trkpt>
      <trkpt lat="42.47968" lon="3.12661">
        <ele>6</ele>
        <time>2024-09-23T13:45:05Z</time>
      </trkpt>
      <trkpt lat="42.47972" lon="3.12661">
        <ele>4</ele>
        <time>2024-09-23T13:45:08Z</time>
      </trkpt>
      <trkpt lat="42.47975" lon="3.12663">
        <ele>5</ele>
        <time>2024-09-23T13:45:11Z</time>
      </trkpt>
      <trkpt lat="42.47977" lon="3.12665">
        <ele>5</ele>
        <time>2024-09-23T13:45:15Z</time>
      </trkpt>
      <trkpt lat="42.4798" lon="3.12666">
        <ele>5</ele>
        <time>2024-09-23T13:45:17Z</time>
      </trkpt>
      <trkpt lat="42.47984" lon="3.12669">
        <ele>5</ele>
        <time>2024-09-23T13:45:20Z</time>
      </trkpt>
      <trkpt lat="42.47986" lon="3.12673">
        <ele>5</ele>
        <time>2024-09-23T13:45:23Z</time>
      </trkpt>
      <trkpt lat="42.47989" lon="3.12675">
        <ele>5</ele>
        <time>2024-09-23T13:45:25Z</time>
      </trkpt>
      <trkpt lat="42.47992" lon="3.12677">
        <ele>4</ele>
        <time>2024-09-23T13:45:28Z</time>
      </trkpt>
      <trkpt lat="42.47994" lon="3.12679">
        <ele>5</ele>
        <time>2024-09-23T13:45:30Z</time>
      </trkpt>
      <trkpt lat="42.47997" lon="3.12682">
        <ele>5</ele>
        <time>2024-09-23T13:45:33Z</time>
      </trkpt>
      <trkpt lat="42.48" lon="3.12686">
        <ele>5</ele>
        <time>2024-09-23T13:45:36Z</time>
      </trkpt>
      <trkpt lat="42.48003" lon="3.12688">
        <ele>5</ele>
        <time>2024-09-23T13:45:40Z</time>
      </trkpt>
      <trkpt lat="42.48005" lon="3.12691">
        <ele>6</ele>
        <time>2024-09-23T13:45:42Z</time>
      </trkpt>
      <trkpt lat="42.48007" lon="3.12694">
        <ele>5</ele>
        <time>2024-09-23T13:45:44Z</time>
      </trkpt>
      <trkpt lat="42.48009" lon="3.12697">
        <ele>5</ele>
        <time>2024-09-23T13:45:47Z</time>
      </trkpt>
      <trkpt lat="42.48011" lon="3.12701">
        <ele>6</ele>
        <time>2024-09-23T13:45:50Z</time>
      </trkpt>
      <trkpt lat="42.48012" lon="3.12705">
        <ele>4</ele>
        <time>2024-09-23T13:45:53Z</time>
      </trkpt>
      <trkpt lat="42.48015" lon="3.12707">
        <ele>5</ele>
        <time>2024-09-23T13:45:56Z</time>
      </trkpt>
      <trkpt lat="42.48017" lon="3.12711">
        <ele>4</ele>
        <time>2024-09-23T13:45:59Z</time>
      </trkpt>
      <trkpt lat="42.48018" lon="3.12716">
        <ele>4</ele>
        <time>2024-09-23T13:46:02Z</time>
      </trkpt>
      <trkpt lat="42.4802" lon="3.1272">
        <ele>4</ele>
        <time>2024-09-23T13:46:05Z</time>
      </trkpt>
      <trkpt lat="42.48023" lon="3.12722">
        <ele>4</ele>
        <time>2024-09-23T13:46:06Z</time>
      </trkpt>
      <trkpt lat="42.48025" lon="3.12724">
        <ele>5</ele>
        <time>2024-09-23T13:46:09Z</time>
      </trkpt>
      <trkpt lat="42.48029" lon="3.12727">
        <ele>5</ele>
        <time>2024-09-23T13:46:13Z</time>
      </trkpt>
      <trkpt lat="42.48032" lon="3.12727">
        <ele>6</ele>
        <time>2024-09-23T13:46:16Z</time>
      </trkpt>
      <trkpt lat="42.48035" lon="3.12728">
        <ele>6</ele>
        <time>2024-09-23T13:46:19Z</time>
      </trkpt>
      <trkpt lat="42.48038" lon="3.12728">
        <ele>6</ele>
        <time>2024-09-23T13:46:21Z</time>
      </trkpt>
      <trkpt lat="42.48041" lon="3.12729">
        <ele>5</ele>
        <time>2024-09-23T13:46:24Z</time>
      </trkpt>
      <trkpt lat="42.48045" lon="3.1273">
        <ele>5</ele>
        <time>2024-09-23T13:46:27Z</time>
      </trkpt>
      <trkpt lat="42.48047" lon="3.12729">
        <ele>5</ele>
        <time>2024-09-23T13:46:29Z</time>
      </trkpt>
      <trkpt lat="42.48051" lon="3.12728">
        <ele>5</ele>
        <time>2024-09-23T13:46:32Z</time>
      </trkpt>
      <trkpt lat="42.48054" lon="3.12728">
        <ele>5</ele>
        <time>2024-09-23T13:46:35Z</time>
      </trkpt>
      <trkpt lat="42.48057" lon="3.1273">
        <ele>5</ele>
        <time>2024-09-23T13:46:38Z</time>
      </trkpt>
      <trkpt lat="42.48061" lon="3.1273">
        <ele>6</ele>
        <time>2024-09-23T13:46:41Z</time>
      </trkpt>
      <trkpt lat="42.48064" lon="3.12729">
        <ele>5</ele>
        <time>2024-09-23T13:46:44Z</time>
      </trkpt>
      <trkpt lat="42.48067" lon="3.12728">
        <ele>5</ele>
        <time>2024-09-23T13:46:46Z</time>
      </trkpt>
      <trkpt lat="42.48071" lon="3.12729">
        <ele>5</ele>
        <time>2024-09-23T13:46:49Z</time>
      </trkpt>
      <trkpt lat="42.48073" lon="3.12731">
        <ele>6</ele>
        <time>2024-09-23T13:46:52Z</time>
      </trkpt>
      <trkpt lat="42.48076" lon="3.12735">
        <ele>5</ele>
        <time>2024-09-23T13:46:55Z</time>
      </trkpt>
      <trkpt lat="42.48078" lon="3.12738">
        <ele>4</ele>
        <time>2024-09-23T13:46:58Z</time>
      </trkpt>
      <trkpt lat="42.48081" lon="3.12741">
        <ele>4</ele>
        <time>2024-09-23T13:47:01Z</time>
      </trkpt>
      <trkpt lat="42.48083" lon="3.12744">
        <ele>4</ele>
        <time>2024-09-23T13:47:04Z</time>
      </trkpt>
      <trkpt lat="42.48086" lon="3.12747">
        <ele>4</ele>
        <time>2024-09-23T13:47:06Z</time>
      </trkpt>
      <trkpt lat="42.48088" lon="3.12749">
        <ele>4</ele>
        <time>2024-09-23T13:47:08Z</time>
      </trkpt>
      <trkpt lat="42.48089" lon="3.12753">
        <ele>5</ele>
        <time>2024-09-23T13:47:10Z</time>
      </trkpt>
      <trkpt lat="42.48091" lon="3.12756">
        <ele>3</ele>
        <time>2024-09-23T13:47:13Z</time>
      </trkpt>
      <trkpt lat="42.48093" lon="3.12756">
        <ele>5</ele>
        <time>2024-09-23T13:47:15Z</time>
      </trkpt>
      <trkpt lat="42.48097" lon="3.12758">
        <ele>5</ele>
        <time>2024-09-23T13:47:17Z</time>
      </trkpt>
      <trkpt lat="42.48099" lon="3.12761">
        <ele>4</ele>
        <time>2024-09-23T13:47:20Z</time>
      </trkpt>
      <trkpt lat="42.481" lon="3.12765">
        <ele>4</ele>
        <time>2024-09-23T13:47:22Z</time>
      </trkpt>
      <trkpt lat="42.48102" lon="3.12767">
        <ele>4</ele>
        <time>2024-09-23T13:47:24Z</time>
      </trkpt>
      <trkpt lat="42.48105" lon="3.1277">
        <ele>5</ele>
        <time>2024-09-23T13:47:26Z</time>
      </trkpt>
      <trkpt lat="42.48106" lon="3.12774">
        <ele>4</ele>
        <time>2024-09-23T13:47:29Z</time>
      </trkpt>
      <trkpt lat="42.48107" lon="3.12779">
        <ele>5</ele>
        <time>2024-09-23T13:47:32Z</time>
      </trkpt>
      <trkpt lat="42.48109" lon="3.12783">
        <ele>4</ele>
        <time>2024-09-23T13:47:35Z</time>
      </trkpt>
      <trkpt lat="42.48111" lon="3.12787">
        <ele>4</ele>
        <time>2024-09-23T13:47:37Z</time>
      </trkpt>
      <trkpt lat="42.48112" lon="3.12791">
        <ele>4</ele>
        <time>2024-09-23T13:47:39Z</time>
      </trkpt>
      <trkpt lat="42.48114" lon="3.12794">
        <ele>5</ele>
        <time>2024-09-23T13:47:42Z</time>
      </trkpt>
      <trkpt lat="42.48115" lon="3.12798">
        <ele>4</ele>
        <time>2024-09-23T13:47:44Z</time>
      </trkpt>
      <trkpt lat="42.48116" lon="3.12802">
        <ele>5</ele>
        <time>2024-09-23T13:47:47Z</time>
      </trkpt>
      <trkpt lat="42.48119" lon="3.12805">
        <ele>5</ele>
        <time>2024-09-23T13:47:51Z</time>
      </trkpt>
      <trkpt lat="42.48121" lon="3.12808">
        <ele>5</ele>
        <time>2024-09-23T13:47:53Z</time>
      </trkpt>
      <trkpt lat="42.48124" lon="3.1281">
        <ele>6</ele>
        <time>2024-09-23T13:47:55Z</time>
      </trkpt>
      <trkpt lat="42.48127" lon="3.12812">
        <ele>6</ele>
        <time>2024-09-23T13:47:57Z</time>
      </trkpt>
      <trkpt lat="42.48129" lon="3.12814">
        <ele>7</ele>
        <time>2024-09-23T13:47:59Z</time>
      </trkpt>
      <trkpt lat="42.48132" lon="3.12817">
        <ele>5</ele>
        <time>2024-09-23T13:48:04Z</time>
      </trkpt>
      <trkpt lat="42.48135" lon="3.12819">
        <ele>5</ele>
        <time>2024-09-23T13:48:07Z</time>
      </trkpt>
      <trkpt lat="42.48137" lon="3.12821">
        <ele>5</ele>
        <time>2024-09-23T13:48:09Z</time>
      </trkpt>
      <trkpt lat="42.4814" lon="3.12824">
        <ele>6</ele>
        <time>2024-09-23T13:48:12Z</time>
      </trkpt>
      <trkpt lat="42.48142" lon="3.12828">
        <ele>5</ele>
        <time>2024-09-23T13:48:14Z</time>
      </trkpt>
      <trkpt lat="42.48144" lon="3.12831">
        <ele>5</ele>
        <time>2024-09-23T13:48:16Z</time>
      </trkpt>
      <trkpt lat="42.48146" lon="3.12835">
        <ele>6</ele>
        <time>2024-09-23T13:48:19Z</time>
      </trkpt>
      <trkpt lat="42.48148" lon="3.12838">
        <ele>6</ele>
        <time>2024-09-23T13:48:22Z</time>
      </trkpt>
      <trkpt lat="42.48151" lon="3.12841">
        <ele>5</ele>
        <time>2024-09-23T13:48:24Z</time>
      </trkpt>
      <trkpt lat="42.48152" lon="3.12845">
        <ele>5</ele>
        <time>2024-09-23T13:48:26Z</time>
      </trkpt>
      <trkpt lat="42.48153" lon="3.12848">
        <ele>5</ele>
        <time>2024-09-23T13:48:28Z</time>
      </trkpt>
      <trkpt lat="42.48151" lon="3.12852">
        <ele>5</ele>
        <time>2024-09-23T13:48:30Z</time>
      </trkpt>
      <trkpt lat="42.48152" lon="3.12855">
        <ele>5</ele>
        <time>2024-09-23T13:48:34Z</time>
      </trkpt>
      <trkpt lat="42.48154" lon="3.12857">
        <ele>6</ele>
        <time>2024-09-23T13:48:36Z</time>
      </trkpt>
      <trkpt lat="42.48157" lon="3.12859">
        <ele>5</ele>
        <time>2024-09-23T13:48:39Z</time>
      </trkpt>
      <trkpt lat="42.4816" lon="3.1286">
        <ele>5</ele>
        <time>2024-09-23T13:48:46Z</time>
      </trkpt>
      <trkpt lat="42.48164" lon="3.12862">
        <ele>5</ele>
        <time>2024-09-23T13:48:48Z</time>
      </trkpt>
      <trkpt lat="42.48168" lon="3.12862">
        <ele>4</ele>
        <time>2024-09-23T13:48:50Z</time>
      </trkpt>
      <trkpt lat="42.48169" lon="3.12866">
        <ele>5</ele>
        <time>2024-09-23T13:48:55Z</time>
      </trkpt>
      <trkpt lat="42.48169" lon="3.12869">
        <ele>5</ele>
        <time>2024-09-23T13:48:56Z</time>
      </trkpt>
      <trkpt lat="42.4817" lon="3.12874">
        <ele>6</ele>
        <time>2024-09-23T13:48:58Z</time>
      </trkpt>
      <trkpt lat="42.48168" lon="3.12877">
        <ele>4</ele>
        <time>2024-09-23T13:49:02Z</time>
      </trkpt>
      <trkpt lat="42.48166" lon="3.1288">
        <ele>5</ele>
        <time>2024-09-23T13:49:05Z</time>
      </trkpt>
      <trkpt lat="42.48164" lon="3.12883">
        <ele>5</ele>
        <time>2024-09-23T13:49:07Z</time>
      </trkpt>
      <trkpt lat="42.48161" lon="3.12886">
        <ele>6</ele>
        <time>2024-09-23T13:49:09Z</time>
      </trkpt>
      <trkpt lat="42.48159" lon="3.12889">
        <ele>5</ele>
        <time>2024-09-23T13:49:11Z</time>
      </trkpt>
      <trkpt lat="42.48158" lon="3.12893">
        <ele>3</ele>
        <time>2024-09-23T13:49:14Z</time>
      </trkpt>
      <trkpt lat="42.48156" lon="3.12897">
        <ele>5</ele>
        <time>2024-09-23T13:49:17Z</time>
      </trkpt>
      <trkpt lat="42.48155" lon="3.12901">
        <ele>5</ele>
        <time>2024-09-23T13:49:20Z</time>
      </trkpt>
      <trkpt lat="42.48153" lon="3.12906">
        <ele>6</ele>
        <time>2024-09-23T13:49:23Z</time>
      </trkpt>
      <trkpt lat="42.48151" lon="3.1291">
        <ele>5</ele>
        <time>2024-09-23T13:49:26Z</time>
      </trkpt>
      <trkpt lat="42.48149" lon="3.12914">
        <ele>6</ele>
        <time>2024-09-23T13:49:28Z</time>
      </trkpt>
      <trkpt lat="42.48147" lon="3.12917">
        <ele>5</ele>
        <time>2024-09-23T13:49:30Z</time>
      </trkpt>
      <trkpt lat="42.48145" lon="3.1292">
        <ele>6</ele>
        <time>2024-09-23T13:49:32Z</time>
      </trkpt>
      <trkpt lat="42.48144" lon="3.12924">
        <ele>6</ele>
        <time>2024-09-23T13:49:37Z</time>
      </trkpt>
      <trkpt lat="42.48143" lon="3.12928">
        <ele>7</ele>
        <time>2024-09-23T13:49:40Z</time>
      </trkpt>
      <trkpt lat="42.48141" lon="3.12931">
        <ele>6</ele>
        <time>2024-09-23T13:49:44Z</time>
      </trkpt>
      <trkpt lat="42.48139" lon="3.12934">
        <ele>5</ele>
        <time>2024-09-23T13:49:48Z</time>
      </trkpt>
      <trkpt lat="42.48137" lon="3.12938">
        <ele>7</ele>
        <time>2024-09-23T13:49:50Z</time>
      </trkpt>
      <trkpt lat="42.48134" lon="3.12941">
        <ele>6</ele>
        <time>2024-09-23T13:49:54Z</time>
      </trkpt>
      <trkpt lat="42.48131" lon="3.12944">
        <ele>6</ele>
        <time>2024-09-23T13:49:58Z</time>
      </trkpt>
      <trkpt lat="42.48128" lon="3.12946">
        <ele>5</ele>
        <time>2024-09-23T13:50:50Z</time>
      </trkpt>
      <trkpt lat="42.48129" lon="3.12946">
        <ele>6</ele>
        <time>2024-09-23T13:51:07Z</time>
      </trkpt>
      <trkpt lat="42.48132" lon="3.12946">
        <ele>5</ele>
        <time>2024-09-23T13:51:13Z</time>
      </trkpt>
      <trkpt lat="42.48131" lon="3.12945">
        <ele>6</ele>
        <time>2024-09-23T13:51:23Z</time>
      </trkpt>
      <trkpt lat="42.48129" lon="3.12946">
        <ele>6</ele>
        <time>2024-09-23T13:51:29Z</time>
      </trkpt>
      <trkpt lat="42.48126" lon="3.12946">
        <ele>5</ele>
        <time>2024-09-23T13:51:47Z</time>
      </trkpt>
      <trkpt lat="42.48125" lon="3.12949">
        <ele>5</ele>
        <time>2024-09-23T13:51:55Z</time>
      </trkpt>
      <trkpt lat="42.48126" lon="3.1295">
        <ele>5</ele>
        <time>2024-09-23T13:51:59Z</time>
      </trkpt>
      <trkpt lat="42.48128" lon="3.12949">
        <ele>6</ele>
        <time>2024-09-23T13:52:05Z</time>
      </trkpt>
      <trkpt lat="42.48129" lon="3.12951">
        <ele>6</ele>
        <time>2024-09-23T13:53:25Z</time>
      </trkpt>
      <trkpt lat="42.48129" lon="3.12954">
        <ele>6</ele>
        <time>2024-09-23T13:53:29Z</time>
      </trkpt>
      <trkpt lat="42.48128" lon="3.12958">
        <ele>6</ele>
        <time>2024-09-23T13:53:33Z</time>
      </trkpt>
      <trkpt lat="42.48126" lon="3.1296">
        <ele>7</ele>
        <time>2024-09-23T13:53:38Z</time>
      </trkpt>
    </trkseg>
  </trk>
</gpx>